<?xml version="1.0" encoding="UTF-8"?>
<gpx creator="Garmin Connect" version="1.1"
  xsi:schemaLocation="http://www.topografix.com/GPX/1/1 http://www.topografix.com/GPX/11.xsd"
  xmlns:ns3="http://www.garmin.com/xmlschemas/TrackPointExtension/v1"
  xmlns="http://www.topografix.com/GPX/1/1"
  xmlns:xsi="http://www.w3.org/2001/XMLSchema-instance" xmlns:ns2="http://www.garmin.com/xmlschemas/GpxExtensions/v3">
  <metadata>
    <link href="connect.garmin.com">
      <text>Garmin Connect</text>
    </link>
    <time>2026-06-20T06:06:04.000Z</time>
  </metadata>
  <trk>
    <name>Decani Mountainbiken</name>
    <type>mountain_biking</type>
    <trkseg>
      <trkpt lat="42.55792982876300811767578125" lon="20.1072655431926250457763671875">
        <ele>1860.4000244140625</ele>
        <time>2026-06-20T06:06:04.000Z</time>
        <extensions>
          <ns3:TrackPointExtension>
            <ns3:atemp>20.0</ns3:atemp>
          </ns3:TrackPointExtension>
        </extensions>
      </trkpt>
      <trkpt lat="42.55792915821075439453125" lon="20.10726638138294219970703125">
        <ele>1860.4000244140625</ele>
        <time>2026-06-20T06:06:05.000Z</time>
        <extensions>
          <ns3:TrackPointExtension>
            <ns3:atemp>20.0</ns3:atemp>
          </ns3:TrackPointExtension>
        </extensions>
      </trkpt>
      <trkpt lat="42.55792915821075439453125" lon="20.10726638138294219970703125">
        <ele>1860.4000244140625</ele>
        <time>2026-06-20T06:06:06.000Z</time>
        <extensions>
          <ns3:TrackPointExtension>
            <ns3:atemp>20.0</ns3:atemp>
          </ns3:TrackPointExtension>
        </extensions>
      </trkpt>
      <trkpt lat="42.55792915821075439453125" lon="20.10726638138294219970703125">
        <ele>1860.4000244140625</ele>
        <time>2026-06-20T06:06:07.000Z</time>
        <extensions>
          <ns3:TrackPointExtension>
            <ns3:atemp>20.0</ns3:atemp>
          </ns3:TrackPointExtension>
        </extensions>
      </trkpt>
      <trkpt lat="42.55792915821075439453125" lon="20.10726638138294219970703125">
        <ele>1860.4000244140625</ele>
        <time>2026-06-20T06:06:08.000Z</time>
        <extensions>
          <ns3:TrackPointExtension>
            <ns3:atemp>20.0</ns3:atemp>
          </ns3:TrackPointExtension>
        </extensions>
      </trkpt>
      <trkpt lat="42.55792915821075439453125" lon="20.10726638138294219970703125">
        <ele>1860.4000244140625</ele>
        <time>2026-06-20T06:06:09.000Z</time>
        <extensions>
          <ns3:TrackPointExtension>
            <ns3:atemp>20.0</ns3:atemp>
          </ns3:TrackPointExtension>
        </extensions>
      </trkpt>
      <trkpt lat="42.55792915821075439453125" lon="20.10726638138294219970703125">
        <ele>1860.4000244140625</ele>
        <time>2026-06-20T06:06:10.000Z</time>
        <extensions>
          <ns3:TrackPointExtension>
            <ns3:atemp>20.0</ns3:atemp>
          </ns3:TrackPointExtension>
        </extensions>
      </trkpt>
      <trkpt lat="42.55792915821075439453125" lon="20.10726638138294219970703125">
        <ele>1860.4000244140625</ele>
        <time>2026-06-20T06:06:11.000Z</time>
        <extensions>
          <ns3:TrackPointExtension>
            <ns3:atemp>20.0</ns3:atemp>
          </ns3:TrackPointExtension>
        </extensions>
      </trkpt>
      <trkpt lat="42.55792915821075439453125" lon="20.10726638138294219970703125">
        <ele>1860.4000244140625</ele>
        <time>2026-06-20T06:06:12.000Z</time>
        <extensions>
          <ns3:TrackPointExtension>
            <ns3:atemp>20.0</ns3:atemp>
          </ns3:TrackPointExtension>
        </extensions>
      </trkpt>
      <trkpt lat="42.55792991258203983306884765625" lon="20.10726143606007099151611328125">
        <ele>1860.4000244140625</ele>
        <time>2026-06-20T06:06:13.000Z</time>
        <extensions>
          <ns3:TrackPointExtension>
            <ns3:atemp>20.0</ns3:atemp>
          </ns3:TrackPointExtension>
        </extensions>
      </trkpt>
      <trkpt lat="42.55792622454464435577392578125" lon="20.1072474382817745208740234375">
        <ele>1860.4000244140625</ele>
        <time>2026-06-20T06:06:14.000Z</time>
        <extensions>
          <ns3:TrackPointExtension>
            <ns3:atemp>20.0</ns3:atemp>
          </ns3:TrackPointExtension>
        </extensions>
      </trkpt>
      <trkpt lat="42.55792505107820034027099609375" lon="20.1072471030056476593017578125">
        <ele>1860.4000244140625</ele>
        <time>2026-06-20T06:06:15.000Z</time>
        <extensions>
          <ns3:TrackPointExtension>
            <ns3:atemp>20.0</ns3:atemp>
          </ns3:TrackPointExtension>
        </extensions>
      </trkpt>
      <trkpt lat="42.5579239614307880401611328125" lon="20.10724886320531368255615234375">
        <ele>1860.4000244140625</ele>
        <time>2026-06-20T06:06:16.000Z</time>
        <extensions>
          <ns3:TrackPointExtension>
            <ns3:atemp>20.0</ns3:atemp>
          </ns3:TrackPointExtension>
        </extensions>
      </trkpt>
      <trkpt lat="42.5579239614307880401611328125" lon="20.10724886320531368255615234375">
        <ele>1860.4000244140625</ele>
        <time>2026-06-20T06:06:17.000Z</time>
        <extensions>
          <ns3:TrackPointExtension>
            <ns3:atemp>20.0</ns3:atemp>
          </ns3:TrackPointExtension>
        </extensions>
      </trkpt>
      <trkpt lat="42.5579239614307880401611328125" lon="20.10724886320531368255615234375">
        <ele>1860.4000244140625</ele>
        <time>2026-06-20T06:06:18.000Z</time>
        <extensions>
          <ns3:TrackPointExtension>
            <ns3:atemp>20.0</ns3:atemp>
          </ns3:TrackPointExtension>
        </extensions>
      </trkpt>
      <trkpt lat="42.5579239614307880401611328125" lon="20.10724886320531368255615234375">
        <ele>1860.4000244140625</ele>
        <time>2026-06-20T06:06:19.000Z</time>
        <extensions>
          <ns3:TrackPointExtension>
            <ns3:atemp>20.0</ns3:atemp>
          </ns3:TrackPointExtension>
        </extensions>
      </trkpt>
      <trkpt lat="42.5579239614307880401611328125" lon="20.10724886320531368255615234375">
        <ele>1860.4000244140625</ele>
        <time>2026-06-20T06:06:20.000Z</time>
        <extensions>
          <ns3:TrackPointExtension>
            <ns3:atemp>20.0</ns3:atemp>
          </ns3:TrackPointExtension>
        </extensions>
      </trkpt>
      <trkpt lat="42.5579239614307880401611328125" lon="20.10724886320531368255615234375">
        <ele>1860.4000244140625</ele>
        <time>2026-06-20T06:06:21.000Z</time>
        <extensions>
          <ns3:TrackPointExtension>
            <ns3:atemp>20.0</ns3:atemp>
          </ns3:TrackPointExtension>
        </extensions>
      </trkpt>
      <trkpt lat="42.5579239614307880401611328125" lon="20.10724886320531368255615234375">
        <ele>1860.4000244140625</ele>
        <time>2026-06-20T06:06:22.000Z</time>
        <extensions>
          <ns3:TrackPointExtension>
            <ns3:atemp>20.0</ns3:atemp>
          </ns3:TrackPointExtension>
        </extensions>
      </trkpt>
      <trkpt lat="42.5579239614307880401611328125" lon="20.10724886320531368255615234375">
        <ele>1860.4000244140625</ele>
        <time>2026-06-20T06:06:23.000Z</time>
        <extensions>
          <ns3:TrackPointExtension>
            <ns3:atemp>20.0</ns3:atemp>
          </ns3:TrackPointExtension>
        </extensions>
      </trkpt>
      <trkpt lat="42.5579239614307880401611328125" lon="20.10724886320531368255615234375">
        <ele>1860.4000244140625</ele>
        <time>2026-06-20T06:06:24.000Z</time>
        <extensions>
          <ns3:TrackPointExtension>
            <ns3:atemp>20.0</ns3:atemp>
          </ns3:TrackPointExtension>
        </extensions>
      </trkpt>
      <trkpt lat="42.5579239614307880401611328125" lon="20.10724886320531368255615234375">
        <ele>1860.4000244140625</ele>
        <time>2026-06-20T06:06:25.000Z</time>
        <extensions>
          <ns3:TrackPointExtension>
            <ns3:atemp>20.0</ns3:atemp>
          </ns3:TrackPointExtension>
        </extensions>
      </trkpt>
      <trkpt lat="42.5579239614307880401611328125" lon="20.10724886320531368255615234375">
        <ele>1860.4000244140625</ele>
        <time>2026-06-20T06:06:26.000Z</time>
        <extensions>
          <ns3:TrackPointExtension>
            <ns3:atemp>20.0</ns3:atemp>
          </ns3:TrackPointExtension>
        </extensions>
      </trkpt>
      <trkpt lat="42.5579239614307880401611328125" lon="20.10724886320531368255615234375">
        <ele>1860.4000244140625</ele>
        <time>2026-06-20T06:06:27.000Z</time>
        <extensions>
          <ns3:TrackPointExtension>
            <ns3:atemp>20.0</ns3:atemp>
          </ns3:TrackPointExtension>
        </extensions>
      </trkpt>
      <trkpt lat="42.5579239614307880401611328125" lon="20.10724886320531368255615234375">
        <ele>1860.4000244140625</ele>
        <time>2026-06-20T06:06:28.000Z</time>
        <extensions>
          <ns3:TrackPointExtension>
            <ns3:atemp>20.0</ns3:atemp>
          </ns3:TrackPointExtension>
        </extensions>
      </trkpt>
      <trkpt lat="42.5579239614307880401611328125" lon="20.10724886320531368255615234375">
        <ele>1860.4000244140625</ele>
        <time>2026-06-20T06:06:29.000Z</time>
        <extensions>
          <ns3:TrackPointExtension>
            <ns3:atemp>20.0</ns3:atemp>
          </ns3:TrackPointExtension>
        </extensions>
      </trkpt>
      <trkpt lat="42.5579239614307880401611328125" lon="20.10724886320531368255615234375">
        <ele>1860.4000244140625</ele>
        <time>2026-06-20T06:06:30.000Z</time>
        <extensions>
          <ns3:TrackPointExtension>
            <ns3:atemp>20.0</ns3:atemp>
          </ns3:TrackPointExtension>
        </extensions>
      </trkpt>
      <trkpt lat="42.5579239614307880401611328125" lon="20.10724886320531368255615234375">
        <ele>1860.4000244140625</ele>
        <time>2026-06-20T06:06:31.000Z</time>
        <extensions>
          <ns3:TrackPointExtension>
            <ns3:atemp>20.0</ns3:atemp>
          </ns3:TrackPointExtension>
        </extensions>
      </trkpt>
      <trkpt lat="42.5579239614307880401611328125" lon="20.10724886320531368255615234375">
        <ele>1860.4000244140625</ele>
        <time>2026-06-20T06:06:32.000Z</time>
        <extensions>
          <ns3:TrackPointExtension>
            <ns3:atemp>20.0</ns3:atemp>
          </ns3:TrackPointExtension>
        </extensions>
      </trkpt>
      <trkpt lat="42.5579239614307880401611328125" lon="20.10724886320531368255615234375">
        <ele>1860.4000244140625</ele>
        <time>2026-06-20T06:06:33.000Z</time>
        <extensions>
          <ns3:TrackPointExtension>
            <ns3:atemp>20.0</ns3:atemp>
          </ns3:TrackPointExtension>
        </extensions>
      </trkpt>
      <trkpt lat="42.5579239614307880401611328125" lon="20.10724886320531368255615234375">
        <ele>1860.4000244140625</ele>
        <time>2026-06-20T06:06:34.000Z</time>
        <extensions>
          <ns3:TrackPointExtension>
            <ns3:atemp>20.0</ns3:atemp>
          </ns3:TrackPointExtension>
        </extensions>
      </trkpt>
      <trkpt lat="42.5579239614307880401611328125" lon="20.10724886320531368255615234375">
        <ele>1860.4000244140625</ele>
        <time>2026-06-20T06:06:35.000Z</time>
        <extensions>
          <ns3:TrackPointExtension>
            <ns3:atemp>20.0</ns3:atemp>
          </ns3:TrackPointExtension>
        </extensions>
      </trkpt>
      <trkpt lat="42.5579239614307880401611328125" lon="20.10724886320531368255615234375">
        <ele>1860.4000244140625</ele>
        <time>2026-06-20T06:06:36.000Z</time>
        <extensions>
          <ns3:TrackPointExtension>
            <ns3:atemp>20.0</ns3:atemp>
          </ns3:TrackPointExtension>
        </extensions>
      </trkpt>
      <trkpt lat="42.5579239614307880401611328125" lon="20.10724886320531368255615234375">
        <ele>1860.4000244140625</ele>
        <time>2026-06-20T06:06:37.000Z</time>
        <extensions>
          <ns3:TrackPointExtension>
            <ns3:atemp>20.0</ns3:atemp>
          </ns3:TrackPointExtension>
        </extensions>
      </trkpt>
      <trkpt lat="42.5579239614307880401611328125" lon="20.10724886320531368255615234375">
        <ele>1860.4000244140625</ele>
        <time>2026-06-20T06:06:38.000Z</time>
        <extensions>
          <ns3:TrackPointExtension>
            <ns3:atemp>20.0</ns3:atemp>
          </ns3:TrackPointExtension>
        </extensions>
      </trkpt>
      <trkpt lat="42.5579239614307880401611328125" lon="20.10724886320531368255615234375">
        <ele>1860.4000244140625</ele>
        <time>2026-06-20T06:06:39.000Z</time>
        <extensions>
          <ns3:TrackPointExtension>
            <ns3:atemp>20.0</ns3:atemp>
          </ns3:TrackPointExtension>
        </extensions>
      </trkpt>
      <trkpt lat="42.5579239614307880401611328125" lon="20.10724886320531368255615234375">
        <ele>1860.4000244140625</ele>
        <time>2026-06-20T06:06:40.000Z</time>
        <extensions>
          <ns3:TrackPointExtension>
            <ns3:atemp>20.0</ns3:atemp>
          </ns3:TrackPointExtension>
        </extensions>
      </trkpt>
      <trkpt lat="42.5579239614307880401611328125" lon="20.10724886320531368255615234375">
        <ele>1860.4000244140625</ele>
        <time>2026-06-20T06:06:41.000Z</time>
        <extensions>
          <ns3:TrackPointExtension>
            <ns3:atemp>20.0</ns3:atemp>
          </ns3:TrackPointExtension>
        </extensions>
      </trkpt>
      <trkpt lat="42.5579239614307880401611328125" lon="20.10724886320531368255615234375">
        <ele>1860.4000244140625</ele>
        <time>2026-06-20T06:06:42.000Z</time>
        <extensions>
          <ns3:TrackPointExtension>
            <ns3:atemp>20.0</ns3:atemp>
          </ns3:TrackPointExtension>
        </extensions>
      </trkpt>
      <trkpt lat="42.5579239614307880401611328125" lon="20.10724886320531368255615234375">
        <ele>1860.4000244140625</ele>
        <time>2026-06-20T06:06:43.000Z</time>
        <extensions>
          <ns3:TrackPointExtension>
            <ns3:atemp>20.0</ns3:atemp>
          </ns3:TrackPointExtension>
        </extensions>
      </trkpt>
      <trkpt lat="42.5579239614307880401611328125" lon="20.10724886320531368255615234375">
        <ele>1860.4000244140625</ele>
        <time>2026-06-20T06:06:44.000Z</time>
        <extensions>
          <ns3:TrackPointExtension>
            <ns3:atemp>20.0</ns3:atemp>
          </ns3:TrackPointExtension>
        </extensions>
      </trkpt>
      <trkpt lat="42.5579239614307880401611328125" lon="20.10724886320531368255615234375">
        <ele>1860.4000244140625</ele>
        <time>2026-06-20T06:06:45.000Z</time>
        <extensions>
          <ns3:TrackPointExtension>
            <ns3:atemp>20.0</ns3:atemp>
          </ns3:TrackPointExtension>
        </extensions>
      </trkpt>
      <trkpt lat="42.5579239614307880401611328125" lon="20.10724886320531368255615234375">
        <ele>1860.4000244140625</ele>
        <time>2026-06-20T06:06:46.000Z</time>
        <extensions>
          <ns3:TrackPointExtension>
            <ns3:atemp>20.0</ns3:atemp>
          </ns3:TrackPointExtension>
        </extensions>
      </trkpt>
      <trkpt lat="42.5579239614307880401611328125" lon="20.10724886320531368255615234375">
        <ele>1860.4000244140625</ele>
        <time>2026-06-20T06:06:47.000Z</time>
        <extensions>
          <ns3:TrackPointExtension>
            <ns3:atemp>20.0</ns3:atemp>
          </ns3:TrackPointExtension>
        </extensions>
      </trkpt>
      <trkpt lat="42.5579239614307880401611328125" lon="20.10724886320531368255615234375">
        <ele>1860.4000244140625</ele>
        <time>2026-06-20T06:06:48.000Z</time>
        <extensions>
          <ns3:TrackPointExtension>
            <ns3:atemp>20.0</ns3:atemp>
          </ns3:TrackPointExtension>
        </extensions>
      </trkpt>
      <trkpt lat="42.5579239614307880401611328125" lon="20.10724886320531368255615234375">
        <ele>1860.4000244140625</ele>
        <time>2026-06-20T06:06:49.000Z</time>
        <extensions>
          <ns3:TrackPointExtension>
            <ns3:atemp>20.0</ns3:atemp>
          </ns3:TrackPointExtension>
        </extensions>
      </trkpt>
      <trkpt lat="42.5579239614307880401611328125" lon="20.10724886320531368255615234375">
        <ele>1860.4000244140625</ele>
        <time>2026-06-20T06:06:50.000Z</time>
        <extensions>
          <ns3:TrackPointExtension>
            <ns3:atemp>20.0</ns3:atemp>
          </ns3:TrackPointExtension>
        </extensions>
      </trkpt>
      <trkpt lat="42.5579239614307880401611328125" lon="20.10724886320531368255615234375">
        <ele>1860.4000244140625</ele>
        <time>2026-06-20T06:06:51.000Z</time>
        <extensions>
          <ns3:TrackPointExtension>
            <ns3:atemp>20.0</ns3:atemp>
          </ns3:TrackPointExtension>
        </extensions>
      </trkpt>
      <trkpt lat="42.5579239614307880401611328125" lon="20.10724886320531368255615234375">
        <ele>1860.4000244140625</ele>
        <time>2026-06-20T06:06:52.000Z</time>
        <extensions>
          <ns3:TrackPointExtension>
            <ns3:atemp>20.0</ns3:atemp>
          </ns3:TrackPointExtension>
        </extensions>
      </trkpt>
      <trkpt lat="42.5579239614307880401611328125" lon="20.10724886320531368255615234375">
        <ele>1860.4000244140625</ele>
        <time>2026-06-20T06:06:53.000Z</time>
        <extensions>
          <ns3:TrackPointExtension>
            <ns3:atemp>20.0</ns3:atemp>
          </ns3:TrackPointExtension>
        </extensions>
      </trkpt>
      <trkpt lat="42.5579239614307880401611328125" lon="20.10724886320531368255615234375">
        <ele>1860.4000244140625</ele>
        <time>2026-06-20T06:06:54.000Z</time>
        <extensions>
          <ns3:TrackPointExtension>
            <ns3:atemp>20.0</ns3:atemp>
          </ns3:TrackPointExtension>
        </extensions>
      </trkpt>
      <trkpt lat="42.5579239614307880401611328125" lon="20.10724886320531368255615234375">
        <ele>1860.4000244140625</ele>
        <time>2026-06-20T06:06:55.000Z</time>
        <extensions>
          <ns3:TrackPointExtension>
            <ns3:atemp>20.0</ns3:atemp>
          </ns3:TrackPointExtension>
        </extensions>
      </trkpt>
      <trkpt lat="42.5579239614307880401611328125" lon="20.10724886320531368255615234375">
        <ele>1860.4000244140625</ele>
        <time>2026-06-20T06:06:56.000Z</time>
        <extensions>
          <ns3:TrackPointExtension>
            <ns3:atemp>20.0</ns3:atemp>
          </ns3:TrackPointExtension>
        </extensions>
      </trkpt>
      <trkpt lat="42.5579239614307880401611328125" lon="20.10724886320531368255615234375">
        <ele>1860.4000244140625</ele>
        <time>2026-06-20T06:06:57.000Z</time>
        <extensions>
          <ns3:TrackPointExtension>
            <ns3:atemp>20.0</ns3:atemp>
          </ns3:TrackPointExtension>
        </extensions>
      </trkpt>
      <trkpt lat="42.5579239614307880401611328125" lon="20.10724886320531368255615234375">
        <ele>1860.4000244140625</ele>
        <time>2026-06-20T06:06:58.000Z</time>
        <extensions>
          <ns3:TrackPointExtension>
            <ns3:atemp>20.0</ns3:atemp>
          </ns3:TrackPointExtension>
        </extensions>
      </trkpt>
      <trkpt lat="42.5579239614307880401611328125" lon="20.10724886320531368255615234375">
        <ele>1860.4000244140625</ele>
        <time>2026-06-20T06:06:59.000Z</time>
        <extensions>
          <ns3:TrackPointExtension>
            <ns3:atemp>20.0</ns3:atemp>
          </ns3:TrackPointExtension>
        </extensions>
      </trkpt>
      <trkpt lat="42.5579239614307880401611328125" lon="20.10724886320531368255615234375">
        <ele>1860.4000244140625</ele>
        <time>2026-06-20T06:07:00.000Z</time>
        <extensions>
          <ns3:TrackPointExtension>
            <ns3:atemp>20.0</ns3:atemp>
          </ns3:TrackPointExtension>
        </extensions>
      </trkpt>
      <trkpt lat="42.5579239614307880401611328125" lon="20.10724886320531368255615234375">
        <ele>1860.4000244140625</ele>
        <time>2026-06-20T06:07:01.000Z</time>
        <extensions>
          <ns3:TrackPointExtension>
            <ns3:atemp>20.0</ns3:atemp>
          </ns3:TrackPointExtension>
        </extensions>
      </trkpt>
      <trkpt lat="42.5579239614307880401611328125" lon="20.10724886320531368255615234375">
        <ele>1860.4000244140625</ele>
        <time>2026-06-20T06:07:02.000Z</time>
        <extensions>
          <ns3:TrackPointExtension>
            <ns3:atemp>20.0</ns3:atemp>
          </ns3:TrackPointExtension>
        </extensions>
      </trkpt>
      <trkpt lat="42.5579239614307880401611328125" lon="20.10724886320531368255615234375">
        <ele>1860.4000244140625</ele>
        <time>2026-06-20T06:07:03.000Z</time>
        <extensions>
          <ns3:TrackPointExtension>
            <ns3:atemp>20.0</ns3:atemp>
          </ns3:TrackPointExtension>
        </extensions>
      </trkpt>
      <trkpt lat="42.5579239614307880401611328125" lon="20.10724886320531368255615234375">
        <ele>1860.4000244140625</ele>
        <time>2026-06-20T06:07:04.000Z</time>
        <extensions>
          <ns3:TrackPointExtension>
            <ns3:atemp>20.0</ns3:atemp>
          </ns3:TrackPointExtension>
        </extensions>
      </trkpt>
      <trkpt lat="42.5579239614307880401611328125" lon="20.10724886320531368255615234375">
        <ele>1860.4000244140625</ele>
        <time>2026-06-20T06:07:05.000Z</time>
        <extensions>
          <ns3:TrackPointExtension>
            <ns3:atemp>20.0</ns3:atemp>
          </ns3:TrackPointExtension>
        </extensions>
      </trkpt>
      <trkpt lat="42.5579239614307880401611328125" lon="20.10724886320531368255615234375">
        <ele>1860.4000244140625</ele>
        <time>2026-06-20T06:07:06.000Z</time>
        <extensions>
          <ns3:TrackPointExtension>
            <ns3:atemp>20.0</ns3:atemp>
          </ns3:TrackPointExtension>
        </extensions>
      </trkpt>
      <trkpt lat="42.5579239614307880401611328125" lon="20.10724886320531368255615234375">
        <ele>1860.4000244140625</ele>
        <time>2026-06-20T06:07:07.000Z</time>
        <extensions>
          <ns3:TrackPointExtension>
            <ns3:atemp>20.0</ns3:atemp>
          </ns3:TrackPointExtension>
        </extensions>
      </trkpt>
      <trkpt lat="42.5579239614307880401611328125" lon="20.10724886320531368255615234375">
        <ele>1860.4000244140625</ele>
        <time>2026-06-20T06:07:08.000Z</time>
        <extensions>
          <ns3:TrackPointExtension>
            <ns3:atemp>20.0</ns3:atemp>
          </ns3:TrackPointExtension>
        </extensions>
      </trkpt>
      <trkpt lat="42.5579239614307880401611328125" lon="20.10724886320531368255615234375">
        <ele>1860.4000244140625</ele>
        <time>2026-06-20T06:07:09.000Z</time>
        <extensions>
          <ns3:TrackPointExtension>
            <ns3:atemp>20.0</ns3:atemp>
          </ns3:TrackPointExtension>
        </extensions>
      </trkpt>
      <trkpt lat="42.5579239614307880401611328125" lon="20.10724886320531368255615234375">
        <ele>1860.4000244140625</ele>
        <time>2026-06-20T06:07:10.000Z</time>
        <extensions>
          <ns3:TrackPointExtension>
            <ns3:atemp>20.0</ns3:atemp>
          </ns3:TrackPointExtension>
        </extensions>
      </trkpt>
      <trkpt lat="42.5579239614307880401611328125" lon="20.10724886320531368255615234375">
        <ele>1860.4000244140625</ele>
        <time>2026-06-20T06:07:11.000Z</time>
        <extensions>
          <ns3:TrackPointExtension>
            <ns3:atemp>20.0</ns3:atemp>
          </ns3:TrackPointExtension>
        </extensions>
      </trkpt>
      <trkpt lat="42.5579239614307880401611328125" lon="20.10724886320531368255615234375">
        <ele>1860.4000244140625</ele>
        <time>2026-06-20T06:07:12.000Z</time>
        <extensions>
          <ns3:TrackPointExtension>
            <ns3:atemp>20.0</ns3:atemp>
          </ns3:TrackPointExtension>
        </extensions>
      </trkpt>
      <trkpt lat="42.5579239614307880401611328125" lon="20.10724886320531368255615234375">
        <ele>1860.4000244140625</ele>
        <time>2026-06-20T06:07:13.000Z</time>
        <extensions>
          <ns3:TrackPointExtension>
            <ns3:atemp>20.0</ns3:atemp>
          </ns3:TrackPointExtension>
        </extensions>
      </trkpt>
      <trkpt lat="42.5579239614307880401611328125" lon="20.10724886320531368255615234375">
        <ele>1860.4000244140625</ele>
        <time>2026-06-20T06:07:14.000Z</time>
        <extensions>
          <ns3:TrackPointExtension>
            <ns3:atemp>20.0</ns3:atemp>
          </ns3:TrackPointExtension>
        </extensions>
      </trkpt>
      <trkpt lat="42.5579239614307880401611328125" lon="20.10724886320531368255615234375">
        <ele>1860.4000244140625</ele>
        <time>2026-06-20T06:07:15.000Z</time>
        <extensions>
          <ns3:TrackPointExtension>
            <ns3:atemp>20.0</ns3:atemp>
          </ns3:TrackPointExtension>
        </extensions>
      </trkpt>
      <trkpt lat="42.5579239614307880401611328125" lon="20.10724886320531368255615234375">
        <ele>1860.4000244140625</ele>
        <time>2026-06-20T06:07:16.000Z</time>
        <extensions>
          <ns3:TrackPointExtension>
            <ns3:atemp>20.0</ns3:atemp>
          </ns3:TrackPointExtension>
        </extensions>
      </trkpt>
      <trkpt lat="42.5579239614307880401611328125" lon="20.10724886320531368255615234375">
        <ele>1860.4000244140625</ele>
        <time>2026-06-20T06:07:17.000Z</time>
        <extensions>
          <ns3:TrackPointExtension>
            <ns3:atemp>20.0</ns3:atemp>
          </ns3:TrackPointExtension>
        </extensions>
      </trkpt>
      <trkpt lat="42.5579239614307880401611328125" lon="20.10724886320531368255615234375">
        <ele>1860.4000244140625</ele>
        <time>2026-06-20T06:07:18.000Z</time>
        <extensions>
          <ns3:TrackPointExtension>
            <ns3:atemp>20.0</ns3:atemp>
          </ns3:TrackPointExtension>
        </extensions>
      </trkpt>
      <trkpt lat="42.5579239614307880401611328125" lon="20.10724886320531368255615234375">
        <ele>1860.4000244140625</ele>
        <time>2026-06-20T06:07:19.000Z</time>
        <extensions>
          <ns3:TrackPointExtension>
            <ns3:atemp>20.0</ns3:atemp>
          </ns3:TrackPointExtension>
        </extensions>
      </trkpt>
      <trkpt lat="42.5579239614307880401611328125" lon="20.10724886320531368255615234375">
        <ele>1860.4000244140625</ele>
        <time>2026-06-20T06:07:20.000Z</time>
        <extensions>
          <ns3:TrackPointExtension>
            <ns3:atemp>20.0</ns3:atemp>
          </ns3:TrackPointExtension>
        </extensions>
      </trkpt>
      <trkpt lat="42.5579239614307880401611328125" lon="20.10724886320531368255615234375">
        <ele>1860.4000244140625</ele>
        <time>2026-06-20T06:07:21.000Z</time>
        <extensions>
          <ns3:TrackPointExtension>
            <ns3:atemp>20.0</ns3:atemp>
          </ns3:TrackPointExtension>
        </extensions>
      </trkpt>
      <trkpt lat="42.5579239614307880401611328125" lon="20.10724886320531368255615234375">
        <ele>1860.4000244140625</ele>
        <time>2026-06-20T06:07:22.000Z</time>
        <extensions>
          <ns3:TrackPointExtension>
            <ns3:atemp>20.0</ns3:atemp>
          </ns3:TrackPointExtension>
        </extensions>
      </trkpt>
      <trkpt lat="42.5579239614307880401611328125" lon="20.10724886320531368255615234375">
        <ele>1860.4000244140625</ele>
        <time>2026-06-20T06:07:23.000Z</time>
        <extensions>
          <ns3:TrackPointExtension>
            <ns3:atemp>20.0</ns3:atemp>
          </ns3:TrackPointExtension>
        </extensions>
      </trkpt>
      <trkpt lat="42.5579239614307880401611328125" lon="20.10724886320531368255615234375">
        <ele>1860.4000244140625</ele>
        <time>2026-06-20T06:07:24.000Z</time>
        <extensions>
          <ns3:TrackPointExtension>
            <ns3:atemp>20.0</ns3:atemp>
          </ns3:TrackPointExtension>
        </extensions>
      </trkpt>
      <trkpt lat="42.5579239614307880401611328125" lon="20.10724886320531368255615234375">
        <ele>1860.4000244140625</ele>
        <time>2026-06-20T06:07:25.000Z</time>
        <extensions>
          <ns3:TrackPointExtension>
            <ns3:atemp>20.0</ns3:atemp>
          </ns3:TrackPointExtension>
        </extensions>
      </trkpt>
      <trkpt lat="42.5579239614307880401611328125" lon="20.10724886320531368255615234375">
        <ele>1860.4000244140625</ele>
        <time>2026-06-20T06:07:26.000Z</time>
        <extensions>
          <ns3:TrackPointExtension>
            <ns3:atemp>20.0</ns3:atemp>
          </ns3:TrackPointExtension>
        </extensions>
      </trkpt>
      <trkpt lat="42.5579239614307880401611328125" lon="20.10724886320531368255615234375">
        <ele>1860.4000244140625</ele>
        <time>2026-06-20T06:07:27.000Z</time>
        <extensions>
          <ns3:TrackPointExtension>
            <ns3:atemp>20.0</ns3:atemp>
          </ns3:TrackPointExtension>
        </extensions>
      </trkpt>
      <trkpt lat="42.5579239614307880401611328125" lon="20.10724886320531368255615234375">
        <ele>1860.4000244140625</ele>
        <time>2026-06-20T06:07:28.000Z</time>
        <extensions>
          <ns3:TrackPointExtension>
            <ns3:atemp>20.0</ns3:atemp>
          </ns3:TrackPointExtension>
        </extensions>
      </trkpt>
      <trkpt lat="42.5579239614307880401611328125" lon="20.10724886320531368255615234375">
        <ele>1860.4000244140625</ele>
        <time>2026-06-20T06:07:29.000Z</time>
        <extensions>
          <ns3:TrackPointExtension>
            <ns3:atemp>20.0</ns3:atemp>
          </ns3:TrackPointExtension>
        </extensions>
      </trkpt>
      <trkpt lat="42.5579239614307880401611328125" lon="20.10724886320531368255615234375">
        <ele>1860.4000244140625</ele>
        <time>2026-06-20T06:07:30.000Z</time>
        <extensions>
          <ns3:TrackPointExtension>
            <ns3:atemp>20.0</ns3:atemp>
          </ns3:TrackPointExtension>
        </extensions>
      </trkpt>
      <trkpt lat="42.5579239614307880401611328125" lon="20.10724886320531368255615234375">
        <ele>1860.4000244140625</ele>
        <time>2026-06-20T06:07:31.000Z</time>
        <extensions>
          <ns3:TrackPointExtension>
            <ns3:atemp>20.0</ns3:atemp>
          </ns3:TrackPointExtension>
        </extensions>
      </trkpt>
      <trkpt lat="42.5579239614307880401611328125" lon="20.10724886320531368255615234375">
        <ele>1860.4000244140625</ele>
        <time>2026-06-20T06:07:32.000Z</time>
        <extensions>
          <ns3:TrackPointExtension>
            <ns3:atemp>20.0</ns3:atemp>
          </ns3:TrackPointExtension>
        </extensions>
      </trkpt>
      <trkpt lat="42.5579239614307880401611328125" lon="20.10724886320531368255615234375">
        <ele>1860.4000244140625</ele>
        <time>2026-06-20T06:07:33.000Z</time>
        <extensions>
          <ns3:TrackPointExtension>
            <ns3:atemp>20.0</ns3:atemp>
          </ns3:TrackPointExtension>
        </extensions>
      </trkpt>
      <trkpt lat="42.5579239614307880401611328125" lon="20.10724886320531368255615234375">
        <ele>1860.4000244140625</ele>
        <time>2026-06-20T06:07:34.000Z</time>
        <extensions>
          <ns3:TrackPointExtension>
            <ns3:atemp>20.0</ns3:atemp>
          </ns3:TrackPointExtension>
        </extensions>
      </trkpt>
      <trkpt lat="42.5579239614307880401611328125" lon="20.10724886320531368255615234375">
        <ele>1860.4000244140625</ele>
        <time>2026-06-20T06:07:35.000Z</time>
        <extensions>
          <ns3:TrackPointExtension>
            <ns3:atemp>20.0</ns3:atemp>
          </ns3:TrackPointExtension>
        </extensions>
      </trkpt>
      <trkpt lat="42.5579239614307880401611328125" lon="20.10724886320531368255615234375">
        <ele>1860.4000244140625</ele>
        <time>2026-06-20T06:07:36.000Z</time>
        <extensions>
          <ns3:TrackPointExtension>
            <ns3:atemp>20.0</ns3:atemp>
          </ns3:TrackPointExtension>
        </extensions>
      </trkpt>
      <trkpt lat="42.5579239614307880401611328125" lon="20.10724886320531368255615234375">
        <ele>1860.4000244140625</ele>
        <time>2026-06-20T06:07:37.000Z</time>
        <extensions>
          <ns3:TrackPointExtension>
            <ns3:atemp>20.0</ns3:atemp>
          </ns3:TrackPointExtension>
        </extensions>
      </trkpt>
      <trkpt lat="42.5579239614307880401611328125" lon="20.10724886320531368255615234375">
        <ele>1860.4000244140625</ele>
        <time>2026-06-20T06:07:38.000Z</time>
        <extensions>
          <ns3:TrackPointExtension>
            <ns3:atemp>20.0</ns3:atemp>
          </ns3:TrackPointExtension>
        </extensions>
      </trkpt>
      <trkpt lat="42.5579239614307880401611328125" lon="20.10724886320531368255615234375">
        <ele>1860.4000244140625</ele>
        <time>2026-06-20T06:07:39.000Z</time>
        <extensions>
          <ns3:TrackPointExtension>
            <ns3:atemp>20.0</ns3:atemp>
          </ns3:TrackPointExtension>
        </extensions>
      </trkpt>
      <trkpt lat="42.5579239614307880401611328125" lon="20.10724886320531368255615234375">
        <ele>1860.4000244140625</ele>
        <time>2026-06-20T06:07:40.000Z</time>
        <extensions>
          <ns3:TrackPointExtension>
            <ns3:atemp>20.0</ns3:atemp>
          </ns3:TrackPointExtension>
        </extensions>
      </trkpt>
      <trkpt lat="42.5579239614307880401611328125" lon="20.10724886320531368255615234375">
        <ele>1860.4000244140625</ele>
        <time>2026-06-20T06:07:41.000Z</time>
        <extensions>
          <ns3:TrackPointExtension>
            <ns3:atemp>20.0</ns3:atemp>
          </ns3:TrackPointExtension>
        </extensions>
      </trkpt>
      <trkpt lat="42.5579239614307880401611328125" lon="20.10724886320531368255615234375">
        <ele>1860.4000244140625</ele>
        <time>2026-06-20T06:07:42.000Z</time>
        <extensions>
          <ns3:TrackPointExtension>
            <ns3:atemp>20.0</ns3:atemp>
          </ns3:TrackPointExtension>
        </extensions>
      </trkpt>
      <trkpt lat="42.5579239614307880401611328125" lon="20.10724886320531368255615234375">
        <ele>1860.4000244140625</ele>
        <time>2026-06-20T06:07:43.000Z</time>
        <extensions>
          <ns3:TrackPointExtension>
            <ns3:atemp>20.0</ns3:atemp>
          </ns3:TrackPointExtension>
        </extensions>
      </trkpt>
      <trkpt lat="42.5579239614307880401611328125" lon="20.10724886320531368255615234375">
        <ele>1860.4000244140625</ele>
        <time>2026-06-20T06:07:44.000Z</time>
        <extensions>
          <ns3:TrackPointExtension>
            <ns3:atemp>20.0</ns3:atemp>
          </ns3:TrackPointExtension>
        </extensions>
      </trkpt>
      <trkpt lat="42.5579239614307880401611328125" lon="20.10724886320531368255615234375">
        <ele>1860.4000244140625</ele>
        <time>2026-06-20T06:07:45.000Z</time>
        <extensions>
          <ns3:TrackPointExtension>
            <ns3:atemp>20.0</ns3:atemp>
          </ns3:TrackPointExtension>
        </extensions>
      </trkpt>
      <trkpt lat="42.5579239614307880401611328125" lon="20.10724886320531368255615234375">
        <ele>1860.4000244140625</ele>
        <time>2026-06-20T06:07:46.000Z</time>
        <extensions>
          <ns3:TrackPointExtension>
            <ns3:atemp>20.0</ns3:atemp>
          </ns3:TrackPointExtension>
        </extensions>
      </trkpt>
      <trkpt lat="42.5579239614307880401611328125" lon="20.10724886320531368255615234375">
        <ele>1860.4000244140625</ele>
        <time>2026-06-20T06:07:47.000Z</time>
        <extensions>
          <ns3:TrackPointExtension>
            <ns3:atemp>20.0</ns3:atemp>
          </ns3:TrackPointExtension>
        </extensions>
      </trkpt>
      <trkpt lat="42.5579239614307880401611328125" lon="20.10724886320531368255615234375">
        <ele>1860.4000244140625</ele>
        <time>2026-06-20T06:07:48.000Z</time>
        <extensions>
          <ns3:TrackPointExtension>
            <ns3:atemp>20.0</ns3:atemp>
          </ns3:TrackPointExtension>
        </extensions>
      </trkpt>
      <trkpt lat="42.5579239614307880401611328125" lon="20.10724886320531368255615234375">
        <ele>1860.4000244140625</ele>
        <time>2026-06-20T06:07:49.000Z</time>
        <extensions>
          <ns3:TrackPointExtension>
            <ns3:atemp>20.0</ns3:atemp>
          </ns3:TrackPointExtension>
        </extensions>
      </trkpt>
      <trkpt lat="42.5579239614307880401611328125" lon="20.10724886320531368255615234375">
        <ele>1860.4000244140625</ele>
        <time>2026-06-20T06:07:50.000Z</time>
        <extensions>
          <ns3:TrackPointExtension>
            <ns3:atemp>20.0</ns3:atemp>
          </ns3:TrackPointExtension>
        </extensions>
      </trkpt>
      <trkpt lat="42.5579239614307880401611328125" lon="20.10724886320531368255615234375">
        <ele>1860.4000244140625</ele>
        <time>2026-06-20T06:07:51.000Z</time>
        <extensions>
          <ns3:TrackPointExtension>
            <ns3:atemp>20.0</ns3:atemp>
          </ns3:TrackPointExtension>
        </extensions>
      </trkpt>
      <trkpt lat="42.5579239614307880401611328125" lon="20.10724886320531368255615234375">
        <ele>1860.4000244140625</ele>
        <time>2026-06-20T06:07:52.000Z</time>
        <extensions>
          <ns3:TrackPointExtension>
            <ns3:atemp>20.0</ns3:atemp>
          </ns3:TrackPointExtension>
        </extensions>
      </trkpt>
      <trkpt lat="42.5579239614307880401611328125" lon="20.10724886320531368255615234375">
        <ele>1860.4000244140625</ele>
        <time>2026-06-20T06:07:53.000Z</time>
        <extensions>
          <ns3:TrackPointExtension>
            <ns3:atemp>20.0</ns3:atemp>
          </ns3:TrackPointExtension>
        </extensions>
      </trkpt>
      <trkpt lat="42.5579239614307880401611328125" lon="20.10724886320531368255615234375">
        <ele>1860.4000244140625</ele>
        <time>2026-06-20T06:07:54.000Z</time>
        <extensions>
          <ns3:TrackPointExtension>
            <ns3:atemp>20.0</ns3:atemp>
          </ns3:TrackPointExtension>
        </extensions>
      </trkpt>
      <trkpt lat="42.5579239614307880401611328125" lon="20.10724886320531368255615234375">
        <ele>1860.4000244140625</ele>
        <time>2026-06-20T06:07:55.000Z</time>
        <extensions>
          <ns3:TrackPointExtension>
            <ns3:atemp>20.0</ns3:atemp>
          </ns3:TrackPointExtension>
        </extensions>
      </trkpt>
      <trkpt lat="42.5579239614307880401611328125" lon="20.10724886320531368255615234375">
        <ele>1860.4000244140625</ele>
        <time>2026-06-20T06:07:56.000Z</time>
        <extensions>
          <ns3:TrackPointExtension>
            <ns3:atemp>20.0</ns3:atemp>
          </ns3:TrackPointExtension>
        </extensions>
      </trkpt>
      <trkpt lat="42.5579239614307880401611328125" lon="20.10724886320531368255615234375">
        <ele>1860.4000244140625</ele>
        <time>2026-06-20T06:07:57.000Z</time>
        <extensions>
          <ns3:TrackPointExtension>
            <ns3:atemp>20.0</ns3:atemp>
          </ns3:TrackPointExtension>
        </extensions>
      </trkpt>
      <trkpt lat="42.5579239614307880401611328125" lon="20.10724886320531368255615234375">
        <ele>1860.4000244140625</ele>
        <time>2026-06-20T06:07:58.000Z</time>
        <extensions>
          <ns3:TrackPointExtension>
            <ns3:atemp>20.0</ns3:atemp>
          </ns3:TrackPointExtension>
        </extensions>
      </trkpt>
      <trkpt lat="42.5579239614307880401611328125" lon="20.10724886320531368255615234375">
        <ele>1860.4000244140625</ele>
        <time>2026-06-20T06:07:59.000Z</time>
        <extensions>
          <ns3:TrackPointExtension>
            <ns3:atemp>20.0</ns3:atemp>
          </ns3:TrackPointExtension>
        </extensions>
      </trkpt>
      <trkpt lat="42.5579239614307880401611328125" lon="20.10724886320531368255615234375">
        <ele>1860.4000244140625</ele>
        <time>2026-06-20T06:08:00.000Z</time>
        <extensions>
          <ns3:TrackPointExtension>
            <ns3:atemp>20.0</ns3:atemp>
          </ns3:TrackPointExtension>
        </extensions>
      </trkpt>
      <trkpt lat="42.5579239614307880401611328125" lon="20.10724886320531368255615234375">
        <ele>1860.4000244140625</ele>
        <time>2026-06-20T06:08:01.000Z</time>
        <extensions>
          <ns3:TrackPointExtension>
            <ns3:atemp>20.0</ns3:atemp>
          </ns3:TrackPointExtension>
        </extensions>
      </trkpt>
      <trkpt lat="42.5579239614307880401611328125" lon="20.10724886320531368255615234375">
        <ele>1860.4000244140625</ele>
        <time>2026-06-20T06:08:02.000Z</time>
        <extensions>
          <ns3:TrackPointExtension>
            <ns3:atemp>20.0</ns3:atemp>
          </ns3:TrackPointExtension>
        </extensions>
      </trkpt>
      <trkpt lat="42.5579239614307880401611328125" lon="20.10724886320531368255615234375">
        <ele>1860.4000244140625</ele>
        <time>2026-06-20T06:08:03.000Z</time>
        <extensions>
          <ns3:TrackPointExtension>
            <ns3:atemp>20.0</ns3:atemp>
          </ns3:TrackPointExtension>
        </extensions>
      </trkpt>
      <trkpt lat="42.5579239614307880401611328125" lon="20.10724886320531368255615234375">
        <ele>1860.4000244140625</ele>
        <time>2026-06-20T06:08:04.000Z</time>
        <extensions>
          <ns3:TrackPointExtension>
            <ns3:atemp>20.0</ns3:atemp>
          </ns3:TrackPointExtension>
        </extensions>
      </trkpt>
      <trkpt lat="42.5579239614307880401611328125" lon="20.10724886320531368255615234375">
        <ele>1860.4000244140625</ele>
        <time>2026-06-20T06:08:05.000Z</time>
        <extensions>
          <ns3:TrackPointExtension>
            <ns3:atemp>20.0</ns3:atemp>
          </ns3:TrackPointExtension>
        </extensions>
      </trkpt>
      <trkpt lat="42.5579239614307880401611328125" lon="20.10724886320531368255615234375">
        <ele>1860.4000244140625</ele>
        <time>2026-06-20T06:08:06.000Z</time>
        <extensions>
          <ns3:TrackPointExtension>
            <ns3:atemp>20.0</ns3:atemp>
          </ns3:TrackPointExtension>
        </extensions>
      </trkpt>
      <trkpt lat="42.5579239614307880401611328125" lon="20.10724886320531368255615234375">
        <ele>1860.4000244140625</ele>
        <time>2026-06-20T06:08:07.000Z</time>
        <extensions>
          <ns3:TrackPointExtension>
            <ns3:atemp>20.0</ns3:atemp>
          </ns3:TrackPointExtension>
        </extensions>
      </trkpt>
      <trkpt lat="42.5579239614307880401611328125" lon="20.10724886320531368255615234375">
        <ele>1860.4000244140625</ele>
        <time>2026-06-20T06:08:08.000Z</time>
        <extensions>
          <ns3:TrackPointExtension>
            <ns3:atemp>20.0</ns3:atemp>
          </ns3:TrackPointExtension>
        </extensions>
      </trkpt>
      <trkpt lat="42.5579239614307880401611328125" lon="20.10724886320531368255615234375">
        <ele>1860.4000244140625</ele>
        <time>2026-06-20T06:08:09.000Z</time>
        <extensions>
          <ns3:TrackPointExtension>
            <ns3:atemp>20.0</ns3:atemp>
          </ns3:TrackPointExtension>
        </extensions>
      </trkpt>
      <trkpt lat="42.5579239614307880401611328125" lon="20.10724886320531368255615234375">
        <ele>1860.4000244140625</ele>
        <time>2026-06-20T06:08:10.000Z</time>
        <extensions>
          <ns3:TrackPointExtension>
            <ns3:atemp>20.0</ns3:atemp>
          </ns3:TrackPointExtension>
        </extensions>
      </trkpt>
      <trkpt lat="42.5579239614307880401611328125" lon="20.10724886320531368255615234375">
        <ele>1860.4000244140625</ele>
        <time>2026-06-20T06:08:11.000Z</time>
        <extensions>
          <ns3:TrackPointExtension>
            <ns3:atemp>20.0</ns3:atemp>
          </ns3:TrackPointExtension>
        </extensions>
      </trkpt>
      <trkpt lat="42.5579239614307880401611328125" lon="20.10724886320531368255615234375">
        <ele>1860.4000244140625</ele>
        <time>2026-06-20T06:08:12.000Z</time>
        <extensions>
          <ns3:TrackPointExtension>
            <ns3:atemp>20.0</ns3:atemp>
          </ns3:TrackPointExtension>
        </extensions>
      </trkpt>
      <trkpt lat="42.5579239614307880401611328125" lon="20.10724886320531368255615234375">
        <ele>1860.4000244140625</ele>
        <time>2026-06-20T06:08:13.000Z</time>
        <extensions>
          <ns3:TrackPointExtension>
            <ns3:atemp>20.0</ns3:atemp>
          </ns3:TrackPointExtension>
        </extensions>
      </trkpt>
      <trkpt lat="42.5579239614307880401611328125" lon="20.10724886320531368255615234375">
        <ele>1860.4000244140625</ele>
        <time>2026-06-20T06:08:14.000Z</time>
        <extensions>
          <ns3:TrackPointExtension>
            <ns3:atemp>20.0</ns3:atemp>
          </ns3:TrackPointExtension>
        </extensions>
      </trkpt>
      <trkpt lat="42.5579239614307880401611328125" lon="20.10724886320531368255615234375">
        <ele>1860.4000244140625</ele>
        <time>2026-06-20T06:08:15.000Z</time>
        <extensions>
          <ns3:TrackPointExtension>
            <ns3:atemp>20.0</ns3:atemp>
          </ns3:TrackPointExtension>
        </extensions>
      </trkpt>
      <trkpt lat="42.5579239614307880401611328125" lon="20.10724886320531368255615234375">
        <ele>1860.4000244140625</ele>
        <time>2026-06-20T06:08:16.000Z</time>
        <extensions>
          <ns3:TrackPointExtension>
            <ns3:atemp>20.0</ns3:atemp>
          </ns3:TrackPointExtension>
        </extensions>
      </trkpt>
      <trkpt lat="42.5579239614307880401611328125" lon="20.10724886320531368255615234375">
        <ele>1860.4000244140625</ele>
        <time>2026-06-20T06:08:17.000Z</time>
        <extensions>
          <ns3:TrackPointExtension>
            <ns3:atemp>20.0</ns3:atemp>
          </ns3:TrackPointExtension>
        </extensions>
      </trkpt>
      <trkpt lat="42.5579239614307880401611328125" lon="20.10724886320531368255615234375">
        <ele>1860.4000244140625</ele>
        <time>2026-06-20T06:08:18.000Z</time>
        <extensions>
          <ns3:TrackPointExtension>
            <ns3:atemp>20.0</ns3:atemp>
          </ns3:TrackPointExtension>
        </extensions>
      </trkpt>
      <trkpt lat="42.5579239614307880401611328125" lon="20.10724886320531368255615234375">
        <ele>1860.4000244140625</ele>
        <time>2026-06-20T06:08:19.000Z</time>
        <extensions>
          <ns3:TrackPointExtension>
            <ns3:atemp>20.0</ns3:atemp>
          </ns3:TrackPointExtension>
        </extensions>
      </trkpt>
      <trkpt lat="42.5579239614307880401611328125" lon="20.10724886320531368255615234375">
        <ele>1860.4000244140625</ele>
        <time>2026-06-20T06:08:20.000Z</time>
        <extensions>
          <ns3:TrackPointExtension>
            <ns3:atemp>20.0</ns3:atemp>
          </ns3:TrackPointExtension>
        </extensions>
      </trkpt>
      <trkpt lat="42.5579239614307880401611328125" lon="20.10724886320531368255615234375">
        <ele>1860.4000244140625</ele>
        <time>2026-06-20T06:08:21.000Z</time>
        <extensions>
          <ns3:TrackPointExtension>
            <ns3:atemp>20.0</ns3:atemp>
          </ns3:TrackPointExtension>
        </extensions>
      </trkpt>
      <trkpt lat="42.5579239614307880401611328125" lon="20.10724886320531368255615234375">
        <ele>1860.4000244140625</ele>
        <time>2026-06-20T06:08:22.000Z</time>
        <extensions>
          <ns3:TrackPointExtension>
            <ns3:atemp>20.0</ns3:atemp>
          </ns3:TrackPointExtension>
        </extensions>
      </trkpt>
      <trkpt lat="42.5579239614307880401611328125" lon="20.10724886320531368255615234375">
        <ele>1860.4000244140625</ele>
        <time>2026-06-20T06:08:23.000Z</time>
        <extensions>
          <ns3:TrackPointExtension>
            <ns3:atemp>20.0</ns3:atemp>
          </ns3:TrackPointExtension>
        </extensions>
      </trkpt>
      <trkpt lat="42.5579239614307880401611328125" lon="20.10724886320531368255615234375">
        <ele>1860.4000244140625</ele>
        <time>2026-06-20T06:08:24.000Z</time>
        <extensions>
          <ns3:TrackPointExtension>
            <ns3:atemp>20.0</ns3:atemp>
          </ns3:TrackPointExtension>
        </extensions>
      </trkpt>
      <trkpt lat="42.5579239614307880401611328125" lon="20.10724886320531368255615234375">
        <ele>1860.4000244140625</ele>
        <time>2026-06-20T06:08:25.000Z</time>
        <extensions>
          <ns3:TrackPointExtension>
            <ns3:atemp>20.0</ns3:atemp>
          </ns3:TrackPointExtension>
        </extensions>
      </trkpt>
      <trkpt lat="42.5579239614307880401611328125" lon="20.10724886320531368255615234375">
        <ele>1860.4000244140625</ele>
        <time>2026-06-20T06:08:26.000Z</time>
        <extensions>
          <ns3:TrackPointExtension>
            <ns3:atemp>20.0</ns3:atemp>
          </ns3:TrackPointExtension>
        </extensions>
      </trkpt>
      <trkpt lat="42.5579239614307880401611328125" lon="20.10724886320531368255615234375">
        <ele>1860.4000244140625</ele>
        <time>2026-06-20T06:08:27.000Z</time>
        <extensions>
          <ns3:TrackPointExtension>
            <ns3:atemp>20.0</ns3:atemp>
          </ns3:TrackPointExtension>
        </extensions>
      </trkpt>
      <trkpt lat="42.5579239614307880401611328125" lon="20.10724886320531368255615234375">
        <ele>1860.4000244140625</ele>
        <time>2026-06-20T06:08:28.000Z</time>
        <extensions>
          <ns3:TrackPointExtension>
            <ns3:atemp>20.0</ns3:atemp>
          </ns3:TrackPointExtension>
        </extensions>
      </trkpt>
      <trkpt lat="42.5579239614307880401611328125" lon="20.10724886320531368255615234375">
        <ele>1860.4000244140625</ele>
        <time>2026-06-20T06:08:29.000Z</time>
        <extensions>
          <ns3:TrackPointExtension>
            <ns3:atemp>20.0</ns3:atemp>
          </ns3:TrackPointExtension>
        </extensions>
      </trkpt>
      <trkpt lat="42.5579239614307880401611328125" lon="20.10724886320531368255615234375">
        <ele>1860.4000244140625</ele>
        <time>2026-06-20T06:08:30.000Z</time>
        <extensions>
          <ns3:TrackPointExtension>
            <ns3:atemp>20.0</ns3:atemp>
          </ns3:TrackPointExtension>
        </extensions>
      </trkpt>
      <trkpt lat="42.5579239614307880401611328125" lon="20.10724886320531368255615234375">
        <ele>1860.4000244140625</ele>
        <time>2026-06-20T06:08:31.000Z</time>
        <extensions>
          <ns3:TrackPointExtension>
            <ns3:atemp>20.0</ns3:atemp>
          </ns3:TrackPointExtension>
        </extensions>
      </trkpt>
      <trkpt lat="42.5579239614307880401611328125" lon="20.10724886320531368255615234375">
        <ele>1860.4000244140625</ele>
        <time>2026-06-20T06:08:32.000Z</time>
        <extensions>
          <ns3:TrackPointExtension>
            <ns3:atemp>20.0</ns3:atemp>
          </ns3:TrackPointExtension>
        </extensions>
      </trkpt>
      <trkpt lat="42.5579239614307880401611328125" lon="20.10724886320531368255615234375">
        <ele>1860.4000244140625</ele>
        <time>2026-06-20T06:08:33.000Z</time>
        <extensions>
          <ns3:TrackPointExtension>
            <ns3:atemp>20.0</ns3:atemp>
          </ns3:TrackPointExtension>
        </extensions>
      </trkpt>
      <trkpt lat="42.5579239614307880401611328125" lon="20.10724886320531368255615234375">
        <ele>1860.4000244140625</ele>
        <time>2026-06-20T06:08:34.000Z</time>
        <extensions>
          <ns3:TrackPointExtension>
            <ns3:atemp>20.0</ns3:atemp>
          </ns3:TrackPointExtension>
        </extensions>
      </trkpt>
      <trkpt lat="42.5579239614307880401611328125" lon="20.10724886320531368255615234375">
        <ele>1860.4000244140625</ele>
        <time>2026-06-20T06:08:35.000Z</time>
        <extensions>
          <ns3:TrackPointExtension>
            <ns3:atemp>20.0</ns3:atemp>
          </ns3:TrackPointExtension>
        </extensions>
      </trkpt>
      <trkpt lat="42.5579239614307880401611328125" lon="20.10724886320531368255615234375">
        <ele>1860.4000244140625</ele>
        <time>2026-06-20T06:08:36.000Z</time>
        <extensions>
          <ns3:TrackPointExtension>
            <ns3:atemp>20.0</ns3:atemp>
          </ns3:TrackPointExtension>
        </extensions>
      </trkpt>
      <trkpt lat="42.5579239614307880401611328125" lon="20.10724886320531368255615234375">
        <ele>1860.4000244140625</ele>
        <time>2026-06-20T06:08:37.000Z</time>
        <extensions>
          <ns3:TrackPointExtension>
            <ns3:atemp>20.0</ns3:atemp>
          </ns3:TrackPointExtension>
        </extensions>
      </trkpt>
      <trkpt lat="42.5579239614307880401611328125" lon="20.10724886320531368255615234375">
        <ele>1860.4000244140625</ele>
        <time>2026-06-20T06:08:38.000Z</time>
        <extensions>
          <ns3:TrackPointExtension>
            <ns3:atemp>20.0</ns3:atemp>
          </ns3:TrackPointExtension>
        </extensions>
      </trkpt>
      <trkpt lat="42.5579239614307880401611328125" lon="20.10724886320531368255615234375">
        <ele>1860.4000244140625</ele>
        <time>2026-06-20T06:08:39.000Z</time>
        <extensions>
          <ns3:TrackPointExtension>
            <ns3:atemp>20.0</ns3:atemp>
          </ns3:TrackPointExtension>
        </extensions>
      </trkpt>
      <trkpt lat="42.5579239614307880401611328125" lon="20.10724886320531368255615234375">
        <ele>1860.4000244140625</ele>
        <time>2026-06-20T06:08:40.000Z</time>
        <extensions>
          <ns3:TrackPointExtension>
            <ns3:atemp>20.0</ns3:atemp>
          </ns3:TrackPointExtension>
        </extensions>
      </trkpt>
      <trkpt lat="42.5579239614307880401611328125" lon="20.10724886320531368255615234375">
        <ele>1860.4000244140625</ele>
        <time>2026-06-20T06:08:41.000Z</time>
        <extensions>
          <ns3:TrackPointExtension>
            <ns3:atemp>20.0</ns3:atemp>
          </ns3:TrackPointExtension>
        </extensions>
      </trkpt>
      <trkpt lat="42.5579239614307880401611328125" lon="20.10724886320531368255615234375">
        <ele>1860.4000244140625</ele>
        <time>2026-06-20T06:08:42.000Z</time>
        <extensions>
          <ns3:TrackPointExtension>
            <ns3:atemp>20.0</ns3:atemp>
          </ns3:TrackPointExtension>
        </extensions>
      </trkpt>
      <trkpt lat="42.5579239614307880401611328125" lon="20.10724886320531368255615234375">
        <ele>1860.4000244140625</ele>
        <time>2026-06-20T06:08:43.000Z</time>
        <extensions>
          <ns3:TrackPointExtension>
            <ns3:atemp>20.0</ns3:atemp>
          </ns3:TrackPointExtension>
        </extensions>
      </trkpt>
      <trkpt lat="42.5579239614307880401611328125" lon="20.10724886320531368255615234375">
        <ele>1860.4000244140625</ele>
        <time>2026-06-20T06:08:44.000Z</time>
        <extensions>
          <ns3:TrackPointExtension>
            <ns3:atemp>20.0</ns3:atemp>
          </ns3:TrackPointExtension>
        </extensions>
      </trkpt>
      <trkpt lat="42.5579239614307880401611328125" lon="20.10724886320531368255615234375">
        <ele>1860.4000244140625</ele>
        <time>2026-06-20T06:08:45.000Z</time>
        <extensions>
          <ns3:TrackPointExtension>
            <ns3:atemp>20.0</ns3:atemp>
          </ns3:TrackPointExtension>
        </extensions>
      </trkpt>
      <trkpt lat="42.5579239614307880401611328125" lon="20.10724886320531368255615234375">
        <ele>1860.4000244140625</ele>
        <time>2026-06-20T06:08:46.000Z</time>
        <extensions>
          <ns3:TrackPointExtension>
            <ns3:atemp>20.0</ns3:atemp>
          </ns3:TrackPointExtension>
        </extensions>
      </trkpt>
      <trkpt lat="42.5579239614307880401611328125" lon="20.10724886320531368255615234375">
        <ele>1860.4000244140625</ele>
        <time>2026-06-20T06:08:47.000Z</time>
        <extensions>
          <ns3:TrackPointExtension>
            <ns3:atemp>20.0</ns3:atemp>
          </ns3:TrackPointExtension>
        </extensions>
      </trkpt>
      <trkpt lat="42.5579239614307880401611328125" lon="20.10724886320531368255615234375">
        <ele>1860.4000244140625</ele>
        <time>2026-06-20T06:08:48.000Z</time>
        <extensions>
          <ns3:TrackPointExtension>
            <ns3:atemp>20.0</ns3:atemp>
          </ns3:TrackPointExtension>
        </extensions>
      </trkpt>
      <trkpt lat="42.5579239614307880401611328125" lon="20.10724886320531368255615234375">
        <ele>1860.4000244140625</ele>
        <time>2026-06-20T06:08:49.000Z</time>
        <extensions>
          <ns3:TrackPointExtension>
            <ns3:atemp>20.0</ns3:atemp>
          </ns3:TrackPointExtension>
        </extensions>
      </trkpt>
      <trkpt lat="42.5579239614307880401611328125" lon="20.10724886320531368255615234375">
        <ele>1860.4000244140625</ele>
        <time>2026-06-20T06:08:50.000Z</time>
        <extensions>
          <ns3:TrackPointExtension>
            <ns3:atemp>20.0</ns3:atemp>
          </ns3:TrackPointExtension>
        </extensions>
      </trkpt>
      <trkpt lat="42.5579239614307880401611328125" lon="20.10724886320531368255615234375">
        <ele>1860.4000244140625</ele>
        <time>2026-06-20T06:08:51.000Z</time>
        <extensions>
          <ns3:TrackPointExtension>
            <ns3:atemp>20.0</ns3:atemp>
          </ns3:TrackPointExtension>
        </extensions>
      </trkpt>
      <trkpt lat="42.5579239614307880401611328125" lon="20.10724886320531368255615234375">
        <ele>1860.4000244140625</ele>
        <time>2026-06-20T06:08:52.000Z</time>
        <extensions>
          <ns3:TrackPointExtension>
            <ns3:atemp>20.0</ns3:atemp>
          </ns3:TrackPointExtension>
        </extensions>
      </trkpt>
      <trkpt lat="42.5579239614307880401611328125" lon="20.10724886320531368255615234375">
        <ele>1860.4000244140625</ele>
        <time>2026-06-20T06:08:53.000Z</time>
        <extensions>
          <ns3:TrackPointExtension>
            <ns3:atemp>20.0</ns3:atemp>
          </ns3:TrackPointExtension>
        </extensions>
      </trkpt>
      <trkpt lat="42.5579239614307880401611328125" lon="20.10724886320531368255615234375">
        <ele>1860.4000244140625</ele>
        <time>2026-06-20T06:08:54.000Z</time>
        <extensions>
          <ns3:TrackPointExtension>
            <ns3:atemp>20.0</ns3:atemp>
          </ns3:TrackPointExtension>
        </extensions>
      </trkpt>
      <trkpt lat="42.5579239614307880401611328125" lon="20.10724886320531368255615234375">
        <ele>1860.4000244140625</ele>
        <time>2026-06-20T06:08:55.000Z</time>
        <extensions>
          <ns3:TrackPointExtension>
            <ns3:atemp>20.0</ns3:atemp>
          </ns3:TrackPointExtension>
        </extensions>
      </trkpt>
      <trkpt lat="42.5579239614307880401611328125" lon="20.10724886320531368255615234375">
        <ele>1860.4000244140625</ele>
        <time>2026-06-20T06:08:56.000Z</time>
        <extensions>
          <ns3:TrackPointExtension>
            <ns3:atemp>20.0</ns3:atemp>
          </ns3:TrackPointExtension>
        </extensions>
      </trkpt>
      <trkpt lat="42.5579239614307880401611328125" lon="20.10724886320531368255615234375">
        <ele>1860.4000244140625</ele>
        <time>2026-06-20T06:08:57.000Z</time>
        <extensions>
          <ns3:TrackPointExtension>
            <ns3:atemp>20.0</ns3:atemp>
          </ns3:TrackPointExtension>
        </extensions>
      </trkpt>
      <trkpt lat="42.5579239614307880401611328125" lon="20.10724886320531368255615234375">
        <ele>1860.4000244140625</ele>
        <time>2026-06-20T06:08:58.000Z</time>
        <extensions>
          <ns3:TrackPointExtension>
            <ns3:atemp>20.0</ns3:atemp>
          </ns3:TrackPointExtension>
        </extensions>
      </trkpt>
      <trkpt lat="42.5579239614307880401611328125" lon="20.10724886320531368255615234375">
        <ele>1860.4000244140625</ele>
        <time>2026-06-20T06:08:59.000Z</time>
        <extensions>
          <ns3:TrackPointExtension>
            <ns3:atemp>20.0</ns3:atemp>
          </ns3:TrackPointExtension>
        </extensions>
      </trkpt>
      <trkpt lat="42.5579239614307880401611328125" lon="20.10724886320531368255615234375">
        <ele>1860.4000244140625</ele>
        <time>2026-06-20T06:09:00.000Z</time>
        <extensions>
          <ns3:TrackPointExtension>
            <ns3:atemp>20.0</ns3:atemp>
          </ns3:TrackPointExtension>
        </extensions>
      </trkpt>
      <trkpt lat="42.5579239614307880401611328125" lon="20.10724886320531368255615234375">
        <ele>1860.4000244140625</ele>
        <time>2026-06-20T06:09:01.000Z</time>
        <extensions>
          <ns3:TrackPointExtension>
            <ns3:atemp>20.0</ns3:atemp>
          </ns3:TrackPointExtension>
        </extensions>
      </trkpt>
      <trkpt lat="42.5579239614307880401611328125" lon="20.10724886320531368255615234375">
        <ele>1860.4000244140625</ele>
        <time>2026-06-20T06:09:02.000Z</time>
        <extensions>
          <ns3:TrackPointExtension>
            <ns3:atemp>20.0</ns3:atemp>
          </ns3:TrackPointExtension>
        </extensions>
      </trkpt>
      <trkpt lat="42.5579239614307880401611328125" lon="20.10724886320531368255615234375">
        <ele>1860.4000244140625</ele>
        <time>2026-06-20T06:09:03.000Z</time>
        <extensions>
          <ns3:TrackPointExtension>
            <ns3:atemp>20.0</ns3:atemp>
          </ns3:TrackPointExtension>
        </extensions>
      </trkpt>
      <trkpt lat="42.5579239614307880401611328125" lon="20.10724886320531368255615234375">
        <ele>1860.4000244140625</ele>
        <time>2026-06-20T06:09:04.000Z</time>
        <extensions>
          <ns3:TrackPointExtension>
            <ns3:atemp>20.0</ns3:atemp>
          </ns3:TrackPointExtension>
        </extensions>
      </trkpt>
      <trkpt lat="42.5579239614307880401611328125" lon="20.10724886320531368255615234375">
        <ele>1860.4000244140625</ele>
        <time>2026-06-20T06:09:05.000Z</time>
        <extensions>
          <ns3:TrackPointExtension>
            <ns3:atemp>20.0</ns3:atemp>
          </ns3:TrackPointExtension>
        </extensions>
      </trkpt>
      <trkpt lat="42.5579239614307880401611328125" lon="20.10724886320531368255615234375">
        <ele>1860.4000244140625</ele>
        <time>2026-06-20T06:09:06.000Z</time>
        <extensions>
          <ns3:TrackPointExtension>
            <ns3:atemp>20.0</ns3:atemp>
          </ns3:TrackPointExtension>
        </extensions>
      </trkpt>
      <trkpt lat="42.5579239614307880401611328125" lon="20.10724886320531368255615234375">
        <ele>1860.4000244140625</ele>
        <time>2026-06-20T06:09:07.000Z</time>
        <extensions>
          <ns3:TrackPointExtension>
            <ns3:atemp>20.0</ns3:atemp>
          </ns3:TrackPointExtension>
        </extensions>
      </trkpt>
      <trkpt lat="42.5579239614307880401611328125" lon="20.10724886320531368255615234375">
        <ele>1860.4000244140625</ele>
        <time>2026-06-20T06:09:08.000Z</time>
        <extensions>
          <ns3:TrackPointExtension>
            <ns3:atemp>20.0</ns3:atemp>
          </ns3:TrackPointExtension>
        </extensions>
      </trkpt>
      <trkpt lat="42.5579239614307880401611328125" lon="20.10724886320531368255615234375">
        <ele>1860.4000244140625</ele>
        <time>2026-06-20T06:09:09.000Z</time>
        <extensions>
          <ns3:TrackPointExtension>
            <ns3:atemp>20.0</ns3:atemp>
          </ns3:TrackPointExtension>
        </extensions>
      </trkpt>
      <trkpt lat="42.5579239614307880401611328125" lon="20.10724886320531368255615234375">
        <ele>1860.4000244140625</ele>
        <time>2026-06-20T06:09:10.000Z</time>
        <extensions>
          <ns3:TrackPointExtension>
            <ns3:atemp>20.0</ns3:atemp>
          </ns3:TrackPointExtension>
        </extensions>
      </trkpt>
      <trkpt lat="42.5579239614307880401611328125" lon="20.10724886320531368255615234375">
        <ele>1860.4000244140625</ele>
        <time>2026-06-20T06:09:11.000Z</time>
        <extensions>
          <ns3:TrackPointExtension>
            <ns3:atemp>20.0</ns3:atemp>
          </ns3:TrackPointExtension>
        </extensions>
      </trkpt>
      <trkpt lat="42.5579239614307880401611328125" lon="20.10724886320531368255615234375">
        <ele>1860.4000244140625</ele>
        <time>2026-06-20T06:09:12.000Z</time>
        <extensions>
          <ns3:TrackPointExtension>
            <ns3:atemp>20.0</ns3:atemp>
          </ns3:TrackPointExtension>
        </extensions>
      </trkpt>
      <trkpt lat="42.5579239614307880401611328125" lon="20.10724886320531368255615234375">
        <ele>1860.4000244140625</ele>
        <time>2026-06-20T06:09:13.000Z</time>
        <extensions>
          <ns3:TrackPointExtension>
            <ns3:atemp>20.0</ns3:atemp>
          </ns3:TrackPointExtension>
        </extensions>
      </trkpt>
      <trkpt lat="42.5579239614307880401611328125" lon="20.10724886320531368255615234375">
        <ele>1860.4000244140625</ele>
        <time>2026-06-20T06:09:14.000Z</time>
        <extensions>
          <ns3:TrackPointExtension>
            <ns3:atemp>20.0</ns3:atemp>
          </ns3:TrackPointExtension>
        </extensions>
      </trkpt>
      <trkpt lat="42.5579239614307880401611328125" lon="20.10724886320531368255615234375">
        <ele>1860.4000244140625</ele>
        <time>2026-06-20T06:09:15.000Z</time>
        <extensions>
          <ns3:TrackPointExtension>
            <ns3:atemp>20.0</ns3:atemp>
          </ns3:TrackPointExtension>
        </extensions>
      </trkpt>
      <trkpt lat="42.5579239614307880401611328125" lon="20.10724886320531368255615234375">
        <ele>1860.4000244140625</ele>
        <time>2026-06-20T06:09:16.000Z</time>
        <extensions>
          <ns3:TrackPointExtension>
            <ns3:atemp>20.0</ns3:atemp>
          </ns3:TrackPointExtension>
        </extensions>
      </trkpt>
      <trkpt lat="42.5579239614307880401611328125" lon="20.10724886320531368255615234375">
        <ele>1860.4000244140625</ele>
        <time>2026-06-20T06:09:17.000Z</time>
        <extensions>
          <ns3:TrackPointExtension>
            <ns3:atemp>20.0</ns3:atemp>
          </ns3:TrackPointExtension>
        </extensions>
      </trkpt>
      <trkpt lat="42.5579239614307880401611328125" lon="20.10724886320531368255615234375">
        <ele>1860.4000244140625</ele>
        <time>2026-06-20T06:09:18.000Z</time>
        <extensions>
          <ns3:TrackPointExtension>
            <ns3:atemp>20.0</ns3:atemp>
          </ns3:TrackPointExtension>
        </extensions>
      </trkpt>
      <trkpt lat="42.5579239614307880401611328125" lon="20.10724886320531368255615234375">
        <ele>1860.4000244140625</ele>
        <time>2026-06-20T06:09:19.000Z</time>
        <extensions>
          <ns3:TrackPointExtension>
            <ns3:atemp>20.0</ns3:atemp>
          </ns3:TrackPointExtension>
        </extensions>
      </trkpt>
      <trkpt lat="42.5579239614307880401611328125" lon="20.10724886320531368255615234375">
        <ele>1860.4000244140625</ele>
        <time>2026-06-20T06:09:20.000Z</time>
        <extensions>
          <ns3:TrackPointExtension>
            <ns3:atemp>20.0</ns3:atemp>
          </ns3:TrackPointExtension>
        </extensions>
      </trkpt>
      <trkpt lat="42.5579239614307880401611328125" lon="20.10724886320531368255615234375">
        <ele>1860.4000244140625</ele>
        <time>2026-06-20T06:09:21.000Z</time>
        <extensions>
          <ns3:TrackPointExtension>
            <ns3:atemp>20.0</ns3:atemp>
          </ns3:TrackPointExtension>
        </extensions>
      </trkpt>
      <trkpt lat="42.5579239614307880401611328125" lon="20.10724886320531368255615234375">
        <ele>1860.4000244140625</ele>
        <time>2026-06-20T06:09:22.000Z</time>
        <extensions>
          <ns3:TrackPointExtension>
            <ns3:atemp>20.0</ns3:atemp>
          </ns3:TrackPointExtension>
        </extensions>
      </trkpt>
      <trkpt lat="42.5579239614307880401611328125" lon="20.10724886320531368255615234375">
        <ele>1860.4000244140625</ele>
        <time>2026-06-20T06:09:23.000Z</time>
        <extensions>
          <ns3:TrackPointExtension>
            <ns3:atemp>20.0</ns3:atemp>
          </ns3:TrackPointExtension>
        </extensions>
      </trkpt>
      <trkpt lat="42.5579239614307880401611328125" lon="20.10724886320531368255615234375">
        <ele>1860.4000244140625</ele>
        <time>2026-06-20T06:09:24.000Z</time>
        <extensions>
          <ns3:TrackPointExtension>
            <ns3:atemp>20.0</ns3:atemp>
          </ns3:TrackPointExtension>
        </extensions>
      </trkpt>
      <trkpt lat="42.5579239614307880401611328125" lon="20.10724886320531368255615234375">
        <ele>1860.4000244140625</ele>
        <time>2026-06-20T06:09:25.000Z</time>
        <extensions>
          <ns3:TrackPointExtension>
            <ns3:atemp>20.0</ns3:atemp>
          </ns3:TrackPointExtension>
        </extensions>
      </trkpt>
      <trkpt lat="42.5579239614307880401611328125" lon="20.10724886320531368255615234375">
        <ele>1860.4000244140625</ele>
        <time>2026-06-20T06:09:26.000Z</time>
        <extensions>
          <ns3:TrackPointExtension>
            <ns3:atemp>20.0</ns3:atemp>
          </ns3:TrackPointExtension>
        </extensions>
      </trkpt>
      <trkpt lat="42.5579239614307880401611328125" lon="20.10724886320531368255615234375">
        <ele>1860.4000244140625</ele>
        <time>2026-06-20T06:09:27.000Z</time>
        <extensions>
          <ns3:TrackPointExtension>
            <ns3:atemp>20.0</ns3:atemp>
          </ns3:TrackPointExtension>
        </extensions>
      </trkpt>
      <trkpt lat="42.5579239614307880401611328125" lon="20.10724886320531368255615234375">
        <ele>1860.4000244140625</ele>
        <time>2026-06-20T06:09:28.000Z</time>
        <extensions>
          <ns3:TrackPointExtension>
            <ns3:atemp>20.0</ns3:atemp>
          </ns3:TrackPointExtension>
        </extensions>
      </trkpt>
      <trkpt lat="42.5579239614307880401611328125" lon="20.10724886320531368255615234375">
        <ele>1860.4000244140625</ele>
        <time>2026-06-20T06:09:29.000Z</time>
        <extensions>
          <ns3:TrackPointExtension>
            <ns3:atemp>20.0</ns3:atemp>
          </ns3:TrackPointExtension>
        </extensions>
      </trkpt>
      <trkpt lat="42.5579239614307880401611328125" lon="20.10724886320531368255615234375">
        <ele>1860.4000244140625</ele>
        <time>2026-06-20T06:09:30.000Z</time>
        <extensions>
          <ns3:TrackPointExtension>
            <ns3:atemp>20.0</ns3:atemp>
          </ns3:TrackPointExtension>
        </extensions>
      </trkpt>
      <trkpt lat="42.5579239614307880401611328125" lon="20.10724886320531368255615234375">
        <ele>1860.4000244140625</ele>
        <time>2026-06-20T06:09:31.000Z</time>
        <extensions>
          <ns3:TrackPointExtension>
            <ns3:atemp>20.0</ns3:atemp>
          </ns3:TrackPointExtension>
        </extensions>
      </trkpt>
      <trkpt lat="42.5579239614307880401611328125" lon="20.10724886320531368255615234375">
        <ele>1860.4000244140625</ele>
        <time>2026-06-20T06:09:32.000Z</time>
        <extensions>
          <ns3:TrackPointExtension>
            <ns3:atemp>20.0</ns3:atemp>
          </ns3:TrackPointExtension>
        </extensions>
      </trkpt>
      <trkpt lat="42.5579239614307880401611328125" lon="20.10724886320531368255615234375">
        <ele>1860.4000244140625</ele>
        <time>2026-06-20T06:09:33.000Z</time>
        <extensions>
          <ns3:TrackPointExtension>
            <ns3:atemp>20.0</ns3:atemp>
          </ns3:TrackPointExtension>
        </extensions>
      </trkpt>
      <trkpt lat="42.5579239614307880401611328125" lon="20.10724886320531368255615234375">
        <ele>1860.4000244140625</ele>
        <time>2026-06-20T06:09:34.000Z</time>
        <extensions>
          <ns3:TrackPointExtension>
            <ns3:atemp>20.0</ns3:atemp>
          </ns3:TrackPointExtension>
        </extensions>
      </trkpt>
      <trkpt lat="42.5579239614307880401611328125" lon="20.10724886320531368255615234375">
        <ele>1860.4000244140625</ele>
        <time>2026-06-20T06:09:35.000Z</time>
        <extensions>
          <ns3:TrackPointExtension>
            <ns3:atemp>21.0</ns3:atemp>
          </ns3:TrackPointExtension>
        </extensions>
      </trkpt>
      <trkpt lat="42.5579239614307880401611328125" lon="20.10724886320531368255615234375">
        <ele>1860.4000244140625</ele>
        <time>2026-06-20T06:09:36.000Z</time>
        <extensions>
          <ns3:TrackPointExtension>
            <ns3:atemp>21.0</ns3:atemp>
          </ns3:TrackPointExtension>
        </extensions>
      </trkpt>
      <trkpt lat="42.5579239614307880401611328125" lon="20.10724886320531368255615234375">
        <ele>1860.4000244140625</ele>
        <time>2026-06-20T06:09:37.000Z</time>
        <extensions>
          <ns3:TrackPointExtension>
            <ns3:atemp>21.0</ns3:atemp>
          </ns3:TrackPointExtension>
        </extensions>
      </trkpt>
      <trkpt lat="42.5579239614307880401611328125" lon="20.10724886320531368255615234375">
        <ele>1860.4000244140625</ele>
        <time>2026-06-20T06:09:38.000Z</time>
        <extensions>
          <ns3:TrackPointExtension>
            <ns3:atemp>21.0</ns3:atemp>
          </ns3:TrackPointExtension>
        </extensions>
      </trkpt>
      <trkpt lat="42.5579239614307880401611328125" lon="20.10724886320531368255615234375">
        <ele>1860.4000244140625</ele>
        <time>2026-06-20T06:09:39.000Z</time>
        <extensions>
          <ns3:TrackPointExtension>
            <ns3:atemp>21.0</ns3:atemp>
          </ns3:TrackPointExtension>
        </extensions>
      </trkpt>
      <trkpt lat="42.5579239614307880401611328125" lon="20.10724886320531368255615234375">
        <ele>1860.4000244140625</ele>
        <time>2026-06-20T06:09:40.000Z</time>
        <extensions>
          <ns3:TrackPointExtension>
            <ns3:atemp>21.0</ns3:atemp>
          </ns3:TrackPointExtension>
        </extensions>
      </trkpt>
      <trkpt lat="42.5579239614307880401611328125" lon="20.10724886320531368255615234375">
        <ele>1860.4000244140625</ele>
        <time>2026-06-20T06:09:41.000Z</time>
        <extensions>
          <ns3:TrackPointExtension>
            <ns3:atemp>21.0</ns3:atemp>
          </ns3:TrackPointExtension>
        </extensions>
      </trkpt>
      <trkpt lat="42.5579239614307880401611328125" lon="20.10724886320531368255615234375">
        <ele>1860.4000244140625</ele>
        <time>2026-06-20T06:09:42.000Z</time>
        <extensions>
          <ns3:TrackPointExtension>
            <ns3:atemp>21.0</ns3:atemp>
          </ns3:TrackPointExtension>
        </extensions>
      </trkpt>
      <trkpt lat="42.5579239614307880401611328125" lon="20.10724886320531368255615234375">
        <ele>1860.4000244140625</ele>
        <time>2026-06-20T06:09:43.000Z</time>
        <extensions>
          <ns3:TrackPointExtension>
            <ns3:atemp>21.0</ns3:atemp>
          </ns3:TrackPointExtension>
        </extensions>
      </trkpt>
      <trkpt lat="42.5579239614307880401611328125" lon="20.10724886320531368255615234375">
        <ele>1860.4000244140625</ele>
        <time>2026-06-20T06:09:44.000Z</time>
        <extensions>
          <ns3:TrackPointExtension>
            <ns3:atemp>21.0</ns3:atemp>
          </ns3:TrackPointExtension>
        </extensions>
      </trkpt>
      <trkpt lat="42.5579239614307880401611328125" lon="20.10724886320531368255615234375">
        <ele>1860.4000244140625</ele>
        <time>2026-06-20T06:09:45.000Z</time>
        <extensions>
          <ns3:TrackPointExtension>
            <ns3:atemp>21.0</ns3:atemp>
          </ns3:TrackPointExtension>
        </extensions>
      </trkpt>
      <trkpt lat="42.5579239614307880401611328125" lon="20.10724886320531368255615234375">
        <ele>1860.4000244140625</ele>
        <time>2026-06-20T06:09:46.000Z</time>
        <extensions>
          <ns3:TrackPointExtension>
            <ns3:atemp>21.0</ns3:atemp>
          </ns3:TrackPointExtension>
        </extensions>
      </trkpt>
      <trkpt lat="42.5579239614307880401611328125" lon="20.10724886320531368255615234375">
        <ele>1860.4000244140625</ele>
        <time>2026-06-20T06:09:47.000Z</time>
        <extensions>
          <ns3:TrackPointExtension>
            <ns3:atemp>21.0</ns3:atemp>
          </ns3:TrackPointExtension>
        </extensions>
      </trkpt>
      <trkpt lat="42.5579239614307880401611328125" lon="20.10724886320531368255615234375">
        <ele>1860.4000244140625</ele>
        <time>2026-06-20T06:09:48.000Z</time>
        <extensions>
          <ns3:TrackPointExtension>
            <ns3:atemp>21.0</ns3:atemp>
          </ns3:TrackPointExtension>
        </extensions>
      </trkpt>
      <trkpt lat="42.5579239614307880401611328125" lon="20.10724886320531368255615234375">
        <ele>1860.4000244140625</ele>
        <time>2026-06-20T06:09:49.000Z</time>
        <extensions>
          <ns3:TrackPointExtension>
            <ns3:atemp>21.0</ns3:atemp>
          </ns3:TrackPointExtension>
        </extensions>
      </trkpt>
      <trkpt lat="42.5579239614307880401611328125" lon="20.10724886320531368255615234375">
        <ele>1860.4000244140625</ele>
        <time>2026-06-20T06:09:50.000Z</time>
        <extensions>
          <ns3:TrackPointExtension>
            <ns3:atemp>21.0</ns3:atemp>
          </ns3:TrackPointExtension>
        </extensions>
      </trkpt>
      <trkpt lat="42.5579239614307880401611328125" lon="20.10724886320531368255615234375">
        <ele>1860.4000244140625</ele>
        <time>2026-06-20T06:09:51.000Z</time>
        <extensions>
          <ns3:TrackPointExtension>
            <ns3:atemp>21.0</ns3:atemp>
          </ns3:TrackPointExtension>
        </extensions>
      </trkpt>
      <trkpt lat="42.5579212792217731475830078125" lon="20.10724567808210849761962890625">
        <ele>1860.4000244140625</ele>
        <time>2026-06-20T06:09:52.000Z</time>
        <extensions>
          <ns3:TrackPointExtension>
            <ns3:atemp>21.0</ns3:atemp>
          </ns3:TrackPointExtension>
        </extensions>
      </trkpt>
      <trkpt lat="42.5579239614307880401611328125" lon="20.10724886320531368255615234375">
        <ele>1860.4000244140625</ele>
        <time>2026-06-20T06:09:53.000Z</time>
        <extensions>
          <ns3:TrackPointExtension>
            <ns3:atemp>21.0</ns3:atemp>
          </ns3:TrackPointExtension>
        </extensions>
      </trkpt>
      <trkpt lat="42.5579239614307880401611328125" lon="20.10724886320531368255615234375">
        <ele>1860.4000244140625</ele>
        <time>2026-06-20T06:09:54.000Z</time>
        <extensions>
          <ns3:TrackPointExtension>
            <ns3:atemp>21.0</ns3:atemp>
          </ns3:TrackPointExtension>
        </extensions>
      </trkpt>
      <trkpt lat="42.5579239614307880401611328125" lon="20.10724886320531368255615234375">
        <ele>1860.4000244140625</ele>
        <time>2026-06-20T06:09:55.000Z</time>
        <extensions>
          <ns3:TrackPointExtension>
            <ns3:atemp>21.0</ns3:atemp>
          </ns3:TrackPointExtension>
        </extensions>
      </trkpt>
      <trkpt lat="42.5579239614307880401611328125" lon="20.10724886320531368255615234375">
        <ele>1860.4000244140625</ele>
        <time>2026-06-20T06:09:56.000Z</time>
        <extensions>
          <ns3:TrackPointExtension>
            <ns3:atemp>21.0</ns3:atemp>
          </ns3:TrackPointExtension>
        </extensions>
      </trkpt>
      <trkpt lat="42.5579239614307880401611328125" lon="20.10724886320531368255615234375">
        <ele>1860.4000244140625</ele>
        <time>2026-06-20T06:09:57.000Z</time>
        <extensions>
          <ns3:TrackPointExtension>
            <ns3:atemp>21.0</ns3:atemp>
          </ns3:TrackPointExtension>
        </extensions>
      </trkpt>
      <trkpt lat="42.5579239614307880401611328125" lon="20.10724886320531368255615234375">
        <ele>1860.4000244140625</ele>
        <time>2026-06-20T06:09:58.000Z</time>
        <extensions>
          <ns3:TrackPointExtension>
            <ns3:atemp>21.0</ns3:atemp>
          </ns3:TrackPointExtension>
        </extensions>
      </trkpt>
      <trkpt lat="42.5579239614307880401611328125" lon="20.10724886320531368255615234375">
        <ele>1860.4000244140625</ele>
        <time>2026-06-20T06:09:59.000Z</time>
        <extensions>
          <ns3:TrackPointExtension>
            <ns3:atemp>21.0</ns3:atemp>
          </ns3:TrackPointExtension>
        </extensions>
      </trkpt>
      <trkpt lat="42.5579239614307880401611328125" lon="20.10724886320531368255615234375">
        <ele>1860.4000244140625</ele>
        <time>2026-06-20T06:10:00.000Z</time>
        <extensions>
          <ns3:TrackPointExtension>
            <ns3:atemp>21.0</ns3:atemp>
          </ns3:TrackPointExtension>
        </extensions>
      </trkpt>
      <trkpt lat="42.5579239614307880401611328125" lon="20.10724886320531368255615234375">
        <ele>1860.4000244140625</ele>
        <time>2026-06-20T06:10:01.000Z</time>
        <extensions>
          <ns3:TrackPointExtension>
            <ns3:atemp>21.0</ns3:atemp>
          </ns3:TrackPointExtension>
        </extensions>
      </trkpt>
      <trkpt lat="42.5579239614307880401611328125" lon="20.10724886320531368255615234375">
        <ele>1860.4000244140625</ele>
        <time>2026-06-20T06:10:02.000Z</time>
        <extensions>
          <ns3:TrackPointExtension>
            <ns3:atemp>21.0</ns3:atemp>
          </ns3:TrackPointExtension>
        </extensions>
      </trkpt>
      <trkpt lat="42.5579239614307880401611328125" lon="20.10724886320531368255615234375">
        <ele>1860.4000244140625</ele>
        <time>2026-06-20T06:10:03.000Z</time>
        <extensions>
          <ns3:TrackPointExtension>
            <ns3:atemp>21.0</ns3:atemp>
          </ns3:TrackPointExtension>
        </extensions>
      </trkpt>
      <trkpt lat="42.5579239614307880401611328125" lon="20.10724886320531368255615234375">
        <ele>1860.4000244140625</ele>
        <time>2026-06-20T06:10:04.000Z</time>
        <extensions>
          <ns3:TrackPointExtension>
            <ns3:atemp>21.0</ns3:atemp>
          </ns3:TrackPointExtension>
        </extensions>
      </trkpt>
      <trkpt lat="42.5579239614307880401611328125" lon="20.10724886320531368255615234375">
        <ele>1860.4000244140625</ele>
        <time>2026-06-20T06:10:05.000Z</time>
        <extensions>
          <ns3:TrackPointExtension>
            <ns3:atemp>21.0</ns3:atemp>
          </ns3:TrackPointExtension>
        </extensions>
      </trkpt>
      <trkpt lat="42.5579239614307880401611328125" lon="20.10724886320531368255615234375">
        <ele>1860.4000244140625</ele>
        <time>2026-06-20T06:10:06.000Z</time>
        <extensions>
          <ns3:TrackPointExtension>
            <ns3:atemp>21.0</ns3:atemp>
          </ns3:TrackPointExtension>
        </extensions>
      </trkpt>
      <trkpt lat="42.5579239614307880401611328125" lon="20.10724886320531368255615234375">
        <ele>1860.4000244140625</ele>
        <time>2026-06-20T06:10:07.000Z</time>
        <extensions>
          <ns3:TrackPointExtension>
            <ns3:atemp>21.0</ns3:atemp>
          </ns3:TrackPointExtension>
        </extensions>
      </trkpt>
      <trkpt lat="42.5579239614307880401611328125" lon="20.10724886320531368255615234375">
        <ele>1860.4000244140625</ele>
        <time>2026-06-20T06:10:08.000Z</time>
        <extensions>
          <ns3:TrackPointExtension>
            <ns3:atemp>21.0</ns3:atemp>
          </ns3:TrackPointExtension>
        </extensions>
      </trkpt>
      <trkpt lat="42.5579239614307880401611328125" lon="20.10724886320531368255615234375">
        <ele>1860.4000244140625</ele>
        <time>2026-06-20T06:10:09.000Z</time>
        <extensions>
          <ns3:TrackPointExtension>
            <ns3:atemp>21.0</ns3:atemp>
          </ns3:TrackPointExtension>
        </extensions>
      </trkpt>
      <trkpt lat="42.5579239614307880401611328125" lon="20.10724886320531368255615234375">
        <ele>1860.4000244140625</ele>
        <time>2026-06-20T06:10:10.000Z</time>
        <extensions>
          <ns3:TrackPointExtension>
            <ns3:atemp>21.0</ns3:atemp>
          </ns3:TrackPointExtension>
        </extensions>
      </trkpt>
      <trkpt lat="42.5579239614307880401611328125" lon="20.10724886320531368255615234375">
        <ele>1860.4000244140625</ele>
        <time>2026-06-20T06:10:11.000Z</time>
        <extensions>
          <ns3:TrackPointExtension>
            <ns3:atemp>21.0</ns3:atemp>
          </ns3:TrackPointExtension>
        </extensions>
      </trkpt>
      <trkpt lat="42.5579239614307880401611328125" lon="20.10724886320531368255615234375">
        <ele>1860.4000244140625</ele>
        <time>2026-06-20T06:10:12.000Z</time>
        <extensions>
          <ns3:TrackPointExtension>
            <ns3:atemp>21.0</ns3:atemp>
          </ns3:TrackPointExtension>
        </extensions>
      </trkpt>
      <trkpt lat="42.5579239614307880401611328125" lon="20.10724886320531368255615234375">
        <ele>1860.4000244140625</ele>
        <time>2026-06-20T06:10:13.000Z</time>
        <extensions>
          <ns3:TrackPointExtension>
            <ns3:atemp>21.0</ns3:atemp>
          </ns3:TrackPointExtension>
        </extensions>
      </trkpt>
      <trkpt lat="42.5579239614307880401611328125" lon="20.10724886320531368255615234375">
        <ele>1860.4000244140625</ele>
        <time>2026-06-20T06:10:14.000Z</time>
        <extensions>
          <ns3:TrackPointExtension>
            <ns3:atemp>21.0</ns3:atemp>
          </ns3:TrackPointExtension>
        </extensions>
      </trkpt>
      <trkpt lat="42.5579239614307880401611328125" lon="20.10724886320531368255615234375">
        <ele>1860.4000244140625</ele>
        <time>2026-06-20T06:10:15.000Z</time>
        <extensions>
          <ns3:TrackPointExtension>
            <ns3:atemp>21.0</ns3:atemp>
          </ns3:TrackPointExtension>
        </extensions>
      </trkpt>
      <trkpt lat="42.5579239614307880401611328125" lon="20.10724886320531368255615234375">
        <ele>1860.4000244140625</ele>
        <time>2026-06-20T06:10:16.000Z</time>
        <extensions>
          <ns3:TrackPointExtension>
            <ns3:atemp>21.0</ns3:atemp>
          </ns3:TrackPointExtension>
        </extensions>
      </trkpt>
      <trkpt lat="42.5579239614307880401611328125" lon="20.10724886320531368255615234375">
        <ele>1860.4000244140625</ele>
        <time>2026-06-20T06:10:17.000Z</time>
        <extensions>
          <ns3:TrackPointExtension>
            <ns3:atemp>21.0</ns3:atemp>
          </ns3:TrackPointExtension>
        </extensions>
      </trkpt>
      <trkpt lat="42.5579239614307880401611328125" lon="20.10724886320531368255615234375">
        <ele>1860.4000244140625</ele>
        <time>2026-06-20T06:10:18.000Z</time>
        <extensions>
          <ns3:TrackPointExtension>
            <ns3:atemp>21.0</ns3:atemp>
          </ns3:TrackPointExtension>
        </extensions>
      </trkpt>
      <trkpt lat="42.55791264586150646209716796875" lon="20.10723846964538097381591796875">
        <ele>1860.4000244140625</ele>
        <time>2026-06-20T06:10:19.000Z</time>
        <extensions>
          <ns3:TrackPointExtension>
            <ns3:atemp>21.0</ns3:atemp>
          </ns3:TrackPointExtension>
        </extensions>
      </trkpt>
      <trkpt lat="42.55791247822344303131103515625" lon="20.1072383858263492584228515625">
        <ele>1860.4000244140625</ele>
        <time>2026-06-20T06:10:20.000Z</time>
        <extensions>
          <ns3:TrackPointExtension>
            <ns3:atemp>21.0</ns3:atemp>
          </ns3:TrackPointExtension>
        </extensions>
      </trkpt>
      <trkpt lat="42.55791247822344303131103515625" lon="20.1072383858263492584228515625">
        <ele>1860.4000244140625</ele>
        <time>2026-06-20T06:10:21.000Z</time>
        <extensions>
          <ns3:TrackPointExtension>
            <ns3:atemp>21.0</ns3:atemp>
          </ns3:TrackPointExtension>
        </extensions>
      </trkpt>
      <trkpt lat="42.55791247822344303131103515625" lon="20.1072383858263492584228515625">
        <ele>1860.4000244140625</ele>
        <time>2026-06-20T06:10:22.000Z</time>
        <extensions>
          <ns3:TrackPointExtension>
            <ns3:atemp>21.0</ns3:atemp>
          </ns3:TrackPointExtension>
        </extensions>
      </trkpt>
      <trkpt lat="42.55791247822344303131103515625" lon="20.1072383858263492584228515625">
        <ele>1860.4000244140625</ele>
        <time>2026-06-20T06:10:23.000Z</time>
        <extensions>
          <ns3:TrackPointExtension>
            <ns3:atemp>21.0</ns3:atemp>
          </ns3:TrackPointExtension>
        </extensions>
      </trkpt>
      <trkpt lat="42.55791247822344303131103515625" lon="20.1072383858263492584228515625">
        <ele>1860.4000244140625</ele>
        <time>2026-06-20T06:10:24.000Z</time>
        <extensions>
          <ns3:TrackPointExtension>
            <ns3:atemp>21.0</ns3:atemp>
          </ns3:TrackPointExtension>
        </extensions>
      </trkpt>
      <trkpt lat="42.55791247822344303131103515625" lon="20.1072383858263492584228515625">
        <ele>1860.4000244140625</ele>
        <time>2026-06-20T06:10:25.000Z</time>
        <extensions>
          <ns3:TrackPointExtension>
            <ns3:atemp>21.0</ns3:atemp>
          </ns3:TrackPointExtension>
        </extensions>
      </trkpt>
      <trkpt lat="42.55791247822344303131103515625" lon="20.1072383858263492584228515625">
        <ele>1860.4000244140625</ele>
        <time>2026-06-20T06:10:26.000Z</time>
        <extensions>
          <ns3:TrackPointExtension>
            <ns3:atemp>21.0</ns3:atemp>
          </ns3:TrackPointExtension>
        </extensions>
      </trkpt>
      <trkpt lat="42.55791247822344303131103515625" lon="20.1072383858263492584228515625">
        <ele>1860.4000244140625</ele>
        <time>2026-06-20T06:10:27.000Z</time>
        <extensions>
          <ns3:TrackPointExtension>
            <ns3:atemp>21.0</ns3:atemp>
          </ns3:TrackPointExtension>
        </extensions>
      </trkpt>
      <trkpt lat="42.55791247822344303131103515625" lon="20.1072383858263492584228515625">
        <ele>1860.4000244140625</ele>
        <time>2026-06-20T06:10:28.000Z</time>
        <extensions>
          <ns3:TrackPointExtension>
            <ns3:atemp>21.0</ns3:atemp>
          </ns3:TrackPointExtension>
        </extensions>
      </trkpt>
      <trkpt lat="42.55791247822344303131103515625" lon="20.1072383858263492584228515625">
        <ele>1860.4000244140625</ele>
        <time>2026-06-20T06:10:29.000Z</time>
        <extensions>
          <ns3:TrackPointExtension>
            <ns3:atemp>21.0</ns3:atemp>
          </ns3:TrackPointExtension>
        </extensions>
      </trkpt>
      <trkpt lat="42.55791247822344303131103515625" lon="20.1072383858263492584228515625">
        <ele>1860.4000244140625</ele>
        <time>2026-06-20T06:10:30.000Z</time>
        <extensions>
          <ns3:TrackPointExtension>
            <ns3:atemp>21.0</ns3:atemp>
          </ns3:TrackPointExtension>
        </extensions>
      </trkpt>
      <trkpt lat="42.55791247822344303131103515625" lon="20.1072383858263492584228515625">
        <ele>1860.4000244140625</ele>
        <time>2026-06-20T06:10:31.000Z</time>
        <extensions>
          <ns3:TrackPointExtension>
            <ns3:atemp>21.0</ns3:atemp>
          </ns3:TrackPointExtension>
        </extensions>
      </trkpt>
      <trkpt lat="42.55791105329990386962890625" lon="20.10723830200731754302978515625">
        <ele>1860.4000244140625</ele>
        <time>2026-06-20T06:10:32.000Z</time>
        <extensions>
          <ns3:TrackPointExtension>
            <ns3:atemp>21.0</ns3:atemp>
          </ns3:TrackPointExtension>
        </extensions>
      </trkpt>
      <trkpt lat="42.55789856426417827606201171875" lon="20.10722304694354534149169921875">
        <ele>1860.4000244140625</ele>
        <time>2026-06-20T06:10:33.000Z</time>
        <extensions>
          <ns3:TrackPointExtension>
            <ns3:atemp>21.0</ns3:atemp>
          </ns3:TrackPointExtension>
        </extensions>
      </trkpt>
      <trkpt lat="42.55788817070424556732177734375" lon="20.10719974525272846221923828125">
        <ele>1860.4000244140625</ele>
        <time>2026-06-20T06:10:34.000Z</time>
        <extensions>
          <ns3:TrackPointExtension>
            <ns3:atemp>21.0</ns3:atemp>
          </ns3:TrackPointExtension>
        </extensions>
      </trkpt>
      <trkpt lat="42.55787752568721771240234375" lon="20.107180215418338775634765625">
        <ele>1860.5999755859375</ele>
        <time>2026-06-20T06:10:35.000Z</time>
        <extensions>
          <ns3:TrackPointExtension>
            <ns3:atemp>21.0</ns3:atemp>
          </ns3:TrackPointExtension>
        </extensions>
      </trkpt>
      <trkpt lat="42.5578672997653484344482421875" lon="20.10716118849813938140869140625">
        <ele>1860.5999755859375</ele>
        <time>2026-06-20T06:10:36.000Z</time>
        <extensions>
          <ns3:TrackPointExtension>
            <ns3:atemp>21.0</ns3:atemp>
          </ns3:TrackPointExtension>
        </extensions>
      </trkpt>
      <trkpt lat="42.55785464309155941009521484375" lon="20.1071465201675891876220703125">
        <ele>1860.5999755859375</ele>
        <time>2026-06-20T06:10:37.000Z</time>
        <extensions>
          <ns3:TrackPointExtension>
            <ns3:atemp>21.0</ns3:atemp>
          </ns3:TrackPointExtension>
        </extensions>
      </trkpt>
      <trkpt lat="42.55784408189356327056884765625" lon="20.10712799616158008575439453125">
        <ele>1860.5999755859375</ele>
        <time>2026-06-20T06:10:38.000Z</time>
        <extensions>
          <ns3:TrackPointExtension>
            <ns3:atemp>21.0</ns3:atemp>
          </ns3:TrackPointExtension>
        </extensions>
      </trkpt>
      <trkpt lat="42.5578341074287891387939453125" lon="20.1071069575846195220947265625">
        <ele>1860.5999755859375</ele>
        <time>2026-06-20T06:10:39.000Z</time>
        <extensions>
          <ns3:TrackPointExtension>
            <ns3:atemp>21.0</ns3:atemp>
          </ns3:TrackPointExtension>
        </extensions>
      </trkpt>
      <trkpt lat="42.55782463587820529937744140625" lon="20.10708223097026348114013671875">
        <ele>1860.5999755859375</ele>
        <time>2026-06-20T06:10:40.000Z</time>
        <extensions>
          <ns3:TrackPointExtension>
            <ns3:atemp>21.0</ns3:atemp>
          </ns3:TrackPointExtension>
        </extensions>
      </trkpt>
      <trkpt lat="42.55781625397503376007080078125" lon="20.10705239139497280120849609375">
        <ele>1860.5999755859375</ele>
        <time>2026-06-20T06:10:41.000Z</time>
        <extensions>
          <ns3:TrackPointExtension>
            <ns3:atemp>21.0</ns3:atemp>
          </ns3:TrackPointExtension>
        </extensions>
      </trkpt>
      <trkpt lat="42.5578072853386402130126953125" lon="20.10702355764806270599365234375">
        <ele>1860.5999755859375</ele>
        <time>2026-06-20T06:10:42.000Z</time>
        <extensions>
          <ns3:TrackPointExtension>
            <ns3:atemp>21.0</ns3:atemp>
          </ns3:TrackPointExtension>
        </extensions>
      </trkpt>
      <trkpt lat="42.5578002445399761199951171875" lon="20.1069969870150089263916015625">
        <ele>1860.5999755859375</ele>
        <time>2026-06-20T06:10:43.000Z</time>
        <extensions>
          <ns3:TrackPointExtension>
            <ns3:atemp>21.0</ns3:atemp>
          </ns3:TrackPointExtension>
        </extensions>
      </trkpt>
      <trkpt lat="42.55779295228421688079833984375" lon="20.10696773417294025421142578125">
        <ele>1860.800048828125</ele>
        <time>2026-06-20T06:10:44.000Z</time>
        <extensions>
          <ns3:TrackPointExtension>
            <ns3:atemp>21.0</ns3:atemp>
          </ns3:TrackPointExtension>
        </extensions>
      </trkpt>
      <trkpt lat="42.5577925331890583038330078125" lon="20.10693521238863468170166015625">
        <ele>1860.800048828125</ele>
        <time>2026-06-20T06:10:45.000Z</time>
        <extensions>
          <ns3:TrackPointExtension>
            <ns3:atemp>21.0</ns3:atemp>
          </ns3:TrackPointExtension>
        </extensions>
      </trkpt>
      <trkpt lat="42.55779244937002658843994140625" lon="20.106903612613677978515625">
        <ele>1860.800048828125</ele>
        <time>2026-06-20T06:10:46.000Z</time>
        <extensions>
          <ns3:TrackPointExtension>
            <ns3:atemp>21.0</ns3:atemp>
          </ns3:TrackPointExtension>
        </extensions>
      </trkpt>
      <trkpt lat="42.5577952153980731964111328125" lon="20.10687167756259441375732421875">
        <ele>1860.800048828125</ele>
        <time>2026-06-20T06:10:47.000Z</time>
        <extensions>
          <ns3:TrackPointExtension>
            <ns3:atemp>21.0</ns3:atemp>
          </ns3:TrackPointExtension>
        </extensions>
      </trkpt>
      <trkpt lat="42.55779529921710491180419921875" lon="20.10683496482670307159423828125">
        <ele>1860.800048828125</ele>
        <time>2026-06-20T06:10:48.000Z</time>
        <extensions>
          <ns3:TrackPointExtension>
            <ns3:atemp>21.0</ns3:atemp>
          </ns3:TrackPointExtension>
        </extensions>
      </trkpt>
      <trkpt lat="42.557796724140644073486328125" lon="20.10679741390049457550048828125">
        <ele>1860.800048828125</ele>
        <time>2026-06-20T06:10:49.000Z</time>
        <extensions>
          <ns3:TrackPointExtension>
            <ns3:atemp>21.0</ns3:atemp>
          </ns3:TrackPointExtension>
        </extensions>
      </trkpt>
      <trkpt lat="42.55780116654932498931884765625" lon="20.10676153935492038726806640625">
        <ele>1860.5999755859375</ele>
        <time>2026-06-20T06:10:50.000Z</time>
        <extensions>
          <ns3:TrackPointExtension>
            <ns3:atemp>21.0</ns3:atemp>
          </ns3:TrackPointExtension>
        </extensions>
      </trkpt>
      <trkpt lat="42.557808123528957366943359375" lon="20.1067173667252063751220703125">
        <ele>1860.4000244140625</ele>
        <time>2026-06-20T06:10:51.000Z</time>
        <extensions>
          <ns3:TrackPointExtension>
            <ns3:atemp>21.0</ns3:atemp>
          </ns3:TrackPointExtension>
        </extensions>
      </trkpt>
      <trkpt lat="42.55781717598438262939453125" lon="20.10667185299098491668701171875">
        <ele>1860.199951171875</ele>
        <time>2026-06-20T06:10:52.000Z</time>
        <extensions>
          <ns3:TrackPointExtension>
            <ns3:atemp>21.0</ns3:atemp>
          </ns3:TrackPointExtension>
        </extensions>
      </trkpt>
      <trkpt lat="42.557827569544315338134765625" lon="20.10662089101970195770263671875">
        <ele>1860</ele>
        <time>2026-06-20T06:10:53.000Z</time>
        <extensions>
          <ns3:TrackPointExtension>
            <ns3:atemp>21.0</ns3:atemp>
          </ns3:TrackPointExtension>
        </extensions>
      </trkpt>
      <trkpt lat="42.5578408129513263702392578125" lon="20.1065718568861484527587890625">
        <ele>1859.800048828125</ele>
        <time>2026-06-20T06:10:54.000Z</time>
        <extensions>
          <ns3:TrackPointExtension>
            <ns3:atemp>21.0</ns3:atemp>
          </ns3:TrackPointExtension>
        </extensions>
      </trkpt>
      <trkpt lat="42.557855062186717987060546875" lon="20.1065321266651153564453125">
        <ele>1859.5999755859375</ele>
        <time>2026-06-20T06:10:55.000Z</time>
        <extensions>
          <ns3:TrackPointExtension>
            <ns3:atemp>21.0</ns3:atemp>
          </ns3:TrackPointExtension>
        </extensions>
      </trkpt>
      <trkpt lat="42.5578713230788707733154296875" lon="20.10649566538631916046142578125">
        <ele>1859.5999755859375</ele>
        <time>2026-06-20T06:10:56.000Z</time>
        <extensions>
          <ns3:TrackPointExtension>
            <ns3:atemp>21.0</ns3:atemp>
          </ns3:TrackPointExtension>
        </extensions>
      </trkpt>
      <trkpt lat="42.55788381211459636688232421875" lon="20.10645744390785694122314453125">
        <ele>1859.5999755859375</ele>
        <time>2026-06-20T06:10:57.000Z</time>
        <extensions>
          <ns3:TrackPointExtension>
            <ns3:atemp>21.0</ns3:atemp>
          </ns3:TrackPointExtension>
        </extensions>
      </trkpt>
      <trkpt lat="42.5578947924077510833740234375" lon="20.1064206473529338836669921875">
        <ele>1859.5999755859375</ele>
        <time>2026-06-20T06:10:58.000Z</time>
        <extensions>
          <ns3:TrackPointExtension>
            <ns3:atemp>21.0</ns3:atemp>
          </ns3:TrackPointExtension>
        </extensions>
      </trkpt>
      <trkpt lat="42.55790057592093944549560546875" lon="20.106389634311199188232421875">
        <ele>1859.5999755859375</ele>
        <time>2026-06-20T06:10:59.000Z</time>
        <extensions>
          <ns3:TrackPointExtension>
            <ns3:atemp>21.0</ns3:atemp>
          </ns3:TrackPointExtension>
        </extensions>
      </trkpt>
      <trkpt lat="42.5579088740050792694091796875" lon="20.1063542626798152923583984375">
        <ele>1859.5999755859375</ele>
        <time>2026-06-20T06:11:00.000Z</time>
        <extensions>
          <ns3:TrackPointExtension>
            <ns3:atemp>21.0</ns3:atemp>
          </ns3:TrackPointExtension>
        </extensions>
      </trkpt>
      <trkpt lat="42.55791868083178997039794921875" lon="20.1063187234103679656982421875">
        <ele>1859.5999755859375</ele>
        <time>2026-06-20T06:11:01.000Z</time>
        <extensions>
          <ns3:TrackPointExtension>
            <ns3:atemp>21.0</ns3:atemp>
          </ns3:TrackPointExtension>
        </extensions>
      </trkpt>
      <trkpt lat="42.5579266436398029327392578125" lon="20.10628460906445980072021484375">
        <ele>1859.5999755859375</ele>
        <time>2026-06-20T06:11:02.000Z</time>
        <extensions>
          <ns3:TrackPointExtension>
            <ns3:atemp>21.0</ns3:atemp>
          </ns3:TrackPointExtension>
        </extensions>
      </trkpt>
      <trkpt lat="42.5579316727817058563232421875" lon="20.10625577531754970550537109375">
        <ele>1859.5999755859375</ele>
        <time>2026-06-20T06:11:03.000Z</time>
        <extensions>
          <ns3:TrackPointExtension>
            <ns3:atemp>21.0</ns3:atemp>
          </ns3:TrackPointExtension>
        </extensions>
      </trkpt>
      <trkpt lat="42.5579363666474819183349609375" lon="20.1062265224754810333251953125">
        <ele>1859.800048828125</ele>
        <time>2026-06-20T06:11:04.000Z</time>
        <extensions>
          <ns3:TrackPointExtension>
            <ns3:atemp>21.0</ns3:atemp>
          </ns3:TrackPointExtension>
        </extensions>
      </trkpt>
      <trkpt lat="42.5579403899610042572021484375" lon="20.1061933301389217376708984375">
        <ele>1859.800048828125</ele>
        <time>2026-06-20T06:11:05.000Z</time>
        <extensions>
          <ns3:TrackPointExtension>
            <ns3:atemp>21.0</ns3:atemp>
          </ns3:TrackPointExtension>
        </extensions>
      </trkpt>
      <trkpt lat="42.5579504482448101043701171875" lon="20.10615862905979156494140625">
        <ele>1860</ele>
        <time>2026-06-20T06:11:06.000Z</time>
        <extensions>
          <ns3:TrackPointExtension>
            <ns3:atemp>21.0</ns3:atemp>
          </ns3:TrackPointExtension>
        </extensions>
      </trkpt>
      <trkpt lat="42.5579672120511531829833984375" lon="20.10611244477331638336181640625">
        <ele>1859.800048828125</ele>
        <time>2026-06-20T06:11:07.000Z</time>
        <extensions>
          <ns3:TrackPointExtension>
            <ns3:atemp>21.0</ns3:atemp>
          </ns3:TrackPointExtension>
        </extensions>
      </trkpt>
      <trkpt lat="42.55799294449388980865478515625" lon="20.106067098677158355712890625">
        <ele>1859.800048828125</ele>
        <time>2026-06-20T06:11:08.000Z</time>
        <extensions>
          <ns3:TrackPointExtension>
            <ns3:atemp>21.0</ns3:atemp>
          </ns3:TrackPointExtension>
        </extensions>
      </trkpt>
      <trkpt lat="42.55802781321108341217041015625" lon="20.10602963156998157501220703125">
        <ele>1859.4000244140625</ele>
        <time>2026-06-20T06:11:09.000Z</time>
        <extensions>
          <ns3:TrackPointExtension>
            <ns3:atemp>21.0</ns3:atemp>
          </ns3:TrackPointExtension>
        </extensions>
      </trkpt>
      <trkpt lat="42.558059580624103546142578125" lon="20.105994008481502532958984375">
        <ele>1859</ele>
        <time>2026-06-20T06:11:10.000Z</time>
        <extensions>
          <ns3:TrackPointExtension>
            <ns3:atemp>21.0</ns3:atemp>
          </ns3:TrackPointExtension>
        </extensions>
      </trkpt>
      <trkpt lat="42.55809470079839229583740234375" lon="20.1059613190591335296630859375">
        <ele>1858.5999755859375</ele>
        <time>2026-06-20T06:11:11.000Z</time>
        <extensions>
          <ns3:TrackPointExtension>
            <ns3:atemp>21.0</ns3:atemp>
          </ns3:TrackPointExtension>
        </extensions>
      </trkpt>
      <trkpt lat="42.55813560448586940765380859375" lon="20.1059301383793354034423828125">
        <ele>1858.199951171875</ele>
        <time>2026-06-20T06:11:12.000Z</time>
        <extensions>
          <ns3:TrackPointExtension>
            <ns3:atemp>21.0</ns3:atemp>
          </ns3:TrackPointExtension>
        </extensions>
      </trkpt>
      <trkpt lat="42.5581794418394565582275390625" lon="20.1059140451252460479736328125">
        <ele>1857.800048828125</ele>
        <time>2026-06-20T06:11:13.000Z</time>
        <extensions>
          <ns3:TrackPointExtension>
            <ns3:atemp>21.0</ns3:atemp>
          </ns3:TrackPointExtension>
        </extensions>
      </trkpt>
      <trkpt lat="42.55821908824145793914794921875" lon="20.10592033155262470245361328125">
        <ele>1857.5999755859375</ele>
        <time>2026-06-20T06:11:14.000Z</time>
        <extensions>
          <ns3:TrackPointExtension>
            <ns3:atemp>21.0</ns3:atemp>
          </ns3:TrackPointExtension>
        </extensions>
      </trkpt>
      <trkpt lat="42.5582469999790191650390625" lon="20.105938352644443511962890625">
        <ele>1857.199951171875</ele>
        <time>2026-06-20T06:11:15.000Z</time>
        <extensions>
          <ns3:TrackPointExtension>
            <ns3:atemp>21.0</ns3:atemp>
          </ns3:TrackPointExtension>
        </extensions>
      </trkpt>
      <trkpt lat="42.55825781263411045074462890625" lon="20.1059609837830066680908203125">
        <ele>1857</ele>
        <time>2026-06-20T06:11:16.000Z</time>
        <extensions>
          <ns3:TrackPointExtension>
            <ns3:atemp>21.0</ns3:atemp>
          </ns3:TrackPointExtension>
        </extensions>
      </trkpt>
      <trkpt lat="42.55826669745147228240966796875" lon="20.1059822738170623779296875">
        <ele>1857</ele>
        <time>2026-06-20T06:11:17.000Z</time>
        <extensions>
          <ns3:TrackPointExtension>
            <ns3:atemp>21.0</ns3:atemp>
          </ns3:TrackPointExtension>
        </extensions>
      </trkpt>
      <trkpt lat="42.558272145688533782958984375" lon="20.105991326272487640380859375">
        <ele>1857</ele>
        <time>2026-06-20T06:11:18.000Z</time>
        <extensions>
          <ns3:TrackPointExtension>
            <ns3:atemp>21.0</ns3:atemp>
          </ns3:TrackPointExtension>
        </extensions>
      </trkpt>
      <trkpt lat="42.5582711398601531982421875" lon="20.10599099099636077880859375">
        <ele>1857</ele>
        <time>2026-06-20T06:11:19.000Z</time>
        <extensions>
          <ns3:TrackPointExtension>
            <ns3:atemp>21.0</ns3:atemp>
          </ns3:TrackPointExtension>
        </extensions>
      </trkpt>
      <trkpt lat="42.5582711398601531982421875" lon="20.10599099099636077880859375">
        <ele>1857</ele>
        <time>2026-06-20T06:11:20.000Z</time>
        <extensions>
          <ns3:TrackPointExtension>
            <ns3:atemp>21.0</ns3:atemp>
          </ns3:TrackPointExtension>
        </extensions>
      </trkpt>
      <trkpt lat="42.5582711398601531982421875" lon="20.10599099099636077880859375">
        <ele>1857</ele>
        <time>2026-06-20T06:11:21.000Z</time>
        <extensions>
          <ns3:TrackPointExtension>
            <ns3:atemp>21.0</ns3:atemp>
          </ns3:TrackPointExtension>
        </extensions>
      </trkpt>
      <trkpt lat="42.5582711398601531982421875" lon="20.10599099099636077880859375">
        <ele>1857</ele>
        <time>2026-06-20T06:11:22.000Z</time>
        <extensions>
          <ns3:TrackPointExtension>
            <ns3:atemp>21.0</ns3:atemp>
          </ns3:TrackPointExtension>
        </extensions>
      </trkpt>
      <trkpt lat="42.5582711398601531982421875" lon="20.10599099099636077880859375">
        <ele>1857.199951171875</ele>
        <time>2026-06-20T06:11:23.000Z</time>
        <extensions>
          <ns3:TrackPointExtension>
            <ns3:atemp>21.0</ns3:atemp>
          </ns3:TrackPointExtension>
        </extensions>
      </trkpt>
      <trkpt lat="42.5582711398601531982421875" lon="20.10599099099636077880859375">
        <ele>1857.199951171875</ele>
        <time>2026-06-20T06:11:24.000Z</time>
        <extensions>
          <ns3:TrackPointExtension>
            <ns3:atemp>21.0</ns3:atemp>
          </ns3:TrackPointExtension>
        </extensions>
      </trkpt>
      <trkpt lat="42.5582711398601531982421875" lon="20.10599099099636077880859375">
        <ele>1857.199951171875</ele>
        <time>2026-06-20T06:11:25.000Z</time>
        <extensions>
          <ns3:TrackPointExtension>
            <ns3:atemp>21.0</ns3:atemp>
          </ns3:TrackPointExtension>
        </extensions>
      </trkpt>
      <trkpt lat="42.5582711398601531982421875" lon="20.10599099099636077880859375">
        <ele>1857</ele>
        <time>2026-06-20T06:11:26.000Z</time>
        <extensions>
          <ns3:TrackPointExtension>
            <ns3:atemp>21.0</ns3:atemp>
          </ns3:TrackPointExtension>
        </extensions>
      </trkpt>
      <trkpt lat="42.5582711398601531982421875" lon="20.10599099099636077880859375">
        <ele>1857</ele>
        <time>2026-06-20T06:11:27.000Z</time>
        <extensions>
          <ns3:TrackPointExtension>
            <ns3:atemp>21.0</ns3:atemp>
          </ns3:TrackPointExtension>
        </extensions>
      </trkpt>
      <trkpt lat="42.5582711398601531982421875" lon="20.10599099099636077880859375">
        <ele>1857</ele>
        <time>2026-06-20T06:11:28.000Z</time>
        <extensions>
          <ns3:TrackPointExtension>
            <ns3:atemp>21.0</ns3:atemp>
          </ns3:TrackPointExtension>
        </extensions>
      </trkpt>
      <trkpt lat="42.5582711398601531982421875" lon="20.10599099099636077880859375">
        <ele>1857</ele>
        <time>2026-06-20T06:11:29.000Z</time>
        <extensions>
          <ns3:TrackPointExtension>
            <ns3:atemp>21.0</ns3:atemp>
          </ns3:TrackPointExtension>
        </extensions>
      </trkpt>
      <trkpt lat="42.5582711398601531982421875" lon="20.10599099099636077880859375">
        <ele>1857</ele>
        <time>2026-06-20T06:11:30.000Z</time>
        <extensions>
          <ns3:TrackPointExtension>
            <ns3:atemp>21.0</ns3:atemp>
          </ns3:TrackPointExtension>
        </extensions>
      </trkpt>
      <trkpt lat="42.5582711398601531982421875" lon="20.10599099099636077880859375">
        <ele>1857</ele>
        <time>2026-06-20T06:11:31.000Z</time>
        <extensions>
          <ns3:TrackPointExtension>
            <ns3:atemp>21.0</ns3:atemp>
          </ns3:TrackPointExtension>
        </extensions>
      </trkpt>
      <trkpt lat="42.5582711398601531982421875" lon="20.10599099099636077880859375">
        <ele>1857</ele>
        <time>2026-06-20T06:11:32.000Z</time>
        <extensions>
          <ns3:TrackPointExtension>
            <ns3:atemp>21.0</ns3:atemp>
          </ns3:TrackPointExtension>
        </extensions>
      </trkpt>
      <trkpt lat="42.5582711398601531982421875" lon="20.10599099099636077880859375">
        <ele>1857</ele>
        <time>2026-06-20T06:11:33.000Z</time>
        <extensions>
          <ns3:TrackPointExtension>
            <ns3:atemp>21.0</ns3:atemp>
          </ns3:TrackPointExtension>
        </extensions>
      </trkpt>
      <trkpt lat="42.5582711398601531982421875" lon="20.10599099099636077880859375">
        <ele>1857</ele>
        <time>2026-06-20T06:11:34.000Z</time>
        <extensions>
          <ns3:TrackPointExtension>
            <ns3:atemp>21.0</ns3:atemp>
          </ns3:TrackPointExtension>
        </extensions>
      </trkpt>
      <trkpt lat="42.5582711398601531982421875" lon="20.10599099099636077880859375">
        <ele>1857</ele>
        <time>2026-06-20T06:11:35.000Z</time>
        <extensions>
          <ns3:TrackPointExtension>
            <ns3:atemp>21.0</ns3:atemp>
          </ns3:TrackPointExtension>
        </extensions>
      </trkpt>
      <trkpt lat="42.5582711398601531982421875" lon="20.10599099099636077880859375">
        <ele>1857</ele>
        <time>2026-06-20T06:11:36.000Z</time>
        <extensions>
          <ns3:TrackPointExtension>
            <ns3:atemp>21.0</ns3:atemp>
          </ns3:TrackPointExtension>
        </extensions>
      </trkpt>
      <trkpt lat="42.5582713074982166290283203125" lon="20.1059911586344242095947265625">
        <ele>1856.800048828125</ele>
        <time>2026-06-20T06:11:37.000Z</time>
        <extensions>
          <ns3:TrackPointExtension>
            <ns3:atemp>21.0</ns3:atemp>
          </ns3:TrackPointExtension>
        </extensions>
      </trkpt>
      <trkpt lat="42.5582813657820224761962890625" lon="20.10599174536764621734619140625">
        <ele>1856.5999755859375</ele>
        <time>2026-06-20T06:11:38.000Z</time>
        <extensions>
          <ns3:TrackPointExtension>
            <ns3:atemp>21.0</ns3:atemp>
          </ns3:TrackPointExtension>
        </extensions>
      </trkpt>
      <trkpt lat="42.55829234607517719268798828125" lon="20.10598889552056789398193359375">
        <ele>1856.5999755859375</ele>
        <time>2026-06-20T06:11:39.000Z</time>
        <extensions>
          <ns3:TrackPointExtension>
            <ns3:atemp>21.0</ns3:atemp>
          </ns3:TrackPointExtension>
        </extensions>
      </trkpt>
      <trkpt lat="42.5583038292825222015380859375" lon="20.105975233018398284912109375">
        <ele>1856.4000244140625</ele>
        <time>2026-06-20T06:11:40.000Z</time>
        <extensions>
          <ns3:TrackPointExtension>
            <ns3:atemp>21.0</ns3:atemp>
          </ns3:TrackPointExtension>
        </extensions>
      </trkpt>
      <trkpt lat="42.55831070244312286376953125" lon="20.105952434241771697998046875">
        <ele>1856.4000244140625</ele>
        <time>2026-06-20T06:11:41.000Z</time>
        <extensions>
          <ns3:TrackPointExtension>
            <ns3:atemp>21.0</ns3:atemp>
          </ns3:TrackPointExtension>
        </extensions>
      </trkpt>
      <trkpt lat="42.5583065114915370941162109375" lon="20.10592167265713214874267578125">
        <ele>1856.199951171875</ele>
        <time>2026-06-20T06:11:42.000Z</time>
        <extensions>
          <ns3:TrackPointExtension>
            <ns3:atemp>21.0</ns3:atemp>
          </ns3:TrackPointExtension>
        </extensions>
      </trkpt>
      <trkpt lat="42.55829318426549434661865234375" lon="20.1059043221175670623779296875">
        <ele>1856.199951171875</ele>
        <time>2026-06-20T06:11:43.000Z</time>
        <extensions>
          <ns3:TrackPointExtension>
            <ns3:atemp>21.0</ns3:atemp>
          </ns3:TrackPointExtension>
        </extensions>
      </trkpt>
      <trkpt lat="42.55828027613461017608642578125" lon="20.1058966107666492462158203125">
        <ele>1856.199951171875</ele>
        <time>2026-06-20T06:11:44.000Z</time>
        <extensions>
          <ns3:TrackPointExtension>
            <ns3:atemp>21.0</ns3:atemp>
          </ns3:TrackPointExtension>
        </extensions>
      </trkpt>
      <trkpt lat="42.5582659430801868438720703125" lon="20.10589635930955410003662109375">
        <ele>1856.199951171875</ele>
        <time>2026-06-20T06:11:45.000Z</time>
        <extensions>
          <ns3:TrackPointExtension>
            <ns3:atemp>21.0</ns3:atemp>
          </ns3:TrackPointExtension>
        </extensions>
      </trkpt>
      <trkpt lat="42.55825211293995380401611328125" lon="20.105896107852458953857421875">
        <ele>1856.199951171875</ele>
        <time>2026-06-20T06:11:46.000Z</time>
        <extensions>
          <ns3:TrackPointExtension>
            <ns3:atemp>21.0</ns3:atemp>
          </ns3:TrackPointExtension>
        </extensions>
      </trkpt>
      <trkpt lat="42.55823694169521331787109375" lon="20.105897448956966400146484375">
        <ele>1856.199951171875</ele>
        <time>2026-06-20T06:11:47.000Z</time>
        <extensions>
          <ns3:TrackPointExtension>
            <ns3:atemp>21.0</ns3:atemp>
          </ns3:TrackPointExtension>
        </extensions>
      </trkpt>
      <trkpt lat="42.558214478194713592529296875" lon="20.10589702986180782318115234375">
        <ele>1856.199951171875</ele>
        <time>2026-06-20T06:11:48.000Z</time>
        <extensions>
          <ns3:TrackPointExtension>
            <ns3:atemp>21.0</ns3:atemp>
          </ns3:TrackPointExtension>
        </extensions>
      </trkpt>
      <trkpt lat="42.55819293670356273651123046875" lon="20.10589619167149066925048828125">
        <ele>1856.4000244140625</ele>
        <time>2026-06-20T06:11:49.000Z</time>
        <extensions>
          <ns3:TrackPointExtension>
            <ns3:atemp>21.0</ns3:atemp>
          </ns3:TrackPointExtension>
        </extensions>
      </trkpt>
      <trkpt lat="42.55817164666950702667236328125" lon="20.10589971207082271575927734375">
        <ele>1856.5999755859375</ele>
        <time>2026-06-20T06:11:50.000Z</time>
        <extensions>
          <ns3:TrackPointExtension>
            <ns3:atemp>21.0</ns3:atemp>
          </ns3:TrackPointExtension>
        </extensions>
      </trkpt>
      <trkpt lat="42.558153457939624786376953125" lon="20.105905495584011077880859375">
        <ele>1856.5999755859375</ele>
        <time>2026-06-20T06:11:51.000Z</time>
        <extensions>
          <ns3:TrackPointExtension>
            <ns3:atemp>21.0</ns3:atemp>
          </ns3:TrackPointExtension>
        </extensions>
      </trkpt>
      <trkpt lat="42.55813661031424999237060546875" lon="20.10591748170554637908935546875">
        <ele>1856.800048828125</ele>
        <time>2026-06-20T06:11:52.000Z</time>
        <extensions>
          <ns3:TrackPointExtension>
            <ns3:atemp>21.0</ns3:atemp>
          </ns3:TrackPointExtension>
        </extensions>
      </trkpt>
      <trkpt lat="42.55811984650790691375732421875" lon="20.10592955164611339569091796875">
        <ele>1856.800048828125</ele>
        <time>2026-06-20T06:11:53.000Z</time>
        <extensions>
          <ns3:TrackPointExtension>
            <ns3:atemp>21.0</ns3:atemp>
          </ns3:TrackPointExtension>
        </extensions>
      </trkpt>
      <trkpt lat="42.55810559727251529693603515625" lon="20.10594673454761505126953125">
        <ele>1857</ele>
        <time>2026-06-20T06:11:54.000Z</time>
        <extensions>
          <ns3:TrackPointExtension>
            <ns3:atemp>21.0</ns3:atemp>
          </ns3:TrackPointExtension>
        </extensions>
      </trkpt>
      <trkpt lat="42.55809453316032886505126953125" lon="20.10596291162073612213134765625">
        <ele>1857.199951171875</ele>
        <time>2026-06-20T06:11:55.000Z</time>
        <extensions>
          <ns3:TrackPointExtension>
            <ns3:atemp>21.0</ns3:atemp>
          </ns3:TrackPointExtension>
        </extensions>
      </trkpt>
      <trkpt lat="42.55807735025882720947265625" lon="20.10598017834126949310302734375">
        <ele>1857.4000244140625</ele>
        <time>2026-06-20T06:11:56.000Z</time>
        <extensions>
          <ns3:TrackPointExtension>
            <ns3:atemp>21.0</ns3:atemp>
          </ns3:TrackPointExtension>
        </extensions>
      </trkpt>
      <trkpt lat="42.55805782042443752288818359375" lon="20.1059978641569614410400390625">
        <ele>1857.4000244140625</ele>
        <time>2026-06-20T06:11:57.000Z</time>
        <extensions>
          <ns3:TrackPointExtension>
            <ns3:atemp>21.0</ns3:atemp>
          </ns3:TrackPointExtension>
        </extensions>
      </trkpt>
      <trkpt lat="42.55803837440907955169677734375" lon="20.10600934736430644989013671875">
        <ele>1857.5999755859375</ele>
        <time>2026-06-20T06:11:58.000Z</time>
        <extensions>
          <ns3:TrackPointExtension>
            <ns3:atemp>21.0</ns3:atemp>
          </ns3:TrackPointExtension>
        </extensions>
      </trkpt>
      <trkpt lat="42.55801926366984844207763671875" lon="20.10601219721138477325439453125">
        <ele>1857.800048828125</ele>
        <time>2026-06-20T06:11:59.000Z</time>
        <extensions>
          <ns3:TrackPointExtension>
            <ns3:atemp>21.0</ns3:atemp>
          </ns3:TrackPointExtension>
        </extensions>
      </trkpt>
      <trkpt lat="42.55800199694931507110595703125" lon="20.1060102693736553192138671875">
        <ele>1857.800048828125</ele>
        <time>2026-06-20T06:12:00.000Z</time>
        <extensions>
          <ns3:TrackPointExtension>
            <ns3:atemp>21.0</ns3:atemp>
          </ns3:TrackPointExtension>
        </extensions>
      </trkpt>
      <trkpt lat="42.55798615515232086181640625" lon="20.10600716806948184967041015625">
        <ele>1858</ele>
        <time>2026-06-20T06:12:01.000Z</time>
        <extensions>
          <ns3:TrackPointExtension>
            <ns3:atemp>21.0</ns3:atemp>
          </ns3:TrackPointExtension>
        </extensions>
      </trkpt>
      <trkpt lat="42.55796913988888263702392578125" lon="20.10599224828183650970458984375">
        <ele>1858</ele>
        <time>2026-06-20T06:12:02.000Z</time>
        <extensions>
          <ns3:TrackPointExtension>
            <ns3:atemp>21.0</ns3:atemp>
          </ns3:TrackPointExtension>
        </extensions>
      </trkpt>
      <trkpt lat="42.5579517893493175506591796875" lon="20.105974562466144561767578125">
        <ele>1858.199951171875</ele>
        <time>2026-06-20T06:12:03.000Z</time>
        <extensions>
          <ns3:TrackPointExtension>
            <ns3:atemp>21.0</ns3:atemp>
          </ns3:TrackPointExtension>
        </extensions>
      </trkpt>
      <trkpt lat="42.55793293006718158721923828125" lon="20.1059549488127231597900390625">
        <ele>1858.199951171875</ele>
        <time>2026-06-20T06:12:04.000Z</time>
        <extensions>
          <ns3:TrackPointExtension>
            <ns3:atemp>21.0</ns3:atemp>
          </ns3:TrackPointExtension>
        </extensions>
      </trkpt>
      <trkpt lat="42.55792052485048770904541015625" lon="20.10594380088150501251220703125">
        <ele>1858.199951171875</ele>
        <time>2026-06-20T06:12:05.000Z</time>
        <extensions>
          <ns3:TrackPointExtension>
            <ns3:atemp>21.0</ns3:atemp>
          </ns3:TrackPointExtension>
        </extensions>
      </trkpt>
      <trkpt lat="42.55790929310023784637451171875" lon="20.10592854581773281097412109375">
        <ele>1858.199951171875</ele>
        <time>2026-06-20T06:12:06.000Z</time>
        <extensions>
          <ns3:TrackPointExtension>
            <ns3:atemp>21.0</ns3:atemp>
          </ns3:TrackPointExtension>
        </extensions>
      </trkpt>
      <trkpt lat="42.55789403803646564483642578125" lon="20.1059125363826751708984375">
        <ele>1858</ele>
        <time>2026-06-20T06:12:07.000Z</time>
        <extensions>
          <ns3:TrackPointExtension>
            <ns3:atemp>21.0</ns3:atemp>
          </ns3:TrackPointExtension>
        </extensions>
      </trkpt>
      <trkpt lat="42.55787895061075687408447265625" lon="20.10589702986180782318115234375">
        <ele>1858</ele>
        <time>2026-06-20T06:12:08.000Z</time>
        <extensions>
          <ns3:TrackPointExtension>
            <ns3:atemp>21.0</ns3:atemp>
          </ns3:TrackPointExtension>
        </extensions>
      </trkpt>
      <trkpt lat="42.55786654539406299591064453125" lon="20.10588512755930423736572265625">
        <ele>1858</ele>
        <time>2026-06-20T06:12:09.000Z</time>
        <extensions>
          <ns3:TrackPointExtension>
            <ns3:atemp>21.0</ns3:atemp>
          </ns3:TrackPointExtension>
        </extensions>
      </trkpt>
      <trkpt lat="42.557855062186717987060546875" lon="20.1058721356093883514404296875">
        <ele>1858</ele>
        <time>2026-06-20T06:12:10.000Z</time>
        <extensions>
          <ns3:TrackPointExtension>
            <ns3:atemp>21.0</ns3:atemp>
          </ns3:TrackPointExtension>
        </extensions>
      </trkpt>
      <trkpt lat="42.55784257315099239349365234375" lon="20.10585813783109188079833984375">
        <ele>1858</ele>
        <time>2026-06-20T06:12:11.000Z</time>
        <extensions>
          <ns3:TrackPointExtension>
            <ns3:atemp>21.0</ns3:atemp>
          </ns3:TrackPointExtension>
        </extensions>
      </trkpt>
      <trkpt lat="42.5578277371823787689208984375" lon="20.10584657080471515655517578125">
        <ele>1858</ele>
        <time>2026-06-20T06:12:12.000Z</time>
        <extensions>
          <ns3:TrackPointExtension>
            <ns3:atemp>21.0</ns3:atemp>
          </ns3:TrackPointExtension>
        </extensions>
      </trkpt>
      <trkpt lat="42.55781591869890689849853515625" lon="20.10583383031189441680908203125">
        <ele>1858</ele>
        <time>2026-06-20T06:12:13.000Z</time>
        <extensions>
          <ns3:TrackPointExtension>
            <ns3:atemp>21.0</ns3:atemp>
          </ns3:TrackPointExtension>
        </extensions>
      </trkpt>
      <trkpt lat="42.55780904553830623626708984375" lon="20.10581857524812221527099609375">
        <ele>1858.199951171875</ele>
        <time>2026-06-20T06:12:14.000Z</time>
        <extensions>
          <ns3:TrackPointExtension>
            <ns3:atemp>21.0</ns3:atemp>
          </ns3:TrackPointExtension>
        </extensions>
      </trkpt>
      <trkpt lat="42.55780250765383243560791015625" lon="20.10580231435596942901611328125">
        <ele>1858.199951171875</ele>
        <time>2026-06-20T06:12:15.000Z</time>
        <extensions>
          <ns3:TrackPointExtension>
            <ns3:atemp>21.0</ns3:atemp>
          </ns3:TrackPointExtension>
        </extensions>
      </trkpt>
      <trkpt lat="42.55780133418738842010498046875" lon="20.10578538291156291961669921875">
        <ele>1858.4000244140625</ele>
        <time>2026-06-20T06:12:16.000Z</time>
        <extensions>
          <ns3:TrackPointExtension>
            <ns3:atemp>21.0</ns3:atemp>
          </ns3:TrackPointExtension>
        </extensions>
      </trkpt>
      <trkpt lat="42.5578012503683567047119140625" lon="20.105771720409393310546875">
        <ele>1858.4000244140625</ele>
        <time>2026-06-20T06:12:17.000Z</time>
        <extensions>
          <ns3:TrackPointExtension>
            <ns3:atemp>21.0</ns3:atemp>
          </ns3:TrackPointExtension>
        </extensions>
      </trkpt>
      <trkpt lat="42.5577978976070880889892578125" lon="20.10575923137366771697998046875">
        <ele>1858.5999755859375</ele>
        <time>2026-06-20T06:12:18.000Z</time>
        <extensions>
          <ns3:TrackPointExtension>
            <ns3:atemp>21.0</ns3:atemp>
          </ns3:TrackPointExtension>
        </extensions>
      </trkpt>
      <trkpt lat="42.55779563449323177337646484375" lon="20.1057376898825168609619140625">
        <ele>1858.800048828125</ele>
        <time>2026-06-20T06:12:19.000Z</time>
        <extensions>
          <ns3:TrackPointExtension>
            <ns3:atemp>21.0</ns3:atemp>
          </ns3:TrackPointExtension>
        </extensions>
      </trkpt>
      <trkpt lat="42.557801418006420135498046875" lon="20.10571480728685855865478515625">
        <ele>1859</ele>
        <time>2026-06-20T06:12:20.000Z</time>
        <extensions>
          <ns3:TrackPointExtension>
            <ns3:atemp>21.0</ns3:atemp>
          </ns3:TrackPointExtension>
        </extensions>
      </trkpt>
      <trkpt lat="42.55780468694865703582763671875" lon="20.10569619946181774139404296875">
        <ele>1859</ele>
        <time>2026-06-20T06:12:21.000Z</time>
        <extensions>
          <ns3:TrackPointExtension>
            <ns3:atemp>21.0</ns3:atemp>
          </ns3:TrackPointExtension>
        </extensions>
      </trkpt>
      <trkpt lat="42.55780871026217937469482421875" lon="20.1056749932467937469482421875">
        <ele>1859</ele>
        <time>2026-06-20T06:12:22.000Z</time>
        <extensions>
          <ns3:TrackPointExtension>
            <ns3:atemp>21.0</ns3:atemp>
          </ns3:TrackPointExtension>
        </extensions>
      </trkpt>
      <trkpt lat="42.5578136555850505828857421875" lon="20.1056505180895328521728515625">
        <ele>1859.199951171875</ele>
        <time>2026-06-20T06:12:23.000Z</time>
        <extensions>
          <ns3:TrackPointExtension>
            <ns3:atemp>21.0</ns3:atemp>
          </ns3:TrackPointExtension>
        </extensions>
      </trkpt>
      <trkpt lat="42.55781625397503376007080078125" lon="20.1056250371038913726806640625">
        <ele>1859.199951171875</ele>
        <time>2026-06-20T06:12:24.000Z</time>
        <extensions>
          <ns3:TrackPointExtension>
            <ns3:atemp>21.0</ns3:atemp>
          </ns3:TrackPointExtension>
        </extensions>
      </trkpt>
      <trkpt lat="42.5578220374882221221923828125" lon="20.10560031048953533172607421875">
        <ele>1859.4000244140625</ele>
        <time>2026-06-20T06:12:25.000Z</time>
        <extensions>
          <ns3:TrackPointExtension>
            <ns3:atemp>21.0</ns3:atemp>
          </ns3:TrackPointExtension>
        </extensions>
      </trkpt>
      <trkpt lat="42.55782832391560077667236328125" lon="20.10557952336966991424560546875">
        <ele>1859.5999755859375</ele>
        <time>2026-06-20T06:12:26.000Z</time>
        <extensions>
          <ns3:TrackPointExtension>
            <ns3:atemp>21.0</ns3:atemp>
          </ns3:TrackPointExtension>
        </extensions>
      </trkpt>
      <trkpt lat="42.5578307546675205230712890625" lon="20.10555873624980449676513671875">
        <ele>1859.800048828125</ele>
        <time>2026-06-20T06:12:27.000Z</time>
        <extensions>
          <ns3:TrackPointExtension>
            <ns3:atemp>21.0</ns3:atemp>
          </ns3:TrackPointExtension>
        </extensions>
      </trkpt>
      <trkpt lat="42.5578344427049160003662109375" lon="20.10553711093962192535400390625">
        <ele>1859.800048828125</ele>
        <time>2026-06-20T06:12:28.000Z</time>
        <extensions>
          <ns3:TrackPointExtension>
            <ns3:atemp>21.0</ns3:atemp>
          </ns3:TrackPointExtension>
        </extensions>
      </trkpt>
      <trkpt lat="42.5578357838094234466552734375" lon="20.1055207662284374237060546875">
        <ele>1860</ele>
        <time>2026-06-20T06:12:29.000Z</time>
        <extensions>
          <ns3:TrackPointExtension>
            <ns3:atemp>21.0</ns3:atemp>
          </ns3:TrackPointExtension>
        </extensions>
      </trkpt>
      <trkpt lat="42.55783569999039173126220703125" lon="20.1055093668401241302490234375">
        <ele>1860.199951171875</ele>
        <time>2026-06-20T06:12:30.000Z</time>
        <extensions>
          <ns3:TrackPointExtension>
            <ns3:atemp>21.0</ns3:atemp>
          </ns3:TrackPointExtension>
        </extensions>
      </trkpt>
      <trkpt lat="42.55783486180007457733154296875" lon="20.10550073347985744476318359375">
        <ele>1860.4000244140625</ele>
        <time>2026-06-20T06:12:31.000Z</time>
        <extensions>
          <ns3:TrackPointExtension>
            <ns3:atemp>21.0</ns3:atemp>
          </ns3:TrackPointExtension>
        </extensions>
      </trkpt>
      <trkpt lat="42.55783821456134319305419921875" lon="20.105489082634449005126953125">
        <ele>1860.4000244140625</ele>
        <time>2026-06-20T06:12:32.000Z</time>
        <extensions>
          <ns3:TrackPointExtension>
            <ns3:atemp>21.0</ns3:atemp>
          </ns3:TrackPointExtension>
        </extensions>
      </trkpt>
      <trkpt lat="42.5578491948544979095458984375" lon="20.10548128746449947357177734375">
        <ele>1860.4000244140625</ele>
        <time>2026-06-20T06:12:33.000Z</time>
        <extensions>
          <ns3:TrackPointExtension>
            <ns3:atemp>21.0</ns3:atemp>
          </ns3:TrackPointExtension>
        </extensions>
      </trkpt>
      <trkpt lat="42.5578634440898895263671875" lon="20.10547692887485027313232421875">
        <ele>1860.4000244140625</ele>
        <time>2026-06-20T06:12:34.000Z</time>
        <extensions>
          <ns3:TrackPointExtension>
            <ns3:atemp>21.0</ns3:atemp>
          </ns3:TrackPointExtension>
        </extensions>
      </trkpt>
      <trkpt lat="42.5578750111162662506103515625" lon="20.1054748333990573883056640625">
        <ele>1860.199951171875</ele>
        <time>2026-06-20T06:12:35.000Z</time>
        <extensions>
          <ns3:TrackPointExtension>
            <ns3:atemp>21.0</ns3:atemp>
          </ns3:TrackPointExtension>
        </extensions>
      </trkpt>
      <trkpt lat="42.55788800306618213653564453125" lon="20.10547290556132793426513671875">
        <ele>1860</ele>
        <time>2026-06-20T06:12:36.000Z</time>
        <extensions>
          <ns3:TrackPointExtension>
            <ns3:atemp>21.0</ns3:atemp>
          </ns3:TrackPointExtension>
        </extensions>
      </trkpt>
      <trkpt lat="42.557903341948986053466796875" lon="20.1054694689810276031494140625">
        <ele>1859.800048828125</ele>
        <time>2026-06-20T06:12:37.000Z</time>
        <extensions>
          <ns3:TrackPointExtension>
            <ns3:atemp>21.0</ns3:atemp>
          </ns3:TrackPointExtension>
        </extensions>
      </trkpt>
      <trkpt lat="42.55791650153696537017822265625" lon="20.10546854697167873382568359375">
        <ele>1859.5999755859375</ele>
        <time>2026-06-20T06:12:38.000Z</time>
        <extensions>
          <ns3:TrackPointExtension>
            <ns3:atemp>21.0</ns3:atemp>
          </ns3:TrackPointExtension>
        </extensions>
      </trkpt>
      <trkpt lat="42.5579283200204372406005859375" lon="20.1054672896862030029296875">
        <ele>1859.5999755859375</ele>
        <time>2026-06-20T06:12:39.000Z</time>
        <extensions>
          <ns3:TrackPointExtension>
            <ns3:atemp>21.0</ns3:atemp>
          </ns3:TrackPointExtension>
        </extensions>
      </trkpt>
      <trkpt lat="42.5579413957893848419189453125" lon="20.10546863079071044921875">
        <ele>1859.5999755859375</ele>
        <time>2026-06-20T06:12:40.000Z</time>
        <extensions>
          <ns3:TrackPointExtension>
            <ns3:atemp>21.0</ns3:atemp>
          </ns3:TrackPointExtension>
        </extensions>
      </trkpt>
      <trkpt lat="42.557957656681537628173828125" lon="20.1054687984287738800048828125">
        <ele>1859.5999755859375</ele>
        <time>2026-06-20T06:12:41.000Z</time>
        <extensions>
          <ns3:TrackPointExtension>
            <ns3:atemp>21.0</ns3:atemp>
          </ns3:TrackPointExtension>
        </extensions>
      </trkpt>
      <trkpt lat="42.557972408831119537353515625" lon="20.10547039099037647247314453125">
        <ele>1859.5999755859375</ele>
        <time>2026-06-20T06:12:42.000Z</time>
        <extensions>
          <ns3:TrackPointExtension>
            <ns3:atemp>21.0</ns3:atemp>
          </ns3:TrackPointExtension>
        </extensions>
      </trkpt>
      <trkpt lat="42.5579869933426380157470703125" lon="20.105474330484867095947265625">
        <ele>1859.5999755859375</ele>
        <time>2026-06-20T06:12:43.000Z</time>
        <extensions>
          <ns3:TrackPointExtension>
            <ns3:atemp>21.0</ns3:atemp>
          </ns3:TrackPointExtension>
        </extensions>
      </trkpt>
      <trkpt lat="42.55799931474030017852783203125" lon="20.105479024350643157958984375">
        <ele>1859.5999755859375</ele>
        <time>2026-06-20T06:12:44.000Z</time>
        <extensions>
          <ns3:TrackPointExtension>
            <ns3:atemp>21.0</ns3:atemp>
          </ns3:TrackPointExtension>
        </extensions>
      </trkpt>
      <trkpt lat="42.5580141507089138031005859375" lon="20.10548799298703670501708984375">
        <ele>1859.5999755859375</ele>
        <time>2026-06-20T06:12:45.000Z</time>
        <extensions>
          <ns3:TrackPointExtension>
            <ns3:atemp>21.0</ns3:atemp>
          </ns3:TrackPointExtension>
        </extensions>
      </trkpt>
      <trkpt lat="42.55803016014397144317626953125" lon="20.10550081729888916015625">
        <ele>1859.4000244140625</ele>
        <time>2026-06-20T06:12:46.000Z</time>
        <extensions>
          <ns3:TrackPointExtension>
            <ns3:atemp>21.0</ns3:atemp>
          </ns3:TrackPointExtension>
        </extensions>
      </trkpt>
      <trkpt lat="42.55804340355098247528076171875" lon="20.10552470572292804718017578125">
        <ele>1859.199951171875</ele>
        <time>2026-06-20T06:12:47.000Z</time>
        <extensions>
          <ns3:TrackPointExtension>
            <ns3:atemp>21.0</ns3:atemp>
          </ns3:TrackPointExtension>
        </extensions>
      </trkpt>
      <trkpt lat="42.55806201137602329254150390625" lon="20.1055616699159145355224609375">
        <ele>1859.199951171875</ele>
        <time>2026-06-20T06:12:48.000Z</time>
        <extensions>
          <ns3:TrackPointExtension>
            <ns3:atemp>21.0</ns3:atemp>
          </ns3:TrackPointExtension>
        </extensions>
      </trkpt>
      <trkpt lat="42.5580781884491443634033203125" lon="20.10559762828052043914794921875">
        <ele>1858.800048828125</ele>
        <time>2026-06-20T06:12:49.000Z</time>
        <extensions>
          <ns3:TrackPointExtension>
            <ns3:atemp>21.0</ns3:atemp>
          </ns3:TrackPointExtension>
        </extensions>
      </trkpt>
      <trkpt lat="42.55809201858937740325927734375" lon="20.1056344248354434967041015625">
        <ele>1858.5999755859375</ele>
        <time>2026-06-20T06:12:50.000Z</time>
        <extensions>
          <ns3:TrackPointExtension>
            <ns3:atemp>21.0</ns3:atemp>
          </ns3:TrackPointExtension>
        </extensions>
      </trkpt>
      <trkpt lat="42.55810643546283245086669921875" lon="20.10566820390522480010986328125">
        <ele>1858.4000244140625</ele>
        <time>2026-06-20T06:12:51.000Z</time>
        <extensions>
          <ns3:TrackPointExtension>
            <ns3:atemp>21.0</ns3:atemp>
          </ns3:TrackPointExtension>
        </extensions>
      </trkpt>
      <trkpt lat="42.55811800248920917510986328125" lon="20.10569904930889606475830078125">
        <ele>1858.199951171875</ele>
        <time>2026-06-20T06:12:52.000Z</time>
        <extensions>
          <ns3:TrackPointExtension>
            <ns3:atemp>21.0</ns3:atemp>
          </ns3:TrackPointExtension>
        </extensions>
      </trkpt>
      <trkpt lat="42.5581311620771884918212890625" lon="20.1057276315987110137939453125">
        <ele>1858</ele>
        <time>2026-06-20T06:12:53.000Z</time>
        <extensions>
          <ns3:TrackPointExtension>
            <ns3:atemp>21.0</ns3:atemp>
          </ns3:TrackPointExtension>
        </extensions>
      </trkpt>
      <trkpt lat="42.5581492669880390167236328125" lon="20.1057569682598114013671875">
        <ele>1858</ele>
        <time>2026-06-20T06:12:54.000Z</time>
        <extensions>
          <ns3:TrackPointExtension>
            <ns3:atemp>21.0</ns3:atemp>
          </ns3:TrackPointExtension>
        </extensions>
      </trkpt>
      <trkpt lat="42.55816879682242870330810546875" lon="20.1057849638164043426513671875">
        <ele>1857.800048828125</ele>
        <time>2026-06-20T06:12:55.000Z</time>
        <extensions>
          <ns3:TrackPointExtension>
            <ns3:atemp>21.0</ns3:atemp>
          </ns3:TrackPointExtension>
        </extensions>
      </trkpt>
      <trkpt lat="42.55819193087518215179443359375" lon="20.10582209564745426177978515625">
        <ele>1857.5999755859375</ele>
        <time>2026-06-20T06:12:56.000Z</time>
        <extensions>
          <ns3:TrackPointExtension>
            <ns3:atemp>21.0</ns3:atemp>
          </ns3:TrackPointExtension>
        </extensions>
      </trkpt>
      <trkpt lat="42.5582109577953815460205078125" lon="20.1058583892881870269775390625">
        <ele>1857.4000244140625</ele>
        <time>2026-06-20T06:12:57.000Z</time>
        <extensions>
          <ns3:TrackPointExtension>
            <ns3:atemp>21.0</ns3:atemp>
          </ns3:TrackPointExtension>
        </extensions>
      </trkpt>
      <trkpt lat="42.55822755396366119384765625" lon="20.1059002988040447235107421875">
        <ele>1857</ele>
        <time>2026-06-20T06:12:58.000Z</time>
        <extensions>
          <ns3:TrackPointExtension>
            <ns3:atemp>21.0</ns3:atemp>
          </ns3:TrackPointExtension>
        </extensions>
      </trkpt>
      <trkpt lat="42.5582411326467990875244140625" lon="20.1059381850063800811767578125">
        <ele>1857</ele>
        <time>2026-06-20T06:12:59.000Z</time>
        <extensions>
          <ns3:TrackPointExtension>
            <ns3:atemp>21.0</ns3:atemp>
          </ns3:TrackPointExtension>
        </extensions>
      </trkpt>
      <trkpt lat="42.55825228057801723480224609375" lon="20.10596676729619503021240234375">
        <ele>1856.800048828125</ele>
        <time>2026-06-20T06:13:00.000Z</time>
        <extensions>
          <ns3:TrackPointExtension>
            <ns3:atemp>21.0</ns3:atemp>
          </ns3:TrackPointExtension>
        </extensions>
      </trkpt>
      <trkpt lat="42.55825714208185672760009765625" lon="20.1059871353209018707275390625">
        <ele>1856.800048828125</ele>
        <time>2026-06-20T06:13:01.000Z</time>
        <extensions>
          <ns3:TrackPointExtension>
            <ns3:atemp>21.0</ns3:atemp>
          </ns3:TrackPointExtension>
        </extensions>
      </trkpt>
      <trkpt lat="42.55826468579471111297607421875" lon="20.10599928908050060272216796875">
        <ele>1856.800048828125</ele>
        <time>2026-06-20T06:13:02.000Z</time>
        <extensions>
          <ns3:TrackPointExtension>
            <ns3:atemp>21.0</ns3:atemp>
          </ns3:TrackPointExtension>
        </extensions>
      </trkpt>
      <trkpt lat="42.55827675573527812957763671875" lon="20.106018483638763427734375">
        <ele>1856.800048828125</ele>
        <time>2026-06-20T06:13:03.000Z</time>
        <extensions>
          <ns3:TrackPointExtension>
            <ns3:atemp>21.0</ns3:atemp>
          </ns3:TrackPointExtension>
        </extensions>
      </trkpt>
      <trkpt lat="42.55829804576933383941650390625" lon="20.1060505025088787078857421875">
        <ele>1856.5999755859375</ele>
        <time>2026-06-20T06:13:04.000Z</time>
        <extensions>
          <ns3:TrackPointExtension>
            <ns3:atemp>21.0</ns3:atemp>
          </ns3:TrackPointExtension>
        </extensions>
      </trkpt>
      <trkpt lat="42.558323778212070465087890625" lon="20.1060895621776580810546875">
        <ele>1856.5999755859375</ele>
        <time>2026-06-20T06:13:05.000Z</time>
        <extensions>
          <ns3:TrackPointExtension>
            <ns3:atemp>21.0</ns3:atemp>
          </ns3:TrackPointExtension>
        </extensions>
      </trkpt>
      <trkpt lat="42.55835386924445629119873046875" lon="20.10613381862640380859375">
        <ele>1856.4000244140625</ele>
        <time>2026-06-20T06:13:06.000Z</time>
        <extensions>
          <ns3:TrackPointExtension>
            <ns3:atemp>21.0</ns3:atemp>
          </ns3:TrackPointExtension>
        </extensions>
      </trkpt>
      <trkpt lat="42.55838354118168354034423828125" lon="20.10617212392389774322509765625">
        <ele>1856</ele>
        <time>2026-06-20T06:13:07.000Z</time>
        <extensions>
          <ns3:TrackPointExtension>
            <ns3:atemp>21.0</ns3:atemp>
          </ns3:TrackPointExtension>
        </extensions>
      </trkpt>
      <trkpt lat="42.55841036327183246612548828125" lon="20.10621361434459686279296875">
        <ele>1855.800048828125</ele>
        <time>2026-06-20T06:13:08.000Z</time>
        <extensions>
          <ns3:TrackPointExtension>
            <ns3:atemp>21.0</ns3:atemp>
          </ns3:TrackPointExtension>
        </extensions>
      </trkpt>
      <trkpt lat="42.5584376044571399688720703125" lon="20.1062593795359134674072265625">
        <ele>1855.5999755859375</ele>
        <time>2026-06-20T06:13:09.000Z</time>
        <extensions>
          <ns3:TrackPointExtension>
            <ns3:atemp>21.0</ns3:atemp>
          </ns3:TrackPointExtension>
        </extensions>
      </trkpt>
      <trkpt lat="42.55846895277500152587890625" lon="20.106300450861454010009765625">
        <ele>1855.4000244140625</ele>
        <time>2026-06-20T06:13:10.000Z</time>
        <extensions>
          <ns3:TrackPointExtension>
            <ns3:atemp>21.0</ns3:atemp>
          </ns3:TrackPointExtension>
        </extensions>
      </trkpt>
      <trkpt lat="42.5585076771676540374755859375" lon="20.10634261183440685272216796875">
        <ele>1855.199951171875</ele>
        <time>2026-06-20T06:13:11.000Z</time>
        <extensions>
          <ns3:TrackPointExtension>
            <ns3:atemp>21.0</ns3:atemp>
          </ns3:TrackPointExtension>
        </extensions>
      </trkpt>
      <trkpt lat="42.55855034105479717254638671875" lon="20.10638804174959659576416015625">
        <ele>1855</ele>
        <time>2026-06-20T06:13:12.000Z</time>
        <extensions>
          <ns3:TrackPointExtension>
            <ns3:atemp>21.0</ns3:atemp>
          </ns3:TrackPointExtension>
        </extensions>
      </trkpt>
      <trkpt lat="42.55859225057065486907958984375" lon="20.10643565095961093902587890625">
        <ele>1854.5999755859375</ele>
        <time>2026-06-20T06:13:13.000Z</time>
        <extensions>
          <ns3:TrackPointExtension>
            <ns3:atemp>21.0</ns3:atemp>
          </ns3:TrackPointExtension>
        </extensions>
      </trkpt>
      <trkpt lat="42.55863399244844913482666015625" lon="20.10648527182638645172119140625">
        <ele>1854.199951171875</ele>
        <time>2026-06-20T06:13:14.000Z</time>
        <extensions>
          <ns3:TrackPointExtension>
            <ns3:atemp>21.0</ns3:atemp>
          </ns3:TrackPointExtension>
        </extensions>
      </trkpt>
      <trkpt lat="42.55867891944944858551025390625" lon="20.10653422214090824127197265625">
        <ele>1853.800048828125</ele>
        <time>2026-06-20T06:13:15.000Z</time>
        <extensions>
          <ns3:TrackPointExtension>
            <ns3:atemp>21.0</ns3:atemp>
          </ns3:TrackPointExtension>
        </extensions>
      </trkpt>
      <trkpt lat="42.55872786976397037506103515625" lon="20.1065842621028423309326171875">
        <ele>1853.800048828125</ele>
        <time>2026-06-20T06:13:16.000Z</time>
        <extensions>
          <ns3:TrackPointExtension>
            <ns3:atemp>21.0</ns3:atemp>
          </ns3:TrackPointExtension>
        </extensions>
      </trkpt>
      <trkpt lat="42.55877673625946044921875" lon="20.10664100758731365203857421875">
        <ele>1853.5999755859375</ele>
        <time>2026-06-20T06:13:17.000Z</time>
        <extensions>
          <ns3:TrackPointExtension>
            <ns3:atemp>21.0</ns3:atemp>
          </ns3:TrackPointExtension>
        </extensions>
      </trkpt>
      <trkpt lat="42.55882711149752140045166015625" lon="20.10669867508113384246826171875">
        <ele>1853</ele>
        <time>2026-06-20T06:13:18.000Z</time>
        <extensions>
          <ns3:TrackPointExtension>
            <ns3:atemp>21.0</ns3:atemp>
          </ns3:TrackPointExtension>
        </extensions>
      </trkpt>
      <trkpt lat="42.5588801689445972442626953125" lon="20.1067535765469074249267578125">
        <ele>1852.5999755859375</ele>
        <time>2026-06-20T06:13:19.000Z</time>
        <extensions>
          <ns3:TrackPointExtension>
            <ns3:atemp>21.0</ns3:atemp>
          </ns3:TrackPointExtension>
        </extensions>
      </trkpt>
      <trkpt lat="42.55893071182072162628173828125" lon="20.1068202964961528778076171875">
        <ele>1852.4000244140625</ele>
        <time>2026-06-20T06:13:20.000Z</time>
        <extensions>
          <ns3:TrackPointExtension>
            <ns3:atemp>21.0</ns3:atemp>
          </ns3:TrackPointExtension>
        </extensions>
      </trkpt>
      <trkpt lat="42.55898200906813144683837890625" lon="20.10689866729080677032470703125">
        <ele>1852</ele>
        <time>2026-06-20T06:13:21.000Z</time>
        <extensions>
          <ns3:TrackPointExtension>
            <ns3:atemp>21.0</ns3:atemp>
          </ns3:TrackPointExtension>
        </extensions>
      </trkpt>
      <trkpt lat="42.55903087556362152099609375" lon="20.10697276331484317779541015625">
        <ele>1851.199951171875</ele>
        <time>2026-06-20T06:13:22.000Z</time>
        <extensions>
          <ns3:TrackPointExtension>
            <ns3:atemp>21.0</ns3:atemp>
          </ns3:TrackPointExtension>
        </extensions>
      </trkpt>
      <trkpt lat="42.55906976759433746337890625" lon="20.1070519722998142242431640625">
        <ele>1850.5999755859375</ele>
        <time>2026-06-20T06:13:23.000Z</time>
        <extensions>
          <ns3:TrackPointExtension>
            <ns3:atemp>21.0</ns3:atemp>
          </ns3:TrackPointExtension>
        </extensions>
      </trkpt>
      <trkpt lat="42.55909382365643978118896484375" lon="20.1071280799806118011474609375">
        <ele>1850</ele>
        <time>2026-06-20T06:13:24.000Z</time>
        <extensions>
          <ns3:TrackPointExtension>
            <ns3:atemp>21.0</ns3:atemp>
          </ns3:TrackPointExtension>
        </extensions>
      </trkpt>
      <trkpt lat="42.55909248255193233489990234375" lon="20.10721005499362945556640625">
        <ele>1849.4000244140625</ele>
        <time>2026-06-20T06:13:25.000Z</time>
        <extensions>
          <ns3:TrackPointExtension>
            <ns3:atemp>21.0</ns3:atemp>
          </ns3:TrackPointExtension>
        </extensions>
      </trkpt>
      <trkpt lat="42.5590704381465911865234375" lon="20.10728641413152217864990234375">
        <ele>1849</ele>
        <time>2026-06-20T06:13:26.000Z</time>
        <extensions>
          <ns3:TrackPointExtension>
            <ns3:atemp>21.0</ns3:atemp>
          </ns3:TrackPointExtension>
        </extensions>
      </trkpt>
      <trkpt lat="42.559034563601016998291015625" lon="20.10735648684203624725341796875">
        <ele>1848.5999755859375</ele>
        <time>2026-06-20T06:13:27.000Z</time>
        <extensions>
          <ns3:TrackPointExtension>
            <ns3:atemp>21.0</ns3:atemp>
          </ns3:TrackPointExtension>
        </extensions>
      </trkpt>
      <trkpt lat="42.559003047645092010498046875" lon="20.107427649199962615966796875">
        <ele>1848</ele>
        <time>2026-06-20T06:13:28.000Z</time>
        <extensions>
          <ns3:TrackPointExtension>
            <ns3:atemp>21.0</ns3:atemp>
          </ns3:TrackPointExtension>
        </extensions>
      </trkpt>
      <trkpt lat="42.55896742455661296844482421875" lon="20.1074921898543834686279296875">
        <ele>1847.5999755859375</ele>
        <time>2026-06-20T06:13:29.000Z</time>
        <extensions>
          <ns3:TrackPointExtension>
            <ns3:atemp>21.0</ns3:atemp>
          </ns3:TrackPointExtension>
        </extensions>
      </trkpt>
      <trkpt lat="42.5589210726320743560791015625" lon="20.107557065784931182861328125">
        <ele>1847</ele>
        <time>2026-06-20T06:13:30.000Z</time>
        <extensions>
          <ns3:TrackPointExtension>
            <ns3:atemp>21.0</ns3:atemp>
          </ns3:TrackPointExtension>
        </extensions>
      </trkpt>
      <trkpt lat="42.558874972164630889892578125" lon="20.1076219417154788970947265625">
        <ele>1846.4000244140625</ele>
        <time>2026-06-20T06:13:31.000Z</time>
        <extensions>
          <ns3:TrackPointExtension>
            <ns3:atemp>21.0</ns3:atemp>
          </ns3:TrackPointExtension>
        </extensions>
      </trkpt>
      <trkpt lat="42.558838427066802978515625" lon="20.10768488980829715728759765625">
        <ele>1845.4000244140625</ele>
        <time>2026-06-20T06:13:32.000Z</time>
        <extensions>
          <ns3:TrackPointExtension>
            <ns3:atemp>21.0</ns3:atemp>
          </ns3:TrackPointExtension>
        </extensions>
      </trkpt>
      <trkpt lat="42.558797858655452728271484375" lon="20.1077379472553730010986328125">
        <ele>1844.800048828125</ele>
        <time>2026-06-20T06:13:33.000Z</time>
        <extensions>
          <ns3:TrackPointExtension>
            <ns3:atemp>21.0</ns3:atemp>
          </ns3:TrackPointExtension>
        </extensions>
      </trkpt>
      <trkpt lat="42.55876793526113033294677734375" lon="20.10779268108308315277099609375">
        <ele>1844.199951171875</ele>
        <time>2026-06-20T06:13:34.000Z</time>
        <extensions>
          <ns3:TrackPointExtension>
            <ns3:atemp>21.0</ns3:atemp>
          </ns3:TrackPointExtension>
        </extensions>
      </trkpt>
      <trkpt lat="42.55875117145478725433349609375" lon="20.10785185731947422027587890625">
        <ele>1843.5999755859375</ele>
        <time>2026-06-20T06:13:35.000Z</time>
        <extensions>
          <ns3:TrackPointExtension>
            <ns3:atemp>21.0</ns3:atemp>
          </ns3:TrackPointExtension>
        </extensions>
      </trkpt>
      <trkpt lat="42.55873105488717555999755859375" lon="20.1078985445201396942138671875">
        <ele>1843.199951171875</ele>
        <time>2026-06-20T06:13:36.000Z</time>
        <extensions>
          <ns3:TrackPointExtension>
            <ns3:atemp>21.0</ns3:atemp>
          </ns3:TrackPointExtension>
        </extensions>
      </trkpt>
      <trkpt lat="42.55870389752089977264404296875" lon="20.1079349219799041748046875">
        <ele>1843</ele>
        <time>2026-06-20T06:13:37.000Z</time>
        <extensions>
          <ns3:TrackPointExtension>
            <ns3:atemp>21.0</ns3:atemp>
          </ns3:TrackPointExtension>
        </extensions>
      </trkpt>
      <trkpt lat="42.5586635805666446685791015625" lon="20.10795998387038707733154296875">
        <ele>1842.5999755859375</ele>
        <time>2026-06-20T06:13:38.000Z</time>
        <extensions>
          <ns3:TrackPointExtension>
            <ns3:atemp>21.0</ns3:atemp>
          </ns3:TrackPointExtension>
        </extensions>
      </trkpt>
      <trkpt lat="42.55862192250788211822509765625" lon="20.10799116455018520355224609375">
        <ele>1842.4000244140625</ele>
        <time>2026-06-20T06:13:39.000Z</time>
        <extensions>
          <ns3:TrackPointExtension>
            <ns3:atemp>21.0</ns3:atemp>
          </ns3:TrackPointExtension>
        </extensions>
      </trkpt>
      <trkpt lat="42.55857288837432861328125" lon="20.10802469216287136077880859375">
        <ele>1842.199951171875</ele>
        <time>2026-06-20T06:13:40.000Z</time>
        <extensions>
          <ns3:TrackPointExtension>
            <ns3:atemp>21.0</ns3:atemp>
          </ns3:TrackPointExtension>
        </extensions>
      </trkpt>
      <trkpt lat="42.5585227645933628082275390625" lon="20.10806777514517307281494140625">
        <ele>1841.800048828125</ele>
        <time>2026-06-20T06:13:41.000Z</time>
        <extensions>
          <ns3:TrackPointExtension>
            <ns3:atemp>21.0</ns3:atemp>
          </ns3:TrackPointExtension>
        </extensions>
      </trkpt>
      <trkpt lat="42.5584731437265872955322265625" lon="20.10813047178089618682861328125">
        <ele>1841.199951171875</ele>
        <time>2026-06-20T06:13:42.000Z</time>
        <extensions>
          <ns3:TrackPointExtension>
            <ns3:atemp>21.0</ns3:atemp>
          </ns3:TrackPointExtension>
        </extensions>
      </trkpt>
      <trkpt lat="42.55843131802976131439208984375" lon="20.1082137040793895721435546875">
        <ele>1840.5999755859375</ele>
        <time>2026-06-20T06:13:43.000Z</time>
        <extensions>
          <ns3:TrackPointExtension>
            <ns3:atemp>21.0</ns3:atemp>
          </ns3:TrackPointExtension>
        </extensions>
      </trkpt>
      <trkpt lat="42.55839116871356964111328125" lon="20.10830464772880077362060546875">
        <ele>1839.800048828125</ele>
        <time>2026-06-20T06:13:44.000Z</time>
        <extensions>
          <ns3:TrackPointExtension>
            <ns3:atemp>21.0</ns3:atemp>
          </ns3:TrackPointExtension>
        </extensions>
      </trkpt>
      <trkpt lat="42.5583524443209171295166015625" lon="20.10839684866368770599365234375">
        <ele>1839.199951171875</ele>
        <time>2026-06-20T06:13:45.000Z</time>
        <extensions>
          <ns3:TrackPointExtension>
            <ns3:atemp>21.0</ns3:atemp>
          </ns3:TrackPointExtension>
        </extensions>
      </trkpt>
      <trkpt lat="42.558315061032772064208984375" lon="20.10847362689673900604248046875">
        <ele>1838.5999755859375</ele>
        <time>2026-06-20T06:13:46.000Z</time>
        <extensions>
          <ns3:TrackPointExtension>
            <ns3:atemp>21.0</ns3:atemp>
          </ns3:TrackPointExtension>
        </extensions>
      </trkpt>
      <trkpt lat="42.55827524699270725250244140625" lon="20.1085405983030796051025390625">
        <ele>1838</ele>
        <time>2026-06-20T06:13:47.000Z</time>
        <extensions>
          <ns3:TrackPointExtension>
            <ns3:atemp>21.0</ns3:atemp>
          </ns3:TrackPointExtension>
        </extensions>
      </trkpt>
      <trkpt lat="42.55823283456265926361083984375" lon="20.1086073182523250579833984375">
        <ele>1837.199951171875</ele>
        <time>2026-06-20T06:13:48.000Z</time>
        <extensions>
          <ns3:TrackPointExtension>
            <ns3:atemp>21.0</ns3:atemp>
          </ns3:TrackPointExtension>
        </extensions>
      </trkpt>
      <trkpt lat="42.5581985525786876678466796875" lon="20.108689628541469573974609375">
        <ele>1836.5999755859375</ele>
        <time>2026-06-20T06:13:49.000Z</time>
        <extensions>
          <ns3:TrackPointExtension>
            <ns3:atemp>21.0</ns3:atemp>
          </ns3:TrackPointExtension>
        </extensions>
      </trkpt>
      <trkpt lat="42.55817122757434844970703125" lon="20.10878442786633968353271484375">
        <ele>1836.4000244140625</ele>
        <time>2026-06-20T06:13:50.000Z</time>
        <extensions>
          <ns3:TrackPointExtension>
            <ns3:atemp>21.0</ns3:atemp>
          </ns3:TrackPointExtension>
        </extensions>
      </trkpt>
      <trkpt lat="42.55814515985548496246337890625" lon="20.1088817417621612548828125">
        <ele>1835.5999755859375</ele>
        <time>2026-06-20T06:13:51.000Z</time>
        <extensions>
          <ns3:TrackPointExtension>
            <ns3:atemp>21.0</ns3:atemp>
          </ns3:TrackPointExtension>
        </extensions>
      </trkpt>
      <trkpt lat="42.5581217743456363677978515625" lon="20.1089808158576488494873046875">
        <ele>1834.800048828125</ele>
        <time>2026-06-20T06:13:52.000Z</time>
        <extensions>
          <ns3:TrackPointExtension>
            <ns3:atemp>21.0</ns3:atemp>
          </ns3:TrackPointExtension>
        </extensions>
      </trkpt>
      <trkpt lat="42.55810123868286609649658203125" lon="20.10908550582826137542724609375">
        <ele>1834.199951171875</ele>
        <time>2026-06-20T06:13:53.000Z</time>
        <extensions>
          <ns3:TrackPointExtension>
            <ns3:atemp>21.0</ns3:atemp>
          </ns3:TrackPointExtension>
        </extensions>
      </trkpt>
      <trkpt lat="42.5580919347703456878662109375" lon="20.1091876812279224395751953125">
        <ele>1833.800048828125</ele>
        <time>2026-06-20T06:13:54.000Z</time>
        <extensions>
          <ns3:TrackPointExtension>
            <ns3:atemp>21.0</ns3:atemp>
          </ns3:TrackPointExtension>
        </extensions>
      </trkpt>
      <trkpt lat="42.558067627251148223876953125" lon="20.10927594266831874847412109375">
        <ele>1833</ele>
        <time>2026-06-20T06:13:55.000Z</time>
        <extensions>
          <ns3:TrackPointExtension>
            <ns3:atemp>21.0</ns3:atemp>
          </ns3:TrackPointExtension>
        </extensions>
      </trkpt>
      <trkpt lat="42.558032758533954620361328125" lon="20.109359510242938995361328125">
        <ele>1832.5999755859375</ele>
        <time>2026-06-20T06:13:56.000Z</time>
        <extensions>
          <ns3:TrackPointExtension>
            <ns3:atemp>21.0</ns3:atemp>
          </ns3:TrackPointExtension>
        </extensions>
      </trkpt>
      <trkpt lat="42.55799344740808010101318359375" lon="20.1094327680766582489013671875">
        <ele>1832.5999755859375</ele>
        <time>2026-06-20T06:13:57.000Z</time>
        <extensions>
          <ns3:TrackPointExtension>
            <ns3:atemp>21.0</ns3:atemp>
          </ns3:TrackPointExtension>
        </extensions>
      </trkpt>
      <trkpt lat="42.557944916188716888427734375" lon="20.10949253104627132415771484375">
        <ele>1832.4000244140625</ele>
        <time>2026-06-20T06:13:58.000Z</time>
        <extensions>
          <ns3:TrackPointExtension>
            <ns3:atemp>21.0</ns3:atemp>
          </ns3:TrackPointExtension>
        </extensions>
      </trkpt>
      <trkpt lat="42.5578944571316242218017578125" lon="20.1095296628773212432861328125">
        <ele>1832.4000244140625</ele>
        <time>2026-06-20T06:13:59.000Z</time>
        <extensions>
          <ns3:TrackPointExtension>
            <ns3:atemp>21.0</ns3:atemp>
          </ns3:TrackPointExtension>
        </extensions>
      </trkpt>
      <trkpt lat="42.55784894339740276336669921875" lon="20.1095442473888397216796875">
        <ele>1832.199951171875</ele>
        <time>2026-06-20T06:14:00.000Z</time>
        <extensions>
          <ns3:TrackPointExtension>
            <ns3:atemp>21.0</ns3:atemp>
          </ns3:TrackPointExtension>
        </extensions>
      </trkpt>
      <trkpt lat="42.557811476290225982666015625" lon="20.10954449884593486785888671875">
        <ele>1832</ele>
        <time>2026-06-20T06:14:01.000Z</time>
        <extensions>
          <ns3:TrackPointExtension>
            <ns3:atemp>21.0</ns3:atemp>
          </ns3:TrackPointExtension>
        </extensions>
      </trkpt>
      <trkpt lat="42.55778054706752300262451171875" lon="20.10954357683658599853515625">
        <ele>1831.800048828125</ele>
        <time>2026-06-20T06:14:02.000Z</time>
        <extensions>
          <ns3:TrackPointExtension>
            <ns3:atemp>21.0</ns3:atemp>
          </ns3:TrackPointExtension>
        </extensions>
      </trkpt>
      <trkpt lat="42.55775640718638896942138671875" lon="20.1095521263778209686279296875">
        <ele>1831.5999755859375</ele>
        <time>2026-06-20T06:14:03.000Z</time>
        <extensions>
          <ns3:TrackPointExtension>
            <ns3:atemp>21.0</ns3:atemp>
          </ns3:TrackPointExtension>
        </extensions>
      </trkpt>
      <trkpt lat="42.55773360840976238250732421875" lon="20.1095678843557834625244140625">
        <ele>1831.4000244140625</ele>
        <time>2026-06-20T06:14:04.000Z</time>
        <extensions>
          <ns3:TrackPointExtension>
            <ns3:atemp>21.0</ns3:atemp>
          </ns3:TrackPointExtension>
        </extensions>
      </trkpt>
      <trkpt lat="42.55771684460341930389404296875" lon="20.10958707891404628753662109375">
        <ele>1831</ele>
        <time>2026-06-20T06:14:05.000Z</time>
        <extensions>
          <ns3:TrackPointExtension>
            <ns3:atemp>21.0</ns3:atemp>
          </ns3:TrackPointExtension>
        </extensions>
      </trkpt>
      <trkpt lat="42.55770142190158367156982421875" lon="20.1096047647297382354736328125">
        <ele>1830.800048828125</ele>
        <time>2026-06-20T06:14:06.000Z</time>
        <extensions>
          <ns3:TrackPointExtension>
            <ns3:atemp>21.0</ns3:atemp>
          </ns3:TrackPointExtension>
        </extensions>
      </trkpt>
      <trkpt lat="42.55769287236034870147705078125" lon="20.10962270200252532958984375">
        <ele>1830.199951171875</ele>
        <time>2026-06-20T06:14:07.000Z</time>
        <extensions>
          <ns3:TrackPointExtension>
            <ns3:atemp>21.0</ns3:atemp>
          </ns3:TrackPointExtension>
        </extensions>
      </trkpt>
      <trkpt lat="42.55768432281911373138427734375" lon="20.10964239947497844696044921875">
        <ele>1829.800048828125</ele>
        <time>2026-06-20T06:14:08.000Z</time>
        <extensions>
          <ns3:TrackPointExtension>
            <ns3:atemp>21.0</ns3:atemp>
          </ns3:TrackPointExtension>
        </extensions>
      </trkpt>
      <trkpt lat="42.5576770305633544921875" lon="20.10966519825160503387451171875">
        <ele>1829.4000244140625</ele>
        <time>2026-06-20T06:14:09.000Z</time>
        <extensions>
          <ns3:TrackPointExtension>
            <ns3:atemp>21.0</ns3:atemp>
          </ns3:TrackPointExtension>
        </extensions>
      </trkpt>
      <trkpt lat="42.5576768629252910614013671875" lon="20.109690092504024505615234375">
        <ele>1829.199951171875</ele>
        <time>2026-06-20T06:14:10.000Z</time>
        <extensions>
          <ns3:TrackPointExtension>
            <ns3:atemp>21.0</ns3:atemp>
          </ns3:TrackPointExtension>
        </extensions>
      </trkpt>
      <trkpt lat="42.55767845548689365386962890625" lon="20.1097107119858264923095703125">
        <ele>1829.199951171875</ele>
        <time>2026-06-20T06:14:11.000Z</time>
        <extensions>
          <ns3:TrackPointExtension>
            <ns3:atemp>21.0</ns3:atemp>
          </ns3:TrackPointExtension>
        </extensions>
      </trkpt>
      <trkpt lat="42.55768164061009883880615234375" lon="20.1097338460385799407958984375">
        <ele>1829.199951171875</ele>
        <time>2026-06-20T06:14:12.000Z</time>
        <extensions>
          <ns3:TrackPointExtension>
            <ns3:atemp>21.0</ns3:atemp>
          </ns3:TrackPointExtension>
        </extensions>
      </trkpt>
      <trkpt lat="42.557685412466526031494140625" lon="20.10975052602589130401611328125">
        <ele>1829.199951171875</ele>
        <time>2026-06-20T06:14:13.000Z</time>
        <extensions>
          <ns3:TrackPointExtension>
            <ns3:atemp>21.0</ns3:atemp>
          </ns3:TrackPointExtension>
        </extensions>
      </trkpt>
      <trkpt lat="42.557691447436809539794921875" lon="20.10976754128932952880859375">
        <ele>1829.4000244140625</ele>
        <time>2026-06-20T06:14:14.000Z</time>
        <extensions>
          <ns3:TrackPointExtension>
            <ns3:atemp>21.0</ns3:atemp>
          </ns3:TrackPointExtension>
        </extensions>
      </trkpt>
      <trkpt lat="42.557691447436809539794921875" lon="20.10977667756378650665283203125">
        <ele>1829.5999755859375</ele>
        <time>2026-06-20T06:14:15.000Z</time>
        <extensions>
          <ns3:TrackPointExtension>
            <ns3:atemp>21.0</ns3:atemp>
          </ns3:TrackPointExtension>
        </extensions>
      </trkpt>
      <trkpt lat="42.55768977105617523193359375" lon="20.10978003032505512237548828125">
        <ele>1829.5999755859375</ele>
        <time>2026-06-20T06:14:16.000Z</time>
        <extensions>
          <ns3:TrackPointExtension>
            <ns3:atemp>21.0</ns3:atemp>
          </ns3:TrackPointExtension>
        </extensions>
      </trkpt>
      <trkpt lat="42.55768977105617523193359375" lon="20.10978003032505512237548828125">
        <ele>1829.800048828125</ele>
        <time>2026-06-20T06:14:17.000Z</time>
        <extensions>
          <ns3:TrackPointExtension>
            <ns3:atemp>21.0</ns3:atemp>
          </ns3:TrackPointExtension>
        </extensions>
      </trkpt>
      <trkpt lat="42.55768977105617523193359375" lon="20.10978003032505512237548828125">
        <ele>1829.800048828125</ele>
        <time>2026-06-20T06:14:18.000Z</time>
        <extensions>
          <ns3:TrackPointExtension>
            <ns3:atemp>20.0</ns3:atemp>
          </ns3:TrackPointExtension>
        </extensions>
      </trkpt>
      <trkpt lat="42.55768977105617523193359375" lon="20.10978003032505512237548828125">
        <ele>1829.800048828125</ele>
        <time>2026-06-20T06:14:19.000Z</time>
        <extensions>
          <ns3:TrackPointExtension>
            <ns3:atemp>21.0</ns3:atemp>
          </ns3:TrackPointExtension>
        </extensions>
      </trkpt>
      <trkpt lat="42.55768977105617523193359375" lon="20.10978003032505512237548828125">
        <ele>1829.800048828125</ele>
        <time>2026-06-20T06:14:20.000Z</time>
        <extensions>
          <ns3:TrackPointExtension>
            <ns3:atemp>21.0</ns3:atemp>
          </ns3:TrackPointExtension>
        </extensions>
      </trkpt>
      <trkpt lat="42.5576899386942386627197265625" lon="20.10978019796311855316162109375">
        <ele>1829.5999755859375</ele>
        <time>2026-06-20T06:14:21.000Z</time>
        <extensions>
          <ns3:TrackPointExtension>
            <ns3:atemp>21.0</ns3:atemp>
          </ns3:TrackPointExtension>
        </extensions>
      </trkpt>
      <trkpt lat="42.55769002251327037811279296875" lon="20.1097921840846538543701171875">
        <ele>1829.5999755859375</ele>
        <time>2026-06-20T06:14:22.000Z</time>
        <extensions>
          <ns3:TrackPointExtension>
            <ns3:atemp>21.0</ns3:atemp>
          </ns3:TrackPointExtension>
        </extensions>
      </trkpt>
      <trkpt lat="42.5576896034181118011474609375" lon="20.1098072715103626251220703125">
        <ele>1829.4000244140625</ele>
        <time>2026-06-20T06:14:23.000Z</time>
        <extensions>
          <ns3:TrackPointExtension>
            <ns3:atemp>20.0</ns3:atemp>
          </ns3:TrackPointExtension>
        </extensions>
      </trkpt>
      <trkpt lat="42.55769153125584125518798828125" lon="20.1098176650702953338623046875">
        <ele>1829.4000244140625</ele>
        <time>2026-06-20T06:14:24.000Z</time>
        <extensions>
          <ns3:TrackPointExtension>
            <ns3:atemp>20.0</ns3:atemp>
          </ns3:TrackPointExtension>
        </extensions>
      </trkpt>
      <trkpt lat="42.5576906092464923858642578125" lon="20.10981716215610504150390625">
        <ele>1829.199951171875</ele>
        <time>2026-06-20T06:14:25.000Z</time>
        <extensions>
          <ns3:TrackPointExtension>
            <ns3:atemp>20.0</ns3:atemp>
          </ns3:TrackPointExtension>
        </extensions>
      </trkpt>
      <trkpt lat="42.5576906092464923858642578125" lon="20.1098169945180416107177734375">
        <ele>1829.199951171875</ele>
        <time>2026-06-20T06:14:26.000Z</time>
        <extensions>
          <ns3:TrackPointExtension>
            <ns3:atemp>21.0</ns3:atemp>
          </ns3:TrackPointExtension>
        </extensions>
      </trkpt>
      <trkpt lat="42.5576906092464923858642578125" lon="20.1098169945180416107177734375">
        <ele>1829</ele>
        <time>2026-06-20T06:14:27.000Z</time>
        <extensions>
          <ns3:TrackPointExtension>
            <ns3:atemp>21.0</ns3:atemp>
          </ns3:TrackPointExtension>
        </extensions>
      </trkpt>
      <trkpt lat="42.5576906092464923858642578125" lon="20.1098169945180416107177734375">
        <ele>1829</ele>
        <time>2026-06-20T06:14:28.000Z</time>
        <extensions>
          <ns3:TrackPointExtension>
            <ns3:atemp>21.0</ns3:atemp>
          </ns3:TrackPointExtension>
        </extensions>
      </trkpt>
      <trkpt lat="42.5576906092464923858642578125" lon="20.1098169945180416107177734375">
        <ele>1829</ele>
        <time>2026-06-20T06:14:29.000Z</time>
        <extensions>
          <ns3:TrackPointExtension>
            <ns3:atemp>20.0</ns3:atemp>
          </ns3:TrackPointExtension>
        </extensions>
      </trkpt>
      <trkpt lat="42.5576906092464923858642578125" lon="20.1098169945180416107177734375">
        <ele>1829</ele>
        <time>2026-06-20T06:14:30.000Z</time>
        <extensions>
          <ns3:TrackPointExtension>
            <ns3:atemp>20.0</ns3:atemp>
          </ns3:TrackPointExtension>
        </extensions>
      </trkpt>
      <trkpt lat="42.5576906092464923858642578125" lon="20.1098169945180416107177734375">
        <ele>1829</ele>
        <time>2026-06-20T06:14:31.000Z</time>
        <extensions>
          <ns3:TrackPointExtension>
            <ns3:atemp>21.0</ns3:atemp>
          </ns3:TrackPointExtension>
        </extensions>
      </trkpt>
      <trkpt lat="42.5576906092464923858642578125" lon="20.1098169945180416107177734375">
        <ele>1829</ele>
        <time>2026-06-20T06:14:32.000Z</time>
        <extensions>
          <ns3:TrackPointExtension>
            <ns3:atemp>20.0</ns3:atemp>
          </ns3:TrackPointExtension>
        </extensions>
      </trkpt>
      <trkpt lat="42.5576906092464923858642578125" lon="20.1098169945180416107177734375">
        <ele>1829</ele>
        <time>2026-06-20T06:14:33.000Z</time>
        <extensions>
          <ns3:TrackPointExtension>
            <ns3:atemp>20.0</ns3:atemp>
          </ns3:TrackPointExtension>
        </extensions>
      </trkpt>
      <trkpt lat="42.5576906092464923858642578125" lon="20.1098169945180416107177734375">
        <ele>1829</ele>
        <time>2026-06-20T06:14:34.000Z</time>
        <extensions>
          <ns3:TrackPointExtension>
            <ns3:atemp>20.0</ns3:atemp>
          </ns3:TrackPointExtension>
        </extensions>
      </trkpt>
      <trkpt lat="42.5576906092464923858642578125" lon="20.1098169945180416107177734375">
        <ele>1829</ele>
        <time>2026-06-20T06:14:35.000Z</time>
        <extensions>
          <ns3:TrackPointExtension>
            <ns3:atemp>20.0</ns3:atemp>
          </ns3:TrackPointExtension>
        </extensions>
      </trkpt>
      <trkpt lat="42.5576906092464923858642578125" lon="20.1098169945180416107177734375">
        <ele>1829</ele>
        <time>2026-06-20T06:14:36.000Z</time>
        <extensions>
          <ns3:TrackPointExtension>
            <ns3:atemp>20.0</ns3:atemp>
          </ns3:TrackPointExtension>
        </extensions>
      </trkpt>
      <trkpt lat="42.5576906092464923858642578125" lon="20.1098169945180416107177734375">
        <ele>1829</ele>
        <time>2026-06-20T06:14:37.000Z</time>
        <extensions>
          <ns3:TrackPointExtension>
            <ns3:atemp>20.0</ns3:atemp>
          </ns3:TrackPointExtension>
        </extensions>
      </trkpt>
      <trkpt lat="42.5576906092464923858642578125" lon="20.1098169945180416107177734375">
        <ele>1829</ele>
        <time>2026-06-20T06:14:38.000Z</time>
        <extensions>
          <ns3:TrackPointExtension>
            <ns3:atemp>21.0</ns3:atemp>
          </ns3:TrackPointExtension>
        </extensions>
      </trkpt>
      <trkpt lat="42.5576906092464923858642578125" lon="20.1098169945180416107177734375">
        <ele>1829</ele>
        <time>2026-06-20T06:14:39.000Z</time>
        <extensions>
          <ns3:TrackPointExtension>
            <ns3:atemp>21.0</ns3:atemp>
          </ns3:TrackPointExtension>
        </extensions>
      </trkpt>
      <trkpt lat="42.5576906092464923858642578125" lon="20.1098169945180416107177734375">
        <ele>1829</ele>
        <time>2026-06-20T06:14:40.000Z</time>
        <extensions>
          <ns3:TrackPointExtension>
            <ns3:atemp>20.0</ns3:atemp>
          </ns3:TrackPointExtension>
        </extensions>
      </trkpt>
      <trkpt lat="42.5576906092464923858642578125" lon="20.1098169945180416107177734375">
        <ele>1829</ele>
        <time>2026-06-20T06:14:41.000Z</time>
        <extensions>
          <ns3:TrackPointExtension>
            <ns3:atemp>20.0</ns3:atemp>
          </ns3:TrackPointExtension>
        </extensions>
      </trkpt>
      <trkpt lat="42.5576906092464923858642578125" lon="20.1098169945180416107177734375">
        <ele>1829</ele>
        <time>2026-06-20T06:14:42.000Z</time>
        <extensions>
          <ns3:TrackPointExtension>
            <ns3:atemp>20.0</ns3:atemp>
          </ns3:TrackPointExtension>
        </extensions>
      </trkpt>
      <trkpt lat="42.5576906092464923858642578125" lon="20.1098169945180416107177734375">
        <ele>1829</ele>
        <time>2026-06-20T06:14:43.000Z</time>
        <extensions>
          <ns3:TrackPointExtension>
            <ns3:atemp>20.0</ns3:atemp>
          </ns3:TrackPointExtension>
        </extensions>
      </trkpt>
      <trkpt lat="42.5576944649219512939453125" lon="20.109816156327724456787109375">
        <ele>1829</ele>
        <time>2026-06-20T06:14:44.000Z</time>
        <extensions>
          <ns3:TrackPointExtension>
            <ns3:atemp>20.0</ns3:atemp>
          </ns3:TrackPointExtension>
        </extensions>
      </trkpt>
      <trkpt lat="42.5577103905379772186279296875" lon="20.10982814244925975799560546875">
        <ele>1828.800048828125</ele>
        <time>2026-06-20T06:14:45.000Z</time>
        <extensions>
          <ns3:TrackPointExtension>
            <ns3:atemp>20.0</ns3:atemp>
          </ns3:TrackPointExtension>
        </extensions>
      </trkpt>
      <trkpt lat="42.5577321834862232208251953125" lon="20.10984004475176334381103515625">
        <ele>1828.800048828125</ele>
        <time>2026-06-20T06:14:46.000Z</time>
        <extensions>
          <ns3:TrackPointExtension>
            <ns3:atemp>20.0</ns3:atemp>
          </ns3:TrackPointExtension>
        </extensions>
      </trkpt>
      <trkpt lat="42.557749450206756591796875" lon="20.10986544191837310791015625">
        <ele>1828.5999755859375</ele>
        <time>2026-06-20T06:14:47.000Z</time>
        <extensions>
          <ns3:TrackPointExtension>
            <ns3:atemp>20.0</ns3:atemp>
          </ns3:TrackPointExtension>
        </extensions>
      </trkpt>
      <trkpt lat="42.5577640347182750701904296875" lon="20.10990944691002368927001953125">
        <ele>1828.4000244140625</ele>
        <time>2026-06-20T06:14:48.000Z</time>
        <extensions>
          <ns3:TrackPointExtension>
            <ns3:atemp>20.0</ns3:atemp>
          </ns3:TrackPointExtension>
        </extensions>
      </trkpt>
      <trkpt lat="42.55776210688054561614990234375" lon="20.10997449047863483428955078125">
        <ele>1828.199951171875</ele>
        <time>2026-06-20T06:14:49.000Z</time>
        <extensions>
          <ns3:TrackPointExtension>
            <ns3:atemp>20.0</ns3:atemp>
          </ns3:TrackPointExtension>
        </extensions>
      </trkpt>
      <trkpt lat="42.557765878736972808837890625" lon="20.11004992760717868804931640625">
        <ele>1827.800048828125</ele>
        <time>2026-06-20T06:14:50.000Z</time>
        <extensions>
          <ns3:TrackPointExtension>
            <ns3:atemp>20.0</ns3:atemp>
          </ns3:TrackPointExtension>
        </extensions>
      </trkpt>
      <trkpt lat="42.55776881240308284759521484375" lon="20.11013726703822612762451171875">
        <ele>1827</ele>
        <time>2026-06-20T06:14:51.000Z</time>
        <extensions>
          <ns3:TrackPointExtension>
            <ns3:atemp>20.0</ns3:atemp>
          </ns3:TrackPointExtension>
        </extensions>
      </trkpt>
      <trkpt lat="42.55777065642178058624267578125" lon="20.110249333083629608154296875">
        <ele>1825.5999755859375</ele>
        <time>2026-06-20T06:14:52.000Z</time>
        <extensions>
          <ns3:TrackPointExtension>
            <ns3:atemp>20.0</ns3:atemp>
          </ns3:TrackPointExtension>
        </extensions>
      </trkpt>
      <trkpt lat="42.5577714107930660247802734375" lon="20.11036693118512630462646484375">
        <ele>1824.4000244140625</ele>
        <time>2026-06-20T06:14:53.000Z</time>
        <extensions>
          <ns3:TrackPointExtension>
            <ns3:atemp>20.0</ns3:atemp>
          </ns3:TrackPointExtension>
        </extensions>
      </trkpt>
      <trkpt lat="42.5577717460691928863525390625" lon="20.11047690175473690032958984375">
        <ele>1823.5999755859375</ele>
        <time>2026-06-20T06:14:54.000Z</time>
        <extensions>
          <ns3:TrackPointExtension>
            <ns3:atemp>20.0</ns3:atemp>
          </ns3:TrackPointExtension>
        </extensions>
      </trkpt>
      <trkpt lat="42.5577642023563385009765625" lon="20.110574550926685333251953125">
        <ele>1823</ele>
        <time>2026-06-20T06:14:55.000Z</time>
        <extensions>
          <ns3:TrackPointExtension>
            <ns3:atemp>20.0</ns3:atemp>
          </ns3:TrackPointExtension>
        </extensions>
      </trkpt>
      <trkpt lat="42.55775892175734043121337890625" lon="20.11065828613936901092529296875">
        <ele>1822.800048828125</ele>
        <time>2026-06-20T06:14:56.000Z</time>
        <extensions>
          <ns3:TrackPointExtension>
            <ns3:atemp>20.0</ns3:atemp>
          </ns3:TrackPointExtension>
        </extensions>
      </trkpt>
      <trkpt lat="42.55775121040642261505126953125" lon="20.1107259280979633331298828125">
        <ele>1822.4000244140625</ele>
        <time>2026-06-20T06:14:57.000Z</time>
        <extensions>
          <ns3:TrackPointExtension>
            <ns3:atemp>20.0</ns3:atemp>
          </ns3:TrackPointExtension>
        </extensions>
      </trkpt>
      <trkpt lat="42.557743079960346221923828125" lon="20.11078937910497188568115234375">
        <ele>1822.199951171875</ele>
        <time>2026-06-20T06:14:58.000Z</time>
        <extensions>
          <ns3:TrackPointExtension>
            <ns3:atemp>20.0</ns3:atemp>
          </ns3:TrackPointExtension>
        </extensions>
      </trkpt>
      <trkpt lat="42.55773612298071384429931640625" lon="20.11085241101682186126708984375">
        <ele>1821.5999755859375</ele>
        <time>2026-06-20T06:14:59.000Z</time>
        <extensions>
          <ns3:TrackPointExtension>
            <ns3:atemp>20.0</ns3:atemp>
          </ns3:TrackPointExtension>
        </extensions>
      </trkpt>
      <trkpt lat="42.5577281601727008819580078125" lon="20.110909156501293182373046875">
        <ele>1821.5999755859375</ele>
        <time>2026-06-20T06:15:00.000Z</time>
        <extensions>
          <ns3:TrackPointExtension>
            <ns3:atemp>20.0</ns3:atemp>
          </ns3:TrackPointExtension>
        </extensions>
      </trkpt>
      <trkpt lat="42.55771801806986331939697265625" lon="20.1109633035957813262939453125">
        <ele>1821.199951171875</ele>
        <time>2026-06-20T06:15:01.000Z</time>
        <extensions>
          <ns3:TrackPointExtension>
            <ns3:atemp>20.0</ns3:atemp>
          </ns3:TrackPointExtension>
        </extensions>
      </trkpt>
      <trkpt lat="42.5577137432992458343505859375" lon="20.11101736687123775482177734375">
        <ele>1821</ele>
        <time>2026-06-20T06:15:02.000Z</time>
        <extensions>
          <ns3:TrackPointExtension>
            <ns3:atemp>20.0</ns3:atemp>
          </ns3:TrackPointExtension>
        </extensions>
      </trkpt>
      <trkpt lat="42.557709217071533203125" lon="20.1110736094415187835693359375">
        <ele>1820.5999755859375</ele>
        <time>2026-06-20T06:15:03.000Z</time>
        <extensions>
          <ns3:TrackPointExtension>
            <ns3:atemp>20.0</ns3:atemp>
          </ns3:TrackPointExtension>
        </extensions>
      </trkpt>
      <trkpt lat="42.5577063672244548797607421875" lon="20.1111101545393466949462890625">
        <ele>1820.199951171875</ele>
        <time>2026-06-20T06:15:04.000Z</time>
        <extensions>
          <ns3:TrackPointExtension>
            <ns3:atemp>20.0</ns3:atemp>
          </ns3:TrackPointExtension>
        </extensions>
      </trkpt>
      <trkpt lat="42.55770980380475521087646484375" lon="20.1111240684986114501953125">
        <ele>1819.800048828125</ele>
        <time>2026-06-20T06:15:05.000Z</time>
        <extensions>
          <ns3:TrackPointExtension>
            <ns3:atemp>20.0</ns3:atemp>
          </ns3:TrackPointExtension>
        </extensions>
      </trkpt>
      <trkpt lat="42.55770980380475521087646484375" lon="20.1111242361366748809814453125">
        <ele>1819.4000244140625</ele>
        <time>2026-06-20T06:15:06.000Z</time>
        <extensions>
          <ns3:TrackPointExtension>
            <ns3:atemp>20.0</ns3:atemp>
          </ns3:TrackPointExtension>
        </extensions>
      </trkpt>
      <trkpt lat="42.55769723094999790191650390625" lon="20.111129097640514373779296875">
        <ele>1819.199951171875</ele>
        <time>2026-06-20T06:15:07.000Z</time>
        <extensions>
          <ns3:TrackPointExtension>
            <ns3:atemp>20.0</ns3:atemp>
          </ns3:TrackPointExtension>
        </extensions>
      </trkpt>
      <trkpt lat="42.55768918432295322418212890625" lon="20.111130438745021820068359375">
        <ele>1819</ele>
        <time>2026-06-20T06:15:08.000Z</time>
        <extensions>
          <ns3:TrackPointExtension>
            <ns3:atemp>20.0</ns3:atemp>
          </ns3:TrackPointExtension>
        </extensions>
      </trkpt>
      <trkpt lat="42.5576859153807163238525390625" lon="20.111127756536006927490234375">
        <ele>1818.800048828125</ele>
        <time>2026-06-20T06:15:09.000Z</time>
        <extensions>
          <ns3:TrackPointExtension>
            <ns3:atemp>20.0</ns3:atemp>
          </ns3:TrackPointExtension>
        </extensions>
      </trkpt>
      <trkpt lat="42.55768599919974803924560546875" lon="20.1111213862895965576171875">
        <ele>1818.800048828125</ele>
        <time>2026-06-20T06:15:10.000Z</time>
        <extensions>
          <ns3:TrackPointExtension>
            <ns3:atemp>20.0</ns3:atemp>
          </ns3:TrackPointExtension>
        </extensions>
      </trkpt>
      <trkpt lat="42.557684071362018585205078125" lon="20.11110638268291950225830078125">
        <ele>1818.800048828125</ele>
        <time>2026-06-20T06:15:11.000Z</time>
        <extensions>
          <ns3:TrackPointExtension>
            <ns3:atemp>20.0</ns3:atemp>
          </ns3:TrackPointExtension>
        </extensions>
      </trkpt>
      <trkpt lat="42.557685077190399169921875" lon="20.11109146289527416229248046875">
        <ele>1818.800048828125</ele>
        <time>2026-06-20T06:15:12.000Z</time>
        <extensions>
          <ns3:TrackPointExtension>
            <ns3:atemp>20.0</ns3:atemp>
          </ns3:TrackPointExtension>
        </extensions>
      </trkpt>
      <trkpt lat="42.557690106332302093505859375" lon="20.11107168160378932952880859375">
        <ele>1819</ele>
        <time>2026-06-20T06:15:13.000Z</time>
        <extensions>
          <ns3:TrackPointExtension>
            <ns3:atemp>20.0</ns3:atemp>
          </ns3:TrackPointExtension>
        </extensions>
      </trkpt>
      <trkpt lat="42.55769379436969757080078125" lon="20.11105374433100223541259765625">
        <ele>1819</ele>
        <time>2026-06-20T06:15:14.000Z</time>
        <extensions>
          <ns3:TrackPointExtension>
            <ns3:atemp>20.0</ns3:atemp>
          </ns3:TrackPointExtension>
        </extensions>
      </trkpt>
      <trkpt lat="42.55769538693130016326904296875" lon="20.1110303588211536407470703125">
        <ele>1819</ele>
        <time>2026-06-20T06:15:15.000Z</time>
        <extensions>
          <ns3:TrackPointExtension>
            <ns3:atemp>20.0</ns3:atemp>
          </ns3:TrackPointExtension>
        </extensions>
      </trkpt>
      <trkpt lat="42.55770385265350341796875" lon="20.11101074516773223876953125">
        <ele>1819.199951171875</ele>
        <time>2026-06-20T06:15:16.000Z</time>
        <extensions>
          <ns3:TrackPointExtension>
            <ns3:atemp>20.0</ns3:atemp>
          </ns3:TrackPointExtension>
        </extensions>
      </trkpt>
      <trkpt lat="42.55771064199507236480712890625" lon="20.1109881140291690826416015625">
        <ele>1819.199951171875</ele>
        <time>2026-06-20T06:15:17.000Z</time>
        <extensions>
          <ns3:TrackPointExtension>
            <ns3:atemp>20.0</ns3:atemp>
          </ns3:TrackPointExtension>
        </extensions>
      </trkpt>
      <trkpt lat="42.55771659314632415771484375" lon="20.11095902882516384124755859375">
        <ele>1819.4000244140625</ele>
        <time>2026-06-20T06:15:18.000Z</time>
        <extensions>
          <ns3:TrackPointExtension>
            <ns3:atemp>20.0</ns3:atemp>
          </ns3:TrackPointExtension>
        </extensions>
      </trkpt>
      <trkpt lat="42.5577194429934024810791015625" lon="20.11093522422015666961669921875">
        <ele>1819.4000244140625</ele>
        <time>2026-06-20T06:15:19.000Z</time>
        <extensions>
          <ns3:TrackPointExtension>
            <ns3:atemp>20.0</ns3:atemp>
          </ns3:TrackPointExtension>
        </extensions>
      </trkpt>
      <trkpt lat="42.55772254429757595062255859375" lon="20.1109049655497074127197265625">
        <ele>1819.5999755859375</ele>
        <time>2026-06-20T06:15:20.000Z</time>
        <extensions>
          <ns3:TrackPointExtension>
            <ns3:atemp>20.0</ns3:atemp>
          </ns3:TrackPointExtension>
        </extensions>
      </trkpt>
      <trkpt lat="42.5577288307249546051025390625" lon="20.11087638325989246368408203125">
        <ele>1819.800048828125</ele>
        <time>2026-06-20T06:15:21.000Z</time>
        <extensions>
          <ns3:TrackPointExtension>
            <ns3:atemp>20.0</ns3:atemp>
          </ns3:TrackPointExtension>
        </extensions>
      </trkpt>
      <trkpt lat="42.55773528479039669036865234375" lon="20.11084788478910923004150390625">
        <ele>1820</ele>
        <time>2026-06-20T06:15:22.000Z</time>
        <extensions>
          <ns3:TrackPointExtension>
            <ns3:atemp>20.0</ns3:atemp>
          </ns3:TrackPointExtension>
        </extensions>
      </trkpt>
      <trkpt lat="42.55773670971393585205078125" lon="20.1108167879283428192138671875">
        <ele>1820.4000244140625</ele>
        <time>2026-06-20T06:15:23.000Z</time>
        <extensions>
          <ns3:TrackPointExtension>
            <ns3:atemp>20.0</ns3:atemp>
          </ns3:TrackPointExtension>
        </extensions>
      </trkpt>
      <trkpt lat="42.55772732198238372802734375" lon="20.110787451267242431640625">
        <ele>1820.5999755859375</ele>
        <time>2026-06-20T06:15:24.000Z</time>
        <extensions>
          <ns3:TrackPointExtension>
            <ns3:atemp>20.0</ns3:atemp>
          </ns3:TrackPointExtension>
        </extensions>
      </trkpt>
      <trkpt lat="42.5577100552618503570556640625" lon="20.110773034393787384033203125">
        <ele>1820.800048828125</ele>
        <time>2026-06-20T06:15:25.000Z</time>
        <extensions>
          <ns3:TrackPointExtension>
            <ns3:atemp>20.0</ns3:atemp>
          </ns3:TrackPointExtension>
        </extensions>
      </trkpt>
      <trkpt lat="42.55769354291260242462158203125" lon="20.1107700169086456298828125">
        <ele>1821</ele>
        <time>2026-06-20T06:15:26.000Z</time>
        <extensions>
          <ns3:TrackPointExtension>
            <ns3:atemp>20.0</ns3:atemp>
          </ns3:TrackPointExtension>
        </extensions>
      </trkpt>
      <trkpt lat="42.5576785393059253692626953125" lon="20.11077865026891231536865234375">
        <ele>1821.199951171875</ele>
        <time>2026-06-20T06:15:27.000Z</time>
        <extensions>
          <ns3:TrackPointExtension>
            <ns3:atemp>20.0</ns3:atemp>
          </ns3:TrackPointExtension>
        </extensions>
      </trkpt>
      <trkpt lat="42.55766705609858036041259765625" lon="20.11079960502684116363525390625">
        <ele>1821.4000244140625</ele>
        <time>2026-06-20T06:15:28.000Z</time>
        <extensions>
          <ns3:TrackPointExtension>
            <ns3:atemp>20.0</ns3:atemp>
          </ns3:TrackPointExtension>
        </extensions>
      </trkpt>
      <trkpt lat="42.557660602033138275146484375" lon="20.110827349126338958740234375">
        <ele>1821.5999755859375</ele>
        <time>2026-06-20T06:15:29.000Z</time>
        <extensions>
          <ns3:TrackPointExtension>
            <ns3:atemp>20.0</ns3:atemp>
          </ns3:TrackPointExtension>
        </extensions>
      </trkpt>
      <trkpt lat="42.55765465088188648223876953125" lon="20.11085517704486846923828125">
        <ele>1821.800048828125</ele>
        <time>2026-06-20T06:15:30.000Z</time>
        <extensions>
          <ns3:TrackPointExtension>
            <ns3:atemp>20.0</ns3:atemp>
          </ns3:TrackPointExtension>
        </extensions>
      </trkpt>
      <trkpt lat="42.55764744244515895843505859375" lon="20.110885687172412872314453125">
        <ele>1822</ele>
        <time>2026-06-20T06:15:31.000Z</time>
        <extensions>
          <ns3:TrackPointExtension>
            <ns3:atemp>20.0</ns3:atemp>
          </ns3:TrackPointExtension>
        </extensions>
      </trkpt>
      <trkpt lat="42.55764207802712917327880859375" lon="20.11091225780546665191650390625">
        <ele>1822.199951171875</ele>
        <time>2026-06-20T06:15:32.000Z</time>
        <extensions>
          <ns3:TrackPointExtension>
            <ns3:atemp>20.0</ns3:atemp>
          </ns3:TrackPointExtension>
        </extensions>
      </trkpt>
      <trkpt lat="42.55763319320976734161376953125" lon="20.11093220673501491546630859375">
        <ele>1822.4000244140625</ele>
        <time>2026-06-20T06:15:33.000Z</time>
        <extensions>
          <ns3:TrackPointExtension>
            <ns3:atemp>20.0</ns3:atemp>
          </ns3:TrackPointExtension>
        </extensions>
      </trkpt>
      <trkpt lat="42.55762497894465923309326171875" lon="20.1109505631029605865478515625">
        <ele>1822.5999755859375</ele>
        <time>2026-06-20T06:15:34.000Z</time>
        <extensions>
          <ns3:TrackPointExtension>
            <ns3:atemp>20.0</ns3:atemp>
          </ns3:TrackPointExtension>
        </extensions>
      </trkpt>
      <trkpt lat="42.5576158426702022552490234375" lon="20.1109710149466991424560546875">
        <ele>1822.800048828125</ele>
        <time>2026-06-20T06:15:35.000Z</time>
        <extensions>
          <ns3:TrackPointExtension>
            <ns3:atemp>20.0</ns3:atemp>
          </ns3:TrackPointExtension>
        </extensions>
      </trkpt>
      <trkpt lat="42.5576077960431575775146484375" lon="20.11098702438175678253173828125">
        <ele>1822.800048828125</ele>
        <time>2026-06-20T06:15:36.000Z</time>
        <extensions>
          <ns3:TrackPointExtension>
            <ns3:atemp>20.0</ns3:atemp>
          </ns3:TrackPointExtension>
        </extensions>
      </trkpt>
      <trkpt lat="42.5576086342334747314453125" lon="20.11098333634436130523681640625">
        <ele>1823</ele>
        <time>2026-06-20T06:15:37.000Z</time>
        <extensions>
          <ns3:TrackPointExtension>
            <ns3:atemp>20.0</ns3:atemp>
          </ns3:TrackPointExtension>
        </extensions>
      </trkpt>
      <trkpt lat="42.557606287300586700439453125" lon="20.11098660528659820556640625">
        <ele>1823</ele>
        <time>2026-06-20T06:15:38.000Z</time>
        <extensions>
          <ns3:TrackPointExtension>
            <ns3:atemp>20.0</ns3:atemp>
          </ns3:TrackPointExtension>
        </extensions>
      </trkpt>
      <trkpt lat="42.557606287300586700439453125" lon="20.11098660528659820556640625">
        <ele>1823.199951171875</ele>
        <time>2026-06-20T06:15:39.000Z</time>
        <extensions>
          <ns3:TrackPointExtension>
            <ns3:atemp>20.0</ns3:atemp>
          </ns3:TrackPointExtension>
        </extensions>
      </trkpt>
      <trkpt lat="42.557606287300586700439453125" lon="20.11098660528659820556640625">
        <ele>1823.199951171875</ele>
        <time>2026-06-20T06:15:40.000Z</time>
        <extensions>
          <ns3:TrackPointExtension>
            <ns3:atemp>20.0</ns3:atemp>
          </ns3:TrackPointExtension>
        </extensions>
      </trkpt>
      <trkpt lat="42.557606287300586700439453125" lon="20.11098660528659820556640625">
        <ele>1823.199951171875</ele>
        <time>2026-06-20T06:15:41.000Z</time>
        <extensions>
          <ns3:TrackPointExtension>
            <ns3:atemp>20.0</ns3:atemp>
          </ns3:TrackPointExtension>
        </extensions>
      </trkpt>
      <trkpt lat="42.557606287300586700439453125" lon="20.11098660528659820556640625">
        <ele>1823</ele>
        <time>2026-06-20T06:15:42.000Z</time>
        <extensions>
          <ns3:TrackPointExtension>
            <ns3:atemp>20.0</ns3:atemp>
          </ns3:TrackPointExtension>
        </extensions>
      </trkpt>
      <trkpt lat="42.557606287300586700439453125" lon="20.11098660528659820556640625">
        <ele>1823</ele>
        <time>2026-06-20T06:15:43.000Z</time>
        <extensions>
          <ns3:TrackPointExtension>
            <ns3:atemp>20.0</ns3:atemp>
          </ns3:TrackPointExtension>
        </extensions>
      </trkpt>
      <trkpt lat="42.557606287300586700439453125" lon="20.11098660528659820556640625">
        <ele>1823</ele>
        <time>2026-06-20T06:15:44.000Z</time>
        <extensions>
          <ns3:TrackPointExtension>
            <ns3:atemp>20.0</ns3:atemp>
          </ns3:TrackPointExtension>
        </extensions>
      </trkpt>
      <trkpt lat="42.557606287300586700439453125" lon="20.11098660528659820556640625">
        <ele>1822.800048828125</ele>
        <time>2026-06-20T06:15:45.000Z</time>
        <extensions>
          <ns3:TrackPointExtension>
            <ns3:atemp>20.0</ns3:atemp>
          </ns3:TrackPointExtension>
        </extensions>
      </trkpt>
      <trkpt lat="42.557606287300586700439453125" lon="20.11098660528659820556640625">
        <ele>1822.800048828125</ele>
        <time>2026-06-20T06:15:46.000Z</time>
        <extensions>
          <ns3:TrackPointExtension>
            <ns3:atemp>20.0</ns3:atemp>
          </ns3:TrackPointExtension>
        </extensions>
      </trkpt>
      <trkpt lat="42.557606287300586700439453125" lon="20.11098660528659820556640625">
        <ele>1822.800048828125</ele>
        <time>2026-06-20T06:15:47.000Z</time>
        <extensions>
          <ns3:TrackPointExtension>
            <ns3:atemp>20.0</ns3:atemp>
          </ns3:TrackPointExtension>
        </extensions>
      </trkpt>
      <trkpt lat="42.557606287300586700439453125" lon="20.11098660528659820556640625">
        <ele>1822.5999755859375</ele>
        <time>2026-06-20T06:15:48.000Z</time>
        <extensions>
          <ns3:TrackPointExtension>
            <ns3:atemp>20.0</ns3:atemp>
          </ns3:TrackPointExtension>
        </extensions>
      </trkpt>
      <trkpt lat="42.557606287300586700439453125" lon="20.11098660528659820556640625">
        <ele>1822.5999755859375</ele>
        <time>2026-06-20T06:15:49.000Z</time>
        <extensions>
          <ns3:TrackPointExtension>
            <ns3:atemp>20.0</ns3:atemp>
          </ns3:TrackPointExtension>
        </extensions>
      </trkpt>
      <trkpt lat="42.557605616748332977294921875" lon="20.11098551563918590545654296875">
        <ele>1822.5999755859375</ele>
        <time>2026-06-20T06:15:50.000Z</time>
        <extensions>
          <ns3:TrackPointExtension>
            <ns3:atemp>20.0</ns3:atemp>
          </ns3:TrackPointExtension>
        </extensions>
      </trkpt>
      <trkpt lat="42.557598240673542022705078125" lon="20.11099088005721569061279296875">
        <ele>1822.4000244140625</ele>
        <time>2026-06-20T06:15:51.000Z</time>
        <extensions>
          <ns3:TrackPointExtension>
            <ns3:atemp>20.0</ns3:atemp>
          </ns3:TrackPointExtension>
        </extensions>
      </trkpt>
      <trkpt lat="42.5575880147516727447509765625" lon="20.111008398234844207763671875">
        <ele>1822.4000244140625</ele>
        <time>2026-06-20T06:15:52.000Z</time>
        <extensions>
          <ns3:TrackPointExtension>
            <ns3:atemp>20.0</ns3:atemp>
          </ns3:TrackPointExtension>
        </extensions>
      </trkpt>
      <trkpt lat="42.55758089013397693634033203125" lon="20.1110260002315044403076171875">
        <ele>1822.4000244140625</ele>
        <time>2026-06-20T06:15:53.000Z</time>
        <extensions>
          <ns3:TrackPointExtension>
            <ns3:atemp>20.0</ns3:atemp>
          </ns3:TrackPointExtension>
        </extensions>
      </trkpt>
      <trkpt lat="42.5575652159750461578369140625" lon="20.1110504753887653350830078125">
        <ele>1822.4000244140625</ele>
        <time>2026-06-20T06:15:54.000Z</time>
        <extensions>
          <ns3:TrackPointExtension>
            <ns3:atemp>20.0</ns3:atemp>
          </ns3:TrackPointExtension>
        </extensions>
      </trkpt>
      <trkpt lat="42.55753914825618267059326171875" lon="20.11108039878308773040771484375">
        <ele>1822.199951171875</ele>
        <time>2026-06-20T06:15:55.000Z</time>
        <extensions>
          <ns3:TrackPointExtension>
            <ns3:atemp>20.0</ns3:atemp>
          </ns3:TrackPointExtension>
        </extensions>
      </trkpt>
      <trkpt lat="42.557501681149005889892578125" lon="20.111112333834171295166015625">
        <ele>1821.800048828125</ele>
        <time>2026-06-20T06:15:56.000Z</time>
        <extensions>
          <ns3:TrackPointExtension>
            <ns3:atemp>20.0</ns3:atemp>
          </ns3:TrackPointExtension>
        </extensions>
      </trkpt>
      <trkpt lat="42.55746874026954174041748046875" lon="20.111150555312633514404296875">
        <ele>1821.4000244140625</ele>
        <time>2026-06-20T06:15:57.000Z</time>
        <extensions>
          <ns3:TrackPointExtension>
            <ns3:atemp>20.0</ns3:atemp>
          </ns3:TrackPointExtension>
        </extensions>
      </trkpt>
      <trkpt lat="42.55744024179875850677490234375" lon="20.1111899502575397491455078125">
        <ele>1821</ele>
        <time>2026-06-20T06:15:58.000Z</time>
        <extensions>
          <ns3:TrackPointExtension>
            <ns3:atemp>20.0</ns3:atemp>
          </ns3:TrackPointExtension>
        </extensions>
      </trkpt>
      <trkpt lat="42.55741878412663936614990234375" lon="20.11122607626020908355712890625">
        <ele>1821</ele>
        <time>2026-06-20T06:15:59.000Z</time>
        <extensions>
          <ns3:TrackPointExtension>
            <ns3:atemp>20.0</ns3:atemp>
          </ns3:TrackPointExtension>
        </extensions>
      </trkpt>
      <trkpt lat="42.55739313550293445587158203125" lon="20.11125859804451465606689453125">
        <ele>1820.800048828125</ele>
        <time>2026-06-20T06:16:00.000Z</time>
        <extensions>
          <ns3:TrackPointExtension>
            <ns3:atemp>20.0</ns3:atemp>
          </ns3:TrackPointExtension>
        </extensions>
      </trkpt>
      <trkpt lat="42.5573751144111156463623046875" lon="20.11127552948892116546630859375">
        <ele>1820.800048828125</ele>
        <time>2026-06-20T06:16:01.000Z</time>
        <extensions>
          <ns3:TrackPointExtension>
            <ns3:atemp>20.0</ns3:atemp>
          </ns3:TrackPointExtension>
        </extensions>
      </trkpt>
      <trkpt lat="42.5573623739182949066162109375" lon="20.11129061691462993621826171875">
        <ele>1820.800048828125</ele>
        <time>2026-06-20T06:16:02.000Z</time>
        <extensions>
          <ns3:TrackPointExtension>
            <ns3:atemp>20.0</ns3:atemp>
          </ns3:TrackPointExtension>
        </extensions>
      </trkpt>
      <trkpt lat="42.5573482923209667205810546875" lon="20.11131157167255878448486328125">
        <ele>1821</ele>
        <time>2026-06-20T06:16:03.000Z</time>
        <extensions>
          <ns3:TrackPointExtension>
            <ns3:atemp>20.0</ns3:atemp>
          </ns3:TrackPointExtension>
        </extensions>
      </trkpt>
      <trkpt lat="42.55732540972530841827392578125" lon="20.11133453808724880218505859375">
        <ele>1820.800048828125</ele>
        <time>2026-06-20T06:16:04.000Z</time>
        <extensions>
          <ns3:TrackPointExtension>
            <ns3:atemp>20.0</ns3:atemp>
          </ns3:TrackPointExtension>
        </extensions>
      </trkpt>
      <trkpt lat="42.55729280412197113037109375" lon="20.11136136017739772796630859375">
        <ele>1820.800048828125</ele>
        <time>2026-06-20T06:16:05.000Z</time>
        <extensions>
          <ns3:TrackPointExtension>
            <ns3:atemp>20.0</ns3:atemp>
          </ns3:TrackPointExtension>
        </extensions>
      </trkpt>
      <trkpt lat="42.557256929576396942138671875" lon="20.11138767935335636138916015625">
        <ele>1820.5999755859375</ele>
        <time>2026-06-20T06:16:06.000Z</time>
        <extensions>
          <ns3:TrackPointExtension>
            <ns3:atemp>20.0</ns3:atemp>
          </ns3:TrackPointExtension>
        </extensions>
      </trkpt>
      <trkpt lat="42.55722147412598133087158203125" lon="20.11141802184283733367919921875">
        <ele>1820.4000244140625</ele>
        <time>2026-06-20T06:16:07.000Z</time>
        <extensions>
          <ns3:TrackPointExtension>
            <ns3:atemp>20.0</ns3:atemp>
          </ns3:TrackPointExtension>
        </extensions>
      </trkpt>
      <trkpt lat="42.55719448439776897430419921875" lon="20.11145389638841152191162109375">
        <ele>1820.199951171875</ele>
        <time>2026-06-20T06:16:08.000Z</time>
        <extensions>
          <ns3:TrackPointExtension>
            <ns3:atemp>20.0</ns3:atemp>
          </ns3:TrackPointExtension>
        </extensions>
      </trkpt>
      <trkpt lat="42.55717587657272815704345703125" lon="20.111489854753017425537109375">
        <ele>1820.199951171875</ele>
        <time>2026-06-20T06:16:09.000Z</time>
        <extensions>
          <ns3:TrackPointExtension>
            <ns3:atemp>20.0</ns3:atemp>
          </ns3:TrackPointExtension>
        </extensions>
      </trkpt>
      <trkpt lat="42.55716137588024139404296875" lon="20.1115210354328155517578125">
        <ele>1820.199951171875</ele>
        <time>2026-06-20T06:16:10.000Z</time>
        <extensions>
          <ns3:TrackPointExtension>
            <ns3:atemp>20.0</ns3:atemp>
          </ns3:TrackPointExtension>
        </extensions>
      </trkpt>
      <trkpt lat="42.5571464560925960540771484375" lon="20.111544840037822723388671875">
        <ele>1820.4000244140625</ele>
        <time>2026-06-20T06:16:11.000Z</time>
        <extensions>
          <ns3:TrackPointExtension>
            <ns3:atemp>20.0</ns3:atemp>
          </ns3:TrackPointExtension>
        </extensions>
      </trkpt>
      <trkpt lat="42.55713681690394878387451171875" lon="20.11156462132930755615234375">
        <ele>1820.5999755859375</ele>
        <time>2026-06-20T06:16:12.000Z</time>
        <extensions>
          <ns3:TrackPointExtension>
            <ns3:atemp>20.0</ns3:atemp>
          </ns3:TrackPointExtension>
        </extensions>
      </trkpt>
      <trkpt lat="42.55712918937206268310546875" lon="20.11158079840242862701416015625">
        <ele>1821</ele>
        <time>2026-06-20T06:16:13.000Z</time>
        <extensions>
          <ns3:TrackPointExtension>
            <ns3:atemp>20.0</ns3:atemp>
          </ns3:TrackPointExtension>
        </extensions>
      </trkpt>
      <trkpt lat="42.557121478021144866943359375" lon="20.11159638874232769012451171875">
        <ele>1821.199951171875</ele>
        <time>2026-06-20T06:16:14.000Z</time>
        <extensions>
          <ns3:TrackPointExtension>
            <ns3:atemp>20.0</ns3:atemp>
          </ns3:TrackPointExtension>
        </extensions>
      </trkpt>
      <trkpt lat="42.55710781551897525787353515625" lon="20.1116137392818927764892578125">
        <ele>1821.5999755859375</ele>
        <time>2026-06-20T06:16:15.000Z</time>
        <extensions>
          <ns3:TrackPointExtension>
            <ns3:atemp>20.0</ns3:atemp>
          </ns3:TrackPointExtension>
        </extensions>
      </trkpt>
      <trkpt lat="42.557094655930995941162109375" lon="20.11162891052663326263427734375">
        <ele>1822</ele>
        <time>2026-06-20T06:16:16.000Z</time>
        <extensions>
          <ns3:TrackPointExtension>
            <ns3:atemp>20.0</ns3:atemp>
          </ns3:TrackPointExtension>
        </extensions>
      </trkpt>
      <trkpt lat="42.5570830889046192169189453125" lon="20.111645758152008056640625">
        <ele>1822.4000244140625</ele>
        <time>2026-06-20T06:16:17.000Z</time>
        <extensions>
          <ns3:TrackPointExtension>
            <ns3:atemp>20.0</ns3:atemp>
          </ns3:TrackPointExtension>
        </extensions>
      </trkpt>
      <trkpt lat="42.557068169116973876953125" lon="20.11165774427354335784912109375">
        <ele>1822.800048828125</ele>
        <time>2026-06-20T06:16:18.000Z</time>
        <extensions>
          <ns3:TrackPointExtension>
            <ns3:atemp>20.0</ns3:atemp>
          </ns3:TrackPointExtension>
        </extensions>
      </trkpt>
      <trkpt lat="42.55705014802515506744384765625" lon="20.1116683892905712127685546875">
        <ele>1823</ele>
        <time>2026-06-20T06:16:19.000Z</time>
        <extensions>
          <ns3:TrackPointExtension>
            <ns3:atemp>20.0</ns3:atemp>
          </ns3:TrackPointExtension>
        </extensions>
      </trkpt>
      <trkpt lat="42.55702734924852848052978515625" lon="20.11168004013597965240478515625">
        <ele>1823.4000244140625</ele>
        <time>2026-06-20T06:16:20.000Z</time>
        <extensions>
          <ns3:TrackPointExtension>
            <ns3:atemp>20.0</ns3:atemp>
          </ns3:TrackPointExtension>
        </extensions>
      </trkpt>
      <trkpt lat="42.55700387991964817047119140625" lon="20.11167869903147220611572265625">
        <ele>1823.5999755859375</ele>
        <time>2026-06-20T06:16:21.000Z</time>
        <extensions>
          <ns3:TrackPointExtension>
            <ns3:atemp>20.0</ns3:atemp>
          </ns3:TrackPointExtension>
        </extensions>
      </trkpt>
      <trkpt lat="42.5569784827530384063720703125" lon="20.11168188415467739105224609375">
        <ele>1824</ele>
        <time>2026-06-20T06:16:22.000Z</time>
        <extensions>
          <ns3:TrackPointExtension>
            <ns3:atemp>20.0</ns3:atemp>
          </ns3:TrackPointExtension>
        </extensions>
      </trkpt>
      <trkpt lat="42.556955181062221527099609375" lon="20.1116888411343097686767578125">
        <ele>1824.199951171875</ele>
        <time>2026-06-20T06:16:23.000Z</time>
        <extensions>
          <ns3:TrackPointExtension>
            <ns3:atemp>20.0</ns3:atemp>
          </ns3:TrackPointExtension>
        </extensions>
      </trkpt>
      <trkpt lat="42.55693866871297359466552734375" lon="20.11169470846652984619140625">
        <ele>1824.5999755859375</ele>
        <time>2026-06-20T06:16:24.000Z</time>
        <extensions>
          <ns3:TrackPointExtension>
            <ns3:atemp>20.0</ns3:atemp>
          </ns3:TrackPointExtension>
        </extensions>
      </trkpt>
      <trkpt lat="42.556927688419818878173828125" lon="20.111704766750335693359375">
        <ele>1825</ele>
        <time>2026-06-20T06:16:25.000Z</time>
        <extensions>
          <ns3:TrackPointExtension>
            <ns3:atemp>20.0</ns3:atemp>
          </ns3:TrackPointExtension>
        </extensions>
      </trkpt>
      <trkpt lat="42.55691687576472759246826171875" lon="20.11171541176736354827880859375">
        <ele>1825.4000244140625</ele>
        <time>2026-06-20T06:16:26.000Z</time>
        <extensions>
          <ns3:TrackPointExtension>
            <ns3:atemp>20.0</ns3:atemp>
          </ns3:TrackPointExtension>
        </extensions>
      </trkpt>
      <trkpt lat="42.55690011195838451385498046875" lon="20.11172479949891567230224609375">
        <ele>1825.800048828125</ele>
        <time>2026-06-20T06:16:27.000Z</time>
        <extensions>
          <ns3:TrackPointExtension>
            <ns3:atemp>20.0</ns3:atemp>
          </ns3:TrackPointExtension>
        </extensions>
      </trkpt>
      <trkpt lat="42.55688301287591457366943359375" lon="20.1117324270308017730712890625">
        <ele>1826.4000244140625</ele>
        <time>2026-06-20T06:16:28.000Z</time>
        <extensions>
          <ns3:TrackPointExtension>
            <ns3:atemp>20.0</ns3:atemp>
          </ns3:TrackPointExtension>
        </extensions>
      </trkpt>
      <trkpt lat="42.556869685649871826171875" lon="20.11174491606652736663818359375">
        <ele>1826.800048828125</ele>
        <time>2026-06-20T06:16:29.000Z</time>
        <extensions>
          <ns3:TrackPointExtension>
            <ns3:atemp>20.0</ns3:atemp>
          </ns3:TrackPointExtension>
        </extensions>
      </trkpt>
      <trkpt lat="42.556851916015148162841796875" lon="20.1117570698261260986328125">
        <ele>1827</ele>
        <time>2026-06-20T06:16:30.000Z</time>
        <extensions>
          <ns3:TrackPointExtension>
            <ns3:atemp>20.0</ns3:atemp>
          </ns3:TrackPointExtension>
        </extensions>
      </trkpt>
      <trkpt lat="42.5568366609513759613037109375" lon="20.1117686368525028228759765625">
        <ele>1827.4000244140625</ele>
        <time>2026-06-20T06:16:31.000Z</time>
        <extensions>
          <ns3:TrackPointExtension>
            <ns3:atemp>20.0</ns3:atemp>
          </ns3:TrackPointExtension>
        </extensions>
      </trkpt>
      <trkpt lat="42.5568198971450328826904296875" lon="20.11177391745150089263916015625">
        <ele>1827.5999755859375</ele>
        <time>2026-06-20T06:16:32.000Z</time>
        <extensions>
          <ns3:TrackPointExtension>
            <ns3:atemp>20.0</ns3:atemp>
          </ns3:TrackPointExtension>
        </extensions>
      </trkpt>
      <trkpt lat="42.55680640228092670440673828125" lon="20.11177341453731060028076171875">
        <ele>1828</ele>
        <time>2026-06-20T06:16:33.000Z</time>
        <extensions>
          <ns3:TrackPointExtension>
            <ns3:atemp>20.0</ns3:atemp>
          </ns3:TrackPointExtension>
        </extensions>
      </trkpt>
      <trkpt lat="42.55678896792232990264892578125" lon="20.1117763482034206390380859375">
        <ele>1828.199951171875</ele>
        <time>2026-06-20T06:16:34.000Z</time>
        <extensions>
          <ns3:TrackPointExtension>
            <ns3:atemp>20.0</ns3:atemp>
          </ns3:TrackPointExtension>
        </extensions>
      </trkpt>
      <trkpt lat="42.5567729584872722625732421875" lon="20.11178095825016498565673828125">
        <ele>1828.5999755859375</ele>
        <time>2026-06-20T06:16:35.000Z</time>
        <extensions>
          <ns3:TrackPointExtension>
            <ns3:atemp>20.0</ns3:atemp>
          </ns3:TrackPointExtension>
        </extensions>
      </trkpt>
      <trkpt lat="42.55675368010997772216796875" lon="20.11179118417203426361083984375">
        <ele>1828.800048828125</ele>
        <time>2026-06-20T06:16:36.000Z</time>
        <extensions>
          <ns3:TrackPointExtension>
            <ns3:atemp>20.0</ns3:atemp>
          </ns3:TrackPointExtension>
        </extensions>
      </trkpt>
      <trkpt lat="42.556742615997791290283203125" lon="20.1117865741252899169921875">
        <ele>1829</ele>
        <time>2026-06-20T06:16:37.000Z</time>
        <extensions>
          <ns3:TrackPointExtension>
            <ns3:atemp>20.0</ns3:atemp>
          </ns3:TrackPointExtension>
        </extensions>
      </trkpt>
      <trkpt lat="42.55674337036907672882080078125" lon="20.1117890886962413787841796875">
        <ele>1829.199951171875</ele>
        <time>2026-06-20T06:16:38.000Z</time>
        <extensions>
          <ns3:TrackPointExtension>
            <ns3:atemp>20.0</ns3:atemp>
          </ns3:TrackPointExtension>
        </extensions>
      </trkpt>
      <trkpt lat="42.5567434541881084442138671875" lon="20.11178917251527309417724609375">
        <ele>1829.5999755859375</ele>
        <time>2026-06-20T06:16:39.000Z</time>
        <extensions>
          <ns3:TrackPointExtension>
            <ns3:atemp>20.0</ns3:atemp>
          </ns3:TrackPointExtension>
        </extensions>
      </trkpt>
      <trkpt lat="42.5567434541881084442138671875" lon="20.11178917251527309417724609375">
        <ele>1830</ele>
        <time>2026-06-20T06:16:40.000Z</time>
        <extensions>
          <ns3:TrackPointExtension>
            <ns3:atemp>20.0</ns3:atemp>
          </ns3:TrackPointExtension>
        </extensions>
      </trkpt>
      <trkpt lat="42.5567434541881084442138671875" lon="20.11178917251527309417724609375">
        <ele>1830.199951171875</ele>
        <time>2026-06-20T06:16:41.000Z</time>
        <extensions>
          <ns3:TrackPointExtension>
            <ns3:atemp>20.0</ns3:atemp>
          </ns3:TrackPointExtension>
        </extensions>
      </trkpt>
      <trkpt lat="42.5567434541881084442138671875" lon="20.11178917251527309417724609375">
        <ele>1830.199951171875</ele>
        <time>2026-06-20T06:16:42.000Z</time>
        <extensions>
          <ns3:TrackPointExtension>
            <ns3:atemp>20.0</ns3:atemp>
          </ns3:TrackPointExtension>
        </extensions>
      </trkpt>
      <trkpt lat="42.5567434541881084442138671875" lon="20.11178917251527309417724609375">
        <ele>1830.199951171875</ele>
        <time>2026-06-20T06:16:43.000Z</time>
        <extensions>
          <ns3:TrackPointExtension>
            <ns3:atemp>20.0</ns3:atemp>
          </ns3:TrackPointExtension>
        </extensions>
      </trkpt>
      <trkpt lat="42.5567434541881084442138671875" lon="20.11178917251527309417724609375">
        <ele>1830</ele>
        <time>2026-06-20T06:16:44.000Z</time>
        <extensions>
          <ns3:TrackPointExtension>
            <ns3:atemp>20.0</ns3:atemp>
          </ns3:TrackPointExtension>
        </extensions>
      </trkpt>
      <trkpt lat="42.5567434541881084442138671875" lon="20.11178917251527309417724609375">
        <ele>1829.800048828125</ele>
        <time>2026-06-20T06:16:45.000Z</time>
        <extensions>
          <ns3:TrackPointExtension>
            <ns3:atemp>20.0</ns3:atemp>
          </ns3:TrackPointExtension>
        </extensions>
      </trkpt>
      <trkpt lat="42.5567434541881084442138671875" lon="20.11178917251527309417724609375">
        <ele>1829.5999755859375</ele>
        <time>2026-06-20T06:16:46.000Z</time>
        <extensions>
          <ns3:TrackPointExtension>
            <ns3:atemp>20.0</ns3:atemp>
          </ns3:TrackPointExtension>
        </extensions>
      </trkpt>
      <trkpt lat="42.5567434541881084442138671875" lon="20.11178917251527309417724609375">
        <ele>1829.4000244140625</ele>
        <time>2026-06-20T06:16:47.000Z</time>
        <extensions>
          <ns3:TrackPointExtension>
            <ns3:atemp>20.0</ns3:atemp>
          </ns3:TrackPointExtension>
        </extensions>
      </trkpt>
      <trkpt lat="42.5567434541881084442138671875" lon="20.11178917251527309417724609375">
        <ele>1829.4000244140625</ele>
        <time>2026-06-20T06:16:48.000Z</time>
        <extensions>
          <ns3:TrackPointExtension>
            <ns3:atemp>20.0</ns3:atemp>
          </ns3:TrackPointExtension>
        </extensions>
      </trkpt>
      <trkpt lat="42.5567434541881084442138671875" lon="20.11178917251527309417724609375">
        <ele>1829.199951171875</ele>
        <time>2026-06-20T06:16:49.000Z</time>
        <extensions>
          <ns3:TrackPointExtension>
            <ns3:atemp>20.0</ns3:atemp>
          </ns3:TrackPointExtension>
        </extensions>
      </trkpt>
      <trkpt lat="42.5567434541881084442138671875" lon="20.11178917251527309417724609375">
        <ele>1829.199951171875</ele>
        <time>2026-06-20T06:16:50.000Z</time>
        <extensions>
          <ns3:TrackPointExtension>
            <ns3:atemp>20.0</ns3:atemp>
          </ns3:TrackPointExtension>
        </extensions>
      </trkpt>
      <trkpt lat="42.5567434541881084442138671875" lon="20.11178917251527309417724609375">
        <ele>1829.199951171875</ele>
        <time>2026-06-20T06:16:51.000Z</time>
        <extensions>
          <ns3:TrackPointExtension>
            <ns3:atemp>20.0</ns3:atemp>
          </ns3:TrackPointExtension>
        </extensions>
      </trkpt>
      <trkpt lat="42.5567434541881084442138671875" lon="20.11178917251527309417724609375">
        <ele>1829</ele>
        <time>2026-06-20T06:16:52.000Z</time>
        <extensions>
          <ns3:TrackPointExtension>
            <ns3:atemp>20.0</ns3:atemp>
          </ns3:TrackPointExtension>
        </extensions>
      </trkpt>
      <trkpt lat="42.5567434541881084442138671875" lon="20.11178917251527309417724609375">
        <ele>1829</ele>
        <time>2026-06-20T06:16:53.000Z</time>
        <extensions>
          <ns3:TrackPointExtension>
            <ns3:atemp>20.0</ns3:atemp>
          </ns3:TrackPointExtension>
        </extensions>
      </trkpt>
      <trkpt lat="42.5567434541881084442138671875" lon="20.11178917251527309417724609375">
        <ele>1829</ele>
        <time>2026-06-20T06:16:54.000Z</time>
        <extensions>
          <ns3:TrackPointExtension>
            <ns3:atemp>20.0</ns3:atemp>
          </ns3:TrackPointExtension>
        </extensions>
      </trkpt>
      <trkpt lat="42.5567434541881084442138671875" lon="20.11178917251527309417724609375">
        <ele>1829</ele>
        <time>2026-06-20T06:16:55.000Z</time>
        <extensions>
          <ns3:TrackPointExtension>
            <ns3:atemp>20.0</ns3:atemp>
          </ns3:TrackPointExtension>
        </extensions>
      </trkpt>
      <trkpt lat="42.5567434541881084442138671875" lon="20.11178917251527309417724609375">
        <ele>1829</ele>
        <time>2026-06-20T06:16:56.000Z</time>
        <extensions>
          <ns3:TrackPointExtension>
            <ns3:atemp>20.0</ns3:atemp>
          </ns3:TrackPointExtension>
        </extensions>
      </trkpt>
      <trkpt lat="42.5567434541881084442138671875" lon="20.11178917251527309417724609375">
        <ele>1828.800048828125</ele>
        <time>2026-06-20T06:16:57.000Z</time>
        <extensions>
          <ns3:TrackPointExtension>
            <ns3:atemp>20.0</ns3:atemp>
          </ns3:TrackPointExtension>
        </extensions>
      </trkpt>
      <trkpt lat="42.55674152635037899017333984375" lon="20.1117917709052562713623046875">
        <ele>1828.800048828125</ele>
        <time>2026-06-20T06:16:58.000Z</time>
        <extensions>
          <ns3:TrackPointExtension>
            <ns3:atemp>20.0</ns3:atemp>
          </ns3:TrackPointExtension>
        </extensions>
      </trkpt>
      <trkpt lat="42.556737251579761505126953125" lon="20.11180174537003040313720703125">
        <ele>1828.5999755859375</ele>
        <time>2026-06-20T06:16:59.000Z</time>
        <extensions>
          <ns3:TrackPointExtension>
            <ns3:atemp>20.0</ns3:atemp>
          </ns3:TrackPointExtension>
        </extensions>
      </trkpt>
      <trkpt lat="42.55674169398844242095947265625" lon="20.11180191300809383392333984375">
        <ele>1828.5999755859375</ele>
        <time>2026-06-20T06:17:00.000Z</time>
        <extensions>
          <ns3:TrackPointExtension>
            <ns3:atemp>20.0</ns3:atemp>
          </ns3:TrackPointExtension>
        </extensions>
      </trkpt>
      <trkpt lat="42.55674202926456928253173828125" lon="20.11179503984749317169189453125">
        <ele>1828.5999755859375</ele>
        <time>2026-06-20T06:17:01.000Z</time>
        <extensions>
          <ns3:TrackPointExtension>
            <ns3:atemp>20.0</ns3:atemp>
          </ns3:TrackPointExtension>
        </extensions>
      </trkpt>
      <trkpt lat="42.55674186162650585174560546875" lon="20.11179738678038120269775390625">
        <ele>1828.5999755859375</ele>
        <time>2026-06-20T06:17:02.000Z</time>
        <extensions>
          <ns3:TrackPointExtension>
            <ns3:atemp>20.0</ns3:atemp>
          </ns3:TrackPointExtension>
        </extensions>
      </trkpt>
      <trkpt lat="42.55673733539879322052001953125" lon="20.111807696521282196044921875">
        <ele>1828.5999755859375</ele>
        <time>2026-06-20T06:17:03.000Z</time>
        <extensions>
          <ns3:TrackPointExtension>
            <ns3:atemp>20.0</ns3:atemp>
          </ns3:TrackPointExtension>
        </extensions>
      </trkpt>
      <trkpt lat="42.55672610364854335784912109375" lon="20.11182420887053012847900390625">
        <ele>1828.800048828125</ele>
        <time>2026-06-20T06:17:04.000Z</time>
        <extensions>
          <ns3:TrackPointExtension>
            <ns3:atemp>21.0</ns3:atemp>
          </ns3:TrackPointExtension>
        </extensions>
      </trkpt>
      <trkpt lat="42.55670850165188312530517578125" lon="20.1118356920778751373291015625">
        <ele>1829</ele>
        <time>2026-06-20T06:17:05.000Z</time>
        <extensions>
          <ns3:TrackPointExtension>
            <ns3:atemp>21.0</ns3:atemp>
          </ns3:TrackPointExtension>
        </extensions>
      </trkpt>
      <trkpt lat="42.5566886365413665771484375" lon="20.11184231378138065338134765625">
        <ele>1829</ele>
        <time>2026-06-20T06:17:06.000Z</time>
        <extensions>
          <ns3:TrackPointExtension>
            <ns3:atemp>21.0</ns3:atemp>
          </ns3:TrackPointExtension>
        </extensions>
      </trkpt>
      <trkpt lat="42.556665502488613128662109375" lon="20.11185471899807453155517578125">
        <ele>1829.199951171875</ele>
        <time>2026-06-20T06:17:07.000Z</time>
        <extensions>
          <ns3:TrackPointExtension>
            <ns3:atemp>21.0</ns3:atemp>
          </ns3:TrackPointExtension>
        </extensions>
      </trkpt>
      <trkpt lat="42.55663876421749591827392578125" lon="20.11187399737536907196044921875">
        <ele>1829.199951171875</ele>
        <time>2026-06-20T06:17:08.000Z</time>
        <extensions>
          <ns3:TrackPointExtension>
            <ns3:atemp>21.0</ns3:atemp>
          </ns3:TrackPointExtension>
        </extensions>
      </trkpt>
      <trkpt lat="42.55661529488861560821533203125" lon="20.11189444921910762786865234375">
        <ele>1829.4000244140625</ele>
        <time>2026-06-20T06:17:09.000Z</time>
        <extensions>
          <ns3:TrackPointExtension>
            <ns3:atemp>21.0</ns3:atemp>
          </ns3:TrackPointExtension>
        </extensions>
      </trkpt>
      <trkpt lat="42.556593753397464752197265625" lon="20.1119141466915607452392578125">
        <ele>1829.5999755859375</ele>
        <time>2026-06-20T06:17:10.000Z</time>
        <extensions>
          <ns3:TrackPointExtension>
            <ns3:atemp>21.0</ns3:atemp>
          </ns3:TrackPointExtension>
        </extensions>
      </trkpt>
      <trkpt lat="42.55657036788761615753173828125" lon="20.11193669401109218597412109375">
        <ele>1829.800048828125</ele>
        <time>2026-06-20T06:17:11.000Z</time>
        <extensions>
          <ns3:TrackPointExtension>
            <ns3:atemp>21.0</ns3:atemp>
          </ns3:TrackPointExtension>
        </extensions>
      </trkpt>
      <trkpt lat="42.55654891021549701690673828125" lon="20.11195748113095760345458984375">
        <ele>1830</ele>
        <time>2026-06-20T06:17:12.000Z</time>
        <extensions>
          <ns3:TrackPointExtension>
            <ns3:atemp>21.0</ns3:atemp>
          </ns3:TrackPointExtension>
        </extensions>
      </trkpt>
      <trkpt lat="42.55652644671499729156494140625" lon="20.11197877116501331329345703125">
        <ele>1830.4000244140625</ele>
        <time>2026-06-20T06:17:13.000Z</time>
        <extensions>
          <ns3:TrackPointExtension>
            <ns3:atemp>21.0</ns3:atemp>
          </ns3:TrackPointExtension>
        </extensions>
      </trkpt>
      <trkpt lat="42.55650280974805355072021484375" lon="20.1119905896484851837158203125">
        <ele>1830.800048828125</ele>
        <time>2026-06-20T06:17:14.000Z</time>
        <extensions>
          <ns3:TrackPointExtension>
            <ns3:atemp>21.0</ns3:atemp>
          </ns3:TrackPointExtension>
        </extensions>
      </trkpt>
      <trkpt lat="42.55647984333336353302001953125" lon="20.11200089938938617706298828125">
        <ele>1831.4000244140625</ele>
        <time>2026-06-20T06:17:15.000Z</time>
        <extensions>
          <ns3:TrackPointExtension>
            <ns3:atemp>21.0</ns3:atemp>
          </ns3:TrackPointExtension>
        </extensions>
      </trkpt>
      <trkpt lat="42.55645184777677059173583984375" lon="20.11201548390090465545654296875">
        <ele>1831.800048828125</ele>
        <time>2026-06-20T06:17:16.000Z</time>
        <extensions>
          <ns3:TrackPointExtension>
            <ns3:atemp>21.0</ns3:atemp>
          </ns3:TrackPointExtension>
        </extensions>
      </trkpt>
      <trkpt lat="42.55642670206725597381591796875" lon="20.112034343183040618896484375">
        <ele>1832.4000244140625</ele>
        <time>2026-06-20T06:17:17.000Z</time>
        <extensions>
          <ns3:TrackPointExtension>
            <ns3:atemp>21.0</ns3:atemp>
          </ns3:TrackPointExtension>
        </extensions>
      </trkpt>
      <trkpt lat="42.55640306510031223297119140625" lon="20.112064182758331298828125">
        <ele>1832.800048828125</ele>
        <time>2026-06-20T06:17:18.000Z</time>
        <extensions>
          <ns3:TrackPointExtension>
            <ns3:atemp>21.0</ns3:atemp>
          </ns3:TrackPointExtension>
        </extensions>
      </trkpt>
      <trkpt lat="42.55637993104755878448486328125" lon="20.1120975427329540252685546875">
        <ele>1833.199951171875</ele>
        <time>2026-06-20T06:17:19.000Z</time>
        <extensions>
          <ns3:TrackPointExtension>
            <ns3:atemp>21.0</ns3:atemp>
          </ns3:TrackPointExtension>
        </extensions>
      </trkpt>
      <trkpt lat="42.55635528825223445892333984375" lon="20.11212411336600780487060546875">
        <ele>1833.800048828125</ele>
        <time>2026-06-20T06:17:20.000Z</time>
        <extensions>
          <ns3:TrackPointExtension>
            <ns3:atemp>21.0</ns3:atemp>
          </ns3:TrackPointExtension>
        </extensions>
      </trkpt>
      <trkpt lat="42.55633349530398845672607421875" lon="20.1121498458087444305419921875">
        <ele>1834.199951171875</ele>
        <time>2026-06-20T06:17:21.000Z</time>
        <extensions>
          <ns3:TrackPointExtension>
            <ns3:atemp>21.0</ns3:atemp>
          </ns3:TrackPointExtension>
        </extensions>
      </trkpt>
      <trkpt lat="42.55631648004055023193359375" lon="20.1121810264885425567626953125">
        <ele>1835</ele>
        <time>2026-06-20T06:17:22.000Z</time>
        <extensions>
          <ns3:TrackPointExtension>
            <ns3:atemp>21.0</ns3:atemp>
          </ns3:TrackPointExtension>
        </extensions>
      </trkpt>
      <trkpt lat="42.55630348809063434600830078125" lon="20.11221379972994327545166015625">
        <ele>1835.4000244140625</ele>
        <time>2026-06-20T06:17:23.000Z</time>
        <extensions>
          <ns3:TrackPointExtension>
            <ns3:atemp>21.0</ns3:atemp>
          </ns3:TrackPointExtension>
        </extensions>
      </trkpt>
      <trkpt lat="42.55628957413136959075927734375" lon="20.1122460700571537017822265625">
        <ele>1836</ele>
        <time>2026-06-20T06:17:24.000Z</time>
        <extensions>
          <ns3:TrackPointExtension>
            <ns3:atemp>21.0</ns3:atemp>
          </ns3:TrackPointExtension>
        </extensions>
      </trkpt>
      <trkpt lat="42.55627549253404140472412109375" lon="20.11227716691792011260986328125">
        <ele>1836.5999755859375</ele>
        <time>2026-06-20T06:17:25.000Z</time>
        <extensions>
          <ns3:TrackPointExtension>
            <ns3:atemp>21.0</ns3:atemp>
          </ns3:TrackPointExtension>
        </extensions>
      </trkpt>
      <trkpt lat="42.55626006983220577239990234375" lon="20.1123131252825260162353515625">
        <ele>1837.199951171875</ele>
        <time>2026-06-20T06:17:26.000Z</time>
        <extensions>
          <ns3:TrackPointExtension>
            <ns3:atemp>21.0</ns3:atemp>
          </ns3:TrackPointExtension>
        </extensions>
      </trkpt>
      <trkpt lat="42.55624682642519474029541015625" lon="20.1123479939997196197509765625">
        <ele>1837.800048828125</ele>
        <time>2026-06-20T06:17:27.000Z</time>
        <extensions>
          <ns3:TrackPointExtension>
            <ns3:atemp>21.0</ns3:atemp>
          </ns3:TrackPointExtension>
        </extensions>
      </trkpt>
      <trkpt lat="42.5562345050275325775146484375" lon="20.112381689250469207763671875">
        <ele>1838.4000244140625</ele>
        <time>2026-06-20T06:17:28.000Z</time>
        <extensions>
          <ns3:TrackPointExtension>
            <ns3:atemp>21.0</ns3:atemp>
          </ns3:TrackPointExtension>
        </extensions>
      </trkpt>
      <trkpt lat="42.55622134543955326080322265625" lon="20.11242133565247058868408203125">
        <ele>1839</ele>
        <time>2026-06-20T06:17:29.000Z</time>
        <extensions>
          <ns3:TrackPointExtension>
            <ns3:atemp>21.0</ns3:atemp>
          </ns3:TrackPointExtension>
        </extensions>
      </trkpt>
      <trkpt lat="42.5562096945941448211669921875" lon="20.11246089823544025421142578125">
        <ele>1839.4000244140625</ele>
        <time>2026-06-20T06:17:30.000Z</time>
        <extensions>
          <ns3:TrackPointExtension>
            <ns3:atemp>21.0</ns3:atemp>
          </ns3:TrackPointExtension>
        </extensions>
      </trkpt>
      <trkpt lat="42.55619854666292667388916015625" lon="20.11250046081840991973876953125">
        <ele>1839.800048828125</ele>
        <time>2026-06-20T06:17:31.000Z</time>
        <extensions>
          <ns3:TrackPointExtension>
            <ns3:atemp>21.0</ns3:atemp>
          </ns3:TrackPointExtension>
        </extensions>
      </trkpt>
      <trkpt lat="42.55619100295007228851318359375" lon="20.1125394366681575775146484375">
        <ele>1840.199951171875</ele>
        <time>2026-06-20T06:17:32.000Z</time>
        <extensions>
          <ns3:TrackPointExtension>
            <ns3:atemp>21.0</ns3:atemp>
          </ns3:TrackPointExtension>
        </extensions>
      </trkpt>
      <trkpt lat="42.55618236958980560302734375" lon="20.112575478851795196533203125">
        <ele>1840.4000244140625</ele>
        <time>2026-06-20T06:17:33.000Z</time>
        <extensions>
          <ns3:TrackPointExtension>
            <ns3:atemp>21.0</ns3:atemp>
          </ns3:TrackPointExtension>
        </extensions>
      </trkpt>
      <trkpt lat="42.556171976029872894287109375" lon="20.112610347568988800048828125">
        <ele>1840.800048828125</ele>
        <time>2026-06-20T06:17:34.000Z</time>
        <extensions>
          <ns3:TrackPointExtension>
            <ns3:atemp>21.0</ns3:atemp>
          </ns3:TrackPointExtension>
        </extensions>
      </trkpt>
      <trkpt lat="42.5561620853841304779052734375" lon="20.11264018714427947998046875">
        <ele>1841</ele>
        <time>2026-06-20T06:17:35.000Z</time>
        <extensions>
          <ns3:TrackPointExtension>
            <ns3:atemp>21.0</ns3:atemp>
          </ns3:TrackPointExtension>
        </extensions>
      </trkpt>
      <trkpt lat="42.55615152418613433837890625" lon="20.11266860179603099822998046875">
        <ele>1841.4000244140625</ele>
        <time>2026-06-20T06:17:36.000Z</time>
        <extensions>
          <ns3:TrackPointExtension>
            <ns3:atemp>21.0</ns3:atemp>
          </ns3:TrackPointExtension>
        </extensions>
      </trkpt>
      <trkpt lat="42.55614615976810455322265625" lon="20.11269592680037021636962890625">
        <ele>1841.5999755859375</ele>
        <time>2026-06-20T06:17:37.000Z</time>
        <extensions>
          <ns3:TrackPointExtension>
            <ns3:atemp>21.0</ns3:atemp>
          </ns3:TrackPointExtension>
        </extensions>
      </trkpt>
      <trkpt lat="42.55614188499748706817626953125" lon="20.11272459290921688079833984375">
        <ele>1842</ele>
        <time>2026-06-20T06:17:38.000Z</time>
        <extensions>
          <ns3:TrackPointExtension>
            <ns3:atemp>21.0</ns3:atemp>
          </ns3:TrackPointExtension>
        </extensions>
      </trkpt>
      <trkpt lat="42.5561349280178546905517578125" lon="20.11275476776063442230224609375">
        <ele>1842.199951171875</ele>
        <time>2026-06-20T06:17:39.000Z</time>
        <extensions>
          <ns3:TrackPointExtension>
            <ns3:atemp>21.0</ns3:atemp>
          </ns3:TrackPointExtension>
        </extensions>
      </trkpt>
      <trkpt lat="42.55612730048596858978271484375" lon="20.112783350050449371337890625">
        <ele>1842.5999755859375</ele>
        <time>2026-06-20T06:17:40.000Z</time>
        <extensions>
          <ns3:TrackPointExtension>
            <ns3:atemp>21.0</ns3:atemp>
          </ns3:TrackPointExtension>
        </extensions>
      </trkpt>
      <trkpt lat="42.5561205111443996429443359375" lon="20.11281327344477176666259765625">
        <ele>1843</ele>
        <time>2026-06-20T06:17:41.000Z</time>
        <extensions>
          <ns3:TrackPointExtension>
            <ns3:atemp>21.0</ns3:atemp>
          </ns3:TrackPointExtension>
        </extensions>
      </trkpt>
      <trkpt lat="42.556108944118022918701171875" lon="20.1128408499062061309814453125">
        <ele>1843.4000244140625</ele>
        <time>2026-06-20T06:17:42.000Z</time>
        <extensions>
          <ns3:TrackPointExtension>
            <ns3:atemp>21.0</ns3:atemp>
          </ns3:TrackPointExtension>
        </extensions>
      </trkpt>
      <trkpt lat="42.55609989166259765625" lon="20.1128683425486087799072265625">
        <ele>1843.800048828125</ele>
        <time>2026-06-20T06:17:43.000Z</time>
        <extensions>
          <ns3:TrackPointExtension>
            <ns3:atemp>21.0</ns3:atemp>
          </ns3:TrackPointExtension>
        </extensions>
      </trkpt>
      <trkpt lat="42.55609176121652126312255859375" lon="20.11289943940937519073486328125">
        <ele>1844.199951171875</ele>
        <time>2026-06-20T06:17:44.000Z</time>
        <extensions>
          <ns3:TrackPointExtension>
            <ns3:atemp>21.0</ns3:atemp>
          </ns3:TrackPointExtension>
        </extensions>
      </trkpt>
      <trkpt lat="42.55608178675174713134765625" lon="20.11292693205177783966064453125">
        <ele>1844.5999755859375</ele>
        <time>2026-06-20T06:17:45.000Z</time>
        <extensions>
          <ns3:TrackPointExtension>
            <ns3:atemp>21.0</ns3:atemp>
          </ns3:TrackPointExtension>
        </extensions>
      </trkpt>
      <trkpt lat="42.556072063744068145751953125" lon="20.11295308358967304229736328125">
        <ele>1845</ele>
        <time>2026-06-20T06:17:46.000Z</time>
        <extensions>
          <ns3:TrackPointExtension>
            <ns3:atemp>21.0</ns3:atemp>
          </ns3:TrackPointExtension>
        </extensions>
      </trkpt>
      <trkpt lat="42.5560625083744525909423828125" lon="20.11298040859401226043701171875">
        <ele>1845.4000244140625</ele>
        <time>2026-06-20T06:17:47.000Z</time>
        <extensions>
          <ns3:TrackPointExtension>
            <ns3:atemp>21.0</ns3:atemp>
          </ns3:TrackPointExtension>
        </extensions>
      </trkpt>
      <trkpt lat="42.556052617728710174560546875" lon="20.113005973398685455322265625">
        <ele>1845.800048828125</ele>
        <time>2026-06-20T06:17:48.000Z</time>
        <extensions>
          <ns3:TrackPointExtension>
            <ns3:atemp>21.0</ns3:atemp>
          </ns3:TrackPointExtension>
        </extensions>
      </trkpt>
      <trkpt lat="42.55604415200650691986083984375" lon="20.11302734725177288055419921875">
        <ele>1846.199951171875</ele>
        <time>2026-06-20T06:17:49.000Z</time>
        <extensions>
          <ns3:TrackPointExtension>
            <ns3:atemp>21.0</ns3:atemp>
          </ns3:TrackPointExtension>
        </extensions>
      </trkpt>
      <trkpt lat="42.556033842265605926513671875" lon="20.11304981075227260589599609375">
        <ele>1846.5999755859375</ele>
        <time>2026-06-20T06:17:50.000Z</time>
        <extensions>
          <ns3:TrackPointExtension>
            <ns3:atemp>21.0</ns3:atemp>
          </ns3:TrackPointExtension>
        </extensions>
      </trkpt>
      <trkpt lat="42.55602302961051464080810546875" lon="20.1130721904337406158447265625">
        <ele>1847</ele>
        <time>2026-06-20T06:17:51.000Z</time>
        <extensions>
          <ns3:TrackPointExtension>
            <ns3:atemp>21.0</ns3:atemp>
          </ns3:TrackPointExtension>
        </extensions>
      </trkpt>
      <trkpt lat="42.55601112730801105499267578125" lon="20.11309490539133548736572265625">
        <ele>1847.4000244140625</ele>
        <time>2026-06-20T06:17:52.000Z</time>
        <extensions>
          <ns3:TrackPointExtension>
            <ns3:atemp>21.0</ns3:atemp>
          </ns3:TrackPointExtension>
        </extensions>
      </trkpt>
      <trkpt lat="42.55599838681519031524658203125" lon="20.11311451904475688934326171875">
        <ele>1847.800048828125</ele>
        <time>2026-06-20T06:17:53.000Z</time>
        <extensions>
          <ns3:TrackPointExtension>
            <ns3:atemp>21.0</ns3:atemp>
          </ns3:TrackPointExtension>
        </extensions>
      </trkpt>
      <trkpt lat="42.55598413757979869842529296875" lon="20.11313061229884624481201171875">
        <ele>1848.199951171875</ele>
        <time>2026-06-20T06:17:54.000Z</time>
        <extensions>
          <ns3:TrackPointExtension>
            <ns3:atemp>21.0</ns3:atemp>
          </ns3:TrackPointExtension>
        </extensions>
      </trkpt>
      <trkpt lat="42.5559676252305507659912109375" lon="20.11314922012388706207275390625">
        <ele>1848.5999755859375</ele>
        <time>2026-06-20T06:17:55.000Z</time>
        <extensions>
          <ns3:TrackPointExtension>
            <ns3:atemp>21.0</ns3:atemp>
          </ns3:TrackPointExtension>
        </extensions>
      </trkpt>
      <trkpt lat="42.55595396272838115692138671875" lon="20.11316598393023014068603515625">
        <ele>1849</ele>
        <time>2026-06-20T06:17:56.000Z</time>
        <extensions>
          <ns3:TrackPointExtension>
            <ns3:atemp>21.0</ns3:atemp>
          </ns3:TrackPointExtension>
        </extensions>
      </trkpt>
      <trkpt lat="42.5559376180171966552734375" lon="20.1131841726601123809814453125">
        <ele>1849.4000244140625</ele>
        <time>2026-06-20T06:17:57.000Z</time>
        <extensions>
          <ns3:TrackPointExtension>
            <ns3:atemp>21.0</ns3:atemp>
          </ns3:TrackPointExtension>
        </extensions>
      </trkpt>
      <trkpt lat="42.555920183658599853515625" lon="20.113194398581981658935546875">
        <ele>1849.800048828125</ele>
        <time>2026-06-20T06:17:58.000Z</time>
        <extensions>
          <ns3:TrackPointExtension>
            <ns3:atemp>21.0</ns3:atemp>
          </ns3:TrackPointExtension>
        </extensions>
      </trkpt>
      <trkpt lat="42.55590350367128849029541015625" lon="20.11321074329316616058349609375">
        <ele>1850.199951171875</ele>
        <time>2026-06-20T06:17:59.000Z</time>
        <extensions>
          <ns3:TrackPointExtension>
            <ns3:atemp>21.0</ns3:atemp>
          </ns3:TrackPointExtension>
        </extensions>
      </trkpt>
      <trkpt lat="42.5558905117213726043701171875" lon="20.11322549544274806976318359375">
        <ele>1850.5999755859375</ele>
        <time>2026-06-20T06:18:00.000Z</time>
        <extensions>
          <ns3:TrackPointExtension>
            <ns3:atemp>21.0</ns3:atemp>
          </ns3:TrackPointExtension>
        </extensions>
      </trkpt>
      <trkpt lat="42.555875591933727264404296875" lon="20.11323974467813968658447265625">
        <ele>1851</ele>
        <time>2026-06-20T06:18:01.000Z</time>
        <extensions>
          <ns3:TrackPointExtension>
            <ns3:atemp>21.0</ns3:atemp>
          </ns3:TrackPointExtension>
        </extensions>
      </trkpt>
      <trkpt lat="42.555860169231891632080078125" lon="20.113248042762279510498046875">
        <ele>1851.199951171875</ele>
        <time>2026-06-20T06:18:02.000Z</time>
        <extensions>
          <ns3:TrackPointExtension>
            <ns3:atemp>21.0</ns3:atemp>
          </ns3:TrackPointExtension>
        </extensions>
      </trkpt>
      <trkpt lat="42.55584483034908771514892578125" lon="20.113260112702846527099609375">
        <ele>1851.5999755859375</ele>
        <time>2026-06-20T06:18:03.000Z</time>
        <extensions>
          <ns3:TrackPointExtension>
            <ns3:atemp>21.0</ns3:atemp>
          </ns3:TrackPointExtension>
        </extensions>
      </trkpt>
      <trkpt lat="42.55582437850534915924072265625" lon="20.1132720150053501129150390625">
        <ele>1851.800048828125</ele>
        <time>2026-06-20T06:18:04.000Z</time>
        <extensions>
          <ns3:TrackPointExtension>
            <ns3:atemp>21.0</ns3:atemp>
          </ns3:TrackPointExtension>
        </extensions>
      </trkpt>
      <trkpt lat="42.5558016635477542877197265625" lon="20.11328936554491519927978515625">
        <ele>1852</ele>
        <time>2026-06-20T06:18:05.000Z</time>
        <extensions>
          <ns3:TrackPointExtension>
            <ns3:atemp>21.0</ns3:atemp>
          </ns3:TrackPointExtension>
        </extensions>
      </trkpt>
      <trkpt lat="42.5557808764278888702392578125" lon="20.1133085601031780242919921875">
        <ele>1852.199951171875</ele>
        <time>2026-06-20T06:18:06.000Z</time>
        <extensions>
          <ns3:TrackPointExtension>
            <ns3:atemp>21.0</ns3:atemp>
          </ns3:TrackPointExtension>
        </extensions>
      </trkpt>
      <trkpt lat="42.555758245289325714111328125" lon="20.11333127506077289581298828125">
        <ele>1852.199951171875</ele>
        <time>2026-06-20T06:18:07.000Z</time>
        <extensions>
          <ns3:TrackPointExtension>
            <ns3:atemp>21.0</ns3:atemp>
          </ns3:TrackPointExtension>
        </extensions>
      </trkpt>
      <trkpt lat="42.55573469214141368865966796875" lon="20.113356672227382659912109375">
        <ele>1852.199951171875</ele>
        <time>2026-06-20T06:18:08.000Z</time>
        <extensions>
          <ns3:TrackPointExtension>
            <ns3:atemp>21.0</ns3:atemp>
          </ns3:TrackPointExtension>
        </extensions>
      </trkpt>
      <trkpt lat="42.55570988170802593231201171875" lon="20.11338072828948497772216796875">
        <ele>1852.199951171875</ele>
        <time>2026-06-20T06:18:09.000Z</time>
        <extensions>
          <ns3:TrackPointExtension>
            <ns3:atemp>21.0</ns3:atemp>
          </ns3:TrackPointExtension>
        </extensions>
      </trkpt>
      <trkpt lat="42.555685825645923614501953125" lon="20.11341190896928310394287109375">
        <ele>1852.199951171875</ele>
        <time>2026-06-20T06:18:10.000Z</time>
        <extensions>
          <ns3:TrackPointExtension>
            <ns3:atemp>21.0</ns3:atemp>
          </ns3:TrackPointExtension>
        </extensions>
      </trkpt>
      <trkpt lat="42.555664367973804473876953125" lon="20.11344124563038349151611328125">
        <ele>1852.4000244140625</ele>
        <time>2026-06-20T06:18:11.000Z</time>
        <extensions>
          <ns3:TrackPointExtension>
            <ns3:atemp>21.0</ns3:atemp>
          </ns3:TrackPointExtension>
        </extensions>
      </trkpt>
      <trkpt lat="42.5556373782455921173095703125" lon="20.1134725101292133331298828125">
        <ele>1852.4000244140625</ele>
        <time>2026-06-20T06:18:12.000Z</time>
        <extensions>
          <ns3:TrackPointExtension>
            <ns3:atemp>21.0</ns3:atemp>
          </ns3:TrackPointExtension>
        </extensions>
      </trkpt>
      <trkpt lat="42.5556077063083648681640625" lon="20.1134978234767913818359375">
        <ele>1852.5999755859375</ele>
        <time>2026-06-20T06:18:13.000Z</time>
        <extensions>
          <ns3:TrackPointExtension>
            <ns3:atemp>21.0</ns3:atemp>
          </ns3:TrackPointExtension>
        </extensions>
      </trkpt>
      <trkpt lat="42.55557929165661334991455078125" lon="20.11352472938597202301025390625">
        <ele>1852.5999755859375</ele>
        <time>2026-06-20T06:18:14.000Z</time>
        <extensions>
          <ns3:TrackPointExtension>
            <ns3:atemp>21.0</ns3:atemp>
          </ns3:TrackPointExtension>
        </extensions>
      </trkpt>
      <trkpt lat="42.55555414594709873199462890625" lon="20.11354518122971057891845703125">
        <ele>1852.5999755859375</ele>
        <time>2026-06-20T06:18:15.000Z</time>
        <extensions>
          <ns3:TrackPointExtension>
            <ns3:atemp>21.0</ns3:atemp>
          </ns3:TrackPointExtension>
        </extensions>
      </trkpt>
      <trkpt lat="42.55552564747631549835205078125" lon="20.11356462724506855010986328125">
        <ele>1852.5999755859375</ele>
        <time>2026-06-20T06:18:16.000Z</time>
        <extensions>
          <ns3:TrackPointExtension>
            <ns3:atemp>21.0</ns3:atemp>
          </ns3:TrackPointExtension>
        </extensions>
      </trkpt>
      <trkpt lat="42.55549765191972255706787109375" lon="20.113583989441394805908203125">
        <ele>1852.800048828125</ele>
        <time>2026-06-20T06:18:17.000Z</time>
        <extensions>
          <ns3:TrackPointExtension>
            <ns3:atemp>21.0</ns3:atemp>
          </ns3:TrackPointExtension>
        </extensions>
      </trkpt>
      <trkpt lat="42.55546647123992443084716796875" lon="20.11360653676092624664306640625">
        <ele>1852.800048828125</ele>
        <time>2026-06-20T06:18:18.000Z</time>
        <extensions>
          <ns3:TrackPointExtension>
            <ns3:atemp>21.0</ns3:atemp>
          </ns3:TrackPointExtension>
        </extensions>
      </trkpt>
      <trkpt lat="42.5554348714649677276611328125" lon="20.1136264018714427947998046875">
        <ele>1852.800048828125</ele>
        <time>2026-06-20T06:18:19.000Z</time>
        <extensions>
          <ns3:TrackPointExtension>
            <ns3:atemp>21.0</ns3:atemp>
          </ns3:TrackPointExtension>
        </extensions>
      </trkpt>
      <trkpt lat="42.55540989339351654052734375" lon="20.113645009696483612060546875">
        <ele>1853</ele>
        <time>2026-06-20T06:18:20.000Z</time>
        <extensions>
          <ns3:TrackPointExtension>
            <ns3:atemp>21.0</ns3:atemp>
          </ns3:TrackPointExtension>
        </extensions>
      </trkpt>
      <trkpt lat="42.55538575351238250732421875" lon="20.1136641204357147216796875">
        <ele>1853</ele>
        <time>2026-06-20T06:18:21.000Z</time>
        <extensions>
          <ns3:TrackPointExtension>
            <ns3:atemp>21.0</ns3:atemp>
          </ns3:TrackPointExtension>
        </extensions>
      </trkpt>
      <trkpt lat="42.55535800941288471221923828125" lon="20.11368080042302608489990234375">
        <ele>1853</ele>
        <time>2026-06-20T06:18:22.000Z</time>
        <extensions>
          <ns3:TrackPointExtension>
            <ns3:atemp>21.0</ns3:atemp>
          </ns3:TrackPointExtension>
        </extensions>
      </trkpt>
      <trkpt lat="42.5553306005895137786865234375" lon="20.113697983324527740478515625">
        <ele>1853.199951171875</ele>
        <time>2026-06-20T06:18:23.000Z</time>
        <extensions>
          <ns3:TrackPointExtension>
            <ns3:atemp>21.0</ns3:atemp>
          </ns3:TrackPointExtension>
        </extensions>
      </trkpt>
      <trkpt lat="42.5552997551858425140380859375" lon="20.1137145794928073883056640625">
        <ele>1853.199951171875</ele>
        <time>2026-06-20T06:18:24.000Z</time>
        <extensions>
          <ns3:TrackPointExtension>
            <ns3:atemp>21.0</ns3:atemp>
          </ns3:TrackPointExtension>
        </extensions>
      </trkpt>
      <trkpt lat="42.555265724658966064453125" lon="20.11372991837561130523681640625">
        <ele>1853.199951171875</ele>
        <time>2026-06-20T06:18:25.000Z</time>
        <extensions>
          <ns3:TrackPointExtension>
            <ns3:atemp>21.0</ns3:atemp>
          </ns3:TrackPointExtension>
        </extensions>
      </trkpt>
      <trkpt lat="42.555229179561138153076171875" lon="20.1137472689151763916015625">
        <ele>1853.4000244140625</ele>
        <time>2026-06-20T06:18:26.000Z</time>
        <extensions>
          <ns3:TrackPointExtension>
            <ns3:atemp>21.0</ns3:atemp>
          </ns3:TrackPointExtension>
        </extensions>
      </trkpt>
      <trkpt lat="42.555192969739437103271484375" lon="20.113756991922855377197265625">
        <ele>1853.4000244140625</ele>
        <time>2026-06-20T06:18:27.000Z</time>
        <extensions>
          <ns3:TrackPointExtension>
            <ns3:atemp>21.0</ns3:atemp>
          </ns3:TrackPointExtension>
        </extensions>
      </trkpt>
      <trkpt lat="42.5551589392125606536865234375" lon="20.11376612819731235504150390625">
        <ele>1853.4000244140625</ele>
        <time>2026-06-20T06:18:28.000Z</time>
        <extensions>
          <ns3:TrackPointExtension>
            <ns3:atemp>21.0</ns3:atemp>
          </ns3:TrackPointExtension>
        </extensions>
      </trkpt>
      <trkpt lat="42.55513085983693599700927734375" lon="20.1137732528150081634521484375">
        <ele>1853.199951171875</ele>
        <time>2026-06-20T06:18:29.000Z</time>
        <extensions>
          <ns3:TrackPointExtension>
            <ns3:atemp>21.0</ns3:atemp>
          </ns3:TrackPointExtension>
        </extensions>
      </trkpt>
      <trkpt lat="42.55510705523192882537841796875" lon="20.11378037743270397186279296875">
        <ele>1853.4000244140625</ele>
        <time>2026-06-20T06:18:30.000Z</time>
        <extensions>
          <ns3:TrackPointExtension>
            <ns3:atemp>21.0</ns3:atemp>
          </ns3:TrackPointExtension>
        </extensions>
      </trkpt>
      <trkpt lat="42.55508400499820709228515625" lon="20.11379227973520755767822265625">
        <ele>1853.4000244140625</ele>
        <time>2026-06-20T06:18:31.000Z</time>
        <extensions>
          <ns3:TrackPointExtension>
            <ns3:atemp>21.0</ns3:atemp>
          </ns3:TrackPointExtension>
        </extensions>
      </trkpt>
      <trkpt lat="42.5550590269267559051513671875" lon="20.113799907267093658447265625">
        <ele>1853.4000244140625</ele>
        <time>2026-06-20T06:18:32.000Z</time>
        <extensions>
          <ns3:TrackPointExtension>
            <ns3:atemp>21.0</ns3:atemp>
          </ns3:TrackPointExtension>
        </extensions>
      </trkpt>
      <trkpt lat="42.55503245629370212554931640625" lon="20.11380384676158428192138671875">
        <ele>1853.4000244140625</ele>
        <time>2026-06-20T06:18:33.000Z</time>
        <extensions>
          <ns3:TrackPointExtension>
            <ns3:atemp>21.0</ns3:atemp>
          </ns3:TrackPointExtension>
        </extensions>
      </trkpt>
      <trkpt lat="42.555002532899379730224609375" lon="20.11380954645574092864990234375">
        <ele>1853.4000244140625</ele>
        <time>2026-06-20T06:18:34.000Z</time>
        <extensions>
          <ns3:TrackPointExtension>
            <ns3:atemp>21.0</ns3:atemp>
          </ns3:TrackPointExtension>
        </extensions>
      </trkpt>
      <trkpt lat="42.55497939884662628173828125" lon="20.1138144917786121368408203125">
        <ele>1853.4000244140625</ele>
        <time>2026-06-20T06:18:35.000Z</time>
        <extensions>
          <ns3:TrackPointExtension>
            <ns3:atemp>21.0</ns3:atemp>
          </ns3:TrackPointExtension>
        </extensions>
      </trkpt>
      <trkpt lat="42.55495483987033367156982421875" lon="20.1138210296630859375">
        <ele>1853.5999755859375</ele>
        <time>2026-06-20T06:18:36.000Z</time>
        <extensions>
          <ns3:TrackPointExtension>
            <ns3:atemp>21.0</ns3:atemp>
          </ns3:TrackPointExtension>
        </extensions>
      </trkpt>
      <trkpt lat="42.55493648350238800048828125" lon="20.11382304131984710693359375">
        <ele>1853.800048828125</ele>
        <time>2026-06-20T06:18:37.000Z</time>
        <extensions>
          <ns3:TrackPointExtension>
            <ns3:atemp>21.0</ns3:atemp>
          </ns3:TrackPointExtension>
        </extensions>
      </trkpt>
      <trkpt lat="42.55491611547768115997314453125" lon="20.11382295750081539154052734375">
        <ele>1854</ele>
        <time>2026-06-20T06:18:38.000Z</time>
        <extensions>
          <ns3:TrackPointExtension>
            <ns3:atemp>21.0</ns3:atemp>
          </ns3:TrackPointExtension>
        </extensions>
      </trkpt>
      <trkpt lat="42.5548954121768474578857421875" lon="20.11382245458662509918212890625">
        <ele>1854.199951171875</ele>
        <time>2026-06-20T06:18:39.000Z</time>
        <extensions>
          <ns3:TrackPointExtension>
            <ns3:atemp>21.0</ns3:atemp>
          </ns3:TrackPointExtension>
        </extensions>
      </trkpt>
      <trkpt lat="42.55487571470439434051513671875" lon="20.1138215325772762298583984375">
        <ele>1854.5999755859375</ele>
        <time>2026-06-20T06:18:40.000Z</time>
        <extensions>
          <ns3:TrackPointExtension>
            <ns3:atemp>21.0</ns3:atemp>
          </ns3:TrackPointExtension>
        </extensions>
      </trkpt>
      <trkpt lat="42.554855681955814361572265625" lon="20.11381901800632476806640625">
        <ele>1854.800048828125</ele>
        <time>2026-06-20T06:18:41.000Z</time>
        <extensions>
          <ns3:TrackPointExtension>
            <ns3:atemp>21.0</ns3:atemp>
          </ns3:TrackPointExtension>
        </extensions>
      </trkpt>
      <trkpt lat="42.55483631975948810577392578125" lon="20.1138181798160076141357421875">
        <ele>1855</ele>
        <time>2026-06-20T06:18:42.000Z</time>
        <extensions>
          <ns3:TrackPointExtension>
            <ns3:atemp>21.0</ns3:atemp>
          </ns3:TrackPointExtension>
        </extensions>
      </trkpt>
      <trkpt lat="42.55481536500155925750732421875" lon="20.1138178445398807525634765625">
        <ele>1855.199951171875</ele>
        <time>2026-06-20T06:18:43.000Z</time>
        <extensions>
          <ns3:TrackPointExtension>
            <ns3:atemp>21.0</ns3:atemp>
          </ns3:TrackPointExtension>
        </extensions>
      </trkpt>
      <trkpt lat="42.554794661700725555419921875" lon="20.113815329968929290771484375">
        <ele>1855.4000244140625</ele>
        <time>2026-06-20T06:18:44.000Z</time>
        <extensions>
          <ns3:TrackPointExtension>
            <ns3:atemp>21.0</ns3:atemp>
          </ns3:TrackPointExtension>
        </extensions>
      </trkpt>
      <trkpt lat="42.55477446131408214569091796875" lon="20.1138104684650897979736328125">
        <ele>1855.5999755859375</ele>
        <time>2026-06-20T06:18:45.000Z</time>
        <extensions>
          <ns3:TrackPointExtension>
            <ns3:atemp>21.0</ns3:atemp>
          </ns3:TrackPointExtension>
        </extensions>
      </trkpt>
      <trkpt lat="42.55475400947034358978271484375" lon="20.11380694806575775146484375">
        <ele>1856</ele>
        <time>2026-06-20T06:18:46.000Z</time>
        <extensions>
          <ns3:TrackPointExtension>
            <ns3:atemp>21.0</ns3:atemp>
          </ns3:TrackPointExtension>
        </extensions>
      </trkpt>
      <trkpt lat="42.55473188124597072601318359375" lon="20.1138035953044891357421875">
        <ele>1856.4000244140625</ele>
        <time>2026-06-20T06:18:47.000Z</time>
        <extensions>
          <ns3:TrackPointExtension>
            <ns3:atemp>20.0</ns3:atemp>
          </ns3:TrackPointExtension>
        </extensions>
      </trkpt>
      <trkpt lat="42.55471126176416873931884765625" lon="20.1137982308864593505859375">
        <ele>1856.5999755859375</ele>
        <time>2026-06-20T06:18:48.000Z</time>
        <extensions>
          <ns3:TrackPointExtension>
            <ns3:atemp>20.0</ns3:atemp>
          </ns3:TrackPointExtension>
        </extensions>
      </trkpt>
      <trkpt lat="42.554694078862667083740234375" lon="20.1137916930019855499267578125">
        <ele>1857</ele>
        <time>2026-06-20T06:18:49.000Z</time>
        <extensions>
          <ns3:TrackPointExtension>
            <ns3:atemp>20.0</ns3:atemp>
          </ns3:TrackPointExtension>
        </extensions>
      </trkpt>
      <trkpt lat="42.5546761415898799896240234375" lon="20.11379060335457324981689453125">
        <ele>1857.199951171875</ele>
        <time>2026-06-20T06:18:50.000Z</time>
        <extensions>
          <ns3:TrackPointExtension>
            <ns3:atemp>21.0</ns3:atemp>
          </ns3:TrackPointExtension>
        </extensions>
      </trkpt>
      <trkpt lat="42.554657869040966033935546875" lon="20.113791525363922119140625">
        <ele>1857.5999755859375</ele>
        <time>2026-06-20T06:18:51.000Z</time>
        <extensions>
          <ns3:TrackPointExtension>
            <ns3:atemp>21.0</ns3:atemp>
          </ns3:TrackPointExtension>
        </extensions>
      </trkpt>
      <trkpt lat="42.554641105234622955322265625" lon="20.113788507878780364990234375">
        <ele>1858</ele>
        <time>2026-06-20T06:18:52.000Z</time>
        <extensions>
          <ns3:TrackPointExtension>
            <ns3:atemp>20.0</ns3:atemp>
          </ns3:TrackPointExtension>
        </extensions>
      </trkpt>
      <trkpt lat="42.55462408997118473052978515625" lon="20.1137839816510677337646484375">
        <ele>1858.199951171875</ele>
        <time>2026-06-20T06:18:53.000Z</time>
        <extensions>
          <ns3:TrackPointExtension>
            <ns3:atemp>20.0</ns3:atemp>
          </ns3:TrackPointExtension>
        </extensions>
      </trkpt>
      <trkpt lat="42.55460548214614391326904296875" lon="20.11377920396625995635986328125">
        <ele>1858.5999755859375</ele>
        <time>2026-06-20T06:18:54.000Z</time>
        <extensions>
          <ns3:TrackPointExtension>
            <ns3:atemp>20.0</ns3:atemp>
          </ns3:TrackPointExtension>
        </extensions>
      </trkpt>
      <trkpt lat="42.55458913743495941162109375" lon="20.11377266608178615570068359375">
        <ele>1859</ele>
        <time>2026-06-20T06:18:55.000Z</time>
        <extensions>
          <ns3:TrackPointExtension>
            <ns3:atemp>20.0</ns3:atemp>
          </ns3:TrackPointExtension>
        </extensions>
      </trkpt>
      <trkpt lat="42.5545735470950603485107421875" lon="20.113767050206661224365234375">
        <ele>1859.199951171875</ele>
        <time>2026-06-20T06:18:56.000Z</time>
        <extensions>
          <ns3:TrackPointExtension>
            <ns3:atemp>20.0</ns3:atemp>
          </ns3:TrackPointExtension>
        </extensions>
      </trkpt>
      <trkpt lat="42.5545554421842098236083984375" lon="20.1137648709118366241455078125">
        <ele>1859.4000244140625</ele>
        <time>2026-06-20T06:18:57.000Z</time>
        <extensions>
          <ns3:TrackPointExtension>
            <ns3:atemp>20.0</ns3:atemp>
          </ns3:TrackPointExtension>
        </extensions>
      </trkpt>
      <trkpt lat="42.55453540943562984466552734375" lon="20.11376294307410717010498046875">
        <ele>1859.800048828125</ele>
        <time>2026-06-20T06:18:58.000Z</time>
        <extensions>
          <ns3:TrackPointExtension>
            <ns3:atemp>20.0</ns3:atemp>
          </ns3:TrackPointExtension>
        </extensions>
      </trkpt>
      <trkpt lat="42.55451244302093982696533203125" lon="20.113757662475109100341796875">
        <ele>1860</ele>
        <time>2026-06-20T06:18:59.000Z</time>
        <extensions>
          <ns3:TrackPointExtension>
            <ns3:atemp>20.0</ns3:atemp>
          </ns3:TrackPointExtension>
        </extensions>
      </trkpt>
      <trkpt lat="42.554490230977535247802734375" lon="20.113752298057079315185546875">
        <ele>1860.199951171875</ele>
        <time>2026-06-20T06:19:00.000Z</time>
        <extensions>
          <ns3:TrackPointExtension>
            <ns3:atemp>20.0</ns3:atemp>
          </ns3:TrackPointExtension>
        </extensions>
      </trkpt>
      <trkpt lat="42.5544669292867183685302734375" lon="20.113742910325527191162109375">
        <ele>1860.5999755859375</ele>
        <time>2026-06-20T06:19:01.000Z</time>
        <extensions>
          <ns3:TrackPointExtension>
            <ns3:atemp>20.0</ns3:atemp>
          </ns3:TrackPointExtension>
        </extensions>
      </trkpt>
      <trkpt lat="42.554443962872028350830078125" lon="20.11373729445040225982666015625">
        <ele>1860.800048828125</ele>
        <time>2026-06-20T06:19:02.000Z</time>
        <extensions>
          <ns3:TrackPointExtension>
            <ns3:atemp>20.0</ns3:atemp>
          </ns3:TrackPointExtension>
        </extensions>
      </trkpt>
      <trkpt lat="42.55441973917186260223388671875" lon="20.11373042128980159759521484375">
        <ele>1861</ele>
        <time>2026-06-20T06:19:03.000Z</time>
        <extensions>
          <ns3:TrackPointExtension>
            <ns3:atemp>20.0</ns3:atemp>
          </ns3:TrackPointExtension>
        </extensions>
      </trkpt>
      <trkpt lat="42.55439601838588714599609375" lon="20.11372136883437633514404296875">
        <ele>1861.199951171875</ele>
        <time>2026-06-20T06:19:04.000Z</time>
        <extensions>
          <ns3:TrackPointExtension>
            <ns3:atemp>20.0</ns3:atemp>
          </ns3:TrackPointExtension>
        </extensions>
      </trkpt>
      <trkpt lat="42.55437347106635570526123046875" lon="20.113710723817348480224609375">
        <ele>1861.4000244140625</ele>
        <time>2026-06-20T06:19:05.000Z</time>
        <extensions>
          <ns3:TrackPointExtension>
            <ns3:atemp>20.0</ns3:atemp>
          </ns3:TrackPointExtension>
        </extensions>
      </trkpt>
      <trkpt lat="42.554347403347492218017578125" lon="20.1137070357799530029296875">
        <ele>1861.5999755859375</ele>
        <time>2026-06-20T06:19:06.000Z</time>
        <extensions>
          <ns3:TrackPointExtension>
            <ns3:atemp>20.0</ns3:atemp>
          </ns3:TrackPointExtension>
        </extensions>
      </trkpt>
      <trkpt lat="42.554321922361850738525390625" lon="20.1137021742761135101318359375">
        <ele>1861.800048828125</ele>
        <time>2026-06-20T06:19:07.000Z</time>
        <extensions>
          <ns3:TrackPointExtension>
            <ns3:atemp>20.0</ns3:atemp>
          </ns3:TrackPointExtension>
        </extensions>
      </trkpt>
      <trkpt lat="42.55429409444332122802734375" lon="20.11369773186743259429931640625">
        <ele>1862</ele>
        <time>2026-06-20T06:19:08.000Z</time>
        <extensions>
          <ns3:TrackPointExtension>
            <ns3:atemp>20.0</ns3:atemp>
          </ns3:TrackPointExtension>
        </extensions>
      </trkpt>
      <trkpt lat="42.5542667694389820098876953125" lon="20.11369052343070507049560546875">
        <ele>1862.199951171875</ele>
        <time>2026-06-20T06:19:09.000Z</time>
        <extensions>
          <ns3:TrackPointExtension>
            <ns3:atemp>20.0</ns3:atemp>
          </ns3:TrackPointExtension>
        </extensions>
      </trkpt>
      <trkpt lat="42.5542365945875644683837890625" lon="20.11368482373654842376708984375">
        <ele>1862.4000244140625</ele>
        <time>2026-06-20T06:19:10.000Z</time>
        <extensions>
          <ns3:TrackPointExtension>
            <ns3:atemp>20.0</ns3:atemp>
          </ns3:TrackPointExtension>
        </extensions>
      </trkpt>
      <trkpt lat="42.55420398898422718048095703125" lon="20.1136837340891361236572265625">
        <ele>1862.4000244140625</ele>
        <time>2026-06-20T06:19:11.000Z</time>
        <extensions>
          <ns3:TrackPointExtension>
            <ns3:atemp>20.0</ns3:atemp>
          </ns3:TrackPointExtension>
        </extensions>
      </trkpt>
      <trkpt lat="42.5541712157428264617919921875" lon="20.11368800885975360870361328125">
        <ele>1862.5999755859375</ele>
        <time>2026-06-20T06:19:12.000Z</time>
        <extensions>
          <ns3:TrackPointExtension>
            <ns3:atemp>20.0</ns3:atemp>
          </ns3:TrackPointExtension>
        </extensions>
      </trkpt>
      <trkpt lat="42.5541353411972522735595703125" lon="20.1136937923729419708251953125">
        <ele>1862.800048828125</ele>
        <time>2026-06-20T06:19:13.000Z</time>
        <extensions>
          <ns3:TrackPointExtension>
            <ns3:atemp>20.0</ns3:atemp>
          </ns3:TrackPointExtension>
        </extensions>
      </trkpt>
      <trkpt lat="42.55410172976553440093994140625" lon="20.11370041407644748687744140625">
        <ele>1862.800048828125</ele>
        <time>2026-06-20T06:19:14.000Z</time>
        <extensions>
          <ns3:TrackPointExtension>
            <ns3:atemp>20.0</ns3:atemp>
          </ns3:TrackPointExtension>
        </extensions>
      </trkpt>
      <trkpt lat="42.55406551994383335113525390625" lon="20.11370711959898471832275390625">
        <ele>1862.5999755859375</ele>
        <time>2026-06-20T06:19:15.000Z</time>
        <extensions>
          <ns3:TrackPointExtension>
            <ns3:atemp>20.0</ns3:atemp>
          </ns3:TrackPointExtension>
        </extensions>
      </trkpt>
      <trkpt lat="42.55403484217822551727294921875" lon="20.11370611377060413360595703125">
        <ele>1862.800048828125</ele>
        <time>2026-06-20T06:19:16.000Z</time>
        <extensions>
          <ns3:TrackPointExtension>
            <ns3:atemp>20.0</ns3:atemp>
          </ns3:TrackPointExtension>
        </extensions>
      </trkpt>
      <trkpt lat="42.55401112139225006103515625" lon="20.11369890533387660980224609375">
        <ele>1862.800048828125</ele>
        <time>2026-06-20T06:19:17.000Z</time>
        <extensions>
          <ns3:TrackPointExtension>
            <ns3:atemp>20.0</ns3:atemp>
          </ns3:TrackPointExtension>
        </extensions>
      </trkpt>
      <trkpt lat="42.5539884902536869049072265625" lon="20.11369722895324230194091796875">
        <ele>1863</ele>
        <time>2026-06-20T06:19:18.000Z</time>
        <extensions>
          <ns3:TrackPointExtension>
            <ns3:atemp>20.0</ns3:atemp>
          </ns3:TrackPointExtension>
        </extensions>
      </trkpt>
      <trkpt lat="42.55396560765802860260009765625" lon="20.1136951334774494171142578125">
        <ele>1863.199951171875</ele>
        <time>2026-06-20T06:19:19.000Z</time>
        <extensions>
          <ns3:TrackPointExtension>
            <ns3:atemp>20.0</ns3:atemp>
          </ns3:TrackPointExtension>
        </extensions>
      </trkpt>
      <trkpt lat="42.553939707577228546142578125" lon="20.11368398554623126983642578125">
        <ele>1863.4000244140625</ele>
        <time>2026-06-20T06:19:20.000Z</time>
        <extensions>
          <ns3:TrackPointExtension>
            <ns3:atemp>20.0</ns3:atemp>
          </ns3:TrackPointExtension>
        </extensions>
      </trkpt>
      <trkpt lat="42.55391414277255535125732421875" lon="20.11367074213922023773193359375">
        <ele>1863.5999755859375</ele>
        <time>2026-06-20T06:19:21.000Z</time>
        <extensions>
          <ns3:TrackPointExtension>
            <ns3:atemp>20.0</ns3:atemp>
          </ns3:TrackPointExtension>
        </extensions>
      </trkpt>
      <trkpt lat="42.553887404501438140869140625" lon="20.1136629469692707061767578125">
        <ele>1863.800048828125</ele>
        <time>2026-06-20T06:19:22.000Z</time>
        <extensions>
          <ns3:TrackPointExtension>
            <ns3:atemp>20.0</ns3:atemp>
          </ns3:TrackPointExtension>
        </extensions>
      </trkpt>
      <trkpt lat="42.553863935172557830810546875" lon="20.11365808546543121337890625">
        <ele>1863.800048828125</ele>
        <time>2026-06-20T06:19:23.000Z</time>
        <extensions>
          <ns3:TrackPointExtension>
            <ns3:atemp>20.0</ns3:atemp>
          </ns3:TrackPointExtension>
        </extensions>
      </trkpt>
      <trkpt lat="42.55384122021496295928955078125" lon="20.11365397833287715911865234375">
        <ele>1864</ele>
        <time>2026-06-20T06:19:24.000Z</time>
        <extensions>
          <ns3:TrackPointExtension>
            <ns3:atemp>20.0</ns3:atemp>
          </ns3:TrackPointExtension>
        </extensions>
      </trkpt>
      <trkpt lat="42.55381674505770206451416015625" lon="20.1136505417525768280029296875">
        <ele>1864.199951171875</ele>
        <time>2026-06-20T06:19:25.000Z</time>
        <extensions>
          <ns3:TrackPointExtension>
            <ns3:atemp>20.0</ns3:atemp>
          </ns3:TrackPointExtension>
        </extensions>
      </trkpt>
      <trkpt lat="42.55379109643399715423583984375" lon="20.1136471889913082122802734375">
        <ele>1864.4000244140625</ele>
        <time>2026-06-20T06:19:26.000Z</time>
        <extensions>
          <ns3:TrackPointExtension>
            <ns3:atemp>20.0</ns3:atemp>
          </ns3:TrackPointExtension>
        </extensions>
      </trkpt>
      <trkpt lat="42.55376595072448253631591796875" lon="20.1136426627635955810546875">
        <ele>1864.5999755859375</ele>
        <time>2026-06-20T06:19:27.000Z</time>
        <extensions>
          <ns3:TrackPointExtension>
            <ns3:atemp>20.0</ns3:atemp>
          </ns3:TrackPointExtension>
        </extensions>
      </trkpt>
      <trkpt lat="42.55373527295887470245361328125" lon="20.1136388070881366729736328125">
        <ele>1865</ele>
        <time>2026-06-20T06:19:28.000Z</time>
        <extensions>
          <ns3:TrackPointExtension>
            <ns3:atemp>20.0</ns3:atemp>
          </ns3:TrackPointExtension>
        </extensions>
      </trkpt>
      <trkpt lat="42.5536988116800785064697265625" lon="20.11363528668880462646484375">
        <ele>1865.199951171875</ele>
        <time>2026-06-20T06:19:29.000Z</time>
        <extensions>
          <ns3:TrackPointExtension>
            <ns3:atemp>20.0</ns3:atemp>
          </ns3:TrackPointExtension>
        </extensions>
      </trkpt>
      <trkpt lat="42.55366235040128231048583984375" lon="20.113630257546901702880859375">
        <ele>1865.199951171875</ele>
        <time>2026-06-20T06:19:30.000Z</time>
        <extensions>
          <ns3:TrackPointExtension>
            <ns3:atemp>20.0</ns3:atemp>
          </ns3:TrackPointExtension>
        </extensions>
      </trkpt>
      <trkpt lat="42.55362681113183498382568359375" lon="20.11362313292920589447021484375">
        <ele>1865.4000244140625</ele>
        <time>2026-06-20T06:19:31.000Z</time>
        <extensions>
          <ns3:TrackPointExtension>
            <ns3:atemp>20.0</ns3:atemp>
          </ns3:TrackPointExtension>
        </extensions>
      </trkpt>
      <trkpt lat="42.553590349853038787841796875" lon="20.11361139826476573944091796875">
        <ele>1865.4000244140625</ele>
        <time>2026-06-20T06:19:32.000Z</time>
        <extensions>
          <ns3:TrackPointExtension>
            <ns3:atemp>20.0</ns3:atemp>
          </ns3:TrackPointExtension>
        </extensions>
      </trkpt>
      <trkpt lat="42.5535583309829235076904296875" lon="20.11360251344740390777587890625">
        <ele>1865.5999755859375</ele>
        <time>2026-06-20T06:19:33.000Z</time>
        <extensions>
          <ns3:TrackPointExtension>
            <ns3:atemp>20.0</ns3:atemp>
          </ns3:TrackPointExtension>
        </extensions>
      </trkpt>
      <trkpt lat="42.55352706648409366607666015625" lon="20.113595388829708099365234375">
        <ele>1865.800048828125</ele>
        <time>2026-06-20T06:19:34.000Z</time>
        <extensions>
          <ns3:TrackPointExtension>
            <ns3:atemp>20.0</ns3:atemp>
          </ns3:TrackPointExtension>
        </extensions>
      </trkpt>
      <trkpt lat="42.5535009987652301788330078125" lon="20.1135861687362194061279296875">
        <ele>1865.800048828125</ele>
        <time>2026-06-20T06:19:35.000Z</time>
        <extensions>
          <ns3:TrackPointExtension>
            <ns3:atemp>20.0</ns3:atemp>
          </ns3:TrackPointExtension>
        </extensions>
      </trkpt>
      <trkpt lat="42.55347191356122493743896484375" lon="20.1135797984898090362548828125">
        <ele>1866.199951171875</ele>
        <time>2026-06-20T06:19:36.000Z</time>
        <extensions>
          <ns3:TrackPointExtension>
            <ns3:atemp>20.0</ns3:atemp>
          </ns3:TrackPointExtension>
        </extensions>
      </trkpt>
      <trkpt lat="42.55344106815755367279052734375" lon="20.113575942814350128173828125">
        <ele>1866.4000244140625</ele>
        <time>2026-06-20T06:19:37.000Z</time>
        <extensions>
          <ns3:TrackPointExtension>
            <ns3:atemp>20.0</ns3:atemp>
          </ns3:TrackPointExtension>
        </extensions>
      </trkpt>
      <trkpt lat="42.55341340787708759307861328125" lon="20.11356915347278118133544921875">
        <ele>1866.5999755859375</ele>
        <time>2026-06-20T06:19:38.000Z</time>
        <extensions>
          <ns3:TrackPointExtension>
            <ns3:atemp>20.0</ns3:atemp>
          </ns3:TrackPointExtension>
        </extensions>
      </trkpt>
      <trkpt lat="42.5533896870911121368408203125" lon="20.1135623641312122344970703125">
        <ele>1866.800048828125</ele>
        <time>2026-06-20T06:19:39.000Z</time>
        <extensions>
          <ns3:TrackPointExtension>
            <ns3:atemp>20.0</ns3:atemp>
          </ns3:TrackPointExtension>
        </extensions>
      </trkpt>
      <trkpt lat="42.55336211062967777252197265625" lon="20.11355691589415073394775390625">
        <ele>1867</ele>
        <time>2026-06-20T06:19:40.000Z</time>
        <extensions>
          <ns3:TrackPointExtension>
            <ns3:atemp>20.0</ns3:atemp>
          </ns3:TrackPointExtension>
        </extensions>
      </trkpt>
      <trkpt lat="42.55333528853952884674072265625" lon="20.11355347931385040283203125">
        <ele>1867.4000244140625</ele>
        <time>2026-06-20T06:19:41.000Z</time>
        <extensions>
          <ns3:TrackPointExtension>
            <ns3:atemp>20.0</ns3:atemp>
          </ns3:TrackPointExtension>
        </extensions>
      </trkpt>
      <trkpt lat="42.55330947227776050567626953125" lon="20.1135439239442348480224609375">
        <ele>1867.800048828125</ele>
        <time>2026-06-20T06:19:42.000Z</time>
        <extensions>
          <ns3:TrackPointExtension>
            <ns3:atemp>20.0</ns3:atemp>
          </ns3:TrackPointExtension>
        </extensions>
      </trkpt>
      <trkpt lat="42.55328617058694362640380859375" lon="20.11353604495525360107421875">
        <ele>1868.199951171875</ele>
        <time>2026-06-20T06:19:43.000Z</time>
        <extensions>
          <ns3:TrackPointExtension>
            <ns3:atemp>20.0</ns3:atemp>
          </ns3:TrackPointExtension>
        </extensions>
      </trkpt>
      <trkpt lat="42.5532585941255092620849609375" lon="20.1135288365185260772705078125">
        <ele>1868.4000244140625</ele>
        <time>2026-06-20T06:19:44.000Z</time>
        <extensions>
          <ns3:TrackPointExtension>
            <ns3:atemp>20.0</ns3:atemp>
          </ns3:TrackPointExtension>
        </extensions>
      </trkpt>
      <trkpt lat="42.55323068238794803619384765625" lon="20.1135224662721157073974609375">
        <ele>1868.5999755859375</ele>
        <time>2026-06-20T06:19:45.000Z</time>
        <extensions>
          <ns3:TrackPointExtension>
            <ns3:atemp>20.0</ns3:atemp>
          </ns3:TrackPointExtension>
        </extensions>
      </trkpt>
      <trkpt lat="42.5532046146690845489501953125" lon="20.11351148597896099090576171875">
        <ele>1869</ele>
        <time>2026-06-20T06:19:46.000Z</time>
        <extensions>
          <ns3:TrackPointExtension>
            <ns3:atemp>20.0</ns3:atemp>
          </ns3:TrackPointExtension>
        </extensions>
      </trkpt>
      <trkpt lat="42.55317636765539646148681640625" lon="20.11349773965775966644287109375">
        <ele>1869.199951171875</ele>
        <time>2026-06-20T06:19:47.000Z</time>
        <extensions>
          <ns3:TrackPointExtension>
            <ns3:atemp>20.0</ns3:atemp>
          </ns3:TrackPointExtension>
        </extensions>
      </trkpt>
      <trkpt lat="42.55314971320331096649169921875" lon="20.1134852506220340728759765625">
        <ele>1869.4000244140625</ele>
        <time>2026-06-20T06:19:48.000Z</time>
        <extensions>
          <ns3:TrackPointExtension>
            <ns3:atemp>20.0</ns3:atemp>
          </ns3:TrackPointExtension>
        </extensions>
      </trkpt>
      <trkpt lat="42.5531187839806079864501953125" lon="20.1134651340544223785400390625">
        <ele>1869.5999755859375</ele>
        <time>2026-06-20T06:19:49.000Z</time>
        <extensions>
          <ns3:TrackPointExtension>
            <ns3:atemp>20.0</ns3:atemp>
          </ns3:TrackPointExtension>
        </extensions>
      </trkpt>
      <trkpt lat="42.55308634601533412933349609375" lon="20.1134430058300495147705078125">
        <ele>1869.5999755859375</ele>
        <time>2026-06-20T06:19:50.000Z</time>
        <extensions>
          <ns3:TrackPointExtension>
            <ns3:atemp>20.0</ns3:atemp>
          </ns3:TrackPointExtension>
        </extensions>
      </trkpt>
      <trkpt lat="42.55306237377226352691650390625" lon="20.11342297308146953582763671875">
        <ele>1869.800048828125</ele>
        <time>2026-06-20T06:19:51.000Z</time>
        <extensions>
          <ns3:TrackPointExtension>
            <ns3:atemp>20.0</ns3:atemp>
          </ns3:TrackPointExtension>
        </extensions>
      </trkpt>
      <trkpt lat="42.553040497004985809326171875" lon="20.1134039461612701416015625">
        <ele>1870</ele>
        <time>2026-06-20T06:19:52.000Z</time>
        <extensions>
          <ns3:TrackPointExtension>
            <ns3:atemp>20.0</ns3:atemp>
          </ns3:TrackPointExtension>
        </extensions>
      </trkpt>
      <trkpt lat="42.55301593802869319915771484375" lon="20.11338240467011928558349609375">
        <ele>1870.199951171875</ele>
        <time>2026-06-20T06:19:53.000Z</time>
        <extensions>
          <ns3:TrackPointExtension>
            <ns3:atemp>20.0</ns3:atemp>
          </ns3:TrackPointExtension>
        </extensions>
      </trkpt>
      <trkpt lat="42.55299054086208343505859375" lon="20.11336614377796649932861328125">
        <ele>1870.5999755859375</ele>
        <time>2026-06-20T06:19:54.000Z</time>
        <extensions>
          <ns3:TrackPointExtension>
            <ns3:atemp>20.0</ns3:atemp>
          </ns3:TrackPointExtension>
        </extensions>
      </trkpt>
      <trkpt lat="42.5529625453054904937744140625" lon="20.11335231363773345947265625">
        <ele>1871</ele>
        <time>2026-06-20T06:19:55.000Z</time>
        <extensions>
          <ns3:TrackPointExtension>
            <ns3:atemp>20.0</ns3:atemp>
          </ns3:TrackPointExtension>
        </extensions>
      </trkpt>
      <trkpt lat="42.55292708985507488250732421875" lon="20.11333596892654895782470703125">
        <ele>1871.199951171875</ele>
        <time>2026-06-20T06:19:56.000Z</time>
        <extensions>
          <ns3:TrackPointExtension>
            <ns3:atemp>20.0</ns3:atemp>
          </ns3:TrackPointExtension>
        </extensions>
      </trkpt>
      <trkpt lat="42.55288803018629550933837890625" lon="20.11331920512020587921142578125">
        <ele>1871.4000244140625</ele>
        <time>2026-06-20T06:19:57.000Z</time>
        <extensions>
          <ns3:TrackPointExtension>
            <ns3:atemp>20.0</ns3:atemp>
          </ns3:TrackPointExtension>
        </extensions>
      </trkpt>
      <trkpt lat="42.55284779705107212066650390625" lon="20.113296322524547576904296875">
        <ele>1871.5999755859375</ele>
        <time>2026-06-20T06:19:58.000Z</time>
        <extensions>
          <ns3:TrackPointExtension>
            <ns3:atemp>20.0</ns3:atemp>
          </ns3:TrackPointExtension>
        </extensions>
      </trkpt>
      <trkpt lat="42.55280756391584873199462890625" lon="20.1132591068744659423828125">
        <ele>1871.4000244140625</ele>
        <time>2026-06-20T06:19:59.000Z</time>
        <extensions>
          <ns3:TrackPointExtension>
            <ns3:atemp>20.0</ns3:atemp>
          </ns3:TrackPointExtension>
        </extensions>
      </trkpt>
      <trkpt lat="42.5527670793235301971435546875" lon="20.11321845464408397674560546875">
        <ele>1871.4000244140625</ele>
        <time>2026-06-20T06:20:00.000Z</time>
        <extensions>
          <ns3:TrackPointExtension>
            <ns3:atemp>20.0</ns3:atemp>
          </ns3:TrackPointExtension>
        </extensions>
      </trkpt>
      <trkpt lat="42.552728690207004547119140625" lon="20.11317369528114795684814453125">
        <ele>1871.199951171875</ele>
        <time>2026-06-20T06:20:01.000Z</time>
        <extensions>
          <ns3:TrackPointExtension>
            <ns3:atemp>20.0</ns3:atemp>
          </ns3:TrackPointExtension>
        </extensions>
      </trkpt>
      <trkpt lat="42.5526879541575908660888671875" lon="20.11313916184008121490478515625">
        <ele>1871.199951171875</ele>
        <time>2026-06-20T06:20:02.000Z</time>
        <extensions>
          <ns3:TrackPointExtension>
            <ns3:atemp>20.0</ns3:atemp>
          </ns3:TrackPointExtension>
        </extensions>
      </trkpt>
      <trkpt lat="42.55265367217361927032470703125" lon="20.11310420930385589599609375">
        <ele>1870.800048828125</ele>
        <time>2026-06-20T06:20:03.000Z</time>
        <extensions>
          <ns3:TrackPointExtension>
            <ns3:atemp>20.0</ns3:atemp>
          </ns3:TrackPointExtension>
        </extensions>
      </trkpt>
      <trkpt lat="42.55262550897896289825439453125" lon="20.11307612992823123931884765625">
        <ele>1870.800048828125</ele>
        <time>2026-06-20T06:20:04.000Z</time>
        <extensions>
          <ns3:TrackPointExtension>
            <ns3:atemp>20.0</ns3:atemp>
          </ns3:TrackPointExtension>
        </extensions>
      </trkpt>
      <trkpt lat="42.55260254256427288055419921875" lon="20.11305618099868297576904296875">
        <ele>1870.800048828125</ele>
        <time>2026-06-20T06:20:05.000Z</time>
        <extensions>
          <ns3:TrackPointExtension>
            <ns3:atemp>20.0</ns3:atemp>
          </ns3:TrackPointExtension>
        </extensions>
      </trkpt>
      <trkpt lat="42.5525794923305511474609375" lon="20.11303422041237354278564453125">
        <ele>1870.800048828125</ele>
        <time>2026-06-20T06:20:06.000Z</time>
        <extensions>
          <ns3:TrackPointExtension>
            <ns3:atemp>20.0</ns3:atemp>
          </ns3:TrackPointExtension>
        </extensions>
      </trkpt>
      <trkpt lat="42.55255208350718021392822265625" lon="20.11300773359835147857666015625">
        <ele>1871</ele>
        <time>2026-06-20T06:20:07.000Z</time>
        <extensions>
          <ns3:TrackPointExtension>
            <ns3:atemp>20.0</ns3:atemp>
          </ns3:TrackPointExtension>
        </extensions>
      </trkpt>
      <trkpt lat="42.5525206513702869415283203125" lon="20.11297588236629962921142578125">
        <ele>1871</ele>
        <time>2026-06-20T06:20:08.000Z</time>
        <extensions>
          <ns3:TrackPointExtension>
            <ns3:atemp>20.0</ns3:atemp>
          </ns3:TrackPointExtension>
        </extensions>
      </trkpt>
      <trkpt lat="42.552489973604679107666015625" lon="20.1129501499235630035400390625">
        <ele>1871.199951171875</ele>
        <time>2026-06-20T06:20:09.000Z</time>
        <extensions>
          <ns3:TrackPointExtension>
            <ns3:atemp>20.0</ns3:atemp>
          </ns3:TrackPointExtension>
        </extensions>
      </trkpt>
      <trkpt lat="42.552455104887485504150390625" lon="20.11292626149952411651611328125">
        <ele>1871.199951171875</ele>
        <time>2026-06-20T06:20:10.000Z</time>
        <extensions>
          <ns3:TrackPointExtension>
            <ns3:atemp>20.0</ns3:atemp>
          </ns3:TrackPointExtension>
        </extensions>
      </trkpt>
      <trkpt lat="42.55242031998932361602783203125" lon="20.11290530674159526824951171875">
        <ele>1871.199951171875</ele>
        <time>2026-06-20T06:20:11.000Z</time>
        <extensions>
          <ns3:TrackPointExtension>
            <ns3:atemp>20.0</ns3:atemp>
          </ns3:TrackPointExtension>
        </extensions>
      </trkpt>
      <trkpt lat="42.55238260142505168914794921875" lon="20.1128881238400936126708984375">
        <ele>1871.199951171875</ele>
        <time>2026-06-20T06:20:12.000Z</time>
        <extensions>
          <ns3:TrackPointExtension>
            <ns3:atemp>20.0</ns3:atemp>
          </ns3:TrackPointExtension>
        </extensions>
      </trkpt>
      <trkpt lat="42.5523389317095279693603515625" lon="20.11286959983408451080322265625">
        <ele>1871.199951171875</ele>
        <time>2026-06-20T06:20:13.000Z</time>
        <extensions>
          <ns3:TrackPointExtension>
            <ns3:atemp>20.0</ns3:atemp>
          </ns3:TrackPointExtension>
        </extensions>
      </trkpt>
      <trkpt lat="42.55229257978498935699462890625" lon="20.11285074055194854736328125">
        <ele>1871</ele>
        <time>2026-06-20T06:20:14.000Z</time>
        <extensions>
          <ns3:TrackPointExtension>
            <ns3:atemp>20.0</ns3:atemp>
          </ns3:TrackPointExtension>
        </extensions>
      </trkpt>
      <trkpt lat="42.55224446766078472137451171875" lon="20.1128272712230682373046875">
        <ele>1870.800048828125</ele>
        <time>2026-06-20T06:20:15.000Z</time>
        <extensions>
          <ns3:TrackPointExtension>
            <ns3:atemp>20.0</ns3:atemp>
          </ns3:TrackPointExtension>
        </extensions>
      </trkpt>
      <trkpt lat="42.552193589508533477783203125" lon="20.11280036531388759613037109375">
        <ele>1870.4000244140625</ele>
        <time>2026-06-20T06:20:16.000Z</time>
        <extensions>
          <ns3:TrackPointExtension>
            <ns3:atemp>20.0</ns3:atemp>
          </ns3:TrackPointExtension>
        </extensions>
      </trkpt>
      <trkpt lat="42.55214187316596508026123046875" lon="20.11278259567916393280029296875">
        <ele>1870.199951171875</ele>
        <time>2026-06-20T06:20:17.000Z</time>
        <extensions>
          <ns3:TrackPointExtension>
            <ns3:atemp>20.0</ns3:atemp>
          </ns3:TrackPointExtension>
        </extensions>
      </trkpt>
      <trkpt lat="42.5520931743085384368896484375" lon="20.11275711469352245330810546875">
        <ele>1869.800048828125</ele>
        <time>2026-06-20T06:20:18.000Z</time>
        <extensions>
          <ns3:TrackPointExtension>
            <ns3:atemp>20.0</ns3:atemp>
          </ns3:TrackPointExtension>
        </extensions>
      </trkpt>
      <trkpt lat="42.55204849876463413238525390625" lon="20.11274839751422405242919921875">
        <ele>1869.5999755859375</ele>
        <time>2026-06-20T06:20:19.000Z</time>
        <extensions>
          <ns3:TrackPointExtension>
            <ns3:atemp>20.0</ns3:atemp>
          </ns3:TrackPointExtension>
        </extensions>
      </trkpt>
      <trkpt lat="42.552001811563968658447265625" lon="20.11275015771389007568359375">
        <ele>1869.4000244140625</ele>
        <time>2026-06-20T06:20:20.000Z</time>
        <extensions>
          <ns3:TrackPointExtension>
            <ns3:atemp>20.0</ns3:atemp>
          </ns3:TrackPointExtension>
        </extensions>
      </trkpt>
      <trkpt lat="42.55194959230720996856689453125" lon="20.11275510303676128387451171875">
        <ele>1869.199951171875</ele>
        <time>2026-06-20T06:20:21.000Z</time>
        <extensions>
          <ns3:TrackPointExtension>
            <ns3:atemp>20.0</ns3:atemp>
          </ns3:TrackPointExtension>
        </extensions>
      </trkpt>
      <trkpt lat="42.55189309827983379364013671875" lon="20.11276097036898136138916015625">
        <ele>1869</ele>
        <time>2026-06-20T06:20:22.000Z</time>
        <extensions>
          <ns3:TrackPointExtension>
            <ns3:atemp>20.0</ns3:atemp>
          </ns3:TrackPointExtension>
        </extensions>
      </trkpt>
      <trkpt lat="42.55183677189052104949951171875" lon="20.11277035810053348541259765625">
        <ele>1868.5999755859375</ele>
        <time>2026-06-20T06:20:23.000Z</time>
        <extensions>
          <ns3:TrackPointExtension>
            <ns3:atemp>20.0</ns3:atemp>
          </ns3:TrackPointExtension>
        </extensions>
      </trkpt>
      <trkpt lat="42.5517827086150646209716796875" lon="20.11277941055595874786376953125">
        <ele>1868.4000244140625</ele>
        <time>2026-06-20T06:20:24.000Z</time>
        <extensions>
          <ns3:TrackPointExtension>
            <ns3:atemp>20.0</ns3:atemp>
          </ns3:TrackPointExtension>
        </extensions>
      </trkpt>
      <trkpt lat="42.55172696895897388458251953125" lon="20.1127816736698150634765625">
        <ele>1868</ele>
        <time>2026-06-20T06:20:25.000Z</time>
        <extensions>
          <ns3:TrackPointExtension>
            <ns3:atemp>20.0</ns3:atemp>
          </ns3:TrackPointExtension>
        </extensions>
      </trkpt>
      <trkpt lat="42.55166779272258281707763671875" lon="20.112781338393688201904296875">
        <ele>1867.5999755859375</ele>
        <time>2026-06-20T06:20:26.000Z</time>
        <extensions>
          <ns3:TrackPointExtension>
            <ns3:atemp>20.0</ns3:atemp>
          </ns3:TrackPointExtension>
        </extensions>
      </trkpt>
      <trkpt lat="42.55160995759069919586181640625" lon="20.11278058402240276336669921875">
        <ele>1867.199951171875</ele>
        <time>2026-06-20T06:20:27.000Z</time>
        <extensions>
          <ns3:TrackPointExtension>
            <ns3:atemp>20.0</ns3:atemp>
          </ns3:TrackPointExtension>
        </extensions>
      </trkpt>
      <trkpt lat="42.55155153572559356689453125" lon="20.1127734594047069549560546875">
        <ele>1867</ele>
        <time>2026-06-20T06:20:28.000Z</time>
        <extensions>
          <ns3:TrackPointExtension>
            <ns3:atemp>20.0</ns3:atemp>
          </ns3:TrackPointExtension>
        </extensions>
      </trkpt>
      <trkpt lat="42.5514933653175830841064453125" lon="20.1127610541880130767822265625">
        <ele>1866.5999755859375</ele>
        <time>2026-06-20T06:20:29.000Z</time>
        <extensions>
          <ns3:TrackPointExtension>
            <ns3:atemp>20.0</ns3:atemp>
          </ns3:TrackPointExtension>
        </extensions>
      </trkpt>
      <trkpt lat="42.551439218223094940185546875" lon="20.1127449609339237213134765625">
        <ele>1866.199951171875</ele>
        <time>2026-06-20T06:20:30.000Z</time>
        <extensions>
          <ns3:TrackPointExtension>
            <ns3:atemp>20.0</ns3:atemp>
          </ns3:TrackPointExtension>
        </extensions>
      </trkpt>
      <trkpt lat="42.5513844005763530731201171875" lon="20.11272408999502658843994140625">
        <ele>1866</ele>
        <time>2026-06-20T06:20:31.000Z</time>
        <extensions>
          <ns3:TrackPointExtension>
            <ns3:atemp>20.0</ns3:atemp>
          </ns3:TrackPointExtension>
        </extensions>
      </trkpt>
      <trkpt lat="42.55133737809956073760986328125" lon="20.11269760318100452423095703125">
        <ele>1865.800048828125</ele>
        <time>2026-06-20T06:20:32.000Z</time>
        <extensions>
          <ns3:TrackPointExtension>
            <ns3:atemp>20.0</ns3:atemp>
          </ns3:TrackPointExtension>
        </extensions>
      </trkpt>
      <trkpt lat="42.5512985698878765106201171875" lon="20.11266625486314296722412109375">
        <ele>1865.5999755859375</ele>
        <time>2026-06-20T06:20:33.000Z</time>
        <extensions>
          <ns3:TrackPointExtension>
            <ns3:atemp>20.0</ns3:atemp>
          </ns3:TrackPointExtension>
        </extensions>
      </trkpt>
      <trkpt lat="42.5512626953423023223876953125" lon="20.1126406900584697723388671875">
        <ele>1865.5999755859375</ele>
        <time>2026-06-20T06:20:34.000Z</time>
        <extensions>
          <ns3:TrackPointExtension>
            <ns3:atemp>20.0</ns3:atemp>
          </ns3:TrackPointExtension>
        </extensions>
      </trkpt>
      <trkpt lat="42.55123176611959934234619140625" lon="20.1126239262521266937255859375">
        <ele>1865.800048828125</ele>
        <time>2026-06-20T06:20:35.000Z</time>
        <extensions>
          <ns3:TrackPointExtension>
            <ns3:atemp>20.0</ns3:atemp>
          </ns3:TrackPointExtension>
        </extensions>
      </trkpt>
      <trkpt lat="42.55121148191392421722412109375" lon="20.112600624561309814453125">
        <ele>1865.800048828125</ele>
        <time>2026-06-20T06:20:36.000Z</time>
        <extensions>
          <ns3:TrackPointExtension>
            <ns3:atemp>20.0</ns3:atemp>
          </ns3:TrackPointExtension>
        </extensions>
      </trkpt>
      <trkpt lat="42.5511899404227733612060546875" lon="20.11257254518568515777587890625">
        <ele>1866</ele>
        <time>2026-06-20T06:20:37.000Z</time>
        <extensions>
          <ns3:TrackPointExtension>
            <ns3:atemp>20.0</ns3:atemp>
          </ns3:TrackPointExtension>
        </extensions>
      </trkpt>
      <trkpt lat="42.55116974003612995147705078125" lon="20.11254622600972652435302734375">
        <ele>1866.199951171875</ele>
        <time>2026-06-20T06:20:38.000Z</time>
        <extensions>
          <ns3:TrackPointExtension>
            <ns3:atemp>20.0</ns3:atemp>
          </ns3:TrackPointExtension>
        </extensions>
      </trkpt>
      <trkpt lat="42.55115096457302570343017578125" lon="20.11252057738602161407470703125">
        <ele>1866.5999755859375</ele>
        <time>2026-06-20T06:20:39.000Z</time>
        <extensions>
          <ns3:TrackPointExtension>
            <ns3:atemp>20.0</ns3:atemp>
          </ns3:TrackPointExtension>
        </extensions>
      </trkpt>
      <trkpt lat="42.55113470368087291717529296875" lon="20.112493336200714111328125">
        <ele>1866.800048828125</ele>
        <time>2026-06-20T06:20:40.000Z</time>
        <extensions>
          <ns3:TrackPointExtension>
            <ns3:atemp>20.0</ns3:atemp>
          </ns3:TrackPointExtension>
        </extensions>
      </trkpt>
      <trkpt lat="42.5511131621897220611572265625" lon="20.1124690286815166473388671875">
        <ele>1867.199951171875</ele>
        <time>2026-06-20T06:20:41.000Z</time>
        <extensions>
          <ns3:TrackPointExtension>
            <ns3:atemp>20.0</ns3:atemp>
          </ns3:TrackPointExtension>
        </extensions>
      </trkpt>
      <trkpt lat="42.55108793266117572784423828125" lon="20.11244597844779491424560546875">
        <ele>1867.4000244140625</ele>
        <time>2026-06-20T06:20:42.000Z</time>
        <extensions>
          <ns3:TrackPointExtension>
            <ns3:atemp>20.0</ns3:atemp>
          </ns3:TrackPointExtension>
        </extensions>
      </trkpt>
      <trkpt lat="42.55105859600007534027099609375" lon="20.11242083273828029632568359375">
        <ele>1867.5999755859375</ele>
        <time>2026-06-20T06:20:43.000Z</time>
        <extensions>
          <ns3:TrackPointExtension>
            <ns3:atemp>20.0</ns3:atemp>
          </ns3:TrackPointExtension>
        </extensions>
      </trkpt>
      <trkpt lat="42.551026828587055206298828125" lon="20.1123949326574802398681640625">
        <ele>1867.800048828125</ele>
        <time>2026-06-20T06:20:44.000Z</time>
        <extensions>
          <ns3:TrackPointExtension>
            <ns3:atemp>20.0</ns3:atemp>
          </ns3:TrackPointExtension>
        </extensions>
      </trkpt>
      <trkpt lat="42.55099271424114704132080078125" lon="20.1123644225299358367919921875">
        <ele>1868</ele>
        <time>2026-06-20T06:20:45.000Z</time>
        <extensions>
          <ns3:TrackPointExtension>
            <ns3:atemp>20.0</ns3:atemp>
          </ns3:TrackPointExtension>
        </extensions>
      </trkpt>
      <trkpt lat="42.55095667205750942230224609375" lon="20.112334750592708587646484375">
        <ele>1868</ele>
        <time>2026-06-20T06:20:46.000Z</time>
        <extensions>
          <ns3:TrackPointExtension>
            <ns3:atemp>20.0</ns3:atemp>
          </ns3:TrackPointExtension>
        </extensions>
      </trkpt>
      <trkpt lat="42.550918199121952056884765625" lon="20.11230113916099071502685546875">
        <ele>1868.199951171875</ele>
        <time>2026-06-20T06:20:47.000Z</time>
        <extensions>
          <ns3:TrackPointExtension>
            <ns3:atemp>20.0</ns3:atemp>
          </ns3:TrackPointExtension>
        </extensions>
      </trkpt>
      <trkpt lat="42.55086958408355712890625" lon="20.1122658513486385345458984375">
        <ele>1868.4000244140625</ele>
        <time>2026-06-20T06:20:48.000Z</time>
        <extensions>
          <ns3:TrackPointExtension>
            <ns3:atemp>20.0</ns3:atemp>
          </ns3:TrackPointExtension>
        </extensions>
      </trkpt>
      <trkpt lat="42.5508130900561809539794921875" lon="20.11223710142076015472412109375">
        <ele>1868.199951171875</ele>
        <time>2026-06-20T06:20:49.000Z</time>
        <extensions>
          <ns3:TrackPointExtension>
            <ns3:atemp>20.0</ns3:atemp>
          </ns3:TrackPointExtension>
        </extensions>
      </trkpt>
      <trkpt lat="42.5507555902004241943359375" lon="20.112210027873516082763671875">
        <ele>1867.800048828125</ele>
        <time>2026-06-20T06:20:50.000Z</time>
        <extensions>
          <ns3:TrackPointExtension>
            <ns3:atemp>20.0</ns3:atemp>
          </ns3:TrackPointExtension>
        </extensions>
      </trkpt>
      <trkpt lat="42.55069884471595287322998046875" lon="20.112187564373016357421875">
        <ele>1867.199951171875</ele>
        <time>2026-06-20T06:20:51.000Z</time>
        <extensions>
          <ns3:TrackPointExtension>
            <ns3:atemp>20.0</ns3:atemp>
          </ns3:TrackPointExtension>
        </extensions>
      </trkpt>
      <trkpt lat="42.55064017139375209808349609375" lon="20.11216501705348491668701171875">
        <ele>1866.5999755859375</ele>
        <time>2026-06-20T06:20:52.000Z</time>
        <extensions>
          <ns3:TrackPointExtension>
            <ns3:atemp>20.0</ns3:atemp>
          </ns3:TrackPointExtension>
        </extensions>
      </trkpt>
      <trkpt lat="42.55057864822447299957275390625" lon="20.11214842088520526885986328125">
        <ele>1866</ele>
        <time>2026-06-20T06:20:53.000Z</time>
        <extensions>
          <ns3:TrackPointExtension>
            <ns3:atemp>20.0</ns3:atemp>
          </ns3:TrackPointExtension>
        </extensions>
      </trkpt>
      <trkpt lat="42.5505150295794010162353515625" lon="20.112144984304904937744140625">
        <ele>1865.5999755859375</ele>
        <time>2026-06-20T06:20:54.000Z</time>
        <extensions>
          <ns3:TrackPointExtension>
            <ns3:atemp>20.0</ns3:atemp>
          </ns3:TrackPointExtension>
        </extensions>
      </trkpt>
      <trkpt lat="42.5504509918391704559326171875" lon="20.112139284610748291015625">
        <ele>1865.199951171875</ele>
        <time>2026-06-20T06:20:55.000Z</time>
        <extensions>
          <ns3:TrackPointExtension>
            <ns3:atemp>20.0</ns3:atemp>
          </ns3:TrackPointExtension>
        </extensions>
      </trkpt>
      <trkpt lat="42.55039290525019168853759765625" lon="20.1121283881366252899169921875">
        <ele>1864.800048828125</ele>
        <time>2026-06-20T06:20:56.000Z</time>
        <extensions>
          <ns3:TrackPointExtension>
            <ns3:atemp>20.0</ns3:atemp>
          </ns3:TrackPointExtension>
        </extensions>
      </trkpt>
      <trkpt lat="42.550342865288257598876953125" lon="20.1121030747890472412109375">
        <ele>1864.800048828125</ele>
        <time>2026-06-20T06:20:57.000Z</time>
        <extensions>
          <ns3:TrackPointExtension>
            <ns3:atemp>20.0</ns3:atemp>
          </ns3:TrackPointExtension>
        </extensions>
      </trkpt>
      <trkpt lat="42.5503049790859222412109375" lon="20.11207935400307178497314453125">
        <ele>1864.800048828125</ele>
        <time>2026-06-20T06:20:58.000Z</time>
        <extensions>
          <ns3:TrackPointExtension>
            <ns3:atemp>20.0</ns3:atemp>
          </ns3:TrackPointExtension>
        </extensions>
      </trkpt>
      <trkpt lat="42.5502699427306652069091796875" lon="20.11206091381609439849853515625">
        <ele>1864.800048828125</ele>
        <time>2026-06-20T06:20:59.000Z</time>
        <extensions>
          <ns3:TrackPointExtension>
            <ns3:atemp>20.0</ns3:atemp>
          </ns3:TrackPointExtension>
        </extensions>
      </trkpt>
      <trkpt lat="42.55023398436605930328369140625" lon="20.112047083675861358642578125">
        <ele>1865</ele>
        <time>2026-06-20T06:21:00.000Z</time>
        <extensions>
          <ns3:TrackPointExtension>
            <ns3:atemp>20.0</ns3:atemp>
          </ns3:TrackPointExtension>
        </extensions>
      </trkpt>
      <trkpt lat="42.5502012111246585845947265625" lon="20.1120244525372982025146484375">
        <ele>1865.199951171875</ele>
        <time>2026-06-20T06:21:01.000Z</time>
        <extensions>
          <ns3:TrackPointExtension>
            <ns3:atemp>20.0</ns3:atemp>
          </ns3:TrackPointExtension>
        </extensions>
      </trkpt>
      <trkpt lat="42.5501707009971141815185546875" lon="20.11199469678103923797607421875">
        <ele>1865.5999755859375</ele>
        <time>2026-06-20T06:21:02.000Z</time>
        <extensions>
          <ns3:TrackPointExtension>
            <ns3:atemp>20.0</ns3:atemp>
          </ns3:TrackPointExtension>
        </extensions>
      </trkpt>
      <trkpt lat="42.550141029059886932373046875" lon="20.11196536011993885040283203125">
        <ele>1865.800048828125</ele>
        <time>2026-06-20T06:21:03.000Z</time>
        <extensions>
          <ns3:TrackPointExtension>
            <ns3:atemp>20.0</ns3:atemp>
          </ns3:TrackPointExtension>
        </extensions>
      </trkpt>
      <trkpt lat="42.550110183656215667724609375" lon="20.11193769983947277069091796875">
        <ele>1866.199951171875</ele>
        <time>2026-06-20T06:21:04.000Z</time>
        <extensions>
          <ns3:TrackPointExtension>
            <ns3:atemp>20.0</ns3:atemp>
          </ns3:TrackPointExtension>
        </extensions>
      </trkpt>
      <trkpt lat="42.550082020461559295654296875" lon="20.11191456578671932220458984375">
        <ele>1866.4000244140625</ele>
        <time>2026-06-20T06:21:05.000Z</time>
        <extensions>
          <ns3:TrackPointExtension>
            <ns3:atemp>20.0</ns3:atemp>
          </ns3:TrackPointExtension>
        </extensions>
      </trkpt>
      <trkpt lat="42.55005746148526668548583984375" lon="20.1118947006762027740478515625">
        <ele>1866.5999755859375</ele>
        <time>2026-06-20T06:21:06.000Z</time>
        <extensions>
          <ns3:TrackPointExtension>
            <ns3:atemp>20.0</ns3:atemp>
          </ns3:TrackPointExtension>
        </extensions>
      </trkpt>
      <trkpt lat="42.550031058490276336669921875" lon="20.11187450028955936431884765625">
        <ele>1866.800048828125</ele>
        <time>2026-06-20T06:21:07.000Z</time>
        <extensions>
          <ns3:TrackPointExtension>
            <ns3:atemp>20.0</ns3:atemp>
          </ns3:TrackPointExtension>
        </extensions>
      </trkpt>
      <trkpt lat="42.55000230856239795684814453125" lon="20.11185706593096256256103515625">
        <ele>1867.199951171875</ele>
        <time>2026-06-20T06:21:08.000Z</time>
        <extensions>
          <ns3:TrackPointExtension>
            <ns3:atemp>20.0</ns3:atemp>
          </ns3:TrackPointExtension>
        </extensions>
      </trkpt>
      <trkpt lat="42.54997045733034610748291015625" lon="20.11183242313563823699951171875">
        <ele>1867.4000244140625</ele>
        <time>2026-06-20T06:21:09.000Z</time>
        <extensions>
          <ns3:TrackPointExtension>
            <ns3:atemp>20.0</ns3:atemp>
          </ns3:TrackPointExtension>
        </extensions>
      </trkpt>
      <trkpt lat="42.54993525333702564239501953125" lon="20.11180744506418704986572265625">
        <ele>1867.5999755859375</ele>
        <time>2026-06-20T06:21:10.000Z</time>
        <extensions>
          <ns3:TrackPointExtension>
            <ns3:atemp>20.0</ns3:atemp>
          </ns3:TrackPointExtension>
        </extensions>
      </trkpt>
      <trkpt lat="42.5499014742672443389892578125" lon="20.111782550811767578125">
        <ele>1867.800048828125</ele>
        <time>2026-06-20T06:21:11.000Z</time>
        <extensions>
          <ns3:TrackPointExtension>
            <ns3:atemp>20.0</ns3:atemp>
          </ns3:TrackPointExtension>
        </extensions>
      </trkpt>
      <trkpt lat="42.5498692877590656280517578125" lon="20.11176402680575847625732421875">
        <ele>1868</ele>
        <time>2026-06-20T06:21:12.000Z</time>
        <extensions>
          <ns3:TrackPointExtension>
            <ns3:atemp>20.0</ns3:atemp>
          </ns3:TrackPointExtension>
        </extensions>
      </trkpt>
      <trkpt lat="42.54983492195606231689453125" lon="20.11175028048455715179443359375">
        <ele>1868.199951171875</ele>
        <time>2026-06-20T06:21:13.000Z</time>
        <extensions>
          <ns3:TrackPointExtension>
            <ns3:atemp>20.0</ns3:atemp>
          </ns3:TrackPointExtension>
        </extensions>
      </trkpt>
      <trkpt lat="42.549802400171756744384765625" lon="20.111744664609432220458984375">
        <ele>1868.4000244140625</ele>
        <time>2026-06-20T06:21:14.000Z</time>
        <extensions>
          <ns3:TrackPointExtension>
            <ns3:atemp>20.0</ns3:atemp>
          </ns3:TrackPointExtension>
        </extensions>
      </trkpt>
      <trkpt lat="42.5497693754732608795166015625" lon="20.111737959086894989013671875">
        <ele>1868.5999755859375</ele>
        <time>2026-06-20T06:21:15.000Z</time>
        <extensions>
          <ns3:TrackPointExtension>
            <ns3:atemp>20.0</ns3:atemp>
          </ns3:TrackPointExtension>
        </extensions>
      </trkpt>
      <trkpt lat="42.549740038812160491943359375" lon="20.1117290742695331573486328125">
        <ele>1869</ele>
        <time>2026-06-20T06:21:16.000Z</time>
        <extensions>
          <ns3:TrackPointExtension>
            <ns3:atemp>20.0</ns3:atemp>
          </ns3:TrackPointExtension>
        </extensions>
      </trkpt>
      <trkpt lat="42.54970877431333065032958984375" lon="20.111720860004425048828125">
        <ele>1869.199951171875</ele>
        <time>2026-06-20T06:21:17.000Z</time>
        <extensions>
          <ns3:TrackPointExtension>
            <ns3:atemp>20.0</ns3:atemp>
          </ns3:TrackPointExtension>
        </extensions>
      </trkpt>
      <trkpt lat="42.54967893473803997039794921875" lon="20.11170937679708003997802734375">
        <ele>1869.5999755859375</ele>
        <time>2026-06-20T06:21:18.000Z</time>
        <extensions>
          <ns3:TrackPointExtension>
            <ns3:atemp>20.0</ns3:atemp>
          </ns3:TrackPointExtension>
        </extensions>
      </trkpt>
      <trkpt lat="42.54964641295373439788818359375" lon="20.1117019169032573699951171875">
        <ele>1869.800048828125</ele>
        <time>2026-06-20T06:21:19.000Z</time>
        <extensions>
          <ns3:TrackPointExtension>
            <ns3:atemp>20.0</ns3:atemp>
          </ns3:TrackPointExtension>
        </extensions>
      </trkpt>
      <trkpt lat="42.54961238242685794830322265625" lon="20.11169697158038616180419921875">
        <ele>1870</ele>
        <time>2026-06-20T06:21:20.000Z</time>
        <extensions>
          <ns3:TrackPointExtension>
            <ns3:atemp>20.0</ns3:atemp>
          </ns3:TrackPointExtension>
        </extensions>
      </trkpt>
      <trkpt lat="42.5495786033570766448974609375" lon="20.1116846501827239990234375">
        <ele>1870.199951171875</ele>
        <time>2026-06-20T06:21:21.000Z</time>
        <extensions>
          <ns3:TrackPointExtension>
            <ns3:atemp>20.0</ns3:atemp>
          </ns3:TrackPointExtension>
        </extensions>
      </trkpt>
      <trkpt lat="42.54954247735440731048583984375" lon="20.11167593300342559814453125">
        <ele>1870.4000244140625</ele>
        <time>2026-06-20T06:21:22.000Z</time>
        <extensions>
          <ns3:TrackPointExtension>
            <ns3:atemp>20.0</ns3:atemp>
          </ns3:TrackPointExtension>
        </extensions>
      </trkpt>
      <trkpt lat="42.54950501024723052978515625" lon="20.11166914366185665130615234375">
        <ele>1870.4000244140625</ele>
        <time>2026-06-20T06:21:23.000Z</time>
        <extensions>
          <ns3:TrackPointExtension>
            <ns3:atemp>20.0</ns3:atemp>
          </ns3:TrackPointExtension>
        </extensions>
      </trkpt>
      <trkpt lat="42.549469135701656341552734375" lon="20.11165581643581390380859375">
        <ele>1870.4000244140625</ele>
        <time>2026-06-20T06:21:24.000Z</time>
        <extensions>
          <ns3:TrackPointExtension>
            <ns3:atemp>20.0</ns3:atemp>
          </ns3:TrackPointExtension>
        </extensions>
      </trkpt>
      <trkpt lat="42.5494340993463993072509765625" lon="20.11163569986820220947265625">
        <ele>1870.4000244140625</ele>
        <time>2026-06-20T06:21:25.000Z</time>
        <extensions>
          <ns3:TrackPointExtension>
            <ns3:atemp>20.0</ns3:atemp>
          </ns3:TrackPointExtension>
        </extensions>
      </trkpt>
      <trkpt lat="42.54940518178045749664306640625" lon="20.11160443536937236785888671875">
        <ele>1870.4000244140625</ele>
        <time>2026-06-20T06:21:26.000Z</time>
        <extensions>
          <ns3:TrackPointExtension>
            <ns3:atemp>20.0</ns3:atemp>
          </ns3:TrackPointExtension>
        </extensions>
      </trkpt>
      <trkpt lat="42.549379952251911163330078125" lon="20.1115721650421619415283203125">
        <ele>1870.4000244140625</ele>
        <time>2026-06-20T06:21:27.000Z</time>
        <extensions>
          <ns3:TrackPointExtension>
            <ns3:atemp>20.0</ns3:atemp>
          </ns3:TrackPointExtension>
        </extensions>
      </trkpt>
      <trkpt lat="42.54935706965625286102294921875" lon="20.111541487276554107666015625">
        <ele>1870.5999755859375</ele>
        <time>2026-06-20T06:21:28.000Z</time>
        <extensions>
          <ns3:TrackPointExtension>
            <ns3:atemp>20.0</ns3:atemp>
          </ns3:TrackPointExtension>
        </extensions>
      </trkpt>
      <trkpt lat="42.54933737218379974365234375" lon="20.1115061156451702117919921875">
        <ele>1870.5999755859375</ele>
        <time>2026-06-20T06:21:29.000Z</time>
        <extensions>
          <ns3:TrackPointExtension>
            <ns3:atemp>20.0</ns3:atemp>
          </ns3:TrackPointExtension>
        </extensions>
      </trkpt>
      <trkpt lat="42.5493214465677738189697265625" lon="20.1114699058234691619873046875">
        <ele>1870.800048828125</ele>
        <time>2026-06-20T06:21:30.000Z</time>
        <extensions>
          <ns3:TrackPointExtension>
            <ns3:atemp>20.0</ns3:atemp>
          </ns3:TrackPointExtension>
        </extensions>
      </trkpt>
      <trkpt lat="42.54931046627461910247802734375" lon="20.11143319308757781982421875">
        <ele>1870.800048828125</ele>
        <time>2026-06-20T06:21:31.000Z</time>
        <extensions>
          <ns3:TrackPointExtension>
            <ns3:atemp>20.0</ns3:atemp>
          </ns3:TrackPointExtension>
        </extensions>
      </trkpt>
      <trkpt lat="42.54930091090500354766845703125" lon="20.111400000751018524169921875">
        <ele>1871</ele>
        <time>2026-06-20T06:21:32.000Z</time>
        <extensions>
          <ns3:TrackPointExtension>
            <ns3:atemp>20.0</ns3:atemp>
          </ns3:TrackPointExtension>
        </extensions>
      </trkpt>
      <trkpt lat="42.549288757145404815673828125" lon="20.1113699935376644134521484375">
        <ele>1871</ele>
        <time>2026-06-20T06:21:33.000Z</time>
        <extensions>
          <ns3:TrackPointExtension>
            <ns3:atemp>20.0</ns3:atemp>
          </ns3:TrackPointExtension>
        </extensions>
      </trkpt>
      <trkpt lat="42.54927157424390316009521484375" lon="20.111339651048183441162109375">
        <ele>1871</ele>
        <time>2026-06-20T06:21:34.000Z</time>
        <extensions>
          <ns3:TrackPointExtension>
            <ns3:atemp>20.0</ns3:atemp>
          </ns3:TrackPointExtension>
        </extensions>
      </trkpt>
      <trkpt lat="42.54924693144857883453369140625" lon="20.11131559498608112335205078125">
        <ele>1870.800048828125</ele>
        <time>2026-06-20T06:21:35.000Z</time>
        <extensions>
          <ns3:TrackPointExtension>
            <ns3:atemp>20.0</ns3:atemp>
          </ns3:TrackPointExtension>
        </extensions>
      </trkpt>
      <trkpt lat="42.54920862615108489990234375" lon="20.111303441226482391357421875">
        <ele>1870.5999755859375</ele>
        <time>2026-06-20T06:21:36.000Z</time>
        <extensions>
          <ns3:TrackPointExtension>
            <ns3:atemp>20.0</ns3:atemp>
          </ns3:TrackPointExtension>
        </extensions>
      </trkpt>
      <trkpt lat="42.54916126839816570281982421875" lon="20.1112851686775684356689453125">
        <ele>1870.4000244140625</ele>
        <time>2026-06-20T06:21:37.000Z</time>
        <extensions>
          <ns3:TrackPointExtension>
            <ns3:atemp>20.0</ns3:atemp>
          </ns3:TrackPointExtension>
        </extensions>
      </trkpt>
      <trkpt lat="42.5491122342646121978759765625" lon="20.11125775985419750213623046875">
        <ele>1870</ele>
        <time>2026-06-20T06:21:38.000Z</time>
        <extensions>
          <ns3:TrackPointExtension>
            <ns3:atemp>20.0</ns3:atemp>
          </ns3:TrackPointExtension>
        </extensions>
      </trkpt>
      <trkpt lat="42.5490657985210418701171875" lon="20.11122909374535083770751953125">
        <ele>1869.4000244140625</ele>
        <time>2026-06-20T06:21:39.000Z</time>
        <extensions>
          <ns3:TrackPointExtension>
            <ns3:atemp>20.0</ns3:atemp>
          </ns3:TrackPointExtension>
        </extensions>
      </trkpt>
      <trkpt lat="42.5490243919193744659423828125" lon="20.1111996732652187347412109375">
        <ele>1869.199951171875</ele>
        <time>2026-06-20T06:21:40.000Z</time>
        <extensions>
          <ns3:TrackPointExtension>
            <ns3:atemp>20.0</ns3:atemp>
          </ns3:TrackPointExtension>
        </extensions>
      </trkpt>
      <trkpt lat="42.54899178631603717803955078125" lon="20.11117628775537014007568359375">
        <ele>1869</ele>
        <time>2026-06-20T06:21:41.000Z</time>
        <extensions>
          <ns3:TrackPointExtension>
            <ns3:atemp>20.0</ns3:atemp>
          </ns3:TrackPointExtension>
        </extensions>
      </trkpt>
      <trkpt lat="42.5489663891494274139404296875" lon="20.11115063913166522979736328125">
        <ele>1869</ele>
        <time>2026-06-20T06:21:42.000Z</time>
        <extensions>
          <ns3:TrackPointExtension>
            <ns3:atemp>20.0</ns3:atemp>
          </ns3:TrackPointExtension>
        </extensions>
      </trkpt>
      <trkpt lat="42.54894350655376911163330078125" lon="20.11112884618341922760009765625">
        <ele>1869.199951171875</ele>
        <time>2026-06-20T06:21:43.000Z</time>
        <extensions>
          <ns3:TrackPointExtension>
            <ns3:atemp>20.0</ns3:atemp>
          </ns3:TrackPointExtension>
        </extensions>
      </trkpt>
      <trkpt lat="42.5489194504916667938232421875" lon="20.1111074723303318023681640625">
        <ele>1869.199951171875</ele>
        <time>2026-06-20T06:21:44.000Z</time>
        <extensions>
          <ns3:TrackPointExtension>
            <ns3:atemp>20.0</ns3:atemp>
          </ns3:TrackPointExtension>
        </extensions>
      </trkpt>
      <trkpt lat="42.5489003397524356842041015625" lon="20.11109079234302043914794921875">
        <ele>1869.4000244140625</ele>
        <time>2026-06-20T06:21:45.000Z</time>
        <extensions>
          <ns3:TrackPointExtension>
            <ns3:atemp>20.0</ns3:atemp>
          </ns3:TrackPointExtension>
        </extensions>
      </trkpt>
      <trkpt lat="42.5488829053938388824462890625" lon="20.11107151396572589874267578125">
        <ele>1869.5999755859375</ele>
        <time>2026-06-20T06:21:46.000Z</time>
        <extensions>
          <ns3:TrackPointExtension>
            <ns3:atemp>20.0</ns3:atemp>
          </ns3:TrackPointExtension>
        </extensions>
      </trkpt>
      <trkpt lat="42.5488658063113689422607421875" lon="20.111047960817813873291015625">
        <ele>1869.800048828125</ele>
        <time>2026-06-20T06:21:47.000Z</time>
        <extensions>
          <ns3:TrackPointExtension>
            <ns3:atemp>20.0</ns3:atemp>
          </ns3:TrackPointExtension>
        </extensions>
      </trkpt>
      <trkpt lat="42.54884946160018444061279296875" lon="20.11101543903350830078125">
        <ele>1870</ele>
        <time>2026-06-20T06:21:48.000Z</time>
        <extensions>
          <ns3:TrackPointExtension>
            <ns3:atemp>20.0</ns3:atemp>
          </ns3:TrackPointExtension>
        </extensions>
      </trkpt>
      <trkpt lat="42.54884007386863231658935546875" lon="20.110988952219486236572265625">
        <ele>1870</ele>
        <time>2026-06-20T06:21:49.000Z</time>
        <extensions>
          <ns3:TrackPointExtension>
            <ns3:atemp>20.0</ns3:atemp>
          </ns3:TrackPointExtension>
        </extensions>
      </trkpt>
      <trkpt lat="42.54883579909801483154296875" lon="20.11097109876573085784912109375">
        <ele>1870</ele>
        <time>2026-06-20T06:21:50.000Z</time>
        <extensions>
          <ns3:TrackPointExtension>
            <ns3:atemp>20.0</ns3:atemp>
          </ns3:TrackPointExtension>
        </extensions>
      </trkpt>
      <trkpt lat="42.548825740814208984375" lon="20.1109525747597217559814453125">
        <ele>1870.199951171875</ele>
        <time>2026-06-20T06:21:51.000Z</time>
        <extensions>
          <ns3:TrackPointExtension>
            <ns3:atemp>20.0</ns3:atemp>
          </ns3:TrackPointExtension>
        </extensions>
      </trkpt>
      <trkpt lat="42.54881693981587886810302734375" lon="20.1109240762889385223388671875">
        <ele>1870.199951171875</ele>
        <time>2026-06-20T06:21:52.000Z</time>
        <extensions>
          <ns3:TrackPointExtension>
            <ns3:atemp>20.0</ns3:atemp>
          </ns3:TrackPointExtension>
        </extensions>
      </trkpt>
      <trkpt lat="42.5488074682652950286865234375" lon="20.11089138686656951904296875">
        <ele>1870.199951171875</ele>
        <time>2026-06-20T06:21:53.000Z</time>
        <extensions>
          <ns3:TrackPointExtension>
            <ns3:atemp>20.0</ns3:atemp>
          </ns3:TrackPointExtension>
        </extensions>
      </trkpt>
      <trkpt lat="42.54879632033407688140869140625" lon="20.11086456477642059326171875">
        <ele>1870.4000244140625</ele>
        <time>2026-06-20T06:21:54.000Z</time>
        <extensions>
          <ns3:TrackPointExtension>
            <ns3:atemp>20.0</ns3:atemp>
          </ns3:TrackPointExtension>
        </extensions>
      </trkpt>
      <trkpt lat="42.5487853400409221649169921875" lon="20.11083095334470272064208984375">
        <ele>1870.4000244140625</ele>
        <time>2026-06-20T06:21:55.000Z</time>
        <extensions>
          <ns3:TrackPointExtension>
            <ns3:atemp>20.0</ns3:atemp>
          </ns3:TrackPointExtension>
        </extensions>
      </trkpt>
      <trkpt lat="42.54877301864326000213623046875" lon="20.1108006946742534637451171875">
        <ele>1870.5999755859375</ele>
        <time>2026-06-20T06:21:56.000Z</time>
        <extensions>
          <ns3:TrackPointExtension>
            <ns3:atemp>20.0</ns3:atemp>
          </ns3:TrackPointExtension>
        </extensions>
      </trkpt>
      <trkpt lat="42.54875801503658294677734375" lon="20.11077202856540679931640625">
        <ele>1870.5999755859375</ele>
        <time>2026-06-20T06:21:57.000Z</time>
        <extensions>
          <ns3:TrackPointExtension>
            <ns3:atemp>20.0</ns3:atemp>
          </ns3:TrackPointExtension>
        </extensions>
      </trkpt>
      <trkpt lat="42.54874267615377902984619140625" lon="20.1107450388371944427490234375">
        <ele>1870.5999755859375</ele>
        <time>2026-06-20T06:21:58.000Z</time>
        <extensions>
          <ns3:TrackPointExtension>
            <ns3:atemp>20.0</ns3:atemp>
          </ns3:TrackPointExtension>
        </extensions>
      </trkpt>
      <trkpt lat="42.54872473888099193572998046875" lon="20.11072064749896526336669921875">
        <ele>1870.800048828125</ele>
        <time>2026-06-20T06:21:59.000Z</time>
        <extensions>
          <ns3:TrackPointExtension>
            <ns3:atemp>20.0</ns3:atemp>
          </ns3:TrackPointExtension>
        </extensions>
      </trkpt>
      <trkpt lat="42.54870864562690258026123046875" lon="20.11069449596107006072998046875">
        <ele>1870.800048828125</ele>
        <time>2026-06-20T06:22:00.000Z</time>
        <extensions>
          <ns3:TrackPointExtension>
            <ns3:atemp>20.0</ns3:atemp>
          </ns3:TrackPointExtension>
        </extensions>
      </trkpt>
      <trkpt lat="42.5486894510686397552490234375" lon="20.11067136190831661224365234375">
        <ele>1871</ele>
        <time>2026-06-20T06:22:01.000Z</time>
        <extensions>
          <ns3:TrackPointExtension>
            <ns3:atemp>20.0</ns3:atemp>
          </ns3:TrackPointExtension>
        </extensions>
      </trkpt>
      <trkpt lat="42.548671849071979522705078125" lon="20.110650993883609771728515625">
        <ele>1871</ele>
        <time>2026-06-20T06:22:02.000Z</time>
        <extensions>
          <ns3:TrackPointExtension>
            <ns3:atemp>20.0</ns3:atemp>
          </ns3:TrackPointExtension>
        </extensions>
      </trkpt>
      <trkpt lat="42.5486539117991924285888671875" lon="20.11062827892601490020751953125">
        <ele>1871.199951171875</ele>
        <time>2026-06-20T06:22:03.000Z</time>
        <extensions>
          <ns3:TrackPointExtension>
            <ns3:atemp>20.0</ns3:atemp>
          </ns3:TrackPointExtension>
        </extensions>
      </trkpt>
      <trkpt lat="42.548634968698024749755859375" lon="20.110606737434864044189453125">
        <ele>1871.5999755859375</ele>
        <time>2026-06-20T06:22:04.000Z</time>
        <extensions>
          <ns3:TrackPointExtension>
            <ns3:atemp>20.0</ns3:atemp>
          </ns3:TrackPointExtension>
        </extensions>
      </trkpt>
      <trkpt lat="42.54861325956881046295166015625" lon="20.11058787815272808074951171875">
        <ele>1871.800048828125</ele>
        <time>2026-06-20T06:22:05.000Z</time>
        <extensions>
          <ns3:TrackPointExtension>
            <ns3:atemp>20.0</ns3:atemp>
          </ns3:TrackPointExtension>
        </extensions>
      </trkpt>
      <trkpt lat="42.5485928915441036224365234375" lon="20.11056843213737010955810546875">
        <ele>1872</ele>
        <time>2026-06-20T06:22:06.000Z</time>
        <extensions>
          <ns3:TrackPointExtension>
            <ns3:atemp>20.0</ns3:atemp>
          </ns3:TrackPointExtension>
        </extensions>
      </trkpt>
      <trkpt lat="42.54857361316680908203125" lon="20.1105465553700923919677734375">
        <ele>1872.199951171875</ele>
        <time>2026-06-20T06:22:07.000Z</time>
        <extensions>
          <ns3:TrackPointExtension>
            <ns3:atemp>20.0</ns3:atemp>
          </ns3:TrackPointExtension>
        </extensions>
      </trkpt>
      <trkpt lat="42.54855223931372165679931640625" lon="20.1105274446308612823486328125">
        <ele>1872.5999755859375</ele>
        <time>2026-06-20T06:22:08.000Z</time>
        <extensions>
          <ns3:TrackPointExtension>
            <ns3:atemp>20.0</ns3:atemp>
          </ns3:TrackPointExtension>
        </extensions>
      </trkpt>
      <trkpt lat="42.54853346385061740875244140625" lon="20.1105116866528987884521484375">
        <ele>1872.800048828125</ele>
        <time>2026-06-20T06:22:09.000Z</time>
        <extensions>
          <ns3:TrackPointExtension>
            <ns3:atemp>20.0</ns3:atemp>
          </ns3:TrackPointExtension>
        </extensions>
      </trkpt>
      <trkpt lat="42.5485157780349254608154296875" lon="20.11049668304622173309326171875">
        <ele>1873.199951171875</ele>
        <time>2026-06-20T06:22:10.000Z</time>
        <extensions>
          <ns3:TrackPointExtension>
            <ns3:atemp>20.0</ns3:atemp>
          </ns3:TrackPointExtension>
        </extensions>
      </trkpt>
      <trkpt lat="42.5484998524188995361328125" lon="20.110480003058910369873046875">
        <ele>1873.4000244140625</ele>
        <time>2026-06-20T06:22:11.000Z</time>
        <extensions>
          <ns3:TrackPointExtension>
            <ns3:atemp>20.0</ns3:atemp>
          </ns3:TrackPointExtension>
        </extensions>
      </trkpt>
      <trkpt lat="42.5484782271087169647216796875" lon="20.1104634068906307220458984375">
        <ele>1873.800048828125</ele>
        <time>2026-06-20T06:22:12.000Z</time>
        <extensions>
          <ns3:TrackPointExtension>
            <ns3:atemp>20.0</ns3:atemp>
          </ns3:TrackPointExtension>
        </extensions>
      </trkpt>
      <trkpt lat="42.54845852963626384735107421875" lon="20.1104459725320339202880859375">
        <ele>1874</ele>
        <time>2026-06-20T06:22:13.000Z</time>
        <extensions>
          <ns3:TrackPointExtension>
            <ns3:atemp>20.0</ns3:atemp>
          </ns3:TrackPointExtension>
        </extensions>
      </trkpt>
      <trkpt lat="42.54844008944928646087646484375" lon="20.11042493395507335662841796875">
        <ele>1874.199951171875</ele>
        <time>2026-06-20T06:22:14.000Z</time>
        <extensions>
          <ns3:TrackPointExtension>
            <ns3:atemp>20.0</ns3:atemp>
          </ns3:TrackPointExtension>
        </extensions>
      </trkpt>
      <trkpt lat="42.54841829650104045867919921875" lon="20.1104104332625865936279296875">
        <ele>1874.4000244140625</ele>
        <time>2026-06-20T06:22:15.000Z</time>
        <extensions>
          <ns3:TrackPointExtension>
            <ns3:atemp>20.0</ns3:atemp>
          </ns3:TrackPointExtension>
        </extensions>
      </trkpt>
      <trkpt lat="42.54839348606765270233154296875" lon="20.11040599085390567779541015625">
        <ele>1874.4000244140625</ele>
        <time>2026-06-20T06:22:16.000Z</time>
        <extensions>
          <ns3:TrackPointExtension>
            <ns3:atemp>20.0</ns3:atemp>
          </ns3:TrackPointExtension>
        </extensions>
      </trkpt>
      <trkpt lat="42.54837269894778728485107421875" lon="20.1104013808071613311767578125">
        <ele>1874.4000244140625</ele>
        <time>2026-06-20T06:22:17.000Z</time>
        <extensions>
          <ns3:TrackPointExtension>
            <ns3:atemp>20.0</ns3:atemp>
          </ns3:TrackPointExtension>
        </extensions>
      </trkpt>
      <trkpt lat="42.54835308529436588287353515625" lon="20.110390484333038330078125">
        <ele>1874.4000244140625</ele>
        <time>2026-06-20T06:22:18.000Z</time>
        <extensions>
          <ns3:TrackPointExtension>
            <ns3:atemp>20.0</ns3:atemp>
          </ns3:TrackPointExtension>
        </extensions>
      </trkpt>
      <trkpt lat="42.54832944832742214202880859375" lon="20.11037900112569332122802734375">
        <ele>1874.4000244140625</ele>
        <time>2026-06-20T06:22:19.000Z</time>
        <extensions>
          <ns3:TrackPointExtension>
            <ns3:atemp>20.0</ns3:atemp>
          </ns3:TrackPointExtension>
        </extensions>
      </trkpt>
      <trkpt lat="42.548306398093700408935546875" lon="20.11036341078579425811767578125">
        <ele>1874.4000244140625</ele>
        <time>2026-06-20T06:22:20.000Z</time>
        <extensions>
          <ns3:TrackPointExtension>
            <ns3:atemp>20.0</ns3:atemp>
          </ns3:TrackPointExtension>
        </extensions>
      </trkpt>
      <trkpt lat="42.5482844375073909759521484375" lon="20.11034949682652950286865234375">
        <ele>1874.5999755859375</ele>
        <time>2026-06-20T06:22:21.000Z</time>
        <extensions>
          <ns3:TrackPointExtension>
            <ns3:atemp>20.0</ns3:atemp>
          </ns3:TrackPointExtension>
        </extensions>
      </trkpt>
      <trkpt lat="42.54826691932976245880126953125" lon="20.11033575050532817840576171875">
        <ele>1874.5999755859375</ele>
        <time>2026-06-20T06:22:22.000Z</time>
        <extensions>
          <ns3:TrackPointExtension>
            <ns3:atemp>20.0</ns3:atemp>
          </ns3:TrackPointExtension>
        </extensions>
      </trkpt>
      <trkpt lat="42.54824914969503879547119140625" lon="20.11032535694539546966552734375">
        <ele>1874.800048828125</ele>
        <time>2026-06-20T06:22:23.000Z</time>
        <extensions>
          <ns3:TrackPointExtension>
            <ns3:atemp>20.0</ns3:atemp>
          </ns3:TrackPointExtension>
        </extensions>
      </trkpt>
      <trkpt lat="42.5482307933270931243896484375" lon="20.1103128679096698760986328125">
        <ele>1875</ele>
        <time>2026-06-20T06:22:24.000Z</time>
        <extensions>
          <ns3:TrackPointExtension>
            <ns3:atemp>20.0</ns3:atemp>
          </ns3:TrackPointExtension>
        </extensions>
      </trkpt>
      <trkpt lat="42.5482116825878620147705078125" lon="20.110301971435546875">
        <ele>1875.199951171875</ele>
        <time>2026-06-20T06:22:25.000Z</time>
        <extensions>
          <ns3:TrackPointExtension>
            <ns3:atemp>20.0</ns3:atemp>
          </ns3:TrackPointExtension>
        </extensions>
      </trkpt>
      <trkpt lat="42.54819466732442378997802734375" lon="20.1102880574762821197509765625">
        <ele>1875.4000244140625</ele>
        <time>2026-06-20T06:22:26.000Z</time>
        <extensions>
          <ns3:TrackPointExtension>
            <ns3:atemp>20.0</ns3:atemp>
          </ns3:TrackPointExtension>
        </extensions>
      </trkpt>
      <trkpt lat="42.5481771491467952728271484375" lon="20.11027758009731769561767578125">
        <ele>1875.800048828125</ele>
        <time>2026-06-20T06:22:27.000Z</time>
        <extensions>
          <ns3:TrackPointExtension>
            <ns3:atemp>20.0</ns3:atemp>
          </ns3:TrackPointExtension>
        </extensions>
      </trkpt>
      <trkpt lat="42.5481613911688327789306640625" lon="20.1102665998041629791259765625">
        <ele>1876.199951171875</ele>
        <time>2026-06-20T06:22:28.000Z</time>
        <extensions>
          <ns3:TrackPointExtension>
            <ns3:atemp>20.0</ns3:atemp>
          </ns3:TrackPointExtension>
        </extensions>
      </trkpt>
      <trkpt lat="42.54814437590539455413818359375" lon="20.110251009464263916015625">
        <ele>1876.5999755859375</ele>
        <time>2026-06-20T06:22:29.000Z</time>
        <extensions>
          <ns3:TrackPointExtension>
            <ns3:atemp>20.0</ns3:atemp>
          </ns3:TrackPointExtension>
        </extensions>
      </trkpt>
      <trkpt lat="42.5481258518993854522705078125" lon="20.11023248545825481414794921875">
        <ele>1876.800048828125</ele>
        <time>2026-06-20T06:22:30.000Z</time>
        <extensions>
          <ns3:TrackPointExtension>
            <ns3:atemp>20.0</ns3:atemp>
          </ns3:TrackPointExtension>
        </extensions>
      </trkpt>
      <trkpt lat="42.5481060706079006195068359375" lon="20.11021547019481658935546875">
        <ele>1877.199951171875</ele>
        <time>2026-06-20T06:22:31.000Z</time>
        <extensions>
          <ns3:TrackPointExtension>
            <ns3:atemp>20.0</ns3:atemp>
          </ns3:TrackPointExtension>
        </extensions>
      </trkpt>
      <trkpt lat="42.54808318801224231719970703125" lon="20.11019661091268062591552734375">
        <ele>1877.4000244140625</ele>
        <time>2026-06-20T06:22:32.000Z</time>
        <extensions>
          <ns3:TrackPointExtension>
            <ns3:atemp>20.0</ns3:atemp>
          </ns3:TrackPointExtension>
        </extensions>
      </trkpt>
      <trkpt lat="42.54805971868336200714111328125" lon="20.110178254544734954833984375">
        <ele>1877.5999755859375</ele>
        <time>2026-06-20T06:22:33.000Z</time>
        <extensions>
          <ns3:TrackPointExtension>
            <ns3:atemp>20.0</ns3:atemp>
          </ns3:TrackPointExtension>
        </extensions>
      </trkpt>
      <trkpt lat="42.54803759045898914337158203125" lon="20.11015512049198150634765625">
        <ele>1877.800048828125</ele>
        <time>2026-06-20T06:22:34.000Z</time>
        <extensions>
          <ns3:TrackPointExtension>
            <ns3:atemp>20.0</ns3:atemp>
          </ns3:TrackPointExtension>
        </extensions>
      </trkpt>
      <trkpt lat="42.5480170547962188720703125" lon="20.11013207025825977325439453125">
        <ele>1878</ele>
        <time>2026-06-20T06:22:35.000Z</time>
        <extensions>
          <ns3:TrackPointExtension>
            <ns3:atemp>20.0</ns3:atemp>
          </ns3:TrackPointExtension>
        </extensions>
      </trkpt>
      <trkpt lat="42.54800121299922466278076171875" lon="20.1101049967110157012939453125">
        <ele>1878.199951171875</ele>
        <time>2026-06-20T06:22:36.000Z</time>
        <extensions>
          <ns3:TrackPointExtension>
            <ns3:atemp>20.0</ns3:atemp>
          </ns3:TrackPointExtension>
        </extensions>
      </trkpt>
      <trkpt lat="42.54798847250640392303466796875" lon="20.1100815273821353912353515625">
        <ele>1878.4000244140625</ele>
        <time>2026-06-20T06:22:37.000Z</time>
        <extensions>
          <ns3:TrackPointExtension>
            <ns3:atemp>20.0</ns3:atemp>
          </ns3:TrackPointExtension>
        </extensions>
      </trkpt>
      <trkpt lat="42.5479783304035663604736328125" lon="20.11005914770066738128662109375">
        <ele>1878.5999755859375</ele>
        <time>2026-06-20T06:22:38.000Z</time>
        <extensions>
          <ns3:TrackPointExtension>
            <ns3:atemp>20.0</ns3:atemp>
          </ns3:TrackPointExtension>
        </extensions>
      </trkpt>
      <trkpt lat="42.54796735011041164398193359375" lon="20.11003978550434112548828125">
        <ele>1878.800048828125</ele>
        <time>2026-06-20T06:22:39.000Z</time>
        <extensions>
          <ns3:TrackPointExtension>
            <ns3:atemp>20.0</ns3:atemp>
          </ns3:TrackPointExtension>
        </extensions>
      </trkpt>
      <trkpt lat="42.54795729182660579681396484375" lon="20.1100191660225391387939453125">
        <ele>1879</ele>
        <time>2026-06-20T06:22:40.000Z</time>
        <extensions>
          <ns3:TrackPointExtension>
            <ns3:atemp>20.0</ns3:atemp>
          </ns3:TrackPointExtension>
        </extensions>
      </trkpt>
      <trkpt lat="42.547951675951480865478515625" lon="20.10999326594173908233642578125">
        <ele>1879.4000244140625</ele>
        <time>2026-06-20T06:22:41.000Z</time>
        <extensions>
          <ns3:TrackPointExtension>
            <ns3:atemp>20.0</ns3:atemp>
          </ns3:TrackPointExtension>
        </extensions>
      </trkpt>
      <trkpt lat="42.54794404841959476470947265625" lon="20.10996443219482898712158203125">
        <ele>1879.800048828125</ele>
        <time>2026-06-20T06:22:42.000Z</time>
        <extensions>
          <ns3:TrackPointExtension>
            <ns3:atemp>20.0</ns3:atemp>
          </ns3:TrackPointExtension>
        </extensions>
      </trkpt>
      <trkpt lat="42.5479360856115818023681640625" lon="20.10993241332471370697021484375">
        <ele>1880</ele>
        <time>2026-06-20T06:22:43.000Z</time>
        <extensions>
          <ns3:TrackPointExtension>
            <ns3:atemp>20.0</ns3:atemp>
          </ns3:TrackPointExtension>
        </extensions>
      </trkpt>
      <trkpt lat="42.54793013446033000946044921875" lon="20.1099038310348987579345703125">
        <ele>1880.199951171875</ele>
        <time>2026-06-20T06:22:44.000Z</time>
        <extensions>
          <ns3:TrackPointExtension>
            <ns3:atemp>20.0</ns3:atemp>
          </ns3:TrackPointExtension>
        </extensions>
      </trkpt>
      <trkpt lat="42.5479250214993953704833984375" lon="20.10987994261085987091064453125">
        <ele>1880.4000244140625</ele>
        <time>2026-06-20T06:22:45.000Z</time>
        <extensions>
          <ns3:TrackPointExtension>
            <ns3:atemp>20.0</ns3:atemp>
          </ns3:TrackPointExtension>
        </extensions>
      </trkpt>
      <trkpt lat="42.54791789688169956207275390625" lon="20.1098580658435821533203125">
        <ele>1880.800048828125</ele>
        <time>2026-06-20T06:22:46.000Z</time>
        <extensions>
          <ns3:TrackPointExtension>
            <ns3:atemp>20.0</ns3:atemp>
          </ns3:TrackPointExtension>
        </extensions>
      </trkpt>
      <trkpt lat="42.54791320301592350006103515625" lon="20.1098317466676235198974609375">
        <ele>1881</ele>
        <time>2026-06-20T06:22:47.000Z</time>
        <extensions>
          <ns3:TrackPointExtension>
            <ns3:atemp>20.0</ns3:atemp>
          </ns3:TrackPointExtension>
        </extensions>
      </trkpt>
      <trkpt lat="42.547910772264003753662109375" lon="20.10980702005326747894287109375">
        <ele>1881.199951171875</ele>
        <time>2026-06-20T06:22:48.000Z</time>
        <extensions>
          <ns3:TrackPointExtension>
            <ns3:atemp>20.0</ns3:atemp>
          </ns3:TrackPointExtension>
        </extensions>
      </trkpt>
      <trkpt lat="42.54790767095983028411865234375" lon="20.10978438891470432281494140625">
        <ele>1881.4000244140625</ele>
        <time>2026-06-20T06:22:49.000Z</time>
        <extensions>
          <ns3:TrackPointExtension>
            <ns3:atemp>20.0</ns3:atemp>
          </ns3:TrackPointExtension>
        </extensions>
      </trkpt>
      <trkpt lat="42.547904737293720245361328125" lon="20.109755806624889373779296875">
        <ele>1881.5999755859375</ele>
        <time>2026-06-20T06:22:50.000Z</time>
        <extensions>
          <ns3:TrackPointExtension>
            <ns3:atemp>20.0</ns3:atemp>
          </ns3:TrackPointExtension>
        </extensions>
      </trkpt>
      <trkpt lat="42.54790264181792736053466796875" lon="20.1097274757921695709228515625">
        <ele>1881.800048828125</ele>
        <time>2026-06-20T06:22:51.000Z</time>
        <extensions>
          <ns3:TrackPointExtension>
            <ns3:atemp>20.0</ns3:atemp>
          </ns3:TrackPointExtension>
        </extensions>
      </trkpt>
      <trkpt lat="42.5478992052376270294189453125" lon="20.109698809683322906494140625">
        <ele>1882</ele>
        <time>2026-06-20T06:22:52.000Z</time>
        <extensions>
          <ns3:TrackPointExtension>
            <ns3:atemp>20.0</ns3:atemp>
          </ns3:TrackPointExtension>
        </extensions>
      </trkpt>
      <trkpt lat="42.54789300262928009033203125" lon="20.1096758432686328887939453125">
        <ele>1882.199951171875</ele>
        <time>2026-06-20T06:22:53.000Z</time>
        <extensions>
          <ns3:TrackPointExtension>
            <ns3:atemp>20.0</ns3:atemp>
          </ns3:TrackPointExtension>
        </extensions>
      </trkpt>
      <trkpt lat="42.5478864647448062896728515625" lon="20.10964759625494480133056640625">
        <ele>1882.4000244140625</ele>
        <time>2026-06-20T06:22:54.000Z</time>
        <extensions>
          <ns3:TrackPointExtension>
            <ns3:atemp>20.0</ns3:atemp>
          </ns3:TrackPointExtension>
        </extensions>
      </trkpt>
      <trkpt lat="42.547881267964839935302734375" lon="20.109624378383159637451171875">
        <ele>1882.4000244140625</ele>
        <time>2026-06-20T06:22:55.000Z</time>
        <extensions>
          <ns3:TrackPointExtension>
            <ns3:atemp>20.0</ns3:atemp>
          </ns3:TrackPointExtension>
        </extensions>
      </trkpt>
      <trkpt lat="42.54787213169038295745849609375" lon="20.1095983944833278656005859375">
        <ele>1882.5999755859375</ele>
        <time>2026-06-20T06:22:56.000Z</time>
        <extensions>
          <ns3:TrackPointExtension>
            <ns3:atemp>20.0</ns3:atemp>
          </ns3:TrackPointExtension>
        </extensions>
      </trkpt>
      <trkpt lat="42.5478609837591648101806640625" lon="20.1095776073634624481201171875">
        <ele>1882.800048828125</ele>
        <time>2026-06-20T06:22:57.000Z</time>
        <extensions>
          <ns3:TrackPointExtension>
            <ns3:atemp>20.0</ns3:atemp>
          </ns3:TrackPointExtension>
        </extensions>
      </trkpt>
      <trkpt lat="42.54784598015248775482177734375" lon="20.10955673642456531524658203125">
        <ele>1882.800048828125</ele>
        <time>2026-06-20T06:22:58.000Z</time>
        <extensions>
          <ns3:TrackPointExtension>
            <ns3:atemp>20.0</ns3:atemp>
          </ns3:TrackPointExtension>
        </extensions>
      </trkpt>
      <trkpt lat="42.54782888107001781463623046875" lon="20.1095363683998584747314453125">
        <ele>1882.5999755859375</ele>
        <time>2026-06-20T06:22:59.000Z</time>
        <extensions>
          <ns3:TrackPointExtension>
            <ns3:atemp>20.0</ns3:atemp>
          </ns3:TrackPointExtension>
        </extensions>
      </trkpt>
      <trkpt lat="42.5478110276162624359130859375" lon="20.10952203534543514251708984375">
        <ele>1882.5999755859375</ele>
        <time>2026-06-20T06:23:00.000Z</time>
        <extensions>
          <ns3:TrackPointExtension>
            <ns3:atemp>20.0</ns3:atemp>
          </ns3:TrackPointExtension>
        </extensions>
      </trkpt>
      <trkpt lat="42.54779937677085399627685546875" lon="20.1095040142536163330078125">
        <ele>1882.5999755859375</ele>
        <time>2026-06-20T06:23:01.000Z</time>
        <extensions>
          <ns3:TrackPointExtension>
            <ns3:atemp>20.0</ns3:atemp>
          </ns3:TrackPointExtension>
        </extensions>
      </trkpt>
      <trkpt lat="42.54777959547936916351318359375" lon="20.109488256275653839111328125">
        <ele>1882.4000244140625</ele>
        <time>2026-06-20T06:23:02.000Z</time>
        <extensions>
          <ns3:TrackPointExtension>
            <ns3:atemp>20.0</ns3:atemp>
          </ns3:TrackPointExtension>
        </extensions>
      </trkpt>
      <trkpt lat="42.54775361157953739166259765625" lon="20.10946637950837612152099609375">
        <ele>1882.4000244140625</ele>
        <time>2026-06-20T06:23:03.000Z</time>
        <extensions>
          <ns3:TrackPointExtension>
            <ns3:atemp>20.0</ns3:atemp>
          </ns3:TrackPointExtension>
        </extensions>
      </trkpt>
      <trkpt lat="42.54772276617586612701416015625" lon="20.1094398088753223419189453125">
        <ele>1882</ele>
        <time>2026-06-20T06:23:04.000Z</time>
        <extensions>
          <ns3:TrackPointExtension>
            <ns3:atemp>20.0</ns3:atemp>
          </ns3:TrackPointExtension>
        </extensions>
      </trkpt>
      <trkpt lat="42.54770013503730297088623046875" lon="20.10941491462290287017822265625">
        <ele>1881.800048828125</ele>
        <time>2026-06-20T06:23:05.000Z</time>
        <extensions>
          <ns3:TrackPointExtension>
            <ns3:atemp>20.0</ns3:atemp>
          </ns3:TrackPointExtension>
        </extensions>
      </trkpt>
      <trkpt lat="42.5476817786693572998046875" lon="20.1093982346355915069580078125">
        <ele>1881.5999755859375</ele>
        <time>2026-06-20T06:23:06.000Z</time>
        <extensions>
          <ns3:TrackPointExtension>
            <ns3:atemp>20.0</ns3:atemp>
          </ns3:TrackPointExtension>
        </extensions>
      </trkpt>
      <trkpt lat="42.547671385109424591064453125" lon="20.1093888469040393829345703125">
        <ele>1881.199951171875</ele>
        <time>2026-06-20T06:23:07.000Z</time>
        <extensions>
          <ns3:TrackPointExtension>
            <ns3:atemp>20.0</ns3:atemp>
          </ns3:TrackPointExtension>
        </extensions>
      </trkpt>
      <trkpt lat="42.54766358993947505950927734375" lon="20.1093828119337558746337890625">
        <ele>1881</ele>
        <time>2026-06-20T06:23:08.000Z</time>
        <extensions>
          <ns3:TrackPointExtension>
            <ns3:atemp>20.0</ns3:atemp>
          </ns3:TrackPointExtension>
        </extensions>
      </trkpt>
      <trkpt lat="42.547664344310760498046875" lon="20.1093787886202335357666015625">
        <ele>1880.800048828125</ele>
        <time>2026-06-20T06:23:09.000Z</time>
        <extensions>
          <ns3:TrackPointExtension>
            <ns3:atemp>20.0</ns3:atemp>
          </ns3:TrackPointExtension>
        </extensions>
      </trkpt>
      <trkpt lat="42.54766409285366535186767578125" lon="20.1093764416873455047607421875">
        <ele>1880.5999755859375</ele>
        <time>2026-06-20T06:23:10.000Z</time>
        <extensions>
          <ns3:TrackPointExtension>
            <ns3:atemp>20.0</ns3:atemp>
          </ns3:TrackPointExtension>
        </extensions>
      </trkpt>
      <trkpt lat="42.5476641766726970672607421875" lon="20.1093764416873455047607421875">
        <ele>1880.4000244140625</ele>
        <time>2026-06-20T06:23:11.000Z</time>
        <extensions>
          <ns3:TrackPointExtension>
            <ns3:atemp>20.0</ns3:atemp>
          </ns3:TrackPointExtension>
        </extensions>
      </trkpt>
      <trkpt lat="42.5476641766726970672607421875" lon="20.1093764416873455047607421875">
        <ele>1880.4000244140625</ele>
        <time>2026-06-20T06:23:12.000Z</time>
        <extensions>
          <ns3:TrackPointExtension>
            <ns3:atemp>20.0</ns3:atemp>
          </ns3:TrackPointExtension>
        </extensions>
      </trkpt>
      <trkpt lat="42.5476641766726970672607421875" lon="20.1093764416873455047607421875">
        <ele>1880.199951171875</ele>
        <time>2026-06-20T06:23:13.000Z</time>
        <extensions>
          <ns3:TrackPointExtension>
            <ns3:atemp>20.0</ns3:atemp>
          </ns3:TrackPointExtension>
        </extensions>
      </trkpt>
      <trkpt lat="42.5476641766726970672607421875" lon="20.1093764416873455047607421875">
        <ele>1880.199951171875</ele>
        <time>2026-06-20T06:23:14.000Z</time>
        <extensions>
          <ns3:TrackPointExtension>
            <ns3:atemp>20.0</ns3:atemp>
          </ns3:TrackPointExtension>
        </extensions>
      </trkpt>
      <trkpt lat="42.5476641766726970672607421875" lon="20.1093764416873455047607421875">
        <ele>1880.199951171875</ele>
        <time>2026-06-20T06:23:15.000Z</time>
        <extensions>
          <ns3:TrackPointExtension>
            <ns3:atemp>20.0</ns3:atemp>
          </ns3:TrackPointExtension>
        </extensions>
      </trkpt>
      <trkpt lat="42.5476641766726970672607421875" lon="20.1093764416873455047607421875">
        <ele>1880.4000244140625</ele>
        <time>2026-06-20T06:23:16.000Z</time>
        <extensions>
          <ns3:TrackPointExtension>
            <ns3:atemp>20.0</ns3:atemp>
          </ns3:TrackPointExtension>
        </extensions>
      </trkpt>
      <trkpt lat="42.5476641766726970672607421875" lon="20.1093764416873455047607421875">
        <ele>1880.4000244140625</ele>
        <time>2026-06-20T06:23:17.000Z</time>
        <extensions>
          <ns3:TrackPointExtension>
            <ns3:atemp>20.0</ns3:atemp>
          </ns3:TrackPointExtension>
        </extensions>
      </trkpt>
      <trkpt lat="42.5476641766726970672607421875" lon="20.1093764416873455047607421875">
        <ele>1880.5999755859375</ele>
        <time>2026-06-20T06:23:18.000Z</time>
        <extensions>
          <ns3:TrackPointExtension>
            <ns3:atemp>20.0</ns3:atemp>
          </ns3:TrackPointExtension>
        </extensions>
      </trkpt>
      <trkpt lat="42.5476641766726970672607421875" lon="20.1093764416873455047607421875">
        <ele>1880.5999755859375</ele>
        <time>2026-06-20T06:23:19.000Z</time>
        <extensions>
          <ns3:TrackPointExtension>
            <ns3:atemp>20.0</ns3:atemp>
          </ns3:TrackPointExtension>
        </extensions>
      </trkpt>
      <trkpt lat="42.5476641766726970672607421875" lon="20.1093764416873455047607421875">
        <ele>1880.5999755859375</ele>
        <time>2026-06-20T06:23:20.000Z</time>
        <extensions>
          <ns3:TrackPointExtension>
            <ns3:atemp>20.0</ns3:atemp>
          </ns3:TrackPointExtension>
        </extensions>
      </trkpt>
      <trkpt lat="42.5476641766726970672607421875" lon="20.1093764416873455047607421875">
        <ele>1880.5999755859375</ele>
        <time>2026-06-20T06:23:21.000Z</time>
        <extensions>
          <ns3:TrackPointExtension>
            <ns3:atemp>20.0</ns3:atemp>
          </ns3:TrackPointExtension>
        </extensions>
      </trkpt>
      <trkpt lat="42.5476641766726970672607421875" lon="20.1093764416873455047607421875">
        <ele>1880.5999755859375</ele>
        <time>2026-06-20T06:23:22.000Z</time>
        <extensions>
          <ns3:TrackPointExtension>
            <ns3:atemp>20.0</ns3:atemp>
          </ns3:TrackPointExtension>
        </extensions>
      </trkpt>
      <trkpt lat="42.5476641766726970672607421875" lon="20.1093764416873455047607421875">
        <ele>1880.5999755859375</ele>
        <time>2026-06-20T06:23:23.000Z</time>
        <extensions>
          <ns3:TrackPointExtension>
            <ns3:atemp>20.0</ns3:atemp>
          </ns3:TrackPointExtension>
        </extensions>
      </trkpt>
      <trkpt lat="42.5476641766726970672607421875" lon="20.1093764416873455047607421875">
        <ele>1880.4000244140625</ele>
        <time>2026-06-20T06:23:24.000Z</time>
        <extensions>
          <ns3:TrackPointExtension>
            <ns3:atemp>20.0</ns3:atemp>
          </ns3:TrackPointExtension>
        </extensions>
      </trkpt>
      <trkpt lat="42.5476641766726970672607421875" lon="20.1093764416873455047607421875">
        <ele>1880.4000244140625</ele>
        <time>2026-06-20T06:23:25.000Z</time>
        <extensions>
          <ns3:TrackPointExtension>
            <ns3:atemp>20.0</ns3:atemp>
          </ns3:TrackPointExtension>
        </extensions>
      </trkpt>
      <trkpt lat="42.5476641766726970672607421875" lon="20.1093764416873455047607421875">
        <ele>1880.4000244140625</ele>
        <time>2026-06-20T06:23:26.000Z</time>
        <extensions>
          <ns3:TrackPointExtension>
            <ns3:atemp>20.0</ns3:atemp>
          </ns3:TrackPointExtension>
        </extensions>
      </trkpt>
      <trkpt lat="42.5476641766726970672607421875" lon="20.1093764416873455047607421875">
        <ele>1880.5999755859375</ele>
        <time>2026-06-20T06:23:27.000Z</time>
        <extensions>
          <ns3:TrackPointExtension>
            <ns3:atemp>20.0</ns3:atemp>
          </ns3:TrackPointExtension>
        </extensions>
      </trkpt>
      <trkpt lat="42.5476641766726970672607421875" lon="20.1093764416873455047607421875">
        <ele>1880.5999755859375</ele>
        <time>2026-06-20T06:23:28.000Z</time>
        <extensions>
          <ns3:TrackPointExtension>
            <ns3:atemp>20.0</ns3:atemp>
          </ns3:TrackPointExtension>
        </extensions>
      </trkpt>
      <trkpt lat="42.5476641766726970672607421875" lon="20.1093764416873455047607421875">
        <ele>1880.5999755859375</ele>
        <time>2026-06-20T06:23:29.000Z</time>
        <extensions>
          <ns3:TrackPointExtension>
            <ns3:atemp>20.0</ns3:atemp>
          </ns3:TrackPointExtension>
        </extensions>
      </trkpt>
      <trkpt lat="42.5476641766726970672607421875" lon="20.1093764416873455047607421875">
        <ele>1880.5999755859375</ele>
        <time>2026-06-20T06:23:30.000Z</time>
        <extensions>
          <ns3:TrackPointExtension>
            <ns3:atemp>20.0</ns3:atemp>
          </ns3:TrackPointExtension>
        </extensions>
      </trkpt>
      <trkpt lat="42.5476641766726970672607421875" lon="20.1093764416873455047607421875">
        <ele>1880.5999755859375</ele>
        <time>2026-06-20T06:23:31.000Z</time>
        <extensions>
          <ns3:TrackPointExtension>
            <ns3:atemp>20.0</ns3:atemp>
          </ns3:TrackPointExtension>
        </extensions>
      </trkpt>
      <trkpt lat="42.5476641766726970672607421875" lon="20.1093764416873455047607421875">
        <ele>1880.5999755859375</ele>
        <time>2026-06-20T06:23:32.000Z</time>
        <extensions>
          <ns3:TrackPointExtension>
            <ns3:atemp>20.0</ns3:atemp>
          </ns3:TrackPointExtension>
        </extensions>
      </trkpt>
      <trkpt lat="42.5476641766726970672607421875" lon="20.1093764416873455047607421875">
        <ele>1880.800048828125</ele>
        <time>2026-06-20T06:23:33.000Z</time>
        <extensions>
          <ns3:TrackPointExtension>
            <ns3:atemp>20.0</ns3:atemp>
          </ns3:TrackPointExtension>
        </extensions>
      </trkpt>
      <trkpt lat="42.5476641766726970672607421875" lon="20.1093764416873455047607421875">
        <ele>1880.800048828125</ele>
        <time>2026-06-20T06:23:34.000Z</time>
        <extensions>
          <ns3:TrackPointExtension>
            <ns3:atemp>20.0</ns3:atemp>
          </ns3:TrackPointExtension>
        </extensions>
      </trkpt>
      <trkpt lat="42.5476641766726970672607421875" lon="20.1093764416873455047607421875">
        <ele>1880.800048828125</ele>
        <time>2026-06-20T06:23:35.000Z</time>
        <extensions>
          <ns3:TrackPointExtension>
            <ns3:atemp>20.0</ns3:atemp>
          </ns3:TrackPointExtension>
        </extensions>
      </trkpt>
      <trkpt lat="42.5476641766726970672607421875" lon="20.1093764416873455047607421875">
        <ele>1880.800048828125</ele>
        <time>2026-06-20T06:23:36.000Z</time>
        <extensions>
          <ns3:TrackPointExtension>
            <ns3:atemp>20.0</ns3:atemp>
          </ns3:TrackPointExtension>
        </extensions>
      </trkpt>
      <trkpt lat="42.5476641766726970672607421875" lon="20.1093764416873455047607421875">
        <ele>1880.800048828125</ele>
        <time>2026-06-20T06:23:37.000Z</time>
        <extensions>
          <ns3:TrackPointExtension>
            <ns3:atemp>20.0</ns3:atemp>
          </ns3:TrackPointExtension>
        </extensions>
      </trkpt>
      <trkpt lat="42.5476641766726970672607421875" lon="20.1093764416873455047607421875">
        <ele>1880.800048828125</ele>
        <time>2026-06-20T06:23:38.000Z</time>
        <extensions>
          <ns3:TrackPointExtension>
            <ns3:atemp>20.0</ns3:atemp>
          </ns3:TrackPointExtension>
        </extensions>
      </trkpt>
      <trkpt lat="42.5476641766726970672607421875" lon="20.1093764416873455047607421875">
        <ele>1880.800048828125</ele>
        <time>2026-06-20T06:23:39.000Z</time>
        <extensions>
          <ns3:TrackPointExtension>
            <ns3:atemp>20.0</ns3:atemp>
          </ns3:TrackPointExtension>
        </extensions>
      </trkpt>
      <trkpt lat="42.5476641766726970672607421875" lon="20.1093764416873455047607421875">
        <ele>1880.800048828125</ele>
        <time>2026-06-20T06:23:40.000Z</time>
        <extensions>
          <ns3:TrackPointExtension>
            <ns3:atemp>20.0</ns3:atemp>
          </ns3:TrackPointExtension>
        </extensions>
      </trkpt>
      <trkpt lat="42.5476641766726970672607421875" lon="20.1093764416873455047607421875">
        <ele>1880.800048828125</ele>
        <time>2026-06-20T06:23:41.000Z</time>
        <extensions>
          <ns3:TrackPointExtension>
            <ns3:atemp>20.0</ns3:atemp>
          </ns3:TrackPointExtension>
        </extensions>
      </trkpt>
      <trkpt lat="42.5476641766726970672607421875" lon="20.1093764416873455047607421875">
        <ele>1880.800048828125</ele>
        <time>2026-06-20T06:23:42.000Z</time>
        <extensions>
          <ns3:TrackPointExtension>
            <ns3:atemp>20.0</ns3:atemp>
          </ns3:TrackPointExtension>
        </extensions>
      </trkpt>
      <trkpt lat="42.5476641766726970672607421875" lon="20.1093764416873455047607421875">
        <ele>1880.800048828125</ele>
        <time>2026-06-20T06:23:43.000Z</time>
        <extensions>
          <ns3:TrackPointExtension>
            <ns3:atemp>20.0</ns3:atemp>
          </ns3:TrackPointExtension>
        </extensions>
      </trkpt>
      <trkpt lat="42.5476641766726970672607421875" lon="20.1093764416873455047607421875">
        <ele>1880.800048828125</ele>
        <time>2026-06-20T06:23:44.000Z</time>
        <extensions>
          <ns3:TrackPointExtension>
            <ns3:atemp>20.0</ns3:atemp>
          </ns3:TrackPointExtension>
        </extensions>
      </trkpt>
      <trkpt lat="42.5476641766726970672607421875" lon="20.1093764416873455047607421875">
        <ele>1880.800048828125</ele>
        <time>2026-06-20T06:23:45.000Z</time>
        <extensions>
          <ns3:TrackPointExtension>
            <ns3:atemp>20.0</ns3:atemp>
          </ns3:TrackPointExtension>
        </extensions>
      </trkpt>
      <trkpt lat="42.5476641766726970672607421875" lon="20.1093764416873455047607421875">
        <ele>1880.5999755859375</ele>
        <time>2026-06-20T06:23:46.000Z</time>
        <extensions>
          <ns3:TrackPointExtension>
            <ns3:atemp>20.0</ns3:atemp>
          </ns3:TrackPointExtension>
        </extensions>
      </trkpt>
      <trkpt lat="42.5476641766726970672607421875" lon="20.1093764416873455047607421875">
        <ele>1880.4000244140625</ele>
        <time>2026-06-20T06:23:47.000Z</time>
        <extensions>
          <ns3:TrackPointExtension>
            <ns3:atemp>20.0</ns3:atemp>
          </ns3:TrackPointExtension>
        </extensions>
      </trkpt>
      <trkpt lat="42.54766426049172878265380859375" lon="20.10937459766864776611328125">
        <ele>1880.4000244140625</ele>
        <time>2026-06-20T06:23:48.000Z</time>
        <extensions>
          <ns3:TrackPointExtension>
            <ns3:atemp>20.0</ns3:atemp>
          </ns3:TrackPointExtension>
        </extensions>
      </trkpt>
      <trkpt lat="42.54764582030475139617919921875" lon="20.10936948470771312713623046875">
        <ele>1880.199951171875</ele>
        <time>2026-06-20T06:23:49.000Z</time>
        <extensions>
          <ns3:TrackPointExtension>
            <ns3:atemp>20.0</ns3:atemp>
          </ns3:TrackPointExtension>
        </extensions>
      </trkpt>
      <trkpt lat="42.547626793384552001953125" lon="20.10936520993709564208984375">
        <ele>1880.199951171875</ele>
        <time>2026-06-20T06:23:50.000Z</time>
        <extensions>
          <ns3:TrackPointExtension>
            <ns3:atemp>20.0</ns3:atemp>
          </ns3:TrackPointExtension>
        </extensions>
      </trkpt>
      <trkpt lat="42.54761145450174808502197265625" lon="20.1093672215938568115234375">
        <ele>1880.199951171875</ele>
        <time>2026-06-20T06:23:51.000Z</time>
        <extensions>
          <ns3:TrackPointExtension>
            <ns3:atemp>20.0</ns3:atemp>
          </ns3:TrackPointExtension>
        </extensions>
      </trkpt>
      <trkpt lat="42.5475954450666904449462890625" lon="20.1093690656125545501708984375">
        <ele>1880.199951171875</ele>
        <time>2026-06-20T06:23:52.000Z</time>
        <extensions>
          <ns3:TrackPointExtension>
            <ns3:atemp>20.0</ns3:atemp>
          </ns3:TrackPointExtension>
        </extensions>
      </trkpt>
      <trkpt lat="42.54757784307003021240234375" lon="20.10937669314444065093994140625">
        <ele>1880.199951171875</ele>
        <time>2026-06-20T06:23:53.000Z</time>
        <extensions>
          <ns3:TrackPointExtension>
            <ns3:atemp>20.0</ns3:atemp>
          </ns3:TrackPointExtension>
        </extensions>
      </trkpt>
      <trkpt lat="42.5475692935287952423095703125" lon="20.109390355646610260009765625">
        <ele>1880</ele>
        <time>2026-06-20T06:23:54.000Z</time>
        <extensions>
          <ns3:TrackPointExtension>
            <ns3:atemp>20.0</ns3:atemp>
          </ns3:TrackPointExtension>
        </extensions>
      </trkpt>
      <trkpt lat="42.54756317473948001861572265625" lon="20.109406448900699615478515625">
        <ele>1880.199951171875</ele>
        <time>2026-06-20T06:23:55.000Z</time>
        <extensions>
          <ns3:TrackPointExtension>
            <ns3:atemp>20.0</ns3:atemp>
          </ns3:TrackPointExtension>
        </extensions>
      </trkpt>
      <trkpt lat="42.54755747504532337188720703125" lon="20.10943469591438770294189453125">
        <ele>1880.199951171875</ele>
        <time>2026-06-20T06:23:56.000Z</time>
        <extensions>
          <ns3:TrackPointExtension>
            <ns3:atemp>20.0</ns3:atemp>
          </ns3:TrackPointExtension>
        </extensions>
      </trkpt>
      <trkpt lat="42.547555379569530487060546875" lon="20.109466798603534698486328125">
        <ele>1880.199951171875</ele>
        <time>2026-06-20T06:23:57.000Z</time>
        <extensions>
          <ns3:TrackPointExtension>
            <ns3:atemp>20.0</ns3:atemp>
          </ns3:TrackPointExtension>
        </extensions>
      </trkpt>
      <trkpt lat="42.54755261354148387908935546875" lon="20.109486915171146392822265625">
        <ele>1880.4000244140625</ele>
        <time>2026-06-20T06:23:58.000Z</time>
        <extensions>
          <ns3:TrackPointExtension>
            <ns3:atemp>20.0</ns3:atemp>
          </ns3:TrackPointExtension>
        </extensions>
      </trkpt>
      <trkpt lat="42.54755144007503986358642578125" lon="20.109507031738758087158203125">
        <ele>1880.5999755859375</ele>
        <time>2026-06-20T06:23:59.000Z</time>
        <extensions>
          <ns3:TrackPointExtension>
            <ns3:atemp>20.0</ns3:atemp>
          </ns3:TrackPointExtension>
        </extensions>
      </trkpt>
      <trkpt lat="42.547551691532135009765625" lon="20.1095320098102092742919921875">
        <ele>1880.800048828125</ele>
        <time>2026-06-20T06:24:00.000Z</time>
        <extensions>
          <ns3:TrackPointExtension>
            <ns3:atemp>20.0</ns3:atemp>
          </ns3:TrackPointExtension>
        </extensions>
      </trkpt>
      <trkpt lat="42.54754439927637577056884765625" lon="20.10956101119518280029296875">
        <ele>1881</ele>
        <time>2026-06-20T06:24:01.000Z</time>
        <extensions>
          <ns3:TrackPointExtension>
            <ns3:atemp>20.0</ns3:atemp>
          </ns3:TrackPointExtension>
        </extensions>
      </trkpt>
      <trkpt lat="42.54753090441226959228515625" lon="20.10958607308566570281982421875">
        <ele>1881.199951171875</ele>
        <time>2026-06-20T06:24:02.000Z</time>
        <extensions>
          <ns3:TrackPointExtension>
            <ns3:atemp>20.0</ns3:atemp>
          </ns3:TrackPointExtension>
        </extensions>
      </trkpt>
      <trkpt lat="42.547517828643321990966796875" lon="20.1096101291477680206298828125">
        <ele>1881.4000244140625</ele>
        <time>2026-06-20T06:24:03.000Z</time>
        <extensions>
          <ns3:TrackPointExtension>
            <ns3:atemp>20.0</ns3:atemp>
          </ns3:TrackPointExtension>
        </extensions>
      </trkpt>
      <trkpt lat="42.547503747045993804931640625" lon="20.10963234119117259979248046875">
        <ele>1881.5999755859375</ele>
        <time>2026-06-20T06:24:04.000Z</time>
        <extensions>
          <ns3:TrackPointExtension>
            <ns3:atemp>20.0</ns3:atemp>
          </ns3:TrackPointExtension>
        </extensions>
      </trkpt>
      <trkpt lat="42.5474931858479976654052734375" lon="20.10965891182422637939453125">
        <ele>1881.800048828125</ele>
        <time>2026-06-20T06:24:05.000Z</time>
        <extensions>
          <ns3:TrackPointExtension>
            <ns3:atemp>20.0</ns3:atemp>
          </ns3:TrackPointExtension>
        </extensions>
      </trkpt>
      <trkpt lat="42.54748304374516010284423828125" lon="20.10968380607664585113525390625">
        <ele>1882.199951171875</ele>
        <time>2026-06-20T06:24:06.000Z</time>
        <extensions>
          <ns3:TrackPointExtension>
            <ns3:atemp>20.0</ns3:atemp>
          </ns3:TrackPointExtension>
        </extensions>
      </trkpt>
      <trkpt lat="42.54747197963297367095947265625" lon="20.1097076945006847381591796875">
        <ele>1882.4000244140625</ele>
        <time>2026-06-20T06:24:07.000Z</time>
        <extensions>
          <ns3:TrackPointExtension>
            <ns3:atemp>20.0</ns3:atemp>
          </ns3:TrackPointExtension>
        </extensions>
      </trkpt>
      <trkpt lat="42.54746242426335811614990234375" lon="20.10972906835377216339111328125">
        <ele>1882.800048828125</ele>
        <time>2026-06-20T06:24:08.000Z</time>
        <extensions>
          <ns3:TrackPointExtension>
            <ns3:atemp>20.0</ns3:atemp>
          </ns3:TrackPointExtension>
        </extensions>
      </trkpt>
      <trkpt lat="42.54745186306536197662353515625" lon="20.10974683798849582672119140625">
        <ele>1883</ele>
        <time>2026-06-20T06:24:09.000Z</time>
        <extensions>
          <ns3:TrackPointExtension>
            <ns3:atemp>20.0</ns3:atemp>
          </ns3:TrackPointExtension>
        </extensions>
      </trkpt>
      <trkpt lat="42.5474358536303043365478515625" lon="20.10976226069033145904541015625">
        <ele>1883.4000244140625</ele>
        <time>2026-06-20T06:24:10.000Z</time>
        <extensions>
          <ns3:TrackPointExtension>
            <ns3:atemp>20.0</ns3:atemp>
          </ns3:TrackPointExtension>
        </extensions>
      </trkpt>
      <trkpt lat="42.54742420278489589691162109375" lon="20.109776593744754791259765625">
        <ele>1883.5999755859375</ele>
        <time>2026-06-20T06:24:11.000Z</time>
        <extensions>
          <ns3:TrackPointExtension>
            <ns3:atemp>20.0</ns3:atemp>
          </ns3:TrackPointExtension>
        </extensions>
      </trkpt>
      <trkpt lat="42.54741489887237548828125" lon="20.1097921840846538543701171875">
        <ele>1883.5999755859375</ele>
        <time>2026-06-20T06:24:12.000Z</time>
        <extensions>
          <ns3:TrackPointExtension>
            <ns3:atemp>20.0</ns3:atemp>
          </ns3:TrackPointExtension>
        </extensions>
      </trkpt>
      <trkpt lat="42.54740542732179164886474609375" lon="20.1098109595477581024169921875">
        <ele>1883.5999755859375</ele>
        <time>2026-06-20T06:24:13.000Z</time>
        <extensions>
          <ns3:TrackPointExtension>
            <ns3:atemp>20.0</ns3:atemp>
          </ns3:TrackPointExtension>
        </extensions>
      </trkpt>
      <trkpt lat="42.54738782532513141632080078125" lon="20.109824873507022857666015625">
        <ele>1883.5999755859375</ele>
        <time>2026-06-20T06:24:14.000Z</time>
        <extensions>
          <ns3:TrackPointExtension>
            <ns3:atemp>20.0</ns3:atemp>
          </ns3:TrackPointExtension>
        </extensions>
      </trkpt>
      <trkpt lat="42.54736594855785369873046875" lon="20.1098446547985076904296875">
        <ele>1883.4000244140625</ele>
        <time>2026-06-20T06:24:15.000Z</time>
        <extensions>
          <ns3:TrackPointExtension>
            <ns3:atemp>20.0</ns3:atemp>
          </ns3:TrackPointExtension>
        </extensions>
      </trkpt>
      <trkpt lat="42.54734323360025882720947265625" lon="20.1098669506609439849853515625">
        <ele>1883.199951171875</ele>
        <time>2026-06-20T06:24:16.000Z</time>
        <extensions>
          <ns3:TrackPointExtension>
            <ns3:atemp>20.0</ns3:atemp>
          </ns3:TrackPointExtension>
        </extensions>
      </trkpt>
      <trkpt lat="42.54732931964099407196044921875" lon="20.10987994261085987091064453125">
        <ele>1883.199951171875</ele>
        <time>2026-06-20T06:24:17.000Z</time>
        <extensions>
          <ns3:TrackPointExtension>
            <ns3:atemp>20.0</ns3:atemp>
          </ns3:TrackPointExtension>
        </extensions>
      </trkpt>
      <trkpt lat="42.54732973873615264892578125" lon="20.1098776794970035552978515625">
        <ele>1883</ele>
        <time>2026-06-20T06:24:18.000Z</time>
        <extensions>
          <ns3:TrackPointExtension>
            <ns3:atemp>20.0</ns3:atemp>
          </ns3:TrackPointExtension>
        </extensions>
      </trkpt>
      <trkpt lat="42.547328732907772064208984375" lon="20.10987658984959125518798828125">
        <ele>1883</ele>
        <time>2026-06-20T06:24:19.000Z</time>
        <extensions>
          <ns3:TrackPointExtension>
            <ns3:atemp>20.0</ns3:atemp>
          </ns3:TrackPointExtension>
        </extensions>
      </trkpt>
      <trkpt lat="42.547328732907772064208984375" lon="20.10987658984959125518798828125">
        <ele>1883.199951171875</ele>
        <time>2026-06-20T06:24:20.000Z</time>
        <extensions>
          <ns3:TrackPointExtension>
            <ns3:atemp>20.0</ns3:atemp>
          </ns3:TrackPointExtension>
        </extensions>
      </trkpt>
      <trkpt lat="42.547328732907772064208984375" lon="20.10987658984959125518798828125">
        <ele>1883.199951171875</ele>
        <time>2026-06-20T06:24:21.000Z</time>
        <extensions>
          <ns3:TrackPointExtension>
            <ns3:atemp>20.0</ns3:atemp>
          </ns3:TrackPointExtension>
        </extensions>
      </trkpt>
      <trkpt lat="42.547328732907772064208984375" lon="20.10987658984959125518798828125">
        <ele>1883.4000244140625</ele>
        <time>2026-06-20T06:24:22.000Z</time>
        <extensions>
          <ns3:TrackPointExtension>
            <ns3:atemp>20.0</ns3:atemp>
          </ns3:TrackPointExtension>
        </extensions>
      </trkpt>
      <trkpt lat="42.547328732907772064208984375" lon="20.10987658984959125518798828125">
        <ele>1883.4000244140625</ele>
        <time>2026-06-20T06:24:23.000Z</time>
        <extensions>
          <ns3:TrackPointExtension>
            <ns3:atemp>20.0</ns3:atemp>
          </ns3:TrackPointExtension>
        </extensions>
      </trkpt>
      <trkpt lat="42.547328732907772064208984375" lon="20.10987658984959125518798828125">
        <ele>1883.4000244140625</ele>
        <time>2026-06-20T06:24:24.000Z</time>
        <extensions>
          <ns3:TrackPointExtension>
            <ns3:atemp>20.0</ns3:atemp>
          </ns3:TrackPointExtension>
        </extensions>
      </trkpt>
      <trkpt lat="42.547328732907772064208984375" lon="20.10987658984959125518798828125">
        <ele>1883.4000244140625</ele>
        <time>2026-06-20T06:24:25.000Z</time>
        <extensions>
          <ns3:TrackPointExtension>
            <ns3:atemp>20.0</ns3:atemp>
          </ns3:TrackPointExtension>
        </extensions>
      </trkpt>
      <trkpt lat="42.547328732907772064208984375" lon="20.10987658984959125518798828125">
        <ele>1883.4000244140625</ele>
        <time>2026-06-20T06:24:26.000Z</time>
        <extensions>
          <ns3:TrackPointExtension>
            <ns3:atemp>20.0</ns3:atemp>
          </ns3:TrackPointExtension>
        </extensions>
      </trkpt>
      <trkpt lat="42.547328732907772064208984375" lon="20.10987658984959125518798828125">
        <ele>1883.4000244140625</ele>
        <time>2026-06-20T06:24:27.000Z</time>
        <extensions>
          <ns3:TrackPointExtension>
            <ns3:atemp>20.0</ns3:atemp>
          </ns3:TrackPointExtension>
        </extensions>
      </trkpt>
      <trkpt lat="42.547328732907772064208984375" lon="20.10987658984959125518798828125">
        <ele>1883.199951171875</ele>
        <time>2026-06-20T06:24:28.000Z</time>
        <extensions>
          <ns3:TrackPointExtension>
            <ns3:atemp>20.0</ns3:atemp>
          </ns3:TrackPointExtension>
        </extensions>
      </trkpt>
      <trkpt lat="42.5473277270793914794921875" lon="20.10987575165927410125732421875">
        <ele>1883.199951171875</ele>
        <time>2026-06-20T06:24:29.000Z</time>
        <extensions>
          <ns3:TrackPointExtension>
            <ns3:atemp>20.0</ns3:atemp>
          </ns3:TrackPointExtension>
        </extensions>
      </trkpt>
      <trkpt lat="42.5473118014633655548095703125" lon="20.10987742803990840911865234375">
        <ele>1883</ele>
        <time>2026-06-20T06:24:30.000Z</time>
        <extensions>
          <ns3:TrackPointExtension>
            <ns3:atemp>20.0</ns3:atemp>
          </ns3:TrackPointExtension>
        </extensions>
      </trkpt>
      <trkpt lat="42.54729797132313251495361328125" lon="20.109886229038238525390625">
        <ele>1883</ele>
        <time>2026-06-20T06:24:31.000Z</time>
        <extensions>
          <ns3:TrackPointExtension>
            <ns3:atemp>20.0</ns3:atemp>
          </ns3:TrackPointExtension>
        </extensions>
      </trkpt>
      <trkpt lat="42.5472826324403285980224609375" lon="20.109899975359439849853515625">
        <ele>1882.800048828125</ele>
        <time>2026-06-20T06:24:32.000Z</time>
        <extensions>
          <ns3:TrackPointExtension>
            <ns3:atemp>20.0</ns3:atemp>
          </ns3:TrackPointExtension>
        </extensions>
      </trkpt>
      <trkpt lat="42.547267712652683258056640625" lon="20.1099105365574359893798828125">
        <ele>1882.5999755859375</ele>
        <time>2026-06-20T06:24:33.000Z</time>
        <extensions>
          <ns3:TrackPointExtension>
            <ns3:atemp>20.0</ns3:atemp>
          </ns3:TrackPointExtension>
        </extensions>
      </trkpt>
      <trkpt lat="42.54725396633148193359375" lon="20.10991615243256092071533203125">
        <ele>1882.4000244140625</ele>
        <time>2026-06-20T06:24:34.000Z</time>
        <extensions>
          <ns3:TrackPointExtension>
            <ns3:atemp>20.0</ns3:atemp>
          </ns3:TrackPointExtension>
        </extensions>
      </trkpt>
      <trkpt lat="42.54724298603832721710205078125" lon="20.10991967283189296722412109375">
        <ele>1882.4000244140625</ele>
        <time>2026-06-20T06:24:35.000Z</time>
        <extensions>
          <ns3:TrackPointExtension>
            <ns3:atemp>20.0</ns3:atemp>
          </ns3:TrackPointExtension>
        </extensions>
      </trkpt>
      <trkpt lat="42.54723460413515567779541015625" lon="20.10991967283189296722412109375">
        <ele>1882.199951171875</ele>
        <time>2026-06-20T06:24:36.000Z</time>
        <extensions>
          <ns3:TrackPointExtension>
            <ns3:atemp>20.0</ns3:atemp>
          </ns3:TrackPointExtension>
        </extensions>
      </trkpt>
      <trkpt lat="42.54722806625068187713623046875" lon="20.109920091927051544189453125">
        <ele>1882.199951171875</ele>
        <time>2026-06-20T06:24:37.000Z</time>
        <extensions>
          <ns3:TrackPointExtension>
            <ns3:atemp>20.0</ns3:atemp>
          </ns3:TrackPointExtension>
        </extensions>
      </trkpt>
      <trkpt lat="42.54722605459392070770263671875" lon="20.10991849936544895172119140625">
        <ele>1882</ele>
        <time>2026-06-20T06:24:38.000Z</time>
        <extensions>
          <ns3:TrackPointExtension>
            <ns3:atemp>20.0</ns3:atemp>
          </ns3:TrackPointExtension>
        </extensions>
      </trkpt>
      <trkpt lat="42.54722605459392070770263671875" lon="20.10991849936544895172119140625">
        <ele>1881.800048828125</ele>
        <time>2026-06-20T06:24:39.000Z</time>
        <extensions>
          <ns3:TrackPointExtension>
            <ns3:atemp>20.0</ns3:atemp>
          </ns3:TrackPointExtension>
        </extensions>
      </trkpt>
      <trkpt lat="42.54722605459392070770263671875" lon="20.10991849936544895172119140625">
        <ele>1881.800048828125</ele>
        <time>2026-06-20T06:24:40.000Z</time>
        <extensions>
          <ns3:TrackPointExtension>
            <ns3:atemp>20.0</ns3:atemp>
          </ns3:TrackPointExtension>
        </extensions>
      </trkpt>
      <trkpt lat="42.54722605459392070770263671875" lon="20.10991849936544895172119140625">
        <ele>1881.800048828125</ele>
        <time>2026-06-20T06:24:41.000Z</time>
        <extensions>
          <ns3:TrackPointExtension>
            <ns3:atemp>20.0</ns3:atemp>
          </ns3:TrackPointExtension>
        </extensions>
      </trkpt>
      <trkpt lat="42.54722605459392070770263671875" lon="20.10991849936544895172119140625">
        <ele>1881.5999755859375</ele>
        <time>2026-06-20T06:24:42.000Z</time>
        <extensions>
          <ns3:TrackPointExtension>
            <ns3:atemp>20.0</ns3:atemp>
          </ns3:TrackPointExtension>
        </extensions>
      </trkpt>
      <trkpt lat="42.54722605459392070770263671875" lon="20.10991849936544895172119140625">
        <ele>1881.5999755859375</ele>
        <time>2026-06-20T06:24:43.000Z</time>
        <extensions>
          <ns3:TrackPointExtension>
            <ns3:atemp>20.0</ns3:atemp>
          </ns3:TrackPointExtension>
        </extensions>
      </trkpt>
      <trkpt lat="42.54722605459392070770263671875" lon="20.10991849936544895172119140625">
        <ele>1881.5999755859375</ele>
        <time>2026-06-20T06:24:44.000Z</time>
        <extensions>
          <ns3:TrackPointExtension>
            <ns3:atemp>20.0</ns3:atemp>
          </ns3:TrackPointExtension>
        </extensions>
      </trkpt>
      <trkpt lat="42.54722605459392070770263671875" lon="20.10991849936544895172119140625">
        <ele>1881.5999755859375</ele>
        <time>2026-06-20T06:24:45.000Z</time>
        <extensions>
          <ns3:TrackPointExtension>
            <ns3:atemp>20.0</ns3:atemp>
          </ns3:TrackPointExtension>
        </extensions>
      </trkpt>
      <trkpt lat="42.54722605459392070770263671875" lon="20.10991849936544895172119140625">
        <ele>1881.5999755859375</ele>
        <time>2026-06-20T06:24:46.000Z</time>
        <extensions>
          <ns3:TrackPointExtension>
            <ns3:atemp>20.0</ns3:atemp>
          </ns3:TrackPointExtension>
        </extensions>
      </trkpt>
      <trkpt lat="42.54722605459392070770263671875" lon="20.10991849936544895172119140625">
        <ele>1881.5999755859375</ele>
        <time>2026-06-20T06:24:47.000Z</time>
        <extensions>
          <ns3:TrackPointExtension>
            <ns3:atemp>20.0</ns3:atemp>
          </ns3:TrackPointExtension>
        </extensions>
      </trkpt>
      <trkpt lat="42.54722588695585727691650390625" lon="20.1099172420799732208251953125">
        <ele>1881.5999755859375</ele>
        <time>2026-06-20T06:24:48.000Z</time>
        <extensions>
          <ns3:TrackPointExtension>
            <ns3:atemp>20.0</ns3:atemp>
          </ns3:TrackPointExtension>
        </extensions>
      </trkpt>
      <trkpt lat="42.547208033502101898193359375" lon="20.109908021986484527587890625">
        <ele>1881.4000244140625</ele>
        <time>2026-06-20T06:24:49.000Z</time>
        <extensions>
          <ns3:TrackPointExtension>
            <ns3:atemp>20.0</ns3:atemp>
          </ns3:TrackPointExtension>
        </extensions>
      </trkpt>
      <trkpt lat="42.547183893620967864990234375" lon="20.109908021986484527587890625">
        <ele>1881.4000244140625</ele>
        <time>2026-06-20T06:24:50.000Z</time>
        <extensions>
          <ns3:TrackPointExtension>
            <ns3:atemp>20.0</ns3:atemp>
          </ns3:TrackPointExtension>
        </extensions>
      </trkpt>
      <trkpt lat="42.5471555627882480621337890625" lon="20.10991430841386318206787109375">
        <ele>1881</ele>
        <time>2026-06-20T06:24:51.000Z</time>
        <extensions>
          <ns3:TrackPointExtension>
            <ns3:atemp>20.0</ns3:atemp>
          </ns3:TrackPointExtension>
        </extensions>
      </trkpt>
      <trkpt lat="42.54712346009910106658935546875" lon="20.1099182479083538055419921875">
        <ele>1880.5999755859375</ele>
        <time>2026-06-20T06:24:52.000Z</time>
        <extensions>
          <ns3:TrackPointExtension>
            <ns3:atemp>20.0</ns3:atemp>
          </ns3:TrackPointExtension>
        </extensions>
      </trkpt>
      <trkpt lat="42.54709613509476184844970703125" lon="20.10992151685059070587158203125">
        <ele>1880.199951171875</ele>
        <time>2026-06-20T06:24:53.000Z</time>
        <extensions>
          <ns3:TrackPointExtension>
            <ns3:atemp>20.0</ns3:atemp>
          </ns3:TrackPointExtension>
        </extensions>
      </trkpt>
      <trkpt lat="42.54706864245235919952392578125" lon="20.1099122129380702972412109375">
        <ele>1879.5999755859375</ele>
        <time>2026-06-20T06:24:54.000Z</time>
        <extensions>
          <ns3:TrackPointExtension>
            <ns3:atemp>20.0</ns3:atemp>
          </ns3:TrackPointExtension>
        </extensions>
      </trkpt>
      <trkpt lat="42.5470385514199733734130859375" lon="20.10990106500685214996337890625">
        <ele>1879.199951171875</ele>
        <time>2026-06-20T06:24:55.000Z</time>
        <extensions>
          <ns3:TrackPointExtension>
            <ns3:atemp>20.0</ns3:atemp>
          </ns3:TrackPointExtension>
        </extensions>
      </trkpt>
      <trkpt lat="42.54701516591012477874755859375" lon="20.10989586822688579559326171875">
        <ele>1878.5999755859375</ele>
        <time>2026-06-20T06:24:56.000Z</time>
        <extensions>
          <ns3:TrackPointExtension>
            <ns3:atemp>20.0</ns3:atemp>
          </ns3:TrackPointExtension>
        </extensions>
      </trkpt>
      <trkpt lat="42.54699320532381534576416015625" lon="20.109891928732395172119140625">
        <ele>1878.199951171875</ele>
        <time>2026-06-20T06:24:57.000Z</time>
        <extensions>
          <ns3:TrackPointExtension>
            <ns3:atemp>20.0</ns3:atemp>
          </ns3:TrackPointExtension>
        </extensions>
      </trkpt>
      <trkpt lat="42.5469704903662204742431640625" lon="20.1098857261240482330322265625">
        <ele>1877.800048828125</ele>
        <time>2026-06-20T06:24:58.000Z</time>
        <extensions>
          <ns3:TrackPointExtension>
            <ns3:atemp>20.0</ns3:atemp>
          </ns3:TrackPointExtension>
        </extensions>
      </trkpt>
      <trkpt lat="42.5469409860670566558837890625" lon="20.10987826623022556304931640625">
        <ele>1877</ele>
        <time>2026-06-20T06:24:59.000Z</time>
        <extensions>
          <ns3:TrackPointExtension>
            <ns3:atemp>20.0</ns3:atemp>
          </ns3:TrackPointExtension>
        </extensions>
      </trkpt>
      <trkpt lat="42.54691273905336856842041015625" lon="20.109871141612529754638671875">
        <ele>1876.4000244140625</ele>
        <time>2026-06-20T06:25:00.000Z</time>
        <extensions>
          <ns3:TrackPointExtension>
            <ns3:atemp>20.0</ns3:atemp>
          </ns3:TrackPointExtension>
        </extensions>
      </trkpt>
      <trkpt lat="42.546882815659046173095703125" lon="20.1098605804145336151123046875">
        <ele>1875.800048828125</ele>
        <time>2026-06-20T06:25:01.000Z</time>
        <extensions>
          <ns3:TrackPointExtension>
            <ns3:atemp>20.0</ns3:atemp>
          </ns3:TrackPointExtension>
        </extensions>
      </trkpt>
      <trkpt lat="42.5468491204082965850830078125" lon="20.109851360321044921875">
        <ele>1875.199951171875</ele>
        <time>2026-06-20T06:25:02.000Z</time>
        <extensions>
          <ns3:TrackPointExtension>
            <ns3:atemp>20.0</ns3:atemp>
          </ns3:TrackPointExtension>
        </extensions>
      </trkpt>
      <trkpt lat="42.54681316204369068145751953125" lon="20.1098481751978397369384765625">
        <ele>1874.5999755859375</ele>
        <time>2026-06-20T06:25:03.000Z</time>
        <extensions>
          <ns3:TrackPointExtension>
            <ns3:atemp>20.0</ns3:atemp>
          </ns3:TrackPointExtension>
        </extensions>
      </trkpt>
      <trkpt lat="42.54678013734519481658935546875" lon="20.10985068976879119873046875">
        <ele>1874.199951171875</ele>
        <time>2026-06-20T06:25:04.000Z</time>
        <extensions>
          <ns3:TrackPointExtension>
            <ns3:atemp>20.0</ns3:atemp>
          </ns3:TrackPointExtension>
        </extensions>
      </trkpt>
      <trkpt lat="42.54674711264669895172119140625" lon="20.10986468754708766937255859375">
        <ele>1873.5999755859375</ele>
        <time>2026-06-20T06:25:05.000Z</time>
        <extensions>
          <ns3:TrackPointExtension>
            <ns3:atemp>20.0</ns3:atemp>
          </ns3:TrackPointExtension>
        </extensions>
      </trkpt>
      <trkpt lat="42.5467140041291713714599609375" lon="20.1098875701427459716796875">
        <ele>1873.199951171875</ele>
        <time>2026-06-20T06:25:06.000Z</time>
        <extensions>
          <ns3:TrackPointExtension>
            <ns3:atemp>20.0</ns3:atemp>
          </ns3:TrackPointExtension>
        </extensions>
      </trkpt>
      <trkpt lat="42.54668734967708587646484375" lon="20.10990207083523273468017578125">
        <ele>1872.800048828125</ele>
        <time>2026-06-20T06:25:07.000Z</time>
        <extensions>
          <ns3:TrackPointExtension>
            <ns3:atemp>20.0</ns3:atemp>
          </ns3:TrackPointExtension>
        </extensions>
      </trkpt>
      <trkpt lat="42.54666983149945735931396484375" lon="20.10991564951837062835693359375">
        <ele>1872.5999755859375</ele>
        <time>2026-06-20T06:25:08.000Z</time>
        <extensions>
          <ns3:TrackPointExtension>
            <ns3:atemp>20.0</ns3:atemp>
          </ns3:TrackPointExtension>
        </extensions>
      </trkpt>
      <trkpt lat="42.54665340296924114227294921875" lon="20.109922103583812713623046875">
        <ele>1872.5999755859375</ele>
        <time>2026-06-20T06:25:09.000Z</time>
        <extensions>
          <ns3:TrackPointExtension>
            <ns3:atemp>20.0</ns3:atemp>
          </ns3:TrackPointExtension>
        </extensions>
      </trkpt>
      <trkpt lat="42.54663982428610324859619140625" lon="20.10992637835443019866943359375">
        <ele>1872.4000244140625</ele>
        <time>2026-06-20T06:25:10.000Z</time>
        <extensions>
          <ns3:TrackPointExtension>
            <ns3:atemp>20.0</ns3:atemp>
          </ns3:TrackPointExtension>
        </extensions>
      </trkpt>
      <trkpt lat="42.54662758670747280120849609375" lon="20.1099283061921596527099609375">
        <ele>1872.4000244140625</ele>
        <time>2026-06-20T06:25:11.000Z</time>
        <extensions>
          <ns3:TrackPointExtension>
            <ns3:atemp>20.0</ns3:atemp>
          </ns3:TrackPointExtension>
        </extensions>
      </trkpt>
      <trkpt lat="42.546621300280094146728515625" lon="20.109937191009521484375">
        <ele>1872.4000244140625</ele>
        <time>2026-06-20T06:25:12.000Z</time>
        <extensions>
          <ns3:TrackPointExtension>
            <ns3:atemp>20.0</ns3:atemp>
          </ns3:TrackPointExtension>
        </extensions>
      </trkpt>
      <trkpt lat="42.5466120801866054534912109375" lon="20.10995068587362766265869140625">
        <ele>1872.4000244140625</ele>
        <time>2026-06-20T06:25:13.000Z</time>
        <extensions>
          <ns3:TrackPointExtension>
            <ns3:atemp>20.0</ns3:atemp>
          </ns3:TrackPointExtension>
        </extensions>
      </trkpt>
      <trkpt lat="42.54659749567508697509765625" lon="20.10995320044457912445068359375">
        <ele>1872.4000244140625</ele>
        <time>2026-06-20T06:25:14.000Z</time>
        <extensions>
          <ns3:TrackPointExtension>
            <ns3:atemp>20.0</ns3:atemp>
          </ns3:TrackPointExtension>
        </extensions>
      </trkpt>
      <trkpt lat="42.54658249206840991973876953125" lon="20.1099554635584354400634765625">
        <ele>1872.199951171875</ele>
        <time>2026-06-20T06:25:15.000Z</time>
        <extensions>
          <ns3:TrackPointExtension>
            <ns3:atemp>20.0</ns3:atemp>
          </ns3:TrackPointExtension>
        </extensions>
      </trkpt>
      <trkpt lat="42.54656254313886165618896484375" lon="20.1099578104913234710693359375">
        <ele>1872</ele>
        <time>2026-06-20T06:25:16.000Z</time>
        <extensions>
          <ns3:TrackPointExtension>
            <ns3:atemp>20.0</ns3:atemp>
          </ns3:TrackPointExtension>
        </extensions>
      </trkpt>
      <trkpt lat="42.54654125310480594635009765625" lon="20.10996468365192413330078125">
        <ele>1871.800048828125</ele>
        <time>2026-06-20T06:25:17.000Z</time>
        <extensions>
          <ns3:TrackPointExtension>
            <ns3:atemp>20.0</ns3:atemp>
          </ns3:TrackPointExtension>
        </extensions>
      </trkpt>
      <trkpt lat="42.54651862196624279022216796875" lon="20.10997633449733257293701171875">
        <ele>1871.800048828125</ele>
        <time>2026-06-20T06:25:18.000Z</time>
        <extensions>
          <ns3:TrackPointExtension>
            <ns3:atemp>20.0</ns3:atemp>
          </ns3:TrackPointExtension>
        </extensions>
      </trkpt>
      <trkpt lat="42.546495907008647918701171875" lon="20.10998823679983615875244140625">
        <ele>1871.5999755859375</ele>
        <time>2026-06-20T06:25:19.000Z</time>
        <extensions>
          <ns3:TrackPointExtension>
            <ns3:atemp>20.0</ns3:atemp>
          </ns3:TrackPointExtension>
        </extensions>
      </trkpt>
      <trkpt lat="42.54647470079362392425537109375" lon="20.11000013910233974456787109375">
        <ele>1871.5999755859375</ele>
        <time>2026-06-20T06:25:20.000Z</time>
        <extensions>
          <ns3:TrackPointExtension>
            <ns3:atemp>20.0</ns3:atemp>
          </ns3:TrackPointExtension>
        </extensions>
      </trkpt>
      <trkpt lat="42.54645592533051967620849609375" lon="20.110014639794826507568359375">
        <ele>1871.4000244140625</ele>
        <time>2026-06-20T06:25:21.000Z</time>
        <extensions>
          <ns3:TrackPointExtension>
            <ns3:atemp>20.0</ns3:atemp>
          </ns3:TrackPointExtension>
        </extensions>
      </trkpt>
      <trkpt lat="42.5464374013245105743408203125" lon="20.110030733048915863037109375">
        <ele>1871.4000244140625</ele>
        <time>2026-06-20T06:25:22.000Z</time>
        <extensions>
          <ns3:TrackPointExtension>
            <ns3:atemp>20.0</ns3:atemp>
          </ns3:TrackPointExtension>
        </extensions>
      </trkpt>
      <trkpt lat="42.54642206244170665740966796875" lon="20.1100490055978298187255859375">
        <ele>1871.4000244140625</ele>
        <time>2026-06-20T06:25:23.000Z</time>
        <extensions>
          <ns3:TrackPointExtension>
            <ns3:atemp>20.0</ns3:atemp>
          </ns3:TrackPointExtension>
        </extensions>
      </trkpt>
      <trkpt lat="42.54640965722501277923583984375" lon="20.11006702668964862823486328125">
        <ele>1871.5999755859375</ele>
        <time>2026-06-20T06:25:24.000Z</time>
        <extensions>
          <ns3:TrackPointExtension>
            <ns3:atemp>20.0</ns3:atemp>
          </ns3:TrackPointExtension>
        </extensions>
      </trkpt>
      <trkpt lat="42.54639524035155773162841796875" lon="20.11008999310433864593505859375">
        <ele>1871.5999755859375</ele>
        <time>2026-06-20T06:25:25.000Z</time>
        <extensions>
          <ns3:TrackPointExtension>
            <ns3:atemp>20.0</ns3:atemp>
          </ns3:TrackPointExtension>
        </extensions>
      </trkpt>
      <trkpt lat="42.54638451151549816131591796875" lon="20.11011530645191669464111328125">
        <ele>1871.5999755859375</ele>
        <time>2026-06-20T06:25:26.000Z</time>
        <extensions>
          <ns3:TrackPointExtension>
            <ns3:atemp>20.0</ns3:atemp>
          </ns3:TrackPointExtension>
        </extensions>
      </trkpt>
      <trkpt lat="42.5463669933378696441650390625" lon="20.1101472415030002593994140625">
        <ele>1871.5999755859375</ele>
        <time>2026-06-20T06:25:27.000Z</time>
        <extensions>
          <ns3:TrackPointExtension>
            <ns3:atemp>20.0</ns3:atemp>
          </ns3:TrackPointExtension>
        </extensions>
      </trkpt>
      <trkpt lat="42.5463478825986385345458984375" lon="20.11017984710633754730224609375">
        <ele>1871.4000244140625</ele>
        <time>2026-06-20T06:25:28.000Z</time>
        <extensions>
          <ns3:TrackPointExtension>
            <ns3:atemp>20.0</ns3:atemp>
          </ns3:TrackPointExtension>
        </extensions>
      </trkpt>
      <trkpt lat="42.54632801748812198638916015625" lon="20.110215805470943450927734375">
        <ele>1871</ele>
        <time>2026-06-20T06:25:29.000Z</time>
        <extensions>
          <ns3:TrackPointExtension>
            <ns3:atemp>20.0</ns3:atemp>
          </ns3:TrackPointExtension>
        </extensions>
      </trkpt>
      <trkpt lat="42.5463150255382061004638671875" lon="20.110250674188137054443359375">
        <ele>1870.800048828125</ele>
        <time>2026-06-20T06:25:30.000Z</time>
        <extensions>
          <ns3:TrackPointExtension>
            <ns3:atemp>20.0</ns3:atemp>
          </ns3:TrackPointExtension>
        </extensions>
      </trkpt>
      <trkpt lat="42.5463036261498928070068359375" lon="20.11028663255274295806884765625">
        <ele>1870.4000244140625</ele>
        <time>2026-06-20T06:25:31.000Z</time>
        <extensions>
          <ns3:TrackPointExtension>
            <ns3:atemp>20.0</ns3:atemp>
          </ns3:TrackPointExtension>
        </extensions>
      </trkpt>
      <trkpt lat="42.54628241993486881256103515625" lon="20.11031127534806728363037109375">
        <ele>1870.199951171875</ele>
        <time>2026-06-20T06:25:32.000Z</time>
        <extensions>
          <ns3:TrackPointExtension>
            <ns3:atemp>20.0</ns3:atemp>
          </ns3:TrackPointExtension>
        </extensions>
      </trkpt>
      <trkpt lat="42.54626163281500339508056640625" lon="20.11033172719180583953857421875">
        <ele>1869.800048828125</ele>
        <time>2026-06-20T06:25:33.000Z</time>
        <extensions>
          <ns3:TrackPointExtension>
            <ns3:atemp>20.0</ns3:atemp>
          </ns3:TrackPointExtension>
        </extensions>
      </trkpt>
      <trkpt lat="42.54624419845640659332275390625" lon="20.1103450544178485870361328125">
        <ele>1869.5999755859375</ele>
        <time>2026-06-20T06:25:34.000Z</time>
        <extensions>
          <ns3:TrackPointExtension>
            <ns3:atemp>20.0</ns3:atemp>
          </ns3:TrackPointExtension>
        </extensions>
      </trkpt>
      <trkpt lat="42.54622726701200008392333984375" lon="20.110368020832538604736328125">
        <ele>1869.199951171875</ele>
        <time>2026-06-20T06:25:35.000Z</time>
        <extensions>
          <ns3:TrackPointExtension>
            <ns3:atemp>20.0</ns3:atemp>
          </ns3:TrackPointExtension>
        </extensions>
      </trkpt>
      <trkpt lat="42.54621150903403759002685546875" lon="20.1103856228291988372802734375">
        <ele>1869</ele>
        <time>2026-06-20T06:25:36.000Z</time>
        <extensions>
          <ns3:TrackPointExtension>
            <ns3:atemp>20.0</ns3:atemp>
          </ns3:TrackPointExtension>
        </extensions>
      </trkpt>
      <trkpt lat="42.54620078019797801971435546875" lon="20.1103966869413852691650390625">
        <ele>1868.800048828125</ele>
        <time>2026-06-20T06:25:37.000Z</time>
        <extensions>
          <ns3:TrackPointExtension>
            <ns3:atemp>20.0</ns3:atemp>
          </ns3:TrackPointExtension>
        </extensions>
      </trkpt>
      <trkpt lat="42.54619323648512363433837890625" lon="20.11040381155908107757568359375">
        <ele>1868.5999755859375</ele>
        <time>2026-06-20T06:25:38.000Z</time>
        <extensions>
          <ns3:TrackPointExtension>
            <ns3:atemp>20.0</ns3:atemp>
          </ns3:TrackPointExtension>
        </extensions>
      </trkpt>
      <trkpt lat="42.54618586041033267974853515625" lon="20.11042241938412189483642578125">
        <ele>1868.5999755859375</ele>
        <time>2026-06-20T06:25:39.000Z</time>
        <extensions>
          <ns3:TrackPointExtension>
            <ns3:atemp>20.0</ns3:atemp>
          </ns3:TrackPointExtension>
        </extensions>
      </trkpt>
      <trkpt lat="42.54617999307811260223388671875" lon="20.110436417162418365478515625">
        <ele>1868.5999755859375</ele>
        <time>2026-06-20T06:25:40.000Z</time>
        <extensions>
          <ns3:TrackPointExtension>
            <ns3:atemp>20.0</ns3:atemp>
          </ns3:TrackPointExtension>
        </extensions>
      </trkpt>
      <trkpt lat="42.54617496393620967864990234375" lon="20.11045209132134914398193359375">
        <ele>1868.5999755859375</ele>
        <time>2026-06-20T06:25:41.000Z</time>
        <extensions>
          <ns3:TrackPointExtension>
            <ns3:atemp>20.0</ns3:atemp>
          </ns3:TrackPointExtension>
        </extensions>
      </trkpt>
      <trkpt lat="42.54616792313754558563232421875" lon="20.110462568700313568115234375">
        <ele>1868.4000244140625</ele>
        <time>2026-06-20T06:25:42.000Z</time>
        <extensions>
          <ns3:TrackPointExtension>
            <ns3:atemp>20.0</ns3:atemp>
          </ns3:TrackPointExtension>
        </extensions>
      </trkpt>
      <trkpt lat="42.54616272635757923126220703125" lon="20.110468603670597076416015625">
        <ele>1868.4000244140625</ele>
        <time>2026-06-20T06:25:43.000Z</time>
        <extensions>
          <ns3:TrackPointExtension>
            <ns3:atemp>20.0</ns3:atemp>
          </ns3:TrackPointExtension>
        </extensions>
      </trkpt>
      <trkpt lat="42.54615920595824718475341796875" lon="20.11046282015740871429443359375">
        <ele>1868.4000244140625</ele>
        <time>2026-06-20T06:25:44.000Z</time>
        <extensions>
          <ns3:TrackPointExtension>
            <ns3:atemp>20.0</ns3:atemp>
          </ns3:TrackPointExtension>
        </extensions>
      </trkpt>
      <trkpt lat="42.54615501500666141510009765625" lon="20.1104771532118320465087890625">
        <ele>1868.4000244140625</ele>
        <time>2026-06-20T06:25:45.000Z</time>
        <extensions>
          <ns3:TrackPointExtension>
            <ns3:atemp>20.0</ns3:atemp>
          </ns3:TrackPointExtension>
        </extensions>
      </trkpt>
      <trkpt lat="42.54614646546542644500732421875" lon="20.1104935817420482635498046875">
        <ele>1868.4000244140625</ele>
        <time>2026-06-20T06:25:46.000Z</time>
        <extensions>
          <ns3:TrackPointExtension>
            <ns3:atemp>20.0</ns3:atemp>
          </ns3:TrackPointExtension>
        </extensions>
      </trkpt>
      <trkpt lat="42.54613640718162059783935546875" lon="20.1105063222348690032958984375">
        <ele>1868.4000244140625</ele>
        <time>2026-06-20T06:25:47.000Z</time>
        <extensions>
          <ns3:TrackPointExtension>
            <ns3:atemp>20.0</ns3:atemp>
          </ns3:TrackPointExtension>
        </extensions>
      </trkpt>
      <trkpt lat="42.54613255150616168975830078125" lon="20.110508836805820465087890625">
        <ele>1868.4000244140625</ele>
        <time>2026-06-20T06:25:48.000Z</time>
        <extensions>
          <ns3:TrackPointExtension>
            <ns3:atemp>20.0</ns3:atemp>
          </ns3:TrackPointExtension>
        </extensions>
      </trkpt>
      <trkpt lat="42.54613255150616168975830078125" lon="20.11050875298678874969482421875">
        <ele>1868.199951171875</ele>
        <time>2026-06-20T06:25:49.000Z</time>
        <extensions>
          <ns3:TrackPointExtension>
            <ns3:atemp>20.0</ns3:atemp>
          </ns3:TrackPointExtension>
        </extensions>
      </trkpt>
      <trkpt lat="42.54613255150616168975830078125" lon="20.11050875298678874969482421875">
        <ele>1868.199951171875</ele>
        <time>2026-06-20T06:25:50.000Z</time>
        <extensions>
          <ns3:TrackPointExtension>
            <ns3:atemp>20.0</ns3:atemp>
          </ns3:TrackPointExtension>
        </extensions>
      </trkpt>
      <trkpt lat="42.54613255150616168975830078125" lon="20.11050875298678874969482421875">
        <ele>1868.199951171875</ele>
        <time>2026-06-20T06:25:51.000Z</time>
        <extensions>
          <ns3:TrackPointExtension>
            <ns3:atemp>20.0</ns3:atemp>
          </ns3:TrackPointExtension>
        </extensions>
      </trkpt>
      <trkpt lat="42.54613255150616168975830078125" lon="20.11050875298678874969482421875">
        <ele>1868.199951171875</ele>
        <time>2026-06-20T06:25:52.000Z</time>
        <extensions>
          <ns3:TrackPointExtension>
            <ns3:atemp>20.0</ns3:atemp>
          </ns3:TrackPointExtension>
        </extensions>
      </trkpt>
      <trkpt lat="42.54613255150616168975830078125" lon="20.11050875298678874969482421875">
        <ele>1868.199951171875</ele>
        <time>2026-06-20T06:25:53.000Z</time>
        <extensions>
          <ns3:TrackPointExtension>
            <ns3:atemp>20.0</ns3:atemp>
          </ns3:TrackPointExtension>
        </extensions>
      </trkpt>
      <trkpt lat="42.54613255150616168975830078125" lon="20.11050875298678874969482421875">
        <ele>1868.199951171875</ele>
        <time>2026-06-20T06:25:54.000Z</time>
        <extensions>
          <ns3:TrackPointExtension>
            <ns3:atemp>20.0</ns3:atemp>
          </ns3:TrackPointExtension>
        </extensions>
      </trkpt>
      <trkpt lat="42.54613255150616168975830078125" lon="20.11050875298678874969482421875">
        <ele>1868.199951171875</ele>
        <time>2026-06-20T06:25:55.000Z</time>
        <extensions>
          <ns3:TrackPointExtension>
            <ns3:atemp>20.0</ns3:atemp>
          </ns3:TrackPointExtension>
        </extensions>
      </trkpt>
      <trkpt lat="42.54613255150616168975830078125" lon="20.11050875298678874969482421875">
        <ele>1868.199951171875</ele>
        <time>2026-06-20T06:25:56.000Z</time>
        <extensions>
          <ns3:TrackPointExtension>
            <ns3:atemp>20.0</ns3:atemp>
          </ns3:TrackPointExtension>
        </extensions>
      </trkpt>
      <trkpt lat="42.54613255150616168975830078125" lon="20.11050875298678874969482421875">
        <ele>1868.199951171875</ele>
        <time>2026-06-20T06:25:57.000Z</time>
        <extensions>
          <ns3:TrackPointExtension>
            <ns3:atemp>20.0</ns3:atemp>
          </ns3:TrackPointExtension>
        </extensions>
      </trkpt>
      <trkpt lat="42.54613255150616168975830078125" lon="20.11050875298678874969482421875">
        <ele>1868.199951171875</ele>
        <time>2026-06-20T06:25:58.000Z</time>
        <extensions>
          <ns3:TrackPointExtension>
            <ns3:atemp>20.0</ns3:atemp>
          </ns3:TrackPointExtension>
        </extensions>
      </trkpt>
      <trkpt lat="42.54613255150616168975830078125" lon="20.11050875298678874969482421875">
        <ele>1868.199951171875</ele>
        <time>2026-06-20T06:25:59.000Z</time>
        <extensions>
          <ns3:TrackPointExtension>
            <ns3:atemp>20.0</ns3:atemp>
          </ns3:TrackPointExtension>
        </extensions>
      </trkpt>
      <trkpt lat="42.54613255150616168975830078125" lon="20.11050875298678874969482421875">
        <ele>1868.199951171875</ele>
        <time>2026-06-20T06:26:00.000Z</time>
        <extensions>
          <ns3:TrackPointExtension>
            <ns3:atemp>20.0</ns3:atemp>
          </ns3:TrackPointExtension>
        </extensions>
      </trkpt>
      <trkpt lat="42.54613255150616168975830078125" lon="20.11050875298678874969482421875">
        <ele>1868.199951171875</ele>
        <time>2026-06-20T06:26:01.000Z</time>
        <extensions>
          <ns3:TrackPointExtension>
            <ns3:atemp>20.0</ns3:atemp>
          </ns3:TrackPointExtension>
        </extensions>
      </trkpt>
      <trkpt lat="42.54613255150616168975830078125" lon="20.11050875298678874969482421875">
        <ele>1868.199951171875</ele>
        <time>2026-06-20T06:26:02.000Z</time>
        <extensions>
          <ns3:TrackPointExtension>
            <ns3:atemp>20.0</ns3:atemp>
          </ns3:TrackPointExtension>
        </extensions>
      </trkpt>
      <trkpt lat="42.54613255150616168975830078125" lon="20.11050875298678874969482421875">
        <ele>1868.199951171875</ele>
        <time>2026-06-20T06:26:03.000Z</time>
        <extensions>
          <ns3:TrackPointExtension>
            <ns3:atemp>20.0</ns3:atemp>
          </ns3:TrackPointExtension>
        </extensions>
      </trkpt>
      <trkpt lat="42.54613255150616168975830078125" lon="20.11050875298678874969482421875">
        <ele>1868.199951171875</ele>
        <time>2026-06-20T06:26:04.000Z</time>
        <extensions>
          <ns3:TrackPointExtension>
            <ns3:atemp>20.0</ns3:atemp>
          </ns3:TrackPointExtension>
        </extensions>
      </trkpt>
      <trkpt lat="42.54613255150616168975830078125" lon="20.11050875298678874969482421875">
        <ele>1868.199951171875</ele>
        <time>2026-06-20T06:26:05.000Z</time>
        <extensions>
          <ns3:TrackPointExtension>
            <ns3:atemp>20.0</ns3:atemp>
          </ns3:TrackPointExtension>
        </extensions>
      </trkpt>
      <trkpt lat="42.54613255150616168975830078125" lon="20.11050875298678874969482421875">
        <ele>1868.199951171875</ele>
        <time>2026-06-20T06:26:06.000Z</time>
        <extensions>
          <ns3:TrackPointExtension>
            <ns3:atemp>20.0</ns3:atemp>
          </ns3:TrackPointExtension>
        </extensions>
      </trkpt>
      <trkpt lat="42.54613255150616168975830078125" lon="20.11050875298678874969482421875">
        <ele>1868.199951171875</ele>
        <time>2026-06-20T06:26:07.000Z</time>
        <extensions>
          <ns3:TrackPointExtension>
            <ns3:atemp>20.0</ns3:atemp>
          </ns3:TrackPointExtension>
        </extensions>
      </trkpt>
      <trkpt lat="42.54613255150616168975830078125" lon="20.11050875298678874969482421875">
        <ele>1868.199951171875</ele>
        <time>2026-06-20T06:26:08.000Z</time>
        <extensions>
          <ns3:TrackPointExtension>
            <ns3:atemp>20.0</ns3:atemp>
          </ns3:TrackPointExtension>
        </extensions>
      </trkpt>
      <trkpt lat="42.54613255150616168975830078125" lon="20.11050875298678874969482421875">
        <ele>1868.199951171875</ele>
        <time>2026-06-20T06:26:09.000Z</time>
        <extensions>
          <ns3:TrackPointExtension>
            <ns3:atemp>20.0</ns3:atemp>
          </ns3:TrackPointExtension>
        </extensions>
      </trkpt>
      <trkpt lat="42.54613255150616168975830078125" lon="20.11050875298678874969482421875">
        <ele>1868.199951171875</ele>
        <time>2026-06-20T06:26:10.000Z</time>
        <extensions>
          <ns3:TrackPointExtension>
            <ns3:atemp>20.0</ns3:atemp>
          </ns3:TrackPointExtension>
        </extensions>
      </trkpt>
      <trkpt lat="42.54613255150616168975830078125" lon="20.11050875298678874969482421875">
        <ele>1868.199951171875</ele>
        <time>2026-06-20T06:26:11.000Z</time>
        <extensions>
          <ns3:TrackPointExtension>
            <ns3:atemp>20.0</ns3:atemp>
          </ns3:TrackPointExtension>
        </extensions>
      </trkpt>
      <trkpt lat="42.54613255150616168975830078125" lon="20.11050875298678874969482421875">
        <ele>1868.4000244140625</ele>
        <time>2026-06-20T06:26:12.000Z</time>
        <extensions>
          <ns3:TrackPointExtension>
            <ns3:atemp>20.0</ns3:atemp>
          </ns3:TrackPointExtension>
        </extensions>
      </trkpt>
      <trkpt lat="42.54613255150616168975830078125" lon="20.11050875298678874969482421875">
        <ele>1868.4000244140625</ele>
        <time>2026-06-20T06:26:13.000Z</time>
        <extensions>
          <ns3:TrackPointExtension>
            <ns3:atemp>20.0</ns3:atemp>
          </ns3:TrackPointExtension>
        </extensions>
      </trkpt>
      <trkpt lat="42.54613255150616168975830078125" lon="20.11050875298678874969482421875">
        <ele>1868.4000244140625</ele>
        <time>2026-06-20T06:26:14.000Z</time>
        <extensions>
          <ns3:TrackPointExtension>
            <ns3:atemp>20.0</ns3:atemp>
          </ns3:TrackPointExtension>
        </extensions>
      </trkpt>
      <trkpt lat="42.54613255150616168975830078125" lon="20.11050875298678874969482421875">
        <ele>1868.4000244140625</ele>
        <time>2026-06-20T06:26:15.000Z</time>
        <extensions>
          <ns3:TrackPointExtension>
            <ns3:atemp>20.0</ns3:atemp>
          </ns3:TrackPointExtension>
        </extensions>
      </trkpt>
      <trkpt lat="42.54613255150616168975830078125" lon="20.11050875298678874969482421875">
        <ele>1868.199951171875</ele>
        <time>2026-06-20T06:26:16.000Z</time>
        <extensions>
          <ns3:TrackPointExtension>
            <ns3:atemp>20.0</ns3:atemp>
          </ns3:TrackPointExtension>
        </extensions>
      </trkpt>
      <trkpt lat="42.54613255150616168975830078125" lon="20.11050875298678874969482421875">
        <ele>1868.199951171875</ele>
        <time>2026-06-20T06:26:17.000Z</time>
        <extensions>
          <ns3:TrackPointExtension>
            <ns3:atemp>20.0</ns3:atemp>
          </ns3:TrackPointExtension>
        </extensions>
      </trkpt>
      <trkpt lat="42.54613255150616168975830078125" lon="20.11050875298678874969482421875">
        <ele>1868.199951171875</ele>
        <time>2026-06-20T06:26:18.000Z</time>
        <extensions>
          <ns3:TrackPointExtension>
            <ns3:atemp>20.0</ns3:atemp>
          </ns3:TrackPointExtension>
        </extensions>
      </trkpt>
      <trkpt lat="42.54613255150616168975830078125" lon="20.11050875298678874969482421875">
        <ele>1868.199951171875</ele>
        <time>2026-06-20T06:26:19.000Z</time>
        <extensions>
          <ns3:TrackPointExtension>
            <ns3:atemp>20.0</ns3:atemp>
          </ns3:TrackPointExtension>
        </extensions>
      </trkpt>
      <trkpt lat="42.5461326353251934051513671875" lon="20.1105083338916301727294921875">
        <ele>1868.199951171875</ele>
        <time>2026-06-20T06:26:20.000Z</time>
        <extensions>
          <ns3:TrackPointExtension>
            <ns3:atemp>20.0</ns3:atemp>
          </ns3:TrackPointExtension>
        </extensions>
      </trkpt>
      <trkpt lat="42.54613003693521022796630859375" lon="20.1105205714702606201171875">
        <ele>1868.199951171875</ele>
        <time>2026-06-20T06:26:21.000Z</time>
        <extensions>
          <ns3:TrackPointExtension>
            <ns3:atemp>20.0</ns3:atemp>
          </ns3:TrackPointExtension>
        </extensions>
      </trkpt>
      <trkpt lat="42.54612618125975131988525390625" lon="20.11053658090531826019287109375">
        <ele>1868.199951171875</ele>
        <time>2026-06-20T06:26:22.000Z</time>
        <extensions>
          <ns3:TrackPointExtension>
            <ns3:atemp>20.0</ns3:atemp>
          </ns3:TrackPointExtension>
        </extensions>
      </trkpt>
      <trkpt lat="42.5461276061832904815673828125" lon="20.110557116568088531494140625">
        <ele>1868</ele>
        <time>2026-06-20T06:26:23.000Z</time>
        <extensions>
          <ns3:TrackPointExtension>
            <ns3:atemp>20.0</ns3:atemp>
          </ns3:TrackPointExtension>
        </extensions>
      </trkpt>
      <trkpt lat="42.5461234152317047119140625" lon="20.11058653704822063446044921875">
        <ele>1867.800048828125</ele>
        <time>2026-06-20T06:26:24.000Z</time>
        <extensions>
          <ns3:TrackPointExtension>
            <ns3:atemp>20.0</ns3:atemp>
          </ns3:TrackPointExtension>
        </extensions>
      </trkpt>
      <trkpt lat="42.546117044985294342041015625" lon="20.1106062345206737518310546875">
        <ele>1867.5999755859375</ele>
        <time>2026-06-20T06:26:25.000Z</time>
        <extensions>
          <ns3:TrackPointExtension>
            <ns3:atemp>20.0</ns3:atemp>
          </ns3:TrackPointExtension>
        </extensions>
      </trkpt>
      <trkpt lat="42.54611075855791568756103515625" lon="20.1106260158121585845947265625">
        <ele>1867.5999755859375</ele>
        <time>2026-06-20T06:26:26.000Z</time>
        <extensions>
          <ns3:TrackPointExtension>
            <ns3:atemp>20.0</ns3:atemp>
          </ns3:TrackPointExtension>
        </extensions>
      </trkpt>
      <trkpt lat="42.5461034663021564483642578125" lon="20.110643617808818817138671875">
        <ele>1867.4000244140625</ele>
        <time>2026-06-20T06:26:27.000Z</time>
        <extensions>
          <ns3:TrackPointExtension>
            <ns3:atemp>20.0</ns3:atemp>
          </ns3:TrackPointExtension>
        </extensions>
      </trkpt>
      <trkpt lat="42.5460950843989849090576171875" lon="20.11065627448260784149169921875">
        <ele>1867.199951171875</ele>
        <time>2026-06-20T06:26:28.000Z</time>
        <extensions>
          <ns3:TrackPointExtension>
            <ns3:atemp>20.0</ns3:atemp>
          </ns3:TrackPointExtension>
        </extensions>
      </trkpt>
      <trkpt lat="42.54608980379998683929443359375" lon="20.11065803468227386474609375">
        <ele>1867.199951171875</ele>
        <time>2026-06-20T06:26:29.000Z</time>
        <extensions>
          <ns3:TrackPointExtension>
            <ns3:atemp>20.0</ns3:atemp>
          </ns3:TrackPointExtension>
        </extensions>
      </trkpt>
      <trkpt lat="42.546089552342891693115234375" lon="20.11065811850130558013916015625">
        <ele>1867</ele>
        <time>2026-06-20T06:26:30.000Z</time>
        <extensions>
          <ns3:TrackPointExtension>
            <ns3:atemp>20.0</ns3:atemp>
          </ns3:TrackPointExtension>
        </extensions>
      </trkpt>
      <trkpt lat="42.54608930088579654693603515625" lon="20.1106582023203372955322265625">
        <ele>1867</ele>
        <time>2026-06-20T06:26:31.000Z</time>
        <extensions>
          <ns3:TrackPointExtension>
            <ns3:atemp>20.0</ns3:atemp>
          </ns3:TrackPointExtension>
        </extensions>
      </trkpt>
      <trkpt lat="42.546071447432041168212890625" lon="20.11066717095673084259033203125">
        <ele>1867</ele>
        <time>2026-06-20T06:26:32.000Z</time>
        <extensions>
          <ns3:TrackPointExtension>
            <ns3:atemp>20.0</ns3:atemp>
          </ns3:TrackPointExtension>
        </extensions>
      </trkpt>
      <trkpt lat="42.54606214351952075958251953125" lon="20.110674798488616943359375">
        <ele>1867</ele>
        <time>2026-06-20T06:26:33.000Z</time>
        <extensions>
          <ns3:TrackPointExtension>
            <ns3:atemp>20.0</ns3:atemp>
          </ns3:TrackPointExtension>
        </extensions>
      </trkpt>
      <trkpt lat="42.546055018901824951171875" lon="20.11067840270698070526123046875">
        <ele>1867</ele>
        <time>2026-06-20T06:26:34.000Z</time>
        <extensions>
          <ns3:TrackPointExtension>
            <ns3:atemp>20.0</ns3:atemp>
          </ns3:TrackPointExtension>
        </extensions>
      </trkpt>
      <trkpt lat="42.54604496061801910400390625" lon="20.110684521496295928955078125">
        <ele>1867</ele>
        <time>2026-06-20T06:26:35.000Z</time>
        <extensions>
          <ns3:TrackPointExtension>
            <ns3:atemp>20.0</ns3:atemp>
          </ns3:TrackPointExtension>
        </extensions>
      </trkpt>
      <trkpt lat="42.546033561229705810546875" lon="20.11069156229496002197265625">
        <ele>1867</ele>
        <time>2026-06-20T06:26:36.000Z</time>
        <extensions>
          <ns3:TrackPointExtension>
            <ns3:atemp>20.0</ns3:atemp>
          </ns3:TrackPointExtension>
        </extensions>
      </trkpt>
      <trkpt lat="42.54602291621267795562744140625" lon="20.11069851927459239959716796875">
        <ele>1867</ele>
        <time>2026-06-20T06:26:37.000Z</time>
        <extensions>
          <ns3:TrackPointExtension>
            <ns3:atemp>20.0</ns3:atemp>
          </ns3:TrackPointExtension>
        </extensions>
      </trkpt>
      <trkpt lat="42.54601269029080867767333984375" lon="20.11070203967392444610595703125">
        <ele>1867</ele>
        <time>2026-06-20T06:26:38.000Z</time>
        <extensions>
          <ns3:TrackPointExtension>
            <ns3:atemp>20.0</ns3:atemp>
          </ns3:TrackPointExtension>
        </extensions>
      </trkpt>
      <trkpt lat="42.546001039445400238037109375" lon="20.11070623062551021575927734375">
        <ele>1867.199951171875</ele>
        <time>2026-06-20T06:26:39.000Z</time>
        <extensions>
          <ns3:TrackPointExtension>
            <ns3:atemp>20.0</ns3:atemp>
          </ns3:TrackPointExtension>
        </extensions>
      </trkpt>
      <trkpt lat="42.54599207080900669097900390625" lon="20.110705308616161346435546875">
        <ele>1867.199951171875</ele>
        <time>2026-06-20T06:26:40.000Z</time>
        <extensions>
          <ns3:TrackPointExtension>
            <ns3:atemp>20.0</ns3:atemp>
          </ns3:TrackPointExtension>
        </extensions>
      </trkpt>
      <trkpt lat="42.54598729312419891357421875" lon="20.1107041351497173309326171875">
        <ele>1867.199951171875</ele>
        <time>2026-06-20T06:26:41.000Z</time>
        <extensions>
          <ns3:TrackPointExtension>
            <ns3:atemp>20.0</ns3:atemp>
          </ns3:TrackPointExtension>
        </extensions>
      </trkpt>
      <trkpt lat="42.54598352126777172088623046875" lon="20.11070430278778076171875">
        <ele>1867.4000244140625</ele>
        <time>2026-06-20T06:26:42.000Z</time>
        <extensions>
          <ns3:TrackPointExtension>
            <ns3:atemp>20.0</ns3:atemp>
          </ns3:TrackPointExtension>
        </extensions>
      </trkpt>
      <trkpt lat="42.5459758937358856201171875" lon="20.110705308616161346435546875">
        <ele>1867.4000244140625</ele>
        <time>2026-06-20T06:26:43.000Z</time>
        <extensions>
          <ns3:TrackPointExtension>
            <ns3:atemp>20.0</ns3:atemp>
          </ns3:TrackPointExtension>
        </extensions>
      </trkpt>
      <trkpt lat="42.54596860148012638092041015625" lon="20.1107071526348590850830078125">
        <ele>1867.5999755859375</ele>
        <time>2026-06-20T06:26:44.000Z</time>
        <extensions>
          <ns3:TrackPointExtension>
            <ns3:atemp>20.0</ns3:atemp>
          </ns3:TrackPointExtension>
        </extensions>
      </trkpt>
      <trkpt lat="42.54596139304339885711669921875" lon="20.1107081584632396697998046875">
        <ele>1867.800048828125</ele>
        <time>2026-06-20T06:26:45.000Z</time>
        <extensions>
          <ns3:TrackPointExtension>
            <ns3:atemp>20.0</ns3:atemp>
          </ns3:TrackPointExtension>
        </extensions>
      </trkpt>
      <trkpt lat="42.54595644772052764892578125" lon="20.1107048057019710540771484375">
        <ele>1867.800048828125</ele>
        <time>2026-06-20T06:26:46.000Z</time>
        <extensions>
          <ns3:TrackPointExtension>
            <ns3:atemp>20.0</ns3:atemp>
          </ns3:TrackPointExtension>
        </extensions>
      </trkpt>
      <trkpt lat="42.5459458865225315093994140625" lon="20.11070673353970050811767578125">
        <ele>1868</ele>
        <time>2026-06-20T06:26:47.000Z</time>
        <extensions>
          <ns3:TrackPointExtension>
            <ns3:atemp>20.0</ns3:atemp>
          </ns3:TrackPointExtension>
        </extensions>
      </trkpt>
      <trkpt lat="42.54593960009515285491943359375" lon="20.11071033775806427001953125">
        <ele>1868.199951171875</ele>
        <time>2026-06-20T06:26:48.000Z</time>
        <extensions>
          <ns3:TrackPointExtension>
            <ns3:atemp>20.0</ns3:atemp>
          </ns3:TrackPointExtension>
        </extensions>
      </trkpt>
      <trkpt lat="42.54593658261001110076904296875" lon="20.1107141934335231781005859375">
        <ele>1868.199951171875</ele>
        <time>2026-06-20T06:26:49.000Z</time>
        <extensions>
          <ns3:TrackPointExtension>
            <ns3:atemp>20.0</ns3:atemp>
          </ns3:TrackPointExtension>
        </extensions>
      </trkpt>
      <trkpt lat="42.5459338165819644927978515625" lon="20.11071846820414066314697265625">
        <ele>1868.4000244140625</ele>
        <time>2026-06-20T06:26:50.000Z</time>
        <extensions>
          <ns3:TrackPointExtension>
            <ns3:atemp>20.0</ns3:atemp>
          </ns3:TrackPointExtension>
        </extensions>
      </trkpt>
      <trkpt lat="42.5459281168878078460693359375" lon="20.11072064749896526336669921875">
        <ele>1868.4000244140625</ele>
        <time>2026-06-20T06:26:51.000Z</time>
        <extensions>
          <ns3:TrackPointExtension>
            <ns3:atemp>20.0</ns3:atemp>
          </ns3:TrackPointExtension>
        </extensions>
      </trkpt>
      <trkpt lat="42.545921914279460906982421875" lon="20.11072282679378986358642578125">
        <ele>1868.5999755859375</ele>
        <time>2026-06-20T06:26:52.000Z</time>
        <extensions>
          <ns3:TrackPointExtension>
            <ns3:atemp>20.0</ns3:atemp>
          </ns3:TrackPointExtension>
        </extensions>
      </trkpt>
      <trkpt lat="42.5459115207195281982421875" lon="20.1107219047844409942626953125">
        <ele>1868.5999755859375</ele>
        <time>2026-06-20T06:26:53.000Z</time>
        <extensions>
          <ns3:TrackPointExtension>
            <ns3:atemp>20.0</ns3:atemp>
          </ns3:TrackPointExtension>
        </extensions>
      </trkpt>
      <trkpt lat="42.54590221680700778961181640625" lon="20.1107208989560604095458984375">
        <ele>1868.5999755859375</ele>
        <time>2026-06-20T06:26:54.000Z</time>
        <extensions>
          <ns3:TrackPointExtension>
            <ns3:atemp>20.0</ns3:atemp>
          </ns3:TrackPointExtension>
        </extensions>
      </trkpt>
      <trkpt lat="42.54589903168380260467529296875" lon="20.11072064749896526336669921875">
        <ele>1868.4000244140625</ele>
        <time>2026-06-20T06:26:55.000Z</time>
        <extensions>
          <ns3:TrackPointExtension>
            <ns3:atemp>20.0</ns3:atemp>
          </ns3:TrackPointExtension>
        </extensions>
      </trkpt>
      <trkpt lat="42.5458919070661067962646484375" lon="20.1107217371463775634765625">
        <ele>1868.4000244140625</ele>
        <time>2026-06-20T06:26:56.000Z</time>
        <extensions>
          <ns3:TrackPointExtension>
            <ns3:atemp>20.0</ns3:atemp>
          </ns3:TrackPointExtension>
        </extensions>
      </trkpt>
      <trkpt lat="42.54588411189615726470947265625" lon="20.110723413527011871337890625">
        <ele>1868.5999755859375</ele>
        <time>2026-06-20T06:26:57.000Z</time>
        <extensions>
          <ns3:TrackPointExtension>
            <ns3:atemp>20.0</ns3:atemp>
          </ns3:TrackPointExtension>
        </extensions>
      </trkpt>
      <trkpt lat="42.545877657830715179443359375" lon="20.11072366498410701751708984375">
        <ele>1868.5999755859375</ele>
        <time>2026-06-20T06:26:58.000Z</time>
        <extensions>
          <ns3:TrackPointExtension>
            <ns3:atemp>20.0</ns3:atemp>
          </ns3:TrackPointExtension>
        </extensions>
      </trkpt>
      <trkpt lat="42.54587723873555660247802734375" lon="20.11072265915572643280029296875">
        <ele>1868.5999755859375</ele>
        <time>2026-06-20T06:26:59.000Z</time>
        <extensions>
          <ns3:TrackPointExtension>
            <ns3:atemp>20.0</ns3:atemp>
          </ns3:TrackPointExtension>
        </extensions>
      </trkpt>
      <trkpt lat="42.5458771549165248870849609375" lon="20.11072265915572643280029296875">
        <ele>1868.5999755859375</ele>
        <time>2026-06-20T06:27:00.000Z</time>
        <extensions>
          <ns3:TrackPointExtension>
            <ns3:atemp>20.0</ns3:atemp>
          </ns3:TrackPointExtension>
        </extensions>
      </trkpt>
      <trkpt lat="42.545876987278461456298828125" lon="20.11072265915572643280029296875">
        <ele>1868.199951171875</ele>
        <time>2026-06-20T06:27:01.000Z</time>
        <extensions>
          <ns3:TrackPointExtension>
            <ns3:atemp>20.0</ns3:atemp>
          </ns3:TrackPointExtension>
        </extensions>
      </trkpt>
      <trkpt lat="42.54586617462337017059326171875" lon="20.1107262633740901947021484375">
        <ele>1868.199951171875</ele>
        <time>2026-06-20T06:27:02.000Z</time>
        <extensions>
          <ns3:TrackPointExtension>
            <ns3:atemp>20.0</ns3:atemp>
          </ns3:TrackPointExtension>
        </extensions>
      </trkpt>
      <trkpt lat="42.54586131311953067779541015625" lon="20.11073020286858081817626953125">
        <ele>1868.199951171875</ele>
        <time>2026-06-20T06:27:03.000Z</time>
        <extensions>
          <ns3:TrackPointExtension>
            <ns3:atemp>20.0</ns3:atemp>
          </ns3:TrackPointExtension>
        </extensions>
      </trkpt>
      <trkpt lat="42.54585854709148406982421875" lon="20.1107343100011348724365234375">
        <ele>1868.199951171875</ele>
        <time>2026-06-20T06:27:04.000Z</time>
        <extensions>
          <ns3:TrackPointExtension>
            <ns3:atemp>20.0</ns3:atemp>
          </ns3:TrackPointExtension>
        </extensions>
      </trkpt>
      <trkpt lat="42.54585041664540767669677734375" lon="20.1107393391430377960205078125">
        <ele>1868.199951171875</ele>
        <time>2026-06-20T06:27:05.000Z</time>
        <extensions>
          <ns3:TrackPointExtension>
            <ns3:atemp>20.0</ns3:atemp>
          </ns3:TrackPointExtension>
        </extensions>
      </trkpt>
      <trkpt lat="42.54584035836160182952880859375" lon="20.1107436977326869964599609375">
        <ele>1868.199951171875</ele>
        <time>2026-06-20T06:27:06.000Z</time>
        <extensions>
          <ns3:TrackPointExtension>
            <ns3:atemp>20.0</ns3:atemp>
          </ns3:TrackPointExtension>
        </extensions>
      </trkpt>
      <trkpt lat="42.54582812078297138214111328125" lon="20.11074512265622615814208984375">
        <ele>1868.199951171875</ele>
        <time>2026-06-20T06:27:07.000Z</time>
        <extensions>
          <ns3:TrackPointExtension>
            <ns3:atemp>20.0</ns3:atemp>
          </ns3:TrackPointExtension>
        </extensions>
      </trkpt>
      <trkpt lat="42.5458111055195331573486328125" lon="20.1107447035610675811767578125">
        <ele>1868.199951171875</ele>
        <time>2026-06-20T06:27:08.000Z</time>
        <extensions>
          <ns3:TrackPointExtension>
            <ns3:atemp>20.0</ns3:atemp>
          </ns3:TrackPointExtension>
        </extensions>
      </trkpt>
      <trkpt lat="42.5457899831235408782958984375" lon="20.11074579320847988128662109375">
        <ele>1868.800048828125</ele>
        <time>2026-06-20T06:27:09.000Z</time>
        <extensions>
          <ns3:TrackPointExtension>
            <ns3:atemp>20.0</ns3:atemp>
          </ns3:TrackPointExtension>
        </extensions>
      </trkpt>
      <trkpt lat="42.545771710574626922607421875" lon="20.110747553408145904541015625">
        <ele>1868.5999755859375</ele>
        <time>2026-06-20T06:27:10.000Z</time>
        <extensions>
          <ns3:TrackPointExtension>
            <ns3:atemp>20.0</ns3:atemp>
          </ns3:TrackPointExtension>
        </extensions>
      </trkpt>
      <trkpt lat="42.5457537733018398284912109375" lon="20.11074118316173553466796875">
        <ele>1868.4000244140625</ele>
        <time>2026-06-20T06:27:11.000Z</time>
        <extensions>
          <ns3:TrackPointExtension>
            <ns3:atemp>20.0</ns3:atemp>
          </ns3:TrackPointExtension>
        </extensions>
      </trkpt>
      <trkpt lat="42.545736171305179595947265625" lon="20.11073791421949863433837890625">
        <ele>1868.199951171875</ele>
        <time>2026-06-20T06:27:12.000Z</time>
        <extensions>
          <ns3:TrackPointExtension>
            <ns3:atemp>20.0</ns3:atemp>
          </ns3:TrackPointExtension>
        </extensions>
      </trkpt>
      <trkpt lat="42.5457178987562656402587890625" lon="20.110742859542369842529296875">
        <ele>1868</ele>
        <time>2026-06-20T06:27:13.000Z</time>
        <extensions>
          <ns3:TrackPointExtension>
            <ns3:atemp>20.0</ns3:atemp>
          </ns3:TrackPointExtension>
        </extensions>
      </trkpt>
      <trkpt lat="42.5457132048904895782470703125" lon="20.11074445210397243499755859375">
        <ele>1868</ele>
        <time>2026-06-20T06:27:14.000Z</time>
        <extensions>
          <ns3:TrackPointExtension>
            <ns3:atemp>20.0</ns3:atemp>
          </ns3:TrackPointExtension>
        </extensions>
      </trkpt>
      <trkpt lat="42.54571043886244297027587890625" lon="20.110745541751384735107421875">
        <ele>1868</ele>
        <time>2026-06-20T06:27:15.000Z</time>
        <extensions>
          <ns3:TrackPointExtension>
            <ns3:atemp>20.0</ns3:atemp>
          </ns3:TrackPointExtension>
        </extensions>
      </trkpt>
      <trkpt lat="42.54571043886244297027587890625" lon="20.11074562557041645050048828125">
        <ele>1868</ele>
        <time>2026-06-20T06:27:16.000Z</time>
        <extensions>
          <ns3:TrackPointExtension>
            <ns3:atemp>20.0</ns3:atemp>
          </ns3:TrackPointExtension>
        </extensions>
      </trkpt>
      <trkpt lat="42.54571043886244297027587890625" lon="20.11074562557041645050048828125">
        <ele>1868</ele>
        <time>2026-06-20T06:27:17.000Z</time>
        <extensions>
          <ns3:TrackPointExtension>
            <ns3:atemp>20.0</ns3:atemp>
          </ns3:TrackPointExtension>
        </extensions>
      </trkpt>
      <trkpt lat="42.5457103550434112548828125" lon="20.1107458770275115966796875">
        <ele>1868</ele>
        <time>2026-06-20T06:27:18.000Z</time>
        <extensions>
          <ns3:TrackPointExtension>
            <ns3:atemp>20.0</ns3:atemp>
          </ns3:TrackPointExtension>
        </extensions>
      </trkpt>
      <trkpt lat="42.54570297896862030029296875" lon="20.1107530854642391204833984375">
        <ele>1868.199951171875</ele>
        <time>2026-06-20T06:27:19.000Z</time>
        <extensions>
          <ns3:TrackPointExtension>
            <ns3:atemp>20.0</ns3:atemp>
          </ns3:TrackPointExtension>
        </extensions>
      </trkpt>
      <trkpt lat="42.54569065757095813751220703125" lon="20.11075434274971485137939453125">
        <ele>1868.199951171875</ele>
        <time>2026-06-20T06:27:20.000Z</time>
        <extensions>
          <ns3:TrackPointExtension>
            <ns3:atemp>20.0</ns3:atemp>
          </ns3:TrackPointExtension>
        </extensions>
      </trkpt>
      <trkpt lat="42.54569116048514842987060546875" lon="20.1107504032552242279052734375">
        <ele>1868.199951171875</ele>
        <time>2026-06-20T06:27:21.000Z</time>
        <extensions>
          <ns3:TrackPointExtension>
            <ns3:atemp>20.0</ns3:atemp>
          </ns3:TrackPointExtension>
        </extensions>
      </trkpt>
      <trkpt lat="42.54569116048514842987060546875" lon="20.11075048707425594329833984375">
        <ele>1868.199951171875</ele>
        <time>2026-06-20T06:27:22.000Z</time>
        <extensions>
          <ns3:TrackPointExtension>
            <ns3:atemp>20.0</ns3:atemp>
          </ns3:TrackPointExtension>
        </extensions>
      </trkpt>
      <trkpt lat="42.54568814300000667572021484375" lon="20.11075367219746112823486328125">
        <ele>1868.4000244140625</ele>
        <time>2026-06-20T06:27:23.000Z</time>
        <extensions>
          <ns3:TrackPointExtension>
            <ns3:atemp>20.0</ns3:atemp>
          </ns3:TrackPointExtension>
        </extensions>
      </trkpt>
      <trkpt lat="42.54567875526845455169677734375" lon="20.11076071299612522125244140625">
        <ele>1868.4000244140625</ele>
        <time>2026-06-20T06:27:24.000Z</time>
        <extensions>
          <ns3:TrackPointExtension>
            <ns3:atemp>20.0</ns3:atemp>
          </ns3:TrackPointExtension>
        </extensions>
      </trkpt>
      <trkpt lat="42.54566987045109272003173828125" lon="20.1107631437480449676513671875">
        <ele>1868.4000244140625</ele>
        <time>2026-06-20T06:27:25.000Z</time>
        <extensions>
          <ns3:TrackPointExtension>
            <ns3:atemp>20.0</ns3:atemp>
          </ns3:TrackPointExtension>
        </extensions>
      </trkpt>
      <trkpt lat="42.54566366784274578094482421875" lon="20.1107624731957912445068359375">
        <ele>1868.5999755859375</ele>
        <time>2026-06-20T06:27:26.000Z</time>
        <extensions>
          <ns3:TrackPointExtension>
            <ns3:atemp>20.0</ns3:atemp>
          </ns3:TrackPointExtension>
        </extensions>
      </trkpt>
      <trkpt lat="42.54566366784274578094482421875" lon="20.1107624731957912445068359375">
        <ele>1868.5999755859375</ele>
        <time>2026-06-20T06:27:27.000Z</time>
        <extensions>
          <ns3:TrackPointExtension>
            <ns3:atemp>20.0</ns3:atemp>
          </ns3:TrackPointExtension>
        </extensions>
      </trkpt>
      <trkpt lat="42.5456635840237140655517578125" lon="20.11076264083385467529296875">
        <ele>1868.800048828125</ele>
        <time>2026-06-20T06:27:28.000Z</time>
        <extensions>
          <ns3:TrackPointExtension>
            <ns3:atemp>20.0</ns3:atemp>
          </ns3:TrackPointExtension>
        </extensions>
      </trkpt>
      <trkpt lat="42.545651011168956756591796875" lon="20.11076758615672588348388671875">
        <ele>1868.800048828125</ele>
        <time>2026-06-20T06:27:29.000Z</time>
        <extensions>
          <ns3:TrackPointExtension>
            <ns3:atemp>20.0</ns3:atemp>
          </ns3:TrackPointExtension>
        </extensions>
      </trkpt>
      <trkpt lat="42.545633576810359954833984375" lon="20.11077613569796085357666015625">
        <ele>1868.800048828125</ele>
        <time>2026-06-20T06:27:30.000Z</time>
        <extensions>
          <ns3:TrackPointExtension>
            <ns3:atemp>20.0</ns3:atemp>
          </ns3:TrackPointExtension>
        </extensions>
      </trkpt>
      <trkpt lat="42.54561622627079486846923828125" lon="20.11078535579144954681396484375">
        <ele>1869</ele>
        <time>2026-06-20T06:27:31.000Z</time>
        <extensions>
          <ns3:TrackPointExtension>
            <ns3:atemp>20.0</ns3:atemp>
          </ns3:TrackPointExtension>
        </extensions>
      </trkpt>
      <trkpt lat="42.54559543915092945098876953125" lon="20.11079348623752593994140625">
        <ele>1869</ele>
        <time>2026-06-20T06:27:32.000Z</time>
        <extensions>
          <ns3:TrackPointExtension>
            <ns3:atemp>20.0</ns3:atemp>
          </ns3:TrackPointExtension>
        </extensions>
      </trkpt>
      <trkpt lat="42.545575238764286041259765625" lon="20.11079323478043079376220703125">
        <ele>1869.199951171875</ele>
        <time>2026-06-20T06:27:33.000Z</time>
        <extensions>
          <ns3:TrackPointExtension>
            <ns3:atemp>20.0</ns3:atemp>
          </ns3:TrackPointExtension>
        </extensions>
      </trkpt>
      <trkpt lat="42.5455579720437526702880859375" lon="20.1107983477413654327392578125">
        <ele>1869.4000244140625</ele>
        <time>2026-06-20T06:27:34.000Z</time>
        <extensions>
          <ns3:TrackPointExtension>
            <ns3:atemp>20.0</ns3:atemp>
          </ns3:TrackPointExtension>
        </extensions>
      </trkpt>
      <trkpt lat="42.54553860984742641448974609375" lon="20.11080480180680751800537109375">
        <ele>1869.5999755859375</ele>
        <time>2026-06-20T06:27:35.000Z</time>
        <extensions>
          <ns3:TrackPointExtension>
            <ns3:atemp>20.0</ns3:atemp>
          </ns3:TrackPointExtension>
        </extensions>
      </trkpt>
      <trkpt lat="42.545513212680816650390625" lon="20.110813938081264495849609375">
        <ele>1869.800048828125</ele>
        <time>2026-06-20T06:27:36.000Z</time>
        <extensions>
          <ns3:TrackPointExtension>
            <ns3:atemp>20.0</ns3:atemp>
          </ns3:TrackPointExtension>
        </extensions>
      </trkpt>
      <trkpt lat="42.5454946048557758331298828125" lon="20.11081553064286708831787109375">
        <ele>1870</ele>
        <time>2026-06-20T06:27:37.000Z</time>
        <extensions>
          <ns3:TrackPointExtension>
            <ns3:atemp>20.0</ns3:atemp>
          </ns3:TrackPointExtension>
        </extensions>
      </trkpt>
      <trkpt lat="42.545477338135242462158203125" lon="20.1108184643089771270751953125">
        <ele>1870.4000244140625</ele>
        <time>2026-06-20T06:27:38.000Z</time>
        <extensions>
          <ns3:TrackPointExtension>
            <ns3:atemp>20.0</ns3:atemp>
          </ns3:TrackPointExtension>
        </extensions>
      </trkpt>
      <trkpt lat="42.54546233452856540679931640625" lon="20.1108265109360218048095703125">
        <ele>1870.5999755859375</ele>
        <time>2026-06-20T06:27:39.000Z</time>
        <extensions>
          <ns3:TrackPointExtension>
            <ns3:atemp>20.0</ns3:atemp>
          </ns3:TrackPointExtension>
        </extensions>
      </trkpt>
      <trkpt lat="42.54545210860669612884521484375" lon="20.110832042992115020751953125">
        <ele>1870.800048828125</ele>
        <time>2026-06-20T06:27:40.000Z</time>
        <extensions>
          <ns3:TrackPointExtension>
            <ns3:atemp>20.0</ns3:atemp>
          </ns3:TrackPointExtension>
        </extensions>
      </trkpt>
      <trkpt lat="42.54544280469417572021484375" lon="20.1108322106301784515380859375">
        <ele>1871.199951171875</ele>
        <time>2026-06-20T06:27:41.000Z</time>
        <extensions>
          <ns3:TrackPointExtension>
            <ns3:atemp>20.0</ns3:atemp>
          </ns3:TrackPointExtension>
        </extensions>
      </trkpt>
      <trkpt lat="42.5454332493245601654052734375" lon="20.11083413846790790557861328125">
        <ele>1871.4000244140625</ele>
        <time>2026-06-20T06:27:42.000Z</time>
        <extensions>
          <ns3:TrackPointExtension>
            <ns3:atemp>20.0</ns3:atemp>
          </ns3:TrackPointExtension>
        </extensions>
      </trkpt>
      <trkpt lat="42.54542310722172260284423828125" lon="20.11083304882049560546875">
        <ele>1871.5999755859375</ele>
        <time>2026-06-20T06:27:43.000Z</time>
        <extensions>
          <ns3:TrackPointExtension>
            <ns3:atemp>20.0</ns3:atemp>
          </ns3:TrackPointExtension>
        </extensions>
      </trkpt>
      <trkpt lat="42.5454179942607879638671875" lon="20.1108238287270069122314453125">
        <ele>1871.800048828125</ele>
        <time>2026-06-20T06:27:44.000Z</time>
        <extensions>
          <ns3:TrackPointExtension>
            <ns3:atemp>20.0</ns3:atemp>
          </ns3:TrackPointExtension>
        </extensions>
      </trkpt>
      <trkpt lat="42.545412294566631317138671875" lon="20.11080798693001270294189453125">
        <ele>1872</ele>
        <time>2026-06-20T06:27:45.000Z</time>
        <extensions>
          <ns3:TrackPointExtension>
            <ns3:atemp>20.0</ns3:atemp>
          </ns3:TrackPointExtension>
        </extensions>
      </trkpt>
      <trkpt lat="42.5453992187976837158203125" lon="20.11079608462750911712646484375">
        <ele>1872</ele>
        <time>2026-06-20T06:27:46.000Z</time>
        <extensions>
          <ns3:TrackPointExtension>
            <ns3:atemp>20.0</ns3:atemp>
          </ns3:TrackPointExtension>
        </extensions>
      </trkpt>
      <trkpt lat="42.545385472476482391357421875" lon="20.11078066192567348480224609375">
        <ele>1872.199951171875</ele>
        <time>2026-06-20T06:27:47.000Z</time>
        <extensions>
          <ns3:TrackPointExtension>
            <ns3:atemp>20.0</ns3:atemp>
          </ns3:TrackPointExtension>
        </extensions>
      </trkpt>
      <trkpt lat="42.54537868313491344451904296875" lon="20.11077077127993106842041015625">
        <ele>1872.199951171875</ele>
        <time>2026-06-20T06:27:48.000Z</time>
        <extensions>
          <ns3:TrackPointExtension>
            <ns3:atemp>20.0</ns3:atemp>
          </ns3:TrackPointExtension>
        </extensions>
      </trkpt>
      <trkpt lat="42.545368373394012451171875" lon="20.11076741851866245269775390625">
        <ele>1872.4000244140625</ele>
        <time>2026-06-20T06:27:49.000Z</time>
        <extensions>
          <ns3:TrackPointExtension>
            <ns3:atemp>20.0</ns3:atemp>
          </ns3:TrackPointExtension>
        </extensions>
      </trkpt>
      <trkpt lat="42.54535429179668426513671875" lon="20.11076674796640872955322265625">
        <ele>1872.4000244140625</ele>
        <time>2026-06-20T06:27:50.000Z</time>
        <extensions>
          <ns3:TrackPointExtension>
            <ns3:atemp>20.0</ns3:atemp>
          </ns3:TrackPointExtension>
        </extensions>
      </trkpt>
      <trkpt lat="42.545333839952945709228515625" lon="20.11075953952968120574951171875">
        <ele>1872.4000244140625</ele>
        <time>2026-06-20T06:27:51.000Z</time>
        <extensions>
          <ns3:TrackPointExtension>
            <ns3:atemp>20.0</ns3:atemp>
          </ns3:TrackPointExtension>
        </extensions>
      </trkpt>
      <trkpt lat="42.5453187525272369384765625" lon="20.1107534207403659820556640625">
        <ele>1872.5999755859375</ele>
        <time>2026-06-20T06:27:52.000Z</time>
        <extensions>
          <ns3:TrackPointExtension>
            <ns3:atemp>20.0</ns3:atemp>
          </ns3:TrackPointExtension>
        </extensions>
      </trkpt>
      <trkpt lat="42.5453187525272369384765625" lon="20.11074646376073360443115234375">
        <ele>1872.5999755859375</ele>
        <time>2026-06-20T06:27:53.000Z</time>
        <extensions>
          <ns3:TrackPointExtension>
            <ns3:atemp>20.0</ns3:atemp>
          </ns3:TrackPointExtension>
        </extensions>
      </trkpt>
      <trkpt lat="42.54531447775661945343017578125" lon="20.11074386537075042724609375">
        <ele>1872.800048828125</ele>
        <time>2026-06-20T06:27:54.000Z</time>
        <extensions>
          <ns3:TrackPointExtension>
            <ns3:atemp>20.0</ns3:atemp>
          </ns3:TrackPointExtension>
        </extensions>
      </trkpt>
      <trkpt lat="42.54530576057732105255126953125" lon="20.11074461974203586578369140625">
        <ele>1872.800048828125</ele>
        <time>2026-06-20T06:27:55.000Z</time>
        <extensions>
          <ns3:TrackPointExtension>
            <ns3:atemp>20.0</ns3:atemp>
          </ns3:TrackPointExtension>
        </extensions>
      </trkpt>
      <trkpt lat="42.5452971272170543670654296875" lon="20.11074512265622615814208984375">
        <ele>1873</ele>
        <time>2026-06-20T06:27:56.000Z</time>
        <extensions>
          <ns3:TrackPointExtension>
            <ns3:atemp>20.0</ns3:atemp>
          </ns3:TrackPointExtension>
        </extensions>
      </trkpt>
      <trkpt lat="42.54528983496129512786865234375" lon="20.11074529029428958892822265625">
        <ele>1873</ele>
        <time>2026-06-20T06:27:57.000Z</time>
        <extensions>
          <ns3:TrackPointExtension>
            <ns3:atemp>20.0</ns3:atemp>
          </ns3:TrackPointExtension>
        </extensions>
      </trkpt>
      <trkpt lat="42.5452850572764873504638671875" lon="20.1107467152178287506103515625">
        <ele>1873</ele>
        <time>2026-06-20T06:27:58.000Z</time>
        <extensions>
          <ns3:TrackPointExtension>
            <ns3:atemp>20.0</ns3:atemp>
          </ns3:TrackPointExtension>
        </extensions>
      </trkpt>
      <trkpt lat="42.545282207429409027099609375" lon="20.11074612848460674285888671875">
        <ele>1873</ele>
        <time>2026-06-20T06:27:59.000Z</time>
        <extensions>
          <ns3:TrackPointExtension>
            <ns3:atemp>20.0</ns3:atemp>
          </ns3:TrackPointExtension>
        </extensions>
      </trkpt>
      <trkpt lat="42.54528212361037731170654296875" lon="20.11074612848460674285888671875">
        <ele>1873</ele>
        <time>2026-06-20T06:28:00.000Z</time>
        <extensions>
          <ns3:TrackPointExtension>
            <ns3:atemp>20.0</ns3:atemp>
          </ns3:TrackPointExtension>
        </extensions>
      </trkpt>
      <trkpt lat="42.5452731549739837646484375" lon="20.11074797250330448150634765625">
        <ele>1873.199951171875</ele>
        <time>2026-06-20T06:28:01.000Z</time>
        <extensions>
          <ns3:TrackPointExtension>
            <ns3:atemp>20.0</ns3:atemp>
          </ns3:TrackPointExtension>
        </extensions>
      </trkpt>
      <trkpt lat="42.54526670090854167938232421875" lon="20.11074814014136791229248046875">
        <ele>1873.199951171875</ele>
        <time>2026-06-20T06:28:02.000Z</time>
        <extensions>
          <ns3:TrackPointExtension>
            <ns3:atemp>20.0</ns3:atemp>
          </ns3:TrackPointExtension>
        </extensions>
      </trkpt>
      <trkpt lat="42.54526443779468536376953125" lon="20.110742859542369842529296875">
        <ele>1873.199951171875</ele>
        <time>2026-06-20T06:28:03.000Z</time>
        <extensions>
          <ns3:TrackPointExtension>
            <ns3:atemp>20.0</ns3:atemp>
          </ns3:TrackPointExtension>
        </extensions>
      </trkpt>
      <trkpt lat="42.54526443779468536376953125" lon="20.11074277572333812713623046875">
        <ele>1873.4000244140625</ele>
        <time>2026-06-20T06:28:04.000Z</time>
        <extensions>
          <ns3:TrackPointExtension>
            <ns3:atemp>20.0</ns3:atemp>
          </ns3:TrackPointExtension>
        </extensions>
      </trkpt>
      <trkpt lat="42.54525647498667240142822265625" lon="20.1107426919043064117431640625">
        <ele>1873.4000244140625</ele>
        <time>2026-06-20T06:28:05.000Z</time>
        <extensions>
          <ns3:TrackPointExtension>
            <ns3:atemp>20.0</ns3:atemp>
          </ns3:TrackPointExtension>
        </extensions>
      </trkpt>
      <trkpt lat="42.54526443779468536376953125" lon="20.110742859542369842529296875">
        <ele>1873.4000244140625</ele>
        <time>2026-06-20T06:28:06.000Z</time>
        <extensions>
          <ns3:TrackPointExtension>
            <ns3:atemp>20.0</ns3:atemp>
          </ns3:TrackPointExtension>
        </extensions>
      </trkpt>
      <trkpt lat="42.54525840282440185546875" lon="20.11074059642851352691650390625">
        <ele>1873.5999755859375</ele>
        <time>2026-06-20T06:28:07.000Z</time>
        <extensions>
          <ns3:TrackPointExtension>
            <ns3:atemp>20.0</ns3:atemp>
          </ns3:TrackPointExtension>
        </extensions>
      </trkpt>
      <trkpt lat="42.5452461652457714080810546875" lon="20.11075031943619251251220703125">
        <ele>1873.5999755859375</ele>
        <time>2026-06-20T06:28:08.000Z</time>
        <extensions>
          <ns3:TrackPointExtension>
            <ns3:atemp>20.0</ns3:atemp>
          </ns3:TrackPointExtension>
        </extensions>
      </trkpt>
      <trkpt lat="42.5452418066561222076416015625" lon="20.11075518094003200531005859375">
        <ele>1873.800048828125</ele>
        <time>2026-06-20T06:28:09.000Z</time>
        <extensions>
          <ns3:TrackPointExtension>
            <ns3:atemp>20.0</ns3:atemp>
          </ns3:TrackPointExtension>
        </extensions>
      </trkpt>
      <trkpt lat="42.5452314130961894989013671875" lon="20.11075853370130062103271484375">
        <ele>1873.800048828125</ele>
        <time>2026-06-20T06:28:10.000Z</time>
        <extensions>
          <ns3:TrackPointExtension>
            <ns3:atemp>20.0</ns3:atemp>
          </ns3:TrackPointExtension>
        </extensions>
      </trkpt>
      <trkpt lat="42.54522529430687427520751953125" lon="20.1107581146061420440673828125">
        <ele>1874</ele>
        <time>2026-06-20T06:28:11.000Z</time>
        <extensions>
          <ns3:TrackPointExtension>
            <ns3:atemp>20.0</ns3:atemp>
          </ns3:TrackPointExtension>
        </extensions>
      </trkpt>
      <trkpt lat="42.54522227682173252105712890625" lon="20.11075618676841259002685546875">
        <ele>1874</ele>
        <time>2026-06-20T06:28:12.000Z</time>
        <extensions>
          <ns3:TrackPointExtension>
            <ns3:atemp>20.0</ns3:atemp>
          </ns3:TrackPointExtension>
        </extensions>
      </trkpt>
      <trkpt lat="42.545217834413051605224609375" lon="20.1107554323971271514892578125">
        <ele>1874</ele>
        <time>2026-06-20T06:28:13.000Z</time>
        <extensions>
          <ns3:TrackPointExtension>
            <ns3:atemp>20.0</ns3:atemp>
          </ns3:TrackPointExtension>
        </extensions>
      </trkpt>
      <trkpt lat="42.5452149845659732818603515625" lon="20.11075551621615886688232421875">
        <ele>1874</ele>
        <time>2026-06-20T06:28:14.000Z</time>
        <extensions>
          <ns3:TrackPointExtension>
            <ns3:atemp>20.0</ns3:atemp>
          </ns3:TrackPointExtension>
        </extensions>
      </trkpt>
      <trkpt lat="42.54521423019468784332275390625" lon="20.11075635440647602081298828125">
        <ele>1874</ele>
        <time>2026-06-20T06:28:15.000Z</time>
        <extensions>
          <ns3:TrackPointExtension>
            <ns3:atemp>20.0</ns3:atemp>
          </ns3:TrackPointExtension>
        </extensions>
      </trkpt>
      <trkpt lat="42.545208446681499481201171875" lon="20.11075719259679317474365234375">
        <ele>1874</ele>
        <time>2026-06-20T06:28:16.000Z</time>
        <extensions>
          <ns3:TrackPointExtension>
            <ns3:atemp>20.0</ns3:atemp>
          </ns3:TrackPointExtension>
        </extensions>
      </trkpt>
      <trkpt lat="42.54519679583609104156494140625" lon="20.11075601913034915924072265625">
        <ele>1874</ele>
        <time>2026-06-20T06:28:17.000Z</time>
        <extensions>
          <ns3:TrackPointExtension>
            <ns3:atemp>20.0</ns3:atemp>
          </ns3:TrackPointExtension>
        </extensions>
      </trkpt>
      <trkpt lat="42.54518556408584117889404296875" lon="20.11075727641582489013671875">
        <ele>1873.800048828125</ele>
        <time>2026-06-20T06:28:18.000Z</time>
        <extensions>
          <ns3:TrackPointExtension>
            <ns3:atemp>20.0</ns3:atemp>
          </ns3:TrackPointExtension>
        </extensions>
      </trkpt>
      <trkpt lat="42.54517701454460620880126953125" lon="20.11075870133936405181884765625">
        <ele>1873.800048828125</ele>
        <time>2026-06-20T06:28:19.000Z</time>
        <extensions>
          <ns3:TrackPointExtension>
            <ns3:atemp>20.0</ns3:atemp>
          </ns3:TrackPointExtension>
        </extensions>
      </trkpt>
      <trkpt lat="42.54516628570854663848876953125" lon="20.11076054535806179046630859375">
        <ele>1873.800048828125</ele>
        <time>2026-06-20T06:28:20.000Z</time>
        <extensions>
          <ns3:TrackPointExtension>
            <ns3:atemp>20.0</ns3:atemp>
          </ns3:TrackPointExtension>
        </extensions>
      </trkpt>
      <trkpt lat="42.5451546348631381988525390625" lon="20.11075861752033233642578125">
        <ele>1873.800048828125</ele>
        <time>2026-06-20T06:28:21.000Z</time>
        <extensions>
          <ns3:TrackPointExtension>
            <ns3:atemp>20.0</ns3:atemp>
          </ns3:TrackPointExtension>
        </extensions>
      </trkpt>
      <trkpt lat="42.545146755874156951904296875" lon="20.11076037771999835968017578125">
        <ele>1873.800048828125</ele>
        <time>2026-06-20T06:28:22.000Z</time>
        <extensions>
          <ns3:TrackPointExtension>
            <ns3:atemp>20.0</ns3:atemp>
          </ns3:TrackPointExtension>
        </extensions>
      </trkpt>
      <trkpt lat="42.54514667205512523651123046875" lon="20.1107604615390300750732421875">
        <ele>1873.800048828125</ele>
        <time>2026-06-20T06:28:23.000Z</time>
        <extensions>
          <ns3:TrackPointExtension>
            <ns3:atemp>20.0</ns3:atemp>
          </ns3:TrackPointExtension>
        </extensions>
      </trkpt>
      <trkpt lat="42.54514650441706180572509765625" lon="20.11076054535806179046630859375">
        <ele>1874</ele>
        <time>2026-06-20T06:28:24.000Z</time>
        <extensions>
          <ns3:TrackPointExtension>
            <ns3:atemp>20.0</ns3:atemp>
          </ns3:TrackPointExtension>
        </extensions>
      </trkpt>
      <trkpt lat="42.54514181055128574371337890625" lon="20.11076666414737701416015625">
        <ele>1874</ele>
        <time>2026-06-20T06:28:25.000Z</time>
        <extensions>
          <ns3:TrackPointExtension>
            <ns3:atemp>20.0</ns3:atemp>
          </ns3:TrackPointExtension>
        </extensions>
      </trkpt>
      <trkpt lat="42.54514667205512523651123046875" lon="20.1107604615390300750732421875">
        <ele>1874.199951171875</ele>
        <time>2026-06-20T06:28:26.000Z</time>
        <extensions>
          <ns3:TrackPointExtension>
            <ns3:atemp>20.0</ns3:atemp>
          </ns3:TrackPointExtension>
        </extensions>
      </trkpt>
      <trkpt lat="42.545140720903873443603515625" lon="20.11076305992901325225830078125">
        <ele>1874.199951171875</ele>
        <time>2026-06-20T06:28:27.000Z</time>
        <extensions>
          <ns3:TrackPointExtension>
            <ns3:atemp>20.0</ns3:atemp>
          </ns3:TrackPointExtension>
        </extensions>
      </trkpt>
      <trkpt lat="42.54514105618000030517578125" lon="20.1107646524906158447265625">
        <ele>1874.199951171875</ele>
        <time>2026-06-20T06:28:28.000Z</time>
        <extensions>
          <ns3:TrackPointExtension>
            <ns3:atemp>20.0</ns3:atemp>
          </ns3:TrackPointExtension>
        </extensions>
      </trkpt>
      <trkpt lat="42.545139379799365997314453125" lon="20.1107658259570598602294921875">
        <ele>1874.199951171875</ele>
        <time>2026-06-20T06:28:29.000Z</time>
        <extensions>
          <ns3:TrackPointExtension>
            <ns3:atemp>20.0</ns3:atemp>
          </ns3:TrackPointExtension>
        </extensions>
      </trkpt>
      <trkpt lat="42.54513443447649478912353515625" lon="20.11076792143285274505615234375">
        <ele>1874.199951171875</ele>
        <time>2026-06-20T06:28:30.000Z</time>
        <extensions>
          <ns3:TrackPointExtension>
            <ns3:atemp>20.0</ns3:atemp>
          </ns3:TrackPointExtension>
        </extensions>
      </trkpt>
      <trkpt lat="42.54513074643909931182861328125" lon="20.11077328585088253021240234375">
        <ele>1874.199951171875</ele>
        <time>2026-06-20T06:28:31.000Z</time>
        <extensions>
          <ns3:TrackPointExtension>
            <ns3:atemp>20.0</ns3:atemp>
          </ns3:TrackPointExtension>
        </extensions>
      </trkpt>
      <trkpt lat="42.54512638784945011138916015625" lon="20.11077647097408771514892578125">
        <ele>1874.199951171875</ele>
        <time>2026-06-20T06:28:32.000Z</time>
        <extensions>
          <ns3:TrackPointExtension>
            <ns3:atemp>20.0</ns3:atemp>
          </ns3:TrackPointExtension>
        </extensions>
      </trkpt>
      <trkpt lat="42.545117922127246856689453125" lon="20.11078585870563983917236328125">
        <ele>1874.199951171875</ele>
        <time>2026-06-20T06:28:33.000Z</time>
        <extensions>
          <ns3:TrackPointExtension>
            <ns3:atemp>20.0</ns3:atemp>
          </ns3:TrackPointExtension>
        </extensions>
      </trkpt>
      <trkpt lat="42.5451149046421051025390625" lon="20.1107852719724178314208984375">
        <ele>1874.199951171875</ele>
        <time>2026-06-20T06:28:34.000Z</time>
        <extensions>
          <ns3:TrackPointExtension>
            <ns3:atemp>20.0</ns3:atemp>
          </ns3:TrackPointExtension>
        </extensions>
      </trkpt>
      <trkpt lat="42.54511482082307338714599609375" lon="20.11078535579144954681396484375">
        <ele>1874.199951171875</ele>
        <time>2026-06-20T06:28:35.000Z</time>
        <extensions>
          <ns3:TrackPointExtension>
            <ns3:atemp>20.0</ns3:atemp>
          </ns3:TrackPointExtension>
        </extensions>
      </trkpt>
      <trkpt lat="42.5451103784143924713134765625" lon="20.11079080402851104736328125">
        <ele>1874.199951171875</ele>
        <time>2026-06-20T06:28:36.000Z</time>
        <extensions>
          <ns3:TrackPointExtension>
            <ns3:atemp>20.0</ns3:atemp>
          </ns3:TrackPointExtension>
        </extensions>
      </trkpt>
      <trkpt lat="42.5451009906828403472900390625" lon="20.11080228723585605621337890625">
        <ele>1874.199951171875</ele>
        <time>2026-06-20T06:28:37.000Z</time>
        <extensions>
          <ns3:TrackPointExtension>
            <ns3:atemp>20.0</ns3:atemp>
          </ns3:TrackPointExtension>
        </extensions>
      </trkpt>
      <trkpt lat="42.54509436897933483123779296875" lon="20.11082089506089687347412109375">
        <ele>1874.199951171875</ele>
        <time>2026-06-20T06:28:38.000Z</time>
        <extensions>
          <ns3:TrackPointExtension>
            <ns3:atemp>20.0</ns3:atemp>
          </ns3:TrackPointExtension>
        </extensions>
      </trkpt>
      <trkpt lat="42.5450879149138927459716796875" lon="20.11083631776273250579833984375">
        <ele>1874.199951171875</ele>
        <time>2026-06-20T06:28:39.000Z</time>
        <extensions>
          <ns3:TrackPointExtension>
            <ns3:atemp>20.0</ns3:atemp>
          </ns3:TrackPointExtension>
        </extensions>
      </trkpt>
      <trkpt lat="42.54508330486714839935302734375" lon="20.1108459569513797760009765625">
        <ele>1874.199951171875</ele>
        <time>2026-06-20T06:28:40.000Z</time>
        <extensions>
          <ns3:TrackPointExtension>
            <ns3:atemp>20.0</ns3:atemp>
          </ns3:TrackPointExtension>
        </extensions>
      </trkpt>
      <trkpt lat="42.54508607089519500732421875" lon="20.110846795141696929931640625">
        <ele>1874.4000244140625</ele>
        <time>2026-06-20T06:28:41.000Z</time>
        <extensions>
          <ns3:TrackPointExtension>
            <ns3:atemp>20.0</ns3:atemp>
          </ns3:TrackPointExtension>
        </extensions>
      </trkpt>
      <trkpt lat="42.54508607089519500732421875" lon="20.110846795141696929931640625">
        <ele>1874.4000244140625</ele>
        <time>2026-06-20T06:28:42.000Z</time>
        <extensions>
          <ns3:TrackPointExtension>
            <ns3:atemp>20.0</ns3:atemp>
          </ns3:TrackPointExtension>
        </extensions>
      </trkpt>
      <trkpt lat="42.54508607089519500732421875" lon="20.110846795141696929931640625">
        <ele>1874.5999755859375</ele>
        <time>2026-06-20T06:28:43.000Z</time>
        <extensions>
          <ns3:TrackPointExtension>
            <ns3:atemp>20.0</ns3:atemp>
          </ns3:TrackPointExtension>
        </extensions>
      </trkpt>
      <trkpt lat="42.54508615471422672271728515625" lon="20.110846795141696929931640625">
        <ele>1874.800048828125</ele>
        <time>2026-06-20T06:28:44.000Z</time>
        <extensions>
          <ns3:TrackPointExtension>
            <ns3:atemp>20.0</ns3:atemp>
          </ns3:TrackPointExtension>
        </extensions>
      </trkpt>
      <trkpt lat="42.5450805388391017913818359375" lon="20.110853500664234161376953125">
        <ele>1874.800048828125</ele>
        <time>2026-06-20T06:28:45.000Z</time>
        <extensions>
          <ns3:TrackPointExtension>
            <ns3:atemp>20.0</ns3:atemp>
          </ns3:TrackPointExtension>
        </extensions>
      </trkpt>
      <trkpt lat="42.54507391713559627532958984375" lon="20.110863558948040008544921875">
        <ele>1874.800048828125</ele>
        <time>2026-06-20T06:28:46.000Z</time>
        <extensions>
          <ns3:TrackPointExtension>
            <ns3:atemp>20.0</ns3:atemp>
          </ns3:TrackPointExtension>
        </extensions>
      </trkpt>
      <trkpt lat="42.545066960155963897705078125" lon="20.11087755672633647918701171875">
        <ele>1874.800048828125</ele>
        <time>2026-06-20T06:28:47.000Z</time>
        <extensions>
          <ns3:TrackPointExtension>
            <ns3:atemp>20.0</ns3:atemp>
          </ns3:TrackPointExtension>
        </extensions>
      </trkpt>
      <trkpt lat="42.54505229182541370391845703125" lon="20.1108952425420284271240234375">
        <ele>1874.800048828125</ele>
        <time>2026-06-20T06:28:48.000Z</time>
        <extensions>
          <ns3:TrackPointExtension>
            <ns3:atemp>20.0</ns3:atemp>
          </ns3:TrackPointExtension>
        </extensions>
      </trkpt>
      <trkpt lat="42.54503921605646610260009765625" lon="20.110916197299957275390625">
        <ele>1875</ele>
        <time>2026-06-20T06:28:49.000Z</time>
        <extensions>
          <ns3:TrackPointExtension>
            <ns3:atemp>20.0</ns3:atemp>
          </ns3:TrackPointExtension>
        </extensions>
      </trkpt>
      <trkpt lat="42.545032761991024017333984375" lon="20.1109217293560504913330078125">
        <ele>1875</ele>
        <time>2026-06-20T06:28:50.000Z</time>
        <extensions>
          <ns3:TrackPointExtension>
            <ns3:atemp>20.0</ns3:atemp>
          </ns3:TrackPointExtension>
        </extensions>
      </trkpt>
      <trkpt lat="42.54502949304878711700439453125" lon="20.11091963388025760650634765625">
        <ele>1875.199951171875</ele>
        <time>2026-06-20T06:28:51.000Z</time>
        <extensions>
          <ns3:TrackPointExtension>
            <ns3:atemp>20.0</ns3:atemp>
          </ns3:TrackPointExtension>
        </extensions>
      </trkpt>
      <trkpt lat="42.5450295768678188323974609375" lon="20.11091955006122589111328125">
        <ele>1875.4000244140625</ele>
        <time>2026-06-20T06:28:52.000Z</time>
        <extensions>
          <ns3:TrackPointExtension>
            <ns3:atemp>20.0</ns3:atemp>
          </ns3:TrackPointExtension>
        </extensions>
      </trkpt>
      <trkpt lat="42.54502966068685054779052734375" lon="20.1109344698488712310791015625">
        <ele>1875.4000244140625</ele>
        <time>2026-06-20T06:28:53.000Z</time>
        <extensions>
          <ns3:TrackPointExtension>
            <ns3:atemp>20.0</ns3:atemp>
          </ns3:TrackPointExtension>
        </extensions>
      </trkpt>
      <trkpt lat="42.54502412863075733184814453125" lon="20.11096707545220851898193359375">
        <ele>1875.4000244140625</ele>
        <time>2026-06-20T06:28:54.000Z</time>
        <extensions>
          <ns3:TrackPointExtension>
            <ns3:atemp>20.0</ns3:atemp>
          </ns3:TrackPointExtension>
        </extensions>
      </trkpt>
      <trkpt lat="42.54501490853726863861083984375" lon="20.110996998846530914306640625">
        <ele>1875.4000244140625</ele>
        <time>2026-06-20T06:28:55.000Z</time>
        <extensions>
          <ns3:TrackPointExtension>
            <ns3:atemp>20.0</ns3:atemp>
          </ns3:TrackPointExtension>
        </extensions>
      </trkpt>
      <trkpt lat="42.54501155577600002288818359375" lon="20.11101879179477691650390625">
        <ele>1875.4000244140625</ele>
        <time>2026-06-20T06:28:56.000Z</time>
        <extensions>
          <ns3:TrackPointExtension>
            <ns3:atemp>20.0</ns3:atemp>
          </ns3:TrackPointExtension>
        </extensions>
      </trkpt>
      <trkpt lat="42.545007951557636260986328125" lon="20.11103899218142032623291015625">
        <ele>1875.199951171875</ele>
        <time>2026-06-20T06:28:57.000Z</time>
        <extensions>
          <ns3:TrackPointExtension>
            <ns3:atemp>20.0</ns3:atemp>
          </ns3:TrackPointExtension>
        </extensions>
      </trkpt>
      <trkpt lat="42.54500049166381359100341796875" lon="20.1110601983964443206787109375">
        <ele>1875</ele>
        <time>2026-06-20T06:28:58.000Z</time>
        <extensions>
          <ns3:TrackPointExtension>
            <ns3:atemp>20.0</ns3:atemp>
          </ns3:TrackPointExtension>
        </extensions>
      </trkpt>
      <trkpt lat="42.5449816323816776275634765625" lon="20.11109095998108386993408203125">
        <ele>1874.800048828125</ele>
        <time>2026-06-20T06:28:59.000Z</time>
        <extensions>
          <ns3:TrackPointExtension>
            <ns3:atemp>20.0</ns3:atemp>
          </ns3:TrackPointExtension>
        </extensions>
      </trkpt>
      <trkpt lat="42.5449608452618122100830078125" lon="20.1111225597560405731201171875">
        <ele>1874.5999755859375</ele>
        <time>2026-06-20T06:29:00.000Z</time>
        <extensions>
          <ns3:TrackPointExtension>
            <ns3:atemp>20.0</ns3:atemp>
          </ns3:TrackPointExtension>
        </extensions>
      </trkpt>
      <trkpt lat="42.54493092186748981475830078125" lon="20.1111567579209804534912109375">
        <ele>1874.5999755859375</ele>
        <time>2026-06-20T06:29:01.000Z</time>
        <extensions>
          <ns3:TrackPointExtension>
            <ns3:atemp>20.0</ns3:atemp>
          </ns3:TrackPointExtension>
        </extensions>
      </trkpt>
      <trkpt lat="42.544902004301548004150390625" lon="20.11119087226688861846923828125">
        <ele>1874.4000244140625</ele>
        <time>2026-06-20T06:29:02.000Z</time>
        <extensions>
          <ns3:TrackPointExtension>
            <ns3:atemp>20.0</ns3:atemp>
          </ns3:TrackPointExtension>
        </extensions>
      </trkpt>
      <trkpt lat="42.54487409256398677825927734375" lon="20.1112241484224796295166015625">
        <ele>1874.199951171875</ele>
        <time>2026-06-20T06:29:03.000Z</time>
        <extensions>
          <ns3:TrackPointExtension>
            <ns3:atemp>20.0</ns3:atemp>
          </ns3:TrackPointExtension>
        </extensions>
      </trkpt>
      <trkpt lat="42.544851042330265045166015625" lon="20.1112543232738971710205078125">
        <ele>1874</ele>
        <time>2026-06-20T06:29:04.000Z</time>
        <extensions>
          <ns3:TrackPointExtension>
            <ns3:atemp>20.0</ns3:atemp>
          </ns3:TrackPointExtension>
        </extensions>
      </trkpt>
      <trkpt lat="42.54482916556298732757568359375" lon="20.11127754114568233489990234375">
        <ele>1874</ele>
        <time>2026-06-20T06:29:05.000Z</time>
        <extensions>
          <ns3:TrackPointExtension>
            <ns3:atemp>20.0</ns3:atemp>
          </ns3:TrackPointExtension>
        </extensions>
      </trkpt>
      <trkpt lat="42.5448109768331050872802734375" lon="20.11129950173199176788330078125">
        <ele>1873.800048828125</ele>
        <time>2026-06-20T06:29:06.000Z</time>
        <extensions>
          <ns3:TrackPointExtension>
            <ns3:atemp>20.0</ns3:atemp>
          </ns3:TrackPointExtension>
        </extensions>
      </trkpt>
      <trkpt lat="42.544791363179683685302734375" lon="20.11131785809993743896484375">
        <ele>1873.800048828125</ele>
        <time>2026-06-20T06:29:07.000Z</time>
        <extensions>
          <ns3:TrackPointExtension>
            <ns3:atemp>20.0</ns3:atemp>
          </ns3:TrackPointExtension>
        </extensions>
      </trkpt>
      <trkpt lat="42.54476814530789852142333984375" lon="20.1113381423056125640869140625">
        <ele>1873.800048828125</ele>
        <time>2026-06-20T06:29:08.000Z</time>
        <extensions>
          <ns3:TrackPointExtension>
            <ns3:atemp>20.0</ns3:atemp>
          </ns3:TrackPointExtension>
        </extensions>
      </trkpt>
      <trkpt lat="42.5447474420070648193359375" lon="20.11136186309158802032470703125">
        <ele>1873.800048828125</ele>
        <time>2026-06-20T06:29:09.000Z</time>
        <extensions>
          <ns3:TrackPointExtension>
            <ns3:atemp>20.0</ns3:atemp>
          </ns3:TrackPointExtension>
        </extensions>
      </trkpt>
      <trkpt lat="42.5447231344878673553466796875" lon="20.11138089001178741455078125">
        <ele>1874</ele>
        <time>2026-06-20T06:29:10.000Z</time>
        <extensions>
          <ns3:TrackPointExtension>
            <ns3:atemp>20.0</ns3:atemp>
          </ns3:TrackPointExtension>
        </extensions>
      </trkpt>
      <trkpt lat="42.54469706676900386810302734375" lon="20.11139572598040103912353515625">
        <ele>1874</ele>
        <time>2026-06-20T06:29:11.000Z</time>
        <extensions>
          <ns3:TrackPointExtension>
            <ns3:atemp>20.0</ns3:atemp>
          </ns3:TrackPointExtension>
        </extensions>
      </trkpt>
      <trkpt lat="42.5446704961359500885009765625" lon="20.1114005036652088165283203125">
        <ele>1874</ele>
        <time>2026-06-20T06:29:12.000Z</time>
        <extensions>
          <ns3:TrackPointExtension>
            <ns3:atemp>20.0</ns3:atemp>
          </ns3:TrackPointExtension>
        </extensions>
      </trkpt>
      <trkpt lat="42.54465582780539989471435546875" lon="20.11141433380544185638427734375">
        <ele>1874</ele>
        <time>2026-06-20T06:29:13.000Z</time>
        <extensions>
          <ns3:TrackPointExtension>
            <ns3:atemp>20.0</ns3:atemp>
          </ns3:TrackPointExtension>
        </extensions>
      </trkpt>
      <trkpt lat="42.54463939927518367767333984375" lon="20.11143319308757781982421875">
        <ele>1874.199951171875</ele>
        <time>2026-06-20T06:29:14.000Z</time>
        <extensions>
          <ns3:TrackPointExtension>
            <ns3:atemp>20.0</ns3:atemp>
          </ns3:TrackPointExtension>
        </extensions>
      </trkpt>
      <trkpt lat="42.54461492411792278289794921875" lon="20.11145054362714290618896484375">
        <ele>1874.199951171875</ele>
        <time>2026-06-20T06:29:15.000Z</time>
        <extensions>
          <ns3:TrackPointExtension>
            <ns3:atemp>20.0</ns3:atemp>
          </ns3:TrackPointExtension>
        </extensions>
      </trkpt>
      <trkpt lat="42.54458676092326641082763671875" lon="20.11147183366119861602783203125">
        <ele>1874</ele>
        <time>2026-06-20T06:29:16.000Z</time>
        <extensions>
          <ns3:TrackPointExtension>
            <ns3:atemp>20.0</ns3:atemp>
          </ns3:TrackPointExtension>
        </extensions>
      </trkpt>
      <trkpt lat="42.5445543229579925537109375" lon="20.11148926801979541778564453125">
        <ele>1874</ele>
        <time>2026-06-20T06:29:17.000Z</time>
        <extensions>
          <ns3:TrackPointExtension>
            <ns3:atemp>20.0</ns3:atemp>
          </ns3:TrackPointExtension>
        </extensions>
      </trkpt>
      <trkpt lat="42.5445303507149219512939453125" lon="20.11150636710226535797119140625">
        <ele>1873.800048828125</ele>
        <time>2026-06-20T06:29:18.000Z</time>
        <extensions>
          <ns3:TrackPointExtension>
            <ns3:atemp>20.0</ns3:atemp>
          </ns3:TrackPointExtension>
        </extensions>
      </trkpt>
      <trkpt lat="42.54450730048120021820068359375" lon="20.11152765713632106781005859375">
        <ele>1873.800048828125</ele>
        <time>2026-06-20T06:29:19.000Z</time>
        <extensions>
          <ns3:TrackPointExtension>
            <ns3:atemp>20.0</ns3:atemp>
          </ns3:TrackPointExtension>
        </extensions>
      </trkpt>
      <trkpt lat="42.544479556381702423095703125" lon="20.11155162937939167022705078125">
        <ele>1873.5999755859375</ele>
        <time>2026-06-20T06:29:20.000Z</time>
        <extensions>
          <ns3:TrackPointExtension>
            <ns3:atemp>20.0</ns3:atemp>
          </ns3:TrackPointExtension>
        </extensions>
      </trkpt>
      <trkpt lat="42.5444498844444751739501953125" lon="20.111572332680225372314453125">
        <ele>1873.5999755859375</ele>
        <time>2026-06-20T06:29:21.000Z</time>
        <extensions>
          <ns3:TrackPointExtension>
            <ns3:atemp>20.0</ns3:atemp>
          </ns3:TrackPointExtension>
        </extensions>
      </trkpt>
      <trkpt lat="42.5444233976304531097412109375" lon="20.11158985085785388946533203125">
        <ele>1873.5999755859375</ele>
        <time>2026-06-20T06:29:22.000Z</time>
        <extensions>
          <ns3:TrackPointExtension>
            <ns3:atemp>20.0</ns3:atemp>
          </ns3:TrackPointExtension>
        </extensions>
      </trkpt>
      <trkpt lat="42.5444002635776996612548828125" lon="20.11159479618072509765625">
        <ele>1873.5999755859375</ele>
        <time>2026-06-20T06:29:23.000Z</time>
        <extensions>
          <ns3:TrackPointExtension>
            <ns3:atemp>20.0</ns3:atemp>
          </ns3:TrackPointExtension>
        </extensions>
      </trkpt>
      <trkpt lat="42.54438324831426143646240234375" lon="20.11160619556903839111328125">
        <ele>1873.5999755859375</ele>
        <time>2026-06-20T06:29:24.000Z</time>
        <extensions>
          <ns3:TrackPointExtension>
            <ns3:atemp>20.0</ns3:atemp>
          </ns3:TrackPointExtension>
        </extensions>
      </trkpt>
      <trkpt lat="42.54436899907886981964111328125" lon="20.11162941344082355499267578125">
        <ele>1873.5999755859375</ele>
        <time>2026-06-20T06:29:25.000Z</time>
        <extensions>
          <ns3:TrackPointExtension>
            <ns3:atemp>20.0</ns3:atemp>
          </ns3:TrackPointExtension>
        </extensions>
      </trkpt>
      <trkpt lat="42.5443405844271183013916015625" lon="20.1116465963423252105712890625">
        <ele>1873.5999755859375</ele>
        <time>2026-06-20T06:29:26.000Z</time>
        <extensions>
          <ns3:TrackPointExtension>
            <ns3:atemp>20.0</ns3:atemp>
          </ns3:TrackPointExtension>
        </extensions>
      </trkpt>
      <trkpt lat="42.54430814646184444427490234375" lon="20.11166126467287540435791015625">
        <ele>1873.4000244140625</ele>
        <time>2026-06-20T06:29:27.000Z</time>
        <extensions>
          <ns3:TrackPointExtension>
            <ns3:atemp>20.0</ns3:atemp>
          </ns3:TrackPointExtension>
        </extensions>
      </trkpt>
      <trkpt lat="42.54428266547620296478271484375" lon="20.11167190968990325927734375">
        <ele>1873.199951171875</ele>
        <time>2026-06-20T06:29:28.000Z</time>
        <extensions>
          <ns3:TrackPointExtension>
            <ns3:atemp>20.0</ns3:atemp>
          </ns3:TrackPointExtension>
        </extensions>
      </trkpt>
      <trkpt lat="42.5442577712237834930419921875" lon="20.1116828061640262603759765625">
        <ele>1873</ele>
        <time>2026-06-20T06:29:29.000Z</time>
        <extensions>
          <ns3:TrackPointExtension>
            <ns3:atemp>20.0</ns3:atemp>
          </ns3:TrackPointExtension>
        </extensions>
      </trkpt>
      <trkpt lat="42.5442336313426494598388671875" lon="20.1116938702762126922607421875">
        <ele>1873</ele>
        <time>2026-06-20T06:29:30.000Z</time>
        <extensions>
          <ns3:TrackPointExtension>
            <ns3:atemp>20.0</ns3:atemp>
          </ns3:TrackPointExtension>
        </extensions>
      </trkpt>
      <trkpt lat="42.54420907236635684967041015625" lon="20.1117005757987499237060546875">
        <ele>1872.800048828125</ele>
        <time>2026-06-20T06:29:31.000Z</time>
        <extensions>
          <ns3:TrackPointExtension>
            <ns3:atemp>20.0</ns3:atemp>
          </ns3:TrackPointExtension>
        </extensions>
      </trkpt>
      <trkpt lat="42.54419021308422088623046875" lon="20.1117072813212871551513671875">
        <ele>1872.800048828125</ele>
        <time>2026-06-20T06:29:32.000Z</time>
        <extensions>
          <ns3:TrackPointExtension>
            <ns3:atemp>20.0</ns3:atemp>
          </ns3:TrackPointExtension>
        </extensions>
      </trkpt>
      <trkpt lat="42.5441752932965755462646484375" lon="20.11170753277838230133056640625">
        <ele>1872.5999755859375</ele>
        <time>2026-06-20T06:29:33.000Z</time>
        <extensions>
          <ns3:TrackPointExtension>
            <ns3:atemp>20.0</ns3:atemp>
          </ns3:TrackPointExtension>
        </extensions>
      </trkpt>
      <trkpt lat="42.54415978677570819854736328125" lon="20.11170200072228908538818359375">
        <ele>1872.5999755859375</ele>
        <time>2026-06-20T06:29:34.000Z</time>
        <extensions>
          <ns3:TrackPointExtension>
            <ns3:atemp>20.0</ns3:atemp>
          </ns3:TrackPointExtension>
        </extensions>
      </trkpt>
      <trkpt lat="42.54414134658873081207275390625" lon="20.11170233599841594696044921875">
        <ele>1872.5999755859375</ele>
        <time>2026-06-20T06:29:35.000Z</time>
        <extensions>
          <ns3:TrackPointExtension>
            <ns3:atemp>20.0</ns3:atemp>
          </ns3:TrackPointExtension>
        </extensions>
      </trkpt>
      <trkpt lat="42.544120810925960540771484375" lon="20.1117022521793842315673828125">
        <ele>1872.5999755859375</ele>
        <time>2026-06-20T06:29:36.000Z</time>
        <extensions>
          <ns3:TrackPointExtension>
            <ns3:atemp>20.0</ns3:atemp>
          </ns3:TrackPointExtension>
        </extensions>
      </trkpt>
      <trkpt lat="42.544104047119617462158203125" lon="20.111706443130970001220703125">
        <ele>1872.800048828125</ele>
        <time>2026-06-20T06:29:37.000Z</time>
        <extensions>
          <ns3:TrackPointExtension>
            <ns3:atemp>20.0</ns3:atemp>
          </ns3:TrackPointExtension>
        </extensions>
      </trkpt>
      <trkpt lat="42.54408518783748149871826171875" lon="20.111719854176044464111328125">
        <ele>1872.5999755859375</ele>
        <time>2026-06-20T06:29:38.000Z</time>
        <extensions>
          <ns3:TrackPointExtension>
            <ns3:atemp>20.0</ns3:atemp>
          </ns3:TrackPointExtension>
        </extensions>
      </trkpt>
      <trkpt lat="42.5440562702715396881103515625" lon="20.1117351092398166656494140625">
        <ele>1872.5999755859375</ele>
        <time>2026-06-20T06:29:39.000Z</time>
        <extensions>
          <ns3:TrackPointExtension>
            <ns3:atemp>20.0</ns3:atemp>
          </ns3:TrackPointExtension>
        </extensions>
      </trkpt>
      <trkpt lat="42.54401880316436290740966796875" lon="20.111746005713939666748046875">
        <ele>1872.4000244140625</ele>
        <time>2026-06-20T06:29:40.000Z</time>
        <extensions>
          <ns3:TrackPointExtension>
            <ns3:atemp>20.0</ns3:atemp>
          </ns3:TrackPointExtension>
        </extensions>
      </trkpt>
      <trkpt lat="42.543984688818454742431640625" lon="20.1117589138448238372802734375">
        <ele>1872.199951171875</ele>
        <time>2026-06-20T06:29:41.000Z</time>
        <extensions>
          <ns3:TrackPointExtension>
            <ns3:atemp>20.0</ns3:atemp>
          </ns3:TrackPointExtension>
        </extensions>
      </trkpt>
      <trkpt lat="42.5439513288438320159912109375" lon="20.1117709837853908538818359375">
        <ele>1871.800048828125</ele>
        <time>2026-06-20T06:29:42.000Z</time>
        <extensions>
          <ns3:TrackPointExtension>
            <ns3:atemp>20.0</ns3:atemp>
          </ns3:TrackPointExtension>
        </extensions>
      </trkpt>
      <trkpt lat="42.5439251773059368133544921875" lon="20.111779868602752685546875">
        <ele>1871.800048828125</ele>
        <time>2026-06-20T06:29:43.000Z</time>
        <extensions>
          <ns3:TrackPointExtension>
            <ns3:atemp>20.0</ns3:atemp>
          </ns3:TrackPointExtension>
        </extensions>
      </trkpt>
      <trkpt lat="42.5439010374248027801513671875" lon="20.11178581975400447845458984375">
        <ele>1871.5999755859375</ele>
        <time>2026-06-20T06:29:44.000Z</time>
        <extensions>
          <ns3:TrackPointExtension>
            <ns3:atemp>20.0</ns3:atemp>
          </ns3:TrackPointExtension>
        </extensions>
      </trkpt>
      <trkpt lat="42.54388083703815937042236328125" lon="20.11178850196301937103271484375">
        <ele>1871.800048828125</ele>
        <time>2026-06-20T06:29:45.000Z</time>
        <extensions>
          <ns3:TrackPointExtension>
            <ns3:atemp>20.0</ns3:atemp>
          </ns3:TrackPointExtension>
        </extensions>
      </trkpt>
      <trkpt lat="42.54386440850794315338134765625" lon="20.11179319582879543304443359375">
        <ele>1871.800048828125</ele>
        <time>2026-06-20T06:29:46.000Z</time>
        <extensions>
          <ns3:TrackPointExtension>
            <ns3:atemp>20.0</ns3:atemp>
          </ns3:TrackPointExtension>
        </extensions>
      </trkpt>
      <trkpt lat="42.5438443757593631744384765625" lon="20.111796967685222625732421875">
        <ele>1872</ele>
        <time>2026-06-20T06:29:47.000Z</time>
        <extensions>
          <ns3:TrackPointExtension>
            <ns3:atemp>20.0</ns3:atemp>
          </ns3:TrackPointExtension>
        </extensions>
      </trkpt>
      <trkpt lat="42.54382853396236896514892578125" lon="20.11179864406585693359375">
        <ele>1872.199951171875</ele>
        <time>2026-06-20T06:29:48.000Z</time>
        <extensions>
          <ns3:TrackPointExtension>
            <ns3:atemp>20.0</ns3:atemp>
          </ns3:TrackPointExtension>
        </extensions>
      </trkpt>
      <trkpt lat="42.54380808211863040924072265625" lon="20.1117961294949054718017578125">
        <ele>1872.4000244140625</ele>
        <time>2026-06-20T06:29:49.000Z</time>
        <extensions>
          <ns3:TrackPointExtension>
            <ns3:atemp>20.0</ns3:atemp>
          </ns3:TrackPointExtension>
        </extensions>
      </trkpt>
      <trkpt lat="42.54378276877105236053466796875" lon="20.11178732849657535552978515625">
        <ele>1872.5999755859375</ele>
        <time>2026-06-20T06:29:50.000Z</time>
        <extensions>
          <ns3:TrackPointExtension>
            <ns3:atemp>20.0</ns3:atemp>
          </ns3:TrackPointExtension>
        </extensions>
      </trkpt>
      <trkpt lat="42.54376281984150409698486328125" lon="20.1117817126214504241943359375">
        <ele>1872.800048828125</ele>
        <time>2026-06-20T06:29:51.000Z</time>
        <extensions>
          <ns3:TrackPointExtension>
            <ns3:atemp>20.0</ns3:atemp>
          </ns3:TrackPointExtension>
        </extensions>
      </trkpt>
      <trkpt lat="42.54373784177005290985107421875" lon="20.1117810420691967010498046875">
        <ele>1873</ele>
        <time>2026-06-20T06:29:52.000Z</time>
        <extensions>
          <ns3:TrackPointExtension>
            <ns3:atemp>20.0</ns3:atemp>
          </ns3:TrackPointExtension>
        </extensions>
      </trkpt>
      <trkpt lat="42.54371487535536289215087890625" lon="20.1117810420691967010498046875">
        <ele>1873</ele>
        <time>2026-06-20T06:29:53.000Z</time>
        <extensions>
          <ns3:TrackPointExtension>
            <ns3:atemp>20.0</ns3:atemp>
          </ns3:TrackPointExtension>
        </extensions>
      </trkpt>
      <trkpt lat="42.5436958484351634979248046875" lon="20.1117911003530025482177734375">
        <ele>1873.199951171875</ele>
        <time>2026-06-20T06:29:54.000Z</time>
        <extensions>
          <ns3:TrackPointExtension>
            <ns3:atemp>20.0</ns3:atemp>
          </ns3:TrackPointExtension>
        </extensions>
      </trkpt>
      <trkpt lat="42.54368755035102367401123046875" lon="20.11180509813129901885986328125">
        <ele>1873.199951171875</ele>
        <time>2026-06-20T06:29:55.000Z</time>
        <extensions>
          <ns3:TrackPointExtension>
            <ns3:atemp>20.0</ns3:atemp>
          </ns3:TrackPointExtension>
        </extensions>
      </trkpt>
      <trkpt lat="42.54367631860077381134033203125" lon="20.11182873509824275970458984375">
        <ele>1873.4000244140625</ele>
        <time>2026-06-20T06:29:56.000Z</time>
        <extensions>
          <ns3:TrackPointExtension>
            <ns3:atemp>20.0</ns3:atemp>
          </ns3:TrackPointExtension>
        </extensions>
      </trkpt>
      <trkpt lat="42.5436727143824100494384765625" lon="20.11184717528522014617919921875">
        <ele>1873.4000244140625</ele>
        <time>2026-06-20T06:29:57.000Z</time>
        <extensions>
          <ns3:TrackPointExtension>
            <ns3:atemp>20.0</ns3:atemp>
          </ns3:TrackPointExtension>
        </extensions>
      </trkpt>
      <trkpt lat="42.54366978071630001068115234375" lon="20.11186544783413410186767578125">
        <ele>1873.4000244140625</ele>
        <time>2026-06-20T06:29:58.000Z</time>
        <extensions>
          <ns3:TrackPointExtension>
            <ns3:atemp>20.0</ns3:atemp>
          </ns3:TrackPointExtension>
        </extensions>
      </trkpt>
      <trkpt lat="42.5436552800238132476806640625" lon="20.11188690550625324249267578125">
        <ele>1873.4000244140625</ele>
        <time>2026-06-20T06:29:59.000Z</time>
        <extensions>
          <ns3:TrackPointExtension>
            <ns3:atemp>20.0</ns3:atemp>
          </ns3:TrackPointExtension>
        </extensions>
      </trkpt>
      <trkpt lat="42.54363876767456531524658203125" lon="20.1119061000645160675048828125">
        <ele>1873.199951171875</ele>
        <time>2026-06-20T06:30:00.000Z</time>
        <extensions>
          <ns3:TrackPointExtension>
            <ns3:atemp>20.0</ns3:atemp>
          </ns3:TrackPointExtension>
        </extensions>
      </trkpt>
      <trkpt lat="42.5436209142208099365234375" lon="20.11193518526852130889892578125">
        <ele>1873</ele>
        <time>2026-06-20T06:30:01.000Z</time>
        <extensions>
          <ns3:TrackPointExtension>
            <ns3:atemp>20.0</ns3:atemp>
          </ns3:TrackPointExtension>
        </extensions>
      </trkpt>
      <trkpt lat="42.54359551705420017242431640625" lon="20.11196653358638286590576171875">
        <ele>1872.5999755859375</ele>
        <time>2026-06-20T06:30:02.000Z</time>
        <extensions>
          <ns3:TrackPointExtension>
            <ns3:atemp>20.0</ns3:atemp>
          </ns3:TrackPointExtension>
        </extensions>
      </trkpt>
      <trkpt lat="42.5435640849173069000244140625" lon="20.11199167929589748382568359375">
        <ele>1872</ele>
        <time>2026-06-20T06:30:03.000Z</time>
        <extensions>
          <ns3:TrackPointExtension>
            <ns3:atemp>20.0</ns3:atemp>
          </ns3:TrackPointExtension>
        </extensions>
      </trkpt>
      <trkpt lat="42.5435359217226505279541015625" lon="20.1120143942534923553466796875">
        <ele>1871.4000244140625</ele>
        <time>2026-06-20T06:30:04.000Z</time>
        <extensions>
          <ns3:TrackPointExtension>
            <ns3:atemp>20.0</ns3:atemp>
          </ns3:TrackPointExtension>
        </extensions>
      </trkpt>
      <trkpt lat="42.54351270385086536407470703125" lon="20.112037025392055511474609375">
        <ele>1871.199951171875</ele>
        <time>2026-06-20T06:30:05.000Z</time>
        <extensions>
          <ns3:TrackPointExtension>
            <ns3:atemp>20.0</ns3:atemp>
          </ns3:TrackPointExtension>
        </extensions>
      </trkpt>
      <trkpt lat="42.54349359311163425445556640625" lon="20.1120601594448089599609375">
        <ele>1871</ele>
        <time>2026-06-20T06:30:06.000Z</time>
        <extensions>
          <ns3:TrackPointExtension>
            <ns3:atemp>20.0</ns3:atemp>
          </ns3:TrackPointExtension>
        </extensions>
      </trkpt>
      <trkpt lat="42.54347012378275394439697265625" lon="20.11208388023078441619873046875">
        <ele>1870.800048828125</ele>
        <time>2026-06-20T06:30:07.000Z</time>
        <extensions>
          <ns3:TrackPointExtension>
            <ns3:atemp>20.0</ns3:atemp>
          </ns3:TrackPointExtension>
        </extensions>
      </trkpt>
      <trkpt lat="42.543448247015476226806640625" lon="20.1121042482554912567138671875">
        <ele>1870.4000244140625</ele>
        <time>2026-06-20T06:30:08.000Z</time>
        <extensions>
          <ns3:TrackPointExtension>
            <ns3:atemp>20.0</ns3:atemp>
          </ns3:TrackPointExtension>
        </extensions>
      </trkpt>
      <trkpt lat="42.54341983236372470855712890625" lon="20.11212696321308612823486328125">
        <ele>1870.199951171875</ele>
        <time>2026-06-20T06:30:09.000Z</time>
        <extensions>
          <ns3:TrackPointExtension>
            <ns3:atemp>20.0</ns3:atemp>
          </ns3:TrackPointExtension>
        </extensions>
      </trkpt>
      <trkpt lat="42.54340834915637969970703125" lon="20.11213769204914569854736328125">
        <ele>1869.800048828125</ele>
        <time>2026-06-20T06:30:10.000Z</time>
        <extensions>
          <ns3:TrackPointExtension>
            <ns3:atemp>20.0</ns3:atemp>
          </ns3:TrackPointExtension>
        </extensions>
      </trkpt>
      <trkpt lat="42.5434071756899356842041015625" lon="20.11213702149689197540283203125">
        <ele>1869.800048828125</ele>
        <time>2026-06-20T06:30:11.000Z</time>
        <extensions>
          <ns3:TrackPointExtension>
            <ns3:atemp>20.0</ns3:atemp>
          </ns3:TrackPointExtension>
        </extensions>
      </trkpt>
      <trkpt lat="42.5434071756899356842041015625" lon="20.11213702149689197540283203125">
        <ele>1869.5999755859375</ele>
        <time>2026-06-20T06:30:12.000Z</time>
        <extensions>
          <ns3:TrackPointExtension>
            <ns3:atemp>20.0</ns3:atemp>
          </ns3:TrackPointExtension>
        </extensions>
      </trkpt>
      <trkpt lat="42.5434071756899356842041015625" lon="20.11213702149689197540283203125">
        <ele>1869.5999755859375</ele>
        <time>2026-06-20T06:30:13.000Z</time>
        <extensions>
          <ns3:TrackPointExtension>
            <ns3:atemp>20.0</ns3:atemp>
          </ns3:TrackPointExtension>
        </extensions>
      </trkpt>
      <trkpt lat="42.5434071756899356842041015625" lon="20.11213702149689197540283203125">
        <ele>1869.800048828125</ele>
        <time>2026-06-20T06:30:14.000Z</time>
        <extensions>
          <ns3:TrackPointExtension>
            <ns3:atemp>20.0</ns3:atemp>
          </ns3:TrackPointExtension>
        </extensions>
      </trkpt>
      <trkpt lat="42.5434071756899356842041015625" lon="20.11213702149689197540283203125">
        <ele>1869.800048828125</ele>
        <time>2026-06-20T06:30:15.000Z</time>
        <extensions>
          <ns3:TrackPointExtension>
            <ns3:atemp>20.0</ns3:atemp>
          </ns3:TrackPointExtension>
        </extensions>
      </trkpt>
      <trkpt lat="42.5434071756899356842041015625" lon="20.11213702149689197540283203125">
        <ele>1869.800048828125</ele>
        <time>2026-06-20T06:30:16.000Z</time>
        <extensions>
          <ns3:TrackPointExtension>
            <ns3:atemp>20.0</ns3:atemp>
          </ns3:TrackPointExtension>
        </extensions>
      </trkpt>
      <trkpt lat="42.5434071756899356842041015625" lon="20.11213702149689197540283203125">
        <ele>1869.5999755859375</ele>
        <time>2026-06-20T06:30:17.000Z</time>
        <extensions>
          <ns3:TrackPointExtension>
            <ns3:atemp>20.0</ns3:atemp>
          </ns3:TrackPointExtension>
        </extensions>
      </trkpt>
      <trkpt lat="42.5434071756899356842041015625" lon="20.11213702149689197540283203125">
        <ele>1869.5999755859375</ele>
        <time>2026-06-20T06:30:18.000Z</time>
        <extensions>
          <ns3:TrackPointExtension>
            <ns3:atemp>20.0</ns3:atemp>
          </ns3:TrackPointExtension>
        </extensions>
      </trkpt>
      <trkpt lat="42.5434071756899356842041015625" lon="20.11213702149689197540283203125">
        <ele>1869.5999755859375</ele>
        <time>2026-06-20T06:30:19.000Z</time>
        <extensions>
          <ns3:TrackPointExtension>
            <ns3:atemp>20.0</ns3:atemp>
          </ns3:TrackPointExtension>
        </extensions>
      </trkpt>
      <trkpt lat="42.5434071756899356842041015625" lon="20.11213702149689197540283203125">
        <ele>1869.4000244140625</ele>
        <time>2026-06-20T06:30:20.000Z</time>
        <extensions>
          <ns3:TrackPointExtension>
            <ns3:atemp>20.0</ns3:atemp>
          </ns3:TrackPointExtension>
        </extensions>
      </trkpt>
      <trkpt lat="42.5434071756899356842041015625" lon="20.11213702149689197540283203125">
        <ele>1869.4000244140625</ele>
        <time>2026-06-20T06:30:21.000Z</time>
        <extensions>
          <ns3:TrackPointExtension>
            <ns3:atemp>20.0</ns3:atemp>
          </ns3:TrackPointExtension>
        </extensions>
      </trkpt>
      <trkpt lat="42.5434071756899356842041015625" lon="20.11213702149689197540283203125">
        <ele>1869.4000244140625</ele>
        <time>2026-06-20T06:30:22.000Z</time>
        <extensions>
          <ns3:TrackPointExtension>
            <ns3:atemp>20.0</ns3:atemp>
          </ns3:TrackPointExtension>
        </extensions>
      </trkpt>
      <trkpt lat="42.5434071756899356842041015625" lon="20.11213702149689197540283203125">
        <ele>1869.4000244140625</ele>
        <time>2026-06-20T06:30:23.000Z</time>
        <extensions>
          <ns3:TrackPointExtension>
            <ns3:atemp>20.0</ns3:atemp>
          </ns3:TrackPointExtension>
        </extensions>
      </trkpt>
      <trkpt lat="42.5434071756899356842041015625" lon="20.11213702149689197540283203125">
        <ele>1869.4000244140625</ele>
        <time>2026-06-20T06:30:24.000Z</time>
        <extensions>
          <ns3:TrackPointExtension>
            <ns3:atemp>20.0</ns3:atemp>
          </ns3:TrackPointExtension>
        </extensions>
      </trkpt>
      <trkpt lat="42.5434071756899356842041015625" lon="20.11213702149689197540283203125">
        <ele>1869.4000244140625</ele>
        <time>2026-06-20T06:30:25.000Z</time>
        <extensions>
          <ns3:TrackPointExtension>
            <ns3:atemp>20.0</ns3:atemp>
          </ns3:TrackPointExtension>
        </extensions>
      </trkpt>
      <trkpt lat="42.54340759478509426116943359375" lon="20.1121377758681774139404296875">
        <ele>1869.4000244140625</ele>
        <time>2026-06-20T06:30:26.000Z</time>
        <extensions>
          <ns3:TrackPointExtension>
            <ns3:atemp>20.0</ns3:atemp>
          </ns3:TrackPointExtension>
        </extensions>
      </trkpt>
      <trkpt lat="42.54340223036706447601318359375" lon="20.11215814389288425445556640625">
        <ele>1869.4000244140625</ele>
        <time>2026-06-20T06:30:27.000Z</time>
        <extensions>
          <ns3:TrackPointExtension>
            <ns3:atemp>20.0</ns3:atemp>
          </ns3:TrackPointExtension>
        </extensions>
      </trkpt>
      <trkpt lat="42.5433920882642269134521484375" lon="20.11217792518436908721923828125">
        <ele>1869.4000244140625</ele>
        <time>2026-06-20T06:30:28.000Z</time>
        <extensions>
          <ns3:TrackPointExtension>
            <ns3:atemp>20.0</ns3:atemp>
          </ns3:TrackPointExtension>
        </extensions>
      </trkpt>
      <trkpt lat="42.54337348043918609619140625" lon="20.1121971197426319122314453125">
        <ele>1869.199951171875</ele>
        <time>2026-06-20T06:30:29.000Z</time>
        <extensions>
          <ns3:TrackPointExtension>
            <ns3:atemp>20.0</ns3:atemp>
          </ns3:TrackPointExtension>
        </extensions>
      </trkpt>
      <trkpt lat="42.54335143603384494781494140625" lon="20.1122182421386241912841796875">
        <ele>1869</ele>
        <time>2026-06-20T06:30:30.000Z</time>
        <extensions>
          <ns3:TrackPointExtension>
            <ns3:atemp>21.0</ns3:atemp>
          </ns3:TrackPointExtension>
        </extensions>
      </trkpt>
      <trkpt lat="42.5433310680091381072998046875" lon="20.11224053800106048583984375">
        <ele>1869</ele>
        <time>2026-06-20T06:30:31.000Z</time>
        <extensions>
          <ns3:TrackPointExtension>
            <ns3:atemp>21.0</ns3:atemp>
          </ns3:TrackPointExtension>
        </extensions>
      </trkpt>
      <trkpt lat="42.54331472329795360565185546875" lon="20.11226040311157703399658203125">
        <ele>1869</ele>
        <time>2026-06-20T06:30:32.000Z</time>
        <extensions>
          <ns3:TrackPointExtension>
            <ns3:atemp>21.0</ns3:atemp>
          </ns3:TrackPointExtension>
        </extensions>
      </trkpt>
      <trkpt lat="42.54329997114837169647216796875" lon="20.11228554882109165191650390625">
        <ele>1868.800048828125</ele>
        <time>2026-06-20T06:30:33.000Z</time>
        <extensions>
          <ns3:TrackPointExtension>
            <ns3:atemp>21.0</ns3:atemp>
          </ns3:TrackPointExtension>
        </extensions>
      </trkpt>
      <trkpt lat="42.543286643922328948974609375" lon="20.11230750940740108489990234375">
        <ele>1869</ele>
        <time>2026-06-20T06:30:34.000Z</time>
        <extensions>
          <ns3:TrackPointExtension>
            <ns3:atemp>21.0</ns3:atemp>
          </ns3:TrackPointExtension>
        </extensions>
      </trkpt>
      <trkpt lat="42.54327532835304737091064453125" lon="20.11232913471758365631103515625">
        <ele>1869.199951171875</ele>
        <time>2026-06-20T06:30:35.000Z</time>
        <extensions>
          <ns3:TrackPointExtension>
            <ns3:atemp>21.0</ns3:atemp>
          </ns3:TrackPointExtension>
        </extensions>
      </trkpt>
      <trkpt lat="42.54325906746089458465576171875" lon="20.112356208264827728271484375">
        <ele>1869.199951171875</ele>
        <time>2026-06-20T06:30:36.000Z</time>
        <extensions>
          <ns3:TrackPointExtension>
            <ns3:atemp>21.0</ns3:atemp>
          </ns3:TrackPointExtension>
        </extensions>
      </trkpt>
      <trkpt lat="42.54324364475905895233154296875" lon="20.112381689250469207763671875">
        <ele>1869.4000244140625</ele>
        <time>2026-06-20T06:30:37.000Z</time>
        <extensions>
          <ns3:TrackPointExtension>
            <ns3:atemp>21.0</ns3:atemp>
          </ns3:TrackPointExtension>
        </extensions>
      </trkpt>
      <trkpt lat="42.54322704859077930450439453125" lon="20.11239610612392425537109375">
        <ele>1869.5999755859375</ele>
        <time>2026-06-20T06:30:38.000Z</time>
        <extensions>
          <ns3:TrackPointExtension>
            <ns3:atemp>21.0</ns3:atemp>
          </ns3:TrackPointExtension>
        </extensions>
      </trkpt>
      <trkpt lat="42.5432086922228336334228515625" lon="20.112411864101886749267578125">
        <ele>1870</ele>
        <time>2026-06-20T06:30:39.000Z</time>
        <extensions>
          <ns3:TrackPointExtension>
            <ns3:atemp>21.0</ns3:atemp>
          </ns3:TrackPointExtension>
        </extensions>
      </trkpt>
      <trkpt lat="42.54319737665355205535888671875" lon="20.1124334894120693206787109375">
        <ele>1870.199951171875</ele>
        <time>2026-06-20T06:30:40.000Z</time>
        <extensions>
          <ns3:TrackPointExtension>
            <ns3:atemp>21.0</ns3:atemp>
          </ns3:TrackPointExtension>
        </extensions>
      </trkpt>
      <trkpt lat="42.543196119368076324462890625" lon="20.11245771311223506927490234375">
        <ele>1870.4000244140625</ele>
        <time>2026-06-20T06:30:41.000Z</time>
        <extensions>
          <ns3:TrackPointExtension>
            <ns3:atemp>20.0</ns3:atemp>
          </ns3:TrackPointExtension>
        </extensions>
      </trkpt>
      <trkpt lat="42.54319905303418636322021484375" lon="20.1124812662601470947265625">
        <ele>1870.5999755859375</ele>
        <time>2026-06-20T06:30:42.000Z</time>
        <extensions>
          <ns3:TrackPointExtension>
            <ns3:atemp>20.0</ns3:atemp>
          </ns3:TrackPointExtension>
        </extensions>
      </trkpt>
      <trkpt lat="42.54320106469094753265380859375" lon="20.11251085437834262847900390625">
        <ele>1870.5999755859375</ele>
        <time>2026-06-20T06:30:43.000Z</time>
        <extensions>
          <ns3:TrackPointExtension>
            <ns3:atemp>20.0</ns3:atemp>
          </ns3:TrackPointExtension>
        </extensions>
      </trkpt>
      <trkpt lat="42.54320391453802585601806640625" lon="20.1125474832952022552490234375">
        <ele>1870.5999755859375</ele>
        <time>2026-06-20T06:30:44.000Z</time>
        <extensions>
          <ns3:TrackPointExtension>
            <ns3:atemp>20.0</ns3:atemp>
          </ns3:TrackPointExtension>
        </extensions>
      </trkpt>
      <trkpt lat="42.5432056747376918792724609375" lon="20.11259031482040882110595703125">
        <ele>1870.5999755859375</ele>
        <time>2026-06-20T06:30:45.000Z</time>
        <extensions>
          <ns3:TrackPointExtension>
            <ns3:atemp>20.0</ns3:atemp>
          </ns3:TrackPointExtension>
        </extensions>
      </trkpt>
      <trkpt lat="42.54320944659411907196044921875" lon="20.11263323016464710235595703125">
        <ele>1870.800048828125</ele>
        <time>2026-06-20T06:30:46.000Z</time>
        <extensions>
          <ns3:TrackPointExtension>
            <ns3:atemp>21.0</ns3:atemp>
          </ns3:TrackPointExtension>
        </extensions>
      </trkpt>
      <trkpt lat="42.54321145825088024139404296875" lon="20.1126765646040439605712890625">
        <ele>1870.800048828125</ele>
        <time>2026-06-20T06:30:47.000Z</time>
        <extensions>
          <ns3:TrackPointExtension>
            <ns3:atemp>21.0</ns3:atemp>
          </ns3:TrackPointExtension>
        </extensions>
      </trkpt>
      <trkpt lat="42.54321062006056308746337890625" lon="20.11271805502474308013916015625">
        <ele>1871</ele>
        <time>2026-06-20T06:30:48.000Z</time>
        <extensions>
          <ns3:TrackPointExtension>
            <ns3:atemp>21.0</ns3:atemp>
          </ns3:TrackPointExtension>
        </extensions>
      </trkpt>
      <trkpt lat="42.54320374689996242523193359375" lon="20.11275577358901500701904296875">
        <ele>1871.199951171875</ele>
        <time>2026-06-20T06:30:49.000Z</time>
        <extensions>
          <ns3:TrackPointExtension>
            <ns3:atemp>21.0</ns3:atemp>
          </ns3:TrackPointExtension>
        </extensions>
      </trkpt>
      <trkpt lat="42.543196119368076324462890625" lon="20.11279642581939697265625">
        <ele>1871.4000244140625</ele>
        <time>2026-06-20T06:30:50.000Z</time>
        <extensions>
          <ns3:TrackPointExtension>
            <ns3:atemp>21.0</ns3:atemp>
          </ns3:TrackPointExtension>
        </extensions>
      </trkpt>
      <trkpt lat="42.54319469444453716278076171875" lon="20.11283221654593944549560546875">
        <ele>1871.800048828125</ele>
        <time>2026-06-20T06:30:51.000Z</time>
        <extensions>
          <ns3:TrackPointExtension>
            <ns3:atemp>21.0</ns3:atemp>
          </ns3:TrackPointExtension>
        </extensions>
      </trkpt>
      <trkpt lat="42.54319402389228343963623046875" lon="20.1128589548170566558837890625">
        <ele>1872.199951171875</ele>
        <time>2026-06-20T06:30:52.000Z</time>
        <extensions>
          <ns3:TrackPointExtension>
            <ns3:atemp>21.0</ns3:atemp>
          </ns3:TrackPointExtension>
        </extensions>
      </trkpt>
      <trkpt lat="42.54319754429161548614501953125" lon="20.11288083158433437347412109375">
        <ele>1872.5999755859375</ele>
        <time>2026-06-20T06:30:53.000Z</time>
        <extensions>
          <ns3:TrackPointExtension>
            <ns3:atemp>21.0</ns3:atemp>
          </ns3:TrackPointExtension>
        </extensions>
      </trkpt>
      <trkpt lat="42.5431996397674083709716796875" lon="20.11291251517832279205322265625">
        <ele>1873</ele>
        <time>2026-06-20T06:30:54.000Z</time>
        <extensions>
          <ns3:TrackPointExtension>
            <ns3:atemp>21.0</ns3:atemp>
          </ns3:TrackPointExtension>
        </extensions>
      </trkpt>
      <trkpt lat="42.54320391453802585601806640625" lon="20.1129444502294063568115234375">
        <ele>1873.199951171875</ele>
        <time>2026-06-20T06:30:55.000Z</time>
        <extensions>
          <ns3:TrackPointExtension>
            <ns3:atemp>21.0</ns3:atemp>
          </ns3:TrackPointExtension>
        </extensions>
      </trkpt>
      <trkpt lat="42.54320559091866016387939453125" lon="20.11296532116830348968505859375">
        <ele>1873.5999755859375</ele>
        <time>2026-06-20T06:30:56.000Z</time>
        <extensions>
          <ns3:TrackPointExtension>
            <ns3:atemp>21.0</ns3:atemp>
          </ns3:TrackPointExtension>
        </extensions>
      </trkpt>
      <trkpt lat="42.54320726729929447174072265625" lon="20.11298862285912036895751953125">
        <ele>1873.800048828125</ele>
        <time>2026-06-20T06:30:57.000Z</time>
        <extensions>
          <ns3:TrackPointExtension>
            <ns3:atemp>21.0</ns3:atemp>
          </ns3:TrackPointExtension>
        </extensions>
      </trkpt>
      <trkpt lat="42.54320584237575531005859375" lon="20.11301326565444469451904296875">
        <ele>1874</ele>
        <time>2026-06-20T06:30:58.000Z</time>
        <extensions>
          <ns3:TrackPointExtension>
            <ns3:atemp>21.0</ns3:atemp>
          </ns3:TrackPointExtension>
        </extensions>
      </trkpt>
      <trkpt lat="42.543203830718994140625" lon="20.11303891427814960479736328125">
        <ele>1874.199951171875</ele>
        <time>2026-06-20T06:30:59.000Z</time>
        <extensions>
          <ns3:TrackPointExtension>
            <ns3:atemp>21.0</ns3:atemp>
          </ns3:TrackPointExtension>
        </extensions>
      </trkpt>
      <trkpt lat="42.54320391453802585601806640625" lon="20.11306724511086940765380859375">
        <ele>1874.4000244140625</ele>
        <time>2026-06-20T06:31:00.000Z</time>
        <extensions>
          <ns3:TrackPointExtension>
            <ns3:atemp>21.0</ns3:atemp>
          </ns3:TrackPointExtension>
        </extensions>
      </trkpt>
      <trkpt lat="42.543206848204135894775390625" lon="20.11309490539133548736572265625">
        <ele>1874.5999755859375</ele>
        <time>2026-06-20T06:31:01.000Z</time>
        <extensions>
          <ns3:TrackPointExtension>
            <ns3:atemp>21.0</ns3:atemp>
          </ns3:TrackPointExtension>
        </extensions>
      </trkpt>
      <trkpt lat="42.54321229644119739532470703125" lon="20.11312357150018215179443359375">
        <ele>1874.800048828125</ele>
        <time>2026-06-20T06:31:02.000Z</time>
        <extensions>
          <ns3:TrackPointExtension>
            <ns3:atemp>21.0</ns3:atemp>
          </ns3:TrackPointExtension>
        </extensions>
      </trkpt>
      <trkpt lat="42.54321615211665630340576171875" lon="20.11314972303807735443115234375">
        <ele>1875</ele>
        <time>2026-06-20T06:31:03.000Z</time>
        <extensions>
          <ns3:TrackPointExtension>
            <ns3:atemp>21.0</ns3:atemp>
          </ns3:TrackPointExtension>
        </extensions>
      </trkpt>
      <trkpt lat="42.5432157330214977264404296875" lon="20.1131754554808139801025390625">
        <ele>1875</ele>
        <time>2026-06-20T06:31:04.000Z</time>
        <extensions>
          <ns3:TrackPointExtension>
            <ns3:atemp>21.0</ns3:atemp>
          </ns3:TrackPointExtension>
        </extensions>
      </trkpt>
      <trkpt lat="42.54321330226957798004150390625" lon="20.11319632641971111297607421875">
        <ele>1875.199951171875</ele>
        <time>2026-06-20T06:31:05.000Z</time>
        <extensions>
          <ns3:TrackPointExtension>
            <ns3:atemp>20.0</ns3:atemp>
          </ns3:TrackPointExtension>
        </extensions>
      </trkpt>
      <trkpt lat="42.543211877346038818359375" lon="20.1132116653025150299072265625">
        <ele>1875.4000244140625</ele>
        <time>2026-06-20T06:31:06.000Z</time>
        <extensions>
          <ns3:TrackPointExtension>
            <ns3:atemp>21.0</ns3:atemp>
          </ns3:TrackPointExtension>
        </extensions>
      </trkpt>
      <trkpt lat="42.54320827312767505645751953125" lon="20.11321258731186389923095703125">
        <ele>1875.5999755859375</ele>
        <time>2026-06-20T06:31:07.000Z</time>
        <extensions>
          <ns3:TrackPointExtension>
            <ns3:atemp>21.0</ns3:atemp>
          </ns3:TrackPointExtension>
        </extensions>
      </trkpt>
      <trkpt lat="42.54320827312767505645751953125" lon="20.11321258731186389923095703125">
        <ele>1875.800048828125</ele>
        <time>2026-06-20T06:31:08.000Z</time>
        <extensions>
          <ns3:TrackPointExtension>
            <ns3:atemp>21.0</ns3:atemp>
          </ns3:TrackPointExtension>
        </extensions>
      </trkpt>
      <trkpt lat="42.5432070158421993255615234375" lon="20.1132247410714626312255859375">
        <ele>1875.800048828125</ele>
        <time>2026-06-20T06:31:09.000Z</time>
        <extensions>
          <ns3:TrackPointExtension>
            <ns3:atemp>21.0</ns3:atemp>
          </ns3:TrackPointExtension>
        </extensions>
      </trkpt>
      <trkpt lat="42.5432053394615650177001953125" lon="20.11323471553623676300048828125">
        <ele>1875.800048828125</ele>
        <time>2026-06-20T06:31:10.000Z</time>
        <extensions>
          <ns3:TrackPointExtension>
            <ns3:atemp>21.0</ns3:atemp>
          </ns3:TrackPointExtension>
        </extensions>
      </trkpt>
      <trkpt lat="42.54320357926189899444580078125" lon="20.11324502527713775634765625">
        <ele>1876</ele>
        <time>2026-06-20T06:31:11.000Z</time>
        <extensions>
          <ns3:TrackPointExtension>
            <ns3:atemp>20.0</ns3:atemp>
          </ns3:TrackPointExtension>
        </extensions>
      </trkpt>
      <trkpt lat="42.543199472129344940185546875" lon="20.11325784958899021148681640625">
        <ele>1876</ele>
        <time>2026-06-20T06:31:12.000Z</time>
        <extensions>
          <ns3:TrackPointExtension>
            <ns3:atemp>20.0</ns3:atemp>
          </ns3:TrackPointExtension>
        </extensions>
      </trkpt>
      <trkpt lat="42.54319938831031322479248046875" lon="20.11325977742671966552734375">
        <ele>1876</ele>
        <time>2026-06-20T06:31:13.000Z</time>
        <extensions>
          <ns3:TrackPointExtension>
            <ns3:atemp>21.0</ns3:atemp>
          </ns3:TrackPointExtension>
        </extensions>
      </trkpt>
      <trkpt lat="42.54319938831031322479248046875" lon="20.11325977742671966552734375">
        <ele>1876.199951171875</ele>
        <time>2026-06-20T06:31:14.000Z</time>
        <extensions>
          <ns3:TrackPointExtension>
            <ns3:atemp>21.0</ns3:atemp>
          </ns3:TrackPointExtension>
        </extensions>
      </trkpt>
      <trkpt lat="42.54319938831031322479248046875" lon="20.11325977742671966552734375">
        <ele>1876.199951171875</ele>
        <time>2026-06-20T06:31:15.000Z</time>
        <extensions>
          <ns3:TrackPointExtension>
            <ns3:atemp>21.0</ns3:atemp>
          </ns3:TrackPointExtension>
        </extensions>
      </trkpt>
      <trkpt lat="42.543199472129344940185546875" lon="20.113260112702846527099609375">
        <ele>1876.4000244140625</ele>
        <time>2026-06-20T06:31:16.000Z</time>
        <extensions>
          <ns3:TrackPointExtension>
            <ns3:atemp>21.0</ns3:atemp>
          </ns3:TrackPointExtension>
        </extensions>
      </trkpt>
      <trkpt lat="42.54319871775805950164794921875" lon="20.113272182643413543701171875">
        <ele>1876.5999755859375</ele>
        <time>2026-06-20T06:31:17.000Z</time>
        <extensions>
          <ns3:TrackPointExtension>
            <ns3:atemp>21.0</ns3:atemp>
          </ns3:TrackPointExtension>
        </extensions>
      </trkpt>
      <trkpt lat="42.54319502972066402435302734375" lon="20.1132750324904918670654296875">
        <ele>1876.5999755859375</ele>
        <time>2026-06-20T06:31:18.000Z</time>
        <extensions>
          <ns3:TrackPointExtension>
            <ns3:atemp>21.0</ns3:atemp>
          </ns3:TrackPointExtension>
        </extensions>
      </trkpt>
      <trkpt lat="42.54319268278777599334716796875" lon="20.1132807321846485137939453125">
        <ele>1876.800048828125</ele>
        <time>2026-06-20T06:31:19.000Z</time>
        <extensions>
          <ns3:TrackPointExtension>
            <ns3:atemp>21.0</ns3:atemp>
          </ns3:TrackPointExtension>
        </extensions>
      </trkpt>
      <trkpt lat="42.543189413845539093017578125" lon="20.11329372413456439971923828125">
        <ele>1876.800048828125</ele>
        <time>2026-06-20T06:31:20.000Z</time>
        <extensions>
          <ns3:TrackPointExtension>
            <ns3:atemp>21.0</ns3:atemp>
          </ns3:TrackPointExtension>
        </extensions>
      </trkpt>
      <trkpt lat="42.54318748600780963897705078125" lon="20.11330713517963886260986328125">
        <ele>1876.800048828125</ele>
        <time>2026-06-20T06:31:21.000Z</time>
        <extensions>
          <ns3:TrackPointExtension>
            <ns3:atemp>20.0</ns3:atemp>
          </ns3:TrackPointExtension>
        </extensions>
      </trkpt>
      <trkpt lat="42.5431832112371921539306640625" lon="20.1133162714540958404541015625">
        <ele>1876.800048828125</ele>
        <time>2026-06-20T06:31:22.000Z</time>
        <extensions>
          <ns3:TrackPointExtension>
            <ns3:atemp>20.0</ns3:atemp>
          </ns3:TrackPointExtension>
        </extensions>
      </trkpt>
      <trkpt lat="42.54317759536206722259521484375" lon="20.11333144269883632659912109375">
        <ele>1876.800048828125</ele>
        <time>2026-06-20T06:31:23.000Z</time>
        <extensions>
          <ns3:TrackPointExtension>
            <ns3:atemp>21.0</ns3:atemp>
          </ns3:TrackPointExtension>
        </extensions>
      </trkpt>
      <trkpt lat="42.543172650039196014404296875" lon="20.11334368027746677398681640625">
        <ele>1876.800048828125</ele>
        <time>2026-06-20T06:31:24.000Z</time>
        <extensions>
          <ns3:TrackPointExtension>
            <ns3:atemp>20.0</ns3:atemp>
          </ns3:TrackPointExtension>
        </extensions>
      </trkpt>
      <trkpt lat="42.54316653124988079071044921875" lon="20.1133551634848117828369140625">
        <ele>1876.5999755859375</ele>
        <time>2026-06-20T06:31:25.000Z</time>
        <extensions>
          <ns3:TrackPointExtension>
            <ns3:atemp>20.0</ns3:atemp>
          </ns3:TrackPointExtension>
        </extensions>
      </trkpt>
      <trkpt lat="42.54315890371799468994140625" lon="20.11336429975926876068115234375">
        <ele>1876.5999755859375</ele>
        <time>2026-06-20T06:31:26.000Z</time>
        <extensions>
          <ns3:TrackPointExtension>
            <ns3:atemp>20.0</ns3:atemp>
          </ns3:TrackPointExtension>
        </extensions>
      </trkpt>
      <trkpt lat="42.543151862919330596923828125" lon="20.1133732683956623077392578125">
        <ele>1876.4000244140625</ele>
        <time>2026-06-20T06:31:27.000Z</time>
        <extensions>
          <ns3:TrackPointExtension>
            <ns3:atemp>20.0</ns3:atemp>
          </ns3:TrackPointExtension>
        </extensions>
      </trkpt>
      <trkpt lat="42.54314423538744449615478515625" lon="20.11337905190885066986083984375">
        <ele>1876.199951171875</ele>
        <time>2026-06-20T06:31:28.000Z</time>
        <extensions>
          <ns3:TrackPointExtension>
            <ns3:atemp>20.0</ns3:atemp>
          </ns3:TrackPointExtension>
        </extensions>
      </trkpt>
      <trkpt lat="42.54313652403652667999267578125" lon="20.11338986456394195556640625">
        <ele>1876.199951171875</ele>
        <time>2026-06-20T06:31:29.000Z</time>
        <extensions>
          <ns3:TrackPointExtension>
            <ns3:atemp>20.0</ns3:atemp>
          </ns3:TrackPointExtension>
        </extensions>
      </trkpt>
      <trkpt lat="42.54312629811465740203857421875" lon="20.11339967139065265655517578125">
        <ele>1876</ele>
        <time>2026-06-20T06:31:30.000Z</time>
        <extensions>
          <ns3:TrackPointExtension>
            <ns3:atemp>20.0</ns3:atemp>
          </ns3:TrackPointExtension>
        </extensions>
      </trkpt>
      <trkpt lat="42.5431131385266780853271484375" lon="20.11340461671352386474609375">
        <ele>1876</ele>
        <time>2026-06-20T06:31:31.000Z</time>
        <extensions>
          <ns3:TrackPointExtension>
            <ns3:atemp>20.0</ns3:atemp>
          </ns3:TrackPointExtension>
        </extensions>
      </trkpt>
      <trkpt lat="42.54310400225222110748291015625" lon="20.11341023258864879608154296875">
        <ele>1875.800048828125</ele>
        <time>2026-06-20T06:31:32.000Z</time>
        <extensions>
          <ns3:TrackPointExtension>
            <ns3:atemp>20.0</ns3:atemp>
          </ns3:TrackPointExtension>
        </extensions>
      </trkpt>
      <trkpt lat="42.54309721291065216064453125" lon="20.11341693811118602752685546875">
        <ele>1875.800048828125</ele>
        <time>2026-06-20T06:31:33.000Z</time>
        <extensions>
          <ns3:TrackPointExtension>
            <ns3:atemp>20.0</ns3:atemp>
          </ns3:TrackPointExtension>
        </extensions>
      </trkpt>
      <trkpt lat="42.5430960394442081451416015625" lon="20.11341945268213748931884765625">
        <ele>1875.800048828125</ele>
        <time>2026-06-20T06:31:34.000Z</time>
        <extensions>
          <ns3:TrackPointExtension>
            <ns3:atemp>20.0</ns3:atemp>
          </ns3:TrackPointExtension>
        </extensions>
      </trkpt>
      <trkpt lat="42.54309612326323986053466796875" lon="20.1134195365011692047119140625">
        <ele>1875.5999755859375</ele>
        <time>2026-06-20T06:31:35.000Z</time>
        <extensions>
          <ns3:TrackPointExtension>
            <ns3:atemp>20.0</ns3:atemp>
          </ns3:TrackPointExtension>
        </extensions>
      </trkpt>
      <trkpt lat="42.54309612326323986053466796875" lon="20.1134195365011692047119140625">
        <ele>1875.5999755859375</ele>
        <time>2026-06-20T06:31:36.000Z</time>
        <extensions>
          <ns3:TrackPointExtension>
            <ns3:atemp>20.0</ns3:atemp>
          </ns3:TrackPointExtension>
        </extensions>
      </trkpt>
      <trkpt lat="42.54309612326323986053466796875" lon="20.1134195365011692047119140625">
        <ele>1875.5999755859375</ele>
        <time>2026-06-20T06:31:37.000Z</time>
        <extensions>
          <ns3:TrackPointExtension>
            <ns3:atemp>20.0</ns3:atemp>
          </ns3:TrackPointExtension>
        </extensions>
      </trkpt>
      <trkpt lat="42.54309612326323986053466796875" lon="20.1134195365011692047119140625">
        <ele>1875.5999755859375</ele>
        <time>2026-06-20T06:31:38.000Z</time>
        <extensions>
          <ns3:TrackPointExtension>
            <ns3:atemp>21.0</ns3:atemp>
          </ns3:TrackPointExtension>
        </extensions>
      </trkpt>
      <trkpt lat="42.54309612326323986053466796875" lon="20.1134195365011692047119140625">
        <ele>1875.5999755859375</ele>
        <time>2026-06-20T06:31:39.000Z</time>
        <extensions>
          <ns3:TrackPointExtension>
            <ns3:atemp>20.0</ns3:atemp>
          </ns3:TrackPointExtension>
        </extensions>
      </trkpt>
      <trkpt lat="42.54309612326323986053466796875" lon="20.1134195365011692047119140625">
        <ele>1875.5999755859375</ele>
        <time>2026-06-20T06:31:40.000Z</time>
        <extensions>
          <ns3:TrackPointExtension>
            <ns3:atemp>20.0</ns3:atemp>
          </ns3:TrackPointExtension>
        </extensions>
      </trkpt>
      <trkpt lat="42.54309612326323986053466796875" lon="20.1134195365011692047119140625">
        <ele>1875.5999755859375</ele>
        <time>2026-06-20T06:31:41.000Z</time>
        <extensions>
          <ns3:TrackPointExtension>
            <ns3:atemp>20.0</ns3:atemp>
          </ns3:TrackPointExtension>
        </extensions>
      </trkpt>
      <trkpt lat="42.54309612326323986053466796875" lon="20.1134195365011692047119140625">
        <ele>1875.5999755859375</ele>
        <time>2026-06-20T06:31:42.000Z</time>
        <extensions>
          <ns3:TrackPointExtension>
            <ns3:atemp>20.0</ns3:atemp>
          </ns3:TrackPointExtension>
        </extensions>
      </trkpt>
      <trkpt lat="42.54309612326323986053466796875" lon="20.1134195365011692047119140625">
        <ele>1875.5999755859375</ele>
        <time>2026-06-20T06:31:43.000Z</time>
        <extensions>
          <ns3:TrackPointExtension>
            <ns3:atemp>21.0</ns3:atemp>
          </ns3:TrackPointExtension>
        </extensions>
      </trkpt>
      <trkpt lat="42.54309612326323986053466796875" lon="20.1134195365011692047119140625">
        <ele>1875.5999755859375</ele>
        <time>2026-06-20T06:31:44.000Z</time>
        <extensions>
          <ns3:TrackPointExtension>
            <ns3:atemp>20.0</ns3:atemp>
          </ns3:TrackPointExtension>
        </extensions>
      </trkpt>
      <trkpt lat="42.54309612326323986053466796875" lon="20.1134195365011692047119140625">
        <ele>1875.5999755859375</ele>
        <time>2026-06-20T06:31:45.000Z</time>
        <extensions>
          <ns3:TrackPointExtension>
            <ns3:atemp>20.0</ns3:atemp>
          </ns3:TrackPointExtension>
        </extensions>
      </trkpt>
      <trkpt lat="42.54309612326323986053466796875" lon="20.1134195365011692047119140625">
        <ele>1875.5999755859375</ele>
        <time>2026-06-20T06:31:46.000Z</time>
        <extensions>
          <ns3:TrackPointExtension>
            <ns3:atemp>20.0</ns3:atemp>
          </ns3:TrackPointExtension>
        </extensions>
      </trkpt>
      <trkpt lat="42.54309612326323986053466796875" lon="20.1134195365011692047119140625">
        <ele>1875.5999755859375</ele>
        <time>2026-06-20T06:31:47.000Z</time>
        <extensions>
          <ns3:TrackPointExtension>
            <ns3:atemp>20.0</ns3:atemp>
          </ns3:TrackPointExtension>
        </extensions>
      </trkpt>
      <trkpt lat="42.54309612326323986053466796875" lon="20.1134195365011692047119140625">
        <ele>1875.5999755859375</ele>
        <time>2026-06-20T06:31:48.000Z</time>
        <extensions>
          <ns3:TrackPointExtension>
            <ns3:atemp>20.0</ns3:atemp>
          </ns3:TrackPointExtension>
        </extensions>
      </trkpt>
      <trkpt lat="42.54309612326323986053466796875" lon="20.1134195365011692047119140625">
        <ele>1875.5999755859375</ele>
        <time>2026-06-20T06:31:49.000Z</time>
        <extensions>
          <ns3:TrackPointExtension>
            <ns3:atemp>20.0</ns3:atemp>
          </ns3:TrackPointExtension>
        </extensions>
      </trkpt>
      <trkpt lat="42.54309612326323986053466796875" lon="20.1134195365011692047119140625">
        <ele>1875.5999755859375</ele>
        <time>2026-06-20T06:31:50.000Z</time>
        <extensions>
          <ns3:TrackPointExtension>
            <ns3:atemp>20.0</ns3:atemp>
          </ns3:TrackPointExtension>
        </extensions>
      </trkpt>
      <trkpt lat="42.54309612326323986053466796875" lon="20.1134195365011692047119140625">
        <ele>1875.5999755859375</ele>
        <time>2026-06-20T06:31:51.000Z</time>
        <extensions>
          <ns3:TrackPointExtension>
            <ns3:atemp>20.0</ns3:atemp>
          </ns3:TrackPointExtension>
        </extensions>
      </trkpt>
      <trkpt lat="42.54309612326323986053466796875" lon="20.1134195365011692047119140625">
        <ele>1875.5999755859375</ele>
        <time>2026-06-20T06:31:52.000Z</time>
        <extensions>
          <ns3:TrackPointExtension>
            <ns3:atemp>20.0</ns3:atemp>
          </ns3:TrackPointExtension>
        </extensions>
      </trkpt>
      <trkpt lat="42.54309612326323986053466796875" lon="20.1134195365011692047119140625">
        <ele>1875.5999755859375</ele>
        <time>2026-06-20T06:31:53.000Z</time>
        <extensions>
          <ns3:TrackPointExtension>
            <ns3:atemp>20.0</ns3:atemp>
          </ns3:TrackPointExtension>
        </extensions>
      </trkpt>
      <trkpt lat="42.54309612326323986053466796875" lon="20.1134195365011692047119140625">
        <ele>1875.5999755859375</ele>
        <time>2026-06-20T06:31:54.000Z</time>
        <extensions>
          <ns3:TrackPointExtension>
            <ns3:atemp>20.0</ns3:atemp>
          </ns3:TrackPointExtension>
        </extensions>
      </trkpt>
      <trkpt lat="42.5430970452725887298583984375" lon="20.11342247016727924346923828125">
        <ele>1875.5999755859375</ele>
        <time>2026-06-20T06:31:55.000Z</time>
        <extensions>
          <ns3:TrackPointExtension>
            <ns3:atemp>20.0</ns3:atemp>
          </ns3:TrackPointExtension>
        </extensions>
      </trkpt>
      <trkpt lat="42.543099559843540191650390625" lon="20.11343923397362232208251953125">
        <ele>1875.5999755859375</ele>
        <time>2026-06-20T06:31:56.000Z</time>
        <extensions>
          <ns3:TrackPointExtension>
            <ns3:atemp>20.0</ns3:atemp>
          </ns3:TrackPointExtension>
        </extensions>
      </trkpt>
      <trkpt lat="42.54310282878577709197998046875" lon="20.1134523935616016387939453125">
        <ele>1875.5999755859375</ele>
        <time>2026-06-20T06:31:57.000Z</time>
        <extensions>
          <ns3:TrackPointExtension>
            <ns3:atemp>20.0</ns3:atemp>
          </ns3:TrackPointExtension>
        </extensions>
      </trkpt>
      <trkpt lat="42.543102912604808807373046875" lon="20.11346639133989810943603515625">
        <ele>1875.4000244140625</ele>
        <time>2026-06-20T06:31:58.000Z</time>
        <extensions>
          <ns3:TrackPointExtension>
            <ns3:atemp>20.0</ns3:atemp>
          </ns3:TrackPointExtension>
        </extensions>
      </trkpt>
      <trkpt lat="42.54309796728193759918212890625" lon="20.1134782098233699798583984375">
        <ele>1875.4000244140625</ele>
        <time>2026-06-20T06:31:59.000Z</time>
        <extensions>
          <ns3:TrackPointExtension>
            <ns3:atemp>20.0</ns3:atemp>
          </ns3:TrackPointExtension>
        </extensions>
      </trkpt>
      <trkpt lat="42.5430946983397006988525390625" lon="20.113485418260097503662109375">
        <ele>1875.4000244140625</ele>
        <time>2026-06-20T06:32:00.000Z</time>
        <extensions>
          <ns3:TrackPointExtension>
            <ns3:atemp>20.0</ns3:atemp>
          </ns3:TrackPointExtension>
        </extensions>
      </trkpt>
      <trkpt lat="42.54309226758778095245361328125" lon="20.11348432861268520355224609375">
        <ele>1875.199951171875</ele>
        <time>2026-06-20T06:32:01.000Z</time>
        <extensions>
          <ns3:TrackPointExtension>
            <ns3:atemp>20.0</ns3:atemp>
          </ns3:TrackPointExtension>
        </extensions>
      </trkpt>
      <trkpt lat="42.54309226758778095245361328125" lon="20.11348432861268520355224609375">
        <ele>1875.199951171875</ele>
        <time>2026-06-20T06:32:02.000Z</time>
        <extensions>
          <ns3:TrackPointExtension>
            <ns3:atemp>20.0</ns3:atemp>
          </ns3:TrackPointExtension>
        </extensions>
      </trkpt>
      <trkpt lat="42.54309226758778095245361328125" lon="20.11348432861268520355224609375">
        <ele>1875.199951171875</ele>
        <time>2026-06-20T06:32:03.000Z</time>
        <extensions>
          <ns3:TrackPointExtension>
            <ns3:atemp>20.0</ns3:atemp>
          </ns3:TrackPointExtension>
        </extensions>
      </trkpt>
      <trkpt lat="42.54309243522584438323974609375" lon="20.11348449625074863433837890625">
        <ele>1875</ele>
        <time>2026-06-20T06:32:04.000Z</time>
        <extensions>
          <ns3:TrackPointExtension>
            <ns3:atemp>20.0</ns3:atemp>
          </ns3:TrackPointExtension>
        </extensions>
      </trkpt>
      <trkpt lat="42.54309327341616153717041015625" lon="20.113496817648410797119140625">
        <ele>1875</ele>
        <time>2026-06-20T06:32:05.000Z</time>
        <extensions>
          <ns3:TrackPointExtension>
            <ns3:atemp>21.0</ns3:atemp>
          </ns3:TrackPointExtension>
        </extensions>
      </trkpt>
      <trkpt lat="42.54309679381549358367919921875" lon="20.1135040260851383209228515625">
        <ele>1875</ele>
        <time>2026-06-20T06:32:06.000Z</time>
        <extensions>
          <ns3:TrackPointExtension>
            <ns3:atemp>21.0</ns3:atemp>
          </ns3:TrackPointExtension>
        </extensions>
      </trkpt>
      <trkpt lat="42.543102912604808807373046875" lon="20.113510899245738983154296875">
        <ele>1875</ele>
        <time>2026-06-20T06:32:07.000Z</time>
        <extensions>
          <ns3:TrackPointExtension>
            <ns3:atemp>20.0</ns3:atemp>
          </ns3:TrackPointExtension>
        </extensions>
      </trkpt>
      <trkpt lat="42.5431060977280139923095703125" lon="20.113519616425037384033203125">
        <ele>1874.800048828125</ele>
        <time>2026-06-20T06:32:08.000Z</time>
        <extensions>
          <ns3:TrackPointExtension>
            <ns3:atemp>20.0</ns3:atemp>
          </ns3:TrackPointExtension>
        </extensions>
      </trkpt>
      <trkpt lat="42.54310970194637775421142578125" lon="20.113532356917858123779296875">
        <ele>1874.800048828125</ele>
        <time>2026-06-20T06:32:09.000Z</time>
        <extensions>
          <ns3:TrackPointExtension>
            <ns3:atemp>20.0</ns3:atemp>
          </ns3:TrackPointExtension>
        </extensions>
      </trkpt>
      <trkpt lat="42.54311305470764636993408203125" lon="20.1135487854480743408203125">
        <ele>1874.5999755859375</ele>
        <time>2026-06-20T06:32:10.000Z</time>
        <extensions>
          <ns3:TrackPointExtension>
            <ns3:atemp>21.0</ns3:atemp>
          </ns3:TrackPointExtension>
        </extensions>
      </trkpt>
      <trkpt lat="42.54311925731599330902099609375" lon="20.11356244795024394989013671875">
        <ele>1874.5999755859375</ele>
        <time>2026-06-20T06:32:11.000Z</time>
        <extensions>
          <ns3:TrackPointExtension>
            <ns3:atemp>20.0</ns3:atemp>
          </ns3:TrackPointExtension>
        </extensions>
      </trkpt>
      <trkpt lat="42.54312545992434024810791015625" lon="20.11357384733855724334716796875">
        <ele>1874.5999755859375</ele>
        <time>2026-06-20T06:32:12.000Z</time>
        <extensions>
          <ns3:TrackPointExtension>
            <ns3:atemp>20.0</ns3:atemp>
          </ns3:TrackPointExtension>
        </extensions>
      </trkpt>
      <trkpt lat="42.54313317127525806427001953125" lon="20.11358390562236309051513671875">
        <ele>1874.800048828125</ele>
        <time>2026-06-20T06:32:13.000Z</time>
        <extensions>
          <ns3:TrackPointExtension>
            <ns3:atemp>20.0</ns3:atemp>
          </ns3:TrackPointExtension>
        </extensions>
      </trkpt>
      <trkpt lat="42.54314155317842960357666015625" lon="20.1135905273258686065673828125">
        <ele>1875</ele>
        <time>2026-06-20T06:32:14.000Z</time>
        <extensions>
          <ns3:TrackPointExtension>
            <ns3:atemp>20.0</ns3:atemp>
          </ns3:TrackPointExtension>
        </extensions>
      </trkpt>
      <trkpt lat="42.54314926452934741973876953125" lon="20.11359849013388156890869140625">
        <ele>1875</ele>
        <time>2026-06-20T06:32:15.000Z</time>
        <extensions>
          <ns3:TrackPointExtension>
            <ns3:atemp>20.0</ns3:atemp>
          </ns3:TrackPointExtension>
        </extensions>
      </trkpt>
      <trkpt lat="42.5431550480425357818603515625" lon="20.1136039383709430694580078125">
        <ele>1875</ele>
        <time>2026-06-20T06:32:16.000Z</time>
        <extensions>
          <ns3:TrackPointExtension>
            <ns3:atemp>20.0</ns3:atemp>
          </ns3:TrackPointExtension>
        </extensions>
      </trkpt>
      <trkpt lat="42.54315915517508983612060546875" lon="20.11361625976860523223876953125">
        <ele>1875.199951171875</ele>
        <time>2026-06-20T06:32:17.000Z</time>
        <extensions>
          <ns3:TrackPointExtension>
            <ns3:atemp>20.0</ns3:atemp>
          </ns3:TrackPointExtension>
        </extensions>
      </trkpt>
      <trkpt lat="42.543164603412151336669921875" lon="20.11362564750015735626220703125">
        <ele>1875.199951171875</ele>
        <time>2026-06-20T06:32:18.000Z</time>
        <extensions>
          <ns3:TrackPointExtension>
            <ns3:atemp>20.0</ns3:atemp>
          </ns3:TrackPointExtension>
        </extensions>
      </trkpt>
      <trkpt lat="42.54317172802984714508056640625" lon="20.11363537050783634185791015625">
        <ele>1875.4000244140625</ele>
        <time>2026-06-20T06:32:19.000Z</time>
        <extensions>
          <ns3:TrackPointExtension>
            <ns3:atemp>20.0</ns3:atemp>
          </ns3:TrackPointExtension>
        </extensions>
      </trkpt>
      <trkpt lat="42.543177343904972076416015625" lon="20.11364333331584930419921875">
        <ele>1875.4000244140625</ele>
        <time>2026-06-20T06:32:20.000Z</time>
        <extensions>
          <ns3:TrackPointExtension>
            <ns3:atemp>20.0</ns3:atemp>
          </ns3:TrackPointExtension>
        </extensions>
      </trkpt>
      <trkpt lat="42.54317776300013065338134765625" lon="20.113642327487468719482421875">
        <ele>1875.4000244140625</ele>
        <time>2026-06-20T06:32:21.000Z</time>
        <extensions>
          <ns3:TrackPointExtension>
            <ns3:atemp>20.0</ns3:atemp>
          </ns3:TrackPointExtension>
        </extensions>
      </trkpt>
      <trkpt lat="42.54317767918109893798828125" lon="20.113642327487468719482421875">
        <ele>1875.5999755859375</ele>
        <time>2026-06-20T06:32:22.000Z</time>
        <extensions>
          <ns3:TrackPointExtension>
            <ns3:atemp>20.0</ns3:atemp>
          </ns3:TrackPointExtension>
        </extensions>
      </trkpt>
      <trkpt lat="42.54317767918109893798828125" lon="20.113642327487468719482421875">
        <ele>1875.5999755859375</ele>
        <time>2026-06-20T06:32:23.000Z</time>
        <extensions>
          <ns3:TrackPointExtension>
            <ns3:atemp>20.0</ns3:atemp>
          </ns3:TrackPointExtension>
        </extensions>
      </trkpt>
      <trkpt lat="42.54317767918109893798828125" lon="20.113642327487468719482421875">
        <ele>1875.5999755859375</ele>
        <time>2026-06-20T06:32:24.000Z</time>
        <extensions>
          <ns3:TrackPointExtension>
            <ns3:atemp>20.0</ns3:atemp>
          </ns3:TrackPointExtension>
        </extensions>
      </trkpt>
      <trkpt lat="42.54317759536206722259521484375" lon="20.11364207603037357330322265625">
        <ele>1875.5999755859375</ele>
        <time>2026-06-20T06:32:25.000Z</time>
        <extensions>
          <ns3:TrackPointExtension>
            <ns3:atemp>20.0</ns3:atemp>
          </ns3:TrackPointExtension>
        </extensions>
      </trkpt>
      <trkpt lat="42.54318312741816043853759765625" lon="20.11365833692252635955810546875">
        <ele>1875.5999755859375</ele>
        <time>2026-06-20T06:32:26.000Z</time>
        <extensions>
          <ns3:TrackPointExtension>
            <ns3:atemp>20.0</ns3:atemp>
          </ns3:TrackPointExtension>
        </extensions>
      </trkpt>
      <trkpt lat="42.54318916238844394683837890625" lon="20.1136864162981510162353515625">
        <ele>1875.4000244140625</ele>
        <time>2026-06-20T06:32:27.000Z</time>
        <extensions>
          <ns3:TrackPointExtension>
            <ns3:atemp>20.0</ns3:atemp>
          </ns3:TrackPointExtension>
        </extensions>
      </trkpt>
      <trkpt lat="42.5431969575583934783935546875" lon="20.11371499858796596527099609375">
        <ele>1875.199951171875</ele>
        <time>2026-06-20T06:32:28.000Z</time>
        <extensions>
          <ns3:TrackPointExtension>
            <ns3:atemp>20.0</ns3:atemp>
          </ns3:TrackPointExtension>
        </extensions>
      </trkpt>
      <trkpt lat="42.543203495442867279052734375" lon="20.113734863698482513427734375">
        <ele>1875.199951171875</ele>
        <time>2026-06-20T06:32:29.000Z</time>
        <extensions>
          <ns3:TrackPointExtension>
            <ns3:atemp>20.0</ns3:atemp>
          </ns3:TrackPointExtension>
        </extensions>
      </trkpt>
      <trkpt lat="42.54320877604186534881591796875" lon="20.1137507893145084381103515625">
        <ele>1875.199951171875</ele>
        <time>2026-06-20T06:32:30.000Z</time>
        <extensions>
          <ns3:TrackPointExtension>
            <ns3:atemp>20.0</ns3:atemp>
          </ns3:TrackPointExtension>
        </extensions>
      </trkpt>
      <trkpt lat="42.543213553726673126220703125" lon="20.1137702353298664093017578125">
        <ele>1875.199951171875</ele>
        <time>2026-06-20T06:32:31.000Z</time>
        <extensions>
          <ns3:TrackPointExtension>
            <ns3:atemp>20.0</ns3:atemp>
          </ns3:TrackPointExtension>
        </extensions>
      </trkpt>
      <trkpt lat="42.54321523010730743408203125" lon="20.11378456838428974151611328125">
        <ele>1875.4000244140625</ele>
        <time>2026-06-20T06:32:32.000Z</time>
        <extensions>
          <ns3:TrackPointExtension>
            <ns3:atemp>20.0</ns3:atemp>
          </ns3:TrackPointExtension>
        </extensions>
      </trkpt>
      <trkpt lat="42.54321380518376827239990234375" lon="20.11380015872418880462646484375">
        <ele>1875.4000244140625</ele>
        <time>2026-06-20T06:32:33.000Z</time>
        <extensions>
          <ns3:TrackPointExtension>
            <ns3:atemp>20.0</ns3:atemp>
          </ns3:TrackPointExtension>
        </extensions>
      </trkpt>
      <trkpt lat="42.5432159006595611572265625" lon="20.113826058804988861083984375">
        <ele>1875.4000244140625</ele>
        <time>2026-06-20T06:32:34.000Z</time>
        <extensions>
          <ns3:TrackPointExtension>
            <ns3:atemp>20.0</ns3:atemp>
          </ns3:TrackPointExtension>
        </extensions>
      </trkpt>
      <trkpt lat="42.5432153977453708648681640625" lon="20.1138527132570743560791015625">
        <ele>1875.5999755859375</ele>
        <time>2026-06-20T06:32:35.000Z</time>
        <extensions>
          <ns3:TrackPointExtension>
            <ns3:atemp>20.0</ns3:atemp>
          </ns3:TrackPointExtension>
        </extensions>
      </trkpt>
      <trkpt lat="42.543214894831180572509765625" lon="20.11386989615857601165771484375">
        <ele>1875.5999755859375</ele>
        <time>2026-06-20T06:32:36.000Z</time>
        <extensions>
          <ns3:TrackPointExtension>
            <ns3:atemp>20.0</ns3:atemp>
          </ns3:TrackPointExtension>
        </extensions>
      </trkpt>
      <trkpt lat="42.5432120449841022491455078125" lon="20.11387157253921031951904296875">
        <ele>1875.5999755859375</ele>
        <time>2026-06-20T06:32:37.000Z</time>
        <extensions>
          <ns3:TrackPointExtension>
            <ns3:atemp>20.0</ns3:atemp>
          </ns3:TrackPointExtension>
        </extensions>
      </trkpt>
      <trkpt lat="42.543214224278926849365234375" lon="20.11387106962502002716064453125">
        <ele>1875.800048828125</ele>
        <time>2026-06-20T06:32:38.000Z</time>
        <extensions>
          <ns3:TrackPointExtension>
            <ns3:atemp>20.0</ns3:atemp>
          </ns3:TrackPointExtension>
        </extensions>
      </trkpt>
      <trkpt lat="42.54321430809795856475830078125" lon="20.1138711534440517425537109375">
        <ele>1876</ele>
        <time>2026-06-20T06:32:39.000Z</time>
        <extensions>
          <ns3:TrackPointExtension>
            <ns3:atemp>20.0</ns3:atemp>
          </ns3:TrackPointExtension>
        </extensions>
      </trkpt>
      <trkpt lat="42.54321715794503688812255859375" lon="20.113884396851062774658203125">
        <ele>1876</ele>
        <time>2026-06-20T06:32:40.000Z</time>
        <extensions>
          <ns3:TrackPointExtension>
            <ns3:atemp>20.0</ns3:atemp>
          </ns3:TrackPointExtension>
        </extensions>
      </trkpt>
      <trkpt lat="42.5432190857827663421630859375" lon="20.11389814317226409912109375">
        <ele>1876.199951171875</ele>
        <time>2026-06-20T06:32:41.000Z</time>
        <extensions>
          <ns3:TrackPointExtension>
            <ns3:atemp>20.0</ns3:atemp>
          </ns3:TrackPointExtension>
        </extensions>
      </trkpt>
      <trkpt lat="42.54321992397308349609375" lon="20.11391465552151203155517578125">
        <ele>1876.199951171875</ele>
        <time>2026-06-20T06:32:42.000Z</time>
        <extensions>
          <ns3:TrackPointExtension>
            <ns3:atemp>20.0</ns3:atemp>
          </ns3:TrackPointExtension>
        </extensions>
      </trkpt>
      <trkpt lat="42.54321849904954433441162109375" lon="20.11392789892852306365966796875">
        <ele>1876.199951171875</ele>
        <time>2026-06-20T06:32:43.000Z</time>
        <extensions>
          <ns3:TrackPointExtension>
            <ns3:atemp>20.0</ns3:atemp>
          </ns3:TrackPointExtension>
        </extensions>
      </trkpt>
      <trkpt lat="42.5432185828685760498046875" lon="20.11394181288778781890869140625">
        <ele>1876.4000244140625</ele>
        <time>2026-06-20T06:32:44.000Z</time>
        <extensions>
          <ns3:TrackPointExtension>
            <ns3:atemp>20.0</ns3:atemp>
          </ns3:TrackPointExtension>
        </extensions>
      </trkpt>
      <trkpt lat="42.5432194210588932037353515625" lon="20.1139472611248493194580078125">
        <ele>1876.5999755859375</ele>
        <time>2026-06-20T06:32:45.000Z</time>
        <extensions>
          <ns3:TrackPointExtension>
            <ns3:atemp>20.0</ns3:atemp>
          </ns3:TrackPointExtension>
        </extensions>
      </trkpt>
      <trkpt lat="42.5432207621634006500244140625" lon="20.1139566488564014434814453125">
        <ele>1876.800048828125</ele>
        <time>2026-06-20T06:32:46.000Z</time>
        <extensions>
          <ns3:TrackPointExtension>
            <ns3:atemp>20.0</ns3:atemp>
          </ns3:TrackPointExtension>
        </extensions>
      </trkpt>
      <trkpt lat="42.54322738386690616607666015625" lon="20.113964192569255828857421875">
        <ele>1876.800048828125</ele>
        <time>2026-06-20T06:32:47.000Z</time>
        <extensions>
          <ns3:TrackPointExtension>
            <ns3:atemp>20.0</ns3:atemp>
          </ns3:TrackPointExtension>
        </extensions>
      </trkpt>
      <trkpt lat="42.5432341732084751129150390625" lon="20.11397584341466426849365234375">
        <ele>1876.800048828125</ele>
        <time>2026-06-20T06:32:48.000Z</time>
        <extensions>
          <ns3:TrackPointExtension>
            <ns3:atemp>20.0</ns3:atemp>
          </ns3:TrackPointExtension>
        </extensions>
      </trkpt>
      <trkpt lat="42.5432395376265048980712890625" lon="20.11399243958294391632080078125">
        <ele>1876.800048828125</ele>
        <time>2026-06-20T06:32:49.000Z</time>
        <extensions>
          <ns3:TrackPointExtension>
            <ns3:atemp>20.0</ns3:atemp>
          </ns3:TrackPointExtension>
        </extensions>
      </trkpt>
      <trkpt lat="42.5432435609400272369384765625" lon="20.11400467716157436370849609375">
        <ele>1876.5999755859375</ele>
        <time>2026-06-20T06:32:50.000Z</time>
        <extensions>
          <ns3:TrackPointExtension>
            <ns3:atemp>20.0</ns3:atemp>
          </ns3:TrackPointExtension>
        </extensions>
      </trkpt>
      <trkpt lat="42.54324565641582012176513671875" lon="20.11402127332985401153564453125">
        <ele>1876.5999755859375</ele>
        <time>2026-06-20T06:32:51.000Z</time>
        <extensions>
          <ns3:TrackPointExtension>
            <ns3:atemp>20.0</ns3:atemp>
          </ns3:TrackPointExtension>
        </extensions>
      </trkpt>
      <trkpt lat="42.54324682988226413726806640625" lon="20.11403351090848445892333984375">
        <ele>1876.5999755859375</ele>
        <time>2026-06-20T06:32:52.000Z</time>
        <extensions>
          <ns3:TrackPointExtension>
            <ns3:atemp>20.0</ns3:atemp>
          </ns3:TrackPointExtension>
        </extensions>
      </trkpt>
      <trkpt lat="42.5432482548058032989501953125" lon="20.11404574848711490631103515625">
        <ele>1876.5999755859375</ele>
        <time>2026-06-20T06:32:53.000Z</time>
        <extensions>
          <ns3:TrackPointExtension>
            <ns3:atemp>20.0</ns3:atemp>
          </ns3:TrackPointExtension>
        </extensions>
      </trkpt>
      <trkpt lat="42.54325185902416706085205078125" lon="20.11405563913285732269287109375">
        <ele>1876.800048828125</ele>
        <time>2026-06-20T06:32:54.000Z</time>
        <extensions>
          <ns3:TrackPointExtension>
            <ns3:atemp>20.0</ns3:atemp>
          </ns3:TrackPointExtension>
        </extensions>
      </trkpt>
      <trkpt lat="42.5432516075670719146728515625" lon="20.11406351812183856964111328125">
        <ele>1876.800048828125</ele>
        <time>2026-06-20T06:32:55.000Z</time>
        <extensions>
          <ns3:TrackPointExtension>
            <ns3:atemp>20.0</ns3:atemp>
          </ns3:TrackPointExtension>
        </extensions>
      </trkpt>
      <trkpt lat="42.54325143992900848388671875" lon="20.11407575570046901702880859375">
        <ele>1877</ele>
        <time>2026-06-20T06:32:56.000Z</time>
        <extensions>
          <ns3:TrackPointExtension>
            <ns3:atemp>20.0</ns3:atemp>
          </ns3:TrackPointExtension>
        </extensions>
      </trkpt>
      <trkpt lat="42.5432534515857696533203125" lon="20.11408950202167034149169921875">
        <ele>1877</ele>
        <time>2026-06-20T06:32:57.000Z</time>
        <extensions>
          <ns3:TrackPointExtension>
            <ns3:atemp>20.0</ns3:atemp>
          </ns3:TrackPointExtension>
        </extensions>
      </trkpt>
      <trkpt lat="42.54325286485254764556884765625" lon="20.11409436352550983428955078125">
        <ele>1877</ele>
        <time>2026-06-20T06:32:58.000Z</time>
        <extensions>
          <ns3:TrackPointExtension>
            <ns3:atemp>20.0</ns3:atemp>
          </ns3:TrackPointExtension>
        </extensions>
      </trkpt>
      <trkpt lat="42.54325252957642078399658203125" lon="20.11410743929445743560791015625">
        <ele>1877</ele>
        <time>2026-06-20T06:32:59.000Z</time>
        <extensions>
          <ns3:TrackPointExtension>
            <ns3:atemp>20.0</ns3:atemp>
          </ns3:TrackPointExtension>
        </extensions>
      </trkpt>
      <trkpt lat="42.5432512722909450531005859375" lon="20.11411749757826328277587890625">
        <ele>1877</ele>
        <time>2026-06-20T06:33:00.000Z</time>
        <extensions>
          <ns3:TrackPointExtension>
            <ns3:atemp>20.0</ns3:atemp>
          </ns3:TrackPointExtension>
        </extensions>
      </trkpt>
      <trkpt lat="42.5432534515857696533203125" lon="20.1141212694346904754638671875">
        <ele>1877</ele>
        <time>2026-06-20T06:33:01.000Z</time>
        <extensions>
          <ns3:TrackPointExtension>
            <ns3:atemp>20.0</ns3:atemp>
          </ns3:TrackPointExtension>
        </extensions>
      </trkpt>
      <trkpt lat="42.5432534515857696533203125" lon="20.1141212694346904754638671875">
        <ele>1877</ele>
        <time>2026-06-20T06:33:02.000Z</time>
        <extensions>
          <ns3:TrackPointExtension>
            <ns3:atemp>20.0</ns3:atemp>
          </ns3:TrackPointExtension>
        </extensions>
      </trkpt>
      <trkpt lat="42.5432534515857696533203125" lon="20.1141212694346904754638671875">
        <ele>1877</ele>
        <time>2026-06-20T06:33:03.000Z</time>
        <extensions>
          <ns3:TrackPointExtension>
            <ns3:atemp>20.0</ns3:atemp>
          </ns3:TrackPointExtension>
        </extensions>
      </trkpt>
      <trkpt lat="42.5432534515857696533203125" lon="20.1141212694346904754638671875">
        <ele>1877</ele>
        <time>2026-06-20T06:33:04.000Z</time>
        <extensions>
          <ns3:TrackPointExtension>
            <ns3:atemp>20.0</ns3:atemp>
          </ns3:TrackPointExtension>
        </extensions>
      </trkpt>
      <trkpt lat="42.5432534515857696533203125" lon="20.1141212694346904754638671875">
        <ele>1877.199951171875</ele>
        <time>2026-06-20T06:33:05.000Z</time>
        <extensions>
          <ns3:TrackPointExtension>
            <ns3:atemp>20.0</ns3:atemp>
          </ns3:TrackPointExtension>
        </extensions>
      </trkpt>
      <trkpt lat="42.54325370304286479949951171875" lon="20.11412286199629306793212890625">
        <ele>1877.199951171875</ele>
        <time>2026-06-20T06:33:06.000Z</time>
        <extensions>
          <ns3:TrackPointExtension>
            <ns3:atemp>20.0</ns3:atemp>
          </ns3:TrackPointExtension>
        </extensions>
      </trkpt>
      <trkpt lat="42.54325269721448421478271484375" lon="20.11415965855121612548828125">
        <ele>1877</ele>
        <time>2026-06-20T06:33:07.000Z</time>
        <extensions>
          <ns3:TrackPointExtension>
            <ns3:atemp>20.0</ns3:atemp>
          </ns3:TrackPointExtension>
        </extensions>
      </trkpt>
      <trkpt lat="42.54324875771999359130859375" lon="20.11417600326240062713623046875">
        <ele>1877</ele>
        <time>2026-06-20T06:33:08.000Z</time>
        <extensions>
          <ns3:TrackPointExtension>
            <ns3:atemp>20.0</ns3:atemp>
          </ns3:TrackPointExtension>
        </extensions>
      </trkpt>
      <trkpt lat="42.54325001500546932220458984375" lon="20.11418622918426990509033203125">
        <ele>1877</ele>
        <time>2026-06-20T06:33:09.000Z</time>
        <extensions>
          <ns3:TrackPointExtension>
            <ns3:atemp>20.0</ns3:atemp>
          </ns3:TrackPointExtension>
        </extensions>
      </trkpt>
      <trkpt lat="42.54325336776673793792724609375" lon="20.11419477872550487518310546875">
        <ele>1877</ele>
        <time>2026-06-20T06:33:10.000Z</time>
        <extensions>
          <ns3:TrackPointExtension>
            <ns3:atemp>20.0</ns3:atemp>
          </ns3:TrackPointExtension>
        </extensions>
      </trkpt>
      <trkpt lat="42.543251104652881622314453125" lon="20.114207603037357330322265625">
        <ele>1876.800048828125</ele>
        <time>2026-06-20T06:33:11.000Z</time>
        <extensions>
          <ns3:TrackPointExtension>
            <ns3:atemp>20.0</ns3:atemp>
          </ns3:TrackPointExtension>
        </extensions>
      </trkpt>
      <trkpt lat="42.54323995672166347503662109375" lon="20.11422612704336643218994140625">
        <ele>1876.800048828125</ele>
        <time>2026-06-20T06:33:12.000Z</time>
        <extensions>
          <ns3:TrackPointExtension>
            <ns3:atemp>20.0</ns3:atemp>
          </ns3:TrackPointExtension>
        </extensions>
      </trkpt>
      <trkpt lat="42.54323358647525310516357421875" lon="20.1142439804971218109130859375">
        <ele>1876.800048828125</ele>
        <time>2026-06-20T06:33:13.000Z</time>
        <extensions>
          <ns3:TrackPointExtension>
            <ns3:atemp>20.0</ns3:atemp>
          </ns3:TrackPointExtension>
        </extensions>
      </trkpt>
      <trkpt lat="42.54323559813201427459716796875" lon="20.11424741707742214202880859375">
        <ele>1876.5999755859375</ele>
        <time>2026-06-20T06:33:14.000Z</time>
        <extensions>
          <ns3:TrackPointExtension>
            <ns3:atemp>20.0</ns3:atemp>
          </ns3:TrackPointExtension>
        </extensions>
      </trkpt>
      <trkpt lat="42.5432338379323482513427734375" lon="20.1142590679228305816650390625">
        <ele>1876.5999755859375</ele>
        <time>2026-06-20T06:33:15.000Z</time>
        <extensions>
          <ns3:TrackPointExtension>
            <ns3:atemp>20.0</ns3:atemp>
          </ns3:TrackPointExtension>
        </extensions>
      </trkpt>
      <trkpt lat="42.54323174245655536651611328125" lon="20.1142694614827632904052734375">
        <ele>1876.5999755859375</ele>
        <time>2026-06-20T06:33:16.000Z</time>
        <extensions>
          <ns3:TrackPointExtension>
            <ns3:atemp>20.0</ns3:atemp>
          </ns3:TrackPointExtension>
        </extensions>
      </trkpt>
      <trkpt lat="42.54322872497141361236572265625" lon="20.11428161524236202239990234375">
        <ele>1876.5999755859375</ele>
        <time>2026-06-20T06:33:17.000Z</time>
        <extensions>
          <ns3:TrackPointExtension>
            <ns3:atemp>20.0</ns3:atemp>
          </ns3:TrackPointExtension>
        </extensions>
      </trkpt>
      <trkpt lat="42.54323056899011135101318359375" lon="20.114290751516819000244140625">
        <ele>1876.5999755859375</ele>
        <time>2026-06-20T06:33:18.000Z</time>
        <extensions>
          <ns3:TrackPointExtension>
            <ns3:atemp>20.0</ns3:atemp>
          </ns3:TrackPointExtension>
        </extensions>
      </trkpt>
      <trkpt lat="42.54323291592299938201904296875" lon="20.11429754085838794708251953125">
        <ele>1876.5999755859375</ele>
        <time>2026-06-20T06:33:19.000Z</time>
        <extensions>
          <ns3:TrackPointExtension>
            <ns3:atemp>20.0</ns3:atemp>
          </ns3:TrackPointExtension>
        </extensions>
      </trkpt>
      <trkpt lat="42.54323576577007770538330078125" lon="20.1143090240657329559326171875">
        <ele>1876.4000244140625</ele>
        <time>2026-06-20T06:33:20.000Z</time>
        <extensions>
          <ns3:TrackPointExtension>
            <ns3:atemp>20.0</ns3:atemp>
          </ns3:TrackPointExtension>
        </extensions>
      </trkpt>
      <trkpt lat="42.54323610104620456695556640625" lon="20.11432050727307796478271484375">
        <ele>1876.4000244140625</ele>
        <time>2026-06-20T06:33:21.000Z</time>
        <extensions>
          <ns3:TrackPointExtension>
            <ns3:atemp>20.0</ns3:atemp>
          </ns3:TrackPointExtension>
        </extensions>
      </trkpt>
      <trkpt lat="42.54323174245655536651611328125" lon="20.11433660052716732025146484375">
        <ele>1876.4000244140625</ele>
        <time>2026-06-20T06:33:22.000Z</time>
        <extensions>
          <ns3:TrackPointExtension>
            <ns3:atemp>20.0</ns3:atemp>
          </ns3:TrackPointExtension>
        </extensions>
      </trkpt>
      <trkpt lat="42.5432311557233333587646484375" lon="20.1143573038280010223388671875">
        <ele>1876.199951171875</ele>
        <time>2026-06-20T06:33:23.000Z</time>
        <extensions>
          <ns3:TrackPointExtension>
            <ns3:atemp>20.0</ns3:atemp>
          </ns3:TrackPointExtension>
        </extensions>
      </trkpt>
      <trkpt lat="42.5432291440665721893310546875" lon="20.11437146924436092376708984375">
        <ele>1876.199951171875</ele>
        <time>2026-06-20T06:33:24.000Z</time>
        <extensions>
          <ns3:TrackPointExtension>
            <ns3:atemp>20.0</ns3:atemp>
          </ns3:TrackPointExtension>
        </extensions>
      </trkpt>
      <trkpt lat="42.543229646980762481689453125" lon="20.114380605518817901611328125">
        <ele>1876.4000244140625</ele>
        <time>2026-06-20T06:33:25.000Z</time>
        <extensions>
          <ns3:TrackPointExtension>
            <ns3:atemp>20.0</ns3:atemp>
          </ns3:TrackPointExtension>
        </extensions>
      </trkpt>
      <trkpt lat="42.54322788678109645843505859375" lon="20.11439091525971889495849609375">
        <ele>1876.4000244140625</ele>
        <time>2026-06-20T06:33:26.000Z</time>
        <extensions>
          <ns3:TrackPointExtension>
            <ns3:atemp>20.0</ns3:atemp>
          </ns3:TrackPointExtension>
        </extensions>
      </trkpt>
      <trkpt lat="42.54322595894336700439453125" lon="20.11438898742198944091796875">
        <ele>1876.4000244140625</ele>
        <time>2026-06-20T06:33:27.000Z</time>
        <extensions>
          <ns3:TrackPointExtension>
            <ns3:atemp>20.0</ns3:atemp>
          </ns3:TrackPointExtension>
        </extensions>
      </trkpt>
      <trkpt lat="42.54322595894336700439453125" lon="20.11438898742198944091796875">
        <ele>1876.4000244140625</ele>
        <time>2026-06-20T06:33:28.000Z</time>
        <extensions>
          <ns3:TrackPointExtension>
            <ns3:atemp>20.0</ns3:atemp>
          </ns3:TrackPointExtension>
        </extensions>
      </trkpt>
      <trkpt lat="42.54322595894336700439453125" lon="20.11438898742198944091796875">
        <ele>1876.4000244140625</ele>
        <time>2026-06-20T06:33:29.000Z</time>
        <extensions>
          <ns3:TrackPointExtension>
            <ns3:atemp>20.0</ns3:atemp>
          </ns3:TrackPointExtension>
        </extensions>
      </trkpt>
      <trkpt lat="42.54322595894336700439453125" lon="20.11438898742198944091796875">
        <ele>1876.5999755859375</ele>
        <time>2026-06-20T06:33:30.000Z</time>
        <extensions>
          <ns3:TrackPointExtension>
            <ns3:atemp>20.0</ns3:atemp>
          </ns3:TrackPointExtension>
        </extensions>
      </trkpt>
      <trkpt lat="42.54322595894336700439453125" lon="20.11438898742198944091796875">
        <ele>1876.5999755859375</ele>
        <time>2026-06-20T06:33:31.000Z</time>
        <extensions>
          <ns3:TrackPointExtension>
            <ns3:atemp>20.0</ns3:atemp>
          </ns3:TrackPointExtension>
        </extensions>
      </trkpt>
      <trkpt lat="42.54322595894336700439453125" lon="20.11438898742198944091796875">
        <ele>1876.5999755859375</ele>
        <time>2026-06-20T06:33:32.000Z</time>
        <extensions>
          <ns3:TrackPointExtension>
            <ns3:atemp>20.0</ns3:atemp>
          </ns3:TrackPointExtension>
        </extensions>
      </trkpt>
      <trkpt lat="42.54322595894336700439453125" lon="20.11438898742198944091796875">
        <ele>1876.5999755859375</ele>
        <time>2026-06-20T06:33:33.000Z</time>
        <extensions>
          <ns3:TrackPointExtension>
            <ns3:atemp>20.0</ns3:atemp>
          </ns3:TrackPointExtension>
        </extensions>
      </trkpt>
      <trkpt lat="42.54322595894336700439453125" lon="20.11438898742198944091796875">
        <ele>1876.5999755859375</ele>
        <time>2026-06-20T06:33:34.000Z</time>
        <extensions>
          <ns3:TrackPointExtension>
            <ns3:atemp>20.0</ns3:atemp>
          </ns3:TrackPointExtension>
        </extensions>
      </trkpt>
      <trkpt lat="42.54322595894336700439453125" lon="20.11438898742198944091796875">
        <ele>1876.5999755859375</ele>
        <time>2026-06-20T06:33:35.000Z</time>
        <extensions>
          <ns3:TrackPointExtension>
            <ns3:atemp>20.0</ns3:atemp>
          </ns3:TrackPointExtension>
        </extensions>
      </trkpt>
      <trkpt lat="42.54322595894336700439453125" lon="20.11438898742198944091796875">
        <ele>1876.5999755859375</ele>
        <time>2026-06-20T06:33:36.000Z</time>
        <extensions>
          <ns3:TrackPointExtension>
            <ns3:atemp>20.0</ns3:atemp>
          </ns3:TrackPointExtension>
        </extensions>
      </trkpt>
      <trkpt lat="42.54322595894336700439453125" lon="20.11438898742198944091796875">
        <ele>1876.5999755859375</ele>
        <time>2026-06-20T06:33:37.000Z</time>
        <extensions>
          <ns3:TrackPointExtension>
            <ns3:atemp>20.0</ns3:atemp>
          </ns3:TrackPointExtension>
        </extensions>
      </trkpt>
      <trkpt lat="42.54322595894336700439453125" lon="20.11438898742198944091796875">
        <ele>1876.5999755859375</ele>
        <time>2026-06-20T06:33:38.000Z</time>
        <extensions>
          <ns3:TrackPointExtension>
            <ns3:atemp>20.0</ns3:atemp>
          </ns3:TrackPointExtension>
        </extensions>
      </trkpt>
      <trkpt lat="42.54322595894336700439453125" lon="20.11438898742198944091796875">
        <ele>1876.5999755859375</ele>
        <time>2026-06-20T06:33:39.000Z</time>
        <extensions>
          <ns3:TrackPointExtension>
            <ns3:atemp>20.0</ns3:atemp>
          </ns3:TrackPointExtension>
        </extensions>
      </trkpt>
      <trkpt lat="42.54322595894336700439453125" lon="20.11438898742198944091796875">
        <ele>1876.5999755859375</ele>
        <time>2026-06-20T06:33:40.000Z</time>
        <extensions>
          <ns3:TrackPointExtension>
            <ns3:atemp>20.0</ns3:atemp>
          </ns3:TrackPointExtension>
        </extensions>
      </trkpt>
      <trkpt lat="42.54322595894336700439453125" lon="20.11438898742198944091796875">
        <ele>1876.5999755859375</ele>
        <time>2026-06-20T06:33:41.000Z</time>
        <extensions>
          <ns3:TrackPointExtension>
            <ns3:atemp>20.0</ns3:atemp>
          </ns3:TrackPointExtension>
        </extensions>
      </trkpt>
      <trkpt lat="42.54322595894336700439453125" lon="20.11438898742198944091796875">
        <ele>1876.5999755859375</ele>
        <time>2026-06-20T06:33:42.000Z</time>
        <extensions>
          <ns3:TrackPointExtension>
            <ns3:atemp>20.0</ns3:atemp>
          </ns3:TrackPointExtension>
        </extensions>
      </trkpt>
      <trkpt lat="42.54322595894336700439453125" lon="20.11438898742198944091796875">
        <ele>1876.5999755859375</ele>
        <time>2026-06-20T06:33:43.000Z</time>
        <extensions>
          <ns3:TrackPointExtension>
            <ns3:atemp>20.0</ns3:atemp>
          </ns3:TrackPointExtension>
        </extensions>
      </trkpt>
      <trkpt lat="42.54322595894336700439453125" lon="20.11438898742198944091796875">
        <ele>1876.5999755859375</ele>
        <time>2026-06-20T06:33:44.000Z</time>
        <extensions>
          <ns3:TrackPointExtension>
            <ns3:atemp>20.0</ns3:atemp>
          </ns3:TrackPointExtension>
        </extensions>
      </trkpt>
      <trkpt lat="42.54322595894336700439453125" lon="20.11438898742198944091796875">
        <ele>1876.5999755859375</ele>
        <time>2026-06-20T06:33:45.000Z</time>
        <extensions>
          <ns3:TrackPointExtension>
            <ns3:atemp>20.0</ns3:atemp>
          </ns3:TrackPointExtension>
        </extensions>
      </trkpt>
      <trkpt lat="42.54322595894336700439453125" lon="20.11438898742198944091796875">
        <ele>1876.5999755859375</ele>
        <time>2026-06-20T06:33:46.000Z</time>
        <extensions>
          <ns3:TrackPointExtension>
            <ns3:atemp>20.0</ns3:atemp>
          </ns3:TrackPointExtension>
        </extensions>
      </trkpt>
      <trkpt lat="42.54322595894336700439453125" lon="20.11438898742198944091796875">
        <ele>1876.5999755859375</ele>
        <time>2026-06-20T06:33:47.000Z</time>
        <extensions>
          <ns3:TrackPointExtension>
            <ns3:atemp>20.0</ns3:atemp>
          </ns3:TrackPointExtension>
        </extensions>
      </trkpt>
      <trkpt lat="42.54322595894336700439453125" lon="20.11438898742198944091796875">
        <ele>1876.5999755859375</ele>
        <time>2026-06-20T06:33:48.000Z</time>
        <extensions>
          <ns3:TrackPointExtension>
            <ns3:atemp>20.0</ns3:atemp>
          </ns3:TrackPointExtension>
        </extensions>
      </trkpt>
      <trkpt lat="42.54322595894336700439453125" lon="20.11438898742198944091796875">
        <ele>1876.5999755859375</ele>
        <time>2026-06-20T06:33:49.000Z</time>
        <extensions>
          <ns3:TrackPointExtension>
            <ns3:atemp>20.0</ns3:atemp>
          </ns3:TrackPointExtension>
        </extensions>
      </trkpt>
      <trkpt lat="42.54322595894336700439453125" lon="20.11438898742198944091796875">
        <ele>1876.5999755859375</ele>
        <time>2026-06-20T06:33:50.000Z</time>
        <extensions>
          <ns3:TrackPointExtension>
            <ns3:atemp>20.0</ns3:atemp>
          </ns3:TrackPointExtension>
        </extensions>
      </trkpt>
      <trkpt lat="42.54322595894336700439453125" lon="20.11438898742198944091796875">
        <ele>1876.800048828125</ele>
        <time>2026-06-20T06:33:51.000Z</time>
        <extensions>
          <ns3:TrackPointExtension>
            <ns3:atemp>20.0</ns3:atemp>
          </ns3:TrackPointExtension>
        </extensions>
      </trkpt>
      <trkpt lat="42.54322595894336700439453125" lon="20.11438898742198944091796875">
        <ele>1876.800048828125</ele>
        <time>2026-06-20T06:33:52.000Z</time>
        <extensions>
          <ns3:TrackPointExtension>
            <ns3:atemp>20.0</ns3:atemp>
          </ns3:TrackPointExtension>
        </extensions>
      </trkpt>
      <trkpt lat="42.54322595894336700439453125" lon="20.11438898742198944091796875">
        <ele>1876.800048828125</ele>
        <time>2026-06-20T06:33:53.000Z</time>
        <extensions>
          <ns3:TrackPointExtension>
            <ns3:atemp>20.0</ns3:atemp>
          </ns3:TrackPointExtension>
        </extensions>
      </trkpt>
      <trkpt lat="42.54322595894336700439453125" lon="20.11438898742198944091796875">
        <ele>1876.800048828125</ele>
        <time>2026-06-20T06:33:54.000Z</time>
        <extensions>
          <ns3:TrackPointExtension>
            <ns3:atemp>20.0</ns3:atemp>
          </ns3:TrackPointExtension>
        </extensions>
      </trkpt>
      <trkpt lat="42.5432281382381916046142578125" lon="20.114390663802623748779296875">
        <ele>1876.5999755859375</ele>
        <time>2026-06-20T06:33:55.000Z</time>
        <extensions>
          <ns3:TrackPointExtension>
            <ns3:atemp>20.0</ns3:atemp>
          </ns3:TrackPointExtension>
        </extensions>
      </trkpt>
      <trkpt lat="42.543237693607807159423828125" lon="20.11441824026405811309814453125">
        <ele>1876.5999755859375</ele>
        <time>2026-06-20T06:33:56.000Z</time>
        <extensions>
          <ns3:TrackPointExtension>
            <ns3:atemp>20.0</ns3:atemp>
          </ns3:TrackPointExtension>
        </extensions>
      </trkpt>
      <trkpt lat="42.54324079491198062896728515625" lon="20.11444053612649440765380859375">
        <ele>1876.4000244140625</ele>
        <time>2026-06-20T06:33:57.000Z</time>
        <extensions>
          <ns3:TrackPointExtension>
            <ns3:atemp>20.0</ns3:atemp>
          </ns3:TrackPointExtension>
        </extensions>
      </trkpt>
      <trkpt lat="42.543238364160060882568359375" lon="20.114459730684757232666015625">
        <ele>1876.4000244140625</ele>
        <time>2026-06-20T06:33:58.000Z</time>
        <extensions>
          <ns3:TrackPointExtension>
            <ns3:atemp>20.0</ns3:atemp>
          </ns3:TrackPointExtension>
        </extensions>
      </trkpt>
      <trkpt lat="42.5432304851710796356201171875" lon="20.11447842232882976531982421875">
        <ele>1876.4000244140625</ele>
        <time>2026-06-20T06:33:59.000Z</time>
        <extensions>
          <ns3:TrackPointExtension>
            <ns3:atemp>20.0</ns3:atemp>
          </ns3:TrackPointExtension>
        </extensions>
      </trkpt>
      <trkpt lat="42.54322838969528675079345703125" lon="20.11450340040028095245361328125">
        <ele>1876.4000244140625</ele>
        <time>2026-06-20T06:34:00.000Z</time>
        <extensions>
          <ns3:TrackPointExtension>
            <ns3:atemp>20.0</ns3:atemp>
          </ns3:TrackPointExtension>
        </extensions>
      </trkpt>
      <trkpt lat="42.54323191009461879730224609375" lon="20.11452854610979557037353515625">
        <ele>1876.4000244140625</ele>
        <time>2026-06-20T06:34:01.000Z</time>
        <extensions>
          <ns3:TrackPointExtension>
            <ns3:atemp>20.0</ns3:atemp>
          </ns3:TrackPointExtension>
        </extensions>
      </trkpt>
      <trkpt lat="42.543235011398792266845703125" lon="20.11455595493316650390625">
        <ele>1876.4000244140625</ele>
        <time>2026-06-20T06:34:02.000Z</time>
        <extensions>
          <ns3:TrackPointExtension>
            <ns3:atemp>20.0</ns3:atemp>
          </ns3:TrackPointExtension>
        </extensions>
      </trkpt>
      <trkpt lat="42.54323325119912624359130859375" lon="20.11457263492047786712646484375">
        <ele>1876.4000244140625</ele>
        <time>2026-06-20T06:34:03.000Z</time>
        <extensions>
          <ns3:TrackPointExtension>
            <ns3:atemp>20.0</ns3:atemp>
          </ns3:TrackPointExtension>
        </extensions>
      </trkpt>
      <trkpt lat="42.54323777742683887481689453125" lon="20.11458738707005977630615234375">
        <ele>1876.5999755859375</ele>
        <time>2026-06-20T06:34:04.000Z</time>
        <extensions>
          <ns3:TrackPointExtension>
            <ns3:atemp>20.0</ns3:atemp>
          </ns3:TrackPointExtension>
        </extensions>
      </trkpt>
      <trkpt lat="42.54323760978877544403076171875" lon="20.11459945701062679290771484375">
        <ele>1876.5999755859375</ele>
        <time>2026-06-20T06:34:05.000Z</time>
        <extensions>
          <ns3:TrackPointExtension>
            <ns3:atemp>20.0</ns3:atemp>
          </ns3:TrackPointExtension>
        </extensions>
      </trkpt>
      <trkpt lat="42.543237693607807159423828125" lon="20.11459962464869022369384765625">
        <ele>1876.800048828125</ele>
        <time>2026-06-20T06:34:06.000Z</time>
        <extensions>
          <ns3:TrackPointExtension>
            <ns3:atemp>20.0</ns3:atemp>
          </ns3:TrackPointExtension>
        </extensions>
      </trkpt>
      <trkpt lat="42.543237693607807159423828125" lon="20.11459962464869022369384765625">
        <ele>1876.800048828125</ele>
        <time>2026-06-20T06:34:07.000Z</time>
        <extensions>
          <ns3:TrackPointExtension>
            <ns3:atemp>20.0</ns3:atemp>
          </ns3:TrackPointExtension>
        </extensions>
      </trkpt>
      <trkpt lat="42.543237693607807159423828125" lon="20.11459962464869022369384765625">
        <ele>1876.800048828125</ele>
        <time>2026-06-20T06:34:08.000Z</time>
        <extensions>
          <ns3:TrackPointExtension>
            <ns3:atemp>20.0</ns3:atemp>
          </ns3:TrackPointExtension>
        </extensions>
      </trkpt>
      <trkpt lat="42.54323794506490230560302734375" lon="20.1146002113819122314453125">
        <ele>1876.800048828125</ele>
        <time>2026-06-20T06:34:09.000Z</time>
        <extensions>
          <ns3:TrackPointExtension>
            <ns3:atemp>20.0</ns3:atemp>
          </ns3:TrackPointExtension>
        </extensions>
      </trkpt>
      <trkpt lat="42.543253116309642791748046875" lon="20.1146127842366695404052734375">
        <ele>1876.800048828125</ele>
        <time>2026-06-20T06:34:10.000Z</time>
        <extensions>
          <ns3:TrackPointExtension>
            <ns3:atemp>20.0</ns3:atemp>
          </ns3:TrackPointExtension>
        </extensions>
      </trkpt>
      <trkpt lat="42.54326594062149524688720703125" lon="20.1146188192069530487060546875">
        <ele>1876.5999755859375</ele>
        <time>2026-06-20T06:34:11.000Z</time>
        <extensions>
          <ns3:TrackPointExtension>
            <ns3:atemp>20.0</ns3:atemp>
          </ns3:TrackPointExtension>
        </extensions>
      </trkpt>
      <trkpt lat="42.5432764180004596710205078125" lon="20.11462368071079254150390625">
        <ele>1876.5999755859375</ele>
        <time>2026-06-20T06:34:12.000Z</time>
        <extensions>
          <ns3:TrackPointExtension>
            <ns3:atemp>20.0</ns3:atemp>
          </ns3:TrackPointExtension>
        </extensions>
      </trkpt>
      <trkpt lat="42.5432789325714111328125" lon="20.114628374576568603515625">
        <ele>1876.4000244140625</ele>
        <time>2026-06-20T06:34:13.000Z</time>
        <extensions>
          <ns3:TrackPointExtension>
            <ns3:atemp>20.0</ns3:atemp>
          </ns3:TrackPointExtension>
        </extensions>
      </trkpt>
      <trkpt lat="42.5432789325714111328125" lon="20.114628374576568603515625">
        <ele>1876.4000244140625</ele>
        <time>2026-06-20T06:34:14.000Z</time>
        <extensions>
          <ns3:TrackPointExtension>
            <ns3:atemp>20.0</ns3:atemp>
          </ns3:TrackPointExtension>
        </extensions>
      </trkpt>
      <trkpt lat="42.5432789325714111328125" lon="20.114628374576568603515625">
        <ele>1876.4000244140625</ele>
        <time>2026-06-20T06:34:15.000Z</time>
        <extensions>
          <ns3:TrackPointExtension>
            <ns3:atemp>20.0</ns3:atemp>
          </ns3:TrackPointExtension>
        </extensions>
      </trkpt>
      <trkpt lat="42.5432789325714111328125" lon="20.114628374576568603515625">
        <ele>1876.4000244140625</ele>
        <time>2026-06-20T06:34:16.000Z</time>
        <extensions>
          <ns3:TrackPointExtension>
            <ns3:atemp>20.0</ns3:atemp>
          </ns3:TrackPointExtension>
        </extensions>
      </trkpt>
      <trkpt lat="42.5432789325714111328125" lon="20.114628374576568603515625">
        <ele>1876.4000244140625</ele>
        <time>2026-06-20T06:34:17.000Z</time>
        <extensions>
          <ns3:TrackPointExtension>
            <ns3:atemp>20.0</ns3:atemp>
          </ns3:TrackPointExtension>
        </extensions>
      </trkpt>
      <trkpt lat="42.5432789325714111328125" lon="20.114628374576568603515625">
        <ele>1876.5999755859375</ele>
        <time>2026-06-20T06:34:18.000Z</time>
        <extensions>
          <ns3:TrackPointExtension>
            <ns3:atemp>20.0</ns3:atemp>
          </ns3:TrackPointExtension>
        </extensions>
      </trkpt>
      <trkpt lat="42.5432789325714111328125" lon="20.114628374576568603515625">
        <ele>1876.4000244140625</ele>
        <time>2026-06-20T06:34:19.000Z</time>
        <extensions>
          <ns3:TrackPointExtension>
            <ns3:atemp>20.0</ns3:atemp>
          </ns3:TrackPointExtension>
        </extensions>
      </trkpt>
      <trkpt lat="42.5432789325714111328125" lon="20.114628374576568603515625">
        <ele>1876.4000244140625</ele>
        <time>2026-06-20T06:34:20.000Z</time>
        <extensions>
          <ns3:TrackPointExtension>
            <ns3:atemp>20.0</ns3:atemp>
          </ns3:TrackPointExtension>
        </extensions>
      </trkpt>
      <trkpt lat="42.54327901639044284820556640625" lon="20.114628039300441741943359375">
        <ele>1876.4000244140625</ele>
        <time>2026-06-20T06:34:21.000Z</time>
        <extensions>
          <ns3:TrackPointExtension>
            <ns3:atemp>20.0</ns3:atemp>
          </ns3:TrackPointExtension>
        </extensions>
      </trkpt>
      <trkpt lat="42.543286979198455810546875" lon="20.11463214643299579620361328125">
        <ele>1876.4000244140625</ele>
        <time>2026-06-20T06:34:22.000Z</time>
        <extensions>
          <ns3:TrackPointExtension>
            <ns3:atemp>20.0</ns3:atemp>
          </ns3:TrackPointExtension>
        </extensions>
      </trkpt>
      <trkpt lat="42.54329209215939044952392578125" lon="20.11464270763099193572998046875">
        <ele>1876.4000244140625</ele>
        <time>2026-06-20T06:34:23.000Z</time>
        <extensions>
          <ns3:TrackPointExtension>
            <ns3:atemp>20.0</ns3:atemp>
          </ns3:TrackPointExtension>
        </extensions>
      </trkpt>
      <trkpt lat="42.54329678602516651153564453125" lon="20.1146587170660495758056640625">
        <ele>1876.4000244140625</ele>
        <time>2026-06-20T06:34:24.000Z</time>
        <extensions>
          <ns3:TrackPointExtension>
            <ns3:atemp>20.0</ns3:atemp>
          </ns3:TrackPointExtension>
        </extensions>
      </trkpt>
      <trkpt lat="42.543301396071910858154296875" lon="20.11467573232948780059814453125">
        <ele>1876.4000244140625</ele>
        <time>2026-06-20T06:34:25.000Z</time>
        <extensions>
          <ns3:TrackPointExtension>
            <ns3:atemp>20.0</ns3:atemp>
          </ns3:TrackPointExtension>
        </extensions>
      </trkpt>
      <trkpt lat="42.54330374300479888916015625" lon="20.11468528769910335540771484375">
        <ele>1876.4000244140625</ele>
        <time>2026-06-20T06:34:26.000Z</time>
        <extensions>
          <ns3:TrackPointExtension>
            <ns3:atemp>20.0</ns3:atemp>
          </ns3:TrackPointExtension>
        </extensions>
      </trkpt>
      <trkpt lat="42.54330567084252834320068359375" lon="20.1146858744323253631591796875">
        <ele>1876.4000244140625</ele>
        <time>2026-06-20T06:34:27.000Z</time>
        <extensions>
          <ns3:TrackPointExtension>
            <ns3:atemp>20.0</ns3:atemp>
          </ns3:TrackPointExtension>
        </extensions>
      </trkpt>
      <trkpt lat="42.54330567084252834320068359375" lon="20.11468595825135707855224609375">
        <ele>1876.4000244140625</ele>
        <time>2026-06-20T06:34:28.000Z</time>
        <extensions>
          <ns3:TrackPointExtension>
            <ns3:atemp>20.0</ns3:atemp>
          </ns3:TrackPointExtension>
        </extensions>
      </trkpt>
      <trkpt lat="42.54330567084252834320068359375" lon="20.11468595825135707855224609375">
        <ele>1876.4000244140625</ele>
        <time>2026-06-20T06:34:29.000Z</time>
        <extensions>
          <ns3:TrackPointExtension>
            <ns3:atemp>20.0</ns3:atemp>
          </ns3:TrackPointExtension>
        </extensions>
      </trkpt>
      <trkpt lat="42.54330567084252834320068359375" lon="20.1146862097084522247314453125">
        <ele>1876.4000244140625</ele>
        <time>2026-06-20T06:34:30.000Z</time>
        <extensions>
          <ns3:TrackPointExtension>
            <ns3:atemp>20.0</ns3:atemp>
          </ns3:TrackPointExtension>
        </extensions>
      </trkpt>
      <trkpt lat="42.54331069998443126678466796875" lon="20.11470154859125614166259765625">
        <ele>1876.4000244140625</ele>
        <time>2026-06-20T06:34:31.000Z</time>
        <extensions>
          <ns3:TrackPointExtension>
            <ns3:atemp>20.0</ns3:atemp>
          </ns3:TrackPointExtension>
        </extensions>
      </trkpt>
      <trkpt lat="42.5433143042027950286865234375" lon="20.114717893302440643310546875">
        <ele>1876.4000244140625</ele>
        <time>2026-06-20T06:34:32.000Z</time>
        <extensions>
          <ns3:TrackPointExtension>
            <ns3:atemp>20.0</ns3:atemp>
          </ns3:TrackPointExtension>
        </extensions>
      </trkpt>
      <trkpt lat="42.543317489326000213623046875" lon="20.1147375069558620452880859375">
        <ele>1876.199951171875</ele>
        <time>2026-06-20T06:34:33.000Z</time>
        <extensions>
          <ns3:TrackPointExtension>
            <ns3:atemp>20.0</ns3:atemp>
          </ns3:TrackPointExtension>
        </extensions>
      </trkpt>
      <trkpt lat="42.54331941716372966766357421875" lon="20.11475401930510997772216796875">
        <ele>1876.4000244140625</ele>
        <time>2026-06-20T06:34:34.000Z</time>
        <extensions>
          <ns3:TrackPointExtension>
            <ns3:atemp>20.0</ns3:atemp>
          </ns3:TrackPointExtension>
        </extensions>
      </trkpt>
      <trkpt lat="42.5433189980685710906982421875" lon="20.11475854553282260894775390625">
        <ele>1876.4000244140625</ele>
        <time>2026-06-20T06:34:35.000Z</time>
        <extensions>
          <ns3:TrackPointExtension>
            <ns3:atemp>20.0</ns3:atemp>
          </ns3:TrackPointExtension>
        </extensions>
      </trkpt>
      <trkpt lat="42.54331941716372966766357421875" lon="20.11476106010377407073974609375">
        <ele>1876.4000244140625</ele>
        <time>2026-06-20T06:34:36.000Z</time>
        <extensions>
          <ns3:TrackPointExtension>
            <ns3:atemp>20.0</ns3:atemp>
          </ns3:TrackPointExtension>
        </extensions>
      </trkpt>
      <trkpt lat="42.54332360811531543731689453125" lon="20.11476449668407440185546875">
        <ele>1876.4000244140625</ele>
        <time>2026-06-20T06:34:37.000Z</time>
        <extensions>
          <ns3:TrackPointExtension>
            <ns3:atemp>20.0</ns3:atemp>
          </ns3:TrackPointExtension>
        </extensions>
      </trkpt>
      <trkpt lat="42.543332576751708984375" lon="20.1147743873298168182373046875">
        <ele>1876.4000244140625</ele>
        <time>2026-06-20T06:34:38.000Z</time>
        <extensions>
          <ns3:TrackPointExtension>
            <ns3:atemp>20.0</ns3:atemp>
          </ns3:TrackPointExtension>
        </extensions>
      </trkpt>
      <trkpt lat="42.54333727061748504638671875" lon="20.1147797517478466033935546875">
        <ele>1876.4000244140625</ele>
        <time>2026-06-20T06:34:39.000Z</time>
        <extensions>
          <ns3:TrackPointExtension>
            <ns3:atemp>20.0</ns3:atemp>
          </ns3:TrackPointExtension>
        </extensions>
      </trkpt>
      <trkpt lat="42.54333634860813617706298828125" lon="20.11478134430944919586181640625">
        <ele>1876.4000244140625</ele>
        <time>2026-06-20T06:34:40.000Z</time>
        <extensions>
          <ns3:TrackPointExtension>
            <ns3:atemp>20.0</ns3:atemp>
          </ns3:TrackPointExtension>
        </extensions>
      </trkpt>
      <trkpt lat="42.54333634860813617706298828125" lon="20.11478151194751262664794921875">
        <ele>1876.4000244140625</ele>
        <time>2026-06-20T06:34:41.000Z</time>
        <extensions>
          <ns3:TrackPointExtension>
            <ns3:atemp>20.0</ns3:atemp>
          </ns3:TrackPointExtension>
        </extensions>
      </trkpt>
      <trkpt lat="42.54333634860813617706298828125" lon="20.11478167958557605743408203125">
        <ele>1876.4000244140625</ele>
        <time>2026-06-20T06:34:42.000Z</time>
        <extensions>
          <ns3:TrackPointExtension>
            <ns3:atemp>20.0</ns3:atemp>
          </ns3:TrackPointExtension>
        </extensions>
      </trkpt>
      <trkpt lat="42.54334020428359508514404296875" lon="20.11479534208774566650390625">
        <ele>1876.5999755859375</ele>
        <time>2026-06-20T06:34:43.000Z</time>
        <extensions>
          <ns3:TrackPointExtension>
            <ns3:atemp>20.0</ns3:atemp>
          </ns3:TrackPointExtension>
        </extensions>
      </trkpt>
      <trkpt lat="42.5433451496064662933349609375" lon="20.11480749584734439849853515625">
        <ele>1876.5999755859375</ele>
        <time>2026-06-20T06:34:44.000Z</time>
        <extensions>
          <ns3:TrackPointExtension>
            <ns3:atemp>20.0</ns3:atemp>
          </ns3:TrackPointExtension>
        </extensions>
      </trkpt>
      <trkpt lat="42.54335596226155757904052734375" lon="20.1148186437785625457763671875">
        <ele>1876.5999755859375</ele>
        <time>2026-06-20T06:34:45.000Z</time>
        <extensions>
          <ns3:TrackPointExtension>
            <ns3:atemp>20.0</ns3:atemp>
          </ns3:TrackPointExtension>
        </extensions>
      </trkpt>
      <trkpt lat="42.5433676131069660186767578125" lon="20.11482744477689266204833984375">
        <ele>1876.4000244140625</ele>
        <time>2026-06-20T06:34:46.000Z</time>
        <extensions>
          <ns3:TrackPointExtension>
            <ns3:atemp>20.0</ns3:atemp>
          </ns3:TrackPointExtension>
        </extensions>
      </trkpt>
      <trkpt lat="42.5433810241520404815673828125" lon="20.11483750306069850921630859375">
        <ele>1876.4000244140625</ele>
        <time>2026-06-20T06:34:47.000Z</time>
        <extensions>
          <ns3:TrackPointExtension>
            <ns3:atemp>20.0</ns3:atemp>
          </ns3:TrackPointExtension>
        </extensions>
      </trkpt>
      <trkpt lat="42.54339317791163921356201171875" lon="20.1148551888763904571533203125">
        <ele>1876.199951171875</ele>
        <time>2026-06-20T06:34:48.000Z</time>
        <extensions>
          <ns3:TrackPointExtension>
            <ns3:atemp>20.0</ns3:atemp>
          </ns3:TrackPointExtension>
        </extensions>
      </trkpt>
      <trkpt lat="42.5434009730815887451171875" lon="20.11487287469208240509033203125">
        <ele>1876.199951171875</ele>
        <time>2026-06-20T06:34:49.000Z</time>
        <extensions>
          <ns3:TrackPointExtension>
            <ns3:atemp>20.0</ns3:atemp>
          </ns3:TrackPointExtension>
        </extensions>
      </trkpt>
      <trkpt lat="42.5434111990034580230712890625" lon="20.11488662101328372955322265625">
        <ele>1876.199951171875</ele>
        <time>2026-06-20T06:34:50.000Z</time>
        <extensions>
          <ns3:TrackPointExtension>
            <ns3:atemp>20.0</ns3:atemp>
          </ns3:TrackPointExtension>
        </extensions>
      </trkpt>
      <trkpt lat="42.5434192456305027008056640625" lon="20.11489030905067920684814453125">
        <ele>1876.4000244140625</ele>
        <time>2026-06-20T06:34:51.000Z</time>
        <extensions>
          <ns3:TrackPointExtension>
            <ns3:atemp>20.0</ns3:atemp>
          </ns3:TrackPointExtension>
        </extensions>
      </trkpt>
      <trkpt lat="42.54342402331531047821044921875" lon="20.114896595478057861328125">
        <ele>1876.5999755859375</ele>
        <time>2026-06-20T06:34:52.000Z</time>
        <extensions>
          <ns3:TrackPointExtension>
            <ns3:atemp>20.0</ns3:atemp>
          </ns3:TrackPointExtension>
        </extensions>
      </trkpt>
      <trkpt lat="42.54343374632298946380615234375" lon="20.11489885859191417694091796875">
        <ele>1876.5999755859375</ele>
        <time>2026-06-20T06:34:53.000Z</time>
        <extensions>
          <ns3:TrackPointExtension>
            <ns3:atemp>20.0</ns3:atemp>
          </ns3:TrackPointExtension>
        </extensions>
      </trkpt>
      <trkpt lat="42.5434427149593830108642578125" lon="20.11489701457321643829345703125">
        <ele>1876.800048828125</ele>
        <time>2026-06-20T06:34:54.000Z</time>
        <extensions>
          <ns3:TrackPointExtension>
            <ns3:atemp>20.0</ns3:atemp>
          </ns3:TrackPointExtension>
        </extensions>
      </trkpt>
      <trkpt lat="42.54345260560512542724609375" lon="20.11490187607705593109130859375">
        <ele>1876.800048828125</ele>
        <time>2026-06-20T06:34:55.000Z</time>
        <extensions>
          <ns3:TrackPointExtension>
            <ns3:atemp>20.0</ns3:atemp>
          </ns3:TrackPointExtension>
        </extensions>
      </trkpt>
      <trkpt lat="42.543462999165058135986328125" lon="20.11489994823932647705078125">
        <ele>1877</ele>
        <time>2026-06-20T06:34:56.000Z</time>
        <extensions>
          <ns3:TrackPointExtension>
            <ns3:atemp>20.0</ns3:atemp>
          </ns3:TrackPointExtension>
        </extensions>
      </trkpt>
      <trkpt lat="42.54347079433500766754150390625" lon="20.1148997806012630462646484375">
        <ele>1877</ele>
        <time>2026-06-20T06:34:57.000Z</time>
        <extensions>
          <ns3:TrackPointExtension>
            <ns3:atemp>20.0</ns3:atemp>
          </ns3:TrackPointExtension>
        </extensions>
      </trkpt>
      <trkpt lat="42.54347699694335460662841796875" lon="20.11490724049508571624755859375">
        <ele>1877.199951171875</ele>
        <time>2026-06-20T06:34:58.000Z</time>
        <extensions>
          <ns3:TrackPointExtension>
            <ns3:atemp>20.0</ns3:atemp>
          </ns3:TrackPointExtension>
        </extensions>
      </trkpt>
      <trkpt lat="42.5434799306094646453857421875" lon="20.11491067707538604736328125">
        <ele>1877.4000244140625</ele>
        <time>2026-06-20T06:34:59.000Z</time>
        <extensions>
          <ns3:TrackPointExtension>
            <ns3:atemp>20.0</ns3:atemp>
          </ns3:TrackPointExtension>
        </extensions>
      </trkpt>
      <trkpt lat="42.54347850568592548370361328125" lon="20.1149121858179569244384765625">
        <ele>1877.5999755859375</ele>
        <time>2026-06-20T06:35:00.000Z</time>
        <extensions>
          <ns3:TrackPointExtension>
            <ns3:atemp>20.0</ns3:atemp>
          </ns3:TrackPointExtension>
        </extensions>
      </trkpt>
      <trkpt lat="42.54347900860011577606201171875" lon="20.11491176672279834747314453125">
        <ele>1877.5999755859375</ele>
        <time>2026-06-20T06:35:01.000Z</time>
        <extensions>
          <ns3:TrackPointExtension>
            <ns3:atemp>20.0</ns3:atemp>
          </ns3:TrackPointExtension>
        </extensions>
      </trkpt>
      <trkpt lat="42.54347900860011577606201171875" lon="20.11491176672279834747314453125">
        <ele>1877.5999755859375</ele>
        <time>2026-06-20T06:35:02.000Z</time>
        <extensions>
          <ns3:TrackPointExtension>
            <ns3:atemp>20.0</ns3:atemp>
          </ns3:TrackPointExtension>
        </extensions>
      </trkpt>
      <trkpt lat="42.54347900860011577606201171875" lon="20.11491176672279834747314453125">
        <ele>1877.800048828125</ele>
        <time>2026-06-20T06:35:03.000Z</time>
        <extensions>
          <ns3:TrackPointExtension>
            <ns3:atemp>20.0</ns3:atemp>
          </ns3:TrackPointExtension>
        </extensions>
      </trkpt>
      <trkpt lat="42.54347900860011577606201171875" lon="20.11491176672279834747314453125">
        <ele>1877.800048828125</ele>
        <time>2026-06-20T06:35:04.000Z</time>
        <extensions>
          <ns3:TrackPointExtension>
            <ns3:atemp>20.0</ns3:atemp>
          </ns3:TrackPointExtension>
        </extensions>
      </trkpt>
      <trkpt lat="42.54347900860011577606201171875" lon="20.11491176672279834747314453125">
        <ele>1877.800048828125</ele>
        <time>2026-06-20T06:35:05.000Z</time>
        <extensions>
          <ns3:TrackPointExtension>
            <ns3:atemp>20.0</ns3:atemp>
          </ns3:TrackPointExtension>
        </extensions>
      </trkpt>
      <trkpt lat="42.54347900860011577606201171875" lon="20.11491176672279834747314453125">
        <ele>1877.800048828125</ele>
        <time>2026-06-20T06:35:06.000Z</time>
        <extensions>
          <ns3:TrackPointExtension>
            <ns3:atemp>20.0</ns3:atemp>
          </ns3:TrackPointExtension>
        </extensions>
      </trkpt>
      <trkpt lat="42.54347900860011577606201171875" lon="20.11491176672279834747314453125">
        <ele>1877.800048828125</ele>
        <time>2026-06-20T06:35:07.000Z</time>
        <extensions>
          <ns3:TrackPointExtension>
            <ns3:atemp>20.0</ns3:atemp>
          </ns3:TrackPointExtension>
        </extensions>
      </trkpt>
      <trkpt lat="42.54347900860011577606201171875" lon="20.11491176672279834747314453125">
        <ele>1877.800048828125</ele>
        <time>2026-06-20T06:35:08.000Z</time>
        <extensions>
          <ns3:TrackPointExtension>
            <ns3:atemp>20.0</ns3:atemp>
          </ns3:TrackPointExtension>
        </extensions>
      </trkpt>
      <trkpt lat="42.54347900860011577606201171875" lon="20.11491176672279834747314453125">
        <ele>1877.800048828125</ele>
        <time>2026-06-20T06:35:09.000Z</time>
        <extensions>
          <ns3:TrackPointExtension>
            <ns3:atemp>20.0</ns3:atemp>
          </ns3:TrackPointExtension>
        </extensions>
      </trkpt>
      <trkpt lat="42.54347900860011577606201171875" lon="20.11491176672279834747314453125">
        <ele>1878</ele>
        <time>2026-06-20T06:35:10.000Z</time>
        <extensions>
          <ns3:TrackPointExtension>
            <ns3:atemp>20.0</ns3:atemp>
          </ns3:TrackPointExtension>
        </extensions>
      </trkpt>
      <trkpt lat="42.54347900860011577606201171875" lon="20.11491176672279834747314453125">
        <ele>1878</ele>
        <time>2026-06-20T06:35:11.000Z</time>
        <extensions>
          <ns3:TrackPointExtension>
            <ns3:atemp>20.0</ns3:atemp>
          </ns3:TrackPointExtension>
        </extensions>
      </trkpt>
      <trkpt lat="42.54347900860011577606201171875" lon="20.11491176672279834747314453125">
        <ele>1878</ele>
        <time>2026-06-20T06:35:12.000Z</time>
        <extensions>
          <ns3:TrackPointExtension>
            <ns3:atemp>20.0</ns3:atemp>
          </ns3:TrackPointExtension>
        </extensions>
      </trkpt>
      <trkpt lat="42.54347900860011577606201171875" lon="20.11491176672279834747314453125">
        <ele>1878</ele>
        <time>2026-06-20T06:35:13.000Z</time>
        <extensions>
          <ns3:TrackPointExtension>
            <ns3:atemp>20.0</ns3:atemp>
          </ns3:TrackPointExtension>
        </extensions>
      </trkpt>
      <trkpt lat="42.5434802658855915069580078125" lon="20.1149108447134494781494140625">
        <ele>1878</ele>
        <time>2026-06-20T06:35:14.000Z</time>
        <extensions>
          <ns3:TrackPointExtension>
            <ns3:atemp>20.0</ns3:atemp>
          </ns3:TrackPointExtension>
        </extensions>
      </trkpt>
      <trkpt lat="42.543491162359714508056640625" lon="20.11491109617054462432861328125">
        <ele>1878.199951171875</ele>
        <time>2026-06-20T06:35:15.000Z</time>
        <extensions>
          <ns3:TrackPointExtension>
            <ns3:atemp>20.0</ns3:atemp>
          </ns3:TrackPointExtension>
        </extensions>
      </trkpt>
      <trkpt lat="42.54349778406322002410888671875" lon="20.1149101741611957550048828125">
        <ele>1878.199951171875</ele>
        <time>2026-06-20T06:35:16.000Z</time>
        <extensions>
          <ns3:TrackPointExtension>
            <ns3:atemp>20.0</ns3:atemp>
          </ns3:TrackPointExtension>
        </extensions>
      </trkpt>
      <trkpt lat="42.54349778406322002410888671875" lon="20.1149101741611957550048828125">
        <ele>1878.199951171875</ele>
        <time>2026-06-20T06:35:17.000Z</time>
        <extensions>
          <ns3:TrackPointExtension>
            <ns3:atemp>20.0</ns3:atemp>
          </ns3:TrackPointExtension>
        </extensions>
      </trkpt>
      <trkpt lat="42.54349778406322002410888671875" lon="20.1149101741611957550048828125">
        <ele>1878.4000244140625</ele>
        <time>2026-06-20T06:35:18.000Z</time>
        <extensions>
          <ns3:TrackPointExtension>
            <ns3:atemp>20.0</ns3:atemp>
          </ns3:TrackPointExtension>
        </extensions>
      </trkpt>
      <trkpt lat="42.54349778406322002410888671875" lon="20.1149101741611957550048828125">
        <ele>1878.4000244140625</ele>
        <time>2026-06-20T06:35:19.000Z</time>
        <extensions>
          <ns3:TrackPointExtension>
            <ns3:atemp>20.0</ns3:atemp>
          </ns3:TrackPointExtension>
        </extensions>
      </trkpt>
      <trkpt lat="42.54349778406322002410888671875" lon="20.1149101741611957550048828125">
        <ele>1878.4000244140625</ele>
        <time>2026-06-20T06:35:20.000Z</time>
        <extensions>
          <ns3:TrackPointExtension>
            <ns3:atemp>20.0</ns3:atemp>
          </ns3:TrackPointExtension>
        </extensions>
      </trkpt>
      <trkpt lat="42.54349778406322002410888671875" lon="20.1149101741611957550048828125">
        <ele>1878.4000244140625</ele>
        <time>2026-06-20T06:35:21.000Z</time>
        <extensions>
          <ns3:TrackPointExtension>
            <ns3:atemp>20.0</ns3:atemp>
          </ns3:TrackPointExtension>
        </extensions>
      </trkpt>
      <trkpt lat="42.54349778406322002410888671875" lon="20.1149101741611957550048828125">
        <ele>1878.5999755859375</ele>
        <time>2026-06-20T06:35:22.000Z</time>
        <extensions>
          <ns3:TrackPointExtension>
            <ns3:atemp>20.0</ns3:atemp>
          </ns3:TrackPointExtension>
        </extensions>
      </trkpt>
      <trkpt lat="42.54349778406322002410888671875" lon="20.1149101741611957550048828125">
        <ele>1878.5999755859375</ele>
        <time>2026-06-20T06:35:23.000Z</time>
        <extensions>
          <ns3:TrackPointExtension>
            <ns3:atemp>20.0</ns3:atemp>
          </ns3:TrackPointExtension>
        </extensions>
      </trkpt>
      <trkpt lat="42.54349778406322002410888671875" lon="20.1149101741611957550048828125">
        <ele>1878.5999755859375</ele>
        <time>2026-06-20T06:35:24.000Z</time>
        <extensions>
          <ns3:TrackPointExtension>
            <ns3:atemp>20.0</ns3:atemp>
          </ns3:TrackPointExtension>
        </extensions>
      </trkpt>
      <trkpt lat="42.54349778406322002410888671875" lon="20.1149101741611957550048828125">
        <ele>1878.5999755859375</ele>
        <time>2026-06-20T06:35:25.000Z</time>
        <extensions>
          <ns3:TrackPointExtension>
            <ns3:atemp>20.0</ns3:atemp>
          </ns3:TrackPointExtension>
        </extensions>
      </trkpt>
      <trkpt lat="42.54349778406322002410888671875" lon="20.1149101741611957550048828125">
        <ele>1878.800048828125</ele>
        <time>2026-06-20T06:35:26.000Z</time>
        <extensions>
          <ns3:TrackPointExtension>
            <ns3:atemp>20.0</ns3:atemp>
          </ns3:TrackPointExtension>
        </extensions>
      </trkpt>
      <trkpt lat="42.54349778406322002410888671875" lon="20.1149101741611957550048828125">
        <ele>1878.800048828125</ele>
        <time>2026-06-20T06:35:27.000Z</time>
        <extensions>
          <ns3:TrackPointExtension>
            <ns3:atemp>20.0</ns3:atemp>
          </ns3:TrackPointExtension>
        </extensions>
      </trkpt>
      <trkpt lat="42.54349778406322002410888671875" lon="20.1149101741611957550048828125">
        <ele>1878.800048828125</ele>
        <time>2026-06-20T06:35:28.000Z</time>
        <extensions>
          <ns3:TrackPointExtension>
            <ns3:atemp>20.0</ns3:atemp>
          </ns3:TrackPointExtension>
        </extensions>
      </trkpt>
      <trkpt lat="42.54349778406322002410888671875" lon="20.1149101741611957550048828125">
        <ele>1878.800048828125</ele>
        <time>2026-06-20T06:35:29.000Z</time>
        <extensions>
          <ns3:TrackPointExtension>
            <ns3:atemp>20.0</ns3:atemp>
          </ns3:TrackPointExtension>
        </extensions>
      </trkpt>
      <trkpt lat="42.54349778406322002410888671875" lon="20.1149101741611957550048828125">
        <ele>1878.800048828125</ele>
        <time>2026-06-20T06:35:30.000Z</time>
        <extensions>
          <ns3:TrackPointExtension>
            <ns3:atemp>20.0</ns3:atemp>
          </ns3:TrackPointExtension>
        </extensions>
      </trkpt>
      <trkpt lat="42.54349778406322002410888671875" lon="20.1149101741611957550048828125">
        <ele>1878.800048828125</ele>
        <time>2026-06-20T06:35:31.000Z</time>
        <extensions>
          <ns3:TrackPointExtension>
            <ns3:atemp>20.0</ns3:atemp>
          </ns3:TrackPointExtension>
        </extensions>
      </trkpt>
      <trkpt lat="42.54349778406322002410888671875" lon="20.1149101741611957550048828125">
        <ele>1878.800048828125</ele>
        <time>2026-06-20T06:35:32.000Z</time>
        <extensions>
          <ns3:TrackPointExtension>
            <ns3:atemp>20.0</ns3:atemp>
          </ns3:TrackPointExtension>
        </extensions>
      </trkpt>
      <trkpt lat="42.54349778406322002410888671875" lon="20.1149101741611957550048828125">
        <ele>1878.800048828125</ele>
        <time>2026-06-20T06:35:33.000Z</time>
        <extensions>
          <ns3:TrackPointExtension>
            <ns3:atemp>20.0</ns3:atemp>
          </ns3:TrackPointExtension>
        </extensions>
      </trkpt>
      <trkpt lat="42.54349778406322002410888671875" lon="20.1149101741611957550048828125">
        <ele>1878.800048828125</ele>
        <time>2026-06-20T06:35:34.000Z</time>
        <extensions>
          <ns3:TrackPointExtension>
            <ns3:atemp>20.0</ns3:atemp>
          </ns3:TrackPointExtension>
        </extensions>
      </trkpt>
      <trkpt lat="42.54349778406322002410888671875" lon="20.1149101741611957550048828125">
        <ele>1878.800048828125</ele>
        <time>2026-06-20T06:35:35.000Z</time>
        <extensions>
          <ns3:TrackPointExtension>
            <ns3:atemp>20.0</ns3:atemp>
          </ns3:TrackPointExtension>
        </extensions>
      </trkpt>
      <trkpt lat="42.54349778406322002410888671875" lon="20.1149101741611957550048828125">
        <ele>1878.800048828125</ele>
        <time>2026-06-20T06:35:36.000Z</time>
        <extensions>
          <ns3:TrackPointExtension>
            <ns3:atemp>20.0</ns3:atemp>
          </ns3:TrackPointExtension>
        </extensions>
      </trkpt>
      <trkpt lat="42.54349778406322002410888671875" lon="20.1149101741611957550048828125">
        <ele>1878.800048828125</ele>
        <time>2026-06-20T06:35:37.000Z</time>
        <extensions>
          <ns3:TrackPointExtension>
            <ns3:atemp>20.0</ns3:atemp>
          </ns3:TrackPointExtension>
        </extensions>
      </trkpt>
      <trkpt lat="42.54349778406322002410888671875" lon="20.1149101741611957550048828125">
        <ele>1879</ele>
        <time>2026-06-20T06:35:38.000Z</time>
        <extensions>
          <ns3:TrackPointExtension>
            <ns3:atemp>20.0</ns3:atemp>
          </ns3:TrackPointExtension>
        </extensions>
      </trkpt>
      <trkpt lat="42.54349778406322002410888671875" lon="20.1149101741611957550048828125">
        <ele>1879</ele>
        <time>2026-06-20T06:35:39.000Z</time>
        <extensions>
          <ns3:TrackPointExtension>
            <ns3:atemp>20.0</ns3:atemp>
          </ns3:TrackPointExtension>
        </extensions>
      </trkpt>
      <trkpt lat="42.54349778406322002410888671875" lon="20.1149101741611957550048828125">
        <ele>1879</ele>
        <time>2026-06-20T06:35:40.000Z</time>
        <extensions>
          <ns3:TrackPointExtension>
            <ns3:atemp>20.0</ns3:atemp>
          </ns3:TrackPointExtension>
        </extensions>
      </trkpt>
      <trkpt lat="42.54349778406322002410888671875" lon="20.1149101741611957550048828125">
        <ele>1879</ele>
        <time>2026-06-20T06:35:41.000Z</time>
        <extensions>
          <ns3:TrackPointExtension>
            <ns3:atemp>20.0</ns3:atemp>
          </ns3:TrackPointExtension>
        </extensions>
      </trkpt>
      <trkpt lat="42.54349778406322002410888671875" lon="20.1149101741611957550048828125">
        <ele>1879</ele>
        <time>2026-06-20T06:35:42.000Z</time>
        <extensions>
          <ns3:TrackPointExtension>
            <ns3:atemp>20.0</ns3:atemp>
          </ns3:TrackPointExtension>
        </extensions>
      </trkpt>
      <trkpt lat="42.54349778406322002410888671875" lon="20.1149101741611957550048828125">
        <ele>1879</ele>
        <time>2026-06-20T06:35:43.000Z</time>
        <extensions>
          <ns3:TrackPointExtension>
            <ns3:atemp>20.0</ns3:atemp>
          </ns3:TrackPointExtension>
        </extensions>
      </trkpt>
      <trkpt lat="42.54349778406322002410888671875" lon="20.1149101741611957550048828125">
        <ele>1879</ele>
        <time>2026-06-20T06:35:44.000Z</time>
        <extensions>
          <ns3:TrackPointExtension>
            <ns3:atemp>20.0</ns3:atemp>
          </ns3:TrackPointExtension>
        </extensions>
      </trkpt>
      <trkpt lat="42.54349778406322002410888671875" lon="20.1149101741611957550048828125">
        <ele>1879</ele>
        <time>2026-06-20T06:35:45.000Z</time>
        <extensions>
          <ns3:TrackPointExtension>
            <ns3:atemp>20.0</ns3:atemp>
          </ns3:TrackPointExtension>
        </extensions>
      </trkpt>
      <trkpt lat="42.54349778406322002410888671875" lon="20.1149101741611957550048828125">
        <ele>1879</ele>
        <time>2026-06-20T06:35:46.000Z</time>
        <extensions>
          <ns3:TrackPointExtension>
            <ns3:atemp>20.0</ns3:atemp>
          </ns3:TrackPointExtension>
        </extensions>
      </trkpt>
      <trkpt lat="42.54349778406322002410888671875" lon="20.1149101741611957550048828125">
        <ele>1879</ele>
        <time>2026-06-20T06:35:47.000Z</time>
        <extensions>
          <ns3:TrackPointExtension>
            <ns3:atemp>20.0</ns3:atemp>
          </ns3:TrackPointExtension>
        </extensions>
      </trkpt>
      <trkpt lat="42.54349778406322002410888671875" lon="20.1149101741611957550048828125">
        <ele>1879</ele>
        <time>2026-06-20T06:35:48.000Z</time>
        <extensions>
          <ns3:TrackPointExtension>
            <ns3:atemp>20.0</ns3:atemp>
          </ns3:TrackPointExtension>
        </extensions>
      </trkpt>
      <trkpt lat="42.54349778406322002410888671875" lon="20.1149101741611957550048828125">
        <ele>1879</ele>
        <time>2026-06-20T06:35:49.000Z</time>
        <extensions>
          <ns3:TrackPointExtension>
            <ns3:atemp>20.0</ns3:atemp>
          </ns3:TrackPointExtension>
        </extensions>
      </trkpt>
      <trkpt lat="42.54349778406322002410888671875" lon="20.1149101741611957550048828125">
        <ele>1879</ele>
        <time>2026-06-20T06:35:50.000Z</time>
        <extensions>
          <ns3:TrackPointExtension>
            <ns3:atemp>20.0</ns3:atemp>
          </ns3:TrackPointExtension>
        </extensions>
      </trkpt>
      <trkpt lat="42.54349778406322002410888671875" lon="20.1149101741611957550048828125">
        <ele>1879</ele>
        <time>2026-06-20T06:35:51.000Z</time>
        <extensions>
          <ns3:TrackPointExtension>
            <ns3:atemp>20.0</ns3:atemp>
          </ns3:TrackPointExtension>
        </extensions>
      </trkpt>
      <trkpt lat="42.54349778406322002410888671875" lon="20.1149101741611957550048828125">
        <ele>1879</ele>
        <time>2026-06-20T06:35:52.000Z</time>
        <extensions>
          <ns3:TrackPointExtension>
            <ns3:atemp>20.0</ns3:atemp>
          </ns3:TrackPointExtension>
        </extensions>
      </trkpt>
      <trkpt lat="42.54349778406322002410888671875" lon="20.1149101741611957550048828125">
        <ele>1879</ele>
        <time>2026-06-20T06:35:53.000Z</time>
        <extensions>
          <ns3:TrackPointExtension>
            <ns3:atemp>20.0</ns3:atemp>
          </ns3:TrackPointExtension>
        </extensions>
      </trkpt>
      <trkpt lat="42.54349778406322002410888671875" lon="20.1149101741611957550048828125">
        <ele>1879</ele>
        <time>2026-06-20T06:35:54.000Z</time>
        <extensions>
          <ns3:TrackPointExtension>
            <ns3:atemp>20.0</ns3:atemp>
          </ns3:TrackPointExtension>
        </extensions>
      </trkpt>
      <trkpt lat="42.54349778406322002410888671875" lon="20.1149101741611957550048828125">
        <ele>1879</ele>
        <time>2026-06-20T06:35:55.000Z</time>
        <extensions>
          <ns3:TrackPointExtension>
            <ns3:atemp>20.0</ns3:atemp>
          </ns3:TrackPointExtension>
        </extensions>
      </trkpt>
      <trkpt lat="42.54349778406322002410888671875" lon="20.1149101741611957550048828125">
        <ele>1879</ele>
        <time>2026-06-20T06:35:56.000Z</time>
        <extensions>
          <ns3:TrackPointExtension>
            <ns3:atemp>20.0</ns3:atemp>
          </ns3:TrackPointExtension>
        </extensions>
      </trkpt>
      <trkpt lat="42.54349778406322002410888671875" lon="20.1149101741611957550048828125">
        <ele>1879</ele>
        <time>2026-06-20T06:35:57.000Z</time>
        <extensions>
          <ns3:TrackPointExtension>
            <ns3:atemp>20.0</ns3:atemp>
          </ns3:TrackPointExtension>
        </extensions>
      </trkpt>
      <trkpt lat="42.54349778406322002410888671875" lon="20.1149101741611957550048828125">
        <ele>1879</ele>
        <time>2026-06-20T06:35:58.000Z</time>
        <extensions>
          <ns3:TrackPointExtension>
            <ns3:atemp>20.0</ns3:atemp>
          </ns3:TrackPointExtension>
        </extensions>
      </trkpt>
      <trkpt lat="42.54349778406322002410888671875" lon="20.1149101741611957550048828125">
        <ele>1879</ele>
        <time>2026-06-20T06:35:59.000Z</time>
        <extensions>
          <ns3:TrackPointExtension>
            <ns3:atemp>20.0</ns3:atemp>
          </ns3:TrackPointExtension>
        </extensions>
      </trkpt>
      <trkpt lat="42.54349778406322002410888671875" lon="20.1149101741611957550048828125">
        <ele>1879</ele>
        <time>2026-06-20T06:36:00.000Z</time>
        <extensions>
          <ns3:TrackPointExtension>
            <ns3:atemp>20.0</ns3:atemp>
          </ns3:TrackPointExtension>
        </extensions>
      </trkpt>
      <trkpt lat="42.54349778406322002410888671875" lon="20.1149101741611957550048828125">
        <ele>1879</ele>
        <time>2026-06-20T06:36:01.000Z</time>
        <extensions>
          <ns3:TrackPointExtension>
            <ns3:atemp>20.0</ns3:atemp>
          </ns3:TrackPointExtension>
        </extensions>
      </trkpt>
      <trkpt lat="42.54349778406322002410888671875" lon="20.1149101741611957550048828125">
        <ele>1879</ele>
        <time>2026-06-20T06:36:02.000Z</time>
        <extensions>
          <ns3:TrackPointExtension>
            <ns3:atemp>20.0</ns3:atemp>
          </ns3:TrackPointExtension>
        </extensions>
      </trkpt>
      <trkpt lat="42.54349778406322002410888671875" lon="20.1149101741611957550048828125">
        <ele>1879</ele>
        <time>2026-06-20T06:36:03.000Z</time>
        <extensions>
          <ns3:TrackPointExtension>
            <ns3:atemp>20.0</ns3:atemp>
          </ns3:TrackPointExtension>
        </extensions>
      </trkpt>
      <trkpt lat="42.54349778406322002410888671875" lon="20.1149101741611957550048828125">
        <ele>1879</ele>
        <time>2026-06-20T06:36:04.000Z</time>
        <extensions>
          <ns3:TrackPointExtension>
            <ns3:atemp>20.0</ns3:atemp>
          </ns3:TrackPointExtension>
        </extensions>
      </trkpt>
      <trkpt lat="42.54349778406322002410888671875" lon="20.1149101741611957550048828125">
        <ele>1879</ele>
        <time>2026-06-20T06:36:05.000Z</time>
        <extensions>
          <ns3:TrackPointExtension>
            <ns3:atemp>20.0</ns3:atemp>
          </ns3:TrackPointExtension>
        </extensions>
      </trkpt>
      <trkpt lat="42.54349778406322002410888671875" lon="20.1149101741611957550048828125">
        <ele>1879</ele>
        <time>2026-06-20T06:36:06.000Z</time>
        <extensions>
          <ns3:TrackPointExtension>
            <ns3:atemp>20.0</ns3:atemp>
          </ns3:TrackPointExtension>
        </extensions>
      </trkpt>
      <trkpt lat="42.54349778406322002410888671875" lon="20.1149101741611957550048828125">
        <ele>1879</ele>
        <time>2026-06-20T06:36:07.000Z</time>
        <extensions>
          <ns3:TrackPointExtension>
            <ns3:atemp>20.0</ns3:atemp>
          </ns3:TrackPointExtension>
        </extensions>
      </trkpt>
      <trkpt lat="42.54349778406322002410888671875" lon="20.1149101741611957550048828125">
        <ele>1879</ele>
        <time>2026-06-20T06:36:08.000Z</time>
        <extensions>
          <ns3:TrackPointExtension>
            <ns3:atemp>20.0</ns3:atemp>
          </ns3:TrackPointExtension>
        </extensions>
      </trkpt>
      <trkpt lat="42.54349778406322002410888671875" lon="20.1149101741611957550048828125">
        <ele>1879</ele>
        <time>2026-06-20T06:36:09.000Z</time>
        <extensions>
          <ns3:TrackPointExtension>
            <ns3:atemp>20.0</ns3:atemp>
          </ns3:TrackPointExtension>
        </extensions>
      </trkpt>
      <trkpt lat="42.54349778406322002410888671875" lon="20.1149101741611957550048828125">
        <ele>1879</ele>
        <time>2026-06-20T06:36:10.000Z</time>
        <extensions>
          <ns3:TrackPointExtension>
            <ns3:atemp>20.0</ns3:atemp>
          </ns3:TrackPointExtension>
        </extensions>
      </trkpt>
      <trkpt lat="42.54349778406322002410888671875" lon="20.1149101741611957550048828125">
        <ele>1879</ele>
        <time>2026-06-20T06:36:11.000Z</time>
        <extensions>
          <ns3:TrackPointExtension>
            <ns3:atemp>20.0</ns3:atemp>
          </ns3:TrackPointExtension>
        </extensions>
      </trkpt>
      <trkpt lat="42.54349778406322002410888671875" lon="20.1149101741611957550048828125">
        <ele>1879</ele>
        <time>2026-06-20T06:36:12.000Z</time>
        <extensions>
          <ns3:TrackPointExtension>
            <ns3:atemp>20.0</ns3:atemp>
          </ns3:TrackPointExtension>
        </extensions>
      </trkpt>
      <trkpt lat="42.54349778406322002410888671875" lon="20.1149101741611957550048828125">
        <ele>1879</ele>
        <time>2026-06-20T06:36:13.000Z</time>
        <extensions>
          <ns3:TrackPointExtension>
            <ns3:atemp>20.0</ns3:atemp>
          </ns3:TrackPointExtension>
        </extensions>
      </trkpt>
      <trkpt lat="42.54349778406322002410888671875" lon="20.1149101741611957550048828125">
        <ele>1879</ele>
        <time>2026-06-20T06:36:14.000Z</time>
        <extensions>
          <ns3:TrackPointExtension>
            <ns3:atemp>20.0</ns3:atemp>
          </ns3:TrackPointExtension>
        </extensions>
      </trkpt>
      <trkpt lat="42.54349778406322002410888671875" lon="20.1149101741611957550048828125">
        <ele>1879</ele>
        <time>2026-06-20T06:36:15.000Z</time>
        <extensions>
          <ns3:TrackPointExtension>
            <ns3:atemp>20.0</ns3:atemp>
          </ns3:TrackPointExtension>
        </extensions>
      </trkpt>
      <trkpt lat="42.54349778406322002410888671875" lon="20.1149101741611957550048828125">
        <ele>1879</ele>
        <time>2026-06-20T06:36:16.000Z</time>
        <extensions>
          <ns3:TrackPointExtension>
            <ns3:atemp>20.0</ns3:atemp>
          </ns3:TrackPointExtension>
        </extensions>
      </trkpt>
      <trkpt lat="42.54349778406322002410888671875" lon="20.1149101741611957550048828125">
        <ele>1879</ele>
        <time>2026-06-20T06:36:17.000Z</time>
        <extensions>
          <ns3:TrackPointExtension>
            <ns3:atemp>20.0</ns3:atemp>
          </ns3:TrackPointExtension>
        </extensions>
      </trkpt>
      <trkpt lat="42.54349778406322002410888671875" lon="20.1149101741611957550048828125">
        <ele>1879</ele>
        <time>2026-06-20T06:36:18.000Z</time>
        <extensions>
          <ns3:TrackPointExtension>
            <ns3:atemp>20.0</ns3:atemp>
          </ns3:TrackPointExtension>
        </extensions>
      </trkpt>
      <trkpt lat="42.54349778406322002410888671875" lon="20.1149101741611957550048828125">
        <ele>1879</ele>
        <time>2026-06-20T06:36:19.000Z</time>
        <extensions>
          <ns3:TrackPointExtension>
            <ns3:atemp>20.0</ns3:atemp>
          </ns3:TrackPointExtension>
        </extensions>
      </trkpt>
      <trkpt lat="42.54349778406322002410888671875" lon="20.1149101741611957550048828125">
        <ele>1879</ele>
        <time>2026-06-20T06:36:20.000Z</time>
        <extensions>
          <ns3:TrackPointExtension>
            <ns3:atemp>20.0</ns3:atemp>
          </ns3:TrackPointExtension>
        </extensions>
      </trkpt>
      <trkpt lat="42.54349778406322002410888671875" lon="20.1149101741611957550048828125">
        <ele>1879</ele>
        <time>2026-06-20T06:36:21.000Z</time>
        <extensions>
          <ns3:TrackPointExtension>
            <ns3:atemp>20.0</ns3:atemp>
          </ns3:TrackPointExtension>
        </extensions>
      </trkpt>
      <trkpt lat="42.54349778406322002410888671875" lon="20.1149101741611957550048828125">
        <ele>1879</ele>
        <time>2026-06-20T06:36:22.000Z</time>
        <extensions>
          <ns3:TrackPointExtension>
            <ns3:atemp>20.0</ns3:atemp>
          </ns3:TrackPointExtension>
        </extensions>
      </trkpt>
      <trkpt lat="42.54349778406322002410888671875" lon="20.1149101741611957550048828125">
        <ele>1879</ele>
        <time>2026-06-20T06:36:23.000Z</time>
        <extensions>
          <ns3:TrackPointExtension>
            <ns3:atemp>20.0</ns3:atemp>
          </ns3:TrackPointExtension>
        </extensions>
      </trkpt>
      <trkpt lat="42.54349778406322002410888671875" lon="20.1149101741611957550048828125">
        <ele>1879</ele>
        <time>2026-06-20T06:36:24.000Z</time>
        <extensions>
          <ns3:TrackPointExtension>
            <ns3:atemp>20.0</ns3:atemp>
          </ns3:TrackPointExtension>
        </extensions>
      </trkpt>
      <trkpt lat="42.54349778406322002410888671875" lon="20.1149101741611957550048828125">
        <ele>1879</ele>
        <time>2026-06-20T06:36:25.000Z</time>
        <extensions>
          <ns3:TrackPointExtension>
            <ns3:atemp>20.0</ns3:atemp>
          </ns3:TrackPointExtension>
        </extensions>
      </trkpt>
      <trkpt lat="42.54349778406322002410888671875" lon="20.1149101741611957550048828125">
        <ele>1879</ele>
        <time>2026-06-20T06:36:26.000Z</time>
        <extensions>
          <ns3:TrackPointExtension>
            <ns3:atemp>20.0</ns3:atemp>
          </ns3:TrackPointExtension>
        </extensions>
      </trkpt>
      <trkpt lat="42.54349778406322002410888671875" lon="20.1149101741611957550048828125">
        <ele>1879</ele>
        <time>2026-06-20T06:36:27.000Z</time>
        <extensions>
          <ns3:TrackPointExtension>
            <ns3:atemp>20.0</ns3:atemp>
          </ns3:TrackPointExtension>
        </extensions>
      </trkpt>
      <trkpt lat="42.54349778406322002410888671875" lon="20.1149101741611957550048828125">
        <ele>1879</ele>
        <time>2026-06-20T06:36:28.000Z</time>
        <extensions>
          <ns3:TrackPointExtension>
            <ns3:atemp>20.0</ns3:atemp>
          </ns3:TrackPointExtension>
        </extensions>
      </trkpt>
      <trkpt lat="42.54349778406322002410888671875" lon="20.1149101741611957550048828125">
        <ele>1879</ele>
        <time>2026-06-20T06:36:29.000Z</time>
        <extensions>
          <ns3:TrackPointExtension>
            <ns3:atemp>20.0</ns3:atemp>
          </ns3:TrackPointExtension>
        </extensions>
      </trkpt>
      <trkpt lat="42.54349778406322002410888671875" lon="20.1149101741611957550048828125">
        <ele>1879</ele>
        <time>2026-06-20T06:36:30.000Z</time>
        <extensions>
          <ns3:TrackPointExtension>
            <ns3:atemp>20.0</ns3:atemp>
          </ns3:TrackPointExtension>
        </extensions>
      </trkpt>
      <trkpt lat="42.54349778406322002410888671875" lon="20.1149101741611957550048828125">
        <ele>1879</ele>
        <time>2026-06-20T06:36:31.000Z</time>
        <extensions>
          <ns3:TrackPointExtension>
            <ns3:atemp>20.0</ns3:atemp>
          </ns3:TrackPointExtension>
        </extensions>
      </trkpt>
      <trkpt lat="42.54349778406322002410888671875" lon="20.1149101741611957550048828125">
        <ele>1879</ele>
        <time>2026-06-20T06:36:32.000Z</time>
        <extensions>
          <ns3:TrackPointExtension>
            <ns3:atemp>20.0</ns3:atemp>
          </ns3:TrackPointExtension>
        </extensions>
      </trkpt>
      <trkpt lat="42.54349778406322002410888671875" lon="20.1149101741611957550048828125">
        <ele>1879</ele>
        <time>2026-06-20T06:36:33.000Z</time>
        <extensions>
          <ns3:TrackPointExtension>
            <ns3:atemp>20.0</ns3:atemp>
          </ns3:TrackPointExtension>
        </extensions>
      </trkpt>
      <trkpt lat="42.54349778406322002410888671875" lon="20.1149101741611957550048828125">
        <ele>1878.800048828125</ele>
        <time>2026-06-20T06:36:34.000Z</time>
        <extensions>
          <ns3:TrackPointExtension>
            <ns3:atemp>20.0</ns3:atemp>
          </ns3:TrackPointExtension>
        </extensions>
      </trkpt>
      <trkpt lat="42.54349778406322002410888671875" lon="20.1149101741611957550048828125">
        <ele>1878.800048828125</ele>
        <time>2026-06-20T06:36:35.000Z</time>
        <extensions>
          <ns3:TrackPointExtension>
            <ns3:atemp>20.0</ns3:atemp>
          </ns3:TrackPointExtension>
        </extensions>
      </trkpt>
      <trkpt lat="42.54349778406322002410888671875" lon="20.1149101741611957550048828125">
        <ele>1878.800048828125</ele>
        <time>2026-06-20T06:36:36.000Z</time>
        <extensions>
          <ns3:TrackPointExtension>
            <ns3:atemp>20.0</ns3:atemp>
          </ns3:TrackPointExtension>
        </extensions>
      </trkpt>
      <trkpt lat="42.54349778406322002410888671875" lon="20.1149101741611957550048828125">
        <ele>1878.800048828125</ele>
        <time>2026-06-20T06:36:37.000Z</time>
        <extensions>
          <ns3:TrackPointExtension>
            <ns3:atemp>20.0</ns3:atemp>
          </ns3:TrackPointExtension>
        </extensions>
      </trkpt>
      <trkpt lat="42.54349778406322002410888671875" lon="20.1149101741611957550048828125">
        <ele>1878.800048828125</ele>
        <time>2026-06-20T06:36:38.000Z</time>
        <extensions>
          <ns3:TrackPointExtension>
            <ns3:atemp>20.0</ns3:atemp>
          </ns3:TrackPointExtension>
        </extensions>
      </trkpt>
      <trkpt lat="42.54349778406322002410888671875" lon="20.1149101741611957550048828125">
        <ele>1878.800048828125</ele>
        <time>2026-06-20T06:36:39.000Z</time>
        <extensions>
          <ns3:TrackPointExtension>
            <ns3:atemp>20.0</ns3:atemp>
          </ns3:TrackPointExtension>
        </extensions>
      </trkpt>
      <trkpt lat="42.54349744878709316253662109375" lon="20.11491411365568637847900390625">
        <ele>1878.800048828125</ele>
        <time>2026-06-20T06:36:40.000Z</time>
        <extensions>
          <ns3:TrackPointExtension>
            <ns3:atemp>20.0</ns3:atemp>
          </ns3:TrackPointExtension>
        </extensions>
      </trkpt>
      <trkpt lat="42.5435033999383449554443359375" lon="20.11492031626403331756591796875">
        <ele>1878.800048828125</ele>
        <time>2026-06-20T06:36:41.000Z</time>
        <extensions>
          <ns3:TrackPointExtension>
            <ns3:atemp>20.0</ns3:atemp>
          </ns3:TrackPointExtension>
        </extensions>
      </trkpt>
      <trkpt lat="42.543514631688594818115234375" lon="20.11492132209241390228271484375">
        <ele>1878.5999755859375</ele>
        <time>2026-06-20T06:36:42.000Z</time>
        <extensions>
          <ns3:TrackPointExtension>
            <ns3:atemp>20.0</ns3:atemp>
          </ns3:TrackPointExtension>
        </extensions>
      </trkpt>
      <trkpt lat="42.54352980293333530426025390625" lon="20.1149219088256359100341796875">
        <ele>1878.5999755859375</ele>
        <time>2026-06-20T06:36:43.000Z</time>
        <extensions>
          <ns3:TrackPointExtension>
            <ns3:atemp>20.0</ns3:atemp>
          </ns3:TrackPointExtension>
        </extensions>
      </trkpt>
      <trkpt lat="42.54355025477707386016845703125" lon="20.11492014862596988677978515625">
        <ele>1878.5999755859375</ele>
        <time>2026-06-20T06:36:44.000Z</time>
        <extensions>
          <ns3:TrackPointExtension>
            <ns3:atemp>20.0</ns3:atemp>
          </ns3:TrackPointExtension>
        </extensions>
      </trkpt>
      <trkpt lat="42.54357020370662212371826171875" lon="20.1149225793778896331787109375">
        <ele>1878.4000244140625</ele>
        <time>2026-06-20T06:36:45.000Z</time>
        <extensions>
          <ns3:TrackPointExtension>
            <ns3:atemp>20.0</ns3:atemp>
          </ns3:TrackPointExtension>
        </extensions>
      </trkpt>
      <trkpt lat="42.5435892306268215179443359375" lon="20.114928781986236572265625">
        <ele>1878.4000244140625</ele>
        <time>2026-06-20T06:36:46.000Z</time>
        <extensions>
          <ns3:TrackPointExtension>
            <ns3:atemp>20.0</ns3:atemp>
          </ns3:TrackPointExtension>
        </extensions>
      </trkpt>
      <trkpt lat="42.54360607825219631195068359375" lon="20.1149336434900760650634765625">
        <ele>1878.4000244140625</ele>
        <time>2026-06-20T06:36:47.000Z</time>
        <extensions>
          <ns3:TrackPointExtension>
            <ns3:atemp>20.0</ns3:atemp>
          </ns3:TrackPointExtension>
        </extensions>
      </trkpt>
      <trkpt lat="42.54362300969660282135009765625" lon="20.1149430312216281890869140625">
        <ele>1878.4000244140625</ele>
        <time>2026-06-20T06:36:48.000Z</time>
        <extensions>
          <ns3:TrackPointExtension>
            <ns3:atemp>20.0</ns3:atemp>
          </ns3:TrackPointExtension>
        </extensions>
      </trkpt>
      <trkpt lat="42.5436411984264850616455078125" lon="20.1149517484009265899658203125">
        <ele>1878.5999755859375</ele>
        <time>2026-06-20T06:36:49.000Z</time>
        <extensions>
          <ns3:TrackPointExtension>
            <ns3:atemp>20.0</ns3:atemp>
          </ns3:TrackPointExtension>
        </extensions>
      </trkpt>
      <trkpt lat="42.5436596386134624481201171875" lon="20.11495736427605152130126953125">
        <ele>1878.5999755859375</ele>
        <time>2026-06-20T06:36:50.000Z</time>
        <extensions>
          <ns3:TrackPointExtension>
            <ns3:atemp>20.0</ns3:atemp>
          </ns3:TrackPointExtension>
        </extensions>
      </trkpt>
      <trkpt lat="42.5436810962855815887451171875" lon="20.1149604655802249908447265625">
        <ele>1878.800048828125</ele>
        <time>2026-06-20T06:36:51.000Z</time>
        <extensions>
          <ns3:TrackPointExtension>
            <ns3:atemp>20.0</ns3:atemp>
          </ns3:TrackPointExtension>
        </extensions>
      </trkpt>
      <trkpt lat="42.54369534552097320556640625" lon="20.11497278697788715362548828125">
        <ele>1879</ele>
        <time>2026-06-20T06:36:52.000Z</time>
        <extensions>
          <ns3:TrackPointExtension>
            <ns3:atemp>20.0</ns3:atemp>
          </ns3:TrackPointExtension>
        </extensions>
      </trkpt>
      <trkpt lat="42.54371336661279201507568359375" lon="20.11498309671878814697265625">
        <ele>1879.199951171875</ele>
        <time>2026-06-20T06:36:53.000Z</time>
        <extensions>
          <ns3:TrackPointExtension>
            <ns3:atemp>20.0</ns3:atemp>
          </ns3:TrackPointExtension>
        </extensions>
      </trkpt>
      <trkpt lat="42.5437323935329914093017578125" lon="20.11499240063130855560302734375">
        <ele>1879.199951171875</ele>
        <time>2026-06-20T06:36:54.000Z</time>
        <extensions>
          <ns3:TrackPointExtension>
            <ns3:atemp>20.0</ns3:atemp>
          </ns3:TrackPointExtension>
        </extensions>
      </trkpt>
      <trkpt lat="42.54375125281512737274169921875" lon="20.11500053107738494873046875">
        <ele>1879.5999755859375</ele>
        <time>2026-06-20T06:36:55.000Z</time>
        <extensions>
          <ns3:TrackPointExtension>
            <ns3:atemp>20.0</ns3:atemp>
          </ns3:TrackPointExtension>
        </extensions>
      </trkpt>
      <trkpt lat="42.54377254284918308258056640625" lon="20.1150100864470005035400390625">
        <ele>1879.5999755859375</ele>
        <time>2026-06-20T06:36:56.000Z</time>
        <extensions>
          <ns3:TrackPointExtension>
            <ns3:atemp>20.0</ns3:atemp>
          </ns3:TrackPointExtension>
        </extensions>
      </trkpt>
      <trkpt lat="42.54378763027489185333251953125" lon="20.115022994577884674072265625">
        <ele>1879.800048828125</ele>
        <time>2026-06-20T06:36:57.000Z</time>
        <extensions>
          <ns3:TrackPointExtension>
            <ns3:atemp>20.0</ns3:atemp>
          </ns3:TrackPointExtension>
        </extensions>
      </trkpt>
      <trkpt lat="42.54380506463348865509033203125" lon="20.1150348968803882598876953125">
        <ele>1880.199951171875</ele>
        <time>2026-06-20T06:36:58.000Z</time>
        <extensions>
          <ns3:TrackPointExtension>
            <ns3:atemp>20.0</ns3:atemp>
          </ns3:TrackPointExtension>
        </extensions>
      </trkpt>
      <trkpt lat="42.54382073879241943359375" lon="20.1150496490299701690673828125">
        <ele>1880.4000244140625</ele>
        <time>2026-06-20T06:36:59.000Z</time>
        <extensions>
          <ns3:TrackPointExtension>
            <ns3:atemp>20.0</ns3:atemp>
          </ns3:TrackPointExtension>
        </extensions>
      </trkpt>
      <trkpt lat="42.5438349880278110504150390625" lon="20.115060545504093170166015625">
        <ele>1880.5999755859375</ele>
        <time>2026-06-20T06:37:00.000Z</time>
        <extensions>
          <ns3:TrackPointExtension>
            <ns3:atemp>20.0</ns3:atemp>
          </ns3:TrackPointExtension>
        </extensions>
      </trkpt>
      <trkpt lat="42.54385049454867839813232421875" lon="20.11507253162562847137451171875">
        <ele>1881</ele>
        <time>2026-06-20T06:37:01.000Z</time>
        <extensions>
          <ns3:TrackPointExtension>
            <ns3:atemp>20.0</ns3:atemp>
          </ns3:TrackPointExtension>
        </extensions>
      </trkpt>
      <trkpt lat="42.5438665039837360382080078125" lon="20.115088038146495819091796875">
        <ele>1881</ele>
        <time>2026-06-20T06:37:02.000Z</time>
        <extensions>
          <ns3:TrackPointExtension>
            <ns3:atemp>20.0</ns3:atemp>
          </ns3:TrackPointExtension>
        </extensions>
      </trkpt>
      <trkpt lat="42.54387237131595611572265625" lon="20.11509851552546024322509765625">
        <ele>1881.199951171875</ele>
        <time>2026-06-20T06:37:03.000Z</time>
        <extensions>
          <ns3:TrackPointExtension>
            <ns3:atemp>20.0</ns3:atemp>
          </ns3:TrackPointExtension>
        </extensions>
      </trkpt>
      <trkpt lat="42.54386927001178264617919921875" lon="20.11509843170642852783203125">
        <ele>1881.5999755859375</ele>
        <time>2026-06-20T06:37:04.000Z</time>
        <extensions>
          <ns3:TrackPointExtension>
            <ns3:atemp>20.0</ns3:atemp>
          </ns3:TrackPointExtension>
        </extensions>
      </trkpt>
      <trkpt lat="42.54387128166854381561279296875" lon="20.11510312557220458984375">
        <ele>1881.800048828125</ele>
        <time>2026-06-20T06:37:05.000Z</time>
        <extensions>
          <ns3:TrackPointExtension>
            <ns3:atemp>20.0</ns3:atemp>
          </ns3:TrackPointExtension>
        </extensions>
      </trkpt>
      <trkpt lat="42.543881423771381378173828125" lon="20.115110836923122406005859375">
        <ele>1882</ele>
        <time>2026-06-20T06:37:06.000Z</time>
        <extensions>
          <ns3:TrackPointExtension>
            <ns3:atemp>20.0</ns3:atemp>
          </ns3:TrackPointExtension>
        </extensions>
      </trkpt>
      <trkpt lat="42.54388888366520404815673828125" lon="20.11512064374983310699462890625">
        <ele>1882.199951171875</ele>
        <time>2026-06-20T06:37:07.000Z</time>
        <extensions>
          <ns3:TrackPointExtension>
            <ns3:atemp>20.0</ns3:atemp>
          </ns3:TrackPointExtension>
        </extensions>
      </trkpt>
      <trkpt lat="42.54389810375869274139404296875" lon="20.115130953490734100341796875">
        <ele>1882.4000244140625</ele>
        <time>2026-06-20T06:37:08.000Z</time>
        <extensions>
          <ns3:TrackPointExtension>
            <ns3:atemp>20.0</ns3:atemp>
          </ns3:TrackPointExtension>
        </extensions>
      </trkpt>
      <trkpt lat="42.5439070723950862884521484375" lon="20.11514293961226940155029296875">
        <ele>1882.4000244140625</ele>
        <time>2026-06-20T06:37:09.000Z</time>
        <extensions>
          <ns3:TrackPointExtension>
            <ns3:atemp>20.0</ns3:atemp>
          </ns3:TrackPointExtension>
        </extensions>
      </trkpt>
      <trkpt lat="42.54391604103147983551025390625" lon="20.11514998041093349456787109375">
        <ele>1882.4000244140625</ele>
        <time>2026-06-20T06:37:10.000Z</time>
        <extensions>
          <ns3:TrackPointExtension>
            <ns3:atemp>20.0</ns3:atemp>
          </ns3:TrackPointExtension>
        </extensions>
      </trkpt>
      <trkpt lat="42.54393272101879119873046875" lon="20.11515685357153415679931640625">
        <ele>1882.5999755859375</ele>
        <time>2026-06-20T06:37:11.000Z</time>
        <extensions>
          <ns3:TrackPointExtension>
            <ns3:atemp>20.0</ns3:atemp>
          </ns3:TrackPointExtension>
        </extensions>
      </trkpt>
      <trkpt lat="42.54395644180476665496826171875" lon="20.11515785939991474151611328125">
        <ele>1882.800048828125</ele>
        <time>2026-06-20T06:37:12.000Z</time>
        <extensions>
          <ns3:TrackPointExtension>
            <ns3:atemp>20.0</ns3:atemp>
          </ns3:TrackPointExtension>
        </extensions>
      </trkpt>
      <trkpt lat="42.54397471435368061065673828125" lon="20.11516707949340343475341796875">
        <ele>1882.800048828125</ele>
        <time>2026-06-20T06:37:13.000Z</time>
        <extensions>
          <ns3:TrackPointExtension>
            <ns3:atemp>20.0</ns3:atemp>
          </ns3:TrackPointExtension>
        </extensions>
      </trkpt>
      <trkpt lat="42.54398326389491558074951171875" lon="20.11517487466335296630859375">
        <ele>1882.800048828125</ele>
        <time>2026-06-20T06:37:14.000Z</time>
        <extensions>
          <ns3:TrackPointExtension>
            <ns3:atemp>20.0</ns3:atemp>
          </ns3:TrackPointExtension>
        </extensions>
      </trkpt>
      <trkpt lat="42.54399550147354602813720703125" lon="20.115182586014270782470703125">
        <ele>1883</ele>
        <time>2026-06-20T06:37:15.000Z</time>
        <extensions>
          <ns3:TrackPointExtension>
            <ns3:atemp>20.0</ns3:atemp>
          </ns3:TrackPointExtension>
        </extensions>
      </trkpt>
      <trkpt lat="42.5440143607556819915771484375" lon="20.11519222520291805267333984375">
        <ele>1883</ele>
        <time>2026-06-20T06:37:16.000Z</time>
        <extensions>
          <ns3:TrackPointExtension>
            <ns3:atemp>20.0</ns3:atemp>
          </ns3:TrackPointExtension>
        </extensions>
      </trkpt>
      <trkpt lat="42.54402047954499721527099609375" lon="20.1152037084102630615234375">
        <ele>1883</ele>
        <time>2026-06-20T06:37:17.000Z</time>
        <extensions>
          <ns3:TrackPointExtension>
            <ns3:atemp>20.0</ns3:atemp>
          </ns3:TrackPointExtension>
        </extensions>
      </trkpt>
      <trkpt lat="42.544026933610439300537109375" lon="20.115216784179210662841796875">
        <ele>1883</ele>
        <time>2026-06-20T06:37:18.000Z</time>
        <extensions>
          <ns3:TrackPointExtension>
            <ns3:atemp>20.0</ns3:atemp>
          </ns3:TrackPointExtension>
        </extensions>
      </trkpt>
      <trkpt lat="42.544034980237483978271484375" lon="20.11523413471877574920654296875">
        <ele>1883</ele>
        <time>2026-06-20T06:37:19.000Z</time>
        <extensions>
          <ns3:TrackPointExtension>
            <ns3:atemp>20.0</ns3:atemp>
          </ns3:TrackPointExtension>
        </extensions>
      </trkpt>
      <trkpt lat="42.5440462119877338409423828125" lon="20.1152508147060871124267578125">
        <ele>1883.199951171875</ele>
        <time>2026-06-20T06:37:20.000Z</time>
        <extensions>
          <ns3:TrackPointExtension>
            <ns3:atemp>20.0</ns3:atemp>
          </ns3:TrackPointExtension>
        </extensions>
      </trkpt>
      <trkpt lat="42.544059790670871734619140625" lon="20.11526782996952533721923828125">
        <ele>1883.199951171875</ele>
        <time>2026-06-20T06:37:21.000Z</time>
        <extensions>
          <ns3:TrackPointExtension>
            <ns3:atemp>20.0</ns3:atemp>
          </ns3:TrackPointExtension>
        </extensions>
      </trkpt>
      <trkpt lat="42.544070519506931304931640625" lon="20.11528392322361469268798828125">
        <ele>1883.199951171875</ele>
        <time>2026-06-20T06:37:22.000Z</time>
        <extensions>
          <ns3:TrackPointExtension>
            <ns3:atemp>20.0</ns3:atemp>
          </ns3:TrackPointExtension>
        </extensions>
      </trkpt>
      <trkpt lat="42.54407697357237339019775390625" lon="20.1153007708489894866943359375">
        <ele>1883.199951171875</ele>
        <time>2026-06-20T06:37:23.000Z</time>
        <extensions>
          <ns3:TrackPointExtension>
            <ns3:atemp>20.0</ns3:atemp>
          </ns3:TrackPointExtension>
        </extensions>
      </trkpt>
      <trkpt lat="42.54408502019941806793212890625" lon="20.115320049226284027099609375">
        <ele>1883.199951171875</ele>
        <time>2026-06-20T06:37:24.000Z</time>
        <extensions>
          <ns3:TrackPointExtension>
            <ns3:atemp>20.0</ns3:atemp>
          </ns3:TrackPointExtension>
        </extensions>
      </trkpt>
      <trkpt lat="42.5440929830074310302734375" lon="20.1153369806706905364990234375">
        <ele>1883.199951171875</ele>
        <time>2026-06-20T06:37:25.000Z</time>
        <extensions>
          <ns3:TrackPointExtension>
            <ns3:atemp>20.0</ns3:atemp>
          </ns3:TrackPointExtension>
        </extensions>
      </trkpt>
      <trkpt lat="42.54410035908222198486328125" lon="20.11534930206835269927978515625">
        <ele>1883.199951171875</ele>
        <time>2026-06-20T06:37:26.000Z</time>
        <extensions>
          <ns3:TrackPointExtension>
            <ns3:atemp>20.0</ns3:atemp>
          </ns3:TrackPointExtension>
        </extensions>
      </trkpt>
      <trkpt lat="42.5441079027950763702392578125" lon="20.11535936035215854644775390625">
        <ele>1883.199951171875</ele>
        <time>2026-06-20T06:37:27.000Z</time>
        <extensions>
          <ns3:TrackPointExtension>
            <ns3:atemp>20.0</ns3:atemp>
          </ns3:TrackPointExtension>
        </extensions>
      </trkpt>
      <trkpt lat="42.54411603324115276336669921875" lon="20.11537109501659870147705078125">
        <ele>1883.199951171875</ele>
        <time>2026-06-20T06:37:28.000Z</time>
        <extensions>
          <ns3:TrackPointExtension>
            <ns3:atemp>20.0</ns3:atemp>
          </ns3:TrackPointExtension>
        </extensions>
      </trkpt>
      <trkpt lat="42.544121481478214263916015625" lon="20.1153758727014064788818359375">
        <ele>1883.199951171875</ele>
        <time>2026-06-20T06:37:29.000Z</time>
        <extensions>
          <ns3:TrackPointExtension>
            <ns3:atemp>20.0</ns3:atemp>
          </ns3:TrackPointExtension>
        </extensions>
      </trkpt>
      <trkpt lat="42.54412458278238773345947265625" lon="20.11538199149072170257568359375">
        <ele>1883.199951171875</ele>
        <time>2026-06-20T06:37:30.000Z</time>
        <extensions>
          <ns3:TrackPointExtension>
            <ns3:atemp>20.0</ns3:atemp>
          </ns3:TrackPointExtension>
        </extensions>
      </trkpt>
      <trkpt lat="42.54412927664816379547119140625" lon="20.115392468869686126708984375">
        <ele>1883.4000244140625</ele>
        <time>2026-06-20T06:37:31.000Z</time>
        <extensions>
          <ns3:TrackPointExtension>
            <ns3:atemp>20.0</ns3:atemp>
          </ns3:TrackPointExtension>
        </extensions>
      </trkpt>
      <trkpt lat="42.54413598217070102691650390625" lon="20.11541426181793212890625">
        <ele>1883.4000244140625</ele>
        <time>2026-06-20T06:37:32.000Z</time>
        <extensions>
          <ns3:TrackPointExtension>
            <ns3:atemp>20.0</ns3:atemp>
          </ns3:TrackPointExtension>
        </extensions>
      </trkpt>
      <trkpt lat="42.544142939150333404541015625" lon="20.1154295168817043304443359375">
        <ele>1883.199951171875</ele>
        <time>2026-06-20T06:37:33.000Z</time>
        <extensions>
          <ns3:TrackPointExtension>
            <ns3:atemp>20.0</ns3:atemp>
          </ns3:TrackPointExtension>
        </extensions>
      </trkpt>
      <trkpt lat="42.54414922557771205902099609375" lon="20.1154489628970623016357421875">
        <ele>1883.199951171875</ele>
        <time>2026-06-20T06:37:34.000Z</time>
        <extensions>
          <ns3:TrackPointExtension>
            <ns3:atemp>20.0</ns3:atemp>
          </ns3:TrackPointExtension>
        </extensions>
      </trkpt>
      <trkpt lat="42.54415794275701045989990234375" lon="20.11546949855983257293701171875">
        <ele>1883.199951171875</ele>
        <time>2026-06-20T06:37:35.000Z</time>
        <extensions>
          <ns3:TrackPointExtension>
            <ns3:atemp>20.0</ns3:atemp>
          </ns3:TrackPointExtension>
        </extensions>
      </trkpt>
      <trkpt lat="42.5441699288785457611083984375" lon="20.11548710055649280548095703125">
        <ele>1883.199951171875</ele>
        <time>2026-06-20T06:37:36.000Z</time>
        <extensions>
          <ns3:TrackPointExtension>
            <ns3:atemp>20.0</ns3:atemp>
          </ns3:TrackPointExtension>
        </extensions>
      </trkpt>
      <trkpt lat="42.544182501733303070068359375" lon="20.11551191098988056182861328125">
        <ele>1883.199951171875</ele>
        <time>2026-06-20T06:37:37.000Z</time>
        <extensions>
          <ns3:TrackPointExtension>
            <ns3:atemp>20.0</ns3:atemp>
          </ns3:TrackPointExtension>
        </extensions>
      </trkpt>
      <trkpt lat="42.54419624805450439453125" lon="20.11553672142326831817626953125">
        <ele>1883.199951171875</ele>
        <time>2026-06-20T06:37:38.000Z</time>
        <extensions>
          <ns3:TrackPointExtension>
            <ns3:atemp>20.0</ns3:atemp>
          </ns3:TrackPointExtension>
        </extensions>
      </trkpt>
      <trkpt lat="42.5442071445286273956298828125" lon="20.1155673153698444366455078125">
        <ele>1883.199951171875</ele>
        <time>2026-06-20T06:37:39.000Z</time>
        <extensions>
          <ns3:TrackPointExtension>
            <ns3:atemp>20.0</ns3:atemp>
          </ns3:TrackPointExtension>
        </extensions>
      </trkpt>
      <trkpt lat="42.54421996884047985076904296875" lon="20.11559288017451763153076171875">
        <ele>1883.4000244140625</ele>
        <time>2026-06-20T06:37:40.000Z</time>
        <extensions>
          <ns3:TrackPointExtension>
            <ns3:atemp>20.0</ns3:atemp>
          </ns3:TrackPointExtension>
        </extensions>
      </trkpt>
      <trkpt lat="42.54423044621944427490234375" lon="20.11561517603695392608642578125">
        <ele>1883.4000244140625</ele>
        <time>2026-06-20T06:37:41.000Z</time>
        <extensions>
          <ns3:TrackPointExtension>
            <ns3:atemp>20.0</ns3:atemp>
          </ns3:TrackPointExtension>
        </extensions>
      </trkpt>
      <trkpt lat="42.54424109123647212982177734375" lon="20.11563562788069248199462890625">
        <ele>1883.5999755859375</ele>
        <time>2026-06-20T06:37:42.000Z</time>
        <extensions>
          <ns3:TrackPointExtension>
            <ns3:atemp>20.0</ns3:atemp>
          </ns3:TrackPointExtension>
        </extensions>
      </trkpt>
      <trkpt lat="42.54425014369189739227294921875" lon="20.1156628690659999847412109375">
        <ele>1883.5999755859375</ele>
        <time>2026-06-20T06:37:43.000Z</time>
        <extensions>
          <ns3:TrackPointExtension>
            <ns3:atemp>20.0</ns3:atemp>
          </ns3:TrackPointExtension>
        </extensions>
      </trkpt>
      <trkpt lat="42.54426187835633754730224609375" lon="20.11568960733711719512939453125">
        <ele>1883.5999755859375</ele>
        <time>2026-06-20T06:37:44.000Z</time>
        <extensions>
          <ns3:TrackPointExtension>
            <ns3:atemp>20.0</ns3:atemp>
          </ns3:TrackPointExtension>
        </extensions>
      </trkpt>
      <trkpt lat="42.544275708496570587158203125" lon="20.11571274138987064361572265625">
        <ele>1883.5999755859375</ele>
        <time>2026-06-20T06:37:45.000Z</time>
        <extensions>
          <ns3:TrackPointExtension>
            <ns3:atemp>20.0</ns3:atemp>
          </ns3:TrackPointExtension>
        </extensions>
      </trkpt>
      <trkpt lat="42.544284760951995849609375" lon="20.115737132728099822998046875">
        <ele>1883.5999755859375</ele>
        <time>2026-06-20T06:37:46.000Z</time>
        <extensions>
          <ns3:TrackPointExtension>
            <ns3:atemp>20.0</ns3:atemp>
          </ns3:TrackPointExtension>
        </extensions>
      </trkpt>
      <trkpt lat="42.54429490305483341217041015625" lon="20.11576169170439243316650390625">
        <ele>1883.5999755859375</ele>
        <time>2026-06-20T06:37:47.000Z</time>
        <extensions>
          <ns3:TrackPointExtension>
            <ns3:atemp>20.0</ns3:atemp>
          </ns3:TrackPointExtension>
        </extensions>
      </trkpt>
      <trkpt lat="42.54430261440575122833251953125" lon="20.115792788565158843994140625">
        <ele>1883.5999755859375</ele>
        <time>2026-06-20T06:37:48.000Z</time>
        <extensions>
          <ns3:TrackPointExtension>
            <ns3:atemp>20.0</ns3:atemp>
          </ns3:TrackPointExtension>
        </extensions>
      </trkpt>
      <trkpt lat="42.5443117506802082061767578125" lon="20.1158248074352741241455078125">
        <ele>1883.5999755859375</ele>
        <time>2026-06-20T06:37:49.000Z</time>
        <extensions>
          <ns3:TrackPointExtension>
            <ns3:atemp>20.0</ns3:atemp>
          </ns3:TrackPointExtension>
        </extensions>
      </trkpt>
      <trkpt lat="42.5443236529827117919921875" lon="20.11585758067667484283447265625">
        <ele>1883.5999755859375</ele>
        <time>2026-06-20T06:37:50.000Z</time>
        <extensions>
          <ns3:TrackPointExtension>
            <ns3:atemp>20.0</ns3:atemp>
          </ns3:TrackPointExtension>
        </extensions>
      </trkpt>
      <trkpt lat="42.54433882422745227813720703125" lon="20.11588926427066326141357421875">
        <ele>1883.5999755859375</ele>
        <time>2026-06-20T06:37:51.000Z</time>
        <extensions>
          <ns3:TrackPointExtension>
            <ns3:atemp>20.0</ns3:atemp>
          </ns3:TrackPointExtension>
        </extensions>
      </trkpt>
      <trkpt lat="42.5443585216999053955078125" lon="20.11592111550271511077880859375">
        <ele>1883.5999755859375</ele>
        <time>2026-06-20T06:37:52.000Z</time>
        <extensions>
          <ns3:TrackPointExtension>
            <ns3:atemp>20.0</ns3:atemp>
          </ns3:TrackPointExtension>
        </extensions>
      </trkpt>
      <trkpt lat="42.54437570460140705108642578125" lon="20.115952380001544952392578125">
        <ele>1883.5999755859375</ele>
        <time>2026-06-20T06:37:53.000Z</time>
        <extensions>
          <ns3:TrackPointExtension>
            <ns3:atemp>20.0</ns3:atemp>
          </ns3:TrackPointExtension>
        </extensions>
      </trkpt>
      <trkpt lat="42.5443888641893863677978515625" lon="20.11598431505262851715087890625">
        <ele>1883.5999755859375</ele>
        <time>2026-06-20T06:37:54.000Z</time>
        <extensions>
          <ns3:TrackPointExtension>
            <ns3:atemp>20.0</ns3:atemp>
          </ns3:TrackPointExtension>
        </extensions>
      </trkpt>
      <trkpt lat="42.54439800046384334564208984375" lon="20.11602220125496387481689453125">
        <ele>1883.800048828125</ele>
        <time>2026-06-20T06:37:55.000Z</time>
        <extensions>
          <ns3:TrackPointExtension>
            <ns3:atemp>20.0</ns3:atemp>
          </ns3:TrackPointExtension>
        </extensions>
      </trkpt>
      <trkpt lat="42.54440688528120517730712890625" lon="20.11606092564761638641357421875">
        <ele>1883.800048828125</ele>
        <time>2026-06-20T06:37:56.000Z</time>
        <extensions>
          <ns3:TrackPointExtension>
            <ns3:atemp>20.0</ns3:atemp>
          </ns3:TrackPointExtension>
        </extensions>
      </trkpt>
      <trkpt lat="42.5444193743169307708740234375" lon="20.116101242601871490478515625">
        <ele>1883.800048828125</ele>
        <time>2026-06-20T06:37:57.000Z</time>
        <extensions>
          <ns3:TrackPointExtension>
            <ns3:atemp>20.0</ns3:atemp>
          </ns3:TrackPointExtension>
        </extensions>
      </trkpt>
      <trkpt lat="42.544428594410419464111328125" lon="20.11614507995545864105224609375">
        <ele>1883.800048828125</ele>
        <time>2026-06-20T06:37:58.000Z</time>
        <extensions>
          <ns3:TrackPointExtension>
            <ns3:atemp>20.0</ns3:atemp>
          </ns3:TrackPointExtension>
        </extensions>
      </trkpt>
      <trkpt lat="42.5444408319890499114990234375" lon="20.11619470082223415374755859375">
        <ele>1883.5999755859375</ele>
        <time>2026-06-20T06:37:59.000Z</time>
        <extensions>
          <ns3:TrackPointExtension>
            <ns3:atemp>20.0</ns3:atemp>
          </ns3:TrackPointExtension>
        </extensions>
      </trkpt>
      <trkpt lat="42.54445600323379039764404296875" lon="20.11624650098383426666259765625">
        <ele>1883.4000244140625</ele>
        <time>2026-06-20T06:38:00.000Z</time>
        <extensions>
          <ns3:TrackPointExtension>
            <ns3:atemp>20.0</ns3:atemp>
          </ns3:TrackPointExtension>
        </extensions>
      </trkpt>
      <trkpt lat="42.54446270875632762908935546875" lon="20.116296708583831787109375">
        <ele>1883.199951171875</ele>
        <time>2026-06-20T06:38:01.000Z</time>
        <extensions>
          <ns3:TrackPointExtension>
            <ns3:atemp>20.0</ns3:atemp>
          </ns3:TrackPointExtension>
        </extensions>
      </trkpt>
      <trkpt lat="42.5444730184972286224365234375" lon="20.1163407973945140838623046875">
        <ele>1883</ele>
        <time>2026-06-20T06:38:02.000Z</time>
        <extensions>
          <ns3:TrackPointExtension>
            <ns3:atemp>20.0</ns3:atemp>
          </ns3:TrackPointExtension>
        </extensions>
      </trkpt>
      <trkpt lat="42.54448123276233673095703125" lon="20.11637910269200801849365234375">
        <ele>1882.800048828125</ele>
        <time>2026-06-20T06:38:03.000Z</time>
        <extensions>
          <ns3:TrackPointExtension>
            <ns3:atemp>20.0</ns3:atemp>
          </ns3:TrackPointExtension>
        </extensions>
      </trkpt>
      <trkpt lat="42.5444819033145904541015625" lon="20.11642386205494403839111328125">
        <ele>1882.5999755859375</ele>
        <time>2026-06-20T06:38:04.000Z</time>
        <extensions>
          <ns3:TrackPointExtension>
            <ns3:atemp>20.0</ns3:atemp>
          </ns3:TrackPointExtension>
        </extensions>
      </trkpt>
      <trkpt lat="42.54448399879038333892822265625" lon="20.11645319871604442596435546875">
        <ele>1882.5999755859375</ele>
        <time>2026-06-20T06:38:05.000Z</time>
        <extensions>
          <ns3:TrackPointExtension>
            <ns3:atemp>20.0</ns3:atemp>
          </ns3:TrackPointExtension>
        </extensions>
      </trkpt>
      <trkpt lat="42.5444845855236053466796875" lon="20.11647381819784641265869140625">
        <ele>1882.4000244140625</ele>
        <time>2026-06-20T06:38:06.000Z</time>
        <extensions>
          <ns3:TrackPointExtension>
            <ns3:atemp>20.0</ns3:atemp>
          </ns3:TrackPointExtension>
        </extensions>
      </trkpt>
      <trkpt lat="42.5444874353706836700439453125" lon="20.116498880088329315185546875">
        <ele>1882.5999755859375</ele>
        <time>2026-06-20T06:38:07.000Z</time>
        <extensions>
          <ns3:TrackPointExtension>
            <ns3:atemp>20.0</ns3:atemp>
          </ns3:TrackPointExtension>
        </extensions>
      </trkpt>
      <trkpt lat="42.54449958913028240203857421875" lon="20.116516649723052978515625">
        <ele>1882.4000244140625</ele>
        <time>2026-06-20T06:38:08.000Z</time>
        <extensions>
          <ns3:TrackPointExtension>
            <ns3:atemp>20.0</ns3:atemp>
          </ns3:TrackPointExtension>
        </extensions>
      </trkpt>
      <trkpt lat="42.544517777860164642333984375" lon="20.11652293615043163299560546875">
        <ele>1882.199951171875</ele>
        <time>2026-06-20T06:38:09.000Z</time>
        <extensions>
          <ns3:TrackPointExtension>
            <ns3:atemp>20.0</ns3:atemp>
          </ns3:TrackPointExtension>
        </extensions>
      </trkpt>
      <trkpt lat="42.5445417501032352447509765625" lon="20.11652930639684200286865234375">
        <ele>1882</ele>
        <time>2026-06-20T06:38:10.000Z</time>
        <extensions>
          <ns3:TrackPointExtension>
            <ns3:atemp>20.0</ns3:atemp>
          </ns3:TrackPointExtension>
        </extensions>
      </trkpt>
      <trkpt lat="42.54455901682376861572265625" lon="20.116539783775806427001953125">
        <ele>1881.5999755859375</ele>
        <time>2026-06-20T06:38:11.000Z</time>
        <extensions>
          <ns3:TrackPointExtension>
            <ns3:atemp>20.0</ns3:atemp>
          </ns3:TrackPointExtension>
        </extensions>
      </trkpt>
      <trkpt lat="42.54457242786884307861328125" lon="20.116551183164119720458984375">
        <ele>1881.199951171875</ele>
        <time>2026-06-20T06:38:12.000Z</time>
        <extensions>
          <ns3:TrackPointExtension>
            <ns3:atemp>20.0</ns3:atemp>
          </ns3:TrackPointExtension>
        </extensions>
      </trkpt>
      <trkpt lat="42.5445809774100780487060546875" lon="20.11656249873340129852294921875">
        <ele>1880.800048828125</ele>
        <time>2026-06-20T06:38:13.000Z</time>
        <extensions>
          <ns3:TrackPointExtension>
            <ns3:atemp>20.0</ns3:atemp>
          </ns3:TrackPointExtension>
        </extensions>
      </trkpt>
      <trkpt lat="42.5445873476564884185791015625" lon="20.1165785081684589385986328125">
        <ele>1880.5999755859375</ele>
        <time>2026-06-20T06:38:14.000Z</time>
        <extensions>
          <ns3:TrackPointExtension>
            <ns3:atemp>20.0</ns3:atemp>
          </ns3:TrackPointExtension>
        </extensions>
      </trkpt>
      <trkpt lat="42.544590197503566741943359375" lon="20.1166009716689586639404296875">
        <ele>1880.4000244140625</ele>
        <time>2026-06-20T06:38:15.000Z</time>
        <extensions>
          <ns3:TrackPointExtension>
            <ns3:atemp>20.0</ns3:atemp>
          </ns3:TrackPointExtension>
        </extensions>
      </trkpt>
      <trkpt lat="42.54458776675164699554443359375" lon="20.11661664582788944244384765625">
        <ele>1880.4000244140625</ele>
        <time>2026-06-20T06:38:16.000Z</time>
        <extensions>
          <ns3:TrackPointExtension>
            <ns3:atemp>20.0</ns3:atemp>
          </ns3:TrackPointExtension>
        </extensions>
      </trkpt>
      <trkpt lat="42.54458240233361721038818359375" lon="20.1166287995874881744384765625">
        <ele>1880.5999755859375</ele>
        <time>2026-06-20T06:38:17.000Z</time>
        <extensions>
          <ns3:TrackPointExtension>
            <ns3:atemp>20.0</ns3:atemp>
          </ns3:TrackPointExtension>
        </extensions>
      </trkpt>
      <trkpt lat="42.54457737319171428680419921875" lon="20.11664195917546749114990234375">
        <ele>1880.5999755859375</ele>
        <time>2026-06-20T06:38:18.000Z</time>
        <extensions>
          <ns3:TrackPointExtension>
            <ns3:atemp>20.0</ns3:atemp>
          </ns3:TrackPointExtension>
        </extensions>
      </trkpt>
      <trkpt lat="42.54456982947885990142822265625" lon="20.1166562922298908233642578125">
        <ele>1880.800048828125</ele>
        <time>2026-06-20T06:38:19.000Z</time>
        <extensions>
          <ns3:TrackPointExtension>
            <ns3:atemp>20.0</ns3:atemp>
          </ns3:TrackPointExtension>
        </extensions>
      </trkpt>
      <trkpt lat="42.5445625372231006622314453125" lon="20.11666953563690185546875">
        <ele>1881</ele>
        <time>2026-06-20T06:38:20.000Z</time>
        <extensions>
          <ns3:TrackPointExtension>
            <ns3:atemp>20.0</ns3:atemp>
          </ns3:TrackPointExtension>
        </extensions>
      </trkpt>
      <trkpt lat="42.544552646577358245849609375" lon="20.11668470688164234161376953125">
        <ele>1881.199951171875</ele>
        <time>2026-06-20T06:38:21.000Z</time>
        <extensions>
          <ns3:TrackPointExtension>
            <ns3:atemp>20.0</ns3:atemp>
          </ns3:TrackPointExtension>
        </extensions>
      </trkpt>
      <trkpt lat="42.54454669542610645294189453125" lon="20.11670968495309352874755859375">
        <ele>1881.4000244140625</ele>
        <time>2026-06-20T06:38:22.000Z</time>
        <extensions>
          <ns3:TrackPointExtension>
            <ns3:atemp>20.0</ns3:atemp>
          </ns3:TrackPointExtension>
        </extensions>
      </trkpt>
      <trkpt lat="42.54454954527318477630615234375" lon="20.11673851870000362396240234375">
        <ele>1881.5999755859375</ele>
        <time>2026-06-20T06:38:23.000Z</time>
        <extensions>
          <ns3:TrackPointExtension>
            <ns3:atemp>20.0</ns3:atemp>
          </ns3:TrackPointExtension>
        </extensions>
      </trkpt>
      <trkpt lat="42.54455608315765857696533203125" lon="20.1167739741504192352294921875">
        <ele>1881.800048828125</ele>
        <time>2026-06-20T06:38:24.000Z</time>
        <extensions>
          <ns3:TrackPointExtension>
            <ns3:atemp>20.0</ns3:atemp>
          </ns3:TrackPointExtension>
        </extensions>
      </trkpt>
      <trkpt lat="42.544558010995388031005859375" lon="20.11680741794407367706298828125">
        <ele>1882</ele>
        <time>2026-06-20T06:38:25.000Z</time>
        <extensions>
          <ns3:TrackPointExtension>
            <ns3:atemp>20.0</ns3:atemp>
          </ns3:TrackPointExtension>
        </extensions>
      </trkpt>
      <trkpt lat="42.54456044174730777740478515625" lon="20.11684446595609188079833984375">
        <ele>1882.4000244140625</ele>
        <time>2026-06-20T06:38:26.000Z</time>
        <extensions>
          <ns3:TrackPointExtension>
            <ns3:atemp>20.0</ns3:atemp>
          </ns3:TrackPointExtension>
        </extensions>
      </trkpt>
      <trkpt lat="42.54456748254597187042236328125" lon="20.116876065731048583984375">
        <ele>1882.800048828125</ele>
        <time>2026-06-20T06:38:27.000Z</time>
        <extensions>
          <ns3:TrackPointExtension>
            <ns3:atemp>20.0</ns3:atemp>
          </ns3:TrackPointExtension>
        </extensions>
      </trkpt>
      <trkpt lat="42.5445739366114139556884765625" lon="20.116908587515354156494140625">
        <ele>1883.199951171875</ele>
        <time>2026-06-20T06:38:28.000Z</time>
        <extensions>
          <ns3:TrackPointExtension>
            <ns3:atemp>20.0</ns3:atemp>
          </ns3:TrackPointExtension>
        </extensions>
      </trkpt>
      <trkpt lat="42.544577457010746002197265625" lon="20.11694102548062801361083984375">
        <ele>1883.5999755859375</ele>
        <time>2026-06-20T06:38:29.000Z</time>
        <extensions>
          <ns3:TrackPointExtension>
            <ns3:atemp>20.0</ns3:atemp>
          </ns3:TrackPointExtension>
        </extensions>
      </trkpt>
      <trkpt lat="42.5445803068578243255615234375" lon="20.11697203852236270904541015625">
        <ele>1884</ele>
        <time>2026-06-20T06:38:30.000Z</time>
        <extensions>
          <ns3:TrackPointExtension>
            <ns3:atemp>20.0</ns3:atemp>
          </ns3:TrackPointExtension>
        </extensions>
      </trkpt>
      <trkpt lat="42.54458625800907611846923828125" lon="20.11700238101184368133544921875">
        <ele>1884.199951171875</ele>
        <time>2026-06-20T06:38:31.000Z</time>
        <extensions>
          <ns3:TrackPointExtension>
            <ns3:atemp>20.0</ns3:atemp>
          </ns3:TrackPointExtension>
        </extensions>
      </trkpt>
      <trkpt lat="42.5446017645299434661865234375" lon="20.1170294545590877532958984375">
        <ele>1884.5999755859375</ele>
        <time>2026-06-20T06:38:32.000Z</time>
        <extensions>
          <ns3:TrackPointExtension>
            <ns3:atemp>20.0</ns3:atemp>
          </ns3:TrackPointExtension>
        </extensions>
      </trkpt>
      <trkpt lat="42.54461525939404964447021484375" lon="20.1170597970485687255859375">
        <ele>1885</ele>
        <time>2026-06-20T06:38:33.000Z</time>
        <extensions>
          <ns3:TrackPointExtension>
            <ns3:atemp>20.0</ns3:atemp>
          </ns3:TrackPointExtension>
        </extensions>
      </trkpt>
      <trkpt lat="42.544629760086536407470703125" lon="20.11709189973771572113037109375">
        <ele>1885.199951171875</ele>
        <time>2026-06-20T06:38:34.000Z</time>
        <extensions>
          <ns3:TrackPointExtension>
            <ns3:atemp>20.0</ns3:atemp>
          </ns3:TrackPointExtension>
        </extensions>
      </trkpt>
      <trkpt lat="42.54464308731257915496826171875" lon="20.1171253435313701629638671875">
        <ele>1885.199951171875</ele>
        <time>2026-06-20T06:38:35.000Z</time>
        <extensions>
          <ns3:TrackPointExtension>
            <ns3:atemp>20.0</ns3:atemp>
          </ns3:TrackPointExtension>
        </extensions>
      </trkpt>
      <trkpt lat="42.54465851001441478729248046875" lon="20.1171521656215190887451171875">
        <ele>1885.4000244140625</ele>
        <time>2026-06-20T06:38:36.000Z</time>
        <extensions>
          <ns3:TrackPointExtension>
            <ns3:atemp>20.0</ns3:atemp>
          </ns3:TrackPointExtension>
        </extensions>
      </trkpt>
      <trkpt lat="42.54467879422008991241455078125" lon="20.11717437766492366790771484375">
        <ele>1885.4000244140625</ele>
        <time>2026-06-20T06:38:37.000Z</time>
        <extensions>
          <ns3:TrackPointExtension>
            <ns3:atemp>20.0</ns3:atemp>
          </ns3:TrackPointExtension>
        </extensions>
      </trkpt>
      <trkpt lat="42.54470360465347766876220703125" lon="20.11720220558345317840576171875">
        <ele>1885.4000244140625</ele>
        <time>2026-06-20T06:38:38.000Z</time>
        <extensions>
          <ns3:TrackPointExtension>
            <ns3:atemp>20.0</ns3:atemp>
          </ns3:TrackPointExtension>
        </extensions>
      </trkpt>
      <trkpt lat="42.544728331267833709716796875" lon="20.11723740957677364349365234375">
        <ele>1885.4000244140625</ele>
        <time>2026-06-20T06:38:39.000Z</time>
        <extensions>
          <ns3:TrackPointExtension>
            <ns3:atemp>20.0</ns3:atemp>
          </ns3:TrackPointExtension>
        </extensions>
      </trkpt>
      <trkpt lat="42.5447509624063968658447265625" lon="20.11727881617844104766845703125">
        <ele>1885.4000244140625</ele>
        <time>2026-06-20T06:38:40.000Z</time>
        <extensions>
          <ns3:TrackPointExtension>
            <ns3:atemp>20.0</ns3:atemp>
          </ns3:TrackPointExtension>
        </extensions>
      </trkpt>
      <trkpt lat="42.54476814530789852142333984375" lon="20.11732173152267932891845703125">
        <ele>1885.199951171875</ele>
        <time>2026-06-20T06:38:41.000Z</time>
        <extensions>
          <ns3:TrackPointExtension>
            <ns3:atemp>20.0</ns3:atemp>
          </ns3:TrackPointExtension>
        </extensions>
      </trkpt>
      <trkpt lat="42.5447865016758441925048828125" lon="20.11736196465790271759033203125">
        <ele>1885.199951171875</ele>
        <time>2026-06-20T06:38:42.000Z</time>
        <extensions>
          <ns3:TrackPointExtension>
            <ns3:atemp>20.0</ns3:atemp>
          </ns3:TrackPointExtension>
        </extensions>
      </trkpt>
      <trkpt lat="42.54479630850255489349365234375" lon="20.11739817447960376739501953125">
        <ele>1885.199951171875</ele>
        <time>2026-06-20T06:38:43.000Z</time>
        <extensions>
          <ns3:TrackPointExtension>
            <ns3:atemp>20.0</ns3:atemp>
          </ns3:TrackPointExtension>
        </extensions>
      </trkpt>
      <trkpt lat="42.54479966126382350921630859375" lon="20.11742432601749897003173828125">
        <ele>1885.4000244140625</ele>
        <time>2026-06-20T06:38:44.000Z</time>
        <extensions>
          <ns3:TrackPointExtension>
            <ns3:atemp>20.0</ns3:atemp>
          </ns3:TrackPointExtension>
        </extensions>
      </trkpt>
      <trkpt lat="42.54480100236833095550537109375" lon="20.1174408383667469024658203125">
        <ele>1885.5999755859375</ele>
        <time>2026-06-20T06:38:45.000Z</time>
        <extensions>
          <ns3:TrackPointExtension>
            <ns3:atemp>20.0</ns3:atemp>
          </ns3:TrackPointExtension>
        </extensions>
      </trkpt>
      <trkpt lat="42.54480267874896526336669921875" lon="20.1174581050872802734375">
        <ele>1885.5999755859375</ele>
        <time>2026-06-20T06:38:46.000Z</time>
        <extensions>
          <ns3:TrackPointExtension>
            <ns3:atemp>20.0</ns3:atemp>
          </ns3:TrackPointExtension>
        </extensions>
      </trkpt>
      <trkpt lat="42.54479496739804744720458984375" lon="20.11747176758944988250732421875">
        <ele>1885.800048828125</ele>
        <time>2026-06-20T06:38:47.000Z</time>
        <extensions>
          <ns3:TrackPointExtension>
            <ns3:atemp>20.0</ns3:atemp>
          </ns3:TrackPointExtension>
        </extensions>
      </trkpt>
      <trkpt lat="42.5447854958474636077880859375" lon="20.1174874417483806610107421875">
        <ele>1886</ele>
        <time>2026-06-20T06:38:48.000Z</time>
        <extensions>
          <ns3:TrackPointExtension>
            <ns3:atemp>20.0</ns3:atemp>
          </ns3:TrackPointExtension>
        </extensions>
      </trkpt>
      <trkpt lat="42.544775269925594329833984375" lon="20.117501355707645416259765625">
        <ele>1886.199951171875</ele>
        <time>2026-06-20T06:38:49.000Z</time>
        <extensions>
          <ns3:TrackPointExtension>
            <ns3:atemp>20.0</ns3:atemp>
          </ns3:TrackPointExtension>
        </extensions>
      </trkpt>
      <trkpt lat="42.54476697184145450592041015625" lon="20.11752105318009853363037109375">
        <ele>1886.4000244140625</ele>
        <time>2026-06-20T06:38:50.000Z</time>
        <extensions>
          <ns3:TrackPointExtension>
            <ns3:atemp>19.0</ns3:atemp>
          </ns3:TrackPointExtension>
        </extensions>
      </trkpt>
      <trkpt lat="42.54475624300539493560791015625" lon="20.11754519306123256683349609375">
        <ele>1886.5999755859375</ele>
        <time>2026-06-20T06:38:51.000Z</time>
        <extensions>
          <ns3:TrackPointExtension>
            <ns3:atemp>19.0</ns3:atemp>
          </ns3:TrackPointExtension>
        </extensions>
      </trkpt>
      <trkpt lat="42.5447385571897029876708984375" lon="20.117566399276256561279296875">
        <ele>1887</ele>
        <time>2026-06-20T06:38:52.000Z</time>
        <extensions>
          <ns3:TrackPointExtension>
            <ns3:atemp>20.0</ns3:atemp>
          </ns3:TrackPointExtension>
        </extensions>
      </trkpt>
      <trkpt lat="42.5447248108685016632080078125" lon="20.1175866834819316864013671875">
        <ele>1887.199951171875</ele>
        <time>2026-06-20T06:38:53.000Z</time>
        <extensions>
          <ns3:TrackPointExtension>
            <ns3:atemp>20.0</ns3:atemp>
          </ns3:TrackPointExtension>
        </extensions>
      </trkpt>
      <trkpt lat="42.54471031017601490020751953125" lon="20.11761073954403400421142578125">
        <ele>1887.5999755859375</ele>
        <time>2026-06-20T06:38:54.000Z</time>
        <extensions>
          <ns3:TrackPointExtension>
            <ns3:atemp>19.0</ns3:atemp>
          </ns3:TrackPointExtension>
        </extensions>
      </trkpt>
      <trkpt lat="42.544700838625431060791015625" lon="20.11763370595872402191162109375">
        <ele>1888</ele>
        <time>2026-06-20T06:38:55.000Z</time>
        <extensions>
          <ns3:TrackPointExtension>
            <ns3:atemp>20.0</ns3:atemp>
          </ns3:TrackPointExtension>
        </extensions>
      </trkpt>
      <trkpt lat="42.5446875952184200286865234375" lon="20.117652900516986846923828125">
        <ele>1888.4000244140625</ele>
        <time>2026-06-20T06:38:56.000Z</time>
        <extensions>
          <ns3:TrackPointExtension>
            <ns3:atemp>20.0</ns3:atemp>
          </ns3:TrackPointExtension>
        </extensions>
      </trkpt>
      <trkpt lat="42.5446745194494724273681640625" lon="20.1176721788942813873291015625">
        <ele>1889</ele>
        <time>2026-06-20T06:38:57.000Z</time>
        <extensions>
          <ns3:TrackPointExtension>
            <ns3:atemp>20.0</ns3:atemp>
          </ns3:TrackPointExtension>
        </extensions>
      </trkpt>
      <trkpt lat="42.54466739483177661895751953125" lon="20.117691121995449066162109375">
        <ele>1889.4000244140625</ele>
        <time>2026-06-20T06:38:58.000Z</time>
        <extensions>
          <ns3:TrackPointExtension>
            <ns3:atemp>20.0</ns3:atemp>
          </ns3:TrackPointExtension>
        </extensions>
      </trkpt>
      <trkpt lat="42.54465951584279537200927734375" lon="20.11770998127758502960205078125">
        <ele>1889.800048828125</ele>
        <time>2026-06-20T06:38:59.000Z</time>
        <extensions>
          <ns3:TrackPointExtension>
            <ns3:atemp>19.0</ns3:atemp>
          </ns3:TrackPointExtension>
        </extensions>
      </trkpt>
      <trkpt lat="42.54465096630156040191650390625" lon="20.11772456578910350799560546875">
        <ele>1890.199951171875</ele>
        <time>2026-06-20T06:39:00.000Z</time>
        <extensions>
          <ns3:TrackPointExtension>
            <ns3:atemp>19.0</ns3:atemp>
          </ns3:TrackPointExtension>
        </extensions>
      </trkpt>
      <trkpt lat="42.5446366332471370697021484375" lon="20.1177328638732433319091796875">
        <ele>1890.5999755859375</ele>
        <time>2026-06-20T06:39:01.000Z</time>
        <extensions>
          <ns3:TrackPointExtension>
            <ns3:atemp>19.0</ns3:atemp>
          </ns3:TrackPointExtension>
        </extensions>
      </trkpt>
      <trkpt lat="42.54462531767785549163818359375" lon="20.1177412457764148712158203125">
        <ele>1890.800048828125</ele>
        <time>2026-06-20T06:39:02.000Z</time>
        <extensions>
          <ns3:TrackPointExtension>
            <ns3:atemp>19.0</ns3:atemp>
          </ns3:TrackPointExtension>
        </extensions>
      </trkpt>
      <trkpt lat="42.54461157135665416717529296875" lon="20.1177518069744110107421875">
        <ele>1891.199951171875</ele>
        <time>2026-06-20T06:39:03.000Z</time>
        <extensions>
          <ns3:TrackPointExtension>
            <ns3:atemp>19.0</ns3:atemp>
          </ns3:TrackPointExtension>
        </extensions>
      </trkpt>
      <trkpt lat="42.54460067488253116607666015625" lon="20.11776396073400974273681640625">
        <ele>1891.4000244140625</ele>
        <time>2026-06-20T06:39:04.000Z</time>
        <extensions>
          <ns3:TrackPointExtension>
            <ns3:atemp>19.0</ns3:atemp>
          </ns3:TrackPointExtension>
        </extensions>
      </trkpt>
      <trkpt lat="42.544590532779693603515625" lon="20.1177774555981159210205078125">
        <ele>1891.800048828125</ele>
        <time>2026-06-20T06:39:05.000Z</time>
        <extensions>
          <ns3:TrackPointExtension>
            <ns3:atemp>19.0</ns3:atemp>
          </ns3:TrackPointExtension>
        </extensions>
      </trkpt>
      <trkpt lat="42.54458290524780750274658203125" lon="20.11778868734836578369140625">
        <ele>1892</ele>
        <time>2026-06-20T06:39:06.000Z</time>
        <extensions>
          <ns3:TrackPointExtension>
            <ns3:atemp>19.0</ns3:atemp>
          </ns3:TrackPointExtension>
        </extensions>
      </trkpt>
      <trkpt lat="42.5445757806301116943359375" lon="20.11780335567891597747802734375">
        <ele>1892.199951171875</ele>
        <time>2026-06-20T06:39:07.000Z</time>
        <extensions>
          <ns3:TrackPointExtension>
            <ns3:atemp>19.0</ns3:atemp>
          </ns3:TrackPointExtension>
        </extensions>
      </trkpt>
      <trkpt lat="42.54456597380340099334716796875" lon="20.117821209132671356201171875">
        <ele>1892.4000244140625</ele>
        <time>2026-06-20T06:39:08.000Z</time>
        <extensions>
          <ns3:TrackPointExtension>
            <ns3:atemp>19.0</ns3:atemp>
          </ns3:TrackPointExtension>
        </extensions>
      </trkpt>
      <trkpt lat="42.54455490969121456146240234375" lon="20.1178284175693988800048828125">
        <ele>1892.5999755859375</ele>
        <time>2026-06-20T06:39:09.000Z</time>
        <extensions>
          <ns3:TrackPointExtension>
            <ns3:atemp>19.0</ns3:atemp>
          </ns3:TrackPointExtension>
        </extensions>
      </trkpt>
      <trkpt lat="42.5445461086928844451904296875" lon="20.11783252470195293426513671875">
        <ele>1892.800048828125</ele>
        <time>2026-06-20T06:39:10.000Z</time>
        <extensions>
          <ns3:TrackPointExtension>
            <ns3:atemp>19.0</ns3:atemp>
          </ns3:TrackPointExtension>
        </extensions>
      </trkpt>
      <trkpt lat="42.5445367209613323211669921875" lon="20.11783386580646038055419921875">
        <ele>1893</ele>
        <time>2026-06-20T06:39:11.000Z</time>
        <extensions>
          <ns3:TrackPointExtension>
            <ns3:atemp>19.0</ns3:atemp>
          </ns3:TrackPointExtension>
        </extensions>
      </trkpt>
      <trkpt lat="42.544523812830448150634765625" lon="20.11783420108258724212646484375">
        <ele>1893</ele>
        <time>2026-06-20T06:39:12.000Z</time>
        <extensions>
          <ns3:TrackPointExtension>
            <ns3:atemp>19.0</ns3:atemp>
          </ns3:TrackPointExtension>
        </extensions>
      </trkpt>
      <trkpt lat="42.5445105694234371185302734375" lon="20.1178411580622196197509765625">
        <ele>1893.199951171875</ele>
        <time>2026-06-20T06:39:13.000Z</time>
        <extensions>
          <ns3:TrackPointExtension>
            <ns3:atemp>19.0</ns3:atemp>
          </ns3:TrackPointExtension>
        </extensions>
      </trkpt>
      <trkpt lat="42.54449464380741119384765625" lon="20.11784895323216915130615234375">
        <ele>1893.199951171875</ele>
        <time>2026-06-20T06:39:14.000Z</time>
        <extensions>
          <ns3:TrackPointExtension>
            <ns3:atemp>20.0</ns3:atemp>
          </ns3:TrackPointExtension>
        </extensions>
      </trkpt>
      <trkpt lat="42.5444760359823703765869140625" lon="20.117854736745357513427734375">
        <ele>1893.4000244140625</ele>
        <time>2026-06-20T06:39:15.000Z</time>
        <extensions>
          <ns3:TrackPointExtension>
            <ns3:atemp>20.0</ns3:atemp>
          </ns3:TrackPointExtension>
        </extensions>
      </trkpt>
      <trkpt lat="42.54445700906217098236083984375" lon="20.11785917915403842926025390625">
        <ele>1893.5999755859375</ele>
        <time>2026-06-20T06:39:16.000Z</time>
        <extensions>
          <ns3:TrackPointExtension>
            <ns3:atemp>19.0</ns3:atemp>
          </ns3:TrackPointExtension>
        </extensions>
      </trkpt>
      <trkpt lat="42.54444477148354053497314453125" lon="20.11786404065787792205810546875">
        <ele>1893.5999755859375</ele>
        <time>2026-06-20T06:39:17.000Z</time>
        <extensions>
          <ns3:TrackPointExtension>
            <ns3:atemp>20.0</ns3:atemp>
          </ns3:TrackPointExtension>
        </extensions>
      </trkpt>
      <trkpt lat="42.54443789832293987274169921875" lon="20.1178617775440216064453125">
        <ele>1893.5999755859375</ele>
        <time>2026-06-20T06:39:18.000Z</time>
        <extensions>
          <ns3:TrackPointExtension>
            <ns3:atemp>20.0</ns3:atemp>
          </ns3:TrackPointExtension>
        </extensions>
      </trkpt>
      <trkpt lat="42.54443605430424213409423828125" lon="20.1178575865924358367919921875">
        <ele>1893.800048828125</ele>
        <time>2026-06-20T06:39:19.000Z</time>
        <extensions>
          <ns3:TrackPointExtension>
            <ns3:atemp>20.0</ns3:atemp>
          </ns3:TrackPointExtension>
        </extensions>
      </trkpt>
      <trkpt lat="42.54443605430424213409423828125" lon="20.11785767041146755218505859375">
        <ele>1893.800048828125</ele>
        <time>2026-06-20T06:39:20.000Z</time>
        <extensions>
          <ns3:TrackPointExtension>
            <ns3:atemp>20.0</ns3:atemp>
          </ns3:TrackPointExtension>
        </extensions>
      </trkpt>
      <trkpt lat="42.54443605430424213409423828125" lon="20.11785767041146755218505859375">
        <ele>1893.800048828125</ele>
        <time>2026-06-20T06:39:21.000Z</time>
        <extensions>
          <ns3:TrackPointExtension>
            <ns3:atemp>20.0</ns3:atemp>
          </ns3:TrackPointExtension>
        </extensions>
      </trkpt>
      <trkpt lat="42.54443605430424213409423828125" lon="20.11785767041146755218505859375">
        <ele>1894</ele>
        <time>2026-06-20T06:39:22.000Z</time>
        <extensions>
          <ns3:TrackPointExtension>
            <ns3:atemp>20.0</ns3:atemp>
          </ns3:TrackPointExtension>
        </extensions>
      </trkpt>
      <trkpt lat="42.54443605430424213409423828125" lon="20.11785767041146755218505859375">
        <ele>1894</ele>
        <time>2026-06-20T06:39:23.000Z</time>
        <extensions>
          <ns3:TrackPointExtension>
            <ns3:atemp>20.0</ns3:atemp>
          </ns3:TrackPointExtension>
        </extensions>
      </trkpt>
      <trkpt lat="42.54443605430424213409423828125" lon="20.11785767041146755218505859375">
        <ele>1894</ele>
        <time>2026-06-20T06:39:24.000Z</time>
        <extensions>
          <ns3:TrackPointExtension>
            <ns3:atemp>20.0</ns3:atemp>
          </ns3:TrackPointExtension>
        </extensions>
      </trkpt>
      <trkpt lat="42.54443605430424213409423828125" lon="20.11785767041146755218505859375">
        <ele>1893.800048828125</ele>
        <time>2026-06-20T06:39:25.000Z</time>
        <extensions>
          <ns3:TrackPointExtension>
            <ns3:atemp>20.0</ns3:atemp>
          </ns3:TrackPointExtension>
        </extensions>
      </trkpt>
      <trkpt lat="42.54443605430424213409423828125" lon="20.11785767041146755218505859375">
        <ele>1893.800048828125</ele>
        <time>2026-06-20T06:39:26.000Z</time>
        <extensions>
          <ns3:TrackPointExtension>
            <ns3:atemp>20.0</ns3:atemp>
          </ns3:TrackPointExtension>
        </extensions>
      </trkpt>
      <trkpt lat="42.54443605430424213409423828125" lon="20.11785767041146755218505859375">
        <ele>1893.800048828125</ele>
        <time>2026-06-20T06:39:27.000Z</time>
        <extensions>
          <ns3:TrackPointExtension>
            <ns3:atemp>20.0</ns3:atemp>
          </ns3:TrackPointExtension>
        </extensions>
      </trkpt>
      <trkpt lat="42.54443605430424213409423828125" lon="20.11785767041146755218505859375">
        <ele>1893.800048828125</ele>
        <time>2026-06-20T06:39:28.000Z</time>
        <extensions>
          <ns3:TrackPointExtension>
            <ns3:atemp>20.0</ns3:atemp>
          </ns3:TrackPointExtension>
        </extensions>
      </trkpt>
      <trkpt lat="42.544436641037464141845703125" lon="20.1178579218685626983642578125">
        <ele>1893.800048828125</ele>
        <time>2026-06-20T06:39:29.000Z</time>
        <extensions>
          <ns3:TrackPointExtension>
            <ns3:atemp>20.0</ns3:atemp>
          </ns3:TrackPointExtension>
        </extensions>
      </trkpt>
      <trkpt lat="42.54443488083779811859130859375" lon="20.11786337010562419891357421875">
        <ele>1893.5999755859375</ele>
        <time>2026-06-20T06:39:30.000Z</time>
        <extensions>
          <ns3:TrackPointExtension>
            <ns3:atemp>20.0</ns3:atemp>
          </ns3:TrackPointExtension>
        </extensions>
      </trkpt>
      <trkpt lat="42.54442566074430942535400390625" lon="20.11787988245487213134765625">
        <ele>1893.5999755859375</ele>
        <time>2026-06-20T06:39:31.000Z</time>
        <extensions>
          <ns3:TrackPointExtension>
            <ns3:atemp>20.0</ns3:atemp>
          </ns3:TrackPointExtension>
        </extensions>
      </trkpt>
      <trkpt lat="42.5444146804511547088623046875" lon="20.117901675403118133544921875">
        <ele>1893.5999755859375</ele>
        <time>2026-06-20T06:39:32.000Z</time>
        <extensions>
          <ns3:TrackPointExtension>
            <ns3:atemp>20.0</ns3:atemp>
          </ns3:TrackPointExtension>
        </extensions>
      </trkpt>
      <trkpt lat="42.544401772320270538330078125" lon="20.11791366152465343475341796875">
        <ele>1893.5999755859375</ele>
        <time>2026-06-20T06:39:33.000Z</time>
        <extensions>
          <ns3:TrackPointExtension>
            <ns3:atemp>20.0</ns3:atemp>
          </ns3:TrackPointExtension>
        </extensions>
      </trkpt>
      <trkpt lat="42.54439012147486209869384765625" lon="20.11792304925620555877685546875">
        <ele>1893.5999755859375</ele>
        <time>2026-06-20T06:39:34.000Z</time>
        <extensions>
          <ns3:TrackPointExtension>
            <ns3:atemp>20.0</ns3:atemp>
          </ns3:TrackPointExtension>
        </extensions>
      </trkpt>
      <trkpt lat="42.54437687806785106658935546875" lon="20.11793461628258228302001953125">
        <ele>1893.5999755859375</ele>
        <time>2026-06-20T06:39:35.000Z</time>
        <extensions>
          <ns3:TrackPointExtension>
            <ns3:atemp>20.0</ns3:atemp>
          </ns3:TrackPointExtension>
        </extensions>
      </trkpt>
      <trkpt lat="42.54436380229890346527099609375" lon="20.1179414056241512298583984375">
        <ele>1893.5999755859375</ele>
        <time>2026-06-20T06:39:36.000Z</time>
        <extensions>
          <ns3:TrackPointExtension>
            <ns3:atemp>20.0</ns3:atemp>
          </ns3:TrackPointExtension>
        </extensions>
      </trkpt>
      <trkpt lat="42.5443550013005733489990234375" lon="20.117953307926654815673828125">
        <ele>1893.800048828125</ele>
        <time>2026-06-20T06:39:37.000Z</time>
        <extensions>
          <ns3:TrackPointExtension>
            <ns3:atemp>20.0</ns3:atemp>
          </ns3:TrackPointExtension>
        </extensions>
      </trkpt>
      <trkpt lat="42.54434770904481410980224609375" lon="20.117975771427154541015625">
        <ele>1893.5999755859375</ele>
        <time>2026-06-20T06:39:38.000Z</time>
        <extensions>
          <ns3:TrackPointExtension>
            <ns3:atemp>20.0</ns3:atemp>
          </ns3:TrackPointExtension>
        </extensions>
      </trkpt>
      <trkpt lat="42.54434284754097461700439453125" lon="20.1180012524127960205078125">
        <ele>1893.800048828125</ele>
        <time>2026-06-20T06:39:39.000Z</time>
        <extensions>
          <ns3:TrackPointExtension>
            <ns3:atemp>20.0</ns3:atemp>
          </ns3:TrackPointExtension>
        </extensions>
      </trkpt>
      <trkpt lat="42.54434150643646717071533203125" lon="20.11802715249359607696533203125">
        <ele>1893.800048828125</ele>
        <time>2026-06-20T06:39:40.000Z</time>
        <extensions>
          <ns3:TrackPointExtension>
            <ns3:atemp>20.0</ns3:atemp>
          </ns3:TrackPointExtension>
        </extensions>
      </trkpt>
      <trkpt lat="42.54434108734130859375" lon="20.1180513761937618255615234375">
        <ele>1894</ele>
        <time>2026-06-20T06:39:41.000Z</time>
        <extensions>
          <ns3:TrackPointExtension>
            <ns3:atemp>20.0</ns3:atemp>
          </ns3:TrackPointExtension>
        </extensions>
      </trkpt>
      <trkpt lat="42.5443395785987377166748046875" lon="20.1180708222091197967529296875">
        <ele>1894.199951171875</ele>
        <time>2026-06-20T06:39:42.000Z</time>
        <extensions>
          <ns3:TrackPointExtension>
            <ns3:atemp>20.0</ns3:atemp>
          </ns3:TrackPointExtension>
        </extensions>
      </trkpt>
      <trkpt lat="42.5443332083523273468017578125" lon="20.118078701198101043701171875">
        <ele>1894.4000244140625</ele>
        <time>2026-06-20T06:39:43.000Z</time>
        <extensions>
          <ns3:TrackPointExtension>
            <ns3:atemp>20.0</ns3:atemp>
          </ns3:TrackPointExtension>
        </extensions>
      </trkpt>
      <trkpt lat="42.544325329363346099853515625" lon="20.11808582581579685211181640625">
        <ele>1894.5999755859375</ele>
        <time>2026-06-20T06:39:44.000Z</time>
        <extensions>
          <ns3:TrackPointExtension>
            <ns3:atemp>20.0</ns3:atemp>
          </ns3:TrackPointExtension>
        </extensions>
      </trkpt>
      <trkpt lat="42.54431954585015773773193359375" lon="20.1180852390825748443603515625">
        <ele>1894.800048828125</ele>
        <time>2026-06-20T06:39:45.000Z</time>
        <extensions>
          <ns3:TrackPointExtension>
            <ns3:atemp>20.0</ns3:atemp>
          </ns3:TrackPointExtension>
        </extensions>
      </trkpt>
      <trkpt lat="42.544312588870525360107421875" lon="20.1180865801870822906494140625">
        <ele>1895</ele>
        <time>2026-06-20T06:39:46.000Z</time>
        <extensions>
          <ns3:TrackPointExtension>
            <ns3:atemp>20.0</ns3:atemp>
          </ns3:TrackPointExtension>
        </extensions>
      </trkpt>
      <trkpt lat="42.5442983396351337432861328125" lon="20.1180870831012725830078125">
        <ele>1895</ele>
        <time>2026-06-20T06:39:47.000Z</time>
        <extensions>
          <ns3:TrackPointExtension>
            <ns3:atemp>20.0</ns3:atemp>
          </ns3:TrackPointExtension>
        </extensions>
      </trkpt>
      <trkpt lat="42.54428333602845668792724609375" lon="20.11808834038674831390380859375">
        <ele>1895</ele>
        <time>2026-06-20T06:39:48.000Z</time>
        <extensions>
          <ns3:TrackPointExtension>
            <ns3:atemp>20.0</ns3:atemp>
          </ns3:TrackPointExtension>
        </extensions>
      </trkpt>
      <trkpt lat="42.5442725233733654022216796875" lon="20.118097476661205291748046875">
        <ele>1895</ele>
        <time>2026-06-20T06:39:49.000Z</time>
        <extensions>
          <ns3:TrackPointExtension>
            <ns3:atemp>20.0</ns3:atemp>
          </ns3:TrackPointExtension>
        </extensions>
      </trkpt>
      <trkpt lat="42.5442681647837162017822265625" lon="20.11811348609626293182373046875">
        <ele>1895.199951171875</ele>
        <time>2026-06-20T06:39:50.000Z</time>
        <extensions>
          <ns3:TrackPointExtension>
            <ns3:atemp>20.0</ns3:atemp>
          </ns3:TrackPointExtension>
        </extensions>
      </trkpt>
      <trkpt lat="42.54426506347954273223876953125" lon="20.1181164197623729705810546875">
        <ele>1895.199951171875</ele>
        <time>2026-06-20T06:39:51.000Z</time>
        <extensions>
          <ns3:TrackPointExtension>
            <ns3:atemp>20.0</ns3:atemp>
          </ns3:TrackPointExtension>
        </extensions>
      </trkpt>
      <trkpt lat="42.54426824860274791717529296875" lon="20.11811792850494384765625">
        <ele>1895.5999755859375</ele>
        <time>2026-06-20T06:39:52.000Z</time>
        <extensions>
          <ns3:TrackPointExtension>
            <ns3:atemp>20.0</ns3:atemp>
          </ns3:TrackPointExtension>
        </extensions>
      </trkpt>
      <trkpt lat="42.54426824860274791717529296875" lon="20.11811801232397556304931640625">
        <ele>1895.5999755859375</ele>
        <time>2026-06-20T06:39:53.000Z</time>
        <extensions>
          <ns3:TrackPointExtension>
            <ns3:atemp>20.0</ns3:atemp>
          </ns3:TrackPointExtension>
        </extensions>
      </trkpt>
      <trkpt lat="42.54427604377269744873046875" lon="20.11812622658908367156982421875">
        <ele>1895.800048828125</ele>
        <time>2026-06-20T06:39:54.000Z</time>
        <extensions>
          <ns3:TrackPointExtension>
            <ns3:atemp>20.0</ns3:atemp>
          </ns3:TrackPointExtension>
        </extensions>
      </trkpt>
      <trkpt lat="42.54428098909556865692138671875" lon="20.11813125573098659515380859375">
        <ele>1895.800048828125</ele>
        <time>2026-06-20T06:39:55.000Z</time>
        <extensions>
          <ns3:TrackPointExtension>
            <ns3:atemp>20.0</ns3:atemp>
          </ns3:TrackPointExtension>
        </extensions>
      </trkpt>
      <trkpt lat="42.54428065381944179534912109375" lon="20.11812840588390827178955078125">
        <ele>1895.800048828125</ele>
        <time>2026-06-20T06:39:56.000Z</time>
        <extensions>
          <ns3:TrackPointExtension>
            <ns3:atemp>20.0</ns3:atemp>
          </ns3:TrackPointExtension>
        </extensions>
      </trkpt>
      <trkpt lat="42.54428065381944179534912109375" lon="20.11812840588390827178955078125">
        <ele>1895.800048828125</ele>
        <time>2026-06-20T06:39:57.000Z</time>
        <extensions>
          <ns3:TrackPointExtension>
            <ns3:atemp>20.0</ns3:atemp>
          </ns3:TrackPointExtension>
        </extensions>
      </trkpt>
      <trkpt lat="42.54428065381944179534912109375" lon="20.11812840588390827178955078125">
        <ele>1895.800048828125</ele>
        <time>2026-06-20T06:39:58.000Z</time>
        <extensions>
          <ns3:TrackPointExtension>
            <ns3:atemp>20.0</ns3:atemp>
          </ns3:TrackPointExtension>
        </extensions>
      </trkpt>
      <trkpt lat="42.54428065381944179534912109375" lon="20.11812840588390827178955078125">
        <ele>1895.800048828125</ele>
        <time>2026-06-20T06:39:59.000Z</time>
        <extensions>
          <ns3:TrackPointExtension>
            <ns3:atemp>20.0</ns3:atemp>
          </ns3:TrackPointExtension>
        </extensions>
      </trkpt>
      <trkpt lat="42.54428065381944179534912109375" lon="20.11812840588390827178955078125">
        <ele>1895.800048828125</ele>
        <time>2026-06-20T06:40:00.000Z</time>
        <extensions>
          <ns3:TrackPointExtension>
            <ns3:atemp>20.0</ns3:atemp>
          </ns3:TrackPointExtension>
        </extensions>
      </trkpt>
      <trkpt lat="42.54428065381944179534912109375" lon="20.11812840588390827178955078125">
        <ele>1895.800048828125</ele>
        <time>2026-06-20T06:40:01.000Z</time>
        <extensions>
          <ns3:TrackPointExtension>
            <ns3:atemp>20.0</ns3:atemp>
          </ns3:TrackPointExtension>
        </extensions>
      </trkpt>
      <trkpt lat="42.54428065381944179534912109375" lon="20.11812840588390827178955078125">
        <ele>1895.800048828125</ele>
        <time>2026-06-20T06:40:02.000Z</time>
        <extensions>
          <ns3:TrackPointExtension>
            <ns3:atemp>20.0</ns3:atemp>
          </ns3:TrackPointExtension>
        </extensions>
      </trkpt>
      <trkpt lat="42.54428065381944179534912109375" lon="20.11812840588390827178955078125">
        <ele>1895.800048828125</ele>
        <time>2026-06-20T06:40:03.000Z</time>
        <extensions>
          <ns3:TrackPointExtension>
            <ns3:atemp>20.0</ns3:atemp>
          </ns3:TrackPointExtension>
        </extensions>
      </trkpt>
      <trkpt lat="42.54428065381944179534912109375" lon="20.11812840588390827178955078125">
        <ele>1895.800048828125</ele>
        <time>2026-06-20T06:40:04.000Z</time>
        <extensions>
          <ns3:TrackPointExtension>
            <ns3:atemp>20.0</ns3:atemp>
          </ns3:TrackPointExtension>
        </extensions>
      </trkpt>
      <trkpt lat="42.54428065381944179534912109375" lon="20.11812840588390827178955078125">
        <ele>1895.800048828125</ele>
        <time>2026-06-20T06:40:05.000Z</time>
        <extensions>
          <ns3:TrackPointExtension>
            <ns3:atemp>20.0</ns3:atemp>
          </ns3:TrackPointExtension>
        </extensions>
      </trkpt>
      <trkpt lat="42.54428065381944179534912109375" lon="20.11812840588390827178955078125">
        <ele>1895.800048828125</ele>
        <time>2026-06-20T06:40:06.000Z</time>
        <extensions>
          <ns3:TrackPointExtension>
            <ns3:atemp>20.0</ns3:atemp>
          </ns3:TrackPointExtension>
        </extensions>
      </trkpt>
      <trkpt lat="42.54428065381944179534912109375" lon="20.11812840588390827178955078125">
        <ele>1895.800048828125</ele>
        <time>2026-06-20T06:40:07.000Z</time>
        <extensions>
          <ns3:TrackPointExtension>
            <ns3:atemp>20.0</ns3:atemp>
          </ns3:TrackPointExtension>
        </extensions>
      </trkpt>
      <trkpt lat="42.5442812405526638031005859375" lon="20.11812890879809856414794921875">
        <ele>1895.5999755859375</ele>
        <time>2026-06-20T06:40:08.000Z</time>
        <extensions>
          <ns3:TrackPointExtension>
            <ns3:atemp>20.0</ns3:atemp>
          </ns3:TrackPointExtension>
        </extensions>
      </trkpt>
      <trkpt lat="42.54428786225616931915283203125" lon="20.11814231984317302703857421875">
        <ele>1895.5999755859375</ele>
        <time>2026-06-20T06:40:09.000Z</time>
        <extensions>
          <ns3:TrackPointExtension>
            <ns3:atemp>20.0</ns3:atemp>
          </ns3:TrackPointExtension>
        </extensions>
      </trkpt>
      <trkpt lat="42.54429004155099391937255859375" lon="20.118157155811786651611328125">
        <ele>1895.5999755859375</ele>
        <time>2026-06-20T06:40:10.000Z</time>
        <extensions>
          <ns3:TrackPointExtension>
            <ns3:atemp>20.0</ns3:atemp>
          </ns3:TrackPointExtension>
        </extensions>
      </trkpt>
      <trkpt lat="42.54429071210324764251708984375" lon="20.1181646995246410369873046875">
        <ele>1895.5999755859375</ele>
        <time>2026-06-20T06:40:11.000Z</time>
        <extensions>
          <ns3:TrackPointExtension>
            <ns3:atemp>20.0</ns3:atemp>
          </ns3:TrackPointExtension>
        </extensions>
      </trkpt>
      <trkpt lat="42.54429004155099391937255859375" lon="20.1181690581142902374267578125">
        <ele>1895.800048828125</ele>
        <time>2026-06-20T06:40:12.000Z</time>
        <extensions>
          <ns3:TrackPointExtension>
            <ns3:atemp>20.0</ns3:atemp>
          </ns3:TrackPointExtension>
        </extensions>
      </trkpt>
      <trkpt lat="42.54429004155099391937255859375" lon="20.11816914193332195281982421875">
        <ele>1895.800048828125</ele>
        <time>2026-06-20T06:40:13.000Z</time>
        <extensions>
          <ns3:TrackPointExtension>
            <ns3:atemp>19.0</ns3:atemp>
          </ns3:TrackPointExtension>
        </extensions>
      </trkpt>
      <trkpt lat="42.54429004155099391937255859375" lon="20.11816914193332195281982421875">
        <ele>1896</ele>
        <time>2026-06-20T06:40:14.000Z</time>
        <extensions>
          <ns3:TrackPointExtension>
            <ns3:atemp>19.0</ns3:atemp>
          </ns3:TrackPointExtension>
        </extensions>
      </trkpt>
      <trkpt lat="42.54429004155099391937255859375" lon="20.11816914193332195281982421875">
        <ele>1896</ele>
        <time>2026-06-20T06:40:15.000Z</time>
        <extensions>
          <ns3:TrackPointExtension>
            <ns3:atemp>19.0</ns3:atemp>
          </ns3:TrackPointExtension>
        </extensions>
      </trkpt>
      <trkpt lat="42.54429004155099391937255859375" lon="20.11816914193332195281982421875">
        <ele>1896.199951171875</ele>
        <time>2026-06-20T06:40:16.000Z</time>
        <extensions>
          <ns3:TrackPointExtension>
            <ns3:atemp>19.0</ns3:atemp>
          </ns3:TrackPointExtension>
        </extensions>
      </trkpt>
      <trkpt lat="42.54429004155099391937255859375" lon="20.11816914193332195281982421875">
        <ele>1896.199951171875</ele>
        <time>2026-06-20T06:40:17.000Z</time>
        <extensions>
          <ns3:TrackPointExtension>
            <ns3:atemp>20.0</ns3:atemp>
          </ns3:TrackPointExtension>
        </extensions>
      </trkpt>
      <trkpt lat="42.54429004155099391937255859375" lon="20.11816914193332195281982421875">
        <ele>1896.199951171875</ele>
        <time>2026-06-20T06:40:18.000Z</time>
        <extensions>
          <ns3:TrackPointExtension>
            <ns3:atemp>19.0</ns3:atemp>
          </ns3:TrackPointExtension>
        </extensions>
      </trkpt>
      <trkpt lat="42.54429004155099391937255859375" lon="20.11816914193332195281982421875">
        <ele>1896.199951171875</ele>
        <time>2026-06-20T06:40:19.000Z</time>
        <extensions>
          <ns3:TrackPointExtension>
            <ns3:atemp>19.0</ns3:atemp>
          </ns3:TrackPointExtension>
        </extensions>
      </trkpt>
      <trkpt lat="42.54429004155099391937255859375" lon="20.11816914193332195281982421875">
        <ele>1896.199951171875</ele>
        <time>2026-06-20T06:40:20.000Z</time>
        <extensions>
          <ns3:TrackPointExtension>
            <ns3:atemp>20.0</ns3:atemp>
          </ns3:TrackPointExtension>
        </extensions>
      </trkpt>
      <trkpt lat="42.54429004155099391937255859375" lon="20.11816914193332195281982421875">
        <ele>1896.199951171875</ele>
        <time>2026-06-20T06:40:21.000Z</time>
        <extensions>
          <ns3:TrackPointExtension>
            <ns3:atemp>19.0</ns3:atemp>
          </ns3:TrackPointExtension>
        </extensions>
      </trkpt>
      <trkpt lat="42.54429004155099391937255859375" lon="20.11816914193332195281982421875">
        <ele>1896.199951171875</ele>
        <time>2026-06-20T06:40:22.000Z</time>
        <extensions>
          <ns3:TrackPointExtension>
            <ns3:atemp>20.0</ns3:atemp>
          </ns3:TrackPointExtension>
        </extensions>
      </trkpt>
      <trkpt lat="42.54429004155099391937255859375" lon="20.11816914193332195281982421875">
        <ele>1896.199951171875</ele>
        <time>2026-06-20T06:40:23.000Z</time>
        <extensions>
          <ns3:TrackPointExtension>
            <ns3:atemp>19.0</ns3:atemp>
          </ns3:TrackPointExtension>
        </extensions>
      </trkpt>
      <trkpt lat="42.54429004155099391937255859375" lon="20.11816914193332195281982421875">
        <ele>1896.199951171875</ele>
        <time>2026-06-20T06:40:24.000Z</time>
        <extensions>
          <ns3:TrackPointExtension>
            <ns3:atemp>19.0</ns3:atemp>
          </ns3:TrackPointExtension>
        </extensions>
      </trkpt>
      <trkpt lat="42.54429004155099391937255859375" lon="20.11816914193332195281982421875">
        <ele>1896.199951171875</ele>
        <time>2026-06-20T06:40:25.000Z</time>
        <extensions>
          <ns3:TrackPointExtension>
            <ns3:atemp>19.0</ns3:atemp>
          </ns3:TrackPointExtension>
        </extensions>
      </trkpt>
      <trkpt lat="42.54429004155099391937255859375" lon="20.11816914193332195281982421875">
        <ele>1896.199951171875</ele>
        <time>2026-06-20T06:40:26.000Z</time>
        <extensions>
          <ns3:TrackPointExtension>
            <ns3:atemp>19.0</ns3:atemp>
          </ns3:TrackPointExtension>
        </extensions>
      </trkpt>
      <trkpt lat="42.54429004155099391937255859375" lon="20.11816914193332195281982421875">
        <ele>1896.4000244140625</ele>
        <time>2026-06-20T06:40:27.000Z</time>
        <extensions>
          <ns3:TrackPointExtension>
            <ns3:atemp>19.0</ns3:atemp>
          </ns3:TrackPointExtension>
        </extensions>
      </trkpt>
      <trkpt lat="42.54429004155099391937255859375" lon="20.11816914193332195281982421875">
        <ele>1896.4000244140625</ele>
        <time>2026-06-20T06:40:28.000Z</time>
        <extensions>
          <ns3:TrackPointExtension>
            <ns3:atemp>19.0</ns3:atemp>
          </ns3:TrackPointExtension>
        </extensions>
      </trkpt>
      <trkpt lat="42.54429004155099391937255859375" lon="20.11816914193332195281982421875">
        <ele>1896.4000244140625</ele>
        <time>2026-06-20T06:40:29.000Z</time>
        <extensions>
          <ns3:TrackPointExtension>
            <ns3:atemp>19.0</ns3:atemp>
          </ns3:TrackPointExtension>
        </extensions>
      </trkpt>
      <trkpt lat="42.54429004155099391937255859375" lon="20.11816914193332195281982421875">
        <ele>1896.4000244140625</ele>
        <time>2026-06-20T06:40:30.000Z</time>
        <extensions>
          <ns3:TrackPointExtension>
            <ns3:atemp>19.0</ns3:atemp>
          </ns3:TrackPointExtension>
        </extensions>
      </trkpt>
      <trkpt lat="42.54429004155099391937255859375" lon="20.11816914193332195281982421875">
        <ele>1896.4000244140625</ele>
        <time>2026-06-20T06:40:31.000Z</time>
        <extensions>
          <ns3:TrackPointExtension>
            <ns3:atemp>19.0</ns3:atemp>
          </ns3:TrackPointExtension>
        </extensions>
      </trkpt>
      <trkpt lat="42.54429004155099391937255859375" lon="20.11816914193332195281982421875">
        <ele>1896.4000244140625</ele>
        <time>2026-06-20T06:40:32.000Z</time>
        <extensions>
          <ns3:TrackPointExtension>
            <ns3:atemp>19.0</ns3:atemp>
          </ns3:TrackPointExtension>
        </extensions>
      </trkpt>
      <trkpt lat="42.54429004155099391937255859375" lon="20.11816914193332195281982421875">
        <ele>1896.4000244140625</ele>
        <time>2026-06-20T06:40:33.000Z</time>
        <extensions>
          <ns3:TrackPointExtension>
            <ns3:atemp>19.0</ns3:atemp>
          </ns3:TrackPointExtension>
        </extensions>
      </trkpt>
      <trkpt lat="42.54429004155099391937255859375" lon="20.11816914193332195281982421875">
        <ele>1896.5999755859375</ele>
        <time>2026-06-20T06:40:34.000Z</time>
        <extensions>
          <ns3:TrackPointExtension>
            <ns3:atemp>19.0</ns3:atemp>
          </ns3:TrackPointExtension>
        </extensions>
      </trkpt>
      <trkpt lat="42.54429004155099391937255859375" lon="20.11816914193332195281982421875">
        <ele>1896.5999755859375</ele>
        <time>2026-06-20T06:40:35.000Z</time>
        <extensions>
          <ns3:TrackPointExtension>
            <ns3:atemp>19.0</ns3:atemp>
          </ns3:TrackPointExtension>
        </extensions>
      </trkpt>
      <trkpt lat="42.54429004155099391937255859375" lon="20.11816914193332195281982421875">
        <ele>1896.5999755859375</ele>
        <time>2026-06-20T06:40:36.000Z</time>
        <extensions>
          <ns3:TrackPointExtension>
            <ns3:atemp>19.0</ns3:atemp>
          </ns3:TrackPointExtension>
        </extensions>
      </trkpt>
      <trkpt lat="42.54429004155099391937255859375" lon="20.11816914193332195281982421875">
        <ele>1896.5999755859375</ele>
        <time>2026-06-20T06:40:37.000Z</time>
        <extensions>
          <ns3:TrackPointExtension>
            <ns3:atemp>19.0</ns3:atemp>
          </ns3:TrackPointExtension>
        </extensions>
      </trkpt>
      <trkpt lat="42.5442906282842159271240234375" lon="20.118168555200099945068359375">
        <ele>1896.5999755859375</ele>
        <time>2026-06-20T06:40:38.000Z</time>
        <extensions>
          <ns3:TrackPointExtension>
            <ns3:atemp>19.0</ns3:atemp>
          </ns3:TrackPointExtension>
        </extensions>
      </trkpt>
      <trkpt lat="42.54429071210324764251708984375" lon="20.11815438978374004364013671875">
        <ele>1896.5999755859375</ele>
        <time>2026-06-20T06:40:39.000Z</time>
        <extensions>
          <ns3:TrackPointExtension>
            <ns3:atemp>19.0</ns3:atemp>
          </ns3:TrackPointExtension>
        </extensions>
      </trkpt>
      <trkpt lat="42.54429087974131107330322265625" lon="20.11814810335636138916015625">
        <ele>1896.4000244140625</ele>
        <time>2026-06-20T06:40:40.000Z</time>
        <extensions>
          <ns3:TrackPointExtension>
            <ns3:atemp>19.0</ns3:atemp>
          </ns3:TrackPointExtension>
        </extensions>
      </trkpt>
      <trkpt lat="42.5442914664745330810546875" lon="20.11814919300377368927001953125">
        <ele>1896.199951171875</ele>
        <time>2026-06-20T06:40:41.000Z</time>
        <extensions>
          <ns3:TrackPointExtension>
            <ns3:atemp>19.0</ns3:atemp>
          </ns3:TrackPointExtension>
        </extensions>
      </trkpt>
      <trkpt lat="42.5442914664745330810546875" lon="20.118149109184741973876953125">
        <ele>1896.199951171875</ele>
        <time>2026-06-20T06:40:42.000Z</time>
        <extensions>
          <ns3:TrackPointExtension>
            <ns3:atemp>19.0</ns3:atemp>
          </ns3:TrackPointExtension>
        </extensions>
      </trkpt>
      <trkpt lat="42.54428216256201267242431640625" lon="20.11813930235803127288818359375">
        <ele>1896</ele>
        <time>2026-06-20T06:40:43.000Z</time>
        <extensions>
          <ns3:TrackPointExtension>
            <ns3:atemp>19.0</ns3:atemp>
          </ns3:TrackPointExtension>
        </extensions>
      </trkpt>
      <trkpt lat="42.54427176900207996368408203125" lon="20.1181328482925891876220703125">
        <ele>1896</ele>
        <time>2026-06-20T06:40:44.000Z</time>
        <extensions>
          <ns3:TrackPointExtension>
            <ns3:atemp>19.0</ns3:atemp>
          </ns3:TrackPointExtension>
        </extensions>
      </trkpt>
      <trkpt lat="42.54425953142344951629638671875" lon="20.11812572367489337921142578125">
        <ele>1896.199951171875</ele>
        <time>2026-06-20T06:40:45.000Z</time>
        <extensions>
          <ns3:TrackPointExtension>
            <ns3:atemp>19.0</ns3:atemp>
          </ns3:TrackPointExtension>
        </extensions>
      </trkpt>
      <trkpt lat="42.54424989223480224609375" lon="20.1181157492101192474365234375">
        <ele>1896.4000244140625</ele>
        <time>2026-06-20T06:40:46.000Z</time>
        <extensions>
          <ns3:TrackPointExtension>
            <ns3:atemp>19.0</ns3:atemp>
          </ns3:TrackPointExtension>
        </extensions>
      </trkpt>
      <trkpt lat="42.5442403368651866912841796875" lon="20.1181033439934253692626953125">
        <ele>1896.4000244140625</ele>
        <time>2026-06-20T06:40:47.000Z</time>
        <extensions>
          <ns3:TrackPointExtension>
            <ns3:atemp>19.0</ns3:atemp>
          </ns3:TrackPointExtension>
        </extensions>
      </trkpt>
      <trkpt lat="42.544235475361347198486328125" lon="20.11809119023382663726806640625">
        <ele>1896.5999755859375</ele>
        <time>2026-06-20T06:40:48.000Z</time>
        <extensions>
          <ns3:TrackPointExtension>
            <ns3:atemp>19.0</ns3:atemp>
          </ns3:TrackPointExtension>
        </extensions>
      </trkpt>
      <trkpt lat="42.5442410074174404144287109375" lon="20.1180897653102874755859375">
        <ele>1896.800048828125</ele>
        <time>2026-06-20T06:40:49.000Z</time>
        <extensions>
          <ns3:TrackPointExtension>
            <ns3:atemp>19.0</ns3:atemp>
          </ns3:TrackPointExtension>
        </extensions>
      </trkpt>
      <trkpt lat="42.54423916339874267578125" lon="20.11809236370027065277099609375">
        <ele>1897</ele>
        <time>2026-06-20T06:40:50.000Z</time>
        <extensions>
          <ns3:TrackPointExtension>
            <ns3:atemp>19.0</ns3:atemp>
          </ns3:TrackPointExtension>
        </extensions>
      </trkpt>
      <trkpt lat="42.5442396663129329681396484375" lon="20.1180929504334926605224609375">
        <ele>1897</ele>
        <time>2026-06-20T06:40:51.000Z</time>
        <extensions>
          <ns3:TrackPointExtension>
            <ns3:atemp>19.0</ns3:atemp>
          </ns3:TrackPointExtension>
        </extensions>
      </trkpt>
      <trkpt lat="42.5442396663129329681396484375" lon="20.1180929504334926605224609375">
        <ele>1897</ele>
        <time>2026-06-20T06:40:52.000Z</time>
        <extensions>
          <ns3:TrackPointExtension>
            <ns3:atemp>19.0</ns3:atemp>
          </ns3:TrackPointExtension>
        </extensions>
      </trkpt>
      <trkpt lat="42.5442396663129329681396484375" lon="20.1180929504334926605224609375">
        <ele>1896.800048828125</ele>
        <time>2026-06-20T06:40:53.000Z</time>
        <extensions>
          <ns3:TrackPointExtension>
            <ns3:atemp>19.0</ns3:atemp>
          </ns3:TrackPointExtension>
        </extensions>
      </trkpt>
      <trkpt lat="42.5442396663129329681396484375" lon="20.1180929504334926605224609375">
        <ele>1896.800048828125</ele>
        <time>2026-06-20T06:40:54.000Z</time>
        <extensions>
          <ns3:TrackPointExtension>
            <ns3:atemp>19.0</ns3:atemp>
          </ns3:TrackPointExtension>
        </extensions>
      </trkpt>
      <trkpt lat="42.5442396663129329681396484375" lon="20.1180929504334926605224609375">
        <ele>1896.800048828125</ele>
        <time>2026-06-20T06:40:55.000Z</time>
        <extensions>
          <ns3:TrackPointExtension>
            <ns3:atemp>19.0</ns3:atemp>
          </ns3:TrackPointExtension>
        </extensions>
      </trkpt>
      <trkpt lat="42.5442396663129329681396484375" lon="20.1180929504334926605224609375">
        <ele>1896.800048828125</ele>
        <time>2026-06-20T06:40:56.000Z</time>
        <extensions>
          <ns3:TrackPointExtension>
            <ns3:atemp>19.0</ns3:atemp>
          </ns3:TrackPointExtension>
        </extensions>
      </trkpt>
      <trkpt lat="42.5442396663129329681396484375" lon="20.1180929504334926605224609375">
        <ele>1896.800048828125</ele>
        <time>2026-06-20T06:40:57.000Z</time>
        <extensions>
          <ns3:TrackPointExtension>
            <ns3:atemp>19.0</ns3:atemp>
          </ns3:TrackPointExtension>
        </extensions>
      </trkpt>
      <trkpt lat="42.5442396663129329681396484375" lon="20.1180929504334926605224609375">
        <ele>1896.800048828125</ele>
        <time>2026-06-20T06:40:58.000Z</time>
        <extensions>
          <ns3:TrackPointExtension>
            <ns3:atemp>19.0</ns3:atemp>
          </ns3:TrackPointExtension>
        </extensions>
      </trkpt>
      <trkpt lat="42.5442396663129329681396484375" lon="20.1180929504334926605224609375">
        <ele>1896.800048828125</ele>
        <time>2026-06-20T06:40:59.000Z</time>
        <extensions>
          <ns3:TrackPointExtension>
            <ns3:atemp>19.0</ns3:atemp>
          </ns3:TrackPointExtension>
        </extensions>
      </trkpt>
      <trkpt lat="42.5442396663129329681396484375" lon="20.1180929504334926605224609375">
        <ele>1896.800048828125</ele>
        <time>2026-06-20T06:41:00.000Z</time>
        <extensions>
          <ns3:TrackPointExtension>
            <ns3:atemp>19.0</ns3:atemp>
          </ns3:TrackPointExtension>
        </extensions>
      </trkpt>
      <trkpt lat="42.5442396663129329681396484375" lon="20.1180929504334926605224609375">
        <ele>1896.800048828125</ele>
        <time>2026-06-20T06:41:01.000Z</time>
        <extensions>
          <ns3:TrackPointExtension>
            <ns3:atemp>19.0</ns3:atemp>
          </ns3:TrackPointExtension>
        </extensions>
      </trkpt>
      <trkpt lat="42.5442396663129329681396484375" lon="20.1180929504334926605224609375">
        <ele>1896.800048828125</ele>
        <time>2026-06-20T06:41:02.000Z</time>
        <extensions>
          <ns3:TrackPointExtension>
            <ns3:atemp>19.0</ns3:atemp>
          </ns3:TrackPointExtension>
        </extensions>
      </trkpt>
      <trkpt lat="42.5442396663129329681396484375" lon="20.1180929504334926605224609375">
        <ele>1896.800048828125</ele>
        <time>2026-06-20T06:41:03.000Z</time>
        <extensions>
          <ns3:TrackPointExtension>
            <ns3:atemp>19.0</ns3:atemp>
          </ns3:TrackPointExtension>
        </extensions>
      </trkpt>
      <trkpt lat="42.5442396663129329681396484375" lon="20.1180929504334926605224609375">
        <ele>1896.800048828125</ele>
        <time>2026-06-20T06:41:04.000Z</time>
        <extensions>
          <ns3:TrackPointExtension>
            <ns3:atemp>19.0</ns3:atemp>
          </ns3:TrackPointExtension>
        </extensions>
      </trkpt>
      <trkpt lat="42.5442396663129329681396484375" lon="20.1180929504334926605224609375">
        <ele>1896.800048828125</ele>
        <time>2026-06-20T06:41:05.000Z</time>
        <extensions>
          <ns3:TrackPointExtension>
            <ns3:atemp>19.0</ns3:atemp>
          </ns3:TrackPointExtension>
        </extensions>
      </trkpt>
      <trkpt lat="42.5442396663129329681396484375" lon="20.1180929504334926605224609375">
        <ele>1896.800048828125</ele>
        <time>2026-06-20T06:41:06.000Z</time>
        <extensions>
          <ns3:TrackPointExtension>
            <ns3:atemp>19.0</ns3:atemp>
          </ns3:TrackPointExtension>
        </extensions>
      </trkpt>
      <trkpt lat="42.5442396663129329681396484375" lon="20.1180929504334926605224609375">
        <ele>1896.800048828125</ele>
        <time>2026-06-20T06:41:07.000Z</time>
        <extensions>
          <ns3:TrackPointExtension>
            <ns3:atemp>19.0</ns3:atemp>
          </ns3:TrackPointExtension>
        </extensions>
      </trkpt>
      <trkpt lat="42.5442396663129329681396484375" lon="20.1180929504334926605224609375">
        <ele>1896.800048828125</ele>
        <time>2026-06-20T06:41:08.000Z</time>
        <extensions>
          <ns3:TrackPointExtension>
            <ns3:atemp>19.0</ns3:atemp>
          </ns3:TrackPointExtension>
        </extensions>
      </trkpt>
      <trkpt lat="42.5442396663129329681396484375" lon="20.1180929504334926605224609375">
        <ele>1896.800048828125</ele>
        <time>2026-06-20T06:41:09.000Z</time>
        <extensions>
          <ns3:TrackPointExtension>
            <ns3:atemp>19.0</ns3:atemp>
          </ns3:TrackPointExtension>
        </extensions>
      </trkpt>
      <trkpt lat="42.5442396663129329681396484375" lon="20.1180929504334926605224609375">
        <ele>1896.800048828125</ele>
        <time>2026-06-20T06:41:10.000Z</time>
        <extensions>
          <ns3:TrackPointExtension>
            <ns3:atemp>19.0</ns3:atemp>
          </ns3:TrackPointExtension>
        </extensions>
      </trkpt>
      <trkpt lat="42.5442396663129329681396484375" lon="20.1180929504334926605224609375">
        <ele>1896.800048828125</ele>
        <time>2026-06-20T06:41:11.000Z</time>
        <extensions>
          <ns3:TrackPointExtension>
            <ns3:atemp>19.0</ns3:atemp>
          </ns3:TrackPointExtension>
        </extensions>
      </trkpt>
      <trkpt lat="42.5442396663129329681396484375" lon="20.1180929504334926605224609375">
        <ele>1896.800048828125</ele>
        <time>2026-06-20T06:41:12.000Z</time>
        <extensions>
          <ns3:TrackPointExtension>
            <ns3:atemp>19.0</ns3:atemp>
          </ns3:TrackPointExtension>
        </extensions>
      </trkpt>
      <trkpt lat="42.5442396663129329681396484375" lon="20.1180929504334926605224609375">
        <ele>1896.800048828125</ele>
        <time>2026-06-20T06:41:13.000Z</time>
        <extensions>
          <ns3:TrackPointExtension>
            <ns3:atemp>19.0</ns3:atemp>
          </ns3:TrackPointExtension>
        </extensions>
      </trkpt>
      <trkpt lat="42.5442396663129329681396484375" lon="20.1180929504334926605224609375">
        <ele>1896.800048828125</ele>
        <time>2026-06-20T06:41:14.000Z</time>
        <extensions>
          <ns3:TrackPointExtension>
            <ns3:atemp>19.0</ns3:atemp>
          </ns3:TrackPointExtension>
        </extensions>
      </trkpt>
      <trkpt lat="42.5442396663129329681396484375" lon="20.1180929504334926605224609375">
        <ele>1896.800048828125</ele>
        <time>2026-06-20T06:41:15.000Z</time>
        <extensions>
          <ns3:TrackPointExtension>
            <ns3:atemp>19.0</ns3:atemp>
          </ns3:TrackPointExtension>
        </extensions>
      </trkpt>
      <trkpt lat="42.5442396663129329681396484375" lon="20.1180929504334926605224609375">
        <ele>1896.800048828125</ele>
        <time>2026-06-20T06:41:16.000Z</time>
        <extensions>
          <ns3:TrackPointExtension>
            <ns3:atemp>19.0</ns3:atemp>
          </ns3:TrackPointExtension>
        </extensions>
      </trkpt>
      <trkpt lat="42.5442396663129329681396484375" lon="20.1180929504334926605224609375">
        <ele>1896.800048828125</ele>
        <time>2026-06-20T06:41:17.000Z</time>
        <extensions>
          <ns3:TrackPointExtension>
            <ns3:atemp>19.0</ns3:atemp>
          </ns3:TrackPointExtension>
        </extensions>
      </trkpt>
      <trkpt lat="42.544241510331630706787109375" lon="20.11809169314801692962646484375">
        <ele>1896.800048828125</ele>
        <time>2026-06-20T06:41:18.000Z</time>
        <extensions>
          <ns3:TrackPointExtension>
            <ns3:atemp>19.0</ns3:atemp>
          </ns3:TrackPointExtension>
        </extensions>
      </trkpt>
      <trkpt lat="42.54425634630024433135986328125" lon="20.118104517459869384765625">
        <ele>1896.800048828125</ele>
        <time>2026-06-20T06:41:19.000Z</time>
        <extensions>
          <ns3:TrackPointExtension>
            <ns3:atemp>19.0</ns3:atemp>
          </ns3:TrackPointExtension>
        </extensions>
      </trkpt>
      <trkpt lat="42.54427160136401653289794921875" lon="20.118125975131988525390625">
        <ele>1896.5999755859375</ele>
        <time>2026-06-20T06:41:20.000Z</time>
        <extensions>
          <ns3:TrackPointExtension>
            <ns3:atemp>19.0</ns3:atemp>
          </ns3:TrackPointExtension>
        </extensions>
      </trkpt>
      <trkpt lat="42.54428266547620296478271484375" lon="20.118146426975727081298828125">
        <ele>1896.5999755859375</ele>
        <time>2026-06-20T06:41:21.000Z</time>
        <extensions>
          <ns3:TrackPointExtension>
            <ns3:atemp>19.0</ns3:atemp>
          </ns3:TrackPointExtension>
        </extensions>
      </trkpt>
      <trkpt lat="42.544301860034465789794921875" lon="20.11816419661045074462890625">
        <ele>1896.5999755859375</ele>
        <time>2026-06-20T06:41:22.000Z</time>
        <extensions>
          <ns3:TrackPointExtension>
            <ns3:atemp>19.0</ns3:atemp>
          </ns3:TrackPointExtension>
        </extensions>
      </trkpt>
      <trkpt lat="42.544319629669189453125" lon="20.1181890070438385009765625">
        <ele>1896.4000244140625</ele>
        <time>2026-06-20T06:41:23.000Z</time>
        <extensions>
          <ns3:TrackPointExtension>
            <ns3:atemp>19.0</ns3:atemp>
          </ns3:TrackPointExtension>
        </extensions>
      </trkpt>
      <trkpt lat="42.5443338789045810699462890625" lon="20.1182092912495136260986328125">
        <ele>1896.4000244140625</ele>
        <time>2026-06-20T06:41:24.000Z</time>
        <extensions>
          <ns3:TrackPointExtension>
            <ns3:atemp>19.0</ns3:atemp>
          </ns3:TrackPointExtension>
        </extensions>
      </trkpt>
      <trkpt lat="42.5443536601960659027099609375" lon="20.1182267256081104278564453125">
        <ele>1896.5999755859375</ele>
        <time>2026-06-20T06:41:25.000Z</time>
        <extensions>
          <ns3:TrackPointExtension>
            <ns3:atemp>19.0</ns3:atemp>
          </ns3:TrackPointExtension>
        </extensions>
      </trkpt>
      <trkpt lat="42.5443717651069164276123046875" lon="20.1182428188621997833251953125">
        <ele>1896.5999755859375</ele>
        <time>2026-06-20T06:41:26.000Z</time>
        <extensions>
          <ns3:TrackPointExtension>
            <ns3:atemp>19.0</ns3:atemp>
          </ns3:TrackPointExtension>
        </extensions>
      </trkpt>
      <trkpt lat="42.54438308067619800567626953125" lon="20.11825094930827617645263671875">
        <ele>1896.5999755859375</ele>
        <time>2026-06-20T06:41:27.000Z</time>
        <extensions>
          <ns3:TrackPointExtension>
            <ns3:atemp>19.0</ns3:atemp>
          </ns3:TrackPointExtension>
        </extensions>
      </trkpt>
      <trkpt lat="42.544380985200405120849609375" lon="20.11825396679341793060302734375">
        <ele>1896.800048828125</ele>
        <time>2026-06-20T06:41:28.000Z</time>
        <extensions>
          <ns3:TrackPointExtension>
            <ns3:atemp>19.0</ns3:atemp>
          </ns3:TrackPointExtension>
        </extensions>
      </trkpt>
      <trkpt lat="42.54438106901943683624267578125" lon="20.11825396679341793060302734375">
        <ele>1897</ele>
        <time>2026-06-20T06:41:29.000Z</time>
        <extensions>
          <ns3:TrackPointExtension>
            <ns3:atemp>19.0</ns3:atemp>
          </ns3:TrackPointExtension>
        </extensions>
      </trkpt>
      <trkpt lat="42.54438106901943683624267578125" lon="20.11825396679341793060302734375">
        <ele>1897</ele>
        <time>2026-06-20T06:41:30.000Z</time>
        <extensions>
          <ns3:TrackPointExtension>
            <ns3:atemp>19.0</ns3:atemp>
          </ns3:TrackPointExtension>
        </extensions>
      </trkpt>
      <trkpt lat="42.54438106901943683624267578125" lon="20.11825396679341793060302734375">
        <ele>1897.199951171875</ele>
        <time>2026-06-20T06:41:31.000Z</time>
        <extensions>
          <ns3:TrackPointExtension>
            <ns3:atemp>19.0</ns3:atemp>
          </ns3:TrackPointExtension>
        </extensions>
      </trkpt>
      <trkpt lat="42.54438106901943683624267578125" lon="20.11825396679341793060302734375">
        <ele>1897.199951171875</ele>
        <time>2026-06-20T06:41:32.000Z</time>
        <extensions>
          <ns3:TrackPointExtension>
            <ns3:atemp>19.0</ns3:atemp>
          </ns3:TrackPointExtension>
        </extensions>
      </trkpt>
      <trkpt lat="42.54438106901943683624267578125" lon="20.11825396679341793060302734375">
        <ele>1897.4000244140625</ele>
        <time>2026-06-20T06:41:33.000Z</time>
        <extensions>
          <ns3:TrackPointExtension>
            <ns3:atemp>19.0</ns3:atemp>
          </ns3:TrackPointExtension>
        </extensions>
      </trkpt>
      <trkpt lat="42.54438106901943683624267578125" lon="20.11825396679341793060302734375">
        <ele>1897.4000244140625</ele>
        <time>2026-06-20T06:41:34.000Z</time>
        <extensions>
          <ns3:TrackPointExtension>
            <ns3:atemp>19.0</ns3:atemp>
          </ns3:TrackPointExtension>
        </extensions>
      </trkpt>
      <trkpt lat="42.54438106901943683624267578125" lon="20.11825396679341793060302734375">
        <ele>1897.4000244140625</ele>
        <time>2026-06-20T06:41:35.000Z</time>
        <extensions>
          <ns3:TrackPointExtension>
            <ns3:atemp>19.0</ns3:atemp>
          </ns3:TrackPointExtension>
        </extensions>
      </trkpt>
      <trkpt lat="42.54438106901943683624267578125" lon="20.11825396679341793060302734375">
        <ele>1897.4000244140625</ele>
        <time>2026-06-20T06:41:36.000Z</time>
        <extensions>
          <ns3:TrackPointExtension>
            <ns3:atemp>19.0</ns3:atemp>
          </ns3:TrackPointExtension>
        </extensions>
      </trkpt>
      <trkpt lat="42.54438106901943683624267578125" lon="20.11825396679341793060302734375">
        <ele>1897.4000244140625</ele>
        <time>2026-06-20T06:41:37.000Z</time>
        <extensions>
          <ns3:TrackPointExtension>
            <ns3:atemp>19.0</ns3:atemp>
          </ns3:TrackPointExtension>
        </extensions>
      </trkpt>
      <trkpt lat="42.54438341595232486724853515625" lon="20.1182548888027667999267578125">
        <ele>1897.4000244140625</ele>
        <time>2026-06-20T06:41:38.000Z</time>
        <extensions>
          <ns3:TrackPointExtension>
            <ns3:atemp>19.0</ns3:atemp>
          </ns3:TrackPointExtension>
        </extensions>
      </trkpt>
      <trkpt lat="42.54439833573997020721435546875" lon="20.1182518713176250457763671875">
        <ele>1897.4000244140625</ele>
        <time>2026-06-20T06:41:39.000Z</time>
        <extensions>
          <ns3:TrackPointExtension>
            <ns3:atemp>19.0</ns3:atemp>
          </ns3:TrackPointExtension>
        </extensions>
      </trkpt>
      <trkpt lat="42.5443945638835430145263671875" lon="20.118236280977725982666015625">
        <ele>1897.4000244140625</ele>
        <time>2026-06-20T06:41:40.000Z</time>
        <extensions>
          <ns3:TrackPointExtension>
            <ns3:atemp>19.0</ns3:atemp>
          </ns3:TrackPointExtension>
        </extensions>
      </trkpt>
      <trkpt lat="42.54439146257936954498291015625" lon="20.11823602952063083648681640625">
        <ele>1897.4000244140625</ele>
        <time>2026-06-20T06:41:41.000Z</time>
        <extensions>
          <ns3:TrackPointExtension>
            <ns3:atemp>19.0</ns3:atemp>
          </ns3:TrackPointExtension>
        </extensions>
      </trkpt>
      <trkpt lat="42.5443918816745281219482421875" lon="20.11823954991996288299560546875">
        <ele>1897.5999755859375</ele>
        <time>2026-06-20T06:41:42.000Z</time>
        <extensions>
          <ns3:TrackPointExtension>
            <ns3:atemp>19.0</ns3:atemp>
          </ns3:TrackPointExtension>
        </extensions>
      </trkpt>
      <trkpt lat="42.5443918816745281219482421875" lon="20.11823954991996288299560546875">
        <ele>1898</ele>
        <time>2026-06-20T06:41:43.000Z</time>
        <extensions>
          <ns3:TrackPointExtension>
            <ns3:atemp>19.0</ns3:atemp>
          </ns3:TrackPointExtension>
        </extensions>
      </trkpt>
      <trkpt lat="42.5443918816745281219482421875" lon="20.11823954991996288299560546875">
        <ele>1898.199951171875</ele>
        <time>2026-06-20T06:41:44.000Z</time>
        <extensions>
          <ns3:TrackPointExtension>
            <ns3:atemp>19.0</ns3:atemp>
          </ns3:TrackPointExtension>
        </extensions>
      </trkpt>
      <trkpt lat="42.5443918816745281219482421875" lon="20.11823954991996288299560546875">
        <ele>1898.5999755859375</ele>
        <time>2026-06-20T06:41:45.000Z</time>
        <extensions>
          <ns3:TrackPointExtension>
            <ns3:atemp>19.0</ns3:atemp>
          </ns3:TrackPointExtension>
        </extensions>
      </trkpt>
      <trkpt lat="42.5443918816745281219482421875" lon="20.11823954991996288299560546875">
        <ele>1898.5999755859375</ele>
        <time>2026-06-20T06:41:46.000Z</time>
        <extensions>
          <ns3:TrackPointExtension>
            <ns3:atemp>19.0</ns3:atemp>
          </ns3:TrackPointExtension>
        </extensions>
      </trkpt>
      <trkpt lat="42.5443918816745281219482421875" lon="20.11823954991996288299560546875">
        <ele>1898.4000244140625</ele>
        <time>2026-06-20T06:41:47.000Z</time>
        <extensions>
          <ns3:TrackPointExtension>
            <ns3:atemp>19.0</ns3:atemp>
          </ns3:TrackPointExtension>
        </extensions>
      </trkpt>
      <trkpt lat="42.5443918816745281219482421875" lon="20.11823954991996288299560546875">
        <ele>1898.199951171875</ele>
        <time>2026-06-20T06:41:48.000Z</time>
        <extensions>
          <ns3:TrackPointExtension>
            <ns3:atemp>19.0</ns3:atemp>
          </ns3:TrackPointExtension>
        </extensions>
      </trkpt>
      <trkpt lat="42.5443918816745281219482421875" lon="20.11823954991996288299560546875">
        <ele>1898</ele>
        <time>2026-06-20T06:41:49.000Z</time>
        <extensions>
          <ns3:TrackPointExtension>
            <ns3:atemp>19.0</ns3:atemp>
          </ns3:TrackPointExtension>
        </extensions>
      </trkpt>
      <trkpt lat="42.5443918816745281219482421875" lon="20.11823954991996288299560546875">
        <ele>1898</ele>
        <time>2026-06-20T06:41:50.000Z</time>
        <extensions>
          <ns3:TrackPointExtension>
            <ns3:atemp>19.0</ns3:atemp>
          </ns3:TrackPointExtension>
        </extensions>
      </trkpt>
      <trkpt lat="42.5443918816745281219482421875" lon="20.11823954991996288299560546875">
        <ele>1898</ele>
        <time>2026-06-20T06:41:51.000Z</time>
        <extensions>
          <ns3:TrackPointExtension>
            <ns3:atemp>19.0</ns3:atemp>
          </ns3:TrackPointExtension>
        </extensions>
      </trkpt>
      <trkpt lat="42.5443918816745281219482421875" lon="20.11823954991996288299560546875">
        <ele>1897.800048828125</ele>
        <time>2026-06-20T06:41:52.000Z</time>
        <extensions>
          <ns3:TrackPointExtension>
            <ns3:atemp>19.0</ns3:atemp>
          </ns3:TrackPointExtension>
        </extensions>
      </trkpt>
      <trkpt lat="42.5443918816745281219482421875" lon="20.11823954991996288299560546875">
        <ele>1897.800048828125</ele>
        <time>2026-06-20T06:41:53.000Z</time>
        <extensions>
          <ns3:TrackPointExtension>
            <ns3:atemp>19.0</ns3:atemp>
          </ns3:TrackPointExtension>
        </extensions>
      </trkpt>
      <trkpt lat="42.5443918816745281219482421875" lon="20.11823954991996288299560546875">
        <ele>1897.800048828125</ele>
        <time>2026-06-20T06:41:54.000Z</time>
        <extensions>
          <ns3:TrackPointExtension>
            <ns3:atemp>19.0</ns3:atemp>
          </ns3:TrackPointExtension>
        </extensions>
      </trkpt>
      <trkpt lat="42.5443918816745281219482421875" lon="20.11823954991996288299560546875">
        <ele>1898</ele>
        <time>2026-06-20T06:41:55.000Z</time>
        <extensions>
          <ns3:TrackPointExtension>
            <ns3:atemp>19.0</ns3:atemp>
          </ns3:TrackPointExtension>
        </extensions>
      </trkpt>
      <trkpt lat="42.5443918816745281219482421875" lon="20.11823954991996288299560546875">
        <ele>1898</ele>
        <time>2026-06-20T06:41:56.000Z</time>
        <extensions>
          <ns3:TrackPointExtension>
            <ns3:atemp>19.0</ns3:atemp>
          </ns3:TrackPointExtension>
        </extensions>
      </trkpt>
      <trkpt lat="42.5443918816745281219482421875" lon="20.11823954991996288299560546875">
        <ele>1898</ele>
        <time>2026-06-20T06:41:57.000Z</time>
        <extensions>
          <ns3:TrackPointExtension>
            <ns3:atemp>19.0</ns3:atemp>
          </ns3:TrackPointExtension>
        </extensions>
      </trkpt>
      <trkpt lat="42.5443918816745281219482421875" lon="20.11823954991996288299560546875">
        <ele>1898</ele>
        <time>2026-06-20T06:41:58.000Z</time>
        <extensions>
          <ns3:TrackPointExtension>
            <ns3:atemp>19.0</ns3:atemp>
          </ns3:TrackPointExtension>
        </extensions>
      </trkpt>
      <trkpt lat="42.5443918816745281219482421875" lon="20.11823954991996288299560546875">
        <ele>1897.800048828125</ele>
        <time>2026-06-20T06:41:59.000Z</time>
        <extensions>
          <ns3:TrackPointExtension>
            <ns3:atemp>19.0</ns3:atemp>
          </ns3:TrackPointExtension>
        </extensions>
      </trkpt>
      <trkpt lat="42.5443918816745281219482421875" lon="20.11823954991996288299560546875">
        <ele>1897.800048828125</ele>
        <time>2026-06-20T06:42:00.000Z</time>
        <extensions>
          <ns3:TrackPointExtension>
            <ns3:atemp>19.0</ns3:atemp>
          </ns3:TrackPointExtension>
        </extensions>
      </trkpt>
      <trkpt lat="42.5443918816745281219482421875" lon="20.11823954991996288299560546875">
        <ele>1897.800048828125</ele>
        <time>2026-06-20T06:42:01.000Z</time>
        <extensions>
          <ns3:TrackPointExtension>
            <ns3:atemp>19.0</ns3:atemp>
          </ns3:TrackPointExtension>
        </extensions>
      </trkpt>
      <trkpt lat="42.5443918816745281219482421875" lon="20.11823954991996288299560546875">
        <ele>1897.800048828125</ele>
        <time>2026-06-20T06:42:02.000Z</time>
        <extensions>
          <ns3:TrackPointExtension>
            <ns3:atemp>19.0</ns3:atemp>
          </ns3:TrackPointExtension>
        </extensions>
      </trkpt>
      <trkpt lat="42.5443918816745281219482421875" lon="20.11823954991996288299560546875">
        <ele>1897.800048828125</ele>
        <time>2026-06-20T06:42:03.000Z</time>
        <extensions>
          <ns3:TrackPointExtension>
            <ns3:atemp>19.0</ns3:atemp>
          </ns3:TrackPointExtension>
        </extensions>
      </trkpt>
      <trkpt lat="42.5443918816745281219482421875" lon="20.11823954991996288299560546875">
        <ele>1897.800048828125</ele>
        <time>2026-06-20T06:42:04.000Z</time>
        <extensions>
          <ns3:TrackPointExtension>
            <ns3:atemp>19.0</ns3:atemp>
          </ns3:TrackPointExtension>
        </extensions>
      </trkpt>
      <trkpt lat="42.5443918816745281219482421875" lon="20.11823954991996288299560546875">
        <ele>1897.800048828125</ele>
        <time>2026-06-20T06:42:05.000Z</time>
        <extensions>
          <ns3:TrackPointExtension>
            <ns3:atemp>19.0</ns3:atemp>
          </ns3:TrackPointExtension>
        </extensions>
      </trkpt>
      <trkpt lat="42.5443918816745281219482421875" lon="20.11823954991996288299560546875">
        <ele>1897.800048828125</ele>
        <time>2026-06-20T06:42:06.000Z</time>
        <extensions>
          <ns3:TrackPointExtension>
            <ns3:atemp>19.0</ns3:atemp>
          </ns3:TrackPointExtension>
        </extensions>
      </trkpt>
      <trkpt lat="42.5443918816745281219482421875" lon="20.11823954991996288299560546875">
        <ele>1897.800048828125</ele>
        <time>2026-06-20T06:42:07.000Z</time>
        <extensions>
          <ns3:TrackPointExtension>
            <ns3:atemp>19.0</ns3:atemp>
          </ns3:TrackPointExtension>
        </extensions>
      </trkpt>
      <trkpt lat="42.5443918816745281219482421875" lon="20.11823954991996288299560546875">
        <ele>1897.800048828125</ele>
        <time>2026-06-20T06:42:08.000Z</time>
        <extensions>
          <ns3:TrackPointExtension>
            <ns3:atemp>19.0</ns3:atemp>
          </ns3:TrackPointExtension>
        </extensions>
      </trkpt>
      <trkpt lat="42.5443918816745281219482421875" lon="20.11823954991996288299560546875">
        <ele>1897.800048828125</ele>
        <time>2026-06-20T06:42:09.000Z</time>
        <extensions>
          <ns3:TrackPointExtension>
            <ns3:atemp>19.0</ns3:atemp>
          </ns3:TrackPointExtension>
        </extensions>
      </trkpt>
      <trkpt lat="42.5443918816745281219482421875" lon="20.11823954991996288299560546875">
        <ele>1897.800048828125</ele>
        <time>2026-06-20T06:42:10.000Z</time>
        <extensions>
          <ns3:TrackPointExtension>
            <ns3:atemp>20.0</ns3:atemp>
          </ns3:TrackPointExtension>
        </extensions>
      </trkpt>
      <trkpt lat="42.5443918816745281219482421875" lon="20.11823954991996288299560546875">
        <ele>1897.800048828125</ele>
        <time>2026-06-20T06:42:11.000Z</time>
        <extensions>
          <ns3:TrackPointExtension>
            <ns3:atemp>20.0</ns3:atemp>
          </ns3:TrackPointExtension>
        </extensions>
      </trkpt>
      <trkpt lat="42.5443918816745281219482421875" lon="20.11823954991996288299560546875">
        <ele>1897.800048828125</ele>
        <time>2026-06-20T06:42:12.000Z</time>
        <extensions>
          <ns3:TrackPointExtension>
            <ns3:atemp>20.0</ns3:atemp>
          </ns3:TrackPointExtension>
        </extensions>
      </trkpt>
      <trkpt lat="42.5443918816745281219482421875" lon="20.11823954991996288299560546875">
        <ele>1898</ele>
        <time>2026-06-20T06:42:13.000Z</time>
        <extensions>
          <ns3:TrackPointExtension>
            <ns3:atemp>20.0</ns3:atemp>
          </ns3:TrackPointExtension>
        </extensions>
      </trkpt>
      <trkpt lat="42.5443918816745281219482421875" lon="20.11823954991996288299560546875">
        <ele>1898</ele>
        <time>2026-06-20T06:42:14.000Z</time>
        <extensions>
          <ns3:TrackPointExtension>
            <ns3:atemp>20.0</ns3:atemp>
          </ns3:TrackPointExtension>
        </extensions>
      </trkpt>
      <trkpt lat="42.5443918816745281219482421875" lon="20.11823954991996288299560546875">
        <ele>1898</ele>
        <time>2026-06-20T06:42:15.000Z</time>
        <extensions>
          <ns3:TrackPointExtension>
            <ns3:atemp>20.0</ns3:atemp>
          </ns3:TrackPointExtension>
        </extensions>
      </trkpt>
      <trkpt lat="42.5443918816745281219482421875" lon="20.11823954991996288299560546875">
        <ele>1898</ele>
        <time>2026-06-20T06:42:16.000Z</time>
        <extensions>
          <ns3:TrackPointExtension>
            <ns3:atemp>20.0</ns3:atemp>
          </ns3:TrackPointExtension>
        </extensions>
      </trkpt>
      <trkpt lat="42.5443918816745281219482421875" lon="20.11823954991996288299560546875">
        <ele>1898</ele>
        <time>2026-06-20T06:42:17.000Z</time>
        <extensions>
          <ns3:TrackPointExtension>
            <ns3:atemp>20.0</ns3:atemp>
          </ns3:TrackPointExtension>
        </extensions>
      </trkpt>
      <trkpt lat="42.5443918816745281219482421875" lon="20.11823954991996288299560546875">
        <ele>1898</ele>
        <time>2026-06-20T06:42:18.000Z</time>
        <extensions>
          <ns3:TrackPointExtension>
            <ns3:atemp>20.0</ns3:atemp>
          </ns3:TrackPointExtension>
        </extensions>
      </trkpt>
      <trkpt lat="42.5443918816745281219482421875" lon="20.11823954991996288299560546875">
        <ele>1898</ele>
        <time>2026-06-20T06:42:19.000Z</time>
        <extensions>
          <ns3:TrackPointExtension>
            <ns3:atemp>20.0</ns3:atemp>
          </ns3:TrackPointExtension>
        </extensions>
      </trkpt>
      <trkpt lat="42.5443918816745281219482421875" lon="20.11823954991996288299560546875">
        <ele>1898</ele>
        <time>2026-06-20T06:42:20.000Z</time>
        <extensions>
          <ns3:TrackPointExtension>
            <ns3:atemp>20.0</ns3:atemp>
          </ns3:TrackPointExtension>
        </extensions>
      </trkpt>
      <trkpt lat="42.5443918816745281219482421875" lon="20.11823954991996288299560546875">
        <ele>1898</ele>
        <time>2026-06-20T06:42:21.000Z</time>
        <extensions>
          <ns3:TrackPointExtension>
            <ns3:atemp>20.0</ns3:atemp>
          </ns3:TrackPointExtension>
        </extensions>
      </trkpt>
      <trkpt lat="42.5443918816745281219482421875" lon="20.11823954991996288299560546875">
        <ele>1898</ele>
        <time>2026-06-20T06:42:22.000Z</time>
        <extensions>
          <ns3:TrackPointExtension>
            <ns3:atemp>20.0</ns3:atemp>
          </ns3:TrackPointExtension>
        </extensions>
      </trkpt>
      <trkpt lat="42.5443918816745281219482421875" lon="20.11823954991996288299560546875">
        <ele>1898</ele>
        <time>2026-06-20T06:42:23.000Z</time>
        <extensions>
          <ns3:TrackPointExtension>
            <ns3:atemp>20.0</ns3:atemp>
          </ns3:TrackPointExtension>
        </extensions>
      </trkpt>
      <trkpt lat="42.5443918816745281219482421875" lon="20.11823954991996288299560546875">
        <ele>1898</ele>
        <time>2026-06-20T06:42:24.000Z</time>
        <extensions>
          <ns3:TrackPointExtension>
            <ns3:atemp>20.0</ns3:atemp>
          </ns3:TrackPointExtension>
        </extensions>
      </trkpt>
      <trkpt lat="42.5443918816745281219482421875" lon="20.11823954991996288299560546875">
        <ele>1897.800048828125</ele>
        <time>2026-06-20T06:42:25.000Z</time>
        <extensions>
          <ns3:TrackPointExtension>
            <ns3:atemp>20.0</ns3:atemp>
          </ns3:TrackPointExtension>
        </extensions>
      </trkpt>
      <trkpt lat="42.5443918816745281219482421875" lon="20.11823954991996288299560546875">
        <ele>1897.800048828125</ele>
        <time>2026-06-20T06:42:26.000Z</time>
        <extensions>
          <ns3:TrackPointExtension>
            <ns3:atemp>20.0</ns3:atemp>
          </ns3:TrackPointExtension>
        </extensions>
      </trkpt>
      <trkpt lat="42.5443918816745281219482421875" lon="20.11823954991996288299560546875">
        <ele>1897.800048828125</ele>
        <time>2026-06-20T06:42:27.000Z</time>
        <extensions>
          <ns3:TrackPointExtension>
            <ns3:atemp>20.0</ns3:atemp>
          </ns3:TrackPointExtension>
        </extensions>
      </trkpt>
      <trkpt lat="42.5443918816745281219482421875" lon="20.11823954991996288299560546875">
        <ele>1897.800048828125</ele>
        <time>2026-06-20T06:42:28.000Z</time>
        <extensions>
          <ns3:TrackPointExtension>
            <ns3:atemp>20.0</ns3:atemp>
          </ns3:TrackPointExtension>
        </extensions>
      </trkpt>
      <trkpt lat="42.5443918816745281219482421875" lon="20.11823954991996288299560546875">
        <ele>1897.800048828125</ele>
        <time>2026-06-20T06:42:29.000Z</time>
        <extensions>
          <ns3:TrackPointExtension>
            <ns3:atemp>20.0</ns3:atemp>
          </ns3:TrackPointExtension>
        </extensions>
      </trkpt>
      <trkpt lat="42.5443918816745281219482421875" lon="20.11823954991996288299560546875">
        <ele>1897.800048828125</ele>
        <time>2026-06-20T06:42:30.000Z</time>
        <extensions>
          <ns3:TrackPointExtension>
            <ns3:atemp>20.0</ns3:atemp>
          </ns3:TrackPointExtension>
        </extensions>
      </trkpt>
      <trkpt lat="42.5443918816745281219482421875" lon="20.11823954991996288299560546875">
        <ele>1898</ele>
        <time>2026-06-20T06:42:31.000Z</time>
        <extensions>
          <ns3:TrackPointExtension>
            <ns3:atemp>20.0</ns3:atemp>
          </ns3:TrackPointExtension>
        </extensions>
      </trkpt>
      <trkpt lat="42.5443918816745281219482421875" lon="20.11823954991996288299560546875">
        <ele>1898</ele>
        <time>2026-06-20T06:42:32.000Z</time>
        <extensions>
          <ns3:TrackPointExtension>
            <ns3:atemp>20.0</ns3:atemp>
          </ns3:TrackPointExtension>
        </extensions>
      </trkpt>
      <trkpt lat="42.5443918816745281219482421875" lon="20.11823954991996288299560546875">
        <ele>1898</ele>
        <time>2026-06-20T06:42:33.000Z</time>
        <extensions>
          <ns3:TrackPointExtension>
            <ns3:atemp>20.0</ns3:atemp>
          </ns3:TrackPointExtension>
        </extensions>
      </trkpt>
      <trkpt lat="42.5443918816745281219482421875" lon="20.11823954991996288299560546875">
        <ele>1898</ele>
        <time>2026-06-20T06:42:34.000Z</time>
        <extensions>
          <ns3:TrackPointExtension>
            <ns3:atemp>20.0</ns3:atemp>
          </ns3:TrackPointExtension>
        </extensions>
      </trkpt>
      <trkpt lat="42.5443918816745281219482421875" lon="20.11823954991996288299560546875">
        <ele>1898</ele>
        <time>2026-06-20T06:42:35.000Z</time>
        <extensions>
          <ns3:TrackPointExtension>
            <ns3:atemp>20.0</ns3:atemp>
          </ns3:TrackPointExtension>
        </extensions>
      </trkpt>
      <trkpt lat="42.5443918816745281219482421875" lon="20.11823954991996288299560546875">
        <ele>1898</ele>
        <time>2026-06-20T06:42:36.000Z</time>
        <extensions>
          <ns3:TrackPointExtension>
            <ns3:atemp>20.0</ns3:atemp>
          </ns3:TrackPointExtension>
        </extensions>
      </trkpt>
      <trkpt lat="42.5443918816745281219482421875" lon="20.11823954991996288299560546875">
        <ele>1898</ele>
        <time>2026-06-20T06:42:37.000Z</time>
        <extensions>
          <ns3:TrackPointExtension>
            <ns3:atemp>20.0</ns3:atemp>
          </ns3:TrackPointExtension>
        </extensions>
      </trkpt>
      <trkpt lat="42.5443918816745281219482421875" lon="20.11823954991996288299560546875">
        <ele>1898.199951171875</ele>
        <time>2026-06-20T06:42:38.000Z</time>
        <extensions>
          <ns3:TrackPointExtension>
            <ns3:atemp>20.0</ns3:atemp>
          </ns3:TrackPointExtension>
        </extensions>
      </trkpt>
      <trkpt lat="42.5443918816745281219482421875" lon="20.11823954991996288299560546875">
        <ele>1898.199951171875</ele>
        <time>2026-06-20T06:42:39.000Z</time>
        <extensions>
          <ns3:TrackPointExtension>
            <ns3:atemp>20.0</ns3:atemp>
          </ns3:TrackPointExtension>
        </extensions>
      </trkpt>
      <trkpt lat="42.5443918816745281219482421875" lon="20.11823954991996288299560546875">
        <ele>1898.199951171875</ele>
        <time>2026-06-20T06:42:40.000Z</time>
        <extensions>
          <ns3:TrackPointExtension>
            <ns3:atemp>20.0</ns3:atemp>
          </ns3:TrackPointExtension>
        </extensions>
      </trkpt>
      <trkpt lat="42.5443918816745281219482421875" lon="20.11823954991996288299560546875">
        <ele>1898.199951171875</ele>
        <time>2026-06-20T06:42:41.000Z</time>
        <extensions>
          <ns3:TrackPointExtension>
            <ns3:atemp>20.0</ns3:atemp>
          </ns3:TrackPointExtension>
        </extensions>
      </trkpt>
      <trkpt lat="42.5443918816745281219482421875" lon="20.11823954991996288299560546875">
        <ele>1898.199951171875</ele>
        <time>2026-06-20T06:42:42.000Z</time>
        <extensions>
          <ns3:TrackPointExtension>
            <ns3:atemp>20.0</ns3:atemp>
          </ns3:TrackPointExtension>
        </extensions>
      </trkpt>
      <trkpt lat="42.5443918816745281219482421875" lon="20.11823954991996288299560546875">
        <ele>1898</ele>
        <time>2026-06-20T06:42:43.000Z</time>
        <extensions>
          <ns3:TrackPointExtension>
            <ns3:atemp>20.0</ns3:atemp>
          </ns3:TrackPointExtension>
        </extensions>
      </trkpt>
      <trkpt lat="42.5443918816745281219482421875" lon="20.11823954991996288299560546875">
        <ele>1898</ele>
        <time>2026-06-20T06:42:44.000Z</time>
        <extensions>
          <ns3:TrackPointExtension>
            <ns3:atemp>20.0</ns3:atemp>
          </ns3:TrackPointExtension>
        </extensions>
      </trkpt>
      <trkpt lat="42.5443918816745281219482421875" lon="20.11823954991996288299560546875">
        <ele>1898</ele>
        <time>2026-06-20T06:42:45.000Z</time>
        <extensions>
          <ns3:TrackPointExtension>
            <ns3:atemp>20.0</ns3:atemp>
          </ns3:TrackPointExtension>
        </extensions>
      </trkpt>
      <trkpt lat="42.5443918816745281219482421875" lon="20.11823954991996288299560546875">
        <ele>1898</ele>
        <time>2026-06-20T06:42:46.000Z</time>
        <extensions>
          <ns3:TrackPointExtension>
            <ns3:atemp>20.0</ns3:atemp>
          </ns3:TrackPointExtension>
        </extensions>
      </trkpt>
      <trkpt lat="42.5443918816745281219482421875" lon="20.11823954991996288299560546875">
        <ele>1898.199951171875</ele>
        <time>2026-06-20T06:42:47.000Z</time>
        <extensions>
          <ns3:TrackPointExtension>
            <ns3:atemp>20.0</ns3:atemp>
          </ns3:TrackPointExtension>
        </extensions>
      </trkpt>
      <trkpt lat="42.5443918816745281219482421875" lon="20.11823954991996288299560546875">
        <ele>1898.199951171875</ele>
        <time>2026-06-20T06:42:48.000Z</time>
        <extensions>
          <ns3:TrackPointExtension>
            <ns3:atemp>20.0</ns3:atemp>
          </ns3:TrackPointExtension>
        </extensions>
      </trkpt>
      <trkpt lat="42.5443918816745281219482421875" lon="20.11823954991996288299560546875">
        <ele>1898.199951171875</ele>
        <time>2026-06-20T06:42:49.000Z</time>
        <extensions>
          <ns3:TrackPointExtension>
            <ns3:atemp>20.0</ns3:atemp>
          </ns3:TrackPointExtension>
        </extensions>
      </trkpt>
      <trkpt lat="42.5443918816745281219482421875" lon="20.11823954991996288299560546875">
        <ele>1898.4000244140625</ele>
        <time>2026-06-20T06:42:50.000Z</time>
        <extensions>
          <ns3:TrackPointExtension>
            <ns3:atemp>20.0</ns3:atemp>
          </ns3:TrackPointExtension>
        </extensions>
      </trkpt>
      <trkpt lat="42.5443918816745281219482421875" lon="20.11823954991996288299560546875">
        <ele>1898.4000244140625</ele>
        <time>2026-06-20T06:42:51.000Z</time>
        <extensions>
          <ns3:TrackPointExtension>
            <ns3:atemp>20.0</ns3:atemp>
          </ns3:TrackPointExtension>
        </extensions>
      </trkpt>
      <trkpt lat="42.5443918816745281219482421875" lon="20.11823954991996288299560546875">
        <ele>1898.4000244140625</ele>
        <time>2026-06-20T06:42:52.000Z</time>
        <extensions>
          <ns3:TrackPointExtension>
            <ns3:atemp>20.0</ns3:atemp>
          </ns3:TrackPointExtension>
        </extensions>
      </trkpt>
      <trkpt lat="42.5443918816745281219482421875" lon="20.11823954991996288299560546875">
        <ele>1898.4000244140625</ele>
        <time>2026-06-20T06:42:53.000Z</time>
        <extensions>
          <ns3:TrackPointExtension>
            <ns3:atemp>20.0</ns3:atemp>
          </ns3:TrackPointExtension>
        </extensions>
      </trkpt>
      <trkpt lat="42.5443918816745281219482421875" lon="20.11823954991996288299560546875">
        <ele>1898.4000244140625</ele>
        <time>2026-06-20T06:42:54.000Z</time>
        <extensions>
          <ns3:TrackPointExtension>
            <ns3:atemp>20.0</ns3:atemp>
          </ns3:TrackPointExtension>
        </extensions>
      </trkpt>
      <trkpt lat="42.5443918816745281219482421875" lon="20.11823954991996288299560546875">
        <ele>1898.4000244140625</ele>
        <time>2026-06-20T06:42:55.000Z</time>
        <extensions>
          <ns3:TrackPointExtension>
            <ns3:atemp>20.0</ns3:atemp>
          </ns3:TrackPointExtension>
        </extensions>
      </trkpt>
      <trkpt lat="42.5443918816745281219482421875" lon="20.11823954991996288299560546875">
        <ele>1898.4000244140625</ele>
        <time>2026-06-20T06:42:56.000Z</time>
        <extensions>
          <ns3:TrackPointExtension>
            <ns3:atemp>20.0</ns3:atemp>
          </ns3:TrackPointExtension>
        </extensions>
      </trkpt>
      <trkpt lat="42.5443918816745281219482421875" lon="20.11823954991996288299560546875">
        <ele>1898.4000244140625</ele>
        <time>2026-06-20T06:42:57.000Z</time>
        <extensions>
          <ns3:TrackPointExtension>
            <ns3:atemp>20.0</ns3:atemp>
          </ns3:TrackPointExtension>
        </extensions>
      </trkpt>
      <trkpt lat="42.5443918816745281219482421875" lon="20.11823954991996288299560546875">
        <ele>1898.4000244140625</ele>
        <time>2026-06-20T06:42:58.000Z</time>
        <extensions>
          <ns3:TrackPointExtension>
            <ns3:atemp>20.0</ns3:atemp>
          </ns3:TrackPointExtension>
        </extensions>
      </trkpt>
      <trkpt lat="42.5443918816745281219482421875" lon="20.11823954991996288299560546875">
        <ele>1898.4000244140625</ele>
        <time>2026-06-20T06:42:59.000Z</time>
        <extensions>
          <ns3:TrackPointExtension>
            <ns3:atemp>20.0</ns3:atemp>
          </ns3:TrackPointExtension>
        </extensions>
      </trkpt>
      <trkpt lat="42.5443918816745281219482421875" lon="20.11823954991996288299560546875">
        <ele>1898.4000244140625</ele>
        <time>2026-06-20T06:43:00.000Z</time>
        <extensions>
          <ns3:TrackPointExtension>
            <ns3:atemp>20.0</ns3:atemp>
          </ns3:TrackPointExtension>
        </extensions>
      </trkpt>
      <trkpt lat="42.5443918816745281219482421875" lon="20.11823954991996288299560546875">
        <ele>1898.4000244140625</ele>
        <time>2026-06-20T06:43:01.000Z</time>
        <extensions>
          <ns3:TrackPointExtension>
            <ns3:atemp>20.0</ns3:atemp>
          </ns3:TrackPointExtension>
        </extensions>
      </trkpt>
      <trkpt lat="42.5443918816745281219482421875" lon="20.11823954991996288299560546875">
        <ele>1898.4000244140625</ele>
        <time>2026-06-20T06:43:02.000Z</time>
        <extensions>
          <ns3:TrackPointExtension>
            <ns3:atemp>20.0</ns3:atemp>
          </ns3:TrackPointExtension>
        </extensions>
      </trkpt>
      <trkpt lat="42.5443918816745281219482421875" lon="20.11823954991996288299560546875">
        <ele>1898.4000244140625</ele>
        <time>2026-06-20T06:43:03.000Z</time>
        <extensions>
          <ns3:TrackPointExtension>
            <ns3:atemp>20.0</ns3:atemp>
          </ns3:TrackPointExtension>
        </extensions>
      </trkpt>
      <trkpt lat="42.5443918816745281219482421875" lon="20.11823954991996288299560546875">
        <ele>1898.4000244140625</ele>
        <time>2026-06-20T06:43:04.000Z</time>
        <extensions>
          <ns3:TrackPointExtension>
            <ns3:atemp>20.0</ns3:atemp>
          </ns3:TrackPointExtension>
        </extensions>
      </trkpt>
      <trkpt lat="42.5443918816745281219482421875" lon="20.11823954991996288299560546875">
        <ele>1898.4000244140625</ele>
        <time>2026-06-20T06:43:05.000Z</time>
        <extensions>
          <ns3:TrackPointExtension>
            <ns3:atemp>20.0</ns3:atemp>
          </ns3:TrackPointExtension>
        </extensions>
      </trkpt>
      <trkpt lat="42.5443918816745281219482421875" lon="20.11823954991996288299560546875">
        <ele>1898.4000244140625</ele>
        <time>2026-06-20T06:43:06.000Z</time>
        <extensions>
          <ns3:TrackPointExtension>
            <ns3:atemp>20.0</ns3:atemp>
          </ns3:TrackPointExtension>
        </extensions>
      </trkpt>
      <trkpt lat="42.5443918816745281219482421875" lon="20.11823954991996288299560546875">
        <ele>1898.4000244140625</ele>
        <time>2026-06-20T06:43:07.000Z</time>
        <extensions>
          <ns3:TrackPointExtension>
            <ns3:atemp>20.0</ns3:atemp>
          </ns3:TrackPointExtension>
        </extensions>
      </trkpt>
      <trkpt lat="42.5443918816745281219482421875" lon="20.11823954991996288299560546875">
        <ele>1898.4000244140625</ele>
        <time>2026-06-20T06:43:08.000Z</time>
        <extensions>
          <ns3:TrackPointExtension>
            <ns3:atemp>20.0</ns3:atemp>
          </ns3:TrackPointExtension>
        </extensions>
      </trkpt>
      <trkpt lat="42.5443918816745281219482421875" lon="20.11823954991996288299560546875">
        <ele>1898.199951171875</ele>
        <time>2026-06-20T06:43:09.000Z</time>
        <extensions>
          <ns3:TrackPointExtension>
            <ns3:atemp>20.0</ns3:atemp>
          </ns3:TrackPointExtension>
        </extensions>
      </trkpt>
      <trkpt lat="42.5443918816745281219482421875" lon="20.11823954991996288299560546875">
        <ele>1898.199951171875</ele>
        <time>2026-06-20T06:43:10.000Z</time>
        <extensions>
          <ns3:TrackPointExtension>
            <ns3:atemp>20.0</ns3:atemp>
          </ns3:TrackPointExtension>
        </extensions>
      </trkpt>
      <trkpt lat="42.5443918816745281219482421875" lon="20.11823954991996288299560546875">
        <ele>1898</ele>
        <time>2026-06-20T06:43:11.000Z</time>
        <extensions>
          <ns3:TrackPointExtension>
            <ns3:atemp>20.0</ns3:atemp>
          </ns3:TrackPointExtension>
        </extensions>
      </trkpt>
      <trkpt lat="42.5443918816745281219482421875" lon="20.11823954991996288299560546875">
        <ele>1898</ele>
        <time>2026-06-20T06:43:12.000Z</time>
        <extensions>
          <ns3:TrackPointExtension>
            <ns3:atemp>20.0</ns3:atemp>
          </ns3:TrackPointExtension>
        </extensions>
      </trkpt>
      <trkpt lat="42.5443918816745281219482421875" lon="20.11823954991996288299560546875">
        <ele>1898</ele>
        <time>2026-06-20T06:43:13.000Z</time>
        <extensions>
          <ns3:TrackPointExtension>
            <ns3:atemp>20.0</ns3:atemp>
          </ns3:TrackPointExtension>
        </extensions>
      </trkpt>
      <trkpt lat="42.5443918816745281219482421875" lon="20.11823954991996288299560546875">
        <ele>1898.199951171875</ele>
        <time>2026-06-20T06:43:14.000Z</time>
        <extensions>
          <ns3:TrackPointExtension>
            <ns3:atemp>20.0</ns3:atemp>
          </ns3:TrackPointExtension>
        </extensions>
      </trkpt>
      <trkpt lat="42.5443918816745281219482421875" lon="20.11823954991996288299560546875">
        <ele>1898.199951171875</ele>
        <time>2026-06-20T06:43:15.000Z</time>
        <extensions>
          <ns3:TrackPointExtension>
            <ns3:atemp>20.0</ns3:atemp>
          </ns3:TrackPointExtension>
        </extensions>
      </trkpt>
      <trkpt lat="42.5443918816745281219482421875" lon="20.11823954991996288299560546875">
        <ele>1898.199951171875</ele>
        <time>2026-06-20T06:43:16.000Z</time>
        <extensions>
          <ns3:TrackPointExtension>
            <ns3:atemp>20.0</ns3:atemp>
          </ns3:TrackPointExtension>
        </extensions>
      </trkpt>
      <trkpt lat="42.5443918816745281219482421875" lon="20.11823954991996288299560546875">
        <ele>1898.4000244140625</ele>
        <time>2026-06-20T06:43:17.000Z</time>
        <extensions>
          <ns3:TrackPointExtension>
            <ns3:atemp>20.0</ns3:atemp>
          </ns3:TrackPointExtension>
        </extensions>
      </trkpt>
      <trkpt lat="42.5443918816745281219482421875" lon="20.11823954991996288299560546875">
        <ele>1898.4000244140625</ele>
        <time>2026-06-20T06:43:18.000Z</time>
        <extensions>
          <ns3:TrackPointExtension>
            <ns3:atemp>20.0</ns3:atemp>
          </ns3:TrackPointExtension>
        </extensions>
      </trkpt>
      <trkpt lat="42.5443918816745281219482421875" lon="20.11823954991996288299560546875">
        <ele>1898.4000244140625</ele>
        <time>2026-06-20T06:43:19.000Z</time>
        <extensions>
          <ns3:TrackPointExtension>
            <ns3:atemp>20.0</ns3:atemp>
          </ns3:TrackPointExtension>
        </extensions>
      </trkpt>
      <trkpt lat="42.5443918816745281219482421875" lon="20.11823954991996288299560546875">
        <ele>1898.5999755859375</ele>
        <time>2026-06-20T06:43:20.000Z</time>
        <extensions>
          <ns3:TrackPointExtension>
            <ns3:atemp>20.0</ns3:atemp>
          </ns3:TrackPointExtension>
        </extensions>
      </trkpt>
      <trkpt lat="42.5443918816745281219482421875" lon="20.11823954991996288299560546875">
        <ele>1898.5999755859375</ele>
        <time>2026-06-20T06:43:21.000Z</time>
        <extensions>
          <ns3:TrackPointExtension>
            <ns3:atemp>20.0</ns3:atemp>
          </ns3:TrackPointExtension>
        </extensions>
      </trkpt>
      <trkpt lat="42.5443918816745281219482421875" lon="20.11823954991996288299560546875">
        <ele>1898.5999755859375</ele>
        <time>2026-06-20T06:43:22.000Z</time>
        <extensions>
          <ns3:TrackPointExtension>
            <ns3:atemp>20.0</ns3:atemp>
          </ns3:TrackPointExtension>
        </extensions>
      </trkpt>
      <trkpt lat="42.5443918816745281219482421875" lon="20.11823954991996288299560546875">
        <ele>1898.5999755859375</ele>
        <time>2026-06-20T06:43:23.000Z</time>
        <extensions>
          <ns3:TrackPointExtension>
            <ns3:atemp>20.0</ns3:atemp>
          </ns3:TrackPointExtension>
        </extensions>
      </trkpt>
      <trkpt lat="42.5443918816745281219482421875" lon="20.11823954991996288299560546875">
        <ele>1898.5999755859375</ele>
        <time>2026-06-20T06:43:24.000Z</time>
        <extensions>
          <ns3:TrackPointExtension>
            <ns3:atemp>20.0</ns3:atemp>
          </ns3:TrackPointExtension>
        </extensions>
      </trkpt>
      <trkpt lat="42.5443918816745281219482421875" lon="20.11823954991996288299560546875">
        <ele>1898.5999755859375</ele>
        <time>2026-06-20T06:43:25.000Z</time>
        <extensions>
          <ns3:TrackPointExtension>
            <ns3:atemp>20.0</ns3:atemp>
          </ns3:TrackPointExtension>
        </extensions>
      </trkpt>
      <trkpt lat="42.5443918816745281219482421875" lon="20.11823954991996288299560546875">
        <ele>1898.4000244140625</ele>
        <time>2026-06-20T06:43:26.000Z</time>
        <extensions>
          <ns3:TrackPointExtension>
            <ns3:atemp>20.0</ns3:atemp>
          </ns3:TrackPointExtension>
        </extensions>
      </trkpt>
      <trkpt lat="42.5443918816745281219482421875" lon="20.11823954991996288299560546875">
        <ele>1898.4000244140625</ele>
        <time>2026-06-20T06:43:27.000Z</time>
        <extensions>
          <ns3:TrackPointExtension>
            <ns3:atemp>20.0</ns3:atemp>
          </ns3:TrackPointExtension>
        </extensions>
      </trkpt>
      <trkpt lat="42.5443918816745281219482421875" lon="20.11823954991996288299560546875">
        <ele>1898.4000244140625</ele>
        <time>2026-06-20T06:43:28.000Z</time>
        <extensions>
          <ns3:TrackPointExtension>
            <ns3:atemp>20.0</ns3:atemp>
          </ns3:TrackPointExtension>
        </extensions>
      </trkpt>
      <trkpt lat="42.5443918816745281219482421875" lon="20.11823954991996288299560546875">
        <ele>1898.4000244140625</ele>
        <time>2026-06-20T06:43:29.000Z</time>
        <extensions>
          <ns3:TrackPointExtension>
            <ns3:atemp>20.0</ns3:atemp>
          </ns3:TrackPointExtension>
        </extensions>
      </trkpt>
      <trkpt lat="42.5443918816745281219482421875" lon="20.11823954991996288299560546875">
        <ele>1898.4000244140625</ele>
        <time>2026-06-20T06:43:30.000Z</time>
        <extensions>
          <ns3:TrackPointExtension>
            <ns3:atemp>20.0</ns3:atemp>
          </ns3:TrackPointExtension>
        </extensions>
      </trkpt>
      <trkpt lat="42.5443918816745281219482421875" lon="20.11823954991996288299560546875">
        <ele>1898.4000244140625</ele>
        <time>2026-06-20T06:43:31.000Z</time>
        <extensions>
          <ns3:TrackPointExtension>
            <ns3:atemp>20.0</ns3:atemp>
          </ns3:TrackPointExtension>
        </extensions>
      </trkpt>
      <trkpt lat="42.5443918816745281219482421875" lon="20.11823954991996288299560546875">
        <ele>1898.4000244140625</ele>
        <time>2026-06-20T06:43:32.000Z</time>
        <extensions>
          <ns3:TrackPointExtension>
            <ns3:atemp>20.0</ns3:atemp>
          </ns3:TrackPointExtension>
        </extensions>
      </trkpt>
      <trkpt lat="42.5443918816745281219482421875" lon="20.11823954991996288299560546875">
        <ele>1898.4000244140625</ele>
        <time>2026-06-20T06:43:33.000Z</time>
        <extensions>
          <ns3:TrackPointExtension>
            <ns3:atemp>20.0</ns3:atemp>
          </ns3:TrackPointExtension>
        </extensions>
      </trkpt>
      <trkpt lat="42.5443918816745281219482421875" lon="20.11823954991996288299560546875">
        <ele>1898.4000244140625</ele>
        <time>2026-06-20T06:43:34.000Z</time>
        <extensions>
          <ns3:TrackPointExtension>
            <ns3:atemp>20.0</ns3:atemp>
          </ns3:TrackPointExtension>
        </extensions>
      </trkpt>
      <trkpt lat="42.5443918816745281219482421875" lon="20.11823954991996288299560546875">
        <ele>1898.4000244140625</ele>
        <time>2026-06-20T06:43:35.000Z</time>
        <extensions>
          <ns3:TrackPointExtension>
            <ns3:atemp>20.0</ns3:atemp>
          </ns3:TrackPointExtension>
        </extensions>
      </trkpt>
      <trkpt lat="42.5443918816745281219482421875" lon="20.11823954991996288299560546875">
        <ele>1898.4000244140625</ele>
        <time>2026-06-20T06:43:36.000Z</time>
        <extensions>
          <ns3:TrackPointExtension>
            <ns3:atemp>20.0</ns3:atemp>
          </ns3:TrackPointExtension>
        </extensions>
      </trkpt>
      <trkpt lat="42.5443918816745281219482421875" lon="20.11823954991996288299560546875">
        <ele>1898.4000244140625</ele>
        <time>2026-06-20T06:43:37.000Z</time>
        <extensions>
          <ns3:TrackPointExtension>
            <ns3:atemp>20.0</ns3:atemp>
          </ns3:TrackPointExtension>
        </extensions>
      </trkpt>
      <trkpt lat="42.5443918816745281219482421875" lon="20.11823954991996288299560546875">
        <ele>1898.4000244140625</ele>
        <time>2026-06-20T06:43:38.000Z</time>
        <extensions>
          <ns3:TrackPointExtension>
            <ns3:atemp>20.0</ns3:atemp>
          </ns3:TrackPointExtension>
        </extensions>
      </trkpt>
      <trkpt lat="42.5443918816745281219482421875" lon="20.11823954991996288299560546875">
        <ele>1898.4000244140625</ele>
        <time>2026-06-20T06:43:39.000Z</time>
        <extensions>
          <ns3:TrackPointExtension>
            <ns3:atemp>20.0</ns3:atemp>
          </ns3:TrackPointExtension>
        </extensions>
      </trkpt>
      <trkpt lat="42.5443918816745281219482421875" lon="20.11823954991996288299560546875">
        <ele>1898.4000244140625</ele>
        <time>2026-06-20T06:43:40.000Z</time>
        <extensions>
          <ns3:TrackPointExtension>
            <ns3:atemp>20.0</ns3:atemp>
          </ns3:TrackPointExtension>
        </extensions>
      </trkpt>
      <trkpt lat="42.5443918816745281219482421875" lon="20.11823954991996288299560546875">
        <ele>1898.4000244140625</ele>
        <time>2026-06-20T06:43:41.000Z</time>
        <extensions>
          <ns3:TrackPointExtension>
            <ns3:atemp>20.0</ns3:atemp>
          </ns3:TrackPointExtension>
        </extensions>
      </trkpt>
      <trkpt lat="42.5443918816745281219482421875" lon="20.11823954991996288299560546875">
        <ele>1898.199951171875</ele>
        <time>2026-06-20T06:43:42.000Z</time>
        <extensions>
          <ns3:TrackPointExtension>
            <ns3:atemp>20.0</ns3:atemp>
          </ns3:TrackPointExtension>
        </extensions>
      </trkpt>
      <trkpt lat="42.5443918816745281219482421875" lon="20.11823954991996288299560546875">
        <ele>1898.199951171875</ele>
        <time>2026-06-20T06:43:43.000Z</time>
        <extensions>
          <ns3:TrackPointExtension>
            <ns3:atemp>20.0</ns3:atemp>
          </ns3:TrackPointExtension>
        </extensions>
      </trkpt>
      <trkpt lat="42.5443918816745281219482421875" lon="20.11823954991996288299560546875">
        <ele>1898.199951171875</ele>
        <time>2026-06-20T06:43:44.000Z</time>
        <extensions>
          <ns3:TrackPointExtension>
            <ns3:atemp>20.0</ns3:atemp>
          </ns3:TrackPointExtension>
        </extensions>
      </trkpt>
      <trkpt lat="42.5443918816745281219482421875" lon="20.11823954991996288299560546875">
        <ele>1898.199951171875</ele>
        <time>2026-06-20T06:43:45.000Z</time>
        <extensions>
          <ns3:TrackPointExtension>
            <ns3:atemp>20.0</ns3:atemp>
          </ns3:TrackPointExtension>
        </extensions>
      </trkpt>
      <trkpt lat="42.5443918816745281219482421875" lon="20.11823954991996288299560546875">
        <ele>1898.4000244140625</ele>
        <time>2026-06-20T06:43:46.000Z</time>
        <extensions>
          <ns3:TrackPointExtension>
            <ns3:atemp>20.0</ns3:atemp>
          </ns3:TrackPointExtension>
        </extensions>
      </trkpt>
      <trkpt lat="42.5443918816745281219482421875" lon="20.11823954991996288299560546875">
        <ele>1898.4000244140625</ele>
        <time>2026-06-20T06:43:47.000Z</time>
        <extensions>
          <ns3:TrackPointExtension>
            <ns3:atemp>20.0</ns3:atemp>
          </ns3:TrackPointExtension>
        </extensions>
      </trkpt>
      <trkpt lat="42.5443918816745281219482421875" lon="20.11823954991996288299560546875">
        <ele>1898.4000244140625</ele>
        <time>2026-06-20T06:43:48.000Z</time>
        <extensions>
          <ns3:TrackPointExtension>
            <ns3:atemp>20.0</ns3:atemp>
          </ns3:TrackPointExtension>
        </extensions>
      </trkpt>
      <trkpt lat="42.5443918816745281219482421875" lon="20.11823954991996288299560546875">
        <ele>1898.4000244140625</ele>
        <time>2026-06-20T06:43:49.000Z</time>
        <extensions>
          <ns3:TrackPointExtension>
            <ns3:atemp>20.0</ns3:atemp>
          </ns3:TrackPointExtension>
        </extensions>
      </trkpt>
      <trkpt lat="42.5443918816745281219482421875" lon="20.11823954991996288299560546875">
        <ele>1898.4000244140625</ele>
        <time>2026-06-20T06:43:50.000Z</time>
        <extensions>
          <ns3:TrackPointExtension>
            <ns3:atemp>20.0</ns3:atemp>
          </ns3:TrackPointExtension>
        </extensions>
      </trkpt>
      <trkpt lat="42.5443918816745281219482421875" lon="20.11823954991996288299560546875">
        <ele>1898.4000244140625</ele>
        <time>2026-06-20T06:43:51.000Z</time>
        <extensions>
          <ns3:TrackPointExtension>
            <ns3:atemp>20.0</ns3:atemp>
          </ns3:TrackPointExtension>
        </extensions>
      </trkpt>
      <trkpt lat="42.5443918816745281219482421875" lon="20.11823954991996288299560546875">
        <ele>1898.4000244140625</ele>
        <time>2026-06-20T06:43:52.000Z</time>
        <extensions>
          <ns3:TrackPointExtension>
            <ns3:atemp>20.0</ns3:atemp>
          </ns3:TrackPointExtension>
        </extensions>
      </trkpt>
      <trkpt lat="42.5443918816745281219482421875" lon="20.11823954991996288299560546875">
        <ele>1898.4000244140625</ele>
        <time>2026-06-20T06:43:53.000Z</time>
        <extensions>
          <ns3:TrackPointExtension>
            <ns3:atemp>20.0</ns3:atemp>
          </ns3:TrackPointExtension>
        </extensions>
      </trkpt>
      <trkpt lat="42.5443918816745281219482421875" lon="20.11823954991996288299560546875">
        <ele>1898.4000244140625</ele>
        <time>2026-06-20T06:43:54.000Z</time>
        <extensions>
          <ns3:TrackPointExtension>
            <ns3:atemp>20.0</ns3:atemp>
          </ns3:TrackPointExtension>
        </extensions>
      </trkpt>
      <trkpt lat="42.5443918816745281219482421875" lon="20.11823954991996288299560546875">
        <ele>1898.4000244140625</ele>
        <time>2026-06-20T06:43:55.000Z</time>
        <extensions>
          <ns3:TrackPointExtension>
            <ns3:atemp>20.0</ns3:atemp>
          </ns3:TrackPointExtension>
        </extensions>
      </trkpt>
      <trkpt lat="42.5443918816745281219482421875" lon="20.11823954991996288299560546875">
        <ele>1898.4000244140625</ele>
        <time>2026-06-20T06:43:56.000Z</time>
        <extensions>
          <ns3:TrackPointExtension>
            <ns3:atemp>20.0</ns3:atemp>
          </ns3:TrackPointExtension>
        </extensions>
      </trkpt>
      <trkpt lat="42.5443918816745281219482421875" lon="20.11823954991996288299560546875">
        <ele>1898.4000244140625</ele>
        <time>2026-06-20T06:43:57.000Z</time>
        <extensions>
          <ns3:TrackPointExtension>
            <ns3:atemp>20.0</ns3:atemp>
          </ns3:TrackPointExtension>
        </extensions>
      </trkpt>
      <trkpt lat="42.5443918816745281219482421875" lon="20.11823954991996288299560546875">
        <ele>1898.4000244140625</ele>
        <time>2026-06-20T06:43:58.000Z</time>
        <extensions>
          <ns3:TrackPointExtension>
            <ns3:atemp>20.0</ns3:atemp>
          </ns3:TrackPointExtension>
        </extensions>
      </trkpt>
      <trkpt lat="42.5443918816745281219482421875" lon="20.11823954991996288299560546875">
        <ele>1898.4000244140625</ele>
        <time>2026-06-20T06:43:59.000Z</time>
        <extensions>
          <ns3:TrackPointExtension>
            <ns3:atemp>20.0</ns3:atemp>
          </ns3:TrackPointExtension>
        </extensions>
      </trkpt>
      <trkpt lat="42.5443918816745281219482421875" lon="20.11823954991996288299560546875">
        <ele>1898.5999755859375</ele>
        <time>2026-06-20T06:44:00.000Z</time>
        <extensions>
          <ns3:TrackPointExtension>
            <ns3:atemp>21.0</ns3:atemp>
          </ns3:TrackPointExtension>
        </extensions>
      </trkpt>
      <trkpt lat="42.5443918816745281219482421875" lon="20.11823954991996288299560546875">
        <ele>1898.5999755859375</ele>
        <time>2026-06-20T06:44:01.000Z</time>
        <extensions>
          <ns3:TrackPointExtension>
            <ns3:atemp>21.0</ns3:atemp>
          </ns3:TrackPointExtension>
        </extensions>
      </trkpt>
      <trkpt lat="42.5443918816745281219482421875" lon="20.11823954991996288299560546875">
        <ele>1898.5999755859375</ele>
        <time>2026-06-20T06:44:02.000Z</time>
        <extensions>
          <ns3:TrackPointExtension>
            <ns3:atemp>21.0</ns3:atemp>
          </ns3:TrackPointExtension>
        </extensions>
      </trkpt>
      <trkpt lat="42.5443918816745281219482421875" lon="20.11823954991996288299560546875">
        <ele>1898.5999755859375</ele>
        <time>2026-06-20T06:44:03.000Z</time>
        <extensions>
          <ns3:TrackPointExtension>
            <ns3:atemp>21.0</ns3:atemp>
          </ns3:TrackPointExtension>
        </extensions>
      </trkpt>
      <trkpt lat="42.5443918816745281219482421875" lon="20.11823954991996288299560546875">
        <ele>1898.5999755859375</ele>
        <time>2026-06-20T06:44:04.000Z</time>
        <extensions>
          <ns3:TrackPointExtension>
            <ns3:atemp>21.0</ns3:atemp>
          </ns3:TrackPointExtension>
        </extensions>
      </trkpt>
      <trkpt lat="42.5443918816745281219482421875" lon="20.11823954991996288299560546875">
        <ele>1898.5999755859375</ele>
        <time>2026-06-20T06:44:05.000Z</time>
        <extensions>
          <ns3:TrackPointExtension>
            <ns3:atemp>21.0</ns3:atemp>
          </ns3:TrackPointExtension>
        </extensions>
      </trkpt>
      <trkpt lat="42.5443918816745281219482421875" lon="20.11823954991996288299560546875">
        <ele>1898.5999755859375</ele>
        <time>2026-06-20T06:44:06.000Z</time>
        <extensions>
          <ns3:TrackPointExtension>
            <ns3:atemp>21.0</ns3:atemp>
          </ns3:TrackPointExtension>
        </extensions>
      </trkpt>
      <trkpt lat="42.5443918816745281219482421875" lon="20.11823954991996288299560546875">
        <ele>1898.5999755859375</ele>
        <time>2026-06-20T06:44:07.000Z</time>
        <extensions>
          <ns3:TrackPointExtension>
            <ns3:atemp>21.0</ns3:atemp>
          </ns3:TrackPointExtension>
        </extensions>
      </trkpt>
      <trkpt lat="42.5443918816745281219482421875" lon="20.11823954991996288299560546875">
        <ele>1898.5999755859375</ele>
        <time>2026-06-20T06:44:08.000Z</time>
        <extensions>
          <ns3:TrackPointExtension>
            <ns3:atemp>21.0</ns3:atemp>
          </ns3:TrackPointExtension>
        </extensions>
      </trkpt>
      <trkpt lat="42.5443918816745281219482421875" lon="20.11823954991996288299560546875">
        <ele>1898.5999755859375</ele>
        <time>2026-06-20T06:44:09.000Z</time>
        <extensions>
          <ns3:TrackPointExtension>
            <ns3:atemp>21.0</ns3:atemp>
          </ns3:TrackPointExtension>
        </extensions>
      </trkpt>
      <trkpt lat="42.5443918816745281219482421875" lon="20.11823954991996288299560546875">
        <ele>1898.5999755859375</ele>
        <time>2026-06-20T06:44:10.000Z</time>
        <extensions>
          <ns3:TrackPointExtension>
            <ns3:atemp>21.0</ns3:atemp>
          </ns3:TrackPointExtension>
        </extensions>
      </trkpt>
      <trkpt lat="42.5443918816745281219482421875" lon="20.11823954991996288299560546875">
        <ele>1898.5999755859375</ele>
        <time>2026-06-20T06:44:11.000Z</time>
        <extensions>
          <ns3:TrackPointExtension>
            <ns3:atemp>21.0</ns3:atemp>
          </ns3:TrackPointExtension>
        </extensions>
      </trkpt>
      <trkpt lat="42.5443918816745281219482421875" lon="20.11823954991996288299560546875">
        <ele>1898.5999755859375</ele>
        <time>2026-06-20T06:44:12.000Z</time>
        <extensions>
          <ns3:TrackPointExtension>
            <ns3:atemp>21.0</ns3:atemp>
          </ns3:TrackPointExtension>
        </extensions>
      </trkpt>
      <trkpt lat="42.5443918816745281219482421875" lon="20.11823954991996288299560546875">
        <ele>1898.5999755859375</ele>
        <time>2026-06-20T06:44:13.000Z</time>
        <extensions>
          <ns3:TrackPointExtension>
            <ns3:atemp>21.0</ns3:atemp>
          </ns3:TrackPointExtension>
        </extensions>
      </trkpt>
      <trkpt lat="42.5443918816745281219482421875" lon="20.11823954991996288299560546875">
        <ele>1898.5999755859375</ele>
        <time>2026-06-20T06:44:14.000Z</time>
        <extensions>
          <ns3:TrackPointExtension>
            <ns3:atemp>21.0</ns3:atemp>
          </ns3:TrackPointExtension>
        </extensions>
      </trkpt>
      <trkpt lat="42.5443918816745281219482421875" lon="20.11823954991996288299560546875">
        <ele>1898.5999755859375</ele>
        <time>2026-06-20T06:44:15.000Z</time>
        <extensions>
          <ns3:TrackPointExtension>
            <ns3:atemp>21.0</ns3:atemp>
          </ns3:TrackPointExtension>
        </extensions>
      </trkpt>
      <trkpt lat="42.5443918816745281219482421875" lon="20.11823954991996288299560546875">
        <ele>1898.5999755859375</ele>
        <time>2026-06-20T06:44:16.000Z</time>
        <extensions>
          <ns3:TrackPointExtension>
            <ns3:atemp>21.0</ns3:atemp>
          </ns3:TrackPointExtension>
        </extensions>
      </trkpt>
      <trkpt lat="42.5443918816745281219482421875" lon="20.11823954991996288299560546875">
        <ele>1898.5999755859375</ele>
        <time>2026-06-20T06:44:17.000Z</time>
        <extensions>
          <ns3:TrackPointExtension>
            <ns3:atemp>21.0</ns3:atemp>
          </ns3:TrackPointExtension>
        </extensions>
      </trkpt>
      <trkpt lat="42.5443918816745281219482421875" lon="20.11823954991996288299560546875">
        <ele>1898.5999755859375</ele>
        <time>2026-06-20T06:44:18.000Z</time>
        <extensions>
          <ns3:TrackPointExtension>
            <ns3:atemp>21.0</ns3:atemp>
          </ns3:TrackPointExtension>
        </extensions>
      </trkpt>
      <trkpt lat="42.5443918816745281219482421875" lon="20.11823954991996288299560546875">
        <ele>1898.5999755859375</ele>
        <time>2026-06-20T06:44:19.000Z</time>
        <extensions>
          <ns3:TrackPointExtension>
            <ns3:atemp>21.0</ns3:atemp>
          </ns3:TrackPointExtension>
        </extensions>
      </trkpt>
      <trkpt lat="42.5443918816745281219482421875" lon="20.11823954991996288299560546875">
        <ele>1898.5999755859375</ele>
        <time>2026-06-20T06:44:20.000Z</time>
        <extensions>
          <ns3:TrackPointExtension>
            <ns3:atemp>21.0</ns3:atemp>
          </ns3:TrackPointExtension>
        </extensions>
      </trkpt>
      <trkpt lat="42.5443918816745281219482421875" lon="20.11823954991996288299560546875">
        <ele>1898.5999755859375</ele>
        <time>2026-06-20T06:44:21.000Z</time>
        <extensions>
          <ns3:TrackPointExtension>
            <ns3:atemp>21.0</ns3:atemp>
          </ns3:TrackPointExtension>
        </extensions>
      </trkpt>
      <trkpt lat="42.5443918816745281219482421875" lon="20.11823954991996288299560546875">
        <ele>1898.5999755859375</ele>
        <time>2026-06-20T06:44:22.000Z</time>
        <extensions>
          <ns3:TrackPointExtension>
            <ns3:atemp>21.0</ns3:atemp>
          </ns3:TrackPointExtension>
        </extensions>
      </trkpt>
      <trkpt lat="42.5443918816745281219482421875" lon="20.11823954991996288299560546875">
        <ele>1898.5999755859375</ele>
        <time>2026-06-20T06:44:23.000Z</time>
        <extensions>
          <ns3:TrackPointExtension>
            <ns3:atemp>21.0</ns3:atemp>
          </ns3:TrackPointExtension>
        </extensions>
      </trkpt>
      <trkpt lat="42.5443918816745281219482421875" lon="20.11823954991996288299560546875">
        <ele>1898.5999755859375</ele>
        <time>2026-06-20T06:44:24.000Z</time>
        <extensions>
          <ns3:TrackPointExtension>
            <ns3:atemp>21.0</ns3:atemp>
          </ns3:TrackPointExtension>
        </extensions>
      </trkpt>
      <trkpt lat="42.5443918816745281219482421875" lon="20.11823954991996288299560546875">
        <ele>1898.5999755859375</ele>
        <time>2026-06-20T06:44:25.000Z</time>
        <extensions>
          <ns3:TrackPointExtension>
            <ns3:atemp>21.0</ns3:atemp>
          </ns3:TrackPointExtension>
        </extensions>
      </trkpt>
      <trkpt lat="42.5443918816745281219482421875" lon="20.11823954991996288299560546875">
        <ele>1898.5999755859375</ele>
        <time>2026-06-20T06:44:26.000Z</time>
        <extensions>
          <ns3:TrackPointExtension>
            <ns3:atemp>21.0</ns3:atemp>
          </ns3:TrackPointExtension>
        </extensions>
      </trkpt>
      <trkpt lat="42.5443918816745281219482421875" lon="20.11823954991996288299560546875">
        <ele>1898.5999755859375</ele>
        <time>2026-06-20T06:44:27.000Z</time>
        <extensions>
          <ns3:TrackPointExtension>
            <ns3:atemp>21.0</ns3:atemp>
          </ns3:TrackPointExtension>
        </extensions>
      </trkpt>
      <trkpt lat="42.5443918816745281219482421875" lon="20.11823954991996288299560546875">
        <ele>1898.5999755859375</ele>
        <time>2026-06-20T06:44:28.000Z</time>
        <extensions>
          <ns3:TrackPointExtension>
            <ns3:atemp>21.0</ns3:atemp>
          </ns3:TrackPointExtension>
        </extensions>
      </trkpt>
      <trkpt lat="42.5443918816745281219482421875" lon="20.11823954991996288299560546875">
        <ele>1898.5999755859375</ele>
        <time>2026-06-20T06:44:29.000Z</time>
        <extensions>
          <ns3:TrackPointExtension>
            <ns3:atemp>21.0</ns3:atemp>
          </ns3:TrackPointExtension>
        </extensions>
      </trkpt>
      <trkpt lat="42.5443918816745281219482421875" lon="20.11823954991996288299560546875">
        <ele>1898.800048828125</ele>
        <time>2026-06-20T06:44:30.000Z</time>
        <extensions>
          <ns3:TrackPointExtension>
            <ns3:atemp>21.0</ns3:atemp>
          </ns3:TrackPointExtension>
        </extensions>
      </trkpt>
      <trkpt lat="42.5443918816745281219482421875" lon="20.11823954991996288299560546875">
        <ele>1898.800048828125</ele>
        <time>2026-06-20T06:44:31.000Z</time>
        <extensions>
          <ns3:TrackPointExtension>
            <ns3:atemp>21.0</ns3:atemp>
          </ns3:TrackPointExtension>
        </extensions>
      </trkpt>
      <trkpt lat="42.5443918816745281219482421875" lon="20.11823954991996288299560546875">
        <ele>1898.800048828125</ele>
        <time>2026-06-20T06:44:32.000Z</time>
        <extensions>
          <ns3:TrackPointExtension>
            <ns3:atemp>21.0</ns3:atemp>
          </ns3:TrackPointExtension>
        </extensions>
      </trkpt>
      <trkpt lat="42.5443918816745281219482421875" lon="20.11823954991996288299560546875">
        <ele>1898.800048828125</ele>
        <time>2026-06-20T06:44:33.000Z</time>
        <extensions>
          <ns3:TrackPointExtension>
            <ns3:atemp>21.0</ns3:atemp>
          </ns3:TrackPointExtension>
        </extensions>
      </trkpt>
      <trkpt lat="42.5443918816745281219482421875" lon="20.11823954991996288299560546875">
        <ele>1898.800048828125</ele>
        <time>2026-06-20T06:44:34.000Z</time>
        <extensions>
          <ns3:TrackPointExtension>
            <ns3:atemp>21.0</ns3:atemp>
          </ns3:TrackPointExtension>
        </extensions>
      </trkpt>
      <trkpt lat="42.5443918816745281219482421875" lon="20.11823954991996288299560546875">
        <ele>1898.800048828125</ele>
        <time>2026-06-20T06:44:35.000Z</time>
        <extensions>
          <ns3:TrackPointExtension>
            <ns3:atemp>21.0</ns3:atemp>
          </ns3:TrackPointExtension>
        </extensions>
      </trkpt>
      <trkpt lat="42.5443918816745281219482421875" lon="20.11823954991996288299560546875">
        <ele>1898.800048828125</ele>
        <time>2026-06-20T06:44:36.000Z</time>
        <extensions>
          <ns3:TrackPointExtension>
            <ns3:atemp>21.0</ns3:atemp>
          </ns3:TrackPointExtension>
        </extensions>
      </trkpt>
      <trkpt lat="42.5443918816745281219482421875" lon="20.11823954991996288299560546875">
        <ele>1898.800048828125</ele>
        <time>2026-06-20T06:44:37.000Z</time>
        <extensions>
          <ns3:TrackPointExtension>
            <ns3:atemp>21.0</ns3:atemp>
          </ns3:TrackPointExtension>
        </extensions>
      </trkpt>
      <trkpt lat="42.5443918816745281219482421875" lon="20.11823954991996288299560546875">
        <ele>1898.800048828125</ele>
        <time>2026-06-20T06:44:38.000Z</time>
        <extensions>
          <ns3:TrackPointExtension>
            <ns3:atemp>21.0</ns3:atemp>
          </ns3:TrackPointExtension>
        </extensions>
      </trkpt>
      <trkpt lat="42.5443918816745281219482421875" lon="20.11823954991996288299560546875">
        <ele>1898.800048828125</ele>
        <time>2026-06-20T06:44:39.000Z</time>
        <extensions>
          <ns3:TrackPointExtension>
            <ns3:atemp>21.0</ns3:atemp>
          </ns3:TrackPointExtension>
        </extensions>
      </trkpt>
      <trkpt lat="42.5443918816745281219482421875" lon="20.11823954991996288299560546875">
        <ele>1898.800048828125</ele>
        <time>2026-06-20T06:44:40.000Z</time>
        <extensions>
          <ns3:TrackPointExtension>
            <ns3:atemp>21.0</ns3:atemp>
          </ns3:TrackPointExtension>
        </extensions>
      </trkpt>
      <trkpt lat="42.5443918816745281219482421875" lon="20.11823954991996288299560546875">
        <ele>1898.800048828125</ele>
        <time>2026-06-20T06:44:41.000Z</time>
        <extensions>
          <ns3:TrackPointExtension>
            <ns3:atemp>21.0</ns3:atemp>
          </ns3:TrackPointExtension>
        </extensions>
      </trkpt>
      <trkpt lat="42.5443918816745281219482421875" lon="20.11823954991996288299560546875">
        <ele>1898.800048828125</ele>
        <time>2026-06-20T06:44:42.000Z</time>
        <extensions>
          <ns3:TrackPointExtension>
            <ns3:atemp>21.0</ns3:atemp>
          </ns3:TrackPointExtension>
        </extensions>
      </trkpt>
      <trkpt lat="42.5443918816745281219482421875" lon="20.11823954991996288299560546875">
        <ele>1898.800048828125</ele>
        <time>2026-06-20T06:44:43.000Z</time>
        <extensions>
          <ns3:TrackPointExtension>
            <ns3:atemp>21.0</ns3:atemp>
          </ns3:TrackPointExtension>
        </extensions>
      </trkpt>
      <trkpt lat="42.5443918816745281219482421875" lon="20.11823954991996288299560546875">
        <ele>1898.800048828125</ele>
        <time>2026-06-20T06:44:44.000Z</time>
        <extensions>
          <ns3:TrackPointExtension>
            <ns3:atemp>21.0</ns3:atemp>
          </ns3:TrackPointExtension>
        </extensions>
      </trkpt>
      <trkpt lat="42.5443918816745281219482421875" lon="20.11823954991996288299560546875">
        <ele>1898.800048828125</ele>
        <time>2026-06-20T06:44:45.000Z</time>
        <extensions>
          <ns3:TrackPointExtension>
            <ns3:atemp>21.0</ns3:atemp>
          </ns3:TrackPointExtension>
        </extensions>
      </trkpt>
      <trkpt lat="42.5443918816745281219482421875" lon="20.11823954991996288299560546875">
        <ele>1898.800048828125</ele>
        <time>2026-06-20T06:44:46.000Z</time>
        <extensions>
          <ns3:TrackPointExtension>
            <ns3:atemp>21.0</ns3:atemp>
          </ns3:TrackPointExtension>
        </extensions>
      </trkpt>
      <trkpt lat="42.5443918816745281219482421875" lon="20.11823954991996288299560546875">
        <ele>1898.800048828125</ele>
        <time>2026-06-20T06:44:47.000Z</time>
        <extensions>
          <ns3:TrackPointExtension>
            <ns3:atemp>21.0</ns3:atemp>
          </ns3:TrackPointExtension>
        </extensions>
      </trkpt>
      <trkpt lat="42.5443918816745281219482421875" lon="20.11823954991996288299560546875">
        <ele>1898.800048828125</ele>
        <time>2026-06-20T06:44:48.000Z</time>
        <extensions>
          <ns3:TrackPointExtension>
            <ns3:atemp>21.0</ns3:atemp>
          </ns3:TrackPointExtension>
        </extensions>
      </trkpt>
      <trkpt lat="42.5443918816745281219482421875" lon="20.11823954991996288299560546875">
        <ele>1898.800048828125</ele>
        <time>2026-06-20T06:44:49.000Z</time>
        <extensions>
          <ns3:TrackPointExtension>
            <ns3:atemp>21.0</ns3:atemp>
          </ns3:TrackPointExtension>
        </extensions>
      </trkpt>
      <trkpt lat="42.5443918816745281219482421875" lon="20.11823954991996288299560546875">
        <ele>1898.800048828125</ele>
        <time>2026-06-20T06:44:50.000Z</time>
        <extensions>
          <ns3:TrackPointExtension>
            <ns3:atemp>21.0</ns3:atemp>
          </ns3:TrackPointExtension>
        </extensions>
      </trkpt>
      <trkpt lat="42.5443918816745281219482421875" lon="20.11823954991996288299560546875">
        <ele>1898.800048828125</ele>
        <time>2026-06-20T06:44:51.000Z</time>
        <extensions>
          <ns3:TrackPointExtension>
            <ns3:atemp>21.0</ns3:atemp>
          </ns3:TrackPointExtension>
        </extensions>
      </trkpt>
      <trkpt lat="42.5443918816745281219482421875" lon="20.11823954991996288299560546875">
        <ele>1898.800048828125</ele>
        <time>2026-06-20T06:44:52.000Z</time>
        <extensions>
          <ns3:TrackPointExtension>
            <ns3:atemp>21.0</ns3:atemp>
          </ns3:TrackPointExtension>
        </extensions>
      </trkpt>
      <trkpt lat="42.5443918816745281219482421875" lon="20.11823954991996288299560546875">
        <ele>1898.800048828125</ele>
        <time>2026-06-20T06:44:53.000Z</time>
        <extensions>
          <ns3:TrackPointExtension>
            <ns3:atemp>21.0</ns3:atemp>
          </ns3:TrackPointExtension>
        </extensions>
      </trkpt>
      <trkpt lat="42.5443918816745281219482421875" lon="20.11823954991996288299560546875">
        <ele>1898.800048828125</ele>
        <time>2026-06-20T06:44:54.000Z</time>
        <extensions>
          <ns3:TrackPointExtension>
            <ns3:atemp>21.0</ns3:atemp>
          </ns3:TrackPointExtension>
        </extensions>
      </trkpt>
      <trkpt lat="42.5443918816745281219482421875" lon="20.11823954991996288299560546875">
        <ele>1898.800048828125</ele>
        <time>2026-06-20T06:44:55.000Z</time>
        <extensions>
          <ns3:TrackPointExtension>
            <ns3:atemp>21.0</ns3:atemp>
          </ns3:TrackPointExtension>
        </extensions>
      </trkpt>
      <trkpt lat="42.5443918816745281219482421875" lon="20.11823954991996288299560546875">
        <ele>1898.800048828125</ele>
        <time>2026-06-20T06:44:56.000Z</time>
        <extensions>
          <ns3:TrackPointExtension>
            <ns3:atemp>21.0</ns3:atemp>
          </ns3:TrackPointExtension>
        </extensions>
      </trkpt>
      <trkpt lat="42.5443918816745281219482421875" lon="20.11823954991996288299560546875">
        <ele>1898.800048828125</ele>
        <time>2026-06-20T06:44:57.000Z</time>
        <extensions>
          <ns3:TrackPointExtension>
            <ns3:atemp>21.0</ns3:atemp>
          </ns3:TrackPointExtension>
        </extensions>
      </trkpt>
      <trkpt lat="42.5443918816745281219482421875" lon="20.11823954991996288299560546875">
        <ele>1898.800048828125</ele>
        <time>2026-06-20T06:44:58.000Z</time>
        <extensions>
          <ns3:TrackPointExtension>
            <ns3:atemp>21.0</ns3:atemp>
          </ns3:TrackPointExtension>
        </extensions>
      </trkpt>
      <trkpt lat="42.5443918816745281219482421875" lon="20.11823954991996288299560546875">
        <ele>1898.800048828125</ele>
        <time>2026-06-20T06:44:59.000Z</time>
        <extensions>
          <ns3:TrackPointExtension>
            <ns3:atemp>21.0</ns3:atemp>
          </ns3:TrackPointExtension>
        </extensions>
      </trkpt>
      <trkpt lat="42.5443918816745281219482421875" lon="20.11823954991996288299560546875">
        <ele>1898.800048828125</ele>
        <time>2026-06-20T06:45:00.000Z</time>
        <extensions>
          <ns3:TrackPointExtension>
            <ns3:atemp>21.0</ns3:atemp>
          </ns3:TrackPointExtension>
        </extensions>
      </trkpt>
      <trkpt lat="42.5443918816745281219482421875" lon="20.11823954991996288299560546875">
        <ele>1898.800048828125</ele>
        <time>2026-06-20T06:45:01.000Z</time>
        <extensions>
          <ns3:TrackPointExtension>
            <ns3:atemp>21.0</ns3:atemp>
          </ns3:TrackPointExtension>
        </extensions>
      </trkpt>
      <trkpt lat="42.5443918816745281219482421875" lon="20.11823954991996288299560546875">
        <ele>1898.800048828125</ele>
        <time>2026-06-20T06:45:02.000Z</time>
        <extensions>
          <ns3:TrackPointExtension>
            <ns3:atemp>21.0</ns3:atemp>
          </ns3:TrackPointExtension>
        </extensions>
      </trkpt>
      <trkpt lat="42.5443918816745281219482421875" lon="20.11823954991996288299560546875">
        <ele>1898.800048828125</ele>
        <time>2026-06-20T06:45:03.000Z</time>
        <extensions>
          <ns3:TrackPointExtension>
            <ns3:atemp>21.0</ns3:atemp>
          </ns3:TrackPointExtension>
        </extensions>
      </trkpt>
      <trkpt lat="42.5443918816745281219482421875" lon="20.11823954991996288299560546875">
        <ele>1898.800048828125</ele>
        <time>2026-06-20T06:45:04.000Z</time>
        <extensions>
          <ns3:TrackPointExtension>
            <ns3:atemp>21.0</ns3:atemp>
          </ns3:TrackPointExtension>
        </extensions>
      </trkpt>
      <trkpt lat="42.5443918816745281219482421875" lon="20.11823954991996288299560546875">
        <ele>1898.800048828125</ele>
        <time>2026-06-20T06:45:05.000Z</time>
        <extensions>
          <ns3:TrackPointExtension>
            <ns3:atemp>21.0</ns3:atemp>
          </ns3:TrackPointExtension>
        </extensions>
      </trkpt>
      <trkpt lat="42.5443918816745281219482421875" lon="20.11823954991996288299560546875">
        <ele>1898.800048828125</ele>
        <time>2026-06-20T06:45:06.000Z</time>
        <extensions>
          <ns3:TrackPointExtension>
            <ns3:atemp>21.0</ns3:atemp>
          </ns3:TrackPointExtension>
        </extensions>
      </trkpt>
      <trkpt lat="42.5443918816745281219482421875" lon="20.11823954991996288299560546875">
        <ele>1898.800048828125</ele>
        <time>2026-06-20T06:45:07.000Z</time>
        <extensions>
          <ns3:TrackPointExtension>
            <ns3:atemp>21.0</ns3:atemp>
          </ns3:TrackPointExtension>
        </extensions>
      </trkpt>
      <trkpt lat="42.5443918816745281219482421875" lon="20.11823954991996288299560546875">
        <ele>1898.800048828125</ele>
        <time>2026-06-20T06:45:08.000Z</time>
        <extensions>
          <ns3:TrackPointExtension>
            <ns3:atemp>21.0</ns3:atemp>
          </ns3:TrackPointExtension>
        </extensions>
      </trkpt>
      <trkpt lat="42.5443918816745281219482421875" lon="20.11823954991996288299560546875">
        <ele>1898.800048828125</ele>
        <time>2026-06-20T06:45:09.000Z</time>
        <extensions>
          <ns3:TrackPointExtension>
            <ns3:atemp>21.0</ns3:atemp>
          </ns3:TrackPointExtension>
        </extensions>
      </trkpt>
      <trkpt lat="42.5443918816745281219482421875" lon="20.11823954991996288299560546875">
        <ele>1898.800048828125</ele>
        <time>2026-06-20T06:45:10.000Z</time>
        <extensions>
          <ns3:TrackPointExtension>
            <ns3:atemp>21.0</ns3:atemp>
          </ns3:TrackPointExtension>
        </extensions>
      </trkpt>
      <trkpt lat="42.5443918816745281219482421875" lon="20.11823954991996288299560546875">
        <ele>1898.800048828125</ele>
        <time>2026-06-20T06:45:11.000Z</time>
        <extensions>
          <ns3:TrackPointExtension>
            <ns3:atemp>21.0</ns3:atemp>
          </ns3:TrackPointExtension>
        </extensions>
      </trkpt>
      <trkpt lat="42.5443918816745281219482421875" lon="20.11823954991996288299560546875">
        <ele>1898.800048828125</ele>
        <time>2026-06-20T06:45:12.000Z</time>
        <extensions>
          <ns3:TrackPointExtension>
            <ns3:atemp>21.0</ns3:atemp>
          </ns3:TrackPointExtension>
        </extensions>
      </trkpt>
      <trkpt lat="42.5443918816745281219482421875" lon="20.11823954991996288299560546875">
        <ele>1898.800048828125</ele>
        <time>2026-06-20T06:45:13.000Z</time>
        <extensions>
          <ns3:TrackPointExtension>
            <ns3:atemp>21.0</ns3:atemp>
          </ns3:TrackPointExtension>
        </extensions>
      </trkpt>
      <trkpt lat="42.5443918816745281219482421875" lon="20.11823954991996288299560546875">
        <ele>1898.800048828125</ele>
        <time>2026-06-20T06:45:14.000Z</time>
        <extensions>
          <ns3:TrackPointExtension>
            <ns3:atemp>21.0</ns3:atemp>
          </ns3:TrackPointExtension>
        </extensions>
      </trkpt>
      <trkpt lat="42.5443918816745281219482421875" lon="20.11823954991996288299560546875">
        <ele>1898.800048828125</ele>
        <time>2026-06-20T06:45:15.000Z</time>
        <extensions>
          <ns3:TrackPointExtension>
            <ns3:atemp>21.0</ns3:atemp>
          </ns3:TrackPointExtension>
        </extensions>
      </trkpt>
      <trkpt lat="42.5443918816745281219482421875" lon="20.11823954991996288299560546875">
        <ele>1898.800048828125</ele>
        <time>2026-06-20T06:45:16.000Z</time>
        <extensions>
          <ns3:TrackPointExtension>
            <ns3:atemp>21.0</ns3:atemp>
          </ns3:TrackPointExtension>
        </extensions>
      </trkpt>
      <trkpt lat="42.5443918816745281219482421875" lon="20.11823954991996288299560546875">
        <ele>1898.800048828125</ele>
        <time>2026-06-20T06:45:17.000Z</time>
        <extensions>
          <ns3:TrackPointExtension>
            <ns3:atemp>21.0</ns3:atemp>
          </ns3:TrackPointExtension>
        </extensions>
      </trkpt>
      <trkpt lat="42.5443918816745281219482421875" lon="20.11823954991996288299560546875">
        <ele>1898.800048828125</ele>
        <time>2026-06-20T06:45:18.000Z</time>
        <extensions>
          <ns3:TrackPointExtension>
            <ns3:atemp>21.0</ns3:atemp>
          </ns3:TrackPointExtension>
        </extensions>
      </trkpt>
      <trkpt lat="42.5443918816745281219482421875" lon="20.11823954991996288299560546875">
        <ele>1898.800048828125</ele>
        <time>2026-06-20T06:45:19.000Z</time>
        <extensions>
          <ns3:TrackPointExtension>
            <ns3:atemp>21.0</ns3:atemp>
          </ns3:TrackPointExtension>
        </extensions>
      </trkpt>
      <trkpt lat="42.5443918816745281219482421875" lon="20.11823954991996288299560546875">
        <ele>1898.800048828125</ele>
        <time>2026-06-20T06:45:20.000Z</time>
        <extensions>
          <ns3:TrackPointExtension>
            <ns3:atemp>21.0</ns3:atemp>
          </ns3:TrackPointExtension>
        </extensions>
      </trkpt>
      <trkpt lat="42.5443918816745281219482421875" lon="20.11823954991996288299560546875">
        <ele>1898.800048828125</ele>
        <time>2026-06-20T06:45:21.000Z</time>
        <extensions>
          <ns3:TrackPointExtension>
            <ns3:atemp>21.0</ns3:atemp>
          </ns3:TrackPointExtension>
        </extensions>
      </trkpt>
      <trkpt lat="42.5443918816745281219482421875" lon="20.11823954991996288299560546875">
        <ele>1898.800048828125</ele>
        <time>2026-06-20T06:45:22.000Z</time>
        <extensions>
          <ns3:TrackPointExtension>
            <ns3:atemp>21.0</ns3:atemp>
          </ns3:TrackPointExtension>
        </extensions>
      </trkpt>
      <trkpt lat="42.5443918816745281219482421875" lon="20.11823954991996288299560546875">
        <ele>1898.800048828125</ele>
        <time>2026-06-20T06:45:23.000Z</time>
        <extensions>
          <ns3:TrackPointExtension>
            <ns3:atemp>21.0</ns3:atemp>
          </ns3:TrackPointExtension>
        </extensions>
      </trkpt>
      <trkpt lat="42.5443918816745281219482421875" lon="20.11823954991996288299560546875">
        <ele>1898.800048828125</ele>
        <time>2026-06-20T06:45:24.000Z</time>
        <extensions>
          <ns3:TrackPointExtension>
            <ns3:atemp>21.0</ns3:atemp>
          </ns3:TrackPointExtension>
        </extensions>
      </trkpt>
      <trkpt lat="42.5443918816745281219482421875" lon="20.11823954991996288299560546875">
        <ele>1898.800048828125</ele>
        <time>2026-06-20T06:45:25.000Z</time>
        <extensions>
          <ns3:TrackPointExtension>
            <ns3:atemp>21.0</ns3:atemp>
          </ns3:TrackPointExtension>
        </extensions>
      </trkpt>
      <trkpt lat="42.5443918816745281219482421875" lon="20.11823954991996288299560546875">
        <ele>1898.800048828125</ele>
        <time>2026-06-20T06:45:26.000Z</time>
        <extensions>
          <ns3:TrackPointExtension>
            <ns3:atemp>21.0</ns3:atemp>
          </ns3:TrackPointExtension>
        </extensions>
      </trkpt>
      <trkpt lat="42.5443918816745281219482421875" lon="20.11823954991996288299560546875">
        <ele>1898.800048828125</ele>
        <time>2026-06-20T06:45:27.000Z</time>
        <extensions>
          <ns3:TrackPointExtension>
            <ns3:atemp>21.0</ns3:atemp>
          </ns3:TrackPointExtension>
        </extensions>
      </trkpt>
      <trkpt lat="42.5443918816745281219482421875" lon="20.11823954991996288299560546875">
        <ele>1898.800048828125</ele>
        <time>2026-06-20T06:45:28.000Z</time>
        <extensions>
          <ns3:TrackPointExtension>
            <ns3:atemp>22.0</ns3:atemp>
          </ns3:TrackPointExtension>
        </extensions>
      </trkpt>
      <trkpt lat="42.5443918816745281219482421875" lon="20.11823954991996288299560546875">
        <ele>1898.800048828125</ele>
        <time>2026-06-20T06:45:29.000Z</time>
        <extensions>
          <ns3:TrackPointExtension>
            <ns3:atemp>22.0</ns3:atemp>
          </ns3:TrackPointExtension>
        </extensions>
      </trkpt>
      <trkpt lat="42.5443918816745281219482421875" lon="20.11823954991996288299560546875">
        <ele>1898.800048828125</ele>
        <time>2026-06-20T06:45:30.000Z</time>
        <extensions>
          <ns3:TrackPointExtension>
            <ns3:atemp>22.0</ns3:atemp>
          </ns3:TrackPointExtension>
        </extensions>
      </trkpt>
      <trkpt lat="42.5443918816745281219482421875" lon="20.11823954991996288299560546875">
        <ele>1898.800048828125</ele>
        <time>2026-06-20T06:45:31.000Z</time>
        <extensions>
          <ns3:TrackPointExtension>
            <ns3:atemp>22.0</ns3:atemp>
          </ns3:TrackPointExtension>
        </extensions>
      </trkpt>
      <trkpt lat="42.5443918816745281219482421875" lon="20.11823954991996288299560546875">
        <ele>1898.800048828125</ele>
        <time>2026-06-20T06:45:32.000Z</time>
        <extensions>
          <ns3:TrackPointExtension>
            <ns3:atemp>22.0</ns3:atemp>
          </ns3:TrackPointExtension>
        </extensions>
      </trkpt>
      <trkpt lat="42.5443918816745281219482421875" lon="20.11823954991996288299560546875">
        <ele>1898.800048828125</ele>
        <time>2026-06-20T06:45:33.000Z</time>
        <extensions>
          <ns3:TrackPointExtension>
            <ns3:atemp>22.0</ns3:atemp>
          </ns3:TrackPointExtension>
        </extensions>
      </trkpt>
      <trkpt lat="42.54439540207386016845703125" lon="20.11823904700577259063720703125">
        <ele>1898.800048828125</ele>
        <time>2026-06-20T06:45:34.000Z</time>
        <extensions>
          <ns3:TrackPointExtension>
            <ns3:atemp>22.0</ns3:atemp>
          </ns3:TrackPointExtension>
        </extensions>
      </trkpt>
      <trkpt lat="42.544397078454494476318359375" lon="20.1182351075112819671630859375">
        <ele>1898.800048828125</ele>
        <time>2026-06-20T06:45:35.000Z</time>
        <extensions>
          <ns3:TrackPointExtension>
            <ns3:atemp>22.0</ns3:atemp>
          </ns3:TrackPointExtension>
        </extensions>
      </trkpt>
      <trkpt lat="42.54440168850123882293701171875" lon="20.1182404719293117523193359375">
        <ele>1898.800048828125</ele>
        <time>2026-06-20T06:45:36.000Z</time>
        <extensions>
          <ns3:TrackPointExtension>
            <ns3:atemp>22.0</ns3:atemp>
          </ns3:TrackPointExtension>
        </extensions>
      </trkpt>
      <trkpt lat="42.5444014370441436767578125" lon="20.118253715336322784423828125">
        <ele>1898.800048828125</ele>
        <time>2026-06-20T06:45:37.000Z</time>
        <extensions>
          <ns3:TrackPointExtension>
            <ns3:atemp>22.0</ns3:atemp>
          </ns3:TrackPointExtension>
        </extensions>
      </trkpt>
      <trkpt lat="42.54439950920641422271728515625" lon="20.11827391572296619415283203125">
        <ele>1898.5999755859375</ele>
        <time>2026-06-20T06:45:38.000Z</time>
        <extensions>
          <ns3:TrackPointExtension>
            <ns3:atemp>22.0</ns3:atemp>
          </ns3:TrackPointExtension>
        </extensions>
      </trkpt>
      <trkpt lat="42.54439582116901874542236328125" lon="20.11828112415969371795654296875">
        <ele>1898.800048828125</ele>
        <time>2026-06-20T06:45:39.000Z</time>
        <extensions>
          <ns3:TrackPointExtension>
            <ns3:atemp>22.0</ns3:atemp>
          </ns3:TrackPointExtension>
        </extensions>
      </trkpt>
      <trkpt lat="42.5443947315216064453125" lon="20.11828757822513580322265625">
        <ele>1899</ele>
        <time>2026-06-20T06:45:40.000Z</time>
        <extensions>
          <ns3:TrackPointExtension>
            <ns3:atemp>22.0</ns3:atemp>
          </ns3:TrackPointExtension>
        </extensions>
      </trkpt>
      <trkpt lat="42.5443947315216064453125" lon="20.1182877458631992340087890625">
        <ele>1899.4000244140625</ele>
        <time>2026-06-20T06:45:41.000Z</time>
        <extensions>
          <ns3:TrackPointExtension>
            <ns3:atemp>22.0</ns3:atemp>
          </ns3:TrackPointExtension>
        </extensions>
      </trkpt>
      <trkpt lat="42.54439464770257472991943359375" lon="20.1182880811393260955810546875">
        <ele>1899.800048828125</ele>
        <time>2026-06-20T06:45:42.000Z</time>
        <extensions>
          <ns3:TrackPointExtension>
            <ns3:atemp>22.0</ns3:atemp>
          </ns3:TrackPointExtension>
        </extensions>
      </trkpt>
      <trkpt lat="42.54438794218003749847412109375" lon="20.1183085329830646514892578125">
        <ele>1900.199951171875</ele>
        <time>2026-06-20T06:45:43.000Z</time>
        <extensions>
          <ns3:TrackPointExtension>
            <ns3:atemp>22.0</ns3:atemp>
          </ns3:TrackPointExtension>
        </extensions>
      </trkpt>
      <trkpt lat="42.54438257776200771331787109375" lon="20.11832403950393199920654296875">
        <ele>1900.4000244140625</ele>
        <time>2026-06-20T06:45:44.000Z</time>
        <extensions>
          <ns3:TrackPointExtension>
            <ns3:atemp>22.0</ns3:atemp>
          </ns3:TrackPointExtension>
        </extensions>
      </trkpt>
      <trkpt lat="42.54437930881977081298828125" lon="20.11833191849291324615478515625">
        <ele>1900.5999755859375</ele>
        <time>2026-06-20T06:45:45.000Z</time>
        <extensions>
          <ns3:TrackPointExtension>
            <ns3:atemp>22.0</ns3:atemp>
          </ns3:TrackPointExtension>
        </extensions>
      </trkpt>
      <trkpt lat="42.5443804822862148284912109375" lon="20.11833510361611843109130859375">
        <ele>1901</ele>
        <time>2026-06-20T06:45:46.000Z</time>
        <extensions>
          <ns3:TrackPointExtension>
            <ns3:atemp>22.0</ns3:atemp>
          </ns3:TrackPointExtension>
        </extensions>
      </trkpt>
      <trkpt lat="42.54438006319105625152587890625" lon="20.11833342723548412322998046875">
        <ele>1901.4000244140625</ele>
        <time>2026-06-20T06:45:47.000Z</time>
        <extensions>
          <ns3:TrackPointExtension>
            <ns3:atemp>22.0</ns3:atemp>
          </ns3:TrackPointExtension>
        </extensions>
      </trkpt>
      <trkpt lat="42.5443799793720245361328125" lon="20.118333511054515838623046875">
        <ele>1901.800048828125</ele>
        <time>2026-06-20T06:45:48.000Z</time>
        <extensions>
          <ns3:TrackPointExtension>
            <ns3:atemp>22.0</ns3:atemp>
          </ns3:TrackPointExtension>
        </extensions>
      </trkpt>
      <trkpt lat="42.5443764589726924896240234375" lon="20.1183333434164524078369140625">
        <ele>1902.199951171875</ele>
        <time>2026-06-20T06:45:49.000Z</time>
        <extensions>
          <ns3:TrackPointExtension>
            <ns3:atemp>22.0</ns3:atemp>
          </ns3:TrackPointExtension>
        </extensions>
      </trkpt>
      <trkpt lat="42.5443764589726924896240234375" lon="20.1183333434164524078369140625">
        <ele>1902.4000244140625</ele>
        <time>2026-06-20T06:45:50.000Z</time>
        <extensions>
          <ns3:TrackPointExtension>
            <ns3:atemp>22.0</ns3:atemp>
          </ns3:TrackPointExtension>
        </extensions>
      </trkpt>
      <trkpt lat="42.5443764589726924896240234375" lon="20.1183333434164524078369140625">
        <ele>1902.5999755859375</ele>
        <time>2026-06-20T06:45:51.000Z</time>
        <extensions>
          <ns3:TrackPointExtension>
            <ns3:atemp>22.0</ns3:atemp>
          </ns3:TrackPointExtension>
        </extensions>
      </trkpt>
      <trkpt lat="42.5443764589726924896240234375" lon="20.1183338463306427001953125">
        <ele>1902.800048828125</ele>
        <time>2026-06-20T06:45:52.000Z</time>
        <extensions>
          <ns3:TrackPointExtension>
            <ns3:atemp>22.0</ns3:atemp>
          </ns3:TrackPointExtension>
        </extensions>
      </trkpt>
      <trkpt lat="42.54437930881977081298828125" lon="20.118344239890575408935546875">
        <ele>1902.800048828125</ele>
        <time>2026-06-20T06:45:53.000Z</time>
        <extensions>
          <ns3:TrackPointExtension>
            <ns3:atemp>22.0</ns3:atemp>
          </ns3:TrackPointExtension>
        </extensions>
      </trkpt>
      <trkpt lat="42.5443744473159313201904296875" lon="20.1183541305363178253173828125">
        <ele>1902.800048828125</ele>
        <time>2026-06-20T06:45:54.000Z</time>
        <extensions>
          <ns3:TrackPointExtension>
            <ns3:atemp>22.0</ns3:atemp>
          </ns3:TrackPointExtension>
        </extensions>
      </trkpt>
      <trkpt lat="42.54437369294464588165283203125" lon="20.118359662592411041259765625">
        <ele>1902.800048828125</ele>
        <time>2026-06-20T06:45:55.000Z</time>
        <extensions>
          <ns3:TrackPointExtension>
            <ns3:atemp>22.0</ns3:atemp>
          </ns3:TrackPointExtension>
        </extensions>
      </trkpt>
      <trkpt lat="42.544365227222442626953125" lon="20.118369050323963165283203125">
        <ele>1902.800048828125</ele>
        <time>2026-06-20T06:45:56.000Z</time>
        <extensions>
          <ns3:TrackPointExtension>
            <ns3:atemp>22.0</ns3:atemp>
          </ns3:TrackPointExtension>
        </extensions>
      </trkpt>
      <trkpt lat="42.544358856976032257080078125" lon="20.11837265454232692718505859375">
        <ele>1903</ele>
        <time>2026-06-20T06:45:57.000Z</time>
        <extensions>
          <ns3:TrackPointExtension>
            <ns3:atemp>22.0</ns3:atemp>
          </ns3:TrackPointExtension>
        </extensions>
      </trkpt>
      <trkpt lat="42.54435877315700054168701171875" lon="20.11837282218039035797119140625">
        <ele>1903.199951171875</ele>
        <time>2026-06-20T06:45:58.000Z</time>
        <extensions>
          <ns3:TrackPointExtension>
            <ns3:atemp>22.0</ns3:atemp>
          </ns3:TrackPointExtension>
        </extensions>
      </trkpt>
      <trkpt lat="42.5443586893379688262939453125" lon="20.1183729059994220733642578125">
        <ele>1903.199951171875</ele>
        <time>2026-06-20T06:45:59.000Z</time>
        <extensions>
          <ns3:TrackPointExtension>
            <ns3:atemp>22.0</ns3:atemp>
          </ns3:TrackPointExtension>
        </extensions>
      </trkpt>
      <trkpt lat="42.54435089416801929473876953125" lon="20.1183896698057651519775390625">
        <ele>1903.4000244140625</ele>
        <time>2026-06-20T06:46:00.000Z</time>
        <extensions>
          <ns3:TrackPointExtension>
            <ns3:atemp>22.0</ns3:atemp>
          </ns3:TrackPointExtension>
        </extensions>
      </trkpt>
      <trkpt lat="42.5443469546735286712646484375" lon="20.11840157210826873779296875">
        <ele>1903.5999755859375</ele>
        <time>2026-06-20T06:46:01.000Z</time>
        <extensions>
          <ns3:TrackPointExtension>
            <ns3:atemp>22.0</ns3:atemp>
          </ns3:TrackPointExtension>
        </extensions>
      </trkpt>
      <trkpt lat="42.5443419255316257476806640625" lon="20.11841498315334320068359375">
        <ele>1903.5999755859375</ele>
        <time>2026-06-20T06:46:02.000Z</time>
        <extensions>
          <ns3:TrackPointExtension>
            <ns3:atemp>22.0</ns3:atemp>
          </ns3:TrackPointExtension>
        </extensions>
      </trkpt>
      <trkpt lat="42.5443402491509914398193359375" lon="20.11842445470392704010009765625">
        <ele>1903.800048828125</ele>
        <time>2026-06-20T06:46:03.000Z</time>
        <extensions>
          <ns3:TrackPointExtension>
            <ns3:atemp>22.0</ns3:atemp>
          </ns3:TrackPointExtension>
        </extensions>
      </trkpt>
      <trkpt lat="42.54434117116034030914306640625" lon="20.11843116022646427154541015625">
        <ele>1904</ele>
        <time>2026-06-20T06:46:04.000Z</time>
        <extensions>
          <ns3:TrackPointExtension>
            <ns3:atemp>22.0</ns3:atemp>
          </ns3:TrackPointExtension>
        </extensions>
      </trkpt>
      <trkpt lat="42.5443449430167675018310546875" lon="20.11843903921544551849365234375">
        <ele>1904.199951171875</ele>
        <time>2026-06-20T06:46:05.000Z</time>
        <extensions>
          <ns3:TrackPointExtension>
            <ns3:atemp>22.0</ns3:atemp>
          </ns3:TrackPointExtension>
        </extensions>
      </trkpt>
      <trkpt lat="42.544345445930957794189453125" lon="20.118450187146663665771484375">
        <ele>1904.4000244140625</ele>
        <time>2026-06-20T06:46:06.000Z</time>
        <extensions>
          <ns3:TrackPointExtension>
            <ns3:atemp>22.0</ns3:atemp>
          </ns3:TrackPointExtension>
        </extensions>
      </trkpt>
      <trkpt lat="42.54433664493262767791748046875" lon="20.11844960041344165802001953125">
        <ele>1904.5999755859375</ele>
        <time>2026-06-20T06:46:07.000Z</time>
        <extensions>
          <ns3:TrackPointExtension>
            <ns3:atemp>22.0</ns3:atemp>
          </ns3:TrackPointExtension>
        </extensions>
      </trkpt>
      <trkpt lat="42.54433572292327880859375" lon="20.1184513606131076812744140625">
        <ele>1904.800048828125</ele>
        <time>2026-06-20T06:46:08.000Z</time>
        <extensions>
          <ns3:TrackPointExtension>
            <ns3:atemp>22.0</ns3:atemp>
          </ns3:TrackPointExtension>
        </extensions>
      </trkpt>
      <trkpt lat="42.54433572292327880859375" lon="20.11845127679407596588134765625">
        <ele>1905</ele>
        <time>2026-06-20T06:46:09.000Z</time>
        <extensions>
          <ns3:TrackPointExtension>
            <ns3:atemp>22.0</ns3:atemp>
          </ns3:TrackPointExtension>
        </extensions>
      </trkpt>
      <trkpt lat="42.54433572292327880859375" lon="20.11845127679407596588134765625">
        <ele>1905.199951171875</ele>
        <time>2026-06-20T06:46:10.000Z</time>
        <extensions>
          <ns3:TrackPointExtension>
            <ns3:atemp>22.0</ns3:atemp>
          </ns3:TrackPointExtension>
        </extensions>
      </trkpt>
      <trkpt lat="42.54433572292327880859375" lon="20.11845127679407596588134765625">
        <ele>1905.4000244140625</ele>
        <time>2026-06-20T06:46:11.000Z</time>
        <extensions>
          <ns3:TrackPointExtension>
            <ns3:atemp>22.0</ns3:atemp>
          </ns3:TrackPointExtension>
        </extensions>
      </trkpt>
      <trkpt lat="42.54433572292327880859375" lon="20.11845127679407596588134765625">
        <ele>1905.4000244140625</ele>
        <time>2026-06-20T06:46:12.000Z</time>
        <extensions>
          <ns3:TrackPointExtension>
            <ns3:atemp>22.0</ns3:atemp>
          </ns3:TrackPointExtension>
        </extensions>
      </trkpt>
      <trkpt lat="42.54433572292327880859375" lon="20.11845127679407596588134765625">
        <ele>1905.4000244140625</ele>
        <time>2026-06-20T06:46:13.000Z</time>
        <extensions>
          <ns3:TrackPointExtension>
            <ns3:atemp>22.0</ns3:atemp>
          </ns3:TrackPointExtension>
        </extensions>
      </trkpt>
      <trkpt lat="42.54433572292327880859375" lon="20.11845127679407596588134765625">
        <ele>1905.4000244140625</ele>
        <time>2026-06-20T06:46:14.000Z</time>
        <extensions>
          <ns3:TrackPointExtension>
            <ns3:atemp>22.0</ns3:atemp>
          </ns3:TrackPointExtension>
        </extensions>
      </trkpt>
      <trkpt lat="42.54433572292327880859375" lon="20.11845127679407596588134765625">
        <ele>1905.4000244140625</ele>
        <time>2026-06-20T06:46:15.000Z</time>
        <extensions>
          <ns3:TrackPointExtension>
            <ns3:atemp>22.0</ns3:atemp>
          </ns3:TrackPointExtension>
        </extensions>
      </trkpt>
      <trkpt lat="42.54433572292327880859375" lon="20.11845127679407596588134765625">
        <ele>1905.4000244140625</ele>
        <time>2026-06-20T06:46:16.000Z</time>
        <extensions>
          <ns3:TrackPointExtension>
            <ns3:atemp>22.0</ns3:atemp>
          </ns3:TrackPointExtension>
        </extensions>
      </trkpt>
      <trkpt lat="42.54433572292327880859375" lon="20.11845127679407596588134765625">
        <ele>1905.4000244140625</ele>
        <time>2026-06-20T06:46:17.000Z</time>
        <extensions>
          <ns3:TrackPointExtension>
            <ns3:atemp>22.0</ns3:atemp>
          </ns3:TrackPointExtension>
        </extensions>
      </trkpt>
      <trkpt lat="42.54433572292327880859375" lon="20.11845127679407596588134765625">
        <ele>1905.4000244140625</ele>
        <time>2026-06-20T06:46:18.000Z</time>
        <extensions>
          <ns3:TrackPointExtension>
            <ns3:atemp>22.0</ns3:atemp>
          </ns3:TrackPointExtension>
        </extensions>
      </trkpt>
      <trkpt lat="42.54433572292327880859375" lon="20.11845127679407596588134765625">
        <ele>1905.4000244140625</ele>
        <time>2026-06-20T06:46:19.000Z</time>
        <extensions>
          <ns3:TrackPointExtension>
            <ns3:atemp>22.0</ns3:atemp>
          </ns3:TrackPointExtension>
        </extensions>
      </trkpt>
      <trkpt lat="42.54433572292327880859375" lon="20.11845127679407596588134765625">
        <ele>1905.4000244140625</ele>
        <time>2026-06-20T06:46:20.000Z</time>
        <extensions>
          <ns3:TrackPointExtension>
            <ns3:atemp>22.0</ns3:atemp>
          </ns3:TrackPointExtension>
        </extensions>
      </trkpt>
      <trkpt lat="42.54433572292327880859375" lon="20.11845127679407596588134765625">
        <ele>1905.4000244140625</ele>
        <time>2026-06-20T06:46:21.000Z</time>
        <extensions>
          <ns3:TrackPointExtension>
            <ns3:atemp>22.0</ns3:atemp>
          </ns3:TrackPointExtension>
        </extensions>
      </trkpt>
      <trkpt lat="42.54433572292327880859375" lon="20.11845127679407596588134765625">
        <ele>1905.4000244140625</ele>
        <time>2026-06-20T06:46:22.000Z</time>
        <extensions>
          <ns3:TrackPointExtension>
            <ns3:atemp>22.0</ns3:atemp>
          </ns3:TrackPointExtension>
        </extensions>
      </trkpt>
      <trkpt lat="42.54433572292327880859375" lon="20.11845127679407596588134765625">
        <ele>1905.4000244140625</ele>
        <time>2026-06-20T06:46:23.000Z</time>
        <extensions>
          <ns3:TrackPointExtension>
            <ns3:atemp>22.0</ns3:atemp>
          </ns3:TrackPointExtension>
        </extensions>
      </trkpt>
      <trkpt lat="42.54433572292327880859375" lon="20.11845127679407596588134765625">
        <ele>1905.4000244140625</ele>
        <time>2026-06-20T06:46:24.000Z</time>
        <extensions>
          <ns3:TrackPointExtension>
            <ns3:atemp>22.0</ns3:atemp>
          </ns3:TrackPointExtension>
        </extensions>
      </trkpt>
      <trkpt lat="42.54433572292327880859375" lon="20.11845127679407596588134765625">
        <ele>1905.4000244140625</ele>
        <time>2026-06-20T06:46:25.000Z</time>
        <extensions>
          <ns3:TrackPointExtension>
            <ns3:atemp>22.0</ns3:atemp>
          </ns3:TrackPointExtension>
        </extensions>
      </trkpt>
      <trkpt lat="42.54433572292327880859375" lon="20.11845127679407596588134765625">
        <ele>1905.5999755859375</ele>
        <time>2026-06-20T06:46:26.000Z</time>
        <extensions>
          <ns3:TrackPointExtension>
            <ns3:atemp>22.0</ns3:atemp>
          </ns3:TrackPointExtension>
        </extensions>
      </trkpt>
      <trkpt lat="42.54433572292327880859375" lon="20.11845127679407596588134765625">
        <ele>1905.5999755859375</ele>
        <time>2026-06-20T06:46:27.000Z</time>
        <extensions>
          <ns3:TrackPointExtension>
            <ns3:atemp>22.0</ns3:atemp>
          </ns3:TrackPointExtension>
        </extensions>
      </trkpt>
      <trkpt lat="42.54433572292327880859375" lon="20.11845127679407596588134765625">
        <ele>1905.5999755859375</ele>
        <time>2026-06-20T06:46:28.000Z</time>
        <extensions>
          <ns3:TrackPointExtension>
            <ns3:atemp>22.0</ns3:atemp>
          </ns3:TrackPointExtension>
        </extensions>
      </trkpt>
      <trkpt lat="42.54433572292327880859375" lon="20.11845127679407596588134765625">
        <ele>1905.5999755859375</ele>
        <time>2026-06-20T06:46:29.000Z</time>
        <extensions>
          <ns3:TrackPointExtension>
            <ns3:atemp>22.0</ns3:atemp>
          </ns3:TrackPointExtension>
        </extensions>
      </trkpt>
      <trkpt lat="42.54433572292327880859375" lon="20.11845127679407596588134765625">
        <ele>1905.5999755859375</ele>
        <time>2026-06-20T06:46:30.000Z</time>
        <extensions>
          <ns3:TrackPointExtension>
            <ns3:atemp>22.0</ns3:atemp>
          </ns3:TrackPointExtension>
        </extensions>
      </trkpt>
      <trkpt lat="42.54433572292327880859375" lon="20.11845127679407596588134765625">
        <ele>1905.5999755859375</ele>
        <time>2026-06-20T06:46:31.000Z</time>
        <extensions>
          <ns3:TrackPointExtension>
            <ns3:atemp>22.0</ns3:atemp>
          </ns3:TrackPointExtension>
        </extensions>
      </trkpt>
      <trkpt lat="42.54433572292327880859375" lon="20.11845127679407596588134765625">
        <ele>1905.5999755859375</ele>
        <time>2026-06-20T06:46:32.000Z</time>
        <extensions>
          <ns3:TrackPointExtension>
            <ns3:atemp>22.0</ns3:atemp>
          </ns3:TrackPointExtension>
        </extensions>
      </trkpt>
      <trkpt lat="42.54433572292327880859375" lon="20.11845127679407596588134765625">
        <ele>1905.5999755859375</ele>
        <time>2026-06-20T06:46:33.000Z</time>
        <extensions>
          <ns3:TrackPointExtension>
            <ns3:atemp>22.0</ns3:atemp>
          </ns3:TrackPointExtension>
        </extensions>
      </trkpt>
      <trkpt lat="42.54433572292327880859375" lon="20.11845127679407596588134765625">
        <ele>1905.5999755859375</ele>
        <time>2026-06-20T06:46:34.000Z</time>
        <extensions>
          <ns3:TrackPointExtension>
            <ns3:atemp>22.0</ns3:atemp>
          </ns3:TrackPointExtension>
        </extensions>
      </trkpt>
      <trkpt lat="42.54433572292327880859375" lon="20.11845127679407596588134765625">
        <ele>1905.5999755859375</ele>
        <time>2026-06-20T06:46:35.000Z</time>
        <extensions>
          <ns3:TrackPointExtension>
            <ns3:atemp>22.0</ns3:atemp>
          </ns3:TrackPointExtension>
        </extensions>
      </trkpt>
      <trkpt lat="42.54433572292327880859375" lon="20.11845127679407596588134765625">
        <ele>1905.5999755859375</ele>
        <time>2026-06-20T06:46:36.000Z</time>
        <extensions>
          <ns3:TrackPointExtension>
            <ns3:atemp>22.0</ns3:atemp>
          </ns3:TrackPointExtension>
        </extensions>
      </trkpt>
      <trkpt lat="42.54433572292327880859375" lon="20.11845127679407596588134765625">
        <ele>1905.5999755859375</ele>
        <time>2026-06-20T06:46:37.000Z</time>
        <extensions>
          <ns3:TrackPointExtension>
            <ns3:atemp>22.0</ns3:atemp>
          </ns3:TrackPointExtension>
        </extensions>
      </trkpt>
      <trkpt lat="42.54433572292327880859375" lon="20.11845127679407596588134765625">
        <ele>1905.5999755859375</ele>
        <time>2026-06-20T06:46:38.000Z</time>
        <extensions>
          <ns3:TrackPointExtension>
            <ns3:atemp>22.0</ns3:atemp>
          </ns3:TrackPointExtension>
        </extensions>
      </trkpt>
      <trkpt lat="42.54433572292327880859375" lon="20.11845127679407596588134765625">
        <ele>1905.5999755859375</ele>
        <time>2026-06-20T06:46:39.000Z</time>
        <extensions>
          <ns3:TrackPointExtension>
            <ns3:atemp>22.0</ns3:atemp>
          </ns3:TrackPointExtension>
        </extensions>
      </trkpt>
      <trkpt lat="42.54433572292327880859375" lon="20.11845127679407596588134765625">
        <ele>1905.5999755859375</ele>
        <time>2026-06-20T06:46:40.000Z</time>
        <extensions>
          <ns3:TrackPointExtension>
            <ns3:atemp>22.0</ns3:atemp>
          </ns3:TrackPointExtension>
        </extensions>
      </trkpt>
      <trkpt lat="42.54433572292327880859375" lon="20.11845127679407596588134765625">
        <ele>1905.5999755859375</ele>
        <time>2026-06-20T06:46:41.000Z</time>
        <extensions>
          <ns3:TrackPointExtension>
            <ns3:atemp>22.0</ns3:atemp>
          </ns3:TrackPointExtension>
        </extensions>
      </trkpt>
      <trkpt lat="42.54433572292327880859375" lon="20.11845127679407596588134765625">
        <ele>1905.5999755859375</ele>
        <time>2026-06-20T06:46:42.000Z</time>
        <extensions>
          <ns3:TrackPointExtension>
            <ns3:atemp>22.0</ns3:atemp>
          </ns3:TrackPointExtension>
        </extensions>
      </trkpt>
      <trkpt lat="42.54433572292327880859375" lon="20.11845127679407596588134765625">
        <ele>1905.5999755859375</ele>
        <time>2026-06-20T06:46:43.000Z</time>
        <extensions>
          <ns3:TrackPointExtension>
            <ns3:atemp>22.0</ns3:atemp>
          </ns3:TrackPointExtension>
        </extensions>
      </trkpt>
      <trkpt lat="42.54433572292327880859375" lon="20.11845127679407596588134765625">
        <ele>1905.5999755859375</ele>
        <time>2026-06-20T06:46:44.000Z</time>
        <extensions>
          <ns3:TrackPointExtension>
            <ns3:atemp>22.0</ns3:atemp>
          </ns3:TrackPointExtension>
        </extensions>
      </trkpt>
      <trkpt lat="42.54433572292327880859375" lon="20.11845127679407596588134765625">
        <ele>1905.5999755859375</ele>
        <time>2026-06-20T06:46:45.000Z</time>
        <extensions>
          <ns3:TrackPointExtension>
            <ns3:atemp>22.0</ns3:atemp>
          </ns3:TrackPointExtension>
        </extensions>
      </trkpt>
      <trkpt lat="42.54433572292327880859375" lon="20.11845127679407596588134765625">
        <ele>1905.5999755859375</ele>
        <time>2026-06-20T06:46:46.000Z</time>
        <extensions>
          <ns3:TrackPointExtension>
            <ns3:atemp>22.0</ns3:atemp>
          </ns3:TrackPointExtension>
        </extensions>
      </trkpt>
      <trkpt lat="42.54433572292327880859375" lon="20.11845127679407596588134765625">
        <ele>1905.5999755859375</ele>
        <time>2026-06-20T06:46:47.000Z</time>
        <extensions>
          <ns3:TrackPointExtension>
            <ns3:atemp>22.0</ns3:atemp>
          </ns3:TrackPointExtension>
        </extensions>
      </trkpt>
      <trkpt lat="42.54433572292327880859375" lon="20.11845127679407596588134765625">
        <ele>1905.5999755859375</ele>
        <time>2026-06-20T06:46:48.000Z</time>
        <extensions>
          <ns3:TrackPointExtension>
            <ns3:atemp>22.0</ns3:atemp>
          </ns3:TrackPointExtension>
        </extensions>
      </trkpt>
      <trkpt lat="42.54433572292327880859375" lon="20.11845127679407596588134765625">
        <ele>1905.5999755859375</ele>
        <time>2026-06-20T06:46:49.000Z</time>
        <extensions>
          <ns3:TrackPointExtension>
            <ns3:atemp>22.0</ns3:atemp>
          </ns3:TrackPointExtension>
        </extensions>
      </trkpt>
      <trkpt lat="42.54433572292327880859375" lon="20.11845127679407596588134765625">
        <ele>1905.5999755859375</ele>
        <time>2026-06-20T06:46:50.000Z</time>
        <extensions>
          <ns3:TrackPointExtension>
            <ns3:atemp>22.0</ns3:atemp>
          </ns3:TrackPointExtension>
        </extensions>
      </trkpt>
      <trkpt lat="42.54433572292327880859375" lon="20.11845127679407596588134765625">
        <ele>1905.5999755859375</ele>
        <time>2026-06-20T06:46:51.000Z</time>
        <extensions>
          <ns3:TrackPointExtension>
            <ns3:atemp>22.0</ns3:atemp>
          </ns3:TrackPointExtension>
        </extensions>
      </trkpt>
      <trkpt lat="42.54433572292327880859375" lon="20.11845127679407596588134765625">
        <ele>1905.5999755859375</ele>
        <time>2026-06-20T06:46:52.000Z</time>
        <extensions>
          <ns3:TrackPointExtension>
            <ns3:atemp>22.0</ns3:atemp>
          </ns3:TrackPointExtension>
        </extensions>
      </trkpt>
      <trkpt lat="42.54433572292327880859375" lon="20.11845127679407596588134765625">
        <ele>1905.5999755859375</ele>
        <time>2026-06-20T06:46:53.000Z</time>
        <extensions>
          <ns3:TrackPointExtension>
            <ns3:atemp>22.0</ns3:atemp>
          </ns3:TrackPointExtension>
        </extensions>
      </trkpt>
      <trkpt lat="42.54433572292327880859375" lon="20.11845127679407596588134765625">
        <ele>1905.5999755859375</ele>
        <time>2026-06-20T06:46:54.000Z</time>
        <extensions>
          <ns3:TrackPointExtension>
            <ns3:atemp>22.0</ns3:atemp>
          </ns3:TrackPointExtension>
        </extensions>
      </trkpt>
      <trkpt lat="42.54433572292327880859375" lon="20.11845127679407596588134765625">
        <ele>1905.5999755859375</ele>
        <time>2026-06-20T06:46:55.000Z</time>
        <extensions>
          <ns3:TrackPointExtension>
            <ns3:atemp>22.0</ns3:atemp>
          </ns3:TrackPointExtension>
        </extensions>
      </trkpt>
      <trkpt lat="42.54433572292327880859375" lon="20.11845127679407596588134765625">
        <ele>1905.5999755859375</ele>
        <time>2026-06-20T06:46:56.000Z</time>
        <extensions>
          <ns3:TrackPointExtension>
            <ns3:atemp>22.0</ns3:atemp>
          </ns3:TrackPointExtension>
        </extensions>
      </trkpt>
      <trkpt lat="42.54433572292327880859375" lon="20.11845127679407596588134765625">
        <ele>1905.5999755859375</ele>
        <time>2026-06-20T06:46:57.000Z</time>
        <extensions>
          <ns3:TrackPointExtension>
            <ns3:atemp>22.0</ns3:atemp>
          </ns3:TrackPointExtension>
        </extensions>
      </trkpt>
      <trkpt lat="42.54433572292327880859375" lon="20.11845127679407596588134765625">
        <ele>1905.5999755859375</ele>
        <time>2026-06-20T06:46:58.000Z</time>
        <extensions>
          <ns3:TrackPointExtension>
            <ns3:atemp>22.0</ns3:atemp>
          </ns3:TrackPointExtension>
        </extensions>
      </trkpt>
      <trkpt lat="42.54433572292327880859375" lon="20.11845127679407596588134765625">
        <ele>1905.5999755859375</ele>
        <time>2026-06-20T06:46:59.000Z</time>
        <extensions>
          <ns3:TrackPointExtension>
            <ns3:atemp>22.0</ns3:atemp>
          </ns3:TrackPointExtension>
        </extensions>
      </trkpt>
      <trkpt lat="42.54433572292327880859375" lon="20.11845127679407596588134765625">
        <ele>1905.5999755859375</ele>
        <time>2026-06-20T06:47:00.000Z</time>
        <extensions>
          <ns3:TrackPointExtension>
            <ns3:atemp>22.0</ns3:atemp>
          </ns3:TrackPointExtension>
        </extensions>
      </trkpt>
      <trkpt lat="42.54433572292327880859375" lon="20.11845127679407596588134765625">
        <ele>1905.5999755859375</ele>
        <time>2026-06-20T06:47:01.000Z</time>
        <extensions>
          <ns3:TrackPointExtension>
            <ns3:atemp>22.0</ns3:atemp>
          </ns3:TrackPointExtension>
        </extensions>
      </trkpt>
      <trkpt lat="42.54433572292327880859375" lon="20.11845127679407596588134765625">
        <ele>1905.5999755859375</ele>
        <time>2026-06-20T06:47:02.000Z</time>
        <extensions>
          <ns3:TrackPointExtension>
            <ns3:atemp>22.0</ns3:atemp>
          </ns3:TrackPointExtension>
        </extensions>
      </trkpt>
      <trkpt lat="42.54433572292327880859375" lon="20.11845127679407596588134765625">
        <ele>1905.5999755859375</ele>
        <time>2026-06-20T06:47:03.000Z</time>
        <extensions>
          <ns3:TrackPointExtension>
            <ns3:atemp>22.0</ns3:atemp>
          </ns3:TrackPointExtension>
        </extensions>
      </trkpt>
      <trkpt lat="42.54433572292327880859375" lon="20.11845127679407596588134765625">
        <ele>1905.5999755859375</ele>
        <time>2026-06-20T06:47:04.000Z</time>
        <extensions>
          <ns3:TrackPointExtension>
            <ns3:atemp>22.0</ns3:atemp>
          </ns3:TrackPointExtension>
        </extensions>
      </trkpt>
      <trkpt lat="42.54433572292327880859375" lon="20.11845127679407596588134765625">
        <ele>1905.5999755859375</ele>
        <time>2026-06-20T06:47:05.000Z</time>
        <extensions>
          <ns3:TrackPointExtension>
            <ns3:atemp>23.0</ns3:atemp>
          </ns3:TrackPointExtension>
        </extensions>
      </trkpt>
      <trkpt lat="42.54433572292327880859375" lon="20.11845127679407596588134765625">
        <ele>1905.5999755859375</ele>
        <time>2026-06-20T06:47:06.000Z</time>
        <extensions>
          <ns3:TrackPointExtension>
            <ns3:atemp>23.0</ns3:atemp>
          </ns3:TrackPointExtension>
        </extensions>
      </trkpt>
      <trkpt lat="42.54433572292327880859375" lon="20.11845127679407596588134765625">
        <ele>1905.5999755859375</ele>
        <time>2026-06-20T06:47:07.000Z</time>
        <extensions>
          <ns3:TrackPointExtension>
            <ns3:atemp>23.0</ns3:atemp>
          </ns3:TrackPointExtension>
        </extensions>
      </trkpt>
      <trkpt lat="42.54433572292327880859375" lon="20.11845127679407596588134765625">
        <ele>1905.5999755859375</ele>
        <time>2026-06-20T06:47:08.000Z</time>
        <extensions>
          <ns3:TrackPointExtension>
            <ns3:atemp>23.0</ns3:atemp>
          </ns3:TrackPointExtension>
        </extensions>
      </trkpt>
      <trkpt lat="42.54433572292327880859375" lon="20.11845127679407596588134765625">
        <ele>1905.5999755859375</ele>
        <time>2026-06-20T06:47:09.000Z</time>
        <extensions>
          <ns3:TrackPointExtension>
            <ns3:atemp>23.0</ns3:atemp>
          </ns3:TrackPointExtension>
        </extensions>
      </trkpt>
      <trkpt lat="42.54433572292327880859375" lon="20.11845127679407596588134765625">
        <ele>1905.5999755859375</ele>
        <time>2026-06-20T06:47:10.000Z</time>
        <extensions>
          <ns3:TrackPointExtension>
            <ns3:atemp>23.0</ns3:atemp>
          </ns3:TrackPointExtension>
        </extensions>
      </trkpt>
      <trkpt lat="42.54433572292327880859375" lon="20.11845127679407596588134765625">
        <ele>1905.5999755859375</ele>
        <time>2026-06-20T06:47:11.000Z</time>
        <extensions>
          <ns3:TrackPointExtension>
            <ns3:atemp>23.0</ns3:atemp>
          </ns3:TrackPointExtension>
        </extensions>
      </trkpt>
      <trkpt lat="42.54433572292327880859375" lon="20.11845127679407596588134765625">
        <ele>1905.5999755859375</ele>
        <time>2026-06-20T06:47:12.000Z</time>
        <extensions>
          <ns3:TrackPointExtension>
            <ns3:atemp>23.0</ns3:atemp>
          </ns3:TrackPointExtension>
        </extensions>
      </trkpt>
      <trkpt lat="42.54433572292327880859375" lon="20.11845127679407596588134765625">
        <ele>1905.5999755859375</ele>
        <time>2026-06-20T06:47:13.000Z</time>
        <extensions>
          <ns3:TrackPointExtension>
            <ns3:atemp>23.0</ns3:atemp>
          </ns3:TrackPointExtension>
        </extensions>
      </trkpt>
      <trkpt lat="42.54433572292327880859375" lon="20.11845127679407596588134765625">
        <ele>1905.5999755859375</ele>
        <time>2026-06-20T06:47:14.000Z</time>
        <extensions>
          <ns3:TrackPointExtension>
            <ns3:atemp>23.0</ns3:atemp>
          </ns3:TrackPointExtension>
        </extensions>
      </trkpt>
      <trkpt lat="42.54433572292327880859375" lon="20.11845127679407596588134765625">
        <ele>1905.5999755859375</ele>
        <time>2026-06-20T06:47:15.000Z</time>
        <extensions>
          <ns3:TrackPointExtension>
            <ns3:atemp>23.0</ns3:atemp>
          </ns3:TrackPointExtension>
        </extensions>
      </trkpt>
      <trkpt lat="42.54433572292327880859375" lon="20.11845127679407596588134765625">
        <ele>1905.5999755859375</ele>
        <time>2026-06-20T06:47:16.000Z</time>
        <extensions>
          <ns3:TrackPointExtension>
            <ns3:atemp>23.0</ns3:atemp>
          </ns3:TrackPointExtension>
        </extensions>
      </trkpt>
      <trkpt lat="42.54433572292327880859375" lon="20.11845127679407596588134765625">
        <ele>1905.5999755859375</ele>
        <time>2026-06-20T06:47:17.000Z</time>
        <extensions>
          <ns3:TrackPointExtension>
            <ns3:atemp>23.0</ns3:atemp>
          </ns3:TrackPointExtension>
        </extensions>
      </trkpt>
      <trkpt lat="42.54433572292327880859375" lon="20.11845127679407596588134765625">
        <ele>1905.4000244140625</ele>
        <time>2026-06-20T06:47:18.000Z</time>
        <extensions>
          <ns3:TrackPointExtension>
            <ns3:atemp>23.0</ns3:atemp>
          </ns3:TrackPointExtension>
        </extensions>
      </trkpt>
      <trkpt lat="42.54433572292327880859375" lon="20.11845127679407596588134765625">
        <ele>1905.4000244140625</ele>
        <time>2026-06-20T06:47:19.000Z</time>
        <extensions>
          <ns3:TrackPointExtension>
            <ns3:atemp>23.0</ns3:atemp>
          </ns3:TrackPointExtension>
        </extensions>
      </trkpt>
      <trkpt lat="42.54433572292327880859375" lon="20.11845127679407596588134765625">
        <ele>1905.4000244140625</ele>
        <time>2026-06-20T06:47:20.000Z</time>
        <extensions>
          <ns3:TrackPointExtension>
            <ns3:atemp>23.0</ns3:atemp>
          </ns3:TrackPointExtension>
        </extensions>
      </trkpt>
      <trkpt lat="42.54433572292327880859375" lon="20.11845127679407596588134765625">
        <ele>1905.4000244140625</ele>
        <time>2026-06-20T06:47:21.000Z</time>
        <extensions>
          <ns3:TrackPointExtension>
            <ns3:atemp>23.0</ns3:atemp>
          </ns3:TrackPointExtension>
        </extensions>
      </trkpt>
      <trkpt lat="42.54433572292327880859375" lon="20.11845127679407596588134765625">
        <ele>1905.4000244140625</ele>
        <time>2026-06-20T06:47:22.000Z</time>
        <extensions>
          <ns3:TrackPointExtension>
            <ns3:atemp>23.0</ns3:atemp>
          </ns3:TrackPointExtension>
        </extensions>
      </trkpt>
      <trkpt lat="42.54433572292327880859375" lon="20.11845127679407596588134765625">
        <ele>1905.5999755859375</ele>
        <time>2026-06-20T06:47:23.000Z</time>
        <extensions>
          <ns3:TrackPointExtension>
            <ns3:atemp>23.0</ns3:atemp>
          </ns3:TrackPointExtension>
        </extensions>
      </trkpt>
      <trkpt lat="42.54433572292327880859375" lon="20.11845127679407596588134765625">
        <ele>1905.5999755859375</ele>
        <time>2026-06-20T06:47:24.000Z</time>
        <extensions>
          <ns3:TrackPointExtension>
            <ns3:atemp>23.0</ns3:atemp>
          </ns3:TrackPointExtension>
        </extensions>
      </trkpt>
      <trkpt lat="42.54433572292327880859375" lon="20.11845127679407596588134765625">
        <ele>1905.5999755859375</ele>
        <time>2026-06-20T06:47:25.000Z</time>
        <extensions>
          <ns3:TrackPointExtension>
            <ns3:atemp>23.0</ns3:atemp>
          </ns3:TrackPointExtension>
        </extensions>
      </trkpt>
      <trkpt lat="42.54433572292327880859375" lon="20.11845127679407596588134765625">
        <ele>1905.5999755859375</ele>
        <time>2026-06-20T06:47:26.000Z</time>
        <extensions>
          <ns3:TrackPointExtension>
            <ns3:atemp>23.0</ns3:atemp>
          </ns3:TrackPointExtension>
        </extensions>
      </trkpt>
      <trkpt lat="42.54433572292327880859375" lon="20.11845127679407596588134765625">
        <ele>1905.5999755859375</ele>
        <time>2026-06-20T06:47:27.000Z</time>
        <extensions>
          <ns3:TrackPointExtension>
            <ns3:atemp>23.0</ns3:atemp>
          </ns3:TrackPointExtension>
        </extensions>
      </trkpt>
      <trkpt lat="42.54433572292327880859375" lon="20.11845127679407596588134765625">
        <ele>1905.5999755859375</ele>
        <time>2026-06-20T06:47:28.000Z</time>
        <extensions>
          <ns3:TrackPointExtension>
            <ns3:atemp>23.0</ns3:atemp>
          </ns3:TrackPointExtension>
        </extensions>
      </trkpt>
      <trkpt lat="42.54433572292327880859375" lon="20.11845127679407596588134765625">
        <ele>1905.5999755859375</ele>
        <time>2026-06-20T06:47:29.000Z</time>
        <extensions>
          <ns3:TrackPointExtension>
            <ns3:atemp>23.0</ns3:atemp>
          </ns3:TrackPointExtension>
        </extensions>
      </trkpt>
      <trkpt lat="42.54433572292327880859375" lon="20.11845127679407596588134765625">
        <ele>1905.5999755859375</ele>
        <time>2026-06-20T06:47:30.000Z</time>
        <extensions>
          <ns3:TrackPointExtension>
            <ns3:atemp>23.0</ns3:atemp>
          </ns3:TrackPointExtension>
        </extensions>
      </trkpt>
      <trkpt lat="42.54433572292327880859375" lon="20.11845127679407596588134765625">
        <ele>1905.5999755859375</ele>
        <time>2026-06-20T06:47:31.000Z</time>
        <extensions>
          <ns3:TrackPointExtension>
            <ns3:atemp>23.0</ns3:atemp>
          </ns3:TrackPointExtension>
        </extensions>
      </trkpt>
      <trkpt lat="42.54433572292327880859375" lon="20.11845127679407596588134765625">
        <ele>1905.5999755859375</ele>
        <time>2026-06-20T06:47:32.000Z</time>
        <extensions>
          <ns3:TrackPointExtension>
            <ns3:atemp>23.0</ns3:atemp>
          </ns3:TrackPointExtension>
        </extensions>
      </trkpt>
      <trkpt lat="42.54433572292327880859375" lon="20.11845127679407596588134765625">
        <ele>1905.5999755859375</ele>
        <time>2026-06-20T06:47:33.000Z</time>
        <extensions>
          <ns3:TrackPointExtension>
            <ns3:atemp>23.0</ns3:atemp>
          </ns3:TrackPointExtension>
        </extensions>
      </trkpt>
      <trkpt lat="42.54433572292327880859375" lon="20.11845127679407596588134765625">
        <ele>1905.5999755859375</ele>
        <time>2026-06-20T06:47:34.000Z</time>
        <extensions>
          <ns3:TrackPointExtension>
            <ns3:atemp>23.0</ns3:atemp>
          </ns3:TrackPointExtension>
        </extensions>
      </trkpt>
      <trkpt lat="42.54433572292327880859375" lon="20.11845127679407596588134765625">
        <ele>1905.5999755859375</ele>
        <time>2026-06-20T06:47:35.000Z</time>
        <extensions>
          <ns3:TrackPointExtension>
            <ns3:atemp>23.0</ns3:atemp>
          </ns3:TrackPointExtension>
        </extensions>
      </trkpt>
      <trkpt lat="42.54433572292327880859375" lon="20.11845127679407596588134765625">
        <ele>1905.5999755859375</ele>
        <time>2026-06-20T06:47:36.000Z</time>
        <extensions>
          <ns3:TrackPointExtension>
            <ns3:atemp>23.0</ns3:atemp>
          </ns3:TrackPointExtension>
        </extensions>
      </trkpt>
      <trkpt lat="42.54433572292327880859375" lon="20.11845127679407596588134765625">
        <ele>1905.5999755859375</ele>
        <time>2026-06-20T06:47:37.000Z</time>
        <extensions>
          <ns3:TrackPointExtension>
            <ns3:atemp>23.0</ns3:atemp>
          </ns3:TrackPointExtension>
        </extensions>
      </trkpt>
      <trkpt lat="42.54433572292327880859375" lon="20.11845127679407596588134765625">
        <ele>1905.5999755859375</ele>
        <time>2026-06-20T06:47:38.000Z</time>
        <extensions>
          <ns3:TrackPointExtension>
            <ns3:atemp>23.0</ns3:atemp>
          </ns3:TrackPointExtension>
        </extensions>
      </trkpt>
      <trkpt lat="42.54433572292327880859375" lon="20.11845127679407596588134765625">
        <ele>1905.5999755859375</ele>
        <time>2026-06-20T06:47:39.000Z</time>
        <extensions>
          <ns3:TrackPointExtension>
            <ns3:atemp>23.0</ns3:atemp>
          </ns3:TrackPointExtension>
        </extensions>
      </trkpt>
      <trkpt lat="42.54433572292327880859375" lon="20.11845127679407596588134765625">
        <ele>1905.5999755859375</ele>
        <time>2026-06-20T06:47:40.000Z</time>
        <extensions>
          <ns3:TrackPointExtension>
            <ns3:atemp>23.0</ns3:atemp>
          </ns3:TrackPointExtension>
        </extensions>
      </trkpt>
      <trkpt lat="42.54433572292327880859375" lon="20.11845127679407596588134765625">
        <ele>1905.800048828125</ele>
        <time>2026-06-20T06:47:41.000Z</time>
        <extensions>
          <ns3:TrackPointExtension>
            <ns3:atemp>23.0</ns3:atemp>
          </ns3:TrackPointExtension>
        </extensions>
      </trkpt>
      <trkpt lat="42.54433572292327880859375" lon="20.11845127679407596588134765625">
        <ele>1905.800048828125</ele>
        <time>2026-06-20T06:47:42.000Z</time>
        <extensions>
          <ns3:TrackPointExtension>
            <ns3:atemp>23.0</ns3:atemp>
          </ns3:TrackPointExtension>
        </extensions>
      </trkpt>
      <trkpt lat="42.54433572292327880859375" lon="20.11845127679407596588134765625">
        <ele>1905.800048828125</ele>
        <time>2026-06-20T06:47:43.000Z</time>
        <extensions>
          <ns3:TrackPointExtension>
            <ns3:atemp>23.0</ns3:atemp>
          </ns3:TrackPointExtension>
        </extensions>
      </trkpt>
      <trkpt lat="42.54433572292327880859375" lon="20.11845127679407596588134765625">
        <ele>1905.800048828125</ele>
        <time>2026-06-20T06:47:44.000Z</time>
        <extensions>
          <ns3:TrackPointExtension>
            <ns3:atemp>23.0</ns3:atemp>
          </ns3:TrackPointExtension>
        </extensions>
      </trkpt>
      <trkpt lat="42.54433572292327880859375" lon="20.11845127679407596588134765625">
        <ele>1905.800048828125</ele>
        <time>2026-06-20T06:47:45.000Z</time>
        <extensions>
          <ns3:TrackPointExtension>
            <ns3:atemp>23.0</ns3:atemp>
          </ns3:TrackPointExtension>
        </extensions>
      </trkpt>
      <trkpt lat="42.54433572292327880859375" lon="20.11845127679407596588134765625">
        <ele>1905.800048828125</ele>
        <time>2026-06-20T06:47:46.000Z</time>
        <extensions>
          <ns3:TrackPointExtension>
            <ns3:atemp>23.0</ns3:atemp>
          </ns3:TrackPointExtension>
        </extensions>
      </trkpt>
      <trkpt lat="42.54433572292327880859375" lon="20.11845127679407596588134765625">
        <ele>1905.800048828125</ele>
        <time>2026-06-20T06:47:47.000Z</time>
        <extensions>
          <ns3:TrackPointExtension>
            <ns3:atemp>23.0</ns3:atemp>
          </ns3:TrackPointExtension>
        </extensions>
      </trkpt>
      <trkpt lat="42.54433572292327880859375" lon="20.11845127679407596588134765625">
        <ele>1905.800048828125</ele>
        <time>2026-06-20T06:47:48.000Z</time>
        <extensions>
          <ns3:TrackPointExtension>
            <ns3:atemp>23.0</ns3:atemp>
          </ns3:TrackPointExtension>
        </extensions>
      </trkpt>
      <trkpt lat="42.54433572292327880859375" lon="20.11845127679407596588134765625">
        <ele>1905.800048828125</ele>
        <time>2026-06-20T06:47:49.000Z</time>
        <extensions>
          <ns3:TrackPointExtension>
            <ns3:atemp>23.0</ns3:atemp>
          </ns3:TrackPointExtension>
        </extensions>
      </trkpt>
      <trkpt lat="42.54433572292327880859375" lon="20.11845127679407596588134765625">
        <ele>1905.800048828125</ele>
        <time>2026-06-20T06:47:50.000Z</time>
        <extensions>
          <ns3:TrackPointExtension>
            <ns3:atemp>23.0</ns3:atemp>
          </ns3:TrackPointExtension>
        </extensions>
      </trkpt>
      <trkpt lat="42.54433572292327880859375" lon="20.11845127679407596588134765625">
        <ele>1905.800048828125</ele>
        <time>2026-06-20T06:47:51.000Z</time>
        <extensions>
          <ns3:TrackPointExtension>
            <ns3:atemp>23.0</ns3:atemp>
          </ns3:TrackPointExtension>
        </extensions>
      </trkpt>
      <trkpt lat="42.54433572292327880859375" lon="20.11845127679407596588134765625">
        <ele>1905.800048828125</ele>
        <time>2026-06-20T06:47:52.000Z</time>
        <extensions>
          <ns3:TrackPointExtension>
            <ns3:atemp>23.0</ns3:atemp>
          </ns3:TrackPointExtension>
        </extensions>
      </trkpt>
      <trkpt lat="42.54433572292327880859375" lon="20.11845127679407596588134765625">
        <ele>1905.800048828125</ele>
        <time>2026-06-20T06:47:53.000Z</time>
        <extensions>
          <ns3:TrackPointExtension>
            <ns3:atemp>23.0</ns3:atemp>
          </ns3:TrackPointExtension>
        </extensions>
      </trkpt>
      <trkpt lat="42.54433572292327880859375" lon="20.11845127679407596588134765625">
        <ele>1905.800048828125</ele>
        <time>2026-06-20T06:47:54.000Z</time>
        <extensions>
          <ns3:TrackPointExtension>
            <ns3:atemp>23.0</ns3:atemp>
          </ns3:TrackPointExtension>
        </extensions>
      </trkpt>
      <trkpt lat="42.54433572292327880859375" lon="20.11845127679407596588134765625">
        <ele>1905.800048828125</ele>
        <time>2026-06-20T06:47:55.000Z</time>
        <extensions>
          <ns3:TrackPointExtension>
            <ns3:atemp>23.0</ns3:atemp>
          </ns3:TrackPointExtension>
        </extensions>
      </trkpt>
      <trkpt lat="42.54433572292327880859375" lon="20.11845127679407596588134765625">
        <ele>1905.800048828125</ele>
        <time>2026-06-20T06:47:56.000Z</time>
        <extensions>
          <ns3:TrackPointExtension>
            <ns3:atemp>23.0</ns3:atemp>
          </ns3:TrackPointExtension>
        </extensions>
      </trkpt>
      <trkpt lat="42.54433572292327880859375" lon="20.11845127679407596588134765625">
        <ele>1905.800048828125</ele>
        <time>2026-06-20T06:47:57.000Z</time>
        <extensions>
          <ns3:TrackPointExtension>
            <ns3:atemp>23.0</ns3:atemp>
          </ns3:TrackPointExtension>
        </extensions>
      </trkpt>
      <trkpt lat="42.54433572292327880859375" lon="20.11845127679407596588134765625">
        <ele>1905.800048828125</ele>
        <time>2026-06-20T06:47:58.000Z</time>
        <extensions>
          <ns3:TrackPointExtension>
            <ns3:atemp>23.0</ns3:atemp>
          </ns3:TrackPointExtension>
        </extensions>
      </trkpt>
      <trkpt lat="42.54433572292327880859375" lon="20.11845127679407596588134765625">
        <ele>1905.800048828125</ele>
        <time>2026-06-20T06:47:59.000Z</time>
        <extensions>
          <ns3:TrackPointExtension>
            <ns3:atemp>23.0</ns3:atemp>
          </ns3:TrackPointExtension>
        </extensions>
      </trkpt>
      <trkpt lat="42.54433572292327880859375" lon="20.11845127679407596588134765625">
        <ele>1905.800048828125</ele>
        <time>2026-06-20T06:48:00.000Z</time>
        <extensions>
          <ns3:TrackPointExtension>
            <ns3:atemp>23.0</ns3:atemp>
          </ns3:TrackPointExtension>
        </extensions>
      </trkpt>
      <trkpt lat="42.54433572292327880859375" lon="20.11845127679407596588134765625">
        <ele>1905.800048828125</ele>
        <time>2026-06-20T06:48:01.000Z</time>
        <extensions>
          <ns3:TrackPointExtension>
            <ns3:atemp>23.0</ns3:atemp>
          </ns3:TrackPointExtension>
        </extensions>
      </trkpt>
      <trkpt lat="42.54433572292327880859375" lon="20.11845127679407596588134765625">
        <ele>1905.800048828125</ele>
        <time>2026-06-20T06:48:02.000Z</time>
        <extensions>
          <ns3:TrackPointExtension>
            <ns3:atemp>23.0</ns3:atemp>
          </ns3:TrackPointExtension>
        </extensions>
      </trkpt>
      <trkpt lat="42.54433572292327880859375" lon="20.11845127679407596588134765625">
        <ele>1905.800048828125</ele>
        <time>2026-06-20T06:48:03.000Z</time>
        <extensions>
          <ns3:TrackPointExtension>
            <ns3:atemp>23.0</ns3:atemp>
          </ns3:TrackPointExtension>
        </extensions>
      </trkpt>
      <trkpt lat="42.54433572292327880859375" lon="20.11845127679407596588134765625">
        <ele>1905.800048828125</ele>
        <time>2026-06-20T06:48:04.000Z</time>
        <extensions>
          <ns3:TrackPointExtension>
            <ns3:atemp>23.0</ns3:atemp>
          </ns3:TrackPointExtension>
        </extensions>
      </trkpt>
      <trkpt lat="42.54433572292327880859375" lon="20.11845127679407596588134765625">
        <ele>1905.800048828125</ele>
        <time>2026-06-20T06:48:05.000Z</time>
        <extensions>
          <ns3:TrackPointExtension>
            <ns3:atemp>23.0</ns3:atemp>
          </ns3:TrackPointExtension>
        </extensions>
      </trkpt>
      <trkpt lat="42.54433572292327880859375" lon="20.11845127679407596588134765625">
        <ele>1905.800048828125</ele>
        <time>2026-06-20T06:48:06.000Z</time>
        <extensions>
          <ns3:TrackPointExtension>
            <ns3:atemp>23.0</ns3:atemp>
          </ns3:TrackPointExtension>
        </extensions>
      </trkpt>
      <trkpt lat="42.54433572292327880859375" lon="20.11845127679407596588134765625">
        <ele>1905.800048828125</ele>
        <time>2026-06-20T06:48:07.000Z</time>
        <extensions>
          <ns3:TrackPointExtension>
            <ns3:atemp>23.0</ns3:atemp>
          </ns3:TrackPointExtension>
        </extensions>
      </trkpt>
      <trkpt lat="42.54433572292327880859375" lon="20.11845127679407596588134765625">
        <ele>1905.800048828125</ele>
        <time>2026-06-20T06:48:08.000Z</time>
        <extensions>
          <ns3:TrackPointExtension>
            <ns3:atemp>23.0</ns3:atemp>
          </ns3:TrackPointExtension>
        </extensions>
      </trkpt>
      <trkpt lat="42.54433572292327880859375" lon="20.11845127679407596588134765625">
        <ele>1905.800048828125</ele>
        <time>2026-06-20T06:48:09.000Z</time>
        <extensions>
          <ns3:TrackPointExtension>
            <ns3:atemp>23.0</ns3:atemp>
          </ns3:TrackPointExtension>
        </extensions>
      </trkpt>
      <trkpt lat="42.54433572292327880859375" lon="20.11845127679407596588134765625">
        <ele>1905.800048828125</ele>
        <time>2026-06-20T06:48:10.000Z</time>
        <extensions>
          <ns3:TrackPointExtension>
            <ns3:atemp>23.0</ns3:atemp>
          </ns3:TrackPointExtension>
        </extensions>
      </trkpt>
      <trkpt lat="42.54433572292327880859375" lon="20.11845127679407596588134765625">
        <ele>1905.800048828125</ele>
        <time>2026-06-20T06:48:11.000Z</time>
        <extensions>
          <ns3:TrackPointExtension>
            <ns3:atemp>23.0</ns3:atemp>
          </ns3:TrackPointExtension>
        </extensions>
      </trkpt>
      <trkpt lat="42.54433572292327880859375" lon="20.11845127679407596588134765625">
        <ele>1905.800048828125</ele>
        <time>2026-06-20T06:48:12.000Z</time>
        <extensions>
          <ns3:TrackPointExtension>
            <ns3:atemp>23.0</ns3:atemp>
          </ns3:TrackPointExtension>
        </extensions>
      </trkpt>
      <trkpt lat="42.54433572292327880859375" lon="20.11845127679407596588134765625">
        <ele>1905.800048828125</ele>
        <time>2026-06-20T06:48:13.000Z</time>
        <extensions>
          <ns3:TrackPointExtension>
            <ns3:atemp>23.0</ns3:atemp>
          </ns3:TrackPointExtension>
        </extensions>
      </trkpt>
      <trkpt lat="42.54433572292327880859375" lon="20.11845127679407596588134765625">
        <ele>1905.800048828125</ele>
        <time>2026-06-20T06:48:14.000Z</time>
        <extensions>
          <ns3:TrackPointExtension>
            <ns3:atemp>23.0</ns3:atemp>
          </ns3:TrackPointExtension>
        </extensions>
      </trkpt>
      <trkpt lat="42.54433572292327880859375" lon="20.11845127679407596588134765625">
        <ele>1905.800048828125</ele>
        <time>2026-06-20T06:48:15.000Z</time>
        <extensions>
          <ns3:TrackPointExtension>
            <ns3:atemp>23.0</ns3:atemp>
          </ns3:TrackPointExtension>
        </extensions>
      </trkpt>
      <trkpt lat="42.54433572292327880859375" lon="20.11845127679407596588134765625">
        <ele>1905.800048828125</ele>
        <time>2026-06-20T06:48:16.000Z</time>
        <extensions>
          <ns3:TrackPointExtension>
            <ns3:atemp>23.0</ns3:atemp>
          </ns3:TrackPointExtension>
        </extensions>
      </trkpt>
      <trkpt lat="42.54433572292327880859375" lon="20.11845127679407596588134765625">
        <ele>1905.800048828125</ele>
        <time>2026-06-20T06:48:17.000Z</time>
        <extensions>
          <ns3:TrackPointExtension>
            <ns3:atemp>23.0</ns3:atemp>
          </ns3:TrackPointExtension>
        </extensions>
      </trkpt>
      <trkpt lat="42.54433572292327880859375" lon="20.11845127679407596588134765625">
        <ele>1905.800048828125</ele>
        <time>2026-06-20T06:48:18.000Z</time>
        <extensions>
          <ns3:TrackPointExtension>
            <ns3:atemp>23.0</ns3:atemp>
          </ns3:TrackPointExtension>
        </extensions>
      </trkpt>
      <trkpt lat="42.54433572292327880859375" lon="20.11845127679407596588134765625">
        <ele>1905.800048828125</ele>
        <time>2026-06-20T06:48:19.000Z</time>
        <extensions>
          <ns3:TrackPointExtension>
            <ns3:atemp>23.0</ns3:atemp>
          </ns3:TrackPointExtension>
        </extensions>
      </trkpt>
      <trkpt lat="42.54433572292327880859375" lon="20.11845127679407596588134765625">
        <ele>1905.800048828125</ele>
        <time>2026-06-20T06:48:20.000Z</time>
        <extensions>
          <ns3:TrackPointExtension>
            <ns3:atemp>23.0</ns3:atemp>
          </ns3:TrackPointExtension>
        </extensions>
      </trkpt>
      <trkpt lat="42.54433572292327880859375" lon="20.11845127679407596588134765625">
        <ele>1905.800048828125</ele>
        <time>2026-06-20T06:48:21.000Z</time>
        <extensions>
          <ns3:TrackPointExtension>
            <ns3:atemp>23.0</ns3:atemp>
          </ns3:TrackPointExtension>
        </extensions>
      </trkpt>
      <trkpt lat="42.54433572292327880859375" lon="20.11845127679407596588134765625">
        <ele>1905.800048828125</ele>
        <time>2026-06-20T06:48:22.000Z</time>
        <extensions>
          <ns3:TrackPointExtension>
            <ns3:atemp>23.0</ns3:atemp>
          </ns3:TrackPointExtension>
        </extensions>
      </trkpt>
      <trkpt lat="42.54433572292327880859375" lon="20.11845127679407596588134765625">
        <ele>1905.800048828125</ele>
        <time>2026-06-20T06:48:23.000Z</time>
        <extensions>
          <ns3:TrackPointExtension>
            <ns3:atemp>23.0</ns3:atemp>
          </ns3:TrackPointExtension>
        </extensions>
      </trkpt>
      <trkpt lat="42.54433572292327880859375" lon="20.11845127679407596588134765625">
        <ele>1905.800048828125</ele>
        <time>2026-06-20T06:48:24.000Z</time>
        <extensions>
          <ns3:TrackPointExtension>
            <ns3:atemp>23.0</ns3:atemp>
          </ns3:TrackPointExtension>
        </extensions>
      </trkpt>
      <trkpt lat="42.54433572292327880859375" lon="20.11845127679407596588134765625">
        <ele>1905.800048828125</ele>
        <time>2026-06-20T06:48:25.000Z</time>
        <extensions>
          <ns3:TrackPointExtension>
            <ns3:atemp>23.0</ns3:atemp>
          </ns3:TrackPointExtension>
        </extensions>
      </trkpt>
      <trkpt lat="42.54433572292327880859375" lon="20.11845127679407596588134765625">
        <ele>1905.800048828125</ele>
        <time>2026-06-20T06:48:26.000Z</time>
        <extensions>
          <ns3:TrackPointExtension>
            <ns3:atemp>23.0</ns3:atemp>
          </ns3:TrackPointExtension>
        </extensions>
      </trkpt>
      <trkpt lat="42.54433572292327880859375" lon="20.11845127679407596588134765625">
        <ele>1905.800048828125</ele>
        <time>2026-06-20T06:48:27.000Z</time>
        <extensions>
          <ns3:TrackPointExtension>
            <ns3:atemp>23.0</ns3:atemp>
          </ns3:TrackPointExtension>
        </extensions>
      </trkpt>
      <trkpt lat="42.54433572292327880859375" lon="20.11845127679407596588134765625">
        <ele>1905.800048828125</ele>
        <time>2026-06-20T06:48:28.000Z</time>
        <extensions>
          <ns3:TrackPointExtension>
            <ns3:atemp>23.0</ns3:atemp>
          </ns3:TrackPointExtension>
        </extensions>
      </trkpt>
      <trkpt lat="42.54433572292327880859375" lon="20.11845127679407596588134765625">
        <ele>1905.800048828125</ele>
        <time>2026-06-20T06:48:29.000Z</time>
        <extensions>
          <ns3:TrackPointExtension>
            <ns3:atemp>23.0</ns3:atemp>
          </ns3:TrackPointExtension>
        </extensions>
      </trkpt>
      <trkpt lat="42.54433572292327880859375" lon="20.11845127679407596588134765625">
        <ele>1905.800048828125</ele>
        <time>2026-06-20T06:48:30.000Z</time>
        <extensions>
          <ns3:TrackPointExtension>
            <ns3:atemp>23.0</ns3:atemp>
          </ns3:TrackPointExtension>
        </extensions>
      </trkpt>
      <trkpt lat="42.54433572292327880859375" lon="20.11845127679407596588134765625">
        <ele>1905.800048828125</ele>
        <time>2026-06-20T06:48:31.000Z</time>
        <extensions>
          <ns3:TrackPointExtension>
            <ns3:atemp>23.0</ns3:atemp>
          </ns3:TrackPointExtension>
        </extensions>
      </trkpt>
      <trkpt lat="42.54433572292327880859375" lon="20.11845127679407596588134765625">
        <ele>1905.800048828125</ele>
        <time>2026-06-20T06:48:32.000Z</time>
        <extensions>
          <ns3:TrackPointExtension>
            <ns3:atemp>23.0</ns3:atemp>
          </ns3:TrackPointExtension>
        </extensions>
      </trkpt>
      <trkpt lat="42.54433572292327880859375" lon="20.11845127679407596588134765625">
        <ele>1905.800048828125</ele>
        <time>2026-06-20T06:48:33.000Z</time>
        <extensions>
          <ns3:TrackPointExtension>
            <ns3:atemp>23.0</ns3:atemp>
          </ns3:TrackPointExtension>
        </extensions>
      </trkpt>
      <trkpt lat="42.54433572292327880859375" lon="20.11845127679407596588134765625">
        <ele>1905.800048828125</ele>
        <time>2026-06-20T06:48:34.000Z</time>
        <extensions>
          <ns3:TrackPointExtension>
            <ns3:atemp>23.0</ns3:atemp>
          </ns3:TrackPointExtension>
        </extensions>
      </trkpt>
      <trkpt lat="42.54433572292327880859375" lon="20.11845127679407596588134765625">
        <ele>1905.800048828125</ele>
        <time>2026-06-20T06:48:35.000Z</time>
        <extensions>
          <ns3:TrackPointExtension>
            <ns3:atemp>23.0</ns3:atemp>
          </ns3:TrackPointExtension>
        </extensions>
      </trkpt>
      <trkpt lat="42.54433572292327880859375" lon="20.11845127679407596588134765625">
        <ele>1905.800048828125</ele>
        <time>2026-06-20T06:48:36.000Z</time>
        <extensions>
          <ns3:TrackPointExtension>
            <ns3:atemp>23.0</ns3:atemp>
          </ns3:TrackPointExtension>
        </extensions>
      </trkpt>
      <trkpt lat="42.54433572292327880859375" lon="20.11845127679407596588134765625">
        <ele>1905.800048828125</ele>
        <time>2026-06-20T06:48:37.000Z</time>
        <extensions>
          <ns3:TrackPointExtension>
            <ns3:atemp>23.0</ns3:atemp>
          </ns3:TrackPointExtension>
        </extensions>
      </trkpt>
      <trkpt lat="42.54433572292327880859375" lon="20.11845127679407596588134765625">
        <ele>1905.800048828125</ele>
        <time>2026-06-20T06:48:38.000Z</time>
        <extensions>
          <ns3:TrackPointExtension>
            <ns3:atemp>23.0</ns3:atemp>
          </ns3:TrackPointExtension>
        </extensions>
      </trkpt>
      <trkpt lat="42.54433572292327880859375" lon="20.11845127679407596588134765625">
        <ele>1905.800048828125</ele>
        <time>2026-06-20T06:48:39.000Z</time>
        <extensions>
          <ns3:TrackPointExtension>
            <ns3:atemp>23.0</ns3:atemp>
          </ns3:TrackPointExtension>
        </extensions>
      </trkpt>
      <trkpt lat="42.54433572292327880859375" lon="20.11845127679407596588134765625">
        <ele>1905.800048828125</ele>
        <time>2026-06-20T06:48:40.000Z</time>
        <extensions>
          <ns3:TrackPointExtension>
            <ns3:atemp>23.0</ns3:atemp>
          </ns3:TrackPointExtension>
        </extensions>
      </trkpt>
      <trkpt lat="42.54433572292327880859375" lon="20.11845127679407596588134765625">
        <ele>1905.800048828125</ele>
        <time>2026-06-20T06:48:41.000Z</time>
        <extensions>
          <ns3:TrackPointExtension>
            <ns3:atemp>23.0</ns3:atemp>
          </ns3:TrackPointExtension>
        </extensions>
      </trkpt>
      <trkpt lat="42.54433572292327880859375" lon="20.11845127679407596588134765625">
        <ele>1905.800048828125</ele>
        <time>2026-06-20T06:48:42.000Z</time>
        <extensions>
          <ns3:TrackPointExtension>
            <ns3:atemp>23.0</ns3:atemp>
          </ns3:TrackPointExtension>
        </extensions>
      </trkpt>
      <trkpt lat="42.54433572292327880859375" lon="20.11845127679407596588134765625">
        <ele>1905.800048828125</ele>
        <time>2026-06-20T06:48:43.000Z</time>
        <extensions>
          <ns3:TrackPointExtension>
            <ns3:atemp>23.0</ns3:atemp>
          </ns3:TrackPointExtension>
        </extensions>
      </trkpt>
      <trkpt lat="42.54433572292327880859375" lon="20.11845127679407596588134765625">
        <ele>1905.800048828125</ele>
        <time>2026-06-20T06:48:44.000Z</time>
        <extensions>
          <ns3:TrackPointExtension>
            <ns3:atemp>23.0</ns3:atemp>
          </ns3:TrackPointExtension>
        </extensions>
      </trkpt>
      <trkpt lat="42.54433572292327880859375" lon="20.11845127679407596588134765625">
        <ele>1905.800048828125</ele>
        <time>2026-06-20T06:48:45.000Z</time>
        <extensions>
          <ns3:TrackPointExtension>
            <ns3:atemp>23.0</ns3:atemp>
          </ns3:TrackPointExtension>
        </extensions>
      </trkpt>
      <trkpt lat="42.54433572292327880859375" lon="20.11845127679407596588134765625">
        <ele>1905.800048828125</ele>
        <time>2026-06-20T06:48:46.000Z</time>
        <extensions>
          <ns3:TrackPointExtension>
            <ns3:atemp>23.0</ns3:atemp>
          </ns3:TrackPointExtension>
        </extensions>
      </trkpt>
      <trkpt lat="42.54433572292327880859375" lon="20.11845127679407596588134765625">
        <ele>1905.800048828125</ele>
        <time>2026-06-20T06:48:47.000Z</time>
        <extensions>
          <ns3:TrackPointExtension>
            <ns3:atemp>23.0</ns3:atemp>
          </ns3:TrackPointExtension>
        </extensions>
      </trkpt>
      <trkpt lat="42.54433572292327880859375" lon="20.11845127679407596588134765625">
        <ele>1905.800048828125</ele>
        <time>2026-06-20T06:48:48.000Z</time>
        <extensions>
          <ns3:TrackPointExtension>
            <ns3:atemp>23.0</ns3:atemp>
          </ns3:TrackPointExtension>
        </extensions>
      </trkpt>
      <trkpt lat="42.54433572292327880859375" lon="20.11845127679407596588134765625">
        <ele>1905.800048828125</ele>
        <time>2026-06-20T06:48:49.000Z</time>
        <extensions>
          <ns3:TrackPointExtension>
            <ns3:atemp>23.0</ns3:atemp>
          </ns3:TrackPointExtension>
        </extensions>
      </trkpt>
      <trkpt lat="42.54433572292327880859375" lon="20.11845127679407596588134765625">
        <ele>1905.800048828125</ele>
        <time>2026-06-20T06:48:50.000Z</time>
        <extensions>
          <ns3:TrackPointExtension>
            <ns3:atemp>23.0</ns3:atemp>
          </ns3:TrackPointExtension>
        </extensions>
      </trkpt>
      <trkpt lat="42.54433572292327880859375" lon="20.11845127679407596588134765625">
        <ele>1905.800048828125</ele>
        <time>2026-06-20T06:48:51.000Z</time>
        <extensions>
          <ns3:TrackPointExtension>
            <ns3:atemp>23.0</ns3:atemp>
          </ns3:TrackPointExtension>
        </extensions>
      </trkpt>
      <trkpt lat="42.54433572292327880859375" lon="20.11845127679407596588134765625">
        <ele>1905.800048828125</ele>
        <time>2026-06-20T06:48:52.000Z</time>
        <extensions>
          <ns3:TrackPointExtension>
            <ns3:atemp>23.0</ns3:atemp>
          </ns3:TrackPointExtension>
        </extensions>
      </trkpt>
      <trkpt lat="42.54433572292327880859375" lon="20.11845127679407596588134765625">
        <ele>1905.800048828125</ele>
        <time>2026-06-20T06:48:53.000Z</time>
        <extensions>
          <ns3:TrackPointExtension>
            <ns3:atemp>23.0</ns3:atemp>
          </ns3:TrackPointExtension>
        </extensions>
      </trkpt>
      <trkpt lat="42.54433572292327880859375" lon="20.11845127679407596588134765625">
        <ele>1905.800048828125</ele>
        <time>2026-06-20T06:48:54.000Z</time>
        <extensions>
          <ns3:TrackPointExtension>
            <ns3:atemp>23.0</ns3:atemp>
          </ns3:TrackPointExtension>
        </extensions>
      </trkpt>
      <trkpt lat="42.54433572292327880859375" lon="20.11845127679407596588134765625">
        <ele>1905.800048828125</ele>
        <time>2026-06-20T06:48:55.000Z</time>
        <extensions>
          <ns3:TrackPointExtension>
            <ns3:atemp>23.0</ns3:atemp>
          </ns3:TrackPointExtension>
        </extensions>
      </trkpt>
      <trkpt lat="42.54433572292327880859375" lon="20.11845127679407596588134765625">
        <ele>1905.800048828125</ele>
        <time>2026-06-20T06:48:56.000Z</time>
        <extensions>
          <ns3:TrackPointExtension>
            <ns3:atemp>23.0</ns3:atemp>
          </ns3:TrackPointExtension>
        </extensions>
      </trkpt>
      <trkpt lat="42.54433572292327880859375" lon="20.11845127679407596588134765625">
        <ele>1905.800048828125</ele>
        <time>2026-06-20T06:48:57.000Z</time>
        <extensions>
          <ns3:TrackPointExtension>
            <ns3:atemp>23.0</ns3:atemp>
          </ns3:TrackPointExtension>
        </extensions>
      </trkpt>
      <trkpt lat="42.54433572292327880859375" lon="20.11845127679407596588134765625">
        <ele>1905.800048828125</ele>
        <time>2026-06-20T06:48:58.000Z</time>
        <extensions>
          <ns3:TrackPointExtension>
            <ns3:atemp>23.0</ns3:atemp>
          </ns3:TrackPointExtension>
        </extensions>
      </trkpt>
      <trkpt lat="42.54433572292327880859375" lon="20.11845127679407596588134765625">
        <ele>1905.800048828125</ele>
        <time>2026-06-20T06:48:59.000Z</time>
        <extensions>
          <ns3:TrackPointExtension>
            <ns3:atemp>23.0</ns3:atemp>
          </ns3:TrackPointExtension>
        </extensions>
      </trkpt>
      <trkpt lat="42.54433572292327880859375" lon="20.11845127679407596588134765625">
        <ele>1905.800048828125</ele>
        <time>2026-06-20T06:49:00.000Z</time>
        <extensions>
          <ns3:TrackPointExtension>
            <ns3:atemp>23.0</ns3:atemp>
          </ns3:TrackPointExtension>
        </extensions>
      </trkpt>
      <trkpt lat="42.54433572292327880859375" lon="20.11845127679407596588134765625">
        <ele>1905.800048828125</ele>
        <time>2026-06-20T06:49:01.000Z</time>
        <extensions>
          <ns3:TrackPointExtension>
            <ns3:atemp>23.0</ns3:atemp>
          </ns3:TrackPointExtension>
        </extensions>
      </trkpt>
      <trkpt lat="42.54433572292327880859375" lon="20.11845127679407596588134765625">
        <ele>1905.800048828125</ele>
        <time>2026-06-20T06:49:02.000Z</time>
        <extensions>
          <ns3:TrackPointExtension>
            <ns3:atemp>23.0</ns3:atemp>
          </ns3:TrackPointExtension>
        </extensions>
      </trkpt>
      <trkpt lat="42.54433572292327880859375" lon="20.11845127679407596588134765625">
        <ele>1905.800048828125</ele>
        <time>2026-06-20T06:49:03.000Z</time>
        <extensions>
          <ns3:TrackPointExtension>
            <ns3:atemp>23.0</ns3:atemp>
          </ns3:TrackPointExtension>
        </extensions>
      </trkpt>
      <trkpt lat="42.54433572292327880859375" lon="20.11845127679407596588134765625">
        <ele>1905.800048828125</ele>
        <time>2026-06-20T06:49:04.000Z</time>
        <extensions>
          <ns3:TrackPointExtension>
            <ns3:atemp>23.0</ns3:atemp>
          </ns3:TrackPointExtension>
        </extensions>
      </trkpt>
      <trkpt lat="42.54433572292327880859375" lon="20.11845127679407596588134765625">
        <ele>1905.800048828125</ele>
        <time>2026-06-20T06:49:05.000Z</time>
        <extensions>
          <ns3:TrackPointExtension>
            <ns3:atemp>23.0</ns3:atemp>
          </ns3:TrackPointExtension>
        </extensions>
      </trkpt>
      <trkpt lat="42.54433572292327880859375" lon="20.11845127679407596588134765625">
        <ele>1905.800048828125</ele>
        <time>2026-06-20T06:49:06.000Z</time>
        <extensions>
          <ns3:TrackPointExtension>
            <ns3:atemp>23.0</ns3:atemp>
          </ns3:TrackPointExtension>
        </extensions>
      </trkpt>
      <trkpt lat="42.54433572292327880859375" lon="20.11845127679407596588134765625">
        <ele>1905.800048828125</ele>
        <time>2026-06-20T06:49:07.000Z</time>
        <extensions>
          <ns3:TrackPointExtension>
            <ns3:atemp>23.0</ns3:atemp>
          </ns3:TrackPointExtension>
        </extensions>
      </trkpt>
      <trkpt lat="42.54433572292327880859375" lon="20.11845127679407596588134765625">
        <ele>1905.800048828125</ele>
        <time>2026-06-20T06:49:08.000Z</time>
        <extensions>
          <ns3:TrackPointExtension>
            <ns3:atemp>23.0</ns3:atemp>
          </ns3:TrackPointExtension>
        </extensions>
      </trkpt>
      <trkpt lat="42.54433572292327880859375" lon="20.11845127679407596588134765625">
        <ele>1905.800048828125</ele>
        <time>2026-06-20T06:49:09.000Z</time>
        <extensions>
          <ns3:TrackPointExtension>
            <ns3:atemp>23.0</ns3:atemp>
          </ns3:TrackPointExtension>
        </extensions>
      </trkpt>
      <trkpt lat="42.54433572292327880859375" lon="20.11845127679407596588134765625">
        <ele>1905.800048828125</ele>
        <time>2026-06-20T06:49:10.000Z</time>
        <extensions>
          <ns3:TrackPointExtension>
            <ns3:atemp>23.0</ns3:atemp>
          </ns3:TrackPointExtension>
        </extensions>
      </trkpt>
      <trkpt lat="42.54433572292327880859375" lon="20.11845127679407596588134765625">
        <ele>1905.800048828125</ele>
        <time>2026-06-20T06:49:11.000Z</time>
        <extensions>
          <ns3:TrackPointExtension>
            <ns3:atemp>23.0</ns3:atemp>
          </ns3:TrackPointExtension>
        </extensions>
      </trkpt>
      <trkpt lat="42.54433572292327880859375" lon="20.11845127679407596588134765625">
        <ele>1905.800048828125</ele>
        <time>2026-06-20T06:49:12.000Z</time>
        <extensions>
          <ns3:TrackPointExtension>
            <ns3:atemp>23.0</ns3:atemp>
          </ns3:TrackPointExtension>
        </extensions>
      </trkpt>
      <trkpt lat="42.54433572292327880859375" lon="20.11845127679407596588134765625">
        <ele>1905.800048828125</ele>
        <time>2026-06-20T06:49:13.000Z</time>
        <extensions>
          <ns3:TrackPointExtension>
            <ns3:atemp>23.0</ns3:atemp>
          </ns3:TrackPointExtension>
        </extensions>
      </trkpt>
      <trkpt lat="42.54433572292327880859375" lon="20.11845127679407596588134765625">
        <ele>1905.800048828125</ele>
        <time>2026-06-20T06:49:14.000Z</time>
        <extensions>
          <ns3:TrackPointExtension>
            <ns3:atemp>23.0</ns3:atemp>
          </ns3:TrackPointExtension>
        </extensions>
      </trkpt>
      <trkpt lat="42.54433572292327880859375" lon="20.11845127679407596588134765625">
        <ele>1905.800048828125</ele>
        <time>2026-06-20T06:49:15.000Z</time>
        <extensions>
          <ns3:TrackPointExtension>
            <ns3:atemp>23.0</ns3:atemp>
          </ns3:TrackPointExtension>
        </extensions>
      </trkpt>
      <trkpt lat="42.54433572292327880859375" lon="20.11845127679407596588134765625">
        <ele>1905.800048828125</ele>
        <time>2026-06-20T06:49:16.000Z</time>
        <extensions>
          <ns3:TrackPointExtension>
            <ns3:atemp>23.0</ns3:atemp>
          </ns3:TrackPointExtension>
        </extensions>
      </trkpt>
      <trkpt lat="42.54433572292327880859375" lon="20.11845127679407596588134765625">
        <ele>1905.800048828125</ele>
        <time>2026-06-20T06:49:17.000Z</time>
        <extensions>
          <ns3:TrackPointExtension>
            <ns3:atemp>23.0</ns3:atemp>
          </ns3:TrackPointExtension>
        </extensions>
      </trkpt>
      <trkpt lat="42.54433572292327880859375" lon="20.11845127679407596588134765625">
        <ele>1905.800048828125</ele>
        <time>2026-06-20T06:49:18.000Z</time>
        <extensions>
          <ns3:TrackPointExtension>
            <ns3:atemp>23.0</ns3:atemp>
          </ns3:TrackPointExtension>
        </extensions>
      </trkpt>
      <trkpt lat="42.54433572292327880859375" lon="20.11845127679407596588134765625">
        <ele>1905.800048828125</ele>
        <time>2026-06-20T06:49:19.000Z</time>
        <extensions>
          <ns3:TrackPointExtension>
            <ns3:atemp>23.0</ns3:atemp>
          </ns3:TrackPointExtension>
        </extensions>
      </trkpt>
      <trkpt lat="42.54433572292327880859375" lon="20.11845127679407596588134765625">
        <ele>1905.800048828125</ele>
        <time>2026-06-20T06:49:20.000Z</time>
        <extensions>
          <ns3:TrackPointExtension>
            <ns3:atemp>23.0</ns3:atemp>
          </ns3:TrackPointExtension>
        </extensions>
      </trkpt>
      <trkpt lat="42.54433572292327880859375" lon="20.11845127679407596588134765625">
        <ele>1905.800048828125</ele>
        <time>2026-06-20T06:49:21.000Z</time>
        <extensions>
          <ns3:TrackPointExtension>
            <ns3:atemp>23.0</ns3:atemp>
          </ns3:TrackPointExtension>
        </extensions>
      </trkpt>
      <trkpt lat="42.54433572292327880859375" lon="20.11845127679407596588134765625">
        <ele>1905.800048828125</ele>
        <time>2026-06-20T06:49:22.000Z</time>
        <extensions>
          <ns3:TrackPointExtension>
            <ns3:atemp>23.0</ns3:atemp>
          </ns3:TrackPointExtension>
        </extensions>
      </trkpt>
      <trkpt lat="42.54433572292327880859375" lon="20.11845127679407596588134765625">
        <ele>1905.800048828125</ele>
        <time>2026-06-20T06:49:23.000Z</time>
        <extensions>
          <ns3:TrackPointExtension>
            <ns3:atemp>23.0</ns3:atemp>
          </ns3:TrackPointExtension>
        </extensions>
      </trkpt>
      <trkpt lat="42.54433572292327880859375" lon="20.11845127679407596588134765625">
        <ele>1905.800048828125</ele>
        <time>2026-06-20T06:49:24.000Z</time>
        <extensions>
          <ns3:TrackPointExtension>
            <ns3:atemp>23.0</ns3:atemp>
          </ns3:TrackPointExtension>
        </extensions>
      </trkpt>
      <trkpt lat="42.54433572292327880859375" lon="20.11845127679407596588134765625">
        <ele>1905.800048828125</ele>
        <time>2026-06-20T06:49:25.000Z</time>
        <extensions>
          <ns3:TrackPointExtension>
            <ns3:atemp>23.0</ns3:atemp>
          </ns3:TrackPointExtension>
        </extensions>
      </trkpt>
      <trkpt lat="42.54433572292327880859375" lon="20.11845127679407596588134765625">
        <ele>1905.800048828125</ele>
        <time>2026-06-20T06:49:26.000Z</time>
        <extensions>
          <ns3:TrackPointExtension>
            <ns3:atemp>23.0</ns3:atemp>
          </ns3:TrackPointExtension>
        </extensions>
      </trkpt>
      <trkpt lat="42.54433572292327880859375" lon="20.11845127679407596588134765625">
        <ele>1905.800048828125</ele>
        <time>2026-06-20T06:49:27.000Z</time>
        <extensions>
          <ns3:TrackPointExtension>
            <ns3:atemp>23.0</ns3:atemp>
          </ns3:TrackPointExtension>
        </extensions>
      </trkpt>
      <trkpt lat="42.54433572292327880859375" lon="20.11845127679407596588134765625">
        <ele>1905.800048828125</ele>
        <time>2026-06-20T06:49:28.000Z</time>
        <extensions>
          <ns3:TrackPointExtension>
            <ns3:atemp>23.0</ns3:atemp>
          </ns3:TrackPointExtension>
        </extensions>
      </trkpt>
      <trkpt lat="42.54433572292327880859375" lon="20.11845127679407596588134765625">
        <ele>1905.800048828125</ele>
        <time>2026-06-20T06:49:29.000Z</time>
        <extensions>
          <ns3:TrackPointExtension>
            <ns3:atemp>23.0</ns3:atemp>
          </ns3:TrackPointExtension>
        </extensions>
      </trkpt>
      <trkpt lat="42.54433572292327880859375" lon="20.11845127679407596588134765625">
        <ele>1905.800048828125</ele>
        <time>2026-06-20T06:49:30.000Z</time>
        <extensions>
          <ns3:TrackPointExtension>
            <ns3:atemp>23.0</ns3:atemp>
          </ns3:TrackPointExtension>
        </extensions>
      </trkpt>
      <trkpt lat="42.54433572292327880859375" lon="20.11845127679407596588134765625">
        <ele>1905.800048828125</ele>
        <time>2026-06-20T06:49:31.000Z</time>
        <extensions>
          <ns3:TrackPointExtension>
            <ns3:atemp>23.0</ns3:atemp>
          </ns3:TrackPointExtension>
        </extensions>
      </trkpt>
      <trkpt lat="42.54433572292327880859375" lon="20.11845127679407596588134765625">
        <ele>1905.800048828125</ele>
        <time>2026-06-20T06:49:32.000Z</time>
        <extensions>
          <ns3:TrackPointExtension>
            <ns3:atemp>23.0</ns3:atemp>
          </ns3:TrackPointExtension>
        </extensions>
      </trkpt>
      <trkpt lat="42.54433572292327880859375" lon="20.11845127679407596588134765625">
        <ele>1905.800048828125</ele>
        <time>2026-06-20T06:49:33.000Z</time>
        <extensions>
          <ns3:TrackPointExtension>
            <ns3:atemp>23.0</ns3:atemp>
          </ns3:TrackPointExtension>
        </extensions>
      </trkpt>
      <trkpt lat="42.54433572292327880859375" lon="20.11845127679407596588134765625">
        <ele>1905.800048828125</ele>
        <time>2026-06-20T06:49:34.000Z</time>
        <extensions>
          <ns3:TrackPointExtension>
            <ns3:atemp>23.0</ns3:atemp>
          </ns3:TrackPointExtension>
        </extensions>
      </trkpt>
      <trkpt lat="42.54433572292327880859375" lon="20.11845127679407596588134765625">
        <ele>1905.800048828125</ele>
        <time>2026-06-20T06:49:35.000Z</time>
        <extensions>
          <ns3:TrackPointExtension>
            <ns3:atemp>23.0</ns3:atemp>
          </ns3:TrackPointExtension>
        </extensions>
      </trkpt>
      <trkpt lat="42.54433572292327880859375" lon="20.11845127679407596588134765625">
        <ele>1905.800048828125</ele>
        <time>2026-06-20T06:49:36.000Z</time>
        <extensions>
          <ns3:TrackPointExtension>
            <ns3:atemp>23.0</ns3:atemp>
          </ns3:TrackPointExtension>
        </extensions>
      </trkpt>
      <trkpt lat="42.54433572292327880859375" lon="20.11845127679407596588134765625">
        <ele>1905.800048828125</ele>
        <time>2026-06-20T06:49:37.000Z</time>
        <extensions>
          <ns3:TrackPointExtension>
            <ns3:atemp>23.0</ns3:atemp>
          </ns3:TrackPointExtension>
        </extensions>
      </trkpt>
      <trkpt lat="42.544338405132293701171875" lon="20.118454210460186004638671875">
        <ele>1905.800048828125</ele>
        <time>2026-06-20T06:49:38.000Z</time>
        <extensions>
          <ns3:TrackPointExtension>
            <ns3:atemp>23.0</ns3:atemp>
          </ns3:TrackPointExtension>
        </extensions>
      </trkpt>
      <trkpt lat="42.54433572292327880859375" lon="20.11845127679407596588134765625">
        <ele>1905.800048828125</ele>
        <time>2026-06-20T06:49:39.000Z</time>
        <extensions>
          <ns3:TrackPointExtension>
            <ns3:atemp>23.0</ns3:atemp>
          </ns3:TrackPointExtension>
        </extensions>
      </trkpt>
      <trkpt lat="42.5443432666361331939697265625" lon="20.1184657774865627288818359375">
        <ele>1905.800048828125</ele>
        <time>2026-06-20T06:49:40.000Z</time>
        <extensions>
          <ns3:TrackPointExtension>
            <ns3:atemp>23.0</ns3:atemp>
          </ns3:TrackPointExtension>
        </extensions>
      </trkpt>
      <trkpt lat="42.5443432666361331939697265625" lon="20.1184751652181148529052734375">
        <ele>1905.800048828125</ele>
        <time>2026-06-20T06:49:41.000Z</time>
        <extensions>
          <ns3:TrackPointExtension>
            <ns3:atemp>23.0</ns3:atemp>
          </ns3:TrackPointExtension>
        </extensions>
      </trkpt>
      <trkpt lat="42.54434318281710147857666015625" lon="20.11847927235066890716552734375">
        <ele>1905.800048828125</ele>
        <time>2026-06-20T06:49:42.000Z</time>
        <extensions>
          <ns3:TrackPointExtension>
            <ns3:atemp>23.0</ns3:atemp>
          </ns3:TrackPointExtension>
        </extensions>
      </trkpt>
      <trkpt lat="42.54434309899806976318359375" lon="20.11847935616970062255859375">
        <ele>1905.800048828125</ele>
        <time>2026-06-20T06:49:43.000Z</time>
        <extensions>
          <ns3:TrackPointExtension>
            <ns3:atemp>23.0</ns3:atemp>
          </ns3:TrackPointExtension>
        </extensions>
      </trkpt>
      <trkpt lat="42.54434309899806976318359375" lon="20.11847935616970062255859375">
        <ele>1905.800048828125</ele>
        <time>2026-06-20T06:49:44.000Z</time>
        <extensions>
          <ns3:TrackPointExtension>
            <ns3:atemp>23.0</ns3:atemp>
          </ns3:TrackPointExtension>
        </extensions>
      </trkpt>
      <trkpt lat="42.54434309899806976318359375" lon="20.11847935616970062255859375">
        <ele>1905.800048828125</ele>
        <time>2026-06-20T06:49:45.000Z</time>
        <extensions>
          <ns3:TrackPointExtension>
            <ns3:atemp>23.0</ns3:atemp>
          </ns3:TrackPointExtension>
        </extensions>
      </trkpt>
      <trkpt lat="42.54434309899806976318359375" lon="20.11847935616970062255859375">
        <ele>1905.800048828125</ele>
        <time>2026-06-20T06:49:46.000Z</time>
        <extensions>
          <ns3:TrackPointExtension>
            <ns3:atemp>23.0</ns3:atemp>
          </ns3:TrackPointExtension>
        </extensions>
      </trkpt>
      <trkpt lat="42.54434309899806976318359375" lon="20.11847935616970062255859375">
        <ele>1905.800048828125</ele>
        <time>2026-06-20T06:49:47.000Z</time>
        <extensions>
          <ns3:TrackPointExtension>
            <ns3:atemp>23.0</ns3:atemp>
          </ns3:TrackPointExtension>
        </extensions>
      </trkpt>
      <trkpt lat="42.54434309899806976318359375" lon="20.11847935616970062255859375">
        <ele>1905.800048828125</ele>
        <time>2026-06-20T06:49:48.000Z</time>
        <extensions>
          <ns3:TrackPointExtension>
            <ns3:atemp>23.0</ns3:atemp>
          </ns3:TrackPointExtension>
        </extensions>
      </trkpt>
      <trkpt lat="42.54434309899806976318359375" lon="20.11847935616970062255859375">
        <ele>1905.800048828125</ele>
        <time>2026-06-20T06:49:49.000Z</time>
        <extensions>
          <ns3:TrackPointExtension>
            <ns3:atemp>23.0</ns3:atemp>
          </ns3:TrackPointExtension>
        </extensions>
      </trkpt>
      <trkpt lat="42.54434309899806976318359375" lon="20.11847935616970062255859375">
        <ele>1905.800048828125</ele>
        <time>2026-06-20T06:49:50.000Z</time>
        <extensions>
          <ns3:TrackPointExtension>
            <ns3:atemp>23.0</ns3:atemp>
          </ns3:TrackPointExtension>
        </extensions>
      </trkpt>
      <trkpt lat="42.5443429313600063323974609375" lon="20.1184812001883983612060546875">
        <ele>1905.800048828125</ele>
        <time>2026-06-20T06:49:51.000Z</time>
        <extensions>
          <ns3:TrackPointExtension>
            <ns3:atemp>23.0</ns3:atemp>
          </ns3:TrackPointExtension>
        </extensions>
      </trkpt>
      <trkpt lat="42.54434603266417980194091796875" lon="20.1184979639947414398193359375">
        <ele>1905.800048828125</ele>
        <time>2026-06-20T06:49:52.000Z</time>
        <extensions>
          <ns3:TrackPointExtension>
            <ns3:atemp>23.0</ns3:atemp>
          </ns3:TrackPointExtension>
        </extensions>
      </trkpt>
      <trkpt lat="42.5443496368825435638427734375" lon="20.1185036636888980865478515625">
        <ele>1905.800048828125</ele>
        <time>2026-06-20T06:49:53.000Z</time>
        <extensions>
          <ns3:TrackPointExtension>
            <ns3:atemp>23.0</ns3:atemp>
          </ns3:TrackPointExtension>
        </extensions>
      </trkpt>
      <trkpt lat="42.5443531572818756103515625" lon="20.11851414106786251068115234375">
        <ele>1905.800048828125</ele>
        <time>2026-06-20T06:49:54.000Z</time>
        <extensions>
          <ns3:TrackPointExtension>
            <ns3:atemp>23.0</ns3:atemp>
          </ns3:TrackPointExtension>
        </extensions>
      </trkpt>
      <trkpt lat="42.5443586893379688262939453125" lon="20.1185237802565097808837890625">
        <ele>1905.800048828125</ele>
        <time>2026-06-20T06:49:55.000Z</time>
        <extensions>
          <ns3:TrackPointExtension>
            <ns3:atemp>23.0</ns3:atemp>
          </ns3:TrackPointExtension>
        </extensions>
      </trkpt>
      <trkpt lat="42.54436162300407886505126953125" lon="20.11852922849357128143310546875">
        <ele>1905.800048828125</ele>
        <time>2026-06-20T06:49:56.000Z</time>
        <extensions>
          <ns3:TrackPointExtension>
            <ns3:atemp>23.0</ns3:atemp>
          </ns3:TrackPointExtension>
        </extensions>
      </trkpt>
      <trkpt lat="42.5443650595843791961669921875" lon="20.1185284741222858428955078125">
        <ele>1905.800048828125</ele>
        <time>2026-06-20T06:49:57.000Z</time>
        <extensions>
          <ns3:TrackPointExtension>
            <ns3:atemp>23.0</ns3:atemp>
          </ns3:TrackPointExtension>
        </extensions>
      </trkpt>
      <trkpt lat="42.54436648450791835784912109375" lon="20.1185351796448230743408203125">
        <ele>1905.800048828125</ele>
        <time>2026-06-20T06:49:58.000Z</time>
        <extensions>
          <ns3:TrackPointExtension>
            <ns3:atemp>23.0</ns3:atemp>
          </ns3:TrackPointExtension>
        </extensions>
      </trkpt>
      <trkpt lat="42.54436950199306011199951171875" lon="20.11854381300508975982666015625">
        <ele>1905.800048828125</ele>
        <time>2026-06-20T06:49:59.000Z</time>
        <extensions>
          <ns3:TrackPointExtension>
            <ns3:atemp>23.0</ns3:atemp>
          </ns3:TrackPointExtension>
        </extensions>
      </trkpt>
      <trkpt lat="42.54436966963112354278564453125" lon="20.1185512728989124298095703125">
        <ele>1905.800048828125</ele>
        <time>2026-06-20T06:50:00.000Z</time>
        <extensions>
          <ns3:TrackPointExtension>
            <ns3:atemp>23.0</ns3:atemp>
          </ns3:TrackPointExtension>
        </extensions>
      </trkpt>
      <trkpt lat="42.5443690828979015350341796875" lon="20.118552781641483306884765625">
        <ele>1905.800048828125</ele>
        <time>2026-06-20T06:50:01.000Z</time>
        <extensions>
          <ns3:TrackPointExtension>
            <ns3:atemp>23.0</ns3:atemp>
          </ns3:TrackPointExtension>
        </extensions>
      </trkpt>
      <trkpt lat="42.5443690828979015350341796875" lon="20.1185526140034198760986328125">
        <ele>1905.800048828125</ele>
        <time>2026-06-20T06:50:02.000Z</time>
        <extensions>
          <ns3:TrackPointExtension>
            <ns3:atemp>23.0</ns3:atemp>
          </ns3:TrackPointExtension>
        </extensions>
      </trkpt>
      <trkpt lat="42.54436899907886981964111328125" lon="20.11855253018438816070556640625">
        <ele>1905.800048828125</ele>
        <time>2026-06-20T06:50:03.000Z</time>
        <extensions>
          <ns3:TrackPointExtension>
            <ns3:atemp>23.0</ns3:atemp>
          </ns3:TrackPointExtension>
        </extensions>
      </trkpt>
      <trkpt lat="42.5443690828979015350341796875" lon="20.1185526140034198760986328125">
        <ele>1905.800048828125</ele>
        <time>2026-06-20T06:50:04.000Z</time>
        <extensions>
          <ns3:TrackPointExtension>
            <ns3:atemp>23.0</ns3:atemp>
          </ns3:TrackPointExtension>
        </extensions>
      </trkpt>
      <trkpt lat="42.5443690828979015350341796875" lon="20.1185526140034198760986328125">
        <ele>1905.800048828125</ele>
        <time>2026-06-20T06:50:05.000Z</time>
        <extensions>
          <ns3:TrackPointExtension>
            <ns3:atemp>23.0</ns3:atemp>
          </ns3:TrackPointExtension>
        </extensions>
      </trkpt>
      <trkpt lat="42.5443690828979015350341796875" lon="20.1185526140034198760986328125">
        <ele>1905.800048828125</ele>
        <time>2026-06-20T06:50:06.000Z</time>
        <extensions>
          <ns3:TrackPointExtension>
            <ns3:atemp>23.0</ns3:atemp>
          </ns3:TrackPointExtension>
        </extensions>
      </trkpt>
      <trkpt lat="42.5443690828979015350341796875" lon="20.1185526140034198760986328125">
        <ele>1905.800048828125</ele>
        <time>2026-06-20T06:50:07.000Z</time>
        <extensions>
          <ns3:TrackPointExtension>
            <ns3:atemp>23.0</ns3:atemp>
          </ns3:TrackPointExtension>
        </extensions>
      </trkpt>
      <trkpt lat="42.5443690828979015350341796875" lon="20.1185526140034198760986328125">
        <ele>1905.800048828125</ele>
        <time>2026-06-20T06:50:08.000Z</time>
        <extensions>
          <ns3:TrackPointExtension>
            <ns3:atemp>23.0</ns3:atemp>
          </ns3:TrackPointExtension>
        </extensions>
      </trkpt>
      <trkpt lat="42.5443690828979015350341796875" lon="20.1185526140034198760986328125">
        <ele>1905.800048828125</ele>
        <time>2026-06-20T06:50:09.000Z</time>
        <extensions>
          <ns3:TrackPointExtension>
            <ns3:atemp>23.0</ns3:atemp>
          </ns3:TrackPointExtension>
        </extensions>
      </trkpt>
      <trkpt lat="42.544367574155330657958984375" lon="20.1185475848615169525146484375">
        <ele>1905.800048828125</ele>
        <time>2026-06-20T06:50:10.000Z</time>
        <extensions>
          <ns3:TrackPointExtension>
            <ns3:atemp>23.0</ns3:atemp>
          </ns3:TrackPointExtension>
        </extensions>
      </trkpt>
      <trkpt lat="42.544366903603076934814453125" lon="20.1185405440628528594970703125">
        <ele>1905.800048828125</ele>
        <time>2026-06-20T06:50:11.000Z</time>
        <extensions>
          <ns3:TrackPointExtension>
            <ns3:atemp>23.0</ns3:atemp>
          </ns3:TrackPointExtension>
        </extensions>
      </trkpt>
      <trkpt lat="42.5443690828979015350341796875" lon="20.11854615993797779083251953125">
        <ele>1905.800048828125</ele>
        <time>2026-06-20T06:50:12.000Z</time>
        <extensions>
          <ns3:TrackPointExtension>
            <ns3:atemp>23.0</ns3:atemp>
          </ns3:TrackPointExtension>
        </extensions>
      </trkpt>
      <trkpt lat="42.5443660654127597808837890625" lon="20.11855420656502246856689453125">
        <ele>1905.800048828125</ele>
        <time>2026-06-20T06:50:13.000Z</time>
        <extensions>
          <ns3:TrackPointExtension>
            <ns3:atemp>23.0</ns3:atemp>
          </ns3:TrackPointExtension>
        </extensions>
      </trkpt>
      <trkpt lat="42.5443690828979015350341796875" lon="20.1185526140034198760986328125">
        <ele>1905.800048828125</ele>
        <time>2026-06-20T06:50:14.000Z</time>
        <extensions>
          <ns3:TrackPointExtension>
            <ns3:atemp>23.0</ns3:atemp>
          </ns3:TrackPointExtension>
        </extensions>
      </trkpt>
      <trkpt lat="42.5443690828979015350341796875" lon="20.1185526140034198760986328125">
        <ele>1905.800048828125</ele>
        <time>2026-06-20T06:50:15.000Z</time>
        <extensions>
          <ns3:TrackPointExtension>
            <ns3:atemp>23.0</ns3:atemp>
          </ns3:TrackPointExtension>
        </extensions>
      </trkpt>
      <trkpt lat="42.5443690828979015350341796875" lon="20.1185526140034198760986328125">
        <ele>1905.800048828125</ele>
        <time>2026-06-20T06:50:16.000Z</time>
        <extensions>
          <ns3:TrackPointExtension>
            <ns3:atemp>23.0</ns3:atemp>
          </ns3:TrackPointExtension>
        </extensions>
      </trkpt>
      <trkpt lat="42.5443638861179351806640625" lon="20.11855621822178363800048828125">
        <ele>1905.800048828125</ele>
        <time>2026-06-20T06:50:17.000Z</time>
        <extensions>
          <ns3:TrackPointExtension>
            <ns3:atemp>23.0</ns3:atemp>
          </ns3:TrackPointExtension>
        </extensions>
      </trkpt>
      <trkpt lat="42.54437050782144069671630859375" lon="20.1185506023466587066650390625">
        <ele>1905.800048828125</ele>
        <time>2026-06-20T06:50:18.000Z</time>
        <extensions>
          <ns3:TrackPointExtension>
            <ns3:atemp>23.0</ns3:atemp>
          </ns3:TrackPointExtension>
        </extensions>
      </trkpt>
      <trkpt lat="42.54437126219272613525390625" lon="20.11854280717670917510986328125">
        <ele>1905.800048828125</ele>
        <time>2026-06-20T06:50:19.000Z</time>
        <extensions>
          <ns3:TrackPointExtension>
            <ns3:atemp>23.0</ns3:atemp>
          </ns3:TrackPointExtension>
        </extensions>
      </trkpt>
      <trkpt lat="42.5443677417933940887451171875" lon="20.11853434145450592041015625">
        <ele>1905.800048828125</ele>
        <time>2026-06-20T06:50:20.000Z</time>
        <extensions>
          <ns3:TrackPointExtension>
            <ns3:atemp>23.0</ns3:atemp>
          </ns3:TrackPointExtension>
        </extensions>
      </trkpt>
      <trkpt lat="42.544364891946315765380859375" lon="20.11852562427520751953125">
        <ele>1905.800048828125</ele>
        <time>2026-06-20T06:50:21.000Z</time>
        <extensions>
          <ns3:TrackPointExtension>
            <ns3:atemp>23.0</ns3:atemp>
          </ns3:TrackPointExtension>
        </extensions>
      </trkpt>
      <trkpt lat="42.544358186423778533935546875" lon="20.11852352879941463470458984375">
        <ele>1905.800048828125</ele>
        <time>2026-06-20T06:50:22.000Z</time>
        <extensions>
          <ns3:TrackPointExtension>
            <ns3:atemp>23.0</ns3:atemp>
          </ns3:TrackPointExtension>
        </extensions>
      </trkpt>
      <trkpt lat="42.54435407929122447967529296875" lon="20.11851246468722820281982421875">
        <ele>1905.800048828125</ele>
        <time>2026-06-20T06:50:23.000Z</time>
        <extensions>
          <ns3:TrackPointExtension>
            <ns3:atemp>23.0</ns3:atemp>
          </ns3:TrackPointExtension>
        </extensions>
      </trkpt>
      <trkpt lat="42.544354163110256195068359375" lon="20.118497125804424285888671875">
        <ele>1906.199951171875</ele>
        <time>2026-06-20T06:50:24.000Z</time>
        <extensions>
          <ns3:TrackPointExtension>
            <ns3:atemp>23.0</ns3:atemp>
          </ns3:TrackPointExtension>
        </extensions>
      </trkpt>
      <trkpt lat="42.544350139796733856201171875" lon="20.1184936054050922393798828125">
        <ele>1906</ele>
        <time>2026-06-20T06:50:25.000Z</time>
        <extensions>
          <ns3:TrackPointExtension>
            <ns3:atemp>23.0</ns3:atemp>
          </ns3:TrackPointExtension>
        </extensions>
      </trkpt>
      <trkpt lat="42.54434368573129177093505859375" lon="20.11849150992929935455322265625">
        <ele>1905.800048828125</ele>
        <time>2026-06-20T06:50:26.000Z</time>
        <extensions>
          <ns3:TrackPointExtension>
            <ns3:atemp>23.0</ns3:atemp>
          </ns3:TrackPointExtension>
        </extensions>
      </trkpt>
      <trkpt lat="42.5443425960838794708251953125" lon="20.11849343776702880859375">
        <ele>1905.800048828125</ele>
        <time>2026-06-20T06:50:27.000Z</time>
        <extensions>
          <ns3:TrackPointExtension>
            <ns3:atemp>23.0</ns3:atemp>
          </ns3:TrackPointExtension>
        </extensions>
      </trkpt>
      <trkpt lat="42.5443425960838794708251953125" lon="20.1184932701289653778076171875">
        <ele>1905.800048828125</ele>
        <time>2026-06-20T06:50:28.000Z</time>
        <extensions>
          <ns3:TrackPointExtension>
            <ns3:atemp>23.0</ns3:atemp>
          </ns3:TrackPointExtension>
        </extensions>
      </trkpt>
      <trkpt lat="42.5443424284458160400390625" lon="20.11849301867187023162841796875">
        <ele>1905.800048828125</ele>
        <time>2026-06-20T06:50:29.000Z</time>
        <extensions>
          <ns3:TrackPointExtension>
            <ns3:atemp>23.0</ns3:atemp>
          </ns3:TrackPointExtension>
        </extensions>
      </trkpt>
      <trkpt lat="42.54433178342878818511962890625" lon="20.11849184520542621612548828125">
        <ele>1905.800048828125</ele>
        <time>2026-06-20T06:50:30.000Z</time>
        <extensions>
          <ns3:TrackPointExtension>
            <ns3:atemp>23.0</ns3:atemp>
          </ns3:TrackPointExtension>
        </extensions>
      </trkpt>
      <trkpt lat="42.54432356916368007659912109375" lon="20.11848949827253818511962890625">
        <ele>1905.800048828125</ele>
        <time>2026-06-20T06:50:31.000Z</time>
        <extensions>
          <ns3:TrackPointExtension>
            <ns3:atemp>23.0</ns3:atemp>
          </ns3:TrackPointExtension>
        </extensions>
      </trkpt>
      <trkpt lat="42.54432423971593379974365234375" lon="20.1184920966625213623046875">
        <ele>1906</ele>
        <time>2026-06-20T06:50:32.000Z</time>
        <extensions>
          <ns3:TrackPointExtension>
            <ns3:atemp>23.0</ns3:atemp>
          </ns3:TrackPointExtension>
        </extensions>
      </trkpt>
      <trkpt lat="42.54432407207787036895751953125" lon="20.11849218048155307769775390625">
        <ele>1906</ele>
        <time>2026-06-20T06:50:33.000Z</time>
        <extensions>
          <ns3:TrackPointExtension>
            <ns3:atemp>22.0</ns3:atemp>
          </ns3:TrackPointExtension>
        </extensions>
      </trkpt>
      <trkpt lat="42.544323988258838653564453125" lon="20.11849234811961650848388671875">
        <ele>1906</ele>
        <time>2026-06-20T06:50:34.000Z</time>
        <extensions>
          <ns3:TrackPointExtension>
            <ns3:atemp>23.0</ns3:atemp>
          </ns3:TrackPointExtension>
        </extensions>
      </trkpt>
      <trkpt lat="42.54431552253663539886474609375" lon="20.11850173585116863250732421875">
        <ele>1906</ele>
        <time>2026-06-20T06:50:35.000Z</time>
        <extensions>
          <ns3:TrackPointExtension>
            <ns3:atemp>23.0</ns3:atemp>
          </ns3:TrackPointExtension>
        </extensions>
      </trkpt>
      <trkpt lat="42.54431317560374736785888671875" lon="20.11850860901176929473876953125">
        <ele>1906.199951171875</ele>
        <time>2026-06-20T06:50:36.000Z</time>
        <extensions>
          <ns3:TrackPointExtension>
            <ns3:atemp>22.0</ns3:atemp>
          </ns3:TrackPointExtension>
        </extensions>
      </trkpt>
      <trkpt lat="42.54431233741343021392822265625" lon="20.11850743554532527923583984375">
        <ele>1906.199951171875</ele>
        <time>2026-06-20T06:50:37.000Z</time>
        <extensions>
          <ns3:TrackPointExtension>
            <ns3:atemp>22.0</ns3:atemp>
          </ns3:TrackPointExtension>
        </extensions>
      </trkpt>
      <trkpt lat="42.54431233741343021392822265625" lon="20.11850751936435699462890625">
        <ele>1906.199951171875</ele>
        <time>2026-06-20T06:50:38.000Z</time>
        <extensions>
          <ns3:TrackPointExtension>
            <ns3:atemp>22.0</ns3:atemp>
          </ns3:TrackPointExtension>
        </extensions>
      </trkpt>
      <trkpt lat="42.54431233741343021392822265625" lon="20.11850751936435699462890625">
        <ele>1906.4000244140625</ele>
        <time>2026-06-20T06:50:39.000Z</time>
        <extensions>
          <ns3:TrackPointExtension>
            <ns3:atemp>22.0</ns3:atemp>
          </ns3:TrackPointExtension>
        </extensions>
      </trkpt>
      <trkpt lat="42.54431233741343021392822265625" lon="20.11850751936435699462890625">
        <ele>1906.4000244140625</ele>
        <time>2026-06-20T06:50:40.000Z</time>
        <extensions>
          <ns3:TrackPointExtension>
            <ns3:atemp>22.0</ns3:atemp>
          </ns3:TrackPointExtension>
        </extensions>
      </trkpt>
      <trkpt lat="42.54431216977536678314208984375" lon="20.11850777082145214080810546875">
        <ele>1906.4000244140625</ele>
        <time>2026-06-20T06:50:41.000Z</time>
        <extensions>
          <ns3:TrackPointExtension>
            <ns3:atemp>22.0</ns3:atemp>
          </ns3:TrackPointExtension>
        </extensions>
      </trkpt>
      <trkpt lat="42.54430823028087615966796875" lon="20.118517577648162841796875">
        <ele>1906.4000244140625</ele>
        <time>2026-06-20T06:50:42.000Z</time>
        <extensions>
          <ns3:TrackPointExtension>
            <ns3:atemp>22.0</ns3:atemp>
          </ns3:TrackPointExtension>
        </extensions>
      </trkpt>
      <trkpt lat="42.54430563189089298248291015625" lon="20.11852419935166835784912109375">
        <ele>1906.4000244140625</ele>
        <time>2026-06-20T06:50:43.000Z</time>
        <extensions>
          <ns3:TrackPointExtension>
            <ns3:atemp>22.0</ns3:atemp>
          </ns3:TrackPointExtension>
        </extensions>
      </trkpt>
      <trkpt lat="42.544301860034465789794921875" lon="20.11852629482746124267578125">
        <ele>1906.4000244140625</ele>
        <time>2026-06-20T06:50:44.000Z</time>
        <extensions>
          <ns3:TrackPointExtension>
            <ns3:atemp>22.0</ns3:atemp>
          </ns3:TrackPointExtension>
        </extensions>
      </trkpt>
      <trkpt lat="42.544299848377704620361328125" lon="20.1185348443686962127685546875">
        <ele>1906.4000244140625</ele>
        <time>2026-06-20T06:50:45.000Z</time>
        <extensions>
          <ns3:TrackPointExtension>
            <ns3:atemp>22.0</ns3:atemp>
          </ns3:TrackPointExtension>
        </extensions>
      </trkpt>
      <trkpt lat="42.5442956574261188507080078125" lon="20.11854515410959720611572265625">
        <ele>1906.5999755859375</ele>
        <time>2026-06-20T06:50:46.000Z</time>
        <extensions>
          <ns3:TrackPointExtension>
            <ns3:atemp>22.0</ns3:atemp>
          </ns3:TrackPointExtension>
        </extensions>
      </trkpt>
      <trkpt lat="42.5442923046648502349853515625" lon="20.1185489259660243988037109375">
        <ele>1906.5999755859375</ele>
        <time>2026-06-20T06:50:47.000Z</time>
        <extensions>
          <ns3:TrackPointExtension>
            <ns3:atemp>22.0</ns3:atemp>
          </ns3:TrackPointExtension>
        </extensions>
      </trkpt>
      <trkpt lat="42.5442923046648502349853515625" lon="20.11854909360408782958984375">
        <ele>1906.800048828125</ele>
        <time>2026-06-20T06:50:48.000Z</time>
        <extensions>
          <ns3:TrackPointExtension>
            <ns3:atemp>22.0</ns3:atemp>
          </ns3:TrackPointExtension>
        </extensions>
      </trkpt>
      <trkpt lat="42.5442923046648502349853515625" lon="20.11854909360408782958984375">
        <ele>1906.800048828125</ele>
        <time>2026-06-20T06:50:49.000Z</time>
        <extensions>
          <ns3:TrackPointExtension>
            <ns3:atemp>22.0</ns3:atemp>
          </ns3:TrackPointExtension>
        </extensions>
      </trkpt>
      <trkpt lat="42.5442923046648502349853515625" lon="20.11854909360408782958984375">
        <ele>1907</ele>
        <time>2026-06-20T06:50:50.000Z</time>
        <extensions>
          <ns3:TrackPointExtension>
            <ns3:atemp>22.0</ns3:atemp>
          </ns3:TrackPointExtension>
        </extensions>
      </trkpt>
      <trkpt lat="42.5442923046648502349853515625" lon="20.11854909360408782958984375">
        <ele>1907</ele>
        <time>2026-06-20T06:50:51.000Z</time>
        <extensions>
          <ns3:TrackPointExtension>
            <ns3:atemp>22.0</ns3:atemp>
          </ns3:TrackPointExtension>
        </extensions>
      </trkpt>
      <trkpt lat="42.5442923046648502349853515625" lon="20.11854909360408782958984375">
        <ele>1907</ele>
        <time>2026-06-20T06:50:52.000Z</time>
        <extensions>
          <ns3:TrackPointExtension>
            <ns3:atemp>22.0</ns3:atemp>
          </ns3:TrackPointExtension>
        </extensions>
      </trkpt>
      <trkpt lat="42.5442923046648502349853515625" lon="20.11854909360408782958984375">
        <ele>1907.199951171875</ele>
        <time>2026-06-20T06:50:53.000Z</time>
        <extensions>
          <ns3:TrackPointExtension>
            <ns3:atemp>22.0</ns3:atemp>
          </ns3:TrackPointExtension>
        </extensions>
      </trkpt>
      <trkpt lat="42.5442923046648502349853515625" lon="20.118550099432468414306640625">
        <ele>1907</ele>
        <time>2026-06-20T06:50:54.000Z</time>
        <extensions>
          <ns3:TrackPointExtension>
            <ns3:atemp>22.0</ns3:atemp>
          </ns3:TrackPointExtension>
        </extensions>
      </trkpt>
      <trkpt lat="42.544290460646152496337890625" lon="20.11856594122946262359619140625">
        <ele>1907</ele>
        <time>2026-06-20T06:50:55.000Z</time>
        <extensions>
          <ns3:TrackPointExtension>
            <ns3:atemp>22.0</ns3:atemp>
          </ns3:TrackPointExtension>
        </extensions>
      </trkpt>
      <trkpt lat="42.5442862696945667266845703125" lon="20.1185801066458225250244140625">
        <ele>1907</ele>
        <time>2026-06-20T06:50:56.000Z</time>
        <extensions>
          <ns3:TrackPointExtension>
            <ns3:atemp>22.0</ns3:atemp>
          </ns3:TrackPointExtension>
        </extensions>
      </trkpt>
      <trkpt lat="42.54428216256201267242431640625" lon="20.1185864768922328948974609375">
        <ele>1907</ele>
        <time>2026-06-20T06:50:57.000Z</time>
        <extensions>
          <ns3:TrackPointExtension>
            <ns3:atemp>22.0</ns3:atemp>
          </ns3:TrackPointExtension>
        </extensions>
      </trkpt>
      <trkpt lat="42.54428333602845668792724609375" lon="20.118585638701915740966796875">
        <ele>1907</ele>
        <time>2026-06-20T06:50:58.000Z</time>
        <extensions>
          <ns3:TrackPointExtension>
            <ns3:atemp>22.0</ns3:atemp>
          </ns3:TrackPointExtension>
        </extensions>
      </trkpt>
      <trkpt lat="42.54428333602845668792724609375" lon="20.1185858063399791717529296875">
        <ele>1907</ele>
        <time>2026-06-20T06:50:59.000Z</time>
        <extensions>
          <ns3:TrackPointExtension>
            <ns3:atemp>22.0</ns3:atemp>
          </ns3:TrackPointExtension>
        </extensions>
      </trkpt>
      <trkpt lat="42.5442832522094249725341796875" lon="20.11858589015901088714599609375">
        <ele>1907</ele>
        <time>2026-06-20T06:51:00.000Z</time>
        <extensions>
          <ns3:TrackPointExtension>
            <ns3:atemp>22.0</ns3:atemp>
          </ns3:TrackPointExtension>
        </extensions>
      </trkpt>
      <trkpt lat="42.54427696578204631805419921875" lon="20.1185938529670238494873046875">
        <ele>1907</ele>
        <time>2026-06-20T06:51:01.000Z</time>
        <extensions>
          <ns3:TrackPointExtension>
            <ns3:atemp>22.0</ns3:atemp>
          </ns3:TrackPointExtension>
        </extensions>
      </trkpt>
      <trkpt lat="42.54428333602845668792724609375" lon="20.1185858063399791717529296875">
        <ele>1907.199951171875</ele>
        <time>2026-06-20T06:51:02.000Z</time>
        <extensions>
          <ns3:TrackPointExtension>
            <ns3:atemp>22.0</ns3:atemp>
          </ns3:TrackPointExtension>
        </extensions>
      </trkpt>
      <trkpt lat="42.54428333602845668792724609375" lon="20.1185858063399791717529296875">
        <ele>1907.199951171875</ele>
        <time>2026-06-20T06:51:03.000Z</time>
        <extensions>
          <ns3:TrackPointExtension>
            <ns3:atemp>22.0</ns3:atemp>
          </ns3:TrackPointExtension>
        </extensions>
      </trkpt>
      <trkpt lat="42.54428333602845668792724609375" lon="20.1185858063399791717529296875">
        <ele>1907.199951171875</ele>
        <time>2026-06-20T06:51:04.000Z</time>
        <extensions>
          <ns3:TrackPointExtension>
            <ns3:atemp>22.0</ns3:atemp>
          </ns3:TrackPointExtension>
        </extensions>
      </trkpt>
      <trkpt lat="42.54428333602845668792724609375" lon="20.1185858063399791717529296875">
        <ele>1907.199951171875</ele>
        <time>2026-06-20T06:51:05.000Z</time>
        <extensions>
          <ns3:TrackPointExtension>
            <ns3:atemp>22.0</ns3:atemp>
          </ns3:TrackPointExtension>
        </extensions>
      </trkpt>
      <trkpt lat="42.5442753732204437255859375" lon="20.118597038090229034423828125">
        <ele>1907.199951171875</ele>
        <time>2026-06-20T06:51:06.000Z</time>
        <extensions>
          <ns3:TrackPointExtension>
            <ns3:atemp>22.0</ns3:atemp>
          </ns3:TrackPointExtension>
        </extensions>
      </trkpt>
      <trkpt lat="42.544273696839809417724609375" lon="20.11860885657370090484619140625">
        <ele>1907.199951171875</ele>
        <time>2026-06-20T06:51:07.000Z</time>
        <extensions>
          <ns3:TrackPointExtension>
            <ns3:atemp>22.0</ns3:atemp>
          </ns3:TrackPointExtension>
        </extensions>
      </trkpt>
      <trkpt lat="42.544273696839809417724609375" lon="20.1186089403927326202392578125">
        <ele>1907.199951171875</ele>
        <time>2026-06-20T06:51:08.000Z</time>
        <extensions>
          <ns3:TrackPointExtension>
            <ns3:atemp>22.0</ns3:atemp>
          </ns3:TrackPointExtension>
        </extensions>
      </trkpt>
      <trkpt lat="42.54426908679306507110595703125" lon="20.1186153106391429901123046875">
        <ele>1907.199951171875</ele>
        <time>2026-06-20T06:51:09.000Z</time>
        <extensions>
          <ns3:TrackPointExtension>
            <ns3:atemp>22.0</ns3:atemp>
          </ns3:TrackPointExtension>
        </extensions>
      </trkpt>
      <trkpt lat="42.5442661531269550323486328125" lon="20.1186156459152698516845703125">
        <ele>1907.199951171875</ele>
        <time>2026-06-20T06:51:10.000Z</time>
        <extensions>
          <ns3:TrackPointExtension>
            <ns3:atemp>22.0</ns3:atemp>
          </ns3:TrackPointExtension>
        </extensions>
      </trkpt>
      <trkpt lat="42.5442631356418132781982421875" lon="20.11861606501042842864990234375">
        <ele>1907.199951171875</ele>
        <time>2026-06-20T06:51:11.000Z</time>
        <extensions>
          <ns3:TrackPointExtension>
            <ns3:atemp>22.0</ns3:atemp>
          </ns3:TrackPointExtension>
        </extensions>
      </trkpt>
      <trkpt lat="42.5442631356418132781982421875" lon="20.11861606501042842864990234375">
        <ele>1907.199951171875</ele>
        <time>2026-06-20T06:51:12.000Z</time>
        <extensions>
          <ns3:TrackPointExtension>
            <ns3:atemp>22.0</ns3:atemp>
          </ns3:TrackPointExtension>
        </extensions>
      </trkpt>
      <trkpt lat="42.5442631356418132781982421875" lon="20.11861606501042842864990234375">
        <ele>1907.4000244140625</ele>
        <time>2026-06-20T06:51:13.000Z</time>
        <extensions>
          <ns3:TrackPointExtension>
            <ns3:atemp>22.0</ns3:atemp>
          </ns3:TrackPointExtension>
        </extensions>
      </trkpt>
      <trkpt lat="42.54426288418471813201904296875" lon="20.1186163164675235748291015625">
        <ele>1907.4000244140625</ele>
        <time>2026-06-20T06:51:14.000Z</time>
        <extensions>
          <ns3:TrackPointExtension>
            <ns3:atemp>22.0</ns3:atemp>
          </ns3:TrackPointExtension>
        </extensions>
      </trkpt>
      <trkpt lat="42.5442539155483245849609375" lon="20.11862562038004398345947265625">
        <ele>1907.4000244140625</ele>
        <time>2026-06-20T06:51:15.000Z</time>
        <extensions>
          <ns3:TrackPointExtension>
            <ns3:atemp>22.0</ns3:atemp>
          </ns3:TrackPointExtension>
        </extensions>
      </trkpt>
      <trkpt lat="42.5442480482161045074462890625" lon="20.1186293922364711761474609375">
        <ele>1907.5999755859375</ele>
        <time>2026-06-20T06:51:16.000Z</time>
        <extensions>
          <ns3:TrackPointExtension>
            <ns3:atemp>22.0</ns3:atemp>
          </ns3:TrackPointExtension>
        </extensions>
      </trkpt>
      <trkpt lat="42.5442446954548358917236328125" lon="20.1186314038932323455810546875">
        <ele>1907.5999755859375</ele>
        <time>2026-06-20T06:51:17.000Z</time>
        <extensions>
          <ns3:TrackPointExtension>
            <ns3:atemp>22.0</ns3:atemp>
          </ns3:TrackPointExtension>
        </extensions>
      </trkpt>
      <trkpt lat="42.54424226470291614532470703125" lon="20.1186277158558368682861328125">
        <ele>1907.800048828125</ele>
        <time>2026-06-20T06:51:18.000Z</time>
        <extensions>
          <ns3:TrackPointExtension>
            <ns3:atemp>22.0</ns3:atemp>
          </ns3:TrackPointExtension>
        </extensions>
      </trkpt>
      <trkpt lat="42.54423757083714008331298828125" lon="20.1186275482177734375">
        <ele>1908</ele>
        <time>2026-06-20T06:51:19.000Z</time>
        <extensions>
          <ns3:TrackPointExtension>
            <ns3:atemp>22.0</ns3:atemp>
          </ns3:TrackPointExtension>
        </extensions>
      </trkpt>
      <trkpt lat="42.54423581063747406005859375" lon="20.11862578801810741424560546875">
        <ele>1908</ele>
        <time>2026-06-20T06:51:20.000Z</time>
        <extensions>
          <ns3:TrackPointExtension>
            <ns3:atemp>22.0</ns3:atemp>
          </ns3:TrackPointExtension>
        </extensions>
      </trkpt>
      <trkpt lat="42.54423388279974460601806640625" lon="20.1186277158558368682861328125">
        <ele>1908</ele>
        <time>2026-06-20T06:51:21.000Z</time>
        <extensions>
          <ns3:TrackPointExtension>
            <ns3:atemp>22.0</ns3:atemp>
          </ns3:TrackPointExtension>
        </extensions>
      </trkpt>
      <trkpt lat="42.54423237405717372894287109375" lon="20.118633918464183807373046875">
        <ele>1908</ele>
        <time>2026-06-20T06:51:22.000Z</time>
        <extensions>
          <ns3:TrackPointExtension>
            <ns3:atemp>22.0</ns3:atemp>
          </ns3:TrackPointExtension>
        </extensions>
      </trkpt>
      <trkpt lat="42.544226087629795074462890625" lon="20.1186423003673553466796875">
        <ele>1907.800048828125</ele>
        <time>2026-06-20T06:51:23.000Z</time>
        <extensions>
          <ns3:TrackPointExtension>
            <ns3:atemp>22.0</ns3:atemp>
          </ns3:TrackPointExtension>
        </extensions>
      </trkpt>
      <trkpt lat="42.5442208908498287200927734375" lon="20.11864908970892429351806640625">
        <ele>1907.800048828125</ele>
        <time>2026-06-20T06:51:24.000Z</time>
        <extensions>
          <ns3:TrackPointExtension>
            <ns3:atemp>22.0</ns3:atemp>
          </ns3:TrackPointExtension>
        </extensions>
      </trkpt>
      <trkpt lat="42.54421728663146495819091796875" lon="20.118654035031795501708984375">
        <ele>1908</ele>
        <time>2026-06-20T06:51:25.000Z</time>
        <extensions>
          <ns3:TrackPointExtension>
            <ns3:atemp>22.0</ns3:atemp>
          </ns3:TrackPointExtension>
        </extensions>
      </trkpt>
      <trkpt lat="42.5442141853272914886474609375" lon="20.11865881271660327911376953125">
        <ele>1908</ele>
        <time>2026-06-20T06:51:26.000Z</time>
        <extensions>
          <ns3:TrackPointExtension>
            <ns3:atemp>22.0</ns3:atemp>
          </ns3:TrackPointExtension>
        </extensions>
      </trkpt>
      <trkpt lat="42.5442121736705303192138671875" lon="20.11866384185850620269775390625">
        <ele>1908.199951171875</ele>
        <time>2026-06-20T06:51:27.000Z</time>
        <extensions>
          <ns3:TrackPointExtension>
            <ns3:atemp>22.0</ns3:atemp>
          </ns3:TrackPointExtension>
        </extensions>
      </trkpt>
      <trkpt lat="42.5442121736705303192138671875" lon="20.11866384185850620269775390625">
        <ele>1908.4000244140625</ele>
        <time>2026-06-20T06:51:28.000Z</time>
        <extensions>
          <ns3:TrackPointExtension>
            <ns3:atemp>22.0</ns3:atemp>
          </ns3:TrackPointExtension>
        </extensions>
      </trkpt>
      <trkpt lat="42.5442121736705303192138671875" lon="20.11866384185850620269775390625">
        <ele>1908.4000244140625</ele>
        <time>2026-06-20T06:51:29.000Z</time>
        <extensions>
          <ns3:TrackPointExtension>
            <ns3:atemp>22.0</ns3:atemp>
          </ns3:TrackPointExtension>
        </extensions>
      </trkpt>
      <trkpt lat="42.5442121736705303192138671875" lon="20.11866400949656963348388671875">
        <ele>1908.4000244140625</ele>
        <time>2026-06-20T06:51:30.000Z</time>
        <extensions>
          <ns3:TrackPointExtension>
            <ns3:atemp>22.0</ns3:atemp>
          </ns3:TrackPointExtension>
        </extensions>
      </trkpt>
      <trkpt lat="42.544209994375705718994140625" lon="20.118682198226451873779296875">
        <ele>1908.5999755859375</ele>
        <time>2026-06-20T06:51:31.000Z</time>
        <extensions>
          <ns3:TrackPointExtension>
            <ns3:atemp>22.0</ns3:atemp>
          </ns3:TrackPointExtension>
        </extensions>
      </trkpt>
      <trkpt lat="42.5442131794989109039306640625" lon="20.1186880655586719512939453125">
        <ele>1908.5999755859375</ele>
        <time>2026-06-20T06:51:32.000Z</time>
        <extensions>
          <ns3:TrackPointExtension>
            <ns3:atemp>22.0</ns3:atemp>
          </ns3:TrackPointExtension>
        </extensions>
      </trkpt>
      <trkpt lat="42.54421376623213291168212890625" lon="20.11869552545249462127685546875">
        <ele>1908.5999755859375</ele>
        <time>2026-06-20T06:51:33.000Z</time>
        <extensions>
          <ns3:TrackPointExtension>
            <ns3:atemp>22.0</ns3:atemp>
          </ns3:TrackPointExtension>
        </extensions>
      </trkpt>
      <trkpt lat="42.54421778954565525054931640625" lon="20.1187018118798732757568359375">
        <ele>1909</ele>
        <time>2026-06-20T06:51:34.000Z</time>
        <extensions>
          <ns3:TrackPointExtension>
            <ns3:atemp>22.0</ns3:atemp>
          </ns3:TrackPointExtension>
        </extensions>
      </trkpt>
      <trkpt lat="42.54421778954565525054931640625" lon="20.11870189569890499114990234375">
        <ele>1909.199951171875</ele>
        <time>2026-06-20T06:51:35.000Z</time>
        <extensions>
          <ns3:TrackPointExtension>
            <ns3:atemp>22.0</ns3:atemp>
          </ns3:TrackPointExtension>
        </extensions>
      </trkpt>
      <trkpt lat="42.5442172028124332427978515625" lon="20.11870893649756908416748046875">
        <ele>1909.4000244140625</ele>
        <time>2026-06-20T06:51:36.000Z</time>
        <extensions>
          <ns3:TrackPointExtension>
            <ns3:atemp>22.0</ns3:atemp>
          </ns3:TrackPointExtension>
        </extensions>
      </trkpt>
      <trkpt lat="42.54421829245984554290771484375" lon="20.11871648021042346954345703125">
        <ele>1909.5999755859375</ele>
        <time>2026-06-20T06:51:37.000Z</time>
        <extensions>
          <ns3:TrackPointExtension>
            <ns3:atemp>22.0</ns3:atemp>
          </ns3:TrackPointExtension>
        </extensions>
      </trkpt>
      <trkpt lat="42.5442165322601795196533203125" lon="20.11872150935232639312744140625">
        <ele>1909.800048828125</ele>
        <time>2026-06-20T06:51:38.000Z</time>
        <extensions>
          <ns3:TrackPointExtension>
            <ns3:atemp>22.0</ns3:atemp>
          </ns3:TrackPointExtension>
        </extensions>
      </trkpt>
      <trkpt lat="42.544216699898242950439453125" lon="20.1187289692461490631103515625">
        <ele>1909.800048828125</ele>
        <time>2026-06-20T06:51:39.000Z</time>
        <extensions>
          <ns3:TrackPointExtension>
            <ns3:atemp>22.0</ns3:atemp>
          </ns3:TrackPointExtension>
        </extensions>
      </trkpt>
      <trkpt lat="42.54421032965183258056640625" lon="20.118747912347316741943359375">
        <ele>1910</ele>
        <time>2026-06-20T06:51:40.000Z</time>
        <extensions>
          <ns3:TrackPointExtension>
            <ns3:atemp>22.0</ns3:atemp>
          </ns3:TrackPointExtension>
        </extensions>
      </trkpt>
      <trkpt lat="42.5442037917673587799072265625" lon="20.11875336058437824249267578125">
        <ele>1910</ele>
        <time>2026-06-20T06:51:41.000Z</time>
        <extensions>
          <ns3:TrackPointExtension>
            <ns3:atemp>22.0</ns3:atemp>
          </ns3:TrackPointExtension>
        </extensions>
      </trkpt>
      <trkpt lat="42.54419784061610698699951171875" lon="20.11876174248754978179931640625">
        <ele>1910.199951171875</ele>
        <time>2026-06-20T06:51:42.000Z</time>
        <extensions>
          <ns3:TrackPointExtension>
            <ns3:atemp>22.0</ns3:atemp>
          </ns3:TrackPointExtension>
        </extensions>
      </trkpt>
      <trkpt lat="42.54419482313096523284912109375" lon="20.11876760981976985931396484375">
        <ele>1910.4000244140625</ele>
        <time>2026-06-20T06:51:43.000Z</time>
        <extensions>
          <ns3:TrackPointExtension>
            <ns3:atemp>22.0</ns3:atemp>
          </ns3:TrackPointExtension>
        </extensions>
      </trkpt>
      <trkpt lat="42.54419079981744289398193359375" lon="20.11877297423779964447021484375">
        <ele>1910.5999755859375</ele>
        <time>2026-06-20T06:51:44.000Z</time>
        <extensions>
          <ns3:TrackPointExtension>
            <ns3:atemp>22.0</ns3:atemp>
          </ns3:TrackPointExtension>
        </extensions>
      </trkpt>
      <trkpt lat="42.54418845288455486297607421875" lon="20.11877917684614658355712890625">
        <ele>1910.800048828125</ele>
        <time>2026-06-20T06:51:45.000Z</time>
        <extensions>
          <ns3:TrackPointExtension>
            <ns3:atemp>22.0</ns3:atemp>
          </ns3:TrackPointExtension>
        </extensions>
      </trkpt>
      <trkpt lat="42.54418618977069854736328125" lon="20.11878102086484432220458984375">
        <ele>1911</ele>
        <time>2026-06-20T06:51:46.000Z</time>
        <extensions>
          <ns3:TrackPointExtension>
            <ns3:atemp>22.0</ns3:atemp>
          </ns3:TrackPointExtension>
        </extensions>
      </trkpt>
      <trkpt lat="42.54418409429490566253662109375" lon="20.1187849603593349456787109375">
        <ele>1911.199951171875</ele>
        <time>2026-06-20T06:51:47.000Z</time>
        <extensions>
          <ns3:TrackPointExtension>
            <ns3:atemp>22.0</ns3:atemp>
          </ns3:TrackPointExtension>
        </extensions>
      </trkpt>
      <trkpt lat="42.54418216645717620849609375" lon="20.1187884807586669921875">
        <ele>1911.4000244140625</ele>
        <time>2026-06-20T06:51:48.000Z</time>
        <extensions>
          <ns3:TrackPointExtension>
            <ns3:atemp>22.0</ns3:atemp>
          </ns3:TrackPointExtension>
        </extensions>
      </trkpt>
      <trkpt lat="42.54417403601109981536865234375" lon="20.118793509900569915771484375">
        <ele>1911.4000244140625</ele>
        <time>2026-06-20T06:51:49.000Z</time>
        <extensions>
          <ns3:TrackPointExtension>
            <ns3:atemp>22.0</ns3:atemp>
          </ns3:TrackPointExtension>
        </extensions>
      </trkpt>
      <trkpt lat="42.5441689230501651763916015625" lon="20.11879744939506053924560546875">
        <ele>1911.5999755859375</ele>
        <time>2026-06-20T06:51:50.000Z</time>
        <extensions>
          <ns3:TrackPointExtension>
            <ns3:atemp>22.0</ns3:atemp>
          </ns3:TrackPointExtension>
        </extensions>
      </trkpt>
      <trkpt lat="42.54416464827954769134521484375" lon="20.118802227079868316650390625">
        <ele>1911.5999755859375</ele>
        <time>2026-06-20T06:51:51.000Z</time>
        <extensions>
          <ns3:TrackPointExtension>
            <ns3:atemp>22.0</ns3:atemp>
          </ns3:TrackPointExtension>
        </extensions>
      </trkpt>
      <trkpt lat="42.54416079260408878326416015625" lon="20.11880331672728061676025390625">
        <ele>1911.800048828125</ele>
        <time>2026-06-20T06:51:52.000Z</time>
        <extensions>
          <ns3:TrackPointExtension>
            <ns3:atemp>22.0</ns3:atemp>
          </ns3:TrackPointExtension>
        </extensions>
      </trkpt>
      <trkpt lat="42.544154338538646697998046875" lon="20.118807591497898101806640625">
        <ele>1911.800048828125</ele>
        <time>2026-06-20T06:51:53.000Z</time>
        <extensions>
          <ns3:TrackPointExtension>
            <ns3:atemp>22.0</ns3:atemp>
          </ns3:TrackPointExtension>
        </extensions>
      </trkpt>
      <trkpt lat="42.544150315225124359130859375" lon="20.11881018988788127899169921875">
        <ele>1911.800048828125</ele>
        <time>2026-06-20T06:51:54.000Z</time>
        <extensions>
          <ns3:TrackPointExtension>
            <ns3:atemp>22.0</ns3:atemp>
          </ns3:TrackPointExtension>
        </extensions>
      </trkpt>
      <trkpt lat="42.544145621359348297119140625" lon="20.1188114471733570098876953125">
        <ele>1912</ele>
        <time>2026-06-20T06:51:55.000Z</time>
        <extensions>
          <ns3:TrackPointExtension>
            <ns3:atemp>22.0</ns3:atemp>
          </ns3:TrackPointExtension>
        </extensions>
      </trkpt>
      <trkpt lat="42.54414193332195281982421875" lon="20.11881287209689617156982421875">
        <ele>1912</ele>
        <time>2026-06-20T06:51:56.000Z</time>
        <extensions>
          <ns3:TrackPointExtension>
            <ns3:atemp>22.0</ns3:atemp>
          </ns3:TrackPointExtension>
        </extensions>
      </trkpt>
      <trkpt lat="42.5441353954374790191650390625" lon="20.1188144646584987640380859375">
        <ele>1912.199951171875</ele>
        <time>2026-06-20T06:51:57.000Z</time>
        <extensions>
          <ns3:TrackPointExtension>
            <ns3:atemp>22.0</ns3:atemp>
          </ns3:TrackPointExtension>
        </extensions>
      </trkpt>
      <trkpt lat="42.54412642680108547210693359375" lon="20.11881865561008453369140625">
        <ele>1912.199951171875</ele>
        <time>2026-06-20T06:51:58.000Z</time>
        <extensions>
          <ns3:TrackPointExtension>
            <ns3:atemp>22.0</ns3:atemp>
          </ns3:TrackPointExtension>
        </extensions>
      </trkpt>
      <trkpt lat="42.54411838017404079437255859375" lon="20.1188166439533233642578125">
        <ele>1912.199951171875</ele>
        <time>2026-06-20T06:51:59.000Z</time>
        <extensions>
          <ns3:TrackPointExtension>
            <ns3:atemp>22.0</ns3:atemp>
          </ns3:TrackPointExtension>
        </extensions>
      </trkpt>
      <trkpt lat="42.5441122613847255706787109375" lon="20.1188168115913867950439453125">
        <ele>1912.199951171875</ele>
        <time>2026-06-20T06:52:00.000Z</time>
        <extensions>
          <ns3:TrackPointExtension>
            <ns3:atemp>22.0</ns3:atemp>
          </ns3:TrackPointExtension>
        </extensions>
      </trkpt>
      <trkpt lat="42.54410765133798122406005859375" lon="20.11882527731359004974365234375">
        <ele>1912.4000244140625</ele>
        <time>2026-06-20T06:52:01.000Z</time>
        <extensions>
          <ns3:TrackPointExtension>
            <ns3:atemp>22.0</ns3:atemp>
          </ns3:TrackPointExtension>
        </extensions>
      </trkpt>
      <trkpt lat="42.54410530440509319305419921875" lon="20.11883315630257129669189453125">
        <ele>1912.4000244140625</ele>
        <time>2026-06-20T06:52:02.000Z</time>
        <extensions>
          <ns3:TrackPointExtension>
            <ns3:atemp>22.0</ns3:atemp>
          </ns3:TrackPointExtension>
        </extensions>
      </trkpt>
      <trkpt lat="42.544104717671871185302734375" lon="20.118835084140300750732421875">
        <ele>1912.5999755859375</ele>
        <time>2026-06-20T06:52:03.000Z</time>
        <extensions>
          <ns3:TrackPointExtension>
            <ns3:atemp>22.0</ns3:atemp>
          </ns3:TrackPointExtension>
        </extensions>
      </trkpt>
      <trkpt lat="42.544104717671871185302734375" lon="20.118835084140300750732421875">
        <ele>1912.5999755859375</ele>
        <time>2026-06-20T06:52:04.000Z</time>
        <extensions>
          <ns3:TrackPointExtension>
            <ns3:atemp>22.0</ns3:atemp>
          </ns3:TrackPointExtension>
        </extensions>
      </trkpt>
      <trkpt lat="42.544104717671871185302734375" lon="20.118835084140300750732421875">
        <ele>1912.800048828125</ele>
        <time>2026-06-20T06:52:05.000Z</time>
        <extensions>
          <ns3:TrackPointExtension>
            <ns3:atemp>22.0</ns3:atemp>
          </ns3:TrackPointExtension>
        </extensions>
      </trkpt>
      <trkpt lat="42.544104717671871185302734375" lon="20.118835084140300750732421875">
        <ele>1912.800048828125</ele>
        <time>2026-06-20T06:52:06.000Z</time>
        <extensions>
          <ns3:TrackPointExtension>
            <ns3:atemp>22.0</ns3:atemp>
          </ns3:TrackPointExtension>
        </extensions>
      </trkpt>
      <trkpt lat="42.54410463385283946990966796875" lon="20.11883533559739589691162109375">
        <ele>1913</ele>
        <time>2026-06-20T06:52:07.000Z</time>
        <extensions>
          <ns3:TrackPointExtension>
            <ns3:atemp>22.0</ns3:atemp>
          </ns3:TrackPointExtension>
        </extensions>
      </trkpt>
      <trkpt lat="42.5440965034067630767822265625" lon="20.1188416220247745513916015625">
        <ele>1913</ele>
        <time>2026-06-20T06:52:08.000Z</time>
        <extensions>
          <ns3:TrackPointExtension>
            <ns3:atemp>22.0</ns3:atemp>
          </ns3:TrackPointExtension>
        </extensions>
      </trkpt>
      <trkpt lat="42.54408820532262325286865234375" lon="20.118847154080867767333984375">
        <ele>1913</ele>
        <time>2026-06-20T06:52:09.000Z</time>
        <extensions>
          <ns3:TrackPointExtension>
            <ns3:atemp>22.0</ns3:atemp>
          </ns3:TrackPointExtension>
        </extensions>
      </trkpt>
      <trkpt lat="42.54408367909491062164306640625" lon="20.1188459806144237518310546875">
        <ele>1913.199951171875</ele>
        <time>2026-06-20T06:52:10.000Z</time>
        <extensions>
          <ns3:TrackPointExtension>
            <ns3:atemp>22.0</ns3:atemp>
          </ns3:TrackPointExtension>
        </extensions>
      </trkpt>
      <trkpt lat="42.54407915286719799041748046875" lon="20.11884941719472408294677734375">
        <ele>1913.199951171875</ele>
        <time>2026-06-20T06:52:11.000Z</time>
        <extensions>
          <ns3:TrackPointExtension>
            <ns3:atemp>22.0</ns3:atemp>
          </ns3:TrackPointExtension>
        </extensions>
      </trkpt>
      <trkpt lat="42.54407529719173908233642578125" lon="20.1188533566892147064208984375">
        <ele>1913.199951171875</ele>
        <time>2026-06-20T06:52:12.000Z</time>
        <extensions>
          <ns3:TrackPointExtension>
            <ns3:atemp>22.0</ns3:atemp>
          </ns3:TrackPointExtension>
        </extensions>
      </trkpt>
      <trkpt lat="42.54407085478305816650390625" lon="20.11885863728821277618408203125">
        <ele>1913.4000244140625</ele>
        <time>2026-06-20T06:52:13.000Z</time>
        <extensions>
          <ns3:TrackPointExtension>
            <ns3:atemp>22.0</ns3:atemp>
          </ns3:TrackPointExtension>
        </extensions>
      </trkpt>
      <trkpt lat="42.54406356252729892730712890625" lon="20.11886400170624256134033203125">
        <ele>1913.4000244140625</ele>
        <time>2026-06-20T06:52:14.000Z</time>
        <extensions>
          <ns3:TrackPointExtension>
            <ns3:atemp>22.0</ns3:atemp>
          </ns3:TrackPointExtension>
        </extensions>
      </trkpt>
      <trkpt lat="42.54405635409057140350341796875" lon="20.118871629238128662109375">
        <ele>1913.5999755859375</ele>
        <time>2026-06-20T06:52:15.000Z</time>
        <extensions>
          <ns3:TrackPointExtension>
            <ns3:atemp>22.0</ns3:atemp>
          </ns3:TrackPointExtension>
        </extensions>
      </trkpt>
      <trkpt lat="42.5440492294728755950927734375" lon="20.11888168752193450927734375">
        <ele>1913.800048828125</ele>
        <time>2026-06-20T06:52:16.000Z</time>
        <extensions>
          <ns3:TrackPointExtension>
            <ns3:atemp>22.0</ns3:atemp>
          </ns3:TrackPointExtension>
        </extensions>
      </trkpt>
      <trkpt lat="42.54404579289257526397705078125" lon="20.11889182962477207183837890625">
        <ele>1913.800048828125</ele>
        <time>2026-06-20T06:52:17.000Z</time>
        <extensions>
          <ns3:TrackPointExtension>
            <ns3:atemp>22.0</ns3:atemp>
          </ns3:TrackPointExtension>
        </extensions>
      </trkpt>
      <trkpt lat="42.54404461942613124847412109375" lon="20.11890155263245105743408203125">
        <ele>1914</ele>
        <time>2026-06-20T06:52:18.000Z</time>
        <extensions>
          <ns3:TrackPointExtension>
            <ns3:atemp>22.0</ns3:atemp>
          </ns3:TrackPointExtension>
        </extensions>
      </trkpt>
      <trkpt lat="42.54404344595968723297119140625" lon="20.11890172027051448822021484375">
        <ele>1914</ele>
        <time>2026-06-20T06:52:19.000Z</time>
        <extensions>
          <ns3:TrackPointExtension>
            <ns3:atemp>22.0</ns3:atemp>
          </ns3:TrackPointExtension>
        </extensions>
      </trkpt>
      <trkpt lat="42.54404461942613124847412109375" lon="20.11890490539371967315673828125">
        <ele>1914.199951171875</ele>
        <time>2026-06-20T06:52:20.000Z</time>
        <extensions>
          <ns3:TrackPointExtension>
            <ns3:atemp>22.0</ns3:atemp>
          </ns3:TrackPointExtension>
        </extensions>
      </trkpt>
      <trkpt lat="42.54404143430292606353759765625" lon="20.11890985071659088134765625">
        <ele>1914.199951171875</ele>
        <time>2026-06-20T06:52:21.000Z</time>
        <extensions>
          <ns3:TrackPointExtension>
            <ns3:atemp>22.0</ns3:atemp>
          </ns3:TrackPointExtension>
        </extensions>
      </trkpt>
      <trkpt lat="42.544040344655513763427734375" lon="20.1189204119145870208740234375">
        <ele>1914.4000244140625</ele>
        <time>2026-06-20T06:52:22.000Z</time>
        <extensions>
          <ns3:TrackPointExtension>
            <ns3:atemp>22.0</ns3:atemp>
          </ns3:TrackPointExtension>
        </extensions>
      </trkpt>
      <trkpt lat="42.544038332998752593994140625" lon="20.1189292967319488525390625">
        <ele>1914.4000244140625</ele>
        <time>2026-06-20T06:52:23.000Z</time>
        <extensions>
          <ns3:TrackPointExtension>
            <ns3:atemp>22.0</ns3:atemp>
          </ns3:TrackPointExtension>
        </extensions>
      </trkpt>
      <trkpt lat="42.54403891973197460174560546875" lon="20.11893801391124725341796875">
        <ele>1914.4000244140625</ele>
        <time>2026-06-20T06:52:24.000Z</time>
        <extensions>
          <ns3:TrackPointExtension>
            <ns3:atemp>22.0</ns3:atemp>
          </ns3:TrackPointExtension>
        </extensions>
      </trkpt>
      <trkpt lat="42.54404176957905292510986328125" lon="20.11894882656633853912353515625">
        <ele>1914.5999755859375</ele>
        <time>2026-06-20T06:52:25.000Z</time>
        <extensions>
          <ns3:TrackPointExtension>
            <ns3:atemp>22.0</ns3:atemp>
          </ns3:TrackPointExtension>
        </extensions>
      </trkpt>
      <trkpt lat="42.54404378123581409454345703125" lon="20.118953101336956024169921875">
        <ele>1914.5999755859375</ele>
        <time>2026-06-20T06:52:26.000Z</time>
        <extensions>
          <ns3:TrackPointExtension>
            <ns3:atemp>22.0</ns3:atemp>
          </ns3:TrackPointExtension>
        </extensions>
      </trkpt>
      <trkpt lat="42.54404495470225811004638671875" lon="20.118959806859493255615234375">
        <ele>1914.800048828125</ele>
        <time>2026-06-20T06:52:27.000Z</time>
        <extensions>
          <ns3:TrackPointExtension>
            <ns3:atemp>22.0</ns3:atemp>
          </ns3:TrackPointExtension>
        </extensions>
      </trkpt>
      <trkpt lat="42.54404227249324321746826171875" lon="20.11896274052560329437255859375">
        <ele>1915</ele>
        <time>2026-06-20T06:52:28.000Z</time>
        <extensions>
          <ns3:TrackPointExtension>
            <ns3:atemp>22.0</ns3:atemp>
          </ns3:TrackPointExtension>
        </extensions>
      </trkpt>
      <trkpt lat="42.54404277540743350982666015625" lon="20.11896961368620395660400390625">
        <ele>1915.199951171875</ele>
        <time>2026-06-20T06:52:29.000Z</time>
        <extensions>
          <ns3:TrackPointExtension>
            <ns3:atemp>22.0</ns3:atemp>
          </ns3:TrackPointExtension>
        </extensions>
      </trkpt>
      <trkpt lat="42.544040679931640625" lon="20.1189723797142505645751953125">
        <ele>1915.4000244140625</ele>
        <time>2026-06-20T06:52:30.000Z</time>
        <extensions>
          <ns3:TrackPointExtension>
            <ns3:atemp>22.0</ns3:atemp>
          </ns3:TrackPointExtension>
        </extensions>
      </trkpt>
      <trkpt lat="42.54404294304549694061279296875" lon="20.11897581629455089569091796875">
        <ele>1915.4000244140625</ele>
        <time>2026-06-20T06:52:31.000Z</time>
        <extensions>
          <ns3:TrackPointExtension>
            <ns3:atemp>22.0</ns3:atemp>
          </ns3:TrackPointExtension>
        </extensions>
      </trkpt>
      <trkpt lat="42.5440447032451629638671875" lon="20.11898092925548553466796875">
        <ele>1915.5999755859375</ele>
        <time>2026-06-20T06:52:32.000Z</time>
        <extensions>
          <ns3:TrackPointExtension>
            <ns3:atemp>22.0</ns3:atemp>
          </ns3:TrackPointExtension>
        </extensions>
      </trkpt>
      <trkpt lat="42.54404679872095584869384765625" lon="20.11898302473127841949462890625">
        <ele>1915.5999755859375</ele>
        <time>2026-06-20T06:52:33.000Z</time>
        <extensions>
          <ns3:TrackPointExtension>
            <ns3:atemp>22.0</ns3:atemp>
          </ns3:TrackPointExtension>
        </extensions>
      </trkpt>
      <trkpt lat="42.54404679872095584869384765625" lon="20.1189831085503101348876953125">
        <ele>1915.800048828125</ele>
        <time>2026-06-20T06:52:34.000Z</time>
        <extensions>
          <ns3:TrackPointExtension>
            <ns3:atemp>22.0</ns3:atemp>
          </ns3:TrackPointExtension>
        </extensions>
      </trkpt>
      <trkpt lat="42.544045038521289825439453125" lon="20.1189931668341159820556640625">
        <ele>1915.800048828125</ele>
        <time>2026-06-20T06:52:35.000Z</time>
        <extensions>
          <ns3:TrackPointExtension>
            <ns3:atemp>22.0</ns3:atemp>
          </ns3:TrackPointExtension>
        </extensions>
      </trkpt>
      <trkpt lat="42.54403824917972087860107421875" lon="20.11900314129889011383056640625">
        <ele>1916</ele>
        <time>2026-06-20T06:52:36.000Z</time>
        <extensions>
          <ns3:TrackPointExtension>
            <ns3:atemp>22.0</ns3:atemp>
          </ns3:TrackPointExtension>
        </extensions>
      </trkpt>
      <trkpt lat="42.54403020255267620086669921875" lon="20.1190139539539813995361328125">
        <ele>1916</ele>
        <time>2026-06-20T06:52:37.000Z</time>
        <extensions>
          <ns3:TrackPointExtension>
            <ns3:atemp>22.0</ns3:atemp>
          </ns3:TrackPointExtension>
        </extensions>
      </trkpt>
      <trkpt lat="42.54402550868690013885498046875" lon="20.11901889927685260772705078125">
        <ele>1916</ele>
        <time>2026-06-20T06:52:38.000Z</time>
        <extensions>
          <ns3:TrackPointExtension>
            <ns3:atemp>22.0</ns3:atemp>
          </ns3:TrackPointExtension>
        </extensions>
      </trkpt>
      <trkpt lat="42.5440203957259654998779296875" lon="20.11902652680873870849609375">
        <ele>1916</ele>
        <time>2026-06-20T06:52:39.000Z</time>
        <extensions>
          <ns3:TrackPointExtension>
            <ns3:atemp>22.0</ns3:atemp>
          </ns3:TrackPointExtension>
        </extensions>
      </trkpt>
      <trkpt lat="42.54401855170726776123046875" lon="20.119027532637119293212890625">
        <ele>1916.199951171875</ele>
        <time>2026-06-20T06:52:40.000Z</time>
        <extensions>
          <ns3:TrackPointExtension>
            <ns3:atemp>22.0</ns3:atemp>
          </ns3:TrackPointExtension>
        </extensions>
      </trkpt>
      <trkpt lat="42.544014193117618560791015625" lon="20.11903096921741962432861328125">
        <ele>1916.199951171875</ele>
        <time>2026-06-20T06:52:41.000Z</time>
        <extensions>
          <ns3:TrackPointExtension>
            <ns3:atemp>22.0</ns3:atemp>
          </ns3:TrackPointExtension>
        </extensions>
      </trkpt>
      <trkpt lat="42.5440069846808910369873046875" lon="20.1190307177603244781494140625">
        <ele>1916.4000244140625</ele>
        <time>2026-06-20T06:52:42.000Z</time>
        <extensions>
          <ns3:TrackPointExtension>
            <ns3:atemp>22.0</ns3:atemp>
          </ns3:TrackPointExtension>
        </extensions>
      </trkpt>
      <trkpt lat="42.54399902187287807464599609375" lon="20.1190312206745147705078125">
        <ele>1916.5999755859375</ele>
        <time>2026-06-20T06:52:43.000Z</time>
        <extensions>
          <ns3:TrackPointExtension>
            <ns3:atemp>22.0</ns3:atemp>
          </ns3:TrackPointExtension>
        </extensions>
      </trkpt>
      <trkpt lat="42.5439937412738800048828125" lon="20.11902811937034130096435546875">
        <ele>1916.800048828125</ele>
        <time>2026-06-20T06:52:44.000Z</time>
        <extensions>
          <ns3:TrackPointExtension>
            <ns3:atemp>22.0</ns3:atemp>
          </ns3:TrackPointExtension>
        </extensions>
      </trkpt>
      <trkpt lat="42.5439932383596897125244140625" lon="20.11902728118002414703369140625">
        <ele>1917</ele>
        <time>2026-06-20T06:52:45.000Z</time>
        <extensions>
          <ns3:TrackPointExtension>
            <ns3:atemp>22.0</ns3:atemp>
          </ns3:TrackPointExtension>
        </extensions>
      </trkpt>
      <trkpt lat="42.5439932383596897125244140625" lon="20.11902728118002414703369140625">
        <ele>1917</ele>
        <time>2026-06-20T06:52:46.000Z</time>
        <extensions>
          <ns3:TrackPointExtension>
            <ns3:atemp>22.0</ns3:atemp>
          </ns3:TrackPointExtension>
        </extensions>
      </trkpt>
      <trkpt lat="42.5439932383596897125244140625" lon="20.11902728118002414703369140625">
        <ele>1917</ele>
        <time>2026-06-20T06:52:47.000Z</time>
        <extensions>
          <ns3:TrackPointExtension>
            <ns3:atemp>22.0</ns3:atemp>
          </ns3:TrackPointExtension>
        </extensions>
      </trkpt>
      <trkpt lat="42.5439932383596897125244140625" lon="20.11902728118002414703369140625">
        <ele>1917</ele>
        <time>2026-06-20T06:52:48.000Z</time>
        <extensions>
          <ns3:TrackPointExtension>
            <ns3:atemp>22.0</ns3:atemp>
          </ns3:TrackPointExtension>
        </extensions>
      </trkpt>
      <trkpt lat="42.54399307072162628173828125" lon="20.11902786791324615478515625">
        <ele>1917</ele>
        <time>2026-06-20T06:52:49.000Z</time>
        <extensions>
          <ns3:TrackPointExtension>
            <ns3:atemp>22.0</ns3:atemp>
          </ns3:TrackPointExtension>
        </extensions>
      </trkpt>
      <trkpt lat="42.5439932383596897125244140625" lon="20.11902728118002414703369140625">
        <ele>1916.800048828125</ele>
        <time>2026-06-20T06:52:50.000Z</time>
        <extensions>
          <ns3:TrackPointExtension>
            <ns3:atemp>22.0</ns3:atemp>
          </ns3:TrackPointExtension>
        </extensions>
      </trkpt>
      <trkpt lat="42.5439898855984210968017578125" lon="20.11903348378837108612060546875">
        <ele>1916.800048828125</ele>
        <time>2026-06-20T06:52:51.000Z</time>
        <extensions>
          <ns3:TrackPointExtension>
            <ns3:atemp>22.0</ns3:atemp>
          </ns3:TrackPointExtension>
        </extensions>
      </trkpt>
      <trkpt lat="42.543986700475215911865234375" lon="20.11904538609087467193603515625">
        <ele>1916.800048828125</ele>
        <time>2026-06-20T06:52:52.000Z</time>
        <extensions>
          <ns3:TrackPointExtension>
            <ns3:atemp>22.0</ns3:atemp>
          </ns3:TrackPointExtension>
        </extensions>
      </trkpt>
      <trkpt lat="42.5439845211803913116455078125" lon="20.1190515048801898956298828125">
        <ele>1916.800048828125</ele>
        <time>2026-06-20T06:52:53.000Z</time>
        <extensions>
          <ns3:TrackPointExtension>
            <ns3:atemp>22.0</ns3:atemp>
          </ns3:TrackPointExtension>
        </extensions>
      </trkpt>
      <trkpt lat="42.54398125223815441131591796875" lon="20.11905175633728504180908203125">
        <ele>1917</ele>
        <time>2026-06-20T06:52:54.000Z</time>
        <extensions>
          <ns3:TrackPointExtension>
            <ns3:atemp>22.0</ns3:atemp>
          </ns3:TrackPointExtension>
        </extensions>
      </trkpt>
      <trkpt lat="42.54397488199174404144287109375" lon="20.1190526783466339111328125">
        <ele>1917.199951171875</ele>
        <time>2026-06-20T06:52:55.000Z</time>
        <extensions>
          <ns3:TrackPointExtension>
            <ns3:atemp>22.0</ns3:atemp>
          </ns3:TrackPointExtension>
        </extensions>
      </trkpt>
      <trkpt lat="42.54396733827888965606689453125" lon="20.119059048593044281005859375">
        <ele>1917.4000244140625</ele>
        <time>2026-06-20T06:52:56.000Z</time>
        <extensions>
          <ns3:TrackPointExtension>
            <ns3:atemp>22.0</ns3:atemp>
          </ns3:TrackPointExtension>
        </extensions>
      </trkpt>
      <trkpt lat="42.5439603812992572784423828125" lon="20.11906332336366176605224609375">
        <ele>1917.4000244140625</ele>
        <time>2026-06-20T06:52:57.000Z</time>
        <extensions>
          <ns3:TrackPointExtension>
            <ns3:atemp>22.0</ns3:atemp>
          </ns3:TrackPointExtension>
        </extensions>
      </trkpt>
      <trkpt lat="42.5439593754708766937255859375" lon="20.11906273663043975830078125">
        <ele>1917.4000244140625</ele>
        <time>2026-06-20T06:52:58.000Z</time>
        <extensions>
          <ns3:TrackPointExtension>
            <ns3:atemp>22.0</ns3:atemp>
          </ns3:TrackPointExtension>
        </extensions>
      </trkpt>
      <trkpt lat="42.5439593754708766937255859375" lon="20.11906282044947147369384765625">
        <ele>1917.4000244140625</ele>
        <time>2026-06-20T06:52:59.000Z</time>
        <extensions>
          <ns3:TrackPointExtension>
            <ns3:atemp>22.0</ns3:atemp>
          </ns3:TrackPointExtension>
        </extensions>
      </trkpt>
      <trkpt lat="42.5439593754708766937255859375" lon="20.11906282044947147369384765625">
        <ele>1917.5999755859375</ele>
        <time>2026-06-20T06:53:00.000Z</time>
        <extensions>
          <ns3:TrackPointExtension>
            <ns3:atemp>22.0</ns3:atemp>
          </ns3:TrackPointExtension>
        </extensions>
      </trkpt>
      <trkpt lat="42.54395929165184497833251953125" lon="20.11906298808753490447998046875">
        <ele>1917.5999755859375</ele>
        <time>2026-06-20T06:53:01.000Z</time>
        <extensions>
          <ns3:TrackPointExtension>
            <ns3:atemp>22.0</ns3:atemp>
          </ns3:TrackPointExtension>
        </extensions>
      </trkpt>
      <trkpt lat="42.54395417869091033935546875" lon="20.11906810104846954345703125">
        <ele>1917.5999755859375</ele>
        <time>2026-06-20T06:53:02.000Z</time>
        <extensions>
          <ns3:TrackPointExtension>
            <ns3:atemp>22.0</ns3:atemp>
          </ns3:TrackPointExtension>
        </extensions>
      </trkpt>
      <trkpt lat="42.54394956864416599273681640625" lon="20.11907388456165790557861328125">
        <ele>1917.5999755859375</ele>
        <time>2026-06-20T06:53:03.000Z</time>
        <extensions>
          <ns3:TrackPointExtension>
            <ns3:atemp>22.0</ns3:atemp>
          </ns3:TrackPointExtension>
        </extensions>
      </trkpt>
      <trkpt lat="42.5439473055303096771240234375" lon="20.119078159332275390625">
        <ele>1917.5999755859375</ele>
        <time>2026-06-20T06:53:04.000Z</time>
        <extensions>
          <ns3:TrackPointExtension>
            <ns3:atemp>22.0</ns3:atemp>
          </ns3:TrackPointExtension>
        </extensions>
      </trkpt>
      <trkpt lat="42.5439473055303096771240234375" lon="20.11907824315130710601806640625">
        <ele>1917.5999755859375</ele>
        <time>2026-06-20T06:53:05.000Z</time>
        <extensions>
          <ns3:TrackPointExtension>
            <ns3:atemp>22.0</ns3:atemp>
          </ns3:TrackPointExtension>
        </extensions>
      </trkpt>
      <trkpt lat="42.5439473055303096771240234375" lon="20.11907841078937053680419921875">
        <ele>1917.5999755859375</ele>
        <time>2026-06-20T06:53:06.000Z</time>
        <extensions>
          <ns3:TrackPointExtension>
            <ns3:atemp>22.0</ns3:atemp>
          </ns3:TrackPointExtension>
        </extensions>
      </trkpt>
      <trkpt lat="42.54394470714032649993896484375" lon="20.11909131892025470733642578125">
        <ele>1917.5999755859375</ele>
        <time>2026-06-20T06:53:07.000Z</time>
        <extensions>
          <ns3:TrackPointExtension>
            <ns3:atemp>22.0</ns3:atemp>
          </ns3:TrackPointExtension>
        </extensions>
      </trkpt>
      <trkpt lat="42.54394420422613620758056640625" lon="20.11910053901374340057373046875">
        <ele>1917.800048828125</ele>
        <time>2026-06-20T06:53:08.000Z</time>
        <extensions>
          <ns3:TrackPointExtension>
            <ns3:atemp>22.0</ns3:atemp>
          </ns3:TrackPointExtension>
        </extensions>
      </trkpt>
      <trkpt lat="42.54394370131194591522216796875" lon="20.1191028021275997161865234375">
        <ele>1918</ele>
        <time>2026-06-20T06:53:09.000Z</time>
        <extensions>
          <ns3:TrackPointExtension>
            <ns3:atemp>22.0</ns3:atemp>
          </ns3:TrackPointExtension>
        </extensions>
      </trkpt>
      <trkpt lat="42.5439429469406604766845703125" lon="20.11910707689821720123291015625">
        <ele>1918.199951171875</ele>
        <time>2026-06-20T06:53:10.000Z</time>
        <extensions>
          <ns3:TrackPointExtension>
            <ns3:atemp>22.0</ns3:atemp>
          </ns3:TrackPointExtension>
        </extensions>
      </trkpt>
      <trkpt lat="42.54393984563648700714111328125" lon="20.1191125251352787017822265625">
        <ele>1918.4000244140625</ele>
        <time>2026-06-20T06:53:11.000Z</time>
        <extensions>
          <ns3:TrackPointExtension>
            <ns3:atemp>22.0</ns3:atemp>
          </ns3:TrackPointExtension>
        </extensions>
      </trkpt>
      <trkpt lat="42.543941438198089599609375" lon="20.11911646462976932525634765625">
        <ele>1918.4000244140625</ele>
        <time>2026-06-20T06:53:12.000Z</time>
        <extensions>
          <ns3:TrackPointExtension>
            <ns3:atemp>22.0</ns3:atemp>
          </ns3:TrackPointExtension>
        </extensions>
      </trkpt>
      <trkpt lat="42.543941438198089599609375" lon="20.1191165484488010406494140625">
        <ele>1918.5999755859375</ele>
        <time>2026-06-20T06:53:13.000Z</time>
        <extensions>
          <ns3:TrackPointExtension>
            <ns3:atemp>22.0</ns3:atemp>
          </ns3:TrackPointExtension>
        </extensions>
      </trkpt>
      <trkpt lat="42.543941438198089599609375" lon="20.1191165484488010406494140625">
        <ele>1918.5999755859375</ele>
        <time>2026-06-20T06:53:14.000Z</time>
        <extensions>
          <ns3:TrackPointExtension>
            <ns3:atemp>22.0</ns3:atemp>
          </ns3:TrackPointExtension>
        </extensions>
      </trkpt>
      <trkpt lat="42.543941438198089599609375" lon="20.1191165484488010406494140625">
        <ele>1918.800048828125</ele>
        <time>2026-06-20T06:53:15.000Z</time>
        <extensions>
          <ns3:TrackPointExtension>
            <ns3:atemp>22.0</ns3:atemp>
          </ns3:TrackPointExtension>
        </extensions>
      </trkpt>
      <trkpt lat="42.543941438198089599609375" lon="20.1191165484488010406494140625">
        <ele>1918.800048828125</ele>
        <time>2026-06-20T06:53:16.000Z</time>
        <extensions>
          <ns3:TrackPointExtension>
            <ns3:atemp>22.0</ns3:atemp>
          </ns3:TrackPointExtension>
        </extensions>
      </trkpt>
      <trkpt lat="42.54394135437905788421630859375" lon="20.11911730282008647918701171875">
        <ele>1918.800048828125</ele>
        <time>2026-06-20T06:53:17.000Z</time>
        <extensions>
          <ns3:TrackPointExtension>
            <ns3:atemp>22.0</ns3:atemp>
          </ns3:TrackPointExtension>
        </extensions>
      </trkpt>
      <trkpt lat="42.5439369119703769683837890625" lon="20.11912886984646320343017578125">
        <ele>1918.800048828125</ele>
        <time>2026-06-20T06:53:18.000Z</time>
        <extensions>
          <ns3:TrackPointExtension>
            <ns3:atemp>22.0</ns3:atemp>
          </ns3:TrackPointExtension>
        </extensions>
      </trkpt>
      <trkpt lat="42.5439347326755523681640625" lon="20.11913557536900043487548828125">
        <ele>1918.800048828125</ele>
        <time>2026-06-20T06:53:19.000Z</time>
        <extensions>
          <ns3:TrackPointExtension>
            <ns3:atemp>22.0</ns3:atemp>
          </ns3:TrackPointExtension>
        </extensions>
      </trkpt>
      <trkpt lat="42.5439347326755523681640625" lon="20.11913557536900043487548828125">
        <ele>1918.5999755859375</ele>
        <time>2026-06-20T06:53:20.000Z</time>
        <extensions>
          <ns3:TrackPointExtension>
            <ns3:atemp>22.0</ns3:atemp>
          </ns3:TrackPointExtension>
        </extensions>
      </trkpt>
      <trkpt lat="42.5439347326755523681640625" lon="20.11913557536900043487548828125">
        <ele>1918.5999755859375</ele>
        <time>2026-06-20T06:53:21.000Z</time>
        <extensions>
          <ns3:TrackPointExtension>
            <ns3:atemp>22.0</ns3:atemp>
          </ns3:TrackPointExtension>
        </extensions>
      </trkpt>
      <trkpt lat="42.5439347326755523681640625" lon="20.11913557536900043487548828125">
        <ele>1918.5999755859375</ele>
        <time>2026-06-20T06:53:22.000Z</time>
        <extensions>
          <ns3:TrackPointExtension>
            <ns3:atemp>22.0</ns3:atemp>
          </ns3:TrackPointExtension>
        </extensions>
      </trkpt>
      <trkpt lat="42.5439347326755523681640625" lon="20.11913557536900043487548828125">
        <ele>1918.5999755859375</ele>
        <time>2026-06-20T06:53:23.000Z</time>
        <extensions>
          <ns3:TrackPointExtension>
            <ns3:atemp>22.0</ns3:atemp>
          </ns3:TrackPointExtension>
        </extensions>
      </trkpt>
      <trkpt lat="42.543934397399425506591796875" lon="20.11913591064512729644775390625">
        <ele>1918.800048828125</ele>
        <time>2026-06-20T06:53:24.000Z</time>
        <extensions>
          <ns3:TrackPointExtension>
            <ns3:atemp>22.0</ns3:atemp>
          </ns3:TrackPointExtension>
        </extensions>
      </trkpt>
      <trkpt lat="42.54393330775201320648193359375" lon="20.11914295144379138946533203125">
        <ele>1918.800048828125</ele>
        <time>2026-06-20T06:53:25.000Z</time>
        <extensions>
          <ns3:TrackPointExtension>
            <ns3:atemp>22.0</ns3:atemp>
          </ns3:TrackPointExtension>
        </extensions>
      </trkpt>
      <trkpt lat="42.54393615759909152984619140625" lon="20.11914395727217197418212890625">
        <ele>1918.800048828125</ele>
        <time>2026-06-20T06:53:26.000Z</time>
        <extensions>
          <ns3:TrackPointExtension>
            <ns3:atemp>22.0</ns3:atemp>
          </ns3:TrackPointExtension>
        </extensions>
      </trkpt>
      <trkpt lat="42.5439409352838993072509765625" lon="20.11914722621440887451171875">
        <ele>1918.800048828125</ele>
        <time>2026-06-20T06:53:27.000Z</time>
        <extensions>
          <ns3:TrackPointExtension>
            <ns3:atemp>22.0</ns3:atemp>
          </ns3:TrackPointExtension>
        </extensions>
      </trkpt>
      <trkpt lat="42.54394344985485076904296875" lon="20.11914915405213832855224609375">
        <ele>1919</ele>
        <time>2026-06-20T06:53:28.000Z</time>
        <extensions>
          <ns3:TrackPointExtension>
            <ns3:atemp>22.0</ns3:atemp>
          </ns3:TrackPointExtension>
        </extensions>
      </trkpt>
      <trkpt lat="42.54394655115902423858642578125" lon="20.11915133334696292877197265625">
        <ele>1919</ele>
        <time>2026-06-20T06:53:29.000Z</time>
        <extensions>
          <ns3:TrackPointExtension>
            <ns3:atemp>22.0</ns3:atemp>
          </ns3:TrackPointExtension>
        </extensions>
      </trkpt>
      <trkpt lat="42.54395023919641971588134765625" lon="20.11915150098502635955810546875">
        <ele>1919.199951171875</ele>
        <time>2026-06-20T06:53:30.000Z</time>
        <extensions>
          <ns3:TrackPointExtension>
            <ns3:atemp>22.0</ns3:atemp>
          </ns3:TrackPointExtension>
        </extensions>
      </trkpt>
      <trkpt lat="42.5439540110528469085693359375" lon="20.119152255356311798095703125">
        <ele>1919.4000244140625</ele>
        <time>2026-06-20T06:53:31.000Z</time>
        <extensions>
          <ns3:TrackPointExtension>
            <ns3:atemp>22.0</ns3:atemp>
          </ns3:TrackPointExtension>
        </extensions>
      </trkpt>
      <trkpt lat="42.54395593889057636260986328125" lon="20.11915217153728008270263671875">
        <ele>1919.4000244140625</ele>
        <time>2026-06-20T06:53:32.000Z</time>
        <extensions>
          <ns3:TrackPointExtension>
            <ns3:atemp>22.0</ns3:atemp>
          </ns3:TrackPointExtension>
        </extensions>
      </trkpt>
      <trkpt lat="42.54395593889057636260986328125" lon="20.1191520877182483673095703125">
        <ele>1919.4000244140625</ele>
        <time>2026-06-20T06:53:33.000Z</time>
        <extensions>
          <ns3:TrackPointExtension>
            <ns3:atemp>22.0</ns3:atemp>
          </ns3:TrackPointExtension>
        </extensions>
      </trkpt>
      <trkpt lat="42.54395593889057636260986328125" lon="20.1191520877182483673095703125">
        <ele>1919.4000244140625</ele>
        <time>2026-06-20T06:53:34.000Z</time>
        <extensions>
          <ns3:TrackPointExtension>
            <ns3:atemp>22.0</ns3:atemp>
          </ns3:TrackPointExtension>
        </extensions>
      </trkpt>
      <trkpt lat="42.54395593889057636260986328125" lon="20.1191520877182483673095703125">
        <ele>1919.4000244140625</ele>
        <time>2026-06-20T06:53:35.000Z</time>
        <extensions>
          <ns3:TrackPointExtension>
            <ns3:atemp>22.0</ns3:atemp>
          </ns3:TrackPointExtension>
        </extensions>
      </trkpt>
      <trkpt lat="42.54395593889057636260986328125" lon="20.1191520877182483673095703125">
        <ele>1919.4000244140625</ele>
        <time>2026-06-20T06:53:36.000Z</time>
        <extensions>
          <ns3:TrackPointExtension>
            <ns3:atemp>22.0</ns3:atemp>
          </ns3:TrackPointExtension>
        </extensions>
      </trkpt>
      <trkpt lat="42.54395593889057636260986328125" lon="20.1191520877182483673095703125">
        <ele>1919.4000244140625</ele>
        <time>2026-06-20T06:53:37.000Z</time>
        <extensions>
          <ns3:TrackPointExtension>
            <ns3:atemp>22.0</ns3:atemp>
          </ns3:TrackPointExtension>
        </extensions>
      </trkpt>
      <trkpt lat="42.54395593889057636260986328125" lon="20.1191520877182483673095703125">
        <ele>1919.4000244140625</ele>
        <time>2026-06-20T06:53:38.000Z</time>
        <extensions>
          <ns3:TrackPointExtension>
            <ns3:atemp>22.0</ns3:atemp>
          </ns3:TrackPointExtension>
        </extensions>
      </trkpt>
      <trkpt lat="42.54395593889057636260986328125" lon="20.1191520877182483673095703125">
        <ele>1919.4000244140625</ele>
        <time>2026-06-20T06:53:39.000Z</time>
        <extensions>
          <ns3:TrackPointExtension>
            <ns3:atemp>22.0</ns3:atemp>
          </ns3:TrackPointExtension>
        </extensions>
      </trkpt>
      <trkpt lat="42.54395593889057636260986328125" lon="20.1191520877182483673095703125">
        <ele>1919.4000244140625</ele>
        <time>2026-06-20T06:53:40.000Z</time>
        <extensions>
          <ns3:TrackPointExtension>
            <ns3:atemp>22.0</ns3:atemp>
          </ns3:TrackPointExtension>
        </extensions>
      </trkpt>
      <trkpt lat="42.54395593889057636260986328125" lon="20.1191520877182483673095703125">
        <ele>1919.4000244140625</ele>
        <time>2026-06-20T06:53:41.000Z</time>
        <extensions>
          <ns3:TrackPointExtension>
            <ns3:atemp>22.0</ns3:atemp>
          </ns3:TrackPointExtension>
        </extensions>
      </trkpt>
      <trkpt lat="42.54395593889057636260986328125" lon="20.1191520877182483673095703125">
        <ele>1919.4000244140625</ele>
        <time>2026-06-20T06:53:42.000Z</time>
        <extensions>
          <ns3:TrackPointExtension>
            <ns3:atemp>22.0</ns3:atemp>
          </ns3:TrackPointExtension>
        </extensions>
      </trkpt>
      <trkpt lat="42.54395593889057636260986328125" lon="20.1191520877182483673095703125">
        <ele>1919.4000244140625</ele>
        <time>2026-06-20T06:53:43.000Z</time>
        <extensions>
          <ns3:TrackPointExtension>
            <ns3:atemp>22.0</ns3:atemp>
          </ns3:TrackPointExtension>
        </extensions>
      </trkpt>
      <trkpt lat="42.54395593889057636260986328125" lon="20.1191520877182483673095703125">
        <ele>1919.4000244140625</ele>
        <time>2026-06-20T06:53:44.000Z</time>
        <extensions>
          <ns3:TrackPointExtension>
            <ns3:atemp>22.0</ns3:atemp>
          </ns3:TrackPointExtension>
        </extensions>
      </trkpt>
      <trkpt lat="42.54395593889057636260986328125" lon="20.1191520877182483673095703125">
        <ele>1919.4000244140625</ele>
        <time>2026-06-20T06:53:45.000Z</time>
        <extensions>
          <ns3:TrackPointExtension>
            <ns3:atemp>22.0</ns3:atemp>
          </ns3:TrackPointExtension>
        </extensions>
      </trkpt>
      <trkpt lat="42.54395593889057636260986328125" lon="20.1191520877182483673095703125">
        <ele>1919.4000244140625</ele>
        <time>2026-06-20T06:53:46.000Z</time>
        <extensions>
          <ns3:TrackPointExtension>
            <ns3:atemp>22.0</ns3:atemp>
          </ns3:TrackPointExtension>
        </extensions>
      </trkpt>
      <trkpt lat="42.54395593889057636260986328125" lon="20.1191520877182483673095703125">
        <ele>1919.199951171875</ele>
        <time>2026-06-20T06:53:47.000Z</time>
        <extensions>
          <ns3:TrackPointExtension>
            <ns3:atemp>22.0</ns3:atemp>
          </ns3:TrackPointExtension>
        </extensions>
      </trkpt>
      <trkpt lat="42.54395593889057636260986328125" lon="20.1191520877182483673095703125">
        <ele>1919.199951171875</ele>
        <time>2026-06-20T06:53:48.000Z</time>
        <extensions>
          <ns3:TrackPointExtension>
            <ns3:atemp>22.0</ns3:atemp>
          </ns3:TrackPointExtension>
        </extensions>
      </trkpt>
      <trkpt lat="42.54395593889057636260986328125" lon="20.1191520877182483673095703125">
        <ele>1919.199951171875</ele>
        <time>2026-06-20T06:53:49.000Z</time>
        <extensions>
          <ns3:TrackPointExtension>
            <ns3:atemp>22.0</ns3:atemp>
          </ns3:TrackPointExtension>
        </extensions>
      </trkpt>
      <trkpt lat="42.54395593889057636260986328125" lon="20.1191520877182483673095703125">
        <ele>1919.199951171875</ele>
        <time>2026-06-20T06:53:50.000Z</time>
        <extensions>
          <ns3:TrackPointExtension>
            <ns3:atemp>22.0</ns3:atemp>
          </ns3:TrackPointExtension>
        </extensions>
      </trkpt>
      <trkpt lat="42.54395593889057636260986328125" lon="20.1191520877182483673095703125">
        <ele>1919.199951171875</ele>
        <time>2026-06-20T06:53:51.000Z</time>
        <extensions>
          <ns3:TrackPointExtension>
            <ns3:atemp>22.0</ns3:atemp>
          </ns3:TrackPointExtension>
        </extensions>
      </trkpt>
      <trkpt lat="42.54395761527121067047119140625" lon="20.1191540993750095367431640625">
        <ele>1919.199951171875</ele>
        <time>2026-06-20T06:53:52.000Z</time>
        <extensions>
          <ns3:TrackPointExtension>
            <ns3:atemp>22.0</ns3:atemp>
          </ns3:TrackPointExtension>
        </extensions>
      </trkpt>
      <trkpt lat="42.54395593889057636260986328125" lon="20.1191520877182483673095703125">
        <ele>1919.199951171875</ele>
        <time>2026-06-20T06:53:53.000Z</time>
        <extensions>
          <ns3:TrackPointExtension>
            <ns3:atemp>22.0</ns3:atemp>
          </ns3:TrackPointExtension>
        </extensions>
      </trkpt>
      <trkpt lat="42.54395593889057636260986328125" lon="20.1191520877182483673095703125">
        <ele>1919.199951171875</ele>
        <time>2026-06-20T06:53:54.000Z</time>
        <extensions>
          <ns3:TrackPointExtension>
            <ns3:atemp>22.0</ns3:atemp>
          </ns3:TrackPointExtension>
        </extensions>
      </trkpt>
      <trkpt lat="42.54396163858473300933837890625" lon="20.11915753595530986785888671875">
        <ele>1919.4000244140625</ele>
        <time>2026-06-20T06:53:55.000Z</time>
        <extensions>
          <ns3:TrackPointExtension>
            <ns3:atemp>22.0</ns3:atemp>
          </ns3:TrackPointExtension>
        </extensions>
      </trkpt>
      <trkpt lat="42.54397471435368061065673828125" lon="20.11916256509721279144287109375">
        <ele>1919.199951171875</ele>
        <time>2026-06-20T06:53:56.000Z</time>
        <extensions>
          <ns3:TrackPointExtension>
            <ns3:atemp>22.0</ns3:atemp>
          </ns3:TrackPointExtension>
        </extensions>
      </trkpt>
      <trkpt lat="42.54398100078105926513671875" lon="20.11916197836399078369140625">
        <ele>1919.199951171875</ele>
        <time>2026-06-20T06:53:57.000Z</time>
        <extensions>
          <ns3:TrackPointExtension>
            <ns3:atemp>22.0</ns3:atemp>
          </ns3:TrackPointExtension>
        </extensions>
      </trkpt>
      <trkpt lat="42.54399047233164310455322265625" lon="20.11916063725948333740234375">
        <ele>1919.199951171875</ele>
        <time>2026-06-20T06:53:58.000Z</time>
        <extensions>
          <ns3:TrackPointExtension>
            <ns3:atemp>22.0</ns3:atemp>
          </ns3:TrackPointExtension>
        </extensions>
      </trkpt>
      <trkpt lat="42.543995417654514312744140625" lon="20.11916038580238819122314453125">
        <ele>1919.199951171875</ele>
        <time>2026-06-20T06:53:59.000Z</time>
        <extensions>
          <ns3:TrackPointExtension>
            <ns3:atemp>22.0</ns3:atemp>
          </ns3:TrackPointExtension>
        </extensions>
      </trkpt>
      <trkpt lat="42.54400371573865413665771484375" lon="20.11915686540305614471435546875">
        <ele>1919.199951171875</ele>
        <time>2026-06-20T06:54:00.000Z</time>
        <extensions>
          <ns3:TrackPointExtension>
            <ns3:atemp>22.0</ns3:atemp>
          </ns3:TrackPointExtension>
        </extensions>
      </trkpt>
      <trkpt lat="42.54400874488055706024169921875" lon="20.11915233917534351348876953125">
        <ele>1919.4000244140625</ele>
        <time>2026-06-20T06:54:01.000Z</time>
        <extensions>
          <ns3:TrackPointExtension>
            <ns3:atemp>22.0</ns3:atemp>
          </ns3:TrackPointExtension>
        </extensions>
      </trkpt>
      <trkpt lat="42.54401461221277713775634765625" lon="20.11915200389921665191650390625">
        <ele>1919.4000244140625</ele>
        <time>2026-06-20T06:54:02.000Z</time>
        <extensions>
          <ns3:TrackPointExtension>
            <ns3:atemp>22.0</ns3:atemp>
          </ns3:TrackPointExtension>
        </extensions>
      </trkpt>
      <trkpt lat="42.544018886983394622802734375" lon="20.119150243699550628662109375">
        <ele>1919.5999755859375</ele>
        <time>2026-06-20T06:54:03.000Z</time>
        <extensions>
          <ns3:TrackPointExtension>
            <ns3:atemp>22.0</ns3:atemp>
          </ns3:TrackPointExtension>
        </extensions>
      </trkpt>
      <trkpt lat="42.54402684979140758514404296875" lon="20.11915250681340694427490234375">
        <ele>1919.800048828125</ele>
        <time>2026-06-20T06:54:04.000Z</time>
        <extensions>
          <ns3:TrackPointExtension>
            <ns3:atemp>22.0</ns3:atemp>
          </ns3:TrackPointExtension>
        </extensions>
      </trkpt>
      <trkpt lat="42.5440381653606891632080078125" lon="20.11915527284145355224609375">
        <ele>1920</ele>
        <time>2026-06-20T06:54:05.000Z</time>
        <extensions>
          <ns3:TrackPointExtension>
            <ns3:atemp>22.0</ns3:atemp>
          </ns3:TrackPointExtension>
        </extensions>
      </trkpt>
      <trkpt lat="42.54404948092997074127197265625" lon="20.11916072107851505279541015625">
        <ele>1920</ele>
        <time>2026-06-20T06:54:06.000Z</time>
        <extensions>
          <ns3:TrackPointExtension>
            <ns3:atemp>22.0</ns3:atemp>
          </ns3:TrackPointExtension>
        </extensions>
      </trkpt>
      <trkpt lat="42.54405534826219081878662109375" lon="20.11916642077267169952392578125">
        <ele>1920</ele>
        <time>2026-06-20T06:54:07.000Z</time>
        <extensions>
          <ns3:TrackPointExtension>
            <ns3:atemp>22.0</ns3:atemp>
          </ns3:TrackPointExtension>
        </extensions>
      </trkpt>
      <trkpt lat="42.54406238906085491180419921875" lon="20.119172036647796630859375">
        <ele>1920.199951171875</ele>
        <time>2026-06-20T06:54:08.000Z</time>
        <extensions>
          <ns3:TrackPointExtension>
            <ns3:atemp>22.0</ns3:atemp>
          </ns3:TrackPointExtension>
        </extensions>
      </trkpt>
      <trkpt lat="42.5440661609172821044921875" lon="20.1191782392561435699462890625">
        <ele>1920.4000244140625</ele>
        <time>2026-06-20T06:54:09.000Z</time>
        <extensions>
          <ns3:TrackPointExtension>
            <ns3:atemp>22.0</ns3:atemp>
          </ns3:TrackPointExtension>
        </extensions>
      </trkpt>
      <trkpt lat="42.54406892694532871246337890625" lon="20.119175054132938385009765625">
        <ele>1920.5999755859375</ele>
        <time>2026-06-20T06:54:10.000Z</time>
        <extensions>
          <ns3:TrackPointExtension>
            <ns3:atemp>22.0</ns3:atemp>
          </ns3:TrackPointExtension>
        </extensions>
      </trkpt>
      <trkpt lat="42.54407479427754878997802734375" lon="20.119178406894207000732421875">
        <ele>1920.800048828125</ele>
        <time>2026-06-20T06:54:11.000Z</time>
        <extensions>
          <ns3:TrackPointExtension>
            <ns3:atemp>22.0</ns3:atemp>
          </ns3:TrackPointExtension>
        </extensions>
      </trkpt>
      <trkpt lat="42.54408351145684719085693359375" lon="20.11918469332158565521240234375">
        <ele>1921</ele>
        <time>2026-06-20T06:54:12.000Z</time>
        <extensions>
          <ns3:TrackPointExtension>
            <ns3:atemp>22.0</ns3:atemp>
          </ns3:TrackPointExtension>
        </extensions>
      </trkpt>
      <trkpt lat="42.54408854059875011444091796875" lon="20.119191817939281463623046875">
        <ele>1921.199951171875</ele>
        <time>2026-06-20T06:54:13.000Z</time>
        <extensions>
          <ns3:TrackPointExtension>
            <ns3:atemp>22.0</ns3:atemp>
          </ns3:TrackPointExtension>
        </extensions>
      </trkpt>
      <trkpt lat="42.54409256391227245330810546875" lon="20.1191986910998821258544921875">
        <ele>1921.4000244140625</ele>
        <time>2026-06-20T06:54:14.000Z</time>
        <extensions>
          <ns3:TrackPointExtension>
            <ns3:atemp>22.0</ns3:atemp>
          </ns3:TrackPointExtension>
        </extensions>
      </trkpt>
      <trkpt lat="42.54409071989357471466064453125" lon="20.1192007027566432952880859375">
        <ele>1921.4000244140625</ele>
        <time>2026-06-20T06:54:15.000Z</time>
        <extensions>
          <ns3:TrackPointExtension>
            <ns3:atemp>22.0</ns3:atemp>
          </ns3:TrackPointExtension>
        </extensions>
      </trkpt>
      <trkpt lat="42.54409474320709705352783203125" lon="20.1192013733088970184326171875">
        <ele>1921.5999755859375</ele>
        <time>2026-06-20T06:54:16.000Z</time>
        <extensions>
          <ns3:TrackPointExtension>
            <ns3:atemp>22.0</ns3:atemp>
          </ns3:TrackPointExtension>
        </extensions>
      </trkpt>
      <trkpt lat="42.5440978445112705230712890625" lon="20.1192028820514678955078125">
        <ele>1921.800048828125</ele>
        <time>2026-06-20T06:54:17.000Z</time>
        <extensions>
          <ns3:TrackPointExtension>
            <ns3:atemp>22.0</ns3:atemp>
          </ns3:TrackPointExtension>
        </extensions>
      </trkpt>
      <trkpt lat="42.54410513676702976226806640625" lon="20.1192080788314342498779296875">
        <ele>1922</ele>
        <time>2026-06-20T06:54:18.000Z</time>
        <extensions>
          <ns3:TrackPointExtension>
            <ns3:atemp>22.0</ns3:atemp>
          </ns3:TrackPointExtension>
        </extensions>
      </trkpt>
      <trkpt lat="42.5441112555563449859619140625" lon="20.11921428143978118896484375">
        <ele>1922.199951171875</ele>
        <time>2026-06-20T06:54:19.000Z</time>
        <extensions>
          <ns3:TrackPointExtension>
            <ns3:atemp>22.0</ns3:atemp>
          </ns3:TrackPointExtension>
        </extensions>
      </trkpt>
      <trkpt lat="42.544114105403423309326171875" lon="20.11921637691557407379150390625">
        <ele>1922.4000244140625</ele>
        <time>2026-06-20T06:54:20.000Z</time>
        <extensions>
          <ns3:TrackPointExtension>
            <ns3:atemp>22.0</ns3:atemp>
          </ns3:TrackPointExtension>
        </extensions>
      </trkpt>
      <trkpt lat="42.544114105403423309326171875" lon="20.11921637691557407379150390625">
        <ele>1922.5999755859375</ele>
        <time>2026-06-20T06:54:21.000Z</time>
        <extensions>
          <ns3:TrackPointExtension>
            <ns3:atemp>22.0</ns3:atemp>
          </ns3:TrackPointExtension>
        </extensions>
      </trkpt>
      <trkpt lat="42.544118128716945648193359375" lon="20.11921872384846210479736328125">
        <ele>1922.800048828125</ele>
        <time>2026-06-20T06:54:22.000Z</time>
        <extensions>
          <ns3:TrackPointExtension>
            <ns3:atemp>22.0</ns3:atemp>
          </ns3:TrackPointExtension>
        </extensions>
      </trkpt>
      <trkpt lat="42.5441216491162776947021484375" lon="20.1192194782197475433349609375">
        <ele>1923</ele>
        <time>2026-06-20T06:54:23.000Z</time>
        <extensions>
          <ns3:TrackPointExtension>
            <ns3:atemp>22.0</ns3:atemp>
          </ns3:TrackPointExtension>
        </extensions>
      </trkpt>
      <trkpt lat="42.54412575624883174896240234375" lon="20.11921822093427181243896484375">
        <ele>1923.199951171875</ele>
        <time>2026-06-20T06:54:24.000Z</time>
        <extensions>
          <ns3:TrackPointExtension>
            <ns3:atemp>22.0</ns3:atemp>
          </ns3:TrackPointExtension>
        </extensions>
      </trkpt>
      <trkpt lat="42.544132880866527557373046875" lon="20.1192258484661579132080078125">
        <ele>1923.199951171875</ele>
        <time>2026-06-20T06:54:25.000Z</time>
        <extensions>
          <ns3:TrackPointExtension>
            <ns3:atemp>22.0</ns3:atemp>
          </ns3:TrackPointExtension>
        </extensions>
      </trkpt>
      <trkpt lat="42.5441374070942401885986328125" lon="20.119234733283519744873046875">
        <ele>1923.4000244140625</ele>
        <time>2026-06-20T06:54:26.000Z</time>
        <extensions>
          <ns3:TrackPointExtension>
            <ns3:atemp>22.0</ns3:atemp>
          </ns3:TrackPointExtension>
        </extensions>
      </trkpt>
      <trkpt lat="42.5441390834748744964599609375" lon="20.1192389242351055145263671875">
        <ele>1923.5999755859375</ele>
        <time>2026-06-20T06:54:27.000Z</time>
        <extensions>
          <ns3:TrackPointExtension>
            <ns3:atemp>22.0</ns3:atemp>
          </ns3:TrackPointExtension>
        </extensions>
      </trkpt>
      <trkpt lat="42.5441427715122699737548828125" lon="20.11924303136765956878662109375">
        <ele>1923.5999755859375</ele>
        <time>2026-06-20T06:54:28.000Z</time>
        <extensions>
          <ns3:TrackPointExtension>
            <ns3:atemp>22.0</ns3:atemp>
          </ns3:TrackPointExtension>
        </extensions>
      </trkpt>
      <trkpt lat="42.54414436407387256622314453125" lon="20.119244121015071868896484375">
        <ele>1923.800048828125</ele>
        <time>2026-06-20T06:54:29.000Z</time>
        <extensions>
          <ns3:TrackPointExtension>
            <ns3:atemp>22.0</ns3:atemp>
          </ns3:TrackPointExtension>
        </extensions>
      </trkpt>
      <trkpt lat="42.5441444478929042816162109375" lon="20.119244121015071868896484375">
        <ele>1924</ele>
        <time>2026-06-20T06:54:30.000Z</time>
        <extensions>
          <ns3:TrackPointExtension>
            <ns3:atemp>22.0</ns3:atemp>
          </ns3:TrackPointExtension>
        </extensions>
      </trkpt>
      <trkpt lat="42.54414872266352176666259765625" lon="20.11924244463443756103515625">
        <ele>1924</ele>
        <time>2026-06-20T06:54:31.000Z</time>
        <extensions>
          <ns3:TrackPointExtension>
            <ns3:atemp>22.0</ns3:atemp>
          </ns3:TrackPointExtension>
        </extensions>
      </trkpt>
      <trkpt lat="42.5441518239676952362060546875" lon="20.1192404329776763916015625">
        <ele>1924.199951171875</ele>
        <time>2026-06-20T06:54:32.000Z</time>
        <extensions>
          <ns3:TrackPointExtension>
            <ns3:atemp>22.0</ns3:atemp>
          </ns3:TrackPointExtension>
        </extensions>
      </trkpt>
      <trkpt lat="42.5441573560237884521484375" lon="20.11924454011023044586181640625">
        <ele>1924.4000244140625</ele>
        <time>2026-06-20T06:54:33.000Z</time>
        <extensions>
          <ns3:TrackPointExtension>
            <ns3:atemp>22.0</ns3:atemp>
          </ns3:TrackPointExtension>
        </extensions>
      </trkpt>
      <trkpt lat="42.54416280426084995269775390625" lon="20.1192446239292621612548828125">
        <ele>1924.5999755859375</ele>
        <time>2026-06-20T06:54:34.000Z</time>
        <extensions>
          <ns3:TrackPointExtension>
            <ns3:atemp>22.0</ns3:atemp>
          </ns3:TrackPointExtension>
        </extensions>
      </trkpt>
      <trkpt lat="42.54416917450726032257080078125" lon="20.11924688704311847686767578125">
        <ele>1924.5999755859375</ele>
        <time>2026-06-20T06:54:35.000Z</time>
        <extensions>
          <ns3:TrackPointExtension>
            <ns3:atemp>22.0</ns3:atemp>
          </ns3:TrackPointExtension>
        </extensions>
      </trkpt>
      <trkpt lat="42.54417437128722667694091796875" lon="20.1192503236234188079833984375">
        <ele>1924.800048828125</ele>
        <time>2026-06-20T06:54:36.000Z</time>
        <extensions>
          <ns3:TrackPointExtension>
            <ns3:atemp>22.0</ns3:atemp>
          </ns3:TrackPointExtension>
        </extensions>
      </trkpt>
      <trkpt lat="42.54418141208589076995849609375" lon="20.1192530058324337005615234375">
        <ele>1925</ele>
        <time>2026-06-20T06:54:37.000Z</time>
        <extensions>
          <ns3:TrackPointExtension>
            <ns3:atemp>22.0</ns3:atemp>
          </ns3:TrackPointExtension>
        </extensions>
      </trkpt>
      <trkpt lat="42.544185854494571685791015625" lon="20.11925878934562206268310546875">
        <ele>1925</ele>
        <time>2026-06-20T06:54:38.000Z</time>
        <extensions>
          <ns3:TrackPointExtension>
            <ns3:atemp>22.0</ns3:atemp>
          </ns3:TrackPointExtension>
        </extensions>
      </trkpt>
      <trkpt lat="42.544184513390064239501953125" lon="20.11925744824111461639404296875">
        <ele>1925.199951171875</ele>
        <time>2026-06-20T06:54:39.000Z</time>
        <extensions>
          <ns3:TrackPointExtension>
            <ns3:atemp>22.0</ns3:atemp>
          </ns3:TrackPointExtension>
        </extensions>
      </trkpt>
      <trkpt lat="42.54418459720909595489501953125" lon="20.11925744824111461639404296875">
        <ele>1925.4000244140625</ele>
        <time>2026-06-20T06:54:40.000Z</time>
        <extensions>
          <ns3:TrackPointExtension>
            <ns3:atemp>22.0</ns3:atemp>
          </ns3:TrackPointExtension>
        </extensions>
      </trkpt>
      <trkpt lat="42.54419021308422088623046875" lon="20.11926046572625637054443359375">
        <ele>1925.4000244140625</ele>
        <time>2026-06-20T06:54:41.000Z</time>
        <extensions>
          <ns3:TrackPointExtension>
            <ns3:atemp>22.0</ns3:atemp>
          </ns3:TrackPointExtension>
        </extensions>
      </trkpt>
      <trkpt lat="42.544193565845489501953125" lon="20.1192597113549709320068359375">
        <ele>1925.5999755859375</ele>
        <time>2026-06-20T06:54:42.000Z</time>
        <extensions>
          <ns3:TrackPointExtension>
            <ns3:atemp>22.0</ns3:atemp>
          </ns3:TrackPointExtension>
        </extensions>
      </trkpt>
      <trkpt lat="42.5441997684538364410400390625" lon="20.1192620582878589630126953125">
        <ele>1925.800048828125</ele>
        <time>2026-06-20T06:54:43.000Z</time>
        <extensions>
          <ns3:TrackPointExtension>
            <ns3:atemp>22.0</ns3:atemp>
          </ns3:TrackPointExtension>
        </extensions>
      </trkpt>
      <trkpt lat="42.54420605488121509552001953125" lon="20.1192645728588104248046875">
        <ele>1926</ele>
        <time>2026-06-20T06:54:44.000Z</time>
        <extensions>
          <ns3:TrackPointExtension>
            <ns3:atemp>22.0</ns3:atemp>
          </ns3:TrackPointExtension>
        </extensions>
      </trkpt>
      <trkpt lat="42.54421007819473743438720703125" lon="20.11926482431590557098388671875">
        <ele>1926.199951171875</ele>
        <time>2026-06-20T06:54:45.000Z</time>
        <extensions>
          <ns3:TrackPointExtension>
            <ns3:atemp>22.0</ns3:atemp>
          </ns3:TrackPointExtension>
        </extensions>
      </trkpt>
      <trkpt lat="42.54421007819473743438720703125" lon="20.11926532723009586334228515625">
        <ele>1926.4000244140625</ele>
        <time>2026-06-20T06:54:46.000Z</time>
        <extensions>
          <ns3:TrackPointExtension>
            <ns3:atemp>22.0</ns3:atemp>
          </ns3:TrackPointExtension>
        </extensions>
      </trkpt>
      <trkpt lat="42.54421007819473743438720703125" lon="20.11926532723009586334228515625">
        <ele>1926.4000244140625</ele>
        <time>2026-06-20T06:54:47.000Z</time>
        <extensions>
          <ns3:TrackPointExtension>
            <ns3:atemp>22.0</ns3:atemp>
          </ns3:TrackPointExtension>
        </extensions>
      </trkpt>
      <trkpt lat="42.5442101620137691497802734375" lon="20.11926532723009586334228515625">
        <ele>1926.5999755859375</ele>
        <time>2026-06-20T06:54:48.000Z</time>
        <extensions>
          <ns3:TrackPointExtension>
            <ns3:atemp>22.0</ns3:atemp>
          </ns3:TrackPointExtension>
        </extensions>
      </trkpt>
      <trkpt lat="42.5442151911556720733642578125" lon="20.11926465667784214019775390625">
        <ele>1926.800048828125</ele>
        <time>2026-06-20T06:54:49.000Z</time>
        <extensions>
          <ns3:TrackPointExtension>
            <ns3:atemp>22.0</ns3:atemp>
          </ns3:TrackPointExtension>
        </extensions>
      </trkpt>
      <trkpt lat="42.54422231577336788177490234375" lon="20.11926130391657352447509765625">
        <ele>1927</ele>
        <time>2026-06-20T06:54:50.000Z</time>
        <extensions>
          <ns3:TrackPointExtension>
            <ns3:atemp>22.0</ns3:atemp>
          </ns3:TrackPointExtension>
        </extensions>
      </trkpt>
      <trkpt lat="42.54422684200108051300048828125" lon="20.119258202612400054931640625">
        <ele>1927</ele>
        <time>2026-06-20T06:54:51.000Z</time>
        <extensions>
          <ns3:TrackPointExtension>
            <ns3:atemp>22.0</ns3:atemp>
          </ns3:TrackPointExtension>
        </extensions>
      </trkpt>
      <trkpt lat="42.5442343018949031829833984375" lon="20.1192570291459560394287109375">
        <ele>1927.199951171875</ele>
        <time>2026-06-20T06:54:52.000Z</time>
        <extensions>
          <ns3:TrackPointExtension>
            <ns3:atemp>22.0</ns3:atemp>
          </ns3:TrackPointExtension>
        </extensions>
      </trkpt>
      <trkpt lat="42.544237487018108367919921875" lon="20.11925811879336833953857421875">
        <ele>1927.199951171875</ele>
        <time>2026-06-20T06:54:53.000Z</time>
        <extensions>
          <ns3:TrackPointExtension>
            <ns3:atemp>22.0</ns3:atemp>
          </ns3:TrackPointExtension>
        </extensions>
      </trkpt>
      <trkpt lat="42.54423446953296661376953125" lon="20.11925828643143177032470703125">
        <ele>1927.4000244140625</ele>
        <time>2026-06-20T06:54:54.000Z</time>
        <extensions>
          <ns3:TrackPointExtension>
            <ns3:atemp>22.0</ns3:atemp>
          </ns3:TrackPointExtension>
        </extensions>
      </trkpt>
      <trkpt lat="42.54423446953296661376953125" lon="20.119258202612400054931640625">
        <ele>1927.4000244140625</ele>
        <time>2026-06-20T06:54:55.000Z</time>
        <extensions>
          <ns3:TrackPointExtension>
            <ns3:atemp>22.0</ns3:atemp>
          </ns3:TrackPointExtension>
        </extensions>
      </trkpt>
      <trkpt lat="42.54423446953296661376953125" lon="20.119258202612400054931640625">
        <ele>1927.5999755859375</ele>
        <time>2026-06-20T06:54:56.000Z</time>
        <extensions>
          <ns3:TrackPointExtension>
            <ns3:atemp>22.0</ns3:atemp>
          </ns3:TrackPointExtension>
        </extensions>
      </trkpt>
      <trkpt lat="42.54423446953296661376953125" lon="20.1192580349743366241455078125">
        <ele>1927.5999755859375</ele>
        <time>2026-06-20T06:54:57.000Z</time>
        <extensions>
          <ns3:TrackPointExtension>
            <ns3:atemp>22.0</ns3:atemp>
          </ns3:TrackPointExtension>
        </extensions>
      </trkpt>
      <trkpt lat="42.54424494691193103790283203125" lon="20.1192533411085605621337890625">
        <ele>1927.800048828125</ele>
        <time>2026-06-20T06:54:58.000Z</time>
        <extensions>
          <ns3:TrackPointExtension>
            <ns3:atemp>22.0</ns3:atemp>
          </ns3:TrackPointExtension>
        </extensions>
      </trkpt>
      <trkpt lat="42.544252909719944000244140625" lon="20.1192550174891948699951171875">
        <ele>1927.800048828125</ele>
        <time>2026-06-20T06:54:59.000Z</time>
        <extensions>
          <ns3:TrackPointExtension>
            <ns3:atemp>22.0</ns3:atemp>
          </ns3:TrackPointExtension>
        </extensions>
      </trkpt>
      <trkpt lat="42.5442607887089252471923828125" lon="20.11925359256565570831298828125">
        <ele>1927.800048828125</ele>
        <time>2026-06-20T06:55:00.000Z</time>
        <extensions>
          <ns3:TrackPointExtension>
            <ns3:atemp>22.0</ns3:atemp>
          </ns3:TrackPointExtension>
        </extensions>
      </trkpt>
      <trkpt lat="42.54426422528922557830810546875" lon="20.1192523352801799774169921875">
        <ele>1927.800048828125</ele>
        <time>2026-06-20T06:55:01.000Z</time>
        <extensions>
          <ns3:TrackPointExtension>
            <ns3:atemp>22.0</ns3:atemp>
          </ns3:TrackPointExtension>
        </extensions>
      </trkpt>
      <trkpt lat="42.544268667697906494140625" lon="20.11925174854695796966552734375">
        <ele>1927.800048828125</ele>
        <time>2026-06-20T06:55:02.000Z</time>
        <extensions>
          <ns3:TrackPointExtension>
            <ns3:atemp>22.0</ns3:atemp>
          </ns3:TrackPointExtension>
        </extensions>
      </trkpt>
      <trkpt lat="42.54427445121109485626220703125" lon="20.1192516647279262542724609375">
        <ele>1928</ele>
        <time>2026-06-20T06:55:03.000Z</time>
        <extensions>
          <ns3:TrackPointExtension>
            <ns3:atemp>22.0</ns3:atemp>
          </ns3:TrackPointExtension>
        </extensions>
      </trkpt>
      <trkpt lat="42.544281743466854095458984375" lon="20.1192486472427845001220703125">
        <ele>1928.199951171875</ele>
        <time>2026-06-20T06:55:04.000Z</time>
        <extensions>
          <ns3:TrackPointExtension>
            <ns3:atemp>22.0</ns3:atemp>
          </ns3:TrackPointExtension>
        </extensions>
      </trkpt>
      <trkpt lat="42.5442929752171039581298828125" lon="20.11924504302442073822021484375">
        <ele>1928.199951171875</ele>
        <time>2026-06-20T06:55:05.000Z</time>
        <extensions>
          <ns3:TrackPointExtension>
            <ns3:atemp>22.0</ns3:atemp>
          </ns3:TrackPointExtension>
        </extensions>
      </trkpt>
      <trkpt lat="42.544294483959674835205078125" lon="20.1192416064441204071044921875">
        <ele>1928.4000244140625</ele>
        <time>2026-06-20T06:55:06.000Z</time>
        <extensions>
          <ns3:TrackPointExtension>
            <ns3:atemp>22.0</ns3:atemp>
          </ns3:TrackPointExtension>
        </extensions>
      </trkpt>
      <trkpt lat="42.544294483959674835205078125" lon="20.11924152262508869171142578125">
        <ele>1928.5999755859375</ele>
        <time>2026-06-20T06:55:07.000Z</time>
        <extensions>
          <ns3:TrackPointExtension>
            <ns3:atemp>22.0</ns3:atemp>
          </ns3:TrackPointExtension>
        </extensions>
      </trkpt>
      <trkpt lat="42.544294483959674835205078125" lon="20.11924152262508869171142578125">
        <ele>1928.800048828125</ele>
        <time>2026-06-20T06:55:08.000Z</time>
        <extensions>
          <ns3:TrackPointExtension>
            <ns3:atemp>22.0</ns3:atemp>
          </ns3:TrackPointExtension>
        </extensions>
      </trkpt>
      <trkpt lat="42.544294483959674835205078125" lon="20.11924152262508869171142578125">
        <ele>1928.800048828125</ele>
        <time>2026-06-20T06:55:09.000Z</time>
        <extensions>
          <ns3:TrackPointExtension>
            <ns3:atemp>22.0</ns3:atemp>
          </ns3:TrackPointExtension>
        </extensions>
      </trkpt>
      <trkpt lat="42.544294483959674835205078125" lon="20.11924152262508869171142578125">
        <ele>1929</ele>
        <time>2026-06-20T06:55:10.000Z</time>
        <extensions>
          <ns3:TrackPointExtension>
            <ns3:atemp>22.0</ns3:atemp>
          </ns3:TrackPointExtension>
        </extensions>
      </trkpt>
      <trkpt lat="42.54429481923580169677734375" lon="20.119241438806056976318359375">
        <ele>1929</ele>
        <time>2026-06-20T06:55:11.000Z</time>
        <extensions>
          <ns3:TrackPointExtension>
            <ns3:atemp>22.0</ns3:atemp>
          </ns3:TrackPointExtension>
        </extensions>
      </trkpt>
      <trkpt lat="42.544294483959674835205078125" lon="20.11924152262508869171142578125">
        <ele>1929</ele>
        <time>2026-06-20T06:55:12.000Z</time>
        <extensions>
          <ns3:TrackPointExtension>
            <ns3:atemp>22.0</ns3:atemp>
          </ns3:TrackPointExtension>
        </extensions>
      </trkpt>
      <trkpt lat="42.544294483959674835205078125" lon="20.11924152262508869171142578125">
        <ele>1929.199951171875</ele>
        <time>2026-06-20T06:55:13.000Z</time>
        <extensions>
          <ns3:TrackPointExtension>
            <ns3:atemp>22.0</ns3:atemp>
          </ns3:TrackPointExtension>
        </extensions>
      </trkpt>
      <trkpt lat="42.544294483959674835205078125" lon="20.11924152262508869171142578125">
        <ele>1929.199951171875</ele>
        <time>2026-06-20T06:55:14.000Z</time>
        <extensions>
          <ns3:TrackPointExtension>
            <ns3:atemp>22.0</ns3:atemp>
          </ns3:TrackPointExtension>
        </extensions>
      </trkpt>
      <trkpt lat="42.544294483959674835205078125" lon="20.11924152262508869171142578125">
        <ele>1929.199951171875</ele>
        <time>2026-06-20T06:55:15.000Z</time>
        <extensions>
          <ns3:TrackPointExtension>
            <ns3:atemp>22.0</ns3:atemp>
          </ns3:TrackPointExtension>
        </extensions>
      </trkpt>
      <trkpt lat="42.544294483959674835205078125" lon="20.11924152262508869171142578125">
        <ele>1929.199951171875</ele>
        <time>2026-06-20T06:55:16.000Z</time>
        <extensions>
          <ns3:TrackPointExtension>
            <ns3:atemp>22.0</ns3:atemp>
          </ns3:TrackPointExtension>
        </extensions>
      </trkpt>
      <trkpt lat="42.544294483959674835205078125" lon="20.11924152262508869171142578125">
        <ele>1929.199951171875</ele>
        <time>2026-06-20T06:55:17.000Z</time>
        <extensions>
          <ns3:TrackPointExtension>
            <ns3:atemp>22.0</ns3:atemp>
          </ns3:TrackPointExtension>
        </extensions>
      </trkpt>
      <trkpt lat="42.5442990101873874664306640625" lon="20.11924202553927898406982421875">
        <ele>1929.199951171875</ele>
        <time>2026-06-20T06:55:18.000Z</time>
        <extensions>
          <ns3:TrackPointExtension>
            <ns3:atemp>22.0</ns3:atemp>
          </ns3:TrackPointExtension>
        </extensions>
      </trkpt>
      <trkpt lat="42.54431133158504962921142578125" lon="20.11923247016966342926025390625">
        <ele>1929.199951171875</ele>
        <time>2026-06-20T06:55:19.000Z</time>
        <extensions>
          <ns3:TrackPointExtension>
            <ns3:atemp>22.0</ns3:atemp>
          </ns3:TrackPointExtension>
        </extensions>
      </trkpt>
      <trkpt lat="42.54431703127920627593994140625" lon="20.11922811158001422882080078125">
        <ele>1929.4000244140625</ele>
        <time>2026-06-20T06:55:20.000Z</time>
        <extensions>
          <ns3:TrackPointExtension>
            <ns3:atemp>22.0</ns3:atemp>
          </ns3:TrackPointExtension>
        </extensions>
      </trkpt>
      <trkpt lat="42.544324658811092376708984375" lon="20.11922542937099933624267578125">
        <ele>1929.4000244140625</ele>
        <time>2026-06-20T06:55:21.000Z</time>
        <extensions>
          <ns3:TrackPointExtension>
            <ns3:atemp>22.0</ns3:atemp>
          </ns3:TrackPointExtension>
        </extensions>
      </trkpt>
      <trkpt lat="42.54433027468621730804443359375" lon="20.1192281953990459442138671875">
        <ele>1929.5999755859375</ele>
        <time>2026-06-20T06:55:22.000Z</time>
        <extensions>
          <ns3:TrackPointExtension>
            <ns3:atemp>22.0</ns3:atemp>
          </ns3:TrackPointExtension>
        </extensions>
      </trkpt>
      <trkpt lat="42.5443372316658496856689453125" lon="20.119225345551967620849609375">
        <ele>1929.5999755859375</ele>
        <time>2026-06-20T06:55:23.000Z</time>
        <extensions>
          <ns3:TrackPointExtension>
            <ns3:atemp>22.0</ns3:atemp>
          </ns3:TrackPointExtension>
        </extensions>
      </trkpt>
      <trkpt lat="42.54434335045516490936279296875" lon="20.11922174133360385894775390625">
        <ele>1929.800048828125</ele>
        <time>2026-06-20T06:55:24.000Z</time>
        <extensions>
          <ns3:TrackPointExtension>
            <ns3:atemp>22.0</ns3:atemp>
          </ns3:TrackPointExtension>
        </extensions>
      </trkpt>
      <trkpt lat="42.54435114562511444091796875" lon="20.11922056786715984344482421875">
        <ele>1930</ele>
        <time>2026-06-20T06:55:25.000Z</time>
        <extensions>
          <ns3:TrackPointExtension>
            <ns3:atemp>22.0</ns3:atemp>
          </ns3:TrackPointExtension>
        </extensions>
      </trkpt>
      <trkpt lat="42.54435240291059017181396484375" lon="20.119216628372669219970703125">
        <ele>1930.199951171875</ele>
        <time>2026-06-20T06:55:26.000Z</time>
        <extensions>
          <ns3:TrackPointExtension>
            <ns3:atemp>22.0</ns3:atemp>
          </ns3:TrackPointExtension>
        </extensions>
      </trkpt>
      <trkpt lat="42.54435240291059017181396484375" lon="20.11921654455363750457763671875">
        <ele>1930.199951171875</ele>
        <time>2026-06-20T06:55:27.000Z</time>
        <extensions>
          <ns3:TrackPointExtension>
            <ns3:atemp>22.0</ns3:atemp>
          </ns3:TrackPointExtension>
        </extensions>
      </trkpt>
      <trkpt lat="42.54435240291059017181396484375" lon="20.11921654455363750457763671875">
        <ele>1930.4000244140625</ele>
        <time>2026-06-20T06:55:28.000Z</time>
        <extensions>
          <ns3:TrackPointExtension>
            <ns3:atemp>22.0</ns3:atemp>
          </ns3:TrackPointExtension>
        </extensions>
      </trkpt>
      <trkpt lat="42.54435961134731769561767578125" lon="20.11921436525881290435791015625">
        <ele>1930.5999755859375</ele>
        <time>2026-06-20T06:55:29.000Z</time>
        <extensions>
          <ns3:TrackPointExtension>
            <ns3:atemp>22.0</ns3:atemp>
          </ns3:TrackPointExtension>
        </extensions>
      </trkpt>
      <trkpt lat="42.544367574155330657958984375" lon="20.11921319179236888885498046875">
        <ele>1931</ele>
        <time>2026-06-20T06:55:30.000Z</time>
        <extensions>
          <ns3:TrackPointExtension>
            <ns3:atemp>22.0</ns3:atemp>
          </ns3:TrackPointExtension>
        </extensions>
      </trkpt>
      <trkpt lat="42.5443747825920581817626953125" lon="20.1192094199359416961669921875">
        <ele>1931</ele>
        <time>2026-06-20T06:55:31.000Z</time>
        <extensions>
          <ns3:TrackPointExtension>
            <ns3:atemp>22.0</ns3:atemp>
          </ns3:TrackPointExtension>
        </extensions>
      </trkpt>
      <trkpt lat="42.5443824939429759979248046875" lon="20.11920489370822906494140625">
        <ele>1931.199951171875</ele>
        <time>2026-06-20T06:55:32.000Z</time>
        <extensions>
          <ns3:TrackPointExtension>
            <ns3:atemp>22.0</ns3:atemp>
          </ns3:TrackPointExtension>
        </extensions>
      </trkpt>
      <trkpt lat="42.54438844509422779083251953125" lon="20.11919860728085041046142578125">
        <ele>1931.199951171875</ele>
        <time>2026-06-20T06:55:33.000Z</time>
        <extensions>
          <ns3:TrackPointExtension>
            <ns3:atemp>22.0</ns3:atemp>
          </ns3:TrackPointExtension>
        </extensions>
      </trkpt>
      <trkpt lat="42.54439548589289188385009765625" lon="20.11919810436666011810302734375">
        <ele>1931.199951171875</ele>
        <time>2026-06-20T06:55:34.000Z</time>
        <extensions>
          <ns3:TrackPointExtension>
            <ns3:atemp>22.0</ns3:atemp>
          </ns3:TrackPointExtension>
        </extensions>
      </trkpt>
      <trkpt lat="42.54440344870090484619140625" lon="20.11919911019504070281982421875">
        <ele>1931.4000244140625</ele>
        <time>2026-06-20T06:55:35.000Z</time>
        <extensions>
          <ns3:TrackPointExtension>
            <ns3:atemp>22.0</ns3:atemp>
          </ns3:TrackPointExtension>
        </extensions>
      </trkpt>
      <trkpt lat="42.54441057331860065460205078125" lon="20.1191996969282627105712890625">
        <ele>1931.5999755859375</ele>
        <time>2026-06-20T06:55:36.000Z</time>
        <extensions>
          <ns3:TrackPointExtension>
            <ns3:atemp>22.0</ns3:atemp>
          </ns3:TrackPointExtension>
        </extensions>
      </trkpt>
      <trkpt lat="42.54441442899405956268310546875" lon="20.11920028366148471832275390625">
        <ele>1931.800048828125</ele>
        <time>2026-06-20T06:55:37.000Z</time>
        <extensions>
          <ns3:TrackPointExtension>
            <ns3:atemp>22.0</ns3:atemp>
          </ns3:TrackPointExtension>
        </extensions>
      </trkpt>
      <trkpt lat="42.54442096687853336334228515625" lon="20.11919843964278697967529296875">
        <ele>1931.800048828125</ele>
        <time>2026-06-20T06:55:38.000Z</time>
        <extensions>
          <ns3:TrackPointExtension>
            <ns3:atemp>22.0</ns3:atemp>
          </ns3:TrackPointExtension>
        </extensions>
      </trkpt>
      <trkpt lat="42.54442758858203887939453125" lon="20.119199194014072418212890625">
        <ele>1932</ele>
        <time>2026-06-20T06:55:39.000Z</time>
        <extensions>
          <ns3:TrackPointExtension>
            <ns3:atemp>22.0</ns3:atemp>
          </ns3:TrackPointExtension>
        </extensions>
      </trkpt>
      <trkpt lat="42.54443228244781494140625" lon="20.11920145712792873382568359375">
        <ele>1932</ele>
        <time>2026-06-20T06:55:40.000Z</time>
        <extensions>
          <ns3:TrackPointExtension>
            <ns3:atemp>22.0</ns3:atemp>
          </ns3:TrackPointExtension>
        </extensions>
      </trkpt>
      <trkpt lat="42.54443907178938388824462890625" lon="20.11920380406081676483154296875">
        <ele>1932.199951171875</ele>
        <time>2026-06-20T06:55:41.000Z</time>
        <extensions>
          <ns3:TrackPointExtension>
            <ns3:atemp>22.0</ns3:atemp>
          </ns3:TrackPointExtension>
        </extensions>
      </trkpt>
      <trkpt lat="42.54444292746484279632568359375" lon="20.1192047260701656341552734375">
        <ele>1932.4000244140625</ele>
        <time>2026-06-20T06:55:42.000Z</time>
        <extensions>
          <ns3:TrackPointExtension>
            <ns3:atemp>22.0</ns3:atemp>
          </ns3:TrackPointExtension>
        </extensions>
      </trkpt>
      <trkpt lat="42.54445097409188747406005859375" lon="20.11920346878468990325927734375">
        <ele>1932.4000244140625</ele>
        <time>2026-06-20T06:55:43.000Z</time>
        <extensions>
          <ns3:TrackPointExtension>
            <ns3:atemp>22.0</ns3:atemp>
          </ns3:TrackPointExtension>
        </extensions>
      </trkpt>
      <trkpt lat="42.54446036182343959808349609375" lon="20.119205899536609649658203125">
        <ele>1932.5999755859375</ele>
        <time>2026-06-20T06:55:44.000Z</time>
        <extensions>
          <ns3:TrackPointExtension>
            <ns3:atemp>22.0</ns3:atemp>
          </ns3:TrackPointExtension>
        </extensions>
      </trkpt>
      <trkpt lat="42.5444711744785308837890625" lon="20.1192127726972103118896484375">
        <ele>1932.800048828125</ele>
        <time>2026-06-20T06:55:45.000Z</time>
        <extensions>
          <ns3:TrackPointExtension>
            <ns3:atemp>22.0</ns3:atemp>
          </ns3:TrackPointExtension>
        </extensions>
      </trkpt>
      <trkpt lat="42.54447729326784610748291015625" lon="20.11921268887817859649658203125">
        <ele>1933</ele>
        <time>2026-06-20T06:55:46.000Z</time>
        <extensions>
          <ns3:TrackPointExtension>
            <ns3:atemp>22.0</ns3:atemp>
          </ns3:TrackPointExtension>
        </extensions>
      </trkpt>
      <trkpt lat="42.54447746090590953826904296875" lon="20.11921285651624202728271484375">
        <ele>1933.199951171875</ele>
        <time>2026-06-20T06:55:47.000Z</time>
        <extensions>
          <ns3:TrackPointExtension>
            <ns3:atemp>22.0</ns3:atemp>
          </ns3:TrackPointExtension>
        </extensions>
      </trkpt>
      <trkpt lat="42.54447746090590953826904296875" lon="20.11921285651624202728271484375">
        <ele>1933.4000244140625</ele>
        <time>2026-06-20T06:55:48.000Z</time>
        <extensions>
          <ns3:TrackPointExtension>
            <ns3:atemp>22.0</ns3:atemp>
          </ns3:TrackPointExtension>
        </extensions>
      </trkpt>
      <trkpt lat="42.54447746090590953826904296875" lon="20.11921285651624202728271484375">
        <ele>1933.5999755859375</ele>
        <time>2026-06-20T06:55:49.000Z</time>
        <extensions>
          <ns3:TrackPointExtension>
            <ns3:atemp>22.0</ns3:atemp>
          </ns3:TrackPointExtension>
        </extensions>
      </trkpt>
      <trkpt lat="42.54447746090590953826904296875" lon="20.11921285651624202728271484375">
        <ele>1933.5999755859375</ele>
        <time>2026-06-20T06:55:50.000Z</time>
        <extensions>
          <ns3:TrackPointExtension>
            <ns3:atemp>22.0</ns3:atemp>
          </ns3:TrackPointExtension>
        </extensions>
      </trkpt>
      <trkpt lat="42.54447863437235355377197265625" lon="20.11921335943043231964111328125">
        <ele>1933.800048828125</ele>
        <time>2026-06-20T06:55:51.000Z</time>
        <extensions>
          <ns3:TrackPointExtension>
            <ns3:atemp>22.0</ns3:atemp>
          </ns3:TrackPointExtension>
        </extensions>
      </trkpt>
      <trkpt lat="42.544490285217761993408203125" lon="20.11922090314328670501708984375">
        <ele>1934</ele>
        <time>2026-06-20T06:55:52.000Z</time>
        <extensions>
          <ns3:TrackPointExtension>
            <ns3:atemp>22.0</ns3:atemp>
          </ns3:TrackPointExtension>
        </extensions>
      </trkpt>
      <trkpt lat="42.54449053667485713958740234375" lon="20.1192211546003818511962890625">
        <ele>1934</ele>
        <time>2026-06-20T06:55:53.000Z</time>
        <extensions>
          <ns3:TrackPointExtension>
            <ns3:atemp>22.0</ns3:atemp>
          </ns3:TrackPointExtension>
        </extensions>
      </trkpt>
      <trkpt lat="42.54449808038771152496337890625" lon="20.1192228309810161590576171875">
        <ele>1934.199951171875</ele>
        <time>2026-06-20T06:55:54.000Z</time>
        <extensions>
          <ns3:TrackPointExtension>
            <ns3:atemp>22.0</ns3:atemp>
          </ns3:TrackPointExtension>
        </extensions>
      </trkpt>
      <trkpt lat="42.544502355158329010009765625" lon="20.11922827921807765960693359375">
        <ele>1934.199951171875</ele>
        <time>2026-06-20T06:55:55.000Z</time>
        <extensions>
          <ns3:TrackPointExtension>
            <ns3:atemp>22.0</ns3:atemp>
          </ns3:TrackPointExtension>
        </extensions>
      </trkpt>
      <trkpt lat="42.5445025227963924407958984375" lon="20.119228363037109375">
        <ele>1934.4000244140625</ele>
        <time>2026-06-20T06:55:56.000Z</time>
        <extensions>
          <ns3:TrackPointExtension>
            <ns3:atemp>22.0</ns3:atemp>
          </ns3:TrackPointExtension>
        </extensions>
      </trkpt>
      <trkpt lat="42.54451182670891284942626953125" lon="20.11923230253159999847412109375">
        <ele>1934.5999755859375</ele>
        <time>2026-06-20T06:55:57.000Z</time>
        <extensions>
          <ns3:TrackPointExtension>
            <ns3:atemp>22.0</ns3:atemp>
          </ns3:TrackPointExtension>
        </extensions>
      </trkpt>
      <trkpt lat="42.544502355158329010009765625" lon="20.11922827921807765960693359375">
        <ele>1934.800048828125</ele>
        <time>2026-06-20T06:55:58.000Z</time>
        <extensions>
          <ns3:TrackPointExtension>
            <ns3:atemp>22.0</ns3:atemp>
          </ns3:TrackPointExtension>
        </extensions>
      </trkpt>
      <trkpt lat="42.54451333545148372650146484375" lon="20.11923515237867832183837890625">
        <ele>1935</ele>
        <time>2026-06-20T06:55:59.000Z</time>
        <extensions>
          <ns3:TrackPointExtension>
            <ns3:atemp>22.0</ns3:atemp>
          </ns3:TrackPointExtension>
        </extensions>
      </trkpt>
      <trkpt lat="42.54451853223145008087158203125" lon="20.11923247016966342926025390625">
        <ele>1935</ele>
        <time>2026-06-20T06:56:00.000Z</time>
        <extensions>
          <ns3:TrackPointExtension>
            <ns3:atemp>22.0</ns3:atemp>
          </ns3:TrackPointExtension>
        </extensions>
      </trkpt>
      <trkpt lat="42.5445273332297801971435546875" lon="20.11923230253159999847412109375">
        <ele>1935</ele>
        <time>2026-06-20T06:56:01.000Z</time>
        <extensions>
          <ns3:TrackPointExtension>
            <ns3:atemp>22.0</ns3:atemp>
          </ns3:TrackPointExtension>
        </extensions>
      </trkpt>
      <trkpt lat="42.54453294910490512847900390625" lon="20.1192281953990459442138671875">
        <ele>1935</ele>
        <time>2026-06-20T06:56:02.000Z</time>
        <extensions>
          <ns3:TrackPointExtension>
            <ns3:atemp>22.0</ns3:atemp>
          </ns3:TrackPointExtension>
        </extensions>
      </trkpt>
      <trkpt lat="42.54453915171325206756591796875" lon="20.11922308243811130523681640625">
        <ele>1935</ele>
        <time>2026-06-20T06:56:03.000Z</time>
        <extensions>
          <ns3:TrackPointExtension>
            <ns3:atemp>22.0</ns3:atemp>
          </ns3:TrackPointExtension>
        </extensions>
      </trkpt>
      <trkpt lat="42.54454501904547214508056640625" lon="20.11922232806682586669921875">
        <ele>1934.800048828125</ele>
        <time>2026-06-20T06:56:04.000Z</time>
        <extensions>
          <ns3:TrackPointExtension>
            <ns3:atemp>22.0</ns3:atemp>
          </ns3:TrackPointExtension>
        </extensions>
      </trkpt>
      <trkpt lat="42.54455289803445339202880859375" lon="20.119222663342952728271484375">
        <ele>1934.800048828125</ele>
        <time>2026-06-20T06:56:05.000Z</time>
        <extensions>
          <ns3:TrackPointExtension>
            <ns3:atemp>22.0</ns3:atemp>
          </ns3:TrackPointExtension>
        </extensions>
      </trkpt>
      <trkpt lat="42.5445638783276081085205078125" lon="20.11922098696231842041015625">
        <ele>1934.5999755859375</ele>
        <time>2026-06-20T06:56:06.000Z</time>
        <extensions>
          <ns3:TrackPointExtension>
            <ns3:atemp>22.0</ns3:atemp>
          </ns3:TrackPointExtension>
        </extensions>
      </trkpt>
      <trkpt lat="42.5445705838501453399658203125" lon="20.119215287268161773681640625">
        <ele>1934.800048828125</ele>
        <time>2026-06-20T06:56:07.000Z</time>
        <extensions>
          <ns3:TrackPointExtension>
            <ns3:atemp>22.0</ns3:atemp>
          </ns3:TrackPointExtension>
        </extensions>
      </trkpt>
      <trkpt lat="42.54457854665815830230712890625" lon="20.11921050958335399627685546875">
        <ele>1935</ele>
        <time>2026-06-20T06:56:08.000Z</time>
        <extensions>
          <ns3:TrackPointExtension>
            <ns3:atemp>22.0</ns3:atemp>
          </ns3:TrackPointExtension>
        </extensions>
      </trkpt>
      <trkpt lat="42.54458240233361721038818359375" lon="20.119205228984355926513671875">
        <ele>1935.199951171875</ele>
        <time>2026-06-20T06:56:09.000Z</time>
        <extensions>
          <ns3:TrackPointExtension>
            <ns3:atemp>22.0</ns3:atemp>
          </ns3:TrackPointExtension>
        </extensions>
      </trkpt>
      <trkpt lat="42.54458927549421787261962890625" lon="20.1191990263760089874267578125">
        <ele>1935.4000244140625</ele>
        <time>2026-06-20T06:56:10.000Z</time>
        <extensions>
          <ns3:TrackPointExtension>
            <ns3:atemp>22.0</ns3:atemp>
          </ns3:TrackPointExtension>
        </extensions>
      </trkpt>
      <trkpt lat="42.54459715448319911956787109375" lon="20.1191980205476284027099609375">
        <ele>1935.5999755859375</ele>
        <time>2026-06-20T06:56:11.000Z</time>
        <extensions>
          <ns3:TrackPointExtension>
            <ns3:atemp>22.0</ns3:atemp>
          </ns3:TrackPointExtension>
        </extensions>
      </trkpt>
      <trkpt lat="42.54460419528186321258544921875" lon="20.1191913150250911712646484375">
        <ele>1935.800048828125</ele>
        <time>2026-06-20T06:56:12.000Z</time>
        <extensions>
          <ns3:TrackPointExtension>
            <ns3:atemp>22.0</ns3:atemp>
          </ns3:TrackPointExtension>
        </extensions>
      </trkpt>
      <trkpt lat="42.54460905678570270538330078125" lon="20.1191869564354419708251953125">
        <ele>1935.800048828125</ele>
        <time>2026-06-20T06:56:13.000Z</time>
        <extensions>
          <ns3:TrackPointExtension>
            <ns3:atemp>22.0</ns3:atemp>
          </ns3:TrackPointExtension>
        </extensions>
      </trkpt>
      <trkpt lat="42.54461777396500110626220703125" lon="20.11917832307517528533935546875">
        <ele>1935.800048828125</ele>
        <time>2026-06-20T06:56:14.000Z</time>
        <extensions>
          <ns3:TrackPointExtension>
            <ns3:atemp>22.0</ns3:atemp>
          </ns3:TrackPointExtension>
        </extensions>
      </trkpt>
      <trkpt lat="42.54462380893528461456298828125" lon="20.11917807161808013916015625">
        <ele>1936</ele>
        <time>2026-06-20T06:56:15.000Z</time>
        <extensions>
          <ns3:TrackPointExtension>
            <ns3:atemp>22.0</ns3:atemp>
          </ns3:TrackPointExtension>
        </extensions>
      </trkpt>
      <trkpt lat="42.54462783224880695343017578125" lon="20.1191799156367778778076171875">
        <ele>1936</ele>
        <time>2026-06-20T06:56:16.000Z</time>
        <extensions>
          <ns3:TrackPointExtension>
            <ns3:atemp>22.0</ns3:atemp>
          </ns3:TrackPointExtension>
        </extensions>
      </trkpt>
      <trkpt lat="42.54463805817067623138427734375" lon="20.11917865835130214691162109375">
        <ele>1936.199951171875</ele>
        <time>2026-06-20T06:56:17.000Z</time>
        <extensions>
          <ns3:TrackPointExtension>
            <ns3:atemp>22.0</ns3:atemp>
          </ns3:TrackPointExtension>
        </extensions>
      </trkpt>
      <trkpt lat="42.54464845173060894012451171875" lon="20.119176395237445831298828125">
        <ele>1936.199951171875</ele>
        <time>2026-06-20T06:56:18.000Z</time>
        <extensions>
          <ns3:TrackPointExtension>
            <ns3:atemp>22.0</ns3:atemp>
          </ns3:TrackPointExtension>
        </extensions>
      </trkpt>
      <trkpt lat="42.54465566016733646392822265625" lon="20.11917463503777980804443359375">
        <ele>1936.199951171875</ele>
        <time>2026-06-20T06:56:19.000Z</time>
        <extensions>
          <ns3:TrackPointExtension>
            <ns3:atemp>22.0</ns3:atemp>
          </ns3:TrackPointExtension>
        </extensions>
      </trkpt>
      <trkpt lat="42.5446557439863681793212890625" lon="20.1191745512187480926513671875">
        <ele>1936</ele>
        <time>2026-06-20T06:56:20.000Z</time>
        <extensions>
          <ns3:TrackPointExtension>
            <ns3:atemp>22.0</ns3:atemp>
          </ns3:TrackPointExtension>
        </extensions>
      </trkpt>
      <trkpt lat="42.5446557439863681793212890625" lon="20.1191745512187480926513671875">
        <ele>1936</ele>
        <time>2026-06-20T06:56:21.000Z</time>
        <extensions>
          <ns3:TrackPointExtension>
            <ns3:atemp>22.0</ns3:atemp>
          </ns3:TrackPointExtension>
        </extensions>
      </trkpt>
      <trkpt lat="42.5446560792624950408935546875" lon="20.11917446739971637725830078125">
        <ele>1935.800048828125</ele>
        <time>2026-06-20T06:56:22.000Z</time>
        <extensions>
          <ns3:TrackPointExtension>
            <ns3:atemp>22.0</ns3:atemp>
          </ns3:TrackPointExtension>
        </extensions>
      </trkpt>
      <trkpt lat="42.54467175342142581939697265625" lon="20.11917094700038433074951171875">
        <ele>1935.800048828125</ele>
        <time>2026-06-20T06:56:23.000Z</time>
        <extensions>
          <ns3:TrackPointExtension>
            <ns3:atemp>22.0</ns3:atemp>
          </ns3:TrackPointExtension>
        </extensions>
      </trkpt>
      <trkpt lat="42.544684074819087982177734375" lon="20.1191701926290988922119140625">
        <ele>1935.800048828125</ele>
        <time>2026-06-20T06:56:24.000Z</time>
        <extensions>
          <ns3:TrackPointExtension>
            <ns3:atemp>22.0</ns3:atemp>
          </ns3:TrackPointExtension>
        </extensions>
      </trkpt>
      <trkpt lat="42.54469673149287700653076171875" lon="20.119170360267162322998046875">
        <ele>1935.800048828125</ele>
        <time>2026-06-20T06:56:25.000Z</time>
        <extensions>
          <ns3:TrackPointExtension>
            <ns3:atemp>22.0</ns3:atemp>
          </ns3:TrackPointExtension>
        </extensions>
      </trkpt>
      <trkpt lat="42.544710896909236907958984375" lon="20.1191748864948749542236328125">
        <ele>1935.5999755859375</ele>
        <time>2026-06-20T06:56:26.000Z</time>
        <extensions>
          <ns3:TrackPointExtension>
            <ns3:atemp>22.0</ns3:atemp>
          </ns3:TrackPointExtension>
        </extensions>
      </trkpt>
      <trkpt lat="42.54472305066883563995361328125" lon="20.11918385513126850128173828125">
        <ele>1935.4000244140625</ele>
        <time>2026-06-20T06:56:27.000Z</time>
        <extensions>
          <ns3:TrackPointExtension>
            <ns3:atemp>22.0</ns3:atemp>
          </ns3:TrackPointExtension>
        </extensions>
      </trkpt>
      <trkpt lat="42.544733025133609771728515625" lon="20.119194500148296356201171875">
        <ele>1935.4000244140625</ele>
        <time>2026-06-20T06:56:28.000Z</time>
        <extensions>
          <ns3:TrackPointExtension>
            <ns3:atemp>22.0</ns3:atemp>
          </ns3:TrackPointExtension>
        </extensions>
      </trkpt>
      <trkpt lat="42.54474299959838390350341796875" lon="20.11920615099370479583740234375">
        <ele>1935.4000244140625</ele>
        <time>2026-06-20T06:56:29.000Z</time>
        <extensions>
          <ns3:TrackPointExtension>
            <ns3:atemp>22.0</ns3:atemp>
          </ns3:TrackPointExtension>
        </extensions>
      </trkpt>
      <trkpt lat="42.544755153357982635498046875" lon="20.1192174665629863739013671875">
        <ele>1935.4000244140625</ele>
        <time>2026-06-20T06:56:30.000Z</time>
        <extensions>
          <ns3:TrackPointExtension>
            <ns3:atemp>22.0</ns3:atemp>
          </ns3:TrackPointExtension>
        </extensions>
      </trkpt>
      <trkpt lat="42.54476822912693023681640625" lon="20.11921989731490612030029296875">
        <ele>1935.5999755859375</ele>
        <time>2026-06-20T06:56:31.000Z</time>
        <extensions>
          <ns3:TrackPointExtension>
            <ns3:atemp>22.0</ns3:atemp>
          </ns3:TrackPointExtension>
        </extensions>
      </trkpt>
      <trkpt lat="42.54478407092392444610595703125" lon="20.11922442354261875152587890625">
        <ele>1935.800048828125</ele>
        <time>2026-06-20T06:56:32.000Z</time>
        <extensions>
          <ns3:TrackPointExtension>
            <ns3:atemp>22.0</ns3:atemp>
          </ns3:TrackPointExtension>
        </extensions>
      </trkpt>
      <trkpt lat="42.544799745082855224609375" lon="20.11922660283744335174560546875">
        <ele>1936</ele>
        <time>2026-06-20T06:56:33.000Z</time>
        <extensions>
          <ns3:TrackPointExtension>
            <ns3:atemp>22.0</ns3:atemp>
          </ns3:TrackPointExtension>
        </extensions>
      </trkpt>
      <trkpt lat="42.5448123179376125335693359375" lon="20.1192218251526355743408203125">
        <ele>1936.4000244140625</ele>
        <time>2026-06-20T06:56:34.000Z</time>
        <extensions>
          <ns3:TrackPointExtension>
            <ns3:atemp>22.0</ns3:atemp>
          </ns3:TrackPointExtension>
        </extensions>
      </trkpt>
      <trkpt lat="42.54482262767851352691650390625" lon="20.11921562254428863525390625">
        <ele>1936.5999755859375</ele>
        <time>2026-06-20T06:56:35.000Z</time>
        <extensions>
          <ns3:TrackPointExtension>
            <ns3:atemp>22.0</ns3:atemp>
          </ns3:TrackPointExtension>
        </extensions>
      </trkpt>
      <trkpt lat="42.54483302123844623565673828125" lon="20.1192164607346057891845703125">
        <ele>1936.5999755859375</ele>
        <time>2026-06-20T06:56:36.000Z</time>
        <extensions>
          <ns3:TrackPointExtension>
            <ns3:atemp>22.0</ns3:atemp>
          </ns3:TrackPointExtension>
        </extensions>
      </trkpt>
      <trkpt lat="42.54483670927584171295166015625" lon="20.11922140605747699737548828125">
        <ele>1936.800048828125</ele>
        <time>2026-06-20T06:56:37.000Z</time>
        <extensions>
          <ns3:TrackPointExtension>
            <ns3:atemp>22.0</ns3:atemp>
          </ns3:TrackPointExtension>
        </extensions>
      </trkpt>
      <trkpt lat="42.54483805038034915924072265625" lon="20.11922593228518962860107421875">
        <ele>1937</ele>
        <time>2026-06-20T06:56:38.000Z</time>
        <extensions>
          <ns3:TrackPointExtension>
            <ns3:atemp>22.0</ns3:atemp>
          </ns3:TrackPointExtension>
        </extensions>
      </trkpt>
      <trkpt lat="42.54483805038034915924072265625" lon="20.119226016104221343994140625">
        <ele>1937</ele>
        <time>2026-06-20T06:56:39.000Z</time>
        <extensions>
          <ns3:TrackPointExtension>
            <ns3:atemp>22.0</ns3:atemp>
          </ns3:TrackPointExtension>
        </extensions>
      </trkpt>
      <trkpt lat="42.54483805038034915924072265625" lon="20.119226016104221343994140625">
        <ele>1937.199951171875</ele>
        <time>2026-06-20T06:56:40.000Z</time>
        <extensions>
          <ns3:TrackPointExtension>
            <ns3:atemp>22.0</ns3:atemp>
          </ns3:TrackPointExtension>
        </extensions>
      </trkpt>
      <trkpt lat="42.54483553580939769744873046875" lon="20.1192248426377773284912109375">
        <ele>1937.4000244140625</ele>
        <time>2026-06-20T06:56:41.000Z</time>
        <extensions>
          <ns3:TrackPointExtension>
            <ns3:atemp>22.0</ns3:atemp>
          </ns3:TrackPointExtension>
        </extensions>
      </trkpt>
      <trkpt lat="42.54483369179069995880126953125" lon="20.11922559700906276702880859375">
        <ele>1937.5999755859375</ele>
        <time>2026-06-20T06:56:42.000Z</time>
        <extensions>
          <ns3:TrackPointExtension>
            <ns3:atemp>22.0</ns3:atemp>
          </ns3:TrackPointExtension>
        </extensions>
      </trkpt>
      <trkpt lat="42.5448386371135711669921875" lon="20.11923112906515598297119140625">
        <ele>1937.5999755859375</ele>
        <time>2026-06-20T06:56:43.000Z</time>
        <extensions>
          <ns3:TrackPointExtension>
            <ns3:atemp>22.0</ns3:atemp>
          </ns3:TrackPointExtension>
        </extensions>
      </trkpt>
      <trkpt lat="42.54483838565647602081298828125" lon="20.1192402653396129608154296875">
        <ele>1937.800048828125</ele>
        <time>2026-06-20T06:56:44.000Z</time>
        <extensions>
          <ns3:TrackPointExtension>
            <ns3:atemp>22.0</ns3:atemp>
          </ns3:TrackPointExtension>
        </extensions>
      </trkpt>
      <trkpt lat="42.54483805038034915924072265625" lon="20.119226016104221343994140625">
        <ele>1937.800048828125</ele>
        <time>2026-06-20T06:56:45.000Z</time>
        <extensions>
          <ns3:TrackPointExtension>
            <ns3:atemp>22.0</ns3:atemp>
          </ns3:TrackPointExtension>
        </extensions>
      </trkpt>
      <trkpt lat="42.54483805038034915924072265625" lon="20.119226016104221343994140625">
        <ele>1938</ele>
        <time>2026-06-20T06:56:46.000Z</time>
        <extensions>
          <ns3:TrackPointExtension>
            <ns3:atemp>22.0</ns3:atemp>
          </ns3:TrackPointExtension>
        </extensions>
      </trkpt>
      <trkpt lat="42.54483805038034915924072265625" lon="20.119226016104221343994140625">
        <ele>1938</ele>
        <time>2026-06-20T06:56:47.000Z</time>
        <extensions>
          <ns3:TrackPointExtension>
            <ns3:atemp>22.0</ns3:atemp>
          </ns3:TrackPointExtension>
        </extensions>
      </trkpt>
      <trkpt lat="42.54483805038034915924072265625" lon="20.119226016104221343994140625">
        <ele>1938</ele>
        <time>2026-06-20T06:56:48.000Z</time>
        <extensions>
          <ns3:TrackPointExtension>
            <ns3:atemp>22.0</ns3:atemp>
          </ns3:TrackPointExtension>
        </extensions>
      </trkpt>
      <trkpt lat="42.54483805038034915924072265625" lon="20.119226016104221343994140625">
        <ele>1938</ele>
        <time>2026-06-20T06:56:49.000Z</time>
        <extensions>
          <ns3:TrackPointExtension>
            <ns3:atemp>22.0</ns3:atemp>
          </ns3:TrackPointExtension>
        </extensions>
      </trkpt>
      <trkpt lat="42.54483805038034915924072265625" lon="20.119226016104221343994140625">
        <ele>1938</ele>
        <time>2026-06-20T06:56:50.000Z</time>
        <extensions>
          <ns3:TrackPointExtension>
            <ns3:atemp>22.0</ns3:atemp>
          </ns3:TrackPointExtension>
        </extensions>
      </trkpt>
      <trkpt lat="42.5448374636471271514892578125" lon="20.119242779910564422607421875">
        <ele>1938</ele>
        <time>2026-06-20T06:56:51.000Z</time>
        <extensions>
          <ns3:TrackPointExtension>
            <ns3:atemp>22.0</ns3:atemp>
          </ns3:TrackPointExtension>
        </extensions>
      </trkpt>
      <trkpt lat="42.5448327697813510894775390625" lon="20.1192553527653217315673828125">
        <ele>1938.199951171875</ele>
        <time>2026-06-20T06:56:52.000Z</time>
        <extensions>
          <ns3:TrackPointExtension>
            <ns3:atemp>22.0</ns3:atemp>
          </ns3:TrackPointExtension>
        </extensions>
      </trkpt>
      <trkpt lat="42.5448270700871944427490234375" lon="20.119262896478176116943359375">
        <ele>1938.199951171875</ele>
        <time>2026-06-20T06:56:53.000Z</time>
        <extensions>
          <ns3:TrackPointExtension>
            <ns3:atemp>22.0</ns3:atemp>
          </ns3:TrackPointExtension>
        </extensions>
      </trkpt>
      <trkpt lat="42.54481977783143520355224609375" lon="20.11926448903977870941162109375">
        <ele>1938.199951171875</ele>
        <time>2026-06-20T06:56:54.000Z</time>
        <extensions>
          <ns3:TrackPointExtension>
            <ns3:atemp>22.0</ns3:atemp>
          </ns3:TrackPointExtension>
        </extensions>
      </trkpt>
      <trkpt lat="42.54481525160372257232666015625" lon="20.119270272552967071533203125">
        <ele>1938.4000244140625</ele>
        <time>2026-06-20T06:56:55.000Z</time>
        <extensions>
          <ns3:TrackPointExtension>
            <ns3:atemp>22.0</ns3:atemp>
          </ns3:TrackPointExtension>
        </extensions>
      </trkpt>
      <trkpt lat="42.5448119826614856719970703125" lon="20.11927521787583827972412109375">
        <ele>1938.4000244140625</ele>
        <time>2026-06-20T06:56:56.000Z</time>
        <extensions>
          <ns3:TrackPointExtension>
            <ns3:atemp>22.0</ns3:atemp>
          </ns3:TrackPointExtension>
        </extensions>
      </trkpt>
      <trkpt lat="42.5448079593479633331298828125" lon="20.11927437968552112579345703125">
        <ele>1938.5999755859375</ele>
        <time>2026-06-20T06:56:57.000Z</time>
        <extensions>
          <ns3:TrackPointExtension>
            <ns3:atemp>22.0</ns3:atemp>
          </ns3:TrackPointExtension>
        </extensions>
      </trkpt>
      <trkpt lat="42.5448079593479633331298828125" lon="20.1192744635045528411865234375">
        <ele>1938.5999755859375</ele>
        <time>2026-06-20T06:56:58.000Z</time>
        <extensions>
          <ns3:TrackPointExtension>
            <ns3:atemp>22.0</ns3:atemp>
          </ns3:TrackPointExtension>
        </extensions>
      </trkpt>
      <trkpt lat="42.54480779170989990234375" lon="20.11927454732358455657958984375">
        <ele>1938.5999755859375</ele>
        <time>2026-06-20T06:56:59.000Z</time>
        <extensions>
          <ns3:TrackPointExtension>
            <ns3:atemp>22.0</ns3:atemp>
          </ns3:TrackPointExtension>
        </extensions>
      </trkpt>
      <trkpt lat="42.54480083473026752471923828125" lon="20.11928577907383441925048828125">
        <ele>1938.5999755859375</ele>
        <time>2026-06-20T06:57:00.000Z</time>
        <extensions>
          <ns3:TrackPointExtension>
            <ns3:atemp>22.0</ns3:atemp>
          </ns3:TrackPointExtension>
        </extensions>
      </trkpt>
      <trkpt lat="42.54479815252125263214111328125" lon="20.1192908920347690582275390625">
        <ele>1938.800048828125</ele>
        <time>2026-06-20T06:57:01.000Z</time>
        <extensions>
          <ns3:TrackPointExtension>
            <ns3:atemp>22.0</ns3:atemp>
          </ns3:TrackPointExtension>
        </extensions>
      </trkpt>
      <trkpt lat="42.54479513503611087799072265625" lon="20.1193012855947017669677734375">
        <ele>1938.800048828125</ele>
        <time>2026-06-20T06:57:02.000Z</time>
        <extensions>
          <ns3:TrackPointExtension>
            <ns3:atemp>22.0</ns3:atemp>
          </ns3:TrackPointExtension>
        </extensions>
      </trkpt>
      <trkpt lat="42.54479245282709598541259765625" lon="20.11930556036531925201416015625">
        <ele>1938.800048828125</ele>
        <time>2026-06-20T06:57:03.000Z</time>
        <extensions>
          <ns3:TrackPointExtension>
            <ns3:atemp>22.0</ns3:atemp>
          </ns3:TrackPointExtension>
        </extensions>
      </trkpt>
      <trkpt lat="42.54479345865547657012939453125" lon="20.11931796558201313018798828125">
        <ele>1939</ele>
        <time>2026-06-20T06:57:04.000Z</time>
        <extensions>
          <ns3:TrackPointExtension>
            <ns3:atemp>22.0</ns3:atemp>
          </ns3:TrackPointExtension>
        </extensions>
      </trkpt>
      <trkpt lat="42.54479530267417430877685546875" lon="20.11932768858969211578369140625">
        <ele>1939.199951171875</ele>
        <time>2026-06-20T06:57:05.000Z</time>
        <extensions>
          <ns3:TrackPointExtension>
            <ns3:atemp>22.0</ns3:atemp>
          </ns3:TrackPointExtension>
        </extensions>
      </trkpt>
      <trkpt lat="42.54480066709220409393310546875" lon="20.11933104135096073150634765625">
        <ele>1939.199951171875</ele>
        <time>2026-06-20T06:57:06.000Z</time>
        <extensions>
          <ns3:TrackPointExtension>
            <ns3:atemp>22.0</ns3:atemp>
          </ns3:TrackPointExtension>
        </extensions>
      </trkpt>
      <trkpt lat="42.54480712115764617919921875" lon="20.11933187954127788543701171875">
        <ele>1939.4000244140625</ele>
        <time>2026-06-20T06:57:07.000Z</time>
        <extensions>
          <ns3:TrackPointExtension>
            <ns3:atemp>22.0</ns3:atemp>
          </ns3:TrackPointExtension>
        </extensions>
      </trkpt>
      <trkpt lat="42.544810809195041656494140625" lon="20.11933363974094390869140625">
        <ele>1939.4000244140625</ele>
        <time>2026-06-20T06:57:08.000Z</time>
        <extensions>
          <ns3:TrackPointExtension>
            <ns3:atemp>22.0</ns3:atemp>
          </ns3:TrackPointExtension>
        </extensions>
      </trkpt>
      <trkpt lat="42.54481843672692775726318359375" lon="20.1193361543118953704833984375">
        <ele>1939.4000244140625</ele>
        <time>2026-06-20T06:57:09.000Z</time>
        <extensions>
          <ns3:TrackPointExtension>
            <ns3:atemp>22.0</ns3:atemp>
          </ns3:TrackPointExtension>
        </extensions>
      </trkpt>
      <trkpt lat="42.5448240526020526885986328125" lon="20.11933657340705394744873046875">
        <ele>1939.5999755859375</ele>
        <time>2026-06-20T06:57:10.000Z</time>
        <extensions>
          <ns3:TrackPointExtension>
            <ns3:atemp>22.0</ns3:atemp>
          </ns3:TrackPointExtension>
        </extensions>
      </trkpt>
      <trkpt lat="42.544821538031101226806640625" lon="20.11933774687349796295166015625">
        <ele>1939.5999755859375</ele>
        <time>2026-06-20T06:57:11.000Z</time>
        <extensions>
          <ns3:TrackPointExtension>
            <ns3:atemp>22.0</ns3:atemp>
          </ns3:TrackPointExtension>
        </extensions>
      </trkpt>
      <trkpt lat="42.544821538031101226806640625" lon="20.11933757923543453216552734375">
        <ele>1939.800048828125</ele>
        <time>2026-06-20T06:57:12.000Z</time>
        <extensions>
          <ns3:TrackPointExtension>
            <ns3:atemp>22.0</ns3:atemp>
          </ns3:TrackPointExtension>
        </extensions>
      </trkpt>
      <trkpt lat="42.54482162185013294219970703125" lon="20.11933757923543453216552734375">
        <ele>1940</ele>
        <time>2026-06-20T06:57:13.000Z</time>
        <extensions>
          <ns3:TrackPointExtension>
            <ns3:atemp>22.0</ns3:atemp>
          </ns3:TrackPointExtension>
        </extensions>
      </trkpt>
      <trkpt lat="42.5448284111917018890380859375" lon="20.119335986673831939697265625">
        <ele>1940</ele>
        <time>2026-06-20T06:57:14.000Z</time>
        <extensions>
          <ns3:TrackPointExtension>
            <ns3:atemp>22.0</ns3:atemp>
          </ns3:TrackPointExtension>
        </extensions>
      </trkpt>
      <trkpt lat="42.54483662545680999755859375" lon="20.1193398423492908477783203125">
        <ele>1940</ele>
        <time>2026-06-20T06:57:15.000Z</time>
        <extensions>
          <ns3:TrackPointExtension>
            <ns3:atemp>22.0</ns3:atemp>
          </ns3:TrackPointExtension>
        </extensions>
      </trkpt>
      <trkpt lat="42.544842995703220367431640625" lon="20.11934143491089344024658203125">
        <ele>1940</ele>
        <time>2026-06-20T06:57:16.000Z</time>
        <extensions>
          <ns3:TrackPointExtension>
            <ns3:atemp>22.0</ns3:atemp>
          </ns3:TrackPointExtension>
        </extensions>
      </trkpt>
      <trkpt lat="42.5448431633412837982177734375" lon="20.1193415187299251556396484375">
        <ele>1940.199951171875</ele>
        <time>2026-06-20T06:57:17.000Z</time>
        <extensions>
          <ns3:TrackPointExtension>
            <ns3:atemp>22.0</ns3:atemp>
          </ns3:TrackPointExtension>
        </extensions>
      </trkpt>
      <trkpt lat="42.54484324716031551361083984375" lon="20.11934160254895687103271484375">
        <ele>1940.199951171875</ele>
        <time>2026-06-20T06:57:18.000Z</time>
        <extensions>
          <ns3:TrackPointExtension>
            <ns3:atemp>22.0</ns3:atemp>
          </ns3:TrackPointExtension>
        </extensions>
      </trkpt>
      <trkpt lat="42.54485280252993106842041015625" lon="20.1193445362150669097900390625">
        <ele>1940.4000244140625</ele>
        <time>2026-06-20T06:57:19.000Z</time>
        <extensions>
          <ns3:TrackPointExtension>
            <ns3:atemp>22.0</ns3:atemp>
          </ns3:TrackPointExtension>
        </extensions>
      </trkpt>
      <trkpt lat="42.5448538921773433685302734375" lon="20.11934570968151092529296875">
        <ele>1940.4000244140625</ele>
        <time>2026-06-20T06:57:20.000Z</time>
        <extensions>
          <ns3:TrackPointExtension>
            <ns3:atemp>22.0</ns3:atemp>
          </ns3:TrackPointExtension>
        </extensions>
      </trkpt>
      <trkpt lat="42.54485766403377056121826171875" lon="20.11934696696698665618896484375">
        <ele>1940.4000244140625</ele>
        <time>2026-06-20T06:57:21.000Z</time>
        <extensions>
          <ns3:TrackPointExtension>
            <ns3:atemp>21.0</ns3:atemp>
          </ns3:TrackPointExtension>
        </extensions>
      </trkpt>
      <trkpt lat="42.5448639504611492156982421875" lon="20.11934436857700347900390625">
        <ele>1940.4000244140625</ele>
        <time>2026-06-20T06:57:22.000Z</time>
        <extensions>
          <ns3:TrackPointExtension>
            <ns3:atemp>22.0</ns3:atemp>
          </ns3:TrackPointExtension>
        </extensions>
      </trkpt>
      <trkpt lat="42.54486487247049808502197265625" lon="20.11934646405279636383056640625">
        <ele>1940.199951171875</ele>
        <time>2026-06-20T06:57:23.000Z</time>
        <extensions>
          <ns3:TrackPointExtension>
            <ns3:atemp>22.0</ns3:atemp>
          </ns3:TrackPointExtension>
        </extensions>
      </trkpt>
      <trkpt lat="42.54486504010856151580810546875" lon="20.11934646405279636383056640625">
        <ele>1940.199951171875</ele>
        <time>2026-06-20T06:57:24.000Z</time>
        <extensions>
          <ns3:TrackPointExtension>
            <ns3:atemp>22.0</ns3:atemp>
          </ns3:TrackPointExtension>
        </extensions>
      </trkpt>
      <trkpt lat="42.5448656268417835235595703125" lon="20.1193448714911937713623046875">
        <ele>1940.199951171875</ele>
        <time>2026-06-20T06:57:25.000Z</time>
        <extensions>
          <ns3:TrackPointExtension>
            <ns3:atemp>22.0</ns3:atemp>
          </ns3:TrackPointExtension>
        </extensions>
      </trkpt>
      <trkpt lat="42.5448673032224178314208984375" lon="20.11934705078601837158203125">
        <ele>1940.4000244140625</ele>
        <time>2026-06-20T06:57:26.000Z</time>
        <extensions>
          <ns3:TrackPointExtension>
            <ns3:atemp>21.0</ns3:atemp>
          </ns3:TrackPointExtension>
        </extensions>
      </trkpt>
      <trkpt lat="42.5448673032224178314208984375" lon="20.11934705078601837158203125">
        <ele>1940.4000244140625</ele>
        <time>2026-06-20T06:57:27.000Z</time>
        <extensions>
          <ns3:TrackPointExtension>
            <ns3:atemp>21.0</ns3:atemp>
          </ns3:TrackPointExtension>
        </extensions>
      </trkpt>
      <trkpt lat="42.5448673032224178314208984375" lon="20.11934705078601837158203125">
        <ele>1940.5999755859375</ele>
        <time>2026-06-20T06:57:28.000Z</time>
        <extensions>
          <ns3:TrackPointExtension>
            <ns3:atemp>21.0</ns3:atemp>
          </ns3:TrackPointExtension>
        </extensions>
      </trkpt>
      <trkpt lat="42.5448673032224178314208984375" lon="20.11934705078601837158203125">
        <ele>1940.800048828125</ele>
        <time>2026-06-20T06:57:29.000Z</time>
        <extensions>
          <ns3:TrackPointExtension>
            <ns3:atemp>21.0</ns3:atemp>
          </ns3:TrackPointExtension>
        </extensions>
      </trkpt>
      <trkpt lat="42.54486747086048126220703125" lon="20.11934705078601837158203125">
        <ele>1940.800048828125</ele>
        <time>2026-06-20T06:57:30.000Z</time>
        <extensions>
          <ns3:TrackPointExtension>
            <ns3:atemp>21.0</ns3:atemp>
          </ns3:TrackPointExtension>
        </extensions>
      </trkpt>
      <trkpt lat="42.54486939869821071624755859375" lon="20.11934998445212841033935546875">
        <ele>1940.800048828125</ele>
        <time>2026-06-20T06:57:31.000Z</time>
        <extensions>
          <ns3:TrackPointExtension>
            <ns3:atemp>21.0</ns3:atemp>
          </ns3:TrackPointExtension>
        </extensions>
      </trkpt>
      <trkpt lat="42.54487685859203338623046875" lon="20.1193519122898578643798828125">
        <ele>1940.800048828125</ele>
        <time>2026-06-20T06:57:32.000Z</time>
        <extensions>
          <ns3:TrackPointExtension>
            <ns3:atemp>21.0</ns3:atemp>
          </ns3:TrackPointExtension>
        </extensions>
      </trkpt>
      <trkpt lat="42.544880211353302001953125" lon="20.11935107409954071044921875">
        <ele>1940.800048828125</ele>
        <time>2026-06-20T06:57:33.000Z</time>
        <extensions>
          <ns3:TrackPointExtension>
            <ns3:atemp>21.0</ns3:atemp>
          </ns3:TrackPointExtension>
        </extensions>
      </trkpt>
      <trkpt lat="42.54488289356231689453125" lon="20.11935375630855560302734375">
        <ele>1940.800048828125</ele>
        <time>2026-06-20T06:57:34.000Z</time>
        <extensions>
          <ns3:TrackPointExtension>
            <ns3:atemp>21.0</ns3:atemp>
          </ns3:TrackPointExtension>
        </extensions>
      </trkpt>
      <trkpt lat="42.54488666541874408721923828125" lon="20.119356103241443634033203125">
        <ele>1940.800048828125</ele>
        <time>2026-06-20T06:57:35.000Z</time>
        <extensions>
          <ns3:TrackPointExtension>
            <ns3:atemp>21.0</ns3:atemp>
          </ns3:TrackPointExtension>
        </extensions>
      </trkpt>
      <trkpt lat="42.544891275465488433837890625" lon="20.11935853399336338043212890625">
        <ele>1940.800048828125</ele>
        <time>2026-06-20T06:57:36.000Z</time>
        <extensions>
          <ns3:TrackPointExtension>
            <ns3:atemp>21.0</ns3:atemp>
          </ns3:TrackPointExtension>
        </extensions>
      </trkpt>
      <trkpt lat="42.54489454440772533416748046875" lon="20.1193636469542980194091796875">
        <ele>1940.800048828125</ele>
        <time>2026-06-20T06:57:37.000Z</time>
        <extensions>
          <ns3:TrackPointExtension>
            <ns3:atemp>21.0</ns3:atemp>
          </ns3:TrackPointExtension>
        </extensions>
      </trkpt>
      <trkpt lat="42.54490141756832599639892578125" lon="20.11936674825847148895263671875">
        <ele>1941</ele>
        <time>2026-06-20T06:57:38.000Z</time>
        <extensions>
          <ns3:TrackPointExtension>
            <ns3:atemp>21.0</ns3:atemp>
          </ns3:TrackPointExtension>
        </extensions>
      </trkpt>
      <trkpt lat="42.54490678198635578155517578125" lon="20.11936892755329608917236328125">
        <ele>1941</ele>
        <time>2026-06-20T06:57:39.000Z</time>
        <extensions>
          <ns3:TrackPointExtension>
            <ns3:atemp>21.0</ns3:atemp>
          </ns3:TrackPointExtension>
        </extensions>
      </trkpt>
      <trkpt lat="42.5449172593653202056884765625" lon="20.11937563307583332061767578125">
        <ele>1941.4000244140625</ele>
        <time>2026-06-20T06:57:40.000Z</time>
        <extensions>
          <ns3:TrackPointExtension>
            <ns3:atemp>21.0</ns3:atemp>
          </ns3:TrackPointExtension>
        </extensions>
      </trkpt>
      <trkpt lat="42.54492723383009433746337890625" lon="20.1193810813128948211669921875">
        <ele>1941.5999755859375</ele>
        <time>2026-06-20T06:57:41.000Z</time>
        <extensions>
          <ns3:TrackPointExtension>
            <ns3:atemp>21.0</ns3:atemp>
          </ns3:TrackPointExtension>
        </extensions>
      </trkpt>
      <trkpt lat="42.54493393935263156890869140625" lon="20.11938116513192653656005859375">
        <ele>1941.800048828125</ele>
        <time>2026-06-20T06:57:42.000Z</time>
        <extensions>
          <ns3:TrackPointExtension>
            <ns3:atemp>21.0</ns3:atemp>
          </ns3:TrackPointExtension>
        </extensions>
      </trkpt>
      <trkpt lat="42.5449393875896930694580078125" lon="20.11938150040805339813232421875">
        <ele>1941.800048828125</ele>
        <time>2026-06-20T06:57:43.000Z</time>
        <extensions>
          <ns3:TrackPointExtension>
            <ns3:atemp>21.0</ns3:atemp>
          </ns3:TrackPointExtension>
        </extensions>
      </trkpt>
      <trkpt lat="42.5449403934180736541748046875" lon="20.11937831528484821319580078125">
        <ele>1941.800048828125</ele>
        <time>2026-06-20T06:57:44.000Z</time>
        <extensions>
          <ns3:TrackPointExtension>
            <ns3:atemp>21.0</ns3:atemp>
          </ns3:TrackPointExtension>
        </extensions>
      </trkpt>
      <trkpt lat="42.5449403934180736541748046875" lon="20.119378231465816497802734375">
        <ele>1941.800048828125</ele>
        <time>2026-06-20T06:57:45.000Z</time>
        <extensions>
          <ns3:TrackPointExtension>
            <ns3:atemp>21.0</ns3:atemp>
          </ns3:TrackPointExtension>
        </extensions>
      </trkpt>
      <trkpt lat="42.5449403934180736541748046875" lon="20.119378231465816497802734375">
        <ele>1941.800048828125</ele>
        <time>2026-06-20T06:57:46.000Z</time>
        <extensions>
          <ns3:TrackPointExtension>
            <ns3:atemp>21.0</ns3:atemp>
          </ns3:TrackPointExtension>
        </extensions>
      </trkpt>
      <trkpt lat="42.5449403934180736541748046875" lon="20.119378231465816497802734375">
        <ele>1941.800048828125</ele>
        <time>2026-06-20T06:57:47.000Z</time>
        <extensions>
          <ns3:TrackPointExtension>
            <ns3:atemp>21.0</ns3:atemp>
          </ns3:TrackPointExtension>
        </extensions>
      </trkpt>
      <trkpt lat="42.5449403934180736541748046875" lon="20.119378231465816497802734375">
        <ele>1941.800048828125</ele>
        <time>2026-06-20T06:57:48.000Z</time>
        <extensions>
          <ns3:TrackPointExtension>
            <ns3:atemp>21.0</ns3:atemp>
          </ns3:TrackPointExtension>
        </extensions>
      </trkpt>
      <trkpt lat="42.5449403934180736541748046875" lon="20.119378231465816497802734375">
        <ele>1941.800048828125</ele>
        <time>2026-06-20T06:57:49.000Z</time>
        <extensions>
          <ns3:TrackPointExtension>
            <ns3:atemp>21.0</ns3:atemp>
          </ns3:TrackPointExtension>
        </extensions>
      </trkpt>
      <trkpt lat="42.5449403934180736541748046875" lon="20.119378231465816497802734375">
        <ele>1941.800048828125</ele>
        <time>2026-06-20T06:57:50.000Z</time>
        <extensions>
          <ns3:TrackPointExtension>
            <ns3:atemp>21.0</ns3:atemp>
          </ns3:TrackPointExtension>
        </extensions>
      </trkpt>
      <trkpt lat="42.5449403934180736541748046875" lon="20.119378231465816497802734375">
        <ele>1941.800048828125</ele>
        <time>2026-06-20T06:57:51.000Z</time>
        <extensions>
          <ns3:TrackPointExtension>
            <ns3:atemp>21.0</ns3:atemp>
          </ns3:TrackPointExtension>
        </extensions>
      </trkpt>
      <trkpt lat="42.54494098015129566192626953125" lon="20.11937663890421390533447265625">
        <ele>1941.800048828125</ele>
        <time>2026-06-20T06:57:52.000Z</time>
        <extensions>
          <ns3:TrackPointExtension>
            <ns3:atemp>21.0</ns3:atemp>
          </ns3:TrackPointExtension>
        </extensions>
      </trkpt>
      <trkpt lat="42.5449403934180736541748046875" lon="20.119378231465816497802734375">
        <ele>1941.800048828125</ele>
        <time>2026-06-20T06:57:53.000Z</time>
        <extensions>
          <ns3:TrackPointExtension>
            <ns3:atemp>21.0</ns3:atemp>
          </ns3:TrackPointExtension>
        </extensions>
      </trkpt>
      <trkpt lat="42.544946931302547454833984375" lon="20.119365490972995758056640625">
        <ele>1941.800048828125</ele>
        <time>2026-06-20T06:57:54.000Z</time>
        <extensions>
          <ns3:TrackPointExtension>
            <ns3:atemp>21.0</ns3:atemp>
          </ns3:TrackPointExtension>
        </extensions>
      </trkpt>
      <trkpt lat="42.544952966272830963134765625" lon="20.11936574243009090423583984375">
        <ele>1941.800048828125</ele>
        <time>2026-06-20T06:57:55.000Z</time>
        <extensions>
          <ns3:TrackPointExtension>
            <ns3:atemp>21.0</ns3:atemp>
          </ns3:TrackPointExtension>
        </extensions>
      </trkpt>
      <trkpt lat="42.54495732486248016357421875" lon="20.1193602941930294036865234375">
        <ele>1941.800048828125</ele>
        <time>2026-06-20T06:57:56.000Z</time>
        <extensions>
          <ns3:TrackPointExtension>
            <ns3:atemp>21.0</ns3:atemp>
          </ns3:TrackPointExtension>
        </extensions>
      </trkpt>
      <trkpt lat="42.54495866596698760986328125" lon="20.11936339549720287322998046875">
        <ele>1942</ele>
        <time>2026-06-20T06:57:57.000Z</time>
        <extensions>
          <ns3:TrackPointExtension>
            <ns3:atemp>21.0</ns3:atemp>
          </ns3:TrackPointExtension>
        </extensions>
      </trkpt>
      <trkpt lat="42.54495866596698760986328125" lon="20.11936339549720287322998046875">
        <ele>1942.199951171875</ele>
        <time>2026-06-20T06:57:58.000Z</time>
        <extensions>
          <ns3:TrackPointExtension>
            <ns3:atemp>21.0</ns3:atemp>
          </ns3:TrackPointExtension>
        </extensions>
      </trkpt>
      <trkpt lat="42.54495866596698760986328125" lon="20.11936339549720287322998046875">
        <ele>1942.4000244140625</ele>
        <time>2026-06-20T06:57:59.000Z</time>
        <extensions>
          <ns3:TrackPointExtension>
            <ns3:atemp>21.0</ns3:atemp>
          </ns3:TrackPointExtension>
        </extensions>
      </trkpt>
      <trkpt lat="42.54495866596698760986328125" lon="20.11936339549720287322998046875">
        <ele>1942.5999755859375</ele>
        <time>2026-06-20T06:58:00.000Z</time>
        <extensions>
          <ns3:TrackPointExtension>
            <ns3:atemp>21.0</ns3:atemp>
          </ns3:TrackPointExtension>
        </extensions>
      </trkpt>
      <trkpt lat="42.54495866596698760986328125" lon="20.11936339549720287322998046875">
        <ele>1942.5999755859375</ele>
        <time>2026-06-20T06:58:01.000Z</time>
        <extensions>
          <ns3:TrackPointExtension>
            <ns3:atemp>21.0</ns3:atemp>
          </ns3:TrackPointExtension>
        </extensions>
      </trkpt>
      <trkpt lat="42.54495866596698760986328125" lon="20.11936339549720287322998046875">
        <ele>1942.5999755859375</ele>
        <time>2026-06-20T06:58:02.000Z</time>
        <extensions>
          <ns3:TrackPointExtension>
            <ns3:atemp>21.0</ns3:atemp>
          </ns3:TrackPointExtension>
        </extensions>
      </trkpt>
      <trkpt lat="42.54495866596698760986328125" lon="20.11936339549720287322998046875">
        <ele>1942.5999755859375</ele>
        <time>2026-06-20T06:58:03.000Z</time>
        <extensions>
          <ns3:TrackPointExtension>
            <ns3:atemp>21.0</ns3:atemp>
          </ns3:TrackPointExtension>
        </extensions>
      </trkpt>
      <trkpt lat="42.54495866596698760986328125" lon="20.11936339549720287322998046875">
        <ele>1942.5999755859375</ele>
        <time>2026-06-20T06:58:04.000Z</time>
        <extensions>
          <ns3:TrackPointExtension>
            <ns3:atemp>21.0</ns3:atemp>
          </ns3:TrackPointExtension>
        </extensions>
      </trkpt>
      <trkpt lat="42.54495866596698760986328125" lon="20.11936339549720287322998046875">
        <ele>1942.5999755859375</ele>
        <time>2026-06-20T06:58:05.000Z</time>
        <extensions>
          <ns3:TrackPointExtension>
            <ns3:atemp>21.0</ns3:atemp>
          </ns3:TrackPointExtension>
        </extensions>
      </trkpt>
      <trkpt lat="42.54495866596698760986328125" lon="20.11936339549720287322998046875">
        <ele>1942.5999755859375</ele>
        <time>2026-06-20T06:58:06.000Z</time>
        <extensions>
          <ns3:TrackPointExtension>
            <ns3:atemp>21.0</ns3:atemp>
          </ns3:TrackPointExtension>
        </extensions>
      </trkpt>
      <trkpt lat="42.54495866596698760986328125" lon="20.11936339549720287322998046875">
        <ele>1942.5999755859375</ele>
        <time>2026-06-20T06:58:07.000Z</time>
        <extensions>
          <ns3:TrackPointExtension>
            <ns3:atemp>21.0</ns3:atemp>
          </ns3:TrackPointExtension>
        </extensions>
      </trkpt>
      <trkpt lat="42.54495866596698760986328125" lon="20.11936339549720287322998046875">
        <ele>1942.5999755859375</ele>
        <time>2026-06-20T06:58:08.000Z</time>
        <extensions>
          <ns3:TrackPointExtension>
            <ns3:atemp>21.0</ns3:atemp>
          </ns3:TrackPointExtension>
        </extensions>
      </trkpt>
      <trkpt lat="42.54495866596698760986328125" lon="20.11936339549720287322998046875">
        <ele>1942.800048828125</ele>
        <time>2026-06-20T06:58:09.000Z</time>
        <extensions>
          <ns3:TrackPointExtension>
            <ns3:atemp>21.0</ns3:atemp>
          </ns3:TrackPointExtension>
        </extensions>
      </trkpt>
      <trkpt lat="42.54495866596698760986328125" lon="20.11936339549720287322998046875">
        <ele>1942.800048828125</ele>
        <time>2026-06-20T06:58:10.000Z</time>
        <extensions>
          <ns3:TrackPointExtension>
            <ns3:atemp>21.0</ns3:atemp>
          </ns3:TrackPointExtension>
        </extensions>
      </trkpt>
      <trkpt lat="42.54495866596698760986328125" lon="20.11936339549720287322998046875">
        <ele>1942.800048828125</ele>
        <time>2026-06-20T06:58:11.000Z</time>
        <extensions>
          <ns3:TrackPointExtension>
            <ns3:atemp>21.0</ns3:atemp>
          </ns3:TrackPointExtension>
        </extensions>
      </trkpt>
      <trkpt lat="42.54495866596698760986328125" lon="20.11936339549720287322998046875">
        <ele>1942.800048828125</ele>
        <time>2026-06-20T06:58:12.000Z</time>
        <extensions>
          <ns3:TrackPointExtension>
            <ns3:atemp>21.0</ns3:atemp>
          </ns3:TrackPointExtension>
        </extensions>
      </trkpt>
      <trkpt lat="42.54495866596698760986328125" lon="20.11936339549720287322998046875">
        <ele>1942.800048828125</ele>
        <time>2026-06-20T06:58:13.000Z</time>
        <extensions>
          <ns3:TrackPointExtension>
            <ns3:atemp>21.0</ns3:atemp>
          </ns3:TrackPointExtension>
        </extensions>
      </trkpt>
      <trkpt lat="42.54495866596698760986328125" lon="20.11936339549720287322998046875">
        <ele>1943</ele>
        <time>2026-06-20T06:58:14.000Z</time>
        <extensions>
          <ns3:TrackPointExtension>
            <ns3:atemp>21.0</ns3:atemp>
          </ns3:TrackPointExtension>
        </extensions>
      </trkpt>
      <trkpt lat="42.54495866596698760986328125" lon="20.11936339549720287322998046875">
        <ele>1943</ele>
        <time>2026-06-20T06:58:15.000Z</time>
        <extensions>
          <ns3:TrackPointExtension>
            <ns3:atemp>21.0</ns3:atemp>
          </ns3:TrackPointExtension>
        </extensions>
      </trkpt>
      <trkpt lat="42.54495866596698760986328125" lon="20.11936339549720287322998046875">
        <ele>1943</ele>
        <time>2026-06-20T06:58:16.000Z</time>
        <extensions>
          <ns3:TrackPointExtension>
            <ns3:atemp>21.0</ns3:atemp>
          </ns3:TrackPointExtension>
        </extensions>
      </trkpt>
      <trkpt lat="42.54495866596698760986328125" lon="20.11936339549720287322998046875">
        <ele>1943</ele>
        <time>2026-06-20T06:58:17.000Z</time>
        <extensions>
          <ns3:TrackPointExtension>
            <ns3:atemp>21.0</ns3:atemp>
          </ns3:TrackPointExtension>
        </extensions>
      </trkpt>
      <trkpt lat="42.54495866596698760986328125" lon="20.11936339549720287322998046875">
        <ele>1943</ele>
        <time>2026-06-20T06:58:18.000Z</time>
        <extensions>
          <ns3:TrackPointExtension>
            <ns3:atemp>21.0</ns3:atemp>
          </ns3:TrackPointExtension>
        </extensions>
      </trkpt>
      <trkpt lat="42.54495866596698760986328125" lon="20.11936339549720287322998046875">
        <ele>1943</ele>
        <time>2026-06-20T06:58:19.000Z</time>
        <extensions>
          <ns3:TrackPointExtension>
            <ns3:atemp>21.0</ns3:atemp>
          </ns3:TrackPointExtension>
        </extensions>
      </trkpt>
      <trkpt lat="42.54495866596698760986328125" lon="20.11936339549720287322998046875">
        <ele>1943</ele>
        <time>2026-06-20T06:58:20.000Z</time>
        <extensions>
          <ns3:TrackPointExtension>
            <ns3:atemp>21.0</ns3:atemp>
          </ns3:TrackPointExtension>
        </extensions>
      </trkpt>
      <trkpt lat="42.54495866596698760986328125" lon="20.11936339549720287322998046875">
        <ele>1943</ele>
        <time>2026-06-20T06:58:21.000Z</time>
        <extensions>
          <ns3:TrackPointExtension>
            <ns3:atemp>21.0</ns3:atemp>
          </ns3:TrackPointExtension>
        </extensions>
      </trkpt>
      <trkpt lat="42.54495866596698760986328125" lon="20.11936339549720287322998046875">
        <ele>1943</ele>
        <time>2026-06-20T06:58:22.000Z</time>
        <extensions>
          <ns3:TrackPointExtension>
            <ns3:atemp>21.0</ns3:atemp>
          </ns3:TrackPointExtension>
        </extensions>
      </trkpt>
      <trkpt lat="42.54495866596698760986328125" lon="20.11936339549720287322998046875">
        <ele>1943</ele>
        <time>2026-06-20T06:58:23.000Z</time>
        <extensions>
          <ns3:TrackPointExtension>
            <ns3:atemp>21.0</ns3:atemp>
          </ns3:TrackPointExtension>
        </extensions>
      </trkpt>
      <trkpt lat="42.54495866596698760986328125" lon="20.11936339549720287322998046875">
        <ele>1943</ele>
        <time>2026-06-20T06:58:24.000Z</time>
        <extensions>
          <ns3:TrackPointExtension>
            <ns3:atemp>21.0</ns3:atemp>
          </ns3:TrackPointExtension>
        </extensions>
      </trkpt>
      <trkpt lat="42.54495866596698760986328125" lon="20.11936339549720287322998046875">
        <ele>1943</ele>
        <time>2026-06-20T06:58:25.000Z</time>
        <extensions>
          <ns3:TrackPointExtension>
            <ns3:atemp>21.0</ns3:atemp>
          </ns3:TrackPointExtension>
        </extensions>
      </trkpt>
      <trkpt lat="42.54495866596698760986328125" lon="20.11936339549720287322998046875">
        <ele>1943</ele>
        <time>2026-06-20T06:58:26.000Z</time>
        <extensions>
          <ns3:TrackPointExtension>
            <ns3:atemp>21.0</ns3:atemp>
          </ns3:TrackPointExtension>
        </extensions>
      </trkpt>
      <trkpt lat="42.54495866596698760986328125" lon="20.11936339549720287322998046875">
        <ele>1943</ele>
        <time>2026-06-20T06:58:27.000Z</time>
        <extensions>
          <ns3:TrackPointExtension>
            <ns3:atemp>21.0</ns3:atemp>
          </ns3:TrackPointExtension>
        </extensions>
      </trkpt>
      <trkpt lat="42.54495866596698760986328125" lon="20.11936339549720287322998046875">
        <ele>1943</ele>
        <time>2026-06-20T06:58:28.000Z</time>
        <extensions>
          <ns3:TrackPointExtension>
            <ns3:atemp>21.0</ns3:atemp>
          </ns3:TrackPointExtension>
        </extensions>
      </trkpt>
      <trkpt lat="42.54495866596698760986328125" lon="20.11936339549720287322998046875">
        <ele>1943</ele>
        <time>2026-06-20T06:58:29.000Z</time>
        <extensions>
          <ns3:TrackPointExtension>
            <ns3:atemp>21.0</ns3:atemp>
          </ns3:TrackPointExtension>
        </extensions>
      </trkpt>
      <trkpt lat="42.54495866596698760986328125" lon="20.11936339549720287322998046875">
        <ele>1943</ele>
        <time>2026-06-20T06:58:30.000Z</time>
        <extensions>
          <ns3:TrackPointExtension>
            <ns3:atemp>21.0</ns3:atemp>
          </ns3:TrackPointExtension>
        </extensions>
      </trkpt>
      <trkpt lat="42.54495866596698760986328125" lon="20.11936339549720287322998046875">
        <ele>1943</ele>
        <time>2026-06-20T06:58:31.000Z</time>
        <extensions>
          <ns3:TrackPointExtension>
            <ns3:atemp>21.0</ns3:atemp>
          </ns3:TrackPointExtension>
        </extensions>
      </trkpt>
      <trkpt lat="42.54495866596698760986328125" lon="20.11936339549720287322998046875">
        <ele>1943</ele>
        <time>2026-06-20T06:58:32.000Z</time>
        <extensions>
          <ns3:TrackPointExtension>
            <ns3:atemp>21.0</ns3:atemp>
          </ns3:TrackPointExtension>
        </extensions>
      </trkpt>
      <trkpt lat="42.54495866596698760986328125" lon="20.11936339549720287322998046875">
        <ele>1943</ele>
        <time>2026-06-20T06:58:33.000Z</time>
        <extensions>
          <ns3:TrackPointExtension>
            <ns3:atemp>21.0</ns3:atemp>
          </ns3:TrackPointExtension>
        </extensions>
      </trkpt>
      <trkpt lat="42.54495866596698760986328125" lon="20.11936339549720287322998046875">
        <ele>1942.800048828125</ele>
        <time>2026-06-20T06:58:34.000Z</time>
        <extensions>
          <ns3:TrackPointExtension>
            <ns3:atemp>21.0</ns3:atemp>
          </ns3:TrackPointExtension>
        </extensions>
      </trkpt>
      <trkpt lat="42.54495866596698760986328125" lon="20.11936339549720287322998046875">
        <ele>1942.800048828125</ele>
        <time>2026-06-20T06:58:35.000Z</time>
        <extensions>
          <ns3:TrackPointExtension>
            <ns3:atemp>21.0</ns3:atemp>
          </ns3:TrackPointExtension>
        </extensions>
      </trkpt>
      <trkpt lat="42.54495866596698760986328125" lon="20.11936339549720287322998046875">
        <ele>1942.800048828125</ele>
        <time>2026-06-20T06:58:36.000Z</time>
        <extensions>
          <ns3:TrackPointExtension>
            <ns3:atemp>21.0</ns3:atemp>
          </ns3:TrackPointExtension>
        </extensions>
      </trkpt>
      <trkpt lat="42.54495866596698760986328125" lon="20.11936339549720287322998046875">
        <ele>1942.800048828125</ele>
        <time>2026-06-20T06:58:37.000Z</time>
        <extensions>
          <ns3:TrackPointExtension>
            <ns3:atemp>21.0</ns3:atemp>
          </ns3:TrackPointExtension>
        </extensions>
      </trkpt>
      <trkpt lat="42.54495866596698760986328125" lon="20.11936339549720287322998046875">
        <ele>1943</ele>
        <time>2026-06-20T06:58:38.000Z</time>
        <extensions>
          <ns3:TrackPointExtension>
            <ns3:atemp>21.0</ns3:atemp>
          </ns3:TrackPointExtension>
        </extensions>
      </trkpt>
      <trkpt lat="42.54495866596698760986328125" lon="20.11936339549720287322998046875">
        <ele>1943</ele>
        <time>2026-06-20T06:58:39.000Z</time>
        <extensions>
          <ns3:TrackPointExtension>
            <ns3:atemp>21.0</ns3:atemp>
          </ns3:TrackPointExtension>
        </extensions>
      </trkpt>
      <trkpt lat="42.54495866596698760986328125" lon="20.11936339549720287322998046875">
        <ele>1943</ele>
        <time>2026-06-20T06:58:40.000Z</time>
        <extensions>
          <ns3:TrackPointExtension>
            <ns3:atemp>21.0</ns3:atemp>
          </ns3:TrackPointExtension>
        </extensions>
      </trkpt>
      <trkpt lat="42.54495866596698760986328125" lon="20.11936339549720287322998046875">
        <ele>1943</ele>
        <time>2026-06-20T06:58:41.000Z</time>
        <extensions>
          <ns3:TrackPointExtension>
            <ns3:atemp>21.0</ns3:atemp>
          </ns3:TrackPointExtension>
        </extensions>
      </trkpt>
      <trkpt lat="42.54495866596698760986328125" lon="20.11936339549720287322998046875">
        <ele>1943</ele>
        <time>2026-06-20T06:58:42.000Z</time>
        <extensions>
          <ns3:TrackPointExtension>
            <ns3:atemp>21.0</ns3:atemp>
          </ns3:TrackPointExtension>
        </extensions>
      </trkpt>
      <trkpt lat="42.54495866596698760986328125" lon="20.11936339549720287322998046875">
        <ele>1943.199951171875</ele>
        <time>2026-06-20T06:58:43.000Z</time>
        <extensions>
          <ns3:TrackPointExtension>
            <ns3:atemp>21.0</ns3:atemp>
          </ns3:TrackPointExtension>
        </extensions>
      </trkpt>
      <trkpt lat="42.54495866596698760986328125" lon="20.11936339549720287322998046875">
        <ele>1943.199951171875</ele>
        <time>2026-06-20T06:58:44.000Z</time>
        <extensions>
          <ns3:TrackPointExtension>
            <ns3:atemp>21.0</ns3:atemp>
          </ns3:TrackPointExtension>
        </extensions>
      </trkpt>
      <trkpt lat="42.54495866596698760986328125" lon="20.11936339549720287322998046875">
        <ele>1943.199951171875</ele>
        <time>2026-06-20T06:58:45.000Z</time>
        <extensions>
          <ns3:TrackPointExtension>
            <ns3:atemp>21.0</ns3:atemp>
          </ns3:TrackPointExtension>
        </extensions>
      </trkpt>
      <trkpt lat="42.54495866596698760986328125" lon="20.11936339549720287322998046875">
        <ele>1943.199951171875</ele>
        <time>2026-06-20T06:58:46.000Z</time>
        <extensions>
          <ns3:TrackPointExtension>
            <ns3:atemp>21.0</ns3:atemp>
          </ns3:TrackPointExtension>
        </extensions>
      </trkpt>
      <trkpt lat="42.54495866596698760986328125" lon="20.11936339549720287322998046875">
        <ele>1943.199951171875</ele>
        <time>2026-06-20T06:58:47.000Z</time>
        <extensions>
          <ns3:TrackPointExtension>
            <ns3:atemp>21.0</ns3:atemp>
          </ns3:TrackPointExtension>
        </extensions>
      </trkpt>
      <trkpt lat="42.54495866596698760986328125" lon="20.11936339549720287322998046875">
        <ele>1943.199951171875</ele>
        <time>2026-06-20T06:58:48.000Z</time>
        <extensions>
          <ns3:TrackPointExtension>
            <ns3:atemp>21.0</ns3:atemp>
          </ns3:TrackPointExtension>
        </extensions>
      </trkpt>
      <trkpt lat="42.54495866596698760986328125" lon="20.11936339549720287322998046875">
        <ele>1943.199951171875</ele>
        <time>2026-06-20T06:58:49.000Z</time>
        <extensions>
          <ns3:TrackPointExtension>
            <ns3:atemp>21.0</ns3:atemp>
          </ns3:TrackPointExtension>
        </extensions>
      </trkpt>
      <trkpt lat="42.54495866596698760986328125" lon="20.11936339549720287322998046875">
        <ele>1943.199951171875</ele>
        <time>2026-06-20T06:58:50.000Z</time>
        <extensions>
          <ns3:TrackPointExtension>
            <ns3:atemp>21.0</ns3:atemp>
          </ns3:TrackPointExtension>
        </extensions>
      </trkpt>
      <trkpt lat="42.54495866596698760986328125" lon="20.11936339549720287322998046875">
        <ele>1943.199951171875</ele>
        <time>2026-06-20T06:58:51.000Z</time>
        <extensions>
          <ns3:TrackPointExtension>
            <ns3:atemp>21.0</ns3:atemp>
          </ns3:TrackPointExtension>
        </extensions>
      </trkpt>
      <trkpt lat="42.54495866596698760986328125" lon="20.11936339549720287322998046875">
        <ele>1943.199951171875</ele>
        <time>2026-06-20T06:58:52.000Z</time>
        <extensions>
          <ns3:TrackPointExtension>
            <ns3:atemp>21.0</ns3:atemp>
          </ns3:TrackPointExtension>
        </extensions>
      </trkpt>
      <trkpt lat="42.54495866596698760986328125" lon="20.11936339549720287322998046875">
        <ele>1943.199951171875</ele>
        <time>2026-06-20T06:58:53.000Z</time>
        <extensions>
          <ns3:TrackPointExtension>
            <ns3:atemp>21.0</ns3:atemp>
          </ns3:TrackPointExtension>
        </extensions>
      </trkpt>
      <trkpt lat="42.54495866596698760986328125" lon="20.11936339549720287322998046875">
        <ele>1943.199951171875</ele>
        <time>2026-06-20T06:58:54.000Z</time>
        <extensions>
          <ns3:TrackPointExtension>
            <ns3:atemp>21.0</ns3:atemp>
          </ns3:TrackPointExtension>
        </extensions>
      </trkpt>
      <trkpt lat="42.54495866596698760986328125" lon="20.11936339549720287322998046875">
        <ele>1943.199951171875</ele>
        <time>2026-06-20T06:58:55.000Z</time>
        <extensions>
          <ns3:TrackPointExtension>
            <ns3:atemp>21.0</ns3:atemp>
          </ns3:TrackPointExtension>
        </extensions>
      </trkpt>
      <trkpt lat="42.54495866596698760986328125" lon="20.11936339549720287322998046875">
        <ele>1943.199951171875</ele>
        <time>2026-06-20T06:58:56.000Z</time>
        <extensions>
          <ns3:TrackPointExtension>
            <ns3:atemp>21.0</ns3:atemp>
          </ns3:TrackPointExtension>
        </extensions>
      </trkpt>
      <trkpt lat="42.54495866596698760986328125" lon="20.11936339549720287322998046875">
        <ele>1943.199951171875</ele>
        <time>2026-06-20T06:58:57.000Z</time>
        <extensions>
          <ns3:TrackPointExtension>
            <ns3:atemp>21.0</ns3:atemp>
          </ns3:TrackPointExtension>
        </extensions>
      </trkpt>
      <trkpt lat="42.54495866596698760986328125" lon="20.11936339549720287322998046875">
        <ele>1943</ele>
        <time>2026-06-20T06:58:58.000Z</time>
        <extensions>
          <ns3:TrackPointExtension>
            <ns3:atemp>21.0</ns3:atemp>
          </ns3:TrackPointExtension>
        </extensions>
      </trkpt>
      <trkpt lat="42.54495866596698760986328125" lon="20.11936339549720287322998046875">
        <ele>1943</ele>
        <time>2026-06-20T06:58:59.000Z</time>
        <extensions>
          <ns3:TrackPointExtension>
            <ns3:atemp>21.0</ns3:atemp>
          </ns3:TrackPointExtension>
        </extensions>
      </trkpt>
      <trkpt lat="42.54495866596698760986328125" lon="20.11936339549720287322998046875">
        <ele>1943</ele>
        <time>2026-06-20T06:59:00.000Z</time>
        <extensions>
          <ns3:TrackPointExtension>
            <ns3:atemp>21.0</ns3:atemp>
          </ns3:TrackPointExtension>
        </extensions>
      </trkpt>
      <trkpt lat="42.54495866596698760986328125" lon="20.11936339549720287322998046875">
        <ele>1943</ele>
        <time>2026-06-20T06:59:01.000Z</time>
        <extensions>
          <ns3:TrackPointExtension>
            <ns3:atemp>22.0</ns3:atemp>
          </ns3:TrackPointExtension>
        </extensions>
      </trkpt>
      <trkpt lat="42.54495866596698760986328125" lon="20.11936339549720287322998046875">
        <ele>1943</ele>
        <time>2026-06-20T06:59:02.000Z</time>
        <extensions>
          <ns3:TrackPointExtension>
            <ns3:atemp>21.0</ns3:atemp>
          </ns3:TrackPointExtension>
        </extensions>
      </trkpt>
      <trkpt lat="42.54495866596698760986328125" lon="20.11936339549720287322998046875">
        <ele>1943</ele>
        <time>2026-06-20T06:59:03.000Z</time>
        <extensions>
          <ns3:TrackPointExtension>
            <ns3:atemp>22.0</ns3:atemp>
          </ns3:TrackPointExtension>
        </extensions>
      </trkpt>
      <trkpt lat="42.54495866596698760986328125" lon="20.11936339549720287322998046875">
        <ele>1943</ele>
        <time>2026-06-20T06:59:04.000Z</time>
        <extensions>
          <ns3:TrackPointExtension>
            <ns3:atemp>21.0</ns3:atemp>
          </ns3:TrackPointExtension>
        </extensions>
      </trkpt>
      <trkpt lat="42.54495866596698760986328125" lon="20.11936339549720287322998046875">
        <ele>1942.800048828125</ele>
        <time>2026-06-20T06:59:05.000Z</time>
        <extensions>
          <ns3:TrackPointExtension>
            <ns3:atemp>21.0</ns3:atemp>
          </ns3:TrackPointExtension>
        </extensions>
      </trkpt>
      <trkpt lat="42.54495866596698760986328125" lon="20.11936339549720287322998046875">
        <ele>1942.800048828125</ele>
        <time>2026-06-20T06:59:06.000Z</time>
        <extensions>
          <ns3:TrackPointExtension>
            <ns3:atemp>21.0</ns3:atemp>
          </ns3:TrackPointExtension>
        </extensions>
      </trkpt>
      <trkpt lat="42.54495866596698760986328125" lon="20.11936339549720287322998046875">
        <ele>1942.800048828125</ele>
        <time>2026-06-20T06:59:07.000Z</time>
        <extensions>
          <ns3:TrackPointExtension>
            <ns3:atemp>21.0</ns3:atemp>
          </ns3:TrackPointExtension>
        </extensions>
      </trkpt>
      <trkpt lat="42.54495866596698760986328125" lon="20.11936339549720287322998046875">
        <ele>1942.5999755859375</ele>
        <time>2026-06-20T06:59:08.000Z</time>
        <extensions>
          <ns3:TrackPointExtension>
            <ns3:atemp>21.0</ns3:atemp>
          </ns3:TrackPointExtension>
        </extensions>
      </trkpt>
      <trkpt lat="42.54495866596698760986328125" lon="20.11936339549720287322998046875">
        <ele>1942.5999755859375</ele>
        <time>2026-06-20T06:59:09.000Z</time>
        <extensions>
          <ns3:TrackPointExtension>
            <ns3:atemp>21.0</ns3:atemp>
          </ns3:TrackPointExtension>
        </extensions>
      </trkpt>
      <trkpt lat="42.54495866596698760986328125" lon="20.11936339549720287322998046875">
        <ele>1942.5999755859375</ele>
        <time>2026-06-20T06:59:10.000Z</time>
        <extensions>
          <ns3:TrackPointExtension>
            <ns3:atemp>21.0</ns3:atemp>
          </ns3:TrackPointExtension>
        </extensions>
      </trkpt>
      <trkpt lat="42.54495866596698760986328125" lon="20.11936339549720287322998046875">
        <ele>1942.5999755859375</ele>
        <time>2026-06-20T06:59:11.000Z</time>
        <extensions>
          <ns3:TrackPointExtension>
            <ns3:atemp>21.0</ns3:atemp>
          </ns3:TrackPointExtension>
        </extensions>
      </trkpt>
      <trkpt lat="42.54495866596698760986328125" lon="20.11936339549720287322998046875">
        <ele>1942.5999755859375</ele>
        <time>2026-06-20T06:59:12.000Z</time>
        <extensions>
          <ns3:TrackPointExtension>
            <ns3:atemp>21.0</ns3:atemp>
          </ns3:TrackPointExtension>
        </extensions>
      </trkpt>
      <trkpt lat="42.54495866596698760986328125" lon="20.11936339549720287322998046875">
        <ele>1942.5999755859375</ele>
        <time>2026-06-20T06:59:13.000Z</time>
        <extensions>
          <ns3:TrackPointExtension>
            <ns3:atemp>21.0</ns3:atemp>
          </ns3:TrackPointExtension>
        </extensions>
      </trkpt>
      <trkpt lat="42.54495866596698760986328125" lon="20.11936339549720287322998046875">
        <ele>1942.5999755859375</ele>
        <time>2026-06-20T06:59:14.000Z</time>
        <extensions>
          <ns3:TrackPointExtension>
            <ns3:atemp>21.0</ns3:atemp>
          </ns3:TrackPointExtension>
        </extensions>
      </trkpt>
      <trkpt lat="42.54495866596698760986328125" lon="20.11936339549720287322998046875">
        <ele>1942.4000244140625</ele>
        <time>2026-06-20T06:59:15.000Z</time>
        <extensions>
          <ns3:TrackPointExtension>
            <ns3:atemp>21.0</ns3:atemp>
          </ns3:TrackPointExtension>
        </extensions>
      </trkpt>
      <trkpt lat="42.54495866596698760986328125" lon="20.11936339549720287322998046875">
        <ele>1942.4000244140625</ele>
        <time>2026-06-20T06:59:16.000Z</time>
        <extensions>
          <ns3:TrackPointExtension>
            <ns3:atemp>21.0</ns3:atemp>
          </ns3:TrackPointExtension>
        </extensions>
      </trkpt>
      <trkpt lat="42.54495866596698760986328125" lon="20.11936339549720287322998046875">
        <ele>1942.4000244140625</ele>
        <time>2026-06-20T06:59:17.000Z</time>
        <extensions>
          <ns3:TrackPointExtension>
            <ns3:atemp>21.0</ns3:atemp>
          </ns3:TrackPointExtension>
        </extensions>
      </trkpt>
      <trkpt lat="42.54495866596698760986328125" lon="20.11936339549720287322998046875">
        <ele>1942.5999755859375</ele>
        <time>2026-06-20T06:59:18.000Z</time>
        <extensions>
          <ns3:TrackPointExtension>
            <ns3:atemp>21.0</ns3:atemp>
          </ns3:TrackPointExtension>
        </extensions>
      </trkpt>
      <trkpt lat="42.54495866596698760986328125" lon="20.11936339549720287322998046875">
        <ele>1942.5999755859375</ele>
        <time>2026-06-20T06:59:19.000Z</time>
        <extensions>
          <ns3:TrackPointExtension>
            <ns3:atemp>21.0</ns3:atemp>
          </ns3:TrackPointExtension>
        </extensions>
      </trkpt>
      <trkpt lat="42.54495866596698760986328125" lon="20.11936339549720287322998046875">
        <ele>1942.5999755859375</ele>
        <time>2026-06-20T06:59:20.000Z</time>
        <extensions>
          <ns3:TrackPointExtension>
            <ns3:atemp>21.0</ns3:atemp>
          </ns3:TrackPointExtension>
        </extensions>
      </trkpt>
      <trkpt lat="42.54495866596698760986328125" lon="20.11936339549720287322998046875">
        <ele>1942.5999755859375</ele>
        <time>2026-06-20T06:59:21.000Z</time>
        <extensions>
          <ns3:TrackPointExtension>
            <ns3:atemp>21.0</ns3:atemp>
          </ns3:TrackPointExtension>
        </extensions>
      </trkpt>
      <trkpt lat="42.54495866596698760986328125" lon="20.11936339549720287322998046875">
        <ele>1942.5999755859375</ele>
        <time>2026-06-20T06:59:22.000Z</time>
        <extensions>
          <ns3:TrackPointExtension>
            <ns3:atemp>21.0</ns3:atemp>
          </ns3:TrackPointExtension>
        </extensions>
      </trkpt>
      <trkpt lat="42.54495866596698760986328125" lon="20.11936339549720287322998046875">
        <ele>1942.4000244140625</ele>
        <time>2026-06-20T06:59:23.000Z</time>
        <extensions>
          <ns3:TrackPointExtension>
            <ns3:atemp>21.0</ns3:atemp>
          </ns3:TrackPointExtension>
        </extensions>
      </trkpt>
      <trkpt lat="42.54495866596698760986328125" lon="20.11936339549720287322998046875">
        <ele>1942.4000244140625</ele>
        <time>2026-06-20T06:59:24.000Z</time>
        <extensions>
          <ns3:TrackPointExtension>
            <ns3:atemp>21.0</ns3:atemp>
          </ns3:TrackPointExtension>
        </extensions>
      </trkpt>
      <trkpt lat="42.54495866596698760986328125" lon="20.11936339549720287322998046875">
        <ele>1942.199951171875</ele>
        <time>2026-06-20T06:59:25.000Z</time>
        <extensions>
          <ns3:TrackPointExtension>
            <ns3:atemp>21.0</ns3:atemp>
          </ns3:TrackPointExtension>
        </extensions>
      </trkpt>
      <trkpt lat="42.54495866596698760986328125" lon="20.11936339549720287322998046875">
        <ele>1942.199951171875</ele>
        <time>2026-06-20T06:59:26.000Z</time>
        <extensions>
          <ns3:TrackPointExtension>
            <ns3:atemp>21.0</ns3:atemp>
          </ns3:TrackPointExtension>
        </extensions>
      </trkpt>
      <trkpt lat="42.54495866596698760986328125" lon="20.11936339549720287322998046875">
        <ele>1942</ele>
        <time>2026-06-20T06:59:27.000Z</time>
        <extensions>
          <ns3:TrackPointExtension>
            <ns3:atemp>21.0</ns3:atemp>
          </ns3:TrackPointExtension>
        </extensions>
      </trkpt>
      <trkpt lat="42.54495598375797271728515625" lon="20.11936607770621776580810546875">
        <ele>1942</ele>
        <time>2026-06-20T06:59:28.000Z</time>
        <extensions>
          <ns3:TrackPointExtension>
            <ns3:atemp>21.0</ns3:atemp>
          </ns3:TrackPointExtension>
        </extensions>
      </trkpt>
      <trkpt lat="42.54494282416999340057373046875" lon="20.119367502629756927490234375">
        <ele>1941.800048828125</ele>
        <time>2026-06-20T06:59:29.000Z</time>
        <extensions>
          <ns3:TrackPointExtension>
            <ns3:atemp>21.0</ns3:atemp>
          </ns3:TrackPointExtension>
        </extensions>
      </trkpt>
      <trkpt lat="42.5449387170374393463134765625" lon="20.119370184838771820068359375">
        <ele>1941.800048828125</ele>
        <time>2026-06-20T06:59:30.000Z</time>
        <extensions>
          <ns3:TrackPointExtension>
            <ns3:atemp>21.0</ns3:atemp>
          </ns3:TrackPointExtension>
        </extensions>
      </trkpt>
      <trkpt lat="42.54493444226682186126708984375" lon="20.119365490972995758056640625">
        <ele>1941.5999755859375</ele>
        <time>2026-06-20T06:59:31.000Z</time>
        <extensions>
          <ns3:TrackPointExtension>
            <ns3:atemp>21.0</ns3:atemp>
          </ns3:TrackPointExtension>
        </extensions>
      </trkpt>
      <trkpt lat="42.54493444226682186126708984375" lon="20.119365490972995758056640625">
        <ele>1941.800048828125</ele>
        <time>2026-06-20T06:59:32.000Z</time>
        <extensions>
          <ns3:TrackPointExtension>
            <ns3:atemp>21.0</ns3:atemp>
          </ns3:TrackPointExtension>
        </extensions>
      </trkpt>
      <trkpt lat="42.54493444226682186126708984375" lon="20.119365490972995758056640625">
        <ele>1941.800048828125</ele>
        <time>2026-06-20T06:59:33.000Z</time>
        <extensions>
          <ns3:TrackPointExtension>
            <ns3:atemp>21.0</ns3:atemp>
          </ns3:TrackPointExtension>
        </extensions>
      </trkpt>
      <trkpt lat="42.54493444226682186126708984375" lon="20.119365490972995758056640625">
        <ele>1941.800048828125</ele>
        <time>2026-06-20T06:59:34.000Z</time>
        <extensions>
          <ns3:TrackPointExtension>
            <ns3:atemp>21.0</ns3:atemp>
          </ns3:TrackPointExtension>
        </extensions>
      </trkpt>
      <trkpt lat="42.54493444226682186126708984375" lon="20.119365490972995758056640625">
        <ele>1941.800048828125</ele>
        <time>2026-06-20T06:59:35.000Z</time>
        <extensions>
          <ns3:TrackPointExtension>
            <ns3:atemp>21.0</ns3:atemp>
          </ns3:TrackPointExtension>
        </extensions>
      </trkpt>
      <trkpt lat="42.54493444226682186126708984375" lon="20.119365490972995758056640625">
        <ele>1941.800048828125</ele>
        <time>2026-06-20T06:59:36.000Z</time>
        <extensions>
          <ns3:TrackPointExtension>
            <ns3:atemp>21.0</ns3:atemp>
          </ns3:TrackPointExtension>
        </extensions>
      </trkpt>
      <trkpt lat="42.54493444226682186126708984375" lon="20.119365490972995758056640625">
        <ele>1941.800048828125</ele>
        <time>2026-06-20T06:59:37.000Z</time>
        <extensions>
          <ns3:TrackPointExtension>
            <ns3:atemp>21.0</ns3:atemp>
          </ns3:TrackPointExtension>
        </extensions>
      </trkpt>
      <trkpt lat="42.54493444226682186126708984375" lon="20.119365490972995758056640625">
        <ele>1941.800048828125</ele>
        <time>2026-06-20T06:59:38.000Z</time>
        <extensions>
          <ns3:TrackPointExtension>
            <ns3:atemp>21.0</ns3:atemp>
          </ns3:TrackPointExtension>
        </extensions>
      </trkpt>
      <trkpt lat="42.54493444226682186126708984375" lon="20.119365490972995758056640625">
        <ele>1941.800048828125</ele>
        <time>2026-06-20T06:59:39.000Z</time>
        <extensions>
          <ns3:TrackPointExtension>
            <ns3:atemp>21.0</ns3:atemp>
          </ns3:TrackPointExtension>
        </extensions>
      </trkpt>
      <trkpt lat="42.54493444226682186126708984375" lon="20.119365490972995758056640625">
        <ele>1941.800048828125</ele>
        <time>2026-06-20T06:59:40.000Z</time>
        <extensions>
          <ns3:TrackPointExtension>
            <ns3:atemp>21.0</ns3:atemp>
          </ns3:TrackPointExtension>
        </extensions>
      </trkpt>
      <trkpt lat="42.54493444226682186126708984375" lon="20.119365490972995758056640625">
        <ele>1941.800048828125</ele>
        <time>2026-06-20T06:59:41.000Z</time>
        <extensions>
          <ns3:TrackPointExtension>
            <ns3:atemp>21.0</ns3:atemp>
          </ns3:TrackPointExtension>
        </extensions>
      </trkpt>
      <trkpt lat="42.54493410699069499969482421875" lon="20.1193664968013763427734375">
        <ele>1941.800048828125</ele>
        <time>2026-06-20T06:59:42.000Z</time>
        <extensions>
          <ns3:TrackPointExtension>
            <ns3:atemp>21.0</ns3:atemp>
          </ns3:TrackPointExtension>
        </extensions>
      </trkpt>
      <trkpt lat="42.54494081251323223114013671875" lon="20.1193706877529621124267578125">
        <ele>1941.800048828125</ele>
        <time>2026-06-20T06:59:43.000Z</time>
        <extensions>
          <ns3:TrackPointExtension>
            <ns3:atemp>21.0</ns3:atemp>
          </ns3:TrackPointExtension>
        </extensions>
      </trkpt>
      <trkpt lat="42.54494785331189632415771484375" lon="20.119374878704547882080078125">
        <ele>1941.800048828125</ele>
        <time>2026-06-20T06:59:44.000Z</time>
        <extensions>
          <ns3:TrackPointExtension>
            <ns3:atemp>21.0</ns3:atemp>
          </ns3:TrackPointExtension>
        </extensions>
      </trkpt>
      <trkpt lat="42.54495321772992610931396484375" lon="20.1193743757903575897216796875">
        <ele>1941.5999755859375</ele>
        <time>2026-06-20T06:59:45.000Z</time>
        <extensions>
          <ns3:TrackPointExtension>
            <ns3:atemp>21.0</ns3:atemp>
          </ns3:TrackPointExtension>
        </extensions>
      </trkpt>
      <trkpt lat="42.54496000707149505615234375" lon="20.119377560913562774658203125">
        <ele>1941.4000244140625</ele>
        <time>2026-06-20T06:59:46.000Z</time>
        <extensions>
          <ns3:TrackPointExtension>
            <ns3:atemp>21.0</ns3:atemp>
          </ns3:TrackPointExtension>
        </extensions>
      </trkpt>
      <trkpt lat="42.544966042041778564453125" lon="20.119380913674831390380859375">
        <ele>1941.4000244140625</ele>
        <time>2026-06-20T06:59:47.000Z</time>
        <extensions>
          <ns3:TrackPointExtension>
            <ns3:atemp>21.0</ns3:atemp>
          </ns3:TrackPointExtension>
        </extensions>
      </trkpt>
      <trkpt lat="42.544972412288188934326171875" lon="20.11938594281673431396484375">
        <ele>1941.5999755859375</ele>
        <time>2026-06-20T06:59:48.000Z</time>
        <extensions>
          <ns3:TrackPointExtension>
            <ns3:atemp>21.0</ns3:atemp>
          </ns3:TrackPointExtension>
        </extensions>
      </trkpt>
      <trkpt lat="42.54497869871556758880615234375" lon="20.11939289979636669158935546875">
        <ele>1941.800048828125</ele>
        <time>2026-06-20T06:59:49.000Z</time>
        <extensions>
          <ns3:TrackPointExtension>
            <ns3:atemp>21.0</ns3:atemp>
          </ns3:TrackPointExtension>
        </extensions>
      </trkpt>
      <trkpt lat="42.544983811676502227783203125" lon="20.1193986833095550537109375">
        <ele>1942</ele>
        <time>2026-06-20T06:59:50.000Z</time>
        <extensions>
          <ns3:TrackPointExtension>
            <ns3:atemp>21.0</ns3:atemp>
          </ns3:TrackPointExtension>
        </extensions>
      </trkpt>
      <trkpt lat="42.54498842172324657440185546875" lon="20.11940429918467998504638671875">
        <ele>1942.199951171875</ele>
        <time>2026-06-20T06:59:51.000Z</time>
        <extensions>
          <ns3:TrackPointExtension>
            <ns3:atemp>21.0</ns3:atemp>
          </ns3:TrackPointExtension>
        </extensions>
      </trkpt>
      <trkpt lat="42.544991187751293182373046875" lon="20.1194042153656482696533203125">
        <ele>1942.199951171875</ele>
        <time>2026-06-20T06:59:52.000Z</time>
        <extensions>
          <ns3:TrackPointExtension>
            <ns3:atemp>21.0</ns3:atemp>
          </ns3:TrackPointExtension>
        </extensions>
      </trkpt>
      <trkpt lat="42.544991187751293182373046875" lon="20.1194042153656482696533203125">
        <ele>1942.4000244140625</ele>
        <time>2026-06-20T06:59:53.000Z</time>
        <extensions>
          <ns3:TrackPointExtension>
            <ns3:atemp>21.0</ns3:atemp>
          </ns3:TrackPointExtension>
        </extensions>
      </trkpt>
      <trkpt lat="42.544991187751293182373046875" lon="20.1194042153656482696533203125">
        <ele>1942.5999755859375</ele>
        <time>2026-06-20T06:59:54.000Z</time>
        <extensions>
          <ns3:TrackPointExtension>
            <ns3:atemp>21.0</ns3:atemp>
          </ns3:TrackPointExtension>
        </extensions>
      </trkpt>
      <trkpt lat="42.544991187751293182373046875" lon="20.1194042153656482696533203125">
        <ele>1942.5999755859375</ele>
        <time>2026-06-20T06:59:55.000Z</time>
        <extensions>
          <ns3:TrackPointExtension>
            <ns3:atemp>21.0</ns3:atemp>
          </ns3:TrackPointExtension>
        </extensions>
      </trkpt>
      <trkpt lat="42.544991187751293182373046875" lon="20.1194042153656482696533203125">
        <ele>1942.800048828125</ele>
        <time>2026-06-20T06:59:56.000Z</time>
        <extensions>
          <ns3:TrackPointExtension>
            <ns3:atemp>21.0</ns3:atemp>
          </ns3:TrackPointExtension>
        </extensions>
      </trkpt>
      <trkpt lat="42.544991187751293182373046875" lon="20.1194042153656482696533203125">
        <ele>1942.800048828125</ele>
        <time>2026-06-20T06:59:57.000Z</time>
        <extensions>
          <ns3:TrackPointExtension>
            <ns3:atemp>21.0</ns3:atemp>
          </ns3:TrackPointExtension>
        </extensions>
      </trkpt>
      <trkpt lat="42.544991187751293182373046875" lon="20.1194042153656482696533203125">
        <ele>1943</ele>
        <time>2026-06-20T06:59:58.000Z</time>
        <extensions>
          <ns3:TrackPointExtension>
            <ns3:atemp>21.0</ns3:atemp>
          </ns3:TrackPointExtension>
        </extensions>
      </trkpt>
      <trkpt lat="42.544991187751293182373046875" lon="20.1194042153656482696533203125">
        <ele>1943</ele>
        <time>2026-06-20T06:59:59.000Z</time>
        <extensions>
          <ns3:TrackPointExtension>
            <ns3:atemp>21.0</ns3:atemp>
          </ns3:TrackPointExtension>
        </extensions>
      </trkpt>
      <trkpt lat="42.544991187751293182373046875" lon="20.1194042153656482696533203125">
        <ele>1943</ele>
        <time>2026-06-20T07:00:00.000Z</time>
        <extensions>
          <ns3:TrackPointExtension>
            <ns3:atemp>21.0</ns3:atemp>
          </ns3:TrackPointExtension>
        </extensions>
      </trkpt>
      <trkpt lat="42.544991187751293182373046875" lon="20.1194042153656482696533203125">
        <ele>1943</ele>
        <time>2026-06-20T07:00:01.000Z</time>
        <extensions>
          <ns3:TrackPointExtension>
            <ns3:atemp>21.0</ns3:atemp>
          </ns3:TrackPointExtension>
        </extensions>
      </trkpt>
      <trkpt lat="42.544991187751293182373046875" lon="20.1194042153656482696533203125">
        <ele>1943</ele>
        <time>2026-06-20T07:00:02.000Z</time>
        <extensions>
          <ns3:TrackPointExtension>
            <ns3:atemp>21.0</ns3:atemp>
          </ns3:TrackPointExtension>
        </extensions>
      </trkpt>
      <trkpt lat="42.544991187751293182373046875" lon="20.1194042153656482696533203125">
        <ele>1943</ele>
        <time>2026-06-20T07:00:03.000Z</time>
        <extensions>
          <ns3:TrackPointExtension>
            <ns3:atemp>21.0</ns3:atemp>
          </ns3:TrackPointExtension>
        </extensions>
      </trkpt>
      <trkpt lat="42.544991187751293182373046875" lon="20.1194042153656482696533203125">
        <ele>1943</ele>
        <time>2026-06-20T07:00:04.000Z</time>
        <extensions>
          <ns3:TrackPointExtension>
            <ns3:atemp>21.0</ns3:atemp>
          </ns3:TrackPointExtension>
        </extensions>
      </trkpt>
      <trkpt lat="42.544991187751293182373046875" lon="20.1194042153656482696533203125">
        <ele>1943</ele>
        <time>2026-06-20T07:00:05.000Z</time>
        <extensions>
          <ns3:TrackPointExtension>
            <ns3:atemp>21.0</ns3:atemp>
          </ns3:TrackPointExtension>
        </extensions>
      </trkpt>
      <trkpt lat="42.544991187751293182373046875" lon="20.1194042153656482696533203125">
        <ele>1943</ele>
        <time>2026-06-20T07:00:06.000Z</time>
        <extensions>
          <ns3:TrackPointExtension>
            <ns3:atemp>21.0</ns3:atemp>
          </ns3:TrackPointExtension>
        </extensions>
      </trkpt>
      <trkpt lat="42.54499412141740322113037109375" lon="20.11940832249820232391357421875">
        <ele>1943</ele>
        <time>2026-06-20T07:00:07.000Z</time>
        <extensions>
          <ns3:TrackPointExtension>
            <ns3:atemp>21.0</ns3:atemp>
          </ns3:TrackPointExtension>
        </extensions>
      </trkpt>
      <trkpt lat="42.545004598796367645263671875" lon="20.1194213144481182098388671875">
        <ele>1943</ele>
        <time>2026-06-20T07:00:08.000Z</time>
        <extensions>
          <ns3:TrackPointExtension>
            <ns3:atemp>21.0</ns3:atemp>
          </ns3:TrackPointExtension>
        </extensions>
      </trkpt>
      <trkpt lat="42.54501038230955600738525390625" lon="20.11941921897232532501220703125">
        <ele>1943</ele>
        <time>2026-06-20T07:00:09.000Z</time>
        <extensions>
          <ns3:TrackPointExtension>
            <ns3:atemp>21.0</ns3:atemp>
          </ns3:TrackPointExtension>
        </extensions>
      </trkpt>
      <trkpt lat="42.5450104661285877227783203125" lon="20.11941921897232532501220703125">
        <ele>1943</ele>
        <time>2026-06-20T07:00:10.000Z</time>
        <extensions>
          <ns3:TrackPointExtension>
            <ns3:atemp>21.0</ns3:atemp>
          </ns3:TrackPointExtension>
        </extensions>
      </trkpt>
      <trkpt lat="42.5450104661285877227783203125" lon="20.11941921897232532501220703125">
        <ele>1943.199951171875</ele>
        <time>2026-06-20T07:00:11.000Z</time>
        <extensions>
          <ns3:TrackPointExtension>
            <ns3:atemp>21.0</ns3:atemp>
          </ns3:TrackPointExtension>
        </extensions>
      </trkpt>
      <trkpt lat="42.5450104661285877227783203125" lon="20.11941921897232532501220703125">
        <ele>1943.199951171875</ele>
        <time>2026-06-20T07:00:12.000Z</time>
        <extensions>
          <ns3:TrackPointExtension>
            <ns3:atemp>21.0</ns3:atemp>
          </ns3:TrackPointExtension>
        </extensions>
      </trkpt>
      <trkpt lat="42.54501105286180973052978515625" lon="20.1194193027913570404052734375">
        <ele>1943.199951171875</ele>
        <time>2026-06-20T07:00:13.000Z</time>
        <extensions>
          <ns3:TrackPointExtension>
            <ns3:atemp>21.0</ns3:atemp>
          </ns3:TrackPointExtension>
        </extensions>
      </trkpt>
      <trkpt lat="42.54502429626882076263427734375" lon="20.119424164295196533203125">
        <ele>1943.199951171875</ele>
        <time>2026-06-20T07:00:14.000Z</time>
        <extensions>
          <ns3:TrackPointExtension>
            <ns3:atemp>21.0</ns3:atemp>
          </ns3:TrackPointExtension>
        </extensions>
      </trkpt>
      <trkpt lat="42.54503066651523113250732421875" lon="20.1194270141422748565673828125">
        <ele>1943</ele>
        <time>2026-06-20T07:00:15.000Z</time>
        <extensions>
          <ns3:TrackPointExtension>
            <ns3:atemp>21.0</ns3:atemp>
          </ns3:TrackPointExtension>
        </extensions>
      </trkpt>
      <trkpt lat="42.54503368400037288665771484375" lon="20.1194327138364315032958984375">
        <ele>1943.199951171875</ele>
        <time>2026-06-20T07:00:16.000Z</time>
        <extensions>
          <ns3:TrackPointExtension>
            <ns3:atemp>21.0</ns3:atemp>
          </ns3:TrackPointExtension>
        </extensions>
      </trkpt>
      <trkpt lat="42.54503888078033924102783203125" lon="20.119439251720905303955078125">
        <ele>1943.199951171875</ele>
        <time>2026-06-20T07:00:17.000Z</time>
        <extensions>
          <ns3:TrackPointExtension>
            <ns3:atemp>21.0</ns3:atemp>
          </ns3:TrackPointExtension>
        </extensions>
      </trkpt>
      <trkpt lat="42.54504407756030559539794921875" lon="20.11944335885345935821533203125">
        <ele>1943.199951171875</ele>
        <time>2026-06-20T07:00:18.000Z</time>
        <extensions>
          <ns3:TrackPointExtension>
            <ns3:atemp>21.0</ns3:atemp>
          </ns3:TrackPointExtension>
        </extensions>
      </trkpt>
      <trkpt lat="42.54505061544477939605712890625" lon="20.11944922618567943572998046875">
        <ele>1943.4000244140625</ele>
        <time>2026-06-20T07:00:19.000Z</time>
        <extensions>
          <ns3:TrackPointExtension>
            <ns3:atemp>21.0</ns3:atemp>
          </ns3:TrackPointExtension>
        </extensions>
      </trkpt>
      <trkpt lat="42.545057237148284912109375" lon="20.1194561831653118133544921875">
        <ele>1943.5999755859375</ele>
        <time>2026-06-20T07:00:20.000Z</time>
        <extensions>
          <ns3:TrackPointExtension>
            <ns3:atemp>21.0</ns3:atemp>
          </ns3:TrackPointExtension>
        </extensions>
      </trkpt>
      <trkpt lat="42.54506201483309268951416015625" lon="20.119462050497531890869140625">
        <ele>1943.800048828125</ele>
        <time>2026-06-20T07:00:21.000Z</time>
        <extensions>
          <ns3:TrackPointExtension>
            <ns3:atemp>21.0</ns3:atemp>
          </ns3:TrackPointExtension>
        </extensions>
      </trkpt>
      <trkpt lat="42.54506050609052181243896484375" lon="20.11946280486881732940673828125">
        <ele>1943.800048828125</ele>
        <time>2026-06-20T07:00:22.000Z</time>
        <extensions>
          <ns3:TrackPointExtension>
            <ns3:atemp>21.0</ns3:atemp>
          </ns3:TrackPointExtension>
        </extensions>
      </trkpt>
      <trkpt lat="42.54506050609052181243896484375" lon="20.1194628886878490447998046875">
        <ele>1944</ele>
        <time>2026-06-20T07:00:23.000Z</time>
        <extensions>
          <ns3:TrackPointExtension>
            <ns3:atemp>21.0</ns3:atemp>
          </ns3:TrackPointExtension>
        </extensions>
      </trkpt>
      <trkpt lat="42.54506050609052181243896484375" lon="20.1194628886878490447998046875">
        <ele>1944.199951171875</ele>
        <time>2026-06-20T07:00:24.000Z</time>
        <extensions>
          <ns3:TrackPointExtension>
            <ns3:atemp>21.0</ns3:atemp>
          </ns3:TrackPointExtension>
        </extensions>
      </trkpt>
      <trkpt lat="42.54506050609052181243896484375" lon="20.1194628886878490447998046875">
        <ele>1944.199951171875</ele>
        <time>2026-06-20T07:00:25.000Z</time>
        <extensions>
          <ns3:TrackPointExtension>
            <ns3:atemp>21.0</ns3:atemp>
          </ns3:TrackPointExtension>
        </extensions>
      </trkpt>
      <trkpt lat="42.54506050609052181243896484375" lon="20.1194628886878490447998046875">
        <ele>1944.4000244140625</ele>
        <time>2026-06-20T07:00:26.000Z</time>
        <extensions>
          <ns3:TrackPointExtension>
            <ns3:atemp>21.0</ns3:atemp>
          </ns3:TrackPointExtension>
        </extensions>
      </trkpt>
      <trkpt lat="42.54506050609052181243896484375" lon="20.1194628886878490447998046875">
        <ele>1944.4000244140625</ele>
        <time>2026-06-20T07:00:27.000Z</time>
        <extensions>
          <ns3:TrackPointExtension>
            <ns3:atemp>21.0</ns3:atemp>
          </ns3:TrackPointExtension>
        </extensions>
      </trkpt>
      <trkpt lat="42.54506050609052181243896484375" lon="20.1194628886878490447998046875">
        <ele>1944.4000244140625</ele>
        <time>2026-06-20T07:00:28.000Z</time>
        <extensions>
          <ns3:TrackPointExtension>
            <ns3:atemp>21.0</ns3:atemp>
          </ns3:TrackPointExtension>
        </extensions>
      </trkpt>
      <trkpt lat="42.54506100900471210479736328125" lon="20.1194630563259124755859375">
        <ele>1944.4000244140625</ele>
        <time>2026-06-20T07:00:29.000Z</time>
        <extensions>
          <ns3:TrackPointExtension>
            <ns3:atemp>21.0</ns3:atemp>
          </ns3:TrackPointExtension>
        </extensions>
      </trkpt>
      <trkpt lat="42.54506050609052181243896484375" lon="20.1194628886878490447998046875">
        <ele>1944.4000244140625</ele>
        <time>2026-06-20T07:00:30.000Z</time>
        <extensions>
          <ns3:TrackPointExtension>
            <ns3:atemp>21.0</ns3:atemp>
          </ns3:TrackPointExtension>
        </extensions>
      </trkpt>
      <trkpt lat="42.54506050609052181243896484375" lon="20.1194628886878490447998046875">
        <ele>1944.4000244140625</ele>
        <time>2026-06-20T07:00:31.000Z</time>
        <extensions>
          <ns3:TrackPointExtension>
            <ns3:atemp>21.0</ns3:atemp>
          </ns3:TrackPointExtension>
        </extensions>
      </trkpt>
      <trkpt lat="42.54506503231823444366455078125" lon="20.11946364305913448333740234375">
        <ele>1944.4000244140625</ele>
        <time>2026-06-20T07:00:32.000Z</time>
        <extensions>
          <ns3:TrackPointExtension>
            <ns3:atemp>21.0</ns3:atemp>
          </ns3:TrackPointExtension>
        </extensions>
      </trkpt>
      <trkpt lat="42.54507274366915225982666015625" lon="20.1194655708968639373779296875">
        <ele>1944.4000244140625</ele>
        <time>2026-06-20T07:00:33.000Z</time>
        <extensions>
          <ns3:TrackPointExtension>
            <ns3:atemp>21.0</ns3:atemp>
          </ns3:TrackPointExtension>
        </extensions>
      </trkpt>
      <trkpt lat="42.54508129321038722991943359375" lon="20.119464397430419921875">
        <ele>1944.4000244140625</ele>
        <time>2026-06-20T07:00:34.000Z</time>
        <extensions>
          <ns3:TrackPointExtension>
            <ns3:atemp>21.0</ns3:atemp>
          </ns3:TrackPointExtension>
        </extensions>
      </trkpt>
      <trkpt lat="42.54508464597165584564208984375" lon="20.11946783401072025299072265625">
        <ele>1944.5999755859375</ele>
        <time>2026-06-20T07:00:35.000Z</time>
        <extensions>
          <ns3:TrackPointExtension>
            <ns3:atemp>21.0</ns3:atemp>
          </ns3:TrackPointExtension>
        </extensions>
      </trkpt>
      <trkpt lat="42.54508464597165584564208984375" lon="20.11946775019168853759765625">
        <ele>1944.5999755859375</ele>
        <time>2026-06-20T07:00:36.000Z</time>
        <extensions>
          <ns3:TrackPointExtension>
            <ns3:atemp>21.0</ns3:atemp>
          </ns3:TrackPointExtension>
        </extensions>
      </trkpt>
      <trkpt lat="42.54508464597165584564208984375" lon="20.11946775019168853759765625">
        <ele>1944.800048828125</ele>
        <time>2026-06-20T07:00:37.000Z</time>
        <extensions>
          <ns3:TrackPointExtension>
            <ns3:atemp>21.0</ns3:atemp>
          </ns3:TrackPointExtension>
        </extensions>
      </trkpt>
      <trkpt lat="42.54508464597165584564208984375" lon="20.11946775019168853759765625">
        <ele>1945</ele>
        <time>2026-06-20T07:00:38.000Z</time>
        <extensions>
          <ns3:TrackPointExtension>
            <ns3:atemp>21.0</ns3:atemp>
          </ns3:TrackPointExtension>
        </extensions>
      </trkpt>
      <trkpt lat="42.54508472979068756103515625" lon="20.119467414915561676025390625">
        <ele>1945</ele>
        <time>2026-06-20T07:00:39.000Z</time>
        <extensions>
          <ns3:TrackPointExtension>
            <ns3:atemp>21.0</ns3:atemp>
          </ns3:TrackPointExtension>
        </extensions>
      </trkpt>
      <trkpt lat="42.54509286023676395416259765625" lon="20.119465403258800506591796875">
        <ele>1945</ele>
        <time>2026-06-20T07:00:40.000Z</time>
        <extensions>
          <ns3:TrackPointExtension>
            <ns3:atemp>21.0</ns3:atemp>
          </ns3:TrackPointExtension>
        </extensions>
      </trkpt>
      <trkpt lat="42.54510484635829925537109375" lon="20.11946431361138820648193359375">
        <ele>1945</ele>
        <time>2026-06-20T07:00:41.000Z</time>
        <extensions>
          <ns3:TrackPointExtension>
            <ns3:atemp>21.0</ns3:atemp>
          </ns3:TrackPointExtension>
        </extensions>
      </trkpt>
      <trkpt lat="42.54511867649853229522705078125" lon="20.11947118677198886871337890625">
        <ele>1945</ele>
        <time>2026-06-20T07:00:42.000Z</time>
        <extensions>
          <ns3:TrackPointExtension>
            <ns3:atemp>21.0</ns3:atemp>
          </ns3:TrackPointExtension>
        </extensions>
      </trkpt>
      <trkpt lat="42.5451345182955265045166015625" lon="20.1194716058671474456787109375">
        <ele>1945</ele>
        <time>2026-06-20T07:00:43.000Z</time>
        <extensions>
          <ns3:TrackPointExtension>
            <ns3:atemp>21.0</ns3:atemp>
          </ns3:TrackPointExtension>
        </extensions>
      </trkpt>
      <trkpt lat="42.54515203647315502166748046875" lon="20.119472444057464599609375">
        <ele>1945.199951171875</ele>
        <time>2026-06-20T07:00:44.000Z</time>
        <extensions>
          <ns3:TrackPointExtension>
            <ns3:atemp>21.0</ns3:atemp>
          </ns3:TrackPointExtension>
        </extensions>
      </trkpt>
      <trkpt lat="42.5451658666133880615234375" lon="20.11947571299970149993896484375">
        <ele>1945.4000244140625</ele>
        <time>2026-06-20T07:00:45.000Z</time>
        <extensions>
          <ns3:TrackPointExtension>
            <ns3:atemp>21.0</ns3:atemp>
          </ns3:TrackPointExtension>
        </extensions>
      </trkpt>
      <trkpt lat="42.5451784394681453704833984375" lon="20.11947537772357463836669921875">
        <ele>1945.800048828125</ele>
        <time>2026-06-20T07:00:46.000Z</time>
        <extensions>
          <ns3:TrackPointExtension>
            <ns3:atemp>21.0</ns3:atemp>
          </ns3:TrackPointExtension>
        </extensions>
      </trkpt>
      <trkpt lat="42.54519277252256870269775390625" lon="20.11946800164878368377685546875">
        <ele>1946</ele>
        <time>2026-06-20T07:00:47.000Z</time>
        <extensions>
          <ns3:TrackPointExtension>
            <ns3:atemp>21.0</ns3:atemp>
          </ns3:TrackPointExtension>
        </extensions>
      </trkpt>
      <trkpt lat="42.5452114641666412353515625" lon="20.11946515180170536041259765625">
        <ele>1946.199951171875</ele>
        <time>2026-06-20T07:00:48.000Z</time>
        <extensions>
          <ns3:TrackPointExtension>
            <ns3:atemp>21.0</ns3:atemp>
          </ns3:TrackPointExtension>
        </extensions>
      </trkpt>
      <trkpt lat="42.54522931762039661407470703125" lon="20.119466073811054229736328125">
        <ele>1946.5999755859375</ele>
        <time>2026-06-20T07:00:49.000Z</time>
        <extensions>
          <ns3:TrackPointExtension>
            <ns3:atemp>21.0</ns3:atemp>
          </ns3:TrackPointExtension>
        </extensions>
      </trkpt>
      <trkpt lat="42.54524725489318370819091796875" lon="20.11946666054427623748779296875">
        <ele>1946.800048828125</ele>
        <time>2026-06-20T07:00:50.000Z</time>
        <extensions>
          <ns3:TrackPointExtension>
            <ns3:atemp>21.0</ns3:atemp>
          </ns3:TrackPointExtension>
        </extensions>
      </trkpt>
      <trkpt lat="42.54526183940470218658447265625" lon="20.11946883983910083770751953125">
        <ele>1947</ele>
        <time>2026-06-20T07:00:51.000Z</time>
        <extensions>
          <ns3:TrackPointExtension>
            <ns3:atemp>21.0</ns3:atemp>
          </ns3:TrackPointExtension>
        </extensions>
      </trkpt>
      <trkpt lat="42.54527642391622066497802734375" lon="20.11947504244744777679443359375">
        <ele>1947.199951171875</ele>
        <time>2026-06-20T07:00:52.000Z</time>
        <extensions>
          <ns3:TrackPointExtension>
            <ns3:atemp>21.0</ns3:atemp>
          </ns3:TrackPointExtension>
        </extensions>
      </trkpt>
      <trkpt lat="42.54529117606580257415771484375" lon="20.11947973631322383880615234375">
        <ele>1947.5999755859375</ele>
        <time>2026-06-20T07:00:53.000Z</time>
        <extensions>
          <ns3:TrackPointExtension>
            <ns3:atemp>21.0</ns3:atemp>
          </ns3:TrackPointExtension>
        </extensions>
      </trkpt>
      <trkpt lat="42.54530601203441619873046875" lon="20.1194840110838413238525390625">
        <ele>1947.800048828125</ele>
        <time>2026-06-20T07:00:54.000Z</time>
        <extensions>
          <ns3:TrackPointExtension>
            <ns3:atemp>21.0</ns3:atemp>
          </ns3:TrackPointExtension>
        </extensions>
      </trkpt>
      <trkpt lat="42.54531967453658580780029296875" lon="20.1194903813302516937255859375">
        <ele>1948.199951171875</ele>
        <time>2026-06-20T07:00:55.000Z</time>
        <extensions>
          <ns3:TrackPointExtension>
            <ns3:atemp>21.0</ns3:atemp>
          </ns3:TrackPointExtension>
        </extensions>
      </trkpt>
      <trkpt lat="42.5453319959342479705810546875" lon="20.11949297972023487091064453125">
        <ele>1948.5999755859375</ele>
        <time>2026-06-20T07:00:56.000Z</time>
        <extensions>
          <ns3:TrackPointExtension>
            <ns3:atemp>21.0</ns3:atemp>
          </ns3:TrackPointExtension>
        </extensions>
      </trkpt>
      <trkpt lat="42.5453457422554492950439453125" lon="20.11950018815696239471435546875">
        <ele>1949</ele>
        <time>2026-06-20T07:00:57.000Z</time>
        <extensions>
          <ns3:TrackPointExtension>
            <ns3:atemp>21.0</ns3:atemp>
          </ns3:TrackPointExtension>
        </extensions>
      </trkpt>
      <trkpt lat="42.54535957239568233489990234375" lon="20.11950521729886531829833984375">
        <ele>1949.199951171875</ele>
        <time>2026-06-20T07:00:58.000Z</time>
        <extensions>
          <ns3:TrackPointExtension>
            <ns3:atemp>21.0</ns3:atemp>
          </ns3:TrackPointExtension>
        </extensions>
      </trkpt>
      <trkpt lat="42.54537097178399562835693359375" lon="20.1195086538791656494140625">
        <ele>1949.5999755859375</ele>
        <time>2026-06-20T07:00:59.000Z</time>
        <extensions>
          <ns3:TrackPointExtension>
            <ns3:atemp>21.0</ns3:atemp>
          </ns3:TrackPointExtension>
        </extensions>
      </trkpt>
      <trkpt lat="42.5453819520771503448486328125" lon="20.11951267719268798828125">
        <ele>1949.800048828125</ele>
        <time>2026-06-20T07:01:00.000Z</time>
        <extensions>
          <ns3:TrackPointExtension>
            <ns3:atemp>21.0</ns3:atemp>
          </ns3:TrackPointExtension>
        </extensions>
      </trkpt>
      <trkpt lat="42.5453983806073665618896484375" lon="20.11951795779168605804443359375">
        <ele>1950.199951171875</ele>
        <time>2026-06-20T07:01:01.000Z</time>
        <extensions>
          <ns3:TrackPointExtension>
            <ns3:atemp>21.0</ns3:atemp>
          </ns3:TrackPointExtension>
        </extensions>
      </trkpt>
      <trkpt lat="42.54541422240436077117919921875" lon="20.11951862834393978118896484375">
        <ele>1950.4000244140625</ele>
        <time>2026-06-20T07:01:02.000Z</time>
        <extensions>
          <ns3:TrackPointExtension>
            <ns3:atemp>21.0</ns3:atemp>
          </ns3:TrackPointExtension>
        </extensions>
      </trkpt>
      <trkpt lat="42.545434422791004180908203125" lon="20.11952340602874755859375">
        <ele>1950.800048828125</ele>
        <time>2026-06-20T07:01:03.000Z</time>
        <extensions>
          <ns3:TrackPointExtension>
            <ns3:atemp>21.0</ns3:atemp>
          </ns3:TrackPointExtension>
        </extensions>
      </trkpt>
      <trkpt lat="42.54545294679701328277587890625" lon="20.11952348984777927398681640625">
        <ele>1951.199951171875</ele>
        <time>2026-06-20T07:01:04.000Z</time>
        <extensions>
          <ns3:TrackPointExtension>
            <ns3:atemp>21.0</ns3:atemp>
          </ns3:TrackPointExtension>
        </extensions>
      </trkpt>
      <trkpt lat="42.54547105170786380767822265625" lon="20.11952633969485759735107421875">
        <ele>1951.4000244140625</ele>
        <time>2026-06-20T07:01:05.000Z</time>
        <extensions>
          <ns3:TrackPointExtension>
            <ns3:atemp>21.0</ns3:atemp>
          </ns3:TrackPointExtension>
        </extensions>
      </trkpt>
      <trkpt lat="42.5454875640571117401123046875" lon="20.1195265911519527435302734375">
        <ele>1952</ele>
        <time>2026-06-20T07:01:06.000Z</time>
        <extensions>
          <ns3:TrackPointExtension>
            <ns3:atemp>21.0</ns3:atemp>
          </ns3:TrackPointExtension>
        </extensions>
      </trkpt>
      <trkpt lat="42.54550374113023281097412109375" lon="20.11952809989452362060546875">
        <ele>1952.199951171875</ele>
        <time>2026-06-20T07:01:07.000Z</time>
        <extensions>
          <ns3:TrackPointExtension>
            <ns3:atemp>21.0</ns3:atemp>
          </ns3:TrackPointExtension>
        </extensions>
      </trkpt>
      <trkpt lat="42.545516900718212127685546875" lon="20.1195329613983631134033203125">
        <ele>1952.5999755859375</ele>
        <time>2026-06-20T07:01:08.000Z</time>
        <extensions>
          <ns3:TrackPointExtension>
            <ns3:atemp>21.0</ns3:atemp>
          </ns3:TrackPointExtension>
        </extensions>
      </trkpt>
      <trkpt lat="42.54552721045911312103271484375" lon="20.119530446827411651611328125">
        <ele>1953</ele>
        <time>2026-06-20T07:01:09.000Z</time>
        <extensions>
          <ns3:TrackPointExtension>
            <ns3:atemp>21.0</ns3:atemp>
          </ns3:TrackPointExtension>
        </extensions>
      </trkpt>
      <trkpt lat="42.54554062150418758392333984375" lon="20.119525752961635589599609375">
        <ele>1953.199951171875</ele>
        <time>2026-06-20T07:01:10.000Z</time>
        <extensions>
          <ns3:TrackPointExtension>
            <ns3:atemp>21.0</ns3:atemp>
          </ns3:TrackPointExtension>
        </extensions>
      </trkpt>
      <trkpt lat="42.5455539487302303314208984375" lon="20.1195198856294155120849609375">
        <ele>1953.4000244140625</ele>
        <time>2026-06-20T07:01:11.000Z</time>
        <extensions>
          <ns3:TrackPointExtension>
            <ns3:atemp>21.0</ns3:atemp>
          </ns3:TrackPointExtension>
        </extensions>
      </trkpt>
      <trkpt lat="42.5455720536410808563232421875" lon="20.11951426975429058074951171875">
        <ele>1953.5999755859375</ele>
        <time>2026-06-20T07:01:12.000Z</time>
        <extensions>
          <ns3:TrackPointExtension>
            <ns3:atemp>21.0</ns3:atemp>
          </ns3:TrackPointExtension>
        </extensions>
      </trkpt>
      <trkpt lat="42.545588314533233642578125" lon="20.1195113360881805419921875">
        <ele>1953.800048828125</ele>
        <time>2026-06-20T07:01:13.000Z</time>
        <extensions>
          <ns3:TrackPointExtension>
            <ns3:atemp>21.0</ns3:atemp>
          </ns3:TrackPointExtension>
        </extensions>
      </trkpt>
      <trkpt lat="42.54560952074825763702392578125" lon="20.119513683021068572998046875">
        <ele>1954</ele>
        <time>2026-06-20T07:01:14.000Z</time>
        <extensions>
          <ns3:TrackPointExtension>
            <ns3:atemp>21.0</ns3:atemp>
          </ns3:TrackPointExtension>
        </extensions>
      </trkpt>
      <trkpt lat="42.54562896676361560821533203125" lon="20.11951510794460773468017578125">
        <ele>1954</ele>
        <time>2026-06-20T07:01:15.000Z</time>
        <extensions>
          <ns3:TrackPointExtension>
            <ns3:atemp>21.0</ns3:atemp>
          </ns3:TrackPointExtension>
        </extensions>
      </trkpt>
      <trkpt lat="42.54564556293189525604248046875" lon="20.11950655840337276458740234375">
        <ele>1954.199951171875</ele>
        <time>2026-06-20T07:01:16.000Z</time>
        <extensions>
          <ns3:TrackPointExtension>
            <ns3:atemp>21.0</ns3:atemp>
          </ns3:TrackPointExtension>
        </extensions>
      </trkpt>
      <trkpt lat="42.545663751661777496337890625" lon="20.11950102634727954864501953125">
        <ele>1954.4000244140625</ele>
        <time>2026-06-20T07:01:17.000Z</time>
        <extensions>
          <ns3:TrackPointExtension>
            <ns3:atemp>21.0</ns3:atemp>
          </ns3:TrackPointExtension>
        </extensions>
      </trkpt>
      <trkpt lat="42.54567925818264484405517578125" lon="20.119498260319232940673828125">
        <ele>1954.5999755859375</ele>
        <time>2026-06-20T07:01:18.000Z</time>
        <extensions>
          <ns3:TrackPointExtension>
            <ns3:atemp>21.0</ns3:atemp>
          </ns3:TrackPointExtension>
        </extensions>
      </trkpt>
      <trkpt lat="42.54569266922771930694580078125" lon="20.11949968524277210235595703125">
        <ele>1954.800048828125</ele>
        <time>2026-06-20T07:01:19.000Z</time>
        <extensions>
          <ns3:TrackPointExtension>
            <ns3:atemp>21.0</ns3:atemp>
          </ns3:TrackPointExtension>
        </extensions>
      </trkpt>
      <trkpt lat="42.5457098521292209625244140625" lon="20.11950287036597728729248046875">
        <ele>1955</ele>
        <time>2026-06-20T07:01:20.000Z</time>
        <extensions>
          <ns3:TrackPointExtension>
            <ns3:atemp>21.0</ns3:atemp>
          </ns3:TrackPointExtension>
        </extensions>
      </trkpt>
      <trkpt lat="42.545726783573627471923828125" lon="20.1194960810244083404541015625">
        <ele>1955</ele>
        <time>2026-06-20T07:01:21.000Z</time>
        <extensions>
          <ns3:TrackPointExtension>
            <ns3:atemp>21.0</ns3:atemp>
          </ns3:TrackPointExtension>
        </extensions>
      </trkpt>
      <trkpt lat="42.54574882797896862030029296875" lon="20.11949432082474231719970703125">
        <ele>1955.199951171875</ele>
        <time>2026-06-20T07:01:22.000Z</time>
        <extensions>
          <ns3:TrackPointExtension>
            <ns3:atemp>21.0</ns3:atemp>
          </ns3:TrackPointExtension>
        </extensions>
      </trkpt>
      <trkpt lat="42.54577078856527805328369140625" lon="20.11949549429118633270263671875">
        <ele>1955.4000244140625</ele>
        <time>2026-06-20T07:01:23.000Z</time>
        <extensions>
          <ns3:TrackPointExtension>
            <ns3:atemp>21.0</ns3:atemp>
          </ns3:TrackPointExtension>
        </extensions>
      </trkpt>
      <trkpt lat="42.54578570835292339324951171875" lon="20.1194897107779979705810546875">
        <ele>1955.4000244140625</ele>
        <time>2026-06-20T07:01:24.000Z</time>
        <extensions>
          <ns3:TrackPointExtension>
            <ns3:atemp>21.0</ns3:atemp>
          </ns3:TrackPointExtension>
        </extensions>
      </trkpt>
      <trkpt lat="42.5457997061312198638916015625" lon="20.11948644183576107025146484375">
        <ele>1955.5999755859375</ele>
        <time>2026-06-20T07:01:25.000Z</time>
        <extensions>
          <ns3:TrackPointExtension>
            <ns3:atemp>21.0</ns3:atemp>
          </ns3:TrackPointExtension>
        </extensions>
      </trkpt>
      <trkpt lat="42.54581605084240436553955078125" lon="20.11948325671255588531494140625">
        <ele>1955.800048828125</ele>
        <time>2026-06-20T07:01:26.000Z</time>
        <extensions>
          <ns3:TrackPointExtension>
            <ns3:atemp>21.0</ns3:atemp>
          </ns3:TrackPointExtension>
        </extensions>
      </trkpt>
      <trkpt lat="42.54583164118230342864990234375" lon="20.11948543600738048553466796875">
        <ele>1956.199951171875</ele>
        <time>2026-06-20T07:01:27.000Z</time>
        <extensions>
          <ns3:TrackPointExtension>
            <ns3:atemp>21.0</ns3:atemp>
          </ns3:TrackPointExtension>
        </extensions>
      </trkpt>
      <trkpt lat="42.5458449684083461761474609375" lon="20.1194900460541248321533203125">
        <ele>1956.4000244140625</ele>
        <time>2026-06-20T07:01:28.000Z</time>
        <extensions>
          <ns3:TrackPointExtension>
            <ns3:atemp>21.0</ns3:atemp>
          </ns3:TrackPointExtension>
        </extensions>
      </trkpt>
      <trkpt lat="42.54584589041769504547119140625" lon="20.11949666775763034820556640625">
        <ele>1956.800048828125</ele>
        <time>2026-06-20T07:01:29.000Z</time>
        <extensions>
          <ns3:TrackPointExtension>
            <ns3:atemp>21.0</ns3:atemp>
          </ns3:TrackPointExtension>
        </extensions>
      </trkpt>
      <trkpt lat="42.54584790207445621490478515625" lon="20.11949365027248859405517578125">
        <ele>1957.199951171875</ele>
        <time>2026-06-20T07:01:30.000Z</time>
        <extensions>
          <ns3:TrackPointExtension>
            <ns3:atemp>21.0</ns3:atemp>
          </ns3:TrackPointExtension>
        </extensions>
      </trkpt>
      <trkpt lat="42.54585586488246917724609375" lon="20.119490884244441986083984375">
        <ele>1957.5999755859375</ele>
        <time>2026-06-20T07:01:31.000Z</time>
        <extensions>
          <ns3:TrackPointExtension>
            <ns3:atemp>21.0</ns3:atemp>
          </ns3:TrackPointExtension>
        </extensions>
      </trkpt>
      <trkpt lat="42.54586500115692615509033203125" lon="20.11948510073125362396240234375">
        <ele>1957.800048828125</ele>
        <time>2026-06-20T07:01:32.000Z</time>
        <extensions>
          <ns3:TrackPointExtension>
            <ns3:atemp>21.0</ns3:atemp>
          </ns3:TrackPointExtension>
        </extensions>
      </trkpt>
      <trkpt lat="42.54586902447044849395751953125" lon="20.119483508169651031494140625">
        <ele>1957.800048828125</ele>
        <time>2026-06-20T07:01:33.000Z</time>
        <extensions>
          <ns3:TrackPointExtension>
            <ns3:atemp>21.0</ns3:atemp>
          </ns3:TrackPointExtension>
        </extensions>
      </trkpt>
      <trkpt lat="42.5458691082894802093505859375" lon="20.11948342435061931610107421875">
        <ele>1958</ele>
        <time>2026-06-20T07:01:34.000Z</time>
        <extensions>
          <ns3:TrackPointExtension>
            <ns3:atemp>21.0</ns3:atemp>
          </ns3:TrackPointExtension>
        </extensions>
      </trkpt>
      <trkpt lat="42.5458691082894802093505859375" lon="20.11948342435061931610107421875">
        <ele>1958</ele>
        <time>2026-06-20T07:01:35.000Z</time>
        <extensions>
          <ns3:TrackPointExtension>
            <ns3:atemp>21.0</ns3:atemp>
          </ns3:TrackPointExtension>
        </extensions>
      </trkpt>
      <trkpt lat="42.5458691082894802093505859375" lon="20.11948342435061931610107421875">
        <ele>1958</ele>
        <time>2026-06-20T07:01:36.000Z</time>
        <extensions>
          <ns3:TrackPointExtension>
            <ns3:atemp>21.0</ns3:atemp>
          </ns3:TrackPointExtension>
        </extensions>
      </trkpt>
      <trkpt lat="42.54586935974657535552978515625" lon="20.11948325671255588531494140625">
        <ele>1958</ele>
        <time>2026-06-20T07:01:37.000Z</time>
        <extensions>
          <ns3:TrackPointExtension>
            <ns3:atemp>21.0</ns3:atemp>
          </ns3:TrackPointExtension>
        </extensions>
      </trkpt>
      <trkpt lat="42.545890398323535919189453125" lon="20.11947420425713062286376953125">
        <ele>1958</ele>
        <time>2026-06-20T07:01:38.000Z</time>
        <extensions>
          <ns3:TrackPointExtension>
            <ns3:atemp>21.0</ns3:atemp>
          </ns3:TrackPointExtension>
        </extensions>
      </trkpt>
      <trkpt lat="42.54590624012053012847900390625" lon="20.1194618828594684600830078125">
        <ele>1957.800048828125</ele>
        <time>2026-06-20T07:01:39.000Z</time>
        <extensions>
          <ns3:TrackPointExtension>
            <ns3:atemp>21.0</ns3:atemp>
          </ns3:TrackPointExtension>
        </extensions>
      </trkpt>
      <trkpt lat="42.545921914279460906982421875" lon="20.11945291422307491302490234375">
        <ele>1957.800048828125</ele>
        <time>2026-06-20T07:01:40.000Z</time>
        <extensions>
          <ns3:TrackPointExtension>
            <ns3:atemp>21.0</ns3:atemp>
          </ns3:TrackPointExtension>
        </extensions>
      </trkpt>
      <trkpt lat="42.54593809135258197784423828125" lon="20.11944872327148914337158203125">
        <ele>1957.5999755859375</ele>
        <time>2026-06-20T07:01:41.000Z</time>
        <extensions>
          <ns3:TrackPointExtension>
            <ns3:atemp>21.0</ns3:atemp>
          </ns3:TrackPointExtension>
        </extensions>
      </trkpt>
      <trkpt lat="42.5459582917392253875732421875" lon="20.11944570578634738922119140625">
        <ele>1957.4000244140625</ele>
        <time>2026-06-20T07:01:42.000Z</time>
        <extensions>
          <ns3:TrackPointExtension>
            <ns3:atemp>21.0</ns3:atemp>
          </ns3:TrackPointExtension>
        </extensions>
      </trkpt>
      <trkpt lat="42.5459825992584228515625" lon="20.11944067664444446563720703125">
        <ele>1957.199951171875</ele>
        <time>2026-06-20T07:01:43.000Z</time>
        <extensions>
          <ns3:TrackPointExtension>
            <ns3:atemp>21.0</ns3:atemp>
          </ns3:TrackPointExtension>
        </extensions>
      </trkpt>
      <trkpt lat="42.5460018776357173919677734375" lon="20.1194384135305881500244140625">
        <ele>1957</ele>
        <time>2026-06-20T07:01:44.000Z</time>
        <extensions>
          <ns3:TrackPointExtension>
            <ns3:atemp>21.0</ns3:atemp>
          </ns3:TrackPointExtension>
        </extensions>
      </trkpt>
      <trkpt lat="42.5460186414420604705810546875" lon="20.1194367371499538421630859375">
        <ele>1957</ele>
        <time>2026-06-20T07:01:45.000Z</time>
        <extensions>
          <ns3:TrackPointExtension>
            <ns3:atemp>21.0</ns3:atemp>
          </ns3:TrackPointExtension>
        </extensions>
      </trkpt>
      <trkpt lat="42.54603263922035694122314453125" lon="20.11944067664444446563720703125">
        <ele>1957</ele>
        <time>2026-06-20T07:01:46.000Z</time>
        <extensions>
          <ns3:TrackPointExtension>
            <ns3:atemp>21.0</ns3:atemp>
          </ns3:TrackPointExtension>
        </extensions>
      </trkpt>
      <trkpt lat="42.546051330864429473876953125" lon="20.11944537051022052764892578125">
        <ele>1957.199951171875</ele>
        <time>2026-06-20T07:01:47.000Z</time>
        <extensions>
          <ns3:TrackPointExtension>
            <ns3:atemp>21.0</ns3:atemp>
          </ns3:TrackPointExtension>
        </extensions>
      </trkpt>
      <trkpt lat="42.546070106327533721923828125" lon="20.11944872327148914337158203125">
        <ele>1957.4000244140625</ele>
        <time>2026-06-20T07:01:48.000Z</time>
        <extensions>
          <ns3:TrackPointExtension>
            <ns3:atemp>21.0</ns3:atemp>
          </ns3:TrackPointExtension>
        </extensions>
      </trkpt>
      <trkpt lat="42.54608519375324249267578125" lon="20.11944855563342571258544921875">
        <ele>1957.800048828125</ele>
        <time>2026-06-20T07:01:49.000Z</time>
        <extensions>
          <ns3:TrackPointExtension>
            <ns3:atemp>21.0</ns3:atemp>
          </ns3:TrackPointExtension>
        </extensions>
      </trkpt>
      <trkpt lat="42.54610153846442699432373046875" lon="20.11944402940571308135986328125">
        <ele>1958</ele>
        <time>2026-06-20T07:01:50.000Z</time>
        <extensions>
          <ns3:TrackPointExtension>
            <ns3:atemp>21.0</ns3:atemp>
          </ns3:TrackPointExtension>
        </extensions>
      </trkpt>
      <trkpt lat="42.5461158715188503265380859375" lon="20.1194496452808380126953125">
        <ele>1958.199951171875</ele>
        <time>2026-06-20T07:01:51.000Z</time>
        <extensions>
          <ns3:TrackPointExtension>
            <ns3:atemp>21.0</ns3:atemp>
          </ns3:TrackPointExtension>
        </extensions>
      </trkpt>
      <trkpt lat="42.5461215712130069732666015625" lon="20.11944738216698169708251953125">
        <ele>1958.4000244140625</ele>
        <time>2026-06-20T07:01:52.000Z</time>
        <extensions>
          <ns3:TrackPointExtension>
            <ns3:atemp>21.0</ns3:atemp>
          </ns3:TrackPointExtension>
        </extensions>
      </trkpt>
      <trkpt lat="42.54612601362168788909912109375" lon="20.1194521598517894744873046875">
        <ele>1958.5999755859375</ele>
        <time>2026-06-20T07:01:53.000Z</time>
        <extensions>
          <ns3:TrackPointExtension>
            <ns3:atemp>21.0</ns3:atemp>
          </ns3:TrackPointExtension>
        </extensions>
      </trkpt>
      <trkpt lat="42.54612601362168788909912109375" lon="20.1194521598517894744873046875">
        <ele>1958.5999755859375</ele>
        <time>2026-06-20T07:01:54.000Z</time>
        <extensions>
          <ns3:TrackPointExtension>
            <ns3:atemp>21.0</ns3:atemp>
          </ns3:TrackPointExtension>
        </extensions>
      </trkpt>
      <trkpt lat="42.54612601362168788909912109375" lon="20.1194521598517894744873046875">
        <ele>1958.800048828125</ele>
        <time>2026-06-20T07:01:55.000Z</time>
        <extensions>
          <ns3:TrackPointExtension>
            <ns3:atemp>21.0</ns3:atemp>
          </ns3:TrackPointExtension>
        </extensions>
      </trkpt>
      <trkpt lat="42.5461423583328723907470703125" lon="20.11946129612624645233154296875">
        <ele>1958.5999755859375</ele>
        <time>2026-06-20T07:01:56.000Z</time>
        <extensions>
          <ns3:TrackPointExtension>
            <ns3:atemp>21.0</ns3:atemp>
          </ns3:TrackPointExtension>
        </extensions>
      </trkpt>
      <trkpt lat="42.54616423510015010833740234375" lon="20.1194751262664794921875">
        <ele>1958.5999755859375</ele>
        <time>2026-06-20T07:01:57.000Z</time>
        <extensions>
          <ns3:TrackPointExtension>
            <ns3:atemp>21.0</ns3:atemp>
          </ns3:TrackPointExtension>
        </extensions>
      </trkpt>
      <trkpt lat="42.5461862795054912567138671875" lon="20.11948920786380767822265625">
        <ele>1958.4000244140625</ele>
        <time>2026-06-20T07:01:58.000Z</time>
        <extensions>
          <ns3:TrackPointExtension>
            <ns3:atemp>21.0</ns3:atemp>
          </ns3:TrackPointExtension>
        </extensions>
      </trkpt>
      <trkpt lat="42.54620321094989776611328125" lon="20.11949633248150348663330078125">
        <ele>1958.199951171875</ele>
        <time>2026-06-20T07:01:59.000Z</time>
        <extensions>
          <ns3:TrackPointExtension>
            <ns3:atemp>21.0</ns3:atemp>
          </ns3:TrackPointExtension>
        </extensions>
      </trkpt>
      <trkpt lat="42.5462147779762744903564453125" lon="20.1195047982037067413330078125">
        <ele>1958</ele>
        <time>2026-06-20T07:02:00.000Z</time>
        <extensions>
          <ns3:TrackPointExtension>
            <ns3:atemp>21.0</ns3:atemp>
          </ns3:TrackPointExtension>
        </extensions>
      </trkpt>
      <trkpt lat="42.5462211482226848602294921875" lon="20.1195131801068782806396484375">
        <ele>1958</ele>
        <time>2026-06-20T07:02:01.000Z</time>
        <extensions>
          <ns3:TrackPointExtension>
            <ns3:atemp>21.0</ns3:atemp>
          </ns3:TrackPointExtension>
        </extensions>
      </trkpt>
      <trkpt lat="42.546233050525188446044921875" lon="20.1195185445249080657958984375">
        <ele>1958.199951171875</ele>
        <time>2026-06-20T07:02:02.000Z</time>
        <extensions>
          <ns3:TrackPointExtension>
            <ns3:atemp>21.0</ns3:atemp>
          </ns3:TrackPointExtension>
        </extensions>
      </trkpt>
      <trkpt lat="42.5462476350367069244384765625" lon="20.11953002773225307464599609375">
        <ele>1958.5999755859375</ele>
        <time>2026-06-20T07:02:03.000Z</time>
        <extensions>
          <ns3:TrackPointExtension>
            <ns3:atemp>21.0</ns3:atemp>
          </ns3:TrackPointExtension>
        </extensions>
      </trkpt>
      <trkpt lat="42.54625475965440273284912109375" lon="20.11954125948250293731689453125">
        <ele>1958.800048828125</ele>
        <time>2026-06-20T07:02:04.000Z</time>
        <extensions>
          <ns3:TrackPointExtension>
            <ns3:atemp>21.0</ns3:atemp>
          </ns3:TrackPointExtension>
        </extensions>
      </trkpt>
      <trkpt lat="42.54625978879630565643310546875" lon="20.11954360641539096832275390625">
        <ele>1959.199951171875</ele>
        <time>2026-06-20T07:02:05.000Z</time>
        <extensions>
          <ns3:TrackPointExtension>
            <ns3:atemp>21.0</ns3:atemp>
          </ns3:TrackPointExtension>
        </extensions>
      </trkpt>
      <trkpt lat="42.546259872615337371826171875" lon="20.11954360641539096832275390625">
        <ele>1959.4000244140625</ele>
        <time>2026-06-20T07:02:06.000Z</time>
        <extensions>
          <ns3:TrackPointExtension>
            <ns3:atemp>21.0</ns3:atemp>
          </ns3:TrackPointExtension>
        </extensions>
      </trkpt>
      <trkpt lat="42.54626833833754062652587890625" lon="20.11955089867115020751953125">
        <ele>1959.5999755859375</ele>
        <time>2026-06-20T07:02:07.000Z</time>
        <extensions>
          <ns3:TrackPointExtension>
            <ns3:atemp>21.0</ns3:atemp>
          </ns3:TrackPointExtension>
        </extensions>
      </trkpt>
      <trkpt lat="42.5462744571268558502197265625" lon="20.1195537485182285308837890625">
        <ele>1959.800048828125</ele>
        <time>2026-06-20T07:02:08.000Z</time>
        <extensions>
          <ns3:TrackPointExtension>
            <ns3:atemp>21.0</ns3:atemp>
          </ns3:TrackPointExtension>
        </extensions>
      </trkpt>
      <trkpt lat="42.5462789833545684814453125" lon="20.11955869384109973907470703125">
        <ele>1959.800048828125</ele>
        <time>2026-06-20T07:02:09.000Z</time>
        <extensions>
          <ns3:TrackPointExtension>
            <ns3:atemp>21.0</ns3:atemp>
          </ns3:TrackPointExtension>
        </extensions>
      </trkpt>
      <trkpt lat="42.54628501832485198974609375" lon="20.119564644992351531982421875">
        <ele>1960</ele>
        <time>2026-06-20T07:02:10.000Z</time>
        <extensions>
          <ns3:TrackPointExtension>
            <ns3:atemp>21.0</ns3:atemp>
          </ns3:TrackPointExtension>
        </extensions>
      </trkpt>
      <trkpt lat="42.54629080183804035186767578125" lon="20.1195748709142208099365234375">
        <ele>1960</ele>
        <time>2026-06-20T07:02:11.000Z</time>
        <extensions>
          <ns3:TrackPointExtension>
            <ns3:atemp>21.0</ns3:atemp>
          </ns3:TrackPointExtension>
        </extensions>
      </trkpt>
      <trkpt lat="42.54629868082702159881591796875" lon="20.1195835880935192108154296875">
        <ele>1960</ele>
        <time>2026-06-20T07:02:12.000Z</time>
        <extensions>
          <ns3:TrackPointExtension>
            <ns3:atemp>21.0</ns3:atemp>
          </ns3:TrackPointExtension>
        </extensions>
      </trkpt>
      <trkpt lat="42.54630555398762226104736328125" lon="20.11958769522607326507568359375">
        <ele>1960</ele>
        <time>2026-06-20T07:02:13.000Z</time>
        <extensions>
          <ns3:TrackPointExtension>
            <ns3:atemp>21.0</ns3:atemp>
          </ns3:TrackPointExtension>
        </extensions>
      </trkpt>
      <trkpt lat="42.54631309770047664642333984375" lon="20.119587443768978118896484375">
        <ele>1960.199951171875</ele>
        <time>2026-06-20T07:02:14.000Z</time>
        <extensions>
          <ns3:TrackPointExtension>
            <ns3:atemp>21.0</ns3:atemp>
          </ns3:TrackPointExtension>
        </extensions>
      </trkpt>
      <trkpt lat="42.546317875385284423828125" lon="20.119584761559963226318359375">
        <ele>1960.199951171875</ele>
        <time>2026-06-20T07:02:15.000Z</time>
        <extensions>
          <ns3:TrackPointExtension>
            <ns3:atemp>21.0</ns3:atemp>
          </ns3:TrackPointExtension>
        </extensions>
      </trkpt>
      <trkpt lat="42.5463230721652507781982421875" lon="20.1195819117128849029541015625">
        <ele>1960.199951171875</ele>
        <time>2026-06-20T07:02:16.000Z</time>
        <extensions>
          <ns3:TrackPointExtension>
            <ns3:atemp>21.0</ns3:atemp>
          </ns3:TrackPointExtension>
        </extensions>
      </trkpt>
      <trkpt lat="42.546330280601978302001953125" lon="20.11957931332290172576904296875">
        <ele>1960.199951171875</ele>
        <time>2026-06-20T07:02:17.000Z</time>
        <extensions>
          <ns3:TrackPointExtension>
            <ns3:atemp>21.0</ns3:atemp>
          </ns3:TrackPointExtension>
        </extensions>
      </trkpt>
      <trkpt lat="42.54633874632418155670166015625" lon="20.11958233080804347991943359375">
        <ele>1960.199951171875</ele>
        <time>2026-06-20T07:02:18.000Z</time>
        <extensions>
          <ns3:TrackPointExtension>
            <ns3:atemp>21.0</ns3:atemp>
          </ns3:TrackPointExtension>
        </extensions>
      </trkpt>
      <trkpt lat="42.5463488884270191192626953125" lon="20.1195889525115489959716796875">
        <ele>1960.199951171875</ele>
        <time>2026-06-20T07:02:19.000Z</time>
        <extensions>
          <ns3:TrackPointExtension>
            <ns3:atemp>21.0</ns3:atemp>
          </ns3:TrackPointExtension>
        </extensions>
      </trkpt>
      <trkpt lat="42.5463545881211757659912109375" lon="20.11959540657699108123779296875">
        <ele>1960.4000244140625</ele>
        <time>2026-06-20T07:02:20.000Z</time>
        <extensions>
          <ns3:TrackPointExtension>
            <ns3:atemp>21.0</ns3:atemp>
          </ns3:TrackPointExtension>
        </extensions>
      </trkpt>
      <trkpt lat="42.54635475575923919677734375" lon="20.11959490366280078887939453125">
        <ele>1960.4000244140625</ele>
        <time>2026-06-20T07:02:21.000Z</time>
        <extensions>
          <ns3:TrackPointExtension>
            <ns3:atemp>21.0</ns3:atemp>
          </ns3:TrackPointExtension>
        </extensions>
      </trkpt>
      <trkpt lat="42.54635475575923919677734375" lon="20.11959222145378589630126953125">
        <ele>1960.4000244140625</ele>
        <time>2026-06-20T07:02:22.000Z</time>
        <extensions>
          <ns3:TrackPointExtension>
            <ns3:atemp>21.0</ns3:atemp>
          </ns3:TrackPointExtension>
        </extensions>
      </trkpt>
      <trkpt lat="42.54636414349079132080078125" lon="20.11960093863308429718017578125">
        <ele>1960.5999755859375</ele>
        <time>2026-06-20T07:02:23.000Z</time>
        <extensions>
          <ns3:TrackPointExtension>
            <ns3:atemp>21.0</ns3:atemp>
          </ns3:TrackPointExtension>
        </extensions>
      </trkpt>
      <trkpt lat="42.54637462086975574493408203125" lon="20.11961082927882671356201171875">
        <ele>1960.5999755859375</ele>
        <time>2026-06-20T07:02:24.000Z</time>
        <extensions>
          <ns3:TrackPointExtension>
            <ns3:atemp>21.0</ns3:atemp>
          </ns3:TrackPointExtension>
        </extensions>
      </trkpt>
      <trkpt lat="42.54638752900063991546630859375" lon="20.1196177862584590911865234375">
        <ele>1960.5999755859375</ele>
        <time>2026-06-20T07:02:25.000Z</time>
        <extensions>
          <ns3:TrackPointExtension>
            <ns3:atemp>21.0</ns3:atemp>
          </ns3:TrackPointExtension>
        </extensions>
      </trkpt>
      <trkpt lat="42.54640161059796810150146484375" lon="20.11962122283875942230224609375">
        <ele>1960.5999755859375</ele>
        <time>2026-06-20T07:02:26.000Z</time>
        <extensions>
          <ns3:TrackPointExtension>
            <ns3:atemp>21.0</ns3:atemp>
          </ns3:TrackPointExtension>
        </extensions>
      </trkpt>
      <trkpt lat="42.5464104115962982177734375" lon="20.1196332089602947235107421875">
        <ele>1960.5999755859375</ele>
        <time>2026-06-20T07:02:27.000Z</time>
        <extensions>
          <ns3:TrackPointExtension>
            <ns3:atemp>21.0</ns3:atemp>
          </ns3:TrackPointExtension>
        </extensions>
      </trkpt>
      <trkpt lat="42.54641820676624774932861328125" lon="20.1196452789008617401123046875">
        <ele>1960.800048828125</ele>
        <time>2026-06-20T07:02:28.000Z</time>
        <extensions>
          <ns3:TrackPointExtension>
            <ns3:atemp>21.0</ns3:atemp>
          </ns3:TrackPointExtension>
        </extensions>
      </trkpt>
      <trkpt lat="42.54642449319362640380859375" lon="20.11965994723141193389892578125">
        <ele>1961</ele>
        <time>2026-06-20T07:02:29.000Z</time>
        <extensions>
          <ns3:TrackPointExtension>
            <ns3:atemp>21.0</ns3:atemp>
          </ns3:TrackPointExtension>
        </extensions>
      </trkpt>
      <trkpt lat="42.5464238226413726806640625" lon="20.11967637576162815093994140625">
        <ele>1961.199951171875</ele>
        <time>2026-06-20T07:02:30.000Z</time>
        <extensions>
          <ns3:TrackPointExtension>
            <ns3:atemp>21.0</ns3:atemp>
          </ns3:TrackPointExtension>
        </extensions>
      </trkpt>
      <trkpt lat="42.54641854204237461090087890625" lon="20.1196828298270702362060546875">
        <ele>1961.5999755859375</ele>
        <time>2026-06-20T07:02:31.000Z</time>
        <extensions>
          <ns3:TrackPointExtension>
            <ns3:atemp>21.0</ns3:atemp>
          </ns3:TrackPointExtension>
        </extensions>
      </trkpt>
      <trkpt lat="42.54641502164304256439208984375" lon="20.11968291364610195159912109375">
        <ele>1962</ele>
        <time>2026-06-20T07:02:32.000Z</time>
        <extensions>
          <ns3:TrackPointExtension>
            <ns3:atemp>21.0</ns3:atemp>
          </ns3:TrackPointExtension>
        </extensions>
      </trkpt>
      <trkpt lat="42.54641502164304256439208984375" lon="20.11968291364610195159912109375">
        <ele>1962.4000244140625</ele>
        <time>2026-06-20T07:02:33.000Z</time>
        <extensions>
          <ns3:TrackPointExtension>
            <ns3:atemp>21.0</ns3:atemp>
          </ns3:TrackPointExtension>
        </extensions>
      </trkpt>
      <trkpt lat="42.54641502164304256439208984375" lon="20.11968291364610195159912109375">
        <ele>1962.800048828125</ele>
        <time>2026-06-20T07:02:34.000Z</time>
        <extensions>
          <ns3:TrackPointExtension>
            <ns3:atemp>21.0</ns3:atemp>
          </ns3:TrackPointExtension>
        </extensions>
      </trkpt>
      <trkpt lat="42.54641502164304256439208984375" lon="20.11968324892222881317138671875">
        <ele>1963</ele>
        <time>2026-06-20T07:02:35.000Z</time>
        <extensions>
          <ns3:TrackPointExtension>
            <ns3:atemp>21.0</ns3:atemp>
          </ns3:TrackPointExtension>
        </extensions>
      </trkpt>
      <trkpt lat="42.5464089028537273406982421875" lon="20.11969573795795440673828125">
        <ele>1963</ele>
        <time>2026-06-20T07:02:36.000Z</time>
        <extensions>
          <ns3:TrackPointExtension>
            <ns3:atemp>21.0</ns3:atemp>
          </ns3:TrackPointExtension>
        </extensions>
      </trkpt>
      <trkpt lat="42.54640244878828525543212890625" lon="20.1196999289095401763916015625">
        <ele>1963</ele>
        <time>2026-06-20T07:02:37.000Z</time>
        <extensions>
          <ns3:TrackPointExtension>
            <ns3:atemp>21.0</ns3:atemp>
          </ns3:TrackPointExtension>
        </extensions>
      </trkpt>
      <trkpt lat="42.54639708437025547027587890625" lon="20.11969967745244503021240234375">
        <ele>1963</ele>
        <time>2026-06-20T07:02:38.000Z</time>
        <extensions>
          <ns3:TrackPointExtension>
            <ns3:atemp>21.0</ns3:atemp>
          </ns3:TrackPointExtension>
        </extensions>
      </trkpt>
      <trkpt lat="42.5463918037712574005126953125" lon="20.11970034800469875335693359375">
        <ele>1963.199951171875</ele>
        <time>2026-06-20T07:02:39.000Z</time>
        <extensions>
          <ns3:TrackPointExtension>
            <ns3:atemp>21.0</ns3:atemp>
          </ns3:TrackPointExtension>
        </extensions>
      </trkpt>
      <trkpt lat="42.54639021120965480804443359375" lon="20.1197029463946819305419921875">
        <ele>1963.199951171875</ele>
        <time>2026-06-20T07:02:40.000Z</time>
        <extensions>
          <ns3:TrackPointExtension>
            <ns3:atemp>21.0</ns3:atemp>
          </ns3:TrackPointExtension>
        </extensions>
      </trkpt>
      <trkpt lat="42.5463901273906230926513671875" lon="20.11970303021371364593505859375">
        <ele>1963.4000244140625</ele>
        <time>2026-06-20T07:02:41.000Z</time>
        <extensions>
          <ns3:TrackPointExtension>
            <ns3:atemp>21.0</ns3:atemp>
          </ns3:TrackPointExtension>
        </extensions>
      </trkpt>
      <trkpt lat="42.54638384096324443817138671875" lon="20.11970621533691883087158203125">
        <ele>1963.5999755859375</ele>
        <time>2026-06-20T07:02:42.000Z</time>
        <extensions>
          <ns3:TrackPointExtension>
            <ns3:atemp>21.0</ns3:atemp>
          </ns3:TrackPointExtension>
        </extensions>
      </trkpt>
      <trkpt lat="42.54637981764972209930419921875" lon="20.11970638297498226165771484375">
        <ele>1963.800048828125</ele>
        <time>2026-06-20T07:02:43.000Z</time>
        <extensions>
          <ns3:TrackPointExtension>
            <ns3:atemp>20.0</ns3:atemp>
          </ns3:TrackPointExtension>
        </extensions>
      </trkpt>
      <trkpt lat="42.54637562669813632965087890625" lon="20.11970856226980686187744140625">
        <ele>1964</ele>
        <time>2026-06-20T07:02:44.000Z</time>
        <extensions>
          <ns3:TrackPointExtension>
            <ns3:atemp>20.0</ns3:atemp>
          </ns3:TrackPointExtension>
        </extensions>
      </trkpt>
      <trkpt lat="42.546373866498470306396484375" lon="20.1197059638798236846923828125">
        <ele>1964</ele>
        <time>2026-06-20T07:02:45.000Z</time>
        <extensions>
          <ns3:TrackPointExtension>
            <ns3:atemp>20.0</ns3:atemp>
          </ns3:TrackPointExtension>
        </extensions>
      </trkpt>
      <trkpt lat="42.546373866498470306396484375" lon="20.1197059638798236846923828125">
        <ele>1964.199951171875</ele>
        <time>2026-06-20T07:02:46.000Z</time>
        <extensions>
          <ns3:TrackPointExtension>
            <ns3:atemp>20.0</ns3:atemp>
          </ns3:TrackPointExtension>
        </extensions>
      </trkpt>
      <trkpt lat="42.546373866498470306396484375" lon="20.1197059638798236846923828125">
        <ele>1964.199951171875</ele>
        <time>2026-06-20T07:02:47.000Z</time>
        <extensions>
          <ns3:TrackPointExtension>
            <ns3:atemp>21.0</ns3:atemp>
          </ns3:TrackPointExtension>
        </extensions>
      </trkpt>
      <trkpt lat="42.546373866498470306396484375" lon="20.1197059638798236846923828125">
        <ele>1964.4000244140625</ele>
        <time>2026-06-20T07:02:48.000Z</time>
        <extensions>
          <ns3:TrackPointExtension>
            <ns3:atemp>21.0</ns3:atemp>
          </ns3:TrackPointExtension>
        </extensions>
      </trkpt>
      <trkpt lat="42.54637311212718486785888671875" lon="20.11970638297498226165771484375">
        <ele>1964.4000244140625</ele>
        <time>2026-06-20T07:02:49.000Z</time>
        <extensions>
          <ns3:TrackPointExtension>
            <ns3:atemp>21.0</ns3:atemp>
          </ns3:TrackPointExtension>
        </extensions>
      </trkpt>
      <trkpt lat="42.5463572703301906585693359375" lon="20.1197103224694728851318359375">
        <ele>1964.5999755859375</ele>
        <time>2026-06-20T07:02:50.000Z</time>
        <extensions>
          <ns3:TrackPointExtension>
            <ns3:atemp>21.0</ns3:atemp>
          </ns3:TrackPointExtension>
        </extensions>
      </trkpt>
      <trkpt lat="42.5463482178747653961181640625" lon="20.11971157975494861602783203125">
        <ele>1964.5999755859375</ele>
        <time>2026-06-20T07:02:51.000Z</time>
        <extensions>
          <ns3:TrackPointExtension>
            <ns3:atemp>21.0</ns3:atemp>
          </ns3:TrackPointExtension>
        </extensions>
      </trkpt>
      <trkpt lat="42.5463455356657505035400390625" lon="20.11971526779234409332275390625">
        <ele>1964.5999755859375</ele>
        <time>2026-06-20T07:02:52.000Z</time>
        <extensions>
          <ns3:TrackPointExtension>
            <ns3:atemp>21.0</ns3:atemp>
          </ns3:TrackPointExtension>
        </extensions>
      </trkpt>
      <trkpt lat="42.54633866250514984130859375" lon="20.11972314678132534027099609375">
        <ele>1964.800048828125</ele>
        <time>2026-06-20T07:02:53.000Z</time>
        <extensions>
          <ns3:TrackPointExtension>
            <ns3:atemp>21.0</ns3:atemp>
          </ns3:TrackPointExtension>
        </extensions>
      </trkpt>
      <trkpt lat="42.54633623175323009490966796875" lon="20.1197341270744800567626953125">
        <ele>1964.800048828125</ele>
        <time>2026-06-20T07:02:54.000Z</time>
        <extensions>
          <ns3:TrackPointExtension>
            <ns3:atemp>21.0</ns3:atemp>
          </ns3:TrackPointExtension>
        </extensions>
      </trkpt>
      <trkpt lat="42.54633673466742038726806640625" lon="20.11973856948316097259521484375">
        <ele>1965</ele>
        <time>2026-06-20T07:02:55.000Z</time>
        <extensions>
          <ns3:TrackPointExtension>
            <ns3:atemp>21.0</ns3:atemp>
          </ns3:TrackPointExtension>
        </extensions>
      </trkpt>
      <trkpt lat="42.54633673466742038726806640625" lon="20.11973856948316097259521484375">
        <ele>1965.199951171875</ele>
        <time>2026-06-20T07:02:56.000Z</time>
        <extensions>
          <ns3:TrackPointExtension>
            <ns3:atemp>21.0</ns3:atemp>
          </ns3:TrackPointExtension>
        </extensions>
      </trkpt>
      <trkpt lat="42.54633673466742038726806640625" lon="20.11973856948316097259521484375">
        <ele>1965.4000244140625</ele>
        <time>2026-06-20T07:02:57.000Z</time>
        <extensions>
          <ns3:TrackPointExtension>
            <ns3:atemp>21.0</ns3:atemp>
          </ns3:TrackPointExtension>
        </extensions>
      </trkpt>
      <trkpt lat="42.54633673466742038726806640625" lon="20.11973856948316097259521484375">
        <ele>1965.5999755859375</ele>
        <time>2026-06-20T07:02:58.000Z</time>
        <extensions>
          <ns3:TrackPointExtension>
            <ns3:atemp>21.0</ns3:atemp>
          </ns3:TrackPointExtension>
        </extensions>
      </trkpt>
      <trkpt lat="42.54633673466742038726806640625" lon="20.11973856948316097259521484375">
        <ele>1965.800048828125</ele>
        <time>2026-06-20T07:02:59.000Z</time>
        <extensions>
          <ns3:TrackPointExtension>
            <ns3:atemp>21.0</ns3:atemp>
          </ns3:TrackPointExtension>
        </extensions>
      </trkpt>
      <trkpt lat="42.54633673466742038726806640625" lon="20.11973856948316097259521484375">
        <ele>1965.800048828125</ele>
        <time>2026-06-20T07:03:00.000Z</time>
        <extensions>
          <ns3:TrackPointExtension>
            <ns3:atemp>21.0</ns3:atemp>
          </ns3:TrackPointExtension>
        </extensions>
      </trkpt>
      <trkpt lat="42.54633673466742038726806640625" lon="20.11973856948316097259521484375">
        <ele>1965.800048828125</ele>
        <time>2026-06-20T07:03:01.000Z</time>
        <extensions>
          <ns3:TrackPointExtension>
            <ns3:atemp>21.0</ns3:atemp>
          </ns3:TrackPointExtension>
        </extensions>
      </trkpt>
      <trkpt lat="42.54633673466742038726806640625" lon="20.11973856948316097259521484375">
        <ele>1965.800048828125</ele>
        <time>2026-06-20T07:03:02.000Z</time>
        <extensions>
          <ns3:TrackPointExtension>
            <ns3:atemp>21.0</ns3:atemp>
          </ns3:TrackPointExtension>
        </extensions>
      </trkpt>
      <trkpt lat="42.54633723758161067962646484375" lon="20.11973823420703411102294921875">
        <ele>1966</ele>
        <time>2026-06-20T07:03:03.000Z</time>
        <extensions>
          <ns3:TrackPointExtension>
            <ns3:atemp>21.0</ns3:atemp>
          </ns3:TrackPointExtension>
        </extensions>
      </trkpt>
      <trkpt lat="42.54633673466742038726806640625" lon="20.11973856948316097259521484375">
        <ele>1966</ele>
        <time>2026-06-20T07:03:04.000Z</time>
        <extensions>
          <ns3:TrackPointExtension>
            <ns3:atemp>20.0</ns3:atemp>
          </ns3:TrackPointExtension>
        </extensions>
      </trkpt>
      <trkpt lat="42.54633673466742038726806640625" lon="20.11973856948316097259521484375">
        <ele>1966.199951171875</ele>
        <time>2026-06-20T07:03:05.000Z</time>
        <extensions>
          <ns3:TrackPointExtension>
            <ns3:atemp>21.0</ns3:atemp>
          </ns3:TrackPointExtension>
        </extensions>
      </trkpt>
      <trkpt lat="42.54633673466742038726806640625" lon="20.11973856948316097259521484375">
        <ele>1966.199951171875</ele>
        <time>2026-06-20T07:03:06.000Z</time>
        <extensions>
          <ns3:TrackPointExtension>
            <ns3:atemp>21.0</ns3:atemp>
          </ns3:TrackPointExtension>
        </extensions>
      </trkpt>
      <trkpt lat="42.54633673466742038726806640625" lon="20.11973856948316097259521484375">
        <ele>1966.199951171875</ele>
        <time>2026-06-20T07:03:07.000Z</time>
        <extensions>
          <ns3:TrackPointExtension>
            <ns3:atemp>21.0</ns3:atemp>
          </ns3:TrackPointExtension>
        </extensions>
      </trkpt>
      <trkpt lat="42.54633673466742038726806640625" lon="20.11973856948316097259521484375">
        <ele>1966.4000244140625</ele>
        <time>2026-06-20T07:03:08.000Z</time>
        <extensions>
          <ns3:TrackPointExtension>
            <ns3:atemp>21.0</ns3:atemp>
          </ns3:TrackPointExtension>
        </extensions>
      </trkpt>
      <trkpt lat="42.54633673466742038726806640625" lon="20.11973856948316097259521484375">
        <ele>1966.4000244140625</ele>
        <time>2026-06-20T07:03:09.000Z</time>
        <extensions>
          <ns3:TrackPointExtension>
            <ns3:atemp>21.0</ns3:atemp>
          </ns3:TrackPointExtension>
        </extensions>
      </trkpt>
      <trkpt lat="42.54633673466742038726806640625" lon="20.11973856948316097259521484375">
        <ele>1966.5999755859375</ele>
        <time>2026-06-20T07:03:10.000Z</time>
        <extensions>
          <ns3:TrackPointExtension>
            <ns3:atemp>20.0</ns3:atemp>
          </ns3:TrackPointExtension>
        </extensions>
      </trkpt>
      <trkpt lat="42.54633673466742038726806640625" lon="20.11973856948316097259521484375">
        <ele>1966.5999755859375</ele>
        <time>2026-06-20T07:03:11.000Z</time>
        <extensions>
          <ns3:TrackPointExtension>
            <ns3:atemp>20.0</ns3:atemp>
          </ns3:TrackPointExtension>
        </extensions>
      </trkpt>
      <trkpt lat="42.54633673466742038726806640625" lon="20.11973856948316097259521484375">
        <ele>1966.5999755859375</ele>
        <time>2026-06-20T07:03:12.000Z</time>
        <extensions>
          <ns3:TrackPointExtension>
            <ns3:atemp>20.0</ns3:atemp>
          </ns3:TrackPointExtension>
        </extensions>
      </trkpt>
      <trkpt lat="42.54633673466742038726806640625" lon="20.11973856948316097259521484375">
        <ele>1966.5999755859375</ele>
        <time>2026-06-20T07:03:13.000Z</time>
        <extensions>
          <ns3:TrackPointExtension>
            <ns3:atemp>21.0</ns3:atemp>
          </ns3:TrackPointExtension>
        </extensions>
      </trkpt>
      <trkpt lat="42.54633673466742038726806640625" lon="20.11973856948316097259521484375">
        <ele>1966.5999755859375</ele>
        <time>2026-06-20T07:03:14.000Z</time>
        <extensions>
          <ns3:TrackPointExtension>
            <ns3:atemp>21.0</ns3:atemp>
          </ns3:TrackPointExtension>
        </extensions>
      </trkpt>
      <trkpt lat="42.54633673466742038726806640625" lon="20.11973856948316097259521484375">
        <ele>1966.5999755859375</ele>
        <time>2026-06-20T07:03:15.000Z</time>
        <extensions>
          <ns3:TrackPointExtension>
            <ns3:atemp>20.0</ns3:atemp>
          </ns3:TrackPointExtension>
        </extensions>
      </trkpt>
      <trkpt lat="42.54633673466742038726806640625" lon="20.11973856948316097259521484375">
        <ele>1966.5999755859375</ele>
        <time>2026-06-20T07:03:16.000Z</time>
        <extensions>
          <ns3:TrackPointExtension>
            <ns3:atemp>20.0</ns3:atemp>
          </ns3:TrackPointExtension>
        </extensions>
      </trkpt>
      <trkpt lat="42.54633975215256214141845703125" lon="20.11973789893090724945068359375">
        <ele>1966.5999755859375</ele>
        <time>2026-06-20T07:03:17.000Z</time>
        <extensions>
          <ns3:TrackPointExtension>
            <ns3:atemp>20.0</ns3:atemp>
          </ns3:TrackPointExtension>
        </extensions>
      </trkpt>
      <trkpt lat="42.5463465414941310882568359375" lon="20.119747705757617950439453125">
        <ele>1966.5999755859375</ele>
        <time>2026-06-20T07:03:18.000Z</time>
        <extensions>
          <ns3:TrackPointExtension>
            <ns3:atemp>20.0</ns3:atemp>
          </ns3:TrackPointExtension>
        </extensions>
      </trkpt>
      <trkpt lat="42.54635785706341266632080078125" lon="20.11975365690886974334716796875">
        <ele>1966.5999755859375</ele>
        <time>2026-06-20T07:03:19.000Z</time>
        <extensions>
          <ns3:TrackPointExtension>
            <ns3:atemp>20.0</ns3:atemp>
          </ns3:TrackPointExtension>
        </extensions>
      </trkpt>
      <trkpt lat="42.5463666580617427825927734375" lon="20.11975944042205810546875">
        <ele>1966.4000244140625</ele>
        <time>2026-06-20T07:03:20.000Z</time>
        <extensions>
          <ns3:TrackPointExtension>
            <ns3:atemp>20.0</ns3:atemp>
          </ns3:TrackPointExtension>
        </extensions>
      </trkpt>
      <trkpt lat="42.5463757105171680450439453125" lon="20.119762122631072998046875">
        <ele>1966.4000244140625</ele>
        <time>2026-06-20T07:03:21.000Z</time>
        <extensions>
          <ns3:TrackPointExtension>
            <ns3:atemp>20.0</ns3:atemp>
          </ns3:TrackPointExtension>
        </extensions>
      </trkpt>
      <trkpt lat="42.54638182930648326873779296875" lon="20.11976522393524646759033203125">
        <ele>1966.4000244140625</ele>
        <time>2026-06-20T07:03:22.000Z</time>
        <extensions>
          <ns3:TrackPointExtension>
            <ns3:atemp>20.0</ns3:atemp>
          </ns3:TrackPointExtension>
        </extensions>
      </trkpt>
      <trkpt lat="42.546389289200305938720703125" lon="20.11977218091487884521484375">
        <ele>1966.4000244140625</ele>
        <time>2026-06-20T07:03:23.000Z</time>
        <extensions>
          <ns3:TrackPointExtension>
            <ns3:atemp>20.0</ns3:atemp>
          </ns3:TrackPointExtension>
        </extensions>
      </trkpt>
      <trkpt lat="42.54639741964638233184814453125" lon="20.11977746151387691497802734375">
        <ele>1966.4000244140625</ele>
        <time>2026-06-20T07:03:24.000Z</time>
        <extensions>
          <ns3:TrackPointExtension>
            <ns3:atemp>20.0</ns3:atemp>
          </ns3:TrackPointExtension>
        </extensions>
      </trkpt>
      <trkpt lat="42.546406053006649017333984375" lon="20.1197830773890018463134765625">
        <ele>1966.4000244140625</ele>
        <time>2026-06-20T07:03:25.000Z</time>
        <extensions>
          <ns3:TrackPointExtension>
            <ns3:atemp>20.0</ns3:atemp>
          </ns3:TrackPointExtension>
        </extensions>
      </trkpt>
      <trkpt lat="42.546408735215663909912109375" lon="20.119785256683826446533203125">
        <ele>1966.4000244140625</ele>
        <time>2026-06-20T07:03:26.000Z</time>
        <extensions>
          <ns3:TrackPointExtension>
            <ns3:atemp>20.0</ns3:atemp>
          </ns3:TrackPointExtension>
        </extensions>
      </trkpt>
      <trkpt lat="42.5464146025478839874267578125" lon="20.11978969909250736236572265625">
        <ele>1966.4000244140625</ele>
        <time>2026-06-20T07:03:27.000Z</time>
        <extensions>
          <ns3:TrackPointExtension>
            <ns3:atemp>20.0</ns3:atemp>
          </ns3:TrackPointExtension>
        </extensions>
      </trkpt>
      <trkpt lat="42.54642155952751636505126953125" lon="20.1197956502437591552734375">
        <ele>1966.4000244140625</ele>
        <time>2026-06-20T07:03:28.000Z</time>
        <extensions>
          <ns3:TrackPointExtension>
            <ns3:atemp>20.0</ns3:atemp>
          </ns3:TrackPointExtension>
        </extensions>
      </trkpt>
      <trkpt lat="42.5464280135929584503173828125" lon="20.11980428360402584075927734375">
        <ele>1966.5999755859375</ele>
        <time>2026-06-20T07:03:29.000Z</time>
        <extensions>
          <ns3:TrackPointExtension>
            <ns3:atemp>20.0</ns3:atemp>
          </ns3:TrackPointExtension>
        </extensions>
      </trkpt>
      <trkpt lat="42.54643765278160572052001953125" lon="20.11980931274592876434326171875">
        <ele>1966.800048828125</ele>
        <time>2026-06-20T07:03:30.000Z</time>
        <extensions>
          <ns3:TrackPointExtension>
            <ns3:atemp>20.0</ns3:atemp>
          </ns3:TrackPointExtension>
        </extensions>
      </trkpt>
      <trkpt lat="42.54644620232284069061279296875" lon="20.11980646289885044097900390625">
        <ele>1967</ele>
        <time>2026-06-20T07:03:31.000Z</time>
        <extensions>
          <ns3:TrackPointExtension>
            <ns3:atemp>20.0</ns3:atemp>
          </ns3:TrackPointExtension>
        </extensions>
      </trkpt>
      <trkpt lat="42.54645475186407566070556640625" lon="20.1198095642030239105224609375">
        <ele>1967.4000244140625</ele>
        <time>2026-06-20T07:03:32.000Z</time>
        <extensions>
          <ns3:TrackPointExtension>
            <ns3:atemp>20.0</ns3:atemp>
          </ns3:TrackPointExtension>
        </extensions>
      </trkpt>
      <trkpt lat="42.54646430723369121551513671875" lon="20.11981241405010223388671875">
        <ele>1967.5999755859375</ele>
        <time>2026-06-20T07:03:33.000Z</time>
        <extensions>
          <ns3:TrackPointExtension>
            <ns3:atemp>20.0</ns3:atemp>
          </ns3:TrackPointExtension>
        </extensions>
      </trkpt>
      <trkpt lat="42.5464694201946258544921875" lon="20.11981735937297344207763671875">
        <ele>1967.800048828125</ele>
        <time>2026-06-20T07:03:34.000Z</time>
        <extensions>
          <ns3:TrackPointExtension>
            <ns3:atemp>20.0</ns3:atemp>
          </ns3:TrackPointExtension>
        </extensions>
      </trkpt>
      <trkpt lat="42.5464689172804355621337890625" lon="20.11981987394392490386962890625">
        <ele>1967.800048828125</ele>
        <time>2026-06-20T07:03:35.000Z</time>
        <extensions>
          <ns3:TrackPointExtension>
            <ns3:atemp>20.0</ns3:atemp>
          </ns3:TrackPointExtension>
        </extensions>
      </trkpt>
      <trkpt lat="42.5464689172804355621337890625" lon="20.11981987394392490386962890625">
        <ele>1968</ele>
        <time>2026-06-20T07:03:36.000Z</time>
        <extensions>
          <ns3:TrackPointExtension>
            <ns3:atemp>20.0</ns3:atemp>
          </ns3:TrackPointExtension>
        </extensions>
      </trkpt>
      <trkpt lat="42.5464689172804355621337890625" lon="20.1198197901248931884765625">
        <ele>1968</ele>
        <time>2026-06-20T07:03:37.000Z</time>
        <extensions>
          <ns3:TrackPointExtension>
            <ns3:atemp>20.0</ns3:atemp>
          </ns3:TrackPointExtension>
        </extensions>
      </trkpt>
      <trkpt lat="42.54647755064070224761962890625" lon="20.1198219694197177886962890625">
        <ele>1968</ele>
        <time>2026-06-20T07:03:38.000Z</time>
        <extensions>
          <ns3:TrackPointExtension>
            <ns3:atemp>20.0</ns3:atemp>
          </ns3:TrackPointExtension>
        </extensions>
      </trkpt>
      <trkpt lat="42.546493224799633026123046875" lon="20.11982792057096958160400390625">
        <ele>1968</ele>
        <time>2026-06-20T07:03:39.000Z</time>
        <extensions>
          <ns3:TrackPointExtension>
            <ns3:atemp>20.0</ns3:atemp>
          </ns3:TrackPointExtension>
        </extensions>
      </trkpt>
      <trkpt lat="42.54650856368243694305419921875" lon="20.119826160371303558349609375">
        <ele>1968</ele>
        <time>2026-06-20T07:03:40.000Z</time>
        <extensions>
          <ns3:TrackPointExtension>
            <ns3:atemp>20.0</ns3:atemp>
          </ns3:TrackPointExtension>
        </extensions>
      </trkpt>
      <trkpt lat="42.546527422964572906494140625" lon="20.11982372961938381195068359375">
        <ele>1968</ele>
        <time>2026-06-20T07:03:41.000Z</time>
        <extensions>
          <ns3:TrackPointExtension>
            <ns3:atemp>20.0</ns3:atemp>
          </ns3:TrackPointExtension>
        </extensions>
      </trkpt>
      <trkpt lat="42.5465404987335205078125" lon="20.1198360510170459747314453125">
        <ele>1968</ele>
        <time>2026-06-20T07:03:42.000Z</time>
        <extensions>
          <ns3:TrackPointExtension>
            <ns3:atemp>20.0</ns3:atemp>
          </ns3:TrackPointExtension>
        </extensions>
      </trkpt>
      <trkpt lat="42.54655458033084869384765625" lon="20.1198561675846576690673828125">
        <ele>1968</ele>
        <time>2026-06-20T07:03:43.000Z</time>
        <extensions>
          <ns3:TrackPointExtension>
            <ns3:atemp>20.0</ns3:atemp>
          </ns3:TrackPointExtension>
        </extensions>
      </trkpt>
      <trkpt lat="42.54656354896724224090576171875" lon="20.11987301521003246307373046875">
        <ele>1968.199951171875</ele>
        <time>2026-06-20T07:03:44.000Z</time>
        <extensions>
          <ns3:TrackPointExtension>
            <ns3:atemp>20.0</ns3:atemp>
          </ns3:TrackPointExtension>
        </extensions>
      </trkpt>
      <trkpt lat="42.546575032174587249755859375" lon="20.119893886148929595947265625">
        <ele>1968.4000244140625</ele>
        <time>2026-06-20T07:03:45.000Z</time>
        <extensions>
          <ns3:TrackPointExtension>
            <ns3:atemp>20.0</ns3:atemp>
          </ns3:TrackPointExtension>
        </extensions>
      </trkpt>
      <trkpt lat="42.54659741185605525970458984375" lon="20.11990939266979694366455078125">
        <ele>1968.4000244140625</ele>
        <time>2026-06-20T07:03:46.000Z</time>
        <extensions>
          <ns3:TrackPointExtension>
            <ns3:atemp>20.0</ns3:atemp>
          </ns3:TrackPointExtension>
        </extensions>
      </trkpt>
      <trkpt lat="42.546625323593616485595703125" lon="20.1199235580861568450927734375">
        <ele>1968.4000244140625</ele>
        <time>2026-06-20T07:03:47.000Z</time>
        <extensions>
          <ns3:TrackPointExtension>
            <ns3:atemp>20.0</ns3:atemp>
          </ns3:TrackPointExtension>
        </extensions>
      </trkpt>
      <trkpt lat="42.54664418287575244903564453125" lon="20.11992816813290119171142578125">
        <ele>1968.4000244140625</ele>
        <time>2026-06-20T07:03:48.000Z</time>
        <extensions>
          <ns3:TrackPointExtension>
            <ns3:atemp>20.0</ns3:atemp>
          </ns3:TrackPointExtension>
        </extensions>
      </trkpt>
      <trkpt lat="42.54665558226406574249267578125" lon="20.11992783285677433013916015625">
        <ele>1968.4000244140625</ele>
        <time>2026-06-20T07:03:49.000Z</time>
        <extensions>
          <ns3:TrackPointExtension>
            <ns3:atemp>20.0</ns3:atemp>
          </ns3:TrackPointExtension>
        </extensions>
      </trkpt>
      <trkpt lat="42.54666991531848907470703125" lon="20.11992481537163257598876953125">
        <ele>1968.4000244140625</ele>
        <time>2026-06-20T07:03:50.000Z</time>
        <extensions>
          <ns3:TrackPointExtension>
            <ns3:atemp>20.0</ns3:atemp>
          </ns3:TrackPointExtension>
        </extensions>
      </trkpt>
      <trkpt lat="42.5466893613338470458984375" lon="20.11992372572422027587890625">
        <ele>1968.5999755859375</ele>
        <time>2026-06-20T07:03:51.000Z</time>
        <extensions>
          <ns3:TrackPointExtension>
            <ns3:atemp>20.0</ns3:atemp>
          </ns3:TrackPointExtension>
        </extensions>
      </trkpt>
      <trkpt lat="42.5467066280543804168701171875" lon="20.11991702020168304443359375">
        <ele>1968.800048828125</ele>
        <time>2026-06-20T07:03:52.000Z</time>
        <extensions>
          <ns3:TrackPointExtension>
            <ns3:atemp>20.0</ns3:atemp>
          </ns3:TrackPointExtension>
        </extensions>
      </trkpt>
      <trkpt lat="42.5467242300510406494140625" lon="20.11990821920335292816162109375">
        <ele>1969</ele>
        <time>2026-06-20T07:03:53.000Z</time>
        <extensions>
          <ns3:TrackPointExtension>
            <ns3:atemp>20.0</ns3:atemp>
          </ns3:TrackPointExtension>
        </extensions>
      </trkpt>
      <trkpt lat="42.54674308933317661285400390625" lon="20.1199004240334033966064453125">
        <ele>1969.199951171875</ele>
        <time>2026-06-20T07:03:54.000Z</time>
        <extensions>
          <ns3:TrackPointExtension>
            <ns3:atemp>20.0</ns3:atemp>
          </ns3:TrackPointExtension>
        </extensions>
      </trkpt>
      <trkpt lat="42.5467572547495365142822265625" lon="20.1199034415185451507568359375">
        <ele>1969.4000244140625</ele>
        <time>2026-06-20T07:03:55.000Z</time>
        <extensions>
          <ns3:TrackPointExtension>
            <ns3:atemp>20.0</ns3:atemp>
          </ns3:TrackPointExtension>
        </extensions>
      </trkpt>
      <trkpt lat="42.546771503984928131103515625" lon="20.11989966966211795806884765625">
        <ele>1969.800048828125</ele>
        <time>2026-06-20T07:03:56.000Z</time>
        <extensions>
          <ns3:TrackPointExtension>
            <ns3:atemp>20.0</ns3:atemp>
          </ns3:TrackPointExtension>
        </extensions>
      </trkpt>
      <trkpt lat="42.54678793251514434814453125" lon="20.1199034415185451507568359375">
        <ele>1970</ele>
        <time>2026-06-20T07:03:57.000Z</time>
        <extensions>
          <ns3:TrackPointExtension>
            <ns3:atemp>20.0</ns3:atemp>
          </ns3:TrackPointExtension>
        </extensions>
      </trkpt>
      <trkpt lat="42.54680000245571136474609375" lon="20.11991291306912899017333984375">
        <ele>1970.4000244140625</ele>
        <time>2026-06-20T07:03:58.000Z</time>
        <extensions>
          <ns3:TrackPointExtension>
            <ns3:atemp>20.0</ns3:atemp>
          </ns3:TrackPointExtension>
        </extensions>
      </trkpt>
      <trkpt lat="42.546814419329166412353515625" lon="20.119918696582317352294921875">
        <ele>1970.800048828125</ele>
        <time>2026-06-20T07:03:59.000Z</time>
        <extensions>
          <ns3:TrackPointExtension>
            <ns3:atemp>20.0</ns3:atemp>
          </ns3:TrackPointExtension>
        </extensions>
      </trkpt>
      <trkpt lat="42.54682908765971660614013671875" lon="20.1199217140674591064453125">
        <ele>1971</ele>
        <time>2026-06-20T07:04:00.000Z</time>
        <extensions>
          <ns3:TrackPointExtension>
            <ns3:atemp>20.0</ns3:atemp>
          </ns3:TrackPointExtension>
        </extensions>
      </trkpt>
      <trkpt lat="42.54684166051447391510009765625" lon="20.11992263607680797576904296875">
        <ele>1971.199951171875</ele>
        <time>2026-06-20T07:04:01.000Z</time>
        <extensions>
          <ns3:TrackPointExtension>
            <ns3:atemp>20.0</ns3:atemp>
          </ns3:TrackPointExtension>
        </extensions>
      </trkpt>
      <trkpt lat="42.5468575023114681243896484375" lon="20.11992649175226688385009765625">
        <ele>1971.199951171875</ele>
        <time>2026-06-20T07:04:02.000Z</time>
        <extensions>
          <ns3:TrackPointExtension>
            <ns3:atemp>20.0</ns3:atemp>
          </ns3:TrackPointExtension>
        </extensions>
      </trkpt>
      <trkpt lat="42.54688046872615814208984375" lon="20.1199329458177089691162109375">
        <ele>1971.4000244140625</ele>
        <time>2026-06-20T07:04:03.000Z</time>
        <extensions>
          <ns3:TrackPointExtension>
            <ns3:atemp>20.0</ns3:atemp>
          </ns3:TrackPointExtension>
        </extensions>
      </trkpt>
      <trkpt lat="42.54690201021730899810791015625" lon="20.11993688531219959259033203125">
        <ele>1971.4000244140625</ele>
        <time>2026-06-20T07:04:04.000Z</time>
        <extensions>
          <ns3:TrackPointExtension>
            <ns3:atemp>20.0</ns3:atemp>
          </ns3:TrackPointExtension>
        </extensions>
      </trkpt>
      <trkpt lat="42.54692028276622295379638671875" lon="20.11994107626378536224365234375">
        <ele>1971.4000244140625</ele>
        <time>2026-06-20T07:04:05.000Z</time>
        <extensions>
          <ns3:TrackPointExtension>
            <ns3:atemp>20.0</ns3:atemp>
          </ns3:TrackPointExtension>
        </extensions>
      </trkpt>
      <trkpt lat="42.54693469963967800140380859375" lon="20.1199560798704624176025390625">
        <ele>1971.5999755859375</ele>
        <time>2026-06-20T07:04:06.000Z</time>
        <extensions>
          <ns3:TrackPointExtension>
            <ns3:atemp>20.0</ns3:atemp>
          </ns3:TrackPointExtension>
        </extensions>
      </trkpt>
      <trkpt lat="42.5469497032463550567626953125" lon="20.11997066438198089599609375">
        <ele>1971.5999755859375</ele>
        <time>2026-06-20T07:04:07.000Z</time>
        <extensions>
          <ns3:TrackPointExtension>
            <ns3:atemp>20.0</ns3:atemp>
          </ns3:TrackPointExtension>
        </extensions>
      </trkpt>
      <trkpt lat="42.54696101881563663482666015625" lon="20.1199887692928314208984375">
        <ele>1971.5999755859375</ele>
        <time>2026-06-20T07:04:08.000Z</time>
        <extensions>
          <ns3:TrackPointExtension>
            <ns3:atemp>20.0</ns3:atemp>
          </ns3:TrackPointExtension>
        </extensions>
      </trkpt>
      <trkpt lat="42.5469694845378398895263671875" lon="20.120018608868122100830078125">
        <ele>1971.4000244140625</ele>
        <time>2026-06-20T07:04:09.000Z</time>
        <extensions>
          <ns3:TrackPointExtension>
            <ns3:atemp>20.0</ns3:atemp>
          </ns3:TrackPointExtension>
        </extensions>
      </trkpt>
      <trkpt lat="42.54697434604167938232421875" lon="20.120053477585315704345703125">
        <ele>1971.199951171875</ele>
        <time>2026-06-20T07:04:10.000Z</time>
        <extensions>
          <ns3:TrackPointExtension>
            <ns3:atemp>20.0</ns3:atemp>
          </ns3:TrackPointExtension>
        </extensions>
      </trkpt>
      <trkpt lat="42.54698884673416614532470703125" lon="20.12007988058030605316162109375">
        <ele>1971</ele>
        <time>2026-06-20T07:04:11.000Z</time>
        <extensions>
          <ns3:TrackPointExtension>
            <ns3:atemp>20.0</ns3:atemp>
          </ns3:TrackPointExtension>
        </extensions>
      </trkpt>
      <trkpt lat="42.54700175486505031585693359375" lon="20.120095722377300262451171875">
        <ele>1970.800048828125</ele>
        <time>2026-06-20T07:04:12.000Z</time>
        <extensions>
          <ns3:TrackPointExtension>
            <ns3:atemp>20.0</ns3:atemp>
          </ns3:TrackPointExtension>
        </extensions>
      </trkpt>
      <trkpt lat="42.5470123998820781707763671875" lon="20.12010519392788410186767578125">
        <ele>1970.5999755859375</ele>
        <time>2026-06-20T07:04:13.000Z</time>
        <extensions>
          <ns3:TrackPointExtension>
            <ns3:atemp>20.0</ns3:atemp>
          </ns3:TrackPointExtension>
        </extensions>
      </trkpt>
      <trkpt lat="42.54702304489910602569580078125" lon="20.12011575512588024139404296875">
        <ele>1970.5999755859375</ele>
        <time>2026-06-20T07:04:14.000Z</time>
        <extensions>
          <ns3:TrackPointExtension>
            <ns3:atemp>20.0</ns3:atemp>
          </ns3:TrackPointExtension>
        </extensions>
      </trkpt>
      <trkpt lat="42.54702522419393062591552734375" lon="20.12013570405542850494384765625">
        <ele>1970.5999755859375</ele>
        <time>2026-06-20T07:04:15.000Z</time>
        <extensions>
          <ns3:TrackPointExtension>
            <ns3:atemp>20.0</ns3:atemp>
          </ns3:TrackPointExtension>
        </extensions>
      </trkpt>
      <trkpt lat="42.547027654945850372314453125" lon="20.12017048895359039306640625">
        <ele>1970.4000244140625</ele>
        <time>2026-06-20T07:04:16.000Z</time>
        <extensions>
          <ns3:TrackPointExtension>
            <ns3:atemp>20.0</ns3:atemp>
          </ns3:TrackPointExtension>
        </extensions>
      </trkpt>
      <trkpt lat="42.547033689916133880615234375" lon="20.120203010737895965576171875">
        <ele>1970.199951171875</ele>
        <time>2026-06-20T07:04:17.000Z</time>
        <extensions>
          <ns3:TrackPointExtension>
            <ns3:atemp>20.0</ns3:atemp>
          </ns3:TrackPointExtension>
        </extensions>
      </trkpt>
      <trkpt lat="42.54704852588474750518798828125" lon="20.12023628689348697662353515625">
        <ele>1970</ele>
        <time>2026-06-20T07:04:18.000Z</time>
        <extensions>
          <ns3:TrackPointExtension>
            <ns3:atemp>20.0</ns3:atemp>
          </ns3:TrackPointExtension>
        </extensions>
      </trkpt>
      <trkpt lat="42.54706285893917083740234375" lon="20.12026411481201648712158203125">
        <ele>1969.800048828125</ele>
        <time>2026-06-20T07:04:19.000Z</time>
        <extensions>
          <ns3:TrackPointExtension>
            <ns3:atemp>20.0</ns3:atemp>
          </ns3:TrackPointExtension>
        </extensions>
      </trkpt>
      <trkpt lat="42.54707668907940387725830078125" lon="20.120290182530879974365234375">
        <ele>1969.4000244140625</ele>
        <time>2026-06-20T07:04:20.000Z</time>
        <extensions>
          <ns3:TrackPointExtension>
            <ns3:atemp>20.0</ns3:atemp>
          </ns3:TrackPointExtension>
        </extensions>
      </trkpt>
      <trkpt lat="42.547082640230655670166015625" lon="20.1203094609081745147705078125">
        <ele>1969.199951171875</ele>
        <time>2026-06-20T07:04:21.000Z</time>
        <extensions>
          <ns3:TrackPointExtension>
            <ns3:atemp>20.0</ns3:atemp>
          </ns3:TrackPointExtension>
        </extensions>
      </trkpt>
      <trkpt lat="42.5470797903835773468017578125" lon="20.12031474150717258453369140625">
        <ele>1969.199951171875</ele>
        <time>2026-06-20T07:04:22.000Z</time>
        <extensions>
          <ns3:TrackPointExtension>
            <ns3:atemp>20.0</ns3:atemp>
          </ns3:TrackPointExtension>
        </extensions>
      </trkpt>
      <trkpt lat="42.54707970656454563140869140625" lon="20.12031474150717258453369140625">
        <ele>1969.199951171875</ele>
        <time>2026-06-20T07:04:23.000Z</time>
        <extensions>
          <ns3:TrackPointExtension>
            <ns3:atemp>20.0</ns3:atemp>
          </ns3:TrackPointExtension>
        </extensions>
      </trkpt>
      <trkpt lat="42.54707819782197475433349609375" lon="20.12031675316393375396728515625">
        <ele>1969.4000244140625</ele>
        <time>2026-06-20T07:04:24.000Z</time>
        <extensions>
          <ns3:TrackPointExtension>
            <ns3:atemp>20.0</ns3:atemp>
          </ns3:TrackPointExtension>
        </extensions>
      </trkpt>
      <trkpt lat="42.54707819782197475433349609375" lon="20.12031675316393375396728515625">
        <ele>1969.5999755859375</ele>
        <time>2026-06-20T07:04:25.000Z</time>
        <extensions>
          <ns3:TrackPointExtension>
            <ns3:atemp>20.0</ns3:atemp>
          </ns3:TrackPointExtension>
        </extensions>
      </trkpt>
      <trkpt lat="42.54707819782197475433349609375" lon="20.12031675316393375396728515625">
        <ele>1969.5999755859375</ele>
        <time>2026-06-20T07:04:26.000Z</time>
        <extensions>
          <ns3:TrackPointExtension>
            <ns3:atemp>20.0</ns3:atemp>
          </ns3:TrackPointExtension>
        </extensions>
      </trkpt>
      <trkpt lat="42.54707819782197475433349609375" lon="20.12031675316393375396728515625">
        <ele>1969.5999755859375</ele>
        <time>2026-06-20T07:04:27.000Z</time>
        <extensions>
          <ns3:TrackPointExtension>
            <ns3:atemp>20.0</ns3:atemp>
          </ns3:TrackPointExtension>
        </extensions>
      </trkpt>
      <trkpt lat="42.54707819782197475433349609375" lon="20.12031675316393375396728515625">
        <ele>1969.4000244140625</ele>
        <time>2026-06-20T07:04:28.000Z</time>
        <extensions>
          <ns3:TrackPointExtension>
            <ns3:atemp>20.0</ns3:atemp>
          </ns3:TrackPointExtension>
        </extensions>
      </trkpt>
      <trkpt lat="42.54707819782197475433349609375" lon="20.12031675316393375396728515625">
        <ele>1969.199951171875</ele>
        <time>2026-06-20T07:04:29.000Z</time>
        <extensions>
          <ns3:TrackPointExtension>
            <ns3:atemp>20.0</ns3:atemp>
          </ns3:TrackPointExtension>
        </extensions>
      </trkpt>
      <trkpt lat="42.54707819782197475433349609375" lon="20.12031675316393375396728515625">
        <ele>1969.199951171875</ele>
        <time>2026-06-20T07:04:30.000Z</time>
        <extensions>
          <ns3:TrackPointExtension>
            <ns3:atemp>20.0</ns3:atemp>
          </ns3:TrackPointExtension>
        </extensions>
      </trkpt>
      <trkpt lat="42.54707819782197475433349609375" lon="20.12031675316393375396728515625">
        <ele>1969</ele>
        <time>2026-06-20T07:04:31.000Z</time>
        <extensions>
          <ns3:TrackPointExtension>
            <ns3:atemp>20.0</ns3:atemp>
          </ns3:TrackPointExtension>
        </extensions>
      </trkpt>
      <trkpt lat="42.54707819782197475433349609375" lon="20.12031675316393375396728515625">
        <ele>1969</ele>
        <time>2026-06-20T07:04:32.000Z</time>
        <extensions>
          <ns3:TrackPointExtension>
            <ns3:atemp>20.0</ns3:atemp>
          </ns3:TrackPointExtension>
        </extensions>
      </trkpt>
      <trkpt lat="42.54707819782197475433349609375" lon="20.12031675316393375396728515625">
        <ele>1969</ele>
        <time>2026-06-20T07:04:33.000Z</time>
        <extensions>
          <ns3:TrackPointExtension>
            <ns3:atemp>20.0</ns3:atemp>
          </ns3:TrackPointExtension>
        </extensions>
      </trkpt>
      <trkpt lat="42.54707819782197475433349609375" lon="20.12031675316393375396728515625">
        <ele>1969</ele>
        <time>2026-06-20T07:04:34.000Z</time>
        <extensions>
          <ns3:TrackPointExtension>
            <ns3:atemp>20.0</ns3:atemp>
          </ns3:TrackPointExtension>
        </extensions>
      </trkpt>
      <trkpt lat="42.54707819782197475433349609375" lon="20.12031675316393375396728515625">
        <ele>1969</ele>
        <time>2026-06-20T07:04:35.000Z</time>
        <extensions>
          <ns3:TrackPointExtension>
            <ns3:atemp>20.0</ns3:atemp>
          </ns3:TrackPointExtension>
        </extensions>
      </trkpt>
      <trkpt lat="42.54707819782197475433349609375" lon="20.12031675316393375396728515625">
        <ele>1969</ele>
        <time>2026-06-20T07:04:36.000Z</time>
        <extensions>
          <ns3:TrackPointExtension>
            <ns3:atemp>20.0</ns3:atemp>
          </ns3:TrackPointExtension>
        </extensions>
      </trkpt>
      <trkpt lat="42.54707819782197475433349609375" lon="20.12031675316393375396728515625">
        <ele>1969</ele>
        <time>2026-06-20T07:04:37.000Z</time>
        <extensions>
          <ns3:TrackPointExtension>
            <ns3:atemp>20.0</ns3:atemp>
          </ns3:TrackPointExtension>
        </extensions>
      </trkpt>
      <trkpt lat="42.54707819782197475433349609375" lon="20.12031675316393375396728515625">
        <ele>1969</ele>
        <time>2026-06-20T07:04:38.000Z</time>
        <extensions>
          <ns3:TrackPointExtension>
            <ns3:atemp>20.0</ns3:atemp>
          </ns3:TrackPointExtension>
        </extensions>
      </trkpt>
      <trkpt lat="42.54707819782197475433349609375" lon="20.12031675316393375396728515625">
        <ele>1969</ele>
        <time>2026-06-20T07:04:39.000Z</time>
        <extensions>
          <ns3:TrackPointExtension>
            <ns3:atemp>20.0</ns3:atemp>
          </ns3:TrackPointExtension>
        </extensions>
      </trkpt>
      <trkpt lat="42.54707819782197475433349609375" lon="20.12031675316393375396728515625">
        <ele>1968.800048828125</ele>
        <time>2026-06-20T07:04:40.000Z</time>
        <extensions>
          <ns3:TrackPointExtension>
            <ns3:atemp>20.0</ns3:atemp>
          </ns3:TrackPointExtension>
        </extensions>
      </trkpt>
      <trkpt lat="42.54707819782197475433349609375" lon="20.12031675316393375396728515625">
        <ele>1968.800048828125</ele>
        <time>2026-06-20T07:04:41.000Z</time>
        <extensions>
          <ns3:TrackPointExtension>
            <ns3:atemp>20.0</ns3:atemp>
          </ns3:TrackPointExtension>
        </extensions>
      </trkpt>
      <trkpt lat="42.54707819782197475433349609375" lon="20.12031675316393375396728515625">
        <ele>1968.800048828125</ele>
        <time>2026-06-20T07:04:42.000Z</time>
        <extensions>
          <ns3:TrackPointExtension>
            <ns3:atemp>20.0</ns3:atemp>
          </ns3:TrackPointExtension>
        </extensions>
      </trkpt>
      <trkpt lat="42.54707819782197475433349609375" lon="20.12031675316393375396728515625">
        <ele>1968.5999755859375</ele>
        <time>2026-06-20T07:04:43.000Z</time>
        <extensions>
          <ns3:TrackPointExtension>
            <ns3:atemp>20.0</ns3:atemp>
          </ns3:TrackPointExtension>
        </extensions>
      </trkpt>
      <trkpt lat="42.54707819782197475433349609375" lon="20.12031675316393375396728515625">
        <ele>1968.5999755859375</ele>
        <time>2026-06-20T07:04:44.000Z</time>
        <extensions>
          <ns3:TrackPointExtension>
            <ns3:atemp>20.0</ns3:atemp>
          </ns3:TrackPointExtension>
        </extensions>
      </trkpt>
      <trkpt lat="42.54707819782197475433349609375" lon="20.12031675316393375396728515625">
        <ele>1968.5999755859375</ele>
        <time>2026-06-20T07:04:45.000Z</time>
        <extensions>
          <ns3:TrackPointExtension>
            <ns3:atemp>20.0</ns3:atemp>
          </ns3:TrackPointExtension>
        </extensions>
      </trkpt>
      <trkpt lat="42.54707819782197475433349609375" lon="20.12031675316393375396728515625">
        <ele>1968.800048828125</ele>
        <time>2026-06-20T07:04:46.000Z</time>
        <extensions>
          <ns3:TrackPointExtension>
            <ns3:atemp>20.0</ns3:atemp>
          </ns3:TrackPointExtension>
        </extensions>
      </trkpt>
      <trkpt lat="42.54707819782197475433349609375" lon="20.12031675316393375396728515625">
        <ele>1968.800048828125</ele>
        <time>2026-06-20T07:04:47.000Z</time>
        <extensions>
          <ns3:TrackPointExtension>
            <ns3:atemp>20.0</ns3:atemp>
          </ns3:TrackPointExtension>
        </extensions>
      </trkpt>
      <trkpt lat="42.54707819782197475433349609375" lon="20.12031675316393375396728515625">
        <ele>1968.800048828125</ele>
        <time>2026-06-20T07:04:48.000Z</time>
        <extensions>
          <ns3:TrackPointExtension>
            <ns3:atemp>20.0</ns3:atemp>
          </ns3:TrackPointExtension>
        </extensions>
      </trkpt>
      <trkpt lat="42.54707819782197475433349609375" lon="20.12031675316393375396728515625">
        <ele>1968.800048828125</ele>
        <time>2026-06-20T07:04:49.000Z</time>
        <extensions>
          <ns3:TrackPointExtension>
            <ns3:atemp>20.0</ns3:atemp>
          </ns3:TrackPointExtension>
        </extensions>
      </trkpt>
      <trkpt lat="42.54707819782197475433349609375" lon="20.12031675316393375396728515625">
        <ele>1968.800048828125</ele>
        <time>2026-06-20T07:04:50.000Z</time>
        <extensions>
          <ns3:TrackPointExtension>
            <ns3:atemp>20.0</ns3:atemp>
          </ns3:TrackPointExtension>
        </extensions>
      </trkpt>
      <trkpt lat="42.54707819782197475433349609375" lon="20.12031675316393375396728515625">
        <ele>1968.800048828125</ele>
        <time>2026-06-20T07:04:51.000Z</time>
        <extensions>
          <ns3:TrackPointExtension>
            <ns3:atemp>20.0</ns3:atemp>
          </ns3:TrackPointExtension>
        </extensions>
      </trkpt>
      <trkpt lat="42.54707819782197475433349609375" lon="20.12031675316393375396728515625">
        <ele>1968.800048828125</ele>
        <time>2026-06-20T07:04:52.000Z</time>
        <extensions>
          <ns3:TrackPointExtension>
            <ns3:atemp>20.0</ns3:atemp>
          </ns3:TrackPointExtension>
        </extensions>
      </trkpt>
      <trkpt lat="42.54707819782197475433349609375" lon="20.12031675316393375396728515625">
        <ele>1968.800048828125</ele>
        <time>2026-06-20T07:04:53.000Z</time>
        <extensions>
          <ns3:TrackPointExtension>
            <ns3:atemp>20.0</ns3:atemp>
          </ns3:TrackPointExtension>
        </extensions>
      </trkpt>
      <trkpt lat="42.54707819782197475433349609375" lon="20.12031675316393375396728515625">
        <ele>1968.800048828125</ele>
        <time>2026-06-20T07:04:54.000Z</time>
        <extensions>
          <ns3:TrackPointExtension>
            <ns3:atemp>20.0</ns3:atemp>
          </ns3:TrackPointExtension>
        </extensions>
      </trkpt>
      <trkpt lat="42.54707819782197475433349609375" lon="20.12031675316393375396728515625">
        <ele>1968.800048828125</ele>
        <time>2026-06-20T07:04:55.000Z</time>
        <extensions>
          <ns3:TrackPointExtension>
            <ns3:atemp>20.0</ns3:atemp>
          </ns3:TrackPointExtension>
        </extensions>
      </trkpt>
      <trkpt lat="42.54707819782197475433349609375" lon="20.12031675316393375396728515625">
        <ele>1968.800048828125</ele>
        <time>2026-06-20T07:04:56.000Z</time>
        <extensions>
          <ns3:TrackPointExtension>
            <ns3:atemp>20.0</ns3:atemp>
          </ns3:TrackPointExtension>
        </extensions>
      </trkpt>
      <trkpt lat="42.54707819782197475433349609375" lon="20.12031675316393375396728515625">
        <ele>1968.800048828125</ele>
        <time>2026-06-20T07:04:57.000Z</time>
        <extensions>
          <ns3:TrackPointExtension>
            <ns3:atemp>20.0</ns3:atemp>
          </ns3:TrackPointExtension>
        </extensions>
      </trkpt>
      <trkpt lat="42.54707819782197475433349609375" lon="20.12031675316393375396728515625">
        <ele>1968.800048828125</ele>
        <time>2026-06-20T07:04:58.000Z</time>
        <extensions>
          <ns3:TrackPointExtension>
            <ns3:atemp>20.0</ns3:atemp>
          </ns3:TrackPointExtension>
        </extensions>
      </trkpt>
      <trkpt lat="42.54707819782197475433349609375" lon="20.12031675316393375396728515625">
        <ele>1968.800048828125</ele>
        <time>2026-06-20T07:04:59.000Z</time>
        <extensions>
          <ns3:TrackPointExtension>
            <ns3:atemp>20.0</ns3:atemp>
          </ns3:TrackPointExtension>
        </extensions>
      </trkpt>
      <trkpt lat="42.54707819782197475433349609375" lon="20.12031675316393375396728515625">
        <ele>1968.800048828125</ele>
        <time>2026-06-20T07:05:00.000Z</time>
        <extensions>
          <ns3:TrackPointExtension>
            <ns3:atemp>20.0</ns3:atemp>
          </ns3:TrackPointExtension>
        </extensions>
      </trkpt>
      <trkpt lat="42.54707819782197475433349609375" lon="20.12031675316393375396728515625">
        <ele>1968.800048828125</ele>
        <time>2026-06-20T07:05:01.000Z</time>
        <extensions>
          <ns3:TrackPointExtension>
            <ns3:atemp>20.0</ns3:atemp>
          </ns3:TrackPointExtension>
        </extensions>
      </trkpt>
      <trkpt lat="42.54707819782197475433349609375" lon="20.12031675316393375396728515625">
        <ele>1968.800048828125</ele>
        <time>2026-06-20T07:05:02.000Z</time>
        <extensions>
          <ns3:TrackPointExtension>
            <ns3:atemp>20.0</ns3:atemp>
          </ns3:TrackPointExtension>
        </extensions>
      </trkpt>
      <trkpt lat="42.54707819782197475433349609375" lon="20.12031675316393375396728515625">
        <ele>1968.5999755859375</ele>
        <time>2026-06-20T07:05:03.000Z</time>
        <extensions>
          <ns3:TrackPointExtension>
            <ns3:atemp>20.0</ns3:atemp>
          </ns3:TrackPointExtension>
        </extensions>
      </trkpt>
      <trkpt lat="42.54707819782197475433349609375" lon="20.12031675316393375396728515625">
        <ele>1968.5999755859375</ele>
        <time>2026-06-20T07:05:04.000Z</time>
        <extensions>
          <ns3:TrackPointExtension>
            <ns3:atemp>20.0</ns3:atemp>
          </ns3:TrackPointExtension>
        </extensions>
      </trkpt>
      <trkpt lat="42.54707819782197475433349609375" lon="20.12031675316393375396728515625">
        <ele>1968.5999755859375</ele>
        <time>2026-06-20T07:05:05.000Z</time>
        <extensions>
          <ns3:TrackPointExtension>
            <ns3:atemp>20.0</ns3:atemp>
          </ns3:TrackPointExtension>
        </extensions>
      </trkpt>
      <trkpt lat="42.54707819782197475433349609375" lon="20.12031675316393375396728515625">
        <ele>1968.800048828125</ele>
        <time>2026-06-20T07:05:06.000Z</time>
        <extensions>
          <ns3:TrackPointExtension>
            <ns3:atemp>20.0</ns3:atemp>
          </ns3:TrackPointExtension>
        </extensions>
      </trkpt>
      <trkpt lat="42.54707819782197475433349609375" lon="20.12031675316393375396728515625">
        <ele>1968.800048828125</ele>
        <time>2026-06-20T07:05:07.000Z</time>
        <extensions>
          <ns3:TrackPointExtension>
            <ns3:atemp>20.0</ns3:atemp>
          </ns3:TrackPointExtension>
        </extensions>
      </trkpt>
      <trkpt lat="42.54707819782197475433349609375" lon="20.12031675316393375396728515625">
        <ele>1968.800048828125</ele>
        <time>2026-06-20T07:05:08.000Z</time>
        <extensions>
          <ns3:TrackPointExtension>
            <ns3:atemp>20.0</ns3:atemp>
          </ns3:TrackPointExtension>
        </extensions>
      </trkpt>
      <trkpt lat="42.5470787845551967620849609375" lon="20.12031524442136287689208984375">
        <ele>1968.800048828125</ele>
        <time>2026-06-20T07:05:09.000Z</time>
        <extensions>
          <ns3:TrackPointExtension>
            <ns3:atemp>20.0</ns3:atemp>
          </ns3:TrackPointExtension>
        </extensions>
      </trkpt>
      <trkpt lat="42.54708590917289257049560546875" lon="20.12031809426844120025634765625">
        <ele>1968.800048828125</ele>
        <time>2026-06-20T07:05:10.000Z</time>
        <extensions>
          <ns3:TrackPointExtension>
            <ns3:atemp>20.0</ns3:atemp>
          </ns3:TrackPointExtension>
        </extensions>
      </trkpt>
      <trkpt lat="42.547089345753192901611328125" lon="20.1203138194978237152099609375">
        <ele>1969</ele>
        <time>2026-06-20T07:05:11.000Z</time>
        <extensions>
          <ns3:TrackPointExtension>
            <ns3:atemp>20.0</ns3:atemp>
          </ns3:TrackPointExtension>
        </extensions>
      </trkpt>
      <trkpt lat="42.5470925308763980865478515625" lon="20.12031591497361660003662109375">
        <ele>1969</ele>
        <time>2026-06-20T07:05:12.000Z</time>
        <extensions>
          <ns3:TrackPointExtension>
            <ns3:atemp>20.0</ns3:atemp>
          </ns3:TrackPointExtension>
        </extensions>
      </trkpt>
      <trkpt lat="42.5470942072570323944091796875" lon="20.12031205929815769195556640625">
        <ele>1969</ele>
        <time>2026-06-20T07:05:13.000Z</time>
        <extensions>
          <ns3:TrackPointExtension>
            <ns3:atemp>20.0</ns3:atemp>
          </ns3:TrackPointExtension>
        </extensions>
      </trkpt>
      <trkpt lat="42.54709881730377674102783203125" lon="20.120319016277790069580078125">
        <ele>1969</ele>
        <time>2026-06-20T07:05:14.000Z</time>
        <extensions>
          <ns3:TrackPointExtension>
            <ns3:atemp>20.0</ns3:atemp>
          </ns3:TrackPointExtension>
        </extensions>
      </trkpt>
      <trkpt lat="42.54710367880761623382568359375" lon="20.1203282363712787628173828125">
        <ele>1969</ele>
        <time>2026-06-20T07:05:15.000Z</time>
        <extensions>
          <ns3:TrackPointExtension>
            <ns3:atemp>20.0</ns3:atemp>
          </ns3:TrackPointExtension>
        </extensions>
      </trkpt>
      <trkpt lat="42.54710309207439422607421875" lon="20.1203372888267040252685546875">
        <ele>1969</ele>
        <time>2026-06-20T07:05:16.000Z</time>
        <extensions>
          <ns3:TrackPointExtension>
            <ns3:atemp>20.0</ns3:atemp>
          </ns3:TrackPointExtension>
        </extensions>
      </trkpt>
      <trkpt lat="42.54711172543466091156005859375" lon="20.1203520409762859344482421875">
        <ele>1969</ele>
        <time>2026-06-20T07:05:17.000Z</time>
        <extensions>
          <ns3:TrackPointExtension>
            <ns3:atemp>20.0</ns3:atemp>
          </ns3:TrackPointExtension>
        </extensions>
      </trkpt>
      <trkpt lat="42.54712522029876708984375" lon="20.12036897242069244384765625">
        <ele>1969</ele>
        <time>2026-06-20T07:05:18.000Z</time>
        <extensions>
          <ns3:TrackPointExtension>
            <ns3:atemp>20.0</ns3:atemp>
          </ns3:TrackPointExtension>
        </extensions>
      </trkpt>
      <trkpt lat="42.547132261097431182861328125" lon="20.120390094816684722900390625">
        <ele>1969</ele>
        <time>2026-06-20T07:05:19.000Z</time>
        <extensions>
          <ns3:TrackPointExtension>
            <ns3:atemp>20.0</ns3:atemp>
          </ns3:TrackPointExtension>
        </extensions>
      </trkpt>
      <trkpt lat="42.54713670350611209869384765625" lon="20.12040727771818637847900390625">
        <ele>1969</ele>
        <time>2026-06-20T07:05:20.000Z</time>
        <extensions>
          <ns3:TrackPointExtension>
            <ns3:atemp>20.0</ns3:atemp>
          </ns3:TrackPointExtension>
        </extensions>
      </trkpt>
      <trkpt lat="42.5471346080303192138671875" lon="20.12041867710649967193603515625">
        <ele>1969</ele>
        <time>2026-06-20T07:05:21.000Z</time>
        <extensions>
          <ns3:TrackPointExtension>
            <ns3:atemp>20.0</ns3:atemp>
          </ns3:TrackPointExtension>
        </extensions>
      </trkpt>
      <trkpt lat="42.5471304170787334442138671875" lon="20.1204385422170162200927734375">
        <ele>1969.199951171875</ele>
        <time>2026-06-20T07:05:22.000Z</time>
        <extensions>
          <ns3:TrackPointExtension>
            <ns3:atemp>20.0</ns3:atemp>
          </ns3:TrackPointExtension>
        </extensions>
      </trkpt>
      <trkpt lat="42.54713268019258975982666015625" lon="20.12045270763337612152099609375">
        <ele>1969.4000244140625</ele>
        <time>2026-06-20T07:05:23.000Z</time>
        <extensions>
          <ns3:TrackPointExtension>
            <ns3:atemp>20.0</ns3:atemp>
          </ns3:TrackPointExtension>
        </extensions>
      </trkpt>
      <trkpt lat="42.5471372902393341064453125" lon="20.12046460993587970733642578125">
        <ele>1969.4000244140625</ele>
        <time>2026-06-20T07:05:24.000Z</time>
        <extensions>
          <ns3:TrackPointExtension>
            <ns3:atemp>20.0</ns3:atemp>
          </ns3:TrackPointExtension>
        </extensions>
      </trkpt>
      <trkpt lat="42.5471508689224720001220703125" lon="20.12047181837260723114013671875">
        <ele>1969.199951171875</ele>
        <time>2026-06-20T07:05:25.000Z</time>
        <extensions>
          <ns3:TrackPointExtension>
            <ns3:atemp>20.0</ns3:atemp>
          </ns3:TrackPointExtension>
        </extensions>
      </trkpt>
      <trkpt lat="42.54716210067272186279296875" lon="20.12048673816025257110595703125">
        <ele>1969.199951171875</ele>
        <time>2026-06-20T07:05:26.000Z</time>
        <extensions>
          <ns3:TrackPointExtension>
            <ns3:atemp>20.0</ns3:atemp>
          </ns3:TrackPointExtension>
        </extensions>
      </trkpt>
      <trkpt lat="42.5471719913184642791748046875" lon="20.12050266377627849578857421875">
        <ele>1969</ele>
        <time>2026-06-20T07:05:27.000Z</time>
        <extensions>
          <ns3:TrackPointExtension>
            <ns3:atemp>20.0</ns3:atemp>
          </ns3:TrackPointExtension>
        </extensions>
      </trkpt>
      <trkpt lat="42.54717945121228694915771484375" lon="20.1205149851739406585693359375">
        <ele>1968.800048828125</ele>
        <time>2026-06-20T07:05:28.000Z</time>
        <extensions>
          <ns3:TrackPointExtension>
            <ns3:atemp>20.0</ns3:atemp>
          </ns3:TrackPointExtension>
        </extensions>
      </trkpt>
      <trkpt lat="42.5471850670874118804931640625" lon="20.12052479200065135955810546875">
        <ele>1968.5999755859375</ele>
        <time>2026-06-20T07:05:29.000Z</time>
        <extensions>
          <ns3:TrackPointExtension>
            <ns3:atemp>20.0</ns3:atemp>
          </ns3:TrackPointExtension>
        </extensions>
      </trkpt>
      <trkpt lat="42.5471897609531879425048828125" lon="20.12053837068378925323486328125">
        <ele>1968.5999755859375</ele>
        <time>2026-06-20T07:05:30.000Z</time>
        <extensions>
          <ns3:TrackPointExtension>
            <ns3:atemp>20.0</ns3:atemp>
          </ns3:TrackPointExtension>
        </extensions>
      </trkpt>
      <trkpt lat="42.547197639942169189453125" lon="20.120557062327861785888671875">
        <ele>1968.5999755859375</ele>
        <time>2026-06-20T07:05:31.000Z</time>
        <extensions>
          <ns3:TrackPointExtension>
            <ns3:atemp>20.0</ns3:atemp>
          </ns3:TrackPointExtension>
        </extensions>
      </trkpt>
      <trkpt lat="42.547211386263370513916015625" lon="20.1205837167799472808837890625">
        <ele>1968.4000244140625</ele>
        <time>2026-06-20T07:05:32.000Z</time>
        <extensions>
          <ns3:TrackPointExtension>
            <ns3:atemp>20.0</ns3:atemp>
          </ns3:TrackPointExtension>
        </extensions>
      </trkpt>
      <trkpt lat="42.5472249649465084075927734375" lon="20.12061263434588909149169921875">
        <ele>1968.199951171875</ele>
        <time>2026-06-20T07:05:33.000Z</time>
        <extensions>
          <ns3:TrackPointExtension>
            <ns3:atemp>20.0</ns3:atemp>
          </ns3:TrackPointExtension>
        </extensions>
      </trkpt>
      <trkpt lat="42.54723586142063140869140625" lon="20.1206437312066555023193359375">
        <ele>1968</ele>
        <time>2026-06-20T07:05:34.000Z</time>
        <extensions>
          <ns3:TrackPointExtension>
            <ns3:atemp>20.0</ns3:atemp>
          </ns3:TrackPointExtension>
        </extensions>
      </trkpt>
      <trkpt lat="42.54724516533315181732177734375" lon="20.12067818082869052886962890625">
        <ele>1967.800048828125</ele>
        <time>2026-06-20T07:05:35.000Z</time>
        <extensions>
          <ns3:TrackPointExtension>
            <ns3:atemp>20.0</ns3:atemp>
          </ns3:TrackPointExtension>
        </extensions>
      </trkpt>
      <trkpt lat="42.5472460873425006866455078125" lon="20.1207094453275203704833984375">
        <ele>1967.800048828125</ele>
        <time>2026-06-20T07:05:36.000Z</time>
        <extensions>
          <ns3:TrackPointExtension>
            <ns3:atemp>20.0</ns3:atemp>
          </ns3:TrackPointExtension>
        </extensions>
      </trkpt>
      <trkpt lat="42.54725706763565540313720703125" lon="20.120738111436367034912109375">
        <ele>1967.5999755859375</ele>
        <time>2026-06-20T07:05:37.000Z</time>
        <extensions>
          <ns3:TrackPointExtension>
            <ns3:atemp>20.0</ns3:atemp>
          </ns3:TrackPointExtension>
        </extensions>
      </trkpt>
      <trkpt lat="42.54726628772914409637451171875" lon="20.1207667775452136993408203125">
        <ele>1967.5999755859375</ele>
        <time>2026-06-20T07:05:38.000Z</time>
        <extensions>
          <ns3:TrackPointExtension>
            <ns3:atemp>20.0</ns3:atemp>
          </ns3:TrackPointExtension>
        </extensions>
      </trkpt>
      <trkpt lat="42.547283470630645751953125" lon="20.12079049833118915557861328125">
        <ele>1967.5999755859375</ele>
        <time>2026-06-20T07:05:39.000Z</time>
        <extensions>
          <ns3:TrackPointExtension>
            <ns3:atemp>20.0</ns3:atemp>
          </ns3:TrackPointExtension>
        </extensions>
      </trkpt>
      <trkpt lat="42.54730350337922573089599609375" lon="20.1208148896694183349609375">
        <ele>1967.5999755859375</ele>
        <time>2026-06-20T07:05:40.000Z</time>
        <extensions>
          <ns3:TrackPointExtension>
            <ns3:atemp>20.0</ns3:atemp>
          </ns3:TrackPointExtension>
        </extensions>
      </trkpt>
      <trkpt lat="42.5473228655755519866943359375" lon="20.12083458714187145233154296875">
        <ele>1967.4000244140625</ele>
        <time>2026-06-20T07:05:41.000Z</time>
        <extensions>
          <ns3:TrackPointExtension>
            <ns3:atemp>20.0</ns3:atemp>
          </ns3:TrackPointExtension>
        </extensions>
      </trkpt>
      <trkpt lat="42.54733116365969181060791015625" lon="20.12085252441465854644775390625">
        <ele>1967.4000244140625</ele>
        <time>2026-06-20T07:05:42.000Z</time>
        <extensions>
          <ns3:TrackPointExtension>
            <ns3:atemp>19.0</ns3:atemp>
          </ns3:TrackPointExtension>
        </extensions>
      </trkpt>
      <trkpt lat="42.54734155721962451934814453125" lon="20.12086509726941585540771484375">
        <ele>1967.4000244140625</ele>
        <time>2026-06-20T07:05:43.000Z</time>
        <extensions>
          <ns3:TrackPointExtension>
            <ns3:atemp>19.0</ns3:atemp>
          </ns3:TrackPointExtension>
        </extensions>
      </trkpt>
      <trkpt lat="42.5473558902740478515625" lon="20.12086845003068447113037109375">
        <ele>1967.4000244140625</ele>
        <time>2026-06-20T07:05:44.000Z</time>
        <extensions>
          <ns3:TrackPointExtension>
            <ns3:atemp>19.0</ns3:atemp>
          </ns3:TrackPointExtension>
        </extensions>
      </trkpt>
      <trkpt lat="42.5473728217184543609619140625" lon="20.1208690367639064788818359375">
        <ele>1967.5999755859375</ele>
        <time>2026-06-20T07:05:45.000Z</time>
        <extensions>
          <ns3:TrackPointExtension>
            <ns3:atemp>19.0</ns3:atemp>
          </ns3:TrackPointExtension>
        </extensions>
      </trkpt>
      <trkpt lat="42.54738665185868740081787109375" lon="20.120876245200634002685546875">
        <ele>1967.5999755859375</ele>
        <time>2026-06-20T07:05:46.000Z</time>
        <extensions>
          <ns3:TrackPointExtension>
            <ns3:atemp>19.0</ns3:atemp>
          </ns3:TrackPointExtension>
        </extensions>
      </trkpt>
      <trkpt lat="42.54739486612379550933837890625" lon="20.12088588438928127288818359375">
        <ele>1967.5999755859375</ele>
        <time>2026-06-20T07:05:47.000Z</time>
        <extensions>
          <ns3:TrackPointExtension>
            <ns3:atemp>19.0</ns3:atemp>
          </ns3:TrackPointExtension>
        </extensions>
      </trkpt>
      <trkpt lat="42.5474050082266330718994140625" lon="20.12089527212083339691162109375">
        <ele>1967.4000244140625</ele>
        <time>2026-06-20T07:05:48.000Z</time>
        <extensions>
          <ns3:TrackPointExtension>
            <ns3:atemp>19.0</ns3:atemp>
          </ns3:TrackPointExtension>
        </extensions>
      </trkpt>
      <trkpt lat="42.5474147312343120574951171875" lon="20.1209085993468761444091796875">
        <ele>1967.4000244140625</ele>
        <time>2026-06-20T07:05:49.000Z</time>
        <extensions>
          <ns3:TrackPointExtension>
            <ns3:atemp>19.0</ns3:atemp>
          </ns3:TrackPointExtension>
        </extensions>
      </trkpt>
      <trkpt lat="42.54742185585200786590576171875" lon="20.12092209421098232269287109375">
        <ele>1967.199951171875</ele>
        <time>2026-06-20T07:05:50.000Z</time>
        <extensions>
          <ns3:TrackPointExtension>
            <ns3:atemp>19.0</ns3:atemp>
          </ns3:TrackPointExtension>
        </extensions>
      </trkpt>
      <trkpt lat="42.54742671735584735870361328125" lon="20.1209384389221668243408203125">
        <ele>1967.199951171875</ele>
        <time>2026-06-20T07:05:51.000Z</time>
        <extensions>
          <ns3:TrackPointExtension>
            <ns3:atemp>19.0</ns3:atemp>
          </ns3:TrackPointExtension>
        </extensions>
      </trkpt>
      <trkpt lat="42.54744314588606357574462890625" lon="20.1209508441388607025146484375">
        <ele>1967.199951171875</ele>
        <time>2026-06-20T07:05:52.000Z</time>
        <extensions>
          <ns3:TrackPointExtension>
            <ns3:atemp>19.0</ns3:atemp>
          </ns3:TrackPointExtension>
        </extensions>
      </trkpt>
      <trkpt lat="42.54745923914015293121337890625" lon="20.12097523547708988189697265625">
        <ele>1967</ele>
        <time>2026-06-20T07:05:53.000Z</time>
        <extensions>
          <ns3:TrackPointExtension>
            <ns3:atemp>19.0</ns3:atemp>
          </ns3:TrackPointExtension>
        </extensions>
      </trkpt>
      <trkpt lat="42.5474824570119380950927734375" lon="20.12098864652216434478759765625">
        <ele>1967</ele>
        <time>2026-06-20T07:05:54.000Z</time>
        <extensions>
          <ns3:TrackPointExtension>
            <ns3:atemp>19.0</ns3:atemp>
          </ns3:TrackPointExtension>
        </extensions>
      </trkpt>
      <trkpt lat="42.5475096143782138824462890625" lon="20.12099987827241420745849609375">
        <ele>1966.800048828125</ele>
        <time>2026-06-20T07:05:55.000Z</time>
        <extensions>
          <ns3:TrackPointExtension>
            <ns3:atemp>19.0</ns3:atemp>
          </ns3:TrackPointExtension>
        </extensions>
      </trkpt>
      <trkpt lat="42.5475324131548404693603515625" lon="20.1210132054984569549560546875">
        <ele>1966.4000244140625</ele>
        <time>2026-06-20T07:05:56.000Z</time>
        <extensions>
          <ns3:TrackPointExtension>
            <ns3:atemp>19.0</ns3:atemp>
          </ns3:TrackPointExtension>
        </extensions>
      </trkpt>
      <trkpt lat="42.54754339344799518585205078125" lon="20.12103617191314697265625">
        <ele>1966.199951171875</ele>
        <time>2026-06-20T07:05:57.000Z</time>
        <extensions>
          <ns3:TrackPointExtension>
            <ns3:atemp>19.0</ns3:atemp>
          </ns3:TrackPointExtension>
        </extensions>
      </trkpt>
      <trkpt lat="42.547549344599246978759765625" lon="20.121051259338855743408203125">
        <ele>1966</ele>
        <time>2026-06-20T07:05:58.000Z</time>
        <extensions>
          <ns3:TrackPointExtension>
            <ns3:atemp>19.0</ns3:atemp>
          </ns3:TrackPointExtension>
        </extensions>
      </trkpt>
      <trkpt lat="42.547553367912769317626953125" lon="20.12105721049010753631591796875">
        <ele>1966</ele>
        <time>2026-06-20T07:05:59.000Z</time>
        <extensions>
          <ns3:TrackPointExtension>
            <ns3:atemp>19.0</ns3:atemp>
          </ns3:TrackPointExtension>
        </extensions>
      </trkpt>
      <trkpt lat="42.54755412228405475616455078125" lon="20.121057294309139251708984375">
        <ele>1966</ele>
        <time>2026-06-20T07:06:00.000Z</time>
        <extensions>
          <ns3:TrackPointExtension>
            <ns3:atemp>19.0</ns3:atemp>
          </ns3:TrackPointExtension>
        </extensions>
      </trkpt>
      <trkpt lat="42.54755412228405475616455078125" lon="20.121057294309139251708984375">
        <ele>1966</ele>
        <time>2026-06-20T07:06:01.000Z</time>
        <extensions>
          <ns3:TrackPointExtension>
            <ns3:atemp>19.0</ns3:atemp>
          </ns3:TrackPointExtension>
        </extensions>
      </trkpt>
      <trkpt lat="42.54755412228405475616455078125" lon="20.121057294309139251708984375">
        <ele>1966</ele>
        <time>2026-06-20T07:06:02.000Z</time>
        <extensions>
          <ns3:TrackPointExtension>
            <ns3:atemp>19.0</ns3:atemp>
          </ns3:TrackPointExtension>
        </extensions>
      </trkpt>
      <trkpt lat="42.54755412228405475616455078125" lon="20.121057294309139251708984375">
        <ele>1966.199951171875</ele>
        <time>2026-06-20T07:06:03.000Z</time>
        <extensions>
          <ns3:TrackPointExtension>
            <ns3:atemp>19.0</ns3:atemp>
          </ns3:TrackPointExtension>
        </extensions>
      </trkpt>
      <trkpt lat="42.54755412228405475616455078125" lon="20.121057294309139251708984375">
        <ele>1966.199951171875</ele>
        <time>2026-06-20T07:06:04.000Z</time>
        <extensions>
          <ns3:TrackPointExtension>
            <ns3:atemp>19.0</ns3:atemp>
          </ns3:TrackPointExtension>
        </extensions>
      </trkpt>
      <trkpt lat="42.54755412228405475616455078125" lon="20.121057294309139251708984375">
        <ele>1966.199951171875</ele>
        <time>2026-06-20T07:06:05.000Z</time>
        <extensions>
          <ns3:TrackPointExtension>
            <ns3:atemp>19.0</ns3:atemp>
          </ns3:TrackPointExtension>
        </extensions>
      </trkpt>
      <trkpt lat="42.54755412228405475616455078125" lon="20.121057294309139251708984375">
        <ele>1966.199951171875</ele>
        <time>2026-06-20T07:06:06.000Z</time>
        <extensions>
          <ns3:TrackPointExtension>
            <ns3:atemp>19.0</ns3:atemp>
          </ns3:TrackPointExtension>
        </extensions>
      </trkpt>
      <trkpt lat="42.54755412228405475616455078125" lon="20.121057294309139251708984375">
        <ele>1966</ele>
        <time>2026-06-20T07:06:07.000Z</time>
        <extensions>
          <ns3:TrackPointExtension>
            <ns3:atemp>19.0</ns3:atemp>
          </ns3:TrackPointExtension>
        </extensions>
      </trkpt>
      <trkpt lat="42.54755412228405475616455078125" lon="20.121057294309139251708984375">
        <ele>1966</ele>
        <time>2026-06-20T07:06:08.000Z</time>
        <extensions>
          <ns3:TrackPointExtension>
            <ns3:atemp>19.0</ns3:atemp>
          </ns3:TrackPointExtension>
        </extensions>
      </trkpt>
      <trkpt lat="42.54755412228405475616455078125" lon="20.121057294309139251708984375">
        <ele>1966</ele>
        <time>2026-06-20T07:06:09.000Z</time>
        <extensions>
          <ns3:TrackPointExtension>
            <ns3:atemp>19.0</ns3:atemp>
          </ns3:TrackPointExtension>
        </extensions>
      </trkpt>
      <trkpt lat="42.54755412228405475616455078125" lon="20.121057294309139251708984375">
        <ele>1966</ele>
        <time>2026-06-20T07:06:10.000Z</time>
        <extensions>
          <ns3:TrackPointExtension>
            <ns3:atemp>19.0</ns3:atemp>
          </ns3:TrackPointExtension>
        </extensions>
      </trkpt>
      <trkpt lat="42.54755412228405475616455078125" lon="20.121057294309139251708984375">
        <ele>1965.800048828125</ele>
        <time>2026-06-20T07:06:11.000Z</time>
        <extensions>
          <ns3:TrackPointExtension>
            <ns3:atemp>19.0</ns3:atemp>
          </ns3:TrackPointExtension>
        </extensions>
      </trkpt>
      <trkpt lat="42.54755504429340362548828125" lon="20.1210591383278369903564453125">
        <ele>1965.800048828125</ele>
        <time>2026-06-20T07:06:12.000Z</time>
        <extensions>
          <ns3:TrackPointExtension>
            <ns3:atemp>19.0</ns3:atemp>
          </ns3:TrackPointExtension>
        </extensions>
      </trkpt>
      <trkpt lat="42.54755998961627483367919921875" lon="20.1210738904774188995361328125">
        <ele>1965.800048828125</ele>
        <time>2026-06-20T07:06:13.000Z</time>
        <extensions>
          <ns3:TrackPointExtension>
            <ns3:atemp>19.0</ns3:atemp>
          </ns3:TrackPointExtension>
        </extensions>
      </trkpt>
      <trkpt lat="42.54755412228405475616455078125" lon="20.121057294309139251708984375">
        <ele>1965.800048828125</ele>
        <time>2026-06-20T07:06:14.000Z</time>
        <extensions>
          <ns3:TrackPointExtension>
            <ns3:atemp>19.0</ns3:atemp>
          </ns3:TrackPointExtension>
        </extensions>
      </trkpt>
      <trkpt lat="42.54755412228405475616455078125" lon="20.121057294309139251708984375">
        <ele>1965.800048828125</ele>
        <time>2026-06-20T07:06:15.000Z</time>
        <extensions>
          <ns3:TrackPointExtension>
            <ns3:atemp>19.0</ns3:atemp>
          </ns3:TrackPointExtension>
        </extensions>
      </trkpt>
      <trkpt lat="42.54755412228405475616455078125" lon="20.121057294309139251708984375">
        <ele>1965.800048828125</ele>
        <time>2026-06-20T07:06:16.000Z</time>
        <extensions>
          <ns3:TrackPointExtension>
            <ns3:atemp>19.0</ns3:atemp>
          </ns3:TrackPointExtension>
        </extensions>
      </trkpt>
      <trkpt lat="42.54755412228405475616455078125" lon="20.121057294309139251708984375">
        <ele>1965.800048828125</ele>
        <time>2026-06-20T07:06:17.000Z</time>
        <extensions>
          <ns3:TrackPointExtension>
            <ns3:atemp>19.0</ns3:atemp>
          </ns3:TrackPointExtension>
        </extensions>
      </trkpt>
      <trkpt lat="42.54755412228405475616455078125" lon="20.121057294309139251708984375">
        <ele>1965.800048828125</ele>
        <time>2026-06-20T07:06:18.000Z</time>
        <extensions>
          <ns3:TrackPointExtension>
            <ns3:atemp>19.0</ns3:atemp>
          </ns3:TrackPointExtension>
        </extensions>
      </trkpt>
      <trkpt lat="42.54755412228405475616455078125" lon="20.121057294309139251708984375">
        <ele>1965.800048828125</ele>
        <time>2026-06-20T07:06:19.000Z</time>
        <extensions>
          <ns3:TrackPointExtension>
            <ns3:atemp>19.0</ns3:atemp>
          </ns3:TrackPointExtension>
        </extensions>
      </trkpt>
      <trkpt lat="42.54755412228405475616455078125" lon="20.121057294309139251708984375">
        <ele>1965.800048828125</ele>
        <time>2026-06-20T07:06:20.000Z</time>
        <extensions>
          <ns3:TrackPointExtension>
            <ns3:atemp>19.0</ns3:atemp>
          </ns3:TrackPointExtension>
        </extensions>
      </trkpt>
      <trkpt lat="42.54755412228405475616455078125" lon="20.121057294309139251708984375">
        <ele>1965.800048828125</ele>
        <time>2026-06-20T07:06:21.000Z</time>
        <extensions>
          <ns3:TrackPointExtension>
            <ns3:atemp>19.0</ns3:atemp>
          </ns3:TrackPointExtension>
        </extensions>
      </trkpt>
      <trkpt lat="42.54755412228405475616455078125" lon="20.121057294309139251708984375">
        <ele>1965.800048828125</ele>
        <time>2026-06-20T07:06:22.000Z</time>
        <extensions>
          <ns3:TrackPointExtension>
            <ns3:atemp>19.0</ns3:atemp>
          </ns3:TrackPointExtension>
        </extensions>
      </trkpt>
      <trkpt lat="42.54755412228405475616455078125" lon="20.121057294309139251708984375">
        <ele>1965.800048828125</ele>
        <time>2026-06-20T07:06:23.000Z</time>
        <extensions>
          <ns3:TrackPointExtension>
            <ns3:atemp>19.0</ns3:atemp>
          </ns3:TrackPointExtension>
        </extensions>
      </trkpt>
      <trkpt lat="42.54755412228405475616455078125" lon="20.121057294309139251708984375">
        <ele>1966</ele>
        <time>2026-06-20T07:06:24.000Z</time>
        <extensions>
          <ns3:TrackPointExtension>
            <ns3:atemp>19.0</ns3:atemp>
          </ns3:TrackPointExtension>
        </extensions>
      </trkpt>
      <trkpt lat="42.54755412228405475616455078125" lon="20.121057294309139251708984375">
        <ele>1965.800048828125</ele>
        <time>2026-06-20T07:06:25.000Z</time>
        <extensions>
          <ns3:TrackPointExtension>
            <ns3:atemp>19.0</ns3:atemp>
          </ns3:TrackPointExtension>
        </extensions>
      </trkpt>
      <trkpt lat="42.54755412228405475616455078125" lon="20.121057294309139251708984375">
        <ele>1965.800048828125</ele>
        <time>2026-06-20T07:06:26.000Z</time>
        <extensions>
          <ns3:TrackPointExtension>
            <ns3:atemp>19.0</ns3:atemp>
          </ns3:TrackPointExtension>
        </extensions>
      </trkpt>
      <trkpt lat="42.54755412228405475616455078125" lon="20.121057294309139251708984375">
        <ele>1965.800048828125</ele>
        <time>2026-06-20T07:06:27.000Z</time>
        <extensions>
          <ns3:TrackPointExtension>
            <ns3:atemp>19.0</ns3:atemp>
          </ns3:TrackPointExtension>
        </extensions>
      </trkpt>
      <trkpt lat="42.54755412228405475616455078125" lon="20.121057294309139251708984375">
        <ele>1965.800048828125</ele>
        <time>2026-06-20T07:06:28.000Z</time>
        <extensions>
          <ns3:TrackPointExtension>
            <ns3:atemp>19.0</ns3:atemp>
          </ns3:TrackPointExtension>
        </extensions>
      </trkpt>
      <trkpt lat="42.54755412228405475616455078125" lon="20.121057294309139251708984375">
        <ele>1965.800048828125</ele>
        <time>2026-06-20T07:06:29.000Z</time>
        <extensions>
          <ns3:TrackPointExtension>
            <ns3:atemp>19.0</ns3:atemp>
          </ns3:TrackPointExtension>
        </extensions>
      </trkpt>
      <trkpt lat="42.54755412228405475616455078125" lon="20.121057294309139251708984375">
        <ele>1965.800048828125</ele>
        <time>2026-06-20T07:06:30.000Z</time>
        <extensions>
          <ns3:TrackPointExtension>
            <ns3:atemp>19.0</ns3:atemp>
          </ns3:TrackPointExtension>
        </extensions>
      </trkpt>
      <trkpt lat="42.54755412228405475616455078125" lon="20.121057294309139251708984375">
        <ele>1965.800048828125</ele>
        <time>2026-06-20T07:06:31.000Z</time>
        <extensions>
          <ns3:TrackPointExtension>
            <ns3:atemp>19.0</ns3:atemp>
          </ns3:TrackPointExtension>
        </extensions>
      </trkpt>
      <trkpt lat="42.54755948670208454132080078125" lon="20.12107397429645061492919921875">
        <ele>1966</ele>
        <time>2026-06-20T07:06:32.000Z</time>
        <extensions>
          <ns3:TrackPointExtension>
            <ns3:atemp>19.0</ns3:atemp>
          </ns3:TrackPointExtension>
        </extensions>
      </trkpt>
      <trkpt lat="42.54755646921694278717041015625" lon="20.12107305228710174560546875">
        <ele>1965.800048828125</ele>
        <time>2026-06-20T07:06:33.000Z</time>
        <extensions>
          <ns3:TrackPointExtension>
            <ns3:atemp>19.0</ns3:atemp>
          </ns3:TrackPointExtension>
        </extensions>
      </trkpt>
      <trkpt lat="42.54755529575049877166748046875" lon="20.12107833288609981536865234375">
        <ele>1965.800048828125</ele>
        <time>2026-06-20T07:06:34.000Z</time>
        <extensions>
          <ns3:TrackPointExtension>
            <ns3:atemp>19.0</ns3:atemp>
          </ns3:TrackPointExtension>
        </extensions>
      </trkpt>
      <trkpt lat="42.54755529575049877166748046875" lon="20.12107833288609981536865234375">
        <ele>1965.800048828125</ele>
        <time>2026-06-20T07:06:35.000Z</time>
        <extensions>
          <ns3:TrackPointExtension>
            <ns3:atemp>19.0</ns3:atemp>
          </ns3:TrackPointExtension>
        </extensions>
      </trkpt>
      <trkpt lat="42.54755529575049877166748046875" lon="20.12107833288609981536865234375">
        <ele>1965.800048828125</ele>
        <time>2026-06-20T07:06:36.000Z</time>
        <extensions>
          <ns3:TrackPointExtension>
            <ns3:atemp>19.0</ns3:atemp>
          </ns3:TrackPointExtension>
        </extensions>
      </trkpt>
      <trkpt lat="42.54755529575049877166748046875" lon="20.12107833288609981536865234375">
        <ele>1965.5999755859375</ele>
        <time>2026-06-20T07:06:37.000Z</time>
        <extensions>
          <ns3:TrackPointExtension>
            <ns3:atemp>19.0</ns3:atemp>
          </ns3:TrackPointExtension>
        </extensions>
      </trkpt>
      <trkpt lat="42.54755529575049877166748046875" lon="20.12107833288609981536865234375">
        <ele>1965.5999755859375</ele>
        <time>2026-06-20T07:06:38.000Z</time>
        <extensions>
          <ns3:TrackPointExtension>
            <ns3:atemp>19.0</ns3:atemp>
          </ns3:TrackPointExtension>
        </extensions>
      </trkpt>
      <trkpt lat="42.54755529575049877166748046875" lon="20.12107833288609981536865234375">
        <ele>1965.4000244140625</ele>
        <time>2026-06-20T07:06:39.000Z</time>
        <extensions>
          <ns3:TrackPointExtension>
            <ns3:atemp>19.0</ns3:atemp>
          </ns3:TrackPointExtension>
        </extensions>
      </trkpt>
      <trkpt lat="42.547555379569530487060546875" lon="20.12107833288609981536865234375">
        <ele>1965.4000244140625</ele>
        <time>2026-06-20T07:06:40.000Z</time>
        <extensions>
          <ns3:TrackPointExtension>
            <ns3:atemp>19.0</ns3:atemp>
          </ns3:TrackPointExtension>
        </extensions>
      </trkpt>
      <trkpt lat="42.5475632585585117340087890625" lon="20.1210886426270008087158203125">
        <ele>1965.4000244140625</ele>
        <time>2026-06-20T07:06:41.000Z</time>
        <extensions>
          <ns3:TrackPointExtension>
            <ns3:atemp>19.0</ns3:atemp>
          </ns3:TrackPointExtension>
        </extensions>
      </trkpt>
      <trkpt lat="42.5475716404616832733154296875" lon="20.1211027242243289947509765625">
        <ele>1965.4000244140625</ele>
        <time>2026-06-20T07:06:42.000Z</time>
        <extensions>
          <ns3:TrackPointExtension>
            <ns3:atemp>19.0</ns3:atemp>
          </ns3:TrackPointExtension>
        </extensions>
      </trkpt>
      <trkpt lat="42.54757784307003021240234375" lon="20.12111973948776721954345703125">
        <ele>1965.199951171875</ele>
        <time>2026-06-20T07:06:43.000Z</time>
        <extensions>
          <ns3:TrackPointExtension>
            <ns3:atemp>19.0</ns3:atemp>
          </ns3:TrackPointExtension>
        </extensions>
      </trkpt>
      <trkpt lat="42.5475877337157726287841796875" lon="20.12114371173083782196044921875">
        <ele>1965</ele>
        <time>2026-06-20T07:06:44.000Z</time>
        <extensions>
          <ns3:TrackPointExtension>
            <ns3:atemp>19.0</ns3:atemp>
          </ns3:TrackPointExtension>
        </extensions>
      </trkpt>
      <trkpt lat="42.5475986301898956298828125" lon="20.1211687736213207244873046875">
        <ele>1965</ele>
        <time>2026-06-20T07:06:45.000Z</time>
        <extensions>
          <ns3:TrackPointExtension>
            <ns3:atemp>19.0</ns3:atemp>
          </ns3:TrackPointExtension>
        </extensions>
      </trkpt>
      <trkpt lat="42.5476044975221157073974609375" lon="20.12118495069444179534912109375">
        <ele>1964.800048828125</ele>
        <time>2026-06-20T07:06:46.000Z</time>
        <extensions>
          <ns3:TrackPointExtension>
            <ns3:atemp>19.0</ns3:atemp>
          </ns3:TrackPointExtension>
        </extensions>
      </trkpt>
      <trkpt lat="42.54760340787470340728759765625" lon="20.121188722550868988037109375">
        <ele>1964.5999755859375</ele>
        <time>2026-06-20T07:06:47.000Z</time>
        <extensions>
          <ns3:TrackPointExtension>
            <ns3:atemp>19.0</ns3:atemp>
          </ns3:TrackPointExtension>
        </extensions>
      </trkpt>
      <trkpt lat="42.5476034916937351226806640625" lon="20.121188722550868988037109375">
        <ele>1964.5999755859375</ele>
        <time>2026-06-20T07:06:48.000Z</time>
        <extensions>
          <ns3:TrackPointExtension>
            <ns3:atemp>19.0</ns3:atemp>
          </ns3:TrackPointExtension>
        </extensions>
      </trkpt>
      <trkpt lat="42.5476034916937351226806640625" lon="20.121188722550868988037109375">
        <ele>1964.5999755859375</ele>
        <time>2026-06-20T07:06:49.000Z</time>
        <extensions>
          <ns3:TrackPointExtension>
            <ns3:atemp>19.0</ns3:atemp>
          </ns3:TrackPointExtension>
        </extensions>
      </trkpt>
      <trkpt lat="42.5476034916937351226806640625" lon="20.121188722550868988037109375">
        <ele>1964.5999755859375</ele>
        <time>2026-06-20T07:06:50.000Z</time>
        <extensions>
          <ns3:TrackPointExtension>
            <ns3:atemp>19.0</ns3:atemp>
          </ns3:TrackPointExtension>
        </extensions>
      </trkpt>
      <trkpt lat="42.5476034916937351226806640625" lon="20.121188722550868988037109375">
        <ele>1964.4000244140625</ele>
        <time>2026-06-20T07:06:51.000Z</time>
        <extensions>
          <ns3:TrackPointExtension>
            <ns3:atemp>19.0</ns3:atemp>
          </ns3:TrackPointExtension>
        </extensions>
      </trkpt>
      <trkpt lat="42.5476034916937351226806640625" lon="20.121188722550868988037109375">
        <ele>1964.4000244140625</ele>
        <time>2026-06-20T07:06:52.000Z</time>
        <extensions>
          <ns3:TrackPointExtension>
            <ns3:atemp>19.0</ns3:atemp>
          </ns3:TrackPointExtension>
        </extensions>
      </trkpt>
      <trkpt lat="42.5476034916937351226806640625" lon="20.121188722550868988037109375">
        <ele>1964.199951171875</ele>
        <time>2026-06-20T07:06:53.000Z</time>
        <extensions>
          <ns3:TrackPointExtension>
            <ns3:atemp>19.0</ns3:atemp>
          </ns3:TrackPointExtension>
        </extensions>
      </trkpt>
      <trkpt lat="42.5476034916937351226806640625" lon="20.121188722550868988037109375">
        <ele>1964.199951171875</ele>
        <time>2026-06-20T07:06:54.000Z</time>
        <extensions>
          <ns3:TrackPointExtension>
            <ns3:atemp>19.0</ns3:atemp>
          </ns3:TrackPointExtension>
        </extensions>
      </trkpt>
      <trkpt lat="42.5476034916937351226806640625" lon="20.121188722550868988037109375">
        <ele>1964.199951171875</ele>
        <time>2026-06-20T07:06:55.000Z</time>
        <extensions>
          <ns3:TrackPointExtension>
            <ns3:atemp>19.0</ns3:atemp>
          </ns3:TrackPointExtension>
        </extensions>
      </trkpt>
      <trkpt lat="42.54760357551276683807373046875" lon="20.1211878843605518341064453125">
        <ele>1964.199951171875</ele>
        <time>2026-06-20T07:06:56.000Z</time>
        <extensions>
          <ns3:TrackPointExtension>
            <ns3:atemp>19.0</ns3:atemp>
          </ns3:TrackPointExtension>
        </extensions>
      </trkpt>
      <trkpt lat="42.54760223440825939178466796875" lon="20.12118813581764698028564453125">
        <ele>1964.4000244140625</ele>
        <time>2026-06-20T07:06:57.000Z</time>
        <extensions>
          <ns3:TrackPointExtension>
            <ns3:atemp>19.0</ns3:atemp>
          </ns3:TrackPointExtension>
        </extensions>
      </trkpt>
      <trkpt lat="42.5475967861711978912353515625" lon="20.12117656879127025604248046875">
        <ele>1964.5999755859375</ele>
        <time>2026-06-20T07:06:58.000Z</time>
        <extensions>
          <ns3:TrackPointExtension>
            <ns3:atemp>19.0</ns3:atemp>
          </ns3:TrackPointExtension>
        </extensions>
      </trkpt>
      <trkpt lat="42.54759418778121471405029296875" lon="20.12117070145905017852783203125">
        <ele>1964.800048828125</ele>
        <time>2026-06-20T07:06:59.000Z</time>
        <extensions>
          <ns3:TrackPointExtension>
            <ns3:atemp>19.0</ns3:atemp>
          </ns3:TrackPointExtension>
        </extensions>
      </trkpt>
      <trkpt lat="42.5475907512009143829345703125" lon="20.1211647503077983856201171875">
        <ele>1965</ele>
        <time>2026-06-20T07:07:00.000Z</time>
        <extensions>
          <ns3:TrackPointExtension>
            <ns3:atemp>19.0</ns3:atemp>
          </ns3:TrackPointExtension>
        </extensions>
      </trkpt>
      <trkpt lat="42.54758664406836032867431640625" lon="20.121156536042690277099609375">
        <ele>1965</ele>
        <time>2026-06-20T07:07:01.000Z</time>
        <extensions>
          <ns3:TrackPointExtension>
            <ns3:atemp>19.0</ns3:atemp>
          </ns3:TrackPointExtension>
        </extensions>
      </trkpt>
      <trkpt lat="42.5475830398499965667724609375" lon="20.12113985605537891387939453125">
        <ele>1964.800048828125</ele>
        <time>2026-06-20T07:07:02.000Z</time>
        <extensions>
          <ns3:TrackPointExtension>
            <ns3:atemp>19.0</ns3:atemp>
          </ns3:TrackPointExtension>
        </extensions>
      </trkpt>
      <trkpt lat="42.54757960326969623565673828125" lon="20.12112745083868503570556640625">
        <ele>1964.800048828125</ele>
        <time>2026-06-20T07:07:03.000Z</time>
        <extensions>
          <ns3:TrackPointExtension>
            <ns3:atemp>19.0</ns3:atemp>
          </ns3:TrackPointExtension>
        </extensions>
      </trkpt>
      <trkpt lat="42.54757557995617389678955078125" lon="20.12111655436456203460693359375">
        <ele>1964.800048828125</ele>
        <time>2026-06-20T07:07:04.000Z</time>
        <extensions>
          <ns3:TrackPointExtension>
            <ns3:atemp>19.0</ns3:atemp>
          </ns3:TrackPointExtension>
        </extensions>
      </trkpt>
      <trkpt lat="42.54757247865200042724609375" lon="20.12110481970012187957763671875">
        <ele>1964.800048828125</ele>
        <time>2026-06-20T07:07:05.000Z</time>
        <extensions>
          <ns3:TrackPointExtension>
            <ns3:atemp>19.0</ns3:atemp>
          </ns3:TrackPointExtension>
        </extensions>
      </trkpt>
      <trkpt lat="42.5475666113197803497314453125" lon="20.12109450995922088623046875">
        <ele>1965</ele>
        <time>2026-06-20T07:07:06.000Z</time>
        <extensions>
          <ns3:TrackPointExtension>
            <ns3:atemp>19.0</ns3:atemp>
          </ns3:TrackPointExtension>
        </extensions>
      </trkpt>
      <trkpt lat="42.54755931906402111053466796875" lon="20.121081769466400146484375">
        <ele>1965.199951171875</ele>
        <time>2026-06-20T07:07:07.000Z</time>
        <extensions>
          <ns3:TrackPointExtension>
            <ns3:atemp>19.0</ns3:atemp>
          </ns3:TrackPointExtension>
        </extensions>
      </trkpt>
      <trkpt lat="42.5475572235882282257080078125" lon="20.12106827460229396820068359375">
        <ele>1965.4000244140625</ele>
        <time>2026-06-20T07:07:08.000Z</time>
        <extensions>
          <ns3:TrackPointExtension>
            <ns3:atemp>19.0</ns3:atemp>
          </ns3:TrackPointExtension>
        </extensions>
      </trkpt>
      <trkpt lat="42.54756066016852855682373046875" lon="20.12106777168810367584228515625">
        <ele>1965.4000244140625</ele>
        <time>2026-06-20T07:07:09.000Z</time>
        <extensions>
          <ns3:TrackPointExtension>
            <ns3:atemp>19.0</ns3:atemp>
          </ns3:TrackPointExtension>
        </extensions>
      </trkpt>
      <trkpt lat="42.5475562177598476409912109375" lon="20.12107179500162601470947265625">
        <ele>1965.5999755859375</ele>
        <time>2026-06-20T07:07:10.000Z</time>
        <extensions>
          <ns3:TrackPointExtension>
            <ns3:atemp>19.0</ns3:atemp>
          </ns3:TrackPointExtension>
        </extensions>
      </trkpt>
      <trkpt lat="42.54755479283630847930908203125" lon="20.12107363902032375335693359375">
        <ele>1965.5999755859375</ele>
        <time>2026-06-20T07:07:11.000Z</time>
        <extensions>
          <ns3:TrackPointExtension>
            <ns3:atemp>19.0</ns3:atemp>
          </ns3:TrackPointExtension>
        </extensions>
      </trkpt>
      <trkpt lat="42.54755479283630847930908203125" lon="20.1210735552012920379638671875">
        <ele>1965.800048828125</ele>
        <time>2026-06-20T07:07:12.000Z</time>
        <extensions>
          <ns3:TrackPointExtension>
            <ns3:atemp>19.0</ns3:atemp>
          </ns3:TrackPointExtension>
        </extensions>
      </trkpt>
      <trkpt lat="42.54755479283630847930908203125" lon="20.1210735552012920379638671875">
        <ele>1965.800048828125</ele>
        <time>2026-06-20T07:07:13.000Z</time>
        <extensions>
          <ns3:TrackPointExtension>
            <ns3:atemp>19.0</ns3:atemp>
          </ns3:TrackPointExtension>
        </extensions>
      </trkpt>
      <trkpt lat="42.54755479283630847930908203125" lon="20.1210735552012920379638671875">
        <ele>1965.800048828125</ele>
        <time>2026-06-20T07:07:14.000Z</time>
        <extensions>
          <ns3:TrackPointExtension>
            <ns3:atemp>19.0</ns3:atemp>
          </ns3:TrackPointExtension>
        </extensions>
      </trkpt>
      <trkpt lat="42.54755479283630847930908203125" lon="20.1210735552012920379638671875">
        <ele>1965.800048828125</ele>
        <time>2026-06-20T07:07:15.000Z</time>
        <extensions>
          <ns3:TrackPointExtension>
            <ns3:atemp>19.0</ns3:atemp>
          </ns3:TrackPointExtension>
        </extensions>
      </trkpt>
      <trkpt lat="42.54755479283630847930908203125" lon="20.1210735552012920379638671875">
        <ele>1965.800048828125</ele>
        <time>2026-06-20T07:07:16.000Z</time>
        <extensions>
          <ns3:TrackPointExtension>
            <ns3:atemp>19.0</ns3:atemp>
          </ns3:TrackPointExtension>
        </extensions>
      </trkpt>
      <trkpt lat="42.547555379569530487060546875" lon="20.12107330374419689178466796875">
        <ele>1965.800048828125</ele>
        <time>2026-06-20T07:07:17.000Z</time>
        <extensions>
          <ns3:TrackPointExtension>
            <ns3:atemp>19.0</ns3:atemp>
          </ns3:TrackPointExtension>
        </extensions>
      </trkpt>
      <trkpt lat="42.54756845533847808837890625" lon="20.1210899837315082550048828125">
        <ele>1966</ele>
        <time>2026-06-20T07:07:18.000Z</time>
        <extensions>
          <ns3:TrackPointExtension>
            <ns3:atemp>19.0</ns3:atemp>
          </ns3:TrackPointExtension>
        </extensions>
      </trkpt>
      <trkpt lat="42.5475759990513324737548828125" lon="20.12110867537558078765869140625">
        <ele>1966</ele>
        <time>2026-06-20T07:07:19.000Z</time>
        <extensions>
          <ns3:TrackPointExtension>
            <ns3:atemp>19.0</ns3:atemp>
          </ns3:TrackPointExtension>
        </extensions>
      </trkpt>
      <trkpt lat="42.54758463241159915924072265625" lon="20.12113046832382678985595703125">
        <ele>1965.800048828125</ele>
        <time>2026-06-20T07:07:20.000Z</time>
        <extensions>
          <ns3:TrackPointExtension>
            <ns3:atemp>19.0</ns3:atemp>
          </ns3:TrackPointExtension>
        </extensions>
      </trkpt>
      <trkpt lat="42.547594271600246429443359375" lon="20.1211627386510372161865234375">
        <ele>1965.5999755859375</ele>
        <time>2026-06-20T07:07:21.000Z</time>
        <extensions>
          <ns3:TrackPointExtension>
            <ns3:atemp>19.0</ns3:atemp>
          </ns3:TrackPointExtension>
        </extensions>
      </trkpt>
      <trkpt lat="42.547607012093067169189453125" lon="20.12118327431380748748779296875">
        <ele>1965.4000244140625</ele>
        <time>2026-06-20T07:07:22.000Z</time>
        <extensions>
          <ns3:TrackPointExtension>
            <ns3:atemp>19.0</ns3:atemp>
          </ns3:TrackPointExtension>
        </extensions>
      </trkpt>
      <trkpt lat="42.547627799212932586669921875" lon="20.12118997983634471893310546875">
        <ele>1965.199951171875</ele>
        <time>2026-06-20T07:07:23.000Z</time>
        <extensions>
          <ns3:TrackPointExtension>
            <ns3:atemp>19.0</ns3:atemp>
          </ns3:TrackPointExtension>
        </extensions>
      </trkpt>
      <trkpt lat="42.54764900542795658111572265625" lon="20.12119710445404052734375">
        <ele>1965</ele>
        <time>2026-06-20T07:07:24.000Z</time>
        <extensions>
          <ns3:TrackPointExtension>
            <ns3:atemp>19.0</ns3:atemp>
          </ns3:TrackPointExtension>
        </extensions>
      </trkpt>
      <trkpt lat="42.54766367375850677490234375" lon="20.12120875529944896697998046875">
        <ele>1964.800048828125</ele>
        <time>2026-06-20T07:07:25.000Z</time>
        <extensions>
          <ns3:TrackPointExtension>
            <ns3:atemp>19.0</ns3:atemp>
          </ns3:TrackPointExtension>
        </extensions>
      </trkpt>
      <trkpt lat="42.54768152721226215362548828125" lon="20.12122216634452342987060546875">
        <ele>1964.5999755859375</ele>
        <time>2026-06-20T07:07:26.000Z</time>
        <extensions>
          <ns3:TrackPointExtension>
            <ns3:atemp>19.0</ns3:atemp>
          </ns3:TrackPointExtension>
        </extensions>
      </trkpt>
      <trkpt lat="42.54769326187670230865478515625" lon="20.121231973171234130859375">
        <ele>1964.5999755859375</ele>
        <time>2026-06-20T07:07:27.000Z</time>
        <extensions>
          <ns3:TrackPointExtension>
            <ns3:atemp>19.0</ns3:atemp>
          </ns3:TrackPointExtension>
        </extensions>
      </trkpt>
      <trkpt lat="42.54769728519022464752197265625" lon="20.1212465576827526092529296875">
        <ele>1964.4000244140625</ele>
        <time>2026-06-20T07:07:28.000Z</time>
        <extensions>
          <ns3:TrackPointExtension>
            <ns3:atemp>19.0</ns3:atemp>
          </ns3:TrackPointExtension>
        </extensions>
      </trkpt>
      <trkpt lat="42.54770801402628421783447265625" lon="20.12127564288675785064697265625">
        <ele>1964.4000244140625</ele>
        <time>2026-06-20T07:07:29.000Z</time>
        <extensions>
          <ns3:TrackPointExtension>
            <ns3:atemp>19.0</ns3:atemp>
          </ns3:TrackPointExtension>
        </extensions>
      </trkpt>
      <trkpt lat="42.5477198325097560882568359375" lon="20.1213079132139682769775390625">
        <ele>1964.199951171875</ele>
        <time>2026-06-20T07:07:30.000Z</time>
        <extensions>
          <ns3:TrackPointExtension>
            <ns3:atemp>19.0</ns3:atemp>
          </ns3:TrackPointExtension>
        </extensions>
      </trkpt>
      <trkpt lat="42.5477238558232784271240234375" lon="20.121329538524150848388671875">
        <ele>1964</ele>
        <time>2026-06-20T07:07:31.000Z</time>
        <extensions>
          <ns3:TrackPointExtension>
            <ns3:atemp>19.0</ns3:atemp>
          </ns3:TrackPointExtension>
        </extensions>
      </trkpt>
      <trkpt lat="42.5477220118045806884765625" lon="20.12133431620895862579345703125">
        <ele>1964</ele>
        <time>2026-06-20T07:07:32.000Z</time>
        <extensions>
          <ns3:TrackPointExtension>
            <ns3:atemp>19.0</ns3:atemp>
          </ns3:TrackPointExtension>
        </extensions>
      </trkpt>
      <trkpt lat="42.54772209562361240386962890625" lon="20.121334232389926910400390625">
        <ele>1964</ele>
        <time>2026-06-20T07:07:33.000Z</time>
        <extensions>
          <ns3:TrackPointExtension>
            <ns3:atemp>19.0</ns3:atemp>
          </ns3:TrackPointExtension>
        </extensions>
      </trkpt>
      <trkpt lat="42.54772142507135868072509765625" lon="20.12134152464568614959716796875">
        <ele>1964.199951171875</ele>
        <time>2026-06-20T07:07:34.000Z</time>
        <extensions>
          <ns3:TrackPointExtension>
            <ns3:atemp>19.0</ns3:atemp>
          </ns3:TrackPointExtension>
        </extensions>
      </trkpt>
      <trkpt lat="42.547723688185214996337890625" lon="20.121349990367889404296875">
        <ele>1964.4000244140625</ele>
        <time>2026-06-20T07:07:35.000Z</time>
        <extensions>
          <ns3:TrackPointExtension>
            <ns3:atemp>19.0</ns3:atemp>
          </ns3:TrackPointExtension>
        </extensions>
      </trkpt>
      <trkpt lat="42.5477248616516590118408203125" lon="20.1213618926703929901123046875">
        <ele>1964.4000244140625</ele>
        <time>2026-06-20T07:07:36.000Z</time>
        <extensions>
          <ns3:TrackPointExtension>
            <ns3:atemp>19.0</ns3:atemp>
          </ns3:TrackPointExtension>
        </extensions>
      </trkpt>
      <trkpt lat="42.5477255322039127349853515625" lon="20.12137505225837230682373046875">
        <ele>1964.5999755859375</ele>
        <time>2026-06-20T07:07:37.000Z</time>
        <extensions>
          <ns3:TrackPointExtension>
            <ns3:atemp>19.0</ns3:atemp>
          </ns3:TrackPointExtension>
        </extensions>
      </trkpt>
      <trkpt lat="42.54772494547069072723388671875" lon="20.12138477526605129241943359375">
        <ele>1964.800048828125</ele>
        <time>2026-06-20T07:07:38.000Z</time>
        <extensions>
          <ns3:TrackPointExtension>
            <ns3:atemp>19.0</ns3:atemp>
          </ns3:TrackPointExtension>
        </extensions>
      </trkpt>
      <trkpt lat="42.547721005976200103759765625" lon="20.121391899883747100830078125">
        <ele>1964.800048828125</ele>
        <time>2026-06-20T07:07:39.000Z</time>
        <extensions>
          <ns3:TrackPointExtension>
            <ns3:atemp>19.0</ns3:atemp>
          </ns3:TrackPointExtension>
        </extensions>
      </trkpt>
      <trkpt lat="42.547714971005916595458984375" lon="20.1213991083204746246337890625">
        <ele>1965</ele>
        <time>2026-06-20T07:07:40.000Z</time>
        <extensions>
          <ns3:TrackPointExtension>
            <ns3:atemp>19.0</ns3:atemp>
          </ns3:TrackPointExtension>
        </extensions>
      </trkpt>
      <trkpt lat="42.547706253826618194580078125" lon="20.1214071549475193023681640625">
        <ele>1965.199951171875</ele>
        <time>2026-06-20T07:07:41.000Z</time>
        <extensions>
          <ns3:TrackPointExtension>
            <ns3:atemp>19.0</ns3:atemp>
          </ns3:TrackPointExtension>
        </extensions>
      </trkpt>
      <trkpt lat="42.547702230513095855712890625" lon="20.12141478247940540313720703125">
        <ele>1965.4000244140625</ele>
        <time>2026-06-20T07:07:42.000Z</time>
        <extensions>
          <ns3:TrackPointExtension>
            <ns3:atemp>19.0</ns3:atemp>
          </ns3:TrackPointExtension>
        </extensions>
      </trkpt>
      <trkpt lat="42.5476997159421443939208984375" lon="20.1214215718209743499755859375">
        <ele>1965.5999755859375</ele>
        <time>2026-06-20T07:07:43.000Z</time>
        <extensions>
          <ns3:TrackPointExtension>
            <ns3:atemp>19.0</ns3:atemp>
          </ns3:TrackPointExtension>
        </extensions>
      </trkpt>
      <trkpt lat="42.54769661463797092437744140625" lon="20.1214309595525264739990234375">
        <ele>1965.800048828125</ele>
        <time>2026-06-20T07:07:44.000Z</time>
        <extensions>
          <ns3:TrackPointExtension>
            <ns3:atemp>19.0</ns3:atemp>
          </ns3:TrackPointExtension>
        </extensions>
      </trkpt>
      <trkpt lat="42.5476950220763683319091796875" lon="20.12144126929342746734619140625">
        <ele>1965.800048828125</ele>
        <time>2026-06-20T07:07:45.000Z</time>
        <extensions>
          <ns3:TrackPointExtension>
            <ns3:atemp>19.0</ns3:atemp>
          </ns3:TrackPointExtension>
        </extensions>
      </trkpt>
      <trkpt lat="42.547692172229290008544921875" lon="20.12145115993916988372802734375">
        <ele>1965.800048828125</ele>
        <time>2026-06-20T07:07:46.000Z</time>
        <extensions>
          <ns3:TrackPointExtension>
            <ns3:atemp>19.0</ns3:atemp>
          </ns3:TrackPointExtension>
        </extensions>
      </trkpt>
      <trkpt lat="42.54769049584865570068359375" lon="20.1214638166129589080810546875">
        <ele>1965.800048828125</ele>
        <time>2026-06-20T07:07:47.000Z</time>
        <extensions>
          <ns3:TrackPointExtension>
            <ns3:atemp>19.0</ns3:atemp>
          </ns3:TrackPointExtension>
        </extensions>
      </trkpt>
      <trkpt lat="42.54768974147737026214599609375" lon="20.1214721985161304473876953125">
        <ele>1965.800048828125</ele>
        <time>2026-06-20T07:07:48.000Z</time>
        <extensions>
          <ns3:TrackPointExtension>
            <ns3:atemp>19.0</ns3:atemp>
          </ns3:TrackPointExtension>
        </extensions>
      </trkpt>
      <trkpt lat="42.54768890328705310821533203125" lon="20.1214859448373317718505859375">
        <ele>1965.800048828125</ele>
        <time>2026-06-20T07:07:49.000Z</time>
        <extensions>
          <ns3:TrackPointExtension>
            <ns3:atemp>19.0</ns3:atemp>
          </ns3:TrackPointExtension>
        </extensions>
      </trkpt>
      <trkpt lat="42.547689490020275115966796875" lon="20.1214983500540256500244140625">
        <ele>1965.5999755859375</ele>
        <time>2026-06-20T07:07:50.000Z</time>
        <extensions>
          <ns3:TrackPointExtension>
            <ns3:atemp>19.0</ns3:atemp>
          </ns3:TrackPointExtension>
        </extensions>
      </trkpt>
      <trkpt lat="42.54769024439156055450439453125" lon="20.12151419185101985931396484375">
        <ele>1965.5999755859375</ele>
        <time>2026-06-20T07:07:51.000Z</time>
        <extensions>
          <ns3:TrackPointExtension>
            <ns3:atemp>19.0</ns3:atemp>
          </ns3:TrackPointExtension>
        </extensions>
      </trkpt>
      <trkpt lat="42.54768923856317996978759765625" lon="20.1215278543531894683837890625">
        <ele>1965.5999755859375</ele>
        <time>2026-06-20T07:07:52.000Z</time>
        <extensions>
          <ns3:TrackPointExtension>
            <ns3:atemp>19.0</ns3:atemp>
          </ns3:TrackPointExtension>
        </extensions>
      </trkpt>
      <trkpt lat="42.54768974147737026214599609375" lon="20.12154109776020050048828125">
        <ele>1965.4000244140625</ele>
        <time>2026-06-20T07:07:53.000Z</time>
        <extensions>
          <ns3:TrackPointExtension>
            <ns3:atemp>19.0</ns3:atemp>
          </ns3:TrackPointExtension>
        </extensions>
      </trkpt>
      <trkpt lat="42.54769326187670230865478515625" lon="20.1215565204620361328125">
        <ele>1965.4000244140625</ele>
        <time>2026-06-20T07:07:54.000Z</time>
        <extensions>
          <ns3:TrackPointExtension>
            <ns3:atemp>19.0</ns3:atemp>
          </ns3:TrackPointExtension>
        </extensions>
      </trkpt>
      <trkpt lat="42.54769644699990749359130859375" lon="20.1215657405555248260498046875">
        <ele>1965.4000244140625</ele>
        <time>2026-06-20T07:07:55.000Z</time>
        <extensions>
          <ns3:TrackPointExtension>
            <ns3:atemp>19.0</ns3:atemp>
          </ns3:TrackPointExtension>
        </extensions>
      </trkpt>
      <trkpt lat="42.54769963212311267852783203125" lon="20.1215734519064426422119140625">
        <ele>1965.4000244140625</ele>
        <time>2026-06-20T07:07:56.000Z</time>
        <extensions>
          <ns3:TrackPointExtension>
            <ns3:atemp>19.0</ns3:atemp>
          </ns3:TrackPointExtension>
        </extensions>
      </trkpt>
      <trkpt lat="42.5477027334272861480712890625" lon="20.12158560566604137420654296875">
        <ele>1965.4000244140625</ele>
        <time>2026-06-20T07:07:57.000Z</time>
        <extensions>
          <ns3:TrackPointExtension>
            <ns3:atemp>19.0</ns3:atemp>
          </ns3:TrackPointExtension>
        </extensions>
      </trkpt>
      <trkpt lat="42.5477064214646816253662109375" lon="20.12160052545368671417236328125">
        <ele>1965.4000244140625</ele>
        <time>2026-06-20T07:07:58.000Z</time>
        <extensions>
          <ns3:TrackPointExtension>
            <ns3:atemp>19.0</ns3:atemp>
          </ns3:TrackPointExtension>
        </extensions>
      </trkpt>
      <trkpt lat="42.54770818166434764862060546875" lon="20.1216086558997631072998046875">
        <ele>1965.199951171875</ele>
        <time>2026-06-20T07:07:59.000Z</time>
        <extensions>
          <ns3:TrackPointExtension>
            <ns3:atemp>19.0</ns3:atemp>
          </ns3:TrackPointExtension>
        </extensions>
      </trkpt>
      <trkpt lat="42.54770952276885509490966796875" lon="20.12161812745034694671630859375">
        <ele>1965.4000244140625</ele>
        <time>2026-06-20T07:08:00.000Z</time>
        <extensions>
          <ns3:TrackPointExtension>
            <ns3:atemp>19.0</ns3:atemp>
          </ns3:TrackPointExtension>
        </extensions>
      </trkpt>
      <trkpt lat="42.547713629901409149169921875" lon="20.12162634171545505523681640625">
        <ele>1965.4000244140625</ele>
        <time>2026-06-20T07:08:01.000Z</time>
        <extensions>
          <ns3:TrackPointExtension>
            <ns3:atemp>19.0</ns3:atemp>
          </ns3:TrackPointExtension>
        </extensions>
      </trkpt>
      <trkpt lat="42.54771555773913860321044921875" lon="20.12163497507572174072265625">
        <ele>1965.5999755859375</ele>
        <time>2026-06-20T07:08:02.000Z</time>
        <extensions>
          <ns3:TrackPointExtension>
            <ns3:atemp>19.0</ns3:atemp>
          </ns3:TrackPointExtension>
        </extensions>
      </trkpt>
      <trkpt lat="42.5477181561291217803955078125" lon="20.121645033359527587890625">
        <ele>1965.800048828125</ele>
        <time>2026-06-20T07:08:03.000Z</time>
        <extensions>
          <ns3:TrackPointExtension>
            <ns3:atemp>19.0</ns3:atemp>
          </ns3:TrackPointExtension>
        </extensions>
      </trkpt>
      <trkpt lat="42.54772058688104152679443359375" lon="20.121655426919460296630859375">
        <ele>1966</ele>
        <time>2026-06-20T07:08:04.000Z</time>
        <extensions>
          <ns3:TrackPointExtension>
            <ns3:atemp>19.0</ns3:atemp>
          </ns3:TrackPointExtension>
        </extensions>
      </trkpt>
      <trkpt lat="42.54772176034748554229736328125" lon="20.1216612942516803741455078125">
        <ele>1966.199951171875</ele>
        <time>2026-06-20T07:08:05.000Z</time>
        <extensions>
          <ns3:TrackPointExtension>
            <ns3:atemp>19.0</ns3:atemp>
          </ns3:TrackPointExtension>
        </extensions>
      </trkpt>
      <trkpt lat="42.54771958105266094207763671875" lon="20.12166841886937618255615234375">
        <ele>1966.4000244140625</ele>
        <time>2026-06-20T07:08:06.000Z</time>
        <extensions>
          <ns3:TrackPointExtension>
            <ns3:atemp>19.0</ns3:atemp>
          </ns3:TrackPointExtension>
        </extensions>
      </trkpt>
      <trkpt lat="42.5477206707000732421875" lon="20.12167378328740596771240234375">
        <ele>1966.4000244140625</ele>
        <time>2026-06-20T07:08:07.000Z</time>
        <extensions>
          <ns3:TrackPointExtension>
            <ns3:atemp>19.0</ns3:atemp>
          </ns3:TrackPointExtension>
        </extensions>
      </trkpt>
      <trkpt lat="42.547721676528453826904296875" lon="20.1216827519237995147705078125">
        <ele>1966.5999755859375</ele>
        <time>2026-06-20T07:08:08.000Z</time>
        <extensions>
          <ns3:TrackPointExtension>
            <ns3:atemp>19.0</ns3:atemp>
          </ns3:TrackPointExtension>
        </extensions>
      </trkpt>
      <trkpt lat="42.547725699841976165771484375" lon="20.12169130146503448486328125">
        <ele>1966.5999755859375</ele>
        <time>2026-06-20T07:08:09.000Z</time>
        <extensions>
          <ns3:TrackPointExtension>
            <ns3:atemp>19.0</ns3:atemp>
          </ns3:TrackPointExtension>
        </extensions>
      </trkpt>
      <trkpt lat="42.5477275438606739044189453125" lon="20.12169934809207916259765625">
        <ele>1966.800048828125</ele>
        <time>2026-06-20T07:08:10.000Z</time>
        <extensions>
          <ns3:TrackPointExtension>
            <ns3:atemp>19.0</ns3:atemp>
          </ns3:TrackPointExtension>
        </extensions>
      </trkpt>
      <trkpt lat="42.54773207008838653564453125" lon="20.1217042095959186553955078125">
        <ele>1966.800048828125</ele>
        <time>2026-06-20T07:08:11.000Z</time>
        <extensions>
          <ns3:TrackPointExtension>
            <ns3:atemp>19.0</ns3:atemp>
          </ns3:TrackPointExtension>
        </extensions>
      </trkpt>
      <trkpt lat="42.54773466847836971282958984375" lon="20.121711753308773040771484375">
        <ele>1966.800048828125</ele>
        <time>2026-06-20T07:08:12.000Z</time>
        <extensions>
          <ns3:TrackPointExtension>
            <ns3:atemp>19.0</ns3:atemp>
          </ns3:TrackPointExtension>
        </extensions>
      </trkpt>
      <trkpt lat="42.54773877561092376708984375" lon="20.12172005139291286468505859375">
        <ele>1966.5999755859375</ele>
        <time>2026-06-20T07:08:13.000Z</time>
        <extensions>
          <ns3:TrackPointExtension>
            <ns3:atemp>19.0</ns3:atemp>
          </ns3:TrackPointExtension>
        </extensions>
      </trkpt>
      <trkpt lat="42.5477446429431438446044921875" lon="20.12173153460025787353515625">
        <ele>1966.5999755859375</ele>
        <time>2026-06-20T07:08:14.000Z</time>
        <extensions>
          <ns3:TrackPointExtension>
            <ns3:atemp>19.0</ns3:atemp>
          </ns3:TrackPointExtension>
        </extensions>
      </trkpt>
      <trkpt lat="42.54774590022861957550048828125" lon="20.12173765338957309722900390625">
        <ele>1966.5999755859375</ele>
        <time>2026-06-20T07:08:15.000Z</time>
        <extensions>
          <ns3:TrackPointExtension>
            <ns3:atemp>19.0</ns3:atemp>
          </ns3:TrackPointExtension>
        </extensions>
      </trkpt>
      <trkpt lat="42.54774975590407848358154296875" lon="20.1217482984066009521484375">
        <ele>1966.5999755859375</ele>
        <time>2026-06-20T07:08:16.000Z</time>
        <extensions>
          <ns3:TrackPointExtension>
            <ns3:atemp>19.0</ns3:atemp>
          </ns3:TrackPointExtension>
        </extensions>
      </trkpt>
      <trkpt lat="42.54775579087436199188232421875" lon="20.12175433337688446044921875">
        <ele>1966.4000244140625</ele>
        <time>2026-06-20T07:08:17.000Z</time>
        <extensions>
          <ns3:TrackPointExtension>
            <ns3:atemp>19.0</ns3:atemp>
          </ns3:TrackPointExtension>
        </extensions>
      </trkpt>
      <trkpt lat="42.54775981418788433074951171875" lon="20.12176380492746829986572265625">
        <ele>1966.4000244140625</ele>
        <time>2026-06-20T07:08:18.000Z</time>
        <extensions>
          <ns3:TrackPointExtension>
            <ns3:atemp>19.0</ns3:atemp>
          </ns3:TrackPointExtension>
        </extensions>
      </trkpt>
      <trkpt lat="42.547763250768184661865234375" lon="20.1217697560787200927734375">
        <ele>1966.199951171875</ele>
        <time>2026-06-20T07:08:19.000Z</time>
        <extensions>
          <ns3:TrackPointExtension>
            <ns3:atemp>19.0</ns3:atemp>
          </ns3:TrackPointExtension>
        </extensions>
      </trkpt>
      <trkpt lat="42.547765932977199554443359375" lon="20.12178006581962108612060546875">
        <ele>1966.199951171875</ele>
        <time>2026-06-20T07:08:20.000Z</time>
        <extensions>
          <ns3:TrackPointExtension>
            <ns3:atemp>19.0</ns3:atemp>
          </ns3:TrackPointExtension>
        </extensions>
      </trkpt>
      <trkpt lat="42.54776517860591411590576171875" lon="20.12179012410342693328857421875">
        <ele>1966.199951171875</ele>
        <time>2026-06-20T07:08:21.000Z</time>
        <extensions>
          <ns3:TrackPointExtension>
            <ns3:atemp>19.0</ns3:atemp>
          </ns3:TrackPointExtension>
        </extensions>
      </trkpt>
      <trkpt lat="42.5477667711675167083740234375" lon="20.1218031160533428192138671875">
        <ele>1966</ele>
        <time>2026-06-20T07:08:22.000Z</time>
        <extensions>
          <ns3:TrackPointExtension>
            <ns3:atemp>19.0</ns3:atemp>
          </ns3:TrackPointExtension>
        </extensions>
      </trkpt>
      <trkpt lat="42.54776651971042156219482421875" lon="20.12180261313915252685546875">
        <ele>1966</ele>
        <time>2026-06-20T07:08:23.000Z</time>
        <extensions>
          <ns3:TrackPointExtension>
            <ns3:atemp>19.0</ns3:atemp>
          </ns3:TrackPointExtension>
        </extensions>
      </trkpt>
      <trkpt lat="42.54776651971042156219482421875" lon="20.12180261313915252685546875">
        <ele>1966</ele>
        <time>2026-06-20T07:08:24.000Z</time>
        <extensions>
          <ns3:TrackPointExtension>
            <ns3:atemp>19.0</ns3:atemp>
          </ns3:TrackPointExtension>
        </extensions>
      </trkpt>
      <trkpt lat="42.547766603529453277587890625" lon="20.12180286459624767303466796875">
        <ele>1966</ele>
        <time>2026-06-20T07:08:25.000Z</time>
        <extensions>
          <ns3:TrackPointExtension>
            <ns3:atemp>19.0</ns3:atemp>
          </ns3:TrackPointExtension>
        </extensions>
      </trkpt>
      <trkpt lat="42.5477644242346286773681640625" lon="20.1218111626803874969482421875">
        <ele>1965.800048828125</ele>
        <time>2026-06-20T07:08:26.000Z</time>
        <extensions>
          <ns3:TrackPointExtension>
            <ns3:atemp>19.0</ns3:atemp>
          </ns3:TrackPointExtension>
        </extensions>
      </trkpt>
      <trkpt lat="42.5477681122720241546630859375" lon="20.12182063423097133636474609375">
        <ele>1965.800048828125</ele>
        <time>2026-06-20T07:08:27.000Z</time>
        <extensions>
          <ns3:TrackPointExtension>
            <ns3:atemp>19.0</ns3:atemp>
          </ns3:TrackPointExtension>
        </extensions>
      </trkpt>
      <trkpt lat="42.547768615186214447021484375" lon="20.12183454819023609161376953125">
        <ele>1965.800048828125</ele>
        <time>2026-06-20T07:08:28.000Z</time>
        <extensions>
          <ns3:TrackPointExtension>
            <ns3:atemp>19.0</ns3:atemp>
          </ns3:TrackPointExtension>
        </extensions>
      </trkpt>
      <trkpt lat="42.54776869900524616241455078125" lon="20.12184343300759792327880859375">
        <ele>1965.5999755859375</ele>
        <time>2026-06-20T07:08:29.000Z</time>
        <extensions>
          <ns3:TrackPointExtension>
            <ns3:atemp>19.0</ns3:atemp>
          </ns3:TrackPointExtension>
        </extensions>
      </trkpt>
      <trkpt lat="42.547769285738468170166015625" lon="20.12185634113848209381103515625">
        <ele>1965.800048828125</ele>
        <time>2026-06-20T07:08:30.000Z</time>
        <extensions>
          <ns3:TrackPointExtension>
            <ns3:atemp>19.0</ns3:atemp>
          </ns3:TrackPointExtension>
        </extensions>
      </trkpt>
      <trkpt lat="42.547771967947483062744140625" lon="20.12186639942228794097900390625">
        <ele>1965.800048828125</ele>
        <time>2026-06-20T07:08:31.000Z</time>
        <extensions>
          <ns3:TrackPointExtension>
            <ns3:atemp>19.0</ns3:atemp>
          </ns3:TrackPointExtension>
        </extensions>
      </trkpt>
      <trkpt lat="42.54777540452778339385986328125" lon="20.1218743622303009033203125">
        <ele>1966</ele>
        <time>2026-06-20T07:08:32.000Z</time>
        <extensions>
          <ns3:TrackPointExtension>
            <ns3:atemp>19.0</ns3:atemp>
          </ns3:TrackPointExtension>
        </extensions>
      </trkpt>
      <trkpt lat="42.5477810204029083251953125" lon="20.1218788884580135345458984375">
        <ele>1966</ele>
        <time>2026-06-20T07:08:33.000Z</time>
        <extensions>
          <ns3:TrackPointExtension>
            <ns3:atemp>19.0</ns3:atemp>
          </ns3:TrackPointExtension>
        </extensions>
      </trkpt>
      <trkpt lat="42.5477828644216060638427734375" lon="20.12188081629574298858642578125">
        <ele>1965.800048828125</ele>
        <time>2026-06-20T07:08:34.000Z</time>
        <extensions>
          <ns3:TrackPointExtension>
            <ns3:atemp>19.0</ns3:atemp>
          </ns3:TrackPointExtension>
        </extensions>
      </trkpt>
      <trkpt lat="42.54778596572577953338623046875" lon="20.12188584543764591217041015625">
        <ele>1965.5999755859375</ele>
        <time>2026-06-20T07:08:35.000Z</time>
        <extensions>
          <ns3:TrackPointExtension>
            <ns3:atemp>19.0</ns3:atemp>
          </ns3:TrackPointExtension>
        </extensions>
      </trkpt>
      <trkpt lat="42.5477878935635089874267578125" lon="20.12189405970275402069091796875">
        <ele>1965.5999755859375</ele>
        <time>2026-06-20T07:08:36.000Z</time>
        <extensions>
          <ns3:TrackPointExtension>
            <ns3:atemp>19.0</ns3:atemp>
          </ns3:TrackPointExtension>
        </extensions>
      </trkpt>
      <trkpt lat="42.54778797738254070281982421875" lon="20.121894143521785736083984375">
        <ele>1965.4000244140625</ele>
        <time>2026-06-20T07:08:37.000Z</time>
        <extensions>
          <ns3:TrackPointExtension>
            <ns3:atemp>19.0</ns3:atemp>
          </ns3:TrackPointExtension>
        </extensions>
      </trkpt>
      <trkpt lat="42.54778797738254070281982421875" lon="20.121894143521785736083984375">
        <ele>1965.4000244140625</ele>
        <time>2026-06-20T07:08:38.000Z</time>
        <extensions>
          <ns3:TrackPointExtension>
            <ns3:atemp>19.0</ns3:atemp>
          </ns3:TrackPointExtension>
        </extensions>
      </trkpt>
      <trkpt lat="42.54778797738254070281982421875" lon="20.121894143521785736083984375">
        <ele>1965.199951171875</ele>
        <time>2026-06-20T07:08:39.000Z</time>
        <extensions>
          <ns3:TrackPointExtension>
            <ns3:atemp>19.0</ns3:atemp>
          </ns3:TrackPointExtension>
        </extensions>
      </trkpt>
      <trkpt lat="42.54778814502060413360595703125" lon="20.1218943111598491668701171875">
        <ele>1965.199951171875</ele>
        <time>2026-06-20T07:08:40.000Z</time>
        <extensions>
          <ns3:TrackPointExtension>
            <ns3:atemp>19.0</ns3:atemp>
          </ns3:TrackPointExtension>
        </extensions>
      </trkpt>
      <trkpt lat="42.54779954440891742706298828125" lon="20.1219092309474945068359375">
        <ele>1965</ele>
        <time>2026-06-20T07:08:41.000Z</time>
        <extensions>
          <ns3:TrackPointExtension>
            <ns3:atemp>19.0</ns3:atemp>
          </ns3:TrackPointExtension>
        </extensions>
      </trkpt>
      <trkpt lat="42.54780893214046955108642578125" lon="20.121929347515106201171875">
        <ele>1965</ele>
        <time>2026-06-20T07:08:42.000Z</time>
        <extensions>
          <ns3:TrackPointExtension>
            <ns3:atemp>19.0</ns3:atemp>
          </ns3:TrackPointExtension>
        </extensions>
      </trkpt>
      <trkpt lat="42.54782100208103656768798828125" lon="20.12194837443530559539794921875">
        <ele>1964.800048828125</ele>
        <time>2026-06-20T07:08:43.000Z</time>
        <extensions>
          <ns3:TrackPointExtension>
            <ns3:atemp>19.0</ns3:atemp>
          </ns3:TrackPointExtension>
        </extensions>
      </trkpt>
      <trkpt lat="42.5478319823741912841796875" lon="20.1219633780419826507568359375">
        <ele>1964.800048828125</ele>
        <time>2026-06-20T07:08:44.000Z</time>
        <extensions>
          <ns3:TrackPointExtension>
            <ns3:atemp>19.0</ns3:atemp>
          </ns3:TrackPointExtension>
        </extensions>
      </trkpt>
      <trkpt lat="42.54784204065799713134765625" lon="20.1219736039638519287109375">
        <ele>1964.5999755859375</ele>
        <time>2026-06-20T07:08:45.000Z</time>
        <extensions>
          <ns3:TrackPointExtension>
            <ns3:atemp>19.0</ns3:atemp>
          </ns3:TrackPointExtension>
        </extensions>
      </trkpt>
      <trkpt lat="42.54785100929439067840576171875" lon="20.12198768556118011474609375">
        <ele>1964.4000244140625</ele>
        <time>2026-06-20T07:08:46.000Z</time>
        <extensions>
          <ns3:TrackPointExtension>
            <ns3:atemp>19.0</ns3:atemp>
          </ns3:TrackPointExtension>
        </extensions>
      </trkpt>
      <trkpt lat="42.54785637371242046356201171875" lon="20.12200000695884227752685546875">
        <ele>1964.4000244140625</ele>
        <time>2026-06-20T07:08:47.000Z</time>
        <extensions>
          <ns3:TrackPointExtension>
            <ns3:atemp>19.0</ns3:atemp>
          </ns3:TrackPointExtension>
        </extensions>
      </trkpt>
      <trkpt lat="42.5478633306920528411865234375" lon="20.12201408855617046356201171875">
        <ele>1964.199951171875</ele>
        <time>2026-06-20T07:08:48.000Z</time>
        <extensions>
          <ns3:TrackPointExtension>
            <ns3:atemp>19.0</ns3:atemp>
          </ns3:TrackPointExtension>
        </extensions>
      </trkpt>
      <trkpt lat="42.54787296988070011138916015625" lon="20.12203353457152843475341796875">
        <ele>1964</ele>
        <time>2026-06-20T07:08:49.000Z</time>
        <extensions>
          <ns3:TrackPointExtension>
            <ns3:atemp>19.0</ns3:atemp>
          </ns3:TrackPointExtension>
        </extensions>
      </trkpt>
      <trkpt lat="42.54787146113812923431396484375" lon="20.12204208411276340484619140625">
        <ele>1964</ele>
        <time>2026-06-20T07:08:50.000Z</time>
        <extensions>
          <ns3:TrackPointExtension>
            <ns3:atemp>19.0</ns3:atemp>
          </ns3:TrackPointExtension>
        </extensions>
      </trkpt>
      <trkpt lat="42.5478737242519855499267578125" lon="20.122047029435634613037109375">
        <ele>1964</ele>
        <time>2026-06-20T07:08:51.000Z</time>
        <extensions>
          <ns3:TrackPointExtension>
            <ns3:atemp>19.0</ns3:atemp>
          </ns3:TrackPointExtension>
        </extensions>
      </trkpt>
      <trkpt lat="42.54787380807101726531982421875" lon="20.12204711325466632843017578125">
        <ele>1964</ele>
        <time>2026-06-20T07:08:52.000Z</time>
        <extensions>
          <ns3:TrackPointExtension>
            <ns3:atemp>19.0</ns3:atemp>
          </ns3:TrackPointExtension>
        </extensions>
      </trkpt>
      <trkpt lat="42.54787783138453960418701171875" lon="20.12206010520458221435546875">
        <ele>1964</ele>
        <time>2026-06-20T07:08:53.000Z</time>
        <extensions>
          <ns3:TrackPointExtension>
            <ns3:atemp>19.0</ns3:atemp>
          </ns3:TrackPointExtension>
        </extensions>
      </trkpt>
      <trkpt lat="42.54788436926901340484619140625" lon="20.12207510881125926971435546875">
        <ele>1964</ele>
        <time>2026-06-20T07:08:54.000Z</time>
        <extensions>
          <ns3:TrackPointExtension>
            <ns3:atemp>19.0</ns3:atemp>
          </ns3:TrackPointExtension>
        </extensions>
      </trkpt>
      <trkpt lat="42.5478894822299480438232421875" lon="20.1220887713134288787841796875">
        <ele>1964</ele>
        <time>2026-06-20T07:08:55.000Z</time>
        <extensions>
          <ns3:TrackPointExtension>
            <ns3:atemp>19.0</ns3:atemp>
          </ns3:TrackPointExtension>
        </extensions>
      </trkpt>
      <trkpt lat="42.54789157770574092864990234375" lon="20.1221011765301227569580078125">
        <ele>1963.800048828125</ele>
        <time>2026-06-20T07:08:56.000Z</time>
        <extensions>
          <ns3:TrackPointExtension>
            <ns3:atemp>19.0</ns3:atemp>
          </ns3:TrackPointExtension>
        </extensions>
      </trkpt>
      <trkpt lat="42.54789425991475582122802734375" lon="20.12211182154715061187744140625">
        <ele>1963.800048828125</ele>
        <time>2026-06-20T07:08:57.000Z</time>
        <extensions>
          <ns3:TrackPointExtension>
            <ns3:atemp>19.0</ns3:atemp>
          </ns3:TrackPointExtension>
        </extensions>
      </trkpt>
      <trkpt lat="42.54790029488503932952880859375" lon="20.12212506495416164398193359375">
        <ele>1963.800048828125</ele>
        <time>2026-06-20T07:08:58.000Z</time>
        <extensions>
          <ns3:TrackPointExtension>
            <ns3:atemp>19.0</ns3:atemp>
          </ns3:TrackPointExtension>
        </extensions>
      </trkpt>
      <trkpt lat="42.54790817387402057647705078125" lon="20.122140236198902130126953125">
        <ele>1963.800048828125</ele>
        <time>2026-06-20T07:08:59.000Z</time>
        <extensions>
          <ns3:TrackPointExtension>
            <ns3:atemp>19.0</ns3:atemp>
          </ns3:TrackPointExtension>
        </extensions>
      </trkpt>
      <trkpt lat="42.54791186191141605377197265625" lon="20.1221575029194355010986328125">
        <ele>1964</ele>
        <time>2026-06-20T07:09:00.000Z</time>
        <extensions>
          <ns3:TrackPointExtension>
            <ns3:atemp>19.0</ns3:atemp>
          </ns3:TrackPointExtension>
        </extensions>
      </trkpt>
      <trkpt lat="42.54791337065398693084716796875" lon="20.122171081602573394775390625">
        <ele>1964</ele>
        <time>2026-06-20T07:09:01.000Z</time>
        <extensions>
          <ns3:TrackPointExtension>
            <ns3:atemp>19.0</ns3:atemp>
          </ns3:TrackPointExtension>
        </extensions>
      </trkpt>
      <trkpt lat="42.54791756160557270050048828125" lon="20.12218507938086986541748046875">
        <ele>1964.199951171875</ele>
        <time>2026-06-20T07:09:02.000Z</time>
        <extensions>
          <ns3:TrackPointExtension>
            <ns3:atemp>19.0</ns3:atemp>
          </ns3:TrackPointExtension>
        </extensions>
      </trkpt>
      <trkpt lat="42.54792409949004650115966796875" lon="20.122191198170185089111328125">
        <ele>1964</ele>
        <time>2026-06-20T07:09:03.000Z</time>
        <extensions>
          <ns3:TrackPointExtension>
            <ns3:atemp>19.0</ns3:atemp>
          </ns3:TrackPointExtension>
        </extensions>
      </trkpt>
      <trkpt lat="42.54792778752744197845458984375" lon="20.12219798751175403594970703125">
        <ele>1964</ele>
        <time>2026-06-20T07:09:04.000Z</time>
        <extensions>
          <ns3:TrackPointExtension>
            <ns3:atemp>19.0</ns3:atemp>
          </ns3:TrackPointExtension>
        </extensions>
      </trkpt>
      <trkpt lat="42.54793189465999603271484375" lon="20.1222061179578304290771484375">
        <ele>1963.800048828125</ele>
        <time>2026-06-20T07:09:05.000Z</time>
        <extensions>
          <ns3:TrackPointExtension>
            <ns3:atemp>19.0</ns3:atemp>
          </ns3:TrackPointExtension>
        </extensions>
      </trkpt>
      <trkpt lat="42.547937594354152679443359375" lon="20.1222181878983974456787109375">
        <ele>1963.5999755859375</ele>
        <time>2026-06-20T07:09:06.000Z</time>
        <extensions>
          <ns3:TrackPointExtension>
            <ns3:atemp>19.0</ns3:atemp>
          </ns3:TrackPointExtension>
        </extensions>
      </trkpt>
      <trkpt lat="42.54794086329638957977294921875" lon="20.12222615070641040802001953125">
        <ele>1963.4000244140625</ele>
        <time>2026-06-20T07:09:07.000Z</time>
        <extensions>
          <ns3:TrackPointExtension>
            <ns3:atemp>19.0</ns3:atemp>
          </ns3:TrackPointExtension>
        </extensions>
      </trkpt>
      <trkpt lat="42.54794572480022907257080078125" lon="20.12223838828504085540771484375">
        <ele>1963.199951171875</ele>
        <time>2026-06-20T07:09:08.000Z</time>
        <extensions>
          <ns3:TrackPointExtension>
            <ns3:atemp>19.0</ns3:atemp>
          </ns3:TrackPointExtension>
        </extensions>
      </trkpt>
      <trkpt lat="42.54794890992343425750732421875" lon="20.12226127088069915771484375">
        <ele>1963.199951171875</ele>
        <time>2026-06-20T07:09:09.000Z</time>
        <extensions>
          <ns3:TrackPointExtension>
            <ns3:atemp>19.0</ns3:atemp>
          </ns3:TrackPointExtension>
        </extensions>
      </trkpt>
      <trkpt lat="42.5479508377611637115478515625" lon="20.12227761559188365936279296875">
        <ele>1963.199951171875</ele>
        <time>2026-06-20T07:09:10.000Z</time>
        <extensions>
          <ns3:TrackPointExtension>
            <ns3:atemp>19.0</ns3:atemp>
          </ns3:TrackPointExtension>
        </extensions>
      </trkpt>
      <trkpt lat="42.54795259796082973480224609375" lon="20.12229220010340213775634765625">
        <ele>1963.199951171875</ele>
        <time>2026-06-20T07:09:11.000Z</time>
        <extensions>
          <ns3:TrackPointExtension>
            <ns3:atemp>19.0</ns3:atemp>
          </ns3:TrackPointExtension>
        </extensions>
      </trkpt>
      <trkpt lat="42.54795326851308345794677734375" lon="20.12230376712977886199951171875">
        <ele>1963.199951171875</ele>
        <time>2026-06-20T07:09:12.000Z</time>
        <extensions>
          <ns3:TrackPointExtension>
            <ns3:atemp>19.0</ns3:atemp>
          </ns3:TrackPointExtension>
        </extensions>
      </trkpt>
      <trkpt lat="42.54795963875949382781982421875" lon="20.122315920889377593994140625">
        <ele>1963.199951171875</ele>
        <time>2026-06-20T07:09:13.000Z</time>
        <extensions>
          <ns3:TrackPointExtension>
            <ns3:atemp>19.0</ns3:atemp>
          </ns3:TrackPointExtension>
        </extensions>
      </trkpt>
      <trkpt lat="42.54796265624463558197021484375" lon="20.1223288290202617645263671875">
        <ele>1963.199951171875</ele>
        <time>2026-06-20T07:09:14.000Z</time>
        <extensions>
          <ns3:TrackPointExtension>
            <ns3:atemp>19.0</ns3:atemp>
          </ns3:TrackPointExtension>
        </extensions>
      </trkpt>
      <trkpt lat="42.54796500317752361297607421875" lon="20.1223388873040676116943359375">
        <ele>1963</ele>
        <time>2026-06-20T07:09:15.000Z</time>
        <extensions>
          <ns3:TrackPointExtension>
            <ns3:atemp>19.0</ns3:atemp>
          </ns3:TrackPointExtension>
        </extensions>
      </trkpt>
      <trkpt lat="42.5479686073958873748779296875" lon="20.1223516277968883514404296875">
        <ele>1963</ele>
        <time>2026-06-20T07:09:16.000Z</time>
        <extensions>
          <ns3:TrackPointExtension>
            <ns3:atemp>19.0</ns3:atemp>
          </ns3:TrackPointExtension>
        </extensions>
      </trkpt>
      <trkpt lat="42.54797204397618770599365234375" lon="20.1223620213568210601806640625">
        <ele>1963</ele>
        <time>2026-06-20T07:09:17.000Z</time>
        <extensions>
          <ns3:TrackPointExtension>
            <ns3:atemp>19.0</ns3:atemp>
          </ns3:TrackPointExtension>
        </extensions>
      </trkpt>
      <trkpt lat="42.5479766540229320526123046875" lon="20.12236830778419971466064453125">
        <ele>1963</ele>
        <time>2026-06-20T07:09:18.000Z</time>
        <extensions>
          <ns3:TrackPointExtension>
            <ns3:atemp>19.0</ns3:atemp>
          </ns3:TrackPointExtension>
        </extensions>
      </trkpt>
      <trkpt lat="42.5479836948215961456298828125" lon="20.12237819842994213104248046875">
        <ele>1963</ele>
        <time>2026-06-20T07:09:19.000Z</time>
        <extensions>
          <ns3:TrackPointExtension>
            <ns3:atemp>19.0</ns3:atemp>
          </ns3:TrackPointExtension>
        </extensions>
      </trkpt>
      <trkpt lat="42.54798579029738903045654296875" lon="20.12239010073244571685791015625">
        <ele>1963.199951171875</ele>
        <time>2026-06-20T07:09:20.000Z</time>
        <extensions>
          <ns3:TrackPointExtension>
            <ns3:atemp>19.0</ns3:atemp>
          </ns3:TrackPointExtension>
        </extensions>
      </trkpt>
      <trkpt lat="42.54798947833478450775146484375" lon="20.1224009133875370025634765625">
        <ele>1963.199951171875</ele>
        <time>2026-06-20T07:09:21.000Z</time>
        <extensions>
          <ns3:TrackPointExtension>
            <ns3:atemp>19.0</ns3:atemp>
          </ns3:TrackPointExtension>
        </extensions>
      </trkpt>
      <trkpt lat="42.5479893945157527923583984375" lon="20.12240552343428134918212890625">
        <ele>1963.199951171875</ele>
        <time>2026-06-20T07:09:22.000Z</time>
        <extensions>
          <ns3:TrackPointExtension>
            <ns3:atemp>19.0</ns3:atemp>
          </ns3:TrackPointExtension>
        </extensions>
      </trkpt>
      <trkpt lat="42.54798931069672107696533203125" lon="20.1224089600145816802978515625">
        <ele>1963.199951171875</ele>
        <time>2026-06-20T07:09:23.000Z</time>
        <extensions>
          <ns3:TrackPointExtension>
            <ns3:atemp>19.0</ns3:atemp>
          </ns3:TrackPointExtension>
        </extensions>
      </trkpt>
      <trkpt lat="42.5479929149150848388671875" lon="20.12241818010807037353515625">
        <ele>1963.4000244140625</ele>
        <time>2026-06-20T07:09:24.000Z</time>
        <extensions>
          <ns3:TrackPointExtension>
            <ns3:atemp>19.0</ns3:atemp>
          </ns3:TrackPointExtension>
        </extensions>
      </trkpt>
      <trkpt lat="42.54799752496182918548583984375" lon="20.1224300824105739593505859375">
        <ele>1963.4000244140625</ele>
        <time>2026-06-20T07:09:25.000Z</time>
        <extensions>
          <ns3:TrackPointExtension>
            <ns3:atemp>19.0</ns3:atemp>
          </ns3:TrackPointExtension>
        </extensions>
      </trkpt>
      <trkpt lat="42.54800104536116123199462890625" lon="20.12244106270372867584228515625">
        <ele>1963.4000244140625</ele>
        <time>2026-06-20T07:09:26.000Z</time>
        <extensions>
          <ns3:TrackPointExtension>
            <ns3:atemp>19.0</ns3:atemp>
          </ns3:TrackPointExtension>
        </extensions>
      </trkpt>
      <trkpt lat="42.54800389520823955535888671875" lon="20.122454054653644561767578125">
        <ele>1963.4000244140625</ele>
        <time>2026-06-20T07:09:27.000Z</time>
        <extensions>
          <ns3:TrackPointExtension>
            <ns3:atemp>19.0</ns3:atemp>
          </ns3:TrackPointExtension>
        </extensions>
      </trkpt>
      <trkpt lat="42.54800490103662014007568359375" lon="20.12246780097484588623046875">
        <ele>1963.4000244140625</ele>
        <time>2026-06-20T07:09:28.000Z</time>
        <extensions>
          <ns3:TrackPointExtension>
            <ns3:atemp>19.0</ns3:atemp>
          </ns3:TrackPointExtension>
        </extensions>
      </trkpt>
      <trkpt lat="42.548006661236286163330078125" lon="20.122476853430271148681640625">
        <ele>1963.5999755859375</ele>
        <time>2026-06-20T07:09:29.000Z</time>
        <extensions>
          <ns3:TrackPointExtension>
            <ns3:atemp>19.0</ns3:atemp>
          </ns3:TrackPointExtension>
        </extensions>
      </trkpt>
      <trkpt lat="42.5480081699788570404052734375" lon="20.12248364277184009552001953125">
        <ele>1963.5999755859375</ele>
        <time>2026-06-20T07:09:30.000Z</time>
        <extensions>
          <ns3:TrackPointExtension>
            <ns3:atemp>19.0</ns3:atemp>
          </ns3:TrackPointExtension>
        </extensions>
      </trkpt>
      <trkpt lat="42.54801076836884021759033203125" lon="20.1224941201508045196533203125">
        <ele>1963.800048828125</ele>
        <time>2026-06-20T07:09:31.000Z</time>
        <extensions>
          <ns3:TrackPointExtension>
            <ns3:atemp>19.0</ns3:atemp>
          </ns3:TrackPointExtension>
        </extensions>
      </trkpt>
      <trkpt lat="42.5480118580162525177001953125" lon="20.1225011609494686126708984375">
        <ele>1964</ele>
        <time>2026-06-20T07:09:32.000Z</time>
        <extensions>
          <ns3:TrackPointExtension>
            <ns3:atemp>19.0</ns3:atemp>
          </ns3:TrackPointExtension>
        </extensions>
      </trkpt>
      <trkpt lat="42.54801361821591854095458984375" lon="20.12250660918653011322021484375">
        <ele>1964</ele>
        <time>2026-06-20T07:09:33.000Z</time>
        <extensions>
          <ns3:TrackPointExtension>
            <ns3:atemp>19.0</ns3:atemp>
          </ns3:TrackPointExtension>
        </extensions>
      </trkpt>
      <trkpt lat="42.54801495932042598724365234375" lon="20.122517757117748260498046875">
        <ele>1964.199951171875</ele>
        <time>2026-06-20T07:09:34.000Z</time>
        <extensions>
          <ns3:TrackPointExtension>
            <ns3:atemp>19.0</ns3:atemp>
          </ns3:TrackPointExtension>
        </extensions>
      </trkpt>
      <trkpt lat="42.54801697097718715667724609375" lon="20.12252907268702983856201171875">
        <ele>1964.4000244140625</ele>
        <time>2026-06-20T07:09:35.000Z</time>
        <extensions>
          <ns3:TrackPointExtension>
            <ns3:atemp>19.0</ns3:atemp>
          </ns3:TrackPointExtension>
        </extensions>
      </trkpt>
      <trkpt lat="42.5480168871581554412841796875" lon="20.1225403882563114166259765625">
        <ele>1964.5999755859375</ele>
        <time>2026-06-20T07:09:36.000Z</time>
        <extensions>
          <ns3:TrackPointExtension>
            <ns3:atemp>19.0</ns3:atemp>
          </ns3:TrackPointExtension>
        </extensions>
      </trkpt>
      <trkpt lat="42.54801915027201175689697265625" lon="20.12254868634045124053955078125">
        <ele>1964.800048828125</ele>
        <time>2026-06-20T07:09:37.000Z</time>
        <extensions>
          <ns3:TrackPointExtension>
            <ns3:atemp>19.0</ns3:atemp>
          </ns3:TrackPointExtension>
        </extensions>
      </trkpt>
      <trkpt lat="42.54802132956683635711669921875" lon="20.12255438603460788726806640625">
        <ele>1965</ele>
        <time>2026-06-20T07:09:38.000Z</time>
        <extensions>
          <ns3:TrackPointExtension>
            <ns3:atemp>19.0</ns3:atemp>
          </ns3:TrackPointExtension>
        </extensions>
      </trkpt>
      <trkpt lat="42.54802250303328037261962890625" lon="20.1225628517568111419677734375">
        <ele>1965.199951171875</ele>
        <time>2026-06-20T07:09:39.000Z</time>
        <extensions>
          <ns3:TrackPointExtension>
            <ns3:atemp>19.0</ns3:atemp>
          </ns3:TrackPointExtension>
        </extensions>
      </trkpt>
      <trkpt lat="42.548024095594882965087890625" lon="20.122574083507061004638671875">
        <ele>1965.4000244140625</ele>
        <time>2026-06-20T07:09:40.000Z</time>
        <extensions>
          <ns3:TrackPointExtension>
            <ns3:atemp>19.0</ns3:atemp>
          </ns3:TrackPointExtension>
        </extensions>
      </trkpt>
      <trkpt lat="42.54802702926099300384521484375" lon="20.12258556671440601348876953125">
        <ele>1965.800048828125</ele>
        <time>2026-06-20T07:09:41.000Z</time>
        <extensions>
          <ns3:TrackPointExtension>
            <ns3:atemp>19.0</ns3:atemp>
          </ns3:TrackPointExtension>
        </extensions>
      </trkpt>
      <trkpt lat="42.548029460012912750244140625" lon="20.12259922921657562255859375">
        <ele>1966</ele>
        <time>2026-06-20T07:09:42.000Z</time>
        <extensions>
          <ns3:TrackPointExtension>
            <ns3:atemp>19.0</ns3:atemp>
          </ns3:TrackPointExtension>
        </extensions>
      </trkpt>
      <trkpt lat="42.54803138785064220428466796875" lon="20.12260886840522289276123046875">
        <ele>1966.199951171875</ele>
        <time>2026-06-20T07:09:43.000Z</time>
        <extensions>
          <ns3:TrackPointExtension>
            <ns3:atemp>19.0</ns3:atemp>
          </ns3:TrackPointExtension>
        </extensions>
      </trkpt>
      <trkpt lat="42.548034489154815673828125" lon="20.122617669403553009033203125">
        <ele>1966.5999755859375</ele>
        <time>2026-06-20T07:09:44.000Z</time>
        <extensions>
          <ns3:TrackPointExtension>
            <ns3:atemp>19.0</ns3:atemp>
          </ns3:TrackPointExtension>
        </extensions>
      </trkpt>
      <trkpt lat="42.5480427034199237823486328125" lon="20.12262613512575626373291015625">
        <ele>1966.800048828125</ele>
        <time>2026-06-20T07:09:45.000Z</time>
        <extensions>
          <ns3:TrackPointExtension>
            <ns3:atemp>19.0</ns3:atemp>
          </ns3:TrackPointExtension>
        </extensions>
      </trkpt>
      <trkpt lat="42.54804949276149272918701171875" lon="20.12262999080121517181396484375">
        <ele>1967</ele>
        <time>2026-06-20T07:09:46.000Z</time>
        <extensions>
          <ns3:TrackPointExtension>
            <ns3:atemp>19.0</ns3:atemp>
          </ns3:TrackPointExtension>
        </extensions>
      </trkpt>
      <trkpt lat="42.54805368371307849884033203125" lon="20.1226325891911983489990234375">
        <ele>1967.199951171875</ele>
        <time>2026-06-20T07:09:47.000Z</time>
        <extensions>
          <ns3:TrackPointExtension>
            <ns3:atemp>19.0</ns3:atemp>
          </ns3:TrackPointExtension>
        </extensions>
      </trkpt>
      <trkpt lat="42.54806055687367916107177734375" lon="20.1226379536092281341552734375">
        <ele>1967.199951171875</ele>
        <time>2026-06-20T07:09:48.000Z</time>
        <extensions>
          <ns3:TrackPointExtension>
            <ns3:atemp>19.0</ns3:atemp>
          </ns3:TrackPointExtension>
        </extensions>
      </trkpt>
      <trkpt lat="42.5480661727488040924072265625" lon="20.12264105491340160369873046875">
        <ele>1967.4000244140625</ele>
        <time>2026-06-20T07:09:49.000Z</time>
        <extensions>
          <ns3:TrackPointExtension>
            <ns3:atemp>19.0</ns3:atemp>
          </ns3:TrackPointExtension>
        </extensions>
      </trkpt>
      <trkpt lat="42.54807346500456333160400390625" lon="20.12264608405530452728271484375">
        <ele>1967.199951171875</ele>
        <time>2026-06-20T07:09:50.000Z</time>
        <extensions>
          <ns3:TrackPointExtension>
            <ns3:atemp>19.0</ns3:atemp>
          </ns3:TrackPointExtension>
        </extensions>
      </trkpt>
      <trkpt lat="42.548070363700389862060546875" lon="20.122647173702716827392578125">
        <ele>1967.199951171875</ele>
        <time>2026-06-20T07:09:51.000Z</time>
        <extensions>
          <ns3:TrackPointExtension>
            <ns3:atemp>19.0</ns3:atemp>
          </ns3:TrackPointExtension>
        </extensions>
      </trkpt>
      <trkpt lat="42.548070363700389862060546875" lon="20.122647173702716827392578125">
        <ele>1967.4000244140625</ele>
        <time>2026-06-20T07:09:52.000Z</time>
        <extensions>
          <ns3:TrackPointExtension>
            <ns3:atemp>19.0</ns3:atemp>
          </ns3:TrackPointExtension>
        </extensions>
      </trkpt>
      <trkpt lat="42.54807044751942157745361328125" lon="20.1226470060646533966064453125">
        <ele>1967.4000244140625</ele>
        <time>2026-06-20T07:09:53.000Z</time>
        <extensions>
          <ns3:TrackPointExtension>
            <ns3:atemp>19.0</ns3:atemp>
          </ns3:TrackPointExtension>
        </extensions>
      </trkpt>
      <trkpt lat="42.54808100871741771697998046875" lon="20.12264843098819255828857421875">
        <ele>1967.4000244140625</ele>
        <time>2026-06-20T07:09:54.000Z</time>
        <extensions>
          <ns3:TrackPointExtension>
            <ns3:atemp>19.0</ns3:atemp>
          </ns3:TrackPointExtension>
        </extensions>
      </trkpt>
      <trkpt lat="42.54809207282960414886474609375" lon="20.12265446595847606658935546875">
        <ele>1967.4000244140625</ele>
        <time>2026-06-20T07:09:55.000Z</time>
        <extensions>
          <ns3:TrackPointExtension>
            <ns3:atemp>19.0</ns3:atemp>
          </ns3:TrackPointExtension>
        </extensions>
      </trkpt>
      <trkpt lat="42.5481054000556468963623046875" lon="20.12266553007066249847412109375">
        <ele>1967.4000244140625</ele>
        <time>2026-06-20T07:09:56.000Z</time>
        <extensions>
          <ns3:TrackPointExtension>
            <ns3:atemp>19.0</ns3:atemp>
          </ns3:TrackPointExtension>
        </extensions>
      </trkpt>
      <trkpt lat="42.54811705090105533599853515625" lon="20.12267164885997772216796875">
        <ele>1967.4000244140625</ele>
        <time>2026-06-20T07:09:57.000Z</time>
        <extensions>
          <ns3:TrackPointExtension>
            <ns3:atemp>19.0</ns3:atemp>
          </ns3:TrackPointExtension>
        </extensions>
      </trkpt>
      <trkpt lat="42.54812593571841716766357421875" lon="20.1226795278489589691162109375">
        <ele>1967.5999755859375</ele>
        <time>2026-06-20T07:09:58.000Z</time>
        <extensions>
          <ns3:TrackPointExtension>
            <ns3:atemp>19.0</ns3:atemp>
          </ns3:TrackPointExtension>
        </extensions>
      </trkpt>
      <trkpt lat="42.54813130013644695281982421875" lon="20.12268765829503536224365234375">
        <ele>1967.5999755859375</ele>
        <time>2026-06-20T07:09:59.000Z</time>
        <extensions>
          <ns3:TrackPointExtension>
            <ns3:atemp>19.0</ns3:atemp>
          </ns3:TrackPointExtension>
        </extensions>
      </trkpt>
      <trkpt lat="42.5481365807354450225830078125" lon="20.12270291335880756378173828125">
        <ele>1968</ele>
        <time>2026-06-20T07:10:00.000Z</time>
        <extensions>
          <ns3:TrackPointExtension>
            <ns3:atemp>19.0</ns3:atemp>
          </ns3:TrackPointExtension>
        </extensions>
      </trkpt>
      <trkpt lat="42.54814504645764827728271484375" lon="20.122716240584850311279296875">
        <ele>1968.199951171875</ele>
        <time>2026-06-20T07:10:01.000Z</time>
        <extensions>
          <ns3:TrackPointExtension>
            <ns3:atemp>19.0</ns3:atemp>
          </ns3:TrackPointExtension>
        </extensions>
      </trkpt>
      <trkpt lat="42.54814990796148777008056640625" lon="20.12272722087800502777099609375">
        <ele>1968.4000244140625</ele>
        <time>2026-06-20T07:10:02.000Z</time>
        <extensions>
          <ns3:TrackPointExtension>
            <ns3:atemp>19.0</ns3:atemp>
          </ns3:TrackPointExtension>
        </extensions>
      </trkpt>
      <trkpt lat="42.548154853284358978271484375" lon="20.1227415539324283599853515625">
        <ele>1968.800048828125</ele>
        <time>2026-06-20T07:10:03.000Z</time>
        <extensions>
          <ns3:TrackPointExtension>
            <ns3:atemp>19.0</ns3:atemp>
          </ns3:TrackPointExtension>
        </extensions>
      </trkpt>
      <trkpt lat="42.5481530092656612396240234375" lon="20.12275219894945621490478515625">
        <ele>1969</ele>
        <time>2026-06-20T07:10:04.000Z</time>
        <extensions>
          <ns3:TrackPointExtension>
            <ns3:atemp>19.0</ns3:atemp>
          </ns3:TrackPointExtension>
        </extensions>
      </trkpt>
      <trkpt lat="42.54815778695046901702880859375" lon="20.1227563060820102691650390625">
        <ele>1969.199951171875</ele>
        <time>2026-06-20T07:10:05.000Z</time>
        <extensions>
          <ns3:TrackPointExtension>
            <ns3:atemp>19.0</ns3:atemp>
          </ns3:TrackPointExtension>
        </extensions>
      </trkpt>
      <trkpt lat="42.548157870769500732421875" lon="20.12275638990104198455810546875">
        <ele>1969.5999755859375</ele>
        <time>2026-06-20T07:10:06.000Z</time>
        <extensions>
          <ns3:TrackPointExtension>
            <ns3:atemp>19.0</ns3:atemp>
          </ns3:TrackPointExtension>
        </extensions>
      </trkpt>
      <trkpt lat="42.54816834814846515655517578125" lon="20.12275655753910541534423828125">
        <ele>1969.5999755859375</ele>
        <time>2026-06-20T07:10:07.000Z</time>
        <extensions>
          <ns3:TrackPointExtension>
            <ns3:atemp>19.0</ns3:atemp>
          </ns3:TrackPointExtension>
        </extensions>
      </trkpt>
      <trkpt lat="42.54817790351808071136474609375" lon="20.12275923974812030792236328125">
        <ele>1969.5999755859375</ele>
        <time>2026-06-20T07:10:08.000Z</time>
        <extensions>
          <ns3:TrackPointExtension>
            <ns3:atemp>19.0</ns3:atemp>
          </ns3:TrackPointExtension>
        </extensions>
      </trkpt>
      <trkpt lat="42.5481838546693325042724609375" lon="20.12276284396648406982421875">
        <ele>1969.5999755859375</ele>
        <time>2026-06-20T07:10:09.000Z</time>
        <extensions>
          <ns3:TrackPointExtension>
            <ns3:atemp>19.0</ns3:atemp>
          </ns3:TrackPointExtension>
        </extensions>
      </trkpt>
      <trkpt lat="42.54818879999220371246337890625" lon="20.1227648556232452392578125">
        <ele>1969.4000244140625</ele>
        <time>2026-06-20T07:10:10.000Z</time>
        <extensions>
          <ns3:TrackPointExtension>
            <ns3:atemp>19.0</ns3:atemp>
          </ns3:TrackPointExtension>
        </extensions>
      </trkpt>
      <trkpt lat="42.54819751717150211334228515625" lon="20.122767202556133270263671875">
        <ele>1969.4000244140625</ele>
        <time>2026-06-20T07:10:11.000Z</time>
        <extensions>
          <ns3:TrackPointExtension>
            <ns3:atemp>19.0</ns3:atemp>
          </ns3:TrackPointExtension>
        </extensions>
      </trkpt>
      <trkpt lat="42.54820547997951507568359375" lon="20.12277214787900447845458984375">
        <ele>1969.4000244140625</ele>
        <time>2026-06-20T07:10:12.000Z</time>
        <extensions>
          <ns3:TrackPointExtension>
            <ns3:atemp>19.0</ns3:atemp>
          </ns3:TrackPointExtension>
        </extensions>
      </trkpt>
      <trkpt lat="42.5482093356549739837646484375" lon="20.12277617119252681732177734375">
        <ele>1969.4000244140625</ele>
        <time>2026-06-20T07:10:13.000Z</time>
        <extensions>
          <ns3:TrackPointExtension>
            <ns3:atemp>19.0</ns3:atemp>
          </ns3:TrackPointExtension>
        </extensions>
      </trkpt>
      <trkpt lat="42.5482126884162425994873046875" lon="20.12278639711439609527587890625">
        <ele>1969.4000244140625</ele>
        <time>2026-06-20T07:10:14.000Z</time>
        <extensions>
          <ns3:TrackPointExtension>
            <ns3:atemp>19.0</ns3:atemp>
          </ns3:TrackPointExtension>
        </extensions>
      </trkpt>
      <trkpt lat="42.54821092821657657623291015625" lon="20.1227995567023754119873046875">
        <ele>1969.5999755859375</ele>
        <time>2026-06-20T07:10:15.000Z</time>
        <extensions>
          <ns3:TrackPointExtension>
            <ns3:atemp>19.0</ns3:atemp>
          </ns3:TrackPointExtension>
        </extensions>
      </trkpt>
      <trkpt lat="42.5482066534459590911865234375" lon="20.122813470661640167236328125">
        <ele>1969.5999755859375</ele>
        <time>2026-06-20T07:10:16.000Z</time>
        <extensions>
          <ns3:TrackPointExtension>
            <ns3:atemp>19.0</ns3:atemp>
          </ns3:TrackPointExtension>
        </extensions>
      </trkpt>
      <trkpt lat="42.5482049770653247833251953125" lon="20.12282344512641429901123046875">
        <ele>1969.800048828125</ele>
        <time>2026-06-20T07:10:17.000Z</time>
        <extensions>
          <ns3:TrackPointExtension>
            <ns3:atemp>19.0</ns3:atemp>
          </ns3:TrackPointExtension>
        </extensions>
      </trkpt>
      <trkpt lat="42.54820539616048336029052734375" lon="20.12283249758183956146240234375">
        <ele>1970.199951171875</ele>
        <time>2026-06-20T07:10:18.000Z</time>
        <extensions>
          <ns3:TrackPointExtension>
            <ns3:atemp>19.0</ns3:atemp>
          </ns3:TrackPointExtension>
        </extensions>
      </trkpt>
      <trkpt lat="42.5482074916362762451171875" lon="20.12284339405596256256103515625">
        <ele>1970.4000244140625</ele>
        <time>2026-06-20T07:10:19.000Z</time>
        <extensions>
          <ns3:TrackPointExtension>
            <ns3:atemp>19.0</ns3:atemp>
          </ns3:TrackPointExtension>
        </extensions>
      </trkpt>
      <trkpt lat="42.548209168016910552978515625" lon="20.1228582300245761871337890625">
        <ele>1970.4000244140625</ele>
        <time>2026-06-20T07:10:20.000Z</time>
        <extensions>
          <ns3:TrackPointExtension>
            <ns3:atemp>19.0</ns3:atemp>
          </ns3:TrackPointExtension>
        </extensions>
      </trkpt>
      <trkpt lat="42.54820883274078369140625" lon="20.12287457473576068878173828125">
        <ele>1970.4000244140625</ele>
        <time>2026-06-20T07:10:21.000Z</time>
        <extensions>
          <ns3:TrackPointExtension>
            <ns3:atemp>19.0</ns3:atemp>
          </ns3:TrackPointExtension>
        </extensions>
      </trkpt>
      <trkpt lat="42.54820690490305423736572265625" lon="20.1228909194469451904296875">
        <ele>1970.4000244140625</ele>
        <time>2026-06-20T07:10:22.000Z</time>
        <extensions>
          <ns3:TrackPointExtension>
            <ns3:atemp>19.0</ns3:atemp>
          </ns3:TrackPointExtension>
        </extensions>
      </trkpt>
      <trkpt lat="42.5482056476175785064697265625" lon="20.1229034923017024993896484375">
        <ele>1970.199951171875</ele>
        <time>2026-06-20T07:10:23.000Z</time>
        <extensions>
          <ns3:TrackPointExtension>
            <ns3:atemp>19.0</ns3:atemp>
          </ns3:TrackPointExtension>
        </extensions>
      </trkpt>
      <trkpt lat="42.54820254631340503692626953125" lon="20.12291799299418926239013671875">
        <ele>1970.199951171875</ele>
        <time>2026-06-20T07:10:24.000Z</time>
        <extensions>
          <ns3:TrackPointExtension>
            <ns3:atemp>19.0</ns3:atemp>
          </ns3:TrackPointExtension>
        </extensions>
      </trkpt>
      <trkpt lat="42.54820053465664386749267578125" lon="20.122926793992519378662109375">
        <ele>1970.4000244140625</ele>
        <time>2026-06-20T07:10:25.000Z</time>
        <extensions>
          <ns3:TrackPointExtension>
            <ns3:atemp>19.0</ns3:atemp>
          </ns3:TrackPointExtension>
        </extensions>
      </trkpt>
      <trkpt lat="42.54820053465664386749267578125" lon="20.12293006293475627899169921875">
        <ele>1970.4000244140625</ele>
        <time>2026-06-20T07:10:26.000Z</time>
        <extensions>
          <ns3:TrackPointExtension>
            <ns3:atemp>19.0</ns3:atemp>
          </ns3:TrackPointExtension>
        </extensions>
      </trkpt>
      <trkpt lat="42.54820204339921474456787109375" lon="20.12293576262891292572021484375">
        <ele>1970.5999755859375</ele>
        <time>2026-06-20T07:10:27.000Z</time>
        <extensions>
          <ns3:TrackPointExtension>
            <ns3:atemp>19.0</ns3:atemp>
          </ns3:TrackPointExtension>
        </extensions>
      </trkpt>
      <trkpt lat="42.54820304922759532928466796875" lon="20.12294397689402103424072265625">
        <ele>1970.800048828125</ele>
        <time>2026-06-20T07:10:28.000Z</time>
        <extensions>
          <ns3:TrackPointExtension>
            <ns3:atemp>19.0</ns3:atemp>
          </ns3:TrackPointExtension>
        </extensions>
      </trkpt>
      <trkpt lat="42.54820489324629306793212890625" lon="20.12295437045395374298095703125">
        <ele>1970.800048828125</ele>
        <time>2026-06-20T07:10:29.000Z</time>
        <extensions>
          <ns3:TrackPointExtension>
            <ns3:atemp>19.0</ns3:atemp>
          </ns3:TrackPointExtension>
        </extensions>
      </trkpt>
      <trkpt lat="42.54820539616048336029052734375" lon="20.12296199798583984375">
        <ele>1970.800048828125</ele>
        <time>2026-06-20T07:10:30.000Z</time>
        <extensions>
          <ns3:TrackPointExtension>
            <ns3:atemp>19.0</ns3:atemp>
          </ns3:TrackPointExtension>
        </extensions>
      </trkpt>
      <trkpt lat="42.54820724017918109893798828125" lon="20.1229732297360897064208984375">
        <ele>1970.5999755859375</ele>
        <time>2026-06-20T07:10:31.000Z</time>
        <extensions>
          <ns3:TrackPointExtension>
            <ns3:atemp>19.0</ns3:atemp>
          </ns3:TrackPointExtension>
        </extensions>
      </trkpt>
      <trkpt lat="42.54820707254111766815185546875" lon="20.1229849644005298614501953125">
        <ele>1970.5999755859375</ele>
        <time>2026-06-20T07:10:32.000Z</time>
        <extensions>
          <ns3:TrackPointExtension>
            <ns3:atemp>19.0</ns3:atemp>
          </ns3:TrackPointExtension>
        </extensions>
      </trkpt>
      <trkpt lat="42.548206485807895660400390625" lon="20.1229963637888431549072265625">
        <ele>1970.5999755859375</ele>
        <time>2026-06-20T07:10:33.000Z</time>
        <extensions>
          <ns3:TrackPointExtension>
            <ns3:atemp>19.0</ns3:atemp>
          </ns3:TrackPointExtension>
        </extensions>
      </trkpt>
      <trkpt lat="42.54820740781724452972412109375" lon="20.12300600297749042510986328125">
        <ele>1970.5999755859375</ele>
        <time>2026-06-20T07:10:34.000Z</time>
        <extensions>
          <ns3:TrackPointExtension>
            <ns3:atemp>19.0</ns3:atemp>
          </ns3:TrackPointExtension>
        </extensions>
      </trkpt>
      <trkpt lat="42.54821092821657657623291015625" lon="20.12301639653742313385009765625">
        <ele>1970.5999755859375</ele>
        <time>2026-06-20T07:10:35.000Z</time>
        <extensions>
          <ns3:TrackPointExtension>
            <ns3:atemp>19.0</ns3:atemp>
          </ns3:TrackPointExtension>
        </extensions>
      </trkpt>
      <trkpt lat="42.548213861882686614990234375" lon="20.12302033603191375732421875">
        <ele>1970.800048828125</ele>
        <time>2026-06-20T07:10:36.000Z</time>
        <extensions>
          <ns3:TrackPointExtension>
            <ns3:atemp>19.0</ns3:atemp>
          </ns3:TrackPointExtension>
        </extensions>
      </trkpt>
      <trkpt lat="42.54821486771106719970703125" lon="20.12302930466830730438232421875">
        <ele>1970.800048828125</ele>
        <time>2026-06-20T07:10:37.000Z</time>
        <extensions>
          <ns3:TrackPointExtension>
            <ns3:atemp>19.0</ns3:atemp>
          </ns3:TrackPointExtension>
        </extensions>
      </trkpt>
      <trkpt lat="42.54821495153009891510009765625" lon="20.1230302266776561737060546875">
        <ele>1970.800048828125</ele>
        <time>2026-06-20T07:10:38.000Z</time>
        <extensions>
          <ns3:TrackPointExtension>
            <ns3:atemp>19.0</ns3:atemp>
          </ns3:TrackPointExtension>
        </extensions>
      </trkpt>
      <trkpt lat="42.54821495153009891510009765625" lon="20.1230302266776561737060546875">
        <ele>1970.800048828125</ele>
        <time>2026-06-20T07:10:39.000Z</time>
        <extensions>
          <ns3:TrackPointExtension>
            <ns3:atemp>19.0</ns3:atemp>
          </ns3:TrackPointExtension>
        </extensions>
      </trkpt>
      <trkpt lat="42.54821495153009891510009765625" lon="20.1230302266776561737060546875">
        <ele>1970.5999755859375</ele>
        <time>2026-06-20T07:10:40.000Z</time>
        <extensions>
          <ns3:TrackPointExtension>
            <ns3:atemp>19.0</ns3:atemp>
          </ns3:TrackPointExtension>
        </extensions>
      </trkpt>
      <trkpt lat="42.54821495153009891510009765625" lon="20.1230302266776561737060546875">
        <ele>1970.5999755859375</ele>
        <time>2026-06-20T07:10:41.000Z</time>
        <extensions>
          <ns3:TrackPointExtension>
            <ns3:atemp>19.0</ns3:atemp>
          </ns3:TrackPointExtension>
        </extensions>
      </trkpt>
      <trkpt lat="42.5482153706252574920654296875" lon="20.12303064577281475067138671875">
        <ele>1970.5999755859375</ele>
        <time>2026-06-20T07:10:42.000Z</time>
        <extensions>
          <ns3:TrackPointExtension>
            <ns3:atemp>19.0</ns3:atemp>
          </ns3:TrackPointExtension>
        </extensions>
      </trkpt>
      <trkpt lat="42.54821495153009891510009765625" lon="20.1230302266776561737060546875">
        <ele>1970.5999755859375</ele>
        <time>2026-06-20T07:10:43.000Z</time>
        <extensions>
          <ns3:TrackPointExtension>
            <ns3:atemp>19.0</ns3:atemp>
          </ns3:TrackPointExtension>
        </extensions>
      </trkpt>
      <trkpt lat="42.54821495153009891510009765625" lon="20.1230302266776561737060546875">
        <ele>1970.5999755859375</ele>
        <time>2026-06-20T07:10:44.000Z</time>
        <extensions>
          <ns3:TrackPointExtension>
            <ns3:atemp>19.0</ns3:atemp>
          </ns3:TrackPointExtension>
        </extensions>
      </trkpt>
      <trkpt lat="42.54821495153009891510009765625" lon="20.1230302266776561737060546875">
        <ele>1970.5999755859375</ele>
        <time>2026-06-20T07:10:45.000Z</time>
        <extensions>
          <ns3:TrackPointExtension>
            <ns3:atemp>19.0</ns3:atemp>
          </ns3:TrackPointExtension>
        </extensions>
      </trkpt>
      <trkpt lat="42.54821495153009891510009765625" lon="20.1230302266776561737060546875">
        <ele>1970.4000244140625</ele>
        <time>2026-06-20T07:10:46.000Z</time>
        <extensions>
          <ns3:TrackPointExtension>
            <ns3:atemp>19.0</ns3:atemp>
          </ns3:TrackPointExtension>
        </extensions>
      </trkpt>
      <trkpt lat="42.54821495153009891510009765625" lon="20.1230302266776561737060546875">
        <ele>1970.5999755859375</ele>
        <time>2026-06-20T07:10:47.000Z</time>
        <extensions>
          <ns3:TrackPointExtension>
            <ns3:atemp>19.0</ns3:atemp>
          </ns3:TrackPointExtension>
        </extensions>
      </trkpt>
      <trkpt lat="42.54821495153009891510009765625" lon="20.1230302266776561737060546875">
        <ele>1970.5999755859375</ele>
        <time>2026-06-20T07:10:48.000Z</time>
        <extensions>
          <ns3:TrackPointExtension>
            <ns3:atemp>19.0</ns3:atemp>
          </ns3:TrackPointExtension>
        </extensions>
      </trkpt>
      <trkpt lat="42.54821495153009891510009765625" lon="20.1230302266776561737060546875">
        <ele>1970.5999755859375</ele>
        <time>2026-06-20T07:10:49.000Z</time>
        <extensions>
          <ns3:TrackPointExtension>
            <ns3:atemp>19.0</ns3:atemp>
          </ns3:TrackPointExtension>
        </extensions>
      </trkpt>
      <trkpt lat="42.54821495153009891510009765625" lon="20.1230302266776561737060546875">
        <ele>1970.5999755859375</ele>
        <time>2026-06-20T07:10:50.000Z</time>
        <extensions>
          <ns3:TrackPointExtension>
            <ns3:atemp>19.0</ns3:atemp>
          </ns3:TrackPointExtension>
        </extensions>
      </trkpt>
      <trkpt lat="42.54821495153009891510009765625" lon="20.1230302266776561737060546875">
        <ele>1970.5999755859375</ele>
        <time>2026-06-20T07:10:51.000Z</time>
        <extensions>
          <ns3:TrackPointExtension>
            <ns3:atemp>19.0</ns3:atemp>
          </ns3:TrackPointExtension>
        </extensions>
      </trkpt>
      <trkpt lat="42.54821495153009891510009765625" lon="20.1230302266776561737060546875">
        <ele>1970.5999755859375</ele>
        <time>2026-06-20T07:10:52.000Z</time>
        <extensions>
          <ns3:TrackPointExtension>
            <ns3:atemp>19.0</ns3:atemp>
          </ns3:TrackPointExtension>
        </extensions>
      </trkpt>
      <trkpt lat="42.54821495153009891510009765625" lon="20.1230302266776561737060546875">
        <ele>1970.5999755859375</ele>
        <time>2026-06-20T07:10:53.000Z</time>
        <extensions>
          <ns3:TrackPointExtension>
            <ns3:atemp>19.0</ns3:atemp>
          </ns3:TrackPointExtension>
        </extensions>
      </trkpt>
      <trkpt lat="42.54821495153009891510009765625" lon="20.1230302266776561737060546875">
        <ele>1970.5999755859375</ele>
        <time>2026-06-20T07:10:54.000Z</time>
        <extensions>
          <ns3:TrackPointExtension>
            <ns3:atemp>19.0</ns3:atemp>
          </ns3:TrackPointExtension>
        </extensions>
      </trkpt>
      <trkpt lat="42.54821495153009891510009765625" lon="20.1230302266776561737060546875">
        <ele>1970.5999755859375</ele>
        <time>2026-06-20T07:10:55.000Z</time>
        <extensions>
          <ns3:TrackPointExtension>
            <ns3:atemp>19.0</ns3:atemp>
          </ns3:TrackPointExtension>
        </extensions>
      </trkpt>
      <trkpt lat="42.54821495153009891510009765625" lon="20.1230302266776561737060546875">
        <ele>1970.5999755859375</ele>
        <time>2026-06-20T07:10:56.000Z</time>
        <extensions>
          <ns3:TrackPointExtension>
            <ns3:atemp>19.0</ns3:atemp>
          </ns3:TrackPointExtension>
        </extensions>
      </trkpt>
      <trkpt lat="42.54821495153009891510009765625" lon="20.1230302266776561737060546875">
        <ele>1970.5999755859375</ele>
        <time>2026-06-20T07:10:57.000Z</time>
        <extensions>
          <ns3:TrackPointExtension>
            <ns3:atemp>19.0</ns3:atemp>
          </ns3:TrackPointExtension>
        </extensions>
      </trkpt>
      <trkpt lat="42.54821495153009891510009765625" lon="20.1230302266776561737060546875">
        <ele>1970.5999755859375</ele>
        <time>2026-06-20T07:10:58.000Z</time>
        <extensions>
          <ns3:TrackPointExtension>
            <ns3:atemp>19.0</ns3:atemp>
          </ns3:TrackPointExtension>
        </extensions>
      </trkpt>
      <trkpt lat="42.54821495153009891510009765625" lon="20.1230302266776561737060546875">
        <ele>1970.5999755859375</ele>
        <time>2026-06-20T07:10:59.000Z</time>
        <extensions>
          <ns3:TrackPointExtension>
            <ns3:atemp>19.0</ns3:atemp>
          </ns3:TrackPointExtension>
        </extensions>
      </trkpt>
      <trkpt lat="42.54821495153009891510009765625" lon="20.1230302266776561737060546875">
        <ele>1970.5999755859375</ele>
        <time>2026-06-20T07:11:00.000Z</time>
        <extensions>
          <ns3:TrackPointExtension>
            <ns3:atemp>19.0</ns3:atemp>
          </ns3:TrackPointExtension>
        </extensions>
      </trkpt>
      <trkpt lat="42.54821495153009891510009765625" lon="20.1230302266776561737060546875">
        <ele>1970.4000244140625</ele>
        <time>2026-06-20T07:11:01.000Z</time>
        <extensions>
          <ns3:TrackPointExtension>
            <ns3:atemp>19.0</ns3:atemp>
          </ns3:TrackPointExtension>
        </extensions>
      </trkpt>
      <trkpt lat="42.54821495153009891510009765625" lon="20.1230302266776561737060546875">
        <ele>1970.4000244140625</ele>
        <time>2026-06-20T07:11:02.000Z</time>
        <extensions>
          <ns3:TrackPointExtension>
            <ns3:atemp>19.0</ns3:atemp>
          </ns3:TrackPointExtension>
        </extensions>
      </trkpt>
      <trkpt lat="42.54821495153009891510009765625" lon="20.1230302266776561737060546875">
        <ele>1970.4000244140625</ele>
        <time>2026-06-20T07:11:03.000Z</time>
        <extensions>
          <ns3:TrackPointExtension>
            <ns3:atemp>19.0</ns3:atemp>
          </ns3:TrackPointExtension>
        </extensions>
      </trkpt>
      <trkpt lat="42.54821495153009891510009765625" lon="20.1230302266776561737060546875">
        <ele>1970.4000244140625</ele>
        <time>2026-06-20T07:11:04.000Z</time>
        <extensions>
          <ns3:TrackPointExtension>
            <ns3:atemp>19.0</ns3:atemp>
          </ns3:TrackPointExtension>
        </extensions>
      </trkpt>
      <trkpt lat="42.54821495153009891510009765625" lon="20.1230302266776561737060546875">
        <ele>1970.4000244140625</ele>
        <time>2026-06-20T07:11:05.000Z</time>
        <extensions>
          <ns3:TrackPointExtension>
            <ns3:atemp>19.0</ns3:atemp>
          </ns3:TrackPointExtension>
        </extensions>
      </trkpt>
      <trkpt lat="42.54821495153009891510009765625" lon="20.1230302266776561737060546875">
        <ele>1970.4000244140625</ele>
        <time>2026-06-20T07:11:06.000Z</time>
        <extensions>
          <ns3:TrackPointExtension>
            <ns3:atemp>19.0</ns3:atemp>
          </ns3:TrackPointExtension>
        </extensions>
      </trkpt>
      <trkpt lat="42.54821495153009891510009765625" lon="20.1230302266776561737060546875">
        <ele>1970.199951171875</ele>
        <time>2026-06-20T07:11:07.000Z</time>
        <extensions>
          <ns3:TrackPointExtension>
            <ns3:atemp>19.0</ns3:atemp>
          </ns3:TrackPointExtension>
        </extensions>
      </trkpt>
      <trkpt lat="42.54821495153009891510009765625" lon="20.1230302266776561737060546875">
        <ele>1970.199951171875</ele>
        <time>2026-06-20T07:11:08.000Z</time>
        <extensions>
          <ns3:TrackPointExtension>
            <ns3:atemp>19.0</ns3:atemp>
          </ns3:TrackPointExtension>
        </extensions>
      </trkpt>
      <trkpt lat="42.54821495153009891510009765625" lon="20.1230302266776561737060546875">
        <ele>1970.199951171875</ele>
        <time>2026-06-20T07:11:09.000Z</time>
        <extensions>
          <ns3:TrackPointExtension>
            <ns3:atemp>19.0</ns3:atemp>
          </ns3:TrackPointExtension>
        </extensions>
      </trkpt>
      <trkpt lat="42.54821495153009891510009765625" lon="20.1230302266776561737060546875">
        <ele>1970.199951171875</ele>
        <time>2026-06-20T07:11:10.000Z</time>
        <extensions>
          <ns3:TrackPointExtension>
            <ns3:atemp>19.0</ns3:atemp>
          </ns3:TrackPointExtension>
        </extensions>
      </trkpt>
      <trkpt lat="42.54821495153009891510009765625" lon="20.1230302266776561737060546875">
        <ele>1970.199951171875</ele>
        <time>2026-06-20T07:11:11.000Z</time>
        <extensions>
          <ns3:TrackPointExtension>
            <ns3:atemp>19.0</ns3:atemp>
          </ns3:TrackPointExtension>
        </extensions>
      </trkpt>
      <trkpt lat="42.54821495153009891510009765625" lon="20.1230302266776561737060546875">
        <ele>1970.4000244140625</ele>
        <time>2026-06-20T07:11:12.000Z</time>
        <extensions>
          <ns3:TrackPointExtension>
            <ns3:atemp>19.0</ns3:atemp>
          </ns3:TrackPointExtension>
        </extensions>
      </trkpt>
      <trkpt lat="42.54821495153009891510009765625" lon="20.1230302266776561737060546875">
        <ele>1970.4000244140625</ele>
        <time>2026-06-20T07:11:13.000Z</time>
        <extensions>
          <ns3:TrackPointExtension>
            <ns3:atemp>19.0</ns3:atemp>
          </ns3:TrackPointExtension>
        </extensions>
      </trkpt>
      <trkpt lat="42.54821495153009891510009765625" lon="20.1230302266776561737060546875">
        <ele>1970.4000244140625</ele>
        <time>2026-06-20T07:11:14.000Z</time>
        <extensions>
          <ns3:TrackPointExtension>
            <ns3:atemp>19.0</ns3:atemp>
          </ns3:TrackPointExtension>
        </extensions>
      </trkpt>
      <trkpt lat="42.54821495153009891510009765625" lon="20.1230302266776561737060546875">
        <ele>1970.4000244140625</ele>
        <time>2026-06-20T07:11:15.000Z</time>
        <extensions>
          <ns3:TrackPointExtension>
            <ns3:atemp>19.0</ns3:atemp>
          </ns3:TrackPointExtension>
        </extensions>
      </trkpt>
      <trkpt lat="42.54821495153009891510009765625" lon="20.1230302266776561737060546875">
        <ele>1970.4000244140625</ele>
        <time>2026-06-20T07:11:16.000Z</time>
        <extensions>
          <ns3:TrackPointExtension>
            <ns3:atemp>19.0</ns3:atemp>
          </ns3:TrackPointExtension>
        </extensions>
      </trkpt>
      <trkpt lat="42.54821495153009891510009765625" lon="20.1230302266776561737060546875">
        <ele>1970.199951171875</ele>
        <time>2026-06-20T07:11:17.000Z</time>
        <extensions>
          <ns3:TrackPointExtension>
            <ns3:atemp>19.0</ns3:atemp>
          </ns3:TrackPointExtension>
        </extensions>
      </trkpt>
      <trkpt lat="42.54821495153009891510009765625" lon="20.1230302266776561737060546875">
        <ele>1970.199951171875</ele>
        <time>2026-06-20T07:11:18.000Z</time>
        <extensions>
          <ns3:TrackPointExtension>
            <ns3:atemp>19.0</ns3:atemp>
          </ns3:TrackPointExtension>
        </extensions>
      </trkpt>
      <trkpt lat="42.54821495153009891510009765625" lon="20.1230302266776561737060546875">
        <ele>1970.199951171875</ele>
        <time>2026-06-20T07:11:19.000Z</time>
        <extensions>
          <ns3:TrackPointExtension>
            <ns3:atemp>19.0</ns3:atemp>
          </ns3:TrackPointExtension>
        </extensions>
      </trkpt>
      <trkpt lat="42.54821495153009891510009765625" lon="20.1230302266776561737060546875">
        <ele>1970.199951171875</ele>
        <time>2026-06-20T07:11:20.000Z</time>
        <extensions>
          <ns3:TrackPointExtension>
            <ns3:atemp>19.0</ns3:atemp>
          </ns3:TrackPointExtension>
        </extensions>
      </trkpt>
      <trkpt lat="42.54821495153009891510009765625" lon="20.1230302266776561737060546875">
        <ele>1970.199951171875</ele>
        <time>2026-06-20T07:11:21.000Z</time>
        <extensions>
          <ns3:TrackPointExtension>
            <ns3:atemp>19.0</ns3:atemp>
          </ns3:TrackPointExtension>
        </extensions>
      </trkpt>
      <trkpt lat="42.54821495153009891510009765625" lon="20.1230302266776561737060546875">
        <ele>1970.199951171875</ele>
        <time>2026-06-20T07:11:22.000Z</time>
        <extensions>
          <ns3:TrackPointExtension>
            <ns3:atemp>19.0</ns3:atemp>
          </ns3:TrackPointExtension>
        </extensions>
      </trkpt>
      <trkpt lat="42.54821495153009891510009765625" lon="20.1230302266776561737060546875">
        <ele>1970</ele>
        <time>2026-06-20T07:11:23.000Z</time>
        <extensions>
          <ns3:TrackPointExtension>
            <ns3:atemp>19.0</ns3:atemp>
          </ns3:TrackPointExtension>
        </extensions>
      </trkpt>
      <trkpt lat="42.54821495153009891510009765625" lon="20.1230302266776561737060546875">
        <ele>1970</ele>
        <time>2026-06-20T07:11:24.000Z</time>
        <extensions>
          <ns3:TrackPointExtension>
            <ns3:atemp>19.0</ns3:atemp>
          </ns3:TrackPointExtension>
        </extensions>
      </trkpt>
      <trkpt lat="42.54821495153009891510009765625" lon="20.1230302266776561737060546875">
        <ele>1970</ele>
        <time>2026-06-20T07:11:25.000Z</time>
        <extensions>
          <ns3:TrackPointExtension>
            <ns3:atemp>19.0</ns3:atemp>
          </ns3:TrackPointExtension>
        </extensions>
      </trkpt>
      <trkpt lat="42.54821495153009891510009765625" lon="20.1230302266776561737060546875">
        <ele>1970</ele>
        <time>2026-06-20T07:11:26.000Z</time>
        <extensions>
          <ns3:TrackPointExtension>
            <ns3:atemp>19.0</ns3:atemp>
          </ns3:TrackPointExtension>
        </extensions>
      </trkpt>
      <trkpt lat="42.54821495153009891510009765625" lon="20.1230302266776561737060546875">
        <ele>1970</ele>
        <time>2026-06-20T07:11:27.000Z</time>
        <extensions>
          <ns3:TrackPointExtension>
            <ns3:atemp>19.0</ns3:atemp>
          </ns3:TrackPointExtension>
        </extensions>
      </trkpt>
      <trkpt lat="42.54821495153009891510009765625" lon="20.1230302266776561737060546875">
        <ele>1970</ele>
        <time>2026-06-20T07:11:28.000Z</time>
        <extensions>
          <ns3:TrackPointExtension>
            <ns3:atemp>19.0</ns3:atemp>
          </ns3:TrackPointExtension>
        </extensions>
      </trkpt>
      <trkpt lat="42.54821495153009891510009765625" lon="20.1230302266776561737060546875">
        <ele>1970</ele>
        <time>2026-06-20T07:11:29.000Z</time>
        <extensions>
          <ns3:TrackPointExtension>
            <ns3:atemp>19.0</ns3:atemp>
          </ns3:TrackPointExtension>
        </extensions>
      </trkpt>
      <trkpt lat="42.54821495153009891510009765625" lon="20.1230302266776561737060546875">
        <ele>1970</ele>
        <time>2026-06-20T07:11:30.000Z</time>
        <extensions>
          <ns3:TrackPointExtension>
            <ns3:atemp>19.0</ns3:atemp>
          </ns3:TrackPointExtension>
        </extensions>
      </trkpt>
      <trkpt lat="42.54821495153009891510009765625" lon="20.1230302266776561737060546875">
        <ele>1970.199951171875</ele>
        <time>2026-06-20T07:11:31.000Z</time>
        <extensions>
          <ns3:TrackPointExtension>
            <ns3:atemp>19.0</ns3:atemp>
          </ns3:TrackPointExtension>
        </extensions>
      </trkpt>
      <trkpt lat="42.54821495153009891510009765625" lon="20.1230302266776561737060546875">
        <ele>1970.199951171875</ele>
        <time>2026-06-20T07:11:32.000Z</time>
        <extensions>
          <ns3:TrackPointExtension>
            <ns3:atemp>19.0</ns3:atemp>
          </ns3:TrackPointExtension>
        </extensions>
      </trkpt>
      <trkpt lat="42.54821495153009891510009765625" lon="20.1230302266776561737060546875">
        <ele>1970.199951171875</ele>
        <time>2026-06-20T07:11:33.000Z</time>
        <extensions>
          <ns3:TrackPointExtension>
            <ns3:atemp>19.0</ns3:atemp>
          </ns3:TrackPointExtension>
        </extensions>
      </trkpt>
      <trkpt lat="42.54821495153009891510009765625" lon="20.1230302266776561737060546875">
        <ele>1970.199951171875</ele>
        <time>2026-06-20T07:11:34.000Z</time>
        <extensions>
          <ns3:TrackPointExtension>
            <ns3:atemp>19.0</ns3:atemp>
          </ns3:TrackPointExtension>
        </extensions>
      </trkpt>
      <trkpt lat="42.54821495153009891510009765625" lon="20.1230302266776561737060546875">
        <ele>1970.199951171875</ele>
        <time>2026-06-20T07:11:35.000Z</time>
        <extensions>
          <ns3:TrackPointExtension>
            <ns3:atemp>19.0</ns3:atemp>
          </ns3:TrackPointExtension>
        </extensions>
      </trkpt>
      <trkpt lat="42.54821495153009891510009765625" lon="20.1230302266776561737060546875">
        <ele>1970.199951171875</ele>
        <time>2026-06-20T07:11:36.000Z</time>
        <extensions>
          <ns3:TrackPointExtension>
            <ns3:atemp>19.0</ns3:atemp>
          </ns3:TrackPointExtension>
        </extensions>
      </trkpt>
      <trkpt lat="42.54821495153009891510009765625" lon="20.1230302266776561737060546875">
        <ele>1970.199951171875</ele>
        <time>2026-06-20T07:11:37.000Z</time>
        <extensions>
          <ns3:TrackPointExtension>
            <ns3:atemp>19.0</ns3:atemp>
          </ns3:TrackPointExtension>
        </extensions>
      </trkpt>
      <trkpt lat="42.54821495153009891510009765625" lon="20.1230302266776561737060546875">
        <ele>1970.199951171875</ele>
        <time>2026-06-20T07:11:38.000Z</time>
        <extensions>
          <ns3:TrackPointExtension>
            <ns3:atemp>19.0</ns3:atemp>
          </ns3:TrackPointExtension>
        </extensions>
      </trkpt>
      <trkpt lat="42.54821495153009891510009765625" lon="20.1230302266776561737060546875">
        <ele>1970.199951171875</ele>
        <time>2026-06-20T07:11:39.000Z</time>
        <extensions>
          <ns3:TrackPointExtension>
            <ns3:atemp>19.0</ns3:atemp>
          </ns3:TrackPointExtension>
        </extensions>
      </trkpt>
      <trkpt lat="42.54821495153009891510009765625" lon="20.1230302266776561737060546875">
        <ele>1970.199951171875</ele>
        <time>2026-06-20T07:11:40.000Z</time>
        <extensions>
          <ns3:TrackPointExtension>
            <ns3:atemp>19.0</ns3:atemp>
          </ns3:TrackPointExtension>
        </extensions>
      </trkpt>
      <trkpt lat="42.54821495153009891510009765625" lon="20.1230302266776561737060546875">
        <ele>1970.4000244140625</ele>
        <time>2026-06-20T07:11:41.000Z</time>
        <extensions>
          <ns3:TrackPointExtension>
            <ns3:atemp>19.0</ns3:atemp>
          </ns3:TrackPointExtension>
        </extensions>
      </trkpt>
      <trkpt lat="42.54821495153009891510009765625" lon="20.1230302266776561737060546875">
        <ele>1970.4000244140625</ele>
        <time>2026-06-20T07:11:42.000Z</time>
        <extensions>
          <ns3:TrackPointExtension>
            <ns3:atemp>19.0</ns3:atemp>
          </ns3:TrackPointExtension>
        </extensions>
      </trkpt>
      <trkpt lat="42.54821495153009891510009765625" lon="20.1230302266776561737060546875">
        <ele>1970.4000244140625</ele>
        <time>2026-06-20T07:11:43.000Z</time>
        <extensions>
          <ns3:TrackPointExtension>
            <ns3:atemp>19.0</ns3:atemp>
          </ns3:TrackPointExtension>
        </extensions>
      </trkpt>
      <trkpt lat="42.54821495153009891510009765625" lon="20.1230302266776561737060546875">
        <ele>1970.4000244140625</ele>
        <time>2026-06-20T07:11:44.000Z</time>
        <extensions>
          <ns3:TrackPointExtension>
            <ns3:atemp>19.0</ns3:atemp>
          </ns3:TrackPointExtension>
        </extensions>
      </trkpt>
      <trkpt lat="42.54821495153009891510009765625" lon="20.1230302266776561737060546875">
        <ele>1970.4000244140625</ele>
        <time>2026-06-20T07:11:45.000Z</time>
        <extensions>
          <ns3:TrackPointExtension>
            <ns3:atemp>19.0</ns3:atemp>
          </ns3:TrackPointExtension>
        </extensions>
      </trkpt>
      <trkpt lat="42.54821495153009891510009765625" lon="20.1230302266776561737060546875">
        <ele>1970.4000244140625</ele>
        <time>2026-06-20T07:11:46.000Z</time>
        <extensions>
          <ns3:TrackPointExtension>
            <ns3:atemp>19.0</ns3:atemp>
          </ns3:TrackPointExtension>
        </extensions>
      </trkpt>
      <trkpt lat="42.54821495153009891510009765625" lon="20.1230302266776561737060546875">
        <ele>1970.4000244140625</ele>
        <time>2026-06-20T07:11:47.000Z</time>
        <extensions>
          <ns3:TrackPointExtension>
            <ns3:atemp>19.0</ns3:atemp>
          </ns3:TrackPointExtension>
        </extensions>
      </trkpt>
      <trkpt lat="42.54821495153009891510009765625" lon="20.1230302266776561737060546875">
        <ele>1970.4000244140625</ele>
        <time>2026-06-20T07:11:48.000Z</time>
        <extensions>
          <ns3:TrackPointExtension>
            <ns3:atemp>19.0</ns3:atemp>
          </ns3:TrackPointExtension>
        </extensions>
      </trkpt>
      <trkpt lat="42.54821495153009891510009765625" lon="20.1230302266776561737060546875">
        <ele>1970.199951171875</ele>
        <time>2026-06-20T07:11:49.000Z</time>
        <extensions>
          <ns3:TrackPointExtension>
            <ns3:atemp>19.0</ns3:atemp>
          </ns3:TrackPointExtension>
        </extensions>
      </trkpt>
      <trkpt lat="42.54821495153009891510009765625" lon="20.1230302266776561737060546875">
        <ele>1970.199951171875</ele>
        <time>2026-06-20T07:11:50.000Z</time>
        <extensions>
          <ns3:TrackPointExtension>
            <ns3:atemp>19.0</ns3:atemp>
          </ns3:TrackPointExtension>
        </extensions>
      </trkpt>
      <trkpt lat="42.54821495153009891510009765625" lon="20.1230302266776561737060546875">
        <ele>1970.199951171875</ele>
        <time>2026-06-20T07:11:51.000Z</time>
        <extensions>
          <ns3:TrackPointExtension>
            <ns3:atemp>19.0</ns3:atemp>
          </ns3:TrackPointExtension>
        </extensions>
      </trkpt>
      <trkpt lat="42.54821495153009891510009765625" lon="20.1230302266776561737060546875">
        <ele>1970</ele>
        <time>2026-06-20T07:11:52.000Z</time>
        <extensions>
          <ns3:TrackPointExtension>
            <ns3:atemp>19.0</ns3:atemp>
          </ns3:TrackPointExtension>
        </extensions>
      </trkpt>
      <trkpt lat="42.54821495153009891510009765625" lon="20.1230302266776561737060546875">
        <ele>1970</ele>
        <time>2026-06-20T07:11:53.000Z</time>
        <extensions>
          <ns3:TrackPointExtension>
            <ns3:atemp>19.0</ns3:atemp>
          </ns3:TrackPointExtension>
        </extensions>
      </trkpt>
      <trkpt lat="42.54821495153009891510009765625" lon="20.1230302266776561737060546875">
        <ele>1970</ele>
        <time>2026-06-20T07:11:54.000Z</time>
        <extensions>
          <ns3:TrackPointExtension>
            <ns3:atemp>19.0</ns3:atemp>
          </ns3:TrackPointExtension>
        </extensions>
      </trkpt>
      <trkpt lat="42.54821495153009891510009765625" lon="20.1230302266776561737060546875">
        <ele>1970</ele>
        <time>2026-06-20T07:11:55.000Z</time>
        <extensions>
          <ns3:TrackPointExtension>
            <ns3:atemp>19.0</ns3:atemp>
          </ns3:TrackPointExtension>
        </extensions>
      </trkpt>
      <trkpt lat="42.54821495153009891510009765625" lon="20.1230302266776561737060546875">
        <ele>1970</ele>
        <time>2026-06-20T07:11:56.000Z</time>
        <extensions>
          <ns3:TrackPointExtension>
            <ns3:atemp>19.0</ns3:atemp>
          </ns3:TrackPointExtension>
        </extensions>
      </trkpt>
      <trkpt lat="42.54821495153009891510009765625" lon="20.1230302266776561737060546875">
        <ele>1970</ele>
        <time>2026-06-20T07:11:57.000Z</time>
        <extensions>
          <ns3:TrackPointExtension>
            <ns3:atemp>19.0</ns3:atemp>
          </ns3:TrackPointExtension>
        </extensions>
      </trkpt>
      <trkpt lat="42.54821495153009891510009765625" lon="20.1230302266776561737060546875">
        <ele>1970</ele>
        <time>2026-06-20T07:11:58.000Z</time>
        <extensions>
          <ns3:TrackPointExtension>
            <ns3:atemp>19.0</ns3:atemp>
          </ns3:TrackPointExtension>
        </extensions>
      </trkpt>
      <trkpt lat="42.54821495153009891510009765625" lon="20.1230302266776561737060546875">
        <ele>1970</ele>
        <time>2026-06-20T07:11:59.000Z</time>
        <extensions>
          <ns3:TrackPointExtension>
            <ns3:atemp>19.0</ns3:atemp>
          </ns3:TrackPointExtension>
        </extensions>
      </trkpt>
      <trkpt lat="42.54821495153009891510009765625" lon="20.1230302266776561737060546875">
        <ele>1970</ele>
        <time>2026-06-20T07:12:00.000Z</time>
        <extensions>
          <ns3:TrackPointExtension>
            <ns3:atemp>19.0</ns3:atemp>
          </ns3:TrackPointExtension>
        </extensions>
      </trkpt>
      <trkpt lat="42.54821495153009891510009765625" lon="20.1230302266776561737060546875">
        <ele>1970</ele>
        <time>2026-06-20T07:12:01.000Z</time>
        <extensions>
          <ns3:TrackPointExtension>
            <ns3:atemp>19.0</ns3:atemp>
          </ns3:TrackPointExtension>
        </extensions>
      </trkpt>
      <trkpt lat="42.54821495153009891510009765625" lon="20.1230302266776561737060546875">
        <ele>1970</ele>
        <time>2026-06-20T07:12:02.000Z</time>
        <extensions>
          <ns3:TrackPointExtension>
            <ns3:atemp>19.0</ns3:atemp>
          </ns3:TrackPointExtension>
        </extensions>
      </trkpt>
      <trkpt lat="42.54821495153009891510009765625" lon="20.1230302266776561737060546875">
        <ele>1970</ele>
        <time>2026-06-20T07:12:03.000Z</time>
        <extensions>
          <ns3:TrackPointExtension>
            <ns3:atemp>19.0</ns3:atemp>
          </ns3:TrackPointExtension>
        </extensions>
      </trkpt>
      <trkpt lat="42.54821495153009891510009765625" lon="20.1230302266776561737060546875">
        <ele>1970</ele>
        <time>2026-06-20T07:12:04.000Z</time>
        <extensions>
          <ns3:TrackPointExtension>
            <ns3:atemp>19.0</ns3:atemp>
          </ns3:TrackPointExtension>
        </extensions>
      </trkpt>
      <trkpt lat="42.54821495153009891510009765625" lon="20.1230302266776561737060546875">
        <ele>1970</ele>
        <time>2026-06-20T07:12:05.000Z</time>
        <extensions>
          <ns3:TrackPointExtension>
            <ns3:atemp>19.0</ns3:atemp>
          </ns3:TrackPointExtension>
        </extensions>
      </trkpt>
      <trkpt lat="42.54821495153009891510009765625" lon="20.1230302266776561737060546875">
        <ele>1970</ele>
        <time>2026-06-20T07:12:06.000Z</time>
        <extensions>
          <ns3:TrackPointExtension>
            <ns3:atemp>19.0</ns3:atemp>
          </ns3:TrackPointExtension>
        </extensions>
      </trkpt>
      <trkpt lat="42.54821495153009891510009765625" lon="20.1230302266776561737060546875">
        <ele>1970</ele>
        <time>2026-06-20T07:12:07.000Z</time>
        <extensions>
          <ns3:TrackPointExtension>
            <ns3:atemp>19.0</ns3:atemp>
          </ns3:TrackPointExtension>
        </extensions>
      </trkpt>
      <trkpt lat="42.54821495153009891510009765625" lon="20.1230302266776561737060546875">
        <ele>1970</ele>
        <time>2026-06-20T07:12:08.000Z</time>
        <extensions>
          <ns3:TrackPointExtension>
            <ns3:atemp>19.0</ns3:atemp>
          </ns3:TrackPointExtension>
        </extensions>
      </trkpt>
      <trkpt lat="42.54821495153009891510009765625" lon="20.1230302266776561737060546875">
        <ele>1970</ele>
        <time>2026-06-20T07:12:09.000Z</time>
        <extensions>
          <ns3:TrackPointExtension>
            <ns3:atemp>19.0</ns3:atemp>
          </ns3:TrackPointExtension>
        </extensions>
      </trkpt>
      <trkpt lat="42.54821495153009891510009765625" lon="20.1230302266776561737060546875">
        <ele>1970</ele>
        <time>2026-06-20T07:12:10.000Z</time>
        <extensions>
          <ns3:TrackPointExtension>
            <ns3:atemp>19.0</ns3:atemp>
          </ns3:TrackPointExtension>
        </extensions>
      </trkpt>
      <trkpt lat="42.54821495153009891510009765625" lon="20.1230302266776561737060546875">
        <ele>1970</ele>
        <time>2026-06-20T07:12:11.000Z</time>
        <extensions>
          <ns3:TrackPointExtension>
            <ns3:atemp>19.0</ns3:atemp>
          </ns3:TrackPointExtension>
        </extensions>
      </trkpt>
      <trkpt lat="42.54821495153009891510009765625" lon="20.1230302266776561737060546875">
        <ele>1970</ele>
        <time>2026-06-20T07:12:12.000Z</time>
        <extensions>
          <ns3:TrackPointExtension>
            <ns3:atemp>19.0</ns3:atemp>
          </ns3:TrackPointExtension>
        </extensions>
      </trkpt>
      <trkpt lat="42.54821495153009891510009765625" lon="20.1230302266776561737060546875">
        <ele>1970</ele>
        <time>2026-06-20T07:12:13.000Z</time>
        <extensions>
          <ns3:TrackPointExtension>
            <ns3:atemp>19.0</ns3:atemp>
          </ns3:TrackPointExtension>
        </extensions>
      </trkpt>
      <trkpt lat="42.54821495153009891510009765625" lon="20.1230302266776561737060546875">
        <ele>1970</ele>
        <time>2026-06-20T07:12:14.000Z</time>
        <extensions>
          <ns3:TrackPointExtension>
            <ns3:atemp>19.0</ns3:atemp>
          </ns3:TrackPointExtension>
        </extensions>
      </trkpt>
      <trkpt lat="42.54821495153009891510009765625" lon="20.1230302266776561737060546875">
        <ele>1970</ele>
        <time>2026-06-20T07:12:15.000Z</time>
        <extensions>
          <ns3:TrackPointExtension>
            <ns3:atemp>19.0</ns3:atemp>
          </ns3:TrackPointExtension>
        </extensions>
      </trkpt>
      <trkpt lat="42.54821495153009891510009765625" lon="20.1230302266776561737060546875">
        <ele>1970</ele>
        <time>2026-06-20T07:12:16.000Z</time>
        <extensions>
          <ns3:TrackPointExtension>
            <ns3:atemp>19.0</ns3:atemp>
          </ns3:TrackPointExtension>
        </extensions>
      </trkpt>
      <trkpt lat="42.54821495153009891510009765625" lon="20.1230302266776561737060546875">
        <ele>1970</ele>
        <time>2026-06-20T07:12:17.000Z</time>
        <extensions>
          <ns3:TrackPointExtension>
            <ns3:atemp>19.0</ns3:atemp>
          </ns3:TrackPointExtension>
        </extensions>
      </trkpt>
      <trkpt lat="42.54821495153009891510009765625" lon="20.1230302266776561737060546875">
        <ele>1970</ele>
        <time>2026-06-20T07:12:18.000Z</time>
        <extensions>
          <ns3:TrackPointExtension>
            <ns3:atemp>19.0</ns3:atemp>
          </ns3:TrackPointExtension>
        </extensions>
      </trkpt>
      <trkpt lat="42.54821495153009891510009765625" lon="20.1230302266776561737060546875">
        <ele>1970</ele>
        <time>2026-06-20T07:12:19.000Z</time>
        <extensions>
          <ns3:TrackPointExtension>
            <ns3:atemp>19.0</ns3:atemp>
          </ns3:TrackPointExtension>
        </extensions>
      </trkpt>
      <trkpt lat="42.54821495153009891510009765625" lon="20.1230302266776561737060546875">
        <ele>1970</ele>
        <time>2026-06-20T07:12:20.000Z</time>
        <extensions>
          <ns3:TrackPointExtension>
            <ns3:atemp>19.0</ns3:atemp>
          </ns3:TrackPointExtension>
        </extensions>
      </trkpt>
      <trkpt lat="42.54821495153009891510009765625" lon="20.1230302266776561737060546875">
        <ele>1970</ele>
        <time>2026-06-20T07:12:21.000Z</time>
        <extensions>
          <ns3:TrackPointExtension>
            <ns3:atemp>19.0</ns3:atemp>
          </ns3:TrackPointExtension>
        </extensions>
      </trkpt>
      <trkpt lat="42.54821495153009891510009765625" lon="20.1230302266776561737060546875">
        <ele>1970</ele>
        <time>2026-06-20T07:12:22.000Z</time>
        <extensions>
          <ns3:TrackPointExtension>
            <ns3:atemp>19.0</ns3:atemp>
          </ns3:TrackPointExtension>
        </extensions>
      </trkpt>
      <trkpt lat="42.54821495153009891510009765625" lon="20.1230302266776561737060546875">
        <ele>1970</ele>
        <time>2026-06-20T07:12:23.000Z</time>
        <extensions>
          <ns3:TrackPointExtension>
            <ns3:atemp>19.0</ns3:atemp>
          </ns3:TrackPointExtension>
        </extensions>
      </trkpt>
      <trkpt lat="42.54821495153009891510009765625" lon="20.1230302266776561737060546875">
        <ele>1970</ele>
        <time>2026-06-20T07:12:24.000Z</time>
        <extensions>
          <ns3:TrackPointExtension>
            <ns3:atemp>19.0</ns3:atemp>
          </ns3:TrackPointExtension>
        </extensions>
      </trkpt>
      <trkpt lat="42.54821495153009891510009765625" lon="20.1230302266776561737060546875">
        <ele>1970</ele>
        <time>2026-06-20T07:12:25.000Z</time>
        <extensions>
          <ns3:TrackPointExtension>
            <ns3:atemp>19.0</ns3:atemp>
          </ns3:TrackPointExtension>
        </extensions>
      </trkpt>
      <trkpt lat="42.54821495153009891510009765625" lon="20.1230302266776561737060546875">
        <ele>1970</ele>
        <time>2026-06-20T07:12:26.000Z</time>
        <extensions>
          <ns3:TrackPointExtension>
            <ns3:atemp>19.0</ns3:atemp>
          </ns3:TrackPointExtension>
        </extensions>
      </trkpt>
      <trkpt lat="42.54821495153009891510009765625" lon="20.1230302266776561737060546875">
        <ele>1970</ele>
        <time>2026-06-20T07:12:27.000Z</time>
        <extensions>
          <ns3:TrackPointExtension>
            <ns3:atemp>19.0</ns3:atemp>
          </ns3:TrackPointExtension>
        </extensions>
      </trkpt>
      <trkpt lat="42.54821495153009891510009765625" lon="20.1230302266776561737060546875">
        <ele>1970</ele>
        <time>2026-06-20T07:12:28.000Z</time>
        <extensions>
          <ns3:TrackPointExtension>
            <ns3:atemp>19.0</ns3:atemp>
          </ns3:TrackPointExtension>
        </extensions>
      </trkpt>
      <trkpt lat="42.54821495153009891510009765625" lon="20.1230302266776561737060546875">
        <ele>1970</ele>
        <time>2026-06-20T07:12:29.000Z</time>
        <extensions>
          <ns3:TrackPointExtension>
            <ns3:atemp>19.0</ns3:atemp>
          </ns3:TrackPointExtension>
        </extensions>
      </trkpt>
      <trkpt lat="42.54821495153009891510009765625" lon="20.1230302266776561737060546875">
        <ele>1970</ele>
        <time>2026-06-20T07:12:30.000Z</time>
        <extensions>
          <ns3:TrackPointExtension>
            <ns3:atemp>19.0</ns3:atemp>
          </ns3:TrackPointExtension>
        </extensions>
      </trkpt>
      <trkpt lat="42.54821495153009891510009765625" lon="20.1230302266776561737060546875">
        <ele>1970</ele>
        <time>2026-06-20T07:12:31.000Z</time>
        <extensions>
          <ns3:TrackPointExtension>
            <ns3:atemp>19.0</ns3:atemp>
          </ns3:TrackPointExtension>
        </extensions>
      </trkpt>
      <trkpt lat="42.54821495153009891510009765625" lon="20.1230302266776561737060546875">
        <ele>1970</ele>
        <time>2026-06-20T07:12:32.000Z</time>
        <extensions>
          <ns3:TrackPointExtension>
            <ns3:atemp>19.0</ns3:atemp>
          </ns3:TrackPointExtension>
        </extensions>
      </trkpt>
      <trkpt lat="42.54821495153009891510009765625" lon="20.1230302266776561737060546875">
        <ele>1970</ele>
        <time>2026-06-20T07:12:33.000Z</time>
        <extensions>
          <ns3:TrackPointExtension>
            <ns3:atemp>19.0</ns3:atemp>
          </ns3:TrackPointExtension>
        </extensions>
      </trkpt>
      <trkpt lat="42.54821495153009891510009765625" lon="20.1230302266776561737060546875">
        <ele>1970</ele>
        <time>2026-06-20T07:12:34.000Z</time>
        <extensions>
          <ns3:TrackPointExtension>
            <ns3:atemp>19.0</ns3:atemp>
          </ns3:TrackPointExtension>
        </extensions>
      </trkpt>
      <trkpt lat="42.54821495153009891510009765625" lon="20.1230302266776561737060546875">
        <ele>1970</ele>
        <time>2026-06-20T07:12:35.000Z</time>
        <extensions>
          <ns3:TrackPointExtension>
            <ns3:atemp>19.0</ns3:atemp>
          </ns3:TrackPointExtension>
        </extensions>
      </trkpt>
      <trkpt lat="42.54821495153009891510009765625" lon="20.1230302266776561737060546875">
        <ele>1970</ele>
        <time>2026-06-20T07:12:36.000Z</time>
        <extensions>
          <ns3:TrackPointExtension>
            <ns3:atemp>19.0</ns3:atemp>
          </ns3:TrackPointExtension>
        </extensions>
      </trkpt>
      <trkpt lat="42.54821495153009891510009765625" lon="20.1230302266776561737060546875">
        <ele>1970</ele>
        <time>2026-06-20T07:12:37.000Z</time>
        <extensions>
          <ns3:TrackPointExtension>
            <ns3:atemp>19.0</ns3:atemp>
          </ns3:TrackPointExtension>
        </extensions>
      </trkpt>
      <trkpt lat="42.54821495153009891510009765625" lon="20.1230302266776561737060546875">
        <ele>1970</ele>
        <time>2026-06-20T07:12:38.000Z</time>
        <extensions>
          <ns3:TrackPointExtension>
            <ns3:atemp>19.0</ns3:atemp>
          </ns3:TrackPointExtension>
        </extensions>
      </trkpt>
      <trkpt lat="42.54821495153009891510009765625" lon="20.1230302266776561737060546875">
        <ele>1970</ele>
        <time>2026-06-20T07:12:39.000Z</time>
        <extensions>
          <ns3:TrackPointExtension>
            <ns3:atemp>19.0</ns3:atemp>
          </ns3:TrackPointExtension>
        </extensions>
      </trkpt>
      <trkpt lat="42.54821495153009891510009765625" lon="20.1230302266776561737060546875">
        <ele>1970</ele>
        <time>2026-06-20T07:12:40.000Z</time>
        <extensions>
          <ns3:TrackPointExtension>
            <ns3:atemp>19.0</ns3:atemp>
          </ns3:TrackPointExtension>
        </extensions>
      </trkpt>
      <trkpt lat="42.54821495153009891510009765625" lon="20.1230302266776561737060546875">
        <ele>1970</ele>
        <time>2026-06-20T07:12:41.000Z</time>
        <extensions>
          <ns3:TrackPointExtension>
            <ns3:atemp>19.0</ns3:atemp>
          </ns3:TrackPointExtension>
        </extensions>
      </trkpt>
      <trkpt lat="42.54821495153009891510009765625" lon="20.1230302266776561737060546875">
        <ele>1970</ele>
        <time>2026-06-20T07:12:42.000Z</time>
        <extensions>
          <ns3:TrackPointExtension>
            <ns3:atemp>19.0</ns3:atemp>
          </ns3:TrackPointExtension>
        </extensions>
      </trkpt>
      <trkpt lat="42.54821495153009891510009765625" lon="20.1230302266776561737060546875">
        <ele>1970</ele>
        <time>2026-06-20T07:12:43.000Z</time>
        <extensions>
          <ns3:TrackPointExtension>
            <ns3:atemp>19.0</ns3:atemp>
          </ns3:TrackPointExtension>
        </extensions>
      </trkpt>
      <trkpt lat="42.54821495153009891510009765625" lon="20.1230302266776561737060546875">
        <ele>1970</ele>
        <time>2026-06-20T07:12:44.000Z</time>
        <extensions>
          <ns3:TrackPointExtension>
            <ns3:atemp>19.0</ns3:atemp>
          </ns3:TrackPointExtension>
        </extensions>
      </trkpt>
      <trkpt lat="42.54821495153009891510009765625" lon="20.1230302266776561737060546875">
        <ele>1970</ele>
        <time>2026-06-20T07:12:45.000Z</time>
        <extensions>
          <ns3:TrackPointExtension>
            <ns3:atemp>19.0</ns3:atemp>
          </ns3:TrackPointExtension>
        </extensions>
      </trkpt>
      <trkpt lat="42.54821495153009891510009765625" lon="20.1230302266776561737060546875">
        <ele>1970</ele>
        <time>2026-06-20T07:12:46.000Z</time>
        <extensions>
          <ns3:TrackPointExtension>
            <ns3:atemp>19.0</ns3:atemp>
          </ns3:TrackPointExtension>
        </extensions>
      </trkpt>
      <trkpt lat="42.54821495153009891510009765625" lon="20.1230302266776561737060546875">
        <ele>1970</ele>
        <time>2026-06-20T07:12:47.000Z</time>
        <extensions>
          <ns3:TrackPointExtension>
            <ns3:atemp>19.0</ns3:atemp>
          </ns3:TrackPointExtension>
        </extensions>
      </trkpt>
      <trkpt lat="42.54821495153009891510009765625" lon="20.1230302266776561737060546875">
        <ele>1970</ele>
        <time>2026-06-20T07:12:48.000Z</time>
        <extensions>
          <ns3:TrackPointExtension>
            <ns3:atemp>19.0</ns3:atemp>
          </ns3:TrackPointExtension>
        </extensions>
      </trkpt>
      <trkpt lat="42.54821495153009891510009765625" lon="20.1230302266776561737060546875">
        <ele>1970</ele>
        <time>2026-06-20T07:12:49.000Z</time>
        <extensions>
          <ns3:TrackPointExtension>
            <ns3:atemp>19.0</ns3:atemp>
          </ns3:TrackPointExtension>
        </extensions>
      </trkpt>
      <trkpt lat="42.54821495153009891510009765625" lon="20.1230302266776561737060546875">
        <ele>1970</ele>
        <time>2026-06-20T07:12:50.000Z</time>
        <extensions>
          <ns3:TrackPointExtension>
            <ns3:atemp>19.0</ns3:atemp>
          </ns3:TrackPointExtension>
        </extensions>
      </trkpt>
      <trkpt lat="42.54821495153009891510009765625" lon="20.1230302266776561737060546875">
        <ele>1970</ele>
        <time>2026-06-20T07:12:51.000Z</time>
        <extensions>
          <ns3:TrackPointExtension>
            <ns3:atemp>19.0</ns3:atemp>
          </ns3:TrackPointExtension>
        </extensions>
      </trkpt>
      <trkpt lat="42.54821495153009891510009765625" lon="20.1230302266776561737060546875">
        <ele>1970</ele>
        <time>2026-06-20T07:12:52.000Z</time>
        <extensions>
          <ns3:TrackPointExtension>
            <ns3:atemp>19.0</ns3:atemp>
          </ns3:TrackPointExtension>
        </extensions>
      </trkpt>
      <trkpt lat="42.54821495153009891510009765625" lon="20.1230302266776561737060546875">
        <ele>1970</ele>
        <time>2026-06-20T07:12:53.000Z</time>
        <extensions>
          <ns3:TrackPointExtension>
            <ns3:atemp>19.0</ns3:atemp>
          </ns3:TrackPointExtension>
        </extensions>
      </trkpt>
      <trkpt lat="42.54821495153009891510009765625" lon="20.1230302266776561737060546875">
        <ele>1970</ele>
        <time>2026-06-20T07:12:54.000Z</time>
        <extensions>
          <ns3:TrackPointExtension>
            <ns3:atemp>19.0</ns3:atemp>
          </ns3:TrackPointExtension>
        </extensions>
      </trkpt>
      <trkpt lat="42.54821495153009891510009765625" lon="20.1230302266776561737060546875">
        <ele>1970</ele>
        <time>2026-06-20T07:12:55.000Z</time>
        <extensions>
          <ns3:TrackPointExtension>
            <ns3:atemp>19.0</ns3:atemp>
          </ns3:TrackPointExtension>
        </extensions>
      </trkpt>
      <trkpt lat="42.54821495153009891510009765625" lon="20.1230302266776561737060546875">
        <ele>1970</ele>
        <time>2026-06-20T07:12:56.000Z</time>
        <extensions>
          <ns3:TrackPointExtension>
            <ns3:atemp>19.0</ns3:atemp>
          </ns3:TrackPointExtension>
        </extensions>
      </trkpt>
      <trkpt lat="42.54821495153009891510009765625" lon="20.1230302266776561737060546875">
        <ele>1970</ele>
        <time>2026-06-20T07:12:57.000Z</time>
        <extensions>
          <ns3:TrackPointExtension>
            <ns3:atemp>19.0</ns3:atemp>
          </ns3:TrackPointExtension>
        </extensions>
      </trkpt>
      <trkpt lat="42.54821495153009891510009765625" lon="20.1230302266776561737060546875">
        <ele>1970</ele>
        <time>2026-06-20T07:12:58.000Z</time>
        <extensions>
          <ns3:TrackPointExtension>
            <ns3:atemp>19.0</ns3:atemp>
          </ns3:TrackPointExtension>
        </extensions>
      </trkpt>
      <trkpt lat="42.54821495153009891510009765625" lon="20.1230302266776561737060546875">
        <ele>1970</ele>
        <time>2026-06-20T07:12:59.000Z</time>
        <extensions>
          <ns3:TrackPointExtension>
            <ns3:atemp>19.0</ns3:atemp>
          </ns3:TrackPointExtension>
        </extensions>
      </trkpt>
      <trkpt lat="42.54821495153009891510009765625" lon="20.1230302266776561737060546875">
        <ele>1970</ele>
        <time>2026-06-20T07:13:00.000Z</time>
        <extensions>
          <ns3:TrackPointExtension>
            <ns3:atemp>19.0</ns3:atemp>
          </ns3:TrackPointExtension>
        </extensions>
      </trkpt>
      <trkpt lat="42.54821495153009891510009765625" lon="20.1230302266776561737060546875">
        <ele>1970</ele>
        <time>2026-06-20T07:13:01.000Z</time>
        <extensions>
          <ns3:TrackPointExtension>
            <ns3:atemp>19.0</ns3:atemp>
          </ns3:TrackPointExtension>
        </extensions>
      </trkpt>
      <trkpt lat="42.54821495153009891510009765625" lon="20.1230302266776561737060546875">
        <ele>1970</ele>
        <time>2026-06-20T07:13:02.000Z</time>
        <extensions>
          <ns3:TrackPointExtension>
            <ns3:atemp>19.0</ns3:atemp>
          </ns3:TrackPointExtension>
        </extensions>
      </trkpt>
      <trkpt lat="42.54821495153009891510009765625" lon="20.1230302266776561737060546875">
        <ele>1970</ele>
        <time>2026-06-20T07:13:03.000Z</time>
        <extensions>
          <ns3:TrackPointExtension>
            <ns3:atemp>19.0</ns3:atemp>
          </ns3:TrackPointExtension>
        </extensions>
      </trkpt>
      <trkpt lat="42.54821495153009891510009765625" lon="20.1230302266776561737060546875">
        <ele>1970</ele>
        <time>2026-06-20T07:13:04.000Z</time>
        <extensions>
          <ns3:TrackPointExtension>
            <ns3:atemp>19.0</ns3:atemp>
          </ns3:TrackPointExtension>
        </extensions>
      </trkpt>
      <trkpt lat="42.54821495153009891510009765625" lon="20.1230302266776561737060546875">
        <ele>1970</ele>
        <time>2026-06-20T07:13:05.000Z</time>
        <extensions>
          <ns3:TrackPointExtension>
            <ns3:atemp>19.0</ns3:atemp>
          </ns3:TrackPointExtension>
        </extensions>
      </trkpt>
      <trkpt lat="42.54821495153009891510009765625" lon="20.1230302266776561737060546875">
        <ele>1970</ele>
        <time>2026-06-20T07:13:06.000Z</time>
        <extensions>
          <ns3:TrackPointExtension>
            <ns3:atemp>19.0</ns3:atemp>
          </ns3:TrackPointExtension>
        </extensions>
      </trkpt>
      <trkpt lat="42.54821495153009891510009765625" lon="20.1230302266776561737060546875">
        <ele>1970</ele>
        <time>2026-06-20T07:13:07.000Z</time>
        <extensions>
          <ns3:TrackPointExtension>
            <ns3:atemp>19.0</ns3:atemp>
          </ns3:TrackPointExtension>
        </extensions>
      </trkpt>
      <trkpt lat="42.54821495153009891510009765625" lon="20.1230302266776561737060546875">
        <ele>1970</ele>
        <time>2026-06-20T07:13:08.000Z</time>
        <extensions>
          <ns3:TrackPointExtension>
            <ns3:atemp>19.0</ns3:atemp>
          </ns3:TrackPointExtension>
        </extensions>
      </trkpt>
      <trkpt lat="42.54821495153009891510009765625" lon="20.1230302266776561737060546875">
        <ele>1970</ele>
        <time>2026-06-20T07:13:09.000Z</time>
        <extensions>
          <ns3:TrackPointExtension>
            <ns3:atemp>19.0</ns3:atemp>
          </ns3:TrackPointExtension>
        </extensions>
      </trkpt>
      <trkpt lat="42.54821495153009891510009765625" lon="20.1230302266776561737060546875">
        <ele>1970</ele>
        <time>2026-06-20T07:13:10.000Z</time>
        <extensions>
          <ns3:TrackPointExtension>
            <ns3:atemp>19.0</ns3:atemp>
          </ns3:TrackPointExtension>
        </extensions>
      </trkpt>
      <trkpt lat="42.54821495153009891510009765625" lon="20.1230302266776561737060546875">
        <ele>1970</ele>
        <time>2026-06-20T07:13:11.000Z</time>
        <extensions>
          <ns3:TrackPointExtension>
            <ns3:atemp>19.0</ns3:atemp>
          </ns3:TrackPointExtension>
        </extensions>
      </trkpt>
      <trkpt lat="42.54821495153009891510009765625" lon="20.1230302266776561737060546875">
        <ele>1970</ele>
        <time>2026-06-20T07:13:12.000Z</time>
        <extensions>
          <ns3:TrackPointExtension>
            <ns3:atemp>19.0</ns3:atemp>
          </ns3:TrackPointExtension>
        </extensions>
      </trkpt>
      <trkpt lat="42.54821495153009891510009765625" lon="20.1230302266776561737060546875">
        <ele>1970</ele>
        <time>2026-06-20T07:13:13.000Z</time>
        <extensions>
          <ns3:TrackPointExtension>
            <ns3:atemp>19.0</ns3:atemp>
          </ns3:TrackPointExtension>
        </extensions>
      </trkpt>
      <trkpt lat="42.54821495153009891510009765625" lon="20.1230302266776561737060546875">
        <ele>1970</ele>
        <time>2026-06-20T07:13:14.000Z</time>
        <extensions>
          <ns3:TrackPointExtension>
            <ns3:atemp>19.0</ns3:atemp>
          </ns3:TrackPointExtension>
        </extensions>
      </trkpt>
      <trkpt lat="42.54821495153009891510009765625" lon="20.1230302266776561737060546875">
        <ele>1970</ele>
        <time>2026-06-20T07:13:15.000Z</time>
        <extensions>
          <ns3:TrackPointExtension>
            <ns3:atemp>19.0</ns3:atemp>
          </ns3:TrackPointExtension>
        </extensions>
      </trkpt>
      <trkpt lat="42.54821495153009891510009765625" lon="20.1230302266776561737060546875">
        <ele>1970</ele>
        <time>2026-06-20T07:13:16.000Z</time>
        <extensions>
          <ns3:TrackPointExtension>
            <ns3:atemp>19.0</ns3:atemp>
          </ns3:TrackPointExtension>
        </extensions>
      </trkpt>
      <trkpt lat="42.54821495153009891510009765625" lon="20.1230302266776561737060546875">
        <ele>1970</ele>
        <time>2026-06-20T07:13:17.000Z</time>
        <extensions>
          <ns3:TrackPointExtension>
            <ns3:atemp>19.0</ns3:atemp>
          </ns3:TrackPointExtension>
        </extensions>
      </trkpt>
      <trkpt lat="42.54821495153009891510009765625" lon="20.1230302266776561737060546875">
        <ele>1970</ele>
        <time>2026-06-20T07:13:18.000Z</time>
        <extensions>
          <ns3:TrackPointExtension>
            <ns3:atemp>19.0</ns3:atemp>
          </ns3:TrackPointExtension>
        </extensions>
      </trkpt>
      <trkpt lat="42.54821495153009891510009765625" lon="20.1230302266776561737060546875">
        <ele>1970</ele>
        <time>2026-06-20T07:13:19.000Z</time>
        <extensions>
          <ns3:TrackPointExtension>
            <ns3:atemp>19.0</ns3:atemp>
          </ns3:TrackPointExtension>
        </extensions>
      </trkpt>
      <trkpt lat="42.54821495153009891510009765625" lon="20.1230302266776561737060546875">
        <ele>1970</ele>
        <time>2026-06-20T07:13:20.000Z</time>
        <extensions>
          <ns3:TrackPointExtension>
            <ns3:atemp>19.0</ns3:atemp>
          </ns3:TrackPointExtension>
        </extensions>
      </trkpt>
      <trkpt lat="42.54821495153009891510009765625" lon="20.1230302266776561737060546875">
        <ele>1970</ele>
        <time>2026-06-20T07:13:21.000Z</time>
        <extensions>
          <ns3:TrackPointExtension>
            <ns3:atemp>19.0</ns3:atemp>
          </ns3:TrackPointExtension>
        </extensions>
      </trkpt>
      <trkpt lat="42.54821495153009891510009765625" lon="20.1230302266776561737060546875">
        <ele>1970</ele>
        <time>2026-06-20T07:13:22.000Z</time>
        <extensions>
          <ns3:TrackPointExtension>
            <ns3:atemp>19.0</ns3:atemp>
          </ns3:TrackPointExtension>
        </extensions>
      </trkpt>
      <trkpt lat="42.54821495153009891510009765625" lon="20.1230302266776561737060546875">
        <ele>1970</ele>
        <time>2026-06-20T07:13:23.000Z</time>
        <extensions>
          <ns3:TrackPointExtension>
            <ns3:atemp>19.0</ns3:atemp>
          </ns3:TrackPointExtension>
        </extensions>
      </trkpt>
      <trkpt lat="42.54821495153009891510009765625" lon="20.1230302266776561737060546875">
        <ele>1970</ele>
        <time>2026-06-20T07:13:24.000Z</time>
        <extensions>
          <ns3:TrackPointExtension>
            <ns3:atemp>19.0</ns3:atemp>
          </ns3:TrackPointExtension>
        </extensions>
      </trkpt>
      <trkpt lat="42.54821495153009891510009765625" lon="20.1230302266776561737060546875">
        <ele>1970</ele>
        <time>2026-06-20T07:13:25.000Z</time>
        <extensions>
          <ns3:TrackPointExtension>
            <ns3:atemp>19.0</ns3:atemp>
          </ns3:TrackPointExtension>
        </extensions>
      </trkpt>
      <trkpt lat="42.54821495153009891510009765625" lon="20.1230302266776561737060546875">
        <ele>1970</ele>
        <time>2026-06-20T07:13:26.000Z</time>
        <extensions>
          <ns3:TrackPointExtension>
            <ns3:atemp>19.0</ns3:atemp>
          </ns3:TrackPointExtension>
        </extensions>
      </trkpt>
      <trkpt lat="42.54821495153009891510009765625" lon="20.1230302266776561737060546875">
        <ele>1970</ele>
        <time>2026-06-20T07:13:27.000Z</time>
        <extensions>
          <ns3:TrackPointExtension>
            <ns3:atemp>19.0</ns3:atemp>
          </ns3:TrackPointExtension>
        </extensions>
      </trkpt>
      <trkpt lat="42.548216544091701507568359375" lon="20.1230379380285739898681640625">
        <ele>1970</ele>
        <time>2026-06-20T07:13:28.000Z</time>
        <extensions>
          <ns3:TrackPointExtension>
            <ns3:atemp>19.0</ns3:atemp>
          </ns3:TrackPointExtension>
        </extensions>
      </trkpt>
      <trkpt lat="42.54821495153009891510009765625" lon="20.1230302266776561737060546875">
        <ele>1970</ele>
        <time>2026-06-20T07:13:29.000Z</time>
        <extensions>
          <ns3:TrackPointExtension>
            <ns3:atemp>19.0</ns3:atemp>
          </ns3:TrackPointExtension>
        </extensions>
      </trkpt>
      <trkpt lat="42.54821495153009891510009765625" lon="20.1230302266776561737060546875">
        <ele>1970</ele>
        <time>2026-06-20T07:13:30.000Z</time>
        <extensions>
          <ns3:TrackPointExtension>
            <ns3:atemp>19.0</ns3:atemp>
          </ns3:TrackPointExtension>
        </extensions>
      </trkpt>
      <trkpt lat="42.54821495153009891510009765625" lon="20.1230302266776561737060546875">
        <ele>1970</ele>
        <time>2026-06-20T07:13:31.000Z</time>
        <extensions>
          <ns3:TrackPointExtension>
            <ns3:atemp>19.0</ns3:atemp>
          </ns3:TrackPointExtension>
        </extensions>
      </trkpt>
      <trkpt lat="42.54821495153009891510009765625" lon="20.12304447591304779052734375">
        <ele>1970</ele>
        <time>2026-06-20T07:13:32.000Z</time>
        <extensions>
          <ns3:TrackPointExtension>
            <ns3:atemp>19.0</ns3:atemp>
          </ns3:TrackPointExtension>
        </extensions>
      </trkpt>
      <trkpt lat="42.54821830429136753082275390625" lon="20.1230620779097080230712890625">
        <ele>1970.199951171875</ele>
        <time>2026-06-20T07:13:33.000Z</time>
        <extensions>
          <ns3:TrackPointExtension>
            <ns3:atemp>19.0</ns3:atemp>
          </ns3:TrackPointExtension>
        </extensions>
      </trkpt>
      <trkpt lat="42.54821578972041606903076171875" lon="20.12308797799050807952880859375">
        <ele>1970.199951171875</ele>
        <time>2026-06-20T07:13:34.000Z</time>
        <extensions>
          <ns3:TrackPointExtension>
            <ns3:atemp>19.0</ns3:atemp>
          </ns3:TrackPointExtension>
        </extensions>
      </trkpt>
      <trkpt lat="42.548220567405223846435546875" lon="20.12312385253608226776123046875">
        <ele>1969.800048828125</ele>
        <time>2026-06-20T07:13:35.000Z</time>
        <extensions>
          <ns3:TrackPointExtension>
            <ns3:atemp>19.0</ns3:atemp>
          </ns3:TrackPointExtension>
        </extensions>
      </trkpt>
      <trkpt lat="42.548227272927761077880859375" lon="20.12316576205193996429443359375">
        <ele>1969.4000244140625</ele>
        <time>2026-06-20T07:13:36.000Z</time>
        <extensions>
          <ns3:TrackPointExtension>
            <ns3:atemp>19.0</ns3:atemp>
          </ns3:TrackPointExtension>
        </extensions>
      </trkpt>
      <trkpt lat="42.54823498427867889404296875" lon="20.12321236543357372283935546875">
        <ele>1969.199951171875</ele>
        <time>2026-06-20T07:13:37.000Z</time>
        <extensions>
          <ns3:TrackPointExtension>
            <ns3:atemp>19.0</ns3:atemp>
          </ns3:TrackPointExtension>
        </extensions>
      </trkpt>
      <trkpt lat="42.54822819493710994720458984375" lon="20.12326349504292011260986328125">
        <ele>1968.800048828125</ele>
        <time>2026-06-20T07:13:38.000Z</time>
        <extensions>
          <ns3:TrackPointExtension>
            <ns3:atemp>19.0</ns3:atemp>
          </ns3:TrackPointExtension>
        </extensions>
      </trkpt>
      <trkpt lat="42.548216879367828369140625" lon="20.12332032434642314910888671875">
        <ele>1968.5999755859375</ele>
        <time>2026-06-20T07:13:39.000Z</time>
        <extensions>
          <ns3:TrackPointExtension>
            <ns3:atemp>19.0</ns3:atemp>
          </ns3:TrackPointExtension>
        </extensions>
      </trkpt>
      <trkpt lat="42.548199109733104705810546875" lon="20.12337346561253070831298828125">
        <ele>1968.199951171875</ele>
        <time>2026-06-20T07:13:40.000Z</time>
        <extensions>
          <ns3:TrackPointExtension>
            <ns3:atemp>19.0</ns3:atemp>
          </ns3:TrackPointExtension>
        </extensions>
      </trkpt>
      <trkpt lat="42.54818134009838104248046875" lon="20.1234340667724609375">
        <ele>1968</ele>
        <time>2026-06-20T07:13:41.000Z</time>
        <extensions>
          <ns3:TrackPointExtension>
            <ns3:atemp>19.0</ns3:atemp>
          </ns3:TrackPointExtension>
        </extensions>
      </trkpt>
      <trkpt lat="42.54815812222659587860107421875" lon="20.1234872080385684967041015625">
        <ele>1967.800048828125</ele>
        <time>2026-06-20T07:13:42.000Z</time>
        <extensions>
          <ns3:TrackPointExtension>
            <ns3:atemp>19.0</ns3:atemp>
          </ns3:TrackPointExtension>
        </extensions>
      </trkpt>
      <trkpt lat="42.54813976585865020751953125" lon="20.12351847253739833831787109375">
        <ele>1967.800048828125</ele>
        <time>2026-06-20T07:13:43.000Z</time>
        <extensions>
          <ns3:TrackPointExtension>
            <ns3:atemp>19.0</ns3:atemp>
          </ns3:TrackPointExtension>
        </extensions>
      </trkpt>
      <trkpt lat="42.54813012667000293731689453125" lon="20.123549401760101318359375">
        <ele>1967.5999755859375</ele>
        <time>2026-06-20T07:13:44.000Z</time>
        <extensions>
          <ns3:TrackPointExtension>
            <ns3:atemp>19.0</ns3:atemp>
          </ns3:TrackPointExtension>
        </extensions>
      </trkpt>
      <trkpt lat="42.54811436869204044342041015625" lon="20.12357957661151885986328125">
        <ele>1967.800048828125</ele>
        <time>2026-06-20T07:13:45.000Z</time>
        <extensions>
          <ns3:TrackPointExtension>
            <ns3:atemp>19.0</ns3:atemp>
          </ns3:TrackPointExtension>
        </extensions>
      </trkpt>
      <trkpt lat="42.54809685051441192626953125" lon="20.12360614724457263946533203125">
        <ele>1967.5999755859375</ele>
        <time>2026-06-20T07:13:46.000Z</time>
        <extensions>
          <ns3:TrackPointExtension>
            <ns3:atemp>19.0</ns3:atemp>
          </ns3:TrackPointExtension>
        </extensions>
      </trkpt>
      <trkpt lat="42.548077069222927093505859375" lon="20.1236258447170257568359375">
        <ele>1967.5999755859375</ele>
        <time>2026-06-20T07:13:47.000Z</time>
        <extensions>
          <ns3:TrackPointExtension>
            <ns3:atemp>19.0</ns3:atemp>
          </ns3:TrackPointExtension>
        </extensions>
      </trkpt>
      <trkpt lat="42.54806474782526493072509765625" lon="20.12364034540951251983642578125">
        <ele>1967.4000244140625</ele>
        <time>2026-06-20T07:13:48.000Z</time>
        <extensions>
          <ns3:TrackPointExtension>
            <ns3:atemp>19.0</ns3:atemp>
          </ns3:TrackPointExtension>
        </extensions>
      </trkpt>
      <trkpt lat="42.548064999282360076904296875" lon="20.12365191243588924407958984375">
        <ele>1967.4000244140625</ele>
        <time>2026-06-20T07:13:49.000Z</time>
        <extensions>
          <ns3:TrackPointExtension>
            <ns3:atemp>19.0</ns3:atemp>
          </ns3:TrackPointExtension>
        </extensions>
      </trkpt>
      <trkpt lat="42.5480668433010578155517578125" lon="20.12366549111902713775634765625">
        <ele>1967.4000244140625</ele>
        <time>2026-06-20T07:13:50.000Z</time>
        <extensions>
          <ns3:TrackPointExtension>
            <ns3:atemp>19.0</ns3:atemp>
          </ns3:TrackPointExtension>
        </extensions>
      </trkpt>
      <trkpt lat="42.5480680167675018310546875" lon="20.12367806397378444671630859375">
        <ele>1967.199951171875</ele>
        <time>2026-06-20T07:13:51.000Z</time>
        <extensions>
          <ns3:TrackPointExtension>
            <ns3:atemp>19.0</ns3:atemp>
          </ns3:TrackPointExtension>
        </extensions>
      </trkpt>
      <trkpt lat="42.54806793294847011566162109375" lon="20.123691558837890625">
        <ele>1967.199951171875</ele>
        <time>2026-06-20T07:13:52.000Z</time>
        <extensions>
          <ns3:TrackPointExtension>
            <ns3:atemp>19.0</ns3:atemp>
          </ns3:TrackPointExtension>
        </extensions>
      </trkpt>
      <trkpt lat="42.548068352043628692626953125" lon="20.12370270676910877227783203125">
        <ele>1967.199951171875</ele>
        <time>2026-06-20T07:13:53.000Z</time>
        <extensions>
          <ns3:TrackPointExtension>
            <ns3:atemp>19.0</ns3:atemp>
          </ns3:TrackPointExtension>
        </extensions>
      </trkpt>
      <trkpt lat="42.54806734621524810791015625" lon="20.1237138547003269195556640625">
        <ele>1967.199951171875</ele>
        <time>2026-06-20T07:13:54.000Z</time>
        <extensions>
          <ns3:TrackPointExtension>
            <ns3:atemp>19.0</ns3:atemp>
          </ns3:TrackPointExtension>
        </extensions>
      </trkpt>
      <trkpt lat="42.5480698607861995697021484375" lon="20.123723410069942474365234375">
        <ele>1967.199951171875</ele>
        <time>2026-06-20T07:13:55.000Z</time>
        <extensions>
          <ns3:TrackPointExtension>
            <ns3:atemp>19.0</ns3:atemp>
          </ns3:TrackPointExtension>
        </extensions>
      </trkpt>
      <trkpt lat="42.54807027988135814666748046875" lon="20.1237339712679386138916015625">
        <ele>1967.199951171875</ele>
        <time>2026-06-20T07:13:56.000Z</time>
        <extensions>
          <ns3:TrackPointExtension>
            <ns3:atemp>19.0</ns3:atemp>
          </ns3:TrackPointExtension>
        </extensions>
      </trkpt>
      <trkpt lat="42.54807162098586559295654296875" lon="20.1237457059323787689208984375">
        <ele>1967.199951171875</ele>
        <time>2026-06-20T07:13:57.000Z</time>
        <extensions>
          <ns3:TrackPointExtension>
            <ns3:atemp>19.0</ns3:atemp>
          </ns3:TrackPointExtension>
        </extensions>
      </trkpt>
      <trkpt lat="42.54807262681424617767333984375" lon="20.1237520761787891387939453125">
        <ele>1967.199951171875</ele>
        <time>2026-06-20T07:13:58.000Z</time>
        <extensions>
          <ns3:TrackPointExtension>
            <ns3:atemp>19.0</ns3:atemp>
          </ns3:TrackPointExtension>
        </extensions>
      </trkpt>
      <trkpt lat="42.5480748899281024932861328125" lon="20.12376288883388042449951171875">
        <ele>1967</ele>
        <time>2026-06-20T07:13:59.000Z</time>
        <extensions>
          <ns3:TrackPointExtension>
            <ns3:atemp>19.0</ns3:atemp>
          </ns3:TrackPointExtension>
        </extensions>
      </trkpt>
      <trkpt lat="42.54807631485164165496826171875" lon="20.12377143837511539459228515625">
        <ele>1966.800048828125</ele>
        <time>2026-06-20T07:14:00.000Z</time>
        <extensions>
          <ns3:TrackPointExtension>
            <ns3:atemp>19.0</ns3:atemp>
          </ns3:TrackPointExtension>
        </extensions>
      </trkpt>
      <trkpt lat="42.54807799123227596282958984375" lon="20.12377579696476459503173828125">
        <ele>1966.800048828125</ele>
        <time>2026-06-20T07:14:01.000Z</time>
        <extensions>
          <ns3:TrackPointExtension>
            <ns3:atemp>19.0</ns3:atemp>
          </ns3:TrackPointExtension>
        </extensions>
      </trkpt>
      <trkpt lat="42.5480787456035614013671875" lon="20.12377965264022350311279296875">
        <ele>1966.5999755859375</ele>
        <time>2026-06-20T07:14:02.000Z</time>
        <extensions>
          <ns3:TrackPointExtension>
            <ns3:atemp>19.0</ns3:atemp>
          </ns3:TrackPointExtension>
        </extensions>
      </trkpt>
      <trkpt lat="42.548080421984195709228515625" lon="20.1237832568585872650146484375">
        <ele>1966.5999755859375</ele>
        <time>2026-06-20T07:14:03.000Z</time>
        <extensions>
          <ns3:TrackPointExtension>
            <ns3:atemp>19.0</ns3:atemp>
          </ns3:TrackPointExtension>
        </extensions>
      </trkpt>
      <trkpt lat="42.54808620549738407135009765625" lon="20.12379281222820281982421875">
        <ele>1966.4000244140625</ele>
        <time>2026-06-20T07:14:04.000Z</time>
        <extensions>
          <ns3:TrackPointExtension>
            <ns3:atemp>19.0</ns3:atemp>
          </ns3:TrackPointExtension>
        </extensions>
      </trkpt>
      <trkpt lat="42.54809073172509670257568359375" lon="20.123806558549404144287109375">
        <ele>1966.199951171875</ele>
        <time>2026-06-20T07:14:05.000Z</time>
        <extensions>
          <ns3:TrackPointExtension>
            <ns3:atemp>19.0</ns3:atemp>
          </ns3:TrackPointExtension>
        </extensions>
      </trkpt>
      <trkpt lat="42.54809425212442874908447265625" lon="20.12382139451801776885986328125">
        <ele>1966.199951171875</ele>
        <time>2026-06-20T07:14:06.000Z</time>
        <extensions>
          <ns3:TrackPointExtension>
            <ns3:atemp>19.0</ns3:atemp>
          </ns3:TrackPointExtension>
        </extensions>
      </trkpt>
      <trkpt lat="42.54809810779988765716552734375" lon="20.12383036315441131591796875">
        <ele>1966</ele>
        <time>2026-06-20T07:14:07.000Z</time>
        <extensions>
          <ns3:TrackPointExtension>
            <ns3:atemp>19.0</ns3:atemp>
          </ns3:TrackPointExtension>
        </extensions>
      </trkpt>
      <trkpt lat="42.54809743724763393402099609375" lon="20.12383547611534595489501953125">
        <ele>1965.800048828125</ele>
        <time>2026-06-20T07:14:08.000Z</time>
        <extensions>
          <ns3:TrackPointExtension>
            <ns3:atemp>19.0</ns3:atemp>
          </ns3:TrackPointExtension>
        </extensions>
      </trkpt>
      <trkpt lat="42.54810196347534656524658203125" lon="20.1238335482776165008544921875">
        <ele>1965.800048828125</ele>
        <time>2026-06-20T07:14:09.000Z</time>
        <extensions>
          <ns3:TrackPointExtension>
            <ns3:atemp>19.0</ns3:atemp>
          </ns3:TrackPointExtension>
        </extensions>
      </trkpt>
      <trkpt lat="42.54810079000890254974365234375" lon="20.12383514083921909332275390625">
        <ele>1965.800048828125</ele>
        <time>2026-06-20T07:14:10.000Z</time>
        <extensions>
          <ns3:TrackPointExtension>
            <ns3:atemp>19.0</ns3:atemp>
          </ns3:TrackPointExtension>
        </extensions>
      </trkpt>
      <trkpt lat="42.54810087382793426513671875" lon="20.12383530847728252410888671875">
        <ele>1965.800048828125</ele>
        <time>2026-06-20T07:14:11.000Z</time>
        <extensions>
          <ns3:TrackPointExtension>
            <ns3:atemp>19.0</ns3:atemp>
          </ns3:TrackPointExtension>
        </extensions>
      </trkpt>
      <trkpt lat="42.5481070764362812042236328125" lon="20.12384821660816669464111328125">
        <ele>1965.800048828125</ele>
        <time>2026-06-20T07:14:12.000Z</time>
        <extensions>
          <ns3:TrackPointExtension>
            <ns3:atemp>19.0</ns3:atemp>
          </ns3:TrackPointExtension>
        </extensions>
      </trkpt>
      <trkpt lat="42.5481090880930423736572265625" lon="20.12385374866425991058349609375">
        <ele>1965.800048828125</ele>
        <time>2026-06-20T07:14:13.000Z</time>
        <extensions>
          <ns3:TrackPointExtension>
            <ns3:atemp>19.0</ns3:atemp>
          </ns3:TrackPointExtension>
        </extensions>
      </trkpt>
      <trkpt lat="42.5481090880930423736572265625" lon="20.1238536648452281951904296875">
        <ele>1965.5999755859375</ele>
        <time>2026-06-20T07:14:14.000Z</time>
        <extensions>
          <ns3:TrackPointExtension>
            <ns3:atemp>19.0</ns3:atemp>
          </ns3:TrackPointExtension>
        </extensions>
      </trkpt>
      <trkpt lat="42.5481124408543109893798828125" lon="20.12385877780616283416748046875">
        <ele>1965.5999755859375</ele>
        <time>2026-06-20T07:14:15.000Z</time>
        <extensions>
          <ns3:TrackPointExtension>
            <ns3:atemp>19.0</ns3:atemp>
          </ns3:TrackPointExtension>
        </extensions>
      </trkpt>
      <trkpt lat="42.548116631805896759033203125" lon="20.12386330403387546539306640625">
        <ele>1965.4000244140625</ele>
        <time>2026-06-20T07:14:16.000Z</time>
        <extensions>
          <ns3:TrackPointExtension>
            <ns3:atemp>19.0</ns3:atemp>
          </ns3:TrackPointExtension>
        </extensions>
      </trkpt>
      <trkpt lat="42.54812057130038738250732421875" lon="20.12386615388095378875732421875">
        <ele>1965.4000244140625</ele>
        <time>2026-06-20T07:14:17.000Z</time>
        <extensions>
          <ns3:TrackPointExtension>
            <ns3:atemp>19.0</ns3:atemp>
          </ns3:TrackPointExtension>
        </extensions>
      </trkpt>
      <trkpt lat="42.5481265224516391754150390625" lon="20.1238731108605861663818359375">
        <ele>1965.199951171875</ele>
        <time>2026-06-20T07:14:18.000Z</time>
        <extensions>
          <ns3:TrackPointExtension>
            <ns3:atemp>19.0</ns3:atemp>
          </ns3:TrackPointExtension>
        </extensions>
      </trkpt>
      <trkpt lat="42.548131383955478668212890625" lon="20.1238737814128398895263671875">
        <ele>1965.199951171875</ele>
        <time>2026-06-20T07:14:19.000Z</time>
        <extensions>
          <ns3:TrackPointExtension>
            <ns3:atemp>19.0</ns3:atemp>
          </ns3:TrackPointExtension>
        </extensions>
      </trkpt>
      <trkpt lat="42.54813314415514469146728515625" lon="20.12387336231768131256103515625">
        <ele>1965.199951171875</ele>
        <time>2026-06-20T07:14:20.000Z</time>
        <extensions>
          <ns3:TrackPointExtension>
            <ns3:atemp>19.0</ns3:atemp>
          </ns3:TrackPointExtension>
        </extensions>
      </trkpt>
      <trkpt lat="42.5481332279741764068603515625" lon="20.12387352995574474334716796875">
        <ele>1965.199951171875</ele>
        <time>2026-06-20T07:14:21.000Z</time>
        <extensions>
          <ns3:TrackPointExtension>
            <ns3:atemp>19.0</ns3:atemp>
          </ns3:TrackPointExtension>
        </extensions>
      </trkpt>
      <trkpt lat="42.54813331179320812225341796875" lon="20.1238737814128398895263671875">
        <ele>1965</ele>
        <time>2026-06-20T07:14:22.000Z</time>
        <extensions>
          <ns3:TrackPointExtension>
            <ns3:atemp>19.0</ns3:atemp>
          </ns3:TrackPointExtension>
        </extensions>
      </trkpt>
      <trkpt lat="42.54814588464796543121337890625" lon="20.123901106417179107666015625">
        <ele>1965</ele>
        <time>2026-06-20T07:14:23.000Z</time>
        <extensions>
          <ns3:TrackPointExtension>
            <ns3:atemp>19.0</ns3:atemp>
          </ns3:TrackPointExtension>
        </extensions>
      </trkpt>
      <trkpt lat="42.5481556914746761322021484375" lon="20.12391862459480762481689453125">
        <ele>1965</ele>
        <time>2026-06-20T07:14:24.000Z</time>
        <extensions>
          <ns3:TrackPointExtension>
            <ns3:atemp>19.0</ns3:atemp>
          </ns3:TrackPointExtension>
        </extensions>
      </trkpt>
      <trkpt lat="42.54816122353076934814453125" lon="20.12393295764923095703125">
        <ele>1964.800048828125</ele>
        <time>2026-06-20T07:14:25.000Z</time>
        <extensions>
          <ns3:TrackPointExtension>
            <ns3:atemp>19.0</ns3:atemp>
          </ns3:TrackPointExtension>
        </extensions>
      </trkpt>
      <trkpt lat="42.5481727905571460723876953125" lon="20.1239488832652568817138671875">
        <ele>1964.800048828125</ele>
        <time>2026-06-20T07:14:26.000Z</time>
        <extensions>
          <ns3:TrackPointExtension>
            <ns3:atemp>19.0</ns3:atemp>
          </ns3:TrackPointExtension>
        </extensions>
      </trkpt>
      <trkpt lat="42.54818242974579334259033203125" lon="20.12396288104355335235595703125">
        <ele>1964.5999755859375</ele>
        <time>2026-06-20T07:14:27.000Z</time>
        <extensions>
          <ns3:TrackPointExtension>
            <ns3:atemp>19.0</ns3:atemp>
          </ns3:TrackPointExtension>
        </extensions>
      </trkpt>
      <trkpt lat="42.54818913526833057403564453125" lon="20.1239718496799468994140625">
        <ele>1964.5999755859375</ele>
        <time>2026-06-20T07:14:28.000Z</time>
        <extensions>
          <ns3:TrackPointExtension>
            <ns3:atemp>19.0</ns3:atemp>
          </ns3:TrackPointExtension>
        </extensions>
      </trkpt>
      <trkpt lat="42.54819148220121860504150390625" lon="20.12396975420415401458740234375">
        <ele>1964.800048828125</ele>
        <time>2026-06-20T07:14:29.000Z</time>
        <extensions>
          <ns3:TrackPointExtension>
            <ns3:atemp>19.0</ns3:atemp>
          </ns3:TrackPointExtension>
        </extensions>
      </trkpt>
      <trkpt lat="42.5481915660202503204345703125" lon="20.12396983802318572998046875">
        <ele>1964.800048828125</ele>
        <time>2026-06-20T07:14:30.000Z</time>
        <extensions>
          <ns3:TrackPointExtension>
            <ns3:atemp>19.0</ns3:atemp>
          </ns3:TrackPointExtension>
        </extensions>
      </trkpt>
      <trkpt lat="42.5481915660202503204345703125" lon="20.12396983802318572998046875">
        <ele>1964.800048828125</ele>
        <time>2026-06-20T07:14:31.000Z</time>
        <extensions>
          <ns3:TrackPointExtension>
            <ns3:atemp>19.0</ns3:atemp>
          </ns3:TrackPointExtension>
        </extensions>
      </trkpt>
      <trkpt lat="42.5481915660202503204345703125" lon="20.12396983802318572998046875">
        <ele>1965</ele>
        <time>2026-06-20T07:14:32.000Z</time>
        <extensions>
          <ns3:TrackPointExtension>
            <ns3:atemp>19.0</ns3:atemp>
          </ns3:TrackPointExtension>
        </extensions>
      </trkpt>
      <trkpt lat="42.5481919012963771820068359375" lon="20.12397059239447116851806640625">
        <ele>1965</ele>
        <time>2026-06-20T07:14:33.000Z</time>
        <extensions>
          <ns3:TrackPointExtension>
            <ns3:atemp>19.0</ns3:atemp>
          </ns3:TrackPointExtension>
        </extensions>
      </trkpt>
      <trkpt lat="42.5482016243040561676025390625" lon="20.12399339117109775543212890625">
        <ele>1965</ele>
        <time>2026-06-20T07:14:34.000Z</time>
        <extensions>
          <ns3:TrackPointExtension>
            <ns3:atemp>19.0</ns3:atemp>
          </ns3:TrackPointExtension>
        </extensions>
      </trkpt>
      <trkpt lat="42.54821293987333774566650390625" lon="20.12401032261550426483154296875">
        <ele>1964.800048828125</ele>
        <time>2026-06-20T07:14:35.000Z</time>
        <extensions>
          <ns3:TrackPointExtension>
            <ns3:atemp>19.0</ns3:atemp>
          </ns3:TrackPointExtension>
        </extensions>
      </trkpt>
      <trkpt lat="42.5482190586626529693603515625" lon="20.1240199618041515350341796875">
        <ele>1964.800048828125</ele>
        <time>2026-06-20T07:14:36.000Z</time>
        <extensions>
          <ns3:TrackPointExtension>
            <ns3:atemp>19.0</ns3:atemp>
          </ns3:TrackPointExtension>
        </extensions>
      </trkpt>
      <trkpt lat="42.5482287816703319549560546875" lon="20.12403412722051143646240234375">
        <ele>1964.5999755859375</ele>
        <time>2026-06-20T07:14:37.000Z</time>
        <extensions>
          <ns3:TrackPointExtension>
            <ns3:atemp>19.0</ns3:atemp>
          </ns3:TrackPointExtension>
        </extensions>
      </trkpt>
      <trkpt lat="42.54823842085897922515869140625" lon="20.12404737062752246856689453125">
        <ele>1964.5999755859375</ele>
        <time>2026-06-20T07:14:38.000Z</time>
        <extensions>
          <ns3:TrackPointExtension>
            <ns3:atemp>19.0</ns3:atemp>
          </ns3:TrackPointExtension>
        </extensions>
      </trkpt>
      <trkpt lat="42.5482455454766750335693359375" lon="20.12405089102685451507568359375">
        <ele>1964.4000244140625</ele>
        <time>2026-06-20T07:14:39.000Z</time>
        <extensions>
          <ns3:TrackPointExtension>
            <ns3:atemp>19.0</ns3:atemp>
          </ns3:TrackPointExtension>
        </extensions>
      </trkpt>
      <trkpt lat="42.54824982024729251861572265625" lon="20.1240603625774383544921875">
        <ele>1964.4000244140625</ele>
        <time>2026-06-20T07:14:40.000Z</time>
        <extensions>
          <ns3:TrackPointExtension>
            <ns3:atemp>19.0</ns3:atemp>
          </ns3:TrackPointExtension>
        </extensions>
      </trkpt>
      <trkpt lat="42.54825401119887828826904296875" lon="20.12406773865222930908203125">
        <ele>1964.5999755859375</ele>
        <time>2026-06-20T07:14:41.000Z</time>
        <extensions>
          <ns3:TrackPointExtension>
            <ns3:atemp>19.0</ns3:atemp>
          </ns3:TrackPointExtension>
        </extensions>
      </trkpt>
      <trkpt lat="42.54825987853109836578369140625" lon="20.12407821603119373321533203125">
        <ele>1964.5999755859375</ele>
        <time>2026-06-20T07:14:42.000Z</time>
        <extensions>
          <ns3:TrackPointExtension>
            <ns3:atemp>19.0</ns3:atemp>
          </ns3:TrackPointExtension>
        </extensions>
      </trkpt>
      <trkpt lat="42.54826490767300128936767578125" lon="20.1240870170295238494873046875">
        <ele>1964.5999755859375</ele>
        <time>2026-06-20T07:14:43.000Z</time>
        <extensions>
          <ns3:TrackPointExtension>
            <ns3:atemp>19.0</ns3:atemp>
          </ns3:TrackPointExtension>
        </extensions>
      </trkpt>
      <trkpt lat="42.54826851189136505126953125" lon="20.1240885257720947265625">
        <ele>1964.5999755859375</ele>
        <time>2026-06-20T07:14:44.000Z</time>
        <extensions>
          <ns3:TrackPointExtension>
            <ns3:atemp>19.0</ns3:atemp>
          </ns3:TrackPointExtension>
        </extensions>
      </trkpt>
      <trkpt lat="42.54827781580388545989990234375" lon="20.12409833259880542755126953125">
        <ele>1964.5999755859375</ele>
        <time>2026-06-20T07:14:45.000Z</time>
        <extensions>
          <ns3:TrackPointExtension>
            <ns3:atemp>19.0</ns3:atemp>
          </ns3:TrackPointExtension>
        </extensions>
      </trkpt>
      <trkpt lat="42.54828167147934436798095703125" lon="20.12410269118845462799072265625">
        <ele>1964.5999755859375</ele>
        <time>2026-06-20T07:14:46.000Z</time>
        <extensions>
          <ns3:TrackPointExtension>
            <ns3:atemp>19.0</ns3:atemp>
          </ns3:TrackPointExtension>
        </extensions>
      </trkpt>
      <trkpt lat="42.54827781580388545989990234375" lon="20.12410621158778667449951171875">
        <ele>1964.5999755859375</ele>
        <time>2026-06-20T07:14:47.000Z</time>
        <extensions>
          <ns3:TrackPointExtension>
            <ns3:atemp>19.0</ns3:atemp>
          </ns3:TrackPointExtension>
        </extensions>
      </trkpt>
      <trkpt lat="42.5482817552983760833740234375" lon="20.12411040253937244415283203125">
        <ele>1964.4000244140625</ele>
        <time>2026-06-20T07:14:48.000Z</time>
        <extensions>
          <ns3:TrackPointExtension>
            <ns3:atemp>19.0</ns3:atemp>
          </ns3:TrackPointExtension>
        </extensions>
      </trkpt>
      <trkpt lat="42.54829399287700653076171875" lon="20.1241220533847808837890625">
        <ele>1964.4000244140625</ele>
        <time>2026-06-20T07:14:49.000Z</time>
        <extensions>
          <ns3:TrackPointExtension>
            <ns3:atemp>19.0</ns3:atemp>
          </ns3:TrackPointExtension>
        </extensions>
      </trkpt>
      <trkpt lat="42.54830849356949329376220703125" lon="20.12414996512234210968017578125">
        <ele>1964.199951171875</ele>
        <time>2026-06-20T07:14:50.000Z</time>
        <extensions>
          <ns3:TrackPointExtension>
            <ns3:atemp>19.0</ns3:atemp>
          </ns3:TrackPointExtension>
        </extensions>
      </trkpt>
      <trkpt lat="42.5483340583741664886474609375" lon="20.1241812296211719512939453125">
        <ele>1964</ele>
        <time>2026-06-20T07:14:51.000Z</time>
        <extensions>
          <ns3:TrackPointExtension>
            <ns3:atemp>19.0</ns3:atemp>
          </ns3:TrackPointExtension>
        </extensions>
      </trkpt>
      <trkpt lat="42.54836666397750377655029296875" lon="20.12421769089996814727783203125">
        <ele>1963.5999755859375</ele>
        <time>2026-06-20T07:14:52.000Z</time>
        <extensions>
          <ns3:TrackPointExtension>
            <ns3:atemp>19.0</ns3:atemp>
          </ns3:TrackPointExtension>
        </extensions>
      </trkpt>
      <trkpt lat="42.54839231260120868682861328125" lon="20.1242593489587306976318359375">
        <ele>1963.4000244140625</ele>
        <time>2026-06-20T07:14:53.000Z</time>
        <extensions>
          <ns3:TrackPointExtension>
            <ns3:atemp>19.0</ns3:atemp>
          </ns3:TrackPointExtension>
        </extensions>
      </trkpt>
      <trkpt lat="42.54840807057917118072509765625" lon="20.124284327030181884765625">
        <ele>1963</ele>
        <time>2026-06-20T07:14:54.000Z</time>
        <extensions>
          <ns3:TrackPointExtension>
            <ns3:atemp>19.0</ns3:atemp>
          </ns3:TrackPointExtension>
        </extensions>
      </trkpt>
      <trkpt lat="42.54842164926230907440185546875" lon="20.12428742833435535430908203125">
        <ele>1963</ele>
        <time>2026-06-20T07:14:55.000Z</time>
        <extensions>
          <ns3:TrackPointExtension>
            <ns3:atemp>19.0</ns3:atemp>
          </ns3:TrackPointExtension>
        </extensions>
      </trkpt>
      <trkpt lat="42.5484301149845123291015625" lon="20.1242952235043048858642578125">
        <ele>1963</ele>
        <time>2026-06-20T07:14:56.000Z</time>
        <extensions>
          <ns3:TrackPointExtension>
            <ns3:atemp>19.0</ns3:atemp>
          </ns3:TrackPointExtension>
        </extensions>
      </trkpt>
      <trkpt lat="42.54844511859118938446044921875" lon="20.124306119978427886962890625">
        <ele>1963</ele>
        <time>2026-06-20T07:14:57.000Z</time>
        <extensions>
          <ns3:TrackPointExtension>
            <ns3:atemp>19.0</ns3:atemp>
          </ns3:TrackPointExtension>
        </extensions>
      </trkpt>
      <trkpt lat="42.548457272350788116455078125" lon="20.12432657182216644287109375">
        <ele>1963</ele>
        <time>2026-06-20T07:14:58.000Z</time>
        <extensions>
          <ns3:TrackPointExtension>
            <ns3:atemp>19.0</ns3:atemp>
          </ns3:TrackPointExtension>
        </extensions>
      </trkpt>
      <trkpt lat="42.54846992902457714080810546875" lon="20.12434962205588817596435546875">
        <ele>1963</ele>
        <time>2026-06-20T07:14:59.000Z</time>
        <extensions>
          <ns3:TrackPointExtension>
            <ns3:atemp>19.0</ns3:atemp>
          </ns3:TrackPointExtension>
        </extensions>
      </trkpt>
      <trkpt lat="42.54848082549870014190673828125" lon="20.124369822442531585693359375">
        <ele>1962.800048828125</ele>
        <time>2026-06-20T07:15:00.000Z</time>
        <extensions>
          <ns3:TrackPointExtension>
            <ns3:atemp>19.0</ns3:atemp>
          </ns3:TrackPointExtension>
        </extensions>
      </trkpt>
      <trkpt lat="42.54849105142056941986083984375" lon="20.12438968755304813385009765625">
        <ele>1962.5999755859375</ele>
        <time>2026-06-20T07:15:01.000Z</time>
        <extensions>
          <ns3:TrackPointExtension>
            <ns3:atemp>19.0</ns3:atemp>
          </ns3:TrackPointExtension>
        </extensions>
      </trkpt>
      <trkpt lat="42.5485040433704853057861328125" lon="20.1244055293500423431396484375">
        <ele>1962.5999755859375</ele>
        <time>2026-06-20T07:15:02.000Z</time>
        <extensions>
          <ns3:TrackPointExtension>
            <ns3:atemp>19.0</ns3:atemp>
          </ns3:TrackPointExtension>
        </extensions>
      </trkpt>
      <trkpt lat="42.54851418547332286834716796875" lon="20.124425478279590606689453125">
        <ele>1962.5999755859375</ele>
        <time>2026-06-20T07:15:03.000Z</time>
        <extensions>
          <ns3:TrackPointExtension>
            <ns3:atemp>19.0</ns3:atemp>
          </ns3:TrackPointExtension>
        </extensions>
      </trkpt>
      <trkpt lat="42.54851921461522579193115234375" lon="20.12444383464753627777099609375">
        <ele>1962.5999755859375</ele>
        <time>2026-06-20T07:15:04.000Z</time>
        <extensions>
          <ns3:TrackPointExtension>
            <ns3:atemp>19.0</ns3:atemp>
          </ns3:TrackPointExtension>
        </extensions>
      </trkpt>
      <trkpt lat="42.54852726124227046966552734375" lon="20.12446361593902111053466796875">
        <ele>1962.800048828125</ele>
        <time>2026-06-20T07:15:05.000Z</time>
        <extensions>
          <ns3:TrackPointExtension>
            <ns3:atemp>19.0</ns3:atemp>
          </ns3:TrackPointExtension>
        </extensions>
      </trkpt>
      <trkpt lat="42.54853614605963230133056640625" lon="20.1244843192398548126220703125">
        <ele>1962.800048828125</ele>
        <time>2026-06-20T07:15:06.000Z</time>
        <extensions>
          <ns3:TrackPointExtension>
            <ns3:atemp>19.0</ns3:atemp>
          </ns3:TrackPointExtension>
        </extensions>
      </trkpt>
      <trkpt lat="42.5485456176102161407470703125" lon="20.124507956206798553466796875">
        <ele>1962.800048828125</ele>
        <time>2026-06-20T07:15:07.000Z</time>
        <extensions>
          <ns3:TrackPointExtension>
            <ns3:atemp>19.0</ns3:atemp>
          </ns3:TrackPointExtension>
        </extensions>
      </trkpt>
      <trkpt lat="42.5485534965991973876953125" lon="20.1245282404124736785888671875">
        <ele>1963</ele>
        <time>2026-06-20T07:15:08.000Z</time>
        <extensions>
          <ns3:TrackPointExtension>
            <ns3:atemp>19.0</ns3:atemp>
          </ns3:TrackPointExtension>
        </extensions>
      </trkpt>
      <trkpt lat="42.54855810664594173431396484375" lon="20.12455296702682971954345703125">
        <ele>1963</ele>
        <time>2026-06-20T07:15:09.000Z</time>
        <extensions>
          <ns3:TrackPointExtension>
            <ns3:atemp>19.0</ns3:atemp>
          </ns3:TrackPointExtension>
        </extensions>
      </trkpt>
      <trkpt lat="42.54856313578784465789794921875" lon="20.12457660399377346038818359375">
        <ele>1963.199951171875</ele>
        <time>2026-06-20T07:15:10.000Z</time>
        <extensions>
          <ns3:TrackPointExtension>
            <ns3:atemp>19.0</ns3:atemp>
          </ns3:TrackPointExtension>
        </extensions>
      </trkpt>
      <trkpt lat="42.54856950603425502777099609375" lon="20.1245993189513683319091796875">
        <ele>1963.4000244140625</ele>
        <time>2026-06-20T07:15:11.000Z</time>
        <extensions>
          <ns3:TrackPointExtension>
            <ns3:atemp>19.0</ns3:atemp>
          </ns3:TrackPointExtension>
        </extensions>
      </trkpt>
      <trkpt lat="42.54857151769101619720458984375" lon="20.12461549602448940277099609375">
        <ele>1963.800048828125</ele>
        <time>2026-06-20T07:15:12.000Z</time>
        <extensions>
          <ns3:TrackPointExtension>
            <ns3:atemp>19.0</ns3:atemp>
          </ns3:TrackPointExtension>
        </extensions>
      </trkpt>
      <trkpt lat="42.5485734455287456512451171875" lon="20.1246264763176441192626953125">
        <ele>1964.199951171875</ele>
        <time>2026-06-20T07:15:13.000Z</time>
        <extensions>
          <ns3:TrackPointExtension>
            <ns3:atemp>19.0</ns3:atemp>
          </ns3:TrackPointExtension>
        </extensions>
      </trkpt>
      <trkpt lat="42.548572607338428497314453125" lon="20.12463242746889591217041015625">
        <ele>1964.5999755859375</ele>
        <time>2026-06-20T07:15:14.000Z</time>
        <extensions>
          <ns3:TrackPointExtension>
            <ns3:atemp>19.0</ns3:atemp>
          </ns3:TrackPointExtension>
        </extensions>
      </trkpt>
      <trkpt lat="42.548572607338428497314453125" lon="20.1246325112879276275634765625">
        <ele>1965.5999755859375</ele>
        <time>2026-06-20T07:15:15.000Z</time>
        <extensions>
          <ns3:TrackPointExtension>
            <ns3:atemp>19.0</ns3:atemp>
          </ns3:TrackPointExtension>
        </extensions>
      </trkpt>
      <trkpt lat="42.548572607338428497314453125" lon="20.1246325112879276275634765625">
        <ele>1965.5999755859375</ele>
        <time>2026-06-20T07:15:16.000Z</time>
        <extensions>
          <ns3:TrackPointExtension>
            <ns3:atemp>19.0</ns3:atemp>
          </ns3:TrackPointExtension>
        </extensions>
      </trkpt>
      <trkpt lat="42.548576295375823974609375" lon="20.12463963590562343597412109375">
        <ele>1965.5999755859375</ele>
        <time>2026-06-20T07:15:17.000Z</time>
        <extensions>
          <ns3:TrackPointExtension>
            <ns3:atemp>19.0</ns3:atemp>
          </ns3:TrackPointExtension>
        </extensions>
      </trkpt>
      <trkpt lat="42.5485791452229022979736328125" lon="20.124651454389095306396484375">
        <ele>1965.5999755859375</ele>
        <time>2026-06-20T07:15:18.000Z</time>
        <extensions>
          <ns3:TrackPointExtension>
            <ns3:atemp>19.0</ns3:atemp>
          </ns3:TrackPointExtension>
        </extensions>
      </trkpt>
      <trkpt lat="42.5485808216035366058349609375" lon="20.124657154083251953125">
        <ele>1965.5999755859375</ele>
        <time>2026-06-20T07:15:19.000Z</time>
        <extensions>
          <ns3:TrackPointExtension>
            <ns3:atemp>19.0</ns3:atemp>
          </ns3:TrackPointExtension>
        </extensions>
      </trkpt>
      <trkpt lat="42.54858995787799358367919921875" lon="20.1246558129787445068359375">
        <ele>1965.5999755859375</ele>
        <time>2026-06-20T07:15:20.000Z</time>
        <extensions>
          <ns3:TrackPointExtension>
            <ns3:atemp>19.0</ns3:atemp>
          </ns3:TrackPointExtension>
        </extensions>
      </trkpt>
      <trkpt lat="42.5485925562679767608642578125" lon="20.1246573217213153839111328125">
        <ele>1965.5999755859375</ele>
        <time>2026-06-20T07:15:21.000Z</time>
        <extensions>
          <ns3:TrackPointExtension>
            <ns3:atemp>19.0</ns3:atemp>
          </ns3:TrackPointExtension>
        </extensions>
      </trkpt>
      <trkpt lat="42.548592723906040191650390625" lon="20.1246573217213153839111328125">
        <ele>1965.5999755859375</ele>
        <time>2026-06-20T07:15:22.000Z</time>
        <extensions>
          <ns3:TrackPointExtension>
            <ns3:atemp>19.0</ns3:atemp>
          </ns3:TrackPointExtension>
        </extensions>
      </trkpt>
      <trkpt lat="42.5486016087234020233154296875" lon="20.124664194881916046142578125">
        <ele>1965.5999755859375</ele>
        <time>2026-06-20T07:15:23.000Z</time>
        <extensions>
          <ns3:TrackPointExtension>
            <ns3:atemp>19.0</ns3:atemp>
          </ns3:TrackPointExtension>
        </extensions>
      </trkpt>
      <trkpt lat="42.548608481884002685546875" lon="20.12466930784285068511962890625">
        <ele>1965.5999755859375</ele>
        <time>2026-06-20T07:15:24.000Z</time>
        <extensions>
          <ns3:TrackPointExtension>
            <ns3:atemp>19.0</ns3:atemp>
          </ns3:TrackPointExtension>
        </extensions>
      </trkpt>
      <trkpt lat="42.5486126728355884552001953125" lon="20.124673582613468170166015625">
        <ele>1965.5999755859375</ele>
        <time>2026-06-20T07:15:25.000Z</time>
        <extensions>
          <ns3:TrackPointExtension>
            <ns3:atemp>19.0</ns3:atemp>
          </ns3:TrackPointExtension>
        </extensions>
      </trkpt>
      <trkpt lat="42.54861728288233280181884765625" lon="20.12468037195503711700439453125">
        <ele>1965.5999755859375</ele>
        <time>2026-06-20T07:15:26.000Z</time>
        <extensions>
          <ns3:TrackPointExtension>
            <ns3:atemp>19.0</ns3:atemp>
          </ns3:TrackPointExtension>
        </extensions>
      </trkpt>
      <trkpt lat="42.54862013272941112518310546875" lon="20.1246878318488597869873046875">
        <ele>1965.5999755859375</ele>
        <time>2026-06-20T07:15:27.000Z</time>
        <extensions>
          <ns3:TrackPointExtension>
            <ns3:atemp>19.0</ns3:atemp>
          </ns3:TrackPointExtension>
        </extensions>
      </trkpt>
      <trkpt lat="42.54862013272941112518310546875" lon="20.12468858622014522552490234375">
        <ele>1965.5999755859375</ele>
        <time>2026-06-20T07:15:28.000Z</time>
        <extensions>
          <ns3:TrackPointExtension>
            <ns3:atemp>19.0</ns3:atemp>
          </ns3:TrackPointExtension>
        </extensions>
      </trkpt>
      <trkpt lat="42.54862013272941112518310546875" lon="20.12468858622014522552490234375">
        <ele>1965.5999755859375</ele>
        <time>2026-06-20T07:15:29.000Z</time>
        <extensions>
          <ns3:TrackPointExtension>
            <ns3:atemp>19.0</ns3:atemp>
          </ns3:TrackPointExtension>
        </extensions>
      </trkpt>
      <trkpt lat="42.54862030036747455596923828125" lon="20.12468867003917694091796875">
        <ele>1965.5999755859375</ele>
        <time>2026-06-20T07:15:30.000Z</time>
        <extensions>
          <ns3:TrackPointExtension>
            <ns3:atemp>19.0</ns3:atemp>
          </ns3:TrackPointExtension>
        </extensions>
      </trkpt>
      <trkpt lat="42.548625580966472625732421875" lon="20.12469361536204814910888671875">
        <ele>1965.5999755859375</ele>
        <time>2026-06-20T07:15:31.000Z</time>
        <extensions>
          <ns3:TrackPointExtension>
            <ns3:atemp>19.0</ns3:atemp>
          </ns3:TrackPointExtension>
        </extensions>
      </trkpt>
      <trkpt lat="42.54863203503191471099853515625" lon="20.12469596229493618011474609375">
        <ele>1965.5999755859375</ele>
        <time>2026-06-20T07:15:32.000Z</time>
        <extensions>
          <ns3:TrackPointExtension>
            <ns3:atemp>19.0</ns3:atemp>
          </ns3:TrackPointExtension>
        </extensions>
      </trkpt>
      <trkpt lat="42.5486388243734836578369140625" lon="20.1246985606849193572998046875">
        <ele>1965.5999755859375</ele>
        <time>2026-06-20T07:15:33.000Z</time>
        <extensions>
          <ns3:TrackPointExtension>
            <ns3:atemp>19.0</ns3:atemp>
          </ns3:TrackPointExtension>
        </extensions>
      </trkpt>
      <trkpt lat="42.5486446917057037353515625" lon="20.12470669113099575042724609375">
        <ele>1965.5999755859375</ele>
        <time>2026-06-20T07:15:34.000Z</time>
        <extensions>
          <ns3:TrackPointExtension>
            <ns3:atemp>19.0</ns3:atemp>
          </ns3:TrackPointExtension>
        </extensions>
      </trkpt>
      <trkpt lat="42.54864804446697235107421875" lon="20.12471172027289867401123046875">
        <ele>1965.5999755859375</ele>
        <time>2026-06-20T07:15:35.000Z</time>
        <extensions>
          <ns3:TrackPointExtension>
            <ns3:atemp>19.0</ns3:atemp>
          </ns3:TrackPointExtension>
        </extensions>
      </trkpt>
      <trkpt lat="42.54864804446697235107421875" lon="20.12471172027289867401123046875">
        <ele>1965.5999755859375</ele>
        <time>2026-06-20T07:15:36.000Z</time>
        <extensions>
          <ns3:TrackPointExtension>
            <ns3:atemp>19.0</ns3:atemp>
          </ns3:TrackPointExtension>
        </extensions>
      </trkpt>
      <trkpt lat="42.54864804446697235107421875" lon="20.12471172027289867401123046875">
        <ele>1965.5999755859375</ele>
        <time>2026-06-20T07:15:37.000Z</time>
        <extensions>
          <ns3:TrackPointExtension>
            <ns3:atemp>19.0</ns3:atemp>
          </ns3:TrackPointExtension>
        </extensions>
      </trkpt>
      <trkpt lat="42.54864804446697235107421875" lon="20.12471172027289867401123046875">
        <ele>1965.5999755859375</ele>
        <time>2026-06-20T07:15:38.000Z</time>
        <extensions>
          <ns3:TrackPointExtension>
            <ns3:atemp>19.0</ns3:atemp>
          </ns3:TrackPointExtension>
        </extensions>
      </trkpt>
      <trkpt lat="42.54864804446697235107421875" lon="20.12471172027289867401123046875">
        <ele>1965.5999755859375</ele>
        <time>2026-06-20T07:15:39.000Z</time>
        <extensions>
          <ns3:TrackPointExtension>
            <ns3:atemp>19.0</ns3:atemp>
          </ns3:TrackPointExtension>
        </extensions>
      </trkpt>
      <trkpt lat="42.54864804446697235107421875" lon="20.12471172027289867401123046875">
        <ele>1965.5999755859375</ele>
        <time>2026-06-20T07:15:40.000Z</time>
        <extensions>
          <ns3:TrackPointExtension>
            <ns3:atemp>19.0</ns3:atemp>
          </ns3:TrackPointExtension>
        </extensions>
      </trkpt>
      <trkpt lat="42.54864804446697235107421875" lon="20.12471172027289867401123046875">
        <ele>1965.5999755859375</ele>
        <time>2026-06-20T07:15:41.000Z</time>
        <extensions>
          <ns3:TrackPointExtension>
            <ns3:atemp>19.0</ns3:atemp>
          </ns3:TrackPointExtension>
        </extensions>
      </trkpt>
      <trkpt lat="42.54864871501922607421875" lon="20.124711804091930389404296875">
        <ele>1965.5999755859375</ele>
        <time>2026-06-20T07:15:42.000Z</time>
        <extensions>
          <ns3:TrackPointExtension>
            <ns3:atemp>19.0</ns3:atemp>
          </ns3:TrackPointExtension>
        </extensions>
      </trkpt>
      <trkpt lat="42.548669166862964630126953125" lon="20.12471607886254787445068359375">
        <ele>1965.5999755859375</ele>
        <time>2026-06-20T07:15:43.000Z</time>
        <extensions>
          <ns3:TrackPointExtension>
            <ns3:atemp>19.0</ns3:atemp>
          </ns3:TrackPointExtension>
        </extensions>
      </trkpt>
      <trkpt lat="42.54868693649768829345703125" lon="20.1247200183570384979248046875">
        <ele>1966</ele>
        <time>2026-06-20T07:15:44.000Z</time>
        <extensions>
          <ns3:TrackPointExtension>
            <ns3:atemp>19.0</ns3:atemp>
          </ns3:TrackPointExtension>
        </extensions>
      </trkpt>
      <trkpt lat="42.54870562814176082611083984375" lon="20.1247260533273220062255859375">
        <ele>1965.800048828125</ele>
        <time>2026-06-20T07:15:45.000Z</time>
        <extensions>
          <ns3:TrackPointExtension>
            <ns3:atemp>19.0</ns3:atemp>
          </ns3:TrackPointExtension>
        </extensions>
      </trkpt>
      <trkpt lat="42.54872105084359645843505859375" lon="20.1247371174395084381103515625">
        <ele>1965.800048828125</ele>
        <time>2026-06-20T07:15:46.000Z</time>
        <extensions>
          <ns3:TrackPointExtension>
            <ns3:atemp>19.0</ns3:atemp>
          </ns3:TrackPointExtension>
        </extensions>
      </trkpt>
      <trkpt lat="42.548734210431575775146484375" lon="20.12474901974201202392578125">
        <ele>1965.800048828125</ele>
        <time>2026-06-20T07:15:47.000Z</time>
        <extensions>
          <ns3:TrackPointExtension>
            <ns3:atemp>19.0</ns3:atemp>
          </ns3:TrackPointExtension>
        </extensions>
      </trkpt>
      <trkpt lat="42.548748962581157684326171875" lon="20.12475983239710330963134765625">
        <ele>1965.800048828125</ele>
        <time>2026-06-20T07:15:48.000Z</time>
        <extensions>
          <ns3:TrackPointExtension>
            <ns3:atemp>19.0</ns3:atemp>
          </ns3:TrackPointExtension>
        </extensions>
      </trkpt>
      <trkpt lat="42.5487628765404224395751953125" lon="20.12477290816605091094970703125">
        <ele>1966</ele>
        <time>2026-06-20T07:15:49.000Z</time>
        <extensions>
          <ns3:TrackPointExtension>
            <ns3:atemp>19.0</ns3:atemp>
          </ns3:TrackPointExtension>
        </extensions>
      </trkpt>
      <trkpt lat="42.54877519793808460235595703125" lon="20.124790929257869720458984375">
        <ele>1966</ele>
        <time>2026-06-20T07:15:50.000Z</time>
        <extensions>
          <ns3:TrackPointExtension>
            <ns3:atemp>19.0</ns3:atemp>
          </ns3:TrackPointExtension>
        </extensions>
      </trkpt>
      <trkpt lat="42.54878810606896877288818359375" lon="20.1248152367770671844482421875">
        <ele>1966</ele>
        <time>2026-06-20T07:15:51.000Z</time>
        <extensions>
          <ns3:TrackPointExtension>
            <ns3:atemp>19.0</ns3:atemp>
          </ns3:TrackPointExtension>
        </extensions>
      </trkpt>
      <trkpt lat="42.5487984158098697662353515625" lon="20.1248407177627086639404296875">
        <ele>1966</ele>
        <time>2026-06-20T07:15:52.000Z</time>
        <extensions>
          <ns3:TrackPointExtension>
            <ns3:atemp>19.0</ns3:atemp>
          </ns3:TrackPointExtension>
        </extensions>
      </trkpt>
      <trkpt lat="42.5488054566085338592529296875" lon="20.12486636638641357421875">
        <ele>1966.199951171875</ele>
        <time>2026-06-20T07:15:53.000Z</time>
        <extensions>
          <ns3:TrackPointExtension>
            <ns3:atemp>19.0</ns3:atemp>
          </ns3:TrackPointExtension>
        </extensions>
      </trkpt>
      <trkpt lat="42.5488098151981830596923828125" lon="20.1248889975249767303466796875">
        <ele>1966.199951171875</ele>
        <time>2026-06-20T07:15:54.000Z</time>
        <extensions>
          <ns3:TrackPointExtension>
            <ns3:atemp>19.0</ns3:atemp>
          </ns3:TrackPointExtension>
        </extensions>
      </trkpt>
      <trkpt lat="42.5488151796162128448486328125" lon="20.1249117963016033172607421875">
        <ele>1966.199951171875</ele>
        <time>2026-06-20T07:15:55.000Z</time>
        <extensions>
          <ns3:TrackPointExtension>
            <ns3:atemp>19.0</ns3:atemp>
          </ns3:TrackPointExtension>
        </extensions>
      </trkpt>
      <trkpt lat="42.5488178618252277374267578125" lon="20.1249345950782299041748046875">
        <ele>1966.199951171875</ele>
        <time>2026-06-20T07:15:56.000Z</time>
        <extensions>
          <ns3:TrackPointExtension>
            <ns3:atemp>19.0</ns3:atemp>
          </ns3:TrackPointExtension>
        </extensions>
      </trkpt>
      <trkpt lat="42.5488265790045261383056640625" lon="20.12495957314968109130859375">
        <ele>1966.4000244140625</ele>
        <time>2026-06-20T07:15:57.000Z</time>
        <extensions>
          <ns3:TrackPointExtension>
            <ns3:atemp>19.0</ns3:atemp>
          </ns3:TrackPointExtension>
        </extensions>
      </trkpt>
      <trkpt lat="42.548828758299350738525390625" lon="20.12498346157371997833251953125">
        <ele>1966.4000244140625</ele>
        <time>2026-06-20T07:15:58.000Z</time>
        <extensions>
          <ns3:TrackPointExtension>
            <ns3:atemp>19.0</ns3:atemp>
          </ns3:TrackPointExtension>
        </extensions>
      </trkpt>
      <trkpt lat="42.54882783629000186920166015625" lon="20.1250112056732177734375">
        <ele>1966.4000244140625</ele>
        <time>2026-06-20T07:15:59.000Z</time>
        <extensions>
          <ns3:TrackPointExtension>
            <ns3:atemp>19.0</ns3:atemp>
          </ns3:TrackPointExtension>
        </extensions>
      </trkpt>
      <trkpt lat="42.5488272495567798614501953125" lon="20.12503509409725666046142578125">
        <ele>1966.5999755859375</ele>
        <time>2026-06-20T07:16:00.000Z</time>
        <extensions>
          <ns3:TrackPointExtension>
            <ns3:atemp>19.0</ns3:atemp>
          </ns3:TrackPointExtension>
        </extensions>
      </trkpt>
      <trkpt lat="42.54882347770035266876220703125" lon="20.12505671940743923187255859375">
        <ele>1966.800048828125</ele>
        <time>2026-06-20T07:16:01.000Z</time>
        <extensions>
          <ns3:TrackPointExtension>
            <ns3:atemp>19.0</ns3:atemp>
          </ns3:TrackPointExtension>
        </extensions>
      </trkpt>
      <trkpt lat="42.54881962202489376068115234375" lon="20.12508069165050983428955078125">
        <ele>1967</ele>
        <time>2026-06-20T07:16:02.000Z</time>
        <extensions>
          <ns3:TrackPointExtension>
            <ns3:atemp>19.0</ns3:atemp>
          </ns3:TrackPointExtension>
        </extensions>
      </trkpt>
      <trkpt lat="42.54881425760686397552490234375" lon="20.12510499916970729827880859375">
        <ele>1967.4000244140625</ele>
        <time>2026-06-20T07:16:03.000Z</time>
        <extensions>
          <ns3:TrackPointExtension>
            <ns3:atemp>19.0</ns3:atemp>
          </ns3:TrackPointExtension>
        </extensions>
      </trkpt>
      <trkpt lat="42.5488088093698024749755859375" lon="20.12512947432696819305419921875">
        <ele>1967.5999755859375</ele>
        <time>2026-06-20T07:16:04.000Z</time>
        <extensions>
          <ns3:TrackPointExtension>
            <ns3:atemp>19.0</ns3:atemp>
          </ns3:TrackPointExtension>
        </extensions>
      </trkpt>
      <trkpt lat="42.5488037802278995513916015625" lon="20.12514841742813587188720703125">
        <ele>1968</ele>
        <time>2026-06-20T07:16:05.000Z</time>
        <extensions>
          <ns3:TrackPointExtension>
            <ns3:atemp>19.0</ns3:atemp>
          </ns3:TrackPointExtension>
        </extensions>
      </trkpt>
      <trkpt lat="42.54879933781921863555908203125" lon="20.12516618706285953521728515625">
        <ele>1968.4000244140625</ele>
        <time>2026-06-20T07:16:06.000Z</time>
        <extensions>
          <ns3:TrackPointExtension>
            <ns3:atemp>19.0</ns3:atemp>
          </ns3:TrackPointExtension>
        </extensions>
      </trkpt>
      <trkpt lat="42.54879497922956943511962890625" lon="20.1251890696585178375244140625">
        <ele>1968.5999755859375</ele>
        <time>2026-06-20T07:16:07.000Z</time>
        <extensions>
          <ns3:TrackPointExtension>
            <ns3:atemp>19.0</ns3:atemp>
          </ns3:TrackPointExtension>
        </extensions>
      </trkpt>
      <trkpt lat="42.548785842955112457275390625" lon="20.12521580792963504791259765625">
        <ele>1968.800048828125</ele>
        <time>2026-06-20T07:16:08.000Z</time>
        <extensions>
          <ns3:TrackPointExtension>
            <ns3:atemp>19.0</ns3:atemp>
          </ns3:TrackPointExtension>
        </extensions>
      </trkpt>
      <trkpt lat="42.54877746105194091796875" lon="20.1252470724284648895263671875">
        <ele>1969</ele>
        <time>2026-06-20T07:16:09.000Z</time>
        <extensions>
          <ns3:TrackPointExtension>
            <ns3:atemp>19.0</ns3:atemp>
          </ns3:TrackPointExtension>
        </extensions>
      </trkpt>
      <trkpt lat="42.54877419210970401763916015625" lon="20.1252785883843898773193359375">
        <ele>1969.199951171875</ele>
        <time>2026-06-20T07:16:10.000Z</time>
        <extensions>
          <ns3:TrackPointExtension>
            <ns3:atemp>19.0</ns3:atemp>
          </ns3:TrackPointExtension>
        </extensions>
      </trkpt>
      <trkpt lat="42.54877000115811824798583984375" lon="20.125308930873870849609375">
        <ele>1969.4000244140625</ele>
        <time>2026-06-20T07:16:11.000Z</time>
        <extensions>
          <ns3:TrackPointExtension>
            <ns3:atemp>19.0</ns3:atemp>
          </ns3:TrackPointExtension>
        </extensions>
      </trkpt>
      <trkpt lat="42.54876715131103992462158203125" lon="20.125341117382049560546875">
        <ele>1969.5999755859375</ele>
        <time>2026-06-20T07:16:12.000Z</time>
        <extensions>
          <ns3:TrackPointExtension>
            <ns3:atemp>19.0</ns3:atemp>
          </ns3:TrackPointExtension>
        </extensions>
      </trkpt>
      <trkpt lat="42.5487652234733104705810546875" lon="20.125366933643817901611328125">
        <ele>1969.5999755859375</ele>
        <time>2026-06-20T07:16:13.000Z</time>
        <extensions>
          <ns3:TrackPointExtension>
            <ns3:atemp>19.0</ns3:atemp>
          </ns3:TrackPointExtension>
        </extensions>
      </trkpt>
      <trkpt lat="42.54876069724559783935546875" lon="20.12539668940007686614990234375">
        <ele>1969.800048828125</ele>
        <time>2026-06-20T07:16:14.000Z</time>
        <extensions>
          <ns3:TrackPointExtension>
            <ns3:atemp>19.0</ns3:atemp>
          </ns3:TrackPointExtension>
        </extensions>
      </trkpt>
      <trkpt lat="42.54875910468399524688720703125" lon="20.1254271157085895538330078125">
        <ele>1970</ele>
        <time>2026-06-20T07:16:15.000Z</time>
        <extensions>
          <ns3:TrackPointExtension>
            <ns3:atemp>19.0</ns3:atemp>
          </ns3:TrackPointExtension>
        </extensions>
      </trkpt>
      <trkpt lat="42.548756338655948638916015625" lon="20.1254549436271190643310546875">
        <ele>1970.199951171875</ele>
        <time>2026-06-20T07:16:16.000Z</time>
        <extensions>
          <ns3:TrackPointExtension>
            <ns3:atemp>19.0</ns3:atemp>
          </ns3:TrackPointExtension>
        </extensions>
      </trkpt>
      <trkpt lat="42.548750974237918853759765625" lon="20.12548654340207576751708984375">
        <ele>1970.4000244140625</ele>
        <time>2026-06-20T07:16:17.000Z</time>
        <extensions>
          <ns3:TrackPointExtension>
            <ns3:atemp>19.0</ns3:atemp>
          </ns3:TrackPointExtension>
        </extensions>
      </trkpt>
      <trkpt lat="42.548746280372142791748046875" lon="20.12550883926451206207275390625">
        <ele>1970.800048828125</ele>
        <time>2026-06-20T07:16:18.000Z</time>
        <extensions>
          <ns3:TrackPointExtension>
            <ns3:atemp>19.0</ns3:atemp>
          </ns3:TrackPointExtension>
        </extensions>
      </trkpt>
      <trkpt lat="42.5487477891147136688232421875" lon="20.1255287043750286102294921875">
        <ele>1971</ele>
        <time>2026-06-20T07:16:19.000Z</time>
        <extensions>
          <ns3:TrackPointExtension>
            <ns3:atemp>19.0</ns3:atemp>
          </ns3:TrackPointExtension>
        </extensions>
      </trkpt>
      <trkpt lat="42.54873915575444698333740234375" lon="20.125552006065845489501953125">
        <ele>1971.199951171875</ele>
        <time>2026-06-20T07:16:20.000Z</time>
        <extensions>
          <ns3:TrackPointExtension>
            <ns3:atemp>19.0</ns3:atemp>
          </ns3:TrackPointExtension>
        </extensions>
      </trkpt>
      <trkpt lat="42.548731863498687744140625" lon="20.12557379901409149169921875">
        <ele>1971.4000244140625</ele>
        <time>2026-06-20T07:16:21.000Z</time>
        <extensions>
          <ns3:TrackPointExtension>
            <ns3:atemp>19.0</ns3:atemp>
          </ns3:TrackPointExtension>
        </extensions>
      </trkpt>
      <trkpt lat="42.5487249903380870819091796875" lon="20.1255950890481472015380859375">
        <ele>1971.5999755859375</ele>
        <time>2026-06-20T07:16:22.000Z</time>
        <extensions>
          <ns3:TrackPointExtension>
            <ns3:atemp>19.0</ns3:atemp>
          </ns3:TrackPointExtension>
        </extensions>
      </trkpt>
      <trkpt lat="42.548721134662628173828125" lon="20.12561864219605922698974609375">
        <ele>1971.800048828125</ele>
        <time>2026-06-20T07:16:23.000Z</time>
        <extensions>
          <ns3:TrackPointExtension>
            <ns3:atemp>19.0</ns3:atemp>
          </ns3:TrackPointExtension>
        </extensions>
      </trkpt>
      <trkpt lat="42.5487144291400909423828125" lon="20.12564345262944698333740234375">
        <ele>1972</ele>
        <time>2026-06-20T07:16:24.000Z</time>
        <extensions>
          <ns3:TrackPointExtension>
            <ns3:atemp>19.0</ns3:atemp>
          </ns3:TrackPointExtension>
        </extensions>
      </trkpt>
      <trkpt lat="42.54870814271271228790283203125" lon="20.1256696879863739013671875">
        <ele>1972.199951171875</ele>
        <time>2026-06-20T07:16:25.000Z</time>
        <extensions>
          <ns3:TrackPointExtension>
            <ns3:atemp>19.0</ns3:atemp>
          </ns3:TrackPointExtension>
        </extensions>
      </trkpt>
      <trkpt lat="42.54870160482823848724365234375" lon="20.125704221427440643310546875">
        <ele>1972.4000244140625</ele>
        <time>2026-06-20T07:16:26.000Z</time>
        <extensions>
          <ns3:TrackPointExtension>
            <ns3:atemp>19.0</ns3:atemp>
          </ns3:TrackPointExtension>
        </extensions>
      </trkpt>
      <trkpt lat="42.54869791679084300994873046875" lon="20.12573565356433391571044921875">
        <ele>1972.5999755859375</ele>
        <time>2026-06-20T07:16:27.000Z</time>
        <extensions>
          <ns3:TrackPointExtension>
            <ns3:atemp>19.0</ns3:atemp>
          </ns3:TrackPointExtension>
        </extensions>
      </trkpt>
      <trkpt lat="42.5486929714679718017578125" lon="20.12576918117702007293701171875">
        <ele>1972.5999755859375</ele>
        <time>2026-06-20T07:16:28.000Z</time>
        <extensions>
          <ns3:TrackPointExtension>
            <ns3:atemp>19.0</ns3:atemp>
          </ns3:TrackPointExtension>
        </extensions>
      </trkpt>
      <trkpt lat="42.54869355820119380950927734375" lon="20.12580203823745250701904296875">
        <ele>1972.800048828125</ele>
        <time>2026-06-20T07:16:29.000Z</time>
        <extensions>
          <ns3:TrackPointExtension>
            <ns3:atemp>19.0</ns3:atemp>
          </ns3:TrackPointExtension>
        </extensions>
      </trkpt>
      <trkpt lat="42.54869774915277957916259765625" lon="20.1258358173072338104248046875">
        <ele>1972.800048828125</ele>
        <time>2026-06-20T07:16:30.000Z</time>
        <extensions>
          <ns3:TrackPointExtension>
            <ns3:atemp>19.0</ns3:atemp>
          </ns3:TrackPointExtension>
        </extensions>
      </trkpt>
      <trkpt lat="42.54870395176112651824951171875" lon="20.12587479315698146820068359375">
        <ele>1972.800048828125</ele>
        <time>2026-06-20T07:16:31.000Z</time>
        <extensions>
          <ns3:TrackPointExtension>
            <ns3:atemp>19.0</ns3:atemp>
          </ns3:TrackPointExtension>
        </extensions>
      </trkpt>
      <trkpt lat="42.548711411654949188232421875" lon="20.1259105838835239410400390625">
        <ele>1973</ele>
        <time>2026-06-20T07:16:32.000Z</time>
        <extensions>
          <ns3:TrackPointExtension>
            <ns3:atemp>19.0</ns3:atemp>
          </ns3:TrackPointExtension>
        </extensions>
      </trkpt>
      <trkpt lat="42.5487186200916767120361328125" lon="20.1259484700858592987060546875">
        <ele>1973</ele>
        <time>2026-06-20T07:16:33.000Z</time>
        <extensions>
          <ns3:TrackPointExtension>
            <ns3:atemp>19.0</ns3:atemp>
          </ns3:TrackPointExtension>
        </extensions>
      </trkpt>
      <trkpt lat="42.5487233139574527740478515625" lon="20.125986523926258087158203125">
        <ele>1973</ele>
        <time>2026-06-20T07:16:34.000Z</time>
        <extensions>
          <ns3:TrackPointExtension>
            <ns3:atemp>19.0</ns3:atemp>
          </ns3:TrackPointExtension>
        </extensions>
      </trkpt>
      <trkpt lat="42.5487310253083705902099609375" lon="20.12601904571056365966796875">
        <ele>1973.199951171875</ele>
        <time>2026-06-20T07:16:35.000Z</time>
        <extensions>
          <ns3:TrackPointExtension>
            <ns3:atemp>19.0</ns3:atemp>
          </ns3:TrackPointExtension>
        </extensions>
      </trkpt>
      <trkpt lat="42.5487370602786540985107421875" lon="20.12605114839971065521240234375">
        <ele>1973.199951171875</ele>
        <time>2026-06-20T07:16:36.000Z</time>
        <extensions>
          <ns3:TrackPointExtension>
            <ns3:atemp>19.0</ns3:atemp>
          </ns3:TrackPointExtension>
        </extensions>
      </trkpt>
      <trkpt lat="42.5487437658011913299560546875" lon="20.12608517892658710479736328125">
        <ele>1973.4000244140625</ele>
        <time>2026-06-20T07:16:37.000Z</time>
        <extensions>
          <ns3:TrackPointExtension>
            <ns3:atemp>19.0</ns3:atemp>
          </ns3:TrackPointExtension>
        </extensions>
      </trkpt>
      <trkpt lat="42.54874854348599910736083984375" lon="20.1261167787015438079833984375">
        <ele>1973.5999755859375</ele>
        <time>2026-06-20T07:16:38.000Z</time>
        <extensions>
          <ns3:TrackPointExtension>
            <ns3:atemp>19.0</ns3:atemp>
          </ns3:TrackPointExtension>
        </extensions>
      </trkpt>
      <trkpt lat="42.54875441081821918487548828125" lon="20.12614435516297817230224609375">
        <ele>1973.800048828125</ele>
        <time>2026-06-20T07:16:39.000Z</time>
        <extensions>
          <ns3:TrackPointExtension>
            <ns3:atemp>19.0</ns3:atemp>
          </ns3:TrackPointExtension>
        </extensions>
      </trkpt>
      <trkpt lat="42.5487565062940120697021484375" lon="20.12617168016731739044189453125">
        <ele>1974</ele>
        <time>2026-06-20T07:16:40.000Z</time>
        <extensions>
          <ns3:TrackPointExtension>
            <ns3:atemp>19.0</ns3:atemp>
          </ns3:TrackPointExtension>
        </extensions>
      </trkpt>
      <trkpt lat="42.5487598590552806854248046875" lon="20.12619984336197376251220703125">
        <ele>1974.199951171875</ele>
        <time>2026-06-20T07:16:41.000Z</time>
        <extensions>
          <ns3:TrackPointExtension>
            <ns3:atemp>19.0</ns3:atemp>
          </ns3:TrackPointExtension>
        </extensions>
      </trkpt>
      <trkpt lat="42.548764385282993316650390625" lon="20.12623270042240619659423828125">
        <ele>1974.4000244140625</ele>
        <time>2026-06-20T07:16:42.000Z</time>
        <extensions>
          <ns3:TrackPointExtension>
            <ns3:atemp>19.0</ns3:atemp>
          </ns3:TrackPointExtension>
        </extensions>
      </trkpt>
      <trkpt lat="42.548769749701023101806640625" lon="20.12626589275896549224853515625">
        <ele>1974.5999755859375</ele>
        <time>2026-06-20T07:16:43.000Z</time>
        <extensions>
          <ns3:TrackPointExtension>
            <ns3:atemp>19.0</ns3:atemp>
          </ns3:TrackPointExtension>
        </extensions>
      </trkpt>
      <trkpt lat="42.54877419210970401763916015625" lon="20.126302354037761688232421875">
        <ele>1974.5999755859375</ele>
        <time>2026-06-20T07:16:44.000Z</time>
        <extensions>
          <ns3:TrackPointExtension>
            <ns3:atemp>19.0</ns3:atemp>
          </ns3:TrackPointExtension>
        </extensions>
      </trkpt>
      <trkpt lat="42.548778466880321502685546875" lon="20.12633428908884525299072265625">
        <ele>1974.800048828125</ele>
        <time>2026-06-20T07:16:45.000Z</time>
        <extensions>
          <ns3:TrackPointExtension>
            <ns3:atemp>19.0</ns3:atemp>
          </ns3:TrackPointExtension>
        </extensions>
      </trkpt>
      <trkpt lat="42.54878441803157329559326171875" lon="20.12636211700737476348876953125">
        <ele>1975</ele>
        <time>2026-06-20T07:16:46.000Z</time>
        <extensions>
          <ns3:TrackPointExtension>
            <ns3:atemp>19.0</ns3:atemp>
          </ns3:TrackPointExtension>
        </extensions>
      </trkpt>
      <trkpt lat="42.54879011772572994232177734375" lon="20.12639028020203113555908203125">
        <ele>1975.4000244140625</ele>
        <time>2026-06-20T07:16:47.000Z</time>
        <extensions>
          <ns3:TrackPointExtension>
            <ns3:atemp>19.0</ns3:atemp>
          </ns3:TrackPointExtension>
        </extensions>
      </trkpt>
      <trkpt lat="42.54879548214375972747802734375" lon="20.12641609646379947662353515625">
        <ele>1975.5999755859375</ele>
        <time>2026-06-20T07:16:48.000Z</time>
        <extensions>
          <ns3:TrackPointExtension>
            <ns3:atemp>19.0</ns3:atemp>
          </ns3:TrackPointExtension>
        </extensions>
      </trkpt>
      <trkpt lat="42.54880554042756557464599609375" lon="20.126439817249774932861328125">
        <ele>1976</ele>
        <time>2026-06-20T07:16:49.000Z</time>
        <extensions>
          <ns3:TrackPointExtension>
            <ns3:atemp>19.0</ns3:atemp>
          </ns3:TrackPointExtension>
        </extensions>
      </trkpt>
      <trkpt lat="42.54881995730102062225341796875" lon="20.12646269984543323516845703125">
        <ele>1976.199951171875</ele>
        <time>2026-06-20T07:16:50.000Z</time>
        <extensions>
          <ns3:TrackPointExtension>
            <ns3:atemp>19.0</ns3:atemp>
          </ns3:TrackPointExtension>
        </extensions>
      </trkpt>
      <trkpt lat="42.5488403253257274627685546875" lon="20.1264949701726436614990234375">
        <ele>1976.4000244140625</ele>
        <time>2026-06-20T07:16:51.000Z</time>
        <extensions>
          <ns3:TrackPointExtension>
            <ns3:atemp>19.0</ns3:atemp>
          </ns3:TrackPointExtension>
        </extensions>
      </trkpt>
      <trkpt lat="42.54886471666395664215087890625" lon="20.1265254803001880645751953125">
        <ele>1976.4000244140625</ele>
        <time>2026-06-20T07:16:52.000Z</time>
        <extensions>
          <ns3:TrackPointExtension>
            <ns3:atemp>19.0</ns3:atemp>
          </ns3:TrackPointExtension>
        </extensions>
      </trkpt>
      <trkpt lat="42.548888437449932098388671875" lon="20.1265549845993518829345703125">
        <ele>1976.199951171875</ele>
        <time>2026-06-20T07:16:53.000Z</time>
        <extensions>
          <ns3:TrackPointExtension>
            <ns3:atemp>19.0</ns3:atemp>
          </ns3:TrackPointExtension>
        </extensions>
      </trkpt>
      <trkpt lat="42.54890930838882923126220703125" lon="20.12657635845243930816650390625">
        <ele>1976.199951171875</ele>
        <time>2026-06-20T07:16:54.000Z</time>
        <extensions>
          <ns3:TrackPointExtension>
            <ns3:atemp>19.0</ns3:atemp>
          </ns3:TrackPointExtension>
        </extensions>
      </trkpt>
      <trkpt lat="42.54892338998615741729736328125" lon="20.12659731321036815643310546875">
        <ele>1976.199951171875</ele>
        <time>2026-06-20T07:16:55.000Z</time>
        <extensions>
          <ns3:TrackPointExtension>
            <ns3:atemp>19.0</ns3:atemp>
          </ns3:TrackPointExtension>
        </extensions>
      </trkpt>
      <trkpt lat="42.54893830977380275726318359375" lon="20.12661189772188663482666015625">
        <ele>1976.199951171875</ele>
        <time>2026-06-20T07:16:56.000Z</time>
        <extensions>
          <ns3:TrackPointExtension>
            <ns3:atemp>19.0</ns3:atemp>
          </ns3:TrackPointExtension>
        </extensions>
      </trkpt>
      <trkpt lat="42.5489519722759723663330078125" lon="20.12662765569984912872314453125">
        <ele>1976.4000244140625</ele>
        <time>2026-06-20T07:16:57.000Z</time>
        <extensions>
          <ns3:TrackPointExtension>
            <ns3:atemp>19.0</ns3:atemp>
          </ns3:TrackPointExtension>
        </extensions>
      </trkpt>
      <trkpt lat="42.5489692389965057373046875" lon="20.1266433298587799072265625">
        <ele>1976.5999755859375</ele>
        <time>2026-06-20T07:16:58.000Z</time>
        <extensions>
          <ns3:TrackPointExtension>
            <ns3:atemp>19.0</ns3:atemp>
          </ns3:TrackPointExtension>
        </extensions>
      </trkpt>
      <trkpt lat="42.5489853322505950927734375" lon="20.12666143476963043212890625">
        <ele>1976.5999755859375</ele>
        <time>2026-06-20T07:16:59.000Z</time>
        <extensions>
          <ns3:TrackPointExtension>
            <ns3:atemp>19.0</ns3:atemp>
          </ns3:TrackPointExtension>
        </extensions>
      </trkpt>
      <trkpt lat="42.549006454646587371826171875" lon="20.126692950725555419921875">
        <ele>1976.5999755859375</ele>
        <time>2026-06-20T07:17:00.000Z</time>
        <extensions>
          <ns3:TrackPointExtension>
            <ns3:atemp>19.0</ns3:atemp>
          </ns3:TrackPointExtension>
        </extensions>
      </trkpt>
      <trkpt lat="42.54902330227196216583251953125" lon="20.12673108838498592376708984375">
        <ele>1976.4000244140625</ele>
        <time>2026-06-20T07:17:01.000Z</time>
        <extensions>
          <ns3:TrackPointExtension>
            <ns3:atemp>19.0</ns3:atemp>
          </ns3:TrackPointExtension>
        </extensions>
      </trkpt>
      <trkpt lat="42.5490391440689563751220703125" lon="20.126773081719875335693359375">
        <ele>1976</ele>
        <time>2026-06-20T07:17:02.000Z</time>
        <extensions>
          <ns3:TrackPointExtension>
            <ns3:atemp>19.0</ns3:atemp>
          </ns3:TrackPointExtension>
        </extensions>
      </trkpt>
      <trkpt lat="42.54905850626528263092041015625" lon="20.12681071646511554718017578125">
        <ele>1975.5999755859375</ele>
        <time>2026-06-20T07:17:03.000Z</time>
        <extensions>
          <ns3:TrackPointExtension>
            <ns3:atemp>19.0</ns3:atemp>
          </ns3:TrackPointExtension>
        </extensions>
      </trkpt>
      <trkpt lat="42.54907895810902118682861328125" lon="20.1268473453819751739501953125">
        <ele>1975</ele>
        <time>2026-06-20T07:17:04.000Z</time>
        <extensions>
          <ns3:TrackPointExtension>
            <ns3:atemp>19.0</ns3:atemp>
          </ns3:TrackPointExtension>
        </extensions>
      </trkpt>
      <trkpt lat="42.54910058341920375823974609375" lon="20.1268869079649448394775390625">
        <ele>1974.5999755859375</ele>
        <time>2026-06-20T07:17:05.000Z</time>
        <extensions>
          <ns3:TrackPointExtension>
            <ns3:atemp>19.0</ns3:atemp>
          </ns3:TrackPointExtension>
        </extensions>
      </trkpt>
      <trkpt lat="42.54911902360618114471435546875" lon="20.12692563235759735107421875">
        <ele>1974</ele>
        <time>2026-06-20T07:17:06.000Z</time>
        <extensions>
          <ns3:TrackPointExtension>
            <ns3:atemp>19.0</ns3:atemp>
          </ns3:TrackPointExtension>
        </extensions>
      </trkpt>
      <trkpt lat="42.549128830432891845703125" lon="20.12696712277829647064208984375">
        <ele>1973.4000244140625</ele>
        <time>2026-06-20T07:17:07.000Z</time>
        <extensions>
          <ns3:TrackPointExtension>
            <ns3:atemp>19.0</ns3:atemp>
          </ns3:TrackPointExtension>
        </extensions>
      </trkpt>
      <trkpt lat="42.549129836261272430419921875" lon="20.1270079426467418670654296875">
        <ele>1972.5999755859375</ele>
        <time>2026-06-20T07:17:08.000Z</time>
        <extensions>
          <ns3:TrackPointExtension>
            <ns3:atemp>19.0</ns3:atemp>
          </ns3:TrackPointExtension>
        </extensions>
      </trkpt>
      <trkpt lat="42.54912556149065494537353515625" lon="20.1270464994013309478759765625">
        <ele>1972.199951171875</ele>
        <time>2026-06-20T07:17:09.000Z</time>
        <extensions>
          <ns3:TrackPointExtension>
            <ns3:atemp>19.0</ns3:atemp>
          </ns3:TrackPointExtension>
        </extensions>
      </trkpt>
      <trkpt lat="42.54912153817713260650634765625" lon="20.1270907558500766754150390625">
        <ele>1971.800048828125</ele>
        <time>2026-06-20T07:17:10.000Z</time>
        <extensions>
          <ns3:TrackPointExtension>
            <ns3:atemp>19.0</ns3:atemp>
          </ns3:TrackPointExtension>
        </extensions>
      </trkpt>
      <trkpt lat="42.54911500029265880584716796875" lon="20.1271309889853000640869140625">
        <ele>1971.5999755859375</ele>
        <time>2026-06-20T07:17:11.000Z</time>
        <extensions>
          <ns3:TrackPointExtension>
            <ns3:atemp>19.0</ns3:atemp>
          </ns3:TrackPointExtension>
        </extensions>
      </trkpt>
      <trkpt lat="42.5491118989884853363037109375" lon="20.1271668635308742523193359375">
        <ele>1971.199951171875</ele>
        <time>2026-06-20T07:17:12.000Z</time>
        <extensions>
          <ns3:TrackPointExtension>
            <ns3:atemp>19.0</ns3:atemp>
          </ns3:TrackPointExtension>
        </extensions>
      </trkpt>
      <trkpt lat="42.54911600612103939056396484375" lon="20.1272030733525753021240234375">
        <ele>1971</ele>
        <time>2026-06-20T07:17:13.000Z</time>
        <extensions>
          <ns3:TrackPointExtension>
            <ns3:atemp>19.0</ns3:atemp>
          </ns3:TrackPointExtension>
        </extensions>
      </trkpt>
      <trkpt lat="42.54912304691970348358154296875" lon="20.1272362656891345977783203125">
        <ele>1970.4000244140625</ele>
        <time>2026-06-20T07:17:14.000Z</time>
        <extensions>
          <ns3:TrackPointExtension>
            <ns3:atemp>19.0</ns3:atemp>
          </ns3:TrackPointExtension>
        </extensions>
      </trkpt>
      <trkpt lat="42.54912958480417728424072265625" lon="20.127268619835376739501953125">
        <ele>1970.199951171875</ele>
        <time>2026-06-20T07:17:15.000Z</time>
        <extensions>
          <ns3:TrackPointExtension>
            <ns3:atemp>19.0</ns3:atemp>
          </ns3:TrackPointExtension>
        </extensions>
      </trkpt>
      <trkpt lat="42.54913645796477794647216796875" lon="20.12730181217193603515625">
        <ele>1970</ele>
        <time>2026-06-20T07:17:16.000Z</time>
        <extensions>
          <ns3:TrackPointExtension>
            <ns3:atemp>19.0</ns3:atemp>
          </ns3:TrackPointExtension>
        </extensions>
      </trkpt>
      <trkpt lat="42.54914266057312488555908203125" lon="20.12733492068946361541748046875">
        <ele>1969.800048828125</ele>
        <time>2026-06-20T07:17:17.000Z</time>
        <extensions>
          <ns3:TrackPointExtension>
            <ns3:atemp>19.0</ns3:atemp>
          </ns3:TrackPointExtension>
        </extensions>
      </trkpt>
      <trkpt lat="42.5491462647914886474609375" lon="20.12737180106341838836669921875">
        <ele>1969.5999755859375</ele>
        <time>2026-06-20T07:17:18.000Z</time>
        <extensions>
          <ns3:TrackPointExtension>
            <ns3:atemp>19.0</ns3:atemp>
          </ns3:TrackPointExtension>
        </extensions>
      </trkpt>
      <trkpt lat="42.549147941172122955322265625" lon="20.1274050772190093994140625">
        <ele>1969.5999755859375</ele>
        <time>2026-06-20T07:17:19.000Z</time>
        <extensions>
          <ns3:TrackPointExtension>
            <ns3:atemp>19.0</ns3:atemp>
          </ns3:TrackPointExtension>
        </extensions>
      </trkpt>
      <trkpt lat="42.54915037192404270172119140625" lon="20.1274399459362030029296875">
        <ele>1969.5999755859375</ele>
        <time>2026-06-20T07:17:20.000Z</time>
        <extensions>
          <ns3:TrackPointExtension>
            <ns3:atemp>19.0</ns3:atemp>
          </ns3:TrackPointExtension>
        </extensions>
      </trkpt>
      <trkpt lat="42.54914869554340839385986328125" lon="20.1274776645004749298095703125">
        <ele>1969.5999755859375</ele>
        <time>2026-06-20T07:17:21.000Z</time>
        <extensions>
          <ns3:TrackPointExtension>
            <ns3:atemp>19.0</ns3:atemp>
          </ns3:TrackPointExtension>
        </extensions>
      </trkpt>
      <trkpt lat="42.549146600067615509033203125" lon="20.1275105215609073638916015625">
        <ele>1969.5999755859375</ele>
        <time>2026-06-20T07:17:22.000Z</time>
        <extensions>
          <ns3:TrackPointExtension>
            <ns3:atemp>19.0</ns3:atemp>
          </ns3:TrackPointExtension>
        </extensions>
      </trkpt>
      <trkpt lat="42.54914450459182262420654296875" lon="20.12754312716424465179443359375">
        <ele>1969.5999755859375</ele>
        <time>2026-06-20T07:17:23.000Z</time>
        <extensions>
          <ns3:TrackPointExtension>
            <ns3:atemp>19.0</ns3:atemp>
          </ns3:TrackPointExtension>
        </extensions>
      </trkpt>
      <trkpt lat="42.5491410680115222930908203125" lon="20.12757338583469390869140625">
        <ele>1969.800048828125</ele>
        <time>2026-06-20T07:17:24.000Z</time>
        <extensions>
          <ns3:TrackPointExtension>
            <ns3:atemp>19.0</ns3:atemp>
          </ns3:TrackPointExtension>
        </extensions>
      </trkpt>
      <trkpt lat="42.549137212336063385009765625" lon="20.12760783545672893524169921875">
        <ele>1969.800048828125</ele>
        <time>2026-06-20T07:17:25.000Z</time>
        <extensions>
          <ns3:TrackPointExtension>
            <ns3:atemp>19.0</ns3:atemp>
          </ns3:TrackPointExtension>
        </extensions>
      </trkpt>
      <trkpt lat="42.5491283275187015533447265625" lon="20.1276419498026371002197265625">
        <ele>1969.800048828125</ele>
        <time>2026-06-20T07:17:26.000Z</time>
        <extensions>
          <ns3:TrackPointExtension>
            <ns3:atemp>19.0</ns3:atemp>
          </ns3:TrackPointExtension>
        </extensions>
      </trkpt>
      <trkpt lat="42.54911734722554683685302734375" lon="20.1276758126914501190185546875">
        <ele>1969.800048828125</ele>
        <time>2026-06-20T07:17:27.000Z</time>
        <extensions>
          <ns3:TrackPointExtension>
            <ns3:atemp>19.0</ns3:atemp>
          </ns3:TrackPointExtension>
        </extensions>
      </trkpt>
      <trkpt lat="42.54910930059850215911865234375" lon="20.12771629728376865386962890625">
        <ele>1969.800048828125</ele>
        <time>2026-06-20T07:17:28.000Z</time>
        <extensions>
          <ns3:TrackPointExtension>
            <ns3:atemp>19.0</ns3:atemp>
          </ns3:TrackPointExtension>
        </extensions>
      </trkpt>
      <trkpt lat="42.5490991584956645965576171875" lon="20.12774798087775707244873046875">
        <ele>1969.800048828125</ele>
        <time>2026-06-20T07:17:29.000Z</time>
        <extensions>
          <ns3:TrackPointExtension>
            <ns3:atemp>19.0</ns3:atemp>
          </ns3:TrackPointExtension>
        </extensions>
      </trkpt>
      <trkpt lat="42.54908767528831958770751953125" lon="20.12777647934854030609130859375">
        <ele>1969.800048828125</ele>
        <time>2026-06-20T07:17:30.000Z</time>
        <extensions>
          <ns3:TrackPointExtension>
            <ns3:atemp>19.0</ns3:atemp>
          </ns3:TrackPointExtension>
        </extensions>
      </trkpt>
      <trkpt lat="42.5490803830325603485107421875" lon="20.1278048940002918243408203125">
        <ele>1970</ele>
        <time>2026-06-20T07:17:31.000Z</time>
        <extensions>
          <ns3:TrackPointExtension>
            <ns3:atemp>19.0</ns3:atemp>
          </ns3:TrackPointExtension>
        </extensions>
      </trkpt>
      <trkpt lat="42.54907107912003993988037109375" lon="20.12783029116690158843994140625">
        <ele>1970</ele>
        <time>2026-06-20T07:17:32.000Z</time>
        <extensions>
          <ns3:TrackPointExtension>
            <ns3:atemp>19.0</ns3:atemp>
          </ns3:TrackPointExtension>
        </extensions>
      </trkpt>
      <trkpt lat="42.549062110483646392822265625" lon="20.12785744853317737579345703125">
        <ele>1970.199951171875</ele>
        <time>2026-06-20T07:17:33.000Z</time>
        <extensions>
          <ns3:TrackPointExtension>
            <ns3:atemp>19.0</ns3:atemp>
          </ns3:TrackPointExtension>
        </extensions>
      </trkpt>
      <trkpt lat="42.54905096255242824554443359375" lon="20.12788142077624797821044921875">
        <ele>1970.4000244140625</ele>
        <time>2026-06-20T07:17:34.000Z</time>
        <extensions>
          <ns3:TrackPointExtension>
            <ns3:atemp>19.0</ns3:atemp>
          </ns3:TrackPointExtension>
        </extensions>
      </trkpt>
      <trkpt lat="42.54904501140117645263671875" lon="20.12790455482900142669677734375">
        <ele>1970.5999755859375</ele>
        <time>2026-06-20T07:17:35.000Z</time>
        <extensions>
          <ns3:TrackPointExtension>
            <ns3:atemp>19.0</ns3:atemp>
          </ns3:TrackPointExtension>
        </extensions>
      </trkpt>
      <trkpt lat="42.5490391440689563751220703125" lon="20.1279322989284992218017578125">
        <ele>1970.800048828125</ele>
        <time>2026-06-20T07:17:36.000Z</time>
        <extensions>
          <ns3:TrackPointExtension>
            <ns3:atemp>19.0</ns3:atemp>
          </ns3:TrackPointExtension>
        </extensions>
      </trkpt>
      <trkpt lat="42.5490391440689563751220703125" lon="20.127961970865726470947265625">
        <ele>1971</ele>
        <time>2026-06-20T07:17:37.000Z</time>
        <extensions>
          <ns3:TrackPointExtension>
            <ns3:atemp>19.0</ns3:atemp>
          </ns3:TrackPointExtension>
        </extensions>
      </trkpt>
      <trkpt lat="42.549042999744415283203125" lon="20.12798971496522426605224609375">
        <ele>1971.199951171875</ele>
        <time>2026-06-20T07:17:38.000Z</time>
        <extensions>
          <ns3:TrackPointExtension>
            <ns3:atemp>19.0</ns3:atemp>
          </ns3:TrackPointExtension>
        </extensions>
      </trkpt>
      <trkpt lat="42.54904945380985736846923828125" lon="20.12801469303667545318603515625">
        <ele>1971.4000244140625</ele>
        <time>2026-06-20T07:17:39.000Z</time>
        <extensions>
          <ns3:TrackPointExtension>
            <ns3:atemp>19.0</ns3:atemp>
          </ns3:TrackPointExtension>
        </extensions>
      </trkpt>
      <trkpt lat="42.54906219430267810821533203125" lon="20.12803849764168262481689453125">
        <ele>1971.4000244140625</ele>
        <time>2026-06-20T07:17:40.000Z</time>
        <extensions>
          <ns3:TrackPointExtension>
            <ns3:atemp>19.0</ns3:atemp>
          </ns3:TrackPointExtension>
        </extensions>
      </trkpt>
      <trkpt lat="42.54907828755676746368408203125" lon="20.1280617155134677886962890625">
        <ele>1971.5999755859375</ele>
        <time>2026-06-20T07:17:41.000Z</time>
        <extensions>
          <ns3:TrackPointExtension>
            <ns3:atemp>19.0</ns3:atemp>
          </ns3:TrackPointExtension>
        </extensions>
      </trkpt>
      <trkpt lat="42.54909220151603221893310546875" lon="20.12807923369109630584716796875">
        <ele>1972</ele>
        <time>2026-06-20T07:17:42.000Z</time>
        <extensions>
          <ns3:TrackPointExtension>
            <ns3:atemp>19.0</ns3:atemp>
          </ns3:TrackPointExtension>
        </extensions>
      </trkpt>
      <trkpt lat="42.549107372760772705078125" lon="20.12809951789677143096923828125">
        <ele>1972</ele>
        <time>2026-06-20T07:17:43.000Z</time>
        <extensions>
          <ns3:TrackPointExtension>
            <ns3:atemp>19.0</ns3:atemp>
          </ns3:TrackPointExtension>
        </extensions>
      </trkpt>
      <trkpt lat="42.5491202808916568756103515625" lon="20.1281153596937656402587890625">
        <ele>1972.199951171875</ele>
        <time>2026-06-20T07:17:44.000Z</time>
        <extensions>
          <ns3:TrackPointExtension>
            <ns3:atemp>19.0</ns3:atemp>
          </ns3:TrackPointExtension>
        </extensions>
      </trkpt>
      <trkpt lat="42.54913629032671451568603515625" lon="20.128130950033664703369140625">
        <ele>1972.4000244140625</ele>
        <time>2026-06-20T07:17:45.000Z</time>
        <extensions>
          <ns3:TrackPointExtension>
            <ns3:atemp>19.0</ns3:atemp>
          </ns3:TrackPointExtension>
        </extensions>
      </trkpt>
      <trkpt lat="42.5491507910192012786865234375" lon="20.1281475462019443511962890625">
        <ele>1972.4000244140625</ele>
        <time>2026-06-20T07:17:46.000Z</time>
        <extensions>
          <ns3:TrackPointExtension>
            <ns3:atemp>19.0</ns3:atemp>
          </ns3:TrackPointExtension>
        </extensions>
      </trkpt>
      <trkpt lat="42.5491719134151935577392578125" lon="20.12817093171179294586181640625">
        <ele>1972.5999755859375</ele>
        <time>2026-06-20T07:17:47.000Z</time>
        <extensions>
          <ns3:TrackPointExtension>
            <ns3:atemp>19.0</ns3:atemp>
          </ns3:TrackPointExtension>
        </extensions>
      </trkpt>
      <trkpt lat="42.549191527068614959716796875" lon="20.128193311393260955810546875">
        <ele>1972.5999755859375</ele>
        <time>2026-06-20T07:17:48.000Z</time>
        <extensions>
          <ns3:TrackPointExtension>
            <ns3:atemp>19.0</ns3:atemp>
          </ns3:TrackPointExtension>
        </extensions>
      </trkpt>
      <trkpt lat="42.5492121465504169464111328125" lon="20.12821703217923641204833984375">
        <ele>1972.5999755859375</ele>
        <time>2026-06-20T07:17:49.000Z</time>
        <extensions>
          <ns3:TrackPointExtension>
            <ns3:atemp>19.0</ns3:atemp>
          </ns3:TrackPointExtension>
        </extensions>
      </trkpt>
      <trkpt lat="42.5492279045283794403076171875" lon="20.12824385426938533782958984375">
        <ele>1972.5999755859375</ele>
        <time>2026-06-20T07:17:50.000Z</time>
        <extensions>
          <ns3:TrackPointExtension>
            <ns3:atemp>19.0</ns3:atemp>
          </ns3:TrackPointExtension>
        </extensions>
      </trkpt>
      <trkpt lat="42.54924257285892963409423828125" lon="20.1282682456076145172119140625">
        <ele>1972.800048828125</ele>
        <time>2026-06-20T07:17:51.000Z</time>
        <extensions>
          <ns3:TrackPointExtension>
            <ns3:atemp>19.0</ns3:atemp>
          </ns3:TrackPointExtension>
        </extensions>
      </trkpt>
      <trkpt lat="42.54925548098981380462646484375" lon="20.12829490005970001220703125">
        <ele>1972.800048828125</ele>
        <time>2026-06-20T07:17:52.000Z</time>
        <extensions>
          <ns3:TrackPointExtension>
            <ns3:atemp>19.0</ns3:atemp>
          </ns3:TrackPointExtension>
        </extensions>
      </trkpt>
      <trkpt lat="42.54927073605358600616455078125" lon="20.12831945903599262237548828125">
        <ele>1972.800048828125</ele>
        <time>2026-06-20T07:17:53.000Z</time>
        <extensions>
          <ns3:TrackPointExtension>
            <ns3:atemp>19.0</ns3:atemp>
          </ns3:TrackPointExtension>
        </extensions>
      </trkpt>
      <trkpt lat="42.549283392727375030517578125" lon="20.12834720313549041748046875">
        <ele>1973</ele>
        <time>2026-06-20T07:17:54.000Z</time>
        <extensions>
          <ns3:TrackPointExtension>
            <ns3:atemp>19.0</ns3:atemp>
          </ns3:TrackPointExtension>
        </extensions>
      </trkpt>
      <trkpt lat="42.54929873161017894744873046875" lon="20.1283762045204639434814453125">
        <ele>1973</ele>
        <time>2026-06-20T07:17:55.000Z</time>
        <extensions>
          <ns3:TrackPointExtension>
            <ns3:atemp>19.0</ns3:atemp>
          </ns3:TrackPointExtension>
        </extensions>
      </trkpt>
      <trkpt lat="42.54931231029331684112548828125" lon="20.128404535353183746337890625">
        <ele>1973.199951171875</ele>
        <time>2026-06-20T07:17:56.000Z</time>
        <extensions>
          <ns3:TrackPointExtension>
            <ns3:atemp>19.0</ns3:atemp>
          </ns3:TrackPointExtension>
        </extensions>
      </trkpt>
      <trkpt lat="42.54932538606226444244384765625" lon="20.1284315250813961029052734375">
        <ele>1973.199951171875</ele>
        <time>2026-06-20T07:17:57.000Z</time>
        <extensions>
          <ns3:TrackPointExtension>
            <ns3:atemp>19.0</ns3:atemp>
          </ns3:TrackPointExtension>
        </extensions>
      </trkpt>
      <trkpt lat="42.54933829419314861297607421875" lon="20.128456838428974151611328125">
        <ele>1973.199951171875</ele>
        <time>2026-06-20T07:17:58.000Z</time>
        <extensions>
          <ns3:TrackPointExtension>
            <ns3:atemp>19.0</ns3:atemp>
          </ns3:TrackPointExtension>
        </extensions>
      </trkpt>
      <trkpt lat="42.5493512861430644989013671875" lon="20.12848793528974056243896484375">
        <ele>1973.4000244140625</ele>
        <time>2026-06-20T07:17:59.000Z</time>
        <extensions>
          <ns3:TrackPointExtension>
            <ns3:atemp>19.0</ns3:atemp>
          </ns3:TrackPointExtension>
        </extensions>
      </trkpt>
      <trkpt lat="42.54936444573104381561279296875" lon="20.128517858684062957763671875">
        <ele>1973.5999755859375</ele>
        <time>2026-06-20T07:18:00.000Z</time>
        <extensions>
          <ns3:TrackPointExtension>
            <ns3:atemp>19.0</ns3:atemp>
          </ns3:TrackPointExtension>
        </extensions>
      </trkpt>
      <trkpt lat="42.54937651567161083221435546875" lon="20.12854794971644878387451171875">
        <ele>1973.5999755859375</ele>
        <time>2026-06-20T07:18:01.000Z</time>
        <extensions>
          <ns3:TrackPointExtension>
            <ns3:atemp>19.0</ns3:atemp>
          </ns3:TrackPointExtension>
        </extensions>
      </trkpt>
      <trkpt lat="42.549386657774448394775390625" lon="20.1285787113010883331298828125">
        <ele>1973.800048828125</ele>
        <time>2026-06-20T07:18:02.000Z</time>
        <extensions>
          <ns3:TrackPointExtension>
            <ns3:atemp>19.0</ns3:atemp>
          </ns3:TrackPointExtension>
        </extensions>
      </trkpt>
      <trkpt lat="42.5493978895246982574462890625" lon="20.1286075450479984283447265625">
        <ele>1974</ele>
        <time>2026-06-20T07:18:03.000Z</time>
        <extensions>
          <ns3:TrackPointExtension>
            <ns3:atemp>19.0</ns3:atemp>
          </ns3:TrackPointExtension>
        </extensions>
      </trkpt>
      <trkpt lat="42.549407780170440673828125" lon="20.1286390610039234161376953125">
        <ele>1974.4000244140625</ele>
        <time>2026-06-20T07:18:04.000Z</time>
        <extensions>
          <ns3:TrackPointExtension>
            <ns3:atemp>19.0</ns3:atemp>
          </ns3:TrackPointExtension>
        </extensions>
      </trkpt>
      <trkpt lat="42.549417503178119659423828125" lon="20.1286695711314678192138671875">
        <ele>1974.5999755859375</ele>
        <time>2026-06-20T07:18:05.000Z</time>
        <extensions>
          <ns3:TrackPointExtension>
            <ns3:atemp>19.0</ns3:atemp>
          </ns3:TrackPointExtension>
        </extensions>
      </trkpt>
      <trkpt lat="42.54942697472870349884033203125" lon="20.12870402075350284576416015625">
        <ele>1974.800048828125</ele>
        <time>2026-06-20T07:18:06.000Z</time>
        <extensions>
          <ns3:TrackPointExtension>
            <ns3:atemp>19.0</ns3:atemp>
          </ns3:TrackPointExtension>
        </extensions>
      </trkpt>
      <trkpt lat="42.54943770356476306915283203125" lon="20.12873855419456958770751953125">
        <ele>1974.800048828125</ele>
        <time>2026-06-20T07:18:07.000Z</time>
        <extensions>
          <ns3:TrackPointExtension>
            <ns3:atemp>19.0</ns3:atemp>
          </ns3:TrackPointExtension>
        </extensions>
      </trkpt>
      <trkpt lat="42.549445331096649169921875" lon="20.12877166271209716796875">
        <ele>1975</ele>
        <time>2026-06-20T07:18:08.000Z</time>
        <extensions>
          <ns3:TrackPointExtension>
            <ns3:atemp>19.0</ns3:atemp>
          </ns3:TrackPointExtension>
        </extensions>
      </trkpt>
      <trkpt lat="42.549451701343059539794921875" lon="20.12880451977252960205078125">
        <ele>1975.199951171875</ele>
        <time>2026-06-20T07:18:09.000Z</time>
        <extensions>
          <ns3:TrackPointExtension>
            <ns3:atemp>19.0</ns3:atemp>
          </ns3:TrackPointExtension>
        </extensions>
      </trkpt>
      <trkpt lat="42.54945362918078899383544921875" lon="20.12883896939456462860107421875">
        <ele>1975.199951171875</ele>
        <time>2026-06-20T07:18:10.000Z</time>
        <extensions>
          <ns3:TrackPointExtension>
            <ns3:atemp>19.0</ns3:atemp>
          </ns3:TrackPointExtension>
        </extensions>
      </trkpt>
      <trkpt lat="42.54945312626659870147705078125" lon="20.12886981479823589324951171875">
        <ele>1975.4000244140625</ele>
        <time>2026-06-20T07:18:11.000Z</time>
        <extensions>
          <ns3:TrackPointExtension>
            <ns3:atemp>19.0</ns3:atemp>
          </ns3:TrackPointExtension>
        </extensions>
      </trkpt>
      <trkpt lat="42.54944977350533008575439453125" lon="20.12890300713479518890380859375">
        <ele>1975.5999755859375</ele>
        <time>2026-06-20T07:18:12.000Z</time>
        <extensions>
          <ns3:TrackPointExtension>
            <ns3:atemp>19.0</ns3:atemp>
          </ns3:TrackPointExtension>
        </extensions>
      </trkpt>
      <trkpt lat="42.54944457672536373138427734375" lon="20.12893871404230594635009765625">
        <ele>1975.800048828125</ele>
        <time>2026-06-20T07:18:13.000Z</time>
        <extensions>
          <ns3:TrackPointExtension>
            <ns3:atemp>19.0</ns3:atemp>
          </ns3:TrackPointExtension>
        </extensions>
      </trkpt>
      <trkpt lat="42.54943921230733394622802734375" lon="20.1289753429591655731201171875">
        <ele>1975.800048828125</ele>
        <time>2026-06-20T07:18:14.000Z</time>
        <extensions>
          <ns3:TrackPointExtension>
            <ns3:atemp>19.0</ns3:atemp>
          </ns3:TrackPointExtension>
        </extensions>
      </trkpt>
      <trkpt lat="42.54943267442286014556884765625" lon="20.129005350172519683837890625">
        <ele>1975.800048828125</ele>
        <time>2026-06-20T07:18:15.000Z</time>
        <extensions>
          <ns3:TrackPointExtension>
            <ns3:atemp>19.0</ns3:atemp>
          </ns3:TrackPointExtension>
        </extensions>
      </trkpt>
      <trkpt lat="42.5494270585477352142333984375" lon="20.1290306635200977325439453125">
        <ele>1976</ele>
        <time>2026-06-20T07:18:16.000Z</time>
        <extensions>
          <ns3:TrackPointExtension>
            <ns3:atemp>19.0</ns3:atemp>
          </ns3:TrackPointExtension>
        </extensions>
      </trkpt>
      <trkpt lat="42.5494216941297054290771484375" lon="20.12906025163829326629638671875">
        <ele>1976</ele>
        <time>2026-06-20T07:18:17.000Z</time>
        <extensions>
          <ns3:TrackPointExtension>
            <ns3:atemp>19.0</ns3:atemp>
          </ns3:TrackPointExtension>
        </extensions>
      </trkpt>
      <trkpt lat="42.54941842518746852874755859375" lon="20.1290883310139179229736328125">
        <ele>1976.199951171875</ele>
        <time>2026-06-20T07:18:18.000Z</time>
        <extensions>
          <ns3:TrackPointExtension>
            <ns3:atemp>19.0</ns3:atemp>
          </ns3:TrackPointExtension>
        </extensions>
      </trkpt>
      <trkpt lat="42.54941825754940509796142578125" lon="20.12911842204630374908447265625">
        <ele>1976.199951171875</ele>
        <time>2026-06-20T07:18:19.000Z</time>
        <extensions>
          <ns3:TrackPointExtension>
            <ns3:atemp>19.0</ns3:atemp>
          </ns3:TrackPointExtension>
        </extensions>
      </trkpt>
      <trkpt lat="42.54941917955875396728515625" lon="20.12915295548737049102783203125">
        <ele>1976.4000244140625</ele>
        <time>2026-06-20T07:18:20.000Z</time>
        <extensions>
          <ns3:TrackPointExtension>
            <ns3:atemp>19.0</ns3:atemp>
          </ns3:TrackPointExtension>
        </extensions>
      </trkpt>
      <trkpt lat="42.54941591061651706695556640625" lon="20.1291801966726779937744140625">
        <ele>1976.5999755859375</ele>
        <time>2026-06-20T07:18:21.000Z</time>
        <extensions>
          <ns3:TrackPointExtension>
            <ns3:atemp>19.0</ns3:atemp>
          </ns3:TrackPointExtension>
        </extensions>
      </trkpt>
      <trkpt lat="42.549416162073612213134765625" lon="20.12920685112476348876953125">
        <ele>1976.5999755859375</ele>
        <time>2026-06-20T07:18:22.000Z</time>
        <extensions>
          <ns3:TrackPointExtension>
            <ns3:atemp>19.0</ns3:atemp>
          </ns3:TrackPointExtension>
        </extensions>
      </trkpt>
      <trkpt lat="42.54941247403621673583984375" lon="20.1292345114052295684814453125">
        <ele>1976.800048828125</ele>
        <time>2026-06-20T07:18:23.000Z</time>
        <extensions>
          <ns3:TrackPointExtension>
            <ns3:atemp>19.0</ns3:atemp>
          </ns3:TrackPointExtension>
        </extensions>
      </trkpt>
      <trkpt lat="42.54940685816109180450439453125" lon="20.12925957329571247100830078125">
        <ele>1976.800048828125</ele>
        <time>2026-06-20T07:18:24.000Z</time>
        <extensions>
          <ns3:TrackPointExtension>
            <ns3:atemp>19.0</ns3:atemp>
          </ns3:TrackPointExtension>
        </extensions>
      </trkpt>
      <trkpt lat="42.54940082319080829620361328125" lon="20.1292918436229228973388671875">
        <ele>1976.800048828125</ele>
        <time>2026-06-20T07:18:25.000Z</time>
        <extensions>
          <ns3:TrackPointExtension>
            <ns3:atemp>19.0</ns3:atemp>
          </ns3:TrackPointExtension>
        </extensions>
      </trkpt>
      <trkpt lat="42.549388669431209564208984375" lon="20.1293247006833553314208984375">
        <ele>1976.5999755859375</ele>
        <time>2026-06-20T07:18:26.000Z</time>
        <extensions>
          <ns3:TrackPointExtension>
            <ns3:atemp>19.0</ns3:atemp>
          </ns3:TrackPointExtension>
        </extensions>
      </trkpt>
      <trkpt lat="42.549370564520359039306640625" lon="20.129363425076007843017578125">
        <ele>1976.4000244140625</ele>
        <time>2026-06-20T07:18:27.000Z</time>
        <extensions>
          <ns3:TrackPointExtension>
            <ns3:atemp>19.0</ns3:atemp>
          </ns3:TrackPointExtension>
        </extensions>
      </trkpt>
      <trkpt lat="42.549357153475284576416015625" lon="20.12940977700054645538330078125">
        <ele>1976</ele>
        <time>2026-06-20T07:18:28.000Z</time>
        <extensions>
          <ns3:TrackPointExtension>
            <ns3:atemp>19.0</ns3:atemp>
          </ns3:TrackPointExtension>
        </extensions>
      </trkpt>
      <trkpt lat="42.549338378012180328369140625" lon="20.1294574700295925140380859375">
        <ele>1975.800048828125</ele>
        <time>2026-06-20T07:18:29.000Z</time>
        <extensions>
          <ns3:TrackPointExtension>
            <ns3:atemp>19.0</ns3:atemp>
          </ns3:TrackPointExtension>
        </extensions>
      </trkpt>
      <trkpt lat="42.5493184290826320648193359375" lon="20.1295064203441143035888671875">
        <ele>1975.5999755859375</ele>
        <time>2026-06-20T07:18:30.000Z</time>
        <extensions>
          <ns3:TrackPointExtension>
            <ns3:atemp>19.0</ns3:atemp>
          </ns3:TrackPointExtension>
        </extensions>
      </trkpt>
      <trkpt lat="42.54930124618113040924072265625" lon="20.129550509154796600341796875">
        <ele>1975.5999755859375</ele>
        <time>2026-06-20T07:18:31.000Z</time>
        <extensions>
          <ns3:TrackPointExtension>
            <ns3:atemp>19.0</ns3:atemp>
          </ns3:TrackPointExtension>
        </extensions>
      </trkpt>
      <trkpt lat="42.54929018206894397735595703125" lon="20.129584707319736480712890625">
        <ele>1975.4000244140625</ele>
        <time>2026-06-20T07:18:32.000Z</time>
        <extensions>
          <ns3:TrackPointExtension>
            <ns3:atemp>19.0</ns3:atemp>
          </ns3:TrackPointExtension>
        </extensions>
      </trkpt>
      <trkpt lat="42.5492778606712818145751953125" lon="20.12961714528501033782958984375">
        <ele>1975.5999755859375</ele>
        <time>2026-06-20T07:18:33.000Z</time>
        <extensions>
          <ns3:TrackPointExtension>
            <ns3:atemp>19.0</ns3:atemp>
          </ns3:TrackPointExtension>
        </extensions>
      </trkpt>
      <trkpt lat="42.54926453344523906707763671875" lon="20.129645727574825286865234375">
        <ele>1975.5999755859375</ele>
        <time>2026-06-20T07:18:34.000Z</time>
        <extensions>
          <ns3:TrackPointExtension>
            <ns3:atemp>19.0</ns3:atemp>
          </ns3:TrackPointExtension>
        </extensions>
      </trkpt>
      <trkpt lat="42.54924994893372058868408203125" lon="20.12967665679752826690673828125">
        <ele>1975.5999755859375</ele>
        <time>2026-06-20T07:18:35.000Z</time>
        <extensions>
          <ns3:TrackPointExtension>
            <ns3:atemp>19.0</ns3:atemp>
          </ns3:TrackPointExtension>
        </extensions>
      </trkpt>
      <trkpt lat="42.5492329336702823638916015625" lon="20.12970984913408756256103515625">
        <ele>1975.5999755859375</ele>
        <time>2026-06-20T07:18:36.000Z</time>
        <extensions>
          <ns3:TrackPointExtension>
            <ns3:atemp>19.0</ns3:atemp>
          </ns3:TrackPointExtension>
        </extensions>
      </trkpt>
      <trkpt lat="42.5492161698639392852783203125" lon="20.12973315082490444183349609375">
        <ele>1975.5999755859375</ele>
        <time>2026-06-20T07:18:37.000Z</time>
        <extensions>
          <ns3:TrackPointExtension>
            <ns3:atemp>19.0</ns3:atemp>
          </ns3:TrackPointExtension>
        </extensions>
      </trkpt>
      <trkpt lat="42.5492054410278797149658203125" lon="20.12976198457181453704833984375">
        <ele>1975.5999755859375</ele>
        <time>2026-06-20T07:18:38.000Z</time>
        <extensions>
          <ns3:TrackPointExtension>
            <ns3:atemp>19.0</ns3:atemp>
          </ns3:TrackPointExtension>
        </extensions>
      </trkpt>
      <trkpt lat="42.54919798113405704498291015625" lon="20.12979090213775634765625">
        <ele>1975.5999755859375</ele>
        <time>2026-06-20T07:18:39.000Z</time>
        <extensions>
          <ns3:TrackPointExtension>
            <ns3:atemp>19.0</ns3:atemp>
          </ns3:TrackPointExtension>
        </extensions>
      </trkpt>
      <trkpt lat="42.54918985068798065185546875" lon="20.1298309676349163055419921875">
        <ele>1975.5999755859375</ele>
        <time>2026-06-20T07:18:40.000Z</time>
        <extensions>
          <ns3:TrackPointExtension>
            <ns3:atemp>19.0</ns3:atemp>
          </ns3:TrackPointExtension>
        </extensions>
      </trkpt>
      <trkpt lat="42.54918088205158710479736328125" lon="20.1298646628856658935546875">
        <ele>1975.800048828125</ele>
        <time>2026-06-20T07:18:41.000Z</time>
        <extensions>
          <ns3:TrackPointExtension>
            <ns3:atemp>19.0</ns3:atemp>
          </ns3:TrackPointExtension>
        </extensions>
      </trkpt>
      <trkpt lat="42.5491675548255443572998046875" lon="20.12989358045160770416259765625">
        <ele>1975.800048828125</ele>
        <time>2026-06-20T07:18:42.000Z</time>
        <extensions>
          <ns3:TrackPointExtension>
            <ns3:atemp>19.0</ns3:atemp>
          </ns3:TrackPointExtension>
        </extensions>
      </trkpt>
      <trkpt lat="42.54915338940918445587158203125" lon="20.12991453520953655242919921875">
        <ele>1975.800048828125</ele>
        <time>2026-06-20T07:18:43.000Z</time>
        <extensions>
          <ns3:TrackPointExtension>
            <ns3:atemp>19.0</ns3:atemp>
          </ns3:TrackPointExtension>
        </extensions>
      </trkpt>
      <trkpt lat="42.54913964308798313140869140625" lon="20.12993548996746540069580078125">
        <ele>1975.800048828125</ele>
        <time>2026-06-20T07:18:44.000Z</time>
        <extensions>
          <ns3:TrackPointExtension>
            <ns3:atemp>19.0</ns3:atemp>
          </ns3:TrackPointExtension>
        </extensions>
      </trkpt>
      <trkpt lat="42.54912623204290866851806640625" lon="20.129946134984493255615234375">
        <ele>1975.800048828125</ele>
        <time>2026-06-20T07:18:45.000Z</time>
        <extensions>
          <ns3:TrackPointExtension>
            <ns3:atemp>19.0</ns3:atemp>
          </ns3:TrackPointExtension>
        </extensions>
      </trkpt>
      <trkpt lat="42.549117095768451690673828125" lon="20.12995493598282337188720703125">
        <ele>1975.800048828125</ele>
        <time>2026-06-20T07:18:46.000Z</time>
        <extensions>
          <ns3:TrackPointExtension>
            <ns3:atemp>19.0</ns3:atemp>
          </ns3:TrackPointExtension>
        </extensions>
      </trkpt>
      <trkpt lat="42.5491125695407390594482421875" lon="20.1299617253243923187255859375">
        <ele>1975.800048828125</ele>
        <time>2026-06-20T07:18:47.000Z</time>
        <extensions>
          <ns3:TrackPointExtension>
            <ns3:atemp>19.0</ns3:atemp>
          </ns3:TrackPointExtension>
        </extensions>
      </trkpt>
      <trkpt lat="42.5491112284362316131591796875" lon="20.12995661236345767974853515625">
        <ele>1975.800048828125</ele>
        <time>2026-06-20T07:18:48.000Z</time>
        <extensions>
          <ns3:TrackPointExtension>
            <ns3:atemp>19.0</ns3:atemp>
          </ns3:TrackPointExtension>
        </extensions>
      </trkpt>
      <trkpt lat="42.54911131225526332855224609375" lon="20.12995652854442596435546875">
        <ele>1975.800048828125</ele>
        <time>2026-06-20T07:18:49.000Z</time>
        <extensions>
          <ns3:TrackPointExtension>
            <ns3:atemp>19.0</ns3:atemp>
          </ns3:TrackPointExtension>
        </extensions>
      </trkpt>
      <trkpt lat="42.54911131225526332855224609375" lon="20.12995652854442596435546875">
        <ele>1976</ele>
        <time>2026-06-20T07:18:50.000Z</time>
        <extensions>
          <ns3:TrackPointExtension>
            <ns3:atemp>19.0</ns3:atemp>
          </ns3:TrackPointExtension>
        </extensions>
      </trkpt>
      <trkpt lat="42.54911131225526332855224609375" lon="20.12995652854442596435546875">
        <ele>1976</ele>
        <time>2026-06-20T07:18:51.000Z</time>
        <extensions>
          <ns3:TrackPointExtension>
            <ns3:atemp>19.0</ns3:atemp>
          </ns3:TrackPointExtension>
        </extensions>
      </trkpt>
      <trkpt lat="42.54911131225526332855224609375" lon="20.12995652854442596435546875">
        <ele>1976</ele>
        <time>2026-06-20T07:18:52.000Z</time>
        <extensions>
          <ns3:TrackPointExtension>
            <ns3:atemp>19.0</ns3:atemp>
          </ns3:TrackPointExtension>
        </extensions>
      </trkpt>
      <trkpt lat="42.54911131225526332855224609375" lon="20.12995652854442596435546875">
        <ele>1976</ele>
        <time>2026-06-20T07:18:53.000Z</time>
        <extensions>
          <ns3:TrackPointExtension>
            <ns3:atemp>19.0</ns3:atemp>
          </ns3:TrackPointExtension>
        </extensions>
      </trkpt>
      <trkpt lat="42.54911131225526332855224609375" lon="20.12995652854442596435546875">
        <ele>1976</ele>
        <time>2026-06-20T07:18:54.000Z</time>
        <extensions>
          <ns3:TrackPointExtension>
            <ns3:atemp>19.0</ns3:atemp>
          </ns3:TrackPointExtension>
        </extensions>
      </trkpt>
      <trkpt lat="42.54911131225526332855224609375" lon="20.12995652854442596435546875">
        <ele>1976</ele>
        <time>2026-06-20T07:18:55.000Z</time>
        <extensions>
          <ns3:TrackPointExtension>
            <ns3:atemp>19.0</ns3:atemp>
          </ns3:TrackPointExtension>
        </extensions>
      </trkpt>
      <trkpt lat="42.54911131225526332855224609375" lon="20.12995652854442596435546875">
        <ele>1976</ele>
        <time>2026-06-20T07:18:56.000Z</time>
        <extensions>
          <ns3:TrackPointExtension>
            <ns3:atemp>19.0</ns3:atemp>
          </ns3:TrackPointExtension>
        </extensions>
      </trkpt>
      <trkpt lat="42.54911131225526332855224609375" lon="20.12995652854442596435546875">
        <ele>1975.800048828125</ele>
        <time>2026-06-20T07:18:57.000Z</time>
        <extensions>
          <ns3:TrackPointExtension>
            <ns3:atemp>19.0</ns3:atemp>
          </ns3:TrackPointExtension>
        </extensions>
      </trkpt>
      <trkpt lat="42.54911131225526332855224609375" lon="20.12995652854442596435546875">
        <ele>1975.800048828125</ele>
        <time>2026-06-20T07:18:58.000Z</time>
        <extensions>
          <ns3:TrackPointExtension>
            <ns3:atemp>19.0</ns3:atemp>
          </ns3:TrackPointExtension>
        </extensions>
      </trkpt>
      <trkpt lat="42.54911131225526332855224609375" lon="20.12995652854442596435546875">
        <ele>1975.800048828125</ele>
        <time>2026-06-20T07:18:59.000Z</time>
        <extensions>
          <ns3:TrackPointExtension>
            <ns3:atemp>19.0</ns3:atemp>
          </ns3:TrackPointExtension>
        </extensions>
      </trkpt>
      <trkpt lat="42.54911131225526332855224609375" lon="20.12995652854442596435546875">
        <ele>1975.5999755859375</ele>
        <time>2026-06-20T07:19:00.000Z</time>
        <extensions>
          <ns3:TrackPointExtension>
            <ns3:atemp>19.0</ns3:atemp>
          </ns3:TrackPointExtension>
        </extensions>
      </trkpt>
      <trkpt lat="42.54911131225526332855224609375" lon="20.12995652854442596435546875">
        <ele>1975.5999755859375</ele>
        <time>2026-06-20T07:19:01.000Z</time>
        <extensions>
          <ns3:TrackPointExtension>
            <ns3:atemp>19.0</ns3:atemp>
          </ns3:TrackPointExtension>
        </extensions>
      </trkpt>
      <trkpt lat="42.54911131225526332855224609375" lon="20.12995652854442596435546875">
        <ele>1975.5999755859375</ele>
        <time>2026-06-20T07:19:02.000Z</time>
        <extensions>
          <ns3:TrackPointExtension>
            <ns3:atemp>19.0</ns3:atemp>
          </ns3:TrackPointExtension>
        </extensions>
      </trkpt>
      <trkpt lat="42.54911131225526332855224609375" lon="20.12995652854442596435546875">
        <ele>1975.4000244140625</ele>
        <time>2026-06-20T07:19:03.000Z</time>
        <extensions>
          <ns3:TrackPointExtension>
            <ns3:atemp>19.0</ns3:atemp>
          </ns3:TrackPointExtension>
        </extensions>
      </trkpt>
      <trkpt lat="42.54911131225526332855224609375" lon="20.12995652854442596435546875">
        <ele>1975.4000244140625</ele>
        <time>2026-06-20T07:19:04.000Z</time>
        <extensions>
          <ns3:TrackPointExtension>
            <ns3:atemp>19.0</ns3:atemp>
          </ns3:TrackPointExtension>
        </extensions>
      </trkpt>
      <trkpt lat="42.54911131225526332855224609375" lon="20.12995652854442596435546875">
        <ele>1975.4000244140625</ele>
        <time>2026-06-20T07:19:05.000Z</time>
        <extensions>
          <ns3:TrackPointExtension>
            <ns3:atemp>19.0</ns3:atemp>
          </ns3:TrackPointExtension>
        </extensions>
      </trkpt>
      <trkpt lat="42.54911131225526332855224609375" lon="20.12995652854442596435546875">
        <ele>1975.4000244140625</ele>
        <time>2026-06-20T07:19:06.000Z</time>
        <extensions>
          <ns3:TrackPointExtension>
            <ns3:atemp>19.0</ns3:atemp>
          </ns3:TrackPointExtension>
        </extensions>
      </trkpt>
      <trkpt lat="42.54911131225526332855224609375" lon="20.12995652854442596435546875">
        <ele>1975.4000244140625</ele>
        <time>2026-06-20T07:19:07.000Z</time>
        <extensions>
          <ns3:TrackPointExtension>
            <ns3:atemp>19.0</ns3:atemp>
          </ns3:TrackPointExtension>
        </extensions>
      </trkpt>
      <trkpt lat="42.54911131225526332855224609375" lon="20.12995652854442596435546875">
        <ele>1975.4000244140625</ele>
        <time>2026-06-20T07:19:08.000Z</time>
        <extensions>
          <ns3:TrackPointExtension>
            <ns3:atemp>19.0</ns3:atemp>
          </ns3:TrackPointExtension>
        </extensions>
      </trkpt>
      <trkpt lat="42.54911131225526332855224609375" lon="20.12995652854442596435546875">
        <ele>1975.5999755859375</ele>
        <time>2026-06-20T07:19:09.000Z</time>
        <extensions>
          <ns3:TrackPointExtension>
            <ns3:atemp>19.0</ns3:atemp>
          </ns3:TrackPointExtension>
        </extensions>
      </trkpt>
      <trkpt lat="42.54910896532237529754638671875" lon="20.1299597136676311492919921875">
        <ele>1975.4000244140625</ele>
        <time>2026-06-20T07:19:10.000Z</time>
        <extensions>
          <ns3:TrackPointExtension>
            <ns3:atemp>19.0</ns3:atemp>
          </ns3:TrackPointExtension>
        </extensions>
      </trkpt>
      <trkpt lat="42.54908868111670017242431640625" lon="20.12997396290302276611328125">
        <ele>1975.4000244140625</ele>
        <time>2026-06-20T07:19:11.000Z</time>
        <extensions>
          <ns3:TrackPointExtension>
            <ns3:atemp>19.0</ns3:atemp>
          </ns3:TrackPointExtension>
        </extensions>
      </trkpt>
      <trkpt lat="42.549067474901676177978515625" lon="20.1299791596829891204833984375">
        <ele>1975.4000244140625</ele>
        <time>2026-06-20T07:19:12.000Z</time>
        <extensions>
          <ns3:TrackPointExtension>
            <ns3:atemp>19.0</ns3:atemp>
          </ns3:TrackPointExtension>
        </extensions>
      </trkpt>
      <trkpt lat="42.54904559813439846038818359375" lon="20.12998963706195354461669921875">
        <ele>1975.199951171875</ele>
        <time>2026-06-20T07:19:13.000Z</time>
        <extensions>
          <ns3:TrackPointExtension>
            <ns3:atemp>19.0</ns3:atemp>
          </ns3:TrackPointExtension>
        </extensions>
      </trkpt>
      <trkpt lat="42.54902330227196216583251953125" lon="20.13000153936445713043212890625">
        <ele>1975</ele>
        <time>2026-06-20T07:19:14.000Z</time>
        <extensions>
          <ns3:TrackPointExtension>
            <ns3:atemp>19.0</ns3:atemp>
          </ns3:TrackPointExtension>
        </extensions>
      </trkpt>
      <trkpt lat="42.54900033585727214813232421875" lon="20.13001612387597560882568359375">
        <ele>1974.800048828125</ele>
        <time>2026-06-20T07:19:15.000Z</time>
        <extensions>
          <ns3:TrackPointExtension>
            <ns3:atemp>20.0</ns3:atemp>
          </ns3:TrackPointExtension>
        </extensions>
      </trkpt>
      <trkpt lat="42.54898172803223133087158203125" lon="20.130039341747760772705078125">
        <ele>1974.800048828125</ele>
        <time>2026-06-20T07:19:16.000Z</time>
        <extensions>
          <ns3:TrackPointExtension>
            <ns3:atemp>20.0</ns3:atemp>
          </ns3:TrackPointExtension>
        </extensions>
      </trkpt>
      <trkpt lat="42.54897736944258213043212890625" lon="20.13006742112338542938232421875">
        <ele>1974.800048828125</ele>
        <time>2026-06-20T07:19:17.000Z</time>
        <extensions>
          <ns3:TrackPointExtension>
            <ns3:atemp>20.0</ns3:atemp>
          </ns3:TrackPointExtension>
        </extensions>
      </trkpt>
      <trkpt lat="42.548976950347423553466796875" lon="20.13008971698582172393798828125">
        <ele>1974.800048828125</ele>
        <time>2026-06-20T07:19:18.000Z</time>
        <extensions>
          <ns3:TrackPointExtension>
            <ns3:atemp>19.0</ns3:atemp>
          </ns3:TrackPointExtension>
        </extensions>
      </trkpt>
      <trkpt lat="42.54898508079349994659423828125" lon="20.13011285103857517242431640625">
        <ele>1974.800048828125</ele>
        <time>2026-06-20T07:19:19.000Z</time>
        <extensions>
          <ns3:TrackPointExtension>
            <ns3:atemp>19.0</ns3:atemp>
          </ns3:TrackPointExtension>
        </extensions>
      </trkpt>
      <trkpt lat="42.5489938817918300628662109375" lon="20.13013330288231372833251953125">
        <ele>1975</ele>
        <time>2026-06-20T07:19:20.000Z</time>
        <extensions>
          <ns3:TrackPointExtension>
            <ns3:atemp>19.0</ns3:atemp>
          </ns3:TrackPointExtension>
        </extensions>
      </trkpt>
      <trkpt lat="42.549005448818206787109375" lon="20.13015040196478366851806640625">
        <ele>1975</ele>
        <time>2026-06-20T07:19:21.000Z</time>
        <extensions>
          <ns3:TrackPointExtension>
            <ns3:atemp>19.0</ns3:atemp>
          </ns3:TrackPointExtension>
        </extensions>
      </trkpt>
      <trkpt lat="42.5490186922252178192138671875" lon="20.13017068617045879364013671875">
        <ele>1975</ele>
        <time>2026-06-20T07:19:22.000Z</time>
        <extensions>
          <ns3:TrackPointExtension>
            <ns3:atemp>19.0</ns3:atemp>
          </ns3:TrackPointExtension>
        </extensions>
      </trkpt>
      <trkpt lat="42.54903218708932399749755859375" lon="20.1301917247474193572998046875">
        <ele>1975</ele>
        <time>2026-06-20T07:19:23.000Z</time>
        <extensions>
          <ns3:TrackPointExtension>
            <ns3:atemp>19.0</ns3:atemp>
          </ns3:TrackPointExtension>
        </extensions>
      </trkpt>
      <trkpt lat="42.54904442466795444488525390625" lon="20.130212344229221343994140625">
        <ele>1975.199951171875</ele>
        <time>2026-06-20T07:19:24.000Z</time>
        <extensions>
          <ns3:TrackPointExtension>
            <ns3:atemp>19.0</ns3:atemp>
          </ns3:TrackPointExtension>
        </extensions>
      </trkpt>
      <trkpt lat="42.5490550696849822998046875" lon="20.13023757375776767730712890625">
        <ele>1975.199951171875</ele>
        <time>2026-06-20T07:19:25.000Z</time>
        <extensions>
          <ns3:TrackPointExtension>
            <ns3:atemp>19.0</ns3:atemp>
          </ns3:TrackPointExtension>
        </extensions>
      </trkpt>
      <trkpt lat="42.5490683130919933319091796875" lon="20.13026364147663116455078125">
        <ele>1975.4000244140625</ele>
        <time>2026-06-20T07:19:26.000Z</time>
        <extensions>
          <ns3:TrackPointExtension>
            <ns3:atemp>19.0</ns3:atemp>
          </ns3:TrackPointExtension>
        </extensions>
      </trkpt>
      <trkpt lat="42.54907853901386260986328125" lon="20.1302869431674480438232421875">
        <ele>1975.5999755859375</ele>
        <time>2026-06-20T07:19:27.000Z</time>
        <extensions>
          <ns3:TrackPointExtension>
            <ns3:atemp>19.0</ns3:atemp>
          </ns3:TrackPointExtension>
        </extensions>
      </trkpt>
      <trkpt lat="42.54908700473606586456298828125" lon="20.13031166978180408477783203125">
        <ele>1976</ele>
        <time>2026-06-20T07:19:28.000Z</time>
        <extensions>
          <ns3:TrackPointExtension>
            <ns3:atemp>19.0</ns3:atemp>
          </ns3:TrackPointExtension>
        </extensions>
      </trkpt>
      <trkpt lat="42.54909270443022251129150390625" lon="20.13033547438681125640869140625">
        <ele>1976.4000244140625</ele>
        <time>2026-06-20T07:19:29.000Z</time>
        <extensions>
          <ns3:TrackPointExtension>
            <ns3:atemp>19.0</ns3:atemp>
          </ns3:TrackPointExtension>
        </extensions>
      </trkpt>
      <trkpt lat="42.54909957759082317352294921875" lon="20.13036129064857959747314453125">
        <ele>1976.800048828125</ele>
        <time>2026-06-20T07:19:30.000Z</time>
        <extensions>
          <ns3:TrackPointExtension>
            <ns3:atemp>19.0</ns3:atemp>
          </ns3:TrackPointExtension>
        </extensions>
      </trkpt>
      <trkpt lat="42.549107372760772705078125" lon="20.1303824968636035919189453125">
        <ele>1977.199951171875</ele>
        <time>2026-06-20T07:19:31.000Z</time>
        <extensions>
          <ns3:TrackPointExtension>
            <ns3:atemp>19.0</ns3:atemp>
          </ns3:TrackPointExtension>
        </extensions>
      </trkpt>
      <trkpt lat="42.54911474883556365966796875" lon="20.13040001504123210906982421875">
        <ele>1977.800048828125</ele>
        <time>2026-06-20T07:19:32.000Z</time>
        <extensions>
          <ns3:TrackPointExtension>
            <ns3:atemp>19.0</ns3:atemp>
          </ns3:TrackPointExtension>
        </extensions>
      </trkpt>
      <trkpt lat="42.549123801290988922119140625" lon="20.1304183714091777801513671875">
        <ele>1978.199951171875</ele>
        <time>2026-06-20T07:19:33.000Z</time>
        <extensions>
          <ns3:TrackPointExtension>
            <ns3:atemp>19.0</ns3:atemp>
          </ns3:TrackPointExtension>
        </extensions>
      </trkpt>
      <trkpt lat="42.549135200679302215576171875" lon="20.13043823651969432830810546875">
        <ele>1978.4000244140625</ele>
        <time>2026-06-20T07:19:34.000Z</time>
        <extensions>
          <ns3:TrackPointExtension>
            <ns3:atemp>19.0</ns3:atemp>
          </ns3:TrackPointExtension>
        </extensions>
      </trkpt>
      <trkpt lat="42.54914752207696437835693359375" lon="20.130449049174785614013671875">
        <ele>1978.800048828125</ele>
        <time>2026-06-20T07:19:35.000Z</time>
        <extensions>
          <ns3:TrackPointExtension>
            <ns3:atemp>19.0</ns3:atemp>
          </ns3:TrackPointExtension>
        </extensions>
      </trkpt>
      <trkpt lat="42.54916696809232234954833984375" lon="20.13045273721218109130859375">
        <ele>1979</ele>
        <time>2026-06-20T07:19:36.000Z</time>
        <extensions>
          <ns3:TrackPointExtension>
            <ns3:atemp>19.0</ns3:atemp>
          </ns3:TrackPointExtension>
        </extensions>
      </trkpt>
      <trkpt lat="42.5491779483854770660400390625" lon="20.13045944273471832275390625">
        <ele>1979.199951171875</ele>
        <time>2026-06-20T07:19:37.000Z</time>
        <extensions>
          <ns3:TrackPointExtension>
            <ns3:atemp>19.0</ns3:atemp>
          </ns3:TrackPointExtension>
        </extensions>
      </trkpt>
      <trkpt lat="42.5491838157176971435546875" lon="20.13046388514339923858642578125">
        <ele>1979.5999755859375</ele>
        <time>2026-06-20T07:19:38.000Z</time>
        <extensions>
          <ns3:TrackPointExtension>
            <ns3:atemp>19.0</ns3:atemp>
          </ns3:TrackPointExtension>
        </extensions>
      </trkpt>
      <trkpt lat="42.5491839833557605743408203125" lon="20.13046388514339923858642578125">
        <ele>1980</ele>
        <time>2026-06-20T07:19:39.000Z</time>
        <extensions>
          <ns3:TrackPointExtension>
            <ns3:atemp>19.0</ns3:atemp>
          </ns3:TrackPointExtension>
        </extensions>
      </trkpt>
      <trkpt lat="42.549184150993824005126953125" lon="20.1304639689624309539794921875">
        <ele>1980.199951171875</ele>
        <time>2026-06-20T07:19:40.000Z</time>
        <extensions>
          <ns3:TrackPointExtension>
            <ns3:atemp>19.0</ns3:atemp>
          </ns3:TrackPointExtension>
        </extensions>
      </trkpt>
      <trkpt lat="42.5491903536021709442138671875" lon="20.13047863729298114776611328125">
        <ele>1980.5999755859375</ele>
        <time>2026-06-20T07:19:41.000Z</time>
        <extensions>
          <ns3:TrackPointExtension>
            <ns3:atemp>19.0</ns3:atemp>
          </ns3:TrackPointExtension>
        </extensions>
      </trkpt>
      <trkpt lat="42.549190856516361236572265625" lon="20.13048886321485042572021484375">
        <ele>1980.800048828125</ele>
        <time>2026-06-20T07:19:42.000Z</time>
        <extensions>
          <ns3:TrackPointExtension>
            <ns3:atemp>19.0</ns3:atemp>
          </ns3:TrackPointExtension>
        </extensions>
      </trkpt>
      <trkpt lat="42.54919194616377353668212890625" lon="20.130492635071277618408203125">
        <ele>1981</ele>
        <time>2026-06-20T07:19:43.000Z</time>
        <extensions>
          <ns3:TrackPointExtension>
            <ns3:atemp>19.0</ns3:atemp>
          </ns3:TrackPointExtension>
        </extensions>
      </trkpt>
      <trkpt lat="42.5491918623447418212890625" lon="20.13049271889030933380126953125">
        <ele>1981.199951171875</ele>
        <time>2026-06-20T07:19:44.000Z</time>
        <extensions>
          <ns3:TrackPointExtension>
            <ns3:atemp>19.0</ns3:atemp>
          </ns3:TrackPointExtension>
        </extensions>
      </trkpt>
      <trkpt lat="42.5491918623447418212890625" lon="20.13049271889030933380126953125">
        <ele>1981.199951171875</ele>
        <time>2026-06-20T07:19:45.000Z</time>
        <extensions>
          <ns3:TrackPointExtension>
            <ns3:atemp>19.0</ns3:atemp>
          </ns3:TrackPointExtension>
        </extensions>
      </trkpt>
      <trkpt lat="42.5491918623447418212890625" lon="20.13049271889030933380126953125">
        <ele>1981.4000244140625</ele>
        <time>2026-06-20T07:19:46.000Z</time>
        <extensions>
          <ns3:TrackPointExtension>
            <ns3:atemp>19.0</ns3:atemp>
          </ns3:TrackPointExtension>
        </extensions>
      </trkpt>
      <trkpt lat="42.5491918623447418212890625" lon="20.13049271889030933380126953125">
        <ele>1981.4000244140625</ele>
        <time>2026-06-20T07:19:47.000Z</time>
        <extensions>
          <ns3:TrackPointExtension>
            <ns3:atemp>19.0</ns3:atemp>
          </ns3:TrackPointExtension>
        </extensions>
      </trkpt>
      <trkpt lat="42.5491916947066783905029296875" lon="20.13049338944256305694580078125">
        <ele>1981.4000244140625</ele>
        <time>2026-06-20T07:19:48.000Z</time>
        <extensions>
          <ns3:TrackPointExtension>
            <ns3:atemp>19.0</ns3:atemp>
          </ns3:TrackPointExtension>
        </extensions>
      </trkpt>
      <trkpt lat="42.5491994060575962066650390625" lon="20.13051719404757022857666015625">
        <ele>1981.4000244140625</ele>
        <time>2026-06-20T07:19:49.000Z</time>
        <extensions>
          <ns3:TrackPointExtension>
            <ns3:atemp>19.0</ns3:atemp>
          </ns3:TrackPointExtension>
        </extensions>
      </trkpt>
      <trkpt lat="42.5492091290652751922607421875" lon="20.1305384002625942230224609375">
        <ele>1981.4000244140625</ele>
        <time>2026-06-20T07:19:50.000Z</time>
        <extensions>
          <ns3:TrackPointExtension>
            <ns3:atemp>19.0</ns3:atemp>
          </ns3:TrackPointExtension>
        </extensions>
      </trkpt>
      <trkpt lat="42.5492227077484130859375" lon="20.13055927120149135589599609375">
        <ele>1981.5999755859375</ele>
        <time>2026-06-20T07:19:51.000Z</time>
        <extensions>
          <ns3:TrackPointExtension>
            <ns3:atemp>19.0</ns3:atemp>
          </ns3:TrackPointExtension>
        </extensions>
      </trkpt>
      <trkpt lat="42.5492356158792972564697265625" lon="20.13058123178780078887939453125">
        <ele>1981.800048828125</ele>
        <time>2026-06-20T07:19:52.000Z</time>
        <extensions>
          <ns3:TrackPointExtension>
            <ns3:atemp>19.0</ns3:atemp>
          </ns3:TrackPointExtension>
        </extensions>
      </trkpt>
      <trkpt lat="42.549245841801166534423828125" lon="20.130603946745395660400390625">
        <ele>1982.199951171875</ele>
        <time>2026-06-20T07:19:53.000Z</time>
        <extensions>
          <ns3:TrackPointExtension>
            <ns3:atemp>19.0</ns3:atemp>
          </ns3:TrackPointExtension>
        </extensions>
      </trkpt>
      <trkpt lat="42.54925548098981380462646484375" lon="20.1306295953691005706787109375">
        <ele>1982.5999755859375</ele>
        <time>2026-06-20T07:19:54.000Z</time>
        <extensions>
          <ns3:TrackPointExtension>
            <ns3:atemp>19.0</ns3:atemp>
          </ns3:TrackPointExtension>
        </extensions>
      </trkpt>
      <trkpt lat="42.549268305301666259765625" lon="20.13065532781183719635009765625">
        <ele>1983</ele>
        <time>2026-06-20T07:19:55.000Z</time>
        <extensions>
          <ns3:TrackPointExtension>
            <ns3:atemp>20.0</ns3:atemp>
          </ns3:TrackPointExtension>
        </extensions>
      </trkpt>
      <trkpt lat="42.54928372800350189208984375" lon="20.1306751929223537445068359375">
        <ele>1983.5999755859375</ele>
        <time>2026-06-20T07:19:56.000Z</time>
        <extensions>
          <ns3:TrackPointExtension>
            <ns3:atemp>20.0</ns3:atemp>
          </ns3:TrackPointExtension>
        </extensions>
      </trkpt>
      <trkpt lat="42.5492996536195278167724609375" lon="20.13069673441350460052490234375">
        <ele>1984.199951171875</ele>
        <time>2026-06-20T07:19:57.000Z</time>
        <extensions>
          <ns3:TrackPointExtension>
            <ns3:atemp>20.0</ns3:atemp>
          </ns3:TrackPointExtension>
        </extensions>
      </trkpt>
      <trkpt lat="42.54931616596877574920654296875" lon="20.13071157038211822509765625">
        <ele>1984.5999755859375</ele>
        <time>2026-06-20T07:19:58.000Z</time>
        <extensions>
          <ns3:TrackPointExtension>
            <ns3:atemp>20.0</ns3:atemp>
          </ns3:TrackPointExtension>
        </extensions>
      </trkpt>
      <trkpt lat="42.54933745600283145904541015625" lon="20.1307202875614166259765625">
        <ele>1985.199951171875</ele>
        <time>2026-06-20T07:19:59.000Z</time>
        <extensions>
          <ns3:TrackPointExtension>
            <ns3:atemp>20.0</ns3:atemp>
          </ns3:TrackPointExtension>
        </extensions>
      </trkpt>
      <trkpt lat="42.549355812370777130126953125" lon="20.130728669464588165283203125">
        <ele>1985.5999755859375</ele>
        <time>2026-06-20T07:20:00.000Z</time>
        <extensions>
          <ns3:TrackPointExtension>
            <ns3:atemp>20.0</ns3:atemp>
          </ns3:TrackPointExtension>
        </extensions>
      </trkpt>
      <trkpt lat="42.549371905624866485595703125" lon="20.130736716091632843017578125">
        <ele>1986.199951171875</ele>
        <time>2026-06-20T07:20:01.000Z</time>
        <extensions>
          <ns3:TrackPointExtension>
            <ns3:atemp>20.0</ns3:atemp>
          </ns3:TrackPointExtension>
        </extensions>
      </trkpt>
      <trkpt lat="42.54938640631735324859619140625" lon="20.1307489536702632904052734375">
        <ele>1986.4000244140625</ele>
        <time>2026-06-20T07:20:02.000Z</time>
        <extensions>
          <ns3:TrackPointExtension>
            <ns3:atemp>20.0</ns3:atemp>
          </ns3:TrackPointExtension>
        </extensions>
      </trkpt>
      <trkpt lat="42.5493978895246982574462890625" lon="20.13076647184789180755615234375">
        <ele>1986.800048828125</ele>
        <time>2026-06-20T07:20:03.000Z</time>
        <extensions>
          <ns3:TrackPointExtension>
            <ns3:atemp>20.0</ns3:atemp>
          </ns3:TrackPointExtension>
        </extensions>
      </trkpt>
      <trkpt lat="42.54940836690366268157958984375" lon="20.130785666406154632568359375">
        <ele>1987.199951171875</ele>
        <time>2026-06-20T07:20:04.000Z</time>
        <extensions>
          <ns3:TrackPointExtension>
            <ns3:atemp>20.0</ns3:atemp>
          </ns3:TrackPointExtension>
        </extensions>
      </trkpt>
      <trkpt lat="42.54941155202686786651611328125" lon="20.1308072917163372039794921875">
        <ele>1987.5999755859375</ele>
        <time>2026-06-20T07:20:05.000Z</time>
        <extensions>
          <ns3:TrackPointExtension>
            <ns3:atemp>20.0</ns3:atemp>
          </ns3:TrackPointExtension>
        </extensions>
      </trkpt>
      <trkpt lat="42.5494092889130115509033203125" lon="20.1308321021497249603271484375">
        <ele>1987.800048828125</ele>
        <time>2026-06-20T07:20:06.000Z</time>
        <extensions>
          <ns3:TrackPointExtension>
            <ns3:atemp>20.0</ns3:atemp>
          </ns3:TrackPointExtension>
        </extensions>
      </trkpt>
      <trkpt lat="42.54940216429531574249267578125" lon="20.1308525539934635162353515625">
        <ele>1988.4000244140625</ele>
        <time>2026-06-20T07:20:07.000Z</time>
        <extensions>
          <ns3:TrackPointExtension>
            <ns3:atemp>20.0</ns3:atemp>
          </ns3:TrackPointExtension>
        </extensions>
      </trkpt>
      <trkpt lat="42.549391351640224456787109375" lon="20.13086537830531597137451171875">
        <ele>1988.5999755859375</ele>
        <time>2026-06-20T07:20:08.000Z</time>
        <extensions>
          <ns3:TrackPointExtension>
            <ns3:atemp>19.0</ns3:atemp>
          </ns3:TrackPointExtension>
        </extensions>
      </trkpt>
      <trkpt lat="42.54937534220516681671142578125" lon="20.1308770291507244110107421875">
        <ele>1989</ele>
        <time>2026-06-20T07:20:09.000Z</time>
        <extensions>
          <ns3:TrackPointExtension>
            <ns3:atemp>20.0</ns3:atemp>
          </ns3:TrackPointExtension>
        </extensions>
      </trkpt>
      <trkpt lat="42.549361847341060638427734375" lon="20.13088750652968883514404296875">
        <ele>1989.4000244140625</ele>
        <time>2026-06-20T07:20:10.000Z</time>
        <extensions>
          <ns3:TrackPointExtension>
            <ns3:atemp>19.0</ns3:atemp>
          </ns3:TrackPointExtension>
        </extensions>
      </trkpt>
      <trkpt lat="42.54934617318212985992431640625" lon="20.13088817708194255828857421875">
        <ele>1989.5999755859375</ele>
        <time>2026-06-20T07:20:11.000Z</time>
        <extensions>
          <ns3:TrackPointExtension>
            <ns3:atemp>20.0</ns3:atemp>
          </ns3:TrackPointExtension>
        </extensions>
      </trkpt>
      <trkpt lat="42.5493298284709453582763671875" lon="20.130879543721675872802734375">
        <ele>1989.800048828125</ele>
        <time>2026-06-20T07:20:12.000Z</time>
        <extensions>
          <ns3:TrackPointExtension>
            <ns3:atemp>20.0</ns3:atemp>
          </ns3:TrackPointExtension>
        </extensions>
      </trkpt>
      <trkpt lat="42.54930895753204822540283203125" lon="20.1308740116655826568603515625">
        <ele>1990</ele>
        <time>2026-06-20T07:20:13.000Z</time>
        <extensions>
          <ns3:TrackPointExtension>
            <ns3:atemp>20.0</ns3:atemp>
          </ns3:TrackPointExtension>
        </extensions>
      </trkpt>
      <trkpt lat="42.5492885895073413848876953125" lon="20.13086378574371337890625">
        <ele>1990</ele>
        <time>2026-06-20T07:20:14.000Z</time>
        <extensions>
          <ns3:TrackPointExtension>
            <ns3:atemp>20.0</ns3:atemp>
          </ns3:TrackPointExtension>
        </extensions>
      </trkpt>
      <trkpt lat="42.5492674671113491058349609375" lon="20.13085967861115932464599609375">
        <ele>1990.199951171875</ele>
        <time>2026-06-20T07:20:15.000Z</time>
        <extensions>
          <ns3:TrackPointExtension>
            <ns3:atemp>20.0</ns3:atemp>
          </ns3:TrackPointExtension>
        </extensions>
      </trkpt>
      <trkpt lat="42.5492460094392299652099609375" lon="20.13085297308862209320068359375">
        <ele>1990.5999755859375</ele>
        <time>2026-06-20T07:20:16.000Z</time>
        <extensions>
          <ns3:TrackPointExtension>
            <ns3:atemp>19.0</ns3:atemp>
          </ns3:TrackPointExtension>
        </extensions>
      </trkpt>
      <trkpt lat="42.54922564141452312469482421875" lon="20.13084291480481624603271484375">
        <ele>1990.800048828125</ele>
        <time>2026-06-20T07:20:17.000Z</time>
        <extensions>
          <ns3:TrackPointExtension>
            <ns3:atemp>20.0</ns3:atemp>
          </ns3:TrackPointExtension>
        </extensions>
      </trkpt>
      <trkpt lat="42.549206279218196868896484375" lon="20.13083151541650295257568359375">
        <ele>1991</ele>
        <time>2026-06-20T07:20:18.000Z</time>
        <extensions>
          <ns3:TrackPointExtension>
            <ns3:atemp>20.0</ns3:atemp>
          </ns3:TrackPointExtension>
        </extensions>
      </trkpt>
      <trkpt lat="42.54918976686894893646240234375" lon="20.13082288205623626708984375">
        <ele>1991.4000244140625</ele>
        <time>2026-06-20T07:20:19.000Z</time>
        <extensions>
          <ns3:TrackPointExtension>
            <ns3:atemp>19.0</ns3:atemp>
          </ns3:TrackPointExtension>
        </extensions>
      </trkpt>
      <trkpt lat="42.54917509853839874267578125" lon="20.13081307522952556610107421875">
        <ele>1991.5999755859375</ele>
        <time>2026-06-20T07:20:20.000Z</time>
        <extensions>
          <ns3:TrackPointExtension>
            <ns3:atemp>19.0</ns3:atemp>
          </ns3:TrackPointExtension>
        </extensions>
      </trkpt>
      <trkpt lat="42.54915456287562847137451171875" lon="20.13080586679279804229736328125">
        <ele>1992</ele>
        <time>2026-06-20T07:20:21.000Z</time>
        <extensions>
          <ns3:TrackPointExtension>
            <ns3:atemp>19.0</ns3:atemp>
          </ns3:TrackPointExtension>
        </extensions>
      </trkpt>
      <trkpt lat="42.549134194850921630859375" lon="20.13080016709864139556884765625">
        <ele>1992.199951171875</ele>
        <time>2026-06-20T07:20:22.000Z</time>
        <extensions>
          <ns3:TrackPointExtension>
            <ns3:atemp>20.0</ns3:atemp>
          </ns3:TrackPointExtension>
        </extensions>
      </trkpt>
      <trkpt lat="42.54911567084491252899169921875" lon="20.13079128228127956390380859375">
        <ele>1992.800048828125</ele>
        <time>2026-06-20T07:20:23.000Z</time>
        <extensions>
          <ns3:TrackPointExtension>
            <ns3:atemp>20.0</ns3:atemp>
          </ns3:TrackPointExtension>
        </extensions>
      </trkpt>
      <trkpt lat="42.5490951351821422576904296875" lon="20.1307792961597442626953125">
        <ele>1993.199951171875</ele>
        <time>2026-06-20T07:20:24.000Z</time>
        <extensions>
          <ns3:TrackPointExtension>
            <ns3:atemp>20.0</ns3:atemp>
          </ns3:TrackPointExtension>
        </extensions>
      </trkpt>
      <trkpt lat="42.54907694645226001739501953125" lon="20.1307687349617481231689453125">
        <ele>1993.5999755859375</ele>
        <time>2026-06-20T07:20:25.000Z</time>
        <extensions>
          <ns3:TrackPointExtension>
            <ns3:atemp>20.0</ns3:atemp>
          </ns3:TrackPointExtension>
        </extensions>
      </trkpt>
      <trkpt lat="42.549056075513362884521484375" lon="20.13075591064989566802978515625">
        <ele>1994</ele>
        <time>2026-06-20T07:20:26.000Z</time>
        <extensions>
          <ns3:TrackPointExtension>
            <ns3:atemp>20.0</ns3:atemp>
          </ns3:TrackPointExtension>
        </extensions>
      </trkpt>
      <trkpt lat="42.5490337796509265899658203125" lon="20.13074685819447040557861328125">
        <ele>1994.199951171875</ele>
        <time>2026-06-20T07:20:27.000Z</time>
        <extensions>
          <ns3:TrackPointExtension>
            <ns3:atemp>20.0</ns3:atemp>
          </ns3:TrackPointExtension>
        </extensions>
      </trkpt>
      <trkpt lat="42.54901441745460033416748046875" lon="20.13073897920548915863037109375">
        <ele>1994.5999755859375</ele>
        <time>2026-06-20T07:20:28.000Z</time>
        <extensions>
          <ns3:TrackPointExtension>
            <ns3:atemp>20.0</ns3:atemp>
          </ns3:TrackPointExtension>
        </extensions>
      </trkpt>
      <trkpt lat="42.54899715073406696319580078125" lon="20.130734033882617950439453125">
        <ele>1995</ele>
        <time>2026-06-20T07:20:29.000Z</time>
        <extensions>
          <ns3:TrackPointExtension>
            <ns3:atemp>20.0</ns3:atemp>
          </ns3:TrackPointExtension>
        </extensions>
      </trkpt>
      <trkpt lat="42.5489801354706287384033203125" lon="20.13072640635073184967041015625">
        <ele>1995.4000244140625</ele>
        <time>2026-06-20T07:20:30.000Z</time>
        <extensions>
          <ns3:TrackPointExtension>
            <ns3:atemp>20.0</ns3:atemp>
          </ns3:TrackPointExtension>
        </extensions>
      </trkpt>
      <trkpt lat="42.54895725287497043609619140625" lon="20.13072389177978038787841796875">
        <ele>1995.800048828125</ele>
        <time>2026-06-20T07:20:31.000Z</time>
        <extensions>
          <ns3:TrackPointExtension>
            <ns3:atemp>20.0</ns3:atemp>
          </ns3:TrackPointExtension>
        </extensions>
      </trkpt>
      <trkpt lat="42.54894040524959564208984375" lon="20.13073612935841083526611328125">
        <ele>1996.199951171875</ele>
        <time>2026-06-20T07:20:32.000Z</time>
        <extensions>
          <ns3:TrackPointExtension>
            <ns3:atemp>20.0</ns3:atemp>
          </ns3:TrackPointExtension>
        </extensions>
      </trkpt>
      <trkpt lat="42.54893294535577297210693359375" lon="20.130756832659244537353515625">
        <ele>1996.4000244140625</ele>
        <time>2026-06-20T07:20:33.000Z</time>
        <extensions>
          <ns3:TrackPointExtension>
            <ns3:atemp>20.0</ns3:atemp>
          </ns3:TrackPointExtension>
        </extensions>
      </trkpt>
      <trkpt lat="42.54893998615443706512451171875" lon="20.1307846605777740478515625">
        <ele>1996.5999755859375</ele>
        <time>2026-06-20T07:20:34.000Z</time>
        <extensions>
          <ns3:TrackPointExtension>
            <ns3:atemp>20.0</ns3:atemp>
          </ns3:TrackPointExtension>
        </extensions>
      </trkpt>
      <trkpt lat="42.548952810466289520263671875" lon="20.13080754317343235015869140625">
        <ele>1996.800048828125</ele>
        <time>2026-06-20T07:20:35.000Z</time>
        <extensions>
          <ns3:TrackPointExtension>
            <ns3:atemp>20.0</ns3:atemp>
          </ns3:TrackPointExtension>
        </extensions>
      </trkpt>
      <trkpt lat="42.54896881990134716033935546875" lon="20.13083067722618579864501953125">
        <ele>1997</ele>
        <time>2026-06-20T07:20:36.000Z</time>
        <extensions>
          <ns3:TrackPointExtension>
            <ns3:atemp>20.0</ns3:atemp>
          </ns3:TrackPointExtension>
        </extensions>
      </trkpt>
      <trkpt lat="42.548987679183483123779296875" lon="20.13085305690765380859375">
        <ele>1997.199951171875</ele>
        <time>2026-06-20T07:20:37.000Z</time>
        <extensions>
          <ns3:TrackPointExtension>
            <ns3:atemp>20.0</ns3:atemp>
          </ns3:TrackPointExtension>
        </extensions>
      </trkpt>
      <trkpt lat="42.54900611937046051025390625" lon="20.13087426312267780303955078125">
        <ele>1997.4000244140625</ele>
        <time>2026-06-20T07:20:38.000Z</time>
        <extensions>
          <ns3:TrackPointExtension>
            <ns3:atemp>20.0</ns3:atemp>
          </ns3:TrackPointExtension>
        </extensions>
      </trkpt>
      <trkpt lat="42.549019865691661834716796875" lon="20.1308924518525600433349609375">
        <ele>1997.800048828125</ele>
        <time>2026-06-20T07:20:39.000Z</time>
        <extensions>
          <ns3:TrackPointExtension>
            <ns3:atemp>20.0</ns3:atemp>
          </ns3:TrackPointExtension>
        </extensions>
      </trkpt>
      <trkpt lat="42.5490321032702922821044921875" lon="20.130910389125347137451171875">
        <ele>1998</ele>
        <time>2026-06-20T07:20:40.000Z</time>
        <extensions>
          <ns3:TrackPointExtension>
            <ns3:atemp>20.0</ns3:atemp>
          </ns3:TrackPointExtension>
        </extensions>
      </trkpt>
      <trkpt lat="42.54904593341052532196044921875" lon="20.13092790730297565460205078125">
        <ele>1998.4000244140625</ele>
        <time>2026-06-20T07:20:41.000Z</time>
        <extensions>
          <ns3:TrackPointExtension>
            <ns3:atemp>20.0</ns3:atemp>
          </ns3:TrackPointExtension>
        </extensions>
      </trkpt>
      <trkpt lat="42.54905850626528263092041015625" lon="20.130944587290287017822265625">
        <ele>1999</ele>
        <time>2026-06-20T07:20:42.000Z</time>
        <extensions>
          <ns3:TrackPointExtension>
            <ns3:atemp>20.0</ns3:atemp>
          </ns3:TrackPointExtension>
        </extensions>
      </trkpt>
      <trkpt lat="42.5490706600248813629150390625" lon="20.13096210546791553497314453125">
        <ele>1999.4000244140625</ele>
        <time>2026-06-20T07:20:43.000Z</time>
        <extensions>
          <ns3:TrackPointExtension>
            <ns3:atemp>20.0</ns3:atemp>
          </ns3:TrackPointExtension>
        </extensions>
      </trkpt>
      <trkpt lat="42.54908063448965549468994140625" lon="20.13097350485622882843017578125">
        <ele>1999.800048828125</ele>
        <time>2026-06-20T07:20:44.000Z</time>
        <extensions>
          <ns3:TrackPointExtension>
            <ns3:atemp>20.0</ns3:atemp>
          </ns3:TrackPointExtension>
        </extensions>
      </trkpt>
      <trkpt lat="42.54909002222120761871337890625" lon="20.13098490424454212188720703125">
        <ele>2000.199951171875</ele>
        <time>2026-06-20T07:20:45.000Z</time>
        <extensions>
          <ns3:TrackPointExtension>
            <ns3:atemp>20.0</ns3:atemp>
          </ns3:TrackPointExtension>
        </extensions>
      </trkpt>
      <trkpt lat="42.54909924231469631195068359375" lon="20.130995213985443115234375">
        <ele>2000.5999755859375</ele>
        <time>2026-06-20T07:20:46.000Z</time>
        <extensions>
          <ns3:TrackPointExtension>
            <ns3:atemp>20.0</ns3:atemp>
          </ns3:TrackPointExtension>
        </extensions>
      </trkpt>
      <trkpt lat="42.54911013878881931304931640625" lon="20.13101072050631046295166015625">
        <ele>2000.800048828125</ele>
        <time>2026-06-20T07:20:47.000Z</time>
        <extensions>
          <ns3:TrackPointExtension>
            <ns3:atemp>20.0</ns3:atemp>
          </ns3:TrackPointExtension>
        </extensions>
      </trkpt>
      <trkpt lat="42.5491196103394031524658203125" lon="20.13102480210363864898681640625">
        <ele>2001.199951171875</ele>
        <time>2026-06-20T07:20:48.000Z</time>
        <extensions>
          <ns3:TrackPointExtension>
            <ns3:atemp>20.0</ns3:atemp>
          </ns3:TrackPointExtension>
        </extensions>
      </trkpt>
      <trkpt lat="42.54912505857646465301513671875" lon="20.13104190118610858917236328125">
        <ele>2001.4000244140625</ele>
        <time>2026-06-20T07:20:49.000Z</time>
        <extensions>
          <ns3:TrackPointExtension>
            <ns3:atemp>20.0</ns3:atemp>
          </ns3:TrackPointExtension>
        </extensions>
      </trkpt>
      <trkpt lat="42.54912815988063812255859375" lon="20.13106402941048145294189453125">
        <ele>2001.5999755859375</ele>
        <time>2026-06-20T07:20:50.000Z</time>
        <extensions>
          <ns3:TrackPointExtension>
            <ns3:atemp>20.0</ns3:atemp>
          </ns3:TrackPointExtension>
        </extensions>
      </trkpt>
      <trkpt lat="42.54912790842354297637939453125" lon="20.13108347542583942413330078125">
        <ele>2002</ele>
        <time>2026-06-20T07:20:51.000Z</time>
        <extensions>
          <ns3:TrackPointExtension>
            <ns3:atemp>20.0</ns3:atemp>
          </ns3:TrackPointExtension>
        </extensions>
      </trkpt>
      <trkpt lat="42.54912857897579669952392578125" lon="20.13110912404954433441162109375">
        <ele>2002.199951171875</ele>
        <time>2026-06-20T07:20:52.000Z</time>
        <extensions>
          <ns3:TrackPointExtension>
            <ns3:atemp>20.0</ns3:atemp>
          </ns3:TrackPointExtension>
        </extensions>
      </trkpt>
      <trkpt lat="42.54912958480417728424072265625" lon="20.13113460503518581390380859375">
        <ele>2002.5999755859375</ele>
        <time>2026-06-20T07:20:53.000Z</time>
        <extensions>
          <ns3:TrackPointExtension>
            <ns3:atemp>20.0</ns3:atemp>
          </ns3:TrackPointExtension>
        </extensions>
      </trkpt>
      <trkpt lat="42.5491236336529254913330078125" lon="20.131162516772747039794921875">
        <ele>2003</ele>
        <time>2026-06-20T07:20:54.000Z</time>
        <extensions>
          <ns3:TrackPointExtension>
            <ns3:atemp>19.0</ns3:atemp>
          </ns3:TrackPointExtension>
        </extensions>
      </trkpt>
      <trkpt lat="42.54911768250167369842529296875" lon="20.1311950385570526123046875">
        <ele>2003.4000244140625</ele>
        <time>2026-06-20T07:20:55.000Z</time>
        <extensions>
          <ns3:TrackPointExtension>
            <ns3:atemp>19.0</ns3:atemp>
          </ns3:TrackPointExtension>
        </extensions>
      </trkpt>
      <trkpt lat="42.54911181516945362091064453125" lon="20.13122680597007274627685546875">
        <ele>2003.800048828125</ele>
        <time>2026-06-20T07:20:56.000Z</time>
        <extensions>
          <ns3:TrackPointExtension>
            <ns3:atemp>19.0</ns3:atemp>
          </ns3:TrackPointExtension>
        </extensions>
      </trkpt>
      <trkpt lat="42.5491035170853137969970703125" lon="20.13126200996339321136474609375">
        <ele>2004.199951171875</ele>
        <time>2026-06-20T07:20:57.000Z</time>
        <extensions>
          <ns3:TrackPointExtension>
            <ns3:atemp>19.0</ns3:atemp>
          </ns3:TrackPointExtension>
        </extensions>
      </trkpt>
      <trkpt lat="42.5490958057343959808349609375" lon="20.131296627223491668701171875">
        <ele>2004.5999755859375</ele>
        <time>2026-06-20T07:20:58.000Z</time>
        <extensions>
          <ns3:TrackPointExtension>
            <ns3:atemp>19.0</ns3:atemp>
          </ns3:TrackPointExtension>
        </extensions>
      </trkpt>
      <trkpt lat="42.54907979629933834075927734375" lon="20.13133325614035129547119140625">
        <ele>2005.199951171875</ele>
        <time>2026-06-20T07:20:59.000Z</time>
        <extensions>
          <ns3:TrackPointExtension>
            <ns3:atemp>19.0</ns3:atemp>
          </ns3:TrackPointExtension>
        </extensions>
      </trkpt>
      <trkpt lat="42.5490723364055156707763671875" lon="20.13137114234268665313720703125">
        <ele>2005.4000244140625</ele>
        <time>2026-06-20T07:21:00.000Z</time>
        <extensions>
          <ns3:TrackPointExtension>
            <ns3:atemp>19.0</ns3:atemp>
          </ns3:TrackPointExtension>
        </extensions>
      </trkpt>
      <trkpt lat="42.549060098826885223388671875" lon="20.1314077712595462799072265625">
        <ele>2005.800048828125</ele>
        <time>2026-06-20T07:21:01.000Z</time>
        <extensions>
          <ns3:TrackPointExtension>
            <ns3:atemp>19.0</ns3:atemp>
          </ns3:TrackPointExtension>
        </extensions>
      </trkpt>
      <trkpt lat="42.54905079491436481475830078125" lon="20.13144473545253276824951171875">
        <ele>2006.199951171875</ele>
        <time>2026-06-20T07:21:02.000Z</time>
        <extensions>
          <ns3:TrackPointExtension>
            <ns3:atemp>19.0</ns3:atemp>
          </ns3:TrackPointExtension>
        </extensions>
      </trkpt>
      <trkpt lat="42.5490424968302249908447265625" lon="20.13148530386388301849365234375">
        <ele>2006.5999755859375</ele>
        <time>2026-06-20T07:21:03.000Z</time>
        <extensions>
          <ns3:TrackPointExtension>
            <ns3:atemp>20.0</ns3:atemp>
          </ns3:TrackPointExtension>
        </extensions>
      </trkpt>
      <trkpt lat="42.5490284152328968048095703125" lon="20.13152302242815494537353515625">
        <ele>2007.199951171875</ele>
        <time>2026-06-20T07:21:04.000Z</time>
        <extensions>
          <ns3:TrackPointExtension>
            <ns3:atemp>20.0</ns3:atemp>
          </ns3:TrackPointExtension>
        </extensions>
      </trkpt>
      <trkpt lat="42.54901156760752201080322265625" lon="20.131556130945682525634765625">
        <ele>2007.5999755859375</ele>
        <time>2026-06-20T07:21:05.000Z</time>
        <extensions>
          <ns3:TrackPointExtension>
            <ns3:atemp>20.0</ns3:atemp>
          </ns3:TrackPointExtension>
        </extensions>
      </trkpt>
      <trkpt lat="42.548994719982147216796875" lon="20.131586305797100067138671875">
        <ele>2008.199951171875</ele>
        <time>2026-06-20T07:21:06.000Z</time>
        <extensions>
          <ns3:TrackPointExtension>
            <ns3:atemp>20.0</ns3:atemp>
          </ns3:TrackPointExtension>
        </extensions>
      </trkpt>
      <trkpt lat="42.5489811412990093231201171875" lon="20.131615810096263885498046875">
        <ele>2008.4000244140625</ele>
        <time>2026-06-20T07:21:07.000Z</time>
        <extensions>
          <ns3:TrackPointExtension>
            <ns3:atemp>20.0</ns3:atemp>
          </ns3:TrackPointExtension>
        </extensions>
      </trkpt>
      <trkpt lat="42.54896613769233226776123046875" lon="20.13164875097572803497314453125">
        <ele>2008.800048828125</ele>
        <time>2026-06-20T07:21:08.000Z</time>
        <extensions>
          <ns3:TrackPointExtension>
            <ns3:atemp>20.0</ns3:atemp>
          </ns3:TrackPointExtension>
        </extensions>
      </trkpt>
      <trkpt lat="42.54895239137113094329833984375" lon="20.131685547530651092529296875">
        <ele>2009</ele>
        <time>2026-06-20T07:21:09.000Z</time>
        <extensions>
          <ns3:TrackPointExtension>
            <ns3:atemp>20.0</ns3:atemp>
          </ns3:TrackPointExtension>
        </extensions>
      </trkpt>
      <trkpt lat="42.54895775578916072845458984375" lon="20.13172586448490619659423828125">
        <ele>2009.4000244140625</ele>
        <time>2026-06-20T07:21:10.000Z</time>
        <extensions>
          <ns3:TrackPointExtension>
            <ns3:atemp>19.0</ns3:atemp>
          </ns3:TrackPointExtension>
        </extensions>
      </trkpt>
      <trkpt lat="42.54897083155810832977294921875" lon="20.131762661039829254150390625">
        <ele>2009.800048828125</ele>
        <time>2026-06-20T07:21:11.000Z</time>
        <extensions>
          <ns3:TrackPointExtension>
            <ns3:atemp>19.0</ns3:atemp>
          </ns3:TrackPointExtension>
        </extensions>
      </trkpt>
      <trkpt lat="42.54898508079349994659423828125" lon="20.13179912231862545013427734375">
        <ele>2010</ele>
        <time>2026-06-20T07:21:12.000Z</time>
        <extensions>
          <ns3:TrackPointExtension>
            <ns3:atemp>20.0</ns3:atemp>
          </ns3:TrackPointExtension>
        </extensions>
      </trkpt>
      <trkpt lat="42.54900955595076084136962890625" lon="20.13183809816837310791015625">
        <ele>2010.199951171875</ele>
        <time>2026-06-20T07:21:13.000Z</time>
        <extensions>
          <ns3:TrackPointExtension>
            <ns3:atemp>20.0</ns3:atemp>
          </ns3:TrackPointExtension>
        </extensions>
      </trkpt>
      <trkpt lat="42.5490347854793071746826171875" lon="20.13187221251428127288818359375">
        <ele>2010.4000244140625</ele>
        <time>2026-06-20T07:21:14.000Z</time>
        <extensions>
          <ns3:TrackPointExtension>
            <ns3:atemp>20.0</ns3:atemp>
          </ns3:TrackPointExtension>
        </extensions>
      </trkpt>
      <trkpt lat="42.549061439931392669677734375" lon="20.1319069974124431610107421875">
        <ele>2010.5999755859375</ele>
        <time>2026-06-20T07:21:15.000Z</time>
        <extensions>
          <ns3:TrackPointExtension>
            <ns3:atemp>20.0</ns3:atemp>
          </ns3:TrackPointExtension>
        </extensions>
      </trkpt>
      <trkpt lat="42.54909195005893707275390625" lon="20.13193205930292606353759765625">
        <ele>2010.800048828125</ele>
        <time>2026-06-20T07:21:16.000Z</time>
        <extensions>
          <ns3:TrackPointExtension>
            <ns3:atemp>20.0</ns3:atemp>
          </ns3:TrackPointExtension>
        </extensions>
      </trkpt>
      <trkpt lat="42.54912137053906917572021484375" lon="20.13195477426052093505859375">
        <ele>2011</ele>
        <time>2026-06-20T07:21:17.000Z</time>
        <extensions>
          <ns3:TrackPointExtension>
            <ns3:atemp>20.0</ns3:atemp>
          </ns3:TrackPointExtension>
        </extensions>
      </trkpt>
      <trkpt lat="42.54915288649499416351318359375" lon="20.1319690234959125518798828125">
        <ele>2011.199951171875</ele>
        <time>2026-06-20T07:21:18.000Z</time>
        <extensions>
          <ns3:TrackPointExtension>
            <ns3:atemp>20.0</ns3:atemp>
          </ns3:TrackPointExtension>
        </extensions>
      </trkpt>
      <trkpt lat="42.54917970858514308929443359375" lon="20.1319757290184497833251953125">
        <ele>2011.5999755859375</ele>
        <time>2026-06-20T07:21:19.000Z</time>
        <extensions>
          <ns3:TrackPointExtension>
            <ns3:atemp>20.0</ns3:atemp>
          </ns3:TrackPointExtension>
        </extensions>
      </trkpt>
      <trkpt lat="42.5492087937891483306884765625" lon="20.13198285363614559173583984375">
        <ele>2011.800048828125</ele>
        <time>2026-06-20T07:21:20.000Z</time>
        <extensions>
          <ns3:TrackPointExtension>
            <ns3:atemp>19.0</ns3:atemp>
          </ns3:TrackPointExtension>
        </extensions>
      </trkpt>
      <trkpt lat="42.5492366217076778411865234375" lon="20.1319901458919048309326171875">
        <ele>2012</ele>
        <time>2026-06-20T07:21:21.000Z</time>
        <extensions>
          <ns3:TrackPointExtension>
            <ns3:atemp>19.0</ns3:atemp>
          </ns3:TrackPointExtension>
        </extensions>
      </trkpt>
      <trkpt lat="42.54926738329231739044189453125" lon="20.1319948397576808929443359375">
        <ele>2012.4000244140625</ele>
        <time>2026-06-20T07:21:22.000Z</time>
        <extensions>
          <ns3:TrackPointExtension>
            <ns3:atemp>20.0</ns3:atemp>
          </ns3:TrackPointExtension>
        </extensions>
      </trkpt>
      <trkpt lat="42.5492969714105129241943359375" lon="20.13200028799474239349365234375">
        <ele>2012.5999755859375</ele>
        <time>2026-06-20T07:21:23.000Z</time>
        <extensions>
          <ns3:TrackPointExtension>
            <ns3:atemp>20.0</ns3:atemp>
          </ns3:TrackPointExtension>
        </extensions>
      </trkpt>
      <trkpt lat="42.54932639189064502716064453125" lon="20.1320035569369792938232421875">
        <ele>2013</ele>
        <time>2026-06-20T07:21:24.000Z</time>
        <extensions>
          <ns3:TrackPointExtension>
            <ns3:atemp>20.0</ns3:atemp>
          </ns3:TrackPointExtension>
        </extensions>
      </trkpt>
      <trkpt lat="42.5493576563894748687744140625" lon="20.1320032216608524322509765625">
        <ele>2013.4000244140625</ele>
        <time>2026-06-20T07:21:25.000Z</time>
        <extensions>
          <ns3:TrackPointExtension>
            <ns3:atemp>20.0</ns3:atemp>
          </ns3:TrackPointExtension>
        </extensions>
      </trkpt>
      <trkpt lat="42.54938791505992412567138671875" lon="20.13200598768889904022216796875">
        <ele>2013.5999755859375</ele>
        <time>2026-06-20T07:21:26.000Z</time>
        <extensions>
          <ns3:TrackPointExtension>
            <ns3:atemp>20.0</ns3:atemp>
          </ns3:TrackPointExtension>
        </extensions>
      </trkpt>
      <trkpt lat="42.54941842518746852874755859375" lon="20.132009088993072509765625">
        <ele>2014</ele>
        <time>2026-06-20T07:21:27.000Z</time>
        <extensions>
          <ns3:TrackPointExtension>
            <ns3:atemp>19.0</ns3:atemp>
          </ns3:TrackPointExtension>
        </extensions>
      </trkpt>
      <trkpt lat="42.54945010878145694732666015625" lon="20.1320183090865612030029296875">
        <ele>2014.5999755859375</ele>
        <time>2026-06-20T07:21:28.000Z</time>
        <extensions>
          <ns3:TrackPointExtension>
            <ns3:atemp>19.0</ns3:atemp>
          </ns3:TrackPointExtension>
        </extensions>
      </trkpt>
      <trkpt lat="42.54947961308062076568603515625" lon="20.13202585279941558837890625">
        <ele>2015</ele>
        <time>2026-06-20T07:21:29.000Z</time>
        <extensions>
          <ns3:TrackPointExtension>
            <ns3:atemp>19.0</ns3:atemp>
          </ns3:TrackPointExtension>
        </extensions>
      </trkpt>
      <trkpt lat="42.54950366914272308349609375" lon="20.13203498907387256622314453125">
        <ele>2015.4000244140625</ele>
        <time>2026-06-20T07:21:30.000Z</time>
        <extensions>
          <ns3:TrackPointExtension>
            <ns3:atemp>19.0</ns3:atemp>
          </ns3:TrackPointExtension>
        </extensions>
      </trkpt>
      <trkpt lat="42.54952403716742992401123046875" lon="20.13204186223447322845458984375">
        <ele>2015.800048828125</ele>
        <time>2026-06-20T07:21:31.000Z</time>
        <extensions>
          <ns3:TrackPointExtension>
            <ns3:atemp>20.0</ns3:atemp>
          </ns3:TrackPointExtension>
        </extensions>
      </trkpt>
      <trkpt lat="42.54954256117343902587890625" lon="20.13205468654632568359375">
        <ele>2016.4000244140625</ele>
        <time>2026-06-20T07:21:32.000Z</time>
        <extensions>
          <ns3:TrackPointExtension>
            <ns3:atemp>19.0</ns3:atemp>
          </ns3:TrackPointExtension>
        </extensions>
      </trkpt>
      <trkpt lat="42.54956393502652645111083984375" lon="20.1320665888488292694091796875">
        <ele>2016.800048828125</ele>
        <time>2026-06-20T07:21:33.000Z</time>
        <extensions>
          <ns3:TrackPointExtension>
            <ns3:atemp>19.0</ns3:atemp>
          </ns3:TrackPointExtension>
        </extensions>
      </trkpt>
      <trkpt lat="42.54957675933837890625" lon="20.13208276592195034027099609375">
        <ele>2017.4000244140625</ele>
        <time>2026-06-20T07:21:34.000Z</time>
        <extensions>
          <ns3:TrackPointExtension>
            <ns3:atemp>19.0</ns3:atemp>
          </ns3:TrackPointExtension>
        </extensions>
      </trkpt>
      <trkpt lat="42.549593187868595123291015625" lon="20.13209383003413677215576171875">
        <ele>2017.800048828125</ele>
        <time>2026-06-20T07:21:35.000Z</time>
        <extensions>
          <ns3:TrackPointExtension>
            <ns3:atemp>20.0</ns3:atemp>
          </ns3:TrackPointExtension>
        </extensions>
      </trkpt>
      <trkpt lat="42.5496124662458896636962890625" lon="20.13211059384047985076904296875">
        <ele>2018.199951171875</ele>
        <time>2026-06-20T07:21:36.000Z</time>
        <extensions>
          <ns3:TrackPointExtension>
            <ns3:atemp>20.0</ns3:atemp>
          </ns3:TrackPointExtension>
        </extensions>
      </trkpt>
      <trkpt lat="42.54962998442351818084716796875" lon="20.1321249268949031829833984375">
        <ele>2018.5999755859375</ele>
        <time>2026-06-20T07:21:37.000Z</time>
        <extensions>
          <ns3:TrackPointExtension>
            <ns3:atemp>20.0</ns3:atemp>
          </ns3:TrackPointExtension>
        </extensions>
      </trkpt>
      <trkpt lat="42.54964708350598812103271484375" lon="20.1321366615593433380126953125">
        <ele>2018.800048828125</ele>
        <time>2026-06-20T07:21:38.000Z</time>
        <extensions>
          <ns3:TrackPointExtension>
            <ns3:atemp>20.0</ns3:atemp>
          </ns3:TrackPointExtension>
        </extensions>
      </trkpt>
      <trkpt lat="42.549664266407489776611328125" lon="20.132146216928958892822265625">
        <ele>2019.199951171875</ele>
        <time>2026-06-20T07:21:39.000Z</time>
        <extensions>
          <ns3:TrackPointExtension>
            <ns3:atemp>20.0</ns3:atemp>
          </ns3:TrackPointExtension>
        </extensions>
      </trkpt>
      <trkpt lat="42.54968161694705486297607421875" lon="20.13216222636401653289794921875">
        <ele>2019.5999755859375</ele>
        <time>2026-06-20T07:21:40.000Z</time>
        <extensions>
          <ns3:TrackPointExtension>
            <ns3:atemp>20.0</ns3:atemp>
          </ns3:TrackPointExtension>
        </extensions>
      </trkpt>
      <trkpt lat="42.54969821311533451080322265625" lon="20.13217345811426639556884765625">
        <ele>2019.800048828125</ele>
        <time>2026-06-20T07:21:41.000Z</time>
        <extensions>
          <ns3:TrackPointExtension>
            <ns3:atemp>20.0</ns3:atemp>
          </ns3:TrackPointExtension>
        </extensions>
      </trkpt>
      <trkpt lat="42.54971615038812160491943359375" lon="20.1321847736835479736328125">
        <ele>2020.199951171875</ele>
        <time>2026-06-20T07:21:42.000Z</time>
        <extensions>
          <ns3:TrackPointExtension>
            <ns3:atemp>20.0</ns3:atemp>
          </ns3:TrackPointExtension>
        </extensions>
      </trkpt>
      <trkpt lat="42.54973224364221096038818359375" lon="20.13220044784247875213623046875">
        <ele>2020.800048828125</ele>
        <time>2026-06-20T07:21:43.000Z</time>
        <extensions>
          <ns3:TrackPointExtension>
            <ns3:atemp>20.0</ns3:atemp>
          </ns3:TrackPointExtension>
        </extensions>
      </trkpt>
      <trkpt lat="42.549748085439205169677734375" lon="20.13221285305917263031005859375">
        <ele>2021.199951171875</ele>
        <time>2026-06-20T07:21:44.000Z</time>
        <extensions>
          <ns3:TrackPointExtension>
            <ns3:atemp>20.0</ns3:atemp>
          </ns3:TrackPointExtension>
        </extensions>
      </trkpt>
      <trkpt lat="42.549763508141040802001953125" lon="20.13222861103713512420654296875">
        <ele>2021.5999755859375</ele>
        <time>2026-06-20T07:21:45.000Z</time>
        <extensions>
          <ns3:TrackPointExtension>
            <ns3:atemp>19.0</ns3:atemp>
          </ns3:TrackPointExtension>
        </extensions>
      </trkpt>
      <trkpt lat="42.54977725446224212646484375" lon="20.1322424411773681640625">
        <ele>2022.199951171875</ele>
        <time>2026-06-20T07:21:46.000Z</time>
        <extensions>
          <ns3:TrackPointExtension>
            <ns3:atemp>19.0</ns3:atemp>
          </ns3:TrackPointExtension>
        </extensions>
      </trkpt>
      <trkpt lat="42.54979058168828487396240234375" lon="20.13225694186985492706298828125">
        <ele>2022.5999755859375</ele>
        <time>2026-06-20T07:21:47.000Z</time>
        <extensions>
          <ns3:TrackPointExtension>
            <ns3:atemp>19.0</ns3:atemp>
          </ns3:TrackPointExtension>
        </extensions>
      </trkpt>
      <trkpt lat="42.5498045794665813446044921875" lon="20.13227001763880252838134765625">
        <ele>2023</ele>
        <time>2026-06-20T07:21:48.000Z</time>
        <extensions>
          <ns3:TrackPointExtension>
            <ns3:atemp>19.0</ns3:atemp>
          </ns3:TrackPointExtension>
        </extensions>
      </trkpt>
      <trkpt lat="42.54981690086424350738525390625" lon="20.1322848536074161529541015625">
        <ele>2023.199951171875</ele>
        <time>2026-06-20T07:21:49.000Z</time>
        <extensions>
          <ns3:TrackPointExtension>
            <ns3:atemp>19.0</ns3:atemp>
          </ns3:TrackPointExtension>
        </extensions>
      </trkpt>
      <trkpt lat="42.5498329102993011474609375" lon="20.13230019249022006988525390625">
        <ele>2023.5999755859375</ele>
        <time>2026-06-20T07:21:50.000Z</time>
        <extensions>
          <ns3:TrackPointExtension>
            <ns3:atemp>19.0</ns3:atemp>
          </ns3:TrackPointExtension>
        </extensions>
      </trkpt>
      <trkpt lat="42.54984724335372447967529296875" lon="20.132314525544643402099609375">
        <ele>2024</ele>
        <time>2026-06-20T07:21:51.000Z</time>
        <extensions>
          <ns3:TrackPointExtension>
            <ns3:atemp>19.0</ns3:atemp>
          </ns3:TrackPointExtension>
        </extensions>
      </trkpt>
      <trkpt lat="42.5498622469604015350341796875" lon="20.13232290744781494140625">
        <ele>2024.199951171875</ele>
        <time>2026-06-20T07:21:52.000Z</time>
        <extensions>
          <ns3:TrackPointExtension>
            <ns3:atemp>19.0</ns3:atemp>
          </ns3:TrackPointExtension>
        </extensions>
      </trkpt>
      <trkpt lat="42.54987649619579315185546875" lon="20.132333301007747650146484375">
        <ele>2024.5999755859375</ele>
        <time>2026-06-20T07:21:53.000Z</time>
        <extensions>
          <ns3:TrackPointExtension>
            <ns3:atemp>19.0</ns3:atemp>
          </ns3:TrackPointExtension>
        </extensions>
      </trkpt>
      <trkpt lat="42.54988965578377246856689453125" lon="20.1323291100561618804931640625">
        <ele>2025</ele>
        <time>2026-06-20T07:21:54.000Z</time>
        <extensions>
          <ns3:TrackPointExtension>
            <ns3:atemp>19.0</ns3:atemp>
          </ns3:TrackPointExtension>
        </extensions>
      </trkpt>
      <trkpt lat="42.549892924726009368896484375" lon="20.13233154080808162689208984375">
        <ele>2025.199951171875</ele>
        <time>2026-06-20T07:21:55.000Z</time>
        <extensions>
          <ns3:TrackPointExtension>
            <ns3:atemp>19.0</ns3:atemp>
          </ns3:TrackPointExtension>
        </extensions>
      </trkpt>
      <trkpt lat="42.549892924726009368896484375" lon="20.13233154080808162689208984375">
        <ele>2025.4000244140625</ele>
        <time>2026-06-20T07:21:56.000Z</time>
        <extensions>
          <ns3:TrackPointExtension>
            <ns3:atemp>20.0</ns3:atemp>
          </ns3:TrackPointExtension>
        </extensions>
      </trkpt>
      <trkpt lat="42.5499011389911174774169921875" lon="20.1323376595973968505859375">
        <ele>2025.800048828125</ele>
        <time>2026-06-20T07:21:57.000Z</time>
        <extensions>
          <ns3:TrackPointExtension>
            <ns3:atemp>20.0</ns3:atemp>
          </ns3:TrackPointExtension>
        </extensions>
      </trkpt>
      <trkpt lat="42.54991077817976474761962890625" lon="20.13234059326350688934326171875">
        <ele>2026</ele>
        <time>2026-06-20T07:21:58.000Z</time>
        <extensions>
          <ns3:TrackPointExtension>
            <ns3:atemp>19.0</ns3:atemp>
          </ns3:TrackPointExtension>
        </extensions>
      </trkpt>
      <trkpt lat="42.54991563968360424041748046875" lon="20.132344029843807220458984375">
        <ele>2026.199951171875</ele>
        <time>2026-06-20T07:21:59.000Z</time>
        <extensions>
          <ns3:TrackPointExtension>
            <ns3:atemp>20.0</ns3:atemp>
          </ns3:TrackPointExtension>
        </extensions>
      </trkpt>
      <trkpt lat="42.54992075264453887939453125" lon="20.1323441974818706512451171875">
        <ele>2026.4000244140625</ele>
        <time>2026-06-20T07:22:00.000Z</time>
        <extensions>
          <ns3:TrackPointExtension>
            <ns3:atemp>20.0</ns3:atemp>
          </ns3:TrackPointExtension>
        </extensions>
      </trkpt>
      <trkpt lat="42.5499266199767589569091796875" lon="20.13234729878604412078857421875">
        <ele>2026.4000244140625</ele>
        <time>2026-06-20T07:22:01.000Z</time>
        <extensions>
          <ns3:TrackPointExtension>
            <ns3:atemp>19.0</ns3:atemp>
          </ns3:TrackPointExtension>
        </extensions>
      </trkpt>
      <trkpt lat="42.549931816756725311279296875" lon="20.13235366903245449066162109375">
        <ele>2026.5999755859375</ele>
        <time>2026-06-20T07:22:02.000Z</time>
        <extensions>
          <ns3:TrackPointExtension>
            <ns3:atemp>19.0</ns3:atemp>
          </ns3:TrackPointExtension>
        </extensions>
      </trkpt>
      <trkpt lat="42.54993684589862823486328125" lon="20.13236758299171924591064453125">
        <ele>2027</ele>
        <time>2026-06-20T07:22:03.000Z</time>
        <extensions>
          <ns3:TrackPointExtension>
            <ns3:atemp>19.0</ns3:atemp>
          </ns3:TrackPointExtension>
        </extensions>
      </trkpt>
      <trkpt lat="42.54994028247892856597900390625" lon="20.13238124549388885498046875">
        <ele>2027</ele>
        <time>2026-06-20T07:22:04.000Z</time>
        <extensions>
          <ns3:TrackPointExtension>
            <ns3:atemp>19.0</ns3:atemp>
          </ns3:TrackPointExtension>
        </extensions>
      </trkpt>
      <trkpt lat="42.54994128830730915069580078125" lon="20.1323874481022357940673828125">
        <ele>2027.199951171875</ele>
        <time>2026-06-20T07:22:05.000Z</time>
        <extensions>
          <ns3:TrackPointExtension>
            <ns3:atemp>19.0</ns3:atemp>
          </ns3:TrackPointExtension>
        </extensions>
      </trkpt>
      <trkpt lat="42.54994128830730915069580078125" lon="20.1323874481022357940673828125">
        <ele>2027.199951171875</ele>
        <time>2026-06-20T07:22:06.000Z</time>
        <extensions>
          <ns3:TrackPointExtension>
            <ns3:atemp>19.0</ns3:atemp>
          </ns3:TrackPointExtension>
        </extensions>
      </trkpt>
      <trkpt lat="42.54994128830730915069580078125" lon="20.1323874481022357940673828125">
        <ele>2027.4000244140625</ele>
        <time>2026-06-20T07:22:07.000Z</time>
        <extensions>
          <ns3:TrackPointExtension>
            <ns3:atemp>19.0</ns3:atemp>
          </ns3:TrackPointExtension>
        </extensions>
      </trkpt>
      <trkpt lat="42.5499413721263408660888671875" lon="20.13238753192126750946044921875">
        <ele>2027.4000244140625</ele>
        <time>2026-06-20T07:22:08.000Z</time>
        <extensions>
          <ns3:TrackPointExtension>
            <ns3:atemp>19.0</ns3:atemp>
          </ns3:TrackPointExtension>
        </extensions>
      </trkpt>
      <trkpt lat="42.54994782619178295135498046875" lon="20.1324020326137542724609375">
        <ele>2027.4000244140625</ele>
        <time>2026-06-20T07:22:09.000Z</time>
        <extensions>
          <ns3:TrackPointExtension>
            <ns3:atemp>19.0</ns3:atemp>
          </ns3:TrackPointExtension>
        </extensions>
      </trkpt>
      <trkpt lat="42.54995671100914478302001953125" lon="20.1324141025543212890625">
        <ele>2027.4000244140625</ele>
        <time>2026-06-20T07:22:10.000Z</time>
        <extensions>
          <ns3:TrackPointExtension>
            <ns3:atemp>20.0</ns3:atemp>
          </ns3:TrackPointExtension>
        </extensions>
      </trkpt>
      <trkpt lat="42.549971379339694976806640625" lon="20.13242256827652454376220703125">
        <ele>2027.4000244140625</ele>
        <time>2026-06-20T07:22:11.000Z</time>
        <extensions>
          <ns3:TrackPointExtension>
            <ns3:atemp>19.0</ns3:atemp>
          </ns3:TrackPointExtension>
        </extensions>
      </trkpt>
      <trkpt lat="42.54998956806957721710205078125" lon="20.132428519427776336669921875">
        <ele>2027.5999755859375</ele>
        <time>2026-06-20T07:22:12.000Z</time>
        <extensions>
          <ns3:TrackPointExtension>
            <ns3:atemp>19.0</ns3:atemp>
          </ns3:TrackPointExtension>
        </extensions>
      </trkpt>
      <trkpt lat="42.55001001991331577301025390625" lon="20.13242893852293491363525390625">
        <ele>2027.5999755859375</ele>
        <time>2026-06-20T07:22:13.000Z</time>
        <extensions>
          <ns3:TrackPointExtension>
            <ns3:atemp>19.0</ns3:atemp>
          </ns3:TrackPointExtension>
        </extensions>
      </trkpt>
      <trkpt lat="42.550028376281261444091796875" lon="20.13243363238871097564697265625">
        <ele>2027.800048828125</ele>
        <time>2026-06-20T07:22:14.000Z</time>
        <extensions>
          <ns3:TrackPointExtension>
            <ns3:atemp>19.0</ns3:atemp>
          </ns3:TrackPointExtension>
        </extensions>
      </trkpt>
      <trkpt lat="42.55004279315471649169921875" lon="20.1324390806257724761962890625">
        <ele>2028</ele>
        <time>2026-06-20T07:22:15.000Z</time>
        <extensions>
          <ns3:TrackPointExtension>
            <ns3:atemp>19.0</ns3:atemp>
          </ns3:TrackPointExtension>
        </extensions>
      </trkpt>
      <trkpt lat="42.550063244998455047607421875" lon="20.13244754634797573089599609375">
        <ele>2028.199951171875</ele>
        <time>2026-06-20T07:22:16.000Z</time>
        <extensions>
          <ns3:TrackPointExtension>
            <ns3:atemp>19.0</ns3:atemp>
          </ns3:TrackPointExtension>
        </extensions>
      </trkpt>
      <trkpt lat="42.55008327774703502655029296875" lon="20.1324575208127498626708984375">
        <ele>2028.4000244140625</ele>
        <time>2026-06-20T07:22:17.000Z</time>
        <extensions>
          <ns3:TrackPointExtension>
            <ns3:atemp>19.0</ns3:atemp>
          </ns3:TrackPointExtension>
        </extensions>
      </trkpt>
      <trkpt lat="42.5501026399433612823486328125" lon="20.13246975839138031005859375">
        <ele>2028.5999755859375</ele>
        <time>2026-06-20T07:22:18.000Z</time>
        <extensions>
          <ns3:TrackPointExtension>
            <ns3:atemp>20.0</ns3:atemp>
          </ns3:TrackPointExtension>
        </extensions>
      </trkpt>
      <trkpt lat="42.55011546425521373748779296875" lon="20.13248492963612079620361328125">
        <ele>2029</ele>
        <time>2026-06-20T07:22:19.000Z</time>
        <extensions>
          <ns3:TrackPointExtension>
            <ns3:atemp>20.0</ns3:atemp>
          </ns3:TrackPointExtension>
        </extensions>
      </trkpt>
      <trkpt lat="42.5501297973096370697021484375" lon="20.132496245205402374267578125">
        <ele>2029.4000244140625</ele>
        <time>2026-06-20T07:22:20.000Z</time>
        <extensions>
          <ns3:TrackPointExtension>
            <ns3:atemp>20.0</ns3:atemp>
          </ns3:TrackPointExtension>
        </extensions>
      </trkpt>
      <trkpt lat="42.5501442141830921173095703125" lon="20.13249951414763927459716796875">
        <ele>2029.800048828125</ele>
        <time>2026-06-20T07:22:21.000Z</time>
        <extensions>
          <ns3:TrackPointExtension>
            <ns3:atemp>19.0</ns3:atemp>
          </ns3:TrackPointExtension>
        </extensions>
      </trkpt>
      <trkpt lat="42.550161816179752349853515625" lon="20.13250328600406646728515625">
        <ele>2030</ele>
        <time>2026-06-20T07:22:22.000Z</time>
        <extensions>
          <ns3:TrackPointExtension>
            <ns3:atemp>19.0</ns3:atemp>
          </ns3:TrackPointExtension>
        </extensions>
      </trkpt>
      <trkpt lat="42.5501777417957782745361328125" lon="20.13250504620373249053955078125">
        <ele>2030.4000244140625</ele>
        <time>2026-06-20T07:22:23.000Z</time>
        <extensions>
          <ns3:TrackPointExtension>
            <ns3:atemp>19.0</ns3:atemp>
          </ns3:TrackPointExtension>
        </extensions>
      </trkpt>
      <trkpt lat="42.5501918233931064605712890625" lon="20.1325047947466373443603515625">
        <ele>2030.800048828125</ele>
        <time>2026-06-20T07:22:24.000Z</time>
        <extensions>
          <ns3:TrackPointExtension>
            <ns3:atemp>20.0</ns3:atemp>
          </ns3:TrackPointExtension>
        </extensions>
      </trkpt>
      <trkpt lat="42.55020481534302234649658203125" lon="20.13251208700239658355712890625">
        <ele>2031</ele>
        <time>2026-06-20T07:22:25.000Z</time>
        <extensions>
          <ns3:TrackPointExtension>
            <ns3:atemp>20.0</ns3:atemp>
          </ns3:TrackPointExtension>
        </extensions>
      </trkpt>
      <trkpt lat="42.550218813121318817138671875" lon="20.13252214528620243072509765625">
        <ele>2031.4000244140625</ele>
        <time>2026-06-20T07:22:26.000Z</time>
        <extensions>
          <ns3:TrackPointExtension>
            <ns3:atemp>19.0</ns3:atemp>
          </ns3:TrackPointExtension>
        </extensions>
      </trkpt>
      <trkpt lat="42.55023666657507419586181640625" lon="20.13253035955131053924560546875">
        <ele>2031.5999755859375</ele>
        <time>2026-06-20T07:22:27.000Z</time>
        <extensions>
          <ns3:TrackPointExtension>
            <ns3:atemp>20.0</ns3:atemp>
          </ns3:TrackPointExtension>
        </extensions>
      </trkpt>
      <trkpt lat="42.55025493912398815155029296875" lon="20.13253706507384777069091796875">
        <ele>2031.800048828125</ele>
        <time>2026-06-20T07:22:28.000Z</time>
        <extensions>
          <ns3:TrackPointExtension>
            <ns3:atemp>20.0</ns3:atemp>
          </ns3:TrackPointExtension>
        </extensions>
      </trkpt>
      <trkpt lat="42.55027606151998043060302734375" lon="20.13254662044346332550048828125">
        <ele>2032</ele>
        <time>2026-06-20T07:22:29.000Z</time>
        <extensions>
          <ns3:TrackPointExtension>
            <ns3:atemp>20.0</ns3:atemp>
          </ns3:TrackPointExtension>
        </extensions>
      </trkpt>
      <trkpt lat="42.5502971000969409942626953125" lon="20.13255558907985687255859375">
        <ele>2032.199951171875</ele>
        <time>2026-06-20T07:22:30.000Z</time>
        <extensions>
          <ns3:TrackPointExtension>
            <ns3:atemp>20.0</ns3:atemp>
          </ns3:TrackPointExtension>
        </extensions>
      </trkpt>
      <trkpt lat="42.55031629465520381927490234375" lon="20.1325611211359500885009765625">
        <ele>2032.4000244140625</ele>
        <time>2026-06-20T07:22:31.000Z</time>
        <extensions>
          <ns3:TrackPointExtension>
            <ns3:atemp>20.0</ns3:atemp>
          </ns3:TrackPointExtension>
        </extensions>
      </trkpt>
      <trkpt lat="42.5503385066986083984375" lon="20.132570676505565643310546875">
        <ele>2032.5999755859375</ele>
        <time>2026-06-20T07:22:32.000Z</time>
        <extensions>
          <ns3:TrackPointExtension>
            <ns3:atemp>20.0</ns3:atemp>
          </ns3:TrackPointExtension>
        </extensions>
      </trkpt>
      <trkpt lat="42.550356946885585784912109375" lon="20.132581405341625213623046875">
        <ele>2032.800048828125</ele>
        <time>2026-06-20T07:22:33.000Z</time>
        <extensions>
          <ns3:TrackPointExtension>
            <ns3:atemp>20.0</ns3:atemp>
          </ns3:TrackPointExtension>
        </extensions>
      </trkpt>
      <trkpt lat="42.55037681199610233306884765625" lon="20.13258366845548152923583984375">
        <ele>2033.199951171875</ele>
        <time>2026-06-20T07:22:34.000Z</time>
        <extensions>
          <ns3:TrackPointExtension>
            <ns3:atemp>20.0</ns3:atemp>
          </ns3:TrackPointExtension>
        </extensions>
      </trkpt>
      <trkpt lat="42.55039508454501628875732421875" lon="20.13258869759738445281982421875">
        <ele>2033.5999755859375</ele>
        <time>2026-06-20T07:22:35.000Z</time>
        <extensions>
          <ns3:TrackPointExtension>
            <ns3:atemp>20.0</ns3:atemp>
          </ns3:TrackPointExtension>
        </extensions>
      </trkpt>
      <trkpt lat="42.550416626036167144775390625" lon="20.13259288854897022247314453125">
        <ele>2034</ele>
        <time>2026-06-20T07:22:36.000Z</time>
        <extensions>
          <ns3:TrackPointExtension>
            <ns3:atemp>19.0</ns3:atemp>
          </ns3:TrackPointExtension>
        </extensions>
      </trkpt>
      <trkpt lat="42.5504395924508571624755859375" lon="20.1325899548828601837158203125">
        <ele>2034.4000244140625</ele>
        <time>2026-06-20T07:22:37.000Z</time>
        <extensions>
          <ns3:TrackPointExtension>
            <ns3:atemp>19.0</ns3:atemp>
          </ns3:TrackPointExtension>
        </extensions>
      </trkpt>
      <trkpt lat="42.5504623912274837493896484375" lon="20.1325902901589870452880859375">
        <ele>2034.800048828125</ele>
        <time>2026-06-20T07:22:38.000Z</time>
        <extensions>
          <ns3:TrackPointExtension>
            <ns3:atemp>19.0</ns3:atemp>
          </ns3:TrackPointExtension>
        </extensions>
      </trkpt>
      <trkpt lat="42.55048192106187343597412109375" lon="20.13259707950055599212646484375">
        <ele>2035</ele>
        <time>2026-06-20T07:22:39.000Z</time>
        <extensions>
          <ns3:TrackPointExtension>
            <ns3:atemp>19.0</ns3:atemp>
          </ns3:TrackPointExtension>
        </extensions>
      </trkpt>
      <trkpt lat="42.55050354637205600738525390625" lon="20.132598839700222015380859375">
        <ele>2035.199951171875</ele>
        <time>2026-06-20T07:22:40.000Z</time>
        <extensions>
          <ns3:TrackPointExtension>
            <ns3:atemp>20.0</ns3:atemp>
          </ns3:TrackPointExtension>
        </extensions>
      </trkpt>
      <trkpt lat="42.55052450112998485565185546875" lon="20.13260185718536376953125">
        <ele>2035.4000244140625</ele>
        <time>2026-06-20T07:22:41.000Z</time>
        <extensions>
          <ns3:TrackPointExtension>
            <ns3:atemp>19.0</ns3:atemp>
          </ns3:TrackPointExtension>
        </extensions>
      </trkpt>
      <trkpt lat="42.5505465455353260040283203125" lon="20.13260177336633205413818359375">
        <ele>2035.800048828125</ele>
        <time>2026-06-20T07:22:42.000Z</time>
        <extensions>
          <ns3:TrackPointExtension>
            <ns3:atemp>19.0</ns3:atemp>
          </ns3:TrackPointExtension>
        </extensions>
      </trkpt>
      <trkpt lat="42.5505680032074451446533203125" lon="20.13259925879538059234619140625">
        <ele>2036.199951171875</ele>
        <time>2026-06-20T07:22:43.000Z</time>
        <extensions>
          <ns3:TrackPointExtension>
            <ns3:atemp>20.0</ns3:atemp>
          </ns3:TrackPointExtension>
        </extensions>
      </trkpt>
      <trkpt lat="42.55058820359408855438232421875" lon="20.1325956545770168304443359375">
        <ele>2036.5999755859375</ele>
        <time>2026-06-20T07:22:44.000Z</time>
        <extensions>
          <ns3:TrackPointExtension>
            <ns3:atemp>20.0</ns3:atemp>
          </ns3:TrackPointExtension>
        </extensions>
      </trkpt>
      <trkpt lat="42.5506068952381610870361328125" lon="20.1325912959873676300048828125">
        <ele>2037</ele>
        <time>2026-06-20T07:22:45.000Z</time>
        <extensions>
          <ns3:TrackPointExtension>
            <ns3:atemp>19.0</ns3:atemp>
          </ns3:TrackPointExtension>
        </extensions>
      </trkpt>
      <trkpt lat="42.55062885582447052001953125" lon="20.1325844228267669677734375">
        <ele>2037.199951171875</ele>
        <time>2026-06-20T07:22:46.000Z</time>
        <extensions>
          <ns3:TrackPointExtension>
            <ns3:atemp>19.0</ns3:atemp>
          </ns3:TrackPointExtension>
        </extensions>
      </trkpt>
      <trkpt lat="42.55065391771495342254638671875" lon="20.13258500955998897552490234375">
        <ele>2037.5999755859375</ele>
        <time>2026-06-20T07:22:47.000Z</time>
        <extensions>
          <ns3:TrackPointExtension>
            <ns3:atemp>19.0</ns3:atemp>
          </ns3:TrackPointExtension>
        </extensions>
      </trkpt>
      <trkpt lat="42.550674118101596832275390625" lon="20.13258031569421291351318359375">
        <ele>2037.800048828125</ele>
        <time>2026-06-20T07:22:48.000Z</time>
        <extensions>
          <ns3:TrackPointExtension>
            <ns3:atemp>19.0</ns3:atemp>
          </ns3:TrackPointExtension>
        </extensions>
      </trkpt>
      <trkpt lat="42.5506950728595256805419921875" lon="20.13257444836199283599853515625">
        <ele>2038.199951171875</ele>
        <time>2026-06-20T07:22:49.000Z</time>
        <extensions>
          <ns3:TrackPointExtension>
            <ns3:atemp>19.0</ns3:atemp>
          </ns3:TrackPointExtension>
        </extensions>
      </trkpt>
      <trkpt lat="42.550720386207103729248046875" lon="20.13256522826850414276123046875">
        <ele>2038.5999755859375</ele>
        <time>2026-06-20T07:22:50.000Z</time>
        <extensions>
          <ns3:TrackPointExtension>
            <ns3:atemp>19.0</ns3:atemp>
          </ns3:TrackPointExtension>
        </extensions>
      </trkpt>
      <trkpt lat="42.55074150860309600830078125" lon="20.1325522363185882568359375">
        <ele>2038.800048828125</ele>
        <time>2026-06-20T07:22:51.000Z</time>
        <extensions>
          <ns3:TrackPointExtension>
            <ns3:atemp>19.0</ns3:atemp>
          </ns3:TrackPointExtension>
        </extensions>
      </trkpt>
      <trkpt lat="42.55076271481812000274658203125" lon="20.1325416751205921173095703125">
        <ele>2039.199951171875</ele>
        <time>2026-06-20T07:22:52.000Z</time>
        <extensions>
          <ns3:TrackPointExtension>
            <ns3:atemp>19.0</ns3:atemp>
          </ns3:TrackPointExtension>
        </extensions>
      </trkpt>
      <trkpt lat="42.55078467540442943572998046875" lon="20.132529102265834808349609375">
        <ele>2039.5999755859375</ele>
        <time>2026-06-20T07:22:53.000Z</time>
        <extensions>
          <ns3:TrackPointExtension>
            <ns3:atemp>19.0</ns3:atemp>
          </ns3:TrackPointExtension>
        </extensions>
      </trkpt>
      <trkpt lat="42.55080546252429485321044921875" lon="20.132510997354984283447265625">
        <ele>2039.800048828125</ele>
        <time>2026-06-20T07:22:54.000Z</time>
        <extensions>
          <ns3:TrackPointExtension>
            <ns3:atemp>19.0</ns3:atemp>
          </ns3:TrackPointExtension>
        </extensions>
      </trkpt>
      <trkpt lat="42.550827004015445709228515625" lon="20.13249683193862438201904296875">
        <ele>2040</ele>
        <time>2026-06-20T07:22:55.000Z</time>
        <extensions>
          <ns3:TrackPointExtension>
            <ns3:atemp>19.0</ns3:atemp>
          </ns3:TrackPointExtension>
        </extensions>
      </trkpt>
      <trkpt lat="42.5508489646017551422119140625" lon="20.1324796490371227264404296875">
        <ele>2040.199951171875</ele>
        <time>2026-06-20T07:22:56.000Z</time>
        <extensions>
          <ns3:TrackPointExtension>
            <ns3:atemp>19.0</ns3:atemp>
          </ns3:TrackPointExtension>
        </extensions>
      </trkpt>
      <trkpt lat="42.55086950026452541351318359375" lon="20.1324665732681751251220703125">
        <ele>2040.4000244140625</ele>
        <time>2026-06-20T07:22:57.000Z</time>
        <extensions>
          <ns3:TrackPointExtension>
            <ns3:atemp>19.0</ns3:atemp>
          </ns3:TrackPointExtension>
        </extensions>
      </trkpt>
      <trkpt lat="42.55089280195534229278564453125" lon="20.13245098292827606201171875">
        <ele>2040.5999755859375</ele>
        <time>2026-06-20T07:22:58.000Z</time>
        <extensions>
          <ns3:TrackPointExtension>
            <ns3:atemp>19.0</ns3:atemp>
          </ns3:TrackPointExtension>
        </extensions>
      </trkpt>
      <trkpt lat="42.55091224797070026397705078125" lon="20.13243363238871097564697265625">
        <ele>2040.5999755859375</ele>
        <time>2026-06-20T07:22:59.000Z</time>
        <extensions>
          <ns3:TrackPointExtension>
            <ns3:atemp>19.0</ns3:atemp>
          </ns3:TrackPointExtension>
        </extensions>
      </trkpt>
      <trkpt lat="42.55093169398605823516845703125" lon="20.1324181258678436279296875">
        <ele>2041</ele>
        <time>2026-06-20T07:23:00.000Z</time>
        <extensions>
          <ns3:TrackPointExtension>
            <ns3:atemp>19.0</ns3:atemp>
          </ns3:TrackPointExtension>
        </extensions>
      </trkpt>
      <trkpt lat="42.5509502179920673370361328125" lon="20.132400356233119964599609375">
        <ele>2041.199951171875</ele>
        <time>2026-06-20T07:23:01.000Z</time>
        <extensions>
          <ns3:TrackPointExtension>
            <ns3:atemp>19.0</ns3:atemp>
          </ns3:TrackPointExtension>
        </extensions>
      </trkpt>
      <trkpt lat="42.5509683229029178619384765625" lon="20.13238132931292057037353515625">
        <ele>2041.4000244140625</ele>
        <time>2026-06-20T07:23:02.000Z</time>
        <extensions>
          <ns3:TrackPointExtension>
            <ns3:atemp>19.0</ns3:atemp>
          </ns3:TrackPointExtension>
        </extensions>
      </trkpt>
      <trkpt lat="42.55098768509924411773681640625" lon="20.13237143866717815399169921875">
        <ele>2041.5999755859375</ele>
        <time>2026-06-20T07:23:03.000Z</time>
        <extensions>
          <ns3:TrackPointExtension>
            <ns3:atemp>19.0</ns3:atemp>
          </ns3:TrackPointExtension>
        </extensions>
      </trkpt>
      <trkpt lat="42.55100813694298267364501953125" lon="20.13235844671726226806640625">
        <ele>2041.800048828125</ele>
        <time>2026-06-20T07:23:04.000Z</time>
        <extensions>
          <ns3:TrackPointExtension>
            <ns3:atemp>19.0</ns3:atemp>
          </ns3:TrackPointExtension>
        </extensions>
      </trkpt>
      <trkpt lat="42.551027834415435791015625" lon="20.13234461657702922821044921875">
        <ele>2042</ele>
        <time>2026-06-20T07:23:05.000Z</time>
        <extensions>
          <ns3:TrackPointExtension>
            <ns3:atemp>19.0</ns3:atemp>
          </ns3:TrackPointExtension>
        </extensions>
      </trkpt>
      <trkpt lat="42.5510440953075885772705078125" lon="20.13232684694230556488037109375">
        <ele>2042.4000244140625</ele>
        <time>2026-06-20T07:23:06.000Z</time>
        <extensions>
          <ns3:TrackPointExtension>
            <ns3:atemp>19.0</ns3:atemp>
          </ns3:TrackPointExtension>
        </extensions>
      </trkpt>
      <trkpt lat="42.55105960182845592498779296875" lon="20.13230614364147186279296875">
        <ele>2042.5999755859375</ele>
        <time>2026-06-20T07:23:07.000Z</time>
        <extensions>
          <ns3:TrackPointExtension>
            <ns3:atemp>19.0</ns3:atemp>
          </ns3:TrackPointExtension>
        </extensions>
      </trkpt>
      <trkpt lat="42.55107636563479900360107421875" lon="20.13229114003479480743408203125">
        <ele>2043</ele>
        <time>2026-06-20T07:23:08.000Z</time>
        <extensions>
          <ns3:TrackPointExtension>
            <ns3:atemp>19.0</ns3:atemp>
          </ns3:TrackPointExtension>
        </extensions>
      </trkpt>
      <trkpt lat="42.55109497345983982086181640625" lon="20.1322758011519908905029296875">
        <ele>2043.199951171875</ele>
        <time>2026-06-20T07:23:09.000Z</time>
        <extensions>
          <ns3:TrackPointExtension>
            <ns3:atemp>19.0</ns3:atemp>
          </ns3:TrackPointExtension>
        </extensions>
      </trkpt>
      <trkpt lat="42.55111425183713436126708984375" lon="20.13225593604147434234619140625">
        <ele>2043.5999755859375</ele>
        <time>2026-06-20T07:23:10.000Z</time>
        <extensions>
          <ns3:TrackPointExtension>
            <ns3:atemp>19.0</ns3:atemp>
          </ns3:TrackPointExtension>
        </extensions>
      </trkpt>
      <trkpt lat="42.5511309318244457244873046875" lon="20.13223799876868724822998046875">
        <ele>2043.800048828125</ele>
        <time>2026-06-20T07:23:11.000Z</time>
        <extensions>
          <ns3:TrackPointExtension>
            <ns3:atemp>19.0</ns3:atemp>
          </ns3:TrackPointExtension>
        </extensions>
      </trkpt>
      <trkpt lat="42.55115096457302570343017578125" lon="20.13221754692494869232177734375">
        <ele>2044.199951171875</ele>
        <time>2026-06-20T07:23:12.000Z</time>
        <extensions>
          <ns3:TrackPointExtension>
            <ns3:atemp>19.0</ns3:atemp>
          </ns3:TrackPointExtension>
        </extensions>
      </trkpt>
      <trkpt lat="42.55117024295032024383544921875" lon="20.1322017051279544830322265625">
        <ele>2044.5999755859375</ele>
        <time>2026-06-20T07:23:13.000Z</time>
        <extensions>
          <ns3:TrackPointExtension>
            <ns3:atemp>19.0</ns3:atemp>
          </ns3:TrackPointExtension>
        </extensions>
      </trkpt>
      <trkpt lat="42.55118868313729763031005859375" lon="20.132186114788055419921875">
        <ele>2045</ele>
        <time>2026-06-20T07:23:14.000Z</time>
        <extensions>
          <ns3:TrackPointExtension>
            <ns3:atemp>19.0</ns3:atemp>
          </ns3:TrackPointExtension>
        </extensions>
      </trkpt>
      <trkpt lat="42.55120645277202129364013671875" lon="20.1321681775152683258056640625">
        <ele>2045.199951171875</ele>
        <time>2026-06-20T07:23:15.000Z</time>
        <extensions>
          <ns3:TrackPointExtension>
            <ns3:atemp>19.0</ns3:atemp>
          </ns3:TrackPointExtension>
        </extensions>
      </trkpt>
      <trkpt lat="42.55122371949255466461181640625" lon="20.13215325772762298583984375">
        <ele>2045.5999755859375</ele>
        <time>2026-06-20T07:23:16.000Z</time>
        <extensions>
          <ns3:TrackPointExtension>
            <ns3:atemp>19.0</ns3:atemp>
          </ns3:TrackPointExtension>
        </extensions>
      </trkpt>
      <trkpt lat="42.55124308168888092041015625" lon="20.13213221915066242218017578125">
        <ele>2046.199951171875</ele>
        <time>2026-06-20T07:23:17.000Z</time>
        <extensions>
          <ns3:TrackPointExtension>
            <ns3:atemp>19.0</ns3:atemp>
          </ns3:TrackPointExtension>
        </extensions>
      </trkpt>
      <trkpt lat="42.5512606836855411529541015625" lon="20.1321096718311309814453125">
        <ele>2046.5999755859375</ele>
        <time>2026-06-20T07:23:18.000Z</time>
        <extensions>
          <ns3:TrackPointExtension>
            <ns3:atemp>19.0</ns3:atemp>
          </ns3:TrackPointExtension>
        </extensions>
      </trkpt>
      <trkpt lat="42.55127652548253536224365234375" lon="20.132087878882884979248046875">
        <ele>2047</ele>
        <time>2026-06-20T07:23:19.000Z</time>
        <extensions>
          <ns3:TrackPointExtension>
            <ns3:atemp>19.0</ns3:atemp>
          </ns3:TrackPointExtension>
        </extensions>
      </trkpt>
      <trkpt lat="42.5512925349175930023193359375" lon="20.1320662535727024078369140625">
        <ele>2047.4000244140625</ele>
        <time>2026-06-20T07:23:20.000Z</time>
        <extensions>
          <ns3:TrackPointExtension>
            <ns3:atemp>19.0</ns3:atemp>
          </ns3:TrackPointExtension>
        </extensions>
      </trkpt>
      <trkpt lat="42.55131072364747524261474609375" lon="20.132051669061183929443359375">
        <ele>2047.5999755859375</ele>
        <time>2026-06-20T07:23:21.000Z</time>
        <extensions>
          <ns3:TrackPointExtension>
            <ns3:atemp>19.0</ns3:atemp>
          </ns3:TrackPointExtension>
        </extensions>
      </trkpt>
      <trkpt lat="42.551333270967006683349609375" lon="20.13204102404415607452392578125">
        <ele>2047.800048828125</ele>
        <time>2026-06-20T07:23:22.000Z</time>
        <extensions>
          <ns3:TrackPointExtension>
            <ns3:atemp>19.0</ns3:atemp>
          </ns3:TrackPointExtension>
        </extensions>
      </trkpt>
      <trkpt lat="42.5513542257249355316162109375" lon="20.13202660717070102691650390625">
        <ele>2048.199951171875</ele>
        <time>2026-06-20T07:23:23.000Z</time>
        <extensions>
          <ns3:TrackPointExtension>
            <ns3:atemp>19.0</ns3:atemp>
          </ns3:TrackPointExtension>
        </extensions>
      </trkpt>
      <trkpt lat="42.55137182772159576416015625" lon="20.13200447894632816314697265625">
        <ele>2048.60009765625</ele>
        <time>2026-06-20T07:23:24.000Z</time>
        <extensions>
          <ns3:TrackPointExtension>
            <ns3:atemp>19.0</ns3:atemp>
          </ns3:TrackPointExtension>
        </extensions>
      </trkpt>
      <trkpt lat="42.5513894297182559967041015625" lon="20.13198235072195529937744140625">
        <ele>2048.800048828125</ele>
        <time>2026-06-20T07:23:25.000Z</time>
        <extensions>
          <ns3:TrackPointExtension>
            <ns3:atemp>19.0</ns3:atemp>
          </ns3:TrackPointExtension>
        </extensions>
      </trkpt>
      <trkpt lat="42.55140795372426509857177734375" lon="20.131963156163692474365234375">
        <ele>2049.199951171875</ele>
        <time>2026-06-20T07:23:26.000Z</time>
        <extensions>
          <ns3:TrackPointExtension>
            <ns3:atemp>20.0</ns3:atemp>
          </ns3:TrackPointExtension>
        </extensions>
      </trkpt>
      <trkpt lat="42.5514256395399570465087890625" lon="20.13194396160542964935302734375">
        <ele>2049.60009765625</ele>
        <time>2026-06-20T07:23:27.000Z</time>
        <extensions>
          <ns3:TrackPointExtension>
            <ns3:atemp>19.0</ns3:atemp>
          </ns3:TrackPointExtension>
        </extensions>
      </trkpt>
      <trkpt lat="42.55144299007952213287353515625" lon="20.13193524442613124847412109375">
        <ele>2050</ele>
        <time>2026-06-20T07:23:28.000Z</time>
        <extensions>
          <ns3:TrackPointExtension>
            <ns3:atemp>19.0</ns3:atemp>
          </ns3:TrackPointExtension>
        </extensions>
      </trkpt>
      <trkpt lat="42.5514641962945461273193359375" lon="20.1319324783980846405029296875">
        <ele>2050.39990234375</ele>
        <time>2026-06-20T07:23:29.000Z</time>
        <extensions>
          <ns3:TrackPointExtension>
            <ns3:atemp>19.0</ns3:atemp>
          </ns3:TrackPointExtension>
        </extensions>
      </trkpt>
      <trkpt lat="42.55148372612893581390380859375" lon="20.13193675316870212554931640625">
        <ele>2050.60009765625</ele>
        <time>2026-06-20T07:23:30.000Z</time>
        <extensions>
          <ns3:TrackPointExtension>
            <ns3:atemp>19.0</ns3:atemp>
          </ns3:TrackPointExtension>
        </extensions>
      </trkpt>
      <trkpt lat="42.55149730481207370758056640625" lon="20.13195854611694812774658203125">
        <ele>2051</ele>
        <time>2026-06-20T07:23:31.000Z</time>
        <extensions>
          <ns3:TrackPointExtension>
            <ns3:atemp>19.0</ns3:atemp>
          </ns3:TrackPointExtension>
        </extensions>
      </trkpt>
      <trkpt lat="42.55149981938302516937255859375" lon="20.1319837756454944610595703125">
        <ele>2051.39990234375</ele>
        <time>2026-06-20T07:23:32.000Z</time>
        <extensions>
          <ns3:TrackPointExtension>
            <ns3:atemp>19.0</ns3:atemp>
          </ns3:TrackPointExtension>
        </extensions>
      </trkpt>
      <trkpt lat="42.55149847827851772308349609375" lon="20.13200347311794757843017578125">
        <ele>2052</ele>
        <time>2026-06-20T07:23:33.000Z</time>
        <extensions>
          <ns3:TrackPointExtension>
            <ns3:atemp>19.0</ns3:atemp>
          </ns3:TrackPointExtension>
        </extensions>
      </trkpt>
      <trkpt lat="42.55149009637534618377685546875" lon="20.132019817829132080078125">
        <ele>2052.39990234375</ele>
        <time>2026-06-20T07:23:34.000Z</time>
        <extensions>
          <ns3:TrackPointExtension>
            <ns3:atemp>19.0</ns3:atemp>
          </ns3:TrackPointExtension>
        </extensions>
      </trkpt>
      <trkpt lat="42.55148112773895263671875" lon="20.13203918002545833587646484375">
        <ele>2052.800048828125</ele>
        <time>2026-06-20T07:23:35.000Z</time>
        <extensions>
          <ns3:TrackPointExtension>
            <ns3:atemp>19.0</ns3:atemp>
          </ns3:TrackPointExtension>
        </extensions>
      </trkpt>
      <trkpt lat="42.5514725781977176666259765625" lon="20.1320686005055904388427734375">
        <ele>2053</ele>
        <time>2026-06-20T07:23:36.000Z</time>
        <extensions>
          <ns3:TrackPointExtension>
            <ns3:atemp>19.0</ns3:atemp>
          </ns3:TrackPointExtension>
        </extensions>
      </trkpt>
      <trkpt lat="42.55145858041942119598388671875" lon="20.1320920698344707489013671875">
        <ele>2053.39990234375</ele>
        <time>2026-06-20T07:23:37.000Z</time>
        <extensions>
          <ns3:TrackPointExtension>
            <ns3:atemp>19.0</ns3:atemp>
          </ns3:TrackPointExtension>
        </extensions>
      </trkpt>
      <trkpt lat="42.55144433118402957916259765625" lon="20.1321138627827167510986328125">
        <ele>2053.800048828125</ele>
        <time>2026-06-20T07:23:38.000Z</time>
        <extensions>
          <ns3:TrackPointExtension>
            <ns3:atemp>19.0</ns3:atemp>
          </ns3:TrackPointExtension>
        </extensions>
      </trkpt>
      <trkpt lat="42.55142890848219394683837890625" lon="20.13213448226451873779296875">
        <ele>2054.199951171875</ele>
        <time>2026-06-20T07:23:39.000Z</time>
        <extensions>
          <ns3:TrackPointExtension>
            <ns3:atemp>19.0</ns3:atemp>
          </ns3:TrackPointExtension>
        </extensions>
      </trkpt>
      <trkpt lat="42.55142354406416416168212890625" lon="20.13216004706919193267822265625">
        <ele>2054.60009765625</ele>
        <time>2026-06-20T07:23:40.000Z</time>
        <extensions>
          <ns3:TrackPointExtension>
            <ns3:atemp>20.0</ns3:atemp>
          </ns3:TrackPointExtension>
        </extensions>
      </trkpt>
      <trkpt lat="42.55142052657902240753173828125" lon="20.1321882940828800201416015625">
        <ele>2055</ele>
        <time>2026-06-20T07:23:41.000Z</time>
        <extensions>
          <ns3:TrackPointExtension>
            <ns3:atemp>19.0</ns3:atemp>
          </ns3:TrackPointExtension>
        </extensions>
      </trkpt>
      <trkpt lat="42.55141633562743663787841796875" lon="20.132216624915599822998046875">
        <ele>2055.199951171875</ele>
        <time>2026-06-20T07:23:42.000Z</time>
        <extensions>
          <ns3:TrackPointExtension>
            <ns3:atemp>19.0</ns3:atemp>
          </ns3:TrackPointExtension>
        </extensions>
      </trkpt>
      <trkpt lat="42.5514102168381214141845703125" lon="20.13224168680608272552490234375">
        <ele>2055.60009765625</ele>
        <time>2026-06-20T07:23:43.000Z</time>
        <extensions>
          <ns3:TrackPointExtension>
            <ns3:atemp>19.0</ns3:atemp>
          </ns3:TrackPointExtension>
        </extensions>
      </trkpt>
      <trkpt lat="42.55139923654496669769287109375" lon="20.1322660781443119049072265625">
        <ele>2056</ele>
        <time>2026-06-20T07:23:44.000Z</time>
        <extensions>
          <ns3:TrackPointExtension>
            <ns3:atemp>20.0</ns3:atemp>
          </ns3:TrackPointExtension>
        </extensions>
      </trkpt>
      <trkpt lat="42.55138683132827281951904296875" lon="20.132288374006748199462890625">
        <ele>2056.199951171875</ele>
        <time>2026-06-20T07:23:45.000Z</time>
        <extensions>
          <ns3:TrackPointExtension>
            <ns3:atemp>20.0</ns3:atemp>
          </ns3:TrackPointExtension>
        </extensions>
      </trkpt>
      <trkpt lat="42.55138079635798931121826171875" lon="20.13231662102043628692626953125">
        <ele>2056.60009765625</ele>
        <time>2026-06-20T07:23:46.000Z</time>
        <extensions>
          <ns3:TrackPointExtension>
            <ns3:atemp>19.0</ns3:atemp>
          </ns3:TrackPointExtension>
        </extensions>
      </trkpt>
      <trkpt lat="42.55137040279805660247802734375" lon="20.132347047328948974609375">
        <ele>2057</ele>
        <time>2026-06-20T07:23:47.000Z</time>
        <extensions>
          <ns3:TrackPointExtension>
            <ns3:atemp>19.0</ns3:atemp>
          </ns3:TrackPointExtension>
        </extensions>
      </trkpt>
      <trkpt lat="42.55135883577167987823486328125" lon="20.13237663544714450836181640625">
        <ele>2057</ele>
        <time>2026-06-20T07:23:48.000Z</time>
        <extensions>
          <ns3:TrackPointExtension>
            <ns3:atemp>19.0</ns3:atemp>
          </ns3:TrackPointExtension>
        </extensions>
      </trkpt>
      <trkpt lat="42.55135145969688892364501953125" lon="20.13240806758403778076171875">
        <ele>2057.199951171875</ele>
        <time>2026-06-20T07:23:49.000Z</time>
        <extensions>
          <ns3:TrackPointExtension>
            <ns3:atemp>19.0</ns3:atemp>
          </ns3:TrackPointExtension>
        </extensions>
      </trkpt>
      <trkpt lat="42.55134291015565395355224609375" lon="20.1324394159018993377685546875">
        <ele>2057.60009765625</ele>
        <time>2026-06-20T07:23:50.000Z</time>
        <extensions>
          <ns3:TrackPointExtension>
            <ns3:atemp>20.0</ns3:atemp>
          </ns3:TrackPointExtension>
        </extensions>
      </trkpt>
      <trkpt lat="42.5513347797095775604248046875" lon="20.13247068040072917938232421875">
        <ele>2057.800048828125</ele>
        <time>2026-06-20T07:23:51.000Z</time>
        <extensions>
          <ns3:TrackPointExtension>
            <ns3:atemp>20.0</ns3:atemp>
          </ns3:TrackPointExtension>
        </extensions>
      </trkpt>
      <trkpt lat="42.5513242185115814208984375" lon="20.13249926269054412841796875">
        <ele>2058</ele>
        <time>2026-06-20T07:23:52.000Z</time>
        <extensions>
          <ns3:TrackPointExtension>
            <ns3:atemp>20.0</ns3:atemp>
          </ns3:TrackPointExtension>
        </extensions>
      </trkpt>
      <trkpt lat="42.551312483847141265869140625" lon="20.13252935372292995452880859375">
        <ele>2058.39990234375</ele>
        <time>2026-06-20T07:23:53.000Z</time>
        <extensions>
          <ns3:TrackPointExtension>
            <ns3:atemp>20.0</ns3:atemp>
          </ns3:TrackPointExtension>
        </extensions>
      </trkpt>
      <trkpt lat="42.55130049772560596466064453125" lon="20.13255961239337921142578125">
        <ele>2058.60009765625</ele>
        <time>2026-06-20T07:23:54.000Z</time>
        <extensions>
          <ns3:TrackPointExtension>
            <ns3:atemp>20.0</ns3:atemp>
          </ns3:TrackPointExtension>
        </extensions>
      </trkpt>
      <trkpt lat="42.55128909833729267120361328125" lon="20.132590122520923614501953125">
        <ele>2059</ele>
        <time>2026-06-20T07:23:55.000Z</time>
        <extensions>
          <ns3:TrackPointExtension>
            <ns3:atemp>20.0</ns3:atemp>
          </ns3:TrackPointExtension>
        </extensions>
      </trkpt>
      <trkpt lat="42.5512811355292797088623046875" lon="20.132620297372341156005859375">
        <ele>2059.199951171875</ele>
        <time>2026-06-20T07:23:56.000Z</time>
        <extensions>
          <ns3:TrackPointExtension>
            <ns3:atemp>20.0</ns3:atemp>
          </ns3:TrackPointExtension>
        </extensions>
      </trkpt>
      <trkpt lat="42.551275603473186492919921875" lon="20.1326487958431243896484375">
        <ele>2059.60009765625</ele>
        <time>2026-06-20T07:23:57.000Z</time>
        <extensions>
          <ns3:TrackPointExtension>
            <ns3:atemp>20.0</ns3:atemp>
          </ns3:TrackPointExtension>
        </extensions>
      </trkpt>
      <trkpt lat="42.5512677244842052459716796875" lon="20.13267519883811473846435546875">
        <ele>2059.800048828125</ele>
        <time>2026-06-20T07:23:58.000Z</time>
        <extensions>
          <ns3:TrackPointExtension>
            <ns3:atemp>20.0</ns3:atemp>
          </ns3:TrackPointExtension>
        </extensions>
      </trkpt>
      <trkpt lat="42.55125775001943111419677734375" lon="20.13269581831991672515869140625">
        <ele>2060.199951171875</ele>
        <time>2026-06-20T07:23:59.000Z</time>
        <extensions>
          <ns3:TrackPointExtension>
            <ns3:atemp>20.0</ns3:atemp>
          </ns3:TrackPointExtension>
        </extensions>
      </trkpt>
      <trkpt lat="42.5512489490211009979248046875" lon="20.1327183656394481658935546875">
        <ele>2060.60009765625</ele>
        <time>2026-06-20T07:24:00.000Z</time>
        <extensions>
          <ns3:TrackPointExtension>
            <ns3:atemp>20.0</ns3:atemp>
          </ns3:TrackPointExtension>
        </extensions>
      </trkpt>
      <trkpt lat="42.5512412376701831817626953125" lon="20.1327435113489627838134765625">
        <ele>2060.800048828125</ele>
        <time>2026-06-20T07:24:01.000Z</time>
        <extensions>
          <ns3:TrackPointExtension>
            <ns3:atemp>20.0</ns3:atemp>
          </ns3:TrackPointExtension>
        </extensions>
      </trkpt>
      <trkpt lat="42.5512330234050750732421875" lon="20.13276882469654083251953125">
        <ele>2061</ele>
        <time>2026-06-20T07:24:02.000Z</time>
        <extensions>
          <ns3:TrackPointExtension>
            <ns3:atemp>20.0</ns3:atemp>
          </ns3:TrackPointExtension>
        </extensions>
      </trkpt>
      <trkpt lat="42.55122296512126922607421875" lon="20.132789947092533111572265625">
        <ele>2061.39990234375</ele>
        <time>2026-06-20T07:24:03.000Z</time>
        <extensions>
          <ns3:TrackPointExtension>
            <ns3:atemp>20.0</ns3:atemp>
          </ns3:TrackPointExtension>
        </extensions>
      </trkpt>
      <trkpt lat="42.5512160919606685638427734375" lon="20.1328179426491260528564453125">
        <ele>2061.60009765625</ele>
        <time>2026-06-20T07:24:04.000Z</time>
        <extensions>
          <ns3:TrackPointExtension>
            <ns3:atemp>20.0</ns3:atemp>
          </ns3:TrackPointExtension>
        </extensions>
      </trkpt>
      <trkpt lat="42.55120829679071903228759765625" lon="20.13284250162541866302490234375">
        <ele>2061.800048828125</ele>
        <time>2026-06-20T07:24:05.000Z</time>
        <extensions>
          <ns3:TrackPointExtension>
            <ns3:atemp>20.0</ns3:atemp>
          </ns3:TrackPointExtension>
        </extensions>
      </trkpt>
      <trkpt lat="42.55120175890624523162841796875" lon="20.13286932371556758880615234375">
        <ele>2062</ele>
        <time>2026-06-20T07:24:06.000Z</time>
        <extensions>
          <ns3:TrackPointExtension>
            <ns3:atemp>19.0</ns3:atemp>
          </ns3:TrackPointExtension>
        </extensions>
      </trkpt>
      <trkpt lat="42.55119337700307369232177734375" lon="20.13289622962474822998046875">
        <ele>2062.199951171875</ele>
        <time>2026-06-20T07:24:07.000Z</time>
        <extensions>
          <ns3:TrackPointExtension>
            <ns3:atemp>19.0</ns3:atemp>
          </ns3:TrackPointExtension>
        </extensions>
      </trkpt>
      <trkpt lat="42.55118298344314098358154296875" lon="20.1329235546290874481201171875">
        <ele>2062.39990234375</ele>
        <time>2026-06-20T07:24:08.000Z</time>
        <extensions>
          <ns3:TrackPointExtension>
            <ns3:atemp>19.0</ns3:atemp>
          </ns3:TrackPointExtension>
        </extensions>
      </trkpt>
      <trkpt lat="42.55117560736835002899169921875" lon="20.13295113109052181243896484375">
        <ele>2062.60009765625</ele>
        <time>2026-06-20T07:24:09.000Z</time>
        <extensions>
          <ns3:TrackPointExtension>
            <ns3:atemp>20.0</ns3:atemp>
          </ns3:TrackPointExtension>
        </extensions>
      </trkpt>
      <trkpt lat="42.551169656217098236083984375" lon="20.13297535479068756103515625">
        <ele>2063</ele>
        <time>2026-06-20T07:24:10.000Z</time>
        <extensions>
          <ns3:TrackPointExtension>
            <ns3:atemp>20.0</ns3:atemp>
          </ns3:TrackPointExtension>
        </extensions>
      </trkpt>
      <trkpt lat="42.55116420798003673553466796875" lon="20.13299974612891674041748046875">
        <ele>2063.39990234375</ele>
        <time>2026-06-20T07:24:11.000Z</time>
        <extensions>
          <ns3:TrackPointExtension>
            <ns3:atemp>20.0</ns3:atemp>
          </ns3:TrackPointExtension>
        </extensions>
      </trkpt>
      <trkpt lat="42.5511584244668483734130859375" lon="20.133027322590351104736328125">
        <ele>2063.60009765625</ele>
        <time>2026-06-20T07:24:12.000Z</time>
        <extensions>
          <ns3:TrackPointExtension>
            <ns3:atemp>19.0</ns3:atemp>
          </ns3:TrackPointExtension>
        </extensions>
      </trkpt>
      <trkpt lat="42.551153562963008880615234375" lon="20.13305590488016605377197265625">
        <ele>2063.800048828125</ele>
        <time>2026-06-20T07:24:13.000Z</time>
        <extensions>
          <ns3:TrackPointExtension>
            <ns3:atemp>20.0</ns3:atemp>
          </ns3:TrackPointExtension>
        </extensions>
      </trkpt>
      <trkpt lat="42.55114744417369365692138671875" lon="20.1330895163118839263916015625">
        <ele>2064.199951171875</ele>
        <time>2026-06-20T07:24:14.000Z</time>
        <extensions>
          <ns3:TrackPointExtension>
            <ns3:atemp>20.0</ns3:atemp>
          </ns3:TrackPointExtension>
        </extensions>
      </trkpt>
      <trkpt lat="42.551141493022441864013671875" lon="20.13311684131622314453125">
        <ele>2064.39990234375</ele>
        <time>2026-06-20T07:24:15.000Z</time>
        <extensions>
          <ns3:TrackPointExtension>
            <ns3:atemp>20.0</ns3:atemp>
          </ns3:TrackPointExtension>
        </extensions>
      </trkpt>
      <trkpt lat="42.55113302730023860931396484375" lon="20.13314793817698955535888671875">
        <ele>2064.39990234375</ele>
        <time>2026-06-20T07:24:16.000Z</time>
        <extensions>
          <ns3:TrackPointExtension>
            <ns3:atemp>19.0</ns3:atemp>
          </ns3:TrackPointExtension>
        </extensions>
      </trkpt>
      <trkpt lat="42.55112112499773502349853515625" lon="20.13318615965545177459716796875">
        <ele>2064.39990234375</ele>
        <time>2026-06-20T07:24:17.000Z</time>
        <extensions>
          <ns3:TrackPointExtension>
            <ns3:atemp>20.0</ns3:atemp>
          </ns3:TrackPointExtension>
        </extensions>
      </trkpt>
      <trkpt lat="42.5511128269135951995849609375" lon="20.13322505168616771697998046875">
        <ele>2064.60009765625</ele>
        <time>2026-06-20T07:24:18.000Z</time>
        <extensions>
          <ns3:TrackPointExtension>
            <ns3:atemp>20.0</ns3:atemp>
          </ns3:TrackPointExtension>
        </extensions>
      </trkpt>
      <trkpt lat="42.551103942096233367919921875" lon="20.13326729647815227508544921875">
        <ele>2064.60009765625</ele>
        <time>2026-06-20T07:24:19.000Z</time>
        <extensions>
          <ns3:TrackPointExtension>
            <ns3:atemp>20.0</ns3:atemp>
          </ns3:TrackPointExtension>
        </extensions>
      </trkpt>
      <trkpt lat="42.5510974042117595672607421875" lon="20.13331004418432712554931640625">
        <ele>2064.60009765625</ele>
        <time>2026-06-20T07:24:20.000Z</time>
        <extensions>
          <ns3:TrackPointExtension>
            <ns3:atemp>20.0</ns3:atemp>
          </ns3:TrackPointExtension>
        </extensions>
      </trkpt>
      <trkpt lat="42.55110251717269420623779296875" lon="20.1333483494818210601806640625">
        <ele>2064.60009765625</ele>
        <time>2026-06-20T07:24:21.000Z</time>
        <extensions>
          <ns3:TrackPointExtension>
            <ns3:atemp>19.0</ns3:atemp>
          </ns3:TrackPointExtension>
        </extensions>
      </trkpt>
      <trkpt lat="42.55111358128488063812255859375" lon="20.13338581658899784088134765625">
        <ele>2064.60009765625</ele>
        <time>2026-06-20T07:24:22.000Z</time>
        <extensions>
          <ns3:TrackPointExtension>
            <ns3:atemp>19.0</ns3:atemp>
          </ns3:TrackPointExtension>
        </extensions>
      </trkpt>
      <trkpt lat="42.55112682469189167022705078125" lon="20.13342353515326976776123046875">
        <ele>2064.60009765625</ele>
        <time>2026-06-20T07:24:23.000Z</time>
        <extensions>
          <ns3:TrackPointExtension>
            <ns3:atemp>19.0</ns3:atemp>
          </ns3:TrackPointExtension>
        </extensions>
      </trkpt>
      <trkpt lat="42.5511399842798709869384765625" lon="20.13345555402338504791259765625">
        <ele>2064.60009765625</ele>
        <time>2026-06-20T07:24:24.000Z</time>
        <extensions>
          <ns3:TrackPointExtension>
            <ns3:atemp>19.0</ns3:atemp>
          </ns3:TrackPointExtension>
        </extensions>
      </trkpt>
      <trkpt lat="42.55115314386785030364990234375" lon="20.13348137028515338897705078125">
        <ele>2064.800048828125</ele>
        <time>2026-06-20T07:24:25.000Z</time>
        <extensions>
          <ns3:TrackPointExtension>
            <ns3:atemp>19.0</ns3:atemp>
          </ns3:TrackPointExtension>
        </extensions>
      </trkpt>
      <trkpt lat="42.55116588436067104339599609375" lon="20.13350919820368289947509765625">
        <ele>2065</ele>
        <time>2026-06-20T07:24:26.000Z</time>
        <extensions>
          <ns3:TrackPointExtension>
            <ns3:atemp>19.0</ns3:atemp>
          </ns3:TrackPointExtension>
        </extensions>
      </trkpt>
      <trkpt lat="42.5511847436428070068359375" lon="20.13353954069316387176513671875">
        <ele>2065</ele>
        <time>2026-06-20T07:24:27.000Z</time>
        <extensions>
          <ns3:TrackPointExtension>
            <ns3:atemp>19.0</ns3:atemp>
          </ns3:TrackPointExtension>
        </extensions>
      </trkpt>
      <trkpt lat="42.55120561458170413970947265625" lon="20.13356971554458141326904296875">
        <ele>2065</ele>
        <time>2026-06-20T07:24:28.000Z</time>
        <extensions>
          <ns3:TrackPointExtension>
            <ns3:atemp>19.0</ns3:atemp>
          </ns3:TrackPointExtension>
        </extensions>
      </trkpt>
      <trkpt lat="42.55122053436934947967529296875" lon="20.1336011476814746856689453125">
        <ele>2065</ele>
        <time>2026-06-20T07:24:29.000Z</time>
        <extensions>
          <ns3:TrackPointExtension>
            <ns3:atemp>20.0</ns3:atemp>
          </ns3:TrackPointExtension>
        </extensions>
      </trkpt>
      <trkpt lat="42.5512211211025714874267578125" lon="20.13362956233322620391845703125">
        <ele>2065</ele>
        <time>2026-06-20T07:24:30.000Z</time>
        <extensions>
          <ns3:TrackPointExtension>
            <ns3:atemp>20.0</ns3:atemp>
          </ns3:TrackPointExtension>
        </extensions>
      </trkpt>
      <trkpt lat="42.55122288130223751068115234375" lon="20.1336546242237091064453125">
        <ele>2065</ele>
        <time>2026-06-20T07:24:31.000Z</time>
        <extensions>
          <ns3:TrackPointExtension>
            <ns3:atemp>20.0</ns3:atemp>
          </ns3:TrackPointExtension>
        </extensions>
      </trkpt>
      <trkpt lat="42.55123235285282135009765625" lon="20.13365990482270717620849609375">
        <ele>2065</ele>
        <time>2026-06-20T07:24:32.000Z</time>
        <extensions>
          <ns3:TrackPointExtension>
            <ns3:atemp>19.0</ns3:atemp>
          </ns3:TrackPointExtension>
        </extensions>
      </trkpt>
      <trkpt lat="42.5512348674237728118896484375" lon="20.133660994470119476318359375">
        <ele>2065.199951171875</ele>
        <time>2026-06-20T07:24:33.000Z</time>
        <extensions>
          <ns3:TrackPointExtension>
            <ns3:atemp>20.0</ns3:atemp>
          </ns3:TrackPointExtension>
        </extensions>
      </trkpt>
      <trkpt lat="42.5512348674237728118896484375" lon="20.133660994470119476318359375">
        <ele>2065.199951171875</ele>
        <time>2026-06-20T07:24:34.000Z</time>
        <extensions>
          <ns3:TrackPointExtension>
            <ns3:atemp>20.0</ns3:atemp>
          </ns3:TrackPointExtension>
        </extensions>
      </trkpt>
      <trkpt lat="42.5512348674237728118896484375" lon="20.133660994470119476318359375">
        <ele>2065.199951171875</ele>
        <time>2026-06-20T07:24:35.000Z</time>
        <extensions>
          <ns3:TrackPointExtension>
            <ns3:atemp>19.0</ns3:atemp>
          </ns3:TrackPointExtension>
        </extensions>
      </trkpt>
      <trkpt lat="42.5512348674237728118896484375" lon="20.133660994470119476318359375">
        <ele>2065.199951171875</ele>
        <time>2026-06-20T07:24:36.000Z</time>
        <extensions>
          <ns3:TrackPointExtension>
            <ns3:atemp>19.0</ns3:atemp>
          </ns3:TrackPointExtension>
        </extensions>
      </trkpt>
      <trkpt lat="42.5512348674237728118896484375" lon="20.133660994470119476318359375">
        <ele>2065.199951171875</ele>
        <time>2026-06-20T07:24:37.000Z</time>
        <extensions>
          <ns3:TrackPointExtension>
            <ns3:atemp>19.0</ns3:atemp>
          </ns3:TrackPointExtension>
        </extensions>
      </trkpt>
      <trkpt lat="42.5512348674237728118896484375" lon="20.133660994470119476318359375">
        <ele>2065</ele>
        <time>2026-06-20T07:24:38.000Z</time>
        <extensions>
          <ns3:TrackPointExtension>
            <ns3:atemp>20.0</ns3:atemp>
          </ns3:TrackPointExtension>
        </extensions>
      </trkpt>
      <trkpt lat="42.5512348674237728118896484375" lon="20.133660994470119476318359375">
        <ele>2064.800048828125</ele>
        <time>2026-06-20T07:24:39.000Z</time>
        <extensions>
          <ns3:TrackPointExtension>
            <ns3:atemp>20.0</ns3:atemp>
          </ns3:TrackPointExtension>
        </extensions>
      </trkpt>
      <trkpt lat="42.5512348674237728118896484375" lon="20.133660994470119476318359375">
        <ele>2064.800048828125</ele>
        <time>2026-06-20T07:24:40.000Z</time>
        <extensions>
          <ns3:TrackPointExtension>
            <ns3:atemp>19.0</ns3:atemp>
          </ns3:TrackPointExtension>
        </extensions>
      </trkpt>
      <trkpt lat="42.5512348674237728118896484375" lon="20.133660994470119476318359375">
        <ele>2064.60009765625</ele>
        <time>2026-06-20T07:24:41.000Z</time>
        <extensions>
          <ns3:TrackPointExtension>
            <ns3:atemp>19.0</ns3:atemp>
          </ns3:TrackPointExtension>
        </extensions>
      </trkpt>
      <trkpt lat="42.5512348674237728118896484375" lon="20.133660994470119476318359375">
        <ele>2064.60009765625</ele>
        <time>2026-06-20T07:24:42.000Z</time>
        <extensions>
          <ns3:TrackPointExtension>
            <ns3:atemp>19.0</ns3:atemp>
          </ns3:TrackPointExtension>
        </extensions>
      </trkpt>
      <trkpt lat="42.5512348674237728118896484375" lon="20.133660994470119476318359375">
        <ele>2064.60009765625</ele>
        <time>2026-06-20T07:24:43.000Z</time>
        <extensions>
          <ns3:TrackPointExtension>
            <ns3:atemp>19.0</ns3:atemp>
          </ns3:TrackPointExtension>
        </extensions>
      </trkpt>
      <trkpt lat="42.5512348674237728118896484375" lon="20.133660994470119476318359375">
        <ele>2064.60009765625</ele>
        <time>2026-06-20T07:24:44.000Z</time>
        <extensions>
          <ns3:TrackPointExtension>
            <ns3:atemp>19.0</ns3:atemp>
          </ns3:TrackPointExtension>
        </extensions>
      </trkpt>
      <trkpt lat="42.5512348674237728118896484375" lon="20.133660994470119476318359375">
        <ele>2064.39990234375</ele>
        <time>2026-06-20T07:24:45.000Z</time>
        <extensions>
          <ns3:TrackPointExtension>
            <ns3:atemp>19.0</ns3:atemp>
          </ns3:TrackPointExtension>
        </extensions>
      </trkpt>
      <trkpt lat="42.5512348674237728118896484375" lon="20.133660994470119476318359375">
        <ele>2064.39990234375</ele>
        <time>2026-06-20T07:24:46.000Z</time>
        <extensions>
          <ns3:TrackPointExtension>
            <ns3:atemp>19.0</ns3:atemp>
          </ns3:TrackPointExtension>
        </extensions>
      </trkpt>
      <trkpt lat="42.5512348674237728118896484375" lon="20.133660994470119476318359375">
        <ele>2064.39990234375</ele>
        <time>2026-06-20T07:24:47.000Z</time>
        <extensions>
          <ns3:TrackPointExtension>
            <ns3:atemp>20.0</ns3:atemp>
          </ns3:TrackPointExtension>
        </extensions>
      </trkpt>
      <trkpt lat="42.5512348674237728118896484375" lon="20.133660994470119476318359375">
        <ele>2064.39990234375</ele>
        <time>2026-06-20T07:24:48.000Z</time>
        <extensions>
          <ns3:TrackPointExtension>
            <ns3:atemp>19.0</ns3:atemp>
          </ns3:TrackPointExtension>
        </extensions>
      </trkpt>
      <trkpt lat="42.5512348674237728118896484375" lon="20.133660994470119476318359375">
        <ele>2064.39990234375</ele>
        <time>2026-06-20T07:24:49.000Z</time>
        <extensions>
          <ns3:TrackPointExtension>
            <ns3:atemp>19.0</ns3:atemp>
          </ns3:TrackPointExtension>
        </extensions>
      </trkpt>
      <trkpt lat="42.5512348674237728118896484375" lon="20.133660994470119476318359375">
        <ele>2064.39990234375</ele>
        <time>2026-06-20T07:24:50.000Z</time>
        <extensions>
          <ns3:TrackPointExtension>
            <ns3:atemp>19.0</ns3:atemp>
          </ns3:TrackPointExtension>
        </extensions>
      </trkpt>
      <trkpt lat="42.5512348674237728118896484375" lon="20.133660994470119476318359375">
        <ele>2064.199951171875</ele>
        <time>2026-06-20T07:24:51.000Z</time>
        <extensions>
          <ns3:TrackPointExtension>
            <ns3:atemp>19.0</ns3:atemp>
          </ns3:TrackPointExtension>
        </extensions>
      </trkpt>
      <trkpt lat="42.5512348674237728118896484375" lon="20.133660994470119476318359375">
        <ele>2064.199951171875</ele>
        <time>2026-06-20T07:24:52.000Z</time>
        <extensions>
          <ns3:TrackPointExtension>
            <ns3:atemp>19.0</ns3:atemp>
          </ns3:TrackPointExtension>
        </extensions>
      </trkpt>
      <trkpt lat="42.5512348674237728118896484375" lon="20.133660994470119476318359375">
        <ele>2064.199951171875</ele>
        <time>2026-06-20T07:24:53.000Z</time>
        <extensions>
          <ns3:TrackPointExtension>
            <ns3:atemp>19.0</ns3:atemp>
          </ns3:TrackPointExtension>
        </extensions>
      </trkpt>
      <trkpt lat="42.5512348674237728118896484375" lon="20.133660994470119476318359375">
        <ele>2064.199951171875</ele>
        <time>2026-06-20T07:24:54.000Z</time>
        <extensions>
          <ns3:TrackPointExtension>
            <ns3:atemp>19.0</ns3:atemp>
          </ns3:TrackPointExtension>
        </extensions>
      </trkpt>
      <trkpt lat="42.5512348674237728118896484375" lon="20.133660994470119476318359375">
        <ele>2064.199951171875</ele>
        <time>2026-06-20T07:24:55.000Z</time>
        <extensions>
          <ns3:TrackPointExtension>
            <ns3:atemp>19.0</ns3:atemp>
          </ns3:TrackPointExtension>
        </extensions>
      </trkpt>
      <trkpt lat="42.5512348674237728118896484375" lon="20.133660994470119476318359375">
        <ele>2064.199951171875</ele>
        <time>2026-06-20T07:24:56.000Z</time>
        <extensions>
          <ns3:TrackPointExtension>
            <ns3:atemp>19.0</ns3:atemp>
          </ns3:TrackPointExtension>
        </extensions>
      </trkpt>
      <trkpt lat="42.5512348674237728118896484375" lon="20.133660994470119476318359375">
        <ele>2064</ele>
        <time>2026-06-20T07:24:57.000Z</time>
        <extensions>
          <ns3:TrackPointExtension>
            <ns3:atemp>19.0</ns3:atemp>
          </ns3:TrackPointExtension>
        </extensions>
      </trkpt>
      <trkpt lat="42.5512348674237728118896484375" lon="20.133660994470119476318359375">
        <ele>2064</ele>
        <time>2026-06-20T07:24:58.000Z</time>
        <extensions>
          <ns3:TrackPointExtension>
            <ns3:atemp>19.0</ns3:atemp>
          </ns3:TrackPointExtension>
        </extensions>
      </trkpt>
      <trkpt lat="42.5512348674237728118896484375" lon="20.133660994470119476318359375">
        <ele>2064</ele>
        <time>2026-06-20T07:24:59.000Z</time>
        <extensions>
          <ns3:TrackPointExtension>
            <ns3:atemp>19.0</ns3:atemp>
          </ns3:TrackPointExtension>
        </extensions>
      </trkpt>
      <trkpt lat="42.5512348674237728118896484375" lon="20.133660994470119476318359375">
        <ele>2064</ele>
        <time>2026-06-20T07:25:00.000Z</time>
        <extensions>
          <ns3:TrackPointExtension>
            <ns3:atemp>19.0</ns3:atemp>
          </ns3:TrackPointExtension>
        </extensions>
      </trkpt>
      <trkpt lat="42.5512348674237728118896484375" lon="20.133660994470119476318359375">
        <ele>2064</ele>
        <time>2026-06-20T07:25:01.000Z</time>
        <extensions>
          <ns3:TrackPointExtension>
            <ns3:atemp>19.0</ns3:atemp>
          </ns3:TrackPointExtension>
        </extensions>
      </trkpt>
      <trkpt lat="42.5512348674237728118896484375" lon="20.133660994470119476318359375">
        <ele>2064.199951171875</ele>
        <time>2026-06-20T07:25:02.000Z</time>
        <extensions>
          <ns3:TrackPointExtension>
            <ns3:atemp>19.0</ns3:atemp>
          </ns3:TrackPointExtension>
        </extensions>
      </trkpt>
      <trkpt lat="42.5512348674237728118896484375" lon="20.133660994470119476318359375">
        <ele>2064.199951171875</ele>
        <time>2026-06-20T07:25:03.000Z</time>
        <extensions>
          <ns3:TrackPointExtension>
            <ns3:atemp>19.0</ns3:atemp>
          </ns3:TrackPointExtension>
        </extensions>
      </trkpt>
      <trkpt lat="42.5512348674237728118896484375" lon="20.133660994470119476318359375">
        <ele>2064.199951171875</ele>
        <time>2026-06-20T07:25:04.000Z</time>
        <extensions>
          <ns3:TrackPointExtension>
            <ns3:atemp>19.0</ns3:atemp>
          </ns3:TrackPointExtension>
        </extensions>
      </trkpt>
      <trkpt lat="42.5512348674237728118896484375" lon="20.133660994470119476318359375">
        <ele>2064.199951171875</ele>
        <time>2026-06-20T07:25:05.000Z</time>
        <extensions>
          <ns3:TrackPointExtension>
            <ns3:atemp>19.0</ns3:atemp>
          </ns3:TrackPointExtension>
        </extensions>
      </trkpt>
      <trkpt lat="42.5512348674237728118896484375" lon="20.133660994470119476318359375">
        <ele>2064.199951171875</ele>
        <time>2026-06-20T07:25:06.000Z</time>
        <extensions>
          <ns3:TrackPointExtension>
            <ns3:atemp>19.0</ns3:atemp>
          </ns3:TrackPointExtension>
        </extensions>
      </trkpt>
      <trkpt lat="42.5512348674237728118896484375" lon="20.133660994470119476318359375">
        <ele>2064.199951171875</ele>
        <time>2026-06-20T07:25:07.000Z</time>
        <extensions>
          <ns3:TrackPointExtension>
            <ns3:atemp>19.0</ns3:atemp>
          </ns3:TrackPointExtension>
        </extensions>
      </trkpt>
      <trkpt lat="42.5512348674237728118896484375" lon="20.133660994470119476318359375">
        <ele>2064.199951171875</ele>
        <time>2026-06-20T07:25:08.000Z</time>
        <extensions>
          <ns3:TrackPointExtension>
            <ns3:atemp>19.0</ns3:atemp>
          </ns3:TrackPointExtension>
        </extensions>
      </trkpt>
      <trkpt lat="42.5512348674237728118896484375" lon="20.133660994470119476318359375">
        <ele>2064.199951171875</ele>
        <time>2026-06-20T07:25:09.000Z</time>
        <extensions>
          <ns3:TrackPointExtension>
            <ns3:atemp>19.0</ns3:atemp>
          </ns3:TrackPointExtension>
        </extensions>
      </trkpt>
      <trkpt lat="42.5512348674237728118896484375" lon="20.133660994470119476318359375">
        <ele>2064.199951171875</ele>
        <time>2026-06-20T07:25:10.000Z</time>
        <extensions>
          <ns3:TrackPointExtension>
            <ns3:atemp>19.0</ns3:atemp>
          </ns3:TrackPointExtension>
        </extensions>
      </trkpt>
      <trkpt lat="42.5512348674237728118896484375" lon="20.133660994470119476318359375">
        <ele>2064.39990234375</ele>
        <time>2026-06-20T07:25:11.000Z</time>
        <extensions>
          <ns3:TrackPointExtension>
            <ns3:atemp>19.0</ns3:atemp>
          </ns3:TrackPointExtension>
        </extensions>
      </trkpt>
      <trkpt lat="42.5512348674237728118896484375" lon="20.133660994470119476318359375">
        <ele>2064.39990234375</ele>
        <time>2026-06-20T07:25:12.000Z</time>
        <extensions>
          <ns3:TrackPointExtension>
            <ns3:atemp>19.0</ns3:atemp>
          </ns3:TrackPointExtension>
        </extensions>
      </trkpt>
      <trkpt lat="42.5512348674237728118896484375" lon="20.133660994470119476318359375">
        <ele>2064.39990234375</ele>
        <time>2026-06-20T07:25:13.000Z</time>
        <extensions>
          <ns3:TrackPointExtension>
            <ns3:atemp>19.0</ns3:atemp>
          </ns3:TrackPointExtension>
        </extensions>
      </trkpt>
      <trkpt lat="42.5512348674237728118896484375" lon="20.133660994470119476318359375">
        <ele>2064.39990234375</ele>
        <time>2026-06-20T07:25:14.000Z</time>
        <extensions>
          <ns3:TrackPointExtension>
            <ns3:atemp>19.0</ns3:atemp>
          </ns3:TrackPointExtension>
        </extensions>
      </trkpt>
      <trkpt lat="42.5512348674237728118896484375" lon="20.133660994470119476318359375">
        <ele>2064.39990234375</ele>
        <time>2026-06-20T07:25:15.000Z</time>
        <extensions>
          <ns3:TrackPointExtension>
            <ns3:atemp>20.0</ns3:atemp>
          </ns3:TrackPointExtension>
        </extensions>
      </trkpt>
      <trkpt lat="42.5512348674237728118896484375" lon="20.133660994470119476318359375">
        <ele>2064.39990234375</ele>
        <time>2026-06-20T07:25:16.000Z</time>
        <extensions>
          <ns3:TrackPointExtension>
            <ns3:atemp>20.0</ns3:atemp>
          </ns3:TrackPointExtension>
        </extensions>
      </trkpt>
      <trkpt lat="42.5512348674237728118896484375" lon="20.133660994470119476318359375">
        <ele>2064.39990234375</ele>
        <time>2026-06-20T07:25:17.000Z</time>
        <extensions>
          <ns3:TrackPointExtension>
            <ns3:atemp>19.0</ns3:atemp>
          </ns3:TrackPointExtension>
        </extensions>
      </trkpt>
      <trkpt lat="42.5512348674237728118896484375" lon="20.133660994470119476318359375">
        <ele>2064.39990234375</ele>
        <time>2026-06-20T07:25:18.000Z</time>
        <extensions>
          <ns3:TrackPointExtension>
            <ns3:atemp>20.0</ns3:atemp>
          </ns3:TrackPointExtension>
        </extensions>
      </trkpt>
      <trkpt lat="42.5512348674237728118896484375" lon="20.133660994470119476318359375">
        <ele>2064.39990234375</ele>
        <time>2026-06-20T07:25:19.000Z</time>
        <extensions>
          <ns3:TrackPointExtension>
            <ns3:atemp>20.0</ns3:atemp>
          </ns3:TrackPointExtension>
        </extensions>
      </trkpt>
      <trkpt lat="42.5512348674237728118896484375" lon="20.133660994470119476318359375">
        <ele>2064.39990234375</ele>
        <time>2026-06-20T07:25:20.000Z</time>
        <extensions>
          <ns3:TrackPointExtension>
            <ns3:atemp>20.0</ns3:atemp>
          </ns3:TrackPointExtension>
        </extensions>
      </trkpt>
      <trkpt lat="42.5512348674237728118896484375" lon="20.133660994470119476318359375">
        <ele>2064.39990234375</ele>
        <time>2026-06-20T07:25:21.000Z</time>
        <extensions>
          <ns3:TrackPointExtension>
            <ns3:atemp>20.0</ns3:atemp>
          </ns3:TrackPointExtension>
        </extensions>
      </trkpt>
      <trkpt lat="42.5512348674237728118896484375" lon="20.133660994470119476318359375">
        <ele>2064.39990234375</ele>
        <time>2026-06-20T07:25:22.000Z</time>
        <extensions>
          <ns3:TrackPointExtension>
            <ns3:atemp>20.0</ns3:atemp>
          </ns3:TrackPointExtension>
        </extensions>
      </trkpt>
      <trkpt lat="42.5512348674237728118896484375" lon="20.133660994470119476318359375">
        <ele>2064.39990234375</ele>
        <time>2026-06-20T07:25:23.000Z</time>
        <extensions>
          <ns3:TrackPointExtension>
            <ns3:atemp>20.0</ns3:atemp>
          </ns3:TrackPointExtension>
        </extensions>
      </trkpt>
      <trkpt lat="42.5512348674237728118896484375" lon="20.133660994470119476318359375">
        <ele>2064.39990234375</ele>
        <time>2026-06-20T07:25:24.000Z</time>
        <extensions>
          <ns3:TrackPointExtension>
            <ns3:atemp>20.0</ns3:atemp>
          </ns3:TrackPointExtension>
        </extensions>
      </trkpt>
      <trkpt lat="42.5512348674237728118896484375" lon="20.133660994470119476318359375">
        <ele>2064.39990234375</ele>
        <time>2026-06-20T07:25:25.000Z</time>
        <extensions>
          <ns3:TrackPointExtension>
            <ns3:atemp>20.0</ns3:atemp>
          </ns3:TrackPointExtension>
        </extensions>
      </trkpt>
      <trkpt lat="42.5512348674237728118896484375" lon="20.133660994470119476318359375">
        <ele>2064.39990234375</ele>
        <time>2026-06-20T07:25:26.000Z</time>
        <extensions>
          <ns3:TrackPointExtension>
            <ns3:atemp>20.0</ns3:atemp>
          </ns3:TrackPointExtension>
        </extensions>
      </trkpt>
      <trkpt lat="42.5512348674237728118896484375" lon="20.133660994470119476318359375">
        <ele>2064.39990234375</ele>
        <time>2026-06-20T07:25:27.000Z</time>
        <extensions>
          <ns3:TrackPointExtension>
            <ns3:atemp>20.0</ns3:atemp>
          </ns3:TrackPointExtension>
        </extensions>
      </trkpt>
      <trkpt lat="42.5512348674237728118896484375" lon="20.133660994470119476318359375">
        <ele>2064.39990234375</ele>
        <time>2026-06-20T07:25:28.000Z</time>
        <extensions>
          <ns3:TrackPointExtension>
            <ns3:atemp>20.0</ns3:atemp>
          </ns3:TrackPointExtension>
        </extensions>
      </trkpt>
      <trkpt lat="42.5512348674237728118896484375" lon="20.133660994470119476318359375">
        <ele>2064.39990234375</ele>
        <time>2026-06-20T07:25:29.000Z</time>
        <extensions>
          <ns3:TrackPointExtension>
            <ns3:atemp>20.0</ns3:atemp>
          </ns3:TrackPointExtension>
        </extensions>
      </trkpt>
      <trkpt lat="42.5512348674237728118896484375" lon="20.133660994470119476318359375">
        <ele>2064.39990234375</ele>
        <time>2026-06-20T07:25:30.000Z</time>
        <extensions>
          <ns3:TrackPointExtension>
            <ns3:atemp>20.0</ns3:atemp>
          </ns3:TrackPointExtension>
        </extensions>
      </trkpt>
      <trkpt lat="42.5512348674237728118896484375" lon="20.133660994470119476318359375">
        <ele>2064.39990234375</ele>
        <time>2026-06-20T07:25:31.000Z</time>
        <extensions>
          <ns3:TrackPointExtension>
            <ns3:atemp>20.0</ns3:atemp>
          </ns3:TrackPointExtension>
        </extensions>
      </trkpt>
      <trkpt lat="42.5512348674237728118896484375" lon="20.133660994470119476318359375">
        <ele>2064.39990234375</ele>
        <time>2026-06-20T07:25:32.000Z</time>
        <extensions>
          <ns3:TrackPointExtension>
            <ns3:atemp>20.0</ns3:atemp>
          </ns3:TrackPointExtension>
        </extensions>
      </trkpt>
      <trkpt lat="42.5512348674237728118896484375" lon="20.133660994470119476318359375">
        <ele>2064.39990234375</ele>
        <time>2026-06-20T07:25:33.000Z</time>
        <extensions>
          <ns3:TrackPointExtension>
            <ns3:atemp>20.0</ns3:atemp>
          </ns3:TrackPointExtension>
        </extensions>
      </trkpt>
      <trkpt lat="42.5512348674237728118896484375" lon="20.133660994470119476318359375">
        <ele>2064.39990234375</ele>
        <time>2026-06-20T07:25:34.000Z</time>
        <extensions>
          <ns3:TrackPointExtension>
            <ns3:atemp>20.0</ns3:atemp>
          </ns3:TrackPointExtension>
        </extensions>
      </trkpt>
      <trkpt lat="42.5512348674237728118896484375" lon="20.133660994470119476318359375">
        <ele>2064.39990234375</ele>
        <time>2026-06-20T07:25:35.000Z</time>
        <extensions>
          <ns3:TrackPointExtension>
            <ns3:atemp>20.0</ns3:atemp>
          </ns3:TrackPointExtension>
        </extensions>
      </trkpt>
      <trkpt lat="42.5512348674237728118896484375" lon="20.133660994470119476318359375">
        <ele>2064.39990234375</ele>
        <time>2026-06-20T07:25:36.000Z</time>
        <extensions>
          <ns3:TrackPointExtension>
            <ns3:atemp>20.0</ns3:atemp>
          </ns3:TrackPointExtension>
        </extensions>
      </trkpt>
      <trkpt lat="42.5512348674237728118896484375" lon="20.133660994470119476318359375">
        <ele>2064.39990234375</ele>
        <time>2026-06-20T07:25:37.000Z</time>
        <extensions>
          <ns3:TrackPointExtension>
            <ns3:atemp>20.0</ns3:atemp>
          </ns3:TrackPointExtension>
        </extensions>
      </trkpt>
      <trkpt lat="42.5512348674237728118896484375" lon="20.133660994470119476318359375">
        <ele>2064.39990234375</ele>
        <time>2026-06-20T07:25:38.000Z</time>
        <extensions>
          <ns3:TrackPointExtension>
            <ns3:atemp>20.0</ns3:atemp>
          </ns3:TrackPointExtension>
        </extensions>
      </trkpt>
      <trkpt lat="42.5512348674237728118896484375" lon="20.133660994470119476318359375">
        <ele>2064.39990234375</ele>
        <time>2026-06-20T07:25:39.000Z</time>
        <extensions>
          <ns3:TrackPointExtension>
            <ns3:atemp>20.0</ns3:atemp>
          </ns3:TrackPointExtension>
        </extensions>
      </trkpt>
      <trkpt lat="42.5512348674237728118896484375" lon="20.133660994470119476318359375">
        <ele>2064.39990234375</ele>
        <time>2026-06-20T07:25:40.000Z</time>
        <extensions>
          <ns3:TrackPointExtension>
            <ns3:atemp>20.0</ns3:atemp>
          </ns3:TrackPointExtension>
        </extensions>
      </trkpt>
      <trkpt lat="42.5512348674237728118896484375" lon="20.133660994470119476318359375">
        <ele>2064.39990234375</ele>
        <time>2026-06-20T07:25:41.000Z</time>
        <extensions>
          <ns3:TrackPointExtension>
            <ns3:atemp>20.0</ns3:atemp>
          </ns3:TrackPointExtension>
        </extensions>
      </trkpt>
      <trkpt lat="42.5512348674237728118896484375" lon="20.133660994470119476318359375">
        <ele>2064.39990234375</ele>
        <time>2026-06-20T07:25:42.000Z</time>
        <extensions>
          <ns3:TrackPointExtension>
            <ns3:atemp>20.0</ns3:atemp>
          </ns3:TrackPointExtension>
        </extensions>
      </trkpt>
      <trkpt lat="42.5512348674237728118896484375" lon="20.133660994470119476318359375">
        <ele>2064.39990234375</ele>
        <time>2026-06-20T07:25:43.000Z</time>
        <extensions>
          <ns3:TrackPointExtension>
            <ns3:atemp>20.0</ns3:atemp>
          </ns3:TrackPointExtension>
        </extensions>
      </trkpt>
      <trkpt lat="42.5512348674237728118896484375" lon="20.133660994470119476318359375">
        <ele>2064.199951171875</ele>
        <time>2026-06-20T07:25:44.000Z</time>
        <extensions>
          <ns3:TrackPointExtension>
            <ns3:atemp>20.0</ns3:atemp>
          </ns3:TrackPointExtension>
        </extensions>
      </trkpt>
      <trkpt lat="42.5512348674237728118896484375" lon="20.133660994470119476318359375">
        <ele>2064.199951171875</ele>
        <time>2026-06-20T07:25:45.000Z</time>
        <extensions>
          <ns3:TrackPointExtension>
            <ns3:atemp>20.0</ns3:atemp>
          </ns3:TrackPointExtension>
        </extensions>
      </trkpt>
      <trkpt lat="42.5512348674237728118896484375" lon="20.133660994470119476318359375">
        <ele>2064.199951171875</ele>
        <time>2026-06-20T07:25:46.000Z</time>
        <extensions>
          <ns3:TrackPointExtension>
            <ns3:atemp>20.0</ns3:atemp>
          </ns3:TrackPointExtension>
        </extensions>
      </trkpt>
      <trkpt lat="42.5512348674237728118896484375" lon="20.133660994470119476318359375">
        <ele>2064.39990234375</ele>
        <time>2026-06-20T07:25:47.000Z</time>
        <extensions>
          <ns3:TrackPointExtension>
            <ns3:atemp>20.0</ns3:atemp>
          </ns3:TrackPointExtension>
        </extensions>
      </trkpt>
      <trkpt lat="42.5512348674237728118896484375" lon="20.133660994470119476318359375">
        <ele>2064.39990234375</ele>
        <time>2026-06-20T07:25:48.000Z</time>
        <extensions>
          <ns3:TrackPointExtension>
            <ns3:atemp>20.0</ns3:atemp>
          </ns3:TrackPointExtension>
        </extensions>
      </trkpt>
      <trkpt lat="42.5512348674237728118896484375" lon="20.133660994470119476318359375">
        <ele>2064.39990234375</ele>
        <time>2026-06-20T07:25:49.000Z</time>
        <extensions>
          <ns3:TrackPointExtension>
            <ns3:atemp>20.0</ns3:atemp>
          </ns3:TrackPointExtension>
        </extensions>
      </trkpt>
      <trkpt lat="42.5512348674237728118896484375" lon="20.133660994470119476318359375">
        <ele>2064.39990234375</ele>
        <time>2026-06-20T07:25:50.000Z</time>
        <extensions>
          <ns3:TrackPointExtension>
            <ns3:atemp>20.0</ns3:atemp>
          </ns3:TrackPointExtension>
        </extensions>
      </trkpt>
      <trkpt lat="42.5512348674237728118896484375" lon="20.133660994470119476318359375">
        <ele>2064.39990234375</ele>
        <time>2026-06-20T07:25:51.000Z</time>
        <extensions>
          <ns3:TrackPointExtension>
            <ns3:atemp>20.0</ns3:atemp>
          </ns3:TrackPointExtension>
        </extensions>
      </trkpt>
      <trkpt lat="42.5512348674237728118896484375" lon="20.133660994470119476318359375">
        <ele>2064.39990234375</ele>
        <time>2026-06-20T07:25:52.000Z</time>
        <extensions>
          <ns3:TrackPointExtension>
            <ns3:atemp>20.0</ns3:atemp>
          </ns3:TrackPointExtension>
        </extensions>
      </trkpt>
      <trkpt lat="42.5512348674237728118896484375" lon="20.133660994470119476318359375">
        <ele>2064.39990234375</ele>
        <time>2026-06-20T07:25:53.000Z</time>
        <extensions>
          <ns3:TrackPointExtension>
            <ns3:atemp>20.0</ns3:atemp>
          </ns3:TrackPointExtension>
        </extensions>
      </trkpt>
      <trkpt lat="42.5512348674237728118896484375" lon="20.133660994470119476318359375">
        <ele>2064.39990234375</ele>
        <time>2026-06-20T07:25:54.000Z</time>
        <extensions>
          <ns3:TrackPointExtension>
            <ns3:atemp>20.0</ns3:atemp>
          </ns3:TrackPointExtension>
        </extensions>
      </trkpt>
      <trkpt lat="42.5512348674237728118896484375" lon="20.133660994470119476318359375">
        <ele>2064.39990234375</ele>
        <time>2026-06-20T07:25:55.000Z</time>
        <extensions>
          <ns3:TrackPointExtension>
            <ns3:atemp>20.0</ns3:atemp>
          </ns3:TrackPointExtension>
        </extensions>
      </trkpt>
      <trkpt lat="42.5512348674237728118896484375" lon="20.133660994470119476318359375">
        <ele>2064.199951171875</ele>
        <time>2026-06-20T07:25:56.000Z</time>
        <extensions>
          <ns3:TrackPointExtension>
            <ns3:atemp>20.0</ns3:atemp>
          </ns3:TrackPointExtension>
        </extensions>
      </trkpt>
      <trkpt lat="42.5512348674237728118896484375" lon="20.133660994470119476318359375">
        <ele>2064.199951171875</ele>
        <time>2026-06-20T07:25:57.000Z</time>
        <extensions>
          <ns3:TrackPointExtension>
            <ns3:atemp>20.0</ns3:atemp>
          </ns3:TrackPointExtension>
        </extensions>
      </trkpt>
      <trkpt lat="42.5512348674237728118896484375" lon="20.133660994470119476318359375">
        <ele>2064.39990234375</ele>
        <time>2026-06-20T07:25:58.000Z</time>
        <extensions>
          <ns3:TrackPointExtension>
            <ns3:atemp>20.0</ns3:atemp>
          </ns3:TrackPointExtension>
        </extensions>
      </trkpt>
      <trkpt lat="42.5512348674237728118896484375" lon="20.133660994470119476318359375">
        <ele>2064.39990234375</ele>
        <time>2026-06-20T07:25:59.000Z</time>
        <extensions>
          <ns3:TrackPointExtension>
            <ns3:atemp>20.0</ns3:atemp>
          </ns3:TrackPointExtension>
        </extensions>
      </trkpt>
      <trkpt lat="42.5512348674237728118896484375" lon="20.133660994470119476318359375">
        <ele>2064.39990234375</ele>
        <time>2026-06-20T07:26:00.000Z</time>
        <extensions>
          <ns3:TrackPointExtension>
            <ns3:atemp>20.0</ns3:atemp>
          </ns3:TrackPointExtension>
        </extensions>
      </trkpt>
      <trkpt lat="42.5512348674237728118896484375" lon="20.133660994470119476318359375">
        <ele>2064.39990234375</ele>
        <time>2026-06-20T07:26:01.000Z</time>
        <extensions>
          <ns3:TrackPointExtension>
            <ns3:atemp>20.0</ns3:atemp>
          </ns3:TrackPointExtension>
        </extensions>
      </trkpt>
      <trkpt lat="42.5512348674237728118896484375" lon="20.133660994470119476318359375">
        <ele>2064.39990234375</ele>
        <time>2026-06-20T07:26:02.000Z</time>
        <extensions>
          <ns3:TrackPointExtension>
            <ns3:atemp>20.0</ns3:atemp>
          </ns3:TrackPointExtension>
        </extensions>
      </trkpt>
      <trkpt lat="42.5512348674237728118896484375" lon="20.133660994470119476318359375">
        <ele>2064.39990234375</ele>
        <time>2026-06-20T07:26:03.000Z</time>
        <extensions>
          <ns3:TrackPointExtension>
            <ns3:atemp>20.0</ns3:atemp>
          </ns3:TrackPointExtension>
        </extensions>
      </trkpt>
      <trkpt lat="42.5512348674237728118896484375" lon="20.133660994470119476318359375">
        <ele>2064.39990234375</ele>
        <time>2026-06-20T07:26:04.000Z</time>
        <extensions>
          <ns3:TrackPointExtension>
            <ns3:atemp>20.0</ns3:atemp>
          </ns3:TrackPointExtension>
        </extensions>
      </trkpt>
      <trkpt lat="42.5512348674237728118896484375" lon="20.133660994470119476318359375">
        <ele>2064.39990234375</ele>
        <time>2026-06-20T07:26:05.000Z</time>
        <extensions>
          <ns3:TrackPointExtension>
            <ns3:atemp>20.0</ns3:atemp>
          </ns3:TrackPointExtension>
        </extensions>
      </trkpt>
      <trkpt lat="42.5512348674237728118896484375" lon="20.133660994470119476318359375">
        <ele>2064.39990234375</ele>
        <time>2026-06-20T07:26:06.000Z</time>
        <extensions>
          <ns3:TrackPointExtension>
            <ns3:atemp>20.0</ns3:atemp>
          </ns3:TrackPointExtension>
        </extensions>
      </trkpt>
      <trkpt lat="42.5512348674237728118896484375" lon="20.133660994470119476318359375">
        <ele>2064.199951171875</ele>
        <time>2026-06-20T07:26:07.000Z</time>
        <extensions>
          <ns3:TrackPointExtension>
            <ns3:atemp>20.0</ns3:atemp>
          </ns3:TrackPointExtension>
        </extensions>
      </trkpt>
      <trkpt lat="42.5512348674237728118896484375" lon="20.133660994470119476318359375">
        <ele>2064.199951171875</ele>
        <time>2026-06-20T07:26:08.000Z</time>
        <extensions>
          <ns3:TrackPointExtension>
            <ns3:atemp>20.0</ns3:atemp>
          </ns3:TrackPointExtension>
        </extensions>
      </trkpt>
      <trkpt lat="42.5512348674237728118896484375" lon="20.133660994470119476318359375">
        <ele>2064.39990234375</ele>
        <time>2026-06-20T07:26:09.000Z</time>
        <extensions>
          <ns3:TrackPointExtension>
            <ns3:atemp>20.0</ns3:atemp>
          </ns3:TrackPointExtension>
        </extensions>
      </trkpt>
      <trkpt lat="42.5512348674237728118896484375" lon="20.133660994470119476318359375">
        <ele>2064.39990234375</ele>
        <time>2026-06-20T07:26:10.000Z</time>
        <extensions>
          <ns3:TrackPointExtension>
            <ns3:atemp>20.0</ns3:atemp>
          </ns3:TrackPointExtension>
        </extensions>
      </trkpt>
      <trkpt lat="42.5512348674237728118896484375" lon="20.133660994470119476318359375">
        <ele>2064.39990234375</ele>
        <time>2026-06-20T07:26:11.000Z</time>
        <extensions>
          <ns3:TrackPointExtension>
            <ns3:atemp>20.0</ns3:atemp>
          </ns3:TrackPointExtension>
        </extensions>
      </trkpt>
      <trkpt lat="42.5512348674237728118896484375" lon="20.133660994470119476318359375">
        <ele>2064.39990234375</ele>
        <time>2026-06-20T07:26:12.000Z</time>
        <extensions>
          <ns3:TrackPointExtension>
            <ns3:atemp>20.0</ns3:atemp>
          </ns3:TrackPointExtension>
        </extensions>
      </trkpt>
      <trkpt lat="42.5512348674237728118896484375" lon="20.133660994470119476318359375">
        <ele>2064.39990234375</ele>
        <time>2026-06-20T07:26:13.000Z</time>
        <extensions>
          <ns3:TrackPointExtension>
            <ns3:atemp>20.0</ns3:atemp>
          </ns3:TrackPointExtension>
        </extensions>
      </trkpt>
      <trkpt lat="42.5512348674237728118896484375" lon="20.133660994470119476318359375">
        <ele>2064.39990234375</ele>
        <time>2026-06-20T07:26:14.000Z</time>
        <extensions>
          <ns3:TrackPointExtension>
            <ns3:atemp>20.0</ns3:atemp>
          </ns3:TrackPointExtension>
        </extensions>
      </trkpt>
      <trkpt lat="42.5512348674237728118896484375" lon="20.133660994470119476318359375">
        <ele>2064.39990234375</ele>
        <time>2026-06-20T07:26:15.000Z</time>
        <extensions>
          <ns3:TrackPointExtension>
            <ns3:atemp>20.0</ns3:atemp>
          </ns3:TrackPointExtension>
        </extensions>
      </trkpt>
      <trkpt lat="42.5512348674237728118896484375" lon="20.133660994470119476318359375">
        <ele>2064.39990234375</ele>
        <time>2026-06-20T07:26:16.000Z</time>
        <extensions>
          <ns3:TrackPointExtension>
            <ns3:atemp>20.0</ns3:atemp>
          </ns3:TrackPointExtension>
        </extensions>
      </trkpt>
      <trkpt lat="42.5512348674237728118896484375" lon="20.133660994470119476318359375">
        <ele>2064.199951171875</ele>
        <time>2026-06-20T07:26:17.000Z</time>
        <extensions>
          <ns3:TrackPointExtension>
            <ns3:atemp>20.0</ns3:atemp>
          </ns3:TrackPointExtension>
        </extensions>
      </trkpt>
      <trkpt lat="42.5512348674237728118896484375" lon="20.133660994470119476318359375">
        <ele>2064.199951171875</ele>
        <time>2026-06-20T07:26:18.000Z</time>
        <extensions>
          <ns3:TrackPointExtension>
            <ns3:atemp>20.0</ns3:atemp>
          </ns3:TrackPointExtension>
        </extensions>
      </trkpt>
      <trkpt lat="42.5512348674237728118896484375" lon="20.133660994470119476318359375">
        <ele>2064.199951171875</ele>
        <time>2026-06-20T07:26:19.000Z</time>
        <extensions>
          <ns3:TrackPointExtension>
            <ns3:atemp>20.0</ns3:atemp>
          </ns3:TrackPointExtension>
        </extensions>
      </trkpt>
      <trkpt lat="42.5512348674237728118896484375" lon="20.133660994470119476318359375">
        <ele>2064.199951171875</ele>
        <time>2026-06-20T07:26:20.000Z</time>
        <extensions>
          <ns3:TrackPointExtension>
            <ns3:atemp>20.0</ns3:atemp>
          </ns3:TrackPointExtension>
        </extensions>
      </trkpt>
      <trkpt lat="42.5512348674237728118896484375" lon="20.133660994470119476318359375">
        <ele>2064.39990234375</ele>
        <time>2026-06-20T07:26:21.000Z</time>
        <extensions>
          <ns3:TrackPointExtension>
            <ns3:atemp>20.0</ns3:atemp>
          </ns3:TrackPointExtension>
        </extensions>
      </trkpt>
      <trkpt lat="42.5512348674237728118896484375" lon="20.133660994470119476318359375">
        <ele>2064.39990234375</ele>
        <time>2026-06-20T07:26:22.000Z</time>
        <extensions>
          <ns3:TrackPointExtension>
            <ns3:atemp>20.0</ns3:atemp>
          </ns3:TrackPointExtension>
        </extensions>
      </trkpt>
      <trkpt lat="42.5512348674237728118896484375" lon="20.133660994470119476318359375">
        <ele>2064.60009765625</ele>
        <time>2026-06-20T07:26:23.000Z</time>
        <extensions>
          <ns3:TrackPointExtension>
            <ns3:atemp>20.0</ns3:atemp>
          </ns3:TrackPointExtension>
        </extensions>
      </trkpt>
      <trkpt lat="42.5512348674237728118896484375" lon="20.133660994470119476318359375">
        <ele>2064.60009765625</ele>
        <time>2026-06-20T07:26:24.000Z</time>
        <extensions>
          <ns3:TrackPointExtension>
            <ns3:atemp>20.0</ns3:atemp>
          </ns3:TrackPointExtension>
        </extensions>
      </trkpt>
      <trkpt lat="42.5512348674237728118896484375" lon="20.133660994470119476318359375">
        <ele>2064.60009765625</ele>
        <time>2026-06-20T07:26:25.000Z</time>
        <extensions>
          <ns3:TrackPointExtension>
            <ns3:atemp>20.0</ns3:atemp>
          </ns3:TrackPointExtension>
        </extensions>
      </trkpt>
      <trkpt lat="42.5512348674237728118896484375" lon="20.133660994470119476318359375">
        <ele>2064.60009765625</ele>
        <time>2026-06-20T07:26:26.000Z</time>
        <extensions>
          <ns3:TrackPointExtension>
            <ns3:atemp>20.0</ns3:atemp>
          </ns3:TrackPointExtension>
        </extensions>
      </trkpt>
      <trkpt lat="42.5512348674237728118896484375" lon="20.133660994470119476318359375">
        <ele>2064.60009765625</ele>
        <time>2026-06-20T07:26:27.000Z</time>
        <extensions>
          <ns3:TrackPointExtension>
            <ns3:atemp>20.0</ns3:atemp>
          </ns3:TrackPointExtension>
        </extensions>
      </trkpt>
      <trkpt lat="42.5512348674237728118896484375" lon="20.133660994470119476318359375">
        <ele>2064.60009765625</ele>
        <time>2026-06-20T07:26:28.000Z</time>
        <extensions>
          <ns3:TrackPointExtension>
            <ns3:atemp>20.0</ns3:atemp>
          </ns3:TrackPointExtension>
        </extensions>
      </trkpt>
      <trkpt lat="42.5512348674237728118896484375" lon="20.133660994470119476318359375">
        <ele>2064.60009765625</ele>
        <time>2026-06-20T07:26:29.000Z</time>
        <extensions>
          <ns3:TrackPointExtension>
            <ns3:atemp>20.0</ns3:atemp>
          </ns3:TrackPointExtension>
        </extensions>
      </trkpt>
      <trkpt lat="42.5512348674237728118896484375" lon="20.133660994470119476318359375">
        <ele>2064.60009765625</ele>
        <time>2026-06-20T07:26:30.000Z</time>
        <extensions>
          <ns3:TrackPointExtension>
            <ns3:atemp>20.0</ns3:atemp>
          </ns3:TrackPointExtension>
        </extensions>
      </trkpt>
      <trkpt lat="42.5512348674237728118896484375" lon="20.133660994470119476318359375">
        <ele>2064.60009765625</ele>
        <time>2026-06-20T07:26:31.000Z</time>
        <extensions>
          <ns3:TrackPointExtension>
            <ns3:atemp>20.0</ns3:atemp>
          </ns3:TrackPointExtension>
        </extensions>
      </trkpt>
      <trkpt lat="42.5512348674237728118896484375" lon="20.133660994470119476318359375">
        <ele>2064.60009765625</ele>
        <time>2026-06-20T07:26:32.000Z</time>
        <extensions>
          <ns3:TrackPointExtension>
            <ns3:atemp>20.0</ns3:atemp>
          </ns3:TrackPointExtension>
        </extensions>
      </trkpt>
      <trkpt lat="42.5512348674237728118896484375" lon="20.133660994470119476318359375">
        <ele>2064.60009765625</ele>
        <time>2026-06-20T07:26:33.000Z</time>
        <extensions>
          <ns3:TrackPointExtension>
            <ns3:atemp>20.0</ns3:atemp>
          </ns3:TrackPointExtension>
        </extensions>
      </trkpt>
      <trkpt lat="42.5512348674237728118896484375" lon="20.133660994470119476318359375">
        <ele>2064.60009765625</ele>
        <time>2026-06-20T07:26:34.000Z</time>
        <extensions>
          <ns3:TrackPointExtension>
            <ns3:atemp>20.0</ns3:atemp>
          </ns3:TrackPointExtension>
        </extensions>
      </trkpt>
      <trkpt lat="42.5512348674237728118896484375" lon="20.133660994470119476318359375">
        <ele>2064.60009765625</ele>
        <time>2026-06-20T07:26:35.000Z</time>
        <extensions>
          <ns3:TrackPointExtension>
            <ns3:atemp>20.0</ns3:atemp>
          </ns3:TrackPointExtension>
        </extensions>
      </trkpt>
      <trkpt lat="42.5512348674237728118896484375" lon="20.133660994470119476318359375">
        <ele>2064.60009765625</ele>
        <time>2026-06-20T07:26:36.000Z</time>
        <extensions>
          <ns3:TrackPointExtension>
            <ns3:atemp>20.0</ns3:atemp>
          </ns3:TrackPointExtension>
        </extensions>
      </trkpt>
      <trkpt lat="42.5512348674237728118896484375" lon="20.133660994470119476318359375">
        <ele>2064.60009765625</ele>
        <time>2026-06-20T07:26:37.000Z</time>
        <extensions>
          <ns3:TrackPointExtension>
            <ns3:atemp>20.0</ns3:atemp>
          </ns3:TrackPointExtension>
        </extensions>
      </trkpt>
      <trkpt lat="42.5512348674237728118896484375" lon="20.133660994470119476318359375">
        <ele>2064.60009765625</ele>
        <time>2026-06-20T07:26:38.000Z</time>
        <extensions>
          <ns3:TrackPointExtension>
            <ns3:atemp>20.0</ns3:atemp>
          </ns3:TrackPointExtension>
        </extensions>
      </trkpt>
      <trkpt lat="42.5512348674237728118896484375" lon="20.133660994470119476318359375">
        <ele>2064.60009765625</ele>
        <time>2026-06-20T07:26:39.000Z</time>
        <extensions>
          <ns3:TrackPointExtension>
            <ns3:atemp>20.0</ns3:atemp>
          </ns3:TrackPointExtension>
        </extensions>
      </trkpt>
      <trkpt lat="42.5512348674237728118896484375" lon="20.133660994470119476318359375">
        <ele>2064.60009765625</ele>
        <time>2026-06-20T07:26:40.000Z</time>
        <extensions>
          <ns3:TrackPointExtension>
            <ns3:atemp>20.0</ns3:atemp>
          </ns3:TrackPointExtension>
        </extensions>
      </trkpt>
      <trkpt lat="42.5512348674237728118896484375" lon="20.133660994470119476318359375">
        <ele>2064.60009765625</ele>
        <time>2026-06-20T07:26:41.000Z</time>
        <extensions>
          <ns3:TrackPointExtension>
            <ns3:atemp>20.0</ns3:atemp>
          </ns3:TrackPointExtension>
        </extensions>
      </trkpt>
      <trkpt lat="42.5512348674237728118896484375" lon="20.133660994470119476318359375">
        <ele>2064.60009765625</ele>
        <time>2026-06-20T07:26:42.000Z</time>
        <extensions>
          <ns3:TrackPointExtension>
            <ns3:atemp>20.0</ns3:atemp>
          </ns3:TrackPointExtension>
        </extensions>
      </trkpt>
      <trkpt lat="42.5512348674237728118896484375" lon="20.133660994470119476318359375">
        <ele>2064.60009765625</ele>
        <time>2026-06-20T07:26:43.000Z</time>
        <extensions>
          <ns3:TrackPointExtension>
            <ns3:atemp>20.0</ns3:atemp>
          </ns3:TrackPointExtension>
        </extensions>
      </trkpt>
      <trkpt lat="42.5512348674237728118896484375" lon="20.133660994470119476318359375">
        <ele>2064.60009765625</ele>
        <time>2026-06-20T07:26:44.000Z</time>
        <extensions>
          <ns3:TrackPointExtension>
            <ns3:atemp>20.0</ns3:atemp>
          </ns3:TrackPointExtension>
        </extensions>
      </trkpt>
      <trkpt lat="42.5512348674237728118896484375" lon="20.133660994470119476318359375">
        <ele>2064.60009765625</ele>
        <time>2026-06-20T07:26:45.000Z</time>
        <extensions>
          <ns3:TrackPointExtension>
            <ns3:atemp>20.0</ns3:atemp>
          </ns3:TrackPointExtension>
        </extensions>
      </trkpt>
      <trkpt lat="42.5512348674237728118896484375" lon="20.133660994470119476318359375">
        <ele>2064.60009765625</ele>
        <time>2026-06-20T07:26:46.000Z</time>
        <extensions>
          <ns3:TrackPointExtension>
            <ns3:atemp>20.0</ns3:atemp>
          </ns3:TrackPointExtension>
        </extensions>
      </trkpt>
      <trkpt lat="42.5512348674237728118896484375" lon="20.133660994470119476318359375">
        <ele>2064.60009765625</ele>
        <time>2026-06-20T07:26:47.000Z</time>
        <extensions>
          <ns3:TrackPointExtension>
            <ns3:atemp>20.0</ns3:atemp>
          </ns3:TrackPointExtension>
        </extensions>
      </trkpt>
      <trkpt lat="42.5512348674237728118896484375" lon="20.133660994470119476318359375">
        <ele>2064.60009765625</ele>
        <time>2026-06-20T07:26:48.000Z</time>
        <extensions>
          <ns3:TrackPointExtension>
            <ns3:atemp>20.0</ns3:atemp>
          </ns3:TrackPointExtension>
        </extensions>
      </trkpt>
      <trkpt lat="42.5512348674237728118896484375" lon="20.133660994470119476318359375">
        <ele>2064.60009765625</ele>
        <time>2026-06-20T07:26:49.000Z</time>
        <extensions>
          <ns3:TrackPointExtension>
            <ns3:atemp>20.0</ns3:atemp>
          </ns3:TrackPointExtension>
        </extensions>
      </trkpt>
      <trkpt lat="42.5512348674237728118896484375" lon="20.133660994470119476318359375">
        <ele>2064.60009765625</ele>
        <time>2026-06-20T07:26:50.000Z</time>
        <extensions>
          <ns3:TrackPointExtension>
            <ns3:atemp>20.0</ns3:atemp>
          </ns3:TrackPointExtension>
        </extensions>
      </trkpt>
      <trkpt lat="42.5512348674237728118896484375" lon="20.133660994470119476318359375">
        <ele>2064.60009765625</ele>
        <time>2026-06-20T07:26:51.000Z</time>
        <extensions>
          <ns3:TrackPointExtension>
            <ns3:atemp>20.0</ns3:atemp>
          </ns3:TrackPointExtension>
        </extensions>
      </trkpt>
      <trkpt lat="42.5512348674237728118896484375" lon="20.133660994470119476318359375">
        <ele>2064.60009765625</ele>
        <time>2026-06-20T07:26:52.000Z</time>
        <extensions>
          <ns3:TrackPointExtension>
            <ns3:atemp>20.0</ns3:atemp>
          </ns3:TrackPointExtension>
        </extensions>
      </trkpt>
      <trkpt lat="42.5512348674237728118896484375" lon="20.133660994470119476318359375">
        <ele>2064.60009765625</ele>
        <time>2026-06-20T07:26:53.000Z</time>
        <extensions>
          <ns3:TrackPointExtension>
            <ns3:atemp>20.0</ns3:atemp>
          </ns3:TrackPointExtension>
        </extensions>
      </trkpt>
      <trkpt lat="42.5512348674237728118896484375" lon="20.133660994470119476318359375">
        <ele>2064.60009765625</ele>
        <time>2026-06-20T07:26:54.000Z</time>
        <extensions>
          <ns3:TrackPointExtension>
            <ns3:atemp>20.0</ns3:atemp>
          </ns3:TrackPointExtension>
        </extensions>
      </trkpt>
      <trkpt lat="42.5512348674237728118896484375" lon="20.133660994470119476318359375">
        <ele>2064.60009765625</ele>
        <time>2026-06-20T07:26:55.000Z</time>
        <extensions>
          <ns3:TrackPointExtension>
            <ns3:atemp>20.0</ns3:atemp>
          </ns3:TrackPointExtension>
        </extensions>
      </trkpt>
      <trkpt lat="42.5512348674237728118896484375" lon="20.133660994470119476318359375">
        <ele>2064.60009765625</ele>
        <time>2026-06-20T07:26:56.000Z</time>
        <extensions>
          <ns3:TrackPointExtension>
            <ns3:atemp>20.0</ns3:atemp>
          </ns3:TrackPointExtension>
        </extensions>
      </trkpt>
      <trkpt lat="42.5512348674237728118896484375" lon="20.133660994470119476318359375">
        <ele>2064.60009765625</ele>
        <time>2026-06-20T07:26:57.000Z</time>
        <extensions>
          <ns3:TrackPointExtension>
            <ns3:atemp>20.0</ns3:atemp>
          </ns3:TrackPointExtension>
        </extensions>
      </trkpt>
      <trkpt lat="42.5512348674237728118896484375" lon="20.133660994470119476318359375">
        <ele>2064.60009765625</ele>
        <time>2026-06-20T07:26:58.000Z</time>
        <extensions>
          <ns3:TrackPointExtension>
            <ns3:atemp>20.0</ns3:atemp>
          </ns3:TrackPointExtension>
        </extensions>
      </trkpt>
      <trkpt lat="42.5512348674237728118896484375" lon="20.133660994470119476318359375">
        <ele>2064.60009765625</ele>
        <time>2026-06-20T07:26:59.000Z</time>
        <extensions>
          <ns3:TrackPointExtension>
            <ns3:atemp>20.0</ns3:atemp>
          </ns3:TrackPointExtension>
        </extensions>
      </trkpt>
      <trkpt lat="42.5512348674237728118896484375" lon="20.133660994470119476318359375">
        <ele>2064.60009765625</ele>
        <time>2026-06-20T07:27:00.000Z</time>
        <extensions>
          <ns3:TrackPointExtension>
            <ns3:atemp>20.0</ns3:atemp>
          </ns3:TrackPointExtension>
        </extensions>
      </trkpt>
      <trkpt lat="42.5512348674237728118896484375" lon="20.133660994470119476318359375">
        <ele>2064.60009765625</ele>
        <time>2026-06-20T07:27:01.000Z</time>
        <extensions>
          <ns3:TrackPointExtension>
            <ns3:atemp>20.0</ns3:atemp>
          </ns3:TrackPointExtension>
        </extensions>
      </trkpt>
      <trkpt lat="42.5512348674237728118896484375" lon="20.133660994470119476318359375">
        <ele>2064.60009765625</ele>
        <time>2026-06-20T07:27:02.000Z</time>
        <extensions>
          <ns3:TrackPointExtension>
            <ns3:atemp>20.0</ns3:atemp>
          </ns3:TrackPointExtension>
        </extensions>
      </trkpt>
      <trkpt lat="42.5512348674237728118896484375" lon="20.133660994470119476318359375">
        <ele>2064.60009765625</ele>
        <time>2026-06-20T07:27:03.000Z</time>
        <extensions>
          <ns3:TrackPointExtension>
            <ns3:atemp>20.0</ns3:atemp>
          </ns3:TrackPointExtension>
        </extensions>
      </trkpt>
      <trkpt lat="42.5512348674237728118896484375" lon="20.133660994470119476318359375">
        <ele>2064.60009765625</ele>
        <time>2026-06-20T07:27:04.000Z</time>
        <extensions>
          <ns3:TrackPointExtension>
            <ns3:atemp>20.0</ns3:atemp>
          </ns3:TrackPointExtension>
        </extensions>
      </trkpt>
      <trkpt lat="42.5512348674237728118896484375" lon="20.133660994470119476318359375">
        <ele>2064.60009765625</ele>
        <time>2026-06-20T07:27:05.000Z</time>
        <extensions>
          <ns3:TrackPointExtension>
            <ns3:atemp>20.0</ns3:atemp>
          </ns3:TrackPointExtension>
        </extensions>
      </trkpt>
      <trkpt lat="42.5512348674237728118896484375" lon="20.133660994470119476318359375">
        <ele>2064.60009765625</ele>
        <time>2026-06-20T07:27:06.000Z</time>
        <extensions>
          <ns3:TrackPointExtension>
            <ns3:atemp>20.0</ns3:atemp>
          </ns3:TrackPointExtension>
        </extensions>
      </trkpt>
      <trkpt lat="42.5512348674237728118896484375" lon="20.133660994470119476318359375">
        <ele>2064.60009765625</ele>
        <time>2026-06-20T07:27:07.000Z</time>
        <extensions>
          <ns3:TrackPointExtension>
            <ns3:atemp>20.0</ns3:atemp>
          </ns3:TrackPointExtension>
        </extensions>
      </trkpt>
      <trkpt lat="42.5512348674237728118896484375" lon="20.133660994470119476318359375">
        <ele>2064.60009765625</ele>
        <time>2026-06-20T07:27:08.000Z</time>
        <extensions>
          <ns3:TrackPointExtension>
            <ns3:atemp>20.0</ns3:atemp>
          </ns3:TrackPointExtension>
        </extensions>
      </trkpt>
      <trkpt lat="42.5512348674237728118896484375" lon="20.133660994470119476318359375">
        <ele>2064.60009765625</ele>
        <time>2026-06-20T07:27:09.000Z</time>
        <extensions>
          <ns3:TrackPointExtension>
            <ns3:atemp>20.0</ns3:atemp>
          </ns3:TrackPointExtension>
        </extensions>
      </trkpt>
      <trkpt lat="42.5512348674237728118896484375" lon="20.133660994470119476318359375">
        <ele>2064.60009765625</ele>
        <time>2026-06-20T07:27:10.000Z</time>
        <extensions>
          <ns3:TrackPointExtension>
            <ns3:atemp>20.0</ns3:atemp>
          </ns3:TrackPointExtension>
        </extensions>
      </trkpt>
      <trkpt lat="42.5512348674237728118896484375" lon="20.133660994470119476318359375">
        <ele>2064.60009765625</ele>
        <time>2026-06-20T07:27:11.000Z</time>
        <extensions>
          <ns3:TrackPointExtension>
            <ns3:atemp>20.0</ns3:atemp>
          </ns3:TrackPointExtension>
        </extensions>
      </trkpt>
      <trkpt lat="42.5512348674237728118896484375" lon="20.133660994470119476318359375">
        <ele>2064.60009765625</ele>
        <time>2026-06-20T07:27:12.000Z</time>
        <extensions>
          <ns3:TrackPointExtension>
            <ns3:atemp>20.0</ns3:atemp>
          </ns3:TrackPointExtension>
        </extensions>
      </trkpt>
      <trkpt lat="42.5512348674237728118896484375" lon="20.133660994470119476318359375">
        <ele>2064.60009765625</ele>
        <time>2026-06-20T07:27:13.000Z</time>
        <extensions>
          <ns3:TrackPointExtension>
            <ns3:atemp>20.0</ns3:atemp>
          </ns3:TrackPointExtension>
        </extensions>
      </trkpt>
      <trkpt lat="42.5512348674237728118896484375" lon="20.133660994470119476318359375">
        <ele>2064.60009765625</ele>
        <time>2026-06-20T07:27:14.000Z</time>
        <extensions>
          <ns3:TrackPointExtension>
            <ns3:atemp>20.0</ns3:atemp>
          </ns3:TrackPointExtension>
        </extensions>
      </trkpt>
      <trkpt lat="42.5512348674237728118896484375" lon="20.133660994470119476318359375">
        <ele>2064.60009765625</ele>
        <time>2026-06-20T07:27:15.000Z</time>
        <extensions>
          <ns3:TrackPointExtension>
            <ns3:atemp>20.0</ns3:atemp>
          </ns3:TrackPointExtension>
        </extensions>
      </trkpt>
      <trkpt lat="42.5512348674237728118896484375" lon="20.133660994470119476318359375">
        <ele>2064.60009765625</ele>
        <time>2026-06-20T07:27:16.000Z</time>
        <extensions>
          <ns3:TrackPointExtension>
            <ns3:atemp>20.0</ns3:atemp>
          </ns3:TrackPointExtension>
        </extensions>
      </trkpt>
      <trkpt lat="42.5512348674237728118896484375" lon="20.133660994470119476318359375">
        <ele>2064.60009765625</ele>
        <time>2026-06-20T07:27:17.000Z</time>
        <extensions>
          <ns3:TrackPointExtension>
            <ns3:atemp>20.0</ns3:atemp>
          </ns3:TrackPointExtension>
        </extensions>
      </trkpt>
      <trkpt lat="42.5512348674237728118896484375" lon="20.133660994470119476318359375">
        <ele>2064.60009765625</ele>
        <time>2026-06-20T07:27:18.000Z</time>
        <extensions>
          <ns3:TrackPointExtension>
            <ns3:atemp>20.0</ns3:atemp>
          </ns3:TrackPointExtension>
        </extensions>
      </trkpt>
      <trkpt lat="42.5512348674237728118896484375" lon="20.133660994470119476318359375">
        <ele>2064.60009765625</ele>
        <time>2026-06-20T07:27:19.000Z</time>
        <extensions>
          <ns3:TrackPointExtension>
            <ns3:atemp>20.0</ns3:atemp>
          </ns3:TrackPointExtension>
        </extensions>
      </trkpt>
      <trkpt lat="42.5512348674237728118896484375" lon="20.133660994470119476318359375">
        <ele>2064.60009765625</ele>
        <time>2026-06-20T07:27:20.000Z</time>
        <extensions>
          <ns3:TrackPointExtension>
            <ns3:atemp>20.0</ns3:atemp>
          </ns3:TrackPointExtension>
        </extensions>
      </trkpt>
      <trkpt lat="42.5512348674237728118896484375" lon="20.133660994470119476318359375">
        <ele>2064.60009765625</ele>
        <time>2026-06-20T07:27:21.000Z</time>
        <extensions>
          <ns3:TrackPointExtension>
            <ns3:atemp>20.0</ns3:atemp>
          </ns3:TrackPointExtension>
        </extensions>
      </trkpt>
      <trkpt lat="42.5512348674237728118896484375" lon="20.133660994470119476318359375">
        <ele>2064.60009765625</ele>
        <time>2026-06-20T07:27:22.000Z</time>
        <extensions>
          <ns3:TrackPointExtension>
            <ns3:atemp>20.0</ns3:atemp>
          </ns3:TrackPointExtension>
        </extensions>
      </trkpt>
      <trkpt lat="42.5512348674237728118896484375" lon="20.133660994470119476318359375">
        <ele>2064.60009765625</ele>
        <time>2026-06-20T07:27:23.000Z</time>
        <extensions>
          <ns3:TrackPointExtension>
            <ns3:atemp>20.0</ns3:atemp>
          </ns3:TrackPointExtension>
        </extensions>
      </trkpt>
      <trkpt lat="42.5512348674237728118896484375" lon="20.133660994470119476318359375">
        <ele>2064.60009765625</ele>
        <time>2026-06-20T07:27:24.000Z</time>
        <extensions>
          <ns3:TrackPointExtension>
            <ns3:atemp>20.0</ns3:atemp>
          </ns3:TrackPointExtension>
        </extensions>
      </trkpt>
      <trkpt lat="42.5512348674237728118896484375" lon="20.133660994470119476318359375">
        <ele>2064.60009765625</ele>
        <time>2026-06-20T07:27:25.000Z</time>
        <extensions>
          <ns3:TrackPointExtension>
            <ns3:atemp>20.0</ns3:atemp>
          </ns3:TrackPointExtension>
        </extensions>
      </trkpt>
      <trkpt lat="42.5512348674237728118896484375" lon="20.133660994470119476318359375">
        <ele>2064.60009765625</ele>
        <time>2026-06-20T07:27:26.000Z</time>
        <extensions>
          <ns3:TrackPointExtension>
            <ns3:atemp>20.0</ns3:atemp>
          </ns3:TrackPointExtension>
        </extensions>
      </trkpt>
      <trkpt lat="42.5512348674237728118896484375" lon="20.133660994470119476318359375">
        <ele>2064.60009765625</ele>
        <time>2026-06-20T07:27:27.000Z</time>
        <extensions>
          <ns3:TrackPointExtension>
            <ns3:atemp>20.0</ns3:atemp>
          </ns3:TrackPointExtension>
        </extensions>
      </trkpt>
      <trkpt lat="42.5512348674237728118896484375" lon="20.133660994470119476318359375">
        <ele>2064.60009765625</ele>
        <time>2026-06-20T07:27:28.000Z</time>
        <extensions>
          <ns3:TrackPointExtension>
            <ns3:atemp>20.0</ns3:atemp>
          </ns3:TrackPointExtension>
        </extensions>
      </trkpt>
      <trkpt lat="42.5512348674237728118896484375" lon="20.133660994470119476318359375">
        <ele>2064.60009765625</ele>
        <time>2026-06-20T07:27:29.000Z</time>
        <extensions>
          <ns3:TrackPointExtension>
            <ns3:atemp>20.0</ns3:atemp>
          </ns3:TrackPointExtension>
        </extensions>
      </trkpt>
      <trkpt lat="42.5512348674237728118896484375" lon="20.133660994470119476318359375">
        <ele>2064.60009765625</ele>
        <time>2026-06-20T07:27:30.000Z</time>
        <extensions>
          <ns3:TrackPointExtension>
            <ns3:atemp>20.0</ns3:atemp>
          </ns3:TrackPointExtension>
        </extensions>
      </trkpt>
      <trkpt lat="42.5512348674237728118896484375" lon="20.133660994470119476318359375">
        <ele>2064.60009765625</ele>
        <time>2026-06-20T07:27:31.000Z</time>
        <extensions>
          <ns3:TrackPointExtension>
            <ns3:atemp>20.0</ns3:atemp>
          </ns3:TrackPointExtension>
        </extensions>
      </trkpt>
      <trkpt lat="42.5512348674237728118896484375" lon="20.133660994470119476318359375">
        <ele>2064.60009765625</ele>
        <time>2026-06-20T07:27:32.000Z</time>
        <extensions>
          <ns3:TrackPointExtension>
            <ns3:atemp>20.0</ns3:atemp>
          </ns3:TrackPointExtension>
        </extensions>
      </trkpt>
      <trkpt lat="42.5512348674237728118896484375" lon="20.133660994470119476318359375">
        <ele>2064.60009765625</ele>
        <time>2026-06-20T07:27:33.000Z</time>
        <extensions>
          <ns3:TrackPointExtension>
            <ns3:atemp>20.0</ns3:atemp>
          </ns3:TrackPointExtension>
        </extensions>
      </trkpt>
      <trkpt lat="42.5512348674237728118896484375" lon="20.133660994470119476318359375">
        <ele>2064.60009765625</ele>
        <time>2026-06-20T07:27:34.000Z</time>
        <extensions>
          <ns3:TrackPointExtension>
            <ns3:atemp>20.0</ns3:atemp>
          </ns3:TrackPointExtension>
        </extensions>
      </trkpt>
      <trkpt lat="42.5512348674237728118896484375" lon="20.133660994470119476318359375">
        <ele>2064.60009765625</ele>
        <time>2026-06-20T07:27:35.000Z</time>
        <extensions>
          <ns3:TrackPointExtension>
            <ns3:atemp>20.0</ns3:atemp>
          </ns3:TrackPointExtension>
        </extensions>
      </trkpt>
      <trkpt lat="42.5512348674237728118896484375" lon="20.133660994470119476318359375">
        <ele>2064.60009765625</ele>
        <time>2026-06-20T07:27:36.000Z</time>
        <extensions>
          <ns3:TrackPointExtension>
            <ns3:atemp>20.0</ns3:atemp>
          </ns3:TrackPointExtension>
        </extensions>
      </trkpt>
      <trkpt lat="42.5512348674237728118896484375" lon="20.133660994470119476318359375">
        <ele>2064.60009765625</ele>
        <time>2026-06-20T07:27:37.000Z</time>
        <extensions>
          <ns3:TrackPointExtension>
            <ns3:atemp>20.0</ns3:atemp>
          </ns3:TrackPointExtension>
        </extensions>
      </trkpt>
      <trkpt lat="42.5512348674237728118896484375" lon="20.133660994470119476318359375">
        <ele>2064.60009765625</ele>
        <time>2026-06-20T07:27:38.000Z</time>
        <extensions>
          <ns3:TrackPointExtension>
            <ns3:atemp>20.0</ns3:atemp>
          </ns3:TrackPointExtension>
        </extensions>
      </trkpt>
      <trkpt lat="42.5512348674237728118896484375" lon="20.133660994470119476318359375">
        <ele>2064.60009765625</ele>
        <time>2026-06-20T07:27:39.000Z</time>
        <extensions>
          <ns3:TrackPointExtension>
            <ns3:atemp>20.0</ns3:atemp>
          </ns3:TrackPointExtension>
        </extensions>
      </trkpt>
      <trkpt lat="42.5512348674237728118896484375" lon="20.133660994470119476318359375">
        <ele>2064.60009765625</ele>
        <time>2026-06-20T07:27:40.000Z</time>
        <extensions>
          <ns3:TrackPointExtension>
            <ns3:atemp>20.0</ns3:atemp>
          </ns3:TrackPointExtension>
        </extensions>
      </trkpt>
      <trkpt lat="42.5512348674237728118896484375" lon="20.133660994470119476318359375">
        <ele>2064.60009765625</ele>
        <time>2026-06-20T07:27:41.000Z</time>
        <extensions>
          <ns3:TrackPointExtension>
            <ns3:atemp>20.0</ns3:atemp>
          </ns3:TrackPointExtension>
        </extensions>
      </trkpt>
      <trkpt lat="42.5512348674237728118896484375" lon="20.133660994470119476318359375">
        <ele>2064.60009765625</ele>
        <time>2026-06-20T07:27:42.000Z</time>
        <extensions>
          <ns3:TrackPointExtension>
            <ns3:atemp>20.0</ns3:atemp>
          </ns3:TrackPointExtension>
        </extensions>
      </trkpt>
      <trkpt lat="42.5512348674237728118896484375" lon="20.133660994470119476318359375">
        <ele>2064.60009765625</ele>
        <time>2026-06-20T07:27:43.000Z</time>
        <extensions>
          <ns3:TrackPointExtension>
            <ns3:atemp>20.0</ns3:atemp>
          </ns3:TrackPointExtension>
        </extensions>
      </trkpt>
      <trkpt lat="42.5512348674237728118896484375" lon="20.133660994470119476318359375">
        <ele>2064.60009765625</ele>
        <time>2026-06-20T07:27:44.000Z</time>
        <extensions>
          <ns3:TrackPointExtension>
            <ns3:atemp>20.0</ns3:atemp>
          </ns3:TrackPointExtension>
        </extensions>
      </trkpt>
      <trkpt lat="42.5512348674237728118896484375" lon="20.133660994470119476318359375">
        <ele>2064.60009765625</ele>
        <time>2026-06-20T07:27:45.000Z</time>
        <extensions>
          <ns3:TrackPointExtension>
            <ns3:atemp>20.0</ns3:atemp>
          </ns3:TrackPointExtension>
        </extensions>
      </trkpt>
      <trkpt lat="42.5512348674237728118896484375" lon="20.133660994470119476318359375">
        <ele>2064.60009765625</ele>
        <time>2026-06-20T07:27:46.000Z</time>
        <extensions>
          <ns3:TrackPointExtension>
            <ns3:atemp>20.0</ns3:atemp>
          </ns3:TrackPointExtension>
        </extensions>
      </trkpt>
      <trkpt lat="42.5512348674237728118896484375" lon="20.133660994470119476318359375">
        <ele>2064.60009765625</ele>
        <time>2026-06-20T07:27:47.000Z</time>
        <extensions>
          <ns3:TrackPointExtension>
            <ns3:atemp>20.0</ns3:atemp>
          </ns3:TrackPointExtension>
        </extensions>
      </trkpt>
      <trkpt lat="42.5512348674237728118896484375" lon="20.133660994470119476318359375">
        <ele>2064.60009765625</ele>
        <time>2026-06-20T07:27:48.000Z</time>
        <extensions>
          <ns3:TrackPointExtension>
            <ns3:atemp>20.0</ns3:atemp>
          </ns3:TrackPointExtension>
        </extensions>
      </trkpt>
      <trkpt lat="42.5512348674237728118896484375" lon="20.133660994470119476318359375">
        <ele>2064.60009765625</ele>
        <time>2026-06-20T07:27:49.000Z</time>
        <extensions>
          <ns3:TrackPointExtension>
            <ns3:atemp>20.0</ns3:atemp>
          </ns3:TrackPointExtension>
        </extensions>
      </trkpt>
      <trkpt lat="42.5512348674237728118896484375" lon="20.133660994470119476318359375">
        <ele>2064.60009765625</ele>
        <time>2026-06-20T07:27:50.000Z</time>
        <extensions>
          <ns3:TrackPointExtension>
            <ns3:atemp>20.0</ns3:atemp>
          </ns3:TrackPointExtension>
        </extensions>
      </trkpt>
      <trkpt lat="42.5512348674237728118896484375" lon="20.133660994470119476318359375">
        <ele>2064.60009765625</ele>
        <time>2026-06-20T07:27:51.000Z</time>
        <extensions>
          <ns3:TrackPointExtension>
            <ns3:atemp>20.0</ns3:atemp>
          </ns3:TrackPointExtension>
        </extensions>
      </trkpt>
      <trkpt lat="42.5512348674237728118896484375" lon="20.133660994470119476318359375">
        <ele>2064.60009765625</ele>
        <time>2026-06-20T07:27:52.000Z</time>
        <extensions>
          <ns3:TrackPointExtension>
            <ns3:atemp>20.0</ns3:atemp>
          </ns3:TrackPointExtension>
        </extensions>
      </trkpt>
      <trkpt lat="42.5512348674237728118896484375" lon="20.133660994470119476318359375">
        <ele>2064.60009765625</ele>
        <time>2026-06-20T07:27:53.000Z</time>
        <extensions>
          <ns3:TrackPointExtension>
            <ns3:atemp>20.0</ns3:atemp>
          </ns3:TrackPointExtension>
        </extensions>
      </trkpt>
      <trkpt lat="42.5512348674237728118896484375" lon="20.133660994470119476318359375">
        <ele>2064.60009765625</ele>
        <time>2026-06-20T07:27:54.000Z</time>
        <extensions>
          <ns3:TrackPointExtension>
            <ns3:atemp>20.0</ns3:atemp>
          </ns3:TrackPointExtension>
        </extensions>
      </trkpt>
      <trkpt lat="42.5512348674237728118896484375" lon="20.133660994470119476318359375">
        <ele>2064.60009765625</ele>
        <time>2026-06-20T07:27:55.000Z</time>
        <extensions>
          <ns3:TrackPointExtension>
            <ns3:atemp>20.0</ns3:atemp>
          </ns3:TrackPointExtension>
        </extensions>
      </trkpt>
      <trkpt lat="42.5512348674237728118896484375" lon="20.133660994470119476318359375">
        <ele>2064.60009765625</ele>
        <time>2026-06-20T07:27:56.000Z</time>
        <extensions>
          <ns3:TrackPointExtension>
            <ns3:atemp>20.0</ns3:atemp>
          </ns3:TrackPointExtension>
        </extensions>
      </trkpt>
      <trkpt lat="42.5512348674237728118896484375" lon="20.133660994470119476318359375">
        <ele>2064.60009765625</ele>
        <time>2026-06-20T07:27:57.000Z</time>
        <extensions>
          <ns3:TrackPointExtension>
            <ns3:atemp>20.0</ns3:atemp>
          </ns3:TrackPointExtension>
        </extensions>
      </trkpt>
      <trkpt lat="42.5512348674237728118896484375" lon="20.133660994470119476318359375">
        <ele>2064.60009765625</ele>
        <time>2026-06-20T07:27:58.000Z</time>
        <extensions>
          <ns3:TrackPointExtension>
            <ns3:atemp>20.0</ns3:atemp>
          </ns3:TrackPointExtension>
        </extensions>
      </trkpt>
      <trkpt lat="42.5512348674237728118896484375" lon="20.133660994470119476318359375">
        <ele>2064.60009765625</ele>
        <time>2026-06-20T07:27:59.000Z</time>
        <extensions>
          <ns3:TrackPointExtension>
            <ns3:atemp>20.0</ns3:atemp>
          </ns3:TrackPointExtension>
        </extensions>
      </trkpt>
      <trkpt lat="42.5512348674237728118896484375" lon="20.133660994470119476318359375">
        <ele>2064.60009765625</ele>
        <time>2026-06-20T07:28:00.000Z</time>
        <extensions>
          <ns3:TrackPointExtension>
            <ns3:atemp>20.0</ns3:atemp>
          </ns3:TrackPointExtension>
        </extensions>
      </trkpt>
      <trkpt lat="42.5512348674237728118896484375" lon="20.133660994470119476318359375">
        <ele>2064.60009765625</ele>
        <time>2026-06-20T07:28:01.000Z</time>
        <extensions>
          <ns3:TrackPointExtension>
            <ns3:atemp>20.0</ns3:atemp>
          </ns3:TrackPointExtension>
        </extensions>
      </trkpt>
      <trkpt lat="42.5512348674237728118896484375" lon="20.133660994470119476318359375">
        <ele>2064.60009765625</ele>
        <time>2026-06-20T07:28:02.000Z</time>
        <extensions>
          <ns3:TrackPointExtension>
            <ns3:atemp>20.0</ns3:atemp>
          </ns3:TrackPointExtension>
        </extensions>
      </trkpt>
      <trkpt lat="42.5512348674237728118896484375" lon="20.133660994470119476318359375">
        <ele>2064.60009765625</ele>
        <time>2026-06-20T07:28:03.000Z</time>
        <extensions>
          <ns3:TrackPointExtension>
            <ns3:atemp>20.0</ns3:atemp>
          </ns3:TrackPointExtension>
        </extensions>
      </trkpt>
      <trkpt lat="42.5512348674237728118896484375" lon="20.133660994470119476318359375">
        <ele>2064.60009765625</ele>
        <time>2026-06-20T07:28:04.000Z</time>
        <extensions>
          <ns3:TrackPointExtension>
            <ns3:atemp>20.0</ns3:atemp>
          </ns3:TrackPointExtension>
        </extensions>
      </trkpt>
      <trkpt lat="42.5512348674237728118896484375" lon="20.133660994470119476318359375">
        <ele>2064.60009765625</ele>
        <time>2026-06-20T07:28:05.000Z</time>
        <extensions>
          <ns3:TrackPointExtension>
            <ns3:atemp>20.0</ns3:atemp>
          </ns3:TrackPointExtension>
        </extensions>
      </trkpt>
      <trkpt lat="42.5512348674237728118896484375" lon="20.133660994470119476318359375">
        <ele>2064.60009765625</ele>
        <time>2026-06-20T07:28:06.000Z</time>
        <extensions>
          <ns3:TrackPointExtension>
            <ns3:atemp>20.0</ns3:atemp>
          </ns3:TrackPointExtension>
        </extensions>
      </trkpt>
      <trkpt lat="42.5512348674237728118896484375" lon="20.133660994470119476318359375">
        <ele>2064.60009765625</ele>
        <time>2026-06-20T07:28:07.000Z</time>
        <extensions>
          <ns3:TrackPointExtension>
            <ns3:atemp>20.0</ns3:atemp>
          </ns3:TrackPointExtension>
        </extensions>
      </trkpt>
      <trkpt lat="42.5512348674237728118896484375" lon="20.133660994470119476318359375">
        <ele>2064.60009765625</ele>
        <time>2026-06-20T07:28:08.000Z</time>
        <extensions>
          <ns3:TrackPointExtension>
            <ns3:atemp>20.0</ns3:atemp>
          </ns3:TrackPointExtension>
        </extensions>
      </trkpt>
      <trkpt lat="42.5512348674237728118896484375" lon="20.133660994470119476318359375">
        <ele>2064.60009765625</ele>
        <time>2026-06-20T07:28:09.000Z</time>
        <extensions>
          <ns3:TrackPointExtension>
            <ns3:atemp>20.0</ns3:atemp>
          </ns3:TrackPointExtension>
        </extensions>
      </trkpt>
      <trkpt lat="42.5512348674237728118896484375" lon="20.133660994470119476318359375">
        <ele>2064.60009765625</ele>
        <time>2026-06-20T07:28:10.000Z</time>
        <extensions>
          <ns3:TrackPointExtension>
            <ns3:atemp>20.0</ns3:atemp>
          </ns3:TrackPointExtension>
        </extensions>
      </trkpt>
      <trkpt lat="42.5512348674237728118896484375" lon="20.133660994470119476318359375">
        <ele>2064.60009765625</ele>
        <time>2026-06-20T07:28:11.000Z</time>
        <extensions>
          <ns3:TrackPointExtension>
            <ns3:atemp>20.0</ns3:atemp>
          </ns3:TrackPointExtension>
        </extensions>
      </trkpt>
      <trkpt lat="42.5512348674237728118896484375" lon="20.133660994470119476318359375">
        <ele>2064.60009765625</ele>
        <time>2026-06-20T07:28:12.000Z</time>
        <extensions>
          <ns3:TrackPointExtension>
            <ns3:atemp>20.0</ns3:atemp>
          </ns3:TrackPointExtension>
        </extensions>
      </trkpt>
      <trkpt lat="42.5512348674237728118896484375" lon="20.133660994470119476318359375">
        <ele>2064.60009765625</ele>
        <time>2026-06-20T07:28:13.000Z</time>
        <extensions>
          <ns3:TrackPointExtension>
            <ns3:atemp>20.0</ns3:atemp>
          </ns3:TrackPointExtension>
        </extensions>
      </trkpt>
      <trkpt lat="42.5512348674237728118896484375" lon="20.133660994470119476318359375">
        <ele>2064.60009765625</ele>
        <time>2026-06-20T07:28:14.000Z</time>
        <extensions>
          <ns3:TrackPointExtension>
            <ns3:atemp>20.0</ns3:atemp>
          </ns3:TrackPointExtension>
        </extensions>
      </trkpt>
      <trkpt lat="42.5512348674237728118896484375" lon="20.133660994470119476318359375">
        <ele>2064.60009765625</ele>
        <time>2026-06-20T07:28:15.000Z</time>
        <extensions>
          <ns3:TrackPointExtension>
            <ns3:atemp>20.0</ns3:atemp>
          </ns3:TrackPointExtension>
        </extensions>
      </trkpt>
      <trkpt lat="42.5512348674237728118896484375" lon="20.133660994470119476318359375">
        <ele>2064.60009765625</ele>
        <time>2026-06-20T07:28:16.000Z</time>
        <extensions>
          <ns3:TrackPointExtension>
            <ns3:atemp>20.0</ns3:atemp>
          </ns3:TrackPointExtension>
        </extensions>
      </trkpt>
      <trkpt lat="42.5512348674237728118896484375" lon="20.133660994470119476318359375">
        <ele>2064.60009765625</ele>
        <time>2026-06-20T07:28:17.000Z</time>
        <extensions>
          <ns3:TrackPointExtension>
            <ns3:atemp>20.0</ns3:atemp>
          </ns3:TrackPointExtension>
        </extensions>
      </trkpt>
      <trkpt lat="42.5512348674237728118896484375" lon="20.133660994470119476318359375">
        <ele>2064.60009765625</ele>
        <time>2026-06-20T07:28:18.000Z</time>
        <extensions>
          <ns3:TrackPointExtension>
            <ns3:atemp>20.0</ns3:atemp>
          </ns3:TrackPointExtension>
        </extensions>
      </trkpt>
      <trkpt lat="42.5512348674237728118896484375" lon="20.133660994470119476318359375">
        <ele>2064.60009765625</ele>
        <time>2026-06-20T07:28:19.000Z</time>
        <extensions>
          <ns3:TrackPointExtension>
            <ns3:atemp>20.0</ns3:atemp>
          </ns3:TrackPointExtension>
        </extensions>
      </trkpt>
      <trkpt lat="42.5512348674237728118896484375" lon="20.133660994470119476318359375">
        <ele>2064.60009765625</ele>
        <time>2026-06-20T07:28:20.000Z</time>
        <extensions>
          <ns3:TrackPointExtension>
            <ns3:atemp>20.0</ns3:atemp>
          </ns3:TrackPointExtension>
        </extensions>
      </trkpt>
      <trkpt lat="42.5512348674237728118896484375" lon="20.133660994470119476318359375">
        <ele>2064.60009765625</ele>
        <time>2026-06-20T07:28:21.000Z</time>
        <extensions>
          <ns3:TrackPointExtension>
            <ns3:atemp>20.0</ns3:atemp>
          </ns3:TrackPointExtension>
        </extensions>
      </trkpt>
      <trkpt lat="42.5512348674237728118896484375" lon="20.133660994470119476318359375">
        <ele>2064.60009765625</ele>
        <time>2026-06-20T07:28:22.000Z</time>
        <extensions>
          <ns3:TrackPointExtension>
            <ns3:atemp>20.0</ns3:atemp>
          </ns3:TrackPointExtension>
        </extensions>
      </trkpt>
      <trkpt lat="42.5512348674237728118896484375" lon="20.133660994470119476318359375">
        <ele>2064.60009765625</ele>
        <time>2026-06-20T07:28:23.000Z</time>
        <extensions>
          <ns3:TrackPointExtension>
            <ns3:atemp>20.0</ns3:atemp>
          </ns3:TrackPointExtension>
        </extensions>
      </trkpt>
      <trkpt lat="42.5512348674237728118896484375" lon="20.133660994470119476318359375">
        <ele>2064.60009765625</ele>
        <time>2026-06-20T07:28:24.000Z</time>
        <extensions>
          <ns3:TrackPointExtension>
            <ns3:atemp>20.0</ns3:atemp>
          </ns3:TrackPointExtension>
        </extensions>
      </trkpt>
      <trkpt lat="42.5512348674237728118896484375" lon="20.133660994470119476318359375">
        <ele>2064.60009765625</ele>
        <time>2026-06-20T07:28:25.000Z</time>
        <extensions>
          <ns3:TrackPointExtension>
            <ns3:atemp>20.0</ns3:atemp>
          </ns3:TrackPointExtension>
        </extensions>
      </trkpt>
      <trkpt lat="42.5512348674237728118896484375" lon="20.133660994470119476318359375">
        <ele>2064.60009765625</ele>
        <time>2026-06-20T07:28:26.000Z</time>
        <extensions>
          <ns3:TrackPointExtension>
            <ns3:atemp>20.0</ns3:atemp>
          </ns3:TrackPointExtension>
        </extensions>
      </trkpt>
      <trkpt lat="42.5512348674237728118896484375" lon="20.133660994470119476318359375">
        <ele>2064.60009765625</ele>
        <time>2026-06-20T07:28:27.000Z</time>
        <extensions>
          <ns3:TrackPointExtension>
            <ns3:atemp>20.0</ns3:atemp>
          </ns3:TrackPointExtension>
        </extensions>
      </trkpt>
      <trkpt lat="42.5512348674237728118896484375" lon="20.133660994470119476318359375">
        <ele>2064.60009765625</ele>
        <time>2026-06-20T07:28:28.000Z</time>
        <extensions>
          <ns3:TrackPointExtension>
            <ns3:atemp>20.0</ns3:atemp>
          </ns3:TrackPointExtension>
        </extensions>
      </trkpt>
      <trkpt lat="42.5512348674237728118896484375" lon="20.133660994470119476318359375">
        <ele>2064.60009765625</ele>
        <time>2026-06-20T07:28:29.000Z</time>
        <extensions>
          <ns3:TrackPointExtension>
            <ns3:atemp>20.0</ns3:atemp>
          </ns3:TrackPointExtension>
        </extensions>
      </trkpt>
      <trkpt lat="42.5512348674237728118896484375" lon="20.133660994470119476318359375">
        <ele>2064.60009765625</ele>
        <time>2026-06-20T07:28:30.000Z</time>
        <extensions>
          <ns3:TrackPointExtension>
            <ns3:atemp>20.0</ns3:atemp>
          </ns3:TrackPointExtension>
        </extensions>
      </trkpt>
      <trkpt lat="42.5512348674237728118896484375" lon="20.133660994470119476318359375">
        <ele>2064.60009765625</ele>
        <time>2026-06-20T07:28:31.000Z</time>
        <extensions>
          <ns3:TrackPointExtension>
            <ns3:atemp>20.0</ns3:atemp>
          </ns3:TrackPointExtension>
        </extensions>
      </trkpt>
      <trkpt lat="42.5512348674237728118896484375" lon="20.133660994470119476318359375">
        <ele>2064.60009765625</ele>
        <time>2026-06-20T07:28:32.000Z</time>
        <extensions>
          <ns3:TrackPointExtension>
            <ns3:atemp>20.0</ns3:atemp>
          </ns3:TrackPointExtension>
        </extensions>
      </trkpt>
      <trkpt lat="42.5512348674237728118896484375" lon="20.133660994470119476318359375">
        <ele>2064.60009765625</ele>
        <time>2026-06-20T07:28:33.000Z</time>
        <extensions>
          <ns3:TrackPointExtension>
            <ns3:atemp>20.0</ns3:atemp>
          </ns3:TrackPointExtension>
        </extensions>
      </trkpt>
      <trkpt lat="42.5512348674237728118896484375" lon="20.133660994470119476318359375">
        <ele>2064.60009765625</ele>
        <time>2026-06-20T07:28:34.000Z</time>
        <extensions>
          <ns3:TrackPointExtension>
            <ns3:atemp>20.0</ns3:atemp>
          </ns3:TrackPointExtension>
        </extensions>
      </trkpt>
      <trkpt lat="42.5512348674237728118896484375" lon="20.133660994470119476318359375">
        <ele>2064.60009765625</ele>
        <time>2026-06-20T07:28:35.000Z</time>
        <extensions>
          <ns3:TrackPointExtension>
            <ns3:atemp>20.0</ns3:atemp>
          </ns3:TrackPointExtension>
        </extensions>
      </trkpt>
      <trkpt lat="42.5512348674237728118896484375" lon="20.133660994470119476318359375">
        <ele>2064.60009765625</ele>
        <time>2026-06-20T07:28:36.000Z</time>
        <extensions>
          <ns3:TrackPointExtension>
            <ns3:atemp>20.0</ns3:atemp>
          </ns3:TrackPointExtension>
        </extensions>
      </trkpt>
      <trkpt lat="42.5512348674237728118896484375" lon="20.133660994470119476318359375">
        <ele>2064.60009765625</ele>
        <time>2026-06-20T07:28:37.000Z</time>
        <extensions>
          <ns3:TrackPointExtension>
            <ns3:atemp>20.0</ns3:atemp>
          </ns3:TrackPointExtension>
        </extensions>
      </trkpt>
      <trkpt lat="42.5512348674237728118896484375" lon="20.133660994470119476318359375">
        <ele>2064.60009765625</ele>
        <time>2026-06-20T07:28:38.000Z</time>
        <extensions>
          <ns3:TrackPointExtension>
            <ns3:atemp>20.0</ns3:atemp>
          </ns3:TrackPointExtension>
        </extensions>
      </trkpt>
      <trkpt lat="42.5512348674237728118896484375" lon="20.133660994470119476318359375">
        <ele>2064.60009765625</ele>
        <time>2026-06-20T07:28:39.000Z</time>
        <extensions>
          <ns3:TrackPointExtension>
            <ns3:atemp>20.0</ns3:atemp>
          </ns3:TrackPointExtension>
        </extensions>
      </trkpt>
      <trkpt lat="42.5512348674237728118896484375" lon="20.133660994470119476318359375">
        <ele>2064.60009765625</ele>
        <time>2026-06-20T07:28:40.000Z</time>
        <extensions>
          <ns3:TrackPointExtension>
            <ns3:atemp>20.0</ns3:atemp>
          </ns3:TrackPointExtension>
        </extensions>
      </trkpt>
      <trkpt lat="42.5512348674237728118896484375" lon="20.133660994470119476318359375">
        <ele>2064.60009765625</ele>
        <time>2026-06-20T07:28:41.000Z</time>
        <extensions>
          <ns3:TrackPointExtension>
            <ns3:atemp>20.0</ns3:atemp>
          </ns3:TrackPointExtension>
        </extensions>
      </trkpt>
      <trkpt lat="42.5512348674237728118896484375" lon="20.133660994470119476318359375">
        <ele>2064.60009765625</ele>
        <time>2026-06-20T07:28:42.000Z</time>
        <extensions>
          <ns3:TrackPointExtension>
            <ns3:atemp>20.0</ns3:atemp>
          </ns3:TrackPointExtension>
        </extensions>
      </trkpt>
      <trkpt lat="42.5512348674237728118896484375" lon="20.133660994470119476318359375">
        <ele>2064.60009765625</ele>
        <time>2026-06-20T07:28:43.000Z</time>
        <extensions>
          <ns3:TrackPointExtension>
            <ns3:atemp>20.0</ns3:atemp>
          </ns3:TrackPointExtension>
        </extensions>
      </trkpt>
      <trkpt lat="42.5512348674237728118896484375" lon="20.133660994470119476318359375">
        <ele>2064.60009765625</ele>
        <time>2026-06-20T07:28:44.000Z</time>
        <extensions>
          <ns3:TrackPointExtension>
            <ns3:atemp>20.0</ns3:atemp>
          </ns3:TrackPointExtension>
        </extensions>
      </trkpt>
      <trkpt lat="42.5512348674237728118896484375" lon="20.133660994470119476318359375">
        <ele>2064.60009765625</ele>
        <time>2026-06-20T07:28:45.000Z</time>
        <extensions>
          <ns3:TrackPointExtension>
            <ns3:atemp>20.0</ns3:atemp>
          </ns3:TrackPointExtension>
        </extensions>
      </trkpt>
      <trkpt lat="42.5512348674237728118896484375" lon="20.133660994470119476318359375">
        <ele>2064.60009765625</ele>
        <time>2026-06-20T07:28:46.000Z</time>
        <extensions>
          <ns3:TrackPointExtension>
            <ns3:atemp>20.0</ns3:atemp>
          </ns3:TrackPointExtension>
        </extensions>
      </trkpt>
      <trkpt lat="42.5512348674237728118896484375" lon="20.133660994470119476318359375">
        <ele>2064.60009765625</ele>
        <time>2026-06-20T07:28:47.000Z</time>
        <extensions>
          <ns3:TrackPointExtension>
            <ns3:atemp>20.0</ns3:atemp>
          </ns3:TrackPointExtension>
        </extensions>
      </trkpt>
      <trkpt lat="42.5512348674237728118896484375" lon="20.133660994470119476318359375">
        <ele>2064.60009765625</ele>
        <time>2026-06-20T07:28:48.000Z</time>
        <extensions>
          <ns3:TrackPointExtension>
            <ns3:atemp>20.0</ns3:atemp>
          </ns3:TrackPointExtension>
        </extensions>
      </trkpt>
      <trkpt lat="42.5512348674237728118896484375" lon="20.133660994470119476318359375">
        <ele>2064.60009765625</ele>
        <time>2026-06-20T07:28:49.000Z</time>
        <extensions>
          <ns3:TrackPointExtension>
            <ns3:atemp>20.0</ns3:atemp>
          </ns3:TrackPointExtension>
        </extensions>
      </trkpt>
      <trkpt lat="42.5512348674237728118896484375" lon="20.133660994470119476318359375">
        <ele>2064.60009765625</ele>
        <time>2026-06-20T07:28:50.000Z</time>
        <extensions>
          <ns3:TrackPointExtension>
            <ns3:atemp>20.0</ns3:atemp>
          </ns3:TrackPointExtension>
        </extensions>
      </trkpt>
      <trkpt lat="42.5512348674237728118896484375" lon="20.133660994470119476318359375">
        <ele>2064.60009765625</ele>
        <time>2026-06-20T07:28:51.000Z</time>
        <extensions>
          <ns3:TrackPointExtension>
            <ns3:atemp>20.0</ns3:atemp>
          </ns3:TrackPointExtension>
        </extensions>
      </trkpt>
      <trkpt lat="42.5512348674237728118896484375" lon="20.133660994470119476318359375">
        <ele>2064.60009765625</ele>
        <time>2026-06-20T07:28:52.000Z</time>
        <extensions>
          <ns3:TrackPointExtension>
            <ns3:atemp>20.0</ns3:atemp>
          </ns3:TrackPointExtension>
        </extensions>
      </trkpt>
      <trkpt lat="42.5512348674237728118896484375" lon="20.133660994470119476318359375">
        <ele>2064.60009765625</ele>
        <time>2026-06-20T07:28:53.000Z</time>
        <extensions>
          <ns3:TrackPointExtension>
            <ns3:atemp>20.0</ns3:atemp>
          </ns3:TrackPointExtension>
        </extensions>
      </trkpt>
      <trkpt lat="42.551232017576694488525390625" lon="20.13366040773689746856689453125">
        <ele>2064.60009765625</ele>
        <time>2026-06-20T07:28:54.000Z</time>
        <extensions>
          <ns3:TrackPointExtension>
            <ns3:atemp>20.0</ns3:atemp>
          </ns3:TrackPointExtension>
        </extensions>
      </trkpt>
      <trkpt lat="42.55121986381709575653076171875" lon="20.13366946019232273101806640625">
        <ele>2064.60009765625</ele>
        <time>2026-06-20T07:28:55.000Z</time>
        <extensions>
          <ns3:TrackPointExtension>
            <ns3:atemp>20.0</ns3:atemp>
          </ns3:TrackPointExtension>
        </extensions>
      </trkpt>
      <trkpt lat="42.551217935979366302490234375" lon="20.1336853019893169403076171875">
        <ele>2064.800048828125</ele>
        <time>2026-06-20T07:28:56.000Z</time>
        <extensions>
          <ns3:TrackPointExtension>
            <ns3:atemp>20.0</ns3:atemp>
          </ns3:TrackPointExtension>
        </extensions>
      </trkpt>
      <trkpt lat="42.55121600814163684844970703125" lon="20.13371187262237071990966796875">
        <ele>2064.60009765625</ele>
        <time>2026-06-20T07:28:57.000Z</time>
        <extensions>
          <ns3:TrackPointExtension>
            <ns3:atemp>20.0</ns3:atemp>
          </ns3:TrackPointExtension>
        </extensions>
      </trkpt>
      <trkpt lat="42.55122439004480838775634765625" lon="20.1337453164160251617431640625">
        <ele>2064.39990234375</ele>
        <time>2026-06-20T07:28:58.000Z</time>
        <extensions>
          <ns3:TrackPointExtension>
            <ns3:atemp>20.0</ns3:atemp>
          </ns3:TrackPointExtension>
        </extensions>
      </trkpt>
      <trkpt lat="42.551240734755992889404296875" lon="20.13377557508647441864013671875">
        <ele>2064.199951171875</ele>
        <time>2026-06-20T07:28:59.000Z</time>
        <extensions>
          <ns3:TrackPointExtension>
            <ns3:atemp>20.0</ns3:atemp>
          </ns3:TrackPointExtension>
        </extensions>
      </trkpt>
      <trkpt lat="42.5512611865997314453125" lon="20.13380474410951137542724609375">
        <ele>2063.800048828125</ele>
        <time>2026-06-20T07:29:00.000Z</time>
        <extensions>
          <ns3:TrackPointExtension>
            <ns3:atemp>20.0</ns3:atemp>
          </ns3:TrackPointExtension>
        </extensions>
      </trkpt>
      <trkpt lat="42.55128021351993083953857421875" lon="20.13382963836193084716796875">
        <ele>2063.39990234375</ele>
        <time>2026-06-20T07:29:01.000Z</time>
        <extensions>
          <ns3:TrackPointExtension>
            <ns3:atemp>20.0</ns3:atemp>
          </ns3:TrackPointExtension>
        </extensions>
      </trkpt>
      <trkpt lat="42.55129781551659107208251953125" lon="20.13384573161602020263671875">
        <ele>2063.199951171875</ele>
        <time>2026-06-20T07:29:02.000Z</time>
        <extensions>
          <ns3:TrackPointExtension>
            <ns3:atemp>20.0</ns3:atemp>
          </ns3:TrackPointExtension>
        </extensions>
      </trkpt>
      <trkpt lat="42.55131558515131473541259765625" lon="20.1338583044707775115966796875">
        <ele>2063.199951171875</ele>
        <time>2026-06-20T07:29:03.000Z</time>
        <extensions>
          <ns3:TrackPointExtension>
            <ns3:atemp>20.0</ns3:atemp>
          </ns3:TrackPointExtension>
        </extensions>
      </trkpt>
      <trkpt lat="42.5513341091573238372802734375" lon="20.1338653452694416046142578125">
        <ele>2063</ele>
        <time>2026-06-20T07:29:04.000Z</time>
        <extensions>
          <ns3:TrackPointExtension>
            <ns3:atemp>20.0</ns3:atemp>
          </ns3:TrackPointExtension>
        </extensions>
      </trkpt>
      <trkpt lat="42.55134928040206432342529296875" lon="20.13388286344707012176513671875">
        <ele>2063</ele>
        <time>2026-06-20T07:29:05.000Z</time>
        <extensions>
          <ns3:TrackPointExtension>
            <ns3:atemp>20.0</ns3:atemp>
          </ns3:TrackPointExtension>
        </extensions>
      </trkpt>
      <trkpt lat="42.551357746124267578125" lon="20.13390247710049152374267578125">
        <ele>2062.800048828125</ele>
        <time>2026-06-20T07:29:06.000Z</time>
        <extensions>
          <ns3:TrackPointExtension>
            <ns3:atemp>20.0</ns3:atemp>
          </ns3:TrackPointExtension>
        </extensions>
      </trkpt>
      <trkpt lat="42.55137207917869091033935546875" lon="20.13392846100032329559326171875">
        <ele>2062.800048828125</ele>
        <time>2026-06-20T07:29:07.000Z</time>
        <extensions>
          <ns3:TrackPointExtension>
            <ns3:atemp>20.0</ns3:atemp>
          </ns3:TrackPointExtension>
        </extensions>
      </trkpt>
      <trkpt lat="42.551384903490543365478515625" lon="20.1339669339358806610107421875">
        <ele>2062.39990234375</ele>
        <time>2026-06-20T07:29:08.000Z</time>
        <extensions>
          <ns3:TrackPointExtension>
            <ns3:atemp>20.0</ns3:atemp>
          </ns3:TrackPointExtension>
        </extensions>
      </trkpt>
      <trkpt lat="42.551400661468505859375" lon="20.1340165548026561737060546875">
        <ele>2062</ele>
        <time>2026-06-20T07:29:09.000Z</time>
        <extensions>
          <ns3:TrackPointExtension>
            <ns3:atemp>20.0</ns3:atemp>
          </ns3:TrackPointExtension>
        </extensions>
      </trkpt>
      <trkpt lat="42.55142605863511562347412109375" lon="20.1340691931545734405517578125">
        <ele>2061.60009765625</ele>
        <time>2026-06-20T07:29:10.000Z</time>
        <extensions>
          <ns3:TrackPointExtension>
            <ns3:atemp>20.0</ns3:atemp>
          </ns3:TrackPointExtension>
        </extensions>
      </trkpt>
      <trkpt lat="42.55145506002008914947509765625" lon="20.13412409462034702301025390625">
        <ele>2061</ele>
        <time>2026-06-20T07:29:11.000Z</time>
        <extensions>
          <ns3:TrackPointExtension>
            <ns3:atemp>20.0</ns3:atemp>
          </ns3:TrackPointExtension>
        </extensions>
      </trkpt>
      <trkpt lat="42.55148003809154033660888671875" lon="20.13418897055089473724365234375">
        <ele>2060.39990234375</ele>
        <time>2026-06-20T07:29:12.000Z</time>
        <extensions>
          <ns3:TrackPointExtension>
            <ns3:atemp>20.0</ns3:atemp>
          </ns3:TrackPointExtension>
        </extensions>
      </trkpt>
      <trkpt lat="42.55149713717401027679443359375" lon="20.1342586241662502288818359375">
        <ele>2059.800048828125</ele>
        <time>2026-06-20T07:29:13.000Z</time>
        <extensions>
          <ns3:TrackPointExtension>
            <ns3:atemp>20.0</ns3:atemp>
          </ns3:TrackPointExtension>
        </extensions>
      </trkpt>
      <trkpt lat="42.551507614552974700927734375" lon="20.134321153163909912109375">
        <ele>2059.39990234375</ele>
        <time>2026-06-20T07:29:14.000Z</time>
        <extensions>
          <ns3:TrackPointExtension>
            <ns3:atemp>20.0</ns3:atemp>
          </ns3:TrackPointExtension>
        </extensions>
      </trkpt>
      <trkpt lat="42.55151574499905109405517578125" lon="20.1343753002583980560302734375">
        <ele>2058.800048828125</ele>
        <time>2026-06-20T07:29:15.000Z</time>
        <extensions>
          <ns3:TrackPointExtension>
            <ns3:atemp>20.0</ns3:atemp>
          </ns3:TrackPointExtension>
        </extensions>
      </trkpt>
      <trkpt lat="42.55153477191925048828125" lon="20.13442165218293666839599609375">
        <ele>2058.39990234375</ele>
        <time>2026-06-20T07:29:16.000Z</time>
        <extensions>
          <ns3:TrackPointExtension>
            <ns3:atemp>20.0</ns3:atemp>
          </ns3:TrackPointExtension>
        </extensions>
      </trkpt>
      <trkpt lat="42.55155547522008419036865234375" lon="20.13446238823235034942626953125">
        <ele>2058</ele>
        <time>2026-06-20T07:29:17.000Z</time>
        <extensions>
          <ns3:TrackPointExtension>
            <ns3:atemp>20.0</ns3:atemp>
          </ns3:TrackPointExtension>
        </extensions>
      </trkpt>
      <trkpt lat="42.55157743580639362335205078125" lon="20.13449809513986110687255859375">
        <ele>2057.60009765625</ele>
        <time>2026-06-20T07:29:18.000Z</time>
        <extensions>
          <ns3:TrackPointExtension>
            <ns3:atemp>20.0</ns3:atemp>
          </ns3:TrackPointExtension>
        </extensions>
      </trkpt>
      <trkpt lat="42.55159554071724414825439453125" lon="20.1345251686871051788330078125">
        <ele>2057.39990234375</ele>
        <time>2026-06-20T07:29:19.000Z</time>
        <extensions>
          <ns3:TrackPointExtension>
            <ns3:atemp>20.0</ns3:atemp>
          </ns3:TrackPointExtension>
        </extensions>
      </trkpt>
      <trkpt lat="42.5516140647232532501220703125" lon="20.13454637490212917327880859375">
        <ele>2057.199951171875</ele>
        <time>2026-06-20T07:29:20.000Z</time>
        <extensions>
          <ns3:TrackPointExtension>
            <ns3:atemp>20.0</ns3:atemp>
          </ns3:TrackPointExtension>
        </extensions>
      </trkpt>
      <trkpt lat="42.5516371987760066986083984375" lon="20.134569592773914337158203125">
        <ele>2057</ele>
        <time>2026-06-20T07:29:21.000Z</time>
        <extensions>
          <ns3:TrackPointExtension>
            <ns3:atemp>20.0</ns3:atemp>
          </ns3:TrackPointExtension>
        </extensions>
      </trkpt>
      <trkpt lat="42.55166309885680675506591796875" lon="20.1345935650169849395751953125">
        <ele>2056.60009765625</ele>
        <time>2026-06-20T07:29:22.000Z</time>
        <extensions>
          <ns3:TrackPointExtension>
            <ns3:atemp>20.0</ns3:atemp>
          </ns3:TrackPointExtension>
        </extensions>
      </trkpt>
      <trkpt lat="42.55169008858501911163330078125" lon="20.13462432660162448883056640625">
        <ele>2056.199951171875</ele>
        <time>2026-06-20T07:29:23.000Z</time>
        <extensions>
          <ns3:TrackPointExtension>
            <ns3:atemp>20.0</ns3:atemp>
          </ns3:TrackPointExtension>
        </extensions>
      </trkpt>
      <trkpt lat="42.5517169944941997528076171875" lon="20.1346596144139766693115234375">
        <ele>2056</ele>
        <time>2026-06-20T07:29:24.000Z</time>
        <extensions>
          <ns3:TrackPointExtension>
            <ns3:atemp>20.0</ns3:atemp>
          </ns3:TrackPointExtension>
        </extensions>
      </trkpt>
      <trkpt lat="42.551745660603046417236328125" lon="20.1346988417208194732666015625">
        <ele>2055.39990234375</ele>
        <time>2026-06-20T07:29:25.000Z</time>
        <extensions>
          <ns3:TrackPointExtension>
            <ns3:atemp>20.0</ns3:atemp>
          </ns3:TrackPointExtension>
        </extensions>
      </trkpt>
      <trkpt lat="42.5517676211893558502197265625" lon="20.13474762439727783203125">
        <ele>2055</ele>
        <time>2026-06-20T07:29:26.000Z</time>
        <extensions>
          <ns3:TrackPointExtension>
            <ns3:atemp>20.0</ns3:atemp>
          </ns3:TrackPointExtension>
        </extensions>
      </trkpt>
      <trkpt lat="42.5517877377569675445556640625" lon="20.13480353169143199920654296875">
        <ele>2054.39990234375</ele>
        <time>2026-06-20T07:29:27.000Z</time>
        <extensions>
          <ns3:TrackPointExtension>
            <ns3:atemp>20.0</ns3:atemp>
          </ns3:TrackPointExtension>
        </extensions>
      </trkpt>
      <trkpt lat="42.55180877633392810821533203125" lon="20.13485365547239780426025390625">
        <ele>2054</ele>
        <time>2026-06-20T07:29:28.000Z</time>
        <extensions>
          <ns3:TrackPointExtension>
            <ns3:atemp>20.0</ns3:atemp>
          </ns3:TrackPointExtension>
        </extensions>
      </trkpt>
      <trkpt lat="42.55183090455830097198486328125" lon="20.13489925302565097808837890625">
        <ele>2053.39990234375</ele>
        <time>2026-06-20T07:29:29.000Z</time>
        <extensions>
          <ns3:TrackPointExtension>
            <ns3:atemp>20.0</ns3:atemp>
          </ns3:TrackPointExtension>
        </extensions>
      </trkpt>
      <trkpt lat="42.551853954792022705078125" lon="20.13493948616087436676025390625">
        <ele>2053.199951171875</ele>
        <time>2026-06-20T07:29:30.000Z</time>
        <extensions>
          <ns3:TrackPointExtension>
            <ns3:atemp>20.0</ns3:atemp>
          </ns3:TrackPointExtension>
        </extensions>
      </trkpt>
      <trkpt lat="42.55187365226447582244873046875" lon="20.13497049920260906219482421875">
        <ele>2053.199951171875</ele>
        <time>2026-06-20T07:29:31.000Z</time>
        <extensions>
          <ns3:TrackPointExtension>
            <ns3:atemp>20.0</ns3:atemp>
          </ns3:TrackPointExtension>
        </extensions>
      </trkpt>
      <trkpt lat="42.5518901646137237548828125" lon="20.134999416768550872802734375">
        <ele>2053</ele>
        <time>2026-06-20T07:29:32.000Z</time>
        <extensions>
          <ns3:TrackPointExtension>
            <ns3:atemp>20.0</ns3:atemp>
          </ns3:TrackPointExtension>
        </extensions>
      </trkpt>
      <trkpt lat="42.55190961062908172607421875" lon="20.135026238858699798583984375">
        <ele>2053.199951171875</ele>
        <time>2026-06-20T07:29:33.000Z</time>
        <extensions>
          <ns3:TrackPointExtension>
            <ns3:atemp>20.0</ns3:atemp>
          </ns3:TrackPointExtension>
        </extensions>
      </trkpt>
      <trkpt lat="42.5519325770437717437744140625" lon="20.13504342176020145416259765625">
        <ele>2053.199951171875</ele>
        <time>2026-06-20T07:29:34.000Z</time>
        <extensions>
          <ns3:TrackPointExtension>
            <ns3:atemp>20.0</ns3:atemp>
          </ns3:TrackPointExtension>
        </extensions>
      </trkpt>
      <trkpt lat="42.5519577227532863616943359375" lon="20.1350592635571956634521484375">
        <ele>2053</ele>
        <time>2026-06-20T07:29:35.000Z</time>
        <extensions>
          <ns3:TrackPointExtension>
            <ns3:atemp>20.0</ns3:atemp>
          </ns3:TrackPointExtension>
        </extensions>
      </trkpt>
      <trkpt lat="42.55198529921472072601318359375" lon="20.13507678173482418060302734375">
        <ele>2053</ele>
        <time>2026-06-20T07:29:36.000Z</time>
        <extensions>
          <ns3:TrackPointExtension>
            <ns3:atemp>20.0</ns3:atemp>
          </ns3:TrackPointExtension>
        </extensions>
      </trkpt>
      <trkpt lat="42.55201798863708972930908203125" lon="20.135093629360198974609375">
        <ele>2052.800048828125</ele>
        <time>2026-06-20T07:29:37.000Z</time>
        <extensions>
          <ns3:TrackPointExtension>
            <ns3:atemp>20.0</ns3:atemp>
          </ns3:TrackPointExtension>
        </extensions>
      </trkpt>
      <trkpt lat="42.552047409117221832275390625" lon="20.13511265628039836883544921875">
        <ele>2052.39990234375</ele>
        <time>2026-06-20T07:29:38.000Z</time>
        <extensions>
          <ns3:TrackPointExtension>
            <ns3:atemp>20.0</ns3:atemp>
          </ns3:TrackPointExtension>
        </extensions>
      </trkpt>
      <trkpt lat="42.55207196809351444244384765625" lon="20.13513989746570587158203125">
        <ele>2052.199951171875</ele>
        <time>2026-06-20T07:29:39.000Z</time>
        <extensions>
          <ns3:TrackPointExtension>
            <ns3:atemp>20.0</ns3:atemp>
          </ns3:TrackPointExtension>
        </extensions>
      </trkpt>
      <trkpt lat="42.55209091119468212127685546875" lon="20.13517032377421855926513671875">
        <ele>2052</ele>
        <time>2026-06-20T07:29:40.000Z</time>
        <extensions>
          <ns3:TrackPointExtension>
            <ns3:atemp>20.0</ns3:atemp>
          </ns3:TrackPointExtension>
        </extensions>
      </trkpt>
      <trkpt lat="42.55210666917264461517333984375" lon="20.13519890606403350830078125">
        <ele>2051.60009765625</ele>
        <time>2026-06-20T07:29:41.000Z</time>
        <extensions>
          <ns3:TrackPointExtension>
            <ns3:atemp>20.0</ns3:atemp>
          </ns3:TrackPointExtension>
        </extensions>
      </trkpt>
      <trkpt lat="42.5521213375031948089599609375" lon="20.1352252252399921417236328125">
        <ele>2051.199951171875</ele>
        <time>2026-06-20T07:29:42.000Z</time>
        <extensions>
          <ns3:TrackPointExtension>
            <ns3:atemp>20.0</ns3:atemp>
          </ns3:TrackPointExtension>
        </extensions>
      </trkpt>
      <trkpt lat="42.5521377660334110260009765625" lon="20.13525414280593395233154296875">
        <ele>2051</ele>
        <time>2026-06-20T07:29:43.000Z</time>
        <extensions>
          <ns3:TrackPointExtension>
            <ns3:atemp>20.0</ns3:atemp>
          </ns3:TrackPointExtension>
        </extensions>
      </trkpt>
      <trkpt lat="42.55215503275394439697265625" lon="20.1352741755545139312744140625">
        <ele>2050.800048828125</ele>
        <time>2026-06-20T07:29:44.000Z</time>
        <extensions>
          <ns3:TrackPointExtension>
            <ns3:atemp>20.0</ns3:atemp>
          </ns3:TrackPointExtension>
        </extensions>
      </trkpt>
      <trkpt lat="42.55217171274125576019287109375" lon="20.135297477245330810546875">
        <ele>2050.60009765625</ele>
        <time>2026-06-20T07:29:45.000Z</time>
        <extensions>
          <ns3:TrackPointExtension>
            <ns3:atemp>20.0</ns3:atemp>
          </ns3:TrackPointExtension>
        </extensions>
      </trkpt>
      <trkpt lat="42.55217607133090496063232421875" lon="20.1353103853762149810791015625">
        <ele>2050.199951171875</ele>
        <time>2026-06-20T07:29:46.000Z</time>
        <extensions>
          <ns3:TrackPointExtension>
            <ns3:atemp>20.0</ns3:atemp>
          </ns3:TrackPointExtension>
        </extensions>
      </trkpt>
      <trkpt lat="42.55217204801738262176513671875" lon="20.1353095471858978271484375">
        <ele>2050</ele>
        <time>2026-06-20T07:29:47.000Z</time>
        <extensions>
          <ns3:TrackPointExtension>
            <ns3:atemp>20.0</ns3:atemp>
          </ns3:TrackPointExtension>
        </extensions>
      </trkpt>
      <trkpt lat="42.55216970108449459075927734375" lon="20.13530711643397808074951171875">
        <ele>2049.800048828125</ele>
        <time>2026-06-20T07:29:48.000Z</time>
        <extensions>
          <ns3:TrackPointExtension>
            <ns3:atemp>20.0</ns3:atemp>
          </ns3:TrackPointExtension>
        </extensions>
      </trkpt>
      <trkpt lat="42.55216970108449459075927734375" lon="20.13530711643397808074951171875">
        <ele>2049.60009765625</ele>
        <time>2026-06-20T07:29:49.000Z</time>
        <extensions>
          <ns3:TrackPointExtension>
            <ns3:atemp>20.0</ns3:atemp>
          </ns3:TrackPointExtension>
        </extensions>
      </trkpt>
      <trkpt lat="42.55216970108449459075927734375" lon="20.13530711643397808074951171875">
        <ele>2049.60009765625</ele>
        <time>2026-06-20T07:29:50.000Z</time>
        <extensions>
          <ns3:TrackPointExtension>
            <ns3:atemp>20.0</ns3:atemp>
          </ns3:TrackPointExtension>
        </extensions>
      </trkpt>
      <trkpt lat="42.55216970108449459075927734375" lon="20.13530711643397808074951171875">
        <ele>2049.60009765625</ele>
        <time>2026-06-20T07:29:51.000Z</time>
        <extensions>
          <ns3:TrackPointExtension>
            <ns3:atemp>20.0</ns3:atemp>
          </ns3:TrackPointExtension>
        </extensions>
      </trkpt>
      <trkpt lat="42.55216970108449459075927734375" lon="20.13530711643397808074951171875">
        <ele>2049.60009765625</ele>
        <time>2026-06-20T07:29:52.000Z</time>
        <extensions>
          <ns3:TrackPointExtension>
            <ns3:atemp>20.0</ns3:atemp>
          </ns3:TrackPointExtension>
        </extensions>
      </trkpt>
      <trkpt lat="42.55216970108449459075927734375" lon="20.13530711643397808074951171875">
        <ele>2049.60009765625</ele>
        <time>2026-06-20T07:29:53.000Z</time>
        <extensions>
          <ns3:TrackPointExtension>
            <ns3:atemp>20.0</ns3:atemp>
          </ns3:TrackPointExtension>
        </extensions>
      </trkpt>
      <trkpt lat="42.55216970108449459075927734375" lon="20.13530711643397808074951171875">
        <ele>2049.39990234375</ele>
        <time>2026-06-20T07:29:54.000Z</time>
        <extensions>
          <ns3:TrackPointExtension>
            <ns3:atemp>20.0</ns3:atemp>
          </ns3:TrackPointExtension>
        </extensions>
      </trkpt>
      <trkpt lat="42.55216970108449459075927734375" lon="20.13530711643397808074951171875">
        <ele>2049.39990234375</ele>
        <time>2026-06-20T07:29:55.000Z</time>
        <extensions>
          <ns3:TrackPointExtension>
            <ns3:atemp>20.0</ns3:atemp>
          </ns3:TrackPointExtension>
        </extensions>
      </trkpt>
      <trkpt lat="42.55216970108449459075927734375" lon="20.13530711643397808074951171875">
        <ele>2049.39990234375</ele>
        <time>2026-06-20T07:29:56.000Z</time>
        <extensions>
          <ns3:TrackPointExtension>
            <ns3:atemp>20.0</ns3:atemp>
          </ns3:TrackPointExtension>
        </extensions>
      </trkpt>
      <trkpt lat="42.55216970108449459075927734375" lon="20.13530711643397808074951171875">
        <ele>2049.39990234375</ele>
        <time>2026-06-20T07:29:57.000Z</time>
        <extensions>
          <ns3:TrackPointExtension>
            <ns3:atemp>20.0</ns3:atemp>
          </ns3:TrackPointExtension>
        </extensions>
      </trkpt>
      <trkpt lat="42.55216970108449459075927734375" lon="20.13530711643397808074951171875">
        <ele>2049.39990234375</ele>
        <time>2026-06-20T07:29:58.000Z</time>
        <extensions>
          <ns3:TrackPointExtension>
            <ns3:atemp>20.0</ns3:atemp>
          </ns3:TrackPointExtension>
        </extensions>
      </trkpt>
      <trkpt lat="42.55216970108449459075927734375" lon="20.13530711643397808074951171875">
        <ele>2049.39990234375</ele>
        <time>2026-06-20T07:29:59.000Z</time>
        <extensions>
          <ns3:TrackPointExtension>
            <ns3:atemp>20.0</ns3:atemp>
          </ns3:TrackPointExtension>
        </extensions>
      </trkpt>
      <trkpt lat="42.55216970108449459075927734375" lon="20.13530711643397808074951171875">
        <ele>2049.39990234375</ele>
        <time>2026-06-20T07:30:00.000Z</time>
        <extensions>
          <ns3:TrackPointExtension>
            <ns3:atemp>20.0</ns3:atemp>
          </ns3:TrackPointExtension>
        </extensions>
      </trkpt>
      <trkpt lat="42.55216970108449459075927734375" lon="20.13530711643397808074951171875">
        <ele>2049.39990234375</ele>
        <time>2026-06-20T07:30:01.000Z</time>
        <extensions>
          <ns3:TrackPointExtension>
            <ns3:atemp>20.0</ns3:atemp>
          </ns3:TrackPointExtension>
        </extensions>
      </trkpt>
      <trkpt lat="42.55216970108449459075927734375" lon="20.13530711643397808074951171875">
        <ele>2049.39990234375</ele>
        <time>2026-06-20T07:30:02.000Z</time>
        <extensions>
          <ns3:TrackPointExtension>
            <ns3:atemp>20.0</ns3:atemp>
          </ns3:TrackPointExtension>
        </extensions>
      </trkpt>
      <trkpt lat="42.55216970108449459075927734375" lon="20.13530711643397808074951171875">
        <ele>2049.39990234375</ele>
        <time>2026-06-20T07:30:03.000Z</time>
        <extensions>
          <ns3:TrackPointExtension>
            <ns3:atemp>20.0</ns3:atemp>
          </ns3:TrackPointExtension>
        </extensions>
      </trkpt>
      <trkpt lat="42.55216970108449459075927734375" lon="20.13530711643397808074951171875">
        <ele>2049.199951171875</ele>
        <time>2026-06-20T07:30:04.000Z</time>
        <extensions>
          <ns3:TrackPointExtension>
            <ns3:atemp>20.0</ns3:atemp>
          </ns3:TrackPointExtension>
        </extensions>
      </trkpt>
      <trkpt lat="42.55216970108449459075927734375" lon="20.13530711643397808074951171875">
        <ele>2049.199951171875</ele>
        <time>2026-06-20T07:30:05.000Z</time>
        <extensions>
          <ns3:TrackPointExtension>
            <ns3:atemp>20.0</ns3:atemp>
          </ns3:TrackPointExtension>
        </extensions>
      </trkpt>
      <trkpt lat="42.55216970108449459075927734375" lon="20.13530711643397808074951171875">
        <ele>2049.199951171875</ele>
        <time>2026-06-20T07:30:06.000Z</time>
        <extensions>
          <ns3:TrackPointExtension>
            <ns3:atemp>20.0</ns3:atemp>
          </ns3:TrackPointExtension>
        </extensions>
      </trkpt>
      <trkpt lat="42.55216970108449459075927734375" lon="20.13530711643397808074951171875">
        <ele>2049.199951171875</ele>
        <time>2026-06-20T07:30:07.000Z</time>
        <extensions>
          <ns3:TrackPointExtension>
            <ns3:atemp>20.0</ns3:atemp>
          </ns3:TrackPointExtension>
        </extensions>
      </trkpt>
      <trkpt lat="42.55216970108449459075927734375" lon="20.13530711643397808074951171875">
        <ele>2049</ele>
        <time>2026-06-20T07:30:08.000Z</time>
        <extensions>
          <ns3:TrackPointExtension>
            <ns3:atemp>20.0</ns3:atemp>
          </ns3:TrackPointExtension>
        </extensions>
      </trkpt>
      <trkpt lat="42.55216970108449459075927734375" lon="20.13530711643397808074951171875">
        <ele>2049</ele>
        <time>2026-06-20T07:30:09.000Z</time>
        <extensions>
          <ns3:TrackPointExtension>
            <ns3:atemp>20.0</ns3:atemp>
          </ns3:TrackPointExtension>
        </extensions>
      </trkpt>
      <trkpt lat="42.55216970108449459075927734375" lon="20.13530711643397808074951171875">
        <ele>2049</ele>
        <time>2026-06-20T07:30:10.000Z</time>
        <extensions>
          <ns3:TrackPointExtension>
            <ns3:atemp>20.0</ns3:atemp>
          </ns3:TrackPointExtension>
        </extensions>
      </trkpt>
      <trkpt lat="42.55216970108449459075927734375" lon="20.13530711643397808074951171875">
        <ele>2049.199951171875</ele>
        <time>2026-06-20T07:30:11.000Z</time>
        <extensions>
          <ns3:TrackPointExtension>
            <ns3:atemp>20.0</ns3:atemp>
          </ns3:TrackPointExtension>
        </extensions>
      </trkpt>
      <trkpt lat="42.55216970108449459075927734375" lon="20.13530711643397808074951171875">
        <ele>2049.199951171875</ele>
        <time>2026-06-20T07:30:12.000Z</time>
        <extensions>
          <ns3:TrackPointExtension>
            <ns3:atemp>20.0</ns3:atemp>
          </ns3:TrackPointExtension>
        </extensions>
      </trkpt>
      <trkpt lat="42.55216970108449459075927734375" lon="20.13530711643397808074951171875">
        <ele>2049</ele>
        <time>2026-06-20T07:30:13.000Z</time>
        <extensions>
          <ns3:TrackPointExtension>
            <ns3:atemp>20.0</ns3:atemp>
          </ns3:TrackPointExtension>
        </extensions>
      </trkpt>
      <trkpt lat="42.55216970108449459075927734375" lon="20.13530711643397808074951171875">
        <ele>2049</ele>
        <time>2026-06-20T07:30:14.000Z</time>
        <extensions>
          <ns3:TrackPointExtension>
            <ns3:atemp>20.0</ns3:atemp>
          </ns3:TrackPointExtension>
        </extensions>
      </trkpt>
      <trkpt lat="42.55216970108449459075927734375" lon="20.13530711643397808074951171875">
        <ele>2049</ele>
        <time>2026-06-20T07:30:15.000Z</time>
        <extensions>
          <ns3:TrackPointExtension>
            <ns3:atemp>20.0</ns3:atemp>
          </ns3:TrackPointExtension>
        </extensions>
      </trkpt>
      <trkpt lat="42.55216970108449459075927734375" lon="20.13530711643397808074951171875">
        <ele>2049</ele>
        <time>2026-06-20T07:30:16.000Z</time>
        <extensions>
          <ns3:TrackPointExtension>
            <ns3:atemp>20.0</ns3:atemp>
          </ns3:TrackPointExtension>
        </extensions>
      </trkpt>
      <trkpt lat="42.55216970108449459075927734375" lon="20.13530711643397808074951171875">
        <ele>2049</ele>
        <time>2026-06-20T07:30:17.000Z</time>
        <extensions>
          <ns3:TrackPointExtension>
            <ns3:atemp>20.0</ns3:atemp>
          </ns3:TrackPointExtension>
        </extensions>
      </trkpt>
      <trkpt lat="42.55216970108449459075927734375" lon="20.13530711643397808074951171875">
        <ele>2049</ele>
        <time>2026-06-20T07:30:18.000Z</time>
        <extensions>
          <ns3:TrackPointExtension>
            <ns3:atemp>20.0</ns3:atemp>
          </ns3:TrackPointExtension>
        </extensions>
      </trkpt>
      <trkpt lat="42.55216970108449459075927734375" lon="20.13530711643397808074951171875">
        <ele>2049</ele>
        <time>2026-06-20T07:30:19.000Z</time>
        <extensions>
          <ns3:TrackPointExtension>
            <ns3:atemp>20.0</ns3:atemp>
          </ns3:TrackPointExtension>
        </extensions>
      </trkpt>
      <trkpt lat="42.55216970108449459075927734375" lon="20.13530711643397808074951171875">
        <ele>2049</ele>
        <time>2026-06-20T07:30:20.000Z</time>
        <extensions>
          <ns3:TrackPointExtension>
            <ns3:atemp>20.0</ns3:atemp>
          </ns3:TrackPointExtension>
        </extensions>
      </trkpt>
      <trkpt lat="42.55216970108449459075927734375" lon="20.13530711643397808074951171875">
        <ele>2049</ele>
        <time>2026-06-20T07:30:21.000Z</time>
        <extensions>
          <ns3:TrackPointExtension>
            <ns3:atemp>20.0</ns3:atemp>
          </ns3:TrackPointExtension>
        </extensions>
      </trkpt>
      <trkpt lat="42.55216970108449459075927734375" lon="20.13530711643397808074951171875">
        <ele>2048.800048828125</ele>
        <time>2026-06-20T07:30:22.000Z</time>
        <extensions>
          <ns3:TrackPointExtension>
            <ns3:atemp>20.0</ns3:atemp>
          </ns3:TrackPointExtension>
        </extensions>
      </trkpt>
      <trkpt lat="42.55216970108449459075927734375" lon="20.13530711643397808074951171875">
        <ele>2048.800048828125</ele>
        <time>2026-06-20T07:30:23.000Z</time>
        <extensions>
          <ns3:TrackPointExtension>
            <ns3:atemp>20.0</ns3:atemp>
          </ns3:TrackPointExtension>
        </extensions>
      </trkpt>
      <trkpt lat="42.55216970108449459075927734375" lon="20.13530711643397808074951171875">
        <ele>2048.800048828125</ele>
        <time>2026-06-20T07:30:24.000Z</time>
        <extensions>
          <ns3:TrackPointExtension>
            <ns3:atemp>20.0</ns3:atemp>
          </ns3:TrackPointExtension>
        </extensions>
      </trkpt>
      <trkpt lat="42.55216970108449459075927734375" lon="20.13530711643397808074951171875">
        <ele>2048.800048828125</ele>
        <time>2026-06-20T07:30:25.000Z</time>
        <extensions>
          <ns3:TrackPointExtension>
            <ns3:atemp>20.0</ns3:atemp>
          </ns3:TrackPointExtension>
        </extensions>
      </trkpt>
      <trkpt lat="42.55216970108449459075927734375" lon="20.13530711643397808074951171875">
        <ele>2048.800048828125</ele>
        <time>2026-06-20T07:30:26.000Z</time>
        <extensions>
          <ns3:TrackPointExtension>
            <ns3:atemp>20.0</ns3:atemp>
          </ns3:TrackPointExtension>
        </extensions>
      </trkpt>
      <trkpt lat="42.55216970108449459075927734375" lon="20.13530711643397808074951171875">
        <ele>2048.800048828125</ele>
        <time>2026-06-20T07:30:27.000Z</time>
        <extensions>
          <ns3:TrackPointExtension>
            <ns3:atemp>20.0</ns3:atemp>
          </ns3:TrackPointExtension>
        </extensions>
      </trkpt>
      <trkpt lat="42.55216970108449459075927734375" lon="20.13530711643397808074951171875">
        <ele>2048.800048828125</ele>
        <time>2026-06-20T07:30:28.000Z</time>
        <extensions>
          <ns3:TrackPointExtension>
            <ns3:atemp>20.0</ns3:atemp>
          </ns3:TrackPointExtension>
        </extensions>
      </trkpt>
      <trkpt lat="42.55216970108449459075927734375" lon="20.13530711643397808074951171875">
        <ele>2048.800048828125</ele>
        <time>2026-06-20T07:30:29.000Z</time>
        <extensions>
          <ns3:TrackPointExtension>
            <ns3:atemp>20.0</ns3:atemp>
          </ns3:TrackPointExtension>
        </extensions>
      </trkpt>
      <trkpt lat="42.55216970108449459075927734375" lon="20.13530711643397808074951171875">
        <ele>2048.800048828125</ele>
        <time>2026-06-20T07:30:30.000Z</time>
        <extensions>
          <ns3:TrackPointExtension>
            <ns3:atemp>20.0</ns3:atemp>
          </ns3:TrackPointExtension>
        </extensions>
      </trkpt>
      <trkpt lat="42.55216970108449459075927734375" lon="20.13530711643397808074951171875">
        <ele>2048.800048828125</ele>
        <time>2026-06-20T07:30:31.000Z</time>
        <extensions>
          <ns3:TrackPointExtension>
            <ns3:atemp>20.0</ns3:atemp>
          </ns3:TrackPointExtension>
        </extensions>
      </trkpt>
      <trkpt lat="42.55216970108449459075927734375" lon="20.13530711643397808074951171875">
        <ele>2048.800048828125</ele>
        <time>2026-06-20T07:30:32.000Z</time>
        <extensions>
          <ns3:TrackPointExtension>
            <ns3:atemp>20.0</ns3:atemp>
          </ns3:TrackPointExtension>
        </extensions>
      </trkpt>
      <trkpt lat="42.55216970108449459075927734375" lon="20.13530711643397808074951171875">
        <ele>2048.800048828125</ele>
        <time>2026-06-20T07:30:33.000Z</time>
        <extensions>
          <ns3:TrackPointExtension>
            <ns3:atemp>20.0</ns3:atemp>
          </ns3:TrackPointExtension>
        </extensions>
      </trkpt>
      <trkpt lat="42.55216970108449459075927734375" lon="20.13530711643397808074951171875">
        <ele>2048.800048828125</ele>
        <time>2026-06-20T07:30:34.000Z</time>
        <extensions>
          <ns3:TrackPointExtension>
            <ns3:atemp>20.0</ns3:atemp>
          </ns3:TrackPointExtension>
        </extensions>
      </trkpt>
      <trkpt lat="42.55216970108449459075927734375" lon="20.13530711643397808074951171875">
        <ele>2048.800048828125</ele>
        <time>2026-06-20T07:30:35.000Z</time>
        <extensions>
          <ns3:TrackPointExtension>
            <ns3:atemp>20.0</ns3:atemp>
          </ns3:TrackPointExtension>
        </extensions>
      </trkpt>
      <trkpt lat="42.55216970108449459075927734375" lon="20.13530711643397808074951171875">
        <ele>2048.800048828125</ele>
        <time>2026-06-20T07:30:36.000Z</time>
        <extensions>
          <ns3:TrackPointExtension>
            <ns3:atemp>20.0</ns3:atemp>
          </ns3:TrackPointExtension>
        </extensions>
      </trkpt>
      <trkpt lat="42.55216970108449459075927734375" lon="20.13530711643397808074951171875">
        <ele>2048.800048828125</ele>
        <time>2026-06-20T07:30:37.000Z</time>
        <extensions>
          <ns3:TrackPointExtension>
            <ns3:atemp>20.0</ns3:atemp>
          </ns3:TrackPointExtension>
        </extensions>
      </trkpt>
      <trkpt lat="42.55216970108449459075927734375" lon="20.13530711643397808074951171875">
        <ele>2048.800048828125</ele>
        <time>2026-06-20T07:30:38.000Z</time>
        <extensions>
          <ns3:TrackPointExtension>
            <ns3:atemp>20.0</ns3:atemp>
          </ns3:TrackPointExtension>
        </extensions>
      </trkpt>
      <trkpt lat="42.55216970108449459075927734375" lon="20.13530711643397808074951171875">
        <ele>2048.800048828125</ele>
        <time>2026-06-20T07:30:39.000Z</time>
        <extensions>
          <ns3:TrackPointExtension>
            <ns3:atemp>20.0</ns3:atemp>
          </ns3:TrackPointExtension>
        </extensions>
      </trkpt>
      <trkpt lat="42.55216970108449459075927734375" lon="20.13530711643397808074951171875">
        <ele>2048.800048828125</ele>
        <time>2026-06-20T07:30:40.000Z</time>
        <extensions>
          <ns3:TrackPointExtension>
            <ns3:atemp>20.0</ns3:atemp>
          </ns3:TrackPointExtension>
        </extensions>
      </trkpt>
      <trkpt lat="42.55216970108449459075927734375" lon="20.13530711643397808074951171875">
        <ele>2048.800048828125</ele>
        <time>2026-06-20T07:30:41.000Z</time>
        <extensions>
          <ns3:TrackPointExtension>
            <ns3:atemp>20.0</ns3:atemp>
          </ns3:TrackPointExtension>
        </extensions>
      </trkpt>
      <trkpt lat="42.55216970108449459075927734375" lon="20.13530711643397808074951171875">
        <ele>2048.800048828125</ele>
        <time>2026-06-20T07:30:42.000Z</time>
        <extensions>
          <ns3:TrackPointExtension>
            <ns3:atemp>20.0</ns3:atemp>
          </ns3:TrackPointExtension>
        </extensions>
      </trkpt>
      <trkpt lat="42.55216970108449459075927734375" lon="20.13530711643397808074951171875">
        <ele>2048.800048828125</ele>
        <time>2026-06-20T07:30:43.000Z</time>
        <extensions>
          <ns3:TrackPointExtension>
            <ns3:atemp>20.0</ns3:atemp>
          </ns3:TrackPointExtension>
        </extensions>
      </trkpt>
      <trkpt lat="42.55216970108449459075927734375" lon="20.13530711643397808074951171875">
        <ele>2049</ele>
        <time>2026-06-20T07:30:44.000Z</time>
        <extensions>
          <ns3:TrackPointExtension>
            <ns3:atemp>20.0</ns3:atemp>
          </ns3:TrackPointExtension>
        </extensions>
      </trkpt>
      <trkpt lat="42.55216970108449459075927734375" lon="20.13530711643397808074951171875">
        <ele>2049</ele>
        <time>2026-06-20T07:30:45.000Z</time>
        <extensions>
          <ns3:TrackPointExtension>
            <ns3:atemp>20.0</ns3:atemp>
          </ns3:TrackPointExtension>
        </extensions>
      </trkpt>
      <trkpt lat="42.55216970108449459075927734375" lon="20.13530711643397808074951171875">
        <ele>2049</ele>
        <time>2026-06-20T07:30:46.000Z</time>
        <extensions>
          <ns3:TrackPointExtension>
            <ns3:atemp>20.0</ns3:atemp>
          </ns3:TrackPointExtension>
        </extensions>
      </trkpt>
      <trkpt lat="42.5521696172654628753662109375" lon="20.1353113912045955657958984375">
        <ele>2048.800048828125</ele>
        <time>2026-06-20T07:30:47.000Z</time>
        <extensions>
          <ns3:TrackPointExtension>
            <ns3:atemp>20.0</ns3:atemp>
          </ns3:TrackPointExtension>
        </extensions>
      </trkpt>
      <trkpt lat="42.55217590369284152984619140625" lon="20.13534500263631343841552734375">
        <ele>2048.800048828125</ele>
        <time>2026-06-20T07:30:48.000Z</time>
        <extensions>
          <ns3:TrackPointExtension>
            <ns3:atemp>20.0</ns3:atemp>
          </ns3:TrackPointExtension>
        </extensions>
      </trkpt>
      <trkpt lat="42.5521878898143768310546875" lon="20.1353620178997516632080078125">
        <ele>2048.60009765625</ele>
        <time>2026-06-20T07:30:49.000Z</time>
        <extensions>
          <ns3:TrackPointExtension>
            <ns3:atemp>20.0</ns3:atemp>
          </ns3:TrackPointExtension>
        </extensions>
      </trkpt>
      <trkpt lat="42.55220892839133739471435546875" lon="20.135365538299083709716796875">
        <ele>2048.39990234375</ele>
        <time>2026-06-20T07:30:50.000Z</time>
        <extensions>
          <ns3:TrackPointExtension>
            <ns3:atemp>20.0</ns3:atemp>
          </ns3:TrackPointExtension>
        </extensions>
      </trkpt>
      <trkpt lat="42.55222208797931671142578125" lon="20.135362185537815093994140625">
        <ele>2048.199951171875</ele>
        <time>2026-06-20T07:30:51.000Z</time>
        <extensions>
          <ns3:TrackPointExtension>
            <ns3:atemp>20.0</ns3:atemp>
          </ns3:TrackPointExtension>
        </extensions>
      </trkpt>
      <trkpt lat="42.55223340354859828948974609375" lon="20.1353486068546772003173828125">
        <ele>2048.39990234375</ele>
        <time>2026-06-20T07:30:52.000Z</time>
        <extensions>
          <ns3:TrackPointExtension>
            <ns3:atemp>20.0</ns3:atemp>
          </ns3:TrackPointExtension>
        </extensions>
      </trkpt>
      <trkpt lat="42.5522373430430889129638671875" lon="20.1353291608393192291259765625">
        <ele>2048.60009765625</ele>
        <time>2026-06-20T07:30:53.000Z</time>
        <extensions>
          <ns3:TrackPointExtension>
            <ns3:atemp>20.0</ns3:atemp>
          </ns3:TrackPointExtension>
        </extensions>
      </trkpt>
      <trkpt lat="42.55223558284342288970947265625" lon="20.1353077031672000885009765625">
        <ele>2049</ele>
        <time>2026-06-20T07:30:54.000Z</time>
        <extensions>
          <ns3:TrackPointExtension>
            <ns3:atemp>20.0</ns3:atemp>
          </ns3:TrackPointExtension>
        </extensions>
      </trkpt>
      <trkpt lat="42.5522343255579471588134765625" lon="20.1352855749428272247314453125">
        <ele>2049.199951171875</ele>
        <time>2026-06-20T07:30:55.000Z</time>
        <extensions>
          <ns3:TrackPointExtension>
            <ns3:atemp>20.0</ns3:atemp>
          </ns3:TrackPointExtension>
        </extensions>
      </trkpt>
      <trkpt lat="42.5522316433489322662353515625" lon="20.1352600939571857452392578125">
        <ele>2049.39990234375</ele>
        <time>2026-06-20T07:30:56.000Z</time>
        <extensions>
          <ns3:TrackPointExtension>
            <ns3:atemp>20.0</ns3:atemp>
          </ns3:TrackPointExtension>
        </extensions>
      </trkpt>
      <trkpt lat="42.552221752703189849853515625" lon="20.13523704372346401214599609375">
        <ele>2049.60009765625</ele>
        <time>2026-06-20T07:30:57.000Z</time>
        <extensions>
          <ns3:TrackPointExtension>
            <ns3:atemp>20.0</ns3:atemp>
          </ns3:TrackPointExtension>
        </extensions>
      </trkpt>
      <trkpt lat="42.55220691673457622528076171875" lon="20.1352185197174549102783203125">
        <ele>2049.39990234375</ele>
        <time>2026-06-20T07:30:58.000Z</time>
        <extensions>
          <ns3:TrackPointExtension>
            <ns3:atemp>20.0</ns3:atemp>
          </ns3:TrackPointExtension>
        </extensions>
      </trkpt>
      <trkpt lat="42.55218612961471080780029296875" lon="20.13521097600460052490234375">
        <ele>2049.39990234375</ele>
        <time>2026-06-20T07:30:59.000Z</time>
        <extensions>
          <ns3:TrackPointExtension>
            <ns3:atemp>20.0</ns3:atemp>
          </ns3:TrackPointExtension>
        </extensions>
      </trkpt>
      <trkpt lat="42.55216131918132305145263671875" lon="20.1352094672620296478271484375">
        <ele>2049.39990234375</ele>
        <time>2026-06-20T07:31:00.000Z</time>
        <extensions>
          <ns3:TrackPointExtension>
            <ns3:atemp>20.0</ns3:atemp>
          </ns3:TrackPointExtension>
        </extensions>
      </trkpt>
      <trkpt lat="42.5521384365856647491455078125" lon="20.13520116917788982391357421875">
        <ele>2049.39990234375</ele>
        <time>2026-06-20T07:31:01.000Z</time>
        <extensions>
          <ns3:TrackPointExtension>
            <ns3:atemp>20.0</ns3:atemp>
          </ns3:TrackPointExtension>
        </extensions>
      </trkpt>
      <trkpt lat="42.5521186552941799163818359375" lon="20.13518759049475193023681640625">
        <ele>2049.60009765625</ele>
        <time>2026-06-20T07:31:02.000Z</time>
        <extensions>
          <ns3:TrackPointExtension>
            <ns3:atemp>20.0</ns3:atemp>
          </ns3:TrackPointExtension>
        </extensions>
      </trkpt>
      <trkpt lat="42.55210214294493198394775390625" lon="20.1351705752313137054443359375">
        <ele>2049.800048828125</ele>
        <time>2026-06-20T07:31:03.000Z</time>
        <extensions>
          <ns3:TrackPointExtension>
            <ns3:atemp>20.0</ns3:atemp>
          </ns3:TrackPointExtension>
        </extensions>
      </trkpt>
      <trkpt lat="42.55208319984376430511474609375" lon="20.13514987193048000335693359375">
        <ele>2050.199951171875</ele>
        <time>2026-06-20T07:31:04.000Z</time>
        <extensions>
          <ns3:TrackPointExtension>
            <ns3:atemp>20.0</ns3:atemp>
          </ns3:TrackPointExtension>
        </extensions>
      </trkpt>
      <trkpt lat="42.55206651985645294189453125" lon="20.1351269893348217010498046875">
        <ele>2050.39990234375</ele>
        <time>2026-06-20T07:31:05.000Z</time>
        <extensions>
          <ns3:TrackPointExtension>
            <ns3:atemp>20.0</ns3:atemp>
          </ns3:TrackPointExtension>
        </extensions>
      </trkpt>
      <trkpt lat="42.55204715766012668609619140625" lon="20.1351119019091129302978515625">
        <ele>2050.60009765625</ele>
        <time>2026-06-20T07:31:06.000Z</time>
        <extensions>
          <ns3:TrackPointExtension>
            <ns3:atemp>20.0</ns3:atemp>
          </ns3:TrackPointExtension>
        </extensions>
      </trkpt>
      <trkpt lat="42.55202569998800754547119140625" lon="20.13509622775018215179443359375">
        <ele>2050.800048828125</ele>
        <time>2026-06-20T07:31:07.000Z</time>
        <extensions>
          <ns3:TrackPointExtension>
            <ns3:atemp>20.0</ns3:atemp>
          </ns3:TrackPointExtension>
        </extensions>
      </trkpt>
      <trkpt lat="42.55200390703976154327392578125" lon="20.13507896102964878082275390625">
        <ele>2051</ele>
        <time>2026-06-20T07:31:08.000Z</time>
        <extensions>
          <ns3:TrackPointExtension>
            <ns3:atemp>20.0</ns3:atemp>
          </ns3:TrackPointExtension>
        </extensions>
      </trkpt>
      <trkpt lat="42.5519838742911815643310546875" lon="20.13505674898624420166015625">
        <ele>2051.199951171875</ele>
        <time>2026-06-20T07:31:09.000Z</time>
        <extensions>
          <ns3:TrackPointExtension>
            <ns3:atemp>20.0</ns3:atemp>
          </ns3:TrackPointExtension>
        </extensions>
      </trkpt>
      <trkpt lat="42.55196048878133296966552734375" lon="20.13503839261829853057861328125">
        <ele>2051.39990234375</ele>
        <time>2026-06-20T07:31:10.000Z</time>
        <extensions>
          <ns3:TrackPointExtension>
            <ns3:atemp>20.0</ns3:atemp>
          </ns3:TrackPointExtension>
        </extensions>
      </trkpt>
      <trkpt lat="42.5519382767379283905029296875" lon="20.13501743786036968231201171875">
        <ele>2051.60009765625</ele>
        <time>2026-06-20T07:31:11.000Z</time>
        <extensions>
          <ns3:TrackPointExtension>
            <ns3:atemp>20.0</ns3:atemp>
          </ns3:TrackPointExtension>
        </extensions>
      </trkpt>
      <trkpt lat="42.5519171543419361114501953125" lon="20.1349984109401702880859375">
        <ele>2051.800048828125</ele>
        <time>2026-06-20T07:31:12.000Z</time>
        <extensions>
          <ns3:TrackPointExtension>
            <ns3:atemp>20.0</ns3:atemp>
          </ns3:TrackPointExtension>
        </extensions>
      </trkpt>
      <trkpt lat="42.55190047435462474822998046875" lon="20.13498206622898578643798828125">
        <ele>2052</ele>
        <time>2026-06-20T07:31:13.000Z</time>
        <extensions>
          <ns3:TrackPointExtension>
            <ns3:atemp>20.0</ns3:atemp>
          </ns3:TrackPointExtension>
        </extensions>
      </trkpt>
      <trkpt lat="42.5518876500427722930908203125" lon="20.134969241917133331298828125">
        <ele>2052</ele>
        <time>2026-06-20T07:31:14.000Z</time>
        <extensions>
          <ns3:TrackPointExtension>
            <ns3:atemp>20.0</ns3:atemp>
          </ns3:TrackPointExtension>
        </extensions>
      </trkpt>
      <trkpt lat="42.55187281407415866851806640625" lon="20.1349533163011074066162109375">
        <ele>2052.199951171875</ele>
        <time>2026-06-20T07:31:15.000Z</time>
        <extensions>
          <ns3:TrackPointExtension>
            <ns3:atemp>20.0</ns3:atemp>
          </ns3:TrackPointExtension>
        </extensions>
      </trkpt>
      <trkpt lat="42.5518554635345935821533203125" lon="20.13493739068508148193359375">
        <ele>2052.39990234375</ele>
        <time>2026-06-20T07:31:16.000Z</time>
        <extensions>
          <ns3:TrackPointExtension>
            <ns3:atemp>20.0</ns3:atemp>
          </ns3:TrackPointExtension>
        </extensions>
      </trkpt>
      <trkpt lat="42.551840208470821380615234375" lon="20.13491593301296234130859375">
        <ele>2052.39990234375</ele>
        <time>2026-06-20T07:31:17.000Z</time>
        <extensions>
          <ns3:TrackPointExtension>
            <ns3:atemp>20.0</ns3:atemp>
          </ns3:TrackPointExtension>
        </extensions>
      </trkpt>
      <trkpt lat="42.55182721652090549468994140625" lon="20.1348876021802425384521484375">
        <ele>2052.39990234375</ele>
        <time>2026-06-20T07:31:18.000Z</time>
        <extensions>
          <ns3:TrackPointExtension>
            <ns3:atemp>20.0</ns3:atemp>
          </ns3:TrackPointExtension>
        </extensions>
      </trkpt>
      <trkpt lat="42.55181615240871906280517578125" lon="20.13485600240528583526611328125">
        <ele>2052.39990234375</ele>
        <time>2026-06-20T07:31:19.000Z</time>
        <extensions>
          <ns3:TrackPointExtension>
            <ns3:atemp>20.0</ns3:atemp>
          </ns3:TrackPointExtension>
        </extensions>
      </trkpt>
      <trkpt lat="42.55180492065846920013427734375" lon="20.134823061525821685791015625">
        <ele>2052.39990234375</ele>
        <time>2026-06-20T07:31:20.000Z</time>
        <extensions>
          <ns3:TrackPointExtension>
            <ns3:atemp>20.0</ns3:atemp>
          </ns3:TrackPointExtension>
        </extensions>
      </trkpt>
      <trkpt lat="42.55179787985980510711669921875" lon="20.13479012064635753631591796875">
        <ele>2052.39990234375</ele>
        <time>2026-06-20T07:31:21.000Z</time>
        <extensions>
          <ns3:TrackPointExtension>
            <ns3:atemp>20.0</ns3:atemp>
          </ns3:TrackPointExtension>
        </extensions>
      </trkpt>
      <trkpt lat="42.55178815685212612152099609375" lon="20.13476145453751087188720703125">
        <ele>2052.39990234375</ele>
        <time>2026-06-20T07:31:22.000Z</time>
        <extensions>
          <ns3:TrackPointExtension>
            <ns3:atemp>20.0</ns3:atemp>
          </ns3:TrackPointExtension>
        </extensions>
      </trkpt>
      <trkpt lat="42.55177323706448078155517578125" lon="20.1347301900386810302734375">
        <ele>2052.39990234375</ele>
        <time>2026-06-20T07:31:23.000Z</time>
        <extensions>
          <ns3:TrackPointExtension>
            <ns3:atemp>20.0</ns3:atemp>
          </ns3:TrackPointExtension>
        </extensions>
      </trkpt>
      <trkpt lat="42.5517615862190723419189453125" lon="20.1347065530717372894287109375">
        <ele>2052.39990234375</ele>
        <time>2026-06-20T07:31:24.000Z</time>
        <extensions>
          <ns3:TrackPointExtension>
            <ns3:atemp>20.0</ns3:atemp>
          </ns3:TrackPointExtension>
        </extensions>
      </trkpt>
      <trkpt lat="42.55174691788852214813232421875" lon="20.13468853197991847991943359375">
        <ele>2052.60009765625</ele>
        <time>2026-06-20T07:31:25.000Z</time>
        <extensions>
          <ns3:TrackPointExtension>
            <ns3:atemp>20.0</ns3:atemp>
          </ns3:TrackPointExtension>
        </extensions>
      </trkpt>
      <trkpt lat="42.551732249557971954345703125" lon="20.134669505059719085693359375">
        <ele>2052.60009765625</ele>
        <time>2026-06-20T07:31:26.000Z</time>
        <extensions>
          <ns3:TrackPointExtension>
            <ns3:atemp>20.0</ns3:atemp>
          </ns3:TrackPointExtension>
        </extensions>
      </trkpt>
      <trkpt lat="42.55171271972358226776123046875" lon="20.1346495561301708221435546875">
        <ele>2052.800048828125</ele>
        <time>2026-06-20T07:31:27.000Z</time>
        <extensions>
          <ns3:TrackPointExtension>
            <ns3:atemp>20.0</ns3:atemp>
          </ns3:TrackPointExtension>
        </extensions>
      </trkpt>
      <trkpt lat="42.5516948662698268890380859375" lon="20.13463069684803485870361328125">
        <ele>2053</ele>
        <time>2026-06-20T07:31:28.000Z</time>
        <extensions>
          <ns3:TrackPointExtension>
            <ns3:atemp>20.0</ns3:atemp>
          </ns3:TrackPointExtension>
        </extensions>
      </trkpt>
      <trkpt lat="42.55167625844478607177734375" lon="20.1346103288233280181884765625">
        <ele>2053.199951171875</ele>
        <time>2026-06-20T07:31:29.000Z</time>
        <extensions>
          <ns3:TrackPointExtension>
            <ns3:atemp>20.0</ns3:atemp>
          </ns3:TrackPointExtension>
        </extensions>
      </trkpt>
      <trkpt lat="42.55165857262909412384033203125" lon="20.1345925591886043548583984375">
        <ele>2053.39990234375</ele>
        <time>2026-06-20T07:31:30.000Z</time>
        <extensions>
          <ns3:TrackPointExtension>
            <ns3:atemp>20.0</ns3:atemp>
          </ns3:TrackPointExtension>
        </extensions>
      </trkpt>
      <trkpt lat="42.55164247937500476837158203125" lon="20.13457017950713634490966796875">
        <ele>2053.800048828125</ele>
        <time>2026-06-20T07:31:31.000Z</time>
        <extensions>
          <ns3:TrackPointExtension>
            <ns3:atemp>20.0</ns3:atemp>
          </ns3:TrackPointExtension>
        </extensions>
      </trkpt>
      <trkpt lat="42.55162663757801055908203125" lon="20.13454821892082691192626953125">
        <ele>2054</ele>
        <time>2026-06-20T07:31:32.000Z</time>
        <extensions>
          <ns3:TrackPointExtension>
            <ns3:atemp>20.0</ns3:atemp>
          </ns3:TrackPointExtension>
        </extensions>
      </trkpt>
      <trkpt lat="42.551609538495540618896484375" lon="20.13453195802867412567138671875">
        <ele>2054.39990234375</ele>
        <time>2026-06-20T07:31:33.000Z</time>
        <extensions>
          <ns3:TrackPointExtension>
            <ns3:atemp>20.0</ns3:atemp>
          </ns3:TrackPointExtension>
        </extensions>
      </trkpt>
      <trkpt lat="42.55159218795597553253173828125" lon="20.1345154456794261932373046875">
        <ele>2054.60009765625</ele>
        <time>2026-06-20T07:31:34.000Z</time>
        <extensions>
          <ns3:TrackPointExtension>
            <ns3:atemp>20.0</ns3:atemp>
          </ns3:TrackPointExtension>
        </extensions>
      </trkpt>
      <trkpt lat="42.55157844163477420806884765625" lon="20.1344963349401950836181640625">
        <ele>2055</ele>
        <time>2026-06-20T07:31:35.000Z</time>
        <extensions>
          <ns3:TrackPointExtension>
            <ns3:atemp>20.0</ns3:atemp>
          </ns3:TrackPointExtension>
        </extensions>
      </trkpt>
      <trkpt lat="42.5515698082745075225830078125" lon="20.1344755478203296661376953125">
        <ele>2055.39990234375</ele>
        <time>2026-06-20T07:31:36.000Z</time>
        <extensions>
          <ns3:TrackPointExtension>
            <ns3:atemp>20.0</ns3:atemp>
          </ns3:TrackPointExtension>
        </extensions>
      </trkpt>
      <trkpt lat="42.55156092345714569091796875" lon="20.13445350341498851776123046875">
        <ele>2055.60009765625</ele>
        <time>2026-06-20T07:31:37.000Z</time>
        <extensions>
          <ns3:TrackPointExtension>
            <ns3:atemp>20.0</ns3:atemp>
          </ns3:TrackPointExtension>
        </extensions>
      </trkpt>
      <trkpt lat="42.55155027844011783599853515625" lon="20.1344373263418674468994140625">
        <ele>2055.800048828125</ele>
        <time>2026-06-20T07:31:38.000Z</time>
        <extensions>
          <ns3:TrackPointExtension>
            <ns3:atemp>20.0</ns3:atemp>
          </ns3:TrackPointExtension>
        </extensions>
      </trkpt>
      <trkpt lat="42.55153753794729709625244140625" lon="20.13441913761198520660400390625">
        <ele>2056</ele>
        <time>2026-06-20T07:31:39.000Z</time>
        <extensions>
          <ns3:TrackPointExtension>
            <ns3:atemp>20.0</ns3:atemp>
          </ns3:TrackPointExtension>
        </extensions>
      </trkpt>
      <trkpt lat="42.5515262223780155181884765625" lon="20.1344004459679126739501953125">
        <ele>2056.199951171875</ele>
        <time>2026-06-20T07:31:40.000Z</time>
        <extensions>
          <ns3:TrackPointExtension>
            <ns3:atemp>20.0</ns3:atemp>
          </ns3:TrackPointExtension>
        </extensions>
      </trkpt>
      <trkpt lat="42.55151255987584590911865234375" lon="20.13437672518193721771240234375">
        <ele>2056.199951171875</ele>
        <time>2026-06-20T07:31:41.000Z</time>
        <extensions>
          <ns3:TrackPointExtension>
            <ns3:atemp>20.0</ns3:atemp>
          </ns3:TrackPointExtension>
        </extensions>
      </trkpt>
      <trkpt lat="42.55149244330823421478271484375" lon="20.13436029665172100067138671875">
        <ele>2056.39990234375</ele>
        <time>2026-06-20T07:31:42.000Z</time>
        <extensions>
          <ns3:TrackPointExtension>
            <ns3:atemp>20.0</ns3:atemp>
          </ns3:TrackPointExtension>
        </extensions>
      </trkpt>
      <trkpt lat="42.55147115327417850494384765625" lon="20.13435157947242259979248046875">
        <ele>2056.60009765625</ele>
        <time>2026-06-20T07:31:43.000Z</time>
        <extensions>
          <ns3:TrackPointExtension>
            <ns3:atemp>20.0</ns3:atemp>
          </ns3:TrackPointExtension>
        </extensions>
      </trkpt>
      <trkpt lat="42.5514487735927104949951171875" lon="20.13435258530080318450927734375">
        <ele>2056.60009765625</ele>
        <time>2026-06-20T07:31:44.000Z</time>
        <extensions>
          <ns3:TrackPointExtension>
            <ns3:atemp>20.0</ns3:atemp>
          </ns3:TrackPointExtension>
        </extensions>
      </trkpt>
      <trkpt lat="42.551428489387035369873046875" lon="20.134359039366245269775390625">
        <ele>2056.800048828125</ele>
        <time>2026-06-20T07:31:45.000Z</time>
        <extensions>
          <ns3:TrackPointExtension>
            <ns3:atemp>20.0</ns3:atemp>
          </ns3:TrackPointExtension>
        </extensions>
      </trkpt>
      <trkpt lat="42.5514105521142482757568359375" lon="20.134370438754558563232421875">
        <ele>2057</ele>
        <time>2026-06-20T07:31:46.000Z</time>
        <extensions>
          <ns3:TrackPointExtension>
            <ns3:atemp>20.0</ns3:atemp>
          </ns3:TrackPointExtension>
        </extensions>
      </trkpt>
      <trkpt lat="42.55139328539371490478515625" lon="20.13438426889479160308837890625">
        <ele>2057.199951171875</ele>
        <time>2026-06-20T07:31:47.000Z</time>
        <extensions>
          <ns3:TrackPointExtension>
            <ns3:atemp>20.0</ns3:atemp>
          </ns3:TrackPointExtension>
        </extensions>
      </trkpt>
      <trkpt lat="42.55138146691024303436279296875" lon="20.13439466245472431182861328125">
        <ele>2057.39990234375</ele>
        <time>2026-06-20T07:31:48.000Z</time>
        <extensions>
          <ns3:TrackPointExtension>
            <ns3:atemp>20.0</ns3:atemp>
          </ns3:TrackPointExtension>
        </extensions>
      </trkpt>
      <trkpt lat="42.551368810236454010009765625" lon="20.13440405018627643585205078125">
        <ele>2057.60009765625</ele>
        <time>2026-06-20T07:31:49.000Z</time>
        <extensions>
          <ns3:TrackPointExtension>
            <ns3:atemp>20.0</ns3:atemp>
          </ns3:TrackPointExtension>
        </extensions>
      </trkpt>
      <trkpt lat="42.551352716982364654541015625" lon="20.1344141922891139984130859375">
        <ele>2057.800048828125</ele>
        <time>2026-06-20T07:31:50.000Z</time>
        <extensions>
          <ns3:TrackPointExtension>
            <ns3:atemp>20.0</ns3:atemp>
          </ns3:TrackPointExtension>
        </extensions>
      </trkpt>
      <trkpt lat="42.5513398088514804840087890625" lon="20.134438164532184600830078125">
        <ele>2057.800048828125</ele>
        <time>2026-06-20T07:31:51.000Z</time>
        <extensions>
          <ns3:TrackPointExtension>
            <ns3:atemp>20.0</ns3:atemp>
          </ns3:TrackPointExtension>
        </extensions>
      </trkpt>
      <trkpt lat="42.55131877027451992034912109375" lon="20.13445484451949596405029296875">
        <ele>2058</ele>
        <time>2026-06-20T07:31:52.000Z</time>
        <extensions>
          <ns3:TrackPointExtension>
            <ns3:atemp>20.0</ns3:atemp>
          </ns3:TrackPointExtension>
        </extensions>
      </trkpt>
      <trkpt lat="42.55130100063979625701904296875" lon="20.13446708209812641143798828125">
        <ele>2058</ele>
        <time>2026-06-20T07:31:53.000Z</time>
        <extensions>
          <ns3:TrackPointExtension>
            <ns3:atemp>20.0</ns3:atemp>
          </ns3:TrackPointExtension>
        </extensions>
      </trkpt>
      <trkpt lat="42.55129328928887844085693359375" lon="20.13449004851281642913818359375">
        <ele>2058</ele>
        <time>2026-06-20T07:31:54.000Z</time>
        <extensions>
          <ns3:TrackPointExtension>
            <ns3:atemp>20.0</ns3:atemp>
          </ns3:TrackPointExtension>
        </extensions>
      </trkpt>
      <trkpt lat="42.55127954296767711639404296875" lon="20.1345182955265045166015625">
        <ele>2058</ele>
        <time>2026-06-20T07:31:55.000Z</time>
        <extensions>
          <ns3:TrackPointExtension>
            <ns3:atemp>20.0</ns3:atemp>
          </ns3:TrackPointExtension>
        </extensions>
      </trkpt>
      <trkpt lat="42.55126764066517353057861328125" lon="20.13454704545438289642333984375">
        <ele>2058.199951171875</ele>
        <time>2026-06-20T07:31:56.000Z</time>
        <extensions>
          <ns3:TrackPointExtension>
            <ns3:atemp>20.0</ns3:atemp>
          </ns3:TrackPointExtension>
        </extensions>
      </trkpt>
      <trkpt lat="42.5512549839913845062255859375" lon="20.13457604683935642242431640625">
        <ele>2058.199951171875</ele>
        <time>2026-06-20T07:31:57.000Z</time>
        <extensions>
          <ns3:TrackPointExtension>
            <ns3:atemp>20.0</ns3:atemp>
          </ns3:TrackPointExtension>
        </extensions>
      </trkpt>
      <trkpt lat="42.5512435846030712127685546875" lon="20.134595744311809539794921875">
        <ele>2058.60009765625</ele>
        <time>2026-06-20T07:31:58.000Z</time>
        <extensions>
          <ns3:TrackPointExtension>
            <ns3:atemp>20.0</ns3:atemp>
          </ns3:TrackPointExtension>
        </extensions>
      </trkpt>
      <trkpt lat="42.5512318499386310577392578125" lon="20.13461627997457981109619140625">
        <ele>2059</ele>
        <time>2026-06-20T07:31:59.000Z</time>
        <extensions>
          <ns3:TrackPointExtension>
            <ns3:atemp>20.0</ns3:atemp>
          </ns3:TrackPointExtension>
        </extensions>
      </trkpt>
      <trkpt lat="42.5512177683413028717041015625" lon="20.13462482951581478118896484375">
        <ele>2059.60009765625</ele>
        <time>2026-06-20T07:32:00.000Z</time>
        <extensions>
          <ns3:TrackPointExtension>
            <ns3:atemp>20.0</ns3:atemp>
          </ns3:TrackPointExtension>
        </extensions>
      </trkpt>
      <trkpt lat="42.55120108835399150848388671875" lon="20.13463237322866916656494140625">
        <ele>2060</ele>
        <time>2026-06-20T07:32:01.000Z</time>
        <extensions>
          <ns3:TrackPointExtension>
            <ns3:atemp>20.0</ns3:atemp>
          </ns3:TrackPointExtension>
        </extensions>
      </trkpt>
      <trkpt lat="42.55117912776768207550048828125" lon="20.13464176096022129058837890625">
        <ele>2060.39990234375</ele>
        <time>2026-06-20T07:32:02.000Z</time>
        <extensions>
          <ns3:TrackPointExtension>
            <ns3:atemp>20.0</ns3:atemp>
          </ns3:TrackPointExtension>
        </extensions>
      </trkpt>
      <trkpt lat="42.55115448497235774993896484375" lon="20.13464771211147308349609375">
        <ele>2060.60009765625</ele>
        <time>2026-06-20T07:32:03.000Z</time>
        <extensions>
          <ns3:TrackPointExtension>
            <ns3:atemp>20.0</ns3:atemp>
          </ns3:TrackPointExtension>
        </extensions>
      </trkpt>
      <trkpt lat="42.551129423081874847412109375" lon="20.13464259915053844451904296875">
        <ele>2060.800048828125</ele>
        <time>2026-06-20T07:32:04.000Z</time>
        <extensions>
          <ns3:TrackPointExtension>
            <ns3:atemp>20.0</ns3:atemp>
          </ns3:TrackPointExtension>
        </extensions>
      </trkpt>
      <trkpt lat="42.55110553465783596038818359375" lon="20.13463438488543033599853515625">
        <ele>2061</ele>
        <time>2026-06-20T07:32:05.000Z</time>
        <extensions>
          <ns3:TrackPointExtension>
            <ns3:atemp>20.0</ns3:atemp>
          </ns3:TrackPointExtension>
        </extensions>
      </trkpt>
      <trkpt lat="42.5510836578905582427978515625" lon="20.13462960720062255859375">
        <ele>2061.199951171875</ele>
        <time>2026-06-20T07:32:06.000Z</time>
        <extensions>
          <ns3:TrackPointExtension>
            <ns3:atemp>20.0</ns3:atemp>
          </ns3:TrackPointExtension>
        </extensions>
      </trkpt>
      <trkpt lat="42.55106060765683650970458984375" lon="20.13461963273584842681884765625">
        <ele>2061.199951171875</ele>
        <time>2026-06-20T07:32:07.000Z</time>
        <extensions>
          <ns3:TrackPointExtension>
            <ns3:atemp>20.0</ns3:atemp>
          </ns3:TrackPointExtension>
        </extensions>
      </trkpt>
      <trkpt lat="42.551041580736637115478515625" lon="20.134610496461391448974609375">
        <ele>2061.39990234375</ele>
        <time>2026-06-20T07:32:08.000Z</time>
        <extensions>
          <ns3:TrackPointExtension>
            <ns3:atemp>20.0</ns3:atemp>
          </ns3:TrackPointExtension>
        </extensions>
      </trkpt>
      <trkpt lat="42.55102121271193027496337890625" lon="20.134601108729839324951171875">
        <ele>2061.39990234375</ele>
        <time>2026-06-20T07:32:09.000Z</time>
        <extensions>
          <ns3:TrackPointExtension>
            <ns3:atemp>20.0</ns3:atemp>
          </ns3:TrackPointExtension>
        </extensions>
      </trkpt>
      <trkpt lat="42.5510050356388092041015625" lon="20.13459230773150920867919921875">
        <ele>2061.60009765625</ele>
        <time>2026-06-20T07:32:10.000Z</time>
        <extensions>
          <ns3:TrackPointExtension>
            <ns3:atemp>20.0</ns3:atemp>
          </ns3:TrackPointExtension>
        </extensions>
      </trkpt>
      <trkpt lat="42.55099229514598846435546875" lon="20.13458333909511566162109375">
        <ele>2061.800048828125</ele>
        <time>2026-06-20T07:32:11.000Z</time>
        <extensions>
          <ns3:TrackPointExtension>
            <ns3:atemp>20.0</ns3:atemp>
          </ns3:TrackPointExtension>
        </extensions>
      </trkpt>
      <trkpt lat="42.5509797222912311553955078125" lon="20.134574957191944122314453125">
        <ele>2061.800048828125</ele>
        <time>2026-06-20T07:32:12.000Z</time>
        <extensions>
          <ns3:TrackPointExtension>
            <ns3:atemp>20.0</ns3:atemp>
          </ns3:TrackPointExtension>
        </extensions>
      </trkpt>
      <trkpt lat="42.5509639643132686614990234375" lon="20.134568922221660614013671875">
        <ele>2062</ele>
        <time>2026-06-20T07:32:13.000Z</time>
        <extensions>
          <ns3:TrackPointExtension>
            <ns3:atemp>20.0</ns3:atemp>
          </ns3:TrackPointExtension>
        </extensions>
      </trkpt>
      <trkpt lat="42.55094879306852817535400390625" lon="20.13456800021231174468994140625">
        <ele>2062.199951171875</ele>
        <time>2026-06-20T07:32:14.000Z</time>
        <extensions>
          <ns3:TrackPointExtension>
            <ns3:atemp>20.0</ns3:atemp>
          </ns3:TrackPointExtension>
        </extensions>
      </trkpt>
      <trkpt lat="42.55093337036669254302978515625" lon="20.13456531800329685211181640625">
        <ele>2062.39990234375</ele>
        <time>2026-06-20T07:32:15.000Z</time>
        <extensions>
          <ns3:TrackPointExtension>
            <ns3:atemp>20.0</ns3:atemp>
          </ns3:TrackPointExtension>
        </extensions>
      </trkpt>
      <trkpt lat="42.55091719329357147216796875" lon="20.13456330634653568267822265625">
        <ele>2062.60009765625</ele>
        <time>2026-06-20T07:32:16.000Z</time>
        <extensions>
          <ns3:TrackPointExtension>
            <ns3:atemp>20.0</ns3:atemp>
          </ns3:TrackPointExtension>
        </extensions>
      </trkpt>
      <trkpt lat="42.55090336315333843231201171875" lon="20.13455810956656932830810546875">
        <ele>2062.800048828125</ele>
        <time>2026-06-20T07:32:17.000Z</time>
        <extensions>
          <ns3:TrackPointExtension>
            <ns3:atemp>20.0</ns3:atemp>
          </ns3:TrackPointExtension>
        </extensions>
      </trkpt>
      <trkpt lat="42.55089347250759601593017578125" lon="20.13454704545438289642333984375">
        <ele>2062.800048828125</ele>
        <time>2026-06-20T07:32:18.000Z</time>
        <extensions>
          <ns3:TrackPointExtension>
            <ns3:atemp>20.0</ns3:atemp>
          </ns3:TrackPointExtension>
        </extensions>
      </trkpt>
      <trkpt lat="42.55088291130959987640380859375" lon="20.13453866355121135711669921875">
        <ele>2063</ele>
        <time>2026-06-20T07:32:19.000Z</time>
        <extensions>
          <ns3:TrackPointExtension>
            <ns3:atemp>20.0</ns3:atemp>
          </ns3:TrackPointExtension>
        </extensions>
      </trkpt>
      <trkpt lat="42.5508690811693668365478515625" lon="20.13453564606606960296630859375">
        <ele>2063.199951171875</ele>
        <time>2026-06-20T07:32:20.000Z</time>
        <extensions>
          <ns3:TrackPointExtension>
            <ns3:atemp>20.0</ns3:atemp>
          </ns3:TrackPointExtension>
        </extensions>
      </trkpt>
      <trkpt lat="42.55085474811494350433349609375" lon="20.1345399208366870880126953125">
        <ele>2063.199951171875</ele>
        <time>2026-06-20T07:32:21.000Z</time>
        <extensions>
          <ns3:TrackPointExtension>
            <ns3:atemp>20.0</ns3:atemp>
          </ns3:TrackPointExtension>
        </extensions>
      </trkpt>
      <trkpt lat="42.55083940923213958740234375" lon="20.1345426030457019805908203125">
        <ele>2063.60009765625</ele>
        <time>2026-06-20T07:32:22.000Z</time>
        <extensions>
          <ns3:TrackPointExtension>
            <ns3:atemp>20.0</ns3:atemp>
          </ns3:TrackPointExtension>
        </extensions>
      </trkpt>
      <trkpt lat="42.55082809366285800933837890625" lon="20.13454033993184566497802734375">
        <ele>2063.800048828125</ele>
        <time>2026-06-20T07:32:23.000Z</time>
        <extensions>
          <ns3:TrackPointExtension>
            <ns3:atemp>20.0</ns3:atemp>
          </ns3:TrackPointExtension>
        </extensions>
      </trkpt>
      <trkpt lat="42.55081367678940296173095703125" lon="20.134541429579257965087890625">
        <ele>2064</ele>
        <time>2026-06-20T07:32:24.000Z</time>
        <extensions>
          <ns3:TrackPointExtension>
            <ns3:atemp>20.0</ns3:atemp>
          </ns3:TrackPointExtension>
        </extensions>
      </trkpt>
      <trkpt lat="42.5507983379065990447998046875" lon="20.13454302214086055755615234375">
        <ele>2064.199951171875</ele>
        <time>2026-06-20T07:32:25.000Z</time>
        <extensions>
          <ns3:TrackPointExtension>
            <ns3:atemp>20.0</ns3:atemp>
          </ns3:TrackPointExtension>
        </extensions>
      </trkpt>
      <trkpt lat="42.55078601650893688201904296875" lon="20.13454201631247997283935546875">
        <ele>2064.39990234375</ele>
        <time>2026-06-20T07:32:26.000Z</time>
        <extensions>
          <ns3:TrackPointExtension>
            <ns3:atemp>20.0</ns3:atemp>
          </ns3:TrackPointExtension>
        </extensions>
      </trkpt>
      <trkpt lat="42.55077394656836986541748046875" lon="20.13454184867441654205322265625">
        <ele>2064.800048828125</ele>
        <time>2026-06-20T07:32:27.000Z</time>
        <extensions>
          <ns3:TrackPointExtension>
            <ns3:atemp>20.0</ns3:atemp>
          </ns3:TrackPointExtension>
        </extensions>
      </trkpt>
      <trkpt lat="42.550759948790073394775390625" lon="20.13454738073050975799560546875">
        <ele>2065</ele>
        <time>2026-06-20T07:32:28.000Z</time>
        <extensions>
          <ns3:TrackPointExtension>
            <ns3:atemp>20.0</ns3:atemp>
          </ns3:TrackPointExtension>
        </extensions>
      </trkpt>
      <trkpt lat="42.55074695684015750885009765625" lon="20.1345553435385227203369140625">
        <ele>2065.199951171875</ele>
        <time>2026-06-20T07:32:29.000Z</time>
        <extensions>
          <ns3:TrackPointExtension>
            <ns3:atemp>20.0</ns3:atemp>
          </ns3:TrackPointExtension>
        </extensions>
      </trkpt>
      <trkpt lat="42.55074511282145977020263671875" lon="20.134558193385601043701171875">
        <ele>2065.199951171875</ele>
        <time>2026-06-20T07:32:30.000Z</time>
        <extensions>
          <ns3:TrackPointExtension>
            <ns3:atemp>20.0</ns3:atemp>
          </ns3:TrackPointExtension>
        </extensions>
      </trkpt>
      <trkpt lat="42.55074578337371349334716796875" lon="20.13455492444336414337158203125">
        <ele>2065.39990234375</ele>
        <time>2026-06-20T07:32:31.000Z</time>
        <extensions>
          <ns3:TrackPointExtension>
            <ns3:atemp>20.0</ns3:atemp>
          </ns3:TrackPointExtension>
        </extensions>
      </trkpt>
      <trkpt lat="42.55074578337371349334716796875" lon="20.13455492444336414337158203125">
        <ele>2065.39990234375</ele>
        <time>2026-06-20T07:32:32.000Z</time>
        <extensions>
          <ns3:TrackPointExtension>
            <ns3:atemp>20.0</ns3:atemp>
          </ns3:TrackPointExtension>
        </extensions>
      </trkpt>
      <trkpt lat="42.55074578337371349334716796875" lon="20.13455492444336414337158203125">
        <ele>2065.60009765625</ele>
        <time>2026-06-20T07:32:33.000Z</time>
        <extensions>
          <ns3:TrackPointExtension>
            <ns3:atemp>20.0</ns3:atemp>
          </ns3:TrackPointExtension>
        </extensions>
      </trkpt>
      <trkpt lat="42.55074561573565006256103515625" lon="20.134554840624332427978515625">
        <ele>2065.800048828125</ele>
        <time>2026-06-20T07:32:34.000Z</time>
        <extensions>
          <ns3:TrackPointExtension>
            <ns3:atemp>20.0</ns3:atemp>
          </ns3:TrackPointExtension>
        </extensions>
      </trkpt>
      <trkpt lat="42.55073388107120990753173828125" lon="20.13455207459628582000732421875">
        <ele>2065.800048828125</ele>
        <time>2026-06-20T07:32:35.000Z</time>
        <extensions>
          <ns3:TrackPointExtension>
            <ns3:atemp>20.0</ns3:atemp>
          </ns3:TrackPointExtension>
        </extensions>
      </trkpt>
      <trkpt lat="42.55072063766419887542724609375" lon="20.13454671017825603485107421875">
        <ele>2065.800048828125</ele>
        <time>2026-06-20T07:32:36.000Z</time>
        <extensions>
          <ns3:TrackPointExtension>
            <ns3:atemp>20.0</ns3:atemp>
          </ns3:TrackPointExtension>
        </extensions>
      </trkpt>
      <trkpt lat="42.55070487968623638153076171875" lon="20.1345358975231647491455078125">
        <ele>2065.800048828125</ele>
        <time>2026-06-20T07:32:37.000Z</time>
        <extensions>
          <ns3:TrackPointExtension>
            <ns3:atemp>20.0</ns3:atemp>
          </ns3:TrackPointExtension>
        </extensions>
      </trkpt>
      <trkpt lat="42.55068928934633731842041015625" lon="20.13452231884002685546875">
        <ele>2065.800048828125</ele>
        <time>2026-06-20T07:32:38.000Z</time>
        <extensions>
          <ns3:TrackPointExtension>
            <ns3:atemp>20.0</ns3:atemp>
          </ns3:TrackPointExtension>
        </extensions>
      </trkpt>
      <trkpt lat="42.5506759621202945709228515625" lon="20.13451226055622100830078125">
        <ele>2065.800048828125</ele>
        <time>2026-06-20T07:32:39.000Z</time>
        <extensions>
          <ns3:TrackPointExtension>
            <ns3:atemp>20.0</ns3:atemp>
          </ns3:TrackPointExtension>
        </extensions>
      </trkpt>
      <trkpt lat="42.55066447891294956207275390625" lon="20.1344986818730831146240234375">
        <ele>2065.60009765625</ele>
        <time>2026-06-20T07:32:40.000Z</time>
        <extensions>
          <ns3:TrackPointExtension>
            <ns3:atemp>20.0</ns3:atemp>
          </ns3:TrackPointExtension>
        </extensions>
      </trkpt>
      <trkpt lat="42.55065056495368480682373046875" lon="20.13448543846607208251953125">
        <ele>2065.60009765625</ele>
        <time>2026-06-20T07:32:41.000Z</time>
        <extensions>
          <ns3:TrackPointExtension>
            <ns3:atemp>20.0</ns3:atemp>
          </ns3:TrackPointExtension>
        </extensions>
      </trkpt>
      <trkpt lat="42.5506323762238025665283203125" lon="20.13447009958326816558837890625">
        <ele>2065.60009765625</ele>
        <time>2026-06-20T07:32:42.000Z</time>
        <extensions>
          <ns3:TrackPointExtension>
            <ns3:atemp>20.0</ns3:atemp>
          </ns3:TrackPointExtension>
        </extensions>
      </trkpt>
      <trkpt lat="42.5506149418652057647705078125" lon="20.13446272350847721099853515625">
        <ele>2065.60009765625</ele>
        <time>2026-06-20T07:32:43.000Z</time>
        <extensions>
          <ns3:TrackPointExtension>
            <ns3:atemp>20.0</ns3:atemp>
          </ns3:TrackPointExtension>
        </extensions>
      </trkpt>
      <trkpt lat="42.5505959987640380859375" lon="20.13445325195789337158203125">
        <ele>2065.60009765625</ele>
        <time>2026-06-20T07:32:44.000Z</time>
        <extensions>
          <ns3:TrackPointExtension>
            <ns3:atemp>20.0</ns3:atemp>
          </ns3:TrackPointExtension>
        </extensions>
      </trkpt>
      <trkpt lat="42.55057563073933124542236328125" lon="20.134444870054721832275390625">
        <ele>2065.60009765625</ele>
        <time>2026-06-20T07:32:45.000Z</time>
        <extensions>
          <ns3:TrackPointExtension>
            <ns3:atemp>20.0</ns3:atemp>
          </ns3:TrackPointExtension>
        </extensions>
      </trkpt>
      <trkpt lat="42.5505544245243072509765625" lon="20.13443891890347003936767578125">
        <ele>2065.800048828125</ele>
        <time>2026-06-20T07:32:46.000Z</time>
        <extensions>
          <ns3:TrackPointExtension>
            <ns3:atemp>20.0</ns3:atemp>
          </ns3:TrackPointExtension>
        </extensions>
      </trkpt>
      <trkpt lat="42.550535313785076141357421875" lon="20.13442936353385448455810546875">
        <ele>2065.800048828125</ele>
        <time>2026-06-20T07:32:47.000Z</time>
        <extensions>
          <ns3:TrackPointExtension>
            <ns3:atemp>20.0</ns3:atemp>
          </ns3:TrackPointExtension>
        </extensions>
      </trkpt>
      <trkpt lat="42.55051477812230587005615234375" lon="20.1344145275652408599853515625">
        <ele>2066</ele>
        <time>2026-06-20T07:32:48.000Z</time>
        <extensions>
          <ns3:TrackPointExtension>
            <ns3:atemp>20.0</ns3:atemp>
          </ns3:TrackPointExtension>
        </extensions>
      </trkpt>
      <trkpt lat="42.55049130879342555999755859375" lon="20.1344017870724201202392578125">
        <ele>2066.199951171875</ele>
        <time>2026-06-20T07:32:49.000Z</time>
        <extensions>
          <ns3:TrackPointExtension>
            <ns3:atemp>20.0</ns3:atemp>
          </ns3:TrackPointExtension>
        </extensions>
      </trkpt>
      <trkpt lat="42.55047052167356014251708984375" lon="20.13439147733151912689208984375">
        <ele>2066.39990234375</ele>
        <time>2026-06-20T07:32:50.000Z</time>
        <extensions>
          <ns3:TrackPointExtension>
            <ns3:atemp>20.0</ns3:atemp>
          </ns3:TrackPointExtension>
        </extensions>
      </trkpt>
      <trkpt lat="42.5504486449062824249267578125" lon="20.13438217341899871826171875">
        <ele>2066.60009765625</ele>
        <time>2026-06-20T07:32:51.000Z</time>
        <extensions>
          <ns3:TrackPointExtension>
            <ns3:atemp>20.0</ns3:atemp>
          </ns3:TrackPointExtension>
        </extensions>
      </trkpt>
      <trkpt lat="42.55042710341513156890869140625" lon="20.13437136076390743255615234375">
        <ele>2066.800048828125</ele>
        <time>2026-06-20T07:32:52.000Z</time>
        <extensions>
          <ns3:TrackPointExtension>
            <ns3:atemp>20.0</ns3:atemp>
          </ns3:TrackPointExtension>
        </extensions>
      </trkpt>
      <trkpt lat="42.550403885543346405029296875" lon="20.13435912318527698516845703125">
        <ele>2067</ele>
        <time>2026-06-20T07:32:53.000Z</time>
        <extensions>
          <ns3:TrackPointExtension>
            <ns3:atemp>20.0</ns3:atemp>
          </ns3:TrackPointExtension>
        </extensions>
      </trkpt>
      <trkpt lat="42.550384104251861572265625" lon="20.1343573629856109619140625">
        <ele>2067.199951171875</ele>
        <time>2026-06-20T07:32:54.000Z</time>
        <extensions>
          <ns3:TrackPointExtension>
            <ns3:atemp>20.0</ns3:atemp>
          </ns3:TrackPointExtension>
        </extensions>
      </trkpt>
      <trkpt lat="42.55036532878875732421875" lon="20.13435493223369121551513671875">
        <ele>2067.39990234375</ele>
        <time>2026-06-20T07:32:55.000Z</time>
        <extensions>
          <ns3:TrackPointExtension>
            <ns3:atemp>20.0</ns3:atemp>
          </ns3:TrackPointExtension>
        </extensions>
      </trkpt>
      <trkpt lat="42.5503470562398433685302734375" lon="20.134342946112155914306640625">
        <ele>2067.800048828125</ele>
        <time>2026-06-20T07:32:56.000Z</time>
        <extensions>
          <ns3:TrackPointExtension>
            <ns3:atemp>20.0</ns3:atemp>
          </ns3:TrackPointExtension>
        </extensions>
      </trkpt>
      <trkpt lat="42.5503309629857540130615234375" lon="20.13433397747576236724853515625">
        <ele>2068</ele>
        <time>2026-06-20T07:32:57.000Z</time>
        <extensions>
          <ns3:TrackPointExtension>
            <ns3:atemp>20.0</ns3:atemp>
          </ns3:TrackPointExtension>
        </extensions>
      </trkpt>
      <trkpt lat="42.55031369626522064208984375" lon="20.1343236677348613739013671875">
        <ele>2068.199951171875</ele>
        <time>2026-06-20T07:32:58.000Z</time>
        <extensions>
          <ns3:TrackPointExtension>
            <ns3:atemp>20.0</ns3:atemp>
          </ns3:TrackPointExtension>
        </extensions>
      </trkpt>
      <trkpt lat="42.550294585525989532470703125" lon="20.13431570492684841156005859375">
        <ele>2068.60009765625</ele>
        <time>2026-06-20T07:32:59.000Z</time>
        <extensions>
          <ns3:TrackPointExtension>
            <ns3:atemp>20.0</ns3:atemp>
          </ns3:TrackPointExtension>
        </extensions>
      </trkpt>
      <trkpt lat="42.5502749718725681304931640625" lon="20.13430983759462833404541015625">
        <ele>2068.800048828125</ele>
        <time>2026-06-20T07:33:00.000Z</time>
        <extensions>
          <ns3:TrackPointExtension>
            <ns3:atemp>20.0</ns3:atemp>
          </ns3:TrackPointExtension>
        </extensions>
      </trkpt>
      <trkpt lat="42.55025560967624187469482421875" lon="20.134302712976932525634765625">
        <ele>2069</ele>
        <time>2026-06-20T07:33:01.000Z</time>
        <extensions>
          <ns3:TrackPointExtension>
            <ns3:atemp>20.0</ns3:atemp>
          </ns3:TrackPointExtension>
        </extensions>
      </trkpt>
      <trkpt lat="42.550236918032169342041015625" lon="20.13429659418761730194091796875">
        <ele>2069.199951171875</ele>
        <time>2026-06-20T07:33:02.000Z</time>
        <extensions>
          <ns3:TrackPointExtension>
            <ns3:atemp>20.0</ns3:atemp>
          </ns3:TrackPointExtension>
        </extensions>
      </trkpt>
      <trkpt lat="42.55021604709327220916748046875" lon="20.1342894695699214935302734375">
        <ele>2069.39990234375</ele>
        <time>2026-06-20T07:33:03.000Z</time>
        <extensions>
          <ns3:TrackPointExtension>
            <ns3:atemp>20.0</ns3:atemp>
          </ns3:TrackPointExtension>
        </extensions>
      </trkpt>
      <trkpt lat="42.55019894801080226898193359375" lon="20.13428293168544769287109375">
        <ele>2069.60009765625</ele>
        <time>2026-06-20T07:33:04.000Z</time>
        <extensions>
          <ns3:TrackPointExtension>
            <ns3:atemp>20.0</ns3:atemp>
          </ns3:TrackPointExtension>
        </extensions>
      </trkpt>
      <trkpt lat="42.55017782561480998992919921875" lon="20.134277231991291046142578125">
        <ele>2069.800048828125</ele>
        <time>2026-06-20T07:33:05.000Z</time>
        <extensions>
          <ns3:TrackPointExtension>
            <ns3:atemp>20.0</ns3:atemp>
          </ns3:TrackPointExtension>
        </extensions>
      </trkpt>
      <trkpt lat="42.55015737377107143402099609375" lon="20.13426859863102436065673828125">
        <ele>2070</ele>
        <time>2026-06-20T07:33:06.000Z</time>
        <extensions>
          <ns3:TrackPointExtension>
            <ns3:atemp>20.0</ns3:atemp>
          </ns3:TrackPointExtension>
        </extensions>
      </trkpt>
      <trkpt lat="42.5501432083547115325927734375" lon="20.1342629827558994293212890625">
        <ele>2070.39990234375</ele>
        <time>2026-06-20T07:33:07.000Z</time>
        <extensions>
          <ns3:TrackPointExtension>
            <ns3:atemp>20.0</ns3:atemp>
          </ns3:TrackPointExtension>
        </extensions>
      </trkpt>
      <trkpt lat="42.55012594163417816162109375" lon="20.13426071964204311370849609375">
        <ele>2070.60009765625</ele>
        <time>2026-06-20T07:33:08.000Z</time>
        <extensions>
          <ns3:TrackPointExtension>
            <ns3:atemp>20.0</ns3:atemp>
          </ns3:TrackPointExtension>
        </extensions>
      </trkpt>
      <trkpt lat="42.5501110218465328216552734375" lon="20.13425820507109165191650390625">
        <ele>2070.800048828125</ele>
        <time>2026-06-20T07:33:09.000Z</time>
        <extensions>
          <ns3:TrackPointExtension>
            <ns3:atemp>20.0</ns3:atemp>
          </ns3:TrackPointExtension>
        </extensions>
      </trkpt>
      <trkpt lat="42.550093419849872589111328125" lon="20.1342554390430450439453125">
        <ele>2071.199951171875</ele>
        <time>2026-06-20T07:33:10.000Z</time>
        <extensions>
          <ns3:TrackPointExtension>
            <ns3:atemp>20.0</ns3:atemp>
          </ns3:TrackPointExtension>
        </extensions>
      </trkpt>
      <trkpt lat="42.550075314939022064208984375" lon="20.13425300829112529754638671875">
        <ele>2071.39990234375</ele>
        <time>2026-06-20T07:33:11.000Z</time>
        <extensions>
          <ns3:TrackPointExtension>
            <ns3:atemp>20.0</ns3:atemp>
          </ns3:TrackPointExtension>
        </extensions>
      </trkpt>
      <trkpt lat="42.5500607304275035858154296875" lon="20.13424965552985668182373046875">
        <ele>2071.60009765625</ele>
        <time>2026-06-20T07:33:12.000Z</time>
        <extensions>
          <ns3:TrackPointExtension>
            <ns3:atemp>20.0</ns3:atemp>
          </ns3:TrackPointExtension>
        </extensions>
      </trkpt>
      <trkpt lat="42.550046481192111968994140625" lon="20.1342447102069854736328125">
        <ele>2072</ele>
        <time>2026-06-20T07:33:13.000Z</time>
        <extensions>
          <ns3:TrackPointExtension>
            <ns3:atemp>20.0</ns3:atemp>
          </ns3:TrackPointExtension>
        </extensions>
      </trkpt>
      <trkpt lat="42.55003273487091064453125" lon="20.134239681065082550048828125">
        <ele>2072.199951171875</ele>
        <time>2026-06-20T07:33:14.000Z</time>
        <extensions>
          <ns3:TrackPointExtension>
            <ns3:atemp>20.0</ns3:atemp>
          </ns3:TrackPointExtension>
        </extensions>
      </trkpt>
      <trkpt lat="42.55001999437808990478515625" lon="20.1342398487031459808349609375">
        <ele>2072.39990234375</ele>
        <time>2026-06-20T07:33:15.000Z</time>
        <extensions>
          <ns3:TrackPointExtension>
            <ns3:atemp>20.0</ns3:atemp>
          </ns3:TrackPointExtension>
        </extensions>
      </trkpt>
      <trkpt lat="42.55000800825655460357666015625" lon="20.13423942960798740386962890625">
        <ele>2072.60009765625</ele>
        <time>2026-06-20T07:33:16.000Z</time>
        <extensions>
          <ns3:TrackPointExtension>
            <ns3:atemp>20.0</ns3:atemp>
          </ns3:TrackPointExtension>
        </extensions>
      </trkpt>
      <trkpt lat="42.54999593831598758697509765625" lon="20.1342388428747653961181640625">
        <ele>2072.800048828125</ele>
        <time>2026-06-20T07:33:17.000Z</time>
        <extensions>
          <ns3:TrackPointExtension>
            <ns3:atemp>20.0</ns3:atemp>
          </ns3:TrackPointExtension>
        </extensions>
      </trkpt>
      <trkpt lat="42.549983449280261993408203125" lon="20.1342364959418773651123046875">
        <ele>2073</ele>
        <time>2026-06-20T07:33:18.000Z</time>
        <extensions>
          <ns3:TrackPointExtension>
            <ns3:atemp>20.0</ns3:atemp>
          </ns3:TrackPointExtension>
        </extensions>
      </trkpt>
      <trkpt lat="42.5499697029590606689453125" lon="20.134239010512828826904296875">
        <ele>2073.199951171875</ele>
        <time>2026-06-20T07:33:19.000Z</time>
        <extensions>
          <ns3:TrackPointExtension>
            <ns3:atemp>20.0</ns3:atemp>
          </ns3:TrackPointExtension>
        </extensions>
      </trkpt>
      <trkpt lat="42.54995587281882762908935546875" lon="20.13424395583570003509521484375">
        <ele>2073.60009765625</ele>
        <time>2026-06-20T07:33:20.000Z</time>
        <extensions>
          <ns3:TrackPointExtension>
            <ns3:atemp>20.0</ns3:atemp>
          </ns3:TrackPointExtension>
        </extensions>
      </trkpt>
      <trkpt lat="42.54994329996407032012939453125" lon="20.134251751005649566650390625">
        <ele>2073.800048828125</ele>
        <time>2026-06-20T07:33:21.000Z</time>
        <extensions>
          <ns3:TrackPointExtension>
            <ns3:atemp>20.0</ns3:atemp>
          </ns3:TrackPointExtension>
        </extensions>
      </trkpt>
      <trkpt lat="42.5499299727380275726318359375" lon="20.13425652869045734405517578125">
        <ele>2074</ele>
        <time>2026-06-20T07:33:22.000Z</time>
        <extensions>
          <ns3:TrackPointExtension>
            <ns3:atemp>20.0</ns3:atemp>
          </ns3:TrackPointExtension>
        </extensions>
      </trkpt>
      <trkpt lat="42.5499212555587291717529296875" lon="20.13425854034721851348876953125">
        <ele>2074.39990234375</ele>
        <time>2026-06-20T07:33:23.000Z</time>
        <extensions>
          <ns3:TrackPointExtension>
            <ns3:atemp>20.0</ns3:atemp>
          </ns3:TrackPointExtension>
        </extensions>
      </trkpt>
      <trkpt lat="42.549912370741367340087890625" lon="20.13425669632852077484130859375">
        <ele>2074.60009765625</ele>
        <time>2026-06-20T07:33:24.000Z</time>
        <extensions>
          <ns3:TrackPointExtension>
            <ns3:atemp>20.0</ns3:atemp>
          </ns3:TrackPointExtension>
        </extensions>
      </trkpt>
      <trkpt lat="42.54989837296307086944580078125" lon="20.13426004908978939056396484375">
        <ele>2075</ele>
        <time>2026-06-20T07:33:25.000Z</time>
        <extensions>
          <ns3:TrackPointExtension>
            <ns3:atemp>20.0</ns3:atemp>
          </ns3:TrackPointExtension>
        </extensions>
      </trkpt>
      <trkpt lat="42.549884207546710968017578125" lon="20.13427362777292728424072265625">
        <ele>2075.199951171875</ele>
        <time>2026-06-20T07:33:26.000Z</time>
        <extensions>
          <ns3:TrackPointExtension>
            <ns3:atemp>20.0</ns3:atemp>
          </ns3:TrackPointExtension>
        </extensions>
      </trkpt>
      <trkpt lat="42.54986886866390705108642578125" lon="20.13429625891149044036865234375">
        <ele>2075.60009765625</ele>
        <time>2026-06-20T07:33:27.000Z</time>
        <extensions>
          <ns3:TrackPointExtension>
            <ns3:atemp>20.0</ns3:atemp>
          </ns3:TrackPointExtension>
        </extensions>
      </trkpt>
      <trkpt lat="42.5498495064675807952880859375" lon="20.13431000523269176483154296875">
        <ele>2076</ele>
        <time>2026-06-20T07:33:28.000Z</time>
        <extensions>
          <ns3:TrackPointExtension>
            <ns3:atemp>20.0</ns3:atemp>
          </ns3:TrackPointExtension>
        </extensions>
      </trkpt>
      <trkpt lat="42.5498302280902862548828125" lon="20.134324170649051666259765625">
        <ele>2076.39990234375</ele>
        <time>2026-06-20T07:33:29.000Z</time>
        <extensions>
          <ns3:TrackPointExtension>
            <ns3:atemp>20.0</ns3:atemp>
          </ns3:TrackPointExtension>
        </extensions>
      </trkpt>
      <trkpt lat="42.549813129007816314697265625" lon="20.1343310438096523284912109375">
        <ele>2076.800048828125</ele>
        <time>2026-06-20T07:33:30.000Z</time>
        <extensions>
          <ns3:TrackPointExtension>
            <ns3:atemp>20.0</ns3:atemp>
          </ns3:TrackPointExtension>
        </extensions>
      </trkpt>
      <trkpt lat="42.54979200661182403564453125" lon="20.1343357376754283905029296875">
        <ele>2077.199951171875</ele>
        <time>2026-06-20T07:33:31.000Z</time>
        <extensions>
          <ns3:TrackPointExtension>
            <ns3:atemp>20.0</ns3:atemp>
          </ns3:TrackPointExtension>
        </extensions>
      </trkpt>
      <trkpt lat="42.5497730635106563568115234375" lon="20.1343367435038089752197265625">
        <ele>2077.60009765625</ele>
        <time>2026-06-20T07:33:32.000Z</time>
        <extensions>
          <ns3:TrackPointExtension>
            <ns3:atemp>20.0</ns3:atemp>
          </ns3:TrackPointExtension>
        </extensions>
      </trkpt>
      <trkpt lat="42.54975571297109127044677734375" lon="20.13433255255222320556640625">
        <ele>2077.800048828125</ele>
        <time>2026-06-20T07:33:33.000Z</time>
        <extensions>
          <ns3:TrackPointExtension>
            <ns3:atemp>20.0</ns3:atemp>
          </ns3:TrackPointExtension>
        </extensions>
      </trkpt>
      <trkpt lat="42.5497368536889553070068359375" lon="20.1343290321528911590576171875">
        <ele>2078.199951171875</ele>
        <time>2026-06-20T07:33:34.000Z</time>
        <extensions>
          <ns3:TrackPointExtension>
            <ns3:atemp>20.0</ns3:atemp>
          </ns3:TrackPointExtension>
        </extensions>
      </trkpt>
      <trkpt lat="42.54971824586391448974609375" lon="20.13432408683001995086669921875">
        <ele>2078.39990234375</ele>
        <time>2026-06-20T07:33:35.000Z</time>
        <extensions>
          <ns3:TrackPointExtension>
            <ns3:atemp>20.0</ns3:atemp>
          </ns3:TrackPointExtension>
        </extensions>
      </trkpt>
      <trkpt lat="42.54970014095306396484375" lon="20.1343146152794361114501953125">
        <ele>2078.60009765625</ele>
        <time>2026-06-20T07:33:36.000Z</time>
        <extensions>
          <ns3:TrackPointExtension>
            <ns3:atemp>20.0</ns3:atemp>
          </ns3:TrackPointExtension>
        </extensions>
      </trkpt>
      <trkpt lat="42.54968245513737201690673828125" lon="20.13430715538561344146728515625">
        <ele>2078.800048828125</ele>
        <time>2026-06-20T07:33:37.000Z</time>
        <extensions>
          <ns3:TrackPointExtension>
            <ns3:atemp>20.0</ns3:atemp>
          </ns3:TrackPointExtension>
        </extensions>
      </trkpt>
      <trkpt lat="42.549665272235870361328125" lon="20.1343038864433765411376953125">
        <ele>2079</ele>
        <time>2026-06-20T07:33:38.000Z</time>
        <extensions>
          <ns3:TrackPointExtension>
            <ns3:atemp>20.0</ns3:atemp>
          </ns3:TrackPointExtension>
        </extensions>
      </trkpt>
      <trkpt lat="42.54964716732501983642578125" lon="20.1343023777008056640625">
        <ele>2079.199951171875</ele>
        <time>2026-06-20T07:33:39.000Z</time>
        <extensions>
          <ns3:TrackPointExtension>
            <ns3:atemp>20.0</ns3:atemp>
          </ns3:TrackPointExtension>
        </extensions>
      </trkpt>
      <trkpt lat="42.5496285594999790191650390625" lon="20.1343018747866153717041015625">
        <ele>2079.39990234375</ele>
        <time>2026-06-20T07:33:40.000Z</time>
        <extensions>
          <ns3:TrackPointExtension>
            <ns3:atemp>20.0</ns3:atemp>
          </ns3:TrackPointExtension>
        </extensions>
      </trkpt>
      <trkpt lat="42.54961003549396991729736328125" lon="20.13430095277726650238037109375">
        <ele>2079.60009765625</ele>
        <time>2026-06-20T07:33:41.000Z</time>
        <extensions>
          <ns3:TrackPointExtension>
            <ns3:atemp>20.0</ns3:atemp>
          </ns3:TrackPointExtension>
        </extensions>
      </trkpt>
      <trkpt lat="42.5495916791260242462158203125" lon="20.13429768383502960205078125">
        <ele>2079.800048828125</ele>
        <time>2026-06-20T07:33:42.000Z</time>
        <extensions>
          <ns3:TrackPointExtension>
            <ns3:atemp>20.0</ns3:atemp>
          </ns3:TrackPointExtension>
        </extensions>
      </trkpt>
      <trkpt lat="42.549575753509998321533203125" lon="20.13429206795990467071533203125">
        <ele>2080</ele>
        <time>2026-06-20T07:33:43.000Z</time>
        <extensions>
          <ns3:TrackPointExtension>
            <ns3:atemp>20.0</ns3:atemp>
          </ns3:TrackPointExtension>
        </extensions>
      </trkpt>
      <trkpt lat="42.54955823533236980438232421875" lon="20.13428804464638233184814453125">
        <ele>2080.199951171875</ele>
        <time>2026-06-20T07:33:44.000Z</time>
        <extensions>
          <ns3:TrackPointExtension>
            <ns3:atemp>20.0</ns3:atemp>
          </ns3:TrackPointExtension>
        </extensions>
      </trkpt>
      <trkpt lat="42.5495393760502338409423828125" lon="20.13428402133285999298095703125">
        <ele>2080.39990234375</ele>
        <time>2026-06-20T07:33:45.000Z</time>
        <extensions>
          <ns3:TrackPointExtension>
            <ns3:atemp>20.0</ns3:atemp>
          </ns3:TrackPointExtension>
        </extensions>
      </trkpt>
      <trkpt lat="42.54952403716742992401123046875" lon="20.134279914200305938720703125">
        <ele>2080.39990234375</ele>
        <time>2026-06-20T07:33:46.000Z</time>
        <extensions>
          <ns3:TrackPointExtension>
            <ns3:atemp>20.0</ns3:atemp>
          </ns3:TrackPointExtension>
        </extensions>
      </trkpt>
      <trkpt lat="42.5495081953704357147216796875" lon="20.134276561439037322998046875">
        <ele>2080.60009765625</ele>
        <time>2026-06-20T07:33:47.000Z</time>
        <extensions>
          <ns3:TrackPointExtension>
            <ns3:atemp>20.0</ns3:atemp>
          </ns3:TrackPointExtension>
        </extensions>
      </trkpt>
      <trkpt lat="42.5494931079447269439697265625" lon="20.134267844259738922119140625">
        <ele>2080.800048828125</ele>
        <time>2026-06-20T07:33:48.000Z</time>
        <extensions>
          <ns3:TrackPointExtension>
            <ns3:atemp>20.0</ns3:atemp>
          </ns3:TrackPointExtension>
        </extensions>
      </trkpt>
      <trkpt lat="42.549477852880954742431640625" lon="20.13426071964204311370849609375">
        <ele>2081</ele>
        <time>2026-06-20T07:33:49.000Z</time>
        <extensions>
          <ns3:TrackPointExtension>
            <ns3:atemp>20.0</ns3:atemp>
          </ns3:TrackPointExtension>
        </extensions>
      </trkpt>
      <trkpt lat="42.5494636036455631256103515625" lon="20.13425652869045734405517578125">
        <ele>2081.199951171875</ele>
        <time>2026-06-20T07:33:50.000Z</time>
        <extensions>
          <ns3:TrackPointExtension>
            <ns3:atemp>20.0</ns3:atemp>
          </ns3:TrackPointExtension>
        </extensions>
      </trkpt>
      <trkpt lat="42.5494478456676006317138671875" lon="20.1342502422630786895751953125">
        <ele>2081.39990234375</ele>
        <time>2026-06-20T07:33:51.000Z</time>
        <extensions>
          <ns3:TrackPointExtension>
            <ns3:atemp>20.0</ns3:atemp>
          </ns3:TrackPointExtension>
        </extensions>
      </trkpt>
      <trkpt lat="42.54943401552736759185791015625" lon="20.134240686893463134765625">
        <ele>2081.800048828125</ele>
        <time>2026-06-20T07:33:52.000Z</time>
        <extensions>
          <ns3:TrackPointExtension>
            <ns3:atemp>20.0</ns3:atemp>
          </ns3:TrackPointExtension>
        </extensions>
      </trkpt>
      <trkpt lat="42.5494223646819591522216796875" lon="20.13423264026641845703125">
        <ele>2082</ele>
        <time>2026-06-20T07:33:53.000Z</time>
        <extensions>
          <ns3:TrackPointExtension>
            <ns3:atemp>20.0</ns3:atemp>
          </ns3:TrackPointExtension>
        </extensions>
      </trkpt>
      <trkpt lat="42.549406103789806365966796875" lon="20.13422501273453235626220703125">
        <ele>2082.39990234375</ele>
        <time>2026-06-20T07:33:54.000Z</time>
        <extensions>
          <ns3:TrackPointExtension>
            <ns3:atemp>20.0</ns3:atemp>
          </ns3:TrackPointExtension>
        </extensions>
      </trkpt>
      <trkpt lat="42.54939344711601734161376953125" lon="20.134216882288455963134765625">
        <ele>2082.60009765625</ele>
        <time>2026-06-20T07:33:55.000Z</time>
        <extensions>
          <ns3:TrackPointExtension>
            <ns3:atemp>20.0</ns3:atemp>
          </ns3:TrackPointExtension>
        </extensions>
      </trkpt>
      <trkpt lat="42.54937869496643543243408203125" lon="20.134210176765918731689453125">
        <ele>2082.800048828125</ele>
        <time>2026-06-20T07:33:56.000Z</time>
        <extensions>
          <ns3:TrackPointExtension>
            <ns3:atemp>20.0</ns3:atemp>
          </ns3:TrackPointExtension>
        </extensions>
      </trkpt>
      <trkpt lat="42.5493616797029972076416015625" lon="20.13420581817626953125">
        <ele>2083</ele>
        <time>2026-06-20T07:33:57.000Z</time>
        <extensions>
          <ns3:TrackPointExtension>
            <ns3:atemp>20.0</ns3:atemp>
          </ns3:TrackPointExtension>
        </extensions>
      </trkpt>
      <trkpt lat="42.54934365861117839813232421875" lon="20.13420456089079380035400390625">
        <ele>2083.199951171875</ele>
        <time>2026-06-20T07:33:58.000Z</time>
        <extensions>
          <ns3:TrackPointExtension>
            <ns3:atemp>20.0</ns3:atemp>
          </ns3:TrackPointExtension>
        </extensions>
      </trkpt>
      <trkpt lat="42.5493258051574230194091796875" lon="20.1341991126537322998046875">
        <ele>2083.39990234375</ele>
        <time>2026-06-20T07:33:59.000Z</time>
        <extensions>
          <ns3:TrackPointExtension>
            <ns3:atemp>20.0</ns3:atemp>
          </ns3:TrackPointExtension>
        </extensions>
      </trkpt>
      <trkpt lat="42.54930627532303333282470703125" lon="20.134192742407321929931640625">
        <ele>2083.60009765625</ele>
        <time>2026-06-20T07:34:00.000Z</time>
        <extensions>
          <ns3:TrackPointExtension>
            <ns3:atemp>20.0</ns3:atemp>
          </ns3:TrackPointExtension>
        </extensions>
      </trkpt>
      <trkpt lat="42.54928682930767536163330078125" lon="20.13418813236057758331298828125">
        <ele>2083.800048828125</ele>
        <time>2026-06-20T07:34:01.000Z</time>
        <extensions>
          <ns3:TrackPointExtension>
            <ns3:atemp>20.0</ns3:atemp>
          </ns3:TrackPointExtension>
        </extensions>
      </trkpt>
      <trkpt lat="42.54926805384457111358642578125" lon="20.13418813236057758331298828125">
        <ele>2084</ele>
        <time>2026-06-20T07:34:02.000Z</time>
        <extensions>
          <ns3:TrackPointExtension>
            <ns3:atemp>20.0</ns3:atemp>
          </ns3:TrackPointExtension>
        </extensions>
      </trkpt>
      <trkpt lat="42.54924952983856201171875" lon="20.13419114984571933746337890625">
        <ele>2084.199951171875</ele>
        <time>2026-06-20T07:34:03.000Z</time>
        <extensions>
          <ns3:TrackPointExtension>
            <ns3:atemp>20.0</ns3:atemp>
          </ns3:TrackPointExtension>
        </extensions>
      </trkpt>
      <trkpt lat="42.5492305867373943328857421875" lon="20.13419684953987598419189453125">
        <ele>2084.60009765625</ele>
        <time>2026-06-20T07:34:04.000Z</time>
        <extensions>
          <ns3:TrackPointExtension>
            <ns3:atemp>20.0</ns3:atemp>
          </ns3:TrackPointExtension>
        </extensions>
      </trkpt>
      <trkpt lat="42.54921558313071727752685546875" lon="20.13420875184237957000732421875">
        <ele>2084.800048828125</ele>
        <time>2026-06-20T07:34:05.000Z</time>
        <extensions>
          <ns3:TrackPointExtension>
            <ns3:atemp>20.0</ns3:atemp>
          </ns3:TrackPointExtension>
        </extensions>
      </trkpt>
      <trkpt lat="42.54920267499983310699462890625" lon="20.1342157088220119476318359375">
        <ele>2085.199951171875</ele>
        <time>2026-06-20T07:34:06.000Z</time>
        <extensions>
          <ns3:TrackPointExtension>
            <ns3:atemp>20.0</ns3:atemp>
          </ns3:TrackPointExtension>
        </extensions>
      </trkpt>
      <trkpt lat="42.54918674938380718231201171875" lon="20.13422970660030841827392578125">
        <ele>2085.60009765625</ele>
        <time>2026-06-20T07:34:07.000Z</time>
        <extensions>
          <ns3:TrackPointExtension>
            <ns3:atemp>20.0</ns3:atemp>
          </ns3:TrackPointExtension>
        </extensions>
      </trkpt>
      <trkpt lat="42.54917669110000133514404296875" lon="20.13424194417893886566162109375">
        <ele>2085.800048828125</ele>
        <time>2026-06-20T07:34:08.000Z</time>
        <extensions>
          <ns3:TrackPointExtension>
            <ns3:atemp>20.0</ns3:atemp>
          </ns3:TrackPointExtension>
        </extensions>
      </trkpt>
      <trkpt lat="42.54916411824524402618408203125" lon="20.1342539303004741668701171875">
        <ele>2086.199951171875</ele>
        <time>2026-06-20T07:34:09.000Z</time>
        <extensions>
          <ns3:TrackPointExtension>
            <ns3:atemp>20.0</ns3:atemp>
          </ns3:TrackPointExtension>
        </extensions>
      </trkpt>
      <trkpt lat="42.54914953373372554779052734375" lon="20.1342649944126605987548828125">
        <ele>2086.60009765625</ele>
        <time>2026-06-20T07:34:10.000Z</time>
        <extensions>
          <ns3:TrackPointExtension>
            <ns3:atemp>20.0</ns3:atemp>
          </ns3:TrackPointExtension>
        </extensions>
      </trkpt>
      <trkpt lat="42.5491353683173656463623046875" lon="20.1342747174203395843505859375">
        <ele>2086.800048828125</ele>
        <time>2026-06-20T07:34:11.000Z</time>
        <extensions>
          <ns3:TrackPointExtension>
            <ns3:atemp>20.0</ns3:atemp>
          </ns3:TrackPointExtension>
        </extensions>
      </trkpt>
      <trkpt lat="42.549122460186481475830078125" lon="20.1342841051518917083740234375">
        <ele>2087.199951171875</ele>
        <time>2026-06-20T07:34:12.000Z</time>
        <extensions>
          <ns3:TrackPointExtension>
            <ns3:atemp>20.0</ns3:atemp>
          </ns3:TrackPointExtension>
        </extensions>
      </trkpt>
      <trkpt lat="42.549108378589153289794921875" lon="20.13428988866508007049560546875">
        <ele>2087.39990234375</ele>
        <time>2026-06-20T07:34:13.000Z</time>
        <extensions>
          <ns3:TrackPointExtension>
            <ns3:atemp>20.0</ns3:atemp>
          </ns3:TrackPointExtension>
        </extensions>
      </trkpt>
      <trkpt lat="42.549091279506683349609375" lon="20.13429827056825160980224609375">
        <ele>2087.60009765625</ele>
        <time>2026-06-20T07:34:14.000Z</time>
        <extensions>
          <ns3:TrackPointExtension>
            <ns3:atemp>20.0</ns3:atemp>
          </ns3:TrackPointExtension>
        </extensions>
      </trkpt>
      <trkpt lat="42.54907610826194286346435546875" lon="20.13431319035589694976806640625">
        <ele>2088</ele>
        <time>2026-06-20T07:34:15.000Z</time>
        <extensions>
          <ns3:TrackPointExtension>
            <ns3:atemp>20.0</ns3:atemp>
          </ns3:TrackPointExtension>
        </extensions>
      </trkpt>
      <trkpt lat="42.5490599311888217926025390625" lon="20.134326852858066558837890625">
        <ele>2088.39990234375</ele>
        <time>2026-06-20T07:34:16.000Z</time>
        <extensions>
          <ns3:TrackPointExtension>
            <ns3:atemp>20.0</ns3:atemp>
          </ns3:TrackPointExtension>
        </extensions>
      </trkpt>
      <trkpt lat="42.549044676125049591064453125" lon="20.13434202410280704498291015625">
        <ele>2088.60009765625</ele>
        <time>2026-06-20T07:34:17.000Z</time>
        <extensions>
          <ns3:TrackPointExtension>
            <ns3:atemp>20.0</ns3:atemp>
          </ns3:TrackPointExtension>
        </extensions>
      </trkpt>
      <trkpt lat="42.54902816377580165863037109375" lon="20.1343605481088161468505859375">
        <ele>2088.800048828125</ele>
        <time>2026-06-20T07:34:18.000Z</time>
        <extensions>
          <ns3:TrackPointExtension>
            <ns3:atemp>20.0</ns3:atemp>
          </ns3:TrackPointExtension>
        </extensions>
      </trkpt>
      <trkpt lat="42.54901341162621974945068359375" lon="20.13437840156257152557373046875">
        <ele>2089</ele>
        <time>2026-06-20T07:34:19.000Z</time>
        <extensions>
          <ns3:TrackPointExtension>
            <ns3:atemp>20.0</ns3:atemp>
          </ns3:TrackPointExtension>
        </extensions>
      </trkpt>
      <trkpt lat="42.54900100640952587127685546875" lon="20.13439533300697803497314453125">
        <ele>2089.39990234375</ele>
        <time>2026-06-20T07:34:20.000Z</time>
        <extensions>
          <ns3:TrackPointExtension>
            <ns3:atemp>20.0</ns3:atemp>
          </ns3:TrackPointExtension>
        </extensions>
      </trkpt>
      <trkpt lat="42.54899027757346630096435546875" lon="20.1344151981174945831298828125">
        <ele>2089.60009765625</ele>
        <time>2026-06-20T07:34:21.000Z</time>
        <extensions>
          <ns3:TrackPointExtension>
            <ns3:atemp>20.0</ns3:atemp>
          </ns3:TrackPointExtension>
        </extensions>
      </trkpt>
      <trkpt lat="42.54898021928966045379638671875" lon="20.13443648815155029296875">
        <ele>2089.800048828125</ele>
        <time>2026-06-20T07:34:22.000Z</time>
        <extensions>
          <ns3:TrackPointExtension>
            <ns3:atemp>20.0</ns3:atemp>
          </ns3:TrackPointExtension>
        </extensions>
      </trkpt>
      <trkpt lat="42.54897083155810832977294921875" lon="20.1344547607004642486572265625">
        <ele>2090</ele>
        <time>2026-06-20T07:34:23.000Z</time>
        <extensions>
          <ns3:TrackPointExtension>
            <ns3:atemp>20.0</ns3:atemp>
          </ns3:TrackPointExtension>
        </extensions>
      </trkpt>
      <trkpt lat="42.54896379075944423675537109375" lon="20.13447412289679050445556640625">
        <ele>2090.199951171875</ele>
        <time>2026-06-20T07:34:24.000Z</time>
        <extensions>
          <ns3:TrackPointExtension>
            <ns3:atemp>20.0</ns3:atemp>
          </ns3:TrackPointExtension>
        </extensions>
      </trkpt>
      <trkpt lat="42.54895658232271671295166015625" lon="20.13449373655021190643310546875">
        <ele>2090.60009765625</ele>
        <time>2026-06-20T07:34:25.000Z</time>
        <extensions>
          <ns3:TrackPointExtension>
            <ns3:atemp>20.0</ns3:atemp>
          </ns3:TrackPointExtension>
        </extensions>
      </trkpt>
      <trkpt lat="42.548945434391498565673828125" lon="20.13451653532683849334716796875">
        <ele>2091</ele>
        <time>2026-06-20T07:34:26.000Z</time>
        <extensions>
          <ns3:TrackPointExtension>
            <ns3:atemp>20.0</ns3:atemp>
          </ns3:TrackPointExtension>
        </extensions>
      </trkpt>
      <trkpt lat="42.54893395118415355682373046875" lon="20.13454176485538482666015625">
        <ele>2091.39990234375</ele>
        <time>2026-06-20T07:34:27.000Z</time>
        <extensions>
          <ns3:TrackPointExtension>
            <ns3:atemp>20.0</ns3:atemp>
          </ns3:TrackPointExtension>
        </extensions>
      </trkpt>
      <trkpt lat="42.54892305471003055572509765625" lon="20.13456230051815509796142578125">
        <ele>2091.60009765625</ele>
        <time>2026-06-20T07:34:28.000Z</time>
        <extensions>
          <ns3:TrackPointExtension>
            <ns3:atemp>20.0</ns3:atemp>
          </ns3:TrackPointExtension>
        </extensions>
      </trkpt>
      <trkpt lat="42.54891266115009784698486328125" lon="20.13458576984703540802001953125">
        <ele>2092</ele>
        <time>2026-06-20T07:34:29.000Z</time>
        <extensions>
          <ns3:TrackPointExtension>
            <ns3:atemp>20.0</ns3:atemp>
          </ns3:TrackPointExtension>
        </extensions>
      </trkpt>
      <trkpt lat="42.54890075884759426116943359375" lon="20.13460479676723480224609375">
        <ele>2092.199951171875</ele>
        <time>2026-06-20T07:34:30.000Z</time>
        <extensions>
          <ns3:TrackPointExtension>
            <ns3:atemp>20.0</ns3:atemp>
          </ns3:TrackPointExtension>
        </extensions>
      </trkpt>
      <trkpt lat="42.54888768307864665985107421875" lon="20.13462918810546398162841796875">
        <ele>2092.60009765625</ele>
        <time>2026-06-20T07:34:31.000Z</time>
        <extensions>
          <ns3:TrackPointExtension>
            <ns3:atemp>20.0</ns3:atemp>
          </ns3:TrackPointExtension>
        </extensions>
      </trkpt>
      <trkpt lat="42.54887276329100131988525390625" lon="20.134652741253376007080078125">
        <ele>2092.800048828125</ele>
        <time>2026-06-20T07:34:32.000Z</time>
        <extensions>
          <ns3:TrackPointExtension>
            <ns3:atemp>20.0</ns3:atemp>
          </ns3:TrackPointExtension>
        </extensions>
      </trkpt>
      <trkpt lat="42.54885499365627765655517578125" lon="20.13468165881931781768798828125">
        <ele>2093.199951171875</ele>
        <time>2026-06-20T07:34:33.000Z</time>
        <extensions>
          <ns3:TrackPointExtension>
            <ns3:atemp>20.0</ns3:atemp>
          </ns3:TrackPointExtension>
        </extensions>
      </trkpt>
      <trkpt lat="42.5488376431167125701904296875" lon="20.13470940291881561279296875">
        <ele>2093.39990234375</ele>
        <time>2026-06-20T07:34:34.000Z</time>
        <extensions>
          <ns3:TrackPointExtension>
            <ns3:atemp>20.0</ns3:atemp>
          </ns3:TrackPointExtension>
        </extensions>
      </trkpt>
      <trkpt lat="42.5488195382058620452880859375" lon="20.13473580591380596160888671875">
        <ele>2093.60009765625</ele>
        <time>2026-06-20T07:34:35.000Z</time>
        <extensions>
          <ns3:TrackPointExtension>
            <ns3:atemp>20.0</ns3:atemp>
          </ns3:TrackPointExtension>
        </extensions>
      </trkpt>
      <trkpt lat="42.54880227148532867431640625" lon="20.134763382375240325927734375">
        <ele>2093.800048828125</ele>
        <time>2026-06-20T07:34:36.000Z</time>
        <extensions>
          <ns3:TrackPointExtension>
            <ns3:atemp>20.0</ns3:atemp>
          </ns3:TrackPointExtension>
        </extensions>
      </trkpt>
      <trkpt lat="42.54878483712673187255859375" lon="20.13478894717991352081298828125">
        <ele>2094</ele>
        <time>2026-06-20T07:34:37.000Z</time>
        <extensions>
          <ns3:TrackPointExtension>
            <ns3:atemp>20.0</ns3:atemp>
          </ns3:TrackPointExtension>
        </extensions>
      </trkpt>
      <trkpt lat="42.5487672351300716400146484375" lon="20.1348141767084598541259765625">
        <ele>2094.39990234375</ele>
        <time>2026-06-20T07:34:38.000Z</time>
        <extensions>
          <ns3:TrackPointExtension>
            <ns3:atemp>20.0</ns3:atemp>
          </ns3:TrackPointExtension>
        </extensions>
      </trkpt>
      <trkpt lat="42.5487481243908405303955078125" lon="20.13483680784702301025390625">
        <ele>2094.60009765625</ele>
        <time>2026-06-20T07:34:39.000Z</time>
        <extensions>
          <ns3:TrackPointExtension>
            <ns3:atemp>20.0</ns3:atemp>
          </ns3:TrackPointExtension>
        </extensions>
      </trkpt>
      <trkpt lat="42.5487263314425945281982421875" lon="20.13486254028975963592529296875">
        <ele>2094.800048828125</ele>
        <time>2026-06-20T07:34:40.000Z</time>
        <extensions>
          <ns3:TrackPointExtension>
            <ns3:atemp>20.0</ns3:atemp>
          </ns3:TrackPointExtension>
        </extensions>
      </trkpt>
      <trkpt lat="42.54870244301855564117431640625" lon="20.1348889432847499847412109375">
        <ele>2095</ele>
        <time>2026-06-20T07:34:41.000Z</time>
        <extensions>
          <ns3:TrackPointExtension>
            <ns3:atemp>20.0</ns3:atemp>
          </ns3:TrackPointExtension>
        </extensions>
      </trkpt>
      <trkpt lat="42.54868098534643650054931640625" lon="20.1349214650690555572509765625">
        <ele>2095</ele>
        <time>2026-06-20T07:34:42.000Z</time>
        <extensions>
          <ns3:TrackPointExtension>
            <ns3:atemp>20.0</ns3:atemp>
          </ns3:TrackPointExtension>
        </extensions>
      </trkpt>
      <trkpt lat="42.54865952767431735992431640625" lon="20.134954489767551422119140625">
        <ele>2095.199951171875</ele>
        <time>2026-06-20T07:34:43.000Z</time>
        <extensions>
          <ns3:TrackPointExtension>
            <ns3:atemp>20.0</ns3:atemp>
          </ns3:TrackPointExtension>
        </extensions>
      </trkpt>
      <trkpt lat="42.54863672889769077301025390625" lon="20.13498323969542980194091796875">
        <ele>2095.39990234375</ele>
        <time>2026-06-20T07:34:44.000Z</time>
        <extensions>
          <ns3:TrackPointExtension>
            <ns3:atemp>20.0</ns3:atemp>
          </ns3:TrackPointExtension>
        </extensions>
      </trkpt>
      <trkpt lat="42.548613511025905609130859375" lon="20.13500989414751529693603515625">
        <ele>2095.60009765625</ele>
        <time>2026-06-20T07:34:45.000Z</time>
        <extensions>
          <ns3:TrackPointExtension>
            <ns3:atemp>20.0</ns3:atemp>
          </ns3:TrackPointExtension>
        </extensions>
      </trkpt>
      <trkpt lat="42.548591382801532745361328125" lon="20.13503353111445903778076171875">
        <ele>2095.60009765625</ele>
        <time>2026-06-20T07:34:46.000Z</time>
        <extensions>
          <ns3:TrackPointExtension>
            <ns3:atemp>20.0</ns3:atemp>
          </ns3:TrackPointExtension>
        </extensions>
      </trkpt>
      <trkpt lat="42.5485734455287456512451171875" lon="20.13505674898624420166015625">
        <ele>2095.800048828125</ele>
        <time>2026-06-20T07:34:47.000Z</time>
        <extensions>
          <ns3:TrackPointExtension>
            <ns3:atemp>20.0</ns3:atemp>
          </ns3:TrackPointExtension>
        </extensions>
      </trkpt>
      <trkpt lat="42.54855793900787830352783203125" lon="20.13507979921996593475341796875">
        <ele>2096</ele>
        <time>2026-06-20T07:34:48.000Z</time>
        <extensions>
          <ns3:TrackPointExtension>
            <ns3:atemp>20.0</ns3:atemp>
          </ns3:TrackPointExtension>
        </extensions>
      </trkpt>
      <trkpt lat="42.54854167811572551727294921875" lon="20.13509639538824558258056640625">
        <ele>2096.199951171875</ele>
        <time>2026-06-20T07:34:49.000Z</time>
        <extensions>
          <ns3:TrackPointExtension>
            <ns3:atemp>20.0</ns3:atemp>
          </ns3:TrackPointExtension>
        </extensions>
      </trkpt>
      <trkpt lat="42.54852742888033390045166015625" lon="20.135109387338161468505859375">
        <ele>2096.199951171875</ele>
        <time>2026-06-20T07:34:50.000Z</time>
        <extensions>
          <ns3:TrackPointExtension>
            <ns3:atemp>20.0</ns3:atemp>
          </ns3:TrackPointExtension>
        </extensions>
      </trkpt>
      <trkpt lat="42.5485146045684814453125" lon="20.13512690551578998565673828125">
        <ele>2096.199951171875</ele>
        <time>2026-06-20T07:34:51.000Z</time>
        <extensions>
          <ns3:TrackPointExtension>
            <ns3:atemp>20.0</ns3:atemp>
          </ns3:TrackPointExtension>
        </extensions>
      </trkpt>
      <trkpt lat="42.548504881560802459716796875" lon="20.13514685444533824920654296875">
        <ele>2096.39990234375</ele>
        <time>2026-06-20T07:34:52.000Z</time>
        <extensions>
          <ns3:TrackPointExtension>
            <ns3:atemp>20.0</ns3:atemp>
          </ns3:TrackPointExtension>
        </extensions>
      </trkpt>
      <trkpt lat="42.54849323071539402008056640625" lon="20.13516713865101337432861328125">
        <ele>2096.39990234375</ele>
        <time>2026-06-20T07:34:53.000Z</time>
        <extensions>
          <ns3:TrackPointExtension>
            <ns3:atemp>20.0</ns3:atemp>
          </ns3:TrackPointExtension>
        </extensions>
      </trkpt>
      <trkpt lat="42.54848099313676357269287109375" lon="20.13519010506570339202880859375">
        <ele>2096.60009765625</ele>
        <time>2026-06-20T07:34:54.000Z</time>
        <extensions>
          <ns3:TrackPointExtension>
            <ns3:atemp>20.0</ns3:atemp>
          </ns3:TrackPointExtension>
        </extensions>
      </trkpt>
      <trkpt lat="42.54847009666264057159423828125" lon="20.13520871289074420928955078125">
        <ele>2096.60009765625</ele>
        <time>2026-06-20T07:34:55.000Z</time>
        <extensions>
          <ns3:TrackPointExtension>
            <ns3:atemp>20.0</ns3:atemp>
          </ns3:TrackPointExtension>
        </extensions>
      </trkpt>
      <trkpt lat="42.5484584458172321319580078125" lon="20.135224722325801849365234375">
        <ele>2096.800048828125</ele>
        <time>2026-06-20T07:34:56.000Z</time>
        <extensions>
          <ns3:TrackPointExtension>
            <ns3:atemp>20.0</ns3:atemp>
          </ns3:TrackPointExtension>
        </extensions>
      </trkpt>
      <trkpt lat="42.54844553768634796142578125" lon="20.13524374924600124359130859375">
        <ele>2096.800048828125</ele>
        <time>2026-06-20T07:34:57.000Z</time>
        <extensions>
          <ns3:TrackPointExtension>
            <ns3:atemp>20.0</ns3:atemp>
          </ns3:TrackPointExtension>
        </extensions>
      </trkpt>
      <trkpt lat="42.54843086935579776763916015625" lon="20.1352654583752155303955078125">
        <ele>2097</ele>
        <time>2026-06-20T07:34:58.000Z</time>
        <extensions>
          <ns3:TrackPointExtension>
            <ns3:atemp>20.0</ns3:atemp>
          </ns3:TrackPointExtension>
        </extensions>
      </trkpt>
      <trkpt lat="42.5484175421297550201416015625" lon="20.135286413133144378662109375">
        <ele>2097</ele>
        <time>2026-06-20T07:34:59.000Z</time>
        <extensions>
          <ns3:TrackPointExtension>
            <ns3:atemp>20.0</ns3:atemp>
          </ns3:TrackPointExtension>
        </extensions>
      </trkpt>
      <trkpt lat="42.54840396344661712646484375" lon="20.13530594296753406524658203125">
        <ele>2097.199951171875</ele>
        <time>2026-06-20T07:35:00.000Z</time>
        <extensions>
          <ns3:TrackPointExtension>
            <ns3:atemp>20.0</ns3:atemp>
          </ns3:TrackPointExtension>
        </extensions>
      </trkpt>
      <trkpt lat="42.5483913905918598175048828125" lon="20.13532957993447780609130859375">
        <ele>2097.199951171875</ele>
        <time>2026-06-20T07:35:01.000Z</time>
        <extensions>
          <ns3:TrackPointExtension>
            <ns3:atemp>20.0</ns3:atemp>
          </ns3:TrackPointExtension>
        </extensions>
      </trkpt>
      <trkpt lat="42.54837806336581707000732421875" lon="20.13535154052078723907470703125">
        <ele>2097.39990234375</ele>
        <time>2026-06-20T07:35:02.000Z</time>
        <extensions>
          <ns3:TrackPointExtension>
            <ns3:atemp>20.0</ns3:atemp>
          </ns3:TrackPointExtension>
        </extensions>
      </trkpt>
      <trkpt lat="42.548364736139774322509765625" lon="20.1353766024112701416015625">
        <ele>2097.60009765625</ele>
        <time>2026-06-20T07:35:03.000Z</time>
        <extensions>
          <ns3:TrackPointExtension>
            <ns3:atemp>20.0</ns3:atemp>
          </ns3:TrackPointExtension>
        </extensions>
      </trkpt>
      <trkpt lat="42.5483521632850170135498046875" lon="20.1353962160646915435791015625">
        <ele>2097.800048828125</ele>
        <time>2026-06-20T07:35:04.000Z</time>
        <extensions>
          <ns3:TrackPointExtension>
            <ns3:atemp>20.0</ns3:atemp>
          </ns3:TrackPointExtension>
        </extensions>
      </trkpt>
      <trkpt lat="42.5483377464115619659423828125" lon="20.13541121967136859893798828125">
        <ele>2098</ele>
        <time>2026-06-20T07:35:05.000Z</time>
        <extensions>
          <ns3:TrackPointExtension>
            <ns3:atemp>20.0</ns3:atemp>
          </ns3:TrackPointExtension>
        </extensions>
      </trkpt>
      <trkpt lat="42.548323161900043487548828125" lon="20.13542781583964824676513671875">
        <ele>2098</ele>
        <time>2026-06-20T07:35:06.000Z</time>
        <extensions>
          <ns3:TrackPointExtension>
            <ns3:atemp>20.0</ns3:atemp>
          </ns3:TrackPointExtension>
        </extensions>
      </trkpt>
      <trkpt lat="42.54830966703593730926513671875" lon="20.13544860295951366424560546875">
        <ele>2098.199951171875</ele>
        <time>2026-06-20T07:35:07.000Z</time>
        <extensions>
          <ns3:TrackPointExtension>
            <ns3:atemp>20.0</ns3:atemp>
          </ns3:TrackPointExtension>
        </extensions>
      </trkpt>
      <trkpt lat="42.54829692654311656951904296875" lon="20.13546905480325222015380859375">
        <ele>2098.199951171875</ele>
        <time>2026-06-20T07:35:08.000Z</time>
        <extensions>
          <ns3:TrackPointExtension>
            <ns3:atemp>20.0</ns3:atemp>
          </ns3:TrackPointExtension>
        </extensions>
      </trkpt>
      <trkpt lat="42.54828351549804210662841796875" lon="20.135490261018276214599609375">
        <ele>2098.39990234375</ele>
        <time>2026-06-20T07:35:09.000Z</time>
        <extensions>
          <ns3:TrackPointExtension>
            <ns3:atemp>20.0</ns3:atemp>
          </ns3:TrackPointExtension>
        </extensions>
      </trkpt>
      <trkpt lat="42.54827119410037994384765625" lon="20.1355152390897274017333984375">
        <ele>2098.39990234375</ele>
        <time>2026-06-20T07:35:10.000Z</time>
        <extensions>
          <ns3:TrackPointExtension>
            <ns3:atemp>20.0</ns3:atemp>
          </ns3:TrackPointExtension>
        </extensions>
      </trkpt>
      <trkpt lat="42.54826038144528865814208984375" lon="20.1355393789708614349365234375">
        <ele>2098.60009765625</ele>
        <time>2026-06-20T07:35:11.000Z</time>
        <extensions>
          <ns3:TrackPointExtension>
            <ns3:atemp>20.0</ns3:atemp>
          </ns3:TrackPointExtension>
        </extensions>
      </trkpt>
      <trkpt lat="42.54825241863727569580078125" lon="20.13556645251810550689697265625">
        <ele>2098.60009765625</ele>
        <time>2026-06-20T07:35:12.000Z</time>
        <extensions>
          <ns3:TrackPointExtension>
            <ns3:atemp>20.0</ns3:atemp>
          </ns3:TrackPointExtension>
        </extensions>
      </trkpt>
      <trkpt lat="42.54824177362024784088134765625" lon="20.1355950348079204559326171875">
        <ele>2098.800048828125</ele>
        <time>2026-06-20T07:35:13.000Z</time>
        <extensions>
          <ns3:TrackPointExtension>
            <ns3:atemp>20.0</ns3:atemp>
          </ns3:TrackPointExtension>
        </extensions>
      </trkpt>
      <trkpt lat="42.548231296241283416748046875" lon="20.13561808504164218902587890625">
        <ele>2099</ele>
        <time>2026-06-20T07:35:14.000Z</time>
        <extensions>
          <ns3:TrackPointExtension>
            <ns3:atemp>20.0</ns3:atemp>
          </ns3:TrackPointExtension>
        </extensions>
      </trkpt>
      <trkpt lat="42.54821813665330410003662109375" lon="20.13563887216150760650634765625">
        <ele>2099.199951171875</ele>
        <time>2026-06-20T07:35:15.000Z</time>
        <extensions>
          <ns3:TrackPointExtension>
            <ns3:atemp>20.0</ns3:atemp>
          </ns3:TrackPointExtension>
        </extensions>
      </trkpt>
      <trkpt lat="42.54820254631340503692626953125" lon="20.1356537081301212310791015625">
        <ele>2099.39990234375</ele>
        <time>2026-06-20T07:35:16.000Z</time>
        <extensions>
          <ns3:TrackPointExtension>
            <ns3:atemp>20.0</ns3:atemp>
          </ns3:TrackPointExtension>
        </extensions>
      </trkpt>
      <trkpt lat="42.54818645305931568145751953125" lon="20.13566787354648113250732421875">
        <ele>2099.60009765625</ele>
        <time>2026-06-20T07:35:17.000Z</time>
        <extensions>
          <ns3:TrackPointExtension>
            <ns3:atemp>20.0</ns3:atemp>
          </ns3:TrackPointExtension>
        </extensions>
      </trkpt>
      <trkpt lat="42.5481701083481311798095703125" lon="20.13568094931542873382568359375">
        <ele>2099.800048828125</ele>
        <time>2026-06-20T07:35:18.000Z</time>
        <extensions>
          <ns3:TrackPointExtension>
            <ns3:atemp>20.0</ns3:atemp>
          </ns3:TrackPointExtension>
        </extensions>
      </trkpt>
      <trkpt lat="42.5481543503701686859130859375" lon="20.1356939412653446197509765625">
        <ele>2100</ele>
        <time>2026-06-20T07:35:19.000Z</time>
        <extensions>
          <ns3:TrackPointExtension>
            <ns3:atemp>20.0</ns3:atemp>
          </ns3:TrackPointExtension>
        </extensions>
      </trkpt>
      <trkpt lat="42.548137418925762176513671875" lon="20.1357046701014041900634765625">
        <ele>2100.199951171875</ele>
        <time>2026-06-20T07:35:20.000Z</time>
        <extensions>
          <ns3:TrackPointExtension>
            <ns3:atemp>20.0</ns3:atemp>
          </ns3:TrackPointExtension>
        </extensions>
      </trkpt>
      <trkpt lat="42.5481198169291019439697265625" lon="20.135716237127780914306640625">
        <ele>2100.60009765625</ele>
        <time>2026-06-20T07:35:21.000Z</time>
        <extensions>
          <ns3:TrackPointExtension>
            <ns3:atemp>20.0</ns3:atemp>
          </ns3:TrackPointExtension>
        </extensions>
      </trkpt>
      <trkpt lat="42.54810397513210773468017578125" lon="20.13572788797318935394287109375">
        <ele>2100.800048828125</ele>
        <time>2026-06-20T07:35:22.000Z</time>
        <extensions>
          <ns3:TrackPointExtension>
            <ns3:atemp>20.0</ns3:atemp>
          </ns3:TrackPointExtension>
        </extensions>
      </trkpt>
      <trkpt lat="42.54808478057384490966796875" lon="20.13574213720858097076416015625">
        <ele>2101</ele>
        <time>2026-06-20T07:35:23.000Z</time>
        <extensions>
          <ns3:TrackPointExtension>
            <ns3:atemp>20.0</ns3:atemp>
          </ns3:TrackPointExtension>
        </extensions>
      </trkpt>
      <trkpt lat="42.54806600511074066162109375" lon="20.135757811367511749267578125">
        <ele>2101</ele>
        <time>2026-06-20T07:35:24.000Z</time>
        <extensions>
          <ns3:TrackPointExtension>
            <ns3:atemp>20.0</ns3:atemp>
          </ns3:TrackPointExtension>
        </extensions>
      </trkpt>
      <trkpt lat="42.5480467267334461212158203125" lon="20.13577734120190143585205078125">
        <ele>2101.199951171875</ele>
        <time>2026-06-20T07:35:25.000Z</time>
        <extensions>
          <ns3:TrackPointExtension>
            <ns3:atemp>20.0</ns3:atemp>
          </ns3:TrackPointExtension>
        </extensions>
      </trkpt>
      <trkpt lat="42.54803122021257877349853515625" lon="20.13579376973211765289306640625">
        <ele>2101.39990234375</ele>
        <time>2026-06-20T07:35:26.000Z</time>
        <extensions>
          <ns3:TrackPointExtension>
            <ns3:atemp>20.0</ns3:atemp>
          </ns3:TrackPointExtension>
        </extensions>
      </trkpt>
      <trkpt lat="42.5480266101658344268798828125" lon="20.13581858016550540924072265625">
        <ele>2101.39990234375</ele>
        <time>2026-06-20T07:35:27.000Z</time>
        <extensions>
          <ns3:TrackPointExtension>
            <ns3:atemp>20.0</ns3:atemp>
          </ns3:TrackPointExtension>
        </extensions>
      </trkpt>
      <trkpt lat="42.54802451469004154205322265625" lon="20.13584959320724010467529296875">
        <ele>2101.199951171875</ele>
        <time>2026-06-20T07:35:28.000Z</time>
        <extensions>
          <ns3:TrackPointExtension>
            <ns3:atemp>20.0</ns3:atemp>
          </ns3:TrackPointExtension>
        </extensions>
      </trkpt>
      <trkpt lat="42.5480319745838642120361328125" lon="20.13587616384029388427734375">
        <ele>2101.199951171875</ele>
        <time>2026-06-20T07:35:29.000Z</time>
        <extensions>
          <ns3:TrackPointExtension>
            <ns3:atemp>20.0</ns3:atemp>
          </ns3:TrackPointExtension>
        </extensions>
      </trkpt>
      <trkpt lat="42.54804228432476520538330078125" lon="20.13590156100690364837646484375">
        <ele>2101</ele>
        <time>2026-06-20T07:35:30.000Z</time>
        <extensions>
          <ns3:TrackPointExtension>
            <ns3:atemp>20.0</ns3:atemp>
          </ns3:TrackPointExtension>
        </extensions>
      </trkpt>
      <trkpt lat="42.5480581261217594146728515625" lon="20.135930478572845458984375">
        <ele>2100.800048828125</ele>
        <time>2026-06-20T07:35:31.000Z</time>
        <extensions>
          <ns3:TrackPointExtension>
            <ns3:atemp>20.0</ns3:atemp>
          </ns3:TrackPointExtension>
        </extensions>
      </trkpt>
      <trkpt lat="42.548075057566165924072265625" lon="20.1359618268907070159912109375">
        <ele>2100.60009765625</ele>
        <time>2026-06-20T07:35:32.000Z</time>
        <extensions>
          <ns3:TrackPointExtension>
            <ns3:atemp>20.0</ns3:atemp>
          </ns3:TrackPointExtension>
        </extensions>
      </trkpt>
      <trkpt lat="42.548093162477016448974609375" lon="20.13599216938018798828125">
        <ele>2100.39990234375</ele>
        <time>2026-06-20T07:35:33.000Z</time>
        <extensions>
          <ns3:TrackPointExtension>
            <ns3:atemp>20.0</ns3:atemp>
          </ns3:TrackPointExtension>
        </extensions>
      </trkpt>
      <trkpt lat="42.54811168648302555084228515625" lon="20.13602368533611297607421875">
        <ele>2100.199951171875</ele>
        <time>2026-06-20T07:35:34.000Z</time>
        <extensions>
          <ns3:TrackPointExtension>
            <ns3:atemp>20.0</ns3:atemp>
          </ns3:TrackPointExtension>
        </extensions>
      </trkpt>
      <trkpt lat="42.54813062958419322967529296875" lon="20.13605746440589427947998046875">
        <ele>2100</ele>
        <time>2026-06-20T07:35:35.000Z</time>
        <extensions>
          <ns3:TrackPointExtension>
            <ns3:atemp>20.0</ns3:atemp>
          </ns3:TrackPointExtension>
        </extensions>
      </trkpt>
      <trkpt lat="42.54815124906599521636962890625" lon="20.13609568588435649871826171875">
        <ele>2099.800048828125</ele>
        <time>2026-06-20T07:35:36.000Z</time>
        <extensions>
          <ns3:TrackPointExtension>
            <ns3:atemp>20.0</ns3:atemp>
          </ns3:TrackPointExtension>
        </extensions>
      </trkpt>
      <trkpt lat="42.54817287437617778778076171875" lon="20.1361370086669921875">
        <ele>2099.39990234375</ele>
        <time>2026-06-20T07:35:37.000Z</time>
        <extensions>
          <ns3:TrackPointExtension>
            <ns3:atemp>20.0</ns3:atemp>
          </ns3:TrackPointExtension>
        </extensions>
      </trkpt>
      <trkpt lat="42.5481902249157428741455078125" lon="20.13617732562124729156494140625">
        <ele>2099.199951171875</ele>
        <time>2026-06-20T07:35:38.000Z</time>
        <extensions>
          <ns3:TrackPointExtension>
            <ns3:atemp>20.0</ns3:atemp>
          </ns3:TrackPointExtension>
        </extensions>
      </trkpt>
      <trkpt lat="42.54820573143661022186279296875" lon="20.13621252961456775665283203125">
        <ele>2099</ele>
        <time>2026-06-20T07:35:39.000Z</time>
        <extensions>
          <ns3:TrackPointExtension>
            <ns3:atemp>20.0</ns3:atemp>
          </ns3:TrackPointExtension>
        </extensions>
      </trkpt>
      <trkpt lat="42.548219226300716400146484375" lon="20.136242620646953582763671875">
        <ele>2098.60009765625</ele>
        <time>2026-06-20T07:35:40.000Z</time>
        <extensions>
          <ns3:TrackPointExtension>
            <ns3:atemp>20.0</ns3:atemp>
          </ns3:TrackPointExtension>
        </extensions>
      </trkpt>
      <trkpt lat="42.5482316315174102783203125" lon="20.13626868836581707000732421875">
        <ele>2098.39990234375</ele>
        <time>2026-06-20T07:35:41.000Z</time>
        <extensions>
          <ns3:TrackPointExtension>
            <ns3:atemp>20.0</ns3:atemp>
          </ns3:TrackPointExtension>
        </extensions>
      </trkpt>
      <trkpt lat="42.5482408516108989715576171875" lon="20.13629718683660030364990234375">
        <ele>2098.199951171875</ele>
        <time>2026-06-20T07:35:42.000Z</time>
        <extensions>
          <ns3:TrackPointExtension>
            <ns3:atemp>20.0</ns3:atemp>
          </ns3:TrackPointExtension>
        </extensions>
      </trkpt>
      <trkpt lat="42.54824814386665821075439453125" lon="20.13632736168801784515380859375">
        <ele>2098</ele>
        <time>2026-06-20T07:35:43.000Z</time>
        <extensions>
          <ns3:TrackPointExtension>
            <ns3:atemp>20.0</ns3:atemp>
          </ns3:TrackPointExtension>
        </extensions>
      </trkpt>
      <trkpt lat="42.54825216718018054962158203125" lon="20.1363591291010379791259765625">
        <ele>2097.800048828125</ele>
        <time>2026-06-20T07:35:44.000Z</time>
        <extensions>
          <ns3:TrackPointExtension>
            <ns3:atemp>20.0</ns3:atemp>
          </ns3:TrackPointExtension>
        </extensions>
      </trkpt>
      <trkpt lat="42.54825451411306858062744140625" lon="20.13640053570270538330078125">
        <ele>2097.39990234375</ele>
        <time>2026-06-20T07:35:45.000Z</time>
        <extensions>
          <ns3:TrackPointExtension>
            <ns3:atemp>20.0</ns3:atemp>
          </ns3:TrackPointExtension>
        </extensions>
      </trkpt>
      <trkpt lat="42.54825870506465435028076171875" lon="20.13644772581756114959716796875">
        <ele>2096.800048828125</ele>
        <time>2026-06-20T07:35:46.000Z</time>
        <extensions>
          <ns3:TrackPointExtension>
            <ns3:atemp>20.0</ns3:atemp>
          </ns3:TrackPointExtension>
        </extensions>
      </trkpt>
      <trkpt lat="42.54826985299587249755859375" lon="20.1365026272833347320556640625">
        <ele>2096.199951171875</ele>
        <time>2026-06-20T07:35:47.000Z</time>
        <extensions>
          <ns3:TrackPointExtension>
            <ns3:atemp>20.0</ns3:atemp>
          </ns3:TrackPointExtension>
        </extensions>
      </trkpt>
      <trkpt lat="42.54828837700188159942626953125" lon="20.13656004332005977630615234375">
        <ele>2095.60009765625</ele>
        <time>2026-06-20T07:35:48.000Z</time>
        <extensions>
          <ns3:TrackPointExtension>
            <ns3:atemp>20.0</ns3:atemp>
          </ns3:TrackPointExtension>
        </extensions>
      </trkpt>
      <trkpt lat="42.54831922240555286407470703125" lon="20.13661838136613368988037109375">
        <ele>2094.800048828125</ele>
        <time>2026-06-20T07:35:49.000Z</time>
        <extensions>
          <ns3:TrackPointExtension>
            <ns3:atemp>20.0</ns3:atemp>
          </ns3:TrackPointExtension>
        </extensions>
      </trkpt>
      <trkpt lat="42.548350989818572998046875" lon="20.1366679184138774871826171875">
        <ele>2094</ele>
        <time>2026-06-20T07:35:50.000Z</time>
        <extensions>
          <ns3:TrackPointExtension>
            <ns3:atemp>20.0</ns3:atemp>
          </ns3:TrackPointExtension>
        </extensions>
      </trkpt>
      <trkpt lat="42.54838426597416400909423828125" lon="20.1367037929594516754150390625">
        <ele>2093.39990234375</ele>
        <time>2026-06-20T07:35:51.000Z</time>
        <extensions>
          <ns3:TrackPointExtension>
            <ns3:atemp>20.0</ns3:atemp>
          </ns3:TrackPointExtension>
        </extensions>
      </trkpt>
      <trkpt lat="42.5484195537865161895751953125" lon="20.136735141277313232421875">
        <ele>2092.800048828125</ele>
        <time>2026-06-20T07:35:52.000Z</time>
        <extensions>
          <ns3:TrackPointExtension>
            <ns3:atemp>20.0</ns3:atemp>
          </ns3:TrackPointExtension>
        </extensions>
      </trkpt>
      <trkpt lat="42.54845450632274150848388671875" lon="20.13676129281520843505859375">
        <ele>2092.199951171875</ele>
        <time>2026-06-20T07:35:53.000Z</time>
        <extensions>
          <ns3:TrackPointExtension>
            <ns3:atemp>20.0</ns3:atemp>
          </ns3:TrackPointExtension>
        </extensions>
      </trkpt>
      <trkpt lat="42.54849054850637912750244140625" lon="20.13678065501153469085693359375">
        <ele>2091.60009765625</ele>
        <time>2026-06-20T07:35:54.000Z</time>
        <extensions>
          <ns3:TrackPointExtension>
            <ns3:atemp>20.0</ns3:atemp>
          </ns3:TrackPointExtension>
        </extensions>
      </trkpt>
      <trkpt lat="42.5485241599380970001220703125" lon="20.13680982403457164764404296875">
        <ele>2091.199951171875</ele>
        <time>2026-06-20T07:35:55.000Z</time>
        <extensions>
          <ns3:TrackPointExtension>
            <ns3:atemp>20.0</ns3:atemp>
          </ns3:TrackPointExtension>
        </extensions>
      </trkpt>
      <trkpt lat="42.54855508916079998016357421875" lon="20.13684100471436977386474609375">
        <ele>2090.60009765625</ele>
        <time>2026-06-20T07:35:56.000Z</time>
        <extensions>
          <ns3:TrackPointExtension>
            <ns3:atemp>20.0</ns3:atemp>
          </ns3:TrackPointExtension>
        </extensions>
      </trkpt>
      <trkpt lat="42.548575289547443389892578125" lon="20.1368818245828151702880859375">
        <ele>2090</ele>
        <time>2026-06-20T07:35:57.000Z</time>
        <extensions>
          <ns3:TrackPointExtension>
            <ns3:atemp>20.0</ns3:atemp>
          </ns3:TrackPointExtension>
        </extensions>
      </trkpt>
      <trkpt lat="42.54860110580921173095703125" lon="20.1369193755090236663818359375">
        <ele>2089.39990234375</ele>
        <time>2026-06-20T07:35:58.000Z</time>
        <extensions>
          <ns3:TrackPointExtension>
            <ns3:atemp>20.0</ns3:atemp>
          </ns3:TrackPointExtension>
        </extensions>
      </trkpt>
      <trkpt lat="42.5486368127167224884033203125" lon="20.1369451917707920074462890625">
        <ele>2088.800048828125</ele>
        <time>2026-06-20T07:35:59.000Z</time>
        <extensions>
          <ns3:TrackPointExtension>
            <ns3:atemp>20.0</ns3:atemp>
          </ns3:TrackPointExtension>
        </extensions>
      </trkpt>
      <trkpt lat="42.54867017269134521484375" lon="20.136976204812526702880859375">
        <ele>2088.39990234375</ele>
        <time>2026-06-20T07:36:00.000Z</time>
        <extensions>
          <ns3:TrackPointExtension>
            <ns3:atemp>20.0</ns3:atemp>
          </ns3:TrackPointExtension>
        </extensions>
      </trkpt>
      <trkpt lat="42.54870294593274593353271484375" lon="20.1370115764439105987548828125">
        <ele>2087.800048828125</ele>
        <time>2026-06-20T07:36:01.000Z</time>
        <extensions>
          <ns3:TrackPointExtension>
            <ns3:atemp>20.0</ns3:atemp>
          </ns3:TrackPointExtension>
        </extensions>
      </trkpt>
      <trkpt lat="42.54873278550803661346435546875" lon="20.13704334385693073272705078125">
        <ele>2087.199951171875</ele>
        <time>2026-06-20T07:36:02.000Z</time>
        <extensions>
          <ns3:TrackPointExtension>
            <ns3:atemp>20.0</ns3:atemp>
          </ns3:TrackPointExtension>
        </extensions>
      </trkpt>
      <trkpt lat="42.54875843413174152374267578125" lon="20.13707385398447513580322265625">
        <ele>2086.39990234375</ele>
        <time>2026-06-20T07:36:03.000Z</time>
        <extensions>
          <ns3:TrackPointExtension>
            <ns3:atemp>20.0</ns3:atemp>
          </ns3:TrackPointExtension>
        </extensions>
      </trkpt>
      <trkpt lat="42.5487746112048625946044921875" lon="20.1371074654161930084228515625">
        <ele>2086</ele>
        <time>2026-06-20T07:36:04.000Z</time>
        <extensions>
          <ns3:TrackPointExtension>
            <ns3:atemp>20.0</ns3:atemp>
          </ns3:TrackPointExtension>
        </extensions>
      </trkpt>
      <trkpt lat="42.5487819872796535491943359375" lon="20.137141831219196319580078125">
        <ele>2085.60009765625</ele>
        <time>2026-06-20T07:36:05.000Z</time>
        <extensions>
          <ns3:TrackPointExtension>
            <ns3:atemp>20.0</ns3:atemp>
          </ns3:TrackPointExtension>
        </extensions>
      </trkpt>
      <trkpt lat="42.5487866811454296112060546875" lon="20.137180387973785400390625">
        <ele>2085.199951171875</ele>
        <time>2026-06-20T07:36:06.000Z</time>
        <extensions>
          <ns3:TrackPointExtension>
            <ns3:atemp>20.0</ns3:atemp>
          </ns3:TrackPointExtension>
        </extensions>
      </trkpt>
      <trkpt lat="42.54878626205027103424072265625" lon="20.1372147537767887115478515625">
        <ele>2084.800048828125</ele>
        <time>2026-06-20T07:36:07.000Z</time>
        <extensions>
          <ns3:TrackPointExtension>
            <ns3:atemp>20.0</ns3:atemp>
          </ns3:TrackPointExtension>
        </extensions>
      </trkpt>
      <trkpt lat="42.5487843342125415802001953125" lon="20.13724970631301403045654296875">
        <ele>2084.60009765625</ele>
        <time>2026-06-20T07:36:08.000Z</time>
        <extensions>
          <ns3:TrackPointExtension>
            <ns3:atemp>20.0</ns3:atemp>
          </ns3:TrackPointExtension>
        </extensions>
      </trkpt>
      <trkpt lat="42.54878039471805095672607421875" lon="20.13728239573538303375244140625">
        <ele>2084.39990234375</ele>
        <time>2026-06-20T07:36:09.000Z</time>
        <extensions>
          <ns3:TrackPointExtension>
            <ns3:atemp>20.0</ns3:atemp>
          </ns3:TrackPointExtension>
        </extensions>
      </trkpt>
      <trkpt lat="42.5487782992422580718994140625" lon="20.1373150013387203216552734375">
        <ele>2084.199951171875</ele>
        <time>2026-06-20T07:36:10.000Z</time>
        <extensions>
          <ns3:TrackPointExtension>
            <ns3:atemp>20.0</ns3:atemp>
          </ns3:TrackPointExtension>
        </extensions>
      </trkpt>
      <trkpt lat="42.54877452738583087921142578125" lon="20.137346349656581878662109375">
        <ele>2083.800048828125</ele>
        <time>2026-06-20T07:36:11.000Z</time>
        <extensions>
          <ns3:TrackPointExtension>
            <ns3:atemp>20.0</ns3:atemp>
          </ns3:TrackPointExtension>
        </extensions>
      </trkpt>
      <trkpt lat="42.54877754487097263336181640625" lon="20.13736252672970294952392578125">
        <ele>2083.60009765625</ele>
        <time>2026-06-20T07:36:12.000Z</time>
        <extensions>
          <ns3:TrackPointExtension>
            <ns3:atemp>20.0</ns3:atemp>
          </ns3:TrackPointExtension>
        </extensions>
      </trkpt>
      <trkpt lat="42.54877871833741664886474609375" lon="20.137363784015178680419921875">
        <ele>2083.39990234375</ele>
        <time>2026-06-20T07:36:13.000Z</time>
        <extensions>
          <ns3:TrackPointExtension>
            <ns3:atemp>20.0</ns3:atemp>
          </ns3:TrackPointExtension>
        </extensions>
      </trkpt>
      <trkpt lat="42.54877871833741664886474609375" lon="20.13736370019614696502685546875">
        <ele>2083.199951171875</ele>
        <time>2026-06-20T07:36:14.000Z</time>
        <extensions>
          <ns3:TrackPointExtension>
            <ns3:atemp>20.0</ns3:atemp>
          </ns3:TrackPointExtension>
        </extensions>
      </trkpt>
      <trkpt lat="42.54877871833741664886474609375" lon="20.13736370019614696502685546875">
        <ele>2083</ele>
        <time>2026-06-20T07:36:15.000Z</time>
        <extensions>
          <ns3:TrackPointExtension>
            <ns3:atemp>20.0</ns3:atemp>
          </ns3:TrackPointExtension>
        </extensions>
      </trkpt>
      <trkpt lat="42.54877871833741664886474609375" lon="20.13736370019614696502685546875">
        <ele>2083</ele>
        <time>2026-06-20T07:36:16.000Z</time>
        <extensions>
          <ns3:TrackPointExtension>
            <ns3:atemp>20.0</ns3:atemp>
          </ns3:TrackPointExtension>
        </extensions>
      </trkpt>
      <trkpt lat="42.54877871833741664886474609375" lon="20.13736370019614696502685546875">
        <ele>2083</ele>
        <time>2026-06-20T07:36:17.000Z</time>
        <extensions>
          <ns3:TrackPointExtension>
            <ns3:atemp>20.0</ns3:atemp>
          </ns3:TrackPointExtension>
        </extensions>
      </trkpt>
      <trkpt lat="42.54877871833741664886474609375" lon="20.13736370019614696502685546875">
        <ele>2082.800048828125</ele>
        <time>2026-06-20T07:36:18.000Z</time>
        <extensions>
          <ns3:TrackPointExtension>
            <ns3:atemp>20.0</ns3:atemp>
          </ns3:TrackPointExtension>
        </extensions>
      </trkpt>
      <trkpt lat="42.54877871833741664886474609375" lon="20.13736370019614696502685546875">
        <ele>2082.800048828125</ele>
        <time>2026-06-20T07:36:19.000Z</time>
        <extensions>
          <ns3:TrackPointExtension>
            <ns3:atemp>20.0</ns3:atemp>
          </ns3:TrackPointExtension>
        </extensions>
      </trkpt>
      <trkpt lat="42.54877871833741664886474609375" lon="20.13736370019614696502685546875">
        <ele>2082.60009765625</ele>
        <time>2026-06-20T07:36:20.000Z</time>
        <extensions>
          <ns3:TrackPointExtension>
            <ns3:atemp>20.0</ns3:atemp>
          </ns3:TrackPointExtension>
        </extensions>
      </trkpt>
      <trkpt lat="42.54877871833741664886474609375" lon="20.13736370019614696502685546875">
        <ele>2082.60009765625</ele>
        <time>2026-06-20T07:36:21.000Z</time>
        <extensions>
          <ns3:TrackPointExtension>
            <ns3:atemp>20.0</ns3:atemp>
          </ns3:TrackPointExtension>
        </extensions>
      </trkpt>
      <trkpt lat="42.54877871833741664886474609375" lon="20.13736370019614696502685546875">
        <ele>2082.60009765625</ele>
        <time>2026-06-20T07:36:22.000Z</time>
        <extensions>
          <ns3:TrackPointExtension>
            <ns3:atemp>20.0</ns3:atemp>
          </ns3:TrackPointExtension>
        </extensions>
      </trkpt>
      <trkpt lat="42.54877871833741664886474609375" lon="20.13736370019614696502685546875">
        <ele>2082.60009765625</ele>
        <time>2026-06-20T07:36:23.000Z</time>
        <extensions>
          <ns3:TrackPointExtension>
            <ns3:atemp>20.0</ns3:atemp>
          </ns3:TrackPointExtension>
        </extensions>
      </trkpt>
      <trkpt lat="42.54877871833741664886474609375" lon="20.13736370019614696502685546875">
        <ele>2082.800048828125</ele>
        <time>2026-06-20T07:36:24.000Z</time>
        <extensions>
          <ns3:TrackPointExtension>
            <ns3:atemp>20.0</ns3:atemp>
          </ns3:TrackPointExtension>
        </extensions>
      </trkpt>
      <trkpt lat="42.54877871833741664886474609375" lon="20.13736370019614696502685546875">
        <ele>2082.800048828125</ele>
        <time>2026-06-20T07:36:25.000Z</time>
        <extensions>
          <ns3:TrackPointExtension>
            <ns3:atemp>20.0</ns3:atemp>
          </ns3:TrackPointExtension>
        </extensions>
      </trkpt>
      <trkpt lat="42.54877871833741664886474609375" lon="20.13736370019614696502685546875">
        <ele>2082.800048828125</ele>
        <time>2026-06-20T07:36:26.000Z</time>
        <extensions>
          <ns3:TrackPointExtension>
            <ns3:atemp>20.0</ns3:atemp>
          </ns3:TrackPointExtension>
        </extensions>
      </trkpt>
      <trkpt lat="42.54877871833741664886474609375" lon="20.13736370019614696502685546875">
        <ele>2083</ele>
        <time>2026-06-20T07:36:27.000Z</time>
        <extensions>
          <ns3:TrackPointExtension>
            <ns3:atemp>20.0</ns3:atemp>
          </ns3:TrackPointExtension>
        </extensions>
      </trkpt>
      <trkpt lat="42.54877871833741664886474609375" lon="20.13736370019614696502685546875">
        <ele>2083</ele>
        <time>2026-06-20T07:36:28.000Z</time>
        <extensions>
          <ns3:TrackPointExtension>
            <ns3:atemp>20.0</ns3:atemp>
          </ns3:TrackPointExtension>
        </extensions>
      </trkpt>
      <trkpt lat="42.54877871833741664886474609375" lon="20.13736370019614696502685546875">
        <ele>2083</ele>
        <time>2026-06-20T07:36:29.000Z</time>
        <extensions>
          <ns3:TrackPointExtension>
            <ns3:atemp>20.0</ns3:atemp>
          </ns3:TrackPointExtension>
        </extensions>
      </trkpt>
      <trkpt lat="42.54877871833741664886474609375" lon="20.13736370019614696502685546875">
        <ele>2083</ele>
        <time>2026-06-20T07:36:30.000Z</time>
        <extensions>
          <ns3:TrackPointExtension>
            <ns3:atemp>20.0</ns3:atemp>
          </ns3:TrackPointExtension>
        </extensions>
      </trkpt>
      <trkpt lat="42.5487776286900043487548828125" lon="20.13736135326325893402099609375">
        <ele>2083</ele>
        <time>2026-06-20T07:36:31.000Z</time>
        <extensions>
          <ns3:TrackPointExtension>
            <ns3:atemp>20.0</ns3:atemp>
          </ns3:TrackPointExtension>
        </extensions>
      </trkpt>
      <trkpt lat="42.5487836636602878570556640625" lon="20.137362442910671234130859375">
        <ele>2082.800048828125</ele>
        <time>2026-06-20T07:36:32.000Z</time>
        <extensions>
          <ns3:TrackPointExtension>
            <ns3:atemp>20.0</ns3:atemp>
          </ns3:TrackPointExtension>
        </extensions>
      </trkpt>
      <trkpt lat="42.54879279993474483489990234375" lon="20.13738331384956836700439453125">
        <ele>2082.60009765625</ele>
        <time>2026-06-20T07:36:33.000Z</time>
        <extensions>
          <ns3:TrackPointExtension>
            <ns3:atemp>20.0</ns3:atemp>
          </ns3:TrackPointExtension>
        </extensions>
      </trkpt>
      <trkpt lat="42.54880386404693126678466796875" lon="20.137405693531036376953125">
        <ele>2082.39990234375</ele>
        <time>2026-06-20T07:36:34.000Z</time>
        <extensions>
          <ns3:TrackPointExtension>
            <ns3:atemp>20.0</ns3:atemp>
          </ns3:TrackPointExtension>
        </extensions>
      </trkpt>
      <trkpt lat="42.54881492815911769866943359375" lon="20.13742807321250438690185546875">
        <ele>2082.199951171875</ele>
        <time>2026-06-20T07:36:35.000Z</time>
        <extensions>
          <ns3:TrackPointExtension>
            <ns3:atemp>20.0</ns3:atemp>
          </ns3:TrackPointExtension>
        </extensions>
      </trkpt>
      <trkpt lat="42.54882599227130413055419921875" lon="20.13744584284722805023193359375">
        <ele>2081.800048828125</ele>
        <time>2026-06-20T07:36:36.000Z</time>
        <extensions>
          <ns3:TrackPointExtension>
            <ns3:atemp>20.0</ns3:atemp>
          </ns3:TrackPointExtension>
        </extensions>
      </trkpt>
      <trkpt lat="42.548829428851604461669921875" lon="20.13745204545557498931884765625">
        <ele>2081.60009765625</ele>
        <time>2026-06-20T07:36:37.000Z</time>
        <extensions>
          <ns3:TrackPointExtension>
            <ns3:atemp>20.0</ns3:atemp>
          </ns3:TrackPointExtension>
        </extensions>
      </trkpt>
      <trkpt lat="42.54882968030869960784912109375" lon="20.13744953088462352752685546875">
        <ele>2081.60009765625</ele>
        <time>2026-06-20T07:36:38.000Z</time>
        <extensions>
          <ns3:TrackPointExtension>
            <ns3:atemp>20.0</ns3:atemp>
          </ns3:TrackPointExtension>
        </extensions>
      </trkpt>
      <trkpt lat="42.54882968030869960784912109375" lon="20.13744953088462352752685546875">
        <ele>2081.39990234375</ele>
        <time>2026-06-20T07:36:39.000Z</time>
        <extensions>
          <ns3:TrackPointExtension>
            <ns3:atemp>20.0</ns3:atemp>
          </ns3:TrackPointExtension>
        </extensions>
      </trkpt>
      <trkpt lat="42.54882968030869960784912109375" lon="20.13744953088462352752685546875">
        <ele>2081.39990234375</ele>
        <time>2026-06-20T07:36:40.000Z</time>
        <extensions>
          <ns3:TrackPointExtension>
            <ns3:atemp>20.0</ns3:atemp>
          </ns3:TrackPointExtension>
        </extensions>
      </trkpt>
      <trkpt lat="42.54882968030869960784912109375" lon="20.13744953088462352752685546875">
        <ele>2081.39990234375</ele>
        <time>2026-06-20T07:36:41.000Z</time>
        <extensions>
          <ns3:TrackPointExtension>
            <ns3:atemp>20.0</ns3:atemp>
          </ns3:TrackPointExtension>
        </extensions>
      </trkpt>
      <trkpt lat="42.54882968030869960784912109375" lon="20.13744953088462352752685546875">
        <ele>2081.39990234375</ele>
        <time>2026-06-20T07:36:42.000Z</time>
        <extensions>
          <ns3:TrackPointExtension>
            <ns3:atemp>20.0</ns3:atemp>
          </ns3:TrackPointExtension>
        </extensions>
      </trkpt>
      <trkpt lat="42.54882968030869960784912109375" lon="20.13744953088462352752685546875">
        <ele>2081.39990234375</ele>
        <time>2026-06-20T07:36:43.000Z</time>
        <extensions>
          <ns3:TrackPointExtension>
            <ns3:atemp>20.0</ns3:atemp>
          </ns3:TrackPointExtension>
        </extensions>
      </trkpt>
      <trkpt lat="42.54882968030869960784912109375" lon="20.13744953088462352752685546875">
        <ele>2081.39990234375</ele>
        <time>2026-06-20T07:36:44.000Z</time>
        <extensions>
          <ns3:TrackPointExtension>
            <ns3:atemp>20.0</ns3:atemp>
          </ns3:TrackPointExtension>
        </extensions>
      </trkpt>
      <trkpt lat="42.54882968030869960784912109375" lon="20.13744953088462352752685546875">
        <ele>2081.39990234375</ele>
        <time>2026-06-20T07:36:45.000Z</time>
        <extensions>
          <ns3:TrackPointExtension>
            <ns3:atemp>20.0</ns3:atemp>
          </ns3:TrackPointExtension>
        </extensions>
      </trkpt>
      <trkpt lat="42.54882968030869960784912109375" lon="20.13744953088462352752685546875">
        <ele>2081.39990234375</ele>
        <time>2026-06-20T07:36:46.000Z</time>
        <extensions>
          <ns3:TrackPointExtension>
            <ns3:atemp>20.0</ns3:atemp>
          </ns3:TrackPointExtension>
        </extensions>
      </trkpt>
      <trkpt lat="42.54882968030869960784912109375" lon="20.13744953088462352752685546875">
        <ele>2081.39990234375</ele>
        <time>2026-06-20T07:36:47.000Z</time>
        <extensions>
          <ns3:TrackPointExtension>
            <ns3:atemp>20.0</ns3:atemp>
          </ns3:TrackPointExtension>
        </extensions>
      </trkpt>
      <trkpt lat="42.54882968030869960784912109375" lon="20.13744953088462352752685546875">
        <ele>2081.39990234375</ele>
        <time>2026-06-20T07:36:48.000Z</time>
        <extensions>
          <ns3:TrackPointExtension>
            <ns3:atemp>20.0</ns3:atemp>
          </ns3:TrackPointExtension>
        </extensions>
      </trkpt>
      <trkpt lat="42.54882968030869960784912109375" lon="20.13744953088462352752685546875">
        <ele>2081.39990234375</ele>
        <time>2026-06-20T07:36:49.000Z</time>
        <extensions>
          <ns3:TrackPointExtension>
            <ns3:atemp>20.0</ns3:atemp>
          </ns3:TrackPointExtension>
        </extensions>
      </trkpt>
      <trkpt lat="42.54882968030869960784912109375" lon="20.13744953088462352752685546875">
        <ele>2081.39990234375</ele>
        <time>2026-06-20T07:36:50.000Z</time>
        <extensions>
          <ns3:TrackPointExtension>
            <ns3:atemp>20.0</ns3:atemp>
          </ns3:TrackPointExtension>
        </extensions>
      </trkpt>
      <trkpt lat="42.54882968030869960784912109375" lon="20.13744953088462352752685546875">
        <ele>2081.39990234375</ele>
        <time>2026-06-20T07:36:51.000Z</time>
        <extensions>
          <ns3:TrackPointExtension>
            <ns3:atemp>20.0</ns3:atemp>
          </ns3:TrackPointExtension>
        </extensions>
      </trkpt>
      <trkpt lat="42.54882968030869960784912109375" lon="20.13744953088462352752685546875">
        <ele>2081.39990234375</ele>
        <time>2026-06-20T07:36:52.000Z</time>
        <extensions>
          <ns3:TrackPointExtension>
            <ns3:atemp>20.0</ns3:atemp>
          </ns3:TrackPointExtension>
        </extensions>
      </trkpt>
      <trkpt lat="42.54882968030869960784912109375" lon="20.13744953088462352752685546875">
        <ele>2081.199951171875</ele>
        <time>2026-06-20T07:36:53.000Z</time>
        <extensions>
          <ns3:TrackPointExtension>
            <ns3:atemp>20.0</ns3:atemp>
          </ns3:TrackPointExtension>
        </extensions>
      </trkpt>
      <trkpt lat="42.54882968030869960784912109375" lon="20.13744953088462352752685546875">
        <ele>2081.199951171875</ele>
        <time>2026-06-20T07:36:54.000Z</time>
        <extensions>
          <ns3:TrackPointExtension>
            <ns3:atemp>20.0</ns3:atemp>
          </ns3:TrackPointExtension>
        </extensions>
      </trkpt>
      <trkpt lat="42.54882968030869960784912109375" lon="20.13744953088462352752685546875">
        <ele>2081.199951171875</ele>
        <time>2026-06-20T07:36:55.000Z</time>
        <extensions>
          <ns3:TrackPointExtension>
            <ns3:atemp>20.0</ns3:atemp>
          </ns3:TrackPointExtension>
        </extensions>
      </trkpt>
      <trkpt lat="42.54882968030869960784912109375" lon="20.13744953088462352752685546875">
        <ele>2081.199951171875</ele>
        <time>2026-06-20T07:36:56.000Z</time>
        <extensions>
          <ns3:TrackPointExtension>
            <ns3:atemp>20.0</ns3:atemp>
          </ns3:TrackPointExtension>
        </extensions>
      </trkpt>
      <trkpt lat="42.54882968030869960784912109375" lon="20.13744953088462352752685546875">
        <ele>2081.199951171875</ele>
        <time>2026-06-20T07:36:57.000Z</time>
        <extensions>
          <ns3:TrackPointExtension>
            <ns3:atemp>20.0</ns3:atemp>
          </ns3:TrackPointExtension>
        </extensions>
      </trkpt>
      <trkpt lat="42.54882968030869960784912109375" lon="20.13744953088462352752685546875">
        <ele>2081.199951171875</ele>
        <time>2026-06-20T07:36:58.000Z</time>
        <extensions>
          <ns3:TrackPointExtension>
            <ns3:atemp>20.0</ns3:atemp>
          </ns3:TrackPointExtension>
        </extensions>
      </trkpt>
      <trkpt lat="42.54882968030869960784912109375" lon="20.13744953088462352752685546875">
        <ele>2081.199951171875</ele>
        <time>2026-06-20T07:36:59.000Z</time>
        <extensions>
          <ns3:TrackPointExtension>
            <ns3:atemp>20.0</ns3:atemp>
          </ns3:TrackPointExtension>
        </extensions>
      </trkpt>
      <trkpt lat="42.54882968030869960784912109375" lon="20.13744953088462352752685546875">
        <ele>2081</ele>
        <time>2026-06-20T07:37:00.000Z</time>
        <extensions>
          <ns3:TrackPointExtension>
            <ns3:atemp>20.0</ns3:atemp>
          </ns3:TrackPointExtension>
        </extensions>
      </trkpt>
      <trkpt lat="42.54882968030869960784912109375" lon="20.13744953088462352752685546875">
        <ele>2081</ele>
        <time>2026-06-20T07:37:01.000Z</time>
        <extensions>
          <ns3:TrackPointExtension>
            <ns3:atemp>20.0</ns3:atemp>
          </ns3:TrackPointExtension>
        </extensions>
      </trkpt>
      <trkpt lat="42.54882968030869960784912109375" lon="20.13744953088462352752685546875">
        <ele>2081</ele>
        <time>2026-06-20T07:37:02.000Z</time>
        <extensions>
          <ns3:TrackPointExtension>
            <ns3:atemp>20.0</ns3:atemp>
          </ns3:TrackPointExtension>
        </extensions>
      </trkpt>
      <trkpt lat="42.54882968030869960784912109375" lon="20.13744953088462352752685546875">
        <ele>2081</ele>
        <time>2026-06-20T07:37:03.000Z</time>
        <extensions>
          <ns3:TrackPointExtension>
            <ns3:atemp>20.0</ns3:atemp>
          </ns3:TrackPointExtension>
        </extensions>
      </trkpt>
      <trkpt lat="42.54882968030869960784912109375" lon="20.13744953088462352752685546875">
        <ele>2081</ele>
        <time>2026-06-20T07:37:04.000Z</time>
        <extensions>
          <ns3:TrackPointExtension>
            <ns3:atemp>20.0</ns3:atemp>
          </ns3:TrackPointExtension>
        </extensions>
      </trkpt>
      <trkpt lat="42.54882968030869960784912109375" lon="20.13744953088462352752685546875">
        <ele>2081</ele>
        <time>2026-06-20T07:37:05.000Z</time>
        <extensions>
          <ns3:TrackPointExtension>
            <ns3:atemp>20.0</ns3:atemp>
          </ns3:TrackPointExtension>
        </extensions>
      </trkpt>
      <trkpt lat="42.54882968030869960784912109375" lon="20.13744953088462352752685546875">
        <ele>2081</ele>
        <time>2026-06-20T07:37:06.000Z</time>
        <extensions>
          <ns3:TrackPointExtension>
            <ns3:atemp>20.0</ns3:atemp>
          </ns3:TrackPointExtension>
        </extensions>
      </trkpt>
      <trkpt lat="42.54882968030869960784912109375" lon="20.13744953088462352752685546875">
        <ele>2081</ele>
        <time>2026-06-20T07:37:07.000Z</time>
        <extensions>
          <ns3:TrackPointExtension>
            <ns3:atemp>20.0</ns3:atemp>
          </ns3:TrackPointExtension>
        </extensions>
      </trkpt>
      <trkpt lat="42.54882968030869960784912109375" lon="20.13744953088462352752685546875">
        <ele>2081</ele>
        <time>2026-06-20T07:37:08.000Z</time>
        <extensions>
          <ns3:TrackPointExtension>
            <ns3:atemp>20.0</ns3:atemp>
          </ns3:TrackPointExtension>
        </extensions>
      </trkpt>
      <trkpt lat="42.54882968030869960784912109375" lon="20.13744953088462352752685546875">
        <ele>2081</ele>
        <time>2026-06-20T07:37:09.000Z</time>
        <extensions>
          <ns3:TrackPointExtension>
            <ns3:atemp>20.0</ns3:atemp>
          </ns3:TrackPointExtension>
        </extensions>
      </trkpt>
      <trkpt lat="42.54882968030869960784912109375" lon="20.13744953088462352752685546875">
        <ele>2081</ele>
        <time>2026-06-20T07:37:10.000Z</time>
        <extensions>
          <ns3:TrackPointExtension>
            <ns3:atemp>20.0</ns3:atemp>
          </ns3:TrackPointExtension>
        </extensions>
      </trkpt>
      <trkpt lat="42.54882968030869960784912109375" lon="20.13744953088462352752685546875">
        <ele>2081</ele>
        <time>2026-06-20T07:37:11.000Z</time>
        <extensions>
          <ns3:TrackPointExtension>
            <ns3:atemp>20.0</ns3:atemp>
          </ns3:TrackPointExtension>
        </extensions>
      </trkpt>
      <trkpt lat="42.54882968030869960784912109375" lon="20.13744953088462352752685546875">
        <ele>2081</ele>
        <time>2026-06-20T07:37:12.000Z</time>
        <extensions>
          <ns3:TrackPointExtension>
            <ns3:atemp>20.0</ns3:atemp>
          </ns3:TrackPointExtension>
        </extensions>
      </trkpt>
      <trkpt lat="42.54882968030869960784912109375" lon="20.13744953088462352752685546875">
        <ele>2081</ele>
        <time>2026-06-20T07:37:13.000Z</time>
        <extensions>
          <ns3:TrackPointExtension>
            <ns3:atemp>20.0</ns3:atemp>
          </ns3:TrackPointExtension>
        </extensions>
      </trkpt>
      <trkpt lat="42.54882968030869960784912109375" lon="20.13744953088462352752685546875">
        <ele>2081</ele>
        <time>2026-06-20T07:37:14.000Z</time>
        <extensions>
          <ns3:TrackPointExtension>
            <ns3:atemp>20.0</ns3:atemp>
          </ns3:TrackPointExtension>
        </extensions>
      </trkpt>
      <trkpt lat="42.54882968030869960784912109375" lon="20.13744953088462352752685546875">
        <ele>2081</ele>
        <time>2026-06-20T07:37:15.000Z</time>
        <extensions>
          <ns3:TrackPointExtension>
            <ns3:atemp>20.0</ns3:atemp>
          </ns3:TrackPointExtension>
        </extensions>
      </trkpt>
      <trkpt lat="42.54882968030869960784912109375" lon="20.13744953088462352752685546875">
        <ele>2081</ele>
        <time>2026-06-20T07:37:16.000Z</time>
        <extensions>
          <ns3:TrackPointExtension>
            <ns3:atemp>20.0</ns3:atemp>
          </ns3:TrackPointExtension>
        </extensions>
      </trkpt>
      <trkpt lat="42.54882968030869960784912109375" lon="20.13744953088462352752685546875">
        <ele>2081</ele>
        <time>2026-06-20T07:37:17.000Z</time>
        <extensions>
          <ns3:TrackPointExtension>
            <ns3:atemp>20.0</ns3:atemp>
          </ns3:TrackPointExtension>
        </extensions>
      </trkpt>
      <trkpt lat="42.54882968030869960784912109375" lon="20.13744953088462352752685546875">
        <ele>2081</ele>
        <time>2026-06-20T07:37:18.000Z</time>
        <extensions>
          <ns3:TrackPointExtension>
            <ns3:atemp>20.0</ns3:atemp>
          </ns3:TrackPointExtension>
        </extensions>
      </trkpt>
      <trkpt lat="42.54882968030869960784912109375" lon="20.13744953088462352752685546875">
        <ele>2081</ele>
        <time>2026-06-20T07:37:19.000Z</time>
        <extensions>
          <ns3:TrackPointExtension>
            <ns3:atemp>20.0</ns3:atemp>
          </ns3:TrackPointExtension>
        </extensions>
      </trkpt>
      <trkpt lat="42.54882968030869960784912109375" lon="20.13744953088462352752685546875">
        <ele>2081</ele>
        <time>2026-06-20T07:37:20.000Z</time>
        <extensions>
          <ns3:TrackPointExtension>
            <ns3:atemp>20.0</ns3:atemp>
          </ns3:TrackPointExtension>
        </extensions>
      </trkpt>
      <trkpt lat="42.54882968030869960784912109375" lon="20.13744953088462352752685546875">
        <ele>2081</ele>
        <time>2026-06-20T07:37:21.000Z</time>
        <extensions>
          <ns3:TrackPointExtension>
            <ns3:atemp>20.0</ns3:atemp>
          </ns3:TrackPointExtension>
        </extensions>
      </trkpt>
      <trkpt lat="42.54882968030869960784912109375" lon="20.13744953088462352752685546875">
        <ele>2081</ele>
        <time>2026-06-20T07:37:22.000Z</time>
        <extensions>
          <ns3:TrackPointExtension>
            <ns3:atemp>20.0</ns3:atemp>
          </ns3:TrackPointExtension>
        </extensions>
      </trkpt>
      <trkpt lat="42.54882968030869960784912109375" lon="20.13744953088462352752685546875">
        <ele>2081</ele>
        <time>2026-06-20T07:37:23.000Z</time>
        <extensions>
          <ns3:TrackPointExtension>
            <ns3:atemp>20.0</ns3:atemp>
          </ns3:TrackPointExtension>
        </extensions>
      </trkpt>
      <trkpt lat="42.54882968030869960784912109375" lon="20.13744953088462352752685546875">
        <ele>2081</ele>
        <time>2026-06-20T07:37:24.000Z</time>
        <extensions>
          <ns3:TrackPointExtension>
            <ns3:atemp>20.0</ns3:atemp>
          </ns3:TrackPointExtension>
        </extensions>
      </trkpt>
      <trkpt lat="42.54882968030869960784912109375" lon="20.13744953088462352752685546875">
        <ele>2081</ele>
        <time>2026-06-20T07:37:25.000Z</time>
        <extensions>
          <ns3:TrackPointExtension>
            <ns3:atemp>20.0</ns3:atemp>
          </ns3:TrackPointExtension>
        </extensions>
      </trkpt>
      <trkpt lat="42.54882968030869960784912109375" lon="20.13744953088462352752685546875">
        <ele>2081</ele>
        <time>2026-06-20T07:37:26.000Z</time>
        <extensions>
          <ns3:TrackPointExtension>
            <ns3:atemp>20.0</ns3:atemp>
          </ns3:TrackPointExtension>
        </extensions>
      </trkpt>
      <trkpt lat="42.54882968030869960784912109375" lon="20.13744953088462352752685546875">
        <ele>2081</ele>
        <time>2026-06-20T07:37:27.000Z</time>
        <extensions>
          <ns3:TrackPointExtension>
            <ns3:atemp>20.0</ns3:atemp>
          </ns3:TrackPointExtension>
        </extensions>
      </trkpt>
      <trkpt lat="42.54882968030869960784912109375" lon="20.13744953088462352752685546875">
        <ele>2081.199951171875</ele>
        <time>2026-06-20T07:37:28.000Z</time>
        <extensions>
          <ns3:TrackPointExtension>
            <ns3:atemp>20.0</ns3:atemp>
          </ns3:TrackPointExtension>
        </extensions>
      </trkpt>
      <trkpt lat="42.54882968030869960784912109375" lon="20.13744953088462352752685546875">
        <ele>2081.199951171875</ele>
        <time>2026-06-20T07:37:29.000Z</time>
        <extensions>
          <ns3:TrackPointExtension>
            <ns3:atemp>20.0</ns3:atemp>
          </ns3:TrackPointExtension>
        </extensions>
      </trkpt>
      <trkpt lat="42.54882968030869960784912109375" lon="20.13744953088462352752685546875">
        <ele>2081.199951171875</ele>
        <time>2026-06-20T07:37:30.000Z</time>
        <extensions>
          <ns3:TrackPointExtension>
            <ns3:atemp>20.0</ns3:atemp>
          </ns3:TrackPointExtension>
        </extensions>
      </trkpt>
      <trkpt lat="42.54882968030869960784912109375" lon="20.13744953088462352752685546875">
        <ele>2081.199951171875</ele>
        <time>2026-06-20T07:37:31.000Z</time>
        <extensions>
          <ns3:TrackPointExtension>
            <ns3:atemp>20.0</ns3:atemp>
          </ns3:TrackPointExtension>
        </extensions>
      </trkpt>
      <trkpt lat="42.54882968030869960784912109375" lon="20.13744953088462352752685546875">
        <ele>2081.199951171875</ele>
        <time>2026-06-20T07:37:32.000Z</time>
        <extensions>
          <ns3:TrackPointExtension>
            <ns3:atemp>20.0</ns3:atemp>
          </ns3:TrackPointExtension>
        </extensions>
      </trkpt>
      <trkpt lat="42.54883085377514362335205078125" lon="20.13745053671300411224365234375">
        <ele>2081.199951171875</ele>
        <time>2026-06-20T07:37:33.000Z</time>
        <extensions>
          <ns3:TrackPointExtension>
            <ns3:atemp>20.0</ns3:atemp>
          </ns3:TrackPointExtension>
        </extensions>
      </trkpt>
      <trkpt lat="42.5488466955721378326416015625" lon="20.1374685578048229217529296875">
        <ele>2081</ele>
        <time>2026-06-20T07:37:34.000Z</time>
        <extensions>
          <ns3:TrackPointExtension>
            <ns3:atemp>20.0</ns3:atemp>
          </ns3:TrackPointExtension>
        </extensions>
      </trkpt>
      <trkpt lat="42.54886329174041748046875" lon="20.1374812982976436614990234375">
        <ele>2081</ele>
        <time>2026-06-20T07:37:35.000Z</time>
        <extensions>
          <ns3:TrackPointExtension>
            <ns3:atemp>20.0</ns3:atemp>
          </ns3:TrackPointExtension>
        </extensions>
      </trkpt>
      <trkpt lat="42.548884414136409759521484375" lon="20.1374873332679271697998046875">
        <ele>2080.800048828125</ele>
        <time>2026-06-20T07:37:36.000Z</time>
        <extensions>
          <ns3:TrackPointExtension>
            <ns3:atemp>20.0</ns3:atemp>
          </ns3:TrackPointExtension>
        </extensions>
      </trkpt>
      <trkpt lat="42.54890629090368747711181640625" lon="20.137491859495639801025390625">
        <ele>2080.800048828125</ele>
        <time>2026-06-20T07:37:37.000Z</time>
        <extensions>
          <ns3:TrackPointExtension>
            <ns3:atemp>20.0</ns3:atemp>
          </ns3:TrackPointExtension>
        </extensions>
      </trkpt>
      <trkpt lat="42.5489328615367412567138671875" lon="20.13749747537076473236083984375">
        <ele>2080.60009765625</ele>
        <time>2026-06-20T07:37:38.000Z</time>
        <extensions>
          <ns3:TrackPointExtension>
            <ns3:atemp>20.0</ns3:atemp>
          </ns3:TrackPointExtension>
        </extensions>
      </trkpt>
      <trkpt lat="42.5489566661417484283447265625" lon="20.137511305510997772216796875">
        <ele>2080.60009765625</ele>
        <time>2026-06-20T07:37:39.000Z</time>
        <extensions>
          <ns3:TrackPointExtension>
            <ns3:atemp>20.0</ns3:atemp>
          </ns3:TrackPointExtension>
        </extensions>
      </trkpt>
      <trkpt lat="42.5489798001945018768310546875" lon="20.137524046003818511962890625">
        <ele>2080.60009765625</ele>
        <time>2026-06-20T07:37:40.000Z</time>
        <extensions>
          <ns3:TrackPointExtension>
            <ns3:atemp>20.0</ns3:atemp>
          </ns3:TrackPointExtension>
        </extensions>
      </trkpt>
      <trkpt lat="42.54900435917079448699951171875" lon="20.13754441402852535247802734375">
        <ele>2080.39990234375</ele>
        <time>2026-06-20T07:37:41.000Z</time>
        <extensions>
          <ns3:TrackPointExtension>
            <ns3:atemp>20.0</ns3:atemp>
          </ns3:TrackPointExtension>
        </extensions>
      </trkpt>
      <trkpt lat="42.549025230109691619873046875" lon="20.1375708170235157012939453125">
        <ele>2080.199951171875</ele>
        <time>2026-06-20T07:37:42.000Z</time>
        <extensions>
          <ns3:TrackPointExtension>
            <ns3:atemp>20.0</ns3:atemp>
          </ns3:TrackPointExtension>
        </extensions>
      </trkpt>
      <trkpt lat="42.54904576577246189117431640625" lon="20.13760744594037532806396484375">
        <ele>2080</ele>
        <time>2026-06-20T07:37:43.000Z</time>
        <extensions>
          <ns3:TrackPointExtension>
            <ns3:atemp>20.0</ns3:atemp>
          </ns3:TrackPointExtension>
        </extensions>
      </trkpt>
      <trkpt lat="42.54906781017780303955078125" lon="20.1376405544579029083251953125">
        <ele>2079.60009765625</ele>
        <time>2026-06-20T07:37:44.000Z</time>
        <extensions>
          <ns3:TrackPointExtension>
            <ns3:atemp>20.0</ns3:atemp>
          </ns3:TrackPointExtension>
        </extensions>
      </trkpt>
      <trkpt lat="42.54909622482955455780029296875" lon="20.13767592608928680419921875">
        <ele>2079.39990234375</ele>
        <time>2026-06-20T07:37:45.000Z</time>
        <extensions>
          <ns3:TrackPointExtension>
            <ns3:atemp>20.0</ns3:atemp>
          </ns3:TrackPointExtension>
        </extensions>
      </trkpt>
      <trkpt lat="42.54912170581519603729248046875" lon="20.1377074420452117919921875">
        <ele>2078.800048828125</ele>
        <time>2026-06-20T07:37:46.000Z</time>
        <extensions>
          <ns3:TrackPointExtension>
            <ns3:atemp>20.0</ns3:atemp>
          </ns3:TrackPointExtension>
        </extensions>
      </trkpt>
      <trkpt lat="42.54914282821118831634521484375" lon="20.13773133046925067901611328125">
        <ele>2078.60009765625</ele>
        <time>2026-06-20T07:37:47.000Z</time>
        <extensions>
          <ns3:TrackPointExtension>
            <ns3:atemp>20.0</ns3:atemp>
          </ns3:TrackPointExtension>
        </extensions>
      </trkpt>
      <trkpt lat="42.54915992729365825653076171875" lon="20.137754715979099273681640625">
        <ele>2078.199951171875</ele>
        <time>2026-06-20T07:37:48.000Z</time>
        <extensions>
          <ns3:TrackPointExtension>
            <ns3:atemp>20.0</ns3:atemp>
          </ns3:TrackPointExtension>
        </extensions>
      </trkpt>
      <trkpt lat="42.5491678901016712188720703125" lon="20.13778514228761196136474609375">
        <ele>2077.800048828125</ele>
        <time>2026-06-20T07:37:49.000Z</time>
        <extensions>
          <ns3:TrackPointExtension>
            <ns3:atemp>20.0</ns3:atemp>
          </ns3:TrackPointExtension>
        </extensions>
      </trkpt>
      <trkpt lat="42.549162022769451141357421875" lon="20.13781070709228515625">
        <ele>2077.39990234375</ele>
        <time>2026-06-20T07:37:50.000Z</time>
        <extensions>
          <ns3:TrackPointExtension>
            <ns3:atemp>20.0</ns3:atemp>
          </ns3:TrackPointExtension>
        </extensions>
      </trkpt>
      <trkpt lat="42.54915121011435985565185546875" lon="20.1378380320966243743896484375">
        <ele>2077</ele>
        <time>2026-06-20T07:37:51.000Z</time>
        <extensions>
          <ns3:TrackPointExtension>
            <ns3:atemp>20.0</ns3:atemp>
          </ns3:TrackPointExtension>
        </extensions>
      </trkpt>
      <trkpt lat="42.54914836026728153228759765625" lon="20.13786795549094676971435546875">
        <ele>2076.39990234375</ele>
        <time>2026-06-20T07:37:52.000Z</time>
        <extensions>
          <ns3:TrackPointExtension>
            <ns3:atemp>20.0</ns3:atemp>
          </ns3:TrackPointExtension>
        </extensions>
      </trkpt>
      <trkpt lat="42.54916009493172168731689453125" lon="20.13789678923785686492919921875">
        <ele>2075.60009765625</ele>
        <time>2026-06-20T07:37:53.000Z</time>
        <extensions>
          <ns3:TrackPointExtension>
            <ns3:atemp>20.0</ns3:atemp>
          </ns3:TrackPointExtension>
        </extensions>
      </trkpt>
      <trkpt lat="42.54917585290968418121337890625" lon="20.13792159967124462127685546875">
        <ele>2075</ele>
        <time>2026-06-20T07:37:54.000Z</time>
        <extensions>
          <ns3:TrackPointExtension>
            <ns3:atemp>20.0</ns3:atemp>
          </ns3:TrackPointExtension>
        </extensions>
      </trkpt>
      <trkpt lat="42.5491806305944919586181640625" lon="20.13795177452266216278076171875">
        <ele>2074.39990234375</ele>
        <time>2026-06-20T07:37:55.000Z</time>
        <extensions>
          <ns3:TrackPointExtension>
            <ns3:atemp>20.0</ns3:atemp>
          </ns3:TrackPointExtension>
        </extensions>
      </trkpt>
      <trkpt lat="42.54917853511869907379150390625" lon="20.1379868946969509124755859375">
        <ele>2073.60009765625</ele>
        <time>2026-06-20T07:37:56.000Z</time>
        <extensions>
          <ns3:TrackPointExtension>
            <ns3:atemp>20.0</ns3:atemp>
          </ns3:TrackPointExtension>
        </extensions>
      </trkpt>
      <trkpt lat="42.549172751605510711669921875" lon="20.13801111839711666107177734375">
        <ele>2073</ele>
        <time>2026-06-20T07:37:57.000Z</time>
        <extensions>
          <ns3:TrackPointExtension>
            <ns3:atemp>20.0</ns3:atemp>
          </ns3:TrackPointExtension>
        </extensions>
      </trkpt>
      <trkpt lat="42.54917182959616184234619140625" lon="20.13803123496472835540771484375">
        <ele>2072.39990234375</ele>
        <time>2026-06-20T07:37:58.000Z</time>
        <extensions>
          <ns3:TrackPointExtension>
            <ns3:atemp>20.0</ns3:atemp>
          </ns3:TrackPointExtension>
        </extensions>
      </trkpt>
      <trkpt lat="42.54917300306260585784912109375" lon="20.13804967515170574188232421875">
        <ele>2071.800048828125</ele>
        <time>2026-06-20T07:37:59.000Z</time>
        <extensions>
          <ns3:TrackPointExtension>
            <ns3:atemp>20.0</ns3:atemp>
          </ns3:TrackPointExtension>
        </extensions>
      </trkpt>
      <trkpt lat="42.549174092710018157958984375" lon="20.13806526549160480499267578125">
        <ele>2071.199951171875</ele>
        <time>2026-06-20T07:38:00.000Z</time>
        <extensions>
          <ns3:TrackPointExtension>
            <ns3:atemp>20.0</ns3:atemp>
          </ns3:TrackPointExtension>
        </extensions>
      </trkpt>
      <trkpt lat="42.5491729192435741424560546875" lon="20.1380821131169795989990234375">
        <ele>2070.800048828125</ele>
        <time>2026-06-20T07:38:01.000Z</time>
        <extensions>
          <ns3:TrackPointExtension>
            <ns3:atemp>20.0</ns3:atemp>
          </ns3:TrackPointExtension>
        </extensions>
      </trkpt>
      <trkpt lat="42.54917032085359096527099609375" lon="20.13810239732265472412109375">
        <ele>2070.39990234375</ele>
        <time>2026-06-20T07:38:02.000Z</time>
        <extensions>
          <ns3:TrackPointExtension>
            <ns3:atemp>20.0</ns3:atemp>
          </ns3:TrackPointExtension>
        </extensions>
      </trkpt>
      <trkpt lat="42.54916545934975147247314453125" lon="20.13812544755637645721435546875">
        <ele>2069.800048828125</ele>
        <time>2026-06-20T07:38:03.000Z</time>
        <extensions>
          <ns3:TrackPointExtension>
            <ns3:atemp>20.0</ns3:atemp>
          </ns3:TrackPointExtension>
        </extensions>
      </trkpt>
      <trkpt lat="42.54915766417980194091796875" lon="20.138147659599781036376953125">
        <ele>2069.39990234375</ele>
        <time>2026-06-20T07:38:04.000Z</time>
        <extensions>
          <ns3:TrackPointExtension>
            <ns3:atemp>20.0</ns3:atemp>
          </ns3:TrackPointExtension>
        </extensions>
      </trkpt>
      <trkpt lat="42.549150623381137847900390625" lon="20.1381468214094638824462890625">
        <ele>2069.199951171875</ele>
        <time>2026-06-20T07:38:05.000Z</time>
        <extensions>
          <ns3:TrackPointExtension>
            <ns3:atemp>20.0</ns3:atemp>
          </ns3:TrackPointExtension>
        </extensions>
      </trkpt>
      <trkpt lat="42.5491511262953281402587890625" lon="20.138150341808795928955078125">
        <ele>2069</ele>
        <time>2026-06-20T07:38:06.000Z</time>
        <extensions>
          <ns3:TrackPointExtension>
            <ns3:atemp>20.0</ns3:atemp>
          </ns3:TrackPointExtension>
        </extensions>
      </trkpt>
      <trkpt lat="42.54915121011435985565185546875" lon="20.13815042562782764434814453125">
        <ele>2069</ele>
        <time>2026-06-20T07:38:07.000Z</time>
        <extensions>
          <ns3:TrackPointExtension>
            <ns3:atemp>20.0</ns3:atemp>
          </ns3:TrackPointExtension>
        </extensions>
      </trkpt>
      <trkpt lat="42.54915825091302394866943359375" lon="20.1381662674248218536376953125">
        <ele>2068.800048828125</ele>
        <time>2026-06-20T07:38:08.000Z</time>
        <extensions>
          <ns3:TrackPointExtension>
            <ns3:atemp>20.0</ns3:atemp>
          </ns3:TrackPointExtension>
        </extensions>
      </trkpt>
      <trkpt lat="42.54915674217045307159423828125" lon="20.1381729729473590850830078125">
        <ele>2068.60009765625</ele>
        <time>2026-06-20T07:38:09.000Z</time>
        <extensions>
          <ns3:TrackPointExtension>
            <ns3:atemp>20.0</ns3:atemp>
          </ns3:TrackPointExtension>
        </extensions>
      </trkpt>
      <trkpt lat="42.549151293933391571044921875" lon="20.138184539973735809326171875">
        <ele>2068.39990234375</ele>
        <time>2026-06-20T07:38:10.000Z</time>
        <extensions>
          <ns3:TrackPointExtension>
            <ns3:atemp>20.0</ns3:atemp>
          </ns3:TrackPointExtension>
        </extensions>
      </trkpt>
      <trkpt lat="42.54914416931569576263427734375" lon="20.13819116167724132537841796875">
        <ele>2068.199951171875</ele>
        <time>2026-06-20T07:38:11.000Z</time>
        <extensions>
          <ns3:TrackPointExtension>
            <ns3:atemp>20.0</ns3:atemp>
          </ns3:TrackPointExtension>
        </extensions>
      </trkpt>
      <trkpt lat="42.54913796670734882354736328125" lon="20.13819568790495395660400390625">
        <ele>2068.199951171875</ele>
        <time>2026-06-20T07:38:12.000Z</time>
        <extensions>
          <ns3:TrackPointExtension>
            <ns3:atemp>20.0</ns3:atemp>
          </ns3:TrackPointExtension>
        </extensions>
      </trkpt>
      <trkpt lat="42.54912723787128925323486328125" lon="20.13820432126522064208984375">
        <ele>2068.199951171875</ele>
        <time>2026-06-20T07:38:13.000Z</time>
        <extensions>
          <ns3:TrackPointExtension>
            <ns3:atemp>20.0</ns3:atemp>
          </ns3:TrackPointExtension>
        </extensions>
      </trkpt>
      <trkpt lat="42.54912069998681545257568359375" lon="20.1382078416645526885986328125">
        <ele>2068.39990234375</ele>
        <time>2026-06-20T07:38:14.000Z</time>
        <extensions>
          <ns3:TrackPointExtension>
            <ns3:atemp>20.0</ns3:atemp>
          </ns3:TrackPointExtension>
        </extensions>
      </trkpt>
      <trkpt lat="42.54912204109132289886474609375" lon="20.13821010477840900421142578125">
        <ele>2068.39990234375</ele>
        <time>2026-06-20T07:38:15.000Z</time>
        <extensions>
          <ns3:TrackPointExtension>
            <ns3:atemp>20.0</ns3:atemp>
          </ns3:TrackPointExtension>
        </extensions>
      </trkpt>
      <trkpt lat="42.54912204109132289886474609375" lon="20.13821010477840900421142578125">
        <ele>2068.60009765625</ele>
        <time>2026-06-20T07:38:16.000Z</time>
        <extensions>
          <ns3:TrackPointExtension>
            <ns3:atemp>20.0</ns3:atemp>
          </ns3:TrackPointExtension>
        </extensions>
      </trkpt>
      <trkpt lat="42.54912170581519603729248046875" lon="20.138210356235504150390625">
        <ele>2068.39990234375</ele>
        <time>2026-06-20T07:38:17.000Z</time>
        <extensions>
          <ns3:TrackPointExtension>
            <ns3:atemp>20.0</ns3:atemp>
          </ns3:TrackPointExtension>
        </extensions>
      </trkpt>
      <trkpt lat="42.54910846240818500518798828125" lon="20.13822468928992748260498046875">
        <ele>2068.60009765625</ele>
        <time>2026-06-20T07:38:18.000Z</time>
        <extensions>
          <ns3:TrackPointExtension>
            <ns3:atemp>20.0</ns3:atemp>
          </ns3:TrackPointExtension>
        </extensions>
      </trkpt>
      <trkpt lat="42.549103014171123504638671875" lon="20.138236172497272491455078125">
        <ele>2068.60009765625</ele>
        <time>2026-06-20T07:38:19.000Z</time>
        <extensions>
          <ns3:TrackPointExtension>
            <ns3:atemp>20.0</ns3:atemp>
          </ns3:TrackPointExtension>
        </extensions>
      </trkpt>
      <trkpt lat="42.54909731447696685791015625" lon="20.13824530877172946929931640625">
        <ele>2068.800048828125</ele>
        <time>2026-06-20T07:38:20.000Z</time>
        <extensions>
          <ns3:TrackPointExtension>
            <ns3:atemp>20.0</ns3:atemp>
          </ns3:TrackPointExtension>
        </extensions>
      </trkpt>
      <trkpt lat="42.549096643924713134765625" lon="20.13824631460011005401611328125">
        <ele>2069</ele>
        <time>2026-06-20T07:38:21.000Z</time>
        <extensions>
          <ns3:TrackPointExtension>
            <ns3:atemp>20.0</ns3:atemp>
          </ns3:TrackPointExtension>
        </extensions>
      </trkpt>
      <trkpt lat="42.54909622482955455780029296875" lon="20.1382541097700595855712890625">
        <ele>2069</ele>
        <time>2026-06-20T07:38:22.000Z</time>
        <extensions>
          <ns3:TrackPointExtension>
            <ns3:atemp>20.0</ns3:atemp>
          </ns3:TrackPointExtension>
        </extensions>
      </trkpt>
      <trkpt lat="42.5490954704582691192626953125" lon="20.1382626593112945556640625">
        <ele>2069.199951171875</ele>
        <time>2026-06-20T07:38:23.000Z</time>
        <extensions>
          <ns3:TrackPointExtension>
            <ns3:atemp>20.0</ns3:atemp>
          </ns3:TrackPointExtension>
        </extensions>
      </trkpt>
      <trkpt lat="42.54909505136311054229736328125" lon="20.13827271759510040283203125">
        <ele>2069.199951171875</ele>
        <time>2026-06-20T07:38:24.000Z</time>
        <extensions>
          <ns3:TrackPointExtension>
            <ns3:atemp>20.0</ns3:atemp>
          </ns3:TrackPointExtension>
        </extensions>
      </trkpt>
      <trkpt lat="42.54909505136311054229736328125" lon="20.13828654773533344268798828125">
        <ele>2069.199951171875</ele>
        <time>2026-06-20T07:38:25.000Z</time>
        <extensions>
          <ns3:TrackPointExtension>
            <ns3:atemp>20.0</ns3:atemp>
          </ns3:TrackPointExtension>
        </extensions>
      </trkpt>
      <trkpt lat="42.54909505136311054229736328125" lon="20.13830062933266162872314453125">
        <ele>2069.199951171875</ele>
        <time>2026-06-20T07:38:26.000Z</time>
        <extensions>
          <ns3:TrackPointExtension>
            <ns3:atemp>20.0</ns3:atemp>
          </ns3:TrackPointExtension>
        </extensions>
      </trkpt>
      <trkpt lat="42.54909320734441280364990234375" lon="20.13830012641847133636474609375">
        <ele>2069.199951171875</ele>
        <time>2026-06-20T07:38:27.000Z</time>
        <extensions>
          <ns3:TrackPointExtension>
            <ns3:atemp>20.0</ns3:atemp>
          </ns3:TrackPointExtension>
        </extensions>
      </trkpt>
      <trkpt lat="42.54909320734441280364990234375" lon="20.13830012641847133636474609375">
        <ele>2069.199951171875</ele>
        <time>2026-06-20T07:38:28.000Z</time>
        <extensions>
          <ns3:TrackPointExtension>
            <ns3:atemp>20.0</ns3:atemp>
          </ns3:TrackPointExtension>
        </extensions>
      </trkpt>
      <trkpt lat="42.54909320734441280364990234375" lon="20.13830012641847133636474609375">
        <ele>2069.39990234375</ele>
        <time>2026-06-20T07:38:29.000Z</time>
        <extensions>
          <ns3:TrackPointExtension>
            <ns3:atemp>20.0</ns3:atemp>
          </ns3:TrackPointExtension>
        </extensions>
      </trkpt>
      <trkpt lat="42.54909320734441280364990234375" lon="20.13830012641847133636474609375">
        <ele>2069.39990234375</ele>
        <time>2026-06-20T07:38:30.000Z</time>
        <extensions>
          <ns3:TrackPointExtension>
            <ns3:atemp>20.0</ns3:atemp>
          </ns3:TrackPointExtension>
        </extensions>
      </trkpt>
      <trkpt lat="42.54909320734441280364990234375" lon="20.13830012641847133636474609375">
        <ele>2069.39990234375</ele>
        <time>2026-06-20T07:38:31.000Z</time>
        <extensions>
          <ns3:TrackPointExtension>
            <ns3:atemp>20.0</ns3:atemp>
          </ns3:TrackPointExtension>
        </extensions>
      </trkpt>
      <trkpt lat="42.54909337498247623443603515625" lon="20.1383002102375030517578125">
        <ele>2069.39990234375</ele>
        <time>2026-06-20T07:38:32.000Z</time>
        <extensions>
          <ns3:TrackPointExtension>
            <ns3:atemp>20.0</ns3:atemp>
          </ns3:TrackPointExtension>
        </extensions>
      </trkpt>
      <trkpt lat="42.5490924529731273651123046875" lon="20.13831160962581634521484375">
        <ele>2069.39990234375</ele>
        <time>2026-06-20T07:38:33.000Z</time>
        <extensions>
          <ns3:TrackPointExtension>
            <ns3:atemp>20.0</ns3:atemp>
          </ns3:TrackPointExtension>
        </extensions>
      </trkpt>
      <trkpt lat="42.54908884875476360321044921875" lon="20.138335414230823516845703125">
        <ele>2069.199951171875</ele>
        <time>2026-06-20T07:38:34.000Z</time>
        <extensions>
          <ns3:TrackPointExtension>
            <ns3:atemp>20.0</ns3:atemp>
          </ns3:TrackPointExtension>
        </extensions>
      </trkpt>
      <trkpt lat="42.54908658564090728759765625" lon="20.13835779391229152679443359375">
        <ele>2069.199951171875</ele>
        <time>2026-06-20T07:38:35.000Z</time>
        <extensions>
          <ns3:TrackPointExtension>
            <ns3:atemp>20.0</ns3:atemp>
          </ns3:TrackPointExtension>
        </extensions>
      </trkpt>
      <trkpt lat="42.54908650182187557220458984375" lon="20.13838059268891811370849609375">
        <ele>2069.199951171875</ele>
        <time>2026-06-20T07:38:36.000Z</time>
        <extensions>
          <ns3:TrackPointExtension>
            <ns3:atemp>20.0</ns3:atemp>
          </ns3:TrackPointExtension>
        </extensions>
      </trkpt>
      <trkpt lat="42.54908767528831958770751953125" lon="20.138407163321971893310546875">
        <ele>2069</ele>
        <time>2026-06-20T07:38:37.000Z</time>
        <extensions>
          <ns3:TrackPointExtension>
            <ns3:atemp>20.0</ns3:atemp>
          </ns3:TrackPointExtension>
        </extensions>
      </trkpt>
      <trkpt lat="42.5490927882492542266845703125" lon="20.138434655964374542236328125">
        <ele>2069</ele>
        <time>2026-06-20T07:38:38.000Z</time>
        <extensions>
          <ns3:TrackPointExtension>
            <ns3:atemp>20.0</ns3:atemp>
          </ns3:TrackPointExtension>
        </extensions>
      </trkpt>
      <trkpt lat="42.54910175688564777374267578125" lon="20.13846181333065032958984375">
        <ele>2069</ele>
        <time>2026-06-20T07:38:39.000Z</time>
        <extensions>
          <ns3:TrackPointExtension>
            <ns3:atemp>20.0</ns3:atemp>
          </ns3:TrackPointExtension>
        </extensions>
      </trkpt>
      <trkpt lat="42.54910829477012157440185546875" lon="20.1384871266782283782958984375">
        <ele>2069.199951171875</ele>
        <time>2026-06-20T07:38:40.000Z</time>
        <extensions>
          <ns3:TrackPointExtension>
            <ns3:atemp>20.0</ns3:atemp>
          </ns3:TrackPointExtension>
        </extensions>
      </trkpt>
      <trkpt lat="42.54911500029265880584716796875" lon="20.13850741088390350341796875">
        <ele>2069.39990234375</ele>
        <time>2026-06-20T07:38:41.000Z</time>
        <extensions>
          <ns3:TrackPointExtension>
            <ns3:atemp>20.0</ns3:atemp>
          </ns3:TrackPointExtension>
        </extensions>
      </trkpt>
      <trkpt lat="42.5491248071193695068359375" lon="20.13853012584149837493896484375">
        <ele>2069.60009765625</ele>
        <time>2026-06-20T07:38:42.000Z</time>
        <extensions>
          <ns3:TrackPointExtension>
            <ns3:atemp>20.0</ns3:atemp>
          </ns3:TrackPointExtension>
        </extensions>
      </trkpt>
      <trkpt lat="42.54913813434541225433349609375" lon="20.13855091296136379241943359375">
        <ele>2070</ele>
        <time>2026-06-20T07:38:43.000Z</time>
        <extensions>
          <ns3:TrackPointExtension>
            <ns3:atemp>20.0</ns3:atemp>
          </ns3:TrackPointExtension>
        </extensions>
      </trkpt>
      <trkpt lat="42.549145258963108062744140625" lon="20.1385742984712123870849609375">
        <ele>2070.199951171875</ele>
        <time>2026-06-20T07:38:44.000Z</time>
        <extensions>
          <ns3:TrackPointExtension>
            <ns3:atemp>20.0</ns3:atemp>
          </ns3:TrackPointExtension>
        </extensions>
      </trkpt>
      <trkpt lat="42.54914425313472747802734375" lon="20.138596259057521820068359375">
        <ele>2070.199951171875</ele>
        <time>2026-06-20T07:38:45.000Z</time>
        <extensions>
          <ns3:TrackPointExtension>
            <ns3:atemp>20.0</ns3:atemp>
          </ns3:TrackPointExtension>
        </extensions>
      </trkpt>
      <trkpt lat="42.54914467222988605499267578125" lon="20.13861880637705326080322265625">
        <ele>2070.39990234375</ele>
        <time>2026-06-20T07:38:46.000Z</time>
        <extensions>
          <ns3:TrackPointExtension>
            <ns3:atemp>20.0</ns3:atemp>
          </ns3:TrackPointExtension>
        </extensions>
      </trkpt>
      <trkpt lat="42.54914182238280773162841796875" lon="20.13864663429558277130126953125">
        <ele>2070.39990234375</ele>
        <time>2026-06-20T07:38:47.000Z</time>
        <extensions>
          <ns3:TrackPointExtension>
            <ns3:atemp>20.0</ns3:atemp>
          </ns3:TrackPointExtension>
        </extensions>
      </trkpt>
      <trkpt lat="42.54913629032671451568603515625" lon="20.13867731206119060516357421875">
        <ele>2070.39990234375</ele>
        <time>2026-06-20T07:38:48.000Z</time>
        <extensions>
          <ns3:TrackPointExtension>
            <ns3:atemp>20.0</ns3:atemp>
          </ns3:TrackPointExtension>
        </extensions>
      </trkpt>
      <trkpt lat="42.5491300038993358612060546875" lon="20.1387105882167816162109375">
        <ele>2070.60009765625</ele>
        <time>2026-06-20T07:38:49.000Z</time>
        <extensions>
          <ns3:TrackPointExtension>
            <ns3:atemp>20.0</ns3:atemp>
          </ns3:TrackPointExtension>
        </extensions>
      </trkpt>
      <trkpt lat="42.549123801290988922119140625" lon="20.13874084688723087310791015625">
        <ele>2070.60009765625</ele>
        <time>2026-06-20T07:38:50.000Z</time>
        <extensions>
          <ns3:TrackPointExtension>
            <ns3:atemp>20.0</ns3:atemp>
          </ns3:TrackPointExtension>
        </extensions>
      </trkpt>
      <trkpt lat="42.5491175986826419830322265625" lon="20.13877269811928272247314453125">
        <ele>2070.60009765625</ele>
        <time>2026-06-20T07:38:51.000Z</time>
        <extensions>
          <ns3:TrackPointExtension>
            <ns3:atemp>20.0</ns3:atemp>
          </ns3:TrackPointExtension>
        </extensions>
      </trkpt>
      <trkpt lat="42.549110390245914459228515625" lon="20.13880488462746143341064453125">
        <ele>2070.800048828125</ele>
        <time>2026-06-20T07:38:52.000Z</time>
        <extensions>
          <ns3:TrackPointExtension>
            <ns3:atemp>20.0</ns3:atemp>
          </ns3:TrackPointExtension>
        </extensions>
      </trkpt>
      <trkpt lat="42.54909840412437915802001953125" lon="20.13883732259273529052734375">
        <ele>2070.800048828125</ele>
        <time>2026-06-20T07:38:53.000Z</time>
        <extensions>
          <ns3:TrackPointExtension>
            <ns3:atemp>20.0</ns3:atemp>
          </ns3:TrackPointExtension>
        </extensions>
      </trkpt>
      <trkpt lat="42.54908792674541473388671875" lon="20.138870514929294586181640625">
        <ele>2070.800048828125</ele>
        <time>2026-06-20T07:38:54.000Z</time>
        <extensions>
          <ns3:TrackPointExtension>
            <ns3:atemp>20.0</ns3:atemp>
          </ns3:TrackPointExtension>
        </extensions>
      </trkpt>
      <trkpt lat="42.54907929338514804840087890625" lon="20.1389042101800441741943359375">
        <ele>2071</ele>
        <time>2026-06-20T07:38:55.000Z</time>
        <extensions>
          <ns3:TrackPointExtension>
            <ns3:atemp>20.0</ns3:atemp>
          </ns3:TrackPointExtension>
        </extensions>
      </trkpt>
      <trkpt lat="42.54906454123556613922119140625" lon="20.13893497176468372344970703125">
        <ele>2071</ele>
        <time>2026-06-20T07:38:56.000Z</time>
        <extensions>
          <ns3:TrackPointExtension>
            <ns3:atemp>20.0</ns3:atemp>
          </ns3:TrackPointExtension>
        </extensions>
      </trkpt>
      <trkpt lat="42.54905297420918941497802734375" lon="20.138971097767353057861328125">
        <ele>2071</ele>
        <time>2026-06-20T07:38:57.000Z</time>
        <extensions>
          <ns3:TrackPointExtension>
            <ns3:atemp>20.0</ns3:atemp>
          </ns3:TrackPointExtension>
        </extensions>
      </trkpt>
      <trkpt lat="42.5490461848676204681396484375" lon="20.13900697231292724609375">
        <ele>2071</ele>
        <time>2026-06-20T07:38:58.000Z</time>
        <extensions>
          <ns3:TrackPointExtension>
            <ns3:atemp>20.0</ns3:atemp>
          </ns3:TrackPointExtension>
        </extensions>
      </trkpt>
      <trkpt lat="42.549037970602512359619140625" lon="20.13904226012527942657470703125">
        <ele>2071</ele>
        <time>2026-06-20T07:38:59.000Z</time>
        <extensions>
          <ns3:TrackPointExtension>
            <ns3:atemp>20.0</ns3:atemp>
          </ns3:TrackPointExtension>
        </extensions>
      </trkpt>
      <trkpt lat="42.5490364618599414825439453125" lon="20.13907327316701412200927734375">
        <ele>2071</ele>
        <time>2026-06-20T07:39:00.000Z</time>
        <extensions>
          <ns3:TrackPointExtension>
            <ns3:atemp>20.0</ns3:atemp>
          </ns3:TrackPointExtension>
        </extensions>
      </trkpt>
      <trkpt lat="42.5490336120128631591796875" lon="20.13910830952227115631103515625">
        <ele>2071</ele>
        <time>2026-06-20T07:39:01.000Z</time>
        <extensions>
          <ns3:TrackPointExtension>
            <ns3:atemp>20.0</ns3:atemp>
          </ns3:TrackPointExtension>
        </extensions>
      </trkpt>
      <trkpt lat="42.54903134889900684356689453125" lon="20.13913982547819614410400390625">
        <ele>2071.199951171875</ele>
        <time>2026-06-20T07:39:02.000Z</time>
        <extensions>
          <ns3:TrackPointExtension>
            <ns3:atemp>19.0</ns3:atemp>
          </ns3:TrackPointExtension>
        </extensions>
      </trkpt>
      <trkpt lat="42.54903067834675312042236328125" lon="20.139171592891216278076171875">
        <ele>2071.199951171875</ele>
        <time>2026-06-20T07:39:03.000Z</time>
        <extensions>
          <ns3:TrackPointExtension>
            <ns3:atemp>19.0</ns3:atemp>
          </ns3:TrackPointExtension>
        </extensions>
      </trkpt>
      <trkpt lat="42.549031935632228851318359375" lon="20.13920235447585582733154296875">
        <ele>2071.39990234375</ele>
        <time>2026-06-20T07:39:04.000Z</time>
        <extensions>
          <ns3:TrackPointExtension>
            <ns3:atemp>20.0</ns3:atemp>
          </ns3:TrackPointExtension>
        </extensions>
      </trkpt>
      <trkpt lat="42.54903235472738742828369140625" lon="20.1392341218888759613037109375">
        <ele>2071.39990234375</ele>
        <time>2026-06-20T07:39:05.000Z</time>
        <extensions>
          <ns3:TrackPointExtension>
            <ns3:atemp>20.0</ns3:atemp>
          </ns3:TrackPointExtension>
        </extensions>
      </trkpt>
      <trkpt lat="42.54903034307062625885009765625" lon="20.13926488347351551055908203125">
        <ele>2071.60009765625</ele>
        <time>2026-06-20T07:39:06.000Z</time>
        <extensions>
          <ns3:TrackPointExtension>
            <ns3:atemp>20.0</ns3:atemp>
          </ns3:TrackPointExtension>
        </extensions>
      </trkpt>
      <trkpt lat="42.549024559557437896728515625" lon="20.13929388485848903656005859375">
        <ele>2071.60009765625</ele>
        <time>2026-06-20T07:39:07.000Z</time>
        <extensions>
          <ns3:TrackPointExtension>
            <ns3:atemp>20.0</ns3:atemp>
          </ns3:TrackPointExtension>
        </extensions>
      </trkpt>
      <trkpt lat="42.54901559092104434967041015625" lon="20.13932188041508197784423828125">
        <ele>2071.800048828125</ele>
        <time>2026-06-20T07:39:08.000Z</time>
        <extensions>
          <ns3:TrackPointExtension>
            <ns3:atemp>19.0</ns3:atemp>
          </ns3:TrackPointExtension>
        </extensions>
      </trkpt>
      <trkpt lat="42.54901005886495113372802734375" lon="20.13934769667685031890869140625">
        <ele>2071.800048828125</ele>
        <time>2026-06-20T07:39:09.000Z</time>
        <extensions>
          <ns3:TrackPointExtension>
            <ns3:atemp>19.0</ns3:atemp>
          </ns3:TrackPointExtension>
        </extensions>
      </trkpt>
      <trkpt lat="42.5490029342472553253173828125" lon="20.139371417462825775146484375">
        <ele>2071.800048828125</ele>
        <time>2026-06-20T07:39:10.000Z</time>
        <extensions>
          <ns3:TrackPointExtension>
            <ns3:atemp>19.0</ns3:atemp>
          </ns3:TrackPointExtension>
        </extensions>
      </trkpt>
      <trkpt lat="42.5489948876202106475830078125" lon="20.13939446769654750823974609375">
        <ele>2072</ele>
        <time>2026-06-20T07:39:11.000Z</time>
        <extensions>
          <ns3:TrackPointExtension>
            <ns3:atemp>19.0</ns3:atemp>
          </ns3:TrackPointExtension>
        </extensions>
      </trkpt>
      <trkpt lat="42.5489854998886585235595703125" lon="20.1394131593406200408935546875">
        <ele>2072</ele>
        <time>2026-06-20T07:39:12.000Z</time>
        <extensions>
          <ns3:TrackPointExtension>
            <ns3:atemp>19.0</ns3:atemp>
          </ns3:TrackPointExtension>
        </extensions>
      </trkpt>
      <trkpt lat="42.54897904582321643829345703125" lon="20.13943285681307315826416015625">
        <ele>2072</ele>
        <time>2026-06-20T07:39:13.000Z</time>
        <extensions>
          <ns3:TrackPointExtension>
            <ns3:atemp>19.0</ns3:atemp>
          </ns3:TrackPointExtension>
        </extensions>
      </trkpt>
      <trkpt lat="42.5489737652242183685302734375" lon="20.13945020735263824462890625">
        <ele>2072</ele>
        <time>2026-06-20T07:39:14.000Z</time>
        <extensions>
          <ns3:TrackPointExtension>
            <ns3:atemp>19.0</ns3:atemp>
          </ns3:TrackPointExtension>
        </extensions>
      </trkpt>
      <trkpt lat="42.54896161146461963653564453125" lon="20.13947024010121822357177734375">
        <ele>2071.800048828125</ele>
        <time>2026-06-20T07:39:15.000Z</time>
        <extensions>
          <ns3:TrackPointExtension>
            <ns3:atemp>19.0</ns3:atemp>
          </ns3:TrackPointExtension>
        </extensions>
      </trkpt>
      <trkpt lat="42.5489479489624500274658203125" lon="20.13948532752692699432373046875">
        <ele>2071.800048828125</ele>
        <time>2026-06-20T07:39:16.000Z</time>
        <extensions>
          <ns3:TrackPointExtension>
            <ns3:atemp>19.0</ns3:atemp>
          </ns3:TrackPointExtension>
        </extensions>
      </trkpt>
      <trkpt lat="42.548934705555438995361328125" lon="20.13950125314295291900634765625">
        <ele>2071.60009765625</ele>
        <time>2026-06-20T07:39:17.000Z</time>
        <extensions>
          <ns3:TrackPointExtension>
            <ns3:atemp>19.0</ns3:atemp>
          </ns3:TrackPointExtension>
        </extensions>
      </trkpt>
      <trkpt lat="42.5489217974245548248291015625" lon="20.13951952569186687469482421875">
        <ele>2071.60009765625</ele>
        <time>2026-06-20T07:39:18.000Z</time>
        <extensions>
          <ns3:TrackPointExtension>
            <ns3:atemp>19.0</ns3:atemp>
          </ns3:TrackPointExtension>
        </extensions>
      </trkpt>
      <trkpt lat="42.54890427924692630767822265625" lon="20.1395425759255886077880859375">
        <ele>2071.39990234375</ele>
        <time>2026-06-20T07:39:19.000Z</time>
        <extensions>
          <ns3:TrackPointExtension>
            <ns3:atemp>19.0</ns3:atemp>
          </ns3:TrackPointExtension>
        </extensions>
      </trkpt>
      <trkpt lat="42.5488869287073612213134765625" lon="20.139571242034435272216796875">
        <ele>2071.199951171875</ele>
        <time>2026-06-20T07:39:20.000Z</time>
        <extensions>
          <ns3:TrackPointExtension>
            <ns3:atemp>19.0</ns3:atemp>
          </ns3:TrackPointExtension>
        </extensions>
      </trkpt>
      <trkpt lat="42.54886605776846408843994140625" lon="20.1396032609045505523681640625">
        <ele>2071</ele>
        <time>2026-06-20T07:39:21.000Z</time>
        <extensions>
          <ns3:TrackPointExtension>
            <ns3:atemp>19.0</ns3:atemp>
          </ns3:TrackPointExtension>
        </extensions>
      </trkpt>
      <trkpt lat="42.54884426482021808624267578125" lon="20.13963217847049236297607421875">
        <ele>2070.800048828125</ele>
        <time>2026-06-20T07:39:22.000Z</time>
        <extensions>
          <ns3:TrackPointExtension>
            <ns3:atemp>19.0</ns3:atemp>
          </ns3:TrackPointExtension>
        </extensions>
      </trkpt>
      <trkpt lat="42.54882079549133777618408203125" lon="20.139665789902210235595703125">
        <ele>2070.39990234375</ele>
        <time>2026-06-20T07:39:23.000Z</time>
        <extensions>
          <ns3:TrackPointExtension>
            <ns3:atemp>19.0</ns3:atemp>
          </ns3:TrackPointExtension>
        </extensions>
      </trkpt>
      <trkpt lat="42.5488098151981830596923828125" lon="20.1396998204290866851806640625">
        <ele>2070</ele>
        <time>2026-06-20T07:39:24.000Z</time>
        <extensions>
          <ns3:TrackPointExtension>
            <ns3:atemp>19.0</ns3:atemp>
          </ns3:TrackPointExtension>
        </extensions>
      </trkpt>
      <trkpt lat="42.54880621097981929779052734375" lon="20.1397244632244110107421875">
        <ele>2069.800048828125</ele>
        <time>2026-06-20T07:39:25.000Z</time>
        <extensions>
          <ns3:TrackPointExtension>
            <ns3:atemp>19.0</ns3:atemp>
          </ns3:TrackPointExtension>
        </extensions>
      </trkpt>
      <trkpt lat="42.54879933781921863555908203125" lon="20.1397420652210712432861328125">
        <ele>2069.60009765625</ele>
        <time>2026-06-20T07:39:26.000Z</time>
        <extensions>
          <ns3:TrackPointExtension>
            <ns3:atemp>19.0</ns3:atemp>
          </ns3:TrackPointExtension>
        </extensions>
      </trkpt>
      <trkpt lat="42.548793219029903411865234375" lon="20.13975371606647968292236328125">
        <ele>2069.39990234375</ele>
        <time>2026-06-20T07:39:27.000Z</time>
        <extensions>
          <ns3:TrackPointExtension>
            <ns3:atemp>19.0</ns3:atemp>
          </ns3:TrackPointExtension>
        </extensions>
      </trkpt>
      <trkpt lat="42.54878559149801731109619140625" lon="20.139769725501537322998046875">
        <ele>2069.199951171875</ele>
        <time>2026-06-20T07:39:28.000Z</time>
        <extensions>
          <ns3:TrackPointExtension>
            <ns3:atemp>19.0</ns3:atemp>
          </ns3:TrackPointExtension>
        </extensions>
      </trkpt>
      <trkpt lat="42.54877788014709949493408203125" lon="20.1397876627743244171142578125">
        <ele>2069</ele>
        <time>2026-06-20T07:39:29.000Z</time>
        <extensions>
          <ns3:TrackPointExtension>
            <ns3:atemp>19.0</ns3:atemp>
          </ns3:TrackPointExtension>
        </extensions>
      </trkpt>
      <trkpt lat="42.5487712584435939788818359375" lon="20.1398094557225704193115234375">
        <ele>2069</ele>
        <time>2026-06-20T07:39:30.000Z</time>
        <extensions>
          <ns3:TrackPointExtension>
            <ns3:atemp>19.0</ns3:atemp>
          </ns3:TrackPointExtension>
        </extensions>
      </trkpt>
      <trkpt lat="42.5487635470926761627197265625" lon="20.13982797972857952117919921875">
        <ele>2068.800048828125</ele>
        <time>2026-06-20T07:39:31.000Z</time>
        <extensions>
          <ns3:TrackPointExtension>
            <ns3:atemp>19.0</ns3:atemp>
          </ns3:TrackPointExtension>
        </extensions>
      </trkpt>
      <trkpt lat="42.5487528182566165924072265625" lon="20.1398513652384281158447265625">
        <ele>2068.800048828125</ele>
        <time>2026-06-20T07:39:32.000Z</time>
        <extensions>
          <ns3:TrackPointExtension>
            <ns3:atemp>19.0</ns3:atemp>
          </ns3:TrackPointExtension>
        </extensions>
      </trkpt>
      <trkpt lat="42.5487437658011913299560546875" lon="20.13987558893859386444091796875">
        <ele>2068.60009765625</ele>
        <time>2026-06-20T07:39:33.000Z</time>
        <extensions>
          <ns3:TrackPointExtension>
            <ns3:atemp>19.0</ns3:atemp>
          </ns3:TrackPointExtension>
        </extensions>
      </trkpt>
      <trkpt lat="42.5487340427935123443603515625" lon="20.13990224339067935943603515625">
        <ele>2068.60009765625</ele>
        <time>2026-06-20T07:39:34.000Z</time>
        <extensions>
          <ns3:TrackPointExtension>
            <ns3:atemp>19.0</ns3:atemp>
          </ns3:TrackPointExtension>
        </extensions>
      </trkpt>
      <trkpt lat="42.54872708581387996673583984375" lon="20.13992906548082828521728515625">
        <ele>2068.60009765625</ele>
        <time>2026-06-20T07:39:35.000Z</time>
        <extensions>
          <ns3:TrackPointExtension>
            <ns3:atemp>19.0</ns3:atemp>
          </ns3:TrackPointExtension>
        </extensions>
      </trkpt>
      <trkpt lat="42.548725493252277374267578125" lon="20.13995337300002574920654296875">
        <ele>2068.800048828125</ele>
        <time>2026-06-20T07:39:36.000Z</time>
        <extensions>
          <ns3:TrackPointExtension>
            <ns3:atemp>19.0</ns3:atemp>
          </ns3:TrackPointExtension>
        </extensions>
      </trkpt>
      <trkpt lat="42.54872289486229419708251953125" lon="20.13998136855661869049072265625">
        <ele>2068.800048828125</ele>
        <time>2026-06-20T07:39:37.000Z</time>
        <extensions>
          <ns3:TrackPointExtension>
            <ns3:atemp>19.0</ns3:atemp>
          </ns3:TrackPointExtension>
        </extensions>
      </trkpt>
      <trkpt lat="42.5487196259200572967529296875" lon="20.14000944793224334716796875">
        <ele>2069</ele>
        <time>2026-06-20T07:39:38.000Z</time>
        <extensions>
          <ns3:TrackPointExtension>
            <ns3:atemp>19.0</ns3:atemp>
          </ns3:TrackPointExtension>
        </extensions>
      </trkpt>
      <trkpt lat="42.54871669225394725799560546875" lon="20.14003283344209194183349609375">
        <ele>2069.199951171875</ele>
        <time>2026-06-20T07:39:39.000Z</time>
        <extensions>
          <ns3:TrackPointExtension>
            <ns3:atemp>19.0</ns3:atemp>
          </ns3:TrackPointExtension>
        </extensions>
      </trkpt>
      <trkpt lat="42.54871585406363010406494140625" lon="20.1400565542280673980712890625">
        <ele>2069.39990234375</ele>
        <time>2026-06-20T07:39:40.000Z</time>
        <extensions>
          <ns3:TrackPointExtension>
            <ns3:atemp>19.0</ns3:atemp>
          </ns3:TrackPointExtension>
        </extensions>
      </trkpt>
      <trkpt lat="42.54870831035077571868896484375" lon="20.14007893390953540802001953125">
        <ele>2069.60009765625</ele>
        <time>2026-06-20T07:39:41.000Z</time>
        <extensions>
          <ns3:TrackPointExtension>
            <ns3:atemp>19.0</ns3:atemp>
          </ns3:TrackPointExtension>
        </extensions>
      </trkpt>
      <trkpt lat="42.548698671162128448486328125" lon="20.14009770937263965606689453125">
        <ele>2069.800048828125</ele>
        <time>2026-06-20T07:39:42.000Z</time>
        <extensions>
          <ns3:TrackPointExtension>
            <ns3:atemp>19.0</ns3:atemp>
          </ns3:TrackPointExtension>
        </extensions>
      </trkpt>
      <trkpt lat="42.548691965639591217041015625" lon="20.1401158981025218963623046875">
        <ele>2070.199951171875</ele>
        <time>2026-06-20T07:39:43.000Z</time>
        <extensions>
          <ns3:TrackPointExtension>
            <ns3:atemp>19.0</ns3:atemp>
          </ns3:TrackPointExtension>
        </extensions>
      </trkpt>
      <trkpt lat="42.5486921332776546478271484375" lon="20.14013727195560932159423828125">
        <ele>2070.39990234375</ele>
        <time>2026-06-20T07:39:44.000Z</time>
        <extensions>
          <ns3:TrackPointExtension>
            <ns3:atemp>19.0</ns3:atemp>
          </ns3:TrackPointExtension>
        </extensions>
      </trkpt>
      <trkpt lat="42.54869322292506694793701171875" lon="20.14015696942806243896484375">
        <ele>2070.60009765625</ele>
        <time>2026-06-20T07:39:45.000Z</time>
        <extensions>
          <ns3:TrackPointExtension>
            <ns3:atemp>19.0</ns3:atemp>
          </ns3:TrackPointExtension>
        </extensions>
      </trkpt>
      <trkpt lat="42.54869339056313037872314453125" lon="20.14017381705343723297119140625">
        <ele>2071</ele>
        <time>2026-06-20T07:39:46.000Z</time>
        <extensions>
          <ns3:TrackPointExtension>
            <ns3:atemp>19.0</ns3:atemp>
          </ns3:TrackPointExtension>
        </extensions>
      </trkpt>
      <trkpt lat="42.54869137890636920928955078125" lon="20.1401930116117000579833984375">
        <ele>2071.199951171875</ele>
        <time>2026-06-20T07:39:47.000Z</time>
        <extensions>
          <ns3:TrackPointExtension>
            <ns3:atemp>19.0</ns3:atemp>
          </ns3:TrackPointExtension>
        </extensions>
      </trkpt>
      <trkpt lat="42.5486911274492740631103515625" lon="20.14021488837897777557373046875">
        <ele>2071.199951171875</ele>
        <time>2026-06-20T07:39:48.000Z</time>
        <extensions>
          <ns3:TrackPointExtension>
            <ns3:atemp>19.0</ns3:atemp>
          </ns3:TrackPointExtension>
        </extensions>
      </trkpt>
      <trkpt lat="42.5486924685537815093994140625" lon="20.14023215509951114654541015625">
        <ele>2071.39990234375</ele>
        <time>2026-06-20T07:39:49.000Z</time>
        <extensions>
          <ns3:TrackPointExtension>
            <ns3:atemp>19.0</ns3:atemp>
          </ns3:TrackPointExtension>
        </extensions>
      </trkpt>
      <trkpt lat="42.5486934743821620941162109375" lon="20.1402513496577739715576171875">
        <ele>2071.60009765625</ele>
        <time>2026-06-20T07:39:50.000Z</time>
        <extensions>
          <ns3:TrackPointExtension>
            <ns3:atemp>19.0</ns3:atemp>
          </ns3:TrackPointExtension>
        </extensions>
      </trkpt>
      <trkpt lat="42.5486934743821620941162109375" lon="20.14027498662471771240234375">
        <ele>2071.800048828125</ele>
        <time>2026-06-20T07:39:51.000Z</time>
        <extensions>
          <ns3:TrackPointExtension>
            <ns3:atemp>19.0</ns3:atemp>
          </ns3:TrackPointExtension>
        </extensions>
      </trkpt>
      <trkpt lat="42.54869573749601840972900390625" lon="20.14029778540134429931640625">
        <ele>2072</ele>
        <time>2026-06-20T07:39:52.000Z</time>
        <extensions>
          <ns3:TrackPointExtension>
            <ns3:atemp>19.0</ns3:atemp>
          </ns3:TrackPointExtension>
        </extensions>
      </trkpt>
      <trkpt lat="42.54869540221989154815673828125" lon="20.1403210870921611785888671875">
        <ele>2072.199951171875</ele>
        <time>2026-06-20T07:39:53.000Z</time>
        <extensions>
          <ns3:TrackPointExtension>
            <ns3:atemp>19.0</ns3:atemp>
          </ns3:TrackPointExtension>
        </extensions>
      </trkpt>
      <trkpt lat="42.5486951507627964019775390625" lon="20.14034514315426349639892578125">
        <ele>2072.39990234375</ele>
        <time>2026-06-20T07:39:54.000Z</time>
        <extensions>
          <ns3:TrackPointExtension>
            <ns3:atemp>19.0</ns3:atemp>
          </ns3:TrackPointExtension>
        </extensions>
      </trkpt>
      <trkpt lat="42.54869640804827213287353515625" lon="20.14037213288247585296630859375">
        <ele>2072.39990234375</ele>
        <time>2026-06-20T07:39:55.000Z</time>
        <extensions>
          <ns3:TrackPointExtension>
            <ns3:atemp>19.0</ns3:atemp>
          </ns3:TrackPointExtension>
        </extensions>
      </trkpt>
      <trkpt lat="42.548701353371143341064453125" lon="20.14039878733456134796142578125">
        <ele>2072.60009765625</ele>
        <time>2026-06-20T07:39:56.000Z</time>
        <extensions>
          <ns3:TrackPointExtension>
            <ns3:atemp>19.0</ns3:atemp>
          </ns3:TrackPointExtension>
        </extensions>
      </trkpt>
      <trkpt lat="42.548699341714382171630859375" lon="20.14042359776794910430908203125">
        <ele>2072.800048828125</ele>
        <time>2026-06-20T07:39:57.000Z</time>
        <extensions>
          <ns3:TrackPointExtension>
            <ns3:atemp>19.0</ns3:atemp>
          </ns3:TrackPointExtension>
        </extensions>
      </trkpt>
      <trkpt lat="42.54869523458182811737060546875" lon="20.14044530689716339111328125">
        <ele>2073</ele>
        <time>2026-06-20T07:39:58.000Z</time>
        <extensions>
          <ns3:TrackPointExtension>
            <ns3:atemp>19.0</ns3:atemp>
          </ns3:TrackPointExtension>
        </extensions>
      </trkpt>
      <trkpt lat="42.5486991740763187408447265625" lon="20.14046081341803073883056640625">
        <ele>2073.39990234375</ele>
        <time>2026-06-20T07:39:59.000Z</time>
        <extensions>
          <ns3:TrackPointExtension>
            <ns3:atemp>19.0</ns3:atemp>
          </ns3:TrackPointExtension>
        </extensions>
      </trkpt>
      <trkpt lat="42.5487045384943485260009765625" lon="20.14048193581402301788330078125">
        <ele>2073.60009765625</ele>
        <time>2026-06-20T07:40:00.000Z</time>
        <extensions>
          <ns3:TrackPointExtension>
            <ns3:atemp>19.0</ns3:atemp>
          </ns3:TrackPointExtension>
        </extensions>
      </trkpt>
      <trkpt lat="42.5487077236175537109375" lon="20.14050691388547420501708984375">
        <ele>2073.800048828125</ele>
        <time>2026-06-20T07:40:01.000Z</time>
        <extensions>
          <ns3:TrackPointExtension>
            <ns3:atemp>19.0</ns3:atemp>
          </ns3:TrackPointExtension>
        </extensions>
      </trkpt>
      <trkpt lat="42.5487078912556171417236328125" lon="20.14052979648113250732421875">
        <ele>2074.199951171875</ele>
        <time>2026-06-20T07:40:02.000Z</time>
        <extensions>
          <ns3:TrackPointExtension>
            <ns3:atemp>19.0</ns3:atemp>
          </ns3:TrackPointExtension>
        </extensions>
      </trkpt>
      <trkpt lat="42.5487052090466022491455078125" lon="20.1405517570674419403076171875">
        <ele>2074.39990234375</ele>
        <time>2026-06-20T07:40:03.000Z</time>
        <extensions>
          <ns3:TrackPointExtension>
            <ns3:atemp>19.0</ns3:atemp>
          </ns3:TrackPointExtension>
        </extensions>
      </trkpt>
      <trkpt lat="42.54870059899985790252685546875" lon="20.14057673513889312744140625">
        <ele>2074.800048828125</ele>
        <time>2026-06-20T07:40:04.000Z</time>
        <extensions>
          <ns3:TrackPointExtension>
            <ns3:atemp>19.0</ns3:atemp>
          </ns3:TrackPointExtension>
        </extensions>
      </trkpt>
      <trkpt lat="42.54869841970503330230712890625" lon="20.14059861190617084503173828125">
        <ele>2075</ele>
        <time>2026-06-20T07:40:05.000Z</time>
        <extensions>
          <ns3:TrackPointExtension>
            <ns3:atemp>19.0</ns3:atemp>
          </ns3:TrackPointExtension>
        </extensions>
      </trkpt>
      <trkpt lat="42.548697330057621002197265625" lon="20.1406178064644336700439453125">
        <ele>2075</ele>
        <time>2026-06-20T07:40:06.000Z</time>
        <extensions>
          <ns3:TrackPointExtension>
            <ns3:atemp>19.0</ns3:atemp>
          </ns3:TrackPointExtension>
        </extensions>
      </trkpt>
      <trkpt lat="42.5486951507627964019775390625" lon="20.140637420117855072021484375">
        <ele>2075.199951171875</ele>
        <time>2026-06-20T07:40:07.000Z</time>
        <extensions>
          <ns3:TrackPointExtension>
            <ns3:atemp>19.0</ns3:atemp>
          </ns3:TrackPointExtension>
        </extensions>
      </trkpt>
      <trkpt lat="42.548692636191844940185546875" lon="20.14065762050449848175048828125">
        <ele>2075.39990234375</ele>
        <time>2026-06-20T07:40:08.000Z</time>
        <extensions>
          <ns3:TrackPointExtension>
            <ns3:atemp>19.0</ns3:atemp>
          </ns3:TrackPointExtension>
        </extensions>
      </trkpt>
      <trkpt lat="42.5486857630312442779541015625" lon="20.14067823998630046844482421875">
        <ele>2075.60009765625</ele>
        <time>2026-06-20T07:40:09.000Z</time>
        <extensions>
          <ns3:TrackPointExtension>
            <ns3:atemp>19.0</ns3:atemp>
          </ns3:TrackPointExtension>
        </extensions>
      </trkpt>
      <trkpt lat="42.54868215881288051605224609375" lon="20.14069835655391216278076171875">
        <ele>2075.800048828125</ele>
        <time>2026-06-20T07:40:10.000Z</time>
        <extensions>
          <ns3:TrackPointExtension>
            <ns3:atemp>19.0</ns3:atemp>
          </ns3:TrackPointExtension>
        </extensions>
      </trkpt>
      <trkpt lat="42.54867997951805591583251953125" lon="20.1407214067876338958740234375">
        <ele>2076.199951171875</ele>
        <time>2026-06-20T07:40:11.000Z</time>
        <extensions>
          <ns3:TrackPointExtension>
            <ns3:atemp>19.0</ns3:atemp>
          </ns3:TrackPointExtension>
        </extensions>
      </trkpt>
      <trkpt lat="42.54867612384259700775146484375" lon="20.14074076898396015167236328125">
        <ele>2076.39990234375</ele>
        <time>2026-06-20T07:40:12.000Z</time>
        <extensions>
          <ns3:TrackPointExtension>
            <ns3:atemp>19.0</ns3:atemp>
          </ns3:TrackPointExtension>
        </extensions>
      </trkpt>
      <trkpt lat="42.54866790957748889923095703125" lon="20.14075401239097118377685546875">
        <ele>2076.800048828125</ele>
        <time>2026-06-20T07:40:13.000Z</time>
        <extensions>
          <ns3:TrackPointExtension>
            <ns3:atemp>19.0</ns3:atemp>
          </ns3:TrackPointExtension>
        </extensions>
      </trkpt>
      <trkpt lat="42.548654414713382720947265625" lon="20.14077178202569484710693359375">
        <ele>2077</ele>
        <time>2026-06-20T07:40:14.000Z</time>
        <extensions>
          <ns3:TrackPointExtension>
            <ns3:atemp>19.0</ns3:atemp>
          </ns3:TrackPointExtension>
        </extensions>
      </trkpt>
      <trkpt lat="42.54864008165895938873291015625" lon="20.1407857798039913177490234375">
        <ele>2077.199951171875</ele>
        <time>2026-06-20T07:40:15.000Z</time>
        <extensions>
          <ns3:TrackPointExtension>
            <ns3:atemp>19.0</ns3:atemp>
          </ns3:TrackPointExtension>
        </extensions>
      </trkpt>
      <trkpt lat="42.54862633533775806427001953125" lon="20.1407973468303680419921875">
        <ele>2077.199951171875</ele>
        <time>2026-06-20T07:40:16.000Z</time>
        <extensions>
          <ns3:TrackPointExtension>
            <ns3:atemp>19.0</ns3:atemp>
          </ns3:TrackPointExtension>
        </extensions>
      </trkpt>
      <trkpt lat="42.54860906861722469329833984375" lon="20.14081411063671112060546875">
        <ele>2077.199951171875</ele>
        <time>2026-06-20T07:40:17.000Z</time>
        <extensions>
          <ns3:TrackPointExtension>
            <ns3:atemp>19.0</ns3:atemp>
          </ns3:TrackPointExtension>
        </extensions>
      </trkpt>
      <trkpt lat="42.5485935620963573455810546875" lon="20.14083154499530792236328125">
        <ele>2077.199951171875</ele>
        <time>2026-06-20T07:40:18.000Z</time>
        <extensions>
          <ns3:TrackPointExtension>
            <ns3:atemp>19.0</ns3:atemp>
          </ns3:TrackPointExtension>
        </extensions>
      </trkpt>
      <trkpt lat="42.5485808216035366058349609375" lon="20.14084755443036556243896484375">
        <ele>2077.199951171875</ele>
        <time>2026-06-20T07:40:19.000Z</time>
        <extensions>
          <ns3:TrackPointExtension>
            <ns3:atemp>19.0</ns3:atemp>
          </ns3:TrackPointExtension>
        </extensions>
      </trkpt>
      <trkpt lat="42.5485674105584621429443359375" lon="20.14086632989346981048583984375">
        <ele>2077</ele>
        <time>2026-06-20T07:40:20.000Z</time>
        <extensions>
          <ns3:TrackPointExtension>
            <ns3:atemp>19.0</ns3:atemp>
          </ns3:TrackPointExtension>
        </extensions>
      </trkpt>
      <trkpt lat="42.5485499761998653411865234375" lon="20.14087890274822711944580078125">
        <ele>2077</ele>
        <time>2026-06-20T07:40:21.000Z</time>
        <extensions>
          <ns3:TrackPointExtension>
            <ns3:atemp>19.0</ns3:atemp>
          </ns3:TrackPointExtension>
        </extensions>
      </trkpt>
      <trkpt lat="42.54853581078350543975830078125" lon="20.140891559422016143798828125">
        <ele>2077</ele>
        <time>2026-06-20T07:40:22.000Z</time>
        <extensions>
          <ns3:TrackPointExtension>
            <ns3:atemp>19.0</ns3:atemp>
          </ns3:TrackPointExtension>
        </extensions>
      </trkpt>
      <trkpt lat="42.54852332174777984619140625" lon="20.140903629362583160400390625">
        <ele>2077</ele>
        <time>2026-06-20T07:40:23.000Z</time>
        <extensions>
          <ns3:TrackPointExtension>
            <ns3:atemp>19.0</ns3:atemp>
          </ns3:TrackPointExtension>
        </extensions>
      </trkpt>
      <trkpt lat="42.54851770587265491485595703125" lon="20.140909664332866668701171875">
        <ele>2077</ele>
        <time>2026-06-20T07:40:24.000Z</time>
        <extensions>
          <ns3:TrackPointExtension>
            <ns3:atemp>19.0</ns3:atemp>
          </ns3:TrackPointExtension>
        </extensions>
      </trkpt>
      <trkpt lat="42.54851586185395717620849609375" lon="20.1409101672470569610595703125">
        <ele>2077</ele>
        <time>2026-06-20T07:40:25.000Z</time>
        <extensions>
          <ns3:TrackPointExtension>
            <ns3:atemp>19.0</ns3:atemp>
          </ns3:TrackPointExtension>
        </extensions>
      </trkpt>
      <trkpt lat="42.54851586185395717620849609375" lon="20.1409101672470569610595703125">
        <ele>2077</ele>
        <time>2026-06-20T07:40:26.000Z</time>
        <extensions>
          <ns3:TrackPointExtension>
            <ns3:atemp>19.0</ns3:atemp>
          </ns3:TrackPointExtension>
        </extensions>
      </trkpt>
      <trkpt lat="42.54851586185395717620849609375" lon="20.1409101672470569610595703125">
        <ele>2077</ele>
        <time>2026-06-20T07:40:27.000Z</time>
        <extensions>
          <ns3:TrackPointExtension>
            <ns3:atemp>19.0</ns3:atemp>
          </ns3:TrackPointExtension>
        </extensions>
      </trkpt>
      <trkpt lat="42.54851586185395717620849609375" lon="20.1409101672470569610595703125">
        <ele>2077</ele>
        <time>2026-06-20T07:40:28.000Z</time>
        <extensions>
          <ns3:TrackPointExtension>
            <ns3:atemp>19.0</ns3:atemp>
          </ns3:TrackPointExtension>
        </extensions>
      </trkpt>
      <trkpt lat="42.54851586185395717620849609375" lon="20.1409101672470569610595703125">
        <ele>2077</ele>
        <time>2026-06-20T07:40:29.000Z</time>
        <extensions>
          <ns3:TrackPointExtension>
            <ns3:atemp>19.0</ns3:atemp>
          </ns3:TrackPointExtension>
        </extensions>
      </trkpt>
      <trkpt lat="42.54851586185395717620849609375" lon="20.1409101672470569610595703125">
        <ele>2077</ele>
        <time>2026-06-20T07:40:30.000Z</time>
        <extensions>
          <ns3:TrackPointExtension>
            <ns3:atemp>19.0</ns3:atemp>
          </ns3:TrackPointExtension>
        </extensions>
      </trkpt>
      <trkpt lat="42.54851586185395717620849609375" lon="20.1409101672470569610595703125">
        <ele>2077</ele>
        <time>2026-06-20T07:40:31.000Z</time>
        <extensions>
          <ns3:TrackPointExtension>
            <ns3:atemp>19.0</ns3:atemp>
          </ns3:TrackPointExtension>
        </extensions>
      </trkpt>
      <trkpt lat="42.54851586185395717620849609375" lon="20.1409101672470569610595703125">
        <ele>2076.800048828125</ele>
        <time>2026-06-20T07:40:32.000Z</time>
        <extensions>
          <ns3:TrackPointExtension>
            <ns3:atemp>19.0</ns3:atemp>
          </ns3:TrackPointExtension>
        </extensions>
      </trkpt>
      <trkpt lat="42.54851586185395717620849609375" lon="20.1409101672470569610595703125">
        <ele>2076.800048828125</ele>
        <time>2026-06-20T07:40:33.000Z</time>
        <extensions>
          <ns3:TrackPointExtension>
            <ns3:atemp>19.0</ns3:atemp>
          </ns3:TrackPointExtension>
        </extensions>
      </trkpt>
      <trkpt lat="42.54851586185395717620849609375" lon="20.1409101672470569610595703125">
        <ele>2076.60009765625</ele>
        <time>2026-06-20T07:40:34.000Z</time>
        <extensions>
          <ns3:TrackPointExtension>
            <ns3:atemp>19.0</ns3:atemp>
          </ns3:TrackPointExtension>
        </extensions>
      </trkpt>
      <trkpt lat="42.54851586185395717620849609375" lon="20.1409101672470569610595703125">
        <ele>2076.60009765625</ele>
        <time>2026-06-20T07:40:35.000Z</time>
        <extensions>
          <ns3:TrackPointExtension>
            <ns3:atemp>19.0</ns3:atemp>
          </ns3:TrackPointExtension>
        </extensions>
      </trkpt>
      <trkpt lat="42.54851586185395717620849609375" lon="20.1409101672470569610595703125">
        <ele>2076.60009765625</ele>
        <time>2026-06-20T07:40:36.000Z</time>
        <extensions>
          <ns3:TrackPointExtension>
            <ns3:atemp>19.0</ns3:atemp>
          </ns3:TrackPointExtension>
        </extensions>
      </trkpt>
      <trkpt lat="42.54851586185395717620849609375" lon="20.1409101672470569610595703125">
        <ele>2076.60009765625</ele>
        <time>2026-06-20T07:40:37.000Z</time>
        <extensions>
          <ns3:TrackPointExtension>
            <ns3:atemp>19.0</ns3:atemp>
          </ns3:TrackPointExtension>
        </extensions>
      </trkpt>
      <trkpt lat="42.54851586185395717620849609375" lon="20.1409101672470569610595703125">
        <ele>2076.60009765625</ele>
        <time>2026-06-20T07:40:38.000Z</time>
        <extensions>
          <ns3:TrackPointExtension>
            <ns3:atemp>19.0</ns3:atemp>
          </ns3:TrackPointExtension>
        </extensions>
      </trkpt>
      <trkpt lat="42.54851586185395717620849609375" lon="20.1409101672470569610595703125">
        <ele>2076.60009765625</ele>
        <time>2026-06-20T07:40:39.000Z</time>
        <extensions>
          <ns3:TrackPointExtension>
            <ns3:atemp>19.0</ns3:atemp>
          </ns3:TrackPointExtension>
        </extensions>
      </trkpt>
      <trkpt lat="42.54851586185395717620849609375" lon="20.1409101672470569610595703125">
        <ele>2076.800048828125</ele>
        <time>2026-06-20T07:40:40.000Z</time>
        <extensions>
          <ns3:TrackPointExtension>
            <ns3:atemp>19.0</ns3:atemp>
          </ns3:TrackPointExtension>
        </extensions>
      </trkpt>
      <trkpt lat="42.54851586185395717620849609375" lon="20.1409101672470569610595703125">
        <ele>2076.800048828125</ele>
        <time>2026-06-20T07:40:41.000Z</time>
        <extensions>
          <ns3:TrackPointExtension>
            <ns3:atemp>19.0</ns3:atemp>
          </ns3:TrackPointExtension>
        </extensions>
      </trkpt>
      <trkpt lat="42.54851485602557659149169921875" lon="20.14091075398027896881103515625">
        <ele>2077</ele>
        <time>2026-06-20T07:40:42.000Z</time>
        <extensions>
          <ns3:TrackPointExtension>
            <ns3:atemp>19.0</ns3:atemp>
          </ns3:TrackPointExtension>
        </extensions>
      </trkpt>
      <trkpt lat="42.54850915633141994476318359375" lon="20.1409078203141689300537109375">
        <ele>2077</ele>
        <time>2026-06-20T07:40:43.000Z</time>
        <extensions>
          <ns3:TrackPointExtension>
            <ns3:atemp>19.0</ns3:atemp>
          </ns3:TrackPointExtension>
        </extensions>
      </trkpt>
      <trkpt lat="42.54849993623793125152587890625" lon="20.14090455137193202972412109375">
        <ele>2077</ele>
        <time>2026-06-20T07:40:44.000Z</time>
        <extensions>
          <ns3:TrackPointExtension>
            <ns3:atemp>19.0</ns3:atemp>
          </ns3:TrackPointExtension>
        </extensions>
      </trkpt>
      <trkpt lat="42.54849473945796489715576171875" lon="20.14090036042034626007080078125">
        <ele>2077</ele>
        <time>2026-06-20T07:40:45.000Z</time>
        <extensions>
          <ns3:TrackPointExtension>
            <ns3:atemp>19.0</ns3:atemp>
          </ns3:TrackPointExtension>
        </extensions>
      </trkpt>
      <trkpt lat="42.54848652519285678863525390625" lon="20.14088862575590610504150390625">
        <ele>2076.800048828125</ele>
        <time>2026-06-20T07:40:46.000Z</time>
        <extensions>
          <ns3:TrackPointExtension>
            <ns3:atemp>19.0</ns3:atemp>
          </ns3:TrackPointExtension>
        </extensions>
      </trkpt>
      <trkpt lat="42.54847730509936809539794921875" lon="20.140878148376941680908203125">
        <ele>2076.800048828125</ele>
        <time>2026-06-20T07:40:47.000Z</time>
        <extensions>
          <ns3:TrackPointExtension>
            <ns3:atemp>19.0</ns3:atemp>
          </ns3:TrackPointExtension>
        </extensions>
      </trkpt>
      <trkpt lat="42.548469342291355133056640625" lon="20.140872783958911895751953125">
        <ele>2076.60009765625</ele>
        <time>2026-06-20T07:40:48.000Z</time>
        <extensions>
          <ns3:TrackPointExtension>
            <ns3:atemp>19.0</ns3:atemp>
          </ns3:TrackPointExtension>
        </extensions>
      </trkpt>
      <trkpt lat="42.54845869727432727813720703125" lon="20.14086750335991382598876953125">
        <ele>2076.39990234375</ele>
        <time>2026-06-20T07:40:49.000Z</time>
        <extensions>
          <ns3:TrackPointExtension>
            <ns3:atemp>19.0</ns3:atemp>
          </ns3:TrackPointExtension>
        </extensions>
      </trkpt>
      <trkpt lat="42.54845836199820041656494140625" lon="20.14087177813053131103515625">
        <ele>2076.39990234375</ele>
        <time>2026-06-20T07:40:50.000Z</time>
        <extensions>
          <ns3:TrackPointExtension>
            <ns3:atemp>19.0</ns3:atemp>
          </ns3:TrackPointExtension>
        </extensions>
      </trkpt>
      <trkpt lat="42.54845618270337581634521484375" lon="20.14087253250181674957275390625">
        <ele>2076.39990234375</ele>
        <time>2026-06-20T07:40:51.000Z</time>
        <extensions>
          <ns3:TrackPointExtension>
            <ns3:atemp>19.0</ns3:atemp>
          </ns3:TrackPointExtension>
        </extensions>
      </trkpt>
      <trkpt lat="42.54845618270337581634521484375" lon="20.1408724486827850341796875">
        <ele>2076.60009765625</ele>
        <time>2026-06-20T07:40:52.000Z</time>
        <extensions>
          <ns3:TrackPointExtension>
            <ns3:atemp>19.0</ns3:atemp>
          </ns3:TrackPointExtension>
        </extensions>
      </trkpt>
      <trkpt lat="42.54844964481890201568603515625" lon="20.14086381532251834869384765625">
        <ele>2076.60009765625</ele>
        <time>2026-06-20T07:40:53.000Z</time>
        <extensions>
          <ns3:TrackPointExtension>
            <ns3:atemp>19.0</ns3:atemp>
          </ns3:TrackPointExtension>
        </extensions>
      </trkpt>
      <trkpt lat="42.548439837992191314697265625" lon="20.14085744507610797882080078125">
        <ele>2076.800048828125</ele>
        <time>2026-06-20T07:40:54.000Z</time>
        <extensions>
          <ns3:TrackPointExtension>
            <ns3:atemp>19.0</ns3:atemp>
          </ns3:TrackPointExtension>
        </extensions>
      </trkpt>
      <trkpt lat="42.54843304865062236785888671875" lon="20.14084889553487300872802734375">
        <ele>2076.800048828125</ele>
        <time>2026-06-20T07:40:55.000Z</time>
        <extensions>
          <ns3:TrackPointExtension>
            <ns3:atemp>19.0</ns3:atemp>
          </ns3:TrackPointExtension>
        </extensions>
      </trkpt>
      <trkpt lat="42.548419721424579620361328125" lon="20.14084160327911376953125">
        <ele>2076.800048828125</ele>
        <time>2026-06-20T07:40:56.000Z</time>
        <extensions>
          <ns3:TrackPointExtension>
            <ns3:atemp>19.0</ns3:atemp>
          </ns3:TrackPointExtension>
        </extensions>
      </trkpt>
      <trkpt lat="42.548404633998870849609375" lon="20.14083012007176876068115234375">
        <ele>2076.800048828125</ele>
        <time>2026-06-20T07:40:57.000Z</time>
        <extensions>
          <ns3:TrackPointExtension>
            <ns3:atemp>19.0</ns3:atemp>
          </ns3:TrackPointExtension>
        </extensions>
      </trkpt>
      <trkpt lat="42.54839055240154266357421875" lon="20.14081637375056743621826171875">
        <ele>2076.800048828125</ele>
        <time>2026-06-20T07:40:58.000Z</time>
        <extensions>
          <ns3:TrackPointExtension>
            <ns3:atemp>19.0</ns3:atemp>
          </ns3:TrackPointExtension>
        </extensions>
      </trkpt>
      <trkpt lat="42.54838711582124233245849609375" lon="20.14080363325774669647216796875">
        <ele>2076.800048828125</ele>
        <time>2026-06-20T07:40:59.000Z</time>
        <extensions>
          <ns3:TrackPointExtension>
            <ns3:atemp>19.0</ns3:atemp>
          </ns3:TrackPointExtension>
        </extensions>
      </trkpt>
      <trkpt lat="42.5483746267855167388916015625" lon="20.140798352658748626708984375">
        <ele>2077</ele>
        <time>2026-06-20T07:41:00.000Z</time>
        <extensions>
          <ns3:TrackPointExtension>
            <ns3:atemp>19.0</ns3:atemp>
          </ns3:TrackPointExtension>
        </extensions>
      </trkpt>
      <trkpt lat="42.54835677333176136016845703125" lon="20.140791647136211395263671875">
        <ele>2077.199951171875</ele>
        <time>2026-06-20T07:41:01.000Z</time>
        <extensions>
          <ns3:TrackPointExtension>
            <ns3:atemp>19.0</ns3:atemp>
          </ns3:TrackPointExtension>
        </extensions>
      </trkpt>
      <trkpt lat="42.54833732731640338897705078125" lon="20.14078971929848194122314453125">
        <ele>2077.199951171875</ele>
        <time>2026-06-20T07:41:02.000Z</time>
        <extensions>
          <ns3:TrackPointExtension>
            <ns3:atemp>19.0</ns3:atemp>
          </ns3:TrackPointExtension>
        </extensions>
      </trkpt>
      <trkpt lat="42.5483203120529651641845703125" lon="20.14079642482101917266845703125">
        <ele>2077.39990234375</ele>
        <time>2026-06-20T07:41:03.000Z</time>
        <extensions>
          <ns3:TrackPointExtension>
            <ns3:atemp>19.0</ns3:atemp>
          </ns3:TrackPointExtension>
        </extensions>
      </trkpt>
      <trkpt lat="42.5483072362840175628662109375" lon="20.14080547727644443511962890625">
        <ele>2077.60009765625</ele>
        <time>2026-06-20T07:41:04.000Z</time>
        <extensions>
          <ns3:TrackPointExtension>
            <ns3:atemp>19.0</ns3:atemp>
          </ns3:TrackPointExtension>
        </extensions>
      </trkpt>
      <trkpt lat="42.548297345638275146484375" lon="20.14081721194088459014892578125">
        <ele>2077.60009765625</ele>
        <time>2026-06-20T07:41:05.000Z</time>
        <extensions>
          <ns3:TrackPointExtension>
            <ns3:atemp>19.0</ns3:atemp>
          </ns3:TrackPointExtension>
        </extensions>
      </trkpt>
      <trkpt lat="42.54828603006899356842041015625" lon="20.1408350653946399688720703125">
        <ele>2077.800048828125</ele>
        <time>2026-06-20T07:41:06.000Z</time>
        <extensions>
          <ns3:TrackPointExtension>
            <ns3:atemp>19.0</ns3:atemp>
          </ns3:TrackPointExtension>
        </extensions>
      </trkpt>
      <trkpt lat="42.5482763908803462982177734375" lon="20.1408590376377105712890625">
        <ele>2077.800048828125</ele>
        <time>2026-06-20T07:41:07.000Z</time>
        <extensions>
          <ns3:TrackPointExtension>
            <ns3:atemp>19.0</ns3:atemp>
          </ns3:TrackPointExtension>
        </extensions>
      </trkpt>
      <trkpt lat="42.5482643209397792816162109375" lon="20.1408885419368743896484375">
        <ele>2077.800048828125</ele>
        <time>2026-06-20T07:41:08.000Z</time>
        <extensions>
          <ns3:TrackPointExtension>
            <ns3:atemp>19.0</ns3:atemp>
          </ns3:TrackPointExtension>
        </extensions>
      </trkpt>
      <trkpt lat="42.54825283773243427276611328125" lon="20.140913687646389007568359375">
        <ele>2077.800048828125</ele>
        <time>2026-06-20T07:41:09.000Z</time>
        <extensions>
          <ns3:TrackPointExtension>
            <ns3:atemp>19.0</ns3:atemp>
          </ns3:TrackPointExtension>
        </extensions>
      </trkpt>
      <trkpt lat="42.54824646748602390289306640625" lon="20.1409368216991424560546875">
        <ele>2078</ele>
        <time>2026-06-20T07:41:10.000Z</time>
        <extensions>
          <ns3:TrackPointExtension>
            <ns3:atemp>19.0</ns3:atemp>
          </ns3:TrackPointExtension>
        </extensions>
      </trkpt>
      <trkpt lat="42.54823875613510608673095703125" lon="20.1409554295241832733154296875">
        <ele>2078.199951171875</ele>
        <time>2026-06-20T07:41:11.000Z</time>
        <extensions>
          <ns3:TrackPointExtension>
            <ns3:atemp>19.0</ns3:atemp>
          </ns3:TrackPointExtension>
        </extensions>
      </trkpt>
      <trkpt lat="42.54822517745196819305419921875" lon="20.14097495935857295989990234375">
        <ele>2078.39990234375</ele>
        <time>2026-06-20T07:41:12.000Z</time>
        <extensions>
          <ns3:TrackPointExtension>
            <ns3:atemp>19.0</ns3:atemp>
          </ns3:TrackPointExtension>
        </extensions>
      </trkpt>
      <trkpt lat="42.548214532434940338134765625" lon="20.14099809341132640838623046875">
        <ele>2078.39990234375</ele>
        <time>2026-06-20T07:41:13.000Z</time>
        <extensions>
          <ns3:TrackPointExtension>
            <ns3:atemp>19.0</ns3:atemp>
          </ns3:TrackPointExtension>
        </extensions>
      </trkpt>
      <trkpt lat="42.5482066534459590911865234375" lon="20.14102659188210964202880859375">
        <ele>2078.60009765625</ele>
        <time>2026-06-20T07:41:14.000Z</time>
        <extensions>
          <ns3:TrackPointExtension>
            <ns3:atemp>19.0</ns3:atemp>
          </ns3:TrackPointExtension>
        </extensions>
      </trkpt>
      <trkpt lat="42.5481989420950412750244140625" lon="20.1410499773919582366943359375">
        <ele>2078.60009765625</ele>
        <time>2026-06-20T07:41:15.000Z</time>
        <extensions>
          <ns3:TrackPointExtension>
            <ns3:atemp>19.0</ns3:atemp>
          </ns3:TrackPointExtension>
        </extensions>
      </trkpt>
      <trkpt lat="42.54818695597350597381591796875" lon="20.14106766320765018463134765625">
        <ele>2078.60009765625</ele>
        <time>2026-06-20T07:41:16.000Z</time>
        <extensions>
          <ns3:TrackPointExtension>
            <ns3:atemp>19.0</ns3:atemp>
          </ns3:TrackPointExtension>
        </extensions>
      </trkpt>
      <trkpt lat="42.548172287642955780029296875" lon="20.1410871930420398712158203125">
        <ele>2078.60009765625</ele>
        <time>2026-06-20T07:41:17.000Z</time>
        <extensions>
          <ns3:TrackPointExtension>
            <ns3:atemp>19.0</ns3:atemp>
          </ns3:TrackPointExtension>
        </extensions>
      </trkpt>
      <trkpt lat="42.54815544001758098602294921875" lon="20.1410969160497188568115234375">
        <ele>2078.800048828125</ele>
        <time>2026-06-20T07:41:18.000Z</time>
        <extensions>
          <ns3:TrackPointExtension>
            <ns3:atemp>19.0</ns3:atemp>
          </ns3:TrackPointExtension>
        </extensions>
      </trkpt>
      <trkpt lat="42.54813884384930133819580078125" lon="20.14109465293586254119873046875">
        <ele>2079</ele>
        <time>2026-06-20T07:41:19.000Z</time>
        <extensions>
          <ns3:TrackPointExtension>
            <ns3:atemp>19.0</ns3:atemp>
          </ns3:TrackPointExtension>
        </extensions>
      </trkpt>
      <trkpt lat="42.548123337328433990478515625" lon="20.14110152609646320343017578125">
        <ele>2079.199951171875</ele>
        <time>2026-06-20T07:41:20.000Z</time>
        <extensions>
          <ns3:TrackPointExtension>
            <ns3:atemp>19.0</ns3:atemp>
          </ns3:TrackPointExtension>
        </extensions>
      </trkpt>
      <trkpt lat="42.54810682497918605804443359375" lon="20.1411093212664127349853515625">
        <ele>2079.199951171875</ele>
        <time>2026-06-20T07:41:21.000Z</time>
        <extensions>
          <ns3:TrackPointExtension>
            <ns3:atemp>19.0</ns3:atemp>
          </ns3:TrackPointExtension>
        </extensions>
      </trkpt>
      <trkpt lat="42.54809081554412841796875" lon="20.141126252710819244384765625">
        <ele>2079.199951171875</ele>
        <time>2026-06-20T07:41:22.000Z</time>
        <extensions>
          <ns3:TrackPointExtension>
            <ns3:atemp>19.0</ns3:atemp>
          </ns3:TrackPointExtension>
        </extensions>
      </trkpt>
      <trkpt lat="42.54808352328836917877197265625" lon="20.141140334308147430419921875">
        <ele>2079.199951171875</ele>
        <time>2026-06-20T07:41:23.000Z</time>
        <extensions>
          <ns3:TrackPointExtension>
            <ns3:atemp>19.0</ns3:atemp>
          </ns3:TrackPointExtension>
        </extensions>
      </trkpt>
      <trkpt lat="42.5480639934539794921875" lon="20.14115734957158565521240234375">
        <ele>2079.199951171875</ele>
        <time>2026-06-20T07:41:24.000Z</time>
        <extensions>
          <ns3:TrackPointExtension>
            <ns3:atemp>19.0</ns3:atemp>
          </ns3:TrackPointExtension>
        </extensions>
      </trkpt>
      <trkpt lat="42.54804588854312896728515625" lon="20.14116816222667694091796875">
        <ele>2079</ele>
        <time>2026-06-20T07:41:25.000Z</time>
        <extensions>
          <ns3:TrackPointExtension>
            <ns3:atemp>19.0</ns3:atemp>
          </ns3:TrackPointExtension>
        </extensions>
      </trkpt>
      <trkpt lat="42.54802132956683635711669921875" lon="20.141179226338863372802734375">
        <ele>2078.60009765625</ele>
        <time>2026-06-20T07:41:26.000Z</time>
        <extensions>
          <ns3:TrackPointExtension>
            <ns3:atemp>19.0</ns3:atemp>
          </ns3:TrackPointExtension>
        </extensions>
      </trkpt>
      <trkpt lat="42.548001296818256378173828125" lon="20.14118970371782779693603515625">
        <ele>2078.39990234375</ele>
        <time>2026-06-20T07:41:27.000Z</time>
        <extensions>
          <ns3:TrackPointExtension>
            <ns3:atemp>19.0</ns3:atemp>
          </ns3:TrackPointExtension>
        </extensions>
      </trkpt>
      <trkpt lat="42.54798277281224727630615234375" lon="20.14120847918093204498291015625">
        <ele>2078.199951171875</ele>
        <time>2026-06-20T07:41:28.000Z</time>
        <extensions>
          <ns3:TrackPointExtension>
            <ns3:atemp>19.0</ns3:atemp>
          </ns3:TrackPointExtension>
        </extensions>
      </trkpt>
      <trkpt lat="42.5479686073958873748779296875" lon="20.14122641645371913909912109375">
        <ele>2078</ele>
        <time>2026-06-20T07:41:29.000Z</time>
        <extensions>
          <ns3:TrackPointExtension>
            <ns3:atemp>19.0</ns3:atemp>
          </ns3:TrackPointExtension>
        </extensions>
      </trkpt>
      <trkpt lat="42.54795863293111324310302734375" lon="20.14124787412583827972412109375">
        <ele>2078</ele>
        <time>2026-06-20T07:41:30.000Z</time>
        <extensions>
          <ns3:TrackPointExtension>
            <ns3:atemp>19.0</ns3:atemp>
          </ns3:TrackPointExtension>
        </extensions>
      </trkpt>
      <trkpt lat="42.54795108921825885772705078125" lon="20.14127452857792377471923828125">
        <ele>2078</ele>
        <time>2026-06-20T07:41:31.000Z</time>
        <extensions>
          <ns3:TrackPointExtension>
            <ns3:atemp>19.0</ns3:atemp>
          </ns3:TrackPointExtension>
        </extensions>
      </trkpt>
      <trkpt lat="42.5479464791715145111083984375" lon="20.14130252413451671600341796875">
        <ele>2078.199951171875</ele>
        <time>2026-06-20T07:41:32.000Z</time>
        <extensions>
          <ns3:TrackPointExtension>
            <ns3:atemp>19.0</ns3:atemp>
          </ns3:TrackPointExtension>
        </extensions>
      </trkpt>
      <trkpt lat="42.54793935455381870269775390625" lon="20.14132632873952388763427734375">
        <ele>2078.199951171875</ele>
        <time>2026-06-20T07:41:33.000Z</time>
        <extensions>
          <ns3:TrackPointExtension>
            <ns3:atemp>19.0</ns3:atemp>
          </ns3:TrackPointExtension>
        </extensions>
      </trkpt>
      <trkpt lat="42.5479256920516490936279296875" lon="20.14135046862065792083740234375">
        <ele>2078.199951171875</ele>
        <time>2026-06-20T07:41:34.000Z</time>
        <extensions>
          <ns3:TrackPointExtension>
            <ns3:atemp>19.0</ns3:atemp>
          </ns3:TrackPointExtension>
        </extensions>
      </trkpt>
      <trkpt lat="42.54790884442627429962158203125" lon="20.14137762598693370819091796875">
        <ele>2078.199951171875</ele>
        <time>2026-06-20T07:41:35.000Z</time>
        <extensions>
          <ns3:TrackPointExtension>
            <ns3:atemp>19.0</ns3:atemp>
          </ns3:TrackPointExtension>
        </extensions>
      </trkpt>
      <trkpt lat="42.54788604564964771270751953125" lon="20.14139807783067226409912109375">
        <ele>2078</ele>
        <time>2026-06-20T07:41:36.000Z</time>
        <extensions>
          <ns3:TrackPointExtension>
            <ns3:atemp>19.0</ns3:atemp>
          </ns3:TrackPointExtension>
        </extensions>
      </trkpt>
      <trkpt lat="42.547873891890048980712890625" lon="20.1414120756089687347412109375">
        <ele>2077.800048828125</ele>
        <time>2026-06-20T07:41:37.000Z</time>
        <extensions>
          <ns3:TrackPointExtension>
            <ns3:atemp>19.0</ns3:atemp>
          </ns3:TrackPointExtension>
        </extensions>
      </trkpt>
      <trkpt lat="42.54786659963428974151611328125" lon="20.1414177753031253814697265625">
        <ele>2077.60009765625</ele>
        <time>2026-06-20T07:41:38.000Z</time>
        <extensions>
          <ns3:TrackPointExtension>
            <ns3:atemp>19.0</ns3:atemp>
          </ns3:TrackPointExtension>
        </extensions>
      </trkpt>
      <trkpt lat="42.54786659963428974151611328125" lon="20.1414177753031253814697265625">
        <ele>2077.39990234375</ele>
        <time>2026-06-20T07:41:39.000Z</time>
        <extensions>
          <ns3:TrackPointExtension>
            <ns3:atemp>19.0</ns3:atemp>
          </ns3:TrackPointExtension>
        </extensions>
      </trkpt>
      <trkpt lat="42.54786659963428974151611328125" lon="20.1414177753031253814697265625">
        <ele>2077.39990234375</ele>
        <time>2026-06-20T07:41:40.000Z</time>
        <extensions>
          <ns3:TrackPointExtension>
            <ns3:atemp>19.0</ns3:atemp>
          </ns3:TrackPointExtension>
        </extensions>
      </trkpt>
      <trkpt lat="42.54786659963428974151611328125" lon="20.1414177753031253814697265625">
        <ele>2077.39990234375</ele>
        <time>2026-06-20T07:41:41.000Z</time>
        <extensions>
          <ns3:TrackPointExtension>
            <ns3:atemp>19.0</ns3:atemp>
          </ns3:TrackPointExtension>
        </extensions>
      </trkpt>
      <trkpt lat="42.54786659963428974151611328125" lon="20.1414177753031253814697265625">
        <ele>2077.39990234375</ele>
        <time>2026-06-20T07:41:42.000Z</time>
        <extensions>
          <ns3:TrackPointExtension>
            <ns3:atemp>19.0</ns3:atemp>
          </ns3:TrackPointExtension>
        </extensions>
      </trkpt>
      <trkpt lat="42.54786659963428974151611328125" lon="20.1414177753031253814697265625">
        <ele>2077.39990234375</ele>
        <time>2026-06-20T07:41:43.000Z</time>
        <extensions>
          <ns3:TrackPointExtension>
            <ns3:atemp>19.0</ns3:atemp>
          </ns3:TrackPointExtension>
        </extensions>
      </trkpt>
      <trkpt lat="42.54786659963428974151611328125" lon="20.1414177753031253814697265625">
        <ele>2077.39990234375</ele>
        <time>2026-06-20T07:41:44.000Z</time>
        <extensions>
          <ns3:TrackPointExtension>
            <ns3:atemp>19.0</ns3:atemp>
          </ns3:TrackPointExtension>
        </extensions>
      </trkpt>
      <trkpt lat="42.54786659963428974151611328125" lon="20.1414177753031253814697265625">
        <ele>2077.39990234375</ele>
        <time>2026-06-20T07:41:45.000Z</time>
        <extensions>
          <ns3:TrackPointExtension>
            <ns3:atemp>19.0</ns3:atemp>
          </ns3:TrackPointExtension>
        </extensions>
      </trkpt>
      <trkpt lat="42.54786827601492404937744140625" lon="20.1414160989224910736083984375">
        <ele>2077.39990234375</ele>
        <time>2026-06-20T07:41:46.000Z</time>
        <extensions>
          <ns3:TrackPointExtension>
            <ns3:atemp>19.0</ns3:atemp>
          </ns3:TrackPointExtension>
        </extensions>
      </trkpt>
      <trkpt lat="42.547871209681034088134765625" lon="20.14141970314085483551025390625">
        <ele>2077.39990234375</ele>
        <time>2026-06-20T07:41:47.000Z</time>
        <extensions>
          <ns3:TrackPointExtension>
            <ns3:atemp>19.0</ns3:atemp>
          </ns3:TrackPointExtension>
        </extensions>
      </trkpt>
      <trkpt lat="42.547865845263004302978515625" lon="20.141442082822322845458984375">
        <ele>2077.800048828125</ele>
        <time>2026-06-20T07:41:48.000Z</time>
        <extensions>
          <ns3:TrackPointExtension>
            <ns3:atemp>19.0</ns3:atemp>
          </ns3:TrackPointExtension>
        </extensions>
      </trkpt>
      <trkpt lat="42.54785385914146900177001953125" lon="20.14146178029477596282958984375">
        <ele>2077.60009765625</ele>
        <time>2026-06-20T07:41:49.000Z</time>
        <extensions>
          <ns3:TrackPointExtension>
            <ns3:atemp>19.0</ns3:atemp>
          </ns3:TrackPointExtension>
        </extensions>
      </trkpt>
      <trkpt lat="42.5478400290012359619140625" lon="20.1414866745471954345703125">
        <ele>2077.39990234375</ele>
        <time>2026-06-20T07:41:50.000Z</time>
        <extensions>
          <ns3:TrackPointExtension>
            <ns3:atemp>19.0</ns3:atemp>
          </ns3:TrackPointExtension>
        </extensions>
      </trkpt>
      <trkpt lat="42.5478217564523220062255859375" lon="20.141504108905792236328125">
        <ele>2077.39990234375</ele>
        <time>2026-06-20T07:41:51.000Z</time>
        <extensions>
          <ns3:TrackPointExtension>
            <ns3:atemp>19.0</ns3:atemp>
          </ns3:TrackPointExtension>
        </extensions>
      </trkpt>
      <trkpt lat="42.5478013046085834503173828125" lon="20.1415274105966091156005859375">
        <ele>2077.199951171875</ele>
        <time>2026-06-20T07:41:52.000Z</time>
        <extensions>
          <ns3:TrackPointExtension>
            <ns3:atemp>19.0</ns3:atemp>
          </ns3:TrackPointExtension>
        </extensions>
      </trkpt>
      <trkpt lat="42.5477791763842105865478515625" lon="20.14155498705804347991943359375">
        <ele>2077.199951171875</ele>
        <time>2026-06-20T07:41:53.000Z</time>
        <extensions>
          <ns3:TrackPointExtension>
            <ns3:atemp>19.0</ns3:atemp>
          </ns3:TrackPointExtension>
        </extensions>
      </trkpt>
      <trkpt lat="42.54775612615048885345458984375" lon="20.14158348552882671356201171875">
        <ele>2077</ele>
        <time>2026-06-20T07:41:54.000Z</time>
        <extensions>
          <ns3:TrackPointExtension>
            <ns3:atemp>19.0</ns3:atemp>
          </ns3:TrackPointExtension>
        </extensions>
      </trkpt>
      <trkpt lat="42.54772863350808620452880859375" lon="20.141611732542514801025390625">
        <ele>2076.800048828125</ele>
        <time>2026-06-20T07:41:55.000Z</time>
        <extensions>
          <ns3:TrackPointExtension>
            <ns3:atemp>19.0</ns3:atemp>
          </ns3:TrackPointExtension>
        </extensions>
      </trkpt>
      <trkpt lat="42.5476997159421443939208984375" lon="20.14163888990879058837890625">
        <ele>2076.60009765625</ele>
        <time>2026-06-20T07:41:56.000Z</time>
        <extensions>
          <ns3:TrackPointExtension>
            <ns3:atemp>19.0</ns3:atemp>
          </ns3:TrackPointExtension>
        </extensions>
      </trkpt>
      <trkpt lat="42.54766912199556827545166015625" lon="20.14166462235152721405029296875">
        <ele>2076.39990234375</ele>
        <time>2026-06-20T07:41:57.000Z</time>
        <extensions>
          <ns3:TrackPointExtension>
            <ns3:atemp>19.0</ns3:atemp>
          </ns3:TrackPointExtension>
        </extensions>
      </trkpt>
      <trkpt lat="42.5476413778960704803466796875" lon="20.14169328846037387847900390625">
        <ele>2076</ele>
        <time>2026-06-20T07:41:58.000Z</time>
        <extensions>
          <ns3:TrackPointExtension>
            <ns3:atemp>19.0</ns3:atemp>
          </ns3:TrackPointExtension>
        </extensions>
      </trkpt>
      <trkpt lat="42.54760860465466976165771484375" lon="20.1417131535708904266357421875">
        <ele>2075.800048828125</ele>
        <time>2026-06-20T07:41:59.000Z</time>
        <extensions>
          <ns3:TrackPointExtension>
            <ns3:atemp>19.0</ns3:atemp>
          </ns3:TrackPointExtension>
        </extensions>
      </trkpt>
      <trkpt lat="42.547573149204254150390625" lon="20.14172740280628204345703125">
        <ele>2075.60009765625</ele>
        <time>2026-06-20T07:42:00.000Z</time>
        <extensions>
          <ns3:TrackPointExtension>
            <ns3:atemp>19.0</ns3:atemp>
          </ns3:TrackPointExtension>
        </extensions>
      </trkpt>
      <trkpt lat="42.54754104651510715484619140625" lon="20.141742490231990814208984375">
        <ele>2075.39990234375</ele>
        <time>2026-06-20T07:42:01.000Z</time>
        <extensions>
          <ns3:TrackPointExtension>
            <ns3:atemp>19.0</ns3:atemp>
          </ns3:TrackPointExtension>
        </extensions>
      </trkpt>
      <trkpt lat="42.54751103930175304412841796875" lon="20.14176151715219020843505859375">
        <ele>2075.39990234375</ele>
        <time>2026-06-20T07:42:02.000Z</time>
        <extensions>
          <ns3:TrackPointExtension>
            <ns3:atemp>19.0</ns3:atemp>
          </ns3:TrackPointExtension>
        </extensions>
      </trkpt>
      <trkpt lat="42.54748740233480930328369140625" lon="20.1417852379381656646728515625">
        <ele>2075.199951171875</ele>
        <time>2026-06-20T07:42:03.000Z</time>
        <extensions>
          <ns3:TrackPointExtension>
            <ns3:atemp>19.0</ns3:atemp>
          </ns3:TrackPointExtension>
        </extensions>
      </trkpt>
      <trkpt lat="42.54747449420392513275146484375" lon="20.1418110541999340057373046875">
        <ele>2075.199951171875</ele>
        <time>2026-06-20T07:42:04.000Z</time>
        <extensions>
          <ns3:TrackPointExtension>
            <ns3:atemp>19.0</ns3:atemp>
          </ns3:TrackPointExtension>
        </extensions>
      </trkpt>
      <trkpt lat="42.54746158607304096221923828125" lon="20.1418345235288143157958984375">
        <ele>2075</ele>
        <time>2026-06-20T07:42:05.000Z</time>
        <extensions>
          <ns3:TrackPointExtension>
            <ns3:atemp>19.0</ns3:atemp>
          </ns3:TrackPointExtension>
        </extensions>
      </trkpt>
      <trkpt lat="42.54745102487504482269287109375" lon="20.1418536342680454254150390625">
        <ele>2075</ele>
        <time>2026-06-20T07:42:06.000Z</time>
        <extensions>
          <ns3:TrackPointExtension>
            <ns3:atemp>19.0</ns3:atemp>
          </ns3:TrackPointExtension>
        </extensions>
      </trkpt>
      <trkpt lat="42.54744666628539562225341796875" lon="20.14186327345669269561767578125">
        <ele>2074.800048828125</ele>
        <time>2026-06-20T07:42:07.000Z</time>
        <extensions>
          <ns3:TrackPointExtension>
            <ns3:atemp>19.0</ns3:atemp>
          </ns3:TrackPointExtension>
        </extensions>
      </trkpt>
      <trkpt lat="42.54744146950542926788330078125" lon="20.1418643631041049957275390625">
        <ele>2075</ele>
        <time>2026-06-20T07:42:08.000Z</time>
        <extensions>
          <ns3:TrackPointExtension>
            <ns3:atemp>19.0</ns3:atemp>
          </ns3:TrackPointExtension>
        </extensions>
      </trkpt>
      <trkpt lat="42.5474418886005878448486328125" lon="20.14186478219926357269287109375">
        <ele>2075</ele>
        <time>2026-06-20T07:42:09.000Z</time>
        <extensions>
          <ns3:TrackPointExtension>
            <ns3:atemp>19.0</ns3:atemp>
          </ns3:TrackPointExtension>
        </extensions>
      </trkpt>
      <trkpt lat="42.54744163714349269866943359375" lon="20.14186494983732700347900390625">
        <ele>2075</ele>
        <time>2026-06-20T07:42:10.000Z</time>
        <extensions>
          <ns3:TrackPointExtension>
            <ns3:atemp>19.0</ns3:atemp>
          </ns3:TrackPointExtension>
        </extensions>
      </trkpt>
      <trkpt lat="42.5474418886005878448486328125" lon="20.14186478219926357269287109375">
        <ele>2075</ele>
        <time>2026-06-20T07:42:11.000Z</time>
        <extensions>
          <ns3:TrackPointExtension>
            <ns3:atemp>19.0</ns3:atemp>
          </ns3:TrackPointExtension>
        </extensions>
      </trkpt>
      <trkpt lat="42.5474418886005878448486328125" lon="20.14186478219926357269287109375">
        <ele>2075</ele>
        <time>2026-06-20T07:42:12.000Z</time>
        <extensions>
          <ns3:TrackPointExtension>
            <ns3:atemp>19.0</ns3:atemp>
          </ns3:TrackPointExtension>
        </extensions>
      </trkpt>
      <trkpt lat="42.5474418886005878448486328125" lon="20.14186478219926357269287109375">
        <ele>2074.800048828125</ele>
        <time>2026-06-20T07:42:13.000Z</time>
        <extensions>
          <ns3:TrackPointExtension>
            <ns3:atemp>19.0</ns3:atemp>
          </ns3:TrackPointExtension>
        </extensions>
      </trkpt>
      <trkpt lat="42.5474418886005878448486328125" lon="20.14186478219926357269287109375">
        <ele>2074.800048828125</ele>
        <time>2026-06-20T07:42:14.000Z</time>
        <extensions>
          <ns3:TrackPointExtension>
            <ns3:atemp>19.0</ns3:atemp>
          </ns3:TrackPointExtension>
        </extensions>
      </trkpt>
      <trkpt lat="42.5474418886005878448486328125" lon="20.14186478219926357269287109375">
        <ele>2074.800048828125</ele>
        <time>2026-06-20T07:42:15.000Z</time>
        <extensions>
          <ns3:TrackPointExtension>
            <ns3:atemp>19.0</ns3:atemp>
          </ns3:TrackPointExtension>
        </extensions>
      </trkpt>
      <trkpt lat="42.5474418886005878448486328125" lon="20.14186478219926357269287109375">
        <ele>2074.800048828125</ele>
        <time>2026-06-20T07:42:16.000Z</time>
        <extensions>
          <ns3:TrackPointExtension>
            <ns3:atemp>19.0</ns3:atemp>
          </ns3:TrackPointExtension>
        </extensions>
      </trkpt>
      <trkpt lat="42.5474418886005878448486328125" lon="20.14186478219926357269287109375">
        <ele>2075</ele>
        <time>2026-06-20T07:42:17.000Z</time>
        <extensions>
          <ns3:TrackPointExtension>
            <ns3:atemp>19.0</ns3:atemp>
          </ns3:TrackPointExtension>
        </extensions>
      </trkpt>
      <trkpt lat="42.5474418886005878448486328125" lon="20.14186478219926357269287109375">
        <ele>2075</ele>
        <time>2026-06-20T07:42:18.000Z</time>
        <extensions>
          <ns3:TrackPointExtension>
            <ns3:atemp>19.0</ns3:atemp>
          </ns3:TrackPointExtension>
        </extensions>
      </trkpt>
      <trkpt lat="42.5474418886005878448486328125" lon="20.14186478219926357269287109375">
        <ele>2075</ele>
        <time>2026-06-20T07:42:19.000Z</time>
        <extensions>
          <ns3:TrackPointExtension>
            <ns3:atemp>19.0</ns3:atemp>
          </ns3:TrackPointExtension>
        </extensions>
      </trkpt>
      <trkpt lat="42.5474418886005878448486328125" lon="20.14186478219926357269287109375">
        <ele>2075</ele>
        <time>2026-06-20T07:42:20.000Z</time>
        <extensions>
          <ns3:TrackPointExtension>
            <ns3:atemp>19.0</ns3:atemp>
          </ns3:TrackPointExtension>
        </extensions>
      </trkpt>
      <trkpt lat="42.5474418886005878448486328125" lon="20.14186478219926357269287109375">
        <ele>2075</ele>
        <time>2026-06-20T07:42:21.000Z</time>
        <extensions>
          <ns3:TrackPointExtension>
            <ns3:atemp>19.0</ns3:atemp>
          </ns3:TrackPointExtension>
        </extensions>
      </trkpt>
      <trkpt lat="42.5474361889064311981201171875" lon="20.14187492430210113525390625">
        <ele>2075</ele>
        <time>2026-06-20T07:42:22.000Z</time>
        <extensions>
          <ns3:TrackPointExtension>
            <ns3:atemp>19.0</ns3:atemp>
          </ns3:TrackPointExtension>
        </extensions>
      </trkpt>
      <trkpt lat="42.547433339059352874755859375" lon="20.14188372530043125152587890625">
        <ele>2075.199951171875</ele>
        <time>2026-06-20T07:42:23.000Z</time>
        <extensions>
          <ns3:TrackPointExtension>
            <ns3:atemp>19.0</ns3:atemp>
          </ns3:TrackPointExtension>
        </extensions>
      </trkpt>
      <trkpt lat="42.547427304089069366455078125" lon="20.141885988414287567138671875">
        <ele>2075.199951171875</ele>
        <time>2026-06-20T07:42:24.000Z</time>
        <extensions>
          <ns3:TrackPointExtension>
            <ns3:atemp>19.0</ns3:atemp>
          </ns3:TrackPointExtension>
        </extensions>
      </trkpt>
      <trkpt lat="42.54742302931845188140869140625" lon="20.1418908499181270599365234375">
        <ele>2075.199951171875</ele>
        <time>2026-06-20T07:42:25.000Z</time>
        <extensions>
          <ns3:TrackPointExtension>
            <ns3:atemp>19.0</ns3:atemp>
          </ns3:TrackPointExtension>
        </extensions>
      </trkpt>
      <trkpt lat="42.547421269118785858154296875" lon="20.14189059846103191375732421875">
        <ele>2075.199951171875</ele>
        <time>2026-06-20T07:42:26.000Z</time>
        <extensions>
          <ns3:TrackPointExtension>
            <ns3:atemp>19.0</ns3:atemp>
          </ns3:TrackPointExtension>
        </extensions>
      </trkpt>
      <trkpt lat="42.547421269118785858154296875" lon="20.141890682280063629150390625">
        <ele>2075.199951171875</ele>
        <time>2026-06-20T07:42:27.000Z</time>
        <extensions>
          <ns3:TrackPointExtension>
            <ns3:atemp>19.0</ns3:atemp>
          </ns3:TrackPointExtension>
        </extensions>
      </trkpt>
      <trkpt lat="42.547421269118785858154296875" lon="20.141890682280063629150390625">
        <ele>2075.199951171875</ele>
        <time>2026-06-20T07:42:28.000Z</time>
        <extensions>
          <ns3:TrackPointExtension>
            <ns3:atemp>19.0</ns3:atemp>
          </ns3:TrackPointExtension>
        </extensions>
      </trkpt>
      <trkpt lat="42.547421269118785858154296875" lon="20.141890682280063629150390625">
        <ele>2075.199951171875</ele>
        <time>2026-06-20T07:42:29.000Z</time>
        <extensions>
          <ns3:TrackPointExtension>
            <ns3:atemp>19.0</ns3:atemp>
          </ns3:TrackPointExtension>
        </extensions>
      </trkpt>
      <trkpt lat="42.547421269118785858154296875" lon="20.141890682280063629150390625">
        <ele>2075.199951171875</ele>
        <time>2026-06-20T07:42:30.000Z</time>
        <extensions>
          <ns3:TrackPointExtension>
            <ns3:atemp>19.0</ns3:atemp>
          </ns3:TrackPointExtension>
        </extensions>
      </trkpt>
      <trkpt lat="42.547421269118785858154296875" lon="20.141890682280063629150390625">
        <ele>2075.199951171875</ele>
        <time>2026-06-20T07:42:31.000Z</time>
        <extensions>
          <ns3:TrackPointExtension>
            <ns3:atemp>19.0</ns3:atemp>
          </ns3:TrackPointExtension>
        </extensions>
      </trkpt>
      <trkpt lat="42.547421269118785858154296875" lon="20.141890682280063629150390625">
        <ele>2075.199951171875</ele>
        <time>2026-06-20T07:42:32.000Z</time>
        <extensions>
          <ns3:TrackPointExtension>
            <ns3:atemp>19.0</ns3:atemp>
          </ns3:TrackPointExtension>
        </extensions>
      </trkpt>
      <trkpt lat="42.547421269118785858154296875" lon="20.141890682280063629150390625">
        <ele>2075.199951171875</ele>
        <time>2026-06-20T07:42:33.000Z</time>
        <extensions>
          <ns3:TrackPointExtension>
            <ns3:atemp>19.0</ns3:atemp>
          </ns3:TrackPointExtension>
        </extensions>
      </trkpt>
      <trkpt lat="42.547421269118785858154296875" lon="20.141890682280063629150390625">
        <ele>2075.199951171875</ele>
        <time>2026-06-20T07:42:34.000Z</time>
        <extensions>
          <ns3:TrackPointExtension>
            <ns3:atemp>19.0</ns3:atemp>
          </ns3:TrackPointExtension>
        </extensions>
      </trkpt>
      <trkpt lat="42.547421269118785858154296875" lon="20.141890682280063629150390625">
        <ele>2075.199951171875</ele>
        <time>2026-06-20T07:42:35.000Z</time>
        <extensions>
          <ns3:TrackPointExtension>
            <ns3:atemp>19.0</ns3:atemp>
          </ns3:TrackPointExtension>
        </extensions>
      </trkpt>
      <trkpt lat="42.547421269118785858154296875" lon="20.141890682280063629150390625">
        <ele>2075.199951171875</ele>
        <time>2026-06-20T07:42:36.000Z</time>
        <extensions>
          <ns3:TrackPointExtension>
            <ns3:atemp>19.0</ns3:atemp>
          </ns3:TrackPointExtension>
        </extensions>
      </trkpt>
      <trkpt lat="42.547421269118785858154296875" lon="20.141890682280063629150390625">
        <ele>2075.199951171875</ele>
        <time>2026-06-20T07:42:37.000Z</time>
        <extensions>
          <ns3:TrackPointExtension>
            <ns3:atemp>19.0</ns3:atemp>
          </ns3:TrackPointExtension>
        </extensions>
      </trkpt>
      <trkpt lat="42.547421269118785858154296875" lon="20.141890682280063629150390625">
        <ele>2075.199951171875</ele>
        <time>2026-06-20T07:42:38.000Z</time>
        <extensions>
          <ns3:TrackPointExtension>
            <ns3:atemp>19.0</ns3:atemp>
          </ns3:TrackPointExtension>
        </extensions>
      </trkpt>
      <trkpt lat="42.547421269118785858154296875" lon="20.141890682280063629150390625">
        <ele>2075.199951171875</ele>
        <time>2026-06-20T07:42:39.000Z</time>
        <extensions>
          <ns3:TrackPointExtension>
            <ns3:atemp>19.0</ns3:atemp>
          </ns3:TrackPointExtension>
        </extensions>
      </trkpt>
      <trkpt lat="42.547421269118785858154296875" lon="20.141890682280063629150390625">
        <ele>2075.39990234375</ele>
        <time>2026-06-20T07:42:40.000Z</time>
        <extensions>
          <ns3:TrackPointExtension>
            <ns3:atemp>19.0</ns3:atemp>
          </ns3:TrackPointExtension>
        </extensions>
      </trkpt>
      <trkpt lat="42.547421269118785858154296875" lon="20.141890682280063629150390625">
        <ele>2075.39990234375</ele>
        <time>2026-06-20T07:42:41.000Z</time>
        <extensions>
          <ns3:TrackPointExtension>
            <ns3:atemp>19.0</ns3:atemp>
          </ns3:TrackPointExtension>
        </extensions>
      </trkpt>
      <trkpt lat="42.547421269118785858154296875" lon="20.141890682280063629150390625">
        <ele>2075.60009765625</ele>
        <time>2026-06-20T07:42:42.000Z</time>
        <extensions>
          <ns3:TrackPointExtension>
            <ns3:atemp>19.0</ns3:atemp>
          </ns3:TrackPointExtension>
        </extensions>
      </trkpt>
      <trkpt lat="42.547421269118785858154296875" lon="20.141890682280063629150390625">
        <ele>2075.60009765625</ele>
        <time>2026-06-20T07:42:43.000Z</time>
        <extensions>
          <ns3:TrackPointExtension>
            <ns3:atemp>19.0</ns3:atemp>
          </ns3:TrackPointExtension>
        </extensions>
      </trkpt>
      <trkpt lat="42.547421269118785858154296875" lon="20.141890682280063629150390625">
        <ele>2075.60009765625</ele>
        <time>2026-06-20T07:42:44.000Z</time>
        <extensions>
          <ns3:TrackPointExtension>
            <ns3:atemp>19.0</ns3:atemp>
          </ns3:TrackPointExtension>
        </extensions>
      </trkpt>
      <trkpt lat="42.547421269118785858154296875" lon="20.141890682280063629150390625">
        <ele>2075.800048828125</ele>
        <time>2026-06-20T07:42:45.000Z</time>
        <extensions>
          <ns3:TrackPointExtension>
            <ns3:atemp>19.0</ns3:atemp>
          </ns3:TrackPointExtension>
        </extensions>
      </trkpt>
      <trkpt lat="42.547421269118785858154296875" lon="20.141890682280063629150390625">
        <ele>2075.800048828125</ele>
        <time>2026-06-20T07:42:46.000Z</time>
        <extensions>
          <ns3:TrackPointExtension>
            <ns3:atemp>19.0</ns3:atemp>
          </ns3:TrackPointExtension>
        </extensions>
      </trkpt>
      <trkpt lat="42.547421269118785858154296875" lon="20.141890682280063629150390625">
        <ele>2075.800048828125</ele>
        <time>2026-06-20T07:42:47.000Z</time>
        <extensions>
          <ns3:TrackPointExtension>
            <ns3:atemp>19.0</ns3:atemp>
          </ns3:TrackPointExtension>
        </extensions>
      </trkpt>
      <trkpt lat="42.547421269118785858154296875" lon="20.141890682280063629150390625">
        <ele>2075.60009765625</ele>
        <time>2026-06-20T07:42:48.000Z</time>
        <extensions>
          <ns3:TrackPointExtension>
            <ns3:atemp>19.0</ns3:atemp>
          </ns3:TrackPointExtension>
        </extensions>
      </trkpt>
      <trkpt lat="42.547421269118785858154296875" lon="20.141890682280063629150390625">
        <ele>2075.60009765625</ele>
        <time>2026-06-20T07:42:49.000Z</time>
        <extensions>
          <ns3:TrackPointExtension>
            <ns3:atemp>19.0</ns3:atemp>
          </ns3:TrackPointExtension>
        </extensions>
      </trkpt>
      <trkpt lat="42.547421269118785858154296875" lon="20.141890682280063629150390625">
        <ele>2075.60009765625</ele>
        <time>2026-06-20T07:42:50.000Z</time>
        <extensions>
          <ns3:TrackPointExtension>
            <ns3:atemp>19.0</ns3:atemp>
          </ns3:TrackPointExtension>
        </extensions>
      </trkpt>
      <trkpt lat="42.547421269118785858154296875" lon="20.141890682280063629150390625">
        <ele>2075.60009765625</ele>
        <time>2026-06-20T07:42:51.000Z</time>
        <extensions>
          <ns3:TrackPointExtension>
            <ns3:atemp>19.0</ns3:atemp>
          </ns3:TrackPointExtension>
        </extensions>
      </trkpt>
      <trkpt lat="42.547421269118785858154296875" lon="20.141890682280063629150390625">
        <ele>2075.60009765625</ele>
        <time>2026-06-20T07:42:52.000Z</time>
        <extensions>
          <ns3:TrackPointExtension>
            <ns3:atemp>19.0</ns3:atemp>
          </ns3:TrackPointExtension>
        </extensions>
      </trkpt>
      <trkpt lat="42.547421269118785858154296875" lon="20.141890682280063629150390625">
        <ele>2075.60009765625</ele>
        <time>2026-06-20T07:42:53.000Z</time>
        <extensions>
          <ns3:TrackPointExtension>
            <ns3:atemp>19.0</ns3:atemp>
          </ns3:TrackPointExtension>
        </extensions>
      </trkpt>
      <trkpt lat="42.547421269118785858154296875" lon="20.141890682280063629150390625">
        <ele>2075.800048828125</ele>
        <time>2026-06-20T07:42:54.000Z</time>
        <extensions>
          <ns3:TrackPointExtension>
            <ns3:atemp>19.0</ns3:atemp>
          </ns3:TrackPointExtension>
        </extensions>
      </trkpt>
      <trkpt lat="42.547421269118785858154296875" lon="20.141890682280063629150390625">
        <ele>2075.800048828125</ele>
        <time>2026-06-20T07:42:55.000Z</time>
        <extensions>
          <ns3:TrackPointExtension>
            <ns3:atemp>19.0</ns3:atemp>
          </ns3:TrackPointExtension>
        </extensions>
      </trkpt>
      <trkpt lat="42.547421269118785858154296875" lon="20.141890682280063629150390625">
        <ele>2075.800048828125</ele>
        <time>2026-06-20T07:42:56.000Z</time>
        <extensions>
          <ns3:TrackPointExtension>
            <ns3:atemp>19.0</ns3:atemp>
          </ns3:TrackPointExtension>
        </extensions>
      </trkpt>
      <trkpt lat="42.547421269118785858154296875" lon="20.141890682280063629150390625">
        <ele>2075.800048828125</ele>
        <time>2026-06-20T07:42:57.000Z</time>
        <extensions>
          <ns3:TrackPointExtension>
            <ns3:atemp>19.0</ns3:atemp>
          </ns3:TrackPointExtension>
        </extensions>
      </trkpt>
      <trkpt lat="42.54742068238556385040283203125" lon="20.141890011727809906005859375">
        <ele>2075.800048828125</ele>
        <time>2026-06-20T07:42:58.000Z</time>
        <extensions>
          <ns3:TrackPointExtension>
            <ns3:atemp>19.0</ns3:atemp>
          </ns3:TrackPointExtension>
        </extensions>
      </trkpt>
      <trkpt lat="42.547421269118785858154296875" lon="20.141890682280063629150390625">
        <ele>2075.800048828125</ele>
        <time>2026-06-20T07:42:59.000Z</time>
        <extensions>
          <ns3:TrackPointExtension>
            <ns3:atemp>19.0</ns3:atemp>
          </ns3:TrackPointExtension>
        </extensions>
      </trkpt>
      <trkpt lat="42.547421269118785858154296875" lon="20.141890682280063629150390625">
        <ele>2075.800048828125</ele>
        <time>2026-06-20T07:43:00.000Z</time>
        <extensions>
          <ns3:TrackPointExtension>
            <ns3:atemp>19.0</ns3:atemp>
          </ns3:TrackPointExtension>
        </extensions>
      </trkpt>
      <trkpt lat="42.547421269118785858154296875" lon="20.141890682280063629150390625">
        <ele>2075.60009765625</ele>
        <time>2026-06-20T07:43:01.000Z</time>
        <extensions>
          <ns3:TrackPointExtension>
            <ns3:atemp>19.0</ns3:atemp>
          </ns3:TrackPointExtension>
        </extensions>
      </trkpt>
      <trkpt lat="42.547421269118785858154296875" lon="20.141890682280063629150390625">
        <ele>2075.60009765625</ele>
        <time>2026-06-20T07:43:02.000Z</time>
        <extensions>
          <ns3:TrackPointExtension>
            <ns3:atemp>19.0</ns3:atemp>
          </ns3:TrackPointExtension>
        </extensions>
      </trkpt>
      <trkpt lat="42.547421269118785858154296875" lon="20.141890682280063629150390625">
        <ele>2075.39990234375</ele>
        <time>2026-06-20T07:43:03.000Z</time>
        <extensions>
          <ns3:TrackPointExtension>
            <ns3:atemp>19.0</ns3:atemp>
          </ns3:TrackPointExtension>
        </extensions>
      </trkpt>
      <trkpt lat="42.547421269118785858154296875" lon="20.141890682280063629150390625">
        <ele>2075.39990234375</ele>
        <time>2026-06-20T07:43:04.000Z</time>
        <extensions>
          <ns3:TrackPointExtension>
            <ns3:atemp>19.0</ns3:atemp>
          </ns3:TrackPointExtension>
        </extensions>
      </trkpt>
      <trkpt lat="42.547421269118785858154296875" lon="20.141890682280063629150390625">
        <ele>2075.39990234375</ele>
        <time>2026-06-20T07:43:05.000Z</time>
        <extensions>
          <ns3:TrackPointExtension>
            <ns3:atemp>19.0</ns3:atemp>
          </ns3:TrackPointExtension>
        </extensions>
      </trkpt>
      <trkpt lat="42.547421269118785858154296875" lon="20.141890682280063629150390625">
        <ele>2075.39990234375</ele>
        <time>2026-06-20T07:43:06.000Z</time>
        <extensions>
          <ns3:TrackPointExtension>
            <ns3:atemp>19.0</ns3:atemp>
          </ns3:TrackPointExtension>
        </extensions>
      </trkpt>
      <trkpt lat="42.547421269118785858154296875" lon="20.141890682280063629150390625">
        <ele>2075.39990234375</ele>
        <time>2026-06-20T07:43:07.000Z</time>
        <extensions>
          <ns3:TrackPointExtension>
            <ns3:atemp>19.0</ns3:atemp>
          </ns3:TrackPointExtension>
        </extensions>
      </trkpt>
      <trkpt lat="42.547421269118785858154296875" lon="20.141890682280063629150390625">
        <ele>2075.199951171875</ele>
        <time>2026-06-20T07:43:08.000Z</time>
        <extensions>
          <ns3:TrackPointExtension>
            <ns3:atemp>19.0</ns3:atemp>
          </ns3:TrackPointExtension>
        </extensions>
      </trkpt>
      <trkpt lat="42.547421269118785858154296875" lon="20.141890682280063629150390625">
        <ele>2075</ele>
        <time>2026-06-20T07:43:09.000Z</time>
        <extensions>
          <ns3:TrackPointExtension>
            <ns3:atemp>19.0</ns3:atemp>
          </ns3:TrackPointExtension>
        </extensions>
      </trkpt>
      <trkpt lat="42.547421269118785858154296875" lon="20.141890682280063629150390625">
        <ele>2075</ele>
        <time>2026-06-20T07:43:10.000Z</time>
        <extensions>
          <ns3:TrackPointExtension>
            <ns3:atemp>19.0</ns3:atemp>
          </ns3:TrackPointExtension>
        </extensions>
      </trkpt>
      <trkpt lat="42.547421269118785858154296875" lon="20.141890682280063629150390625">
        <ele>2075</ele>
        <time>2026-06-20T07:43:11.000Z</time>
        <extensions>
          <ns3:TrackPointExtension>
            <ns3:atemp>19.0</ns3:atemp>
          </ns3:TrackPointExtension>
        </extensions>
      </trkpt>
      <trkpt lat="42.547421269118785858154296875" lon="20.141890682280063629150390625">
        <ele>2075</ele>
        <time>2026-06-20T07:43:12.000Z</time>
        <extensions>
          <ns3:TrackPointExtension>
            <ns3:atemp>19.0</ns3:atemp>
          </ns3:TrackPointExtension>
        </extensions>
      </trkpt>
      <trkpt lat="42.547421269118785858154296875" lon="20.141890682280063629150390625">
        <ele>2075</ele>
        <time>2026-06-20T07:43:13.000Z</time>
        <extensions>
          <ns3:TrackPointExtension>
            <ns3:atemp>19.0</ns3:atemp>
          </ns3:TrackPointExtension>
        </extensions>
      </trkpt>
      <trkpt lat="42.547421269118785858154296875" lon="20.141890682280063629150390625">
        <ele>2075</ele>
        <time>2026-06-20T07:43:14.000Z</time>
        <extensions>
          <ns3:TrackPointExtension>
            <ns3:atemp>19.0</ns3:atemp>
          </ns3:TrackPointExtension>
        </extensions>
      </trkpt>
      <trkpt lat="42.547421269118785858154296875" lon="20.141890682280063629150390625">
        <ele>2075</ele>
        <time>2026-06-20T07:43:15.000Z</time>
        <extensions>
          <ns3:TrackPointExtension>
            <ns3:atemp>19.0</ns3:atemp>
          </ns3:TrackPointExtension>
        </extensions>
      </trkpt>
      <trkpt lat="42.547421269118785858154296875" lon="20.141890682280063629150390625">
        <ele>2075</ele>
        <time>2026-06-20T07:43:16.000Z</time>
        <extensions>
          <ns3:TrackPointExtension>
            <ns3:atemp>19.0</ns3:atemp>
          </ns3:TrackPointExtension>
        </extensions>
      </trkpt>
      <trkpt lat="42.547421269118785858154296875" lon="20.141890682280063629150390625">
        <ele>2075</ele>
        <time>2026-06-20T07:43:17.000Z</time>
        <extensions>
          <ns3:TrackPointExtension>
            <ns3:atemp>19.0</ns3:atemp>
          </ns3:TrackPointExtension>
        </extensions>
      </trkpt>
      <trkpt lat="42.54741548560559749603271484375" lon="20.1418895088136196136474609375">
        <ele>2075</ele>
        <time>2026-06-20T07:43:18.000Z</time>
        <extensions>
          <ns3:TrackPointExtension>
            <ns3:atemp>19.0</ns3:atemp>
          </ns3:TrackPointExtension>
        </extensions>
      </trkpt>
      <trkpt lat="42.54740081727504730224609375" lon="20.14189210720360279083251953125">
        <ele>2075</ele>
        <time>2026-06-20T07:43:19.000Z</time>
        <extensions>
          <ns3:TrackPointExtension>
            <ns3:atemp>19.0</ns3:atemp>
          </ns3:TrackPointExtension>
        </extensions>
      </trkpt>
      <trkpt lat="42.54740073345601558685302734375" lon="20.141892023384571075439453125">
        <ele>2075</ele>
        <time>2026-06-20T07:43:20.000Z</time>
        <extensions>
          <ns3:TrackPointExtension>
            <ns3:atemp>19.0</ns3:atemp>
          </ns3:TrackPointExtension>
        </extensions>
      </trkpt>
      <trkpt lat="42.54740073345601558685302734375" lon="20.141892023384571075439453125">
        <ele>2075</ele>
        <time>2026-06-20T07:43:21.000Z</time>
        <extensions>
          <ns3:TrackPointExtension>
            <ns3:atemp>19.0</ns3:atemp>
          </ns3:TrackPointExtension>
        </extensions>
      </trkpt>
      <trkpt lat="42.54740073345601558685302734375" lon="20.141892023384571075439453125">
        <ele>2075</ele>
        <time>2026-06-20T07:43:22.000Z</time>
        <extensions>
          <ns3:TrackPointExtension>
            <ns3:atemp>19.0</ns3:atemp>
          </ns3:TrackPointExtension>
        </extensions>
      </trkpt>
      <trkpt lat="42.54740073345601558685302734375" lon="20.141892023384571075439453125">
        <ele>2075</ele>
        <time>2026-06-20T07:43:23.000Z</time>
        <extensions>
          <ns3:TrackPointExtension>
            <ns3:atemp>19.0</ns3:atemp>
          </ns3:TrackPointExtension>
        </extensions>
      </trkpt>
      <trkpt lat="42.54740073345601558685302734375" lon="20.141892023384571075439453125">
        <ele>2075</ele>
        <time>2026-06-20T07:43:24.000Z</time>
        <extensions>
          <ns3:TrackPointExtension>
            <ns3:atemp>19.0</ns3:atemp>
          </ns3:TrackPointExtension>
        </extensions>
      </trkpt>
      <trkpt lat="42.54740073345601558685302734375" lon="20.141892023384571075439453125">
        <ele>2075</ele>
        <time>2026-06-20T07:43:25.000Z</time>
        <extensions>
          <ns3:TrackPointExtension>
            <ns3:atemp>19.0</ns3:atemp>
          </ns3:TrackPointExtension>
        </extensions>
      </trkpt>
      <trkpt lat="42.54740073345601558685302734375" lon="20.141892023384571075439453125">
        <ele>2075</ele>
        <time>2026-06-20T07:43:26.000Z</time>
        <extensions>
          <ns3:TrackPointExtension>
            <ns3:atemp>19.0</ns3:atemp>
          </ns3:TrackPointExtension>
        </extensions>
      </trkpt>
      <trkpt lat="42.54740073345601558685302734375" lon="20.141892023384571075439453125">
        <ele>2075</ele>
        <time>2026-06-20T07:43:27.000Z</time>
        <extensions>
          <ns3:TrackPointExtension>
            <ns3:atemp>19.0</ns3:atemp>
          </ns3:TrackPointExtension>
        </extensions>
      </trkpt>
      <trkpt lat="42.54739905707538127899169921875" lon="20.1418916881084442138671875">
        <ele>2075</ele>
        <time>2026-06-20T07:43:28.000Z</time>
        <extensions>
          <ns3:TrackPointExtension>
            <ns3:atemp>19.0</ns3:atemp>
          </ns3:TrackPointExtension>
        </extensions>
      </trkpt>
      <trkpt lat="42.547387070953845977783203125" lon="20.1418945379555225372314453125">
        <ele>2075</ele>
        <time>2026-06-20T07:43:29.000Z</time>
        <extensions>
          <ns3:TrackPointExtension>
            <ns3:atemp>19.0</ns3:atemp>
          </ns3:TrackPointExtension>
        </extensions>
      </trkpt>
      <trkpt lat="42.5473828800022602081298828125" lon="20.14189864508807659149169921875">
        <ele>2075</ele>
        <time>2026-06-20T07:43:30.000Z</time>
        <extensions>
          <ns3:TrackPointExtension>
            <ns3:atemp>19.0</ns3:atemp>
          </ns3:TrackPointExtension>
        </extensions>
      </trkpt>
      <trkpt lat="42.5473801977932453155517578125" lon="20.14190250076353549957275390625">
        <ele>2075</ele>
        <time>2026-06-20T07:43:31.000Z</time>
        <extensions>
          <ns3:TrackPointExtension>
            <ns3:atemp>19.0</ns3:atemp>
          </ns3:TrackPointExtension>
        </extensions>
      </trkpt>
      <trkpt lat="42.5473748333752155303955078125" lon="20.14190702699124813079833984375">
        <ele>2075</ele>
        <time>2026-06-20T07:43:32.000Z</time>
        <extensions>
          <ns3:TrackPointExtension>
            <ns3:atemp>19.0</ns3:atemp>
          </ns3:TrackPointExtension>
        </extensions>
      </trkpt>
      <trkpt lat="42.5473734922707080841064453125" lon="20.141910798847675323486328125">
        <ele>2075</ele>
        <time>2026-06-20T07:43:33.000Z</time>
        <extensions>
          <ns3:TrackPointExtension>
            <ns3:atemp>19.0</ns3:atemp>
          </ns3:TrackPointExtension>
        </extensions>
      </trkpt>
      <trkpt lat="42.54737340845167636871337890625" lon="20.1419109664857387542724609375">
        <ele>2075</ele>
        <time>2026-06-20T07:43:34.000Z</time>
        <extensions>
          <ns3:TrackPointExtension>
            <ns3:atemp>19.0</ns3:atemp>
          </ns3:TrackPointExtension>
        </extensions>
      </trkpt>
      <trkpt lat="42.54737340845167636871337890625" lon="20.14191105030477046966552734375">
        <ele>2075</ele>
        <time>2026-06-20T07:43:35.000Z</time>
        <extensions>
          <ns3:TrackPointExtension>
            <ns3:atemp>19.0</ns3:atemp>
          </ns3:TrackPointExtension>
        </extensions>
      </trkpt>
      <trkpt lat="42.54737340845167636871337890625" lon="20.1419109664857387542724609375">
        <ele>2075</ele>
        <time>2026-06-20T07:43:36.000Z</time>
        <extensions>
          <ns3:TrackPointExtension>
            <ns3:atemp>19.0</ns3:atemp>
          </ns3:TrackPointExtension>
        </extensions>
      </trkpt>
      <trkpt lat="42.54737340845167636871337890625" lon="20.1419109664857387542724609375">
        <ele>2075</ele>
        <time>2026-06-20T07:43:37.000Z</time>
        <extensions>
          <ns3:TrackPointExtension>
            <ns3:atemp>19.0</ns3:atemp>
          </ns3:TrackPointExtension>
        </extensions>
      </trkpt>
      <trkpt lat="42.54737340845167636871337890625" lon="20.1419109664857387542724609375">
        <ele>2075</ele>
        <time>2026-06-20T07:43:38.000Z</time>
        <extensions>
          <ns3:TrackPointExtension>
            <ns3:atemp>19.0</ns3:atemp>
          </ns3:TrackPointExtension>
        </extensions>
      </trkpt>
      <trkpt lat="42.54737340845167636871337890625" lon="20.1419109664857387542724609375">
        <ele>2075</ele>
        <time>2026-06-20T07:43:39.000Z</time>
        <extensions>
          <ns3:TrackPointExtension>
            <ns3:atemp>19.0</ns3:atemp>
          </ns3:TrackPointExtension>
        </extensions>
      </trkpt>
      <trkpt lat="42.54737340845167636871337890625" lon="20.1419109664857387542724609375">
        <ele>2075</ele>
        <time>2026-06-20T07:43:40.000Z</time>
        <extensions>
          <ns3:TrackPointExtension>
            <ns3:atemp>19.0</ns3:atemp>
          </ns3:TrackPointExtension>
        </extensions>
      </trkpt>
      <trkpt lat="42.54737340845167636871337890625" lon="20.1419109664857387542724609375">
        <ele>2075</ele>
        <time>2026-06-20T07:43:41.000Z</time>
        <extensions>
          <ns3:TrackPointExtension>
            <ns3:atemp>19.0</ns3:atemp>
          </ns3:TrackPointExtension>
        </extensions>
      </trkpt>
      <trkpt lat="42.54736888222396373748779296875" lon="20.14191649854183197021484375">
        <ele>2075</ele>
        <time>2026-06-20T07:43:42.000Z</time>
        <extensions>
          <ns3:TrackPointExtension>
            <ns3:atemp>19.0</ns3:atemp>
          </ns3:TrackPointExtension>
        </extensions>
      </trkpt>
      <trkpt lat="42.54735496826469898223876953125" lon="20.141930915415287017822265625">
        <ele>2075</ele>
        <time>2026-06-20T07:43:43.000Z</time>
        <extensions>
          <ns3:TrackPointExtension>
            <ns3:atemp>19.0</ns3:atemp>
          </ns3:TrackPointExtension>
        </extensions>
      </trkpt>
      <trkpt lat="42.5473543815314769744873046875" lon="20.141938291490077972412109375">
        <ele>2075</ele>
        <time>2026-06-20T07:43:44.000Z</time>
        <extensions>
          <ns3:TrackPointExtension>
            <ns3:atemp>19.0</ns3:atemp>
          </ns3:TrackPointExtension>
        </extensions>
      </trkpt>
      <trkpt lat="42.5473520345985889434814453125" lon="20.14194734394550323486328125">
        <ele>2075</ele>
        <time>2026-06-20T07:43:45.000Z</time>
        <extensions>
          <ns3:TrackPointExtension>
            <ns3:atemp>19.0</ns3:atemp>
          </ns3:TrackPointExtension>
        </extensions>
      </trkpt>
      <trkpt lat="42.547350190579891204833984375" lon="20.14195228926837444305419921875">
        <ele>2075</ele>
        <time>2026-06-20T07:43:46.000Z</time>
        <extensions>
          <ns3:TrackPointExtension>
            <ns3:atemp>19.0</ns3:atemp>
          </ns3:TrackPointExtension>
        </extensions>
      </trkpt>
      <trkpt lat="42.54734524525701999664306640625" lon="20.1419522054493427276611328125">
        <ele>2075</ele>
        <time>2026-06-20T07:43:47.000Z</time>
        <extensions>
          <ns3:TrackPointExtension>
            <ns3:atemp>19.0</ns3:atemp>
          </ns3:TrackPointExtension>
        </extensions>
      </trkpt>
      <trkpt lat="42.5473416410386562347412109375" lon="20.141963101923465728759765625">
        <ele>2075</ele>
        <time>2026-06-20T07:43:48.000Z</time>
        <extensions>
          <ns3:TrackPointExtension>
            <ns3:atemp>19.0</ns3:atemp>
          </ns3:TrackPointExtension>
        </extensions>
      </trkpt>
      <trkpt lat="42.5473384559154510498046875" lon="20.141979865729808807373046875">
        <ele>2075.39990234375</ele>
        <time>2026-06-20T07:43:49.000Z</time>
        <extensions>
          <ns3:TrackPointExtension>
            <ns3:atemp>19.0</ns3:atemp>
          </ns3:TrackPointExtension>
        </extensions>
      </trkpt>
      <trkpt lat="42.54733334295451641082763671875" lon="20.14198631979525089263916015625">
        <ele>2075.199951171875</ele>
        <time>2026-06-20T07:43:50.000Z</time>
        <extensions>
          <ns3:TrackPointExtension>
            <ns3:atemp>19.0</ns3:atemp>
          </ns3:TrackPointExtension>
        </extensions>
      </trkpt>
      <trkpt lat="42.547331750392913818359375" lon="20.14199319295585155487060546875">
        <ele>2075.199951171875</ele>
        <time>2026-06-20T07:43:51.000Z</time>
        <extensions>
          <ns3:TrackPointExtension>
            <ns3:atemp>19.0</ns3:atemp>
          </ns3:TrackPointExtension>
        </extensions>
      </trkpt>
      <trkpt lat="42.547332085669040679931640625" lon="20.141995288431644439697265625">
        <ele>2075</ele>
        <time>2026-06-20T07:43:52.000Z</time>
        <extensions>
          <ns3:TrackPointExtension>
            <ns3:atemp>19.0</ns3:atemp>
          </ns3:TrackPointExtension>
        </extensions>
      </trkpt>
      <trkpt lat="42.547332085669040679931640625" lon="20.141995288431644439697265625">
        <ele>2075</ele>
        <time>2026-06-20T07:43:53.000Z</time>
        <extensions>
          <ns3:TrackPointExtension>
            <ns3:atemp>19.0</ns3:atemp>
          </ns3:TrackPointExtension>
        </extensions>
      </trkpt>
      <trkpt lat="42.547332085669040679931640625" lon="20.141995288431644439697265625">
        <ele>2075</ele>
        <time>2026-06-20T07:43:54.000Z</time>
        <extensions>
          <ns3:TrackPointExtension>
            <ns3:atemp>19.0</ns3:atemp>
          </ns3:TrackPointExtension>
        </extensions>
      </trkpt>
      <trkpt lat="42.547332085669040679931640625" lon="20.141995288431644439697265625">
        <ele>2075</ele>
        <time>2026-06-20T07:43:55.000Z</time>
        <extensions>
          <ns3:TrackPointExtension>
            <ns3:atemp>19.0</ns3:atemp>
          </ns3:TrackPointExtension>
        </extensions>
      </trkpt>
      <trkpt lat="42.547332085669040679931640625" lon="20.141995288431644439697265625">
        <ele>2075</ele>
        <time>2026-06-20T07:43:56.000Z</time>
        <extensions>
          <ns3:TrackPointExtension>
            <ns3:atemp>19.0</ns3:atemp>
          </ns3:TrackPointExtension>
        </extensions>
      </trkpt>
      <trkpt lat="42.547332085669040679931640625" lon="20.141995288431644439697265625">
        <ele>2075.199951171875</ele>
        <time>2026-06-20T07:43:57.000Z</time>
        <extensions>
          <ns3:TrackPointExtension>
            <ns3:atemp>19.0</ns3:atemp>
          </ns3:TrackPointExtension>
        </extensions>
      </trkpt>
      <trkpt lat="42.547332085669040679931640625" lon="20.141995288431644439697265625">
        <ele>2075.199951171875</ele>
        <time>2026-06-20T07:43:58.000Z</time>
        <extensions>
          <ns3:TrackPointExtension>
            <ns3:atemp>19.0</ns3:atemp>
          </ns3:TrackPointExtension>
        </extensions>
      </trkpt>
      <trkpt lat="42.547332085669040679931640625" lon="20.141995288431644439697265625">
        <ele>2075.199951171875</ele>
        <time>2026-06-20T07:43:59.000Z</time>
        <extensions>
          <ns3:TrackPointExtension>
            <ns3:atemp>19.0</ns3:atemp>
          </ns3:TrackPointExtension>
        </extensions>
      </trkpt>
      <trkpt lat="42.547332085669040679931640625" lon="20.141995288431644439697265625">
        <ele>2075.199951171875</ele>
        <time>2026-06-20T07:44:00.000Z</time>
        <extensions>
          <ns3:TrackPointExtension>
            <ns3:atemp>19.0</ns3:atemp>
          </ns3:TrackPointExtension>
        </extensions>
      </trkpt>
      <trkpt lat="42.547332085669040679931640625" lon="20.141995288431644439697265625">
        <ele>2075.199951171875</ele>
        <time>2026-06-20T07:44:01.000Z</time>
        <extensions>
          <ns3:TrackPointExtension>
            <ns3:atemp>19.0</ns3:atemp>
          </ns3:TrackPointExtension>
        </extensions>
      </trkpt>
      <trkpt lat="42.547332085669040679931640625" lon="20.141995288431644439697265625">
        <ele>2075.199951171875</ele>
        <time>2026-06-20T07:44:02.000Z</time>
        <extensions>
          <ns3:TrackPointExtension>
            <ns3:atemp>19.0</ns3:atemp>
          </ns3:TrackPointExtension>
        </extensions>
      </trkpt>
      <trkpt lat="42.547332085669040679931640625" lon="20.141995288431644439697265625">
        <ele>2075.199951171875</ele>
        <time>2026-06-20T07:44:03.000Z</time>
        <extensions>
          <ns3:TrackPointExtension>
            <ns3:atemp>19.0</ns3:atemp>
          </ns3:TrackPointExtension>
        </extensions>
      </trkpt>
      <trkpt lat="42.547332085669040679931640625" lon="20.141995288431644439697265625">
        <ele>2075.199951171875</ele>
        <time>2026-06-20T07:44:04.000Z</time>
        <extensions>
          <ns3:TrackPointExtension>
            <ns3:atemp>19.0</ns3:atemp>
          </ns3:TrackPointExtension>
        </extensions>
      </trkpt>
      <trkpt lat="42.547332085669040679931640625" lon="20.141995288431644439697265625">
        <ele>2075.39990234375</ele>
        <time>2026-06-20T07:44:05.000Z</time>
        <extensions>
          <ns3:TrackPointExtension>
            <ns3:atemp>19.0</ns3:atemp>
          </ns3:TrackPointExtension>
        </extensions>
      </trkpt>
      <trkpt lat="42.547332085669040679931640625" lon="20.141995288431644439697265625">
        <ele>2075.39990234375</ele>
        <time>2026-06-20T07:44:06.000Z</time>
        <extensions>
          <ns3:TrackPointExtension>
            <ns3:atemp>19.0</ns3:atemp>
          </ns3:TrackPointExtension>
        </extensions>
      </trkpt>
      <trkpt lat="42.547332085669040679931640625" lon="20.141995288431644439697265625">
        <ele>2075.199951171875</ele>
        <time>2026-06-20T07:44:07.000Z</time>
        <extensions>
          <ns3:TrackPointExtension>
            <ns3:atemp>19.0</ns3:atemp>
          </ns3:TrackPointExtension>
        </extensions>
      </trkpt>
      <trkpt lat="42.54732973873615264892578125" lon="20.14199352823197841644287109375">
        <ele>2075.199951171875</ele>
        <time>2026-06-20T07:44:08.000Z</time>
        <extensions>
          <ns3:TrackPointExtension>
            <ns3:atemp>19.0</ns3:atemp>
          </ns3:TrackPointExtension>
        </extensions>
      </trkpt>
      <trkpt lat="42.54732303321361541748046875" lon="20.14199621044099330902099609375">
        <ele>2075.199951171875</ele>
        <time>2026-06-20T07:44:09.000Z</time>
        <extensions>
          <ns3:TrackPointExtension>
            <ns3:atemp>19.0</ns3:atemp>
          </ns3:TrackPointExtension>
        </extensions>
      </trkpt>
      <trkpt lat="42.54732060246169567108154296875" lon="20.14201012440025806427001953125">
        <ele>2075</ele>
        <time>2026-06-20T07:44:10.000Z</time>
        <extensions>
          <ns3:TrackPointExtension>
            <ns3:atemp>19.0</ns3:atemp>
          </ns3:TrackPointExtension>
        </extensions>
      </trkpt>
      <trkpt lat="42.54731926135718822479248046875" lon="20.14202152378857135772705078125">
        <ele>2075</ele>
        <time>2026-06-20T07:44:11.000Z</time>
        <extensions>
          <ns3:TrackPointExtension>
            <ns3:atemp>19.0</ns3:atemp>
          </ns3:TrackPointExtension>
        </extensions>
      </trkpt>
      <trkpt lat="42.54731557331979274749755859375" lon="20.14202822931110858917236328125">
        <ele>2074.800048828125</ele>
        <time>2026-06-20T07:44:12.000Z</time>
        <extensions>
          <ns3:TrackPointExtension>
            <ns3:atemp>19.0</ns3:atemp>
          </ns3:TrackPointExtension>
        </extensions>
      </trkpt>
      <trkpt lat="42.54731004126369953155517578125" lon="20.14203426428139209747314453125">
        <ele>2074.60009765625</ele>
        <time>2026-06-20T07:44:13.000Z</time>
        <extensions>
          <ns3:TrackPointExtension>
            <ns3:atemp>19.0</ns3:atemp>
          </ns3:TrackPointExtension>
        </extensions>
      </trkpt>
      <trkpt lat="42.54730920307338237762451171875" lon="20.14203988015651702880859375">
        <ele>2074.60009765625</ele>
        <time>2026-06-20T07:44:14.000Z</time>
        <extensions>
          <ns3:TrackPointExtension>
            <ns3:atemp>19.0</ns3:atemp>
          </ns3:TrackPointExtension>
        </extensions>
      </trkpt>
      <trkpt lat="42.54730668850243091583251953125" lon="20.14204532839357852935791015625">
        <ele>2074.39990234375</ele>
        <time>2026-06-20T07:44:15.000Z</time>
        <extensions>
          <ns3:TrackPointExtension>
            <ns3:atemp>19.0</ns3:atemp>
          </ns3:TrackPointExtension>
        </extensions>
      </trkpt>
      <trkpt lat="42.54730484448373317718505859375" lon="20.14204985462129116058349609375">
        <ele>2074.39990234375</ele>
        <time>2026-06-20T07:44:16.000Z</time>
        <extensions>
          <ns3:TrackPointExtension>
            <ns3:atemp>19.0</ns3:atemp>
          </ns3:TrackPointExtension>
        </extensions>
      </trkpt>
      <trkpt lat="42.5473010726273059844970703125" lon="20.14206008054316043853759765625">
        <ele>2074.199951171875</ele>
        <time>2026-06-20T07:44:17.000Z</time>
        <extensions>
          <ns3:TrackPointExtension>
            <ns3:atemp>19.0</ns3:atemp>
          </ns3:TrackPointExtension>
        </extensions>
      </trkpt>
      <trkpt lat="42.5473007373511791229248046875" lon="20.1420645229518413543701171875">
        <ele>2074</ele>
        <time>2026-06-20T07:44:18.000Z</time>
        <extensions>
          <ns3:TrackPointExtension>
            <ns3:atemp>19.0</ns3:atemp>
          </ns3:TrackPointExtension>
        </extensions>
      </trkpt>
      <trkpt lat="42.5473009049892425537109375" lon="20.1420645229518413543701171875">
        <ele>2073.800048828125</ele>
        <time>2026-06-20T07:44:19.000Z</time>
        <extensions>
          <ns3:TrackPointExtension>
            <ns3:atemp>19.0</ns3:atemp>
          </ns3:TrackPointExtension>
        </extensions>
      </trkpt>
      <trkpt lat="42.5473009049892425537109375" lon="20.1420645229518413543701171875">
        <ele>2073.60009765625</ele>
        <time>2026-06-20T07:44:20.000Z</time>
        <extensions>
          <ns3:TrackPointExtension>
            <ns3:atemp>19.0</ns3:atemp>
          </ns3:TrackPointExtension>
        </extensions>
      </trkpt>
      <trkpt lat="42.5473009049892425537109375" lon="20.1420645229518413543701171875">
        <ele>2073.199951171875</ele>
        <time>2026-06-20T07:44:21.000Z</time>
        <extensions>
          <ns3:TrackPointExtension>
            <ns3:atemp>19.0</ns3:atemp>
          </ns3:TrackPointExtension>
        </extensions>
      </trkpt>
      <trkpt lat="42.547301240265369415283203125" lon="20.14206469058990478515625">
        <ele>2073</ele>
        <time>2026-06-20T07:44:22.000Z</time>
        <extensions>
          <ns3:TrackPointExtension>
            <ns3:atemp>19.0</ns3:atemp>
          </ns3:TrackPointExtension>
        </extensions>
      </trkpt>
      <trkpt lat="42.54730752669274806976318359375" lon="20.14207483269274234771728515625">
        <ele>2072.800048828125</ele>
        <time>2026-06-20T07:44:23.000Z</time>
        <extensions>
          <ns3:TrackPointExtension>
            <ns3:atemp>19.0</ns3:atemp>
          </ns3:TrackPointExtension>
        </extensions>
      </trkpt>
      <trkpt lat="42.54730786196887493133544921875" lon="20.1420819573104381561279296875">
        <ele>2072.60009765625</ele>
        <time>2026-06-20T07:44:24.000Z</time>
        <extensions>
          <ns3:TrackPointExtension>
            <ns3:atemp>19.0</ns3:atemp>
          </ns3:TrackPointExtension>
        </extensions>
      </trkpt>
      <trkpt lat="42.54730316810309886932373046875" lon="20.1420936919748783111572265625">
        <ele>2072.39990234375</ele>
        <time>2026-06-20T07:44:25.000Z</time>
        <extensions>
          <ns3:TrackPointExtension>
            <ns3:atemp>19.0</ns3:atemp>
          </ns3:TrackPointExtension>
        </extensions>
      </trkpt>
      <trkpt lat="42.54729797132313251495361328125" lon="20.1421067677438259124755859375">
        <ele>2072.199951171875</ele>
        <time>2026-06-20T07:44:26.000Z</time>
        <extensions>
          <ns3:TrackPointExtension>
            <ns3:atemp>19.0</ns3:atemp>
          </ns3:TrackPointExtension>
        </extensions>
      </trkpt>
      <trkpt lat="42.54729126580059528350830078125" lon="20.14211288653314113616943359375">
        <ele>2072</ele>
        <time>2026-06-20T07:44:27.000Z</time>
        <extensions>
          <ns3:TrackPointExtension>
            <ns3:atemp>19.0</ns3:atemp>
          </ns3:TrackPointExtension>
        </extensions>
      </trkpt>
      <trkpt lat="42.547287158668041229248046875" lon="20.14211137779057025909423828125">
        <ele>2072</ele>
        <time>2026-06-20T07:44:28.000Z</time>
        <extensions>
          <ns3:TrackPointExtension>
            <ns3:atemp>19.0</ns3:atemp>
          </ns3:TrackPointExtension>
        </extensions>
      </trkpt>
      <trkpt lat="42.54728456027805805206298828125" lon="20.1421134732663631439208984375">
        <ele>2071.800048828125</ele>
        <time>2026-06-20T07:44:29.000Z</time>
        <extensions>
          <ns3:TrackPointExtension>
            <ns3:atemp>19.0</ns3:atemp>
          </ns3:TrackPointExtension>
        </extensions>
      </trkpt>
      <trkpt lat="42.54728456027805805206298828125" lon="20.14211355708539485931396484375">
        <ele>2071.800048828125</ele>
        <time>2026-06-20T07:44:30.000Z</time>
        <extensions>
          <ns3:TrackPointExtension>
            <ns3:atemp>19.0</ns3:atemp>
          </ns3:TrackPointExtension>
        </extensions>
      </trkpt>
      <trkpt lat="42.54728456027805805206298828125" lon="20.14211355708539485931396484375">
        <ele>2071.800048828125</ele>
        <time>2026-06-20T07:44:31.000Z</time>
        <extensions>
          <ns3:TrackPointExtension>
            <ns3:atemp>19.0</ns3:atemp>
          </ns3:TrackPointExtension>
        </extensions>
      </trkpt>
      <trkpt lat="42.54728456027805805206298828125" lon="20.14211355708539485931396484375">
        <ele>2071.800048828125</ele>
        <time>2026-06-20T07:44:32.000Z</time>
        <extensions>
          <ns3:TrackPointExtension>
            <ns3:atemp>19.0</ns3:atemp>
          </ns3:TrackPointExtension>
        </extensions>
      </trkpt>
      <trkpt lat="42.54728456027805805206298828125" lon="20.14211355708539485931396484375">
        <ele>2071.800048828125</ele>
        <time>2026-06-20T07:44:33.000Z</time>
        <extensions>
          <ns3:TrackPointExtension>
            <ns3:atemp>19.0</ns3:atemp>
          </ns3:TrackPointExtension>
        </extensions>
      </trkpt>
      <trkpt lat="42.54728456027805805206298828125" lon="20.14211355708539485931396484375">
        <ele>2071.800048828125</ele>
        <time>2026-06-20T07:44:34.000Z</time>
        <extensions>
          <ns3:TrackPointExtension>
            <ns3:atemp>19.0</ns3:atemp>
          </ns3:TrackPointExtension>
        </extensions>
      </trkpt>
      <trkpt lat="42.54728422500193119049072265625" lon="20.14211422763764858245849609375">
        <ele>2071.800048828125</ele>
        <time>2026-06-20T07:44:35.000Z</time>
        <extensions>
          <ns3:TrackPointExtension>
            <ns3:atemp>19.0</ns3:atemp>
          </ns3:TrackPointExtension>
        </extensions>
      </trkpt>
      <trkpt lat="42.5472826324403285980224609375" lon="20.14212478883564472198486328125">
        <ele>2071.800048828125</ele>
        <time>2026-06-20T07:44:36.000Z</time>
        <extensions>
          <ns3:TrackPointExtension>
            <ns3:atemp>19.0</ns3:atemp>
          </ns3:TrackPointExtension>
        </extensions>
      </trkpt>
      <trkpt lat="42.54728456027805805206298828125" lon="20.14211355708539485931396484375">
        <ele>2071.800048828125</ele>
        <time>2026-06-20T07:44:37.000Z</time>
        <extensions>
          <ns3:TrackPointExtension>
            <ns3:atemp>19.0</ns3:atemp>
          </ns3:TrackPointExtension>
        </extensions>
      </trkpt>
      <trkpt lat="42.54728456027805805206298828125" lon="20.14211355708539485931396484375">
        <ele>2071.800048828125</ele>
        <time>2026-06-20T07:44:38.000Z</time>
        <extensions>
          <ns3:TrackPointExtension>
            <ns3:atemp>19.0</ns3:atemp>
          </ns3:TrackPointExtension>
        </extensions>
      </trkpt>
      <trkpt lat="42.54728456027805805206298828125" lon="20.14211355708539485931396484375">
        <ele>2071.800048828125</ele>
        <time>2026-06-20T07:44:39.000Z</time>
        <extensions>
          <ns3:TrackPointExtension>
            <ns3:atemp>19.0</ns3:atemp>
          </ns3:TrackPointExtension>
        </extensions>
      </trkpt>
      <trkpt lat="42.54728456027805805206298828125" lon="20.14211355708539485931396484375">
        <ele>2071.800048828125</ele>
        <time>2026-06-20T07:44:40.000Z</time>
        <extensions>
          <ns3:TrackPointExtension>
            <ns3:atemp>19.0</ns3:atemp>
          </ns3:TrackPointExtension>
        </extensions>
      </trkpt>
      <trkpt lat="42.54728456027805805206298828125" lon="20.14211355708539485931396484375">
        <ele>2071.60009765625</ele>
        <time>2026-06-20T07:44:41.000Z</time>
        <extensions>
          <ns3:TrackPointExtension>
            <ns3:atemp>19.0</ns3:atemp>
          </ns3:TrackPointExtension>
        </extensions>
      </trkpt>
      <trkpt lat="42.54728456027805805206298828125" lon="20.14211355708539485931396484375">
        <ele>2071.60009765625</ele>
        <time>2026-06-20T07:44:42.000Z</time>
        <extensions>
          <ns3:TrackPointExtension>
            <ns3:atemp>19.0</ns3:atemp>
          </ns3:TrackPointExtension>
        </extensions>
      </trkpt>
      <trkpt lat="42.54728456027805805206298828125" lon="20.14211355708539485931396484375">
        <ele>2071.60009765625</ele>
        <time>2026-06-20T07:44:43.000Z</time>
        <extensions>
          <ns3:TrackPointExtension>
            <ns3:atemp>19.0</ns3:atemp>
          </ns3:TrackPointExtension>
        </extensions>
      </trkpt>
      <trkpt lat="42.54728456027805805206298828125" lon="20.14211355708539485931396484375">
        <ele>2071.60009765625</ele>
        <time>2026-06-20T07:44:44.000Z</time>
        <extensions>
          <ns3:TrackPointExtension>
            <ns3:atemp>19.0</ns3:atemp>
          </ns3:TrackPointExtension>
        </extensions>
      </trkpt>
      <trkpt lat="42.54728321917355060577392578125" lon="20.14212797395884990692138671875">
        <ele>2071.60009765625</ele>
        <time>2026-06-20T07:44:45.000Z</time>
        <extensions>
          <ns3:TrackPointExtension>
            <ns3:atemp>19.0</ns3:atemp>
          </ns3:TrackPointExtension>
        </extensions>
      </trkpt>
      <trkpt lat="42.54727500490844249725341796875" lon="20.14214892871677875518798828125">
        <ele>2071.60009765625</ele>
        <time>2026-06-20T07:44:46.000Z</time>
        <extensions>
          <ns3:TrackPointExtension>
            <ns3:atemp>19.0</ns3:atemp>
          </ns3:TrackPointExtension>
        </extensions>
      </trkpt>
      <trkpt lat="42.547263689339160919189453125" lon="20.14216862618923187255859375">
        <ele>2071.60009765625</ele>
        <time>2026-06-20T07:44:47.000Z</time>
        <extensions>
          <ns3:TrackPointExtension>
            <ns3:atemp>19.0</ns3:atemp>
          </ns3:TrackPointExtension>
        </extensions>
      </trkpt>
      <trkpt lat="42.54725170321762561798095703125" lon="20.14218178577721118927001953125">
        <ele>2071.60009765625</ele>
        <time>2026-06-20T07:44:48.000Z</time>
        <extensions>
          <ns3:TrackPointExtension>
            <ns3:atemp>19.0</ns3:atemp>
          </ns3:TrackPointExtension>
        </extensions>
      </trkpt>
      <trkpt lat="42.54723292775452136993408203125" lon="20.14219486154615879058837890625">
        <ele>2071.60009765625</ele>
        <time>2026-06-20T07:44:49.000Z</time>
        <extensions>
          <ns3:TrackPointExtension>
            <ns3:atemp>19.0</ns3:atemp>
          </ns3:TrackPointExtension>
        </extensions>
      </trkpt>
      <trkpt lat="42.54721767269074916839599609375" lon="20.14221196062862873077392578125">
        <ele>2071.39990234375</ele>
        <time>2026-06-20T07:44:50.000Z</time>
        <extensions>
          <ns3:TrackPointExtension>
            <ns3:atemp>19.0</ns3:atemp>
          </ns3:TrackPointExtension>
        </extensions>
      </trkpt>
      <trkpt lat="42.547208704054355621337890625" lon="20.1422294788062572479248046875">
        <ele>2071.39990234375</ele>
        <time>2026-06-20T07:44:51.000Z</time>
        <extensions>
          <ns3:TrackPointExtension>
            <ns3:atemp>19.0</ns3:atemp>
          </ns3:TrackPointExtension>
        </extensions>
      </trkpt>
      <trkpt lat="42.54720174707472324371337890625" lon="20.14225303195416927337646484375">
        <ele>2071.39990234375</ele>
        <time>2026-06-20T07:44:52.000Z</time>
        <extensions>
          <ns3:TrackPointExtension>
            <ns3:atemp>19.0</ns3:atemp>
          </ns3:TrackPointExtension>
        </extensions>
      </trkpt>
      <trkpt lat="42.547190599143505096435546875" lon="20.14228186570107936859130859375">
        <ele>2071.39990234375</ele>
        <time>2026-06-20T07:44:53.000Z</time>
        <extensions>
          <ns3:TrackPointExtension>
            <ns3:atemp>19.0</ns3:atemp>
          </ns3:TrackPointExtension>
        </extensions>
      </trkpt>
      <trkpt lat="42.5471830554306507110595703125" lon="20.14231078326702117919921875">
        <ele>2071.39990234375</ele>
        <time>2026-06-20T07:44:54.000Z</time>
        <extensions>
          <ns3:TrackPointExtension>
            <ns3:atemp>19.0</ns3:atemp>
          </ns3:TrackPointExtension>
        </extensions>
      </trkpt>
      <trkpt lat="42.54717458970844745635986328125" lon="20.142338275909423828125">
        <ele>2071.60009765625</ele>
        <time>2026-06-20T07:44:55.000Z</time>
        <extensions>
          <ns3:TrackPointExtension>
            <ns3:atemp>19.0</ns3:atemp>
          </ns3:TrackPointExtension>
        </extensions>
      </trkpt>
      <trkpt lat="42.54716587252914905548095703125" lon="20.142358727753162384033203125">
        <ele>2071.800048828125</ele>
        <time>2026-06-20T07:44:56.000Z</time>
        <extensions>
          <ns3:TrackPointExtension>
            <ns3:atemp>19.0</ns3:atemp>
          </ns3:TrackPointExtension>
        </extensions>
      </trkpt>
      <trkpt lat="42.54715229384601116180419921875" lon="20.14237272553145885467529296875">
        <ele>2072.199951171875</ele>
        <time>2026-06-20T07:44:57.000Z</time>
        <extensions>
          <ns3:TrackPointExtension>
            <ns3:atemp>19.0</ns3:atemp>
          </ns3:TrackPointExtension>
        </extensions>
      </trkpt>
      <trkpt lat="42.5471367873251438140869140625" lon="20.14238647185266017913818359375">
        <ele>2072.800048828125</ele>
        <time>2026-06-20T07:44:58.000Z</time>
        <extensions>
          <ns3:TrackPointExtension>
            <ns3:atemp>19.0</ns3:atemp>
          </ns3:TrackPointExtension>
        </extensions>
      </trkpt>
      <trkpt lat="42.54712262190878391265869140625" lon="20.14240893535315990447998046875">
        <ele>2073.199951171875</ele>
        <time>2026-06-20T07:44:59.000Z</time>
        <extensions>
          <ns3:TrackPointExtension>
            <ns3:atemp>19.0</ns3:atemp>
          </ns3:TrackPointExtension>
        </extensions>
      </trkpt>
      <trkpt lat="42.54711088724434375762939453125" lon="20.1424343325197696685791015625">
        <ele>2073.60009765625</ele>
        <time>2026-06-20T07:45:00.000Z</time>
        <extensions>
          <ns3:TrackPointExtension>
            <ns3:atemp>19.0</ns3:atemp>
          </ns3:TrackPointExtension>
        </extensions>
      </trkpt>
      <trkpt lat="42.547105439007282257080078125" lon="20.142461992800235748291015625">
        <ele>2074</ele>
        <time>2026-06-20T07:45:01.000Z</time>
        <extensions>
          <ns3:TrackPointExtension>
            <ns3:atemp>19.0</ns3:atemp>
          </ns3:TrackPointExtension>
        </extensions>
      </trkpt>
      <trkpt lat="42.54710351116955280303955078125" lon="20.14248722232878208160400390625">
        <ele>2074.199951171875</ele>
        <time>2026-06-20T07:45:02.000Z</time>
        <extensions>
          <ns3:TrackPointExtension>
            <ns3:atemp>19.0</ns3:atemp>
          </ns3:TrackPointExtension>
        </extensions>
      </trkpt>
      <trkpt lat="42.54709965549409389495849609375" lon="20.14250499196350574493408203125">
        <ele>2074.60009765625</ele>
        <time>2026-06-20T07:45:03.000Z</time>
        <extensions>
          <ns3:TrackPointExtension>
            <ns3:atemp>19.0</ns3:atemp>
          </ns3:TrackPointExtension>
        </extensions>
      </trkpt>
      <trkpt lat="42.547098062932491302490234375" lon="20.14252527616918087005615234375">
        <ele>2075</ele>
        <time>2026-06-20T07:45:04.000Z</time>
        <extensions>
          <ns3:TrackPointExtension>
            <ns3:atemp>19.0</ns3:atemp>
          </ns3:TrackPointExtension>
        </extensions>
      </trkpt>
      <trkpt lat="42.54709244705736637115478515625" lon="20.142548494040966033935546875">
        <ele>2075.39990234375</ele>
        <time>2026-06-20T07:45:05.000Z</time>
        <extensions>
          <ns3:TrackPointExtension>
            <ns3:atemp>19.0</ns3:atemp>
          </ns3:TrackPointExtension>
        </extensions>
      </trkpt>
      <trkpt lat="42.54708892665803432464599609375" lon="20.14257338829338550567626953125">
        <ele>2075.800048828125</ele>
        <time>2026-06-20T07:45:06.000Z</time>
        <extensions>
          <ns3:TrackPointExtension>
            <ns3:atemp>19.0</ns3:atemp>
          </ns3:TrackPointExtension>
        </extensions>
      </trkpt>
      <trkpt lat="42.54708725027740001678466796875" lon="20.142603479325771331787109375">
        <ele>2076</ele>
        <time>2026-06-20T07:45:07.000Z</time>
        <extensions>
          <ns3:TrackPointExtension>
            <ns3:atemp>19.0</ns3:atemp>
          </ns3:TrackPointExtension>
        </extensions>
      </trkpt>
      <trkpt lat="42.54708574153482913970947265625" lon="20.14262636192142963409423828125">
        <ele>2076.199951171875</ele>
        <time>2026-06-20T07:45:08.000Z</time>
        <extensions>
          <ns3:TrackPointExtension>
            <ns3:atemp>19.0</ns3:atemp>
          </ns3:TrackPointExtension>
        </extensions>
      </trkpt>
      <trkpt lat="42.54708641208708286285400390625" lon="20.14264211989939212799072265625">
        <ele>2076.60009765625</ele>
        <time>2026-06-20T07:45:09.000Z</time>
        <extensions>
          <ns3:TrackPointExtension>
            <ns3:atemp>19.0</ns3:atemp>
          </ns3:TrackPointExtension>
        </extensions>
      </trkpt>
      <trkpt lat="42.54708238877356052398681640625" lon="20.14265452511608600616455078125">
        <ele>2076.800048828125</ele>
        <time>2026-06-20T07:45:10.000Z</time>
        <extensions>
          <ns3:TrackPointExtension>
            <ns3:atemp>19.0</ns3:atemp>
          </ns3:TrackPointExtension>
        </extensions>
      </trkpt>
      <trkpt lat="42.5470797903835773468017578125" lon="20.14267279766499996185302734375">
        <ele>2077.199951171875</ele>
        <time>2026-06-20T07:45:11.000Z</time>
        <extensions>
          <ns3:TrackPointExtension>
            <ns3:atemp>19.0</ns3:atemp>
          </ns3:TrackPointExtension>
        </extensions>
      </trkpt>
      <trkpt lat="42.5470764376223087310791015625" lon="20.14269568026065826416015625">
        <ele>2077.39990234375</ele>
        <time>2026-06-20T07:45:12.000Z</time>
        <extensions>
          <ns3:TrackPointExtension>
            <ns3:atemp>19.0</ns3:atemp>
          </ns3:TrackPointExtension>
        </extensions>
      </trkpt>
      <trkpt lat="42.5470809638500213623046875" lon="20.14271856285631656646728515625">
        <ele>2077.800048828125</ele>
        <time>2026-06-20T07:45:13.000Z</time>
        <extensions>
          <ns3:TrackPointExtension>
            <ns3:atemp>19.0</ns3:atemp>
          </ns3:TrackPointExtension>
        </extensions>
      </trkpt>
      <trkpt lat="42.5470811314880847930908203125" lon="20.14273432083427906036376953125">
        <ele>2078</ele>
        <time>2026-06-20T07:45:14.000Z</time>
        <extensions>
          <ns3:TrackPointExtension>
            <ns3:atemp>19.0</ns3:atemp>
          </ns3:TrackPointExtension>
        </extensions>
      </trkpt>
      <trkpt lat="42.547076605260372161865234375" lon="20.14275477267801761627197265625">
        <ele>2078.199951171875</ele>
        <time>2026-06-20T07:45:15.000Z</time>
        <extensions>
          <ns3:TrackPointExtension>
            <ns3:atemp>19.0</ns3:atemp>
          </ns3:TrackPointExtension>
        </extensions>
      </trkpt>
      <trkpt lat="42.5470734201371669769287109375" lon="20.14276935718953609466552734375">
        <ele>2078.60009765625</ele>
        <time>2026-06-20T07:45:16.000Z</time>
        <extensions>
          <ns3:TrackPointExtension>
            <ns3:atemp>19.0</ns3:atemp>
          </ns3:TrackPointExtension>
        </extensions>
      </trkpt>
      <trkpt lat="42.54706554114818572998046875" lon="20.142787210643291473388671875">
        <ele>2078.800048828125</ele>
        <time>2026-06-20T07:45:17.000Z</time>
        <extensions>
          <ns3:TrackPointExtension>
            <ns3:atemp>19.0</ns3:atemp>
          </ns3:TrackPointExtension>
        </extensions>
      </trkpt>
      <trkpt lat="42.54705405794084072113037109375" lon="20.1428061537444591522216796875">
        <ele>2079</ele>
        <time>2026-06-20T07:45:18.000Z</time>
        <extensions>
          <ns3:TrackPointExtension>
            <ns3:atemp>19.0</ns3:atemp>
          </ns3:TrackPointExtension>
        </extensions>
      </trkpt>
      <trkpt lat="42.54704349674284458160400390625" lon="20.1428225822746753692626953125">
        <ele>2079.199951171875</ele>
        <time>2026-06-20T07:45:19.000Z</time>
        <extensions>
          <ns3:TrackPointExtension>
            <ns3:atemp>19.0</ns3:atemp>
          </ns3:TrackPointExtension>
        </extensions>
      </trkpt>
      <trkpt lat="42.54703469574451446533203125" lon="20.1428443752229213714599609375">
        <ele>2079.39990234375</ele>
        <time>2026-06-20T07:45:20.000Z</time>
        <extensions>
          <ns3:TrackPointExtension>
            <ns3:atemp>19.0</ns3:atemp>
          </ns3:TrackPointExtension>
        </extensions>
      </trkpt>
      <trkpt lat="42.54702304489910602569580078125" lon="20.142864324152469635009765625">
        <ele>2079.39990234375</ele>
        <time>2026-06-20T07:45:21.000Z</time>
        <extensions>
          <ns3:TrackPointExtension>
            <ns3:atemp>19.0</ns3:atemp>
          </ns3:TrackPointExtension>
        </extensions>
      </trkpt>
      <trkpt lat="42.5470120646059513092041015625" lon="20.142883099615573883056640625">
        <ele>2079.60009765625</ele>
        <time>2026-06-20T07:45:22.000Z</time>
        <extensions>
          <ns3:TrackPointExtension>
            <ns3:atemp>19.0</ns3:atemp>
          </ns3:TrackPointExtension>
        </extensions>
      </trkpt>
      <trkpt lat="42.54700007848441600799560546875" lon="20.1429007016122341156005859375">
        <ele>2079.60009765625</ele>
        <time>2026-06-20T07:45:23.000Z</time>
        <extensions>
          <ns3:TrackPointExtension>
            <ns3:atemp>19.0</ns3:atemp>
          </ns3:TrackPointExtension>
        </extensions>
      </trkpt>
      <trkpt lat="42.54698784090578556060791015625" lon="20.142917968332767486572265625">
        <ele>2079.60009765625</ele>
        <time>2026-06-20T07:45:24.000Z</time>
        <extensions>
          <ns3:TrackPointExtension>
            <ns3:atemp>19.0</ns3:atemp>
          </ns3:TrackPointExtension>
        </extensions>
      </trkpt>
      <trkpt lat="42.54697593860328197479248046875" lon="20.142932049930095672607421875">
        <ele>2079.800048828125</ele>
        <time>2026-06-20T07:45:25.000Z</time>
        <extensions>
          <ns3:TrackPointExtension>
            <ns3:atemp>19.0</ns3:atemp>
          </ns3:TrackPointExtension>
        </extensions>
      </trkpt>
      <trkpt lat="42.5469674728810787200927734375" lon="20.14294588007032871246337890625">
        <ele>2080</ele>
        <time>2026-06-20T07:45:26.000Z</time>
        <extensions>
          <ns3:TrackPointExtension>
            <ns3:atemp>19.0</ns3:atemp>
          </ns3:TrackPointExtension>
        </extensions>
      </trkpt>
      <trkpt lat="42.54695825278759002685546875" lon="20.14296515844762325286865234375">
        <ele>2080.199951171875</ele>
        <time>2026-06-20T07:45:27.000Z</time>
        <extensions>
          <ns3:TrackPointExtension>
            <ns3:atemp>19.0</ns3:atemp>
          </ns3:TrackPointExtension>
        </extensions>
      </trkpt>
      <trkpt lat="42.54694752395153045654296875" lon="20.142983682453632354736328125">
        <ele>2080.199951171875</ele>
        <time>2026-06-20T07:45:28.000Z</time>
        <extensions>
          <ns3:TrackPointExtension>
            <ns3:atemp>19.0</ns3:atemp>
          </ns3:TrackPointExtension>
        </extensions>
      </trkpt>
      <trkpt lat="42.546940147876739501953125" lon="20.1430002786219120025634765625">
        <ele>2080.39990234375</ele>
        <time>2026-06-20T07:45:29.000Z</time>
        <extensions>
          <ns3:TrackPointExtension>
            <ns3:atemp>19.0</ns3:atemp>
          </ns3:TrackPointExtension>
        </extensions>
      </trkpt>
      <trkpt lat="42.54693687893450260162353515625" lon="20.1430101692676544189453125">
        <ele>2080.39990234375</ele>
        <time>2026-06-20T07:45:30.000Z</time>
        <extensions>
          <ns3:TrackPointExtension>
            <ns3:atemp>19.0</ns3:atemp>
          </ns3:TrackPointExtension>
        </extensions>
      </trkpt>
      <trkpt lat="42.5469352863729000091552734375" lon="20.1430157013237476348876953125">
        <ele>2080.60009765625</ele>
        <time>2026-06-20T07:45:31.000Z</time>
        <extensions>
          <ns3:TrackPointExtension>
            <ns3:atemp>19.0</ns3:atemp>
          </ns3:TrackPointExtension>
        </extensions>
      </trkpt>
      <trkpt lat="42.54693520255386829376220703125" lon="20.1430157013237476348876953125">
        <ele>2080.60009765625</ele>
        <time>2026-06-20T07:45:32.000Z</time>
        <extensions>
          <ns3:TrackPointExtension>
            <ns3:atemp>19.0</ns3:atemp>
          </ns3:TrackPointExtension>
        </extensions>
      </trkpt>
      <trkpt lat="42.54693520255386829376220703125" lon="20.1430157013237476348876953125">
        <ele>2080.60009765625</ele>
        <time>2026-06-20T07:45:33.000Z</time>
        <extensions>
          <ns3:TrackPointExtension>
            <ns3:atemp>19.0</ns3:atemp>
          </ns3:TrackPointExtension>
        </extensions>
      </trkpt>
      <trkpt lat="42.54693503491580486297607421875" lon="20.1430157013237476348876953125">
        <ele>2080.60009765625</ele>
        <time>2026-06-20T07:45:34.000Z</time>
        <extensions>
          <ns3:TrackPointExtension>
            <ns3:atemp>19.0</ns3:atemp>
          </ns3:TrackPointExtension>
        </extensions>
      </trkpt>
      <trkpt lat="42.54692983813583850860595703125" lon="20.1430203951895236968994140625">
        <ele>2080.60009765625</ele>
        <time>2026-06-20T07:45:35.000Z</time>
        <extensions>
          <ns3:TrackPointExtension>
            <ns3:atemp>19.0</ns3:atemp>
          </ns3:TrackPointExtension>
        </extensions>
      </trkpt>
      <trkpt lat="42.54692464135587215423583984375" lon="20.143024921417236328125">
        <ele>2080.60009765625</ele>
        <time>2026-06-20T07:45:36.000Z</time>
        <extensions>
          <ns3:TrackPointExtension>
            <ns3:atemp>19.0</ns3:atemp>
          </ns3:TrackPointExtension>
        </extensions>
      </trkpt>
      <trkpt lat="42.54692547954618930816650390625" lon="20.1430311240255832672119140625">
        <ele>2080.60009765625</ele>
        <time>2026-06-20T07:45:37.000Z</time>
        <extensions>
          <ns3:TrackPointExtension>
            <ns3:atemp>19.0</ns3:atemp>
          </ns3:TrackPointExtension>
        </extensions>
      </trkpt>
      <trkpt lat="42.54692447371780872344970703125" lon="20.1430388353765010833740234375">
        <ele>2080.60009765625</ele>
        <time>2026-06-20T07:45:38.000Z</time>
        <extensions>
          <ns3:TrackPointExtension>
            <ns3:atemp>19.0</ns3:atemp>
          </ns3:TrackPointExtension>
        </extensions>
      </trkpt>
      <trkpt lat="42.5469225458800792694091796875" lon="20.143044702708721160888671875">
        <ele>2080.60009765625</ele>
        <time>2026-06-20T07:45:39.000Z</time>
        <extensions>
          <ns3:TrackPointExtension>
            <ns3:atemp>19.0</ns3:atemp>
          </ns3:TrackPointExtension>
        </extensions>
      </trkpt>
      <trkpt lat="42.54692011512815952301025390625" lon="20.1430411823093891143798828125">
        <ele>2080.60009765625</ele>
        <time>2026-06-20T07:45:40.000Z</time>
        <extensions>
          <ns3:TrackPointExtension>
            <ns3:atemp>19.0</ns3:atemp>
          </ns3:TrackPointExtension>
        </extensions>
      </trkpt>
      <trkpt lat="42.5469200313091278076171875" lon="20.1430411823093891143798828125">
        <ele>2080.60009765625</ele>
        <time>2026-06-20T07:45:41.000Z</time>
        <extensions>
          <ns3:TrackPointExtension>
            <ns3:atemp>19.0</ns3:atemp>
          </ns3:TrackPointExtension>
        </extensions>
      </trkpt>
      <trkpt lat="42.5469198636710643768310546875" lon="20.14304109849035739898681640625">
        <ele>2080.60009765625</ele>
        <time>2026-06-20T07:45:42.000Z</time>
        <extensions>
          <ns3:TrackPointExtension>
            <ns3:atemp>19.0</ns3:atemp>
          </ns3:TrackPointExtension>
        </extensions>
      </trkpt>
      <trkpt lat="42.5469121523201465606689453125" lon="20.14304713346064090728759765625">
        <ele>2080.60009765625</ele>
        <time>2026-06-20T07:45:43.000Z</time>
        <extensions>
          <ns3:TrackPointExtension>
            <ns3:atemp>19.0</ns3:atemp>
          </ns3:TrackPointExtension>
        </extensions>
      </trkpt>
      <trkpt lat="42.54690863192081451416015625" lon="20.14305417425930500030517578125">
        <ele>2080.60009765625</ele>
        <time>2026-06-20T07:45:44.000Z</time>
        <extensions>
          <ns3:TrackPointExtension>
            <ns3:atemp>19.0</ns3:atemp>
          </ns3:TrackPointExtension>
        </extensions>
      </trkpt>
      <trkpt lat="42.546908296644687652587890625" lon="20.1430582813918590545654296875">
        <ele>2080.60009765625</ele>
        <time>2026-06-20T07:45:45.000Z</time>
        <extensions>
          <ns3:TrackPointExtension>
            <ns3:atemp>19.0</ns3:atemp>
          </ns3:TrackPointExtension>
        </extensions>
      </trkpt>
      <trkpt lat="42.54690821282565593719482421875" lon="20.1430582813918590545654296875">
        <ele>2080.60009765625</ele>
        <time>2026-06-20T07:45:46.000Z</time>
        <extensions>
          <ns3:TrackPointExtension>
            <ns3:atemp>19.0</ns3:atemp>
          </ns3:TrackPointExtension>
        </extensions>
      </trkpt>
      <trkpt lat="42.546908296644687652587890625" lon="20.14306339435279369354248046875">
        <ele>2080.800048828125</ele>
        <time>2026-06-20T07:45:47.000Z</time>
        <extensions>
          <ns3:TrackPointExtension>
            <ns3:atemp>19.0</ns3:atemp>
          </ns3:TrackPointExtension>
        </extensions>
      </trkpt>
      <trkpt lat="42.546908296644687652587890625" lon="20.14306339435279369354248046875">
        <ele>2080.800048828125</ele>
        <time>2026-06-20T07:45:48.000Z</time>
        <extensions>
          <ns3:TrackPointExtension>
            <ns3:atemp>19.0</ns3:atemp>
          </ns3:TrackPointExtension>
        </extensions>
      </trkpt>
      <trkpt lat="42.546908296644687652587890625" lon="20.14306339435279369354248046875">
        <ele>2080.800048828125</ele>
        <time>2026-06-20T07:45:49.000Z</time>
        <extensions>
          <ns3:TrackPointExtension>
            <ns3:atemp>19.0</ns3:atemp>
          </ns3:TrackPointExtension>
        </extensions>
      </trkpt>
      <trkpt lat="42.546908296644687652587890625" lon="20.14306339435279369354248046875">
        <ele>2081</ele>
        <time>2026-06-20T07:45:50.000Z</time>
        <extensions>
          <ns3:TrackPointExtension>
            <ns3:atemp>19.0</ns3:atemp>
          </ns3:TrackPointExtension>
        </extensions>
      </trkpt>
      <trkpt lat="42.546908296644687652587890625" lon="20.14306339435279369354248046875">
        <ele>2081</ele>
        <time>2026-06-20T07:45:51.000Z</time>
        <extensions>
          <ns3:TrackPointExtension>
            <ns3:atemp>19.0</ns3:atemp>
          </ns3:TrackPointExtension>
        </extensions>
      </trkpt>
      <trkpt lat="42.54690821282565593719482421875" lon="20.14306356199085712432861328125">
        <ele>2081.199951171875</ele>
        <time>2026-06-20T07:45:52.000Z</time>
        <extensions>
          <ns3:TrackPointExtension>
            <ns3:atemp>19.0</ns3:atemp>
          </ns3:TrackPointExtension>
        </extensions>
      </trkpt>
      <trkpt lat="42.5469093024730682373046875" lon="20.14307521283626556396484375">
        <ele>2081.199951171875</ele>
        <time>2026-06-20T07:45:53.000Z</time>
        <extensions>
          <ns3:TrackPointExtension>
            <ns3:atemp>19.0</ns3:atemp>
          </ns3:TrackPointExtension>
        </extensions>
      </trkpt>
      <trkpt lat="42.54690737463533878326416015625" lon="20.1430824212729930877685546875">
        <ele>2081.39990234375</ele>
        <time>2026-06-20T07:45:54.000Z</time>
        <extensions>
          <ns3:TrackPointExtension>
            <ns3:atemp>19.0</ns3:atemp>
          </ns3:TrackPointExtension>
        </extensions>
      </trkpt>
      <trkpt lat="42.54690729081630706787109375" lon="20.14308250509202480316162109375">
        <ele>2081.39990234375</ele>
        <time>2026-06-20T07:45:55.000Z</time>
        <extensions>
          <ns3:TrackPointExtension>
            <ns3:atemp>19.0</ns3:atemp>
          </ns3:TrackPointExtension>
        </extensions>
      </trkpt>
      <trkpt lat="42.54690729081630706787109375" lon="20.14308250509202480316162109375">
        <ele>2081.39990234375</ele>
        <time>2026-06-20T07:45:56.000Z</time>
        <extensions>
          <ns3:TrackPointExtension>
            <ns3:atemp>19.0</ns3:atemp>
          </ns3:TrackPointExtension>
        </extensions>
      </trkpt>
      <trkpt lat="42.54690729081630706787109375" lon="20.14308250509202480316162109375">
        <ele>2081.60009765625</ele>
        <time>2026-06-20T07:45:57.000Z</time>
        <extensions>
          <ns3:TrackPointExtension>
            <ns3:atemp>19.0</ns3:atemp>
          </ns3:TrackPointExtension>
        </extensions>
      </trkpt>
      <trkpt lat="42.5469067879021167755126953125" lon="20.1430824212729930877685546875">
        <ele>2081.60009765625</ele>
        <time>2026-06-20T07:45:58.000Z</time>
        <extensions>
          <ns3:TrackPointExtension>
            <ns3:atemp>19.0</ns3:atemp>
          </ns3:TrackPointExtension>
        </extensions>
      </trkpt>
      <trkpt lat="42.5469017587602138519287109375" lon="20.14308719895780086517333984375">
        <ele>2081.60009765625</ele>
        <time>2026-06-20T07:45:59.000Z</time>
        <extensions>
          <ns3:TrackPointExtension>
            <ns3:atemp>19.0</ns3:atemp>
          </ns3:TrackPointExtension>
        </extensions>
      </trkpt>
      <trkpt lat="42.5468963943421840667724609375" lon="20.14308862388134002685546875">
        <ele>2081.60009765625</ele>
        <time>2026-06-20T07:46:00.000Z</time>
        <extensions>
          <ns3:TrackPointExtension>
            <ns3:atemp>19.0</ns3:atemp>
          </ns3:TrackPointExtension>
        </extensions>
      </trkpt>
      <trkpt lat="42.54690729081630706787109375" lon="20.14308250509202480316162109375">
        <ele>2081.60009765625</ele>
        <time>2026-06-20T07:46:01.000Z</time>
        <extensions>
          <ns3:TrackPointExtension>
            <ns3:atemp>19.0</ns3:atemp>
          </ns3:TrackPointExtension>
        </extensions>
      </trkpt>
      <trkpt lat="42.54690729081630706787109375" lon="20.14308250509202480316162109375">
        <ele>2081.60009765625</ele>
        <time>2026-06-20T07:46:02.000Z</time>
        <extensions>
          <ns3:TrackPointExtension>
            <ns3:atemp>19.0</ns3:atemp>
          </ns3:TrackPointExtension>
        </extensions>
      </trkpt>
      <trkpt lat="42.54690729081630706787109375" lon="20.14308250509202480316162109375">
        <ele>2081.60009765625</ele>
        <time>2026-06-20T07:46:03.000Z</time>
        <extensions>
          <ns3:TrackPointExtension>
            <ns3:atemp>19.0</ns3:atemp>
          </ns3:TrackPointExtension>
        </extensions>
      </trkpt>
      <trkpt lat="42.54690729081630706787109375" lon="20.14308250509202480316162109375">
        <ele>2081.60009765625</ele>
        <time>2026-06-20T07:46:04.000Z</time>
        <extensions>
          <ns3:TrackPointExtension>
            <ns3:atemp>19.0</ns3:atemp>
          </ns3:TrackPointExtension>
        </extensions>
      </trkpt>
      <trkpt lat="42.54690729081630706787109375" lon="20.14308250509202480316162109375">
        <ele>2081.60009765625</ele>
        <time>2026-06-20T07:46:05.000Z</time>
        <extensions>
          <ns3:TrackPointExtension>
            <ns3:atemp>19.0</ns3:atemp>
          </ns3:TrackPointExtension>
        </extensions>
      </trkpt>
      <trkpt lat="42.54690729081630706787109375" lon="20.14308250509202480316162109375">
        <ele>2081.60009765625</ele>
        <time>2026-06-20T07:46:06.000Z</time>
        <extensions>
          <ns3:TrackPointExtension>
            <ns3:atemp>19.0</ns3:atemp>
          </ns3:TrackPointExtension>
        </extensions>
      </trkpt>
      <trkpt lat="42.54690729081630706787109375" lon="20.14308250509202480316162109375">
        <ele>2081.60009765625</ele>
        <time>2026-06-20T07:46:07.000Z</time>
        <extensions>
          <ns3:TrackPointExtension>
            <ns3:atemp>19.0</ns3:atemp>
          </ns3:TrackPointExtension>
        </extensions>
      </trkpt>
      <trkpt lat="42.54690729081630706787109375" lon="20.14308250509202480316162109375">
        <ele>2081.60009765625</ele>
        <time>2026-06-20T07:46:08.000Z</time>
        <extensions>
          <ns3:TrackPointExtension>
            <ns3:atemp>19.0</ns3:atemp>
          </ns3:TrackPointExtension>
        </extensions>
      </trkpt>
      <trkpt lat="42.54690729081630706787109375" lon="20.14308250509202480316162109375">
        <ele>2081.800048828125</ele>
        <time>2026-06-20T07:46:09.000Z</time>
        <extensions>
          <ns3:TrackPointExtension>
            <ns3:atemp>19.0</ns3:atemp>
          </ns3:TrackPointExtension>
        </extensions>
      </trkpt>
      <trkpt lat="42.54690729081630706787109375" lon="20.14308250509202480316162109375">
        <ele>2081.800048828125</ele>
        <time>2026-06-20T07:46:10.000Z</time>
        <extensions>
          <ns3:TrackPointExtension>
            <ns3:atemp>19.0</ns3:atemp>
          </ns3:TrackPointExtension>
        </extensions>
      </trkpt>
      <trkpt lat="42.54690729081630706787109375" lon="20.14308250509202480316162109375">
        <ele>2081.800048828125</ele>
        <time>2026-06-20T07:46:11.000Z</time>
        <extensions>
          <ns3:TrackPointExtension>
            <ns3:atemp>19.0</ns3:atemp>
          </ns3:TrackPointExtension>
        </extensions>
      </trkpt>
      <trkpt lat="42.54690729081630706787109375" lon="20.14308250509202480316162109375">
        <ele>2081.800048828125</ele>
        <time>2026-06-20T07:46:12.000Z</time>
        <extensions>
          <ns3:TrackPointExtension>
            <ns3:atemp>19.0</ns3:atemp>
          </ns3:TrackPointExtension>
        </extensions>
      </trkpt>
      <trkpt lat="42.54690729081630706787109375" lon="20.14308250509202480316162109375">
        <ele>2082</ele>
        <time>2026-06-20T07:46:13.000Z</time>
        <extensions>
          <ns3:TrackPointExtension>
            <ns3:atemp>19.0</ns3:atemp>
          </ns3:TrackPointExtension>
        </extensions>
      </trkpt>
      <trkpt lat="42.54690729081630706787109375" lon="20.14308250509202480316162109375">
        <ele>2082</ele>
        <time>2026-06-20T07:46:14.000Z</time>
        <extensions>
          <ns3:TrackPointExtension>
            <ns3:atemp>19.0</ns3:atemp>
          </ns3:TrackPointExtension>
        </extensions>
      </trkpt>
      <trkpt lat="42.54690729081630706787109375" lon="20.14308250509202480316162109375">
        <ele>2082</ele>
        <time>2026-06-20T07:46:15.000Z</time>
        <extensions>
          <ns3:TrackPointExtension>
            <ns3:atemp>19.0</ns3:atemp>
          </ns3:TrackPointExtension>
        </extensions>
      </trkpt>
      <trkpt lat="42.54690729081630706787109375" lon="20.14308250509202480316162109375">
        <ele>2082</ele>
        <time>2026-06-20T07:46:16.000Z</time>
        <extensions>
          <ns3:TrackPointExtension>
            <ns3:atemp>19.0</ns3:atemp>
          </ns3:TrackPointExtension>
        </extensions>
      </trkpt>
      <trkpt lat="42.54690729081630706787109375" lon="20.14308250509202480316162109375">
        <ele>2082</ele>
        <time>2026-06-20T07:46:17.000Z</time>
        <extensions>
          <ns3:TrackPointExtension>
            <ns3:atemp>19.0</ns3:atemp>
          </ns3:TrackPointExtension>
        </extensions>
      </trkpt>
      <trkpt lat="42.54689446650445461273193359375" lon="20.143086947500705718994140625">
        <ele>2082</ele>
        <time>2026-06-20T07:46:18.000Z</time>
        <extensions>
          <ns3:TrackPointExtension>
            <ns3:atemp>19.0</ns3:atemp>
          </ns3:TrackPointExtension>
        </extensions>
      </trkpt>
      <trkpt lat="42.5468937121331691741943359375" lon="20.143102370202541351318359375">
        <ele>2082.199951171875</ele>
        <time>2026-06-20T07:46:19.000Z</time>
        <extensions>
          <ns3:TrackPointExtension>
            <ns3:atemp>19.0</ns3:atemp>
          </ns3:TrackPointExtension>
        </extensions>
      </trkpt>
      <trkpt lat="42.54689178429543972015380859375" lon="20.1431079022586345672607421875">
        <ele>2082.199951171875</ele>
        <time>2026-06-20T07:46:20.000Z</time>
        <extensions>
          <ns3:TrackPointExtension>
            <ns3:atemp>19.0</ns3:atemp>
          </ns3:TrackPointExtension>
        </extensions>
      </trkpt>
      <trkpt lat="42.5468917004764080047607421875" lon="20.14310798607766628265380859375">
        <ele>2082.39990234375</ele>
        <time>2026-06-20T07:46:21.000Z</time>
        <extensions>
          <ns3:TrackPointExtension>
            <ns3:atemp>19.0</ns3:atemp>
          </ns3:TrackPointExtension>
        </extensions>
      </trkpt>
      <trkpt lat="42.5468870066106319427490234375" lon="20.1431132666766643524169921875">
        <ele>2082.39990234375</ele>
        <time>2026-06-20T07:46:22.000Z</time>
        <extensions>
          <ns3:TrackPointExtension>
            <ns3:atemp>19.0</ns3:atemp>
          </ns3:TrackPointExtension>
        </extensions>
      </trkpt>
      <trkpt lat="42.54688558168709278106689453125" lon="20.14311636798083782196044921875">
        <ele>2082.60009765625</ele>
        <time>2026-06-20T07:46:23.000Z</time>
        <extensions>
          <ns3:TrackPointExtension>
            <ns3:atemp>19.0</ns3:atemp>
          </ns3:TrackPointExtension>
        </extensions>
      </trkpt>
      <trkpt lat="42.546885497868061065673828125" lon="20.143116451799869537353515625">
        <ele>2082.60009765625</ele>
        <time>2026-06-20T07:46:24.000Z</time>
        <extensions>
          <ns3:TrackPointExtension>
            <ns3:atemp>19.0</ns3:atemp>
          </ns3:TrackPointExtension>
        </extensions>
      </trkpt>
      <trkpt lat="42.5468816421926021575927734375" lon="20.1431266777217388153076171875">
        <ele>2082.800048828125</ele>
        <time>2026-06-20T07:46:25.000Z</time>
        <extensions>
          <ns3:TrackPointExtension>
            <ns3:atemp>19.0</ns3:atemp>
          </ns3:TrackPointExtension>
        </extensions>
      </trkpt>
      <trkpt lat="42.54687971435487270355224609375" lon="20.14313380233943462371826171875">
        <ele>2082.800048828125</ele>
        <time>2026-06-20T07:46:26.000Z</time>
        <extensions>
          <ns3:TrackPointExtension>
            <ns3:atemp>19.0</ns3:atemp>
          </ns3:TrackPointExtension>
        </extensions>
      </trkpt>
      <trkpt lat="42.5468796305358409881591796875" lon="20.14313396997749805450439453125">
        <ele>2083</ele>
        <time>2026-06-20T07:46:27.000Z</time>
        <extensions>
          <ns3:TrackPointExtension>
            <ns3:atemp>19.0</ns3:atemp>
          </ns3:TrackPointExtension>
        </extensions>
      </trkpt>
      <trkpt lat="42.54687954671680927276611328125" lon="20.14313413761556148529052734375">
        <ele>2083</ele>
        <time>2026-06-20T07:46:28.000Z</time>
        <extensions>
          <ns3:TrackPointExtension>
            <ns3:atemp>19.0</ns3:atemp>
          </ns3:TrackPointExtension>
        </extensions>
      </trkpt>
      <trkpt lat="42.5468756072223186492919921875" lon="20.14314226806163787841796875">
        <ele>2083.199951171875</ele>
        <time>2026-06-20T07:46:29.000Z</time>
        <extensions>
          <ns3:TrackPointExtension>
            <ns3:atemp>19.0</ns3:atemp>
          </ns3:TrackPointExtension>
        </extensions>
      </trkpt>
      <trkpt lat="42.54687166772782802581787109375" lon="20.14315106905996799468994140625">
        <ele>2083.199951171875</ele>
        <time>2026-06-20T07:46:30.000Z</time>
        <extensions>
          <ns3:TrackPointExtension>
            <ns3:atemp>19.0</ns3:atemp>
          </ns3:TrackPointExtension>
        </extensions>
      </trkpt>
      <trkpt lat="42.546869404613971710205078125" lon="20.14315978623926639556884765625">
        <ele>2083.199951171875</ele>
        <time>2026-06-20T07:46:31.000Z</time>
        <extensions>
          <ns3:TrackPointExtension>
            <ns3:atemp>19.0</ns3:atemp>
          </ns3:TrackPointExtension>
        </extensions>
      </trkpt>
      <trkpt lat="42.54686848260462284088134765625" lon="20.1431705988943576812744140625">
        <ele>2083.199951171875</ele>
        <time>2026-06-20T07:46:32.000Z</time>
        <extensions>
          <ns3:TrackPointExtension>
            <ns3:atemp>19.0</ns3:atemp>
          </ns3:TrackPointExtension>
        </extensions>
      </trkpt>
      <trkpt lat="42.54686764441430568695068359375" lon="20.1431840099394321441650390625">
        <ele>2083.199951171875</ele>
        <time>2026-06-20T07:46:33.000Z</time>
        <extensions>
          <ns3:TrackPointExtension>
            <ns3:atemp>19.0</ns3:atemp>
          </ns3:TrackPointExtension>
        </extensions>
      </trkpt>
      <trkpt lat="42.54686596803367137908935546875" lon="20.143195576965808868408203125">
        <ele>2083.39990234375</ele>
        <time>2026-06-20T07:46:34.000Z</time>
        <extensions>
          <ns3:TrackPointExtension>
            <ns3:atemp>19.0</ns3:atemp>
          </ns3:TrackPointExtension>
        </extensions>
      </trkpt>
      <trkpt lat="42.54686496220529079437255859375" lon="20.14320605434477329254150390625">
        <ele>2083.39990234375</ele>
        <time>2026-06-20T07:46:35.000Z</time>
        <extensions>
          <ns3:TrackPointExtension>
            <ns3:atemp>19.0</ns3:atemp>
          </ns3:TrackPointExtension>
        </extensions>
      </trkpt>
      <trkpt lat="42.54686437547206878662109375" lon="20.14321778900921344757080078125">
        <ele>2083.39990234375</ele>
        <time>2026-06-20T07:46:36.000Z</time>
        <extensions>
          <ns3:TrackPointExtension>
            <ns3:atemp>19.0</ns3:atemp>
          </ns3:TrackPointExtension>
        </extensions>
      </trkpt>
      <trkpt lat="42.54686060361564159393310546875" lon="20.14322717674076557159423828125">
        <ele>2083.39990234375</ele>
        <time>2026-06-20T07:46:37.000Z</time>
        <extensions>
          <ns3:TrackPointExtension>
            <ns3:atemp>19.0</ns3:atemp>
          </ns3:TrackPointExtension>
        </extensions>
      </trkpt>
      <trkpt lat="42.546856664121150970458984375" lon="20.1432329602539539337158203125">
        <ele>2083.39990234375</ele>
        <time>2026-06-20T07:46:38.000Z</time>
        <extensions>
          <ns3:TrackPointExtension>
            <ns3:atemp>19.0</ns3:atemp>
          </ns3:TrackPointExtension>
        </extensions>
      </trkpt>
      <trkpt lat="42.5468538142740726470947265625" lon="20.14324150979518890380859375">
        <ele>2083.199951171875</ele>
        <time>2026-06-20T07:46:39.000Z</time>
        <extensions>
          <ns3:TrackPointExtension>
            <ns3:atemp>19.0</ns3:atemp>
          </ns3:TrackPointExtension>
        </extensions>
      </trkpt>
      <trkpt lat="42.546851634979248046875" lon="20.14324662275612354278564453125">
        <ele>2083</ele>
        <time>2026-06-20T07:46:40.000Z</time>
        <extensions>
          <ns3:TrackPointExtension>
            <ns3:atemp>19.0</ns3:atemp>
          </ns3:TrackPointExtension>
        </extensions>
      </trkpt>
      <trkpt lat="42.54685138352215290069580078125" lon="20.14324662275612354278564453125">
        <ele>2083</ele>
        <time>2026-06-20T07:46:41.000Z</time>
        <extensions>
          <ns3:TrackPointExtension>
            <ns3:atemp>19.0</ns3:atemp>
          </ns3:TrackPointExtension>
        </extensions>
      </trkpt>
      <trkpt lat="42.5468514673411846160888671875" lon="20.14324662275612354278564453125">
        <ele>2083</ele>
        <time>2026-06-20T07:46:42.000Z</time>
        <extensions>
          <ns3:TrackPointExtension>
            <ns3:atemp>19.0</ns3:atemp>
          </ns3:TrackPointExtension>
        </extensions>
      </trkpt>
      <trkpt lat="42.5468514673411846160888671875" lon="20.14324662275612354278564453125">
        <ele>2083</ele>
        <time>2026-06-20T07:46:43.000Z</time>
        <extensions>
          <ns3:TrackPointExtension>
            <ns3:atemp>19.0</ns3:atemp>
          </ns3:TrackPointExtension>
        </extensions>
      </trkpt>
      <trkpt lat="42.5468514673411846160888671875" lon="20.14324662275612354278564453125">
        <ele>2083</ele>
        <time>2026-06-20T07:46:44.000Z</time>
        <extensions>
          <ns3:TrackPointExtension>
            <ns3:atemp>19.0</ns3:atemp>
          </ns3:TrackPointExtension>
        </extensions>
      </trkpt>
      <trkpt lat="42.5468514673411846160888671875" lon="20.14324662275612354278564453125">
        <ele>2083</ele>
        <time>2026-06-20T07:46:45.000Z</time>
        <extensions>
          <ns3:TrackPointExtension>
            <ns3:atemp>19.0</ns3:atemp>
          </ns3:TrackPointExtension>
        </extensions>
      </trkpt>
      <trkpt lat="42.5468514673411846160888671875" lon="20.14324662275612354278564453125">
        <ele>2083</ele>
        <time>2026-06-20T07:46:46.000Z</time>
        <extensions>
          <ns3:TrackPointExtension>
            <ns3:atemp>19.0</ns3:atemp>
          </ns3:TrackPointExtension>
        </extensions>
      </trkpt>
      <trkpt lat="42.5468514673411846160888671875" lon="20.14324662275612354278564453125">
        <ele>2083</ele>
        <time>2026-06-20T07:46:47.000Z</time>
        <extensions>
          <ns3:TrackPointExtension>
            <ns3:atemp>19.0</ns3:atemp>
          </ns3:TrackPointExtension>
        </extensions>
      </trkpt>
      <trkpt lat="42.5468514673411846160888671875" lon="20.14324662275612354278564453125">
        <ele>2083</ele>
        <time>2026-06-20T07:46:48.000Z</time>
        <extensions>
          <ns3:TrackPointExtension>
            <ns3:atemp>19.0</ns3:atemp>
          </ns3:TrackPointExtension>
        </extensions>
      </trkpt>
      <trkpt lat="42.5468514673411846160888671875" lon="20.14324662275612354278564453125">
        <ele>2083</ele>
        <time>2026-06-20T07:46:49.000Z</time>
        <extensions>
          <ns3:TrackPointExtension>
            <ns3:atemp>19.0</ns3:atemp>
          </ns3:TrackPointExtension>
        </extensions>
      </trkpt>
      <trkpt lat="42.5468514673411846160888671875" lon="20.14324662275612354278564453125">
        <ele>2083.199951171875</ele>
        <time>2026-06-20T07:46:50.000Z</time>
        <extensions>
          <ns3:TrackPointExtension>
            <ns3:atemp>19.0</ns3:atemp>
          </ns3:TrackPointExtension>
        </extensions>
      </trkpt>
      <trkpt lat="42.546851970255374908447265625" lon="20.14324628747999668121337890625">
        <ele>2083.199951171875</ele>
        <time>2026-06-20T07:46:51.000Z</time>
        <extensions>
          <ns3:TrackPointExtension>
            <ns3:atemp>19.0</ns3:atemp>
          </ns3:TrackPointExtension>
        </extensions>
      </trkpt>
      <trkpt lat="42.5468514673411846160888671875" lon="20.14324662275612354278564453125">
        <ele>2083.39990234375</ele>
        <time>2026-06-20T07:46:52.000Z</time>
        <extensions>
          <ns3:TrackPointExtension>
            <ns3:atemp>19.0</ns3:atemp>
          </ns3:TrackPointExtension>
        </extensions>
      </trkpt>
      <trkpt lat="42.5468514673411846160888671875" lon="20.14324662275612354278564453125">
        <ele>2083.39990234375</ele>
        <time>2026-06-20T07:46:53.000Z</time>
        <extensions>
          <ns3:TrackPointExtension>
            <ns3:atemp>19.0</ns3:atemp>
          </ns3:TrackPointExtension>
        </extensions>
      </trkpt>
      <trkpt lat="42.5468514673411846160888671875" lon="20.14324662275612354278564453125">
        <ele>2083.39990234375</ele>
        <time>2026-06-20T07:46:54.000Z</time>
        <extensions>
          <ns3:TrackPointExtension>
            <ns3:atemp>19.0</ns3:atemp>
          </ns3:TrackPointExtension>
        </extensions>
      </trkpt>
      <trkpt lat="42.5468514673411846160888671875" lon="20.14324662275612354278564453125">
        <ele>2083.39990234375</ele>
        <time>2026-06-20T07:46:55.000Z</time>
        <extensions>
          <ns3:TrackPointExtension>
            <ns3:atemp>19.0</ns3:atemp>
          </ns3:TrackPointExtension>
        </extensions>
      </trkpt>
      <trkpt lat="42.5468514673411846160888671875" lon="20.14324662275612354278564453125">
        <ele>2083.39990234375</ele>
        <time>2026-06-20T07:46:56.000Z</time>
        <extensions>
          <ns3:TrackPointExtension>
            <ns3:atemp>19.0</ns3:atemp>
          </ns3:TrackPointExtension>
        </extensions>
      </trkpt>
      <trkpt lat="42.5468514673411846160888671875" lon="20.14324662275612354278564453125">
        <ele>2083.39990234375</ele>
        <time>2026-06-20T07:46:57.000Z</time>
        <extensions>
          <ns3:TrackPointExtension>
            <ns3:atemp>19.0</ns3:atemp>
          </ns3:TrackPointExtension>
        </extensions>
      </trkpt>
      <trkpt lat="42.5468514673411846160888671875" lon="20.14324662275612354278564453125">
        <ele>2083.199951171875</ele>
        <time>2026-06-20T07:46:58.000Z</time>
        <extensions>
          <ns3:TrackPointExtension>
            <ns3:atemp>19.0</ns3:atemp>
          </ns3:TrackPointExtension>
        </extensions>
      </trkpt>
      <trkpt lat="42.5468514673411846160888671875" lon="20.14324662275612354278564453125">
        <ele>2083.199951171875</ele>
        <time>2026-06-20T07:46:59.000Z</time>
        <extensions>
          <ns3:TrackPointExtension>
            <ns3:atemp>19.0</ns3:atemp>
          </ns3:TrackPointExtension>
        </extensions>
      </trkpt>
      <trkpt lat="42.5468514673411846160888671875" lon="20.14324662275612354278564453125">
        <ele>2083.199951171875</ele>
        <time>2026-06-20T07:47:00.000Z</time>
        <extensions>
          <ns3:TrackPointExtension>
            <ns3:atemp>19.0</ns3:atemp>
          </ns3:TrackPointExtension>
        </extensions>
      </trkpt>
      <trkpt lat="42.5468514673411846160888671875" lon="20.14324662275612354278564453125">
        <ele>2083.199951171875</ele>
        <time>2026-06-20T07:47:01.000Z</time>
        <extensions>
          <ns3:TrackPointExtension>
            <ns3:atemp>19.0</ns3:atemp>
          </ns3:TrackPointExtension>
        </extensions>
      </trkpt>
      <trkpt lat="42.5468514673411846160888671875" lon="20.14324662275612354278564453125">
        <ele>2083.199951171875</ele>
        <time>2026-06-20T07:47:02.000Z</time>
        <extensions>
          <ns3:TrackPointExtension>
            <ns3:atemp>19.0</ns3:atemp>
          </ns3:TrackPointExtension>
        </extensions>
      </trkpt>
      <trkpt lat="42.5468514673411846160888671875" lon="20.14324662275612354278564453125">
        <ele>2083.39990234375</ele>
        <time>2026-06-20T07:47:03.000Z</time>
        <extensions>
          <ns3:TrackPointExtension>
            <ns3:atemp>19.0</ns3:atemp>
          </ns3:TrackPointExtension>
        </extensions>
      </trkpt>
      <trkpt lat="42.5468514673411846160888671875" lon="20.14324662275612354278564453125">
        <ele>2083.39990234375</ele>
        <time>2026-06-20T07:47:04.000Z</time>
        <extensions>
          <ns3:TrackPointExtension>
            <ns3:atemp>19.0</ns3:atemp>
          </ns3:TrackPointExtension>
        </extensions>
      </trkpt>
      <trkpt lat="42.5468514673411846160888671875" lon="20.14324662275612354278564453125">
        <ele>2083.39990234375</ele>
        <time>2026-06-20T07:47:05.000Z</time>
        <extensions>
          <ns3:TrackPointExtension>
            <ns3:atemp>19.0</ns3:atemp>
          </ns3:TrackPointExtension>
        </extensions>
      </trkpt>
      <trkpt lat="42.5468514673411846160888671875" lon="20.14324662275612354278564453125">
        <ele>2083.39990234375</ele>
        <time>2026-06-20T07:47:06.000Z</time>
        <extensions>
          <ns3:TrackPointExtension>
            <ns3:atemp>19.0</ns3:atemp>
          </ns3:TrackPointExtension>
        </extensions>
      </trkpt>
      <trkpt lat="42.5468514673411846160888671875" lon="20.14324662275612354278564453125">
        <ele>2083.39990234375</ele>
        <time>2026-06-20T07:47:07.000Z</time>
        <extensions>
          <ns3:TrackPointExtension>
            <ns3:atemp>19.0</ns3:atemp>
          </ns3:TrackPointExtension>
        </extensions>
      </trkpt>
      <trkpt lat="42.5468514673411846160888671875" lon="20.14324662275612354278564453125">
        <ele>2083.39990234375</ele>
        <time>2026-06-20T07:47:08.000Z</time>
        <extensions>
          <ns3:TrackPointExtension>
            <ns3:atemp>19.0</ns3:atemp>
          </ns3:TrackPointExtension>
        </extensions>
      </trkpt>
      <trkpt lat="42.5468514673411846160888671875" lon="20.14324662275612354278564453125">
        <ele>2083.39990234375</ele>
        <time>2026-06-20T07:47:09.000Z</time>
        <extensions>
          <ns3:TrackPointExtension>
            <ns3:atemp>19.0</ns3:atemp>
          </ns3:TrackPointExtension>
        </extensions>
      </trkpt>
      <trkpt lat="42.5468514673411846160888671875" lon="20.14324662275612354278564453125">
        <ele>2083.39990234375</ele>
        <time>2026-06-20T07:47:10.000Z</time>
        <extensions>
          <ns3:TrackPointExtension>
            <ns3:atemp>19.0</ns3:atemp>
          </ns3:TrackPointExtension>
        </extensions>
      </trkpt>
      <trkpt lat="42.5468514673411846160888671875" lon="20.14324662275612354278564453125">
        <ele>2083.39990234375</ele>
        <time>2026-06-20T07:47:11.000Z</time>
        <extensions>
          <ns3:TrackPointExtension>
            <ns3:atemp>19.0</ns3:atemp>
          </ns3:TrackPointExtension>
        </extensions>
      </trkpt>
      <trkpt lat="42.5468514673411846160888671875" lon="20.14324662275612354278564453125">
        <ele>2083.39990234375</ele>
        <time>2026-06-20T07:47:12.000Z</time>
        <extensions>
          <ns3:TrackPointExtension>
            <ns3:atemp>19.0</ns3:atemp>
          </ns3:TrackPointExtension>
        </extensions>
      </trkpt>
      <trkpt lat="42.5468514673411846160888671875" lon="20.14324662275612354278564453125">
        <ele>2083.39990234375</ele>
        <time>2026-06-20T07:47:13.000Z</time>
        <extensions>
          <ns3:TrackPointExtension>
            <ns3:atemp>19.0</ns3:atemp>
          </ns3:TrackPointExtension>
        </extensions>
      </trkpt>
      <trkpt lat="42.5468514673411846160888671875" lon="20.14324662275612354278564453125">
        <ele>2083.39990234375</ele>
        <time>2026-06-20T07:47:14.000Z</time>
        <extensions>
          <ns3:TrackPointExtension>
            <ns3:atemp>19.0</ns3:atemp>
          </ns3:TrackPointExtension>
        </extensions>
      </trkpt>
      <trkpt lat="42.5468514673411846160888671875" lon="20.14324662275612354278564453125">
        <ele>2083.39990234375</ele>
        <time>2026-06-20T07:47:15.000Z</time>
        <extensions>
          <ns3:TrackPointExtension>
            <ns3:atemp>19.0</ns3:atemp>
          </ns3:TrackPointExtension>
        </extensions>
      </trkpt>
      <trkpt lat="42.5468514673411846160888671875" lon="20.14324662275612354278564453125">
        <ele>2083.39990234375</ele>
        <time>2026-06-20T07:47:16.000Z</time>
        <extensions>
          <ns3:TrackPointExtension>
            <ns3:atemp>19.0</ns3:atemp>
          </ns3:TrackPointExtension>
        </extensions>
      </trkpt>
      <trkpt lat="42.5468514673411846160888671875" lon="20.14324662275612354278564453125">
        <ele>2083.39990234375</ele>
        <time>2026-06-20T07:47:17.000Z</time>
        <extensions>
          <ns3:TrackPointExtension>
            <ns3:atemp>19.0</ns3:atemp>
          </ns3:TrackPointExtension>
        </extensions>
      </trkpt>
      <trkpt lat="42.5468514673411846160888671875" lon="20.14324662275612354278564453125">
        <ele>2083.39990234375</ele>
        <time>2026-06-20T07:47:18.000Z</time>
        <extensions>
          <ns3:TrackPointExtension>
            <ns3:atemp>19.0</ns3:atemp>
          </ns3:TrackPointExtension>
        </extensions>
      </trkpt>
      <trkpt lat="42.5468514673411846160888671875" lon="20.14324662275612354278564453125">
        <ele>2083.199951171875</ele>
        <time>2026-06-20T07:47:19.000Z</time>
        <extensions>
          <ns3:TrackPointExtension>
            <ns3:atemp>19.0</ns3:atemp>
          </ns3:TrackPointExtension>
        </extensions>
      </trkpt>
      <trkpt lat="42.5468514673411846160888671875" lon="20.14324662275612354278564453125">
        <ele>2083.199951171875</ele>
        <time>2026-06-20T07:47:20.000Z</time>
        <extensions>
          <ns3:TrackPointExtension>
            <ns3:atemp>19.0</ns3:atemp>
          </ns3:TrackPointExtension>
        </extensions>
      </trkpt>
      <trkpt lat="42.5468514673411846160888671875" lon="20.14324662275612354278564453125">
        <ele>2083.199951171875</ele>
        <time>2026-06-20T07:47:21.000Z</time>
        <extensions>
          <ns3:TrackPointExtension>
            <ns3:atemp>19.0</ns3:atemp>
          </ns3:TrackPointExtension>
        </extensions>
      </trkpt>
      <trkpt lat="42.5468514673411846160888671875" lon="20.14324662275612354278564453125">
        <ele>2083.199951171875</ele>
        <time>2026-06-20T07:47:22.000Z</time>
        <extensions>
          <ns3:TrackPointExtension>
            <ns3:atemp>19.0</ns3:atemp>
          </ns3:TrackPointExtension>
        </extensions>
      </trkpt>
      <trkpt lat="42.5468514673411846160888671875" lon="20.14324662275612354278564453125">
        <ele>2083.199951171875</ele>
        <time>2026-06-20T07:47:23.000Z</time>
        <extensions>
          <ns3:TrackPointExtension>
            <ns3:atemp>19.0</ns3:atemp>
          </ns3:TrackPointExtension>
        </extensions>
      </trkpt>
      <trkpt lat="42.5468514673411846160888671875" lon="20.14324662275612354278564453125">
        <ele>2083.199951171875</ele>
        <time>2026-06-20T07:47:24.000Z</time>
        <extensions>
          <ns3:TrackPointExtension>
            <ns3:atemp>19.0</ns3:atemp>
          </ns3:TrackPointExtension>
        </extensions>
      </trkpt>
      <trkpt lat="42.5468514673411846160888671875" lon="20.14324662275612354278564453125">
        <ele>2083</ele>
        <time>2026-06-20T07:47:25.000Z</time>
        <extensions>
          <ns3:TrackPointExtension>
            <ns3:atemp>19.0</ns3:atemp>
          </ns3:TrackPointExtension>
        </extensions>
      </trkpt>
      <trkpt lat="42.5468514673411846160888671875" lon="20.14324662275612354278564453125">
        <ele>2083</ele>
        <time>2026-06-20T07:47:26.000Z</time>
        <extensions>
          <ns3:TrackPointExtension>
            <ns3:atemp>19.0</ns3:atemp>
          </ns3:TrackPointExtension>
        </extensions>
      </trkpt>
      <trkpt lat="42.5468514673411846160888671875" lon="20.14324662275612354278564453125">
        <ele>2083</ele>
        <time>2026-06-20T07:47:27.000Z</time>
        <extensions>
          <ns3:TrackPointExtension>
            <ns3:atemp>19.0</ns3:atemp>
          </ns3:TrackPointExtension>
        </extensions>
      </trkpt>
      <trkpt lat="42.5468514673411846160888671875" lon="20.14324662275612354278564453125">
        <ele>2083</ele>
        <time>2026-06-20T07:47:28.000Z</time>
        <extensions>
          <ns3:TrackPointExtension>
            <ns3:atemp>19.0</ns3:atemp>
          </ns3:TrackPointExtension>
        </extensions>
      </trkpt>
      <trkpt lat="42.5468514673411846160888671875" lon="20.14324662275612354278564453125">
        <ele>2083</ele>
        <time>2026-06-20T07:47:29.000Z</time>
        <extensions>
          <ns3:TrackPointExtension>
            <ns3:atemp>19.0</ns3:atemp>
          </ns3:TrackPointExtension>
        </extensions>
      </trkpt>
      <trkpt lat="42.5468514673411846160888671875" lon="20.14324662275612354278564453125">
        <ele>2083.199951171875</ele>
        <time>2026-06-20T07:47:30.000Z</time>
        <extensions>
          <ns3:TrackPointExtension>
            <ns3:atemp>19.0</ns3:atemp>
          </ns3:TrackPointExtension>
        </extensions>
      </trkpt>
      <trkpt lat="42.5468514673411846160888671875" lon="20.14324662275612354278564453125">
        <ele>2083.199951171875</ele>
        <time>2026-06-20T07:47:31.000Z</time>
        <extensions>
          <ns3:TrackPointExtension>
            <ns3:atemp>19.0</ns3:atemp>
          </ns3:TrackPointExtension>
        </extensions>
      </trkpt>
      <trkpt lat="42.5468514673411846160888671875" lon="20.14324662275612354278564453125">
        <ele>2083.199951171875</ele>
        <time>2026-06-20T07:47:32.000Z</time>
        <extensions>
          <ns3:TrackPointExtension>
            <ns3:atemp>19.0</ns3:atemp>
          </ns3:TrackPointExtension>
        </extensions>
      </trkpt>
      <trkpt lat="42.5468514673411846160888671875" lon="20.14324662275612354278564453125">
        <ele>2083.199951171875</ele>
        <time>2026-06-20T07:47:33.000Z</time>
        <extensions>
          <ns3:TrackPointExtension>
            <ns3:atemp>19.0</ns3:atemp>
          </ns3:TrackPointExtension>
        </extensions>
      </trkpt>
      <trkpt lat="42.5468514673411846160888671875" lon="20.14324662275612354278564453125">
        <ele>2083.199951171875</ele>
        <time>2026-06-20T07:47:34.000Z</time>
        <extensions>
          <ns3:TrackPointExtension>
            <ns3:atemp>19.0</ns3:atemp>
          </ns3:TrackPointExtension>
        </extensions>
      </trkpt>
      <trkpt lat="42.5468514673411846160888671875" lon="20.14324662275612354278564453125">
        <ele>2083.199951171875</ele>
        <time>2026-06-20T07:47:35.000Z</time>
        <extensions>
          <ns3:TrackPointExtension>
            <ns3:atemp>19.0</ns3:atemp>
          </ns3:TrackPointExtension>
        </extensions>
      </trkpt>
      <trkpt lat="42.5468514673411846160888671875" lon="20.14324662275612354278564453125">
        <ele>2083.199951171875</ele>
        <time>2026-06-20T07:47:36.000Z</time>
        <extensions>
          <ns3:TrackPointExtension>
            <ns3:atemp>19.0</ns3:atemp>
          </ns3:TrackPointExtension>
        </extensions>
      </trkpt>
      <trkpt lat="42.5468514673411846160888671875" lon="20.14324662275612354278564453125">
        <ele>2083.199951171875</ele>
        <time>2026-06-20T07:47:37.000Z</time>
        <extensions>
          <ns3:TrackPointExtension>
            <ns3:atemp>19.0</ns3:atemp>
          </ns3:TrackPointExtension>
        </extensions>
      </trkpt>
      <trkpt lat="42.5468514673411846160888671875" lon="20.14324662275612354278564453125">
        <ele>2083.199951171875</ele>
        <time>2026-06-20T07:47:38.000Z</time>
        <extensions>
          <ns3:TrackPointExtension>
            <ns3:atemp>19.0</ns3:atemp>
          </ns3:TrackPointExtension>
        </extensions>
      </trkpt>
      <trkpt lat="42.5468514673411846160888671875" lon="20.14324662275612354278564453125">
        <ele>2083.199951171875</ele>
        <time>2026-06-20T07:47:39.000Z</time>
        <extensions>
          <ns3:TrackPointExtension>
            <ns3:atemp>19.0</ns3:atemp>
          </ns3:TrackPointExtension>
        </extensions>
      </trkpt>
      <trkpt lat="42.5468514673411846160888671875" lon="20.14324662275612354278564453125">
        <ele>2083.199951171875</ele>
        <time>2026-06-20T07:47:40.000Z</time>
        <extensions>
          <ns3:TrackPointExtension>
            <ns3:atemp>19.0</ns3:atemp>
          </ns3:TrackPointExtension>
        </extensions>
      </trkpt>
      <trkpt lat="42.5468514673411846160888671875" lon="20.14324662275612354278564453125">
        <ele>2083.199951171875</ele>
        <time>2026-06-20T07:47:41.000Z</time>
        <extensions>
          <ns3:TrackPointExtension>
            <ns3:atemp>19.0</ns3:atemp>
          </ns3:TrackPointExtension>
        </extensions>
      </trkpt>
      <trkpt lat="42.5468514673411846160888671875" lon="20.14324662275612354278564453125">
        <ele>2083.199951171875</ele>
        <time>2026-06-20T07:47:42.000Z</time>
        <extensions>
          <ns3:TrackPointExtension>
            <ns3:atemp>19.0</ns3:atemp>
          </ns3:TrackPointExtension>
        </extensions>
      </trkpt>
      <trkpt lat="42.5468514673411846160888671875" lon="20.14324662275612354278564453125">
        <ele>2083.199951171875</ele>
        <time>2026-06-20T07:47:43.000Z</time>
        <extensions>
          <ns3:TrackPointExtension>
            <ns3:atemp>19.0</ns3:atemp>
          </ns3:TrackPointExtension>
        </extensions>
      </trkpt>
      <trkpt lat="42.5468514673411846160888671875" lon="20.14324662275612354278564453125">
        <ele>2083.199951171875</ele>
        <time>2026-06-20T07:47:44.000Z</time>
        <extensions>
          <ns3:TrackPointExtension>
            <ns3:atemp>19.0</ns3:atemp>
          </ns3:TrackPointExtension>
        </extensions>
      </trkpt>
      <trkpt lat="42.5468514673411846160888671875" lon="20.14324662275612354278564453125">
        <ele>2083.199951171875</ele>
        <time>2026-06-20T07:47:45.000Z</time>
        <extensions>
          <ns3:TrackPointExtension>
            <ns3:atemp>19.0</ns3:atemp>
          </ns3:TrackPointExtension>
        </extensions>
      </trkpt>
      <trkpt lat="42.5468514673411846160888671875" lon="20.14324662275612354278564453125">
        <ele>2083.199951171875</ele>
        <time>2026-06-20T07:47:46.000Z</time>
        <extensions>
          <ns3:TrackPointExtension>
            <ns3:atemp>19.0</ns3:atemp>
          </ns3:TrackPointExtension>
        </extensions>
      </trkpt>
      <trkpt lat="42.5468514673411846160888671875" lon="20.14324662275612354278564453125">
        <ele>2083.199951171875</ele>
        <time>2026-06-20T07:47:47.000Z</time>
        <extensions>
          <ns3:TrackPointExtension>
            <ns3:atemp>19.0</ns3:atemp>
          </ns3:TrackPointExtension>
        </extensions>
      </trkpt>
      <trkpt lat="42.5468514673411846160888671875" lon="20.14324662275612354278564453125">
        <ele>2083.199951171875</ele>
        <time>2026-06-20T07:47:48.000Z</time>
        <extensions>
          <ns3:TrackPointExtension>
            <ns3:atemp>19.0</ns3:atemp>
          </ns3:TrackPointExtension>
        </extensions>
      </trkpt>
      <trkpt lat="42.5468514673411846160888671875" lon="20.14324662275612354278564453125">
        <ele>2083.199951171875</ele>
        <time>2026-06-20T07:47:49.000Z</time>
        <extensions>
          <ns3:TrackPointExtension>
            <ns3:atemp>19.0</ns3:atemp>
          </ns3:TrackPointExtension>
        </extensions>
      </trkpt>
      <trkpt lat="42.5468514673411846160888671875" lon="20.14324662275612354278564453125">
        <ele>2083.199951171875</ele>
        <time>2026-06-20T07:47:50.000Z</time>
        <extensions>
          <ns3:TrackPointExtension>
            <ns3:atemp>19.0</ns3:atemp>
          </ns3:TrackPointExtension>
        </extensions>
      </trkpt>
      <trkpt lat="42.5468514673411846160888671875" lon="20.14324662275612354278564453125">
        <ele>2083.199951171875</ele>
        <time>2026-06-20T07:47:51.000Z</time>
        <extensions>
          <ns3:TrackPointExtension>
            <ns3:atemp>19.0</ns3:atemp>
          </ns3:TrackPointExtension>
        </extensions>
      </trkpt>
      <trkpt lat="42.5468514673411846160888671875" lon="20.14324662275612354278564453125">
        <ele>2083.199951171875</ele>
        <time>2026-06-20T07:47:52.000Z</time>
        <extensions>
          <ns3:TrackPointExtension>
            <ns3:atemp>19.0</ns3:atemp>
          </ns3:TrackPointExtension>
        </extensions>
      </trkpt>
      <trkpt lat="42.5468514673411846160888671875" lon="20.14324662275612354278564453125">
        <ele>2083.199951171875</ele>
        <time>2026-06-20T07:47:53.000Z</time>
        <extensions>
          <ns3:TrackPointExtension>
            <ns3:atemp>19.0</ns3:atemp>
          </ns3:TrackPointExtension>
        </extensions>
      </trkpt>
      <trkpt lat="42.5468514673411846160888671875" lon="20.14324662275612354278564453125">
        <ele>2083.199951171875</ele>
        <time>2026-06-20T07:47:54.000Z</time>
        <extensions>
          <ns3:TrackPointExtension>
            <ns3:atemp>19.0</ns3:atemp>
          </ns3:TrackPointExtension>
        </extensions>
      </trkpt>
      <trkpt lat="42.5468514673411846160888671875" lon="20.14324662275612354278564453125">
        <ele>2083.199951171875</ele>
        <time>2026-06-20T07:47:55.000Z</time>
        <extensions>
          <ns3:TrackPointExtension>
            <ns3:atemp>19.0</ns3:atemp>
          </ns3:TrackPointExtension>
        </extensions>
      </trkpt>
      <trkpt lat="42.5468514673411846160888671875" lon="20.14324662275612354278564453125">
        <ele>2083.199951171875</ele>
        <time>2026-06-20T07:47:56.000Z</time>
        <extensions>
          <ns3:TrackPointExtension>
            <ns3:atemp>19.0</ns3:atemp>
          </ns3:TrackPointExtension>
        </extensions>
      </trkpt>
      <trkpt lat="42.5468514673411846160888671875" lon="20.14324662275612354278564453125">
        <ele>2083.199951171875</ele>
        <time>2026-06-20T07:47:57.000Z</time>
        <extensions>
          <ns3:TrackPointExtension>
            <ns3:atemp>19.0</ns3:atemp>
          </ns3:TrackPointExtension>
        </extensions>
      </trkpt>
      <trkpt lat="42.5468514673411846160888671875" lon="20.14324662275612354278564453125">
        <ele>2083.199951171875</ele>
        <time>2026-06-20T07:47:58.000Z</time>
        <extensions>
          <ns3:TrackPointExtension>
            <ns3:atemp>19.0</ns3:atemp>
          </ns3:TrackPointExtension>
        </extensions>
      </trkpt>
      <trkpt lat="42.5468514673411846160888671875" lon="20.14324662275612354278564453125">
        <ele>2083.199951171875</ele>
        <time>2026-06-20T07:47:59.000Z</time>
        <extensions>
          <ns3:TrackPointExtension>
            <ns3:atemp>19.0</ns3:atemp>
          </ns3:TrackPointExtension>
        </extensions>
      </trkpt>
      <trkpt lat="42.5468514673411846160888671875" lon="20.14324662275612354278564453125">
        <ele>2083.199951171875</ele>
        <time>2026-06-20T07:48:00.000Z</time>
        <extensions>
          <ns3:TrackPointExtension>
            <ns3:atemp>19.0</ns3:atemp>
          </ns3:TrackPointExtension>
        </extensions>
      </trkpt>
      <trkpt lat="42.5468514673411846160888671875" lon="20.14324662275612354278564453125">
        <ele>2083.199951171875</ele>
        <time>2026-06-20T07:48:01.000Z</time>
        <extensions>
          <ns3:TrackPointExtension>
            <ns3:atemp>19.0</ns3:atemp>
          </ns3:TrackPointExtension>
        </extensions>
      </trkpt>
      <trkpt lat="42.5468514673411846160888671875" lon="20.14324662275612354278564453125">
        <ele>2083.199951171875</ele>
        <time>2026-06-20T07:48:02.000Z</time>
        <extensions>
          <ns3:TrackPointExtension>
            <ns3:atemp>19.0</ns3:atemp>
          </ns3:TrackPointExtension>
        </extensions>
      </trkpt>
      <trkpt lat="42.5468514673411846160888671875" lon="20.14324662275612354278564453125">
        <ele>2083.199951171875</ele>
        <time>2026-06-20T07:48:03.000Z</time>
        <extensions>
          <ns3:TrackPointExtension>
            <ns3:atemp>19.0</ns3:atemp>
          </ns3:TrackPointExtension>
        </extensions>
      </trkpt>
      <trkpt lat="42.5468514673411846160888671875" lon="20.14324662275612354278564453125">
        <ele>2083.199951171875</ele>
        <time>2026-06-20T07:48:04.000Z</time>
        <extensions>
          <ns3:TrackPointExtension>
            <ns3:atemp>19.0</ns3:atemp>
          </ns3:TrackPointExtension>
        </extensions>
      </trkpt>
      <trkpt lat="42.5468514673411846160888671875" lon="20.14324662275612354278564453125">
        <ele>2083.199951171875</ele>
        <time>2026-06-20T07:48:05.000Z</time>
        <extensions>
          <ns3:TrackPointExtension>
            <ns3:atemp>19.0</ns3:atemp>
          </ns3:TrackPointExtension>
        </extensions>
      </trkpt>
      <trkpt lat="42.5468514673411846160888671875" lon="20.14324662275612354278564453125">
        <ele>2083.199951171875</ele>
        <time>2026-06-20T07:48:06.000Z</time>
        <extensions>
          <ns3:TrackPointExtension>
            <ns3:atemp>19.0</ns3:atemp>
          </ns3:TrackPointExtension>
        </extensions>
      </trkpt>
      <trkpt lat="42.5468514673411846160888671875" lon="20.14324662275612354278564453125">
        <ele>2083.199951171875</ele>
        <time>2026-06-20T07:48:07.000Z</time>
        <extensions>
          <ns3:TrackPointExtension>
            <ns3:atemp>19.0</ns3:atemp>
          </ns3:TrackPointExtension>
        </extensions>
      </trkpt>
      <trkpt lat="42.5468514673411846160888671875" lon="20.14324662275612354278564453125">
        <ele>2083.199951171875</ele>
        <time>2026-06-20T07:48:08.000Z</time>
        <extensions>
          <ns3:TrackPointExtension>
            <ns3:atemp>19.0</ns3:atemp>
          </ns3:TrackPointExtension>
        </extensions>
      </trkpt>
      <trkpt lat="42.5468514673411846160888671875" lon="20.14324662275612354278564453125">
        <ele>2083.199951171875</ele>
        <time>2026-06-20T07:48:09.000Z</time>
        <extensions>
          <ns3:TrackPointExtension>
            <ns3:atemp>19.0</ns3:atemp>
          </ns3:TrackPointExtension>
        </extensions>
      </trkpt>
      <trkpt lat="42.5468514673411846160888671875" lon="20.14324662275612354278564453125">
        <ele>2083.199951171875</ele>
        <time>2026-06-20T07:48:10.000Z</time>
        <extensions>
          <ns3:TrackPointExtension>
            <ns3:atemp>19.0</ns3:atemp>
          </ns3:TrackPointExtension>
        </extensions>
      </trkpt>
      <trkpt lat="42.5468514673411846160888671875" lon="20.14324662275612354278564453125">
        <ele>2083.199951171875</ele>
        <time>2026-06-20T07:48:11.000Z</time>
        <extensions>
          <ns3:TrackPointExtension>
            <ns3:atemp>19.0</ns3:atemp>
          </ns3:TrackPointExtension>
        </extensions>
      </trkpt>
      <trkpt lat="42.5468514673411846160888671875" lon="20.14324662275612354278564453125">
        <ele>2083.199951171875</ele>
        <time>2026-06-20T07:48:12.000Z</time>
        <extensions>
          <ns3:TrackPointExtension>
            <ns3:atemp>19.0</ns3:atemp>
          </ns3:TrackPointExtension>
        </extensions>
      </trkpt>
      <trkpt lat="42.5468514673411846160888671875" lon="20.14324662275612354278564453125">
        <ele>2083.199951171875</ele>
        <time>2026-06-20T07:48:13.000Z</time>
        <extensions>
          <ns3:TrackPointExtension>
            <ns3:atemp>19.0</ns3:atemp>
          </ns3:TrackPointExtension>
        </extensions>
      </trkpt>
      <trkpt lat="42.5468514673411846160888671875" lon="20.14324662275612354278564453125">
        <ele>2083.199951171875</ele>
        <time>2026-06-20T07:48:14.000Z</time>
        <extensions>
          <ns3:TrackPointExtension>
            <ns3:atemp>19.0</ns3:atemp>
          </ns3:TrackPointExtension>
        </extensions>
      </trkpt>
      <trkpt lat="42.5468514673411846160888671875" lon="20.14324662275612354278564453125">
        <ele>2083.199951171875</ele>
        <time>2026-06-20T07:48:15.000Z</time>
        <extensions>
          <ns3:TrackPointExtension>
            <ns3:atemp>19.0</ns3:atemp>
          </ns3:TrackPointExtension>
        </extensions>
      </trkpt>
      <trkpt lat="42.5468514673411846160888671875" lon="20.14324662275612354278564453125">
        <ele>2083.199951171875</ele>
        <time>2026-06-20T07:48:16.000Z</time>
        <extensions>
          <ns3:TrackPointExtension>
            <ns3:atemp>19.0</ns3:atemp>
          </ns3:TrackPointExtension>
        </extensions>
      </trkpt>
      <trkpt lat="42.5468514673411846160888671875" lon="20.14324662275612354278564453125">
        <ele>2083.199951171875</ele>
        <time>2026-06-20T07:48:17.000Z</time>
        <extensions>
          <ns3:TrackPointExtension>
            <ns3:atemp>19.0</ns3:atemp>
          </ns3:TrackPointExtension>
        </extensions>
      </trkpt>
      <trkpt lat="42.5468514673411846160888671875" lon="20.14324662275612354278564453125">
        <ele>2083.199951171875</ele>
        <time>2026-06-20T07:48:18.000Z</time>
        <extensions>
          <ns3:TrackPointExtension>
            <ns3:atemp>19.0</ns3:atemp>
          </ns3:TrackPointExtension>
        </extensions>
      </trkpt>
      <trkpt lat="42.5468514673411846160888671875" lon="20.14324662275612354278564453125">
        <ele>2083.199951171875</ele>
        <time>2026-06-20T07:48:19.000Z</time>
        <extensions>
          <ns3:TrackPointExtension>
            <ns3:atemp>19.0</ns3:atemp>
          </ns3:TrackPointExtension>
        </extensions>
      </trkpt>
      <trkpt lat="42.5468514673411846160888671875" lon="20.14324662275612354278564453125">
        <ele>2083.199951171875</ele>
        <time>2026-06-20T07:48:20.000Z</time>
        <extensions>
          <ns3:TrackPointExtension>
            <ns3:atemp>19.0</ns3:atemp>
          </ns3:TrackPointExtension>
        </extensions>
      </trkpt>
      <trkpt lat="42.5468514673411846160888671875" lon="20.14324662275612354278564453125">
        <ele>2083.199951171875</ele>
        <time>2026-06-20T07:48:21.000Z</time>
        <extensions>
          <ns3:TrackPointExtension>
            <ns3:atemp>19.0</ns3:atemp>
          </ns3:TrackPointExtension>
        </extensions>
      </trkpt>
      <trkpt lat="42.5468514673411846160888671875" lon="20.14324662275612354278564453125">
        <ele>2083.199951171875</ele>
        <time>2026-06-20T07:48:22.000Z</time>
        <extensions>
          <ns3:TrackPointExtension>
            <ns3:atemp>19.0</ns3:atemp>
          </ns3:TrackPointExtension>
        </extensions>
      </trkpt>
      <trkpt lat="42.5468514673411846160888671875" lon="20.14324662275612354278564453125">
        <ele>2083.199951171875</ele>
        <time>2026-06-20T07:48:23.000Z</time>
        <extensions>
          <ns3:TrackPointExtension>
            <ns3:atemp>19.0</ns3:atemp>
          </ns3:TrackPointExtension>
        </extensions>
      </trkpt>
      <trkpt lat="42.5468514673411846160888671875" lon="20.14324662275612354278564453125">
        <ele>2083.199951171875</ele>
        <time>2026-06-20T07:48:24.000Z</time>
        <extensions>
          <ns3:TrackPointExtension>
            <ns3:atemp>19.0</ns3:atemp>
          </ns3:TrackPointExtension>
        </extensions>
      </trkpt>
      <trkpt lat="42.5468514673411846160888671875" lon="20.14324662275612354278564453125">
        <ele>2083.199951171875</ele>
        <time>2026-06-20T07:48:25.000Z</time>
        <extensions>
          <ns3:TrackPointExtension>
            <ns3:atemp>19.0</ns3:atemp>
          </ns3:TrackPointExtension>
        </extensions>
      </trkpt>
      <trkpt lat="42.5468514673411846160888671875" lon="20.14324662275612354278564453125">
        <ele>2083.199951171875</ele>
        <time>2026-06-20T07:48:26.000Z</time>
        <extensions>
          <ns3:TrackPointExtension>
            <ns3:atemp>19.0</ns3:atemp>
          </ns3:TrackPointExtension>
        </extensions>
      </trkpt>
      <trkpt lat="42.5468514673411846160888671875" lon="20.14324662275612354278564453125">
        <ele>2083.199951171875</ele>
        <time>2026-06-20T07:48:27.000Z</time>
        <extensions>
          <ns3:TrackPointExtension>
            <ns3:atemp>19.0</ns3:atemp>
          </ns3:TrackPointExtension>
        </extensions>
      </trkpt>
      <trkpt lat="42.5468514673411846160888671875" lon="20.14324662275612354278564453125">
        <ele>2083.199951171875</ele>
        <time>2026-06-20T07:48:28.000Z</time>
        <extensions>
          <ns3:TrackPointExtension>
            <ns3:atemp>19.0</ns3:atemp>
          </ns3:TrackPointExtension>
        </extensions>
      </trkpt>
      <trkpt lat="42.5468514673411846160888671875" lon="20.14324662275612354278564453125">
        <ele>2083.199951171875</ele>
        <time>2026-06-20T07:48:29.000Z</time>
        <extensions>
          <ns3:TrackPointExtension>
            <ns3:atemp>19.0</ns3:atemp>
          </ns3:TrackPointExtension>
        </extensions>
      </trkpt>
      <trkpt lat="42.5468514673411846160888671875" lon="20.14324662275612354278564453125">
        <ele>2083.199951171875</ele>
        <time>2026-06-20T07:48:30.000Z</time>
        <extensions>
          <ns3:TrackPointExtension>
            <ns3:atemp>19.0</ns3:atemp>
          </ns3:TrackPointExtension>
        </extensions>
      </trkpt>
      <trkpt lat="42.5468514673411846160888671875" lon="20.14324662275612354278564453125">
        <ele>2083.199951171875</ele>
        <time>2026-06-20T07:48:31.000Z</time>
        <extensions>
          <ns3:TrackPointExtension>
            <ns3:atemp>19.0</ns3:atemp>
          </ns3:TrackPointExtension>
        </extensions>
      </trkpt>
      <trkpt lat="42.5468514673411846160888671875" lon="20.14324662275612354278564453125">
        <ele>2083.199951171875</ele>
        <time>2026-06-20T07:48:32.000Z</time>
        <extensions>
          <ns3:TrackPointExtension>
            <ns3:atemp>19.0</ns3:atemp>
          </ns3:TrackPointExtension>
        </extensions>
      </trkpt>
      <trkpt lat="42.5468514673411846160888671875" lon="20.14324662275612354278564453125">
        <ele>2083.199951171875</ele>
        <time>2026-06-20T07:48:33.000Z</time>
        <extensions>
          <ns3:TrackPointExtension>
            <ns3:atemp>19.0</ns3:atemp>
          </ns3:TrackPointExtension>
        </extensions>
      </trkpt>
      <trkpt lat="42.5468514673411846160888671875" lon="20.14324662275612354278564453125">
        <ele>2083.199951171875</ele>
        <time>2026-06-20T07:48:34.000Z</time>
        <extensions>
          <ns3:TrackPointExtension>
            <ns3:atemp>19.0</ns3:atemp>
          </ns3:TrackPointExtension>
        </extensions>
      </trkpt>
      <trkpt lat="42.5468514673411846160888671875" lon="20.14324662275612354278564453125">
        <ele>2083.199951171875</ele>
        <time>2026-06-20T07:48:35.000Z</time>
        <extensions>
          <ns3:TrackPointExtension>
            <ns3:atemp>19.0</ns3:atemp>
          </ns3:TrackPointExtension>
        </extensions>
      </trkpt>
      <trkpt lat="42.5468514673411846160888671875" lon="20.14324662275612354278564453125">
        <ele>2083.199951171875</ele>
        <time>2026-06-20T07:48:36.000Z</time>
        <extensions>
          <ns3:TrackPointExtension>
            <ns3:atemp>19.0</ns3:atemp>
          </ns3:TrackPointExtension>
        </extensions>
      </trkpt>
      <trkpt lat="42.5468514673411846160888671875" lon="20.14324662275612354278564453125">
        <ele>2083.199951171875</ele>
        <time>2026-06-20T07:48:37.000Z</time>
        <extensions>
          <ns3:TrackPointExtension>
            <ns3:atemp>19.0</ns3:atemp>
          </ns3:TrackPointExtension>
        </extensions>
      </trkpt>
      <trkpt lat="42.5468514673411846160888671875" lon="20.14324662275612354278564453125">
        <ele>2083.199951171875</ele>
        <time>2026-06-20T07:48:38.000Z</time>
        <extensions>
          <ns3:TrackPointExtension>
            <ns3:atemp>19.0</ns3:atemp>
          </ns3:TrackPointExtension>
        </extensions>
      </trkpt>
      <trkpt lat="42.5468514673411846160888671875" lon="20.14324662275612354278564453125">
        <ele>2083.199951171875</ele>
        <time>2026-06-20T07:48:39.000Z</time>
        <extensions>
          <ns3:TrackPointExtension>
            <ns3:atemp>19.0</ns3:atemp>
          </ns3:TrackPointExtension>
        </extensions>
      </trkpt>
      <trkpt lat="42.5468514673411846160888671875" lon="20.14324662275612354278564453125">
        <ele>2083.199951171875</ele>
        <time>2026-06-20T07:48:40.000Z</time>
        <extensions>
          <ns3:TrackPointExtension>
            <ns3:atemp>19.0</ns3:atemp>
          </ns3:TrackPointExtension>
        </extensions>
      </trkpt>
      <trkpt lat="42.5468514673411846160888671875" lon="20.14324662275612354278564453125">
        <ele>2083.199951171875</ele>
        <time>2026-06-20T07:48:41.000Z</time>
        <extensions>
          <ns3:TrackPointExtension>
            <ns3:atemp>19.0</ns3:atemp>
          </ns3:TrackPointExtension>
        </extensions>
      </trkpt>
      <trkpt lat="42.5468514673411846160888671875" lon="20.14324662275612354278564453125">
        <ele>2083.199951171875</ele>
        <time>2026-06-20T07:48:42.000Z</time>
        <extensions>
          <ns3:TrackPointExtension>
            <ns3:atemp>19.0</ns3:atemp>
          </ns3:TrackPointExtension>
        </extensions>
      </trkpt>
      <trkpt lat="42.5468514673411846160888671875" lon="20.14324662275612354278564453125">
        <ele>2083.199951171875</ele>
        <time>2026-06-20T07:48:43.000Z</time>
        <extensions>
          <ns3:TrackPointExtension>
            <ns3:atemp>19.0</ns3:atemp>
          </ns3:TrackPointExtension>
        </extensions>
      </trkpt>
      <trkpt lat="42.5468514673411846160888671875" lon="20.14324662275612354278564453125">
        <ele>2083.199951171875</ele>
        <time>2026-06-20T07:48:44.000Z</time>
        <extensions>
          <ns3:TrackPointExtension>
            <ns3:atemp>19.0</ns3:atemp>
          </ns3:TrackPointExtension>
        </extensions>
      </trkpt>
      <trkpt lat="42.5468514673411846160888671875" lon="20.14324662275612354278564453125">
        <ele>2083.199951171875</ele>
        <time>2026-06-20T07:48:45.000Z</time>
        <extensions>
          <ns3:TrackPointExtension>
            <ns3:atemp>19.0</ns3:atemp>
          </ns3:TrackPointExtension>
        </extensions>
      </trkpt>
      <trkpt lat="42.5468514673411846160888671875" lon="20.14324662275612354278564453125">
        <ele>2083.199951171875</ele>
        <time>2026-06-20T07:48:46.000Z</time>
        <extensions>
          <ns3:TrackPointExtension>
            <ns3:atemp>19.0</ns3:atemp>
          </ns3:TrackPointExtension>
        </extensions>
      </trkpt>
      <trkpt lat="42.5468514673411846160888671875" lon="20.14324662275612354278564453125">
        <ele>2083.199951171875</ele>
        <time>2026-06-20T07:48:47.000Z</time>
        <extensions>
          <ns3:TrackPointExtension>
            <ns3:atemp>19.0</ns3:atemp>
          </ns3:TrackPointExtension>
        </extensions>
      </trkpt>
      <trkpt lat="42.5468514673411846160888671875" lon="20.14324662275612354278564453125">
        <ele>2083.199951171875</ele>
        <time>2026-06-20T07:48:48.000Z</time>
        <extensions>
          <ns3:TrackPointExtension>
            <ns3:atemp>19.0</ns3:atemp>
          </ns3:TrackPointExtension>
        </extensions>
      </trkpt>
      <trkpt lat="42.5468514673411846160888671875" lon="20.14324662275612354278564453125">
        <ele>2083.199951171875</ele>
        <time>2026-06-20T07:48:49.000Z</time>
        <extensions>
          <ns3:TrackPointExtension>
            <ns3:atemp>19.0</ns3:atemp>
          </ns3:TrackPointExtension>
        </extensions>
      </trkpt>
      <trkpt lat="42.5468514673411846160888671875" lon="20.14324662275612354278564453125">
        <ele>2083.199951171875</ele>
        <time>2026-06-20T07:48:50.000Z</time>
        <extensions>
          <ns3:TrackPointExtension>
            <ns3:atemp>19.0</ns3:atemp>
          </ns3:TrackPointExtension>
        </extensions>
      </trkpt>
      <trkpt lat="42.54685230553150177001953125" lon="20.1432450301945209503173828125">
        <ele>2083.199951171875</ele>
        <time>2026-06-20T07:48:51.000Z</time>
        <extensions>
          <ns3:TrackPointExtension>
            <ns3:atemp>19.0</ns3:atemp>
          </ns3:TrackPointExtension>
        </extensions>
      </trkpt>
      <trkpt lat="42.5468514673411846160888671875" lon="20.14324662275612354278564453125">
        <ele>2083.199951171875</ele>
        <time>2026-06-20T07:48:52.000Z</time>
        <extensions>
          <ns3:TrackPointExtension>
            <ns3:atemp>19.0</ns3:atemp>
          </ns3:TrackPointExtension>
        </extensions>
      </trkpt>
      <trkpt lat="42.5468514673411846160888671875" lon="20.14324662275612354278564453125">
        <ele>2083.199951171875</ele>
        <time>2026-06-20T07:48:53.000Z</time>
        <extensions>
          <ns3:TrackPointExtension>
            <ns3:atemp>19.0</ns3:atemp>
          </ns3:TrackPointExtension>
        </extensions>
      </trkpt>
      <trkpt lat="42.5468514673411846160888671875" lon="20.14324662275612354278564453125">
        <ele>2083.199951171875</ele>
        <time>2026-06-20T07:48:54.000Z</time>
        <extensions>
          <ns3:TrackPointExtension>
            <ns3:atemp>19.0</ns3:atemp>
          </ns3:TrackPointExtension>
        </extensions>
      </trkpt>
      <trkpt lat="42.5468514673411846160888671875" lon="20.14324662275612354278564453125">
        <ele>2083.199951171875</ele>
        <time>2026-06-20T07:48:55.000Z</time>
        <extensions>
          <ns3:TrackPointExtension>
            <ns3:atemp>19.0</ns3:atemp>
          </ns3:TrackPointExtension>
        </extensions>
      </trkpt>
      <trkpt lat="42.5468514673411846160888671875" lon="20.14324662275612354278564453125">
        <ele>2083.199951171875</ele>
        <time>2026-06-20T07:48:56.000Z</time>
        <extensions>
          <ns3:TrackPointExtension>
            <ns3:atemp>19.0</ns3:atemp>
          </ns3:TrackPointExtension>
        </extensions>
      </trkpt>
      <trkpt lat="42.54685758613049983978271484375" lon="20.14325232245028018951416015625">
        <ele>2083.199951171875</ele>
        <time>2026-06-20T07:48:57.000Z</time>
        <extensions>
          <ns3:TrackPointExtension>
            <ns3:atemp>19.0</ns3:atemp>
          </ns3:TrackPointExtension>
        </extensions>
      </trkpt>
      <trkpt lat="42.5468514673411846160888671875" lon="20.14324662275612354278564453125">
        <ele>2083.199951171875</ele>
        <time>2026-06-20T07:48:58.000Z</time>
        <extensions>
          <ns3:TrackPointExtension>
            <ns3:atemp>19.0</ns3:atemp>
          </ns3:TrackPointExtension>
        </extensions>
      </trkpt>
      <trkpt lat="42.5468514673411846160888671875" lon="20.14324662275612354278564453125">
        <ele>2083.199951171875</ele>
        <time>2026-06-20T07:48:59.000Z</time>
        <extensions>
          <ns3:TrackPointExtension>
            <ns3:atemp>19.0</ns3:atemp>
          </ns3:TrackPointExtension>
        </extensions>
      </trkpt>
      <trkpt lat="42.5468514673411846160888671875" lon="20.14324662275612354278564453125">
        <ele>2083.199951171875</ele>
        <time>2026-06-20T07:49:00.000Z</time>
        <extensions>
          <ns3:TrackPointExtension>
            <ns3:atemp>19.0</ns3:atemp>
          </ns3:TrackPointExtension>
        </extensions>
      </trkpt>
      <trkpt lat="42.5468514673411846160888671875" lon="20.14324662275612354278564453125">
        <ele>2083.199951171875</ele>
        <time>2026-06-20T07:49:01.000Z</time>
        <extensions>
          <ns3:TrackPointExtension>
            <ns3:atemp>19.0</ns3:atemp>
          </ns3:TrackPointExtension>
        </extensions>
      </trkpt>
      <trkpt lat="42.5468514673411846160888671875" lon="20.14324662275612354278564453125">
        <ele>2083.199951171875</ele>
        <time>2026-06-20T07:49:02.000Z</time>
        <extensions>
          <ns3:TrackPointExtension>
            <ns3:atemp>19.0</ns3:atemp>
          </ns3:TrackPointExtension>
        </extensions>
      </trkpt>
      <trkpt lat="42.5468514673411846160888671875" lon="20.14324662275612354278564453125">
        <ele>2083.199951171875</ele>
        <time>2026-06-20T07:49:03.000Z</time>
        <extensions>
          <ns3:TrackPointExtension>
            <ns3:atemp>19.0</ns3:atemp>
          </ns3:TrackPointExtension>
        </extensions>
      </trkpt>
      <trkpt lat="42.5468514673411846160888671875" lon="20.14324662275612354278564453125">
        <ele>2083.199951171875</ele>
        <time>2026-06-20T07:49:04.000Z</time>
        <extensions>
          <ns3:TrackPointExtension>
            <ns3:atemp>19.0</ns3:atemp>
          </ns3:TrackPointExtension>
        </extensions>
      </trkpt>
      <trkpt lat="42.5468514673411846160888671875" lon="20.14324662275612354278564453125">
        <ele>2083.199951171875</ele>
        <time>2026-06-20T07:49:05.000Z</time>
        <extensions>
          <ns3:TrackPointExtension>
            <ns3:atemp>19.0</ns3:atemp>
          </ns3:TrackPointExtension>
        </extensions>
      </trkpt>
      <trkpt lat="42.5468514673411846160888671875" lon="20.14324662275612354278564453125">
        <ele>2083.199951171875</ele>
        <time>2026-06-20T07:49:06.000Z</time>
        <extensions>
          <ns3:TrackPointExtension>
            <ns3:atemp>19.0</ns3:atemp>
          </ns3:TrackPointExtension>
        </extensions>
      </trkpt>
      <trkpt lat="42.5468514673411846160888671875" lon="20.14324662275612354278564453125">
        <ele>2083.199951171875</ele>
        <time>2026-06-20T07:49:07.000Z</time>
        <extensions>
          <ns3:TrackPointExtension>
            <ns3:atemp>19.0</ns3:atemp>
          </ns3:TrackPointExtension>
        </extensions>
      </trkpt>
      <trkpt lat="42.5468514673411846160888671875" lon="20.14324662275612354278564453125">
        <ele>2083.199951171875</ele>
        <time>2026-06-20T07:49:08.000Z</time>
        <extensions>
          <ns3:TrackPointExtension>
            <ns3:atemp>19.0</ns3:atemp>
          </ns3:TrackPointExtension>
        </extensions>
      </trkpt>
      <trkpt lat="42.5468514673411846160888671875" lon="20.14324662275612354278564453125">
        <ele>2083.199951171875</ele>
        <time>2026-06-20T07:49:09.000Z</time>
        <extensions>
          <ns3:TrackPointExtension>
            <ns3:atemp>19.0</ns3:atemp>
          </ns3:TrackPointExtension>
        </extensions>
      </trkpt>
      <trkpt lat="42.5468514673411846160888671875" lon="20.14324662275612354278564453125">
        <ele>2083.199951171875</ele>
        <time>2026-06-20T07:49:10.000Z</time>
        <extensions>
          <ns3:TrackPointExtension>
            <ns3:atemp>19.0</ns3:atemp>
          </ns3:TrackPointExtension>
        </extensions>
      </trkpt>
      <trkpt lat="42.5468514673411846160888671875" lon="20.14324662275612354278564453125">
        <ele>2083.199951171875</ele>
        <time>2026-06-20T07:49:11.000Z</time>
        <extensions>
          <ns3:TrackPointExtension>
            <ns3:atemp>19.0</ns3:atemp>
          </ns3:TrackPointExtension>
        </extensions>
      </trkpt>
      <trkpt lat="42.5468514673411846160888671875" lon="20.14324662275612354278564453125">
        <ele>2083.199951171875</ele>
        <time>2026-06-20T07:49:12.000Z</time>
        <extensions>
          <ns3:TrackPointExtension>
            <ns3:atemp>19.0</ns3:atemp>
          </ns3:TrackPointExtension>
        </extensions>
      </trkpt>
      <trkpt lat="42.5468514673411846160888671875" lon="20.14324662275612354278564453125">
        <ele>2083.199951171875</ele>
        <time>2026-06-20T07:49:13.000Z</time>
        <extensions>
          <ns3:TrackPointExtension>
            <ns3:atemp>19.0</ns3:atemp>
          </ns3:TrackPointExtension>
        </extensions>
      </trkpt>
      <trkpt lat="42.5468514673411846160888671875" lon="20.14324662275612354278564453125">
        <ele>2083.199951171875</ele>
        <time>2026-06-20T07:49:14.000Z</time>
        <extensions>
          <ns3:TrackPointExtension>
            <ns3:atemp>19.0</ns3:atemp>
          </ns3:TrackPointExtension>
        </extensions>
      </trkpt>
      <trkpt lat="42.5468514673411846160888671875" lon="20.14324662275612354278564453125">
        <ele>2083.199951171875</ele>
        <time>2026-06-20T07:49:15.000Z</time>
        <extensions>
          <ns3:TrackPointExtension>
            <ns3:atemp>19.0</ns3:atemp>
          </ns3:TrackPointExtension>
        </extensions>
      </trkpt>
      <trkpt lat="42.5468514673411846160888671875" lon="20.14324662275612354278564453125">
        <ele>2083.199951171875</ele>
        <time>2026-06-20T07:49:16.000Z</time>
        <extensions>
          <ns3:TrackPointExtension>
            <ns3:atemp>19.0</ns3:atemp>
          </ns3:TrackPointExtension>
        </extensions>
      </trkpt>
      <trkpt lat="42.5468514673411846160888671875" lon="20.14324662275612354278564453125">
        <ele>2083.199951171875</ele>
        <time>2026-06-20T07:49:17.000Z</time>
        <extensions>
          <ns3:TrackPointExtension>
            <ns3:atemp>19.0</ns3:atemp>
          </ns3:TrackPointExtension>
        </extensions>
      </trkpt>
      <trkpt lat="42.5468514673411846160888671875" lon="20.14324662275612354278564453125">
        <ele>2083.199951171875</ele>
        <time>2026-06-20T07:49:18.000Z</time>
        <extensions>
          <ns3:TrackPointExtension>
            <ns3:atemp>19.0</ns3:atemp>
          </ns3:TrackPointExtension>
        </extensions>
      </trkpt>
      <trkpt lat="42.5468514673411846160888671875" lon="20.14324662275612354278564453125">
        <ele>2083.199951171875</ele>
        <time>2026-06-20T07:49:19.000Z</time>
        <extensions>
          <ns3:TrackPointExtension>
            <ns3:atemp>19.0</ns3:atemp>
          </ns3:TrackPointExtension>
        </extensions>
      </trkpt>
      <trkpt lat="42.5468514673411846160888671875" lon="20.14324662275612354278564453125">
        <ele>2083.199951171875</ele>
        <time>2026-06-20T07:49:20.000Z</time>
        <extensions>
          <ns3:TrackPointExtension>
            <ns3:atemp>19.0</ns3:atemp>
          </ns3:TrackPointExtension>
        </extensions>
      </trkpt>
      <trkpt lat="42.5468514673411846160888671875" lon="20.14324662275612354278564453125">
        <ele>2083.199951171875</ele>
        <time>2026-06-20T07:49:21.000Z</time>
        <extensions>
          <ns3:TrackPointExtension>
            <ns3:atemp>19.0</ns3:atemp>
          </ns3:TrackPointExtension>
        </extensions>
      </trkpt>
      <trkpt lat="42.5468514673411846160888671875" lon="20.14324662275612354278564453125">
        <ele>2083.199951171875</ele>
        <time>2026-06-20T07:49:22.000Z</time>
        <extensions>
          <ns3:TrackPointExtension>
            <ns3:atemp>19.0</ns3:atemp>
          </ns3:TrackPointExtension>
        </extensions>
      </trkpt>
      <trkpt lat="42.5468514673411846160888671875" lon="20.14324662275612354278564453125">
        <ele>2083.199951171875</ele>
        <time>2026-06-20T07:49:23.000Z</time>
        <extensions>
          <ns3:TrackPointExtension>
            <ns3:atemp>19.0</ns3:atemp>
          </ns3:TrackPointExtension>
        </extensions>
      </trkpt>
      <trkpt lat="42.5468514673411846160888671875" lon="20.14324662275612354278564453125">
        <ele>2083.199951171875</ele>
        <time>2026-06-20T07:49:24.000Z</time>
        <extensions>
          <ns3:TrackPointExtension>
            <ns3:atemp>19.0</ns3:atemp>
          </ns3:TrackPointExtension>
        </extensions>
      </trkpt>
      <trkpt lat="42.5468514673411846160888671875" lon="20.14324662275612354278564453125">
        <ele>2083.199951171875</ele>
        <time>2026-06-20T07:49:25.000Z</time>
        <extensions>
          <ns3:TrackPointExtension>
            <ns3:atemp>19.0</ns3:atemp>
          </ns3:TrackPointExtension>
        </extensions>
      </trkpt>
      <trkpt lat="42.5468514673411846160888671875" lon="20.14324662275612354278564453125">
        <ele>2083.199951171875</ele>
        <time>2026-06-20T07:49:26.000Z</time>
        <extensions>
          <ns3:TrackPointExtension>
            <ns3:atemp>19.0</ns3:atemp>
          </ns3:TrackPointExtension>
        </extensions>
      </trkpt>
      <trkpt lat="42.5468514673411846160888671875" lon="20.14324662275612354278564453125">
        <ele>2083.199951171875</ele>
        <time>2026-06-20T07:49:27.000Z</time>
        <extensions>
          <ns3:TrackPointExtension>
            <ns3:atemp>19.0</ns3:atemp>
          </ns3:TrackPointExtension>
        </extensions>
      </trkpt>
      <trkpt lat="42.5468514673411846160888671875" lon="20.14324662275612354278564453125">
        <ele>2083.199951171875</ele>
        <time>2026-06-20T07:49:28.000Z</time>
        <extensions>
          <ns3:TrackPointExtension>
            <ns3:atemp>19.0</ns3:atemp>
          </ns3:TrackPointExtension>
        </extensions>
      </trkpt>
      <trkpt lat="42.5468514673411846160888671875" lon="20.14324662275612354278564453125">
        <ele>2083.199951171875</ele>
        <time>2026-06-20T07:49:29.000Z</time>
        <extensions>
          <ns3:TrackPointExtension>
            <ns3:atemp>19.0</ns3:atemp>
          </ns3:TrackPointExtension>
        </extensions>
      </trkpt>
      <trkpt lat="42.5468514673411846160888671875" lon="20.14324662275612354278564453125">
        <ele>2083.199951171875</ele>
        <time>2026-06-20T07:49:30.000Z</time>
        <extensions>
          <ns3:TrackPointExtension>
            <ns3:atemp>19.0</ns3:atemp>
          </ns3:TrackPointExtension>
        </extensions>
      </trkpt>
      <trkpt lat="42.5468514673411846160888671875" lon="20.14324662275612354278564453125">
        <ele>2083.199951171875</ele>
        <time>2026-06-20T07:49:31.000Z</time>
        <extensions>
          <ns3:TrackPointExtension>
            <ns3:atemp>19.0</ns3:atemp>
          </ns3:TrackPointExtension>
        </extensions>
      </trkpt>
      <trkpt lat="42.5468514673411846160888671875" lon="20.14324662275612354278564453125">
        <ele>2083.199951171875</ele>
        <time>2026-06-20T07:49:32.000Z</time>
        <extensions>
          <ns3:TrackPointExtension>
            <ns3:atemp>19.0</ns3:atemp>
          </ns3:TrackPointExtension>
        </extensions>
      </trkpt>
      <trkpt lat="42.5468514673411846160888671875" lon="20.14324662275612354278564453125">
        <ele>2083.199951171875</ele>
        <time>2026-06-20T07:49:33.000Z</time>
        <extensions>
          <ns3:TrackPointExtension>
            <ns3:atemp>19.0</ns3:atemp>
          </ns3:TrackPointExtension>
        </extensions>
      </trkpt>
      <trkpt lat="42.5468514673411846160888671875" lon="20.14324662275612354278564453125">
        <ele>2083.199951171875</ele>
        <time>2026-06-20T07:49:34.000Z</time>
        <extensions>
          <ns3:TrackPointExtension>
            <ns3:atemp>19.0</ns3:atemp>
          </ns3:TrackPointExtension>
        </extensions>
      </trkpt>
      <trkpt lat="42.5468514673411846160888671875" lon="20.14324662275612354278564453125">
        <ele>2083.199951171875</ele>
        <time>2026-06-20T07:49:35.000Z</time>
        <extensions>
          <ns3:TrackPointExtension>
            <ns3:atemp>19.0</ns3:atemp>
          </ns3:TrackPointExtension>
        </extensions>
      </trkpt>
      <trkpt lat="42.5468514673411846160888671875" lon="20.14324662275612354278564453125">
        <ele>2083.199951171875</ele>
        <time>2026-06-20T07:49:36.000Z</time>
        <extensions>
          <ns3:TrackPointExtension>
            <ns3:atemp>19.0</ns3:atemp>
          </ns3:TrackPointExtension>
        </extensions>
      </trkpt>
      <trkpt lat="42.5468514673411846160888671875" lon="20.14324662275612354278564453125">
        <ele>2083.199951171875</ele>
        <time>2026-06-20T07:49:37.000Z</time>
        <extensions>
          <ns3:TrackPointExtension>
            <ns3:atemp>19.0</ns3:atemp>
          </ns3:TrackPointExtension>
        </extensions>
      </trkpt>
      <trkpt lat="42.5468514673411846160888671875" lon="20.14324662275612354278564453125">
        <ele>2083.199951171875</ele>
        <time>2026-06-20T07:49:38.000Z</time>
        <extensions>
          <ns3:TrackPointExtension>
            <ns3:atemp>19.0</ns3:atemp>
          </ns3:TrackPointExtension>
        </extensions>
      </trkpt>
      <trkpt lat="42.5468514673411846160888671875" lon="20.14324662275612354278564453125">
        <ele>2083.199951171875</ele>
        <time>2026-06-20T07:49:39.000Z</time>
        <extensions>
          <ns3:TrackPointExtension>
            <ns3:atemp>19.0</ns3:atemp>
          </ns3:TrackPointExtension>
        </extensions>
      </trkpt>
      <trkpt lat="42.5468514673411846160888671875" lon="20.14324662275612354278564453125">
        <ele>2083.199951171875</ele>
        <time>2026-06-20T07:49:40.000Z</time>
        <extensions>
          <ns3:TrackPointExtension>
            <ns3:atemp>19.0</ns3:atemp>
          </ns3:TrackPointExtension>
        </extensions>
      </trkpt>
      <trkpt lat="42.5468514673411846160888671875" lon="20.14324662275612354278564453125">
        <ele>2083.199951171875</ele>
        <time>2026-06-20T07:49:41.000Z</time>
        <extensions>
          <ns3:TrackPointExtension>
            <ns3:atemp>19.0</ns3:atemp>
          </ns3:TrackPointExtension>
        </extensions>
      </trkpt>
      <trkpt lat="42.5468514673411846160888671875" lon="20.14324662275612354278564453125">
        <ele>2083.199951171875</ele>
        <time>2026-06-20T07:49:42.000Z</time>
        <extensions>
          <ns3:TrackPointExtension>
            <ns3:atemp>19.0</ns3:atemp>
          </ns3:TrackPointExtension>
        </extensions>
      </trkpt>
      <trkpt lat="42.5468514673411846160888671875" lon="20.14324662275612354278564453125">
        <ele>2083.199951171875</ele>
        <time>2026-06-20T07:49:43.000Z</time>
        <extensions>
          <ns3:TrackPointExtension>
            <ns3:atemp>19.0</ns3:atemp>
          </ns3:TrackPointExtension>
        </extensions>
      </trkpt>
      <trkpt lat="42.5468514673411846160888671875" lon="20.14324662275612354278564453125">
        <ele>2083.199951171875</ele>
        <time>2026-06-20T07:49:44.000Z</time>
        <extensions>
          <ns3:TrackPointExtension>
            <ns3:atemp>19.0</ns3:atemp>
          </ns3:TrackPointExtension>
        </extensions>
      </trkpt>
      <trkpt lat="42.5468514673411846160888671875" lon="20.14324662275612354278564453125">
        <ele>2083.199951171875</ele>
        <time>2026-06-20T07:49:45.000Z</time>
        <extensions>
          <ns3:TrackPointExtension>
            <ns3:atemp>19.0</ns3:atemp>
          </ns3:TrackPointExtension>
        </extensions>
      </trkpt>
      <trkpt lat="42.5468514673411846160888671875" lon="20.14324662275612354278564453125">
        <ele>2083.199951171875</ele>
        <time>2026-06-20T07:49:46.000Z</time>
        <extensions>
          <ns3:TrackPointExtension>
            <ns3:atemp>18.0</ns3:atemp>
          </ns3:TrackPointExtension>
        </extensions>
      </trkpt>
      <trkpt lat="42.5468514673411846160888671875" lon="20.14324662275612354278564453125">
        <ele>2083.199951171875</ele>
        <time>2026-06-20T07:49:47.000Z</time>
        <extensions>
          <ns3:TrackPointExtension>
            <ns3:atemp>19.0</ns3:atemp>
          </ns3:TrackPointExtension>
        </extensions>
      </trkpt>
      <trkpt lat="42.5468514673411846160888671875" lon="20.14324662275612354278564453125">
        <ele>2083.199951171875</ele>
        <time>2026-06-20T07:49:48.000Z</time>
        <extensions>
          <ns3:TrackPointExtension>
            <ns3:atemp>19.0</ns3:atemp>
          </ns3:TrackPointExtension>
        </extensions>
      </trkpt>
      <trkpt lat="42.5468514673411846160888671875" lon="20.14324662275612354278564453125">
        <ele>2083.199951171875</ele>
        <time>2026-06-20T07:49:49.000Z</time>
        <extensions>
          <ns3:TrackPointExtension>
            <ns3:atemp>19.0</ns3:atemp>
          </ns3:TrackPointExtension>
        </extensions>
      </trkpt>
      <trkpt lat="42.5468514673411846160888671875" lon="20.14324662275612354278564453125">
        <ele>2083.199951171875</ele>
        <time>2026-06-20T07:49:50.000Z</time>
        <extensions>
          <ns3:TrackPointExtension>
            <ns3:atemp>19.0</ns3:atemp>
          </ns3:TrackPointExtension>
        </extensions>
      </trkpt>
      <trkpt lat="42.5468514673411846160888671875" lon="20.14324662275612354278564453125">
        <ele>2083.199951171875</ele>
        <time>2026-06-20T07:49:51.000Z</time>
        <extensions>
          <ns3:TrackPointExtension>
            <ns3:atemp>19.0</ns3:atemp>
          </ns3:TrackPointExtension>
        </extensions>
      </trkpt>
      <trkpt lat="42.5468529760837554931640625" lon="20.14325902797281742095947265625">
        <ele>2083.199951171875</ele>
        <time>2026-06-20T07:49:52.000Z</time>
        <extensions>
          <ns3:TrackPointExtension>
            <ns3:atemp>19.0</ns3:atemp>
          </ns3:TrackPointExtension>
        </extensions>
      </trkpt>
      <trkpt lat="42.54684694111347198486328125" lon="20.14326539821922779083251953125">
        <ele>2083.199951171875</ele>
        <time>2026-06-20T07:49:53.000Z</time>
        <extensions>
          <ns3:TrackPointExtension>
            <ns3:atemp>19.0</ns3:atemp>
          </ns3:TrackPointExtension>
        </extensions>
      </trkpt>
      <trkpt lat="42.54684015177190303802490234375" lon="20.14327579177916049957275390625">
        <ele>2083.199951171875</ele>
        <time>2026-06-20T07:49:54.000Z</time>
        <extensions>
          <ns3:TrackPointExtension>
            <ns3:atemp>19.0</ns3:atemp>
          </ns3:TrackPointExtension>
        </extensions>
      </trkpt>
      <trkpt lat="42.54683696664869785308837890625" lon="20.1432778872549533843994140625">
        <ele>2083.199951171875</ele>
        <time>2026-06-20T07:49:55.000Z</time>
        <extensions>
          <ns3:TrackPointExtension>
            <ns3:atemp>19.0</ns3:atemp>
          </ns3:TrackPointExtension>
        </extensions>
      </trkpt>
      <trkpt lat="42.5468368828296661376953125" lon="20.1432778872549533843994140625">
        <ele>2083.199951171875</ele>
        <time>2026-06-20T07:49:56.000Z</time>
        <extensions>
          <ns3:TrackPointExtension>
            <ns3:atemp>19.0</ns3:atemp>
          </ns3:TrackPointExtension>
        </extensions>
      </trkpt>
      <trkpt lat="42.5468367151916027069091796875" lon="20.14327797107398509979248046875">
        <ele>2083.199951171875</ele>
        <time>2026-06-20T07:49:57.000Z</time>
        <extensions>
          <ns3:TrackPointExtension>
            <ns3:atemp>19.0</ns3:atemp>
          </ns3:TrackPointExtension>
        </extensions>
      </trkpt>
      <trkpt lat="42.5468368828296661376953125" lon="20.1432778872549533843994140625">
        <ele>2083.199951171875</ele>
        <time>2026-06-20T07:49:58.000Z</time>
        <extensions>
          <ns3:TrackPointExtension>
            <ns3:atemp>18.0</ns3:atemp>
          </ns3:TrackPointExtension>
        </extensions>
      </trkpt>
      <trkpt lat="42.5468368828296661376953125" lon="20.1432778872549533843994140625">
        <ele>2083.199951171875</ele>
        <time>2026-06-20T07:49:59.000Z</time>
        <extensions>
          <ns3:TrackPointExtension>
            <ns3:atemp>18.0</ns3:atemp>
          </ns3:TrackPointExtension>
        </extensions>
      </trkpt>
      <trkpt lat="42.54683260805904865264892578125" lon="20.14327713288366794586181640625">
        <ele>2083.199951171875</ele>
        <time>2026-06-20T07:50:00.000Z</time>
        <extensions>
          <ns3:TrackPointExtension>
            <ns3:atemp>18.0</ns3:atemp>
          </ns3:TrackPointExtension>
        </extensions>
      </trkpt>
      <trkpt lat="42.54682841710746288299560546875" lon="20.143282078206539154052734375">
        <ele>2083.199951171875</ele>
        <time>2026-06-20T07:50:01.000Z</time>
        <extensions>
          <ns3:TrackPointExtension>
            <ns3:atemp>18.0</ns3:atemp>
          </ns3:TrackPointExtension>
        </extensions>
      </trkpt>
      <trkpt lat="42.5468368828296661376953125" lon="20.1432778872549533843994140625">
        <ele>2083.199951171875</ele>
        <time>2026-06-20T07:50:02.000Z</time>
        <extensions>
          <ns3:TrackPointExtension>
            <ns3:atemp>18.0</ns3:atemp>
          </ns3:TrackPointExtension>
        </extensions>
      </trkpt>
      <trkpt lat="42.54682523198425769805908203125" lon="20.143284760415554046630859375">
        <ele>2083.199951171875</ele>
        <time>2026-06-20T07:50:03.000Z</time>
        <extensions>
          <ns3:TrackPointExtension>
            <ns3:atemp>18.0</ns3:atemp>
          </ns3:TrackPointExtension>
        </extensions>
      </trkpt>
      <trkpt lat="42.54682305268943309783935546875" lon="20.1432882808148860931396484375">
        <ele>2083.199951171875</ele>
        <time>2026-06-20T07:50:04.000Z</time>
        <extensions>
          <ns3:TrackPointExtension>
            <ns3:atemp>19.0</ns3:atemp>
          </ns3:TrackPointExtension>
        </extensions>
      </trkpt>
      <trkpt lat="42.54682305268943309783935546875" lon="20.143292807042598724365234375">
        <ele>2083.199951171875</ele>
        <time>2026-06-20T07:50:05.000Z</time>
        <extensions>
          <ns3:TrackPointExtension>
            <ns3:atemp>19.0</ns3:atemp>
          </ns3:TrackPointExtension>
        </extensions>
      </trkpt>
      <trkpt lat="42.54682305268943309783935546875" lon="20.14329289086163043975830078125">
        <ele>2083.199951171875</ele>
        <time>2026-06-20T07:50:06.000Z</time>
        <extensions>
          <ns3:TrackPointExtension>
            <ns3:atemp>18.0</ns3:atemp>
          </ns3:TrackPointExtension>
        </extensions>
      </trkpt>
      <trkpt lat="42.54682305268943309783935546875" lon="20.14329305849969387054443359375">
        <ele>2083.199951171875</ele>
        <time>2026-06-20T07:50:07.000Z</time>
        <extensions>
          <ns3:TrackPointExtension>
            <ns3:atemp>18.0</ns3:atemp>
          </ns3:TrackPointExtension>
        </extensions>
      </trkpt>
      <trkpt lat="42.5468209572136402130126953125" lon="20.1433016918599605560302734375">
        <ele>2083.199951171875</ele>
        <time>2026-06-20T07:50:08.000Z</time>
        <extensions>
          <ns3:TrackPointExtension>
            <ns3:atemp>18.0</ns3:atemp>
          </ns3:TrackPointExtension>
        </extensions>
      </trkpt>
      <trkpt lat="42.546816766262054443359375" lon="20.143306553363800048828125">
        <ele>2083.199951171875</ele>
        <time>2026-06-20T07:50:09.000Z</time>
        <extensions>
          <ns3:TrackPointExtension>
            <ns3:atemp>19.0</ns3:atemp>
          </ns3:TrackPointExtension>
        </extensions>
      </trkpt>
      <trkpt lat="42.5468135811388492584228515625" lon="20.14331267215311527252197265625">
        <ele>2083.199951171875</ele>
        <time>2026-06-20T07:50:10.000Z</time>
        <extensions>
          <ns3:TrackPointExtension>
            <ns3:atemp>19.0</ns3:atemp>
          </ns3:TrackPointExtension>
        </extensions>
      </trkpt>
      <trkpt lat="42.546809054911136627197265625" lon="20.14331527054309844970703125">
        <ele>2083.199951171875</ele>
        <time>2026-06-20T07:50:11.000Z</time>
        <extensions>
          <ns3:TrackPointExtension>
            <ns3:atemp>19.0</ns3:atemp>
          </ns3:TrackPointExtension>
        </extensions>
      </trkpt>
      <trkpt lat="42.54680897109210491180419921875" lon="20.14331535436213016510009765625">
        <ele>2083.199951171875</ele>
        <time>2026-06-20T07:50:12.000Z</time>
        <extensions>
          <ns3:TrackPointExtension>
            <ns3:atemp>19.0</ns3:atemp>
          </ns3:TrackPointExtension>
        </extensions>
      </trkpt>
      <trkpt lat="42.546804361045360565185546875" lon="20.14332189224660396575927734375">
        <ele>2083.199951171875</ele>
        <time>2026-06-20T07:50:13.000Z</time>
        <extensions>
          <ns3:TrackPointExtension>
            <ns3:atemp>18.0</ns3:atemp>
          </ns3:TrackPointExtension>
        </extensions>
      </trkpt>
      <trkpt lat="42.546804361045360565185546875" lon="20.14332189224660396575927734375">
        <ele>2083.199951171875</ele>
        <time>2026-06-20T07:50:14.000Z</time>
        <extensions>
          <ns3:TrackPointExtension>
            <ns3:atemp>18.0</ns3:atemp>
          </ns3:TrackPointExtension>
        </extensions>
      </trkpt>
      <trkpt lat="42.54680427722632884979248046875" lon="20.14332205988466739654541015625">
        <ele>2083.199951171875</ele>
        <time>2026-06-20T07:50:15.000Z</time>
        <extensions>
          <ns3:TrackPointExtension>
            <ns3:atemp>18.0</ns3:atemp>
          </ns3:TrackPointExtension>
        </extensions>
      </trkpt>
      <trkpt lat="42.54680360667407512664794921875" lon="20.1433281786739826202392578125">
        <ele>2083.199951171875</ele>
        <time>2026-06-20T07:50:16.000Z</time>
        <extensions>
          <ns3:TrackPointExtension>
            <ns3:atemp>18.0</ns3:atemp>
          </ns3:TrackPointExtension>
        </extensions>
      </trkpt>
      <trkpt lat="42.54679455421864986419677734375" lon="20.14333396218717098236083984375">
        <ele>2083.199951171875</ele>
        <time>2026-06-20T07:50:17.000Z</time>
        <extensions>
          <ns3:TrackPointExtension>
            <ns3:atemp>18.0</ns3:atemp>
          </ns3:TrackPointExtension>
        </extensions>
      </trkpt>
      <trkpt lat="42.5467934645712375640869140625" lon="20.1433362253010272979736328125">
        <ele>2083.199951171875</ele>
        <time>2026-06-20T07:50:18.000Z</time>
        <extensions>
          <ns3:TrackPointExtension>
            <ns3:atemp>18.0</ns3:atemp>
          </ns3:TrackPointExtension>
        </extensions>
      </trkpt>
      <trkpt lat="42.5467934645712375640869140625" lon="20.1433362253010272979736328125">
        <ele>2083.199951171875</ele>
        <time>2026-06-20T07:50:19.000Z</time>
        <extensions>
          <ns3:TrackPointExtension>
            <ns3:atemp>18.0</ns3:atemp>
          </ns3:TrackPointExtension>
        </extensions>
      </trkpt>
      <trkpt lat="42.54679463803768157958984375" lon="20.1433419249951839447021484375">
        <ele>2083.199951171875</ele>
        <time>2026-06-20T07:50:20.000Z</time>
        <extensions>
          <ns3:TrackPointExtension>
            <ns3:atemp>18.0</ns3:atemp>
          </ns3:TrackPointExtension>
        </extensions>
      </trkpt>
      <trkpt lat="42.5467912852764129638671875" lon="20.14334150590002536773681640625">
        <ele>2083.199951171875</ele>
        <time>2026-06-20T07:50:21.000Z</time>
        <extensions>
          <ns3:TrackPointExtension>
            <ns3:atemp>18.0</ns3:atemp>
          </ns3:TrackPointExtension>
        </extensions>
      </trkpt>
      <trkpt lat="42.5467912852764129638671875" lon="20.14334150590002536773681640625">
        <ele>2083.199951171875</ele>
        <time>2026-06-20T07:50:22.000Z</time>
        <extensions>
          <ns3:TrackPointExtension>
            <ns3:atemp>18.0</ns3:atemp>
          </ns3:TrackPointExtension>
        </extensions>
      </trkpt>
      <trkpt lat="42.5467912852764129638671875" lon="20.14334150590002536773681640625">
        <ele>2083.199951171875</ele>
        <time>2026-06-20T07:50:23.000Z</time>
        <extensions>
          <ns3:TrackPointExtension>
            <ns3:atemp>18.0</ns3:atemp>
          </ns3:TrackPointExtension>
        </extensions>
      </trkpt>
      <trkpt lat="42.5467911176383495330810546875" lon="20.1433419249951839447021484375">
        <ele>2083.199951171875</ele>
        <time>2026-06-20T07:50:24.000Z</time>
        <extensions>
          <ns3:TrackPointExtension>
            <ns3:atemp>18.0</ns3:atemp>
          </ns3:TrackPointExtension>
        </extensions>
      </trkpt>
      <trkpt lat="42.5467912852764129638671875" lon="20.14334150590002536773681640625">
        <ele>2083.199951171875</ele>
        <time>2026-06-20T07:50:25.000Z</time>
        <extensions>
          <ns3:TrackPointExtension>
            <ns3:atemp>18.0</ns3:atemp>
          </ns3:TrackPointExtension>
        </extensions>
      </trkpt>
      <trkpt lat="42.5467901118099689483642578125" lon="20.14334938488900661468505859375">
        <ele>2083.199951171875</ele>
        <time>2026-06-20T07:50:26.000Z</time>
        <extensions>
          <ns3:TrackPointExtension>
            <ns3:atemp>18.0</ns3:atemp>
          </ns3:TrackPointExtension>
        </extensions>
      </trkpt>
      <trkpt lat="42.54678751341998577117919921875" lon="20.143354833126068115234375">
        <ele>2083.199951171875</ele>
        <time>2026-06-20T07:50:27.000Z</time>
        <extensions>
          <ns3:TrackPointExtension>
            <ns3:atemp>18.0</ns3:atemp>
          </ns3:TrackPointExtension>
        </extensions>
      </trkpt>
      <trkpt lat="42.5467837415635585784912109375" lon="20.1433600299060344696044921875">
        <ele>2083.199951171875</ele>
        <time>2026-06-20T07:50:28.000Z</time>
        <extensions>
          <ns3:TrackPointExtension>
            <ns3:atemp>18.0</ns3:atemp>
          </ns3:TrackPointExtension>
        </extensions>
      </trkpt>
      <trkpt lat="42.5467820651829242706298828125" lon="20.14336246065795421600341796875">
        <ele>2083.199951171875</ele>
        <time>2026-06-20T07:50:29.000Z</time>
        <extensions>
          <ns3:TrackPointExtension>
            <ns3:atemp>18.0</ns3:atemp>
          </ns3:TrackPointExtension>
        </extensions>
      </trkpt>
      <trkpt lat="42.54678198136389255523681640625" lon="20.143362544476985931396484375">
        <ele>2083.199951171875</ele>
        <time>2026-06-20T07:50:30.000Z</time>
        <extensions>
          <ns3:TrackPointExtension>
            <ns3:atemp>18.0</ns3:atemp>
          </ns3:TrackPointExtension>
        </extensions>
      </trkpt>
      <trkpt lat="42.54678198136389255523681640625" lon="20.143362544476985931396484375">
        <ele>2083.199951171875</ele>
        <time>2026-06-20T07:50:31.000Z</time>
        <extensions>
          <ns3:TrackPointExtension>
            <ns3:atemp>18.0</ns3:atemp>
          </ns3:TrackPointExtension>
        </extensions>
      </trkpt>
      <trkpt lat="42.54678198136389255523681640625" lon="20.143362544476985931396484375">
        <ele>2083.199951171875</ele>
        <time>2026-06-20T07:50:32.000Z</time>
        <extensions>
          <ns3:TrackPointExtension>
            <ns3:atemp>18.0</ns3:atemp>
          </ns3:TrackPointExtension>
        </extensions>
      </trkpt>
      <trkpt lat="42.54678198136389255523681640625" lon="20.143362544476985931396484375">
        <ele>2083.199951171875</ele>
        <time>2026-06-20T07:50:33.000Z</time>
        <extensions>
          <ns3:TrackPointExtension>
            <ns3:atemp>18.0</ns3:atemp>
          </ns3:TrackPointExtension>
        </extensions>
      </trkpt>
      <trkpt lat="42.54678131081163883209228515625" lon="20.1433630473911762237548828125">
        <ele>2083.199951171875</ele>
        <time>2026-06-20T07:50:34.000Z</time>
        <extensions>
          <ns3:TrackPointExtension>
            <ns3:atemp>18.0</ns3:atemp>
          </ns3:TrackPointExtension>
        </extensions>
      </trkpt>
      <trkpt lat="42.5467753596603870391845703125" lon="20.14337117783725261688232421875">
        <ele>2083.199951171875</ele>
        <time>2026-06-20T07:50:35.000Z</time>
        <extensions>
          <ns3:TrackPointExtension>
            <ns3:atemp>18.0</ns3:atemp>
          </ns3:TrackPointExtension>
        </extensions>
      </trkpt>
      <trkpt lat="42.54677074961364269256591796875" lon="20.14337939210236072540283203125">
        <ele>2083.199951171875</ele>
        <time>2026-06-20T07:50:36.000Z</time>
        <extensions>
          <ns3:TrackPointExtension>
            <ns3:atemp>18.0</ns3:atemp>
          </ns3:TrackPointExtension>
        </extensions>
      </trkpt>
      <trkpt lat="42.5467713363468647003173828125" lon="20.14338559471070766448974609375">
        <ele>2083.199951171875</ele>
        <time>2026-06-20T07:50:37.000Z</time>
        <extensions>
          <ns3:TrackPointExtension>
            <ns3:atemp>18.0</ns3:atemp>
          </ns3:TrackPointExtension>
        </extensions>
      </trkpt>
      <trkpt lat="42.5467713363468647003173828125" lon="20.1433856785297393798828125">
        <ele>2083.199951171875</ele>
        <time>2026-06-20T07:50:38.000Z</time>
        <extensions>
          <ns3:TrackPointExtension>
            <ns3:atemp>18.0</ns3:atemp>
          </ns3:TrackPointExtension>
        </extensions>
      </trkpt>
      <trkpt lat="42.5467696599662303924560546875" lon="20.1433938927948474884033203125">
        <ele>2083.199951171875</ele>
        <time>2026-06-20T07:50:39.000Z</time>
        <extensions>
          <ns3:TrackPointExtension>
            <ns3:atemp>18.0</ns3:atemp>
          </ns3:TrackPointExtension>
        </extensions>
      </trkpt>
      <trkpt lat="42.5467673130333423614501953125" lon="20.1433979161083698272705078125">
        <ele>2083.199951171875</ele>
        <time>2026-06-20T07:50:40.000Z</time>
        <extensions>
          <ns3:TrackPointExtension>
            <ns3:atemp>18.0</ns3:atemp>
          </ns3:TrackPointExtension>
        </extensions>
      </trkpt>
      <trkpt lat="42.54676722921431064605712890625" lon="20.14339799992740154266357421875">
        <ele>2083.199951171875</ele>
        <time>2026-06-20T07:50:41.000Z</time>
        <extensions>
          <ns3:TrackPointExtension>
            <ns3:atemp>18.0</ns3:atemp>
          </ns3:TrackPointExtension>
        </extensions>
      </trkpt>
      <trkpt lat="42.5467644631862640380859375" lon="20.14340302906930446624755859375">
        <ele>2083.199951171875</ele>
        <time>2026-06-20T07:50:42.000Z</time>
        <extensions>
          <ns3:TrackPointExtension>
            <ns3:atemp>18.0</ns3:atemp>
          </ns3:TrackPointExtension>
        </extensions>
      </trkpt>
      <trkpt lat="42.546763122081756591796875" lon="20.1434098184108734130859375">
        <ele>2083.199951171875</ele>
        <time>2026-06-20T07:50:43.000Z</time>
        <extensions>
          <ns3:TrackPointExtension>
            <ns3:atemp>18.0</ns3:atemp>
          </ns3:TrackPointExtension>
        </extensions>
      </trkpt>
      <trkpt lat="42.5467656366527080535888671875" lon="20.143413841724395751953125">
        <ele>2083.199951171875</ele>
        <time>2026-06-20T07:50:44.000Z</time>
        <extensions>
          <ns3:TrackPointExtension>
            <ns3:atemp>18.0</ns3:atemp>
          </ns3:TrackPointExtension>
        </extensions>
      </trkpt>
      <trkpt lat="42.54676689393818378448486328125" lon="20.1434183679521083831787109375">
        <ele>2083.199951171875</ele>
        <time>2026-06-20T07:50:45.000Z</time>
        <extensions>
          <ns3:TrackPointExtension>
            <ns3:atemp>18.0</ns3:atemp>
          </ns3:TrackPointExtension>
        </extensions>
      </trkpt>
      <trkpt lat="42.54676672630012035369873046875" lon="20.14342498965561389923095703125">
        <ele>2083.199951171875</ele>
        <time>2026-06-20T07:50:46.000Z</time>
        <extensions>
          <ns3:TrackPointExtension>
            <ns3:atemp>18.0</ns3:atemp>
          </ns3:TrackPointExtension>
        </extensions>
      </trkpt>
      <trkpt lat="42.54676655866205692291259765625" lon="20.14342633076012134552001953125">
        <ele>2083.199951171875</ele>
        <time>2026-06-20T07:50:47.000Z</time>
        <extensions>
          <ns3:TrackPointExtension>
            <ns3:atemp>18.0</ns3:atemp>
          </ns3:TrackPointExtension>
        </extensions>
      </trkpt>
      <trkpt lat="42.54676739685237407684326171875" lon="20.1434280909597873687744140625">
        <ele>2083.199951171875</ele>
        <time>2026-06-20T07:50:48.000Z</time>
        <extensions>
          <ns3:TrackPointExtension>
            <ns3:atemp>18.0</ns3:atemp>
          </ns3:TrackPointExtension>
        </extensions>
      </trkpt>
      <trkpt lat="42.5467636249959468841552734375" lon="20.14343488030135631561279296875">
        <ele>2083.199951171875</ele>
        <time>2026-06-20T07:50:49.000Z</time>
        <extensions>
          <ns3:TrackPointExtension>
            <ns3:atemp>18.0</ns3:atemp>
          </ns3:TrackPointExtension>
        </extensions>
      </trkpt>
      <trkpt lat="42.54676387645304203033447265625" lon="20.14343806542456150054931640625">
        <ele>2083.199951171875</ele>
        <time>2026-06-20T07:50:50.000Z</time>
        <extensions>
          <ns3:TrackPointExtension>
            <ns3:atemp>18.0</ns3:atemp>
          </ns3:TrackPointExtension>
        </extensions>
      </trkpt>
      <trkpt lat="42.54676379263401031494140625" lon="20.14343823306262493133544921875">
        <ele>2083.199951171875</ele>
        <time>2026-06-20T07:50:51.000Z</time>
        <extensions>
          <ns3:TrackPointExtension>
            <ns3:atemp>18.0</ns3:atemp>
          </ns3:TrackPointExtension>
        </extensions>
      </trkpt>
      <trkpt lat="42.546760775148868560791015625" lon="20.143447704613208770751953125">
        <ele>2083.199951171875</ele>
        <time>2026-06-20T07:50:52.000Z</time>
        <extensions>
          <ns3:TrackPointExtension>
            <ns3:atemp>18.0</ns3:atemp>
          </ns3:TrackPointExtension>
        </extensions>
      </trkpt>
      <trkpt lat="42.54676387645304203033447265625" lon="20.14345197938382625579833984375">
        <ele>2083.199951171875</ele>
        <time>2026-06-20T07:50:53.000Z</time>
        <extensions>
          <ns3:TrackPointExtension>
            <ns3:atemp>18.0</ns3:atemp>
          </ns3:TrackPointExtension>
        </extensions>
      </trkpt>
      <trkpt lat="42.54676689393818378448486328125" lon="20.14345147646963596343994140625">
        <ele>2083.199951171875</ele>
        <time>2026-06-20T07:50:54.000Z</time>
        <extensions>
          <ns3:TrackPointExtension>
            <ns3:atemp>18.0</ns3:atemp>
          </ns3:TrackPointExtension>
        </extensions>
      </trkpt>
      <trkpt lat="42.54676689393818378448486328125" lon="20.14344896189868450164794921875">
        <ele>2083.199951171875</ele>
        <time>2026-06-20T07:50:55.000Z</time>
        <extensions>
          <ns3:TrackPointExtension>
            <ns3:atemp>18.0</ns3:atemp>
          </ns3:TrackPointExtension>
        </extensions>
      </trkpt>
      <trkpt lat="42.54676689393818378448486328125" lon="20.14344896189868450164794921875">
        <ele>2083.199951171875</ele>
        <time>2026-06-20T07:50:56.000Z</time>
        <extensions>
          <ns3:TrackPointExtension>
            <ns3:atemp>18.0</ns3:atemp>
          </ns3:TrackPointExtension>
        </extensions>
      </trkpt>
      <trkpt lat="42.54676706157624721527099609375" lon="20.1434492133557796478271484375">
        <ele>2083.199951171875</ele>
        <time>2026-06-20T07:50:57.000Z</time>
        <extensions>
          <ns3:TrackPointExtension>
            <ns3:atemp>18.0</ns3:atemp>
          </ns3:TrackPointExtension>
        </extensions>
      </trkpt>
      <trkpt lat="42.546767480671405792236328125" lon="20.143464468419551849365234375">
        <ele>2083.199951171875</ele>
        <time>2026-06-20T07:50:58.000Z</time>
        <extensions>
          <ns3:TrackPointExtension>
            <ns3:atemp>18.0</ns3:atemp>
          </ns3:TrackPointExtension>
        </extensions>
      </trkpt>
      <trkpt lat="42.546768486499786376953125" lon="20.1434683240950107574462890625">
        <ele>2083.199951171875</ele>
        <time>2026-06-20T07:50:59.000Z</time>
        <extensions>
          <ns3:TrackPointExtension>
            <ns3:atemp>18.0</ns3:atemp>
          </ns3:TrackPointExtension>
        </extensions>
      </trkpt>
      <trkpt lat="42.54676840268075466156005859375" lon="20.14346840791404247283935546875">
        <ele>2083.199951171875</ele>
        <time>2026-06-20T07:51:00.000Z</time>
        <extensions>
          <ns3:TrackPointExtension>
            <ns3:atemp>18.0</ns3:atemp>
          </ns3:TrackPointExtension>
        </extensions>
      </trkpt>
      <trkpt lat="42.54676840268075466156005859375" lon="20.14346840791404247283935546875">
        <ele>2083.199951171875</ele>
        <time>2026-06-20T07:51:01.000Z</time>
        <extensions>
          <ns3:TrackPointExtension>
            <ns3:atemp>18.0</ns3:atemp>
          </ns3:TrackPointExtension>
        </extensions>
      </trkpt>
      <trkpt lat="42.54676840268075466156005859375" lon="20.14346840791404247283935546875">
        <ele>2083.199951171875</ele>
        <time>2026-06-20T07:51:02.000Z</time>
        <extensions>
          <ns3:TrackPointExtension>
            <ns3:atemp>18.0</ns3:atemp>
          </ns3:TrackPointExtension>
        </extensions>
      </trkpt>
      <trkpt lat="42.5467683188617229461669921875" lon="20.14346907846629619598388671875">
        <ele>2083.199951171875</ele>
        <time>2026-06-20T07:51:03.000Z</time>
        <extensions>
          <ns3:TrackPointExtension>
            <ns3:atemp>18.0</ns3:atemp>
          </ns3:TrackPointExtension>
        </extensions>
      </trkpt>
      <trkpt lat="42.54676605574786663055419921875" lon="20.14348936267197132110595703125">
        <ele>2083.199951171875</ele>
        <time>2026-06-20T07:51:04.000Z</time>
        <extensions>
          <ns3:TrackPointExtension>
            <ns3:atemp>18.0</ns3:atemp>
          </ns3:TrackPointExtension>
        </extensions>
      </trkpt>
      <trkpt lat="42.546762786805629730224609375" lon="20.14349497854709625244140625">
        <ele>2083.199951171875</ele>
        <time>2026-06-20T07:51:05.000Z</time>
        <extensions>
          <ns3:TrackPointExtension>
            <ns3:atemp>18.0</ns3:atemp>
          </ns3:TrackPointExtension>
        </extensions>
      </trkpt>
      <trkpt lat="42.54676203243434429168701171875" lon="20.14349388889968395233154296875">
        <ele>2083.199951171875</ele>
        <time>2026-06-20T07:51:06.000Z</time>
        <extensions>
          <ns3:TrackPointExtension>
            <ns3:atemp>18.0</ns3:atemp>
          </ns3:TrackPointExtension>
        </extensions>
      </trkpt>
      <trkpt lat="42.5467619486153125762939453125" lon="20.1434938050806522369384765625">
        <ele>2083.199951171875</ele>
        <time>2026-06-20T07:51:07.000Z</time>
        <extensions>
          <ns3:TrackPointExtension>
            <ns3:atemp>18.0</ns3:atemp>
          </ns3:TrackPointExtension>
        </extensions>
      </trkpt>
      <trkpt lat="42.5467619486153125762939453125" lon="20.1434938050806522369384765625">
        <ele>2083.199951171875</ele>
        <time>2026-06-20T07:51:08.000Z</time>
        <extensions>
          <ns3:TrackPointExtension>
            <ns3:atemp>18.0</ns3:atemp>
          </ns3:TrackPointExtension>
        </extensions>
      </trkpt>
      <trkpt lat="42.5467617809772491455078125" lon="20.14349372126162052154541015625">
        <ele>2083.199951171875</ele>
        <time>2026-06-20T07:51:09.000Z</time>
        <extensions>
          <ns3:TrackPointExtension>
            <ns3:atemp>18.0</ns3:atemp>
          </ns3:TrackPointExtension>
        </extensions>
      </trkpt>
      <trkpt lat="42.5467619486153125762939453125" lon="20.1434938050806522369384765625">
        <ele>2083.199951171875</ele>
        <time>2026-06-20T07:51:10.000Z</time>
        <extensions>
          <ns3:TrackPointExtension>
            <ns3:atemp>18.0</ns3:atemp>
          </ns3:TrackPointExtension>
        </extensions>
      </trkpt>
      <trkpt lat="42.5467619486153125762939453125" lon="20.1434938050806522369384765625">
        <ele>2083.199951171875</ele>
        <time>2026-06-20T07:51:11.000Z</time>
        <extensions>
          <ns3:TrackPointExtension>
            <ns3:atemp>18.0</ns3:atemp>
          </ns3:TrackPointExtension>
        </extensions>
      </trkpt>
      <trkpt lat="42.5467619486153125762939453125" lon="20.1434938050806522369384765625">
        <ele>2083.199951171875</ele>
        <time>2026-06-20T07:51:12.000Z</time>
        <extensions>
          <ns3:TrackPointExtension>
            <ns3:atemp>18.0</ns3:atemp>
          </ns3:TrackPointExtension>
        </extensions>
      </trkpt>
      <trkpt lat="42.5467619486153125762939453125" lon="20.1434938050806522369384765625">
        <ele>2083.199951171875</ele>
        <time>2026-06-20T07:51:13.000Z</time>
        <extensions>
          <ns3:TrackPointExtension>
            <ns3:atemp>18.0</ns3:atemp>
          </ns3:TrackPointExtension>
        </extensions>
      </trkpt>
      <trkpt lat="42.5467619486153125762939453125" lon="20.1434938050806522369384765625">
        <ele>2083.199951171875</ele>
        <time>2026-06-20T07:51:14.000Z</time>
        <extensions>
          <ns3:TrackPointExtension>
            <ns3:atemp>18.0</ns3:atemp>
          </ns3:TrackPointExtension>
        </extensions>
      </trkpt>
      <trkpt lat="42.5467619486153125762939453125" lon="20.1434938050806522369384765625">
        <ele>2083.199951171875</ele>
        <time>2026-06-20T07:51:15.000Z</time>
        <extensions>
          <ns3:TrackPointExtension>
            <ns3:atemp>18.0</ns3:atemp>
          </ns3:TrackPointExtension>
        </extensions>
      </trkpt>
      <trkpt lat="42.5467619486153125762939453125" lon="20.1434938050806522369384765625">
        <ele>2083.199951171875</ele>
        <time>2026-06-20T07:51:16.000Z</time>
        <extensions>
          <ns3:TrackPointExtension>
            <ns3:atemp>18.0</ns3:atemp>
          </ns3:TrackPointExtension>
        </extensions>
      </trkpt>
      <trkpt lat="42.5467619486153125762939453125" lon="20.1434938050806522369384765625">
        <ele>2083.199951171875</ele>
        <time>2026-06-20T07:51:17.000Z</time>
        <extensions>
          <ns3:TrackPointExtension>
            <ns3:atemp>18.0</ns3:atemp>
          </ns3:TrackPointExtension>
        </extensions>
      </trkpt>
      <trkpt lat="42.5467619486153125762939453125" lon="20.1434938050806522369384765625">
        <ele>2083.199951171875</ele>
        <time>2026-06-20T07:51:18.000Z</time>
        <extensions>
          <ns3:TrackPointExtension>
            <ns3:atemp>18.0</ns3:atemp>
          </ns3:TrackPointExtension>
        </extensions>
      </trkpt>
      <trkpt lat="42.5467619486153125762939453125" lon="20.1434938050806522369384765625">
        <ele>2083.199951171875</ele>
        <time>2026-06-20T07:51:19.000Z</time>
        <extensions>
          <ns3:TrackPointExtension>
            <ns3:atemp>18.0</ns3:atemp>
          </ns3:TrackPointExtension>
        </extensions>
      </trkpt>
      <trkpt lat="42.5467619486153125762939453125" lon="20.1434938050806522369384765625">
        <ele>2083.199951171875</ele>
        <time>2026-06-20T07:51:20.000Z</time>
        <extensions>
          <ns3:TrackPointExtension>
            <ns3:atemp>18.0</ns3:atemp>
          </ns3:TrackPointExtension>
        </extensions>
      </trkpt>
      <trkpt lat="42.5467619486153125762939453125" lon="20.1434938050806522369384765625">
        <ele>2083.199951171875</ele>
        <time>2026-06-20T07:51:21.000Z</time>
        <extensions>
          <ns3:TrackPointExtension>
            <ns3:atemp>18.0</ns3:atemp>
          </ns3:TrackPointExtension>
        </extensions>
      </trkpt>
      <trkpt lat="42.5467619486153125762939453125" lon="20.1434938050806522369384765625">
        <ele>2083.199951171875</ele>
        <time>2026-06-20T07:51:22.000Z</time>
        <extensions>
          <ns3:TrackPointExtension>
            <ns3:atemp>18.0</ns3:atemp>
          </ns3:TrackPointExtension>
        </extensions>
      </trkpt>
      <trkpt lat="42.5467619486153125762939453125" lon="20.1434938050806522369384765625">
        <ele>2083.199951171875</ele>
        <time>2026-06-20T07:51:23.000Z</time>
        <extensions>
          <ns3:TrackPointExtension>
            <ns3:atemp>18.0</ns3:atemp>
          </ns3:TrackPointExtension>
        </extensions>
      </trkpt>
      <trkpt lat="42.5467619486153125762939453125" lon="20.1434938050806522369384765625">
        <ele>2083.199951171875</ele>
        <time>2026-06-20T07:51:24.000Z</time>
        <extensions>
          <ns3:TrackPointExtension>
            <ns3:atemp>18.0</ns3:atemp>
          </ns3:TrackPointExtension>
        </extensions>
      </trkpt>
      <trkpt lat="42.5467619486153125762939453125" lon="20.1434938050806522369384765625">
        <ele>2083.199951171875</ele>
        <time>2026-06-20T07:51:25.000Z</time>
        <extensions>
          <ns3:TrackPointExtension>
            <ns3:atemp>18.0</ns3:atemp>
          </ns3:TrackPointExtension>
        </extensions>
      </trkpt>
      <trkpt lat="42.5467619486153125762939453125" lon="20.1434938050806522369384765625">
        <ele>2083.199951171875</ele>
        <time>2026-06-20T07:51:26.000Z</time>
        <extensions>
          <ns3:TrackPointExtension>
            <ns3:atemp>18.0</ns3:atemp>
          </ns3:TrackPointExtension>
        </extensions>
      </trkpt>
      <trkpt lat="42.5467619486153125762939453125" lon="20.1434938050806522369384765625">
        <ele>2083.199951171875</ele>
        <time>2026-06-20T07:51:27.000Z</time>
        <extensions>
          <ns3:TrackPointExtension>
            <ns3:atemp>18.0</ns3:atemp>
          </ns3:TrackPointExtension>
        </extensions>
      </trkpt>
      <trkpt lat="42.5467619486153125762939453125" lon="20.1434938050806522369384765625">
        <ele>2083.199951171875</ele>
        <time>2026-06-20T07:51:28.000Z</time>
        <extensions>
          <ns3:TrackPointExtension>
            <ns3:atemp>18.0</ns3:atemp>
          </ns3:TrackPointExtension>
        </extensions>
      </trkpt>
      <trkpt lat="42.5467619486153125762939453125" lon="20.1434938050806522369384765625">
        <ele>2083.199951171875</ele>
        <time>2026-06-20T07:51:29.000Z</time>
        <extensions>
          <ns3:TrackPointExtension>
            <ns3:atemp>18.0</ns3:atemp>
          </ns3:TrackPointExtension>
        </extensions>
      </trkpt>
      <trkpt lat="42.5467619486153125762939453125" lon="20.1434938050806522369384765625">
        <ele>2083.199951171875</ele>
        <time>2026-06-20T07:51:30.000Z</time>
        <extensions>
          <ns3:TrackPointExtension>
            <ns3:atemp>18.0</ns3:atemp>
          </ns3:TrackPointExtension>
        </extensions>
      </trkpt>
      <trkpt lat="42.5467619486153125762939453125" lon="20.1434938050806522369384765625">
        <ele>2083.199951171875</ele>
        <time>2026-06-20T07:51:31.000Z</time>
        <extensions>
          <ns3:TrackPointExtension>
            <ns3:atemp>18.0</ns3:atemp>
          </ns3:TrackPointExtension>
        </extensions>
      </trkpt>
      <trkpt lat="42.5467619486153125762939453125" lon="20.1434938050806522369384765625">
        <ele>2083.199951171875</ele>
        <time>2026-06-20T07:51:32.000Z</time>
        <extensions>
          <ns3:TrackPointExtension>
            <ns3:atemp>18.0</ns3:atemp>
          </ns3:TrackPointExtension>
        </extensions>
      </trkpt>
      <trkpt lat="42.5467619486153125762939453125" lon="20.1434938050806522369384765625">
        <ele>2083.199951171875</ele>
        <time>2026-06-20T07:51:33.000Z</time>
        <extensions>
          <ns3:TrackPointExtension>
            <ns3:atemp>18.0</ns3:atemp>
          </ns3:TrackPointExtension>
        </extensions>
      </trkpt>
      <trkpt lat="42.5467619486153125762939453125" lon="20.1434938050806522369384765625">
        <ele>2083.199951171875</ele>
        <time>2026-06-20T07:51:34.000Z</time>
        <extensions>
          <ns3:TrackPointExtension>
            <ns3:atemp>18.0</ns3:atemp>
          </ns3:TrackPointExtension>
        </extensions>
      </trkpt>
      <trkpt lat="42.5467619486153125762939453125" lon="20.1434938050806522369384765625">
        <ele>2083.199951171875</ele>
        <time>2026-06-20T07:51:35.000Z</time>
        <extensions>
          <ns3:TrackPointExtension>
            <ns3:atemp>18.0</ns3:atemp>
          </ns3:TrackPointExtension>
        </extensions>
      </trkpt>
      <trkpt lat="42.5467619486153125762939453125" lon="20.1434938050806522369384765625">
        <ele>2083.199951171875</ele>
        <time>2026-06-20T07:51:36.000Z</time>
        <extensions>
          <ns3:TrackPointExtension>
            <ns3:atemp>18.0</ns3:atemp>
          </ns3:TrackPointExtension>
        </extensions>
      </trkpt>
      <trkpt lat="42.5467619486153125762939453125" lon="20.1434938050806522369384765625">
        <ele>2083.199951171875</ele>
        <time>2026-06-20T07:51:37.000Z</time>
        <extensions>
          <ns3:TrackPointExtension>
            <ns3:atemp>18.0</ns3:atemp>
          </ns3:TrackPointExtension>
        </extensions>
      </trkpt>
      <trkpt lat="42.5467619486153125762939453125" lon="20.1434938050806522369384765625">
        <ele>2083.199951171875</ele>
        <time>2026-06-20T07:51:38.000Z</time>
        <extensions>
          <ns3:TrackPointExtension>
            <ns3:atemp>18.0</ns3:atemp>
          </ns3:TrackPointExtension>
        </extensions>
      </trkpt>
      <trkpt lat="42.5467619486153125762939453125" lon="20.1434938050806522369384765625">
        <ele>2083.199951171875</ele>
        <time>2026-06-20T07:51:39.000Z</time>
        <extensions>
          <ns3:TrackPointExtension>
            <ns3:atemp>18.0</ns3:atemp>
          </ns3:TrackPointExtension>
        </extensions>
      </trkpt>
      <trkpt lat="42.5467619486153125762939453125" lon="20.1434938050806522369384765625">
        <ele>2083.199951171875</ele>
        <time>2026-06-20T07:51:40.000Z</time>
        <extensions>
          <ns3:TrackPointExtension>
            <ns3:atemp>18.0</ns3:atemp>
          </ns3:TrackPointExtension>
        </extensions>
      </trkpt>
      <trkpt lat="42.5467619486153125762939453125" lon="20.1434938050806522369384765625">
        <ele>2083.199951171875</ele>
        <time>2026-06-20T07:51:41.000Z</time>
        <extensions>
          <ns3:TrackPointExtension>
            <ns3:atemp>18.0</ns3:atemp>
          </ns3:TrackPointExtension>
        </extensions>
      </trkpt>
      <trkpt lat="42.5467619486153125762939453125" lon="20.1434938050806522369384765625">
        <ele>2083.199951171875</ele>
        <time>2026-06-20T07:51:42.000Z</time>
        <extensions>
          <ns3:TrackPointExtension>
            <ns3:atemp>18.0</ns3:atemp>
          </ns3:TrackPointExtension>
        </extensions>
      </trkpt>
      <trkpt lat="42.5467619486153125762939453125" lon="20.1434938050806522369384765625">
        <ele>2083.199951171875</ele>
        <time>2026-06-20T07:51:43.000Z</time>
        <extensions>
          <ns3:TrackPointExtension>
            <ns3:atemp>18.0</ns3:atemp>
          </ns3:TrackPointExtension>
        </extensions>
      </trkpt>
      <trkpt lat="42.5467619486153125762939453125" lon="20.1434938050806522369384765625">
        <ele>2083.199951171875</ele>
        <time>2026-06-20T07:51:44.000Z</time>
        <extensions>
          <ns3:TrackPointExtension>
            <ns3:atemp>18.0</ns3:atemp>
          </ns3:TrackPointExtension>
        </extensions>
      </trkpt>
      <trkpt lat="42.5467619486153125762939453125" lon="20.1434938050806522369384765625">
        <ele>2083.199951171875</ele>
        <time>2026-06-20T07:51:45.000Z</time>
        <extensions>
          <ns3:TrackPointExtension>
            <ns3:atemp>18.0</ns3:atemp>
          </ns3:TrackPointExtension>
        </extensions>
      </trkpt>
      <trkpt lat="42.5467619486153125762939453125" lon="20.1434938050806522369384765625">
        <ele>2083.199951171875</ele>
        <time>2026-06-20T07:51:46.000Z</time>
        <extensions>
          <ns3:TrackPointExtension>
            <ns3:atemp>18.0</ns3:atemp>
          </ns3:TrackPointExtension>
        </extensions>
      </trkpt>
      <trkpt lat="42.5467619486153125762939453125" lon="20.1434938050806522369384765625">
        <ele>2083.199951171875</ele>
        <time>2026-06-20T07:51:47.000Z</time>
        <extensions>
          <ns3:TrackPointExtension>
            <ns3:atemp>18.0</ns3:atemp>
          </ns3:TrackPointExtension>
        </extensions>
      </trkpt>
      <trkpt lat="42.5467619486153125762939453125" lon="20.1434938050806522369384765625">
        <ele>2083.199951171875</ele>
        <time>2026-06-20T07:51:48.000Z</time>
        <extensions>
          <ns3:TrackPointExtension>
            <ns3:atemp>18.0</ns3:atemp>
          </ns3:TrackPointExtension>
        </extensions>
      </trkpt>
      <trkpt lat="42.5467619486153125762939453125" lon="20.1434938050806522369384765625">
        <ele>2083.199951171875</ele>
        <time>2026-06-20T07:51:49.000Z</time>
        <extensions>
          <ns3:TrackPointExtension>
            <ns3:atemp>18.0</ns3:atemp>
          </ns3:TrackPointExtension>
        </extensions>
      </trkpt>
      <trkpt lat="42.5467619486153125762939453125" lon="20.1434938050806522369384765625">
        <ele>2083.199951171875</ele>
        <time>2026-06-20T07:51:50.000Z</time>
        <extensions>
          <ns3:TrackPointExtension>
            <ns3:atemp>18.0</ns3:atemp>
          </ns3:TrackPointExtension>
        </extensions>
      </trkpt>
      <trkpt lat="42.5467619486153125762939453125" lon="20.1434938050806522369384765625">
        <ele>2083.199951171875</ele>
        <time>2026-06-20T07:51:51.000Z</time>
        <extensions>
          <ns3:TrackPointExtension>
            <ns3:atemp>18.0</ns3:atemp>
          </ns3:TrackPointExtension>
        </extensions>
      </trkpt>
      <trkpt lat="42.5467619486153125762939453125" lon="20.1434938050806522369384765625">
        <ele>2083.199951171875</ele>
        <time>2026-06-20T07:51:52.000Z</time>
        <extensions>
          <ns3:TrackPointExtension>
            <ns3:atemp>18.0</ns3:atemp>
          </ns3:TrackPointExtension>
        </extensions>
      </trkpt>
      <trkpt lat="42.5467619486153125762939453125" lon="20.1434938050806522369384765625">
        <ele>2083.199951171875</ele>
        <time>2026-06-20T07:51:53.000Z</time>
        <extensions>
          <ns3:TrackPointExtension>
            <ns3:atemp>18.0</ns3:atemp>
          </ns3:TrackPointExtension>
        </extensions>
      </trkpt>
      <trkpt lat="42.5467619486153125762939453125" lon="20.1434938050806522369384765625">
        <ele>2083.199951171875</ele>
        <time>2026-06-20T07:51:54.000Z</time>
        <extensions>
          <ns3:TrackPointExtension>
            <ns3:atemp>18.0</ns3:atemp>
          </ns3:TrackPointExtension>
        </extensions>
      </trkpt>
      <trkpt lat="42.5467619486153125762939453125" lon="20.1434938050806522369384765625">
        <ele>2083.199951171875</ele>
        <time>2026-06-20T07:51:55.000Z</time>
        <extensions>
          <ns3:TrackPointExtension>
            <ns3:atemp>18.0</ns3:atemp>
          </ns3:TrackPointExtension>
        </extensions>
      </trkpt>
      <trkpt lat="42.5467619486153125762939453125" lon="20.1434938050806522369384765625">
        <ele>2083.199951171875</ele>
        <time>2026-06-20T07:51:56.000Z</time>
        <extensions>
          <ns3:TrackPointExtension>
            <ns3:atemp>18.0</ns3:atemp>
          </ns3:TrackPointExtension>
        </extensions>
      </trkpt>
      <trkpt lat="42.5467619486153125762939453125" lon="20.1434938050806522369384765625">
        <ele>2083.199951171875</ele>
        <time>2026-06-20T07:51:57.000Z</time>
        <extensions>
          <ns3:TrackPointExtension>
            <ns3:atemp>18.0</ns3:atemp>
          </ns3:TrackPointExtension>
        </extensions>
      </trkpt>
      <trkpt lat="42.5467619486153125762939453125" lon="20.1434938050806522369384765625">
        <ele>2083.199951171875</ele>
        <time>2026-06-20T07:51:58.000Z</time>
        <extensions>
          <ns3:TrackPointExtension>
            <ns3:atemp>18.0</ns3:atemp>
          </ns3:TrackPointExtension>
        </extensions>
      </trkpt>
      <trkpt lat="42.5467619486153125762939453125" lon="20.1434938050806522369384765625">
        <ele>2083.199951171875</ele>
        <time>2026-06-20T07:51:59.000Z</time>
        <extensions>
          <ns3:TrackPointExtension>
            <ns3:atemp>18.0</ns3:atemp>
          </ns3:TrackPointExtension>
        </extensions>
      </trkpt>
      <trkpt lat="42.5467619486153125762939453125" lon="20.1434938050806522369384765625">
        <ele>2083.199951171875</ele>
        <time>2026-06-20T07:52:00.000Z</time>
        <extensions>
          <ns3:TrackPointExtension>
            <ns3:atemp>18.0</ns3:atemp>
          </ns3:TrackPointExtension>
        </extensions>
      </trkpt>
      <trkpt lat="42.5467619486153125762939453125" lon="20.1434938050806522369384765625">
        <ele>2083.199951171875</ele>
        <time>2026-06-20T07:52:01.000Z</time>
        <extensions>
          <ns3:TrackPointExtension>
            <ns3:atemp>18.0</ns3:atemp>
          </ns3:TrackPointExtension>
        </extensions>
      </trkpt>
      <trkpt lat="42.5467619486153125762939453125" lon="20.1434938050806522369384765625">
        <ele>2083.199951171875</ele>
        <time>2026-06-20T07:52:02.000Z</time>
        <extensions>
          <ns3:TrackPointExtension>
            <ns3:atemp>18.0</ns3:atemp>
          </ns3:TrackPointExtension>
        </extensions>
      </trkpt>
      <trkpt lat="42.5467619486153125762939453125" lon="20.1434938050806522369384765625">
        <ele>2083.199951171875</ele>
        <time>2026-06-20T07:52:03.000Z</time>
        <extensions>
          <ns3:TrackPointExtension>
            <ns3:atemp>18.0</ns3:atemp>
          </ns3:TrackPointExtension>
        </extensions>
      </trkpt>
      <trkpt lat="42.5467619486153125762939453125" lon="20.1434938050806522369384765625">
        <ele>2083.199951171875</ele>
        <time>2026-06-20T07:52:04.000Z</time>
        <extensions>
          <ns3:TrackPointExtension>
            <ns3:atemp>18.0</ns3:atemp>
          </ns3:TrackPointExtension>
        </extensions>
      </trkpt>
      <trkpt lat="42.5467619486153125762939453125" lon="20.1434938050806522369384765625">
        <ele>2083.199951171875</ele>
        <time>2026-06-20T07:52:05.000Z</time>
        <extensions>
          <ns3:TrackPointExtension>
            <ns3:atemp>18.0</ns3:atemp>
          </ns3:TrackPointExtension>
        </extensions>
      </trkpt>
      <trkpt lat="42.5467619486153125762939453125" lon="20.1434938050806522369384765625">
        <ele>2083.199951171875</ele>
        <time>2026-06-20T07:52:06.000Z</time>
        <extensions>
          <ns3:TrackPointExtension>
            <ns3:atemp>18.0</ns3:atemp>
          </ns3:TrackPointExtension>
        </extensions>
      </trkpt>
      <trkpt lat="42.5467619486153125762939453125" lon="20.1434938050806522369384765625">
        <ele>2083.199951171875</ele>
        <time>2026-06-20T07:52:07.000Z</time>
        <extensions>
          <ns3:TrackPointExtension>
            <ns3:atemp>18.0</ns3:atemp>
          </ns3:TrackPointExtension>
        </extensions>
      </trkpt>
      <trkpt lat="42.5467619486153125762939453125" lon="20.1434938050806522369384765625">
        <ele>2083.199951171875</ele>
        <time>2026-06-20T07:52:08.000Z</time>
        <extensions>
          <ns3:TrackPointExtension>
            <ns3:atemp>18.0</ns3:atemp>
          </ns3:TrackPointExtension>
        </extensions>
      </trkpt>
      <trkpt lat="42.5467619486153125762939453125" lon="20.1434938050806522369384765625">
        <ele>2083.199951171875</ele>
        <time>2026-06-20T07:52:09.000Z</time>
        <extensions>
          <ns3:TrackPointExtension>
            <ns3:atemp>18.0</ns3:atemp>
          </ns3:TrackPointExtension>
        </extensions>
      </trkpt>
      <trkpt lat="42.5467619486153125762939453125" lon="20.1434938050806522369384765625">
        <ele>2083.199951171875</ele>
        <time>2026-06-20T07:52:10.000Z</time>
        <extensions>
          <ns3:TrackPointExtension>
            <ns3:atemp>18.0</ns3:atemp>
          </ns3:TrackPointExtension>
        </extensions>
      </trkpt>
      <trkpt lat="42.5467619486153125762939453125" lon="20.1434938050806522369384765625">
        <ele>2083.199951171875</ele>
        <time>2026-06-20T07:52:11.000Z</time>
        <extensions>
          <ns3:TrackPointExtension>
            <ns3:atemp>18.0</ns3:atemp>
          </ns3:TrackPointExtension>
        </extensions>
      </trkpt>
      <trkpt lat="42.5467619486153125762939453125" lon="20.1434938050806522369384765625">
        <ele>2083.199951171875</ele>
        <time>2026-06-20T07:52:12.000Z</time>
        <extensions>
          <ns3:TrackPointExtension>
            <ns3:atemp>18.0</ns3:atemp>
          </ns3:TrackPointExtension>
        </extensions>
      </trkpt>
      <trkpt lat="42.5467619486153125762939453125" lon="20.1434938050806522369384765625">
        <ele>2083.199951171875</ele>
        <time>2026-06-20T07:52:13.000Z</time>
        <extensions>
          <ns3:TrackPointExtension>
            <ns3:atemp>18.0</ns3:atemp>
          </ns3:TrackPointExtension>
        </extensions>
      </trkpt>
      <trkpt lat="42.5467619486153125762939453125" lon="20.1434938050806522369384765625">
        <ele>2083.199951171875</ele>
        <time>2026-06-20T07:52:14.000Z</time>
        <extensions>
          <ns3:TrackPointExtension>
            <ns3:atemp>18.0</ns3:atemp>
          </ns3:TrackPointExtension>
        </extensions>
      </trkpt>
      <trkpt lat="42.5467619486153125762939453125" lon="20.1434938050806522369384765625">
        <ele>2083.199951171875</ele>
        <time>2026-06-20T07:52:15.000Z</time>
        <extensions>
          <ns3:TrackPointExtension>
            <ns3:atemp>18.0</ns3:atemp>
          </ns3:TrackPointExtension>
        </extensions>
      </trkpt>
      <trkpt lat="42.5467619486153125762939453125" lon="20.1434938050806522369384765625">
        <ele>2083.199951171875</ele>
        <time>2026-06-20T07:52:16.000Z</time>
        <extensions>
          <ns3:TrackPointExtension>
            <ns3:atemp>18.0</ns3:atemp>
          </ns3:TrackPointExtension>
        </extensions>
      </trkpt>
      <trkpt lat="42.5467619486153125762939453125" lon="20.1434938050806522369384765625">
        <ele>2083.199951171875</ele>
        <time>2026-06-20T07:52:17.000Z</time>
        <extensions>
          <ns3:TrackPointExtension>
            <ns3:atemp>18.0</ns3:atemp>
          </ns3:TrackPointExtension>
        </extensions>
      </trkpt>
      <trkpt lat="42.5467619486153125762939453125" lon="20.1434938050806522369384765625">
        <ele>2083.199951171875</ele>
        <time>2026-06-20T07:52:18.000Z</time>
        <extensions>
          <ns3:TrackPointExtension>
            <ns3:atemp>18.0</ns3:atemp>
          </ns3:TrackPointExtension>
        </extensions>
      </trkpt>
      <trkpt lat="42.5467619486153125762939453125" lon="20.1434938050806522369384765625">
        <ele>2083.199951171875</ele>
        <time>2026-06-20T07:52:19.000Z</time>
        <extensions>
          <ns3:TrackPointExtension>
            <ns3:atemp>18.0</ns3:atemp>
          </ns3:TrackPointExtension>
        </extensions>
      </trkpt>
      <trkpt lat="42.5467619486153125762939453125" lon="20.1434938050806522369384765625">
        <ele>2083.199951171875</ele>
        <time>2026-06-20T07:52:20.000Z</time>
        <extensions>
          <ns3:TrackPointExtension>
            <ns3:atemp>18.0</ns3:atemp>
          </ns3:TrackPointExtension>
        </extensions>
      </trkpt>
      <trkpt lat="42.5467619486153125762939453125" lon="20.1434938050806522369384765625">
        <ele>2083.199951171875</ele>
        <time>2026-06-20T07:52:21.000Z</time>
        <extensions>
          <ns3:TrackPointExtension>
            <ns3:atemp>18.0</ns3:atemp>
          </ns3:TrackPointExtension>
        </extensions>
      </trkpt>
      <trkpt lat="42.5467619486153125762939453125" lon="20.1434938050806522369384765625">
        <ele>2083.199951171875</ele>
        <time>2026-06-20T07:52:22.000Z</time>
        <extensions>
          <ns3:TrackPointExtension>
            <ns3:atemp>18.0</ns3:atemp>
          </ns3:TrackPointExtension>
        </extensions>
      </trkpt>
      <trkpt lat="42.5467619486153125762939453125" lon="20.1434938050806522369384765625">
        <ele>2083.199951171875</ele>
        <time>2026-06-20T07:52:23.000Z</time>
        <extensions>
          <ns3:TrackPointExtension>
            <ns3:atemp>18.0</ns3:atemp>
          </ns3:TrackPointExtension>
        </extensions>
      </trkpt>
      <trkpt lat="42.5467619486153125762939453125" lon="20.1434938050806522369384765625">
        <ele>2083.199951171875</ele>
        <time>2026-06-20T07:52:24.000Z</time>
        <extensions>
          <ns3:TrackPointExtension>
            <ns3:atemp>18.0</ns3:atemp>
          </ns3:TrackPointExtension>
        </extensions>
      </trkpt>
      <trkpt lat="42.5467619486153125762939453125" lon="20.1434938050806522369384765625">
        <ele>2083.199951171875</ele>
        <time>2026-06-20T07:52:25.000Z</time>
        <extensions>
          <ns3:TrackPointExtension>
            <ns3:atemp>18.0</ns3:atemp>
          </ns3:TrackPointExtension>
        </extensions>
      </trkpt>
      <trkpt lat="42.5467619486153125762939453125" lon="20.1434938050806522369384765625">
        <ele>2083.199951171875</ele>
        <time>2026-06-20T07:52:26.000Z</time>
        <extensions>
          <ns3:TrackPointExtension>
            <ns3:atemp>18.0</ns3:atemp>
          </ns3:TrackPointExtension>
        </extensions>
      </trkpt>
      <trkpt lat="42.5467619486153125762939453125" lon="20.1434938050806522369384765625">
        <ele>2083.199951171875</ele>
        <time>2026-06-20T07:52:27.000Z</time>
        <extensions>
          <ns3:TrackPointExtension>
            <ns3:atemp>18.0</ns3:atemp>
          </ns3:TrackPointExtension>
        </extensions>
      </trkpt>
      <trkpt lat="42.5467619486153125762939453125" lon="20.1434938050806522369384765625">
        <ele>2083.199951171875</ele>
        <time>2026-06-20T07:52:28.000Z</time>
        <extensions>
          <ns3:TrackPointExtension>
            <ns3:atemp>18.0</ns3:atemp>
          </ns3:TrackPointExtension>
        </extensions>
      </trkpt>
      <trkpt lat="42.5467619486153125762939453125" lon="20.1434938050806522369384765625">
        <ele>2083.199951171875</ele>
        <time>2026-06-20T07:52:29.000Z</time>
        <extensions>
          <ns3:TrackPointExtension>
            <ns3:atemp>18.0</ns3:atemp>
          </ns3:TrackPointExtension>
        </extensions>
      </trkpt>
      <trkpt lat="42.5467619486153125762939453125" lon="20.1434938050806522369384765625">
        <ele>2083.199951171875</ele>
        <time>2026-06-20T07:52:30.000Z</time>
        <extensions>
          <ns3:TrackPointExtension>
            <ns3:atemp>18.0</ns3:atemp>
          </ns3:TrackPointExtension>
        </extensions>
      </trkpt>
      <trkpt lat="42.5467619486153125762939453125" lon="20.1434938050806522369384765625">
        <ele>2083.199951171875</ele>
        <time>2026-06-20T07:52:31.000Z</time>
        <extensions>
          <ns3:TrackPointExtension>
            <ns3:atemp>18.0</ns3:atemp>
          </ns3:TrackPointExtension>
        </extensions>
      </trkpt>
      <trkpt lat="42.5467619486153125762939453125" lon="20.1434938050806522369384765625">
        <ele>2083.199951171875</ele>
        <time>2026-06-20T07:52:32.000Z</time>
        <extensions>
          <ns3:TrackPointExtension>
            <ns3:atemp>18.0</ns3:atemp>
          </ns3:TrackPointExtension>
        </extensions>
      </trkpt>
      <trkpt lat="42.5467619486153125762939453125" lon="20.1434938050806522369384765625">
        <ele>2083.199951171875</ele>
        <time>2026-06-20T07:52:33.000Z</time>
        <extensions>
          <ns3:TrackPointExtension>
            <ns3:atemp>18.0</ns3:atemp>
          </ns3:TrackPointExtension>
        </extensions>
      </trkpt>
      <trkpt lat="42.5467619486153125762939453125" lon="20.1434938050806522369384765625">
        <ele>2083.199951171875</ele>
        <time>2026-06-20T07:52:34.000Z</time>
        <extensions>
          <ns3:TrackPointExtension>
            <ns3:atemp>18.0</ns3:atemp>
          </ns3:TrackPointExtension>
        </extensions>
      </trkpt>
      <trkpt lat="42.5467619486153125762939453125" lon="20.1434938050806522369384765625">
        <ele>2083.199951171875</ele>
        <time>2026-06-20T07:52:35.000Z</time>
        <extensions>
          <ns3:TrackPointExtension>
            <ns3:atemp>18.0</ns3:atemp>
          </ns3:TrackPointExtension>
        </extensions>
      </trkpt>
      <trkpt lat="42.5467619486153125762939453125" lon="20.1434938050806522369384765625">
        <ele>2083.199951171875</ele>
        <time>2026-06-20T07:52:36.000Z</time>
        <extensions>
          <ns3:TrackPointExtension>
            <ns3:atemp>18.0</ns3:atemp>
          </ns3:TrackPointExtension>
        </extensions>
      </trkpt>
      <trkpt lat="42.5467619486153125762939453125" lon="20.1434938050806522369384765625">
        <ele>2083.199951171875</ele>
        <time>2026-06-20T07:52:37.000Z</time>
        <extensions>
          <ns3:TrackPointExtension>
            <ns3:atemp>18.0</ns3:atemp>
          </ns3:TrackPointExtension>
        </extensions>
      </trkpt>
      <trkpt lat="42.5467619486153125762939453125" lon="20.1434938050806522369384765625">
        <ele>2083.199951171875</ele>
        <time>2026-06-20T07:52:38.000Z</time>
        <extensions>
          <ns3:TrackPointExtension>
            <ns3:atemp>18.0</ns3:atemp>
          </ns3:TrackPointExtension>
        </extensions>
      </trkpt>
      <trkpt lat="42.5467619486153125762939453125" lon="20.1434938050806522369384765625">
        <ele>2083.199951171875</ele>
        <time>2026-06-20T07:52:39.000Z</time>
        <extensions>
          <ns3:TrackPointExtension>
            <ns3:atemp>18.0</ns3:atemp>
          </ns3:TrackPointExtension>
        </extensions>
      </trkpt>
      <trkpt lat="42.5467619486153125762939453125" lon="20.1434938050806522369384765625">
        <ele>2083.199951171875</ele>
        <time>2026-06-20T07:52:40.000Z</time>
        <extensions>
          <ns3:TrackPointExtension>
            <ns3:atemp>18.0</ns3:atemp>
          </ns3:TrackPointExtension>
        </extensions>
      </trkpt>
      <trkpt lat="42.5467619486153125762939453125" lon="20.1434938050806522369384765625">
        <ele>2083.199951171875</ele>
        <time>2026-06-20T07:52:41.000Z</time>
        <extensions>
          <ns3:TrackPointExtension>
            <ns3:atemp>18.0</ns3:atemp>
          </ns3:TrackPointExtension>
        </extensions>
      </trkpt>
      <trkpt lat="42.5467619486153125762939453125" lon="20.1434938050806522369384765625">
        <ele>2083.199951171875</ele>
        <time>2026-06-20T07:52:42.000Z</time>
        <extensions>
          <ns3:TrackPointExtension>
            <ns3:atemp>18.0</ns3:atemp>
          </ns3:TrackPointExtension>
        </extensions>
      </trkpt>
      <trkpt lat="42.5467619486153125762939453125" lon="20.1434938050806522369384765625">
        <ele>2083.199951171875</ele>
        <time>2026-06-20T07:52:43.000Z</time>
        <extensions>
          <ns3:TrackPointExtension>
            <ns3:atemp>18.0</ns3:atemp>
          </ns3:TrackPointExtension>
        </extensions>
      </trkpt>
      <trkpt lat="42.5467619486153125762939453125" lon="20.1434938050806522369384765625">
        <ele>2083.199951171875</ele>
        <time>2026-06-20T07:52:44.000Z</time>
        <extensions>
          <ns3:TrackPointExtension>
            <ns3:atemp>18.0</ns3:atemp>
          </ns3:TrackPointExtension>
        </extensions>
      </trkpt>
      <trkpt lat="42.5467619486153125762939453125" lon="20.1434938050806522369384765625">
        <ele>2083.199951171875</ele>
        <time>2026-06-20T07:52:45.000Z</time>
        <extensions>
          <ns3:TrackPointExtension>
            <ns3:atemp>18.0</ns3:atemp>
          </ns3:TrackPointExtension>
        </extensions>
      </trkpt>
      <trkpt lat="42.5467619486153125762939453125" lon="20.1434938050806522369384765625">
        <ele>2083.199951171875</ele>
        <time>2026-06-20T07:52:46.000Z</time>
        <extensions>
          <ns3:TrackPointExtension>
            <ns3:atemp>18.0</ns3:atemp>
          </ns3:TrackPointExtension>
        </extensions>
      </trkpt>
      <trkpt lat="42.5467619486153125762939453125" lon="20.1434938050806522369384765625">
        <ele>2083.199951171875</ele>
        <time>2026-06-20T07:52:47.000Z</time>
        <extensions>
          <ns3:TrackPointExtension>
            <ns3:atemp>18.0</ns3:atemp>
          </ns3:TrackPointExtension>
        </extensions>
      </trkpt>
      <trkpt lat="42.5467619486153125762939453125" lon="20.1434938050806522369384765625">
        <ele>2083.199951171875</ele>
        <time>2026-06-20T07:52:48.000Z</time>
        <extensions>
          <ns3:TrackPointExtension>
            <ns3:atemp>18.0</ns3:atemp>
          </ns3:TrackPointExtension>
        </extensions>
      </trkpt>
      <trkpt lat="42.5467619486153125762939453125" lon="20.1434938050806522369384765625">
        <ele>2083.199951171875</ele>
        <time>2026-06-20T07:52:49.000Z</time>
        <extensions>
          <ns3:TrackPointExtension>
            <ns3:atemp>18.0</ns3:atemp>
          </ns3:TrackPointExtension>
        </extensions>
      </trkpt>
      <trkpt lat="42.5467619486153125762939453125" lon="20.1434938050806522369384765625">
        <ele>2083.199951171875</ele>
        <time>2026-06-20T07:52:50.000Z</time>
        <extensions>
          <ns3:TrackPointExtension>
            <ns3:atemp>18.0</ns3:atemp>
          </ns3:TrackPointExtension>
        </extensions>
      </trkpt>
      <trkpt lat="42.5467619486153125762939453125" lon="20.1434938050806522369384765625">
        <ele>2083.199951171875</ele>
        <time>2026-06-20T07:52:51.000Z</time>
        <extensions>
          <ns3:TrackPointExtension>
            <ns3:atemp>18.0</ns3:atemp>
          </ns3:TrackPointExtension>
        </extensions>
      </trkpt>
      <trkpt lat="42.5467619486153125762939453125" lon="20.1434938050806522369384765625">
        <ele>2083.199951171875</ele>
        <time>2026-06-20T07:52:52.000Z</time>
        <extensions>
          <ns3:TrackPointExtension>
            <ns3:atemp>18.0</ns3:atemp>
          </ns3:TrackPointExtension>
        </extensions>
      </trkpt>
      <trkpt lat="42.5467619486153125762939453125" lon="20.1434938050806522369384765625">
        <ele>2083.199951171875</ele>
        <time>2026-06-20T07:52:53.000Z</time>
        <extensions>
          <ns3:TrackPointExtension>
            <ns3:atemp>18.0</ns3:atemp>
          </ns3:TrackPointExtension>
        </extensions>
      </trkpt>
      <trkpt lat="42.5467619486153125762939453125" lon="20.1434938050806522369384765625">
        <ele>2083.199951171875</ele>
        <time>2026-06-20T07:52:54.000Z</time>
        <extensions>
          <ns3:TrackPointExtension>
            <ns3:atemp>18.0</ns3:atemp>
          </ns3:TrackPointExtension>
        </extensions>
      </trkpt>
      <trkpt lat="42.5467619486153125762939453125" lon="20.1434938050806522369384765625">
        <ele>2083.199951171875</ele>
        <time>2026-06-20T07:52:55.000Z</time>
        <extensions>
          <ns3:TrackPointExtension>
            <ns3:atemp>18.0</ns3:atemp>
          </ns3:TrackPointExtension>
        </extensions>
      </trkpt>
      <trkpt lat="42.5467619486153125762939453125" lon="20.1434938050806522369384765625">
        <ele>2083.199951171875</ele>
        <time>2026-06-20T07:52:56.000Z</time>
        <extensions>
          <ns3:TrackPointExtension>
            <ns3:atemp>18.0</ns3:atemp>
          </ns3:TrackPointExtension>
        </extensions>
      </trkpt>
      <trkpt lat="42.5467619486153125762939453125" lon="20.1434938050806522369384765625">
        <ele>2083.199951171875</ele>
        <time>2026-06-20T07:52:57.000Z</time>
        <extensions>
          <ns3:TrackPointExtension>
            <ns3:atemp>18.0</ns3:atemp>
          </ns3:TrackPointExtension>
        </extensions>
      </trkpt>
      <trkpt lat="42.5467619486153125762939453125" lon="20.1434938050806522369384765625">
        <ele>2083.199951171875</ele>
        <time>2026-06-20T07:52:58.000Z</time>
        <extensions>
          <ns3:TrackPointExtension>
            <ns3:atemp>18.0</ns3:atemp>
          </ns3:TrackPointExtension>
        </extensions>
      </trkpt>
      <trkpt lat="42.5467619486153125762939453125" lon="20.1434938050806522369384765625">
        <ele>2083.199951171875</ele>
        <time>2026-06-20T07:52:59.000Z</time>
        <extensions>
          <ns3:TrackPointExtension>
            <ns3:atemp>18.0</ns3:atemp>
          </ns3:TrackPointExtension>
        </extensions>
      </trkpt>
      <trkpt lat="42.5467619486153125762939453125" lon="20.1434938050806522369384765625">
        <ele>2083.199951171875</ele>
        <time>2026-06-20T07:53:00.000Z</time>
        <extensions>
          <ns3:TrackPointExtension>
            <ns3:atemp>18.0</ns3:atemp>
          </ns3:TrackPointExtension>
        </extensions>
      </trkpt>
      <trkpt lat="42.5467619486153125762939453125" lon="20.1434938050806522369384765625">
        <ele>2083.199951171875</ele>
        <time>2026-06-20T07:53:01.000Z</time>
        <extensions>
          <ns3:TrackPointExtension>
            <ns3:atemp>18.0</ns3:atemp>
          </ns3:TrackPointExtension>
        </extensions>
      </trkpt>
      <trkpt lat="42.5467619486153125762939453125" lon="20.1434938050806522369384765625">
        <ele>2083.199951171875</ele>
        <time>2026-06-20T07:53:02.000Z</time>
        <extensions>
          <ns3:TrackPointExtension>
            <ns3:atemp>18.0</ns3:atemp>
          </ns3:TrackPointExtension>
        </extensions>
      </trkpt>
      <trkpt lat="42.5467619486153125762939453125" lon="20.1434938050806522369384765625">
        <ele>2083.199951171875</ele>
        <time>2026-06-20T07:53:03.000Z</time>
        <extensions>
          <ns3:TrackPointExtension>
            <ns3:atemp>18.0</ns3:atemp>
          </ns3:TrackPointExtension>
        </extensions>
      </trkpt>
      <trkpt lat="42.5467619486153125762939453125" lon="20.1434938050806522369384765625">
        <ele>2083.199951171875</ele>
        <time>2026-06-20T07:53:04.000Z</time>
        <extensions>
          <ns3:TrackPointExtension>
            <ns3:atemp>18.0</ns3:atemp>
          </ns3:TrackPointExtension>
        </extensions>
      </trkpt>
      <trkpt lat="42.5467619486153125762939453125" lon="20.1434938050806522369384765625">
        <ele>2083.199951171875</ele>
        <time>2026-06-20T07:53:05.000Z</time>
        <extensions>
          <ns3:TrackPointExtension>
            <ns3:atemp>18.0</ns3:atemp>
          </ns3:TrackPointExtension>
        </extensions>
      </trkpt>
      <trkpt lat="42.5467619486153125762939453125" lon="20.1434938050806522369384765625">
        <ele>2083.199951171875</ele>
        <time>2026-06-20T07:53:06.000Z</time>
        <extensions>
          <ns3:TrackPointExtension>
            <ns3:atemp>18.0</ns3:atemp>
          </ns3:TrackPointExtension>
        </extensions>
      </trkpt>
      <trkpt lat="42.5467619486153125762939453125" lon="20.1434938050806522369384765625">
        <ele>2083.199951171875</ele>
        <time>2026-06-20T07:53:07.000Z</time>
        <extensions>
          <ns3:TrackPointExtension>
            <ns3:atemp>18.0</ns3:atemp>
          </ns3:TrackPointExtension>
        </extensions>
      </trkpt>
      <trkpt lat="42.5467619486153125762939453125" lon="20.1434938050806522369384765625">
        <ele>2083.199951171875</ele>
        <time>2026-06-20T07:53:08.000Z</time>
        <extensions>
          <ns3:TrackPointExtension>
            <ns3:atemp>18.0</ns3:atemp>
          </ns3:TrackPointExtension>
        </extensions>
      </trkpt>
      <trkpt lat="42.5467619486153125762939453125" lon="20.1434938050806522369384765625">
        <ele>2083.199951171875</ele>
        <time>2026-06-20T07:53:09.000Z</time>
        <extensions>
          <ns3:TrackPointExtension>
            <ns3:atemp>18.0</ns3:atemp>
          </ns3:TrackPointExtension>
        </extensions>
      </trkpt>
      <trkpt lat="42.5467619486153125762939453125" lon="20.1434938050806522369384765625">
        <ele>2083.199951171875</ele>
        <time>2026-06-20T07:53:10.000Z</time>
        <extensions>
          <ns3:TrackPointExtension>
            <ns3:atemp>18.0</ns3:atemp>
          </ns3:TrackPointExtension>
        </extensions>
      </trkpt>
      <trkpt lat="42.5467619486153125762939453125" lon="20.1434938050806522369384765625">
        <ele>2083.199951171875</ele>
        <time>2026-06-20T07:53:11.000Z</time>
        <extensions>
          <ns3:TrackPointExtension>
            <ns3:atemp>18.0</ns3:atemp>
          </ns3:TrackPointExtension>
        </extensions>
      </trkpt>
      <trkpt lat="42.5467619486153125762939453125" lon="20.1434938050806522369384765625">
        <ele>2083.199951171875</ele>
        <time>2026-06-20T07:53:12.000Z</time>
        <extensions>
          <ns3:TrackPointExtension>
            <ns3:atemp>18.0</ns3:atemp>
          </ns3:TrackPointExtension>
        </extensions>
      </trkpt>
      <trkpt lat="42.5467619486153125762939453125" lon="20.1434938050806522369384765625">
        <ele>2083.199951171875</ele>
        <time>2026-06-20T07:53:13.000Z</time>
        <extensions>
          <ns3:TrackPointExtension>
            <ns3:atemp>18.0</ns3:atemp>
          </ns3:TrackPointExtension>
        </extensions>
      </trkpt>
      <trkpt lat="42.5467619486153125762939453125" lon="20.1434938050806522369384765625">
        <ele>2083.199951171875</ele>
        <time>2026-06-20T07:53:14.000Z</time>
        <extensions>
          <ns3:TrackPointExtension>
            <ns3:atemp>18.0</ns3:atemp>
          </ns3:TrackPointExtension>
        </extensions>
      </trkpt>
      <trkpt lat="42.5467619486153125762939453125" lon="20.1434938050806522369384765625">
        <ele>2083.199951171875</ele>
        <time>2026-06-20T07:53:15.000Z</time>
        <extensions>
          <ns3:TrackPointExtension>
            <ns3:atemp>18.0</ns3:atemp>
          </ns3:TrackPointExtension>
        </extensions>
      </trkpt>
      <trkpt lat="42.5467619486153125762939453125" lon="20.1434938050806522369384765625">
        <ele>2083.199951171875</ele>
        <time>2026-06-20T07:53:16.000Z</time>
        <extensions>
          <ns3:TrackPointExtension>
            <ns3:atemp>18.0</ns3:atemp>
          </ns3:TrackPointExtension>
        </extensions>
      </trkpt>
      <trkpt lat="42.5467619486153125762939453125" lon="20.1434938050806522369384765625">
        <ele>2083.199951171875</ele>
        <time>2026-06-20T07:53:17.000Z</time>
        <extensions>
          <ns3:TrackPointExtension>
            <ns3:atemp>18.0</ns3:atemp>
          </ns3:TrackPointExtension>
        </extensions>
      </trkpt>
      <trkpt lat="42.5467619486153125762939453125" lon="20.1434938050806522369384765625">
        <ele>2083.199951171875</ele>
        <time>2026-06-20T07:53:18.000Z</time>
        <extensions>
          <ns3:TrackPointExtension>
            <ns3:atemp>18.0</ns3:atemp>
          </ns3:TrackPointExtension>
        </extensions>
      </trkpt>
      <trkpt lat="42.5467619486153125762939453125" lon="20.1434938050806522369384765625">
        <ele>2083.199951171875</ele>
        <time>2026-06-20T07:53:19.000Z</time>
        <extensions>
          <ns3:TrackPointExtension>
            <ns3:atemp>18.0</ns3:atemp>
          </ns3:TrackPointExtension>
        </extensions>
      </trkpt>
      <trkpt lat="42.5467619486153125762939453125" lon="20.1434938050806522369384765625">
        <ele>2083.199951171875</ele>
        <time>2026-06-20T07:53:20.000Z</time>
        <extensions>
          <ns3:TrackPointExtension>
            <ns3:atemp>18.0</ns3:atemp>
          </ns3:TrackPointExtension>
        </extensions>
      </trkpt>
      <trkpt lat="42.5467619486153125762939453125" lon="20.1434938050806522369384765625">
        <ele>2083.199951171875</ele>
        <time>2026-06-20T07:53:21.000Z</time>
        <extensions>
          <ns3:TrackPointExtension>
            <ns3:atemp>18.0</ns3:atemp>
          </ns3:TrackPointExtension>
        </extensions>
      </trkpt>
      <trkpt lat="42.5467619486153125762939453125" lon="20.1434938050806522369384765625">
        <ele>2083.199951171875</ele>
        <time>2026-06-20T07:53:22.000Z</time>
        <extensions>
          <ns3:TrackPointExtension>
            <ns3:atemp>18.0</ns3:atemp>
          </ns3:TrackPointExtension>
        </extensions>
      </trkpt>
      <trkpt lat="42.5467619486153125762939453125" lon="20.1434938050806522369384765625">
        <ele>2083.199951171875</ele>
        <time>2026-06-20T07:53:23.000Z</time>
        <extensions>
          <ns3:TrackPointExtension>
            <ns3:atemp>18.0</ns3:atemp>
          </ns3:TrackPointExtension>
        </extensions>
      </trkpt>
      <trkpt lat="42.5467619486153125762939453125" lon="20.1434938050806522369384765625">
        <ele>2083.199951171875</ele>
        <time>2026-06-20T07:53:24.000Z</time>
        <extensions>
          <ns3:TrackPointExtension>
            <ns3:atemp>18.0</ns3:atemp>
          </ns3:TrackPointExtension>
        </extensions>
      </trkpt>
      <trkpt lat="42.5467619486153125762939453125" lon="20.1434938050806522369384765625">
        <ele>2083.199951171875</ele>
        <time>2026-06-20T07:53:25.000Z</time>
        <extensions>
          <ns3:TrackPointExtension>
            <ns3:atemp>18.0</ns3:atemp>
          </ns3:TrackPointExtension>
        </extensions>
      </trkpt>
      <trkpt lat="42.5467619486153125762939453125" lon="20.1434938050806522369384765625">
        <ele>2083.199951171875</ele>
        <time>2026-06-20T07:53:26.000Z</time>
        <extensions>
          <ns3:TrackPointExtension>
            <ns3:atemp>18.0</ns3:atemp>
          </ns3:TrackPointExtension>
        </extensions>
      </trkpt>
      <trkpt lat="42.5467619486153125762939453125" lon="20.1434938050806522369384765625">
        <ele>2083.199951171875</ele>
        <time>2026-06-20T07:53:27.000Z</time>
        <extensions>
          <ns3:TrackPointExtension>
            <ns3:atemp>18.0</ns3:atemp>
          </ns3:TrackPointExtension>
        </extensions>
      </trkpt>
      <trkpt lat="42.5467619486153125762939453125" lon="20.1434938050806522369384765625">
        <ele>2083.199951171875</ele>
        <time>2026-06-20T07:53:28.000Z</time>
        <extensions>
          <ns3:TrackPointExtension>
            <ns3:atemp>18.0</ns3:atemp>
          </ns3:TrackPointExtension>
        </extensions>
      </trkpt>
      <trkpt lat="42.5467619486153125762939453125" lon="20.1434938050806522369384765625">
        <ele>2083.199951171875</ele>
        <time>2026-06-20T07:53:29.000Z</time>
        <extensions>
          <ns3:TrackPointExtension>
            <ns3:atemp>18.0</ns3:atemp>
          </ns3:TrackPointExtension>
        </extensions>
      </trkpt>
      <trkpt lat="42.5467619486153125762939453125" lon="20.1434938050806522369384765625">
        <ele>2083.199951171875</ele>
        <time>2026-06-20T07:53:30.000Z</time>
        <extensions>
          <ns3:TrackPointExtension>
            <ns3:atemp>18.0</ns3:atemp>
          </ns3:TrackPointExtension>
        </extensions>
      </trkpt>
      <trkpt lat="42.5467619486153125762939453125" lon="20.1434938050806522369384765625">
        <ele>2083.199951171875</ele>
        <time>2026-06-20T07:53:31.000Z</time>
        <extensions>
          <ns3:TrackPointExtension>
            <ns3:atemp>18.0</ns3:atemp>
          </ns3:TrackPointExtension>
        </extensions>
      </trkpt>
      <trkpt lat="42.5467619486153125762939453125" lon="20.1434938050806522369384765625">
        <ele>2083.199951171875</ele>
        <time>2026-06-20T07:53:32.000Z</time>
        <extensions>
          <ns3:TrackPointExtension>
            <ns3:atemp>18.0</ns3:atemp>
          </ns3:TrackPointExtension>
        </extensions>
      </trkpt>
      <trkpt lat="42.5467619486153125762939453125" lon="20.1434938050806522369384765625">
        <ele>2083.199951171875</ele>
        <time>2026-06-20T07:53:33.000Z</time>
        <extensions>
          <ns3:TrackPointExtension>
            <ns3:atemp>18.0</ns3:atemp>
          </ns3:TrackPointExtension>
        </extensions>
      </trkpt>
      <trkpt lat="42.5467619486153125762939453125" lon="20.1434938050806522369384765625">
        <ele>2083.199951171875</ele>
        <time>2026-06-20T07:53:34.000Z</time>
        <extensions>
          <ns3:TrackPointExtension>
            <ns3:atemp>18.0</ns3:atemp>
          </ns3:TrackPointExtension>
        </extensions>
      </trkpt>
      <trkpt lat="42.5467619486153125762939453125" lon="20.1434938050806522369384765625">
        <ele>2083.199951171875</ele>
        <time>2026-06-20T07:53:35.000Z</time>
        <extensions>
          <ns3:TrackPointExtension>
            <ns3:atemp>18.0</ns3:atemp>
          </ns3:TrackPointExtension>
        </extensions>
      </trkpt>
      <trkpt lat="42.5467619486153125762939453125" lon="20.1434938050806522369384765625">
        <ele>2083.199951171875</ele>
        <time>2026-06-20T07:53:36.000Z</time>
        <extensions>
          <ns3:TrackPointExtension>
            <ns3:atemp>18.0</ns3:atemp>
          </ns3:TrackPointExtension>
        </extensions>
      </trkpt>
      <trkpt lat="42.5467619486153125762939453125" lon="20.1434938050806522369384765625">
        <ele>2083.199951171875</ele>
        <time>2026-06-20T07:53:37.000Z</time>
        <extensions>
          <ns3:TrackPointExtension>
            <ns3:atemp>18.0</ns3:atemp>
          </ns3:TrackPointExtension>
        </extensions>
      </trkpt>
      <trkpt lat="42.5467619486153125762939453125" lon="20.1434938050806522369384765625">
        <ele>2083.199951171875</ele>
        <time>2026-06-20T07:53:38.000Z</time>
        <extensions>
          <ns3:TrackPointExtension>
            <ns3:atemp>18.0</ns3:atemp>
          </ns3:TrackPointExtension>
        </extensions>
      </trkpt>
      <trkpt lat="42.5467619486153125762939453125" lon="20.1434938050806522369384765625">
        <ele>2083.199951171875</ele>
        <time>2026-06-20T07:53:39.000Z</time>
        <extensions>
          <ns3:TrackPointExtension>
            <ns3:atemp>18.0</ns3:atemp>
          </ns3:TrackPointExtension>
        </extensions>
      </trkpt>
      <trkpt lat="42.5467619486153125762939453125" lon="20.1434938050806522369384765625">
        <ele>2083.199951171875</ele>
        <time>2026-06-20T07:53:40.000Z</time>
        <extensions>
          <ns3:TrackPointExtension>
            <ns3:atemp>18.0</ns3:atemp>
          </ns3:TrackPointExtension>
        </extensions>
      </trkpt>
      <trkpt lat="42.5467619486153125762939453125" lon="20.1434938050806522369384765625">
        <ele>2083.199951171875</ele>
        <time>2026-06-20T07:53:41.000Z</time>
        <extensions>
          <ns3:TrackPointExtension>
            <ns3:atemp>18.0</ns3:atemp>
          </ns3:TrackPointExtension>
        </extensions>
      </trkpt>
      <trkpt lat="42.5467619486153125762939453125" lon="20.1434938050806522369384765625">
        <ele>2083.199951171875</ele>
        <time>2026-06-20T07:53:42.000Z</time>
        <extensions>
          <ns3:TrackPointExtension>
            <ns3:atemp>18.0</ns3:atemp>
          </ns3:TrackPointExtension>
        </extensions>
      </trkpt>
      <trkpt lat="42.5467619486153125762939453125" lon="20.1434938050806522369384765625">
        <ele>2083.199951171875</ele>
        <time>2026-06-20T07:53:43.000Z</time>
        <extensions>
          <ns3:TrackPointExtension>
            <ns3:atemp>18.0</ns3:atemp>
          </ns3:TrackPointExtension>
        </extensions>
      </trkpt>
      <trkpt lat="42.5467619486153125762939453125" lon="20.1434938050806522369384765625">
        <ele>2083.199951171875</ele>
        <time>2026-06-20T07:53:44.000Z</time>
        <extensions>
          <ns3:TrackPointExtension>
            <ns3:atemp>18.0</ns3:atemp>
          </ns3:TrackPointExtension>
        </extensions>
      </trkpt>
      <trkpt lat="42.5467619486153125762939453125" lon="20.1434938050806522369384765625">
        <ele>2083.199951171875</ele>
        <time>2026-06-20T07:53:45.000Z</time>
        <extensions>
          <ns3:TrackPointExtension>
            <ns3:atemp>18.0</ns3:atemp>
          </ns3:TrackPointExtension>
        </extensions>
      </trkpt>
      <trkpt lat="42.5467619486153125762939453125" lon="20.1434938050806522369384765625">
        <ele>2083.199951171875</ele>
        <time>2026-06-20T07:53:46.000Z</time>
        <extensions>
          <ns3:TrackPointExtension>
            <ns3:atemp>18.0</ns3:atemp>
          </ns3:TrackPointExtension>
        </extensions>
      </trkpt>
      <trkpt lat="42.5467619486153125762939453125" lon="20.1434938050806522369384765625">
        <ele>2083.199951171875</ele>
        <time>2026-06-20T07:53:47.000Z</time>
        <extensions>
          <ns3:TrackPointExtension>
            <ns3:atemp>18.0</ns3:atemp>
          </ns3:TrackPointExtension>
        </extensions>
      </trkpt>
      <trkpt lat="42.5467619486153125762939453125" lon="20.1434938050806522369384765625">
        <ele>2083.199951171875</ele>
        <time>2026-06-20T07:53:48.000Z</time>
        <extensions>
          <ns3:TrackPointExtension>
            <ns3:atemp>18.0</ns3:atemp>
          </ns3:TrackPointExtension>
        </extensions>
      </trkpt>
      <trkpt lat="42.5467619486153125762939453125" lon="20.1434938050806522369384765625">
        <ele>2083.199951171875</ele>
        <time>2026-06-20T07:53:49.000Z</time>
        <extensions>
          <ns3:TrackPointExtension>
            <ns3:atemp>18.0</ns3:atemp>
          </ns3:TrackPointExtension>
        </extensions>
      </trkpt>
      <trkpt lat="42.5467619486153125762939453125" lon="20.1434938050806522369384765625">
        <ele>2083.199951171875</ele>
        <time>2026-06-20T07:53:50.000Z</time>
        <extensions>
          <ns3:TrackPointExtension>
            <ns3:atemp>18.0</ns3:atemp>
          </ns3:TrackPointExtension>
        </extensions>
      </trkpt>
      <trkpt lat="42.5467619486153125762939453125" lon="20.1434938050806522369384765625">
        <ele>2083.199951171875</ele>
        <time>2026-06-20T07:53:51.000Z</time>
        <extensions>
          <ns3:TrackPointExtension>
            <ns3:atemp>18.0</ns3:atemp>
          </ns3:TrackPointExtension>
        </extensions>
      </trkpt>
      <trkpt lat="42.5467619486153125762939453125" lon="20.1434938050806522369384765625">
        <ele>2083.199951171875</ele>
        <time>2026-06-20T07:53:52.000Z</time>
        <extensions>
          <ns3:TrackPointExtension>
            <ns3:atemp>18.0</ns3:atemp>
          </ns3:TrackPointExtension>
        </extensions>
      </trkpt>
      <trkpt lat="42.5467619486153125762939453125" lon="20.1434938050806522369384765625">
        <ele>2083.199951171875</ele>
        <time>2026-06-20T07:53:53.000Z</time>
        <extensions>
          <ns3:TrackPointExtension>
            <ns3:atemp>18.0</ns3:atemp>
          </ns3:TrackPointExtension>
        </extensions>
      </trkpt>
      <trkpt lat="42.5467619486153125762939453125" lon="20.1434938050806522369384765625">
        <ele>2083.199951171875</ele>
        <time>2026-06-20T07:53:54.000Z</time>
        <extensions>
          <ns3:TrackPointExtension>
            <ns3:atemp>18.0</ns3:atemp>
          </ns3:TrackPointExtension>
        </extensions>
      </trkpt>
      <trkpt lat="42.5467619486153125762939453125" lon="20.1434938050806522369384765625">
        <ele>2083.199951171875</ele>
        <time>2026-06-20T07:53:55.000Z</time>
        <extensions>
          <ns3:TrackPointExtension>
            <ns3:atemp>18.0</ns3:atemp>
          </ns3:TrackPointExtension>
        </extensions>
      </trkpt>
      <trkpt lat="42.5467619486153125762939453125" lon="20.1434938050806522369384765625">
        <ele>2083.199951171875</ele>
        <time>2026-06-20T07:53:56.000Z</time>
        <extensions>
          <ns3:TrackPointExtension>
            <ns3:atemp>18.0</ns3:atemp>
          </ns3:TrackPointExtension>
        </extensions>
      </trkpt>
      <trkpt lat="42.5467619486153125762939453125" lon="20.1434938050806522369384765625">
        <ele>2083.199951171875</ele>
        <time>2026-06-20T07:53:57.000Z</time>
        <extensions>
          <ns3:TrackPointExtension>
            <ns3:atemp>18.0</ns3:atemp>
          </ns3:TrackPointExtension>
        </extensions>
      </trkpt>
      <trkpt lat="42.5467619486153125762939453125" lon="20.1434938050806522369384765625">
        <ele>2083.199951171875</ele>
        <time>2026-06-20T07:53:58.000Z</time>
        <extensions>
          <ns3:TrackPointExtension>
            <ns3:atemp>18.0</ns3:atemp>
          </ns3:TrackPointExtension>
        </extensions>
      </trkpt>
      <trkpt lat="42.5467619486153125762939453125" lon="20.1434938050806522369384765625">
        <ele>2083.199951171875</ele>
        <time>2026-06-20T07:53:59.000Z</time>
        <extensions>
          <ns3:TrackPointExtension>
            <ns3:atemp>18.0</ns3:atemp>
          </ns3:TrackPointExtension>
        </extensions>
      </trkpt>
      <trkpt lat="42.5467619486153125762939453125" lon="20.1434938050806522369384765625">
        <ele>2083.199951171875</ele>
        <time>2026-06-20T07:54:00.000Z</time>
        <extensions>
          <ns3:TrackPointExtension>
            <ns3:atemp>18.0</ns3:atemp>
          </ns3:TrackPointExtension>
        </extensions>
      </trkpt>
      <trkpt lat="42.5467619486153125762939453125" lon="20.1434938050806522369384765625">
        <ele>2083.199951171875</ele>
        <time>2026-06-20T07:54:01.000Z</time>
        <extensions>
          <ns3:TrackPointExtension>
            <ns3:atemp>18.0</ns3:atemp>
          </ns3:TrackPointExtension>
        </extensions>
      </trkpt>
      <trkpt lat="42.5467619486153125762939453125" lon="20.1434938050806522369384765625">
        <ele>2083.199951171875</ele>
        <time>2026-06-20T07:54:02.000Z</time>
        <extensions>
          <ns3:TrackPointExtension>
            <ns3:atemp>18.0</ns3:atemp>
          </ns3:TrackPointExtension>
        </extensions>
      </trkpt>
      <trkpt lat="42.5467619486153125762939453125" lon="20.1434938050806522369384765625">
        <ele>2083.199951171875</ele>
        <time>2026-06-20T07:54:03.000Z</time>
        <extensions>
          <ns3:TrackPointExtension>
            <ns3:atemp>18.0</ns3:atemp>
          </ns3:TrackPointExtension>
        </extensions>
      </trkpt>
      <trkpt lat="42.5467619486153125762939453125" lon="20.1434938050806522369384765625">
        <ele>2083.199951171875</ele>
        <time>2026-06-20T07:54:04.000Z</time>
        <extensions>
          <ns3:TrackPointExtension>
            <ns3:atemp>18.0</ns3:atemp>
          </ns3:TrackPointExtension>
        </extensions>
      </trkpt>
      <trkpt lat="42.5467619486153125762939453125" lon="20.1434938050806522369384765625">
        <ele>2083.199951171875</ele>
        <time>2026-06-20T07:54:05.000Z</time>
        <extensions>
          <ns3:TrackPointExtension>
            <ns3:atemp>18.0</ns3:atemp>
          </ns3:TrackPointExtension>
        </extensions>
      </trkpt>
      <trkpt lat="42.5467619486153125762939453125" lon="20.1434938050806522369384765625">
        <ele>2083.199951171875</ele>
        <time>2026-06-20T07:54:06.000Z</time>
        <extensions>
          <ns3:TrackPointExtension>
            <ns3:atemp>18.0</ns3:atemp>
          </ns3:TrackPointExtension>
        </extensions>
      </trkpt>
      <trkpt lat="42.5467619486153125762939453125" lon="20.1434938050806522369384765625">
        <ele>2083.199951171875</ele>
        <time>2026-06-20T07:54:07.000Z</time>
        <extensions>
          <ns3:TrackPointExtension>
            <ns3:atemp>18.0</ns3:atemp>
          </ns3:TrackPointExtension>
        </extensions>
      </trkpt>
      <trkpt lat="42.5467619486153125762939453125" lon="20.1434938050806522369384765625">
        <ele>2083.199951171875</ele>
        <time>2026-06-20T07:54:08.000Z</time>
        <extensions>
          <ns3:TrackPointExtension>
            <ns3:atemp>18.0</ns3:atemp>
          </ns3:TrackPointExtension>
        </extensions>
      </trkpt>
      <trkpt lat="42.5467619486153125762939453125" lon="20.1434938050806522369384765625">
        <ele>2083.199951171875</ele>
        <time>2026-06-20T07:54:09.000Z</time>
        <extensions>
          <ns3:TrackPointExtension>
            <ns3:atemp>18.0</ns3:atemp>
          </ns3:TrackPointExtension>
        </extensions>
      </trkpt>
      <trkpt lat="42.5467619486153125762939453125" lon="20.1434938050806522369384765625">
        <ele>2083.199951171875</ele>
        <time>2026-06-20T07:54:10.000Z</time>
        <extensions>
          <ns3:TrackPointExtension>
            <ns3:atemp>18.0</ns3:atemp>
          </ns3:TrackPointExtension>
        </extensions>
      </trkpt>
      <trkpt lat="42.5467619486153125762939453125" lon="20.1434938050806522369384765625">
        <ele>2083.199951171875</ele>
        <time>2026-06-20T07:54:11.000Z</time>
        <extensions>
          <ns3:TrackPointExtension>
            <ns3:atemp>18.0</ns3:atemp>
          </ns3:TrackPointExtension>
        </extensions>
      </trkpt>
      <trkpt lat="42.5467619486153125762939453125" lon="20.1434938050806522369384765625">
        <ele>2083.199951171875</ele>
        <time>2026-06-20T07:54:12.000Z</time>
        <extensions>
          <ns3:TrackPointExtension>
            <ns3:atemp>18.0</ns3:atemp>
          </ns3:TrackPointExtension>
        </extensions>
      </trkpt>
      <trkpt lat="42.5467619486153125762939453125" lon="20.1434938050806522369384765625">
        <ele>2083.199951171875</ele>
        <time>2026-06-20T07:54:13.000Z</time>
        <extensions>
          <ns3:TrackPointExtension>
            <ns3:atemp>18.0</ns3:atemp>
          </ns3:TrackPointExtension>
        </extensions>
      </trkpt>
      <trkpt lat="42.5467619486153125762939453125" lon="20.1434938050806522369384765625">
        <ele>2083.199951171875</ele>
        <time>2026-06-20T07:54:14.000Z</time>
        <extensions>
          <ns3:TrackPointExtension>
            <ns3:atemp>18.0</ns3:atemp>
          </ns3:TrackPointExtension>
        </extensions>
      </trkpt>
      <trkpt lat="42.5467619486153125762939453125" lon="20.1434938050806522369384765625">
        <ele>2083.199951171875</ele>
        <time>2026-06-20T07:54:15.000Z</time>
        <extensions>
          <ns3:TrackPointExtension>
            <ns3:atemp>18.0</ns3:atemp>
          </ns3:TrackPointExtension>
        </extensions>
      </trkpt>
      <trkpt lat="42.5467619486153125762939453125" lon="20.1434938050806522369384765625">
        <ele>2083.199951171875</ele>
        <time>2026-06-20T07:54:16.000Z</time>
        <extensions>
          <ns3:TrackPointExtension>
            <ns3:atemp>18.0</ns3:atemp>
          </ns3:TrackPointExtension>
        </extensions>
      </trkpt>
      <trkpt lat="42.5467619486153125762939453125" lon="20.1434938050806522369384765625">
        <ele>2083.199951171875</ele>
        <time>2026-06-20T07:54:17.000Z</time>
        <extensions>
          <ns3:TrackPointExtension>
            <ns3:atemp>18.0</ns3:atemp>
          </ns3:TrackPointExtension>
        </extensions>
      </trkpt>
      <trkpt lat="42.5467619486153125762939453125" lon="20.1434938050806522369384765625">
        <ele>2083.199951171875</ele>
        <time>2026-06-20T07:54:18.000Z</time>
        <extensions>
          <ns3:TrackPointExtension>
            <ns3:atemp>18.0</ns3:atemp>
          </ns3:TrackPointExtension>
        </extensions>
      </trkpt>
      <trkpt lat="42.5467619486153125762939453125" lon="20.1434938050806522369384765625">
        <ele>2083.199951171875</ele>
        <time>2026-06-20T07:54:19.000Z</time>
        <extensions>
          <ns3:TrackPointExtension>
            <ns3:atemp>18.0</ns3:atemp>
          </ns3:TrackPointExtension>
        </extensions>
      </trkpt>
      <trkpt lat="42.5467619486153125762939453125" lon="20.1434938050806522369384765625">
        <ele>2083.199951171875</ele>
        <time>2026-06-20T07:54:20.000Z</time>
        <extensions>
          <ns3:TrackPointExtension>
            <ns3:atemp>18.0</ns3:atemp>
          </ns3:TrackPointExtension>
        </extensions>
      </trkpt>
      <trkpt lat="42.5467619486153125762939453125" lon="20.1434938050806522369384765625">
        <ele>2083.199951171875</ele>
        <time>2026-06-20T07:54:21.000Z</time>
        <extensions>
          <ns3:TrackPointExtension>
            <ns3:atemp>18.0</ns3:atemp>
          </ns3:TrackPointExtension>
        </extensions>
      </trkpt>
      <trkpt lat="42.5467619486153125762939453125" lon="20.1434938050806522369384765625">
        <ele>2083.199951171875</ele>
        <time>2026-06-20T07:54:22.000Z</time>
        <extensions>
          <ns3:TrackPointExtension>
            <ns3:atemp>18.0</ns3:atemp>
          </ns3:TrackPointExtension>
        </extensions>
      </trkpt>
      <trkpt lat="42.5467619486153125762939453125" lon="20.1434938050806522369384765625">
        <ele>2083.199951171875</ele>
        <time>2026-06-20T07:54:23.000Z</time>
        <extensions>
          <ns3:TrackPointExtension>
            <ns3:atemp>18.0</ns3:atemp>
          </ns3:TrackPointExtension>
        </extensions>
      </trkpt>
      <trkpt lat="42.5467619486153125762939453125" lon="20.1434938050806522369384765625">
        <ele>2083.199951171875</ele>
        <time>2026-06-20T07:54:24.000Z</time>
        <extensions>
          <ns3:TrackPointExtension>
            <ns3:atemp>18.0</ns3:atemp>
          </ns3:TrackPointExtension>
        </extensions>
      </trkpt>
      <trkpt lat="42.5467619486153125762939453125" lon="20.1434938050806522369384765625">
        <ele>2083.199951171875</ele>
        <time>2026-06-20T07:54:25.000Z</time>
        <extensions>
          <ns3:TrackPointExtension>
            <ns3:atemp>18.0</ns3:atemp>
          </ns3:TrackPointExtension>
        </extensions>
      </trkpt>
      <trkpt lat="42.5467619486153125762939453125" lon="20.1434938050806522369384765625">
        <ele>2083.199951171875</ele>
        <time>2026-06-20T07:54:26.000Z</time>
        <extensions>
          <ns3:TrackPointExtension>
            <ns3:atemp>18.0</ns3:atemp>
          </ns3:TrackPointExtension>
        </extensions>
      </trkpt>
      <trkpt lat="42.5467619486153125762939453125" lon="20.1434938050806522369384765625">
        <ele>2083.199951171875</ele>
        <time>2026-06-20T07:54:27.000Z</time>
        <extensions>
          <ns3:TrackPointExtension>
            <ns3:atemp>18.0</ns3:atemp>
          </ns3:TrackPointExtension>
        </extensions>
      </trkpt>
      <trkpt lat="42.5467619486153125762939453125" lon="20.1434938050806522369384765625">
        <ele>2083.199951171875</ele>
        <time>2026-06-20T07:54:28.000Z</time>
        <extensions>
          <ns3:TrackPointExtension>
            <ns3:atemp>18.0</ns3:atemp>
          </ns3:TrackPointExtension>
        </extensions>
      </trkpt>
      <trkpt lat="42.5467619486153125762939453125" lon="20.1434938050806522369384765625">
        <ele>2083.199951171875</ele>
        <time>2026-06-20T07:54:29.000Z</time>
        <extensions>
          <ns3:TrackPointExtension>
            <ns3:atemp>18.0</ns3:atemp>
          </ns3:TrackPointExtension>
        </extensions>
      </trkpt>
      <trkpt lat="42.5467619486153125762939453125" lon="20.1434938050806522369384765625">
        <ele>2083.199951171875</ele>
        <time>2026-06-20T07:54:30.000Z</time>
        <extensions>
          <ns3:TrackPointExtension>
            <ns3:atemp>18.0</ns3:atemp>
          </ns3:TrackPointExtension>
        </extensions>
      </trkpt>
      <trkpt lat="42.5467619486153125762939453125" lon="20.1434938050806522369384765625">
        <ele>2083.199951171875</ele>
        <time>2026-06-20T07:54:31.000Z</time>
        <extensions>
          <ns3:TrackPointExtension>
            <ns3:atemp>18.0</ns3:atemp>
          </ns3:TrackPointExtension>
        </extensions>
      </trkpt>
      <trkpt lat="42.54676169715821743011474609375" lon="20.14349363744258880615234375">
        <ele>2083.199951171875</ele>
        <time>2026-06-20T07:54:32.000Z</time>
        <extensions>
          <ns3:TrackPointExtension>
            <ns3:atemp>18.0</ns3:atemp>
          </ns3:TrackPointExtension>
        </extensions>
      </trkpt>
      <trkpt lat="42.5467619486153125762939453125" lon="20.1434938050806522369384765625">
        <ele>2083.199951171875</ele>
        <time>2026-06-20T07:54:33.000Z</time>
        <extensions>
          <ns3:TrackPointExtension>
            <ns3:atemp>18.0</ns3:atemp>
          </ns3:TrackPointExtension>
        </extensions>
      </trkpt>
      <trkpt lat="42.5467619486153125762939453125" lon="20.1434938050806522369384765625">
        <ele>2083.199951171875</ele>
        <time>2026-06-20T07:54:34.000Z</time>
        <extensions>
          <ns3:TrackPointExtension>
            <ns3:atemp>18.0</ns3:atemp>
          </ns3:TrackPointExtension>
        </extensions>
      </trkpt>
      <trkpt lat="42.5467619486153125762939453125" lon="20.1434938050806522369384765625">
        <ele>2083.199951171875</ele>
        <time>2026-06-20T07:54:35.000Z</time>
        <extensions>
          <ns3:TrackPointExtension>
            <ns3:atemp>18.0</ns3:atemp>
          </ns3:TrackPointExtension>
        </extensions>
      </trkpt>
      <trkpt lat="42.5467619486153125762939453125" lon="20.1434938050806522369384765625">
        <ele>2083.199951171875</ele>
        <time>2026-06-20T07:54:36.000Z</time>
        <extensions>
          <ns3:TrackPointExtension>
            <ns3:atemp>18.0</ns3:atemp>
          </ns3:TrackPointExtension>
        </extensions>
      </trkpt>
      <trkpt lat="42.54676270298659801483154296875" lon="20.14350394718348979949951171875">
        <ele>2083.199951171875</ele>
        <time>2026-06-20T07:54:37.000Z</time>
        <extensions>
          <ns3:TrackPointExtension>
            <ns3:atemp>18.0</ns3:atemp>
          </ns3:TrackPointExtension>
        </extensions>
      </trkpt>
      <trkpt lat="42.54676504991948604583740234375" lon="20.14351182617247104644775390625">
        <ele>2083.199951171875</ele>
        <time>2026-06-20T07:54:38.000Z</time>
        <extensions>
          <ns3:TrackPointExtension>
            <ns3:atemp>18.0</ns3:atemp>
          </ns3:TrackPointExtension>
        </extensions>
      </trkpt>
      <trkpt lat="42.54676521755754947662353515625" lon="20.143523477017879486083984375">
        <ele>2083.199951171875</ele>
        <time>2026-06-20T07:54:39.000Z</time>
        <extensions>
          <ns3:TrackPointExtension>
            <ns3:atemp>18.0</ns3:atemp>
          </ns3:TrackPointExtension>
        </extensions>
      </trkpt>
      <trkpt lat="42.5467644631862640380859375" lon="20.143529511988162994384765625">
        <ele>2083.199951171875</ele>
        <time>2026-06-20T07:54:40.000Z</time>
        <extensions>
          <ns3:TrackPointExtension>
            <ns3:atemp>18.0</ns3:atemp>
          </ns3:TrackPointExtension>
        </extensions>
      </trkpt>
      <trkpt lat="42.54676454700529575347900390625" lon="20.143529511988162994384765625">
        <ele>2083.199951171875</ele>
        <time>2026-06-20T07:54:41.000Z</time>
        <extensions>
          <ns3:TrackPointExtension>
            <ns3:atemp>18.0</ns3:atemp>
          </ns3:TrackPointExtension>
        </extensions>
      </trkpt>
      <trkpt lat="42.54676454700529575347900390625" lon="20.143529511988162994384765625">
        <ele>2083.199951171875</ele>
        <time>2026-06-20T07:54:42.000Z</time>
        <extensions>
          <ns3:TrackPointExtension>
            <ns3:atemp>18.0</ns3:atemp>
          </ns3:TrackPointExtension>
        </extensions>
      </trkpt>
      <trkpt lat="42.54676454700529575347900390625" lon="20.143529511988162994384765625">
        <ele>2083.199951171875</ele>
        <time>2026-06-20T07:54:43.000Z</time>
        <extensions>
          <ns3:TrackPointExtension>
            <ns3:atemp>18.0</ns3:atemp>
          </ns3:TrackPointExtension>
        </extensions>
      </trkpt>
      <trkpt lat="42.54676454700529575347900390625" lon="20.143529511988162994384765625">
        <ele>2083.199951171875</ele>
        <time>2026-06-20T07:54:44.000Z</time>
        <extensions>
          <ns3:TrackPointExtension>
            <ns3:atemp>18.0</ns3:atemp>
          </ns3:TrackPointExtension>
        </extensions>
      </trkpt>
      <trkpt lat="42.54676454700529575347900390625" lon="20.143529511988162994384765625">
        <ele>2083.199951171875</ele>
        <time>2026-06-20T07:54:45.000Z</time>
        <extensions>
          <ns3:TrackPointExtension>
            <ns3:atemp>18.0</ns3:atemp>
          </ns3:TrackPointExtension>
        </extensions>
      </trkpt>
      <trkpt lat="42.54676454700529575347900390625" lon="20.143529511988162994384765625">
        <ele>2083.199951171875</ele>
        <time>2026-06-20T07:54:46.000Z</time>
        <extensions>
          <ns3:TrackPointExtension>
            <ns3:atemp>18.0</ns3:atemp>
          </ns3:TrackPointExtension>
        </extensions>
      </trkpt>
      <trkpt lat="42.54676454700529575347900390625" lon="20.143529511988162994384765625">
        <ele>2083.199951171875</ele>
        <time>2026-06-20T07:54:47.000Z</time>
        <extensions>
          <ns3:TrackPointExtension>
            <ns3:atemp>18.0</ns3:atemp>
          </ns3:TrackPointExtension>
        </extensions>
      </trkpt>
      <trkpt lat="42.54676454700529575347900390625" lon="20.143529511988162994384765625">
        <ele>2083.199951171875</ele>
        <time>2026-06-20T07:54:48.000Z</time>
        <extensions>
          <ns3:TrackPointExtension>
            <ns3:atemp>18.0</ns3:atemp>
          </ns3:TrackPointExtension>
        </extensions>
      </trkpt>
      <trkpt lat="42.54676454700529575347900390625" lon="20.143529511988162994384765625">
        <ele>2083.199951171875</ele>
        <time>2026-06-20T07:54:49.000Z</time>
        <extensions>
          <ns3:TrackPointExtension>
            <ns3:atemp>18.0</ns3:atemp>
          </ns3:TrackPointExtension>
        </extensions>
      </trkpt>
      <trkpt lat="42.54676454700529575347900390625" lon="20.143529511988162994384765625">
        <ele>2083.199951171875</ele>
        <time>2026-06-20T07:54:50.000Z</time>
        <extensions>
          <ns3:TrackPointExtension>
            <ns3:atemp>18.0</ns3:atemp>
          </ns3:TrackPointExtension>
        </extensions>
      </trkpt>
      <trkpt lat="42.54676454700529575347900390625" lon="20.143529511988162994384765625">
        <ele>2083.199951171875</ele>
        <time>2026-06-20T07:54:51.000Z</time>
        <extensions>
          <ns3:TrackPointExtension>
            <ns3:atemp>18.0</ns3:atemp>
          </ns3:TrackPointExtension>
        </extensions>
      </trkpt>
      <trkpt lat="42.54676454700529575347900390625" lon="20.143529511988162994384765625">
        <ele>2083.199951171875</ele>
        <time>2026-06-20T07:54:52.000Z</time>
        <extensions>
          <ns3:TrackPointExtension>
            <ns3:atemp>18.0</ns3:atemp>
          </ns3:TrackPointExtension>
        </extensions>
      </trkpt>
      <trkpt lat="42.54676454700529575347900390625" lon="20.143529511988162994384765625">
        <ele>2083.199951171875</ele>
        <time>2026-06-20T07:54:53.000Z</time>
        <extensions>
          <ns3:TrackPointExtension>
            <ns3:atemp>18.0</ns3:atemp>
          </ns3:TrackPointExtension>
        </extensions>
      </trkpt>
      <trkpt lat="42.54676454700529575347900390625" lon="20.143529511988162994384765625">
        <ele>2083.199951171875</ele>
        <time>2026-06-20T07:54:54.000Z</time>
        <extensions>
          <ns3:TrackPointExtension>
            <ns3:atemp>18.0</ns3:atemp>
          </ns3:TrackPointExtension>
        </extensions>
      </trkpt>
      <trkpt lat="42.54676454700529575347900390625" lon="20.143529511988162994384765625">
        <ele>2083.199951171875</ele>
        <time>2026-06-20T07:54:55.000Z</time>
        <extensions>
          <ns3:TrackPointExtension>
            <ns3:atemp>18.0</ns3:atemp>
          </ns3:TrackPointExtension>
        </extensions>
      </trkpt>
      <trkpt lat="42.54676454700529575347900390625" lon="20.143529511988162994384765625">
        <ele>2083.199951171875</ele>
        <time>2026-06-20T07:54:56.000Z</time>
        <extensions>
          <ns3:TrackPointExtension>
            <ns3:atemp>18.0</ns3:atemp>
          </ns3:TrackPointExtension>
        </extensions>
      </trkpt>
      <trkpt lat="42.54676454700529575347900390625" lon="20.143529511988162994384765625">
        <ele>2083.199951171875</ele>
        <time>2026-06-20T07:54:57.000Z</time>
        <extensions>
          <ns3:TrackPointExtension>
            <ns3:atemp>18.0</ns3:atemp>
          </ns3:TrackPointExtension>
        </extensions>
      </trkpt>
      <trkpt lat="42.54676454700529575347900390625" lon="20.143529511988162994384765625">
        <ele>2083.199951171875</ele>
        <time>2026-06-20T07:54:58.000Z</time>
        <extensions>
          <ns3:TrackPointExtension>
            <ns3:atemp>18.0</ns3:atemp>
          </ns3:TrackPointExtension>
        </extensions>
      </trkpt>
      <trkpt lat="42.54676454700529575347900390625" lon="20.143529511988162994384765625">
        <ele>2083.199951171875</ele>
        <time>2026-06-20T07:54:59.000Z</time>
        <extensions>
          <ns3:TrackPointExtension>
            <ns3:atemp>18.0</ns3:atemp>
          </ns3:TrackPointExtension>
        </extensions>
      </trkpt>
      <trkpt lat="42.54676454700529575347900390625" lon="20.143529511988162994384765625">
        <ele>2083.199951171875</ele>
        <time>2026-06-20T07:55:00.000Z</time>
        <extensions>
          <ns3:TrackPointExtension>
            <ns3:atemp>18.0</ns3:atemp>
          </ns3:TrackPointExtension>
        </extensions>
      </trkpt>
      <trkpt lat="42.54676454700529575347900390625" lon="20.143529511988162994384765625">
        <ele>2083.199951171875</ele>
        <time>2026-06-20T07:55:01.000Z</time>
        <extensions>
          <ns3:TrackPointExtension>
            <ns3:atemp>18.0</ns3:atemp>
          </ns3:TrackPointExtension>
        </extensions>
      </trkpt>
      <trkpt lat="42.54676454700529575347900390625" lon="20.143529511988162994384765625">
        <ele>2083.199951171875</ele>
        <time>2026-06-20T07:55:02.000Z</time>
        <extensions>
          <ns3:TrackPointExtension>
            <ns3:atemp>18.0</ns3:atemp>
          </ns3:TrackPointExtension>
        </extensions>
      </trkpt>
      <trkpt lat="42.54676454700529575347900390625" lon="20.143529511988162994384765625">
        <ele>2083.199951171875</ele>
        <time>2026-06-20T07:55:03.000Z</time>
        <extensions>
          <ns3:TrackPointExtension>
            <ns3:atemp>18.0</ns3:atemp>
          </ns3:TrackPointExtension>
        </extensions>
      </trkpt>
      <trkpt lat="42.54676454700529575347900390625" lon="20.143529511988162994384765625">
        <ele>2083.199951171875</ele>
        <time>2026-06-20T07:55:04.000Z</time>
        <extensions>
          <ns3:TrackPointExtension>
            <ns3:atemp>18.0</ns3:atemp>
          </ns3:TrackPointExtension>
        </extensions>
      </trkpt>
      <trkpt lat="42.54676454700529575347900390625" lon="20.143529511988162994384765625">
        <ele>2083.199951171875</ele>
        <time>2026-06-20T07:55:05.000Z</time>
        <extensions>
          <ns3:TrackPointExtension>
            <ns3:atemp>18.0</ns3:atemp>
          </ns3:TrackPointExtension>
        </extensions>
      </trkpt>
      <trkpt lat="42.54676454700529575347900390625" lon="20.143529511988162994384765625">
        <ele>2083.199951171875</ele>
        <time>2026-06-20T07:55:06.000Z</time>
        <extensions>
          <ns3:TrackPointExtension>
            <ns3:atemp>18.0</ns3:atemp>
          </ns3:TrackPointExtension>
        </extensions>
      </trkpt>
      <trkpt lat="42.54676454700529575347900390625" lon="20.143529511988162994384765625">
        <ele>2083.199951171875</ele>
        <time>2026-06-20T07:55:07.000Z</time>
        <extensions>
          <ns3:TrackPointExtension>
            <ns3:atemp>18.0</ns3:atemp>
          </ns3:TrackPointExtension>
        </extensions>
      </trkpt>
      <trkpt lat="42.54676454700529575347900390625" lon="20.143529511988162994384765625">
        <ele>2083.199951171875</ele>
        <time>2026-06-20T07:55:08.000Z</time>
        <extensions>
          <ns3:TrackPointExtension>
            <ns3:atemp>18.0</ns3:atemp>
          </ns3:TrackPointExtension>
        </extensions>
      </trkpt>
      <trkpt lat="42.54676454700529575347900390625" lon="20.143529511988162994384765625">
        <ele>2083.199951171875</ele>
        <time>2026-06-20T07:55:09.000Z</time>
        <extensions>
          <ns3:TrackPointExtension>
            <ns3:atemp>18.0</ns3:atemp>
          </ns3:TrackPointExtension>
        </extensions>
      </trkpt>
      <trkpt lat="42.54676454700529575347900390625" lon="20.143529511988162994384765625">
        <ele>2083.199951171875</ele>
        <time>2026-06-20T07:55:10.000Z</time>
        <extensions>
          <ns3:TrackPointExtension>
            <ns3:atemp>18.0</ns3:atemp>
          </ns3:TrackPointExtension>
        </extensions>
      </trkpt>
      <trkpt lat="42.54676454700529575347900390625" lon="20.143529511988162994384765625">
        <ele>2083.199951171875</ele>
        <time>2026-06-20T07:55:11.000Z</time>
        <extensions>
          <ns3:TrackPointExtension>
            <ns3:atemp>18.0</ns3:atemp>
          </ns3:TrackPointExtension>
        </extensions>
      </trkpt>
      <trkpt lat="42.54676454700529575347900390625" lon="20.143529511988162994384765625">
        <ele>2083.199951171875</ele>
        <time>2026-06-20T07:55:12.000Z</time>
        <extensions>
          <ns3:TrackPointExtension>
            <ns3:atemp>18.0</ns3:atemp>
          </ns3:TrackPointExtension>
        </extensions>
      </trkpt>
      <trkpt lat="42.54676454700529575347900390625" lon="20.143529511988162994384765625">
        <ele>2083.199951171875</ele>
        <time>2026-06-20T07:55:13.000Z</time>
        <extensions>
          <ns3:TrackPointExtension>
            <ns3:atemp>18.0</ns3:atemp>
          </ns3:TrackPointExtension>
        </extensions>
      </trkpt>
      <trkpt lat="42.54676454700529575347900390625" lon="20.143529511988162994384765625">
        <ele>2083.199951171875</ele>
        <time>2026-06-20T07:55:14.000Z</time>
        <extensions>
          <ns3:TrackPointExtension>
            <ns3:atemp>18.0</ns3:atemp>
          </ns3:TrackPointExtension>
        </extensions>
      </trkpt>
      <trkpt lat="42.54676454700529575347900390625" lon="20.143529511988162994384765625">
        <ele>2083.199951171875</ele>
        <time>2026-06-20T07:55:15.000Z</time>
        <extensions>
          <ns3:TrackPointExtension>
            <ns3:atemp>18.0</ns3:atemp>
          </ns3:TrackPointExtension>
        </extensions>
      </trkpt>
      <trkpt lat="42.54676454700529575347900390625" lon="20.143529511988162994384765625">
        <ele>2083.199951171875</ele>
        <time>2026-06-20T07:55:16.000Z</time>
        <extensions>
          <ns3:TrackPointExtension>
            <ns3:atemp>18.0</ns3:atemp>
          </ns3:TrackPointExtension>
        </extensions>
      </trkpt>
      <trkpt lat="42.54676454700529575347900390625" lon="20.1435320265591144561767578125">
        <ele>2083.199951171875</ele>
        <time>2026-06-20T07:55:17.000Z</time>
        <extensions>
          <ns3:TrackPointExtension>
            <ns3:atemp>18.0</ns3:atemp>
          </ns3:TrackPointExtension>
        </extensions>
      </trkpt>
      <trkpt lat="42.546770162880420684814453125" lon="20.14356161467730998992919921875">
        <ele>2083</ele>
        <time>2026-06-20T07:55:18.000Z</time>
        <extensions>
          <ns3:TrackPointExtension>
            <ns3:atemp>18.0</ns3:atemp>
          </ns3:TrackPointExtension>
        </extensions>
      </trkpt>
      <trkpt lat="42.54677116870880126953125" lon="20.143580473959445953369140625">
        <ele>2083</ele>
        <time>2026-06-20T07:55:19.000Z</time>
        <extensions>
          <ns3:TrackPointExtension>
            <ns3:atemp>18.0</ns3:atemp>
          </ns3:TrackPointExtension>
        </extensions>
      </trkpt>
      <trkpt lat="42.5467716716229915618896484375" lon="20.14360318891704082489013671875">
        <ele>2083.199951171875</ele>
        <time>2026-06-20T07:55:20.000Z</time>
        <extensions>
          <ns3:TrackPointExtension>
            <ns3:atemp>18.0</ns3:atemp>
          </ns3:TrackPointExtension>
        </extensions>
      </trkpt>
      <trkpt lat="42.546774856746196746826171875" lon="20.14362112618982791900634765625">
        <ele>2083.199951171875</ele>
        <time>2026-06-20T07:55:21.000Z</time>
        <extensions>
          <ns3:TrackPointExtension>
            <ns3:atemp>18.0</ns3:atemp>
          </ns3:TrackPointExtension>
        </extensions>
      </trkpt>
      <trkpt lat="42.54677762277424335479736328125" lon="20.14364275150001049041748046875">
        <ele>2083.39990234375</ele>
        <time>2026-06-20T07:55:22.000Z</time>
        <extensions>
          <ns3:TrackPointExtension>
            <ns3:atemp>18.0</ns3:atemp>
          </ns3:TrackPointExtension>
        </extensions>
      </trkpt>
      <trkpt lat="42.5467783771455287933349609375" lon="20.1436617784202098846435546875">
        <ele>2083.60009765625</ele>
        <time>2026-06-20T07:55:23.000Z</time>
        <extensions>
          <ns3:TrackPointExtension>
            <ns3:atemp>18.0</ns3:atemp>
          </ns3:TrackPointExtension>
        </extensions>
      </trkpt>
      <trkpt lat="42.54677963443100452423095703125" lon="20.14368331991136074066162109375">
        <ele>2083.800048828125</ele>
        <time>2026-06-20T07:55:24.000Z</time>
        <extensions>
          <ns3:TrackPointExtension>
            <ns3:atemp>18.0</ns3:atemp>
          </ns3:TrackPointExtension>
        </extensions>
      </trkpt>
      <trkpt lat="42.54678382538259029388427734375" lon="20.1437023468315601348876953125">
        <ele>2084</ele>
        <time>2026-06-20T07:55:25.000Z</time>
        <extensions>
          <ns3:TrackPointExtension>
            <ns3:atemp>18.0</ns3:atemp>
          </ns3:TrackPointExtension>
        </extensions>
      </trkpt>
      <trkpt lat="42.54678349010646343231201171875" lon="20.143722631037235260009765625">
        <ele>2084.199951171875</ele>
        <time>2026-06-20T07:55:26.000Z</time>
        <extensions>
          <ns3:TrackPointExtension>
            <ns3:atemp>18.0</ns3:atemp>
          </ns3:TrackPointExtension>
        </extensions>
      </trkpt>
      <trkpt lat="42.5467834062874317169189453125" lon="20.143743418157100677490234375">
        <ele>2084.39990234375</ele>
        <time>2026-06-20T07:55:27.000Z</time>
        <extensions>
          <ns3:TrackPointExtension>
            <ns3:atemp>18.0</ns3:atemp>
          </ns3:TrackPointExtension>
        </extensions>
      </trkpt>
      <trkpt lat="42.54678499884903430938720703125" lon="20.1437677256762981414794921875">
        <ele>2084.39990234375</ele>
        <time>2026-06-20T07:55:28.000Z</time>
        <extensions>
          <ns3:TrackPointExtension>
            <ns3:atemp>18.0</ns3:atemp>
          </ns3:TrackPointExtension>
        </extensions>
      </trkpt>
      <trkpt lat="42.54678122699260711669921875" lon="20.14378608204424381256103515625">
        <ele>2084.60009765625</ele>
        <time>2026-06-20T07:55:29.000Z</time>
        <extensions>
          <ns3:TrackPointExtension>
            <ns3:atemp>18.0</ns3:atemp>
          </ns3:TrackPointExtension>
        </extensions>
      </trkpt>
      <trkpt lat="42.54677795805037021636962890625" lon="20.143808461725711822509765625">
        <ele>2084.800048828125</ele>
        <time>2026-06-20T07:55:30.000Z</time>
        <extensions>
          <ns3:TrackPointExtension>
            <ns3:atemp>18.0</ns3:atemp>
          </ns3:TrackPointExtension>
        </extensions>
      </trkpt>
      <trkpt lat="42.54677728749811649322509765625" lon="20.14381474815309047698974609375">
        <ele>2085</ele>
        <time>2026-06-20T07:55:31.000Z</time>
        <extensions>
          <ns3:TrackPointExtension>
            <ns3:atemp>18.0</ns3:atemp>
          </ns3:TrackPointExtension>
        </extensions>
      </trkpt>
      <trkpt lat="42.54677460528910160064697265625" lon="20.143813155591487884521484375">
        <ele>2085.199951171875</ele>
        <time>2026-06-20T07:55:32.000Z</time>
        <extensions>
          <ns3:TrackPointExtension>
            <ns3:atemp>18.0</ns3:atemp>
          </ns3:TrackPointExtension>
        </extensions>
      </trkpt>
      <trkpt lat="42.54677460528910160064697265625" lon="20.14381323941051959991455078125">
        <ele>2085.199951171875</ele>
        <time>2026-06-20T07:55:33.000Z</time>
        <extensions>
          <ns3:TrackPointExtension>
            <ns3:atemp>18.0</ns3:atemp>
          </ns3:TrackPointExtension>
        </extensions>
      </trkpt>
      <trkpt lat="42.54677318036556243896484375" lon="20.14381416141986846923828125">
        <ele>2085.39990234375</ele>
        <time>2026-06-20T07:55:34.000Z</time>
        <extensions>
          <ns3:TrackPointExtension>
            <ns3:atemp>18.0</ns3:atemp>
          </ns3:TrackPointExtension>
        </extensions>
      </trkpt>
      <trkpt lat="42.54677318036556243896484375" lon="20.14381416141986846923828125">
        <ele>2085.39990234375</ele>
        <time>2026-06-20T07:55:35.000Z</time>
        <extensions>
          <ns3:TrackPointExtension>
            <ns3:atemp>18.0</ns3:atemp>
          </ns3:TrackPointExtension>
        </extensions>
      </trkpt>
      <trkpt lat="42.5467683188617229461669921875" lon="20.14382111839950084686279296875">
        <ele>2085.39990234375</ele>
        <time>2026-06-20T07:55:36.000Z</time>
        <extensions>
          <ns3:TrackPointExtension>
            <ns3:atemp>18.0</ns3:atemp>
          </ns3:TrackPointExtension>
        </extensions>
      </trkpt>
      <trkpt lat="42.54676404409110546112060546875" lon="20.1438260637223720550537109375">
        <ele>2085.39990234375</ele>
        <time>2026-06-20T07:55:37.000Z</time>
        <extensions>
          <ns3:TrackPointExtension>
            <ns3:atemp>18.0</ns3:atemp>
          </ns3:TrackPointExtension>
        </extensions>
      </trkpt>
      <trkpt lat="42.54676111042499542236328125" lon="20.14383159577846527099609375">
        <ele>2085.39990234375</ele>
        <time>2026-06-20T07:55:38.000Z</time>
        <extensions>
          <ns3:TrackPointExtension>
            <ns3:atemp>18.0</ns3:atemp>
          </ns3:TrackPointExtension>
        </extensions>
      </trkpt>
      <trkpt lat="42.546757757663726806640625" lon="20.14383637346327304840087890625">
        <ele>2085.39990234375</ele>
        <time>2026-06-20T07:55:39.000Z</time>
        <extensions>
          <ns3:TrackPointExtension>
            <ns3:atemp>18.0</ns3:atemp>
          </ns3:TrackPointExtension>
        </extensions>
      </trkpt>
      <trkpt lat="42.54675599746406078338623046875" lon="20.14384307898581027984619140625">
        <ele>2085.39990234375</ele>
        <time>2026-06-20T07:55:40.000Z</time>
        <extensions>
          <ns3:TrackPointExtension>
            <ns3:atemp>18.0</ns3:atemp>
          </ns3:TrackPointExtension>
        </extensions>
      </trkpt>
      <trkpt lat="42.5467535667121410369873046875" lon="20.14384844340384006500244140625">
        <ele>2085.39990234375</ele>
        <time>2026-06-20T07:55:41.000Z</time>
        <extensions>
          <ns3:TrackPointExtension>
            <ns3:atemp>18.0</ns3:atemp>
          </ns3:TrackPointExtension>
        </extensions>
      </trkpt>
      <trkpt lat="42.54674929194152355194091796875" lon="20.14385229907929897308349609375">
        <ele>2085.199951171875</ele>
        <time>2026-06-20T07:55:42.000Z</time>
        <extensions>
          <ns3:TrackPointExtension>
            <ns3:atemp>18.0</ns3:atemp>
          </ns3:TrackPointExtension>
        </extensions>
      </trkpt>
      <trkpt lat="42.54674292169511318206787109375" lon="20.14385783113539218902587890625">
        <ele>2085.199951171875</ele>
        <time>2026-06-20T07:55:43.000Z</time>
        <extensions>
          <ns3:TrackPointExtension>
            <ns3:atemp>18.0</ns3:atemp>
          </ns3:TrackPointExtension>
        </extensions>
      </trkpt>
      <trkpt lat="42.546736299991607666015625" lon="20.1438622735440731048583984375">
        <ele>2085.39990234375</ele>
        <time>2026-06-20T07:55:44.000Z</time>
        <extensions>
          <ns3:TrackPointExtension>
            <ns3:atemp>18.0</ns3:atemp>
          </ns3:TrackPointExtension>
        </extensions>
      </trkpt>
      <trkpt lat="42.54673085175454616546630859375" lon="20.1438642852008342742919921875">
        <ele>2085.39990234375</ele>
        <time>2026-06-20T07:55:45.000Z</time>
        <extensions>
          <ns3:TrackPointExtension>
            <ns3:atemp>18.0</ns3:atemp>
          </ns3:TrackPointExtension>
        </extensions>
      </trkpt>
      <trkpt lat="42.5467270798981189727783203125" lon="20.14386386610567569732666015625">
        <ele>2085.60009765625</ele>
        <time>2026-06-20T07:55:46.000Z</time>
        <extensions>
          <ns3:TrackPointExtension>
            <ns3:atemp>18.0</ns3:atemp>
          </ns3:TrackPointExtension>
        </extensions>
      </trkpt>
      <trkpt lat="42.5467270798981189727783203125" lon="20.14386378228664398193359375">
        <ele>2085.60009765625</ele>
        <time>2026-06-20T07:55:47.000Z</time>
        <extensions>
          <ns3:TrackPointExtension>
            <ns3:atemp>18.0</ns3:atemp>
          </ns3:TrackPointExtension>
        </extensions>
      </trkpt>
      <trkpt lat="42.5467270798981189727783203125" lon="20.14386378228664398193359375">
        <ele>2085.60009765625</ele>
        <time>2026-06-20T07:55:48.000Z</time>
        <extensions>
          <ns3:TrackPointExtension>
            <ns3:atemp>18.0</ns3:atemp>
          </ns3:TrackPointExtension>
        </extensions>
      </trkpt>
      <trkpt lat="42.5467270798981189727783203125" lon="20.14386378228664398193359375">
        <ele>2085.60009765625</ele>
        <time>2026-06-20T07:55:49.000Z</time>
        <extensions>
          <ns3:TrackPointExtension>
            <ns3:atemp>18.0</ns3:atemp>
          </ns3:TrackPointExtension>
        </extensions>
      </trkpt>
      <trkpt lat="42.5467270798981189727783203125" lon="20.14386378228664398193359375">
        <ele>2085.60009765625</ele>
        <time>2026-06-20T07:55:50.000Z</time>
        <extensions>
          <ns3:TrackPointExtension>
            <ns3:atemp>18.0</ns3:atemp>
          </ns3:TrackPointExtension>
        </extensions>
      </trkpt>
      <trkpt lat="42.5467270798981189727783203125" lon="20.14386378228664398193359375">
        <ele>2085.60009765625</ele>
        <time>2026-06-20T07:55:51.000Z</time>
        <extensions>
          <ns3:TrackPointExtension>
            <ns3:atemp>18.0</ns3:atemp>
          </ns3:TrackPointExtension>
        </extensions>
      </trkpt>
      <trkpt lat="42.54672699607908725738525390625" lon="20.143863447010517120361328125">
        <ele>2085.60009765625</ele>
        <time>2026-06-20T07:55:52.000Z</time>
        <extensions>
          <ns3:TrackPointExtension>
            <ns3:atemp>18.0</ns3:atemp>
          </ns3:TrackPointExtension>
        </extensions>
      </trkpt>
      <trkpt lat="42.54672850482165813446044921875" lon="20.143858082592487335205078125">
        <ele>2085.60009765625</ele>
        <time>2026-06-20T07:55:53.000Z</time>
        <extensions>
          <ns3:TrackPointExtension>
            <ns3:atemp>18.0</ns3:atemp>
          </ns3:TrackPointExtension>
        </extensions>
      </trkpt>
      <trkpt lat="42.54673001356422901153564453125" lon="20.143860094249248504638671875">
        <ele>2085.60009765625</ele>
        <time>2026-06-20T07:55:54.000Z</time>
        <extensions>
          <ns3:TrackPointExtension>
            <ns3:atemp>18.0</ns3:atemp>
          </ns3:TrackPointExtension>
        </extensions>
      </trkpt>
      <trkpt lat="42.546729259192943572998046875" lon="20.14386738650500774383544921875">
        <ele>2085.60009765625</ele>
        <time>2026-06-20T07:55:55.000Z</time>
        <extensions>
          <ns3:TrackPointExtension>
            <ns3:atemp>18.0</ns3:atemp>
          </ns3:TrackPointExtension>
        </extensions>
      </trkpt>
      <trkpt lat="42.5467270798981189727783203125" lon="20.14386378228664398193359375">
        <ele>2085.39990234375</ele>
        <time>2026-06-20T07:55:56.000Z</time>
        <extensions>
          <ns3:TrackPointExtension>
            <ns3:atemp>18.0</ns3:atemp>
          </ns3:TrackPointExtension>
        </extensions>
      </trkpt>
      <trkpt lat="42.5467270798981189727783203125" lon="20.14386378228664398193359375">
        <ele>2085.39990234375</ele>
        <time>2026-06-20T07:55:57.000Z</time>
        <extensions>
          <ns3:TrackPointExtension>
            <ns3:atemp>18.0</ns3:atemp>
          </ns3:TrackPointExtension>
        </extensions>
      </trkpt>
      <trkpt lat="42.5467270798981189727783203125" lon="20.14386378228664398193359375">
        <ele>2085.39990234375</ele>
        <time>2026-06-20T07:55:58.000Z</time>
        <extensions>
          <ns3:TrackPointExtension>
            <ns3:atemp>18.0</ns3:atemp>
          </ns3:TrackPointExtension>
        </extensions>
      </trkpt>
      <trkpt lat="42.5467270798981189727783203125" lon="20.14386378228664398193359375">
        <ele>2085.39990234375</ele>
        <time>2026-06-20T07:55:59.000Z</time>
        <extensions>
          <ns3:TrackPointExtension>
            <ns3:atemp>18.0</ns3:atemp>
          </ns3:TrackPointExtension>
        </extensions>
      </trkpt>
      <trkpt lat="42.5467270798981189727783203125" lon="20.14386378228664398193359375">
        <ele>2085.39990234375</ele>
        <time>2026-06-20T07:56:00.000Z</time>
        <extensions>
          <ns3:TrackPointExtension>
            <ns3:atemp>18.0</ns3:atemp>
          </ns3:TrackPointExtension>
        </extensions>
      </trkpt>
      <trkpt lat="42.5467270798981189727783203125" lon="20.14386378228664398193359375">
        <ele>2085.39990234375</ele>
        <time>2026-06-20T07:56:01.000Z</time>
        <extensions>
          <ns3:TrackPointExtension>
            <ns3:atemp>18.0</ns3:atemp>
          </ns3:TrackPointExtension>
        </extensions>
      </trkpt>
      <trkpt lat="42.5467270798981189727783203125" lon="20.14386378228664398193359375">
        <ele>2085.39990234375</ele>
        <time>2026-06-20T07:56:02.000Z</time>
        <extensions>
          <ns3:TrackPointExtension>
            <ns3:atemp>18.0</ns3:atemp>
          </ns3:TrackPointExtension>
        </extensions>
      </trkpt>
      <trkpt lat="42.5467270798981189727783203125" lon="20.14386378228664398193359375">
        <ele>2085.39990234375</ele>
        <time>2026-06-20T07:56:03.000Z</time>
        <extensions>
          <ns3:TrackPointExtension>
            <ns3:atemp>18.0</ns3:atemp>
          </ns3:TrackPointExtension>
        </extensions>
      </trkpt>
      <trkpt lat="42.5467270798981189727783203125" lon="20.14386378228664398193359375">
        <ele>2085.39990234375</ele>
        <time>2026-06-20T07:56:04.000Z</time>
        <extensions>
          <ns3:TrackPointExtension>
            <ns3:atemp>18.0</ns3:atemp>
          </ns3:TrackPointExtension>
        </extensions>
      </trkpt>
      <trkpt lat="42.5467270798981189727783203125" lon="20.14386378228664398193359375">
        <ele>2085.39990234375</ele>
        <time>2026-06-20T07:56:05.000Z</time>
        <extensions>
          <ns3:TrackPointExtension>
            <ns3:atemp>18.0</ns3:atemp>
          </ns3:TrackPointExtension>
        </extensions>
      </trkpt>
      <trkpt lat="42.5467270798981189727783203125" lon="20.14386378228664398193359375">
        <ele>2085.39990234375</ele>
        <time>2026-06-20T07:56:06.000Z</time>
        <extensions>
          <ns3:TrackPointExtension>
            <ns3:atemp>18.0</ns3:atemp>
          </ns3:TrackPointExtension>
        </extensions>
      </trkpt>
      <trkpt lat="42.5467270798981189727783203125" lon="20.14386378228664398193359375">
        <ele>2085.39990234375</ele>
        <time>2026-06-20T07:56:07.000Z</time>
        <extensions>
          <ns3:TrackPointExtension>
            <ns3:atemp>18.0</ns3:atemp>
          </ns3:TrackPointExtension>
        </extensions>
      </trkpt>
      <trkpt lat="42.5467270798981189727783203125" lon="20.14386378228664398193359375">
        <ele>2085.39990234375</ele>
        <time>2026-06-20T07:56:08.000Z</time>
        <extensions>
          <ns3:TrackPointExtension>
            <ns3:atemp>18.0</ns3:atemp>
          </ns3:TrackPointExtension>
        </extensions>
      </trkpt>
      <trkpt lat="42.5467270798981189727783203125" lon="20.14386378228664398193359375">
        <ele>2085.39990234375</ele>
        <time>2026-06-20T07:56:09.000Z</time>
        <extensions>
          <ns3:TrackPointExtension>
            <ns3:atemp>18.0</ns3:atemp>
          </ns3:TrackPointExtension>
        </extensions>
      </trkpt>
      <trkpt lat="42.5467270798981189727783203125" lon="20.14386378228664398193359375">
        <ele>2085.199951171875</ele>
        <time>2026-06-20T07:56:10.000Z</time>
        <extensions>
          <ns3:TrackPointExtension>
            <ns3:atemp>18.0</ns3:atemp>
          </ns3:TrackPointExtension>
        </extensions>
      </trkpt>
      <trkpt lat="42.5467270798981189727783203125" lon="20.14386378228664398193359375">
        <ele>2085.39990234375</ele>
        <time>2026-06-20T07:56:11.000Z</time>
        <extensions>
          <ns3:TrackPointExtension>
            <ns3:atemp>18.0</ns3:atemp>
          </ns3:TrackPointExtension>
        </extensions>
      </trkpt>
      <trkpt lat="42.5467270798981189727783203125" lon="20.14386378228664398193359375">
        <ele>2085.39990234375</ele>
        <time>2026-06-20T07:56:12.000Z</time>
        <extensions>
          <ns3:TrackPointExtension>
            <ns3:atemp>18.0</ns3:atemp>
          </ns3:TrackPointExtension>
        </extensions>
      </trkpt>
      <trkpt lat="42.5467270798981189727783203125" lon="20.14386378228664398193359375">
        <ele>2085.39990234375</ele>
        <time>2026-06-20T07:56:13.000Z</time>
        <extensions>
          <ns3:TrackPointExtension>
            <ns3:atemp>18.0</ns3:atemp>
          </ns3:TrackPointExtension>
        </extensions>
      </trkpt>
      <trkpt lat="42.5467270798981189727783203125" lon="20.14386378228664398193359375">
        <ele>2085.39990234375</ele>
        <time>2026-06-20T07:56:14.000Z</time>
        <extensions>
          <ns3:TrackPointExtension>
            <ns3:atemp>18.0</ns3:atemp>
          </ns3:TrackPointExtension>
        </extensions>
      </trkpt>
      <trkpt lat="42.5467270798981189727783203125" lon="20.14386378228664398193359375">
        <ele>2085.39990234375</ele>
        <time>2026-06-20T07:56:15.000Z</time>
        <extensions>
          <ns3:TrackPointExtension>
            <ns3:atemp>18.0</ns3:atemp>
          </ns3:TrackPointExtension>
        </extensions>
      </trkpt>
      <trkpt lat="42.5467270798981189727783203125" lon="20.14386378228664398193359375">
        <ele>2085.39990234375</ele>
        <time>2026-06-20T07:56:16.000Z</time>
        <extensions>
          <ns3:TrackPointExtension>
            <ns3:atemp>18.0</ns3:atemp>
          </ns3:TrackPointExtension>
        </extensions>
      </trkpt>
      <trkpt lat="42.5467270798981189727783203125" lon="20.14386378228664398193359375">
        <ele>2085.39990234375</ele>
        <time>2026-06-20T07:56:17.000Z</time>
        <extensions>
          <ns3:TrackPointExtension>
            <ns3:atemp>18.0</ns3:atemp>
          </ns3:TrackPointExtension>
        </extensions>
      </trkpt>
      <trkpt lat="42.5467270798981189727783203125" lon="20.14386378228664398193359375">
        <ele>2085.39990234375</ele>
        <time>2026-06-20T07:56:18.000Z</time>
        <extensions>
          <ns3:TrackPointExtension>
            <ns3:atemp>18.0</ns3:atemp>
          </ns3:TrackPointExtension>
        </extensions>
      </trkpt>
      <trkpt lat="42.5467270798981189727783203125" lon="20.14386378228664398193359375">
        <ele>2085.39990234375</ele>
        <time>2026-06-20T07:56:19.000Z</time>
        <extensions>
          <ns3:TrackPointExtension>
            <ns3:atemp>18.0</ns3:atemp>
          </ns3:TrackPointExtension>
        </extensions>
      </trkpt>
      <trkpt lat="42.5467270798981189727783203125" lon="20.14386378228664398193359375">
        <ele>2085.39990234375</ele>
        <time>2026-06-20T07:56:20.000Z</time>
        <extensions>
          <ns3:TrackPointExtension>
            <ns3:atemp>18.0</ns3:atemp>
          </ns3:TrackPointExtension>
        </extensions>
      </trkpt>
      <trkpt lat="42.5467270798981189727783203125" lon="20.14386378228664398193359375">
        <ele>2085.39990234375</ele>
        <time>2026-06-20T07:56:21.000Z</time>
        <extensions>
          <ns3:TrackPointExtension>
            <ns3:atemp>18.0</ns3:atemp>
          </ns3:TrackPointExtension>
        </extensions>
      </trkpt>
      <trkpt lat="42.5467270798981189727783203125" lon="20.14386378228664398193359375">
        <ele>2085.39990234375</ele>
        <time>2026-06-20T07:56:22.000Z</time>
        <extensions>
          <ns3:TrackPointExtension>
            <ns3:atemp>18.0</ns3:atemp>
          </ns3:TrackPointExtension>
        </extensions>
      </trkpt>
      <trkpt lat="42.5467270798981189727783203125" lon="20.14386378228664398193359375">
        <ele>2085.39990234375</ele>
        <time>2026-06-20T07:56:23.000Z</time>
        <extensions>
          <ns3:TrackPointExtension>
            <ns3:atemp>18.0</ns3:atemp>
          </ns3:TrackPointExtension>
        </extensions>
      </trkpt>
      <trkpt lat="42.5467270798981189727783203125" lon="20.14386378228664398193359375">
        <ele>2085.39990234375</ele>
        <time>2026-06-20T07:56:24.000Z</time>
        <extensions>
          <ns3:TrackPointExtension>
            <ns3:atemp>18.0</ns3:atemp>
          </ns3:TrackPointExtension>
        </extensions>
      </trkpt>
      <trkpt lat="42.5467270798981189727783203125" lon="20.14386378228664398193359375">
        <ele>2085.39990234375</ele>
        <time>2026-06-20T07:56:25.000Z</time>
        <extensions>
          <ns3:TrackPointExtension>
            <ns3:atemp>18.0</ns3:atemp>
          </ns3:TrackPointExtension>
        </extensions>
      </trkpt>
      <trkpt lat="42.5467270798981189727783203125" lon="20.14386378228664398193359375">
        <ele>2085.39990234375</ele>
        <time>2026-06-20T07:56:26.000Z</time>
        <extensions>
          <ns3:TrackPointExtension>
            <ns3:atemp>18.0</ns3:atemp>
          </ns3:TrackPointExtension>
        </extensions>
      </trkpt>
      <trkpt lat="42.5467270798981189727783203125" lon="20.14386378228664398193359375">
        <ele>2085.39990234375</ele>
        <time>2026-06-20T07:56:27.000Z</time>
        <extensions>
          <ns3:TrackPointExtension>
            <ns3:atemp>18.0</ns3:atemp>
          </ns3:TrackPointExtension>
        </extensions>
      </trkpt>
      <trkpt lat="42.5467270798981189727783203125" lon="20.14386378228664398193359375">
        <ele>2085.199951171875</ele>
        <time>2026-06-20T07:56:28.000Z</time>
        <extensions>
          <ns3:TrackPointExtension>
            <ns3:atemp>18.0</ns3:atemp>
          </ns3:TrackPointExtension>
        </extensions>
      </trkpt>
      <trkpt lat="42.5467270798981189727783203125" lon="20.14386378228664398193359375">
        <ele>2085.199951171875</ele>
        <time>2026-06-20T07:56:29.000Z</time>
        <extensions>
          <ns3:TrackPointExtension>
            <ns3:atemp>18.0</ns3:atemp>
          </ns3:TrackPointExtension>
        </extensions>
      </trkpt>
      <trkpt lat="42.5467270798981189727783203125" lon="20.14386378228664398193359375">
        <ele>2085.199951171875</ele>
        <time>2026-06-20T07:56:30.000Z</time>
        <extensions>
          <ns3:TrackPointExtension>
            <ns3:atemp>18.0</ns3:atemp>
          </ns3:TrackPointExtension>
        </extensions>
      </trkpt>
      <trkpt lat="42.5467270798981189727783203125" lon="20.14386378228664398193359375">
        <ele>2085.199951171875</ele>
        <time>2026-06-20T07:56:31.000Z</time>
        <extensions>
          <ns3:TrackPointExtension>
            <ns3:atemp>18.0</ns3:atemp>
          </ns3:TrackPointExtension>
        </extensions>
      </trkpt>
      <trkpt lat="42.5467270798981189727783203125" lon="20.14386378228664398193359375">
        <ele>2085.39990234375</ele>
        <time>2026-06-20T07:56:32.000Z</time>
        <extensions>
          <ns3:TrackPointExtension>
            <ns3:atemp>18.0</ns3:atemp>
          </ns3:TrackPointExtension>
        </extensions>
      </trkpt>
      <trkpt lat="42.5467270798981189727783203125" lon="20.14386378228664398193359375">
        <ele>2085.39990234375</ele>
        <time>2026-06-20T07:56:33.000Z</time>
        <extensions>
          <ns3:TrackPointExtension>
            <ns3:atemp>18.0</ns3:atemp>
          </ns3:TrackPointExtension>
        </extensions>
      </trkpt>
      <trkpt lat="42.5467270798981189727783203125" lon="20.14386378228664398193359375">
        <ele>2085.39990234375</ele>
        <time>2026-06-20T07:56:34.000Z</time>
        <extensions>
          <ns3:TrackPointExtension>
            <ns3:atemp>18.0</ns3:atemp>
          </ns3:TrackPointExtension>
        </extensions>
      </trkpt>
      <trkpt lat="42.5467270798981189727783203125" lon="20.14386378228664398193359375">
        <ele>2085.39990234375</ele>
        <time>2026-06-20T07:56:35.000Z</time>
        <extensions>
          <ns3:TrackPointExtension>
            <ns3:atemp>18.0</ns3:atemp>
          </ns3:TrackPointExtension>
        </extensions>
      </trkpt>
      <trkpt lat="42.5467270798981189727783203125" lon="20.14386378228664398193359375">
        <ele>2085.39990234375</ele>
        <time>2026-06-20T07:56:36.000Z</time>
        <extensions>
          <ns3:TrackPointExtension>
            <ns3:atemp>18.0</ns3:atemp>
          </ns3:TrackPointExtension>
        </extensions>
      </trkpt>
      <trkpt lat="42.5467270798981189727783203125" lon="20.14386378228664398193359375">
        <ele>2085.39990234375</ele>
        <time>2026-06-20T07:56:37.000Z</time>
        <extensions>
          <ns3:TrackPointExtension>
            <ns3:atemp>18.0</ns3:atemp>
          </ns3:TrackPointExtension>
        </extensions>
      </trkpt>
      <trkpt lat="42.5467270798981189727783203125" lon="20.14386378228664398193359375">
        <ele>2085.39990234375</ele>
        <time>2026-06-20T07:56:38.000Z</time>
        <extensions>
          <ns3:TrackPointExtension>
            <ns3:atemp>18.0</ns3:atemp>
          </ns3:TrackPointExtension>
        </extensions>
      </trkpt>
      <trkpt lat="42.5467270798981189727783203125" lon="20.14386378228664398193359375">
        <ele>2085.39990234375</ele>
        <time>2026-06-20T07:56:39.000Z</time>
        <extensions>
          <ns3:TrackPointExtension>
            <ns3:atemp>18.0</ns3:atemp>
          </ns3:TrackPointExtension>
        </extensions>
      </trkpt>
      <trkpt lat="42.5467270798981189727783203125" lon="20.14386378228664398193359375">
        <ele>2085.39990234375</ele>
        <time>2026-06-20T07:56:40.000Z</time>
        <extensions>
          <ns3:TrackPointExtension>
            <ns3:atemp>18.0</ns3:atemp>
          </ns3:TrackPointExtension>
        </extensions>
      </trkpt>
      <trkpt lat="42.5467270798981189727783203125" lon="20.14386378228664398193359375">
        <ele>2085.39990234375</ele>
        <time>2026-06-20T07:56:41.000Z</time>
        <extensions>
          <ns3:TrackPointExtension>
            <ns3:atemp>18.0</ns3:atemp>
          </ns3:TrackPointExtension>
        </extensions>
      </trkpt>
      <trkpt lat="42.5467270798981189727783203125" lon="20.14386378228664398193359375">
        <ele>2085.39990234375</ele>
        <time>2026-06-20T07:56:42.000Z</time>
        <extensions>
          <ns3:TrackPointExtension>
            <ns3:atemp>18.0</ns3:atemp>
          </ns3:TrackPointExtension>
        </extensions>
      </trkpt>
      <trkpt lat="42.5467270798981189727783203125" lon="20.14386378228664398193359375">
        <ele>2085.39990234375</ele>
        <time>2026-06-20T07:56:43.000Z</time>
        <extensions>
          <ns3:TrackPointExtension>
            <ns3:atemp>18.0</ns3:atemp>
          </ns3:TrackPointExtension>
        </extensions>
      </trkpt>
      <trkpt lat="42.5467270798981189727783203125" lon="20.14386378228664398193359375">
        <ele>2085.39990234375</ele>
        <time>2026-06-20T07:56:44.000Z</time>
        <extensions>
          <ns3:TrackPointExtension>
            <ns3:atemp>18.0</ns3:atemp>
          </ns3:TrackPointExtension>
        </extensions>
      </trkpt>
      <trkpt lat="42.5467270798981189727783203125" lon="20.14386378228664398193359375">
        <ele>2085.39990234375</ele>
        <time>2026-06-20T07:56:45.000Z</time>
        <extensions>
          <ns3:TrackPointExtension>
            <ns3:atemp>18.0</ns3:atemp>
          </ns3:TrackPointExtension>
        </extensions>
      </trkpt>
      <trkpt lat="42.5467270798981189727783203125" lon="20.14386378228664398193359375">
        <ele>2085.39990234375</ele>
        <time>2026-06-20T07:56:46.000Z</time>
        <extensions>
          <ns3:TrackPointExtension>
            <ns3:atemp>18.0</ns3:atemp>
          </ns3:TrackPointExtension>
        </extensions>
      </trkpt>
      <trkpt lat="42.5467270798981189727783203125" lon="20.14386378228664398193359375">
        <ele>2085.39990234375</ele>
        <time>2026-06-20T07:56:47.000Z</time>
        <extensions>
          <ns3:TrackPointExtension>
            <ns3:atemp>18.0</ns3:atemp>
          </ns3:TrackPointExtension>
        </extensions>
      </trkpt>
      <trkpt lat="42.5467270798981189727783203125" lon="20.14386378228664398193359375">
        <ele>2085.39990234375</ele>
        <time>2026-06-20T07:56:48.000Z</time>
        <extensions>
          <ns3:TrackPointExtension>
            <ns3:atemp>18.0</ns3:atemp>
          </ns3:TrackPointExtension>
        </extensions>
      </trkpt>
      <trkpt lat="42.5467270798981189727783203125" lon="20.14386378228664398193359375">
        <ele>2085.39990234375</ele>
        <time>2026-06-20T07:56:49.000Z</time>
        <extensions>
          <ns3:TrackPointExtension>
            <ns3:atemp>18.0</ns3:atemp>
          </ns3:TrackPointExtension>
        </extensions>
      </trkpt>
      <trkpt lat="42.5467270798981189727783203125" lon="20.14386378228664398193359375">
        <ele>2085.39990234375</ele>
        <time>2026-06-20T07:56:50.000Z</time>
        <extensions>
          <ns3:TrackPointExtension>
            <ns3:atemp>18.0</ns3:atemp>
          </ns3:TrackPointExtension>
        </extensions>
      </trkpt>
      <trkpt lat="42.5467270798981189727783203125" lon="20.14386378228664398193359375">
        <ele>2085.39990234375</ele>
        <time>2026-06-20T07:56:51.000Z</time>
        <extensions>
          <ns3:TrackPointExtension>
            <ns3:atemp>18.0</ns3:atemp>
          </ns3:TrackPointExtension>
        </extensions>
      </trkpt>
      <trkpt lat="42.5467270798981189727783203125" lon="20.14386378228664398193359375">
        <ele>2085.39990234375</ele>
        <time>2026-06-20T07:56:52.000Z</time>
        <extensions>
          <ns3:TrackPointExtension>
            <ns3:atemp>18.0</ns3:atemp>
          </ns3:TrackPointExtension>
        </extensions>
      </trkpt>
      <trkpt lat="42.5467270798981189727783203125" lon="20.14386378228664398193359375">
        <ele>2085.39990234375</ele>
        <time>2026-06-20T07:56:53.000Z</time>
        <extensions>
          <ns3:TrackPointExtension>
            <ns3:atemp>18.0</ns3:atemp>
          </ns3:TrackPointExtension>
        </extensions>
      </trkpt>
      <trkpt lat="42.5467270798981189727783203125" lon="20.14386378228664398193359375">
        <ele>2085.39990234375</ele>
        <time>2026-06-20T07:56:54.000Z</time>
        <extensions>
          <ns3:TrackPointExtension>
            <ns3:atemp>18.0</ns3:atemp>
          </ns3:TrackPointExtension>
        </extensions>
      </trkpt>
      <trkpt lat="42.5467270798981189727783203125" lon="20.14386378228664398193359375">
        <ele>2085.39990234375</ele>
        <time>2026-06-20T07:56:55.000Z</time>
        <extensions>
          <ns3:TrackPointExtension>
            <ns3:atemp>18.0</ns3:atemp>
          </ns3:TrackPointExtension>
        </extensions>
      </trkpt>
      <trkpt lat="42.5467270798981189727783203125" lon="20.14386378228664398193359375">
        <ele>2085.39990234375</ele>
        <time>2026-06-20T07:56:56.000Z</time>
        <extensions>
          <ns3:TrackPointExtension>
            <ns3:atemp>18.0</ns3:atemp>
          </ns3:TrackPointExtension>
        </extensions>
      </trkpt>
      <trkpt lat="42.5467270798981189727783203125" lon="20.14386378228664398193359375">
        <ele>2085.39990234375</ele>
        <time>2026-06-20T07:56:57.000Z</time>
        <extensions>
          <ns3:TrackPointExtension>
            <ns3:atemp>18.0</ns3:atemp>
          </ns3:TrackPointExtension>
        </extensions>
      </trkpt>
      <trkpt lat="42.5467270798981189727783203125" lon="20.14386378228664398193359375">
        <ele>2085.39990234375</ele>
        <time>2026-06-20T07:56:58.000Z</time>
        <extensions>
          <ns3:TrackPointExtension>
            <ns3:atemp>18.0</ns3:atemp>
          </ns3:TrackPointExtension>
        </extensions>
      </trkpt>
      <trkpt lat="42.5467270798981189727783203125" lon="20.14386378228664398193359375">
        <ele>2085.39990234375</ele>
        <time>2026-06-20T07:56:59.000Z</time>
        <extensions>
          <ns3:TrackPointExtension>
            <ns3:atemp>18.0</ns3:atemp>
          </ns3:TrackPointExtension>
        </extensions>
      </trkpt>
      <trkpt lat="42.5467270798981189727783203125" lon="20.14386378228664398193359375">
        <ele>2085.39990234375</ele>
        <time>2026-06-20T07:57:00.000Z</time>
        <extensions>
          <ns3:TrackPointExtension>
            <ns3:atemp>18.0</ns3:atemp>
          </ns3:TrackPointExtension>
        </extensions>
      </trkpt>
      <trkpt lat="42.5467270798981189727783203125" lon="20.14386378228664398193359375">
        <ele>2085.39990234375</ele>
        <time>2026-06-20T07:57:01.000Z</time>
        <extensions>
          <ns3:TrackPointExtension>
            <ns3:atemp>18.0</ns3:atemp>
          </ns3:TrackPointExtension>
        </extensions>
      </trkpt>
      <trkpt lat="42.5467270798981189727783203125" lon="20.14386378228664398193359375">
        <ele>2085.39990234375</ele>
        <time>2026-06-20T07:57:02.000Z</time>
        <extensions>
          <ns3:TrackPointExtension>
            <ns3:atemp>18.0</ns3:atemp>
          </ns3:TrackPointExtension>
        </extensions>
      </trkpt>
      <trkpt lat="42.5467270798981189727783203125" lon="20.14386378228664398193359375">
        <ele>2085.39990234375</ele>
        <time>2026-06-20T07:57:03.000Z</time>
        <extensions>
          <ns3:TrackPointExtension>
            <ns3:atemp>19.0</ns3:atemp>
          </ns3:TrackPointExtension>
        </extensions>
      </trkpt>
      <trkpt lat="42.5467270798981189727783203125" lon="20.14386378228664398193359375">
        <ele>2085.39990234375</ele>
        <time>2026-06-20T07:57:04.000Z</time>
        <extensions>
          <ns3:TrackPointExtension>
            <ns3:atemp>18.0</ns3:atemp>
          </ns3:TrackPointExtension>
        </extensions>
      </trkpt>
      <trkpt lat="42.5467270798981189727783203125" lon="20.14386378228664398193359375">
        <ele>2085.39990234375</ele>
        <time>2026-06-20T07:57:05.000Z</time>
        <extensions>
          <ns3:TrackPointExtension>
            <ns3:atemp>18.0</ns3:atemp>
          </ns3:TrackPointExtension>
        </extensions>
      </trkpt>
      <trkpt lat="42.54672967828810214996337890625" lon="20.14386939816176891326904296875">
        <ele>2085.39990234375</ele>
        <time>2026-06-20T07:57:06.000Z</time>
        <extensions>
          <ns3:TrackPointExtension>
            <ns3:atemp>18.0</ns3:atemp>
          </ns3:TrackPointExtension>
        </extensions>
      </trkpt>
      <trkpt lat="42.5467270798981189727783203125" lon="20.14386378228664398193359375">
        <ele>2085.39990234375</ele>
        <time>2026-06-20T07:57:07.000Z</time>
        <extensions>
          <ns3:TrackPointExtension>
            <ns3:atemp>18.0</ns3:atemp>
          </ns3:TrackPointExtension>
        </extensions>
      </trkpt>
      <trkpt lat="42.54673487506806850433349609375" lon="20.14387828297913074493408203125">
        <ele>2085.39990234375</ele>
        <time>2026-06-20T07:57:08.000Z</time>
        <extensions>
          <ns3:TrackPointExtension>
            <ns3:atemp>18.0</ns3:atemp>
          </ns3:TrackPointExtension>
        </extensions>
      </trkpt>
      <trkpt lat="42.54672766663134098052978515625" lon="20.1438901014626026153564453125">
        <ele>2085.39990234375</ele>
        <time>2026-06-20T07:57:09.000Z</time>
        <extensions>
          <ns3:TrackPointExtension>
            <ns3:atemp>18.0</ns3:atemp>
          </ns3:TrackPointExtension>
        </extensions>
      </trkpt>
      <trkpt lat="42.54672448150813579559326171875" lon="20.14388859272003173828125">
        <ele>2085.39990234375</ele>
        <time>2026-06-20T07:57:10.000Z</time>
        <extensions>
          <ns3:TrackPointExtension>
            <ns3:atemp>18.0</ns3:atemp>
          </ns3:TrackPointExtension>
        </extensions>
      </trkpt>
      <trkpt lat="42.5467166863381862640380859375" lon="20.1438921131193637847900390625">
        <ele>2085.39990234375</ele>
        <time>2026-06-20T07:57:11.000Z</time>
        <extensions>
          <ns3:TrackPointExtension>
            <ns3:atemp>18.0</ns3:atemp>
          </ns3:TrackPointExtension>
        </extensions>
      </trkpt>
      <trkpt lat="42.54671609960496425628662109375" lon="20.1438947953283786773681640625">
        <ele>2085.39990234375</ele>
        <time>2026-06-20T07:57:12.000Z</time>
        <extensions>
          <ns3:TrackPointExtension>
            <ns3:atemp>18.0</ns3:atemp>
          </ns3:TrackPointExtension>
        </extensions>
      </trkpt>
      <trkpt lat="42.5467133335769176483154296875" lon="20.143896974623203277587890625">
        <ele>2085.39990234375</ele>
        <time>2026-06-20T07:57:13.000Z</time>
        <extensions>
          <ns3:TrackPointExtension>
            <ns3:atemp>18.0</ns3:atemp>
          </ns3:TrackPointExtension>
        </extensions>
      </trkpt>
      <trkpt lat="42.54670855589210987091064453125" lon="20.14389932155609130859375">
        <ele>2085.39990234375</ele>
        <time>2026-06-20T07:57:14.000Z</time>
        <extensions>
          <ns3:TrackPointExtension>
            <ns3:atemp>18.0</ns3:atemp>
          </ns3:TrackPointExtension>
        </extensions>
      </trkpt>
      <trkpt lat="42.5467052869498729705810546875" lon="20.14390057884156703948974609375">
        <ele>2085.39990234375</ele>
        <time>2026-06-20T07:57:15.000Z</time>
        <extensions>
          <ns3:TrackPointExtension>
            <ns3:atemp>18.0</ns3:atemp>
          </ns3:TrackPointExtension>
        </extensions>
      </trkpt>
      <trkpt lat="42.5467052869498729705810546875" lon="20.1439006626605987548828125">
        <ele>2085.39990234375</ele>
        <time>2026-06-20T07:57:16.000Z</time>
        <extensions>
          <ns3:TrackPointExtension>
            <ns3:atemp>18.0</ns3:atemp>
          </ns3:TrackPointExtension>
        </extensions>
      </trkpt>
      <trkpt lat="42.5467052869498729705810546875" lon="20.1439006626605987548828125">
        <ele>2085.39990234375</ele>
        <time>2026-06-20T07:57:17.000Z</time>
        <extensions>
          <ns3:TrackPointExtension>
            <ns3:atemp>18.0</ns3:atemp>
          </ns3:TrackPointExtension>
        </extensions>
      </trkpt>
      <trkpt lat="42.5467052869498729705810546875" lon="20.1439006626605987548828125">
        <ele>2085.39990234375</ele>
        <time>2026-06-20T07:57:18.000Z</time>
        <extensions>
          <ns3:TrackPointExtension>
            <ns3:atemp>18.0</ns3:atemp>
          </ns3:TrackPointExtension>
        </extensions>
      </trkpt>
      <trkpt lat="42.5467052869498729705810546875" lon="20.1439006626605987548828125">
        <ele>2085.39990234375</ele>
        <time>2026-06-20T07:57:19.000Z</time>
        <extensions>
          <ns3:TrackPointExtension>
            <ns3:atemp>18.0</ns3:atemp>
          </ns3:TrackPointExtension>
        </extensions>
      </trkpt>
      <trkpt lat="42.5467052869498729705810546875" lon="20.1439006626605987548828125">
        <ele>2085.39990234375</ele>
        <time>2026-06-20T07:57:20.000Z</time>
        <extensions>
          <ns3:TrackPointExtension>
            <ns3:atemp>18.0</ns3:atemp>
          </ns3:TrackPointExtension>
        </extensions>
      </trkpt>
      <trkpt lat="42.54670503549277782440185546875" lon="20.143901668488979339599609375">
        <ele>2085.39990234375</ele>
        <time>2026-06-20T07:57:21.000Z</time>
        <extensions>
          <ns3:TrackPointExtension>
            <ns3:atemp>18.0</ns3:atemp>
          </ns3:TrackPointExtension>
        </extensions>
      </trkpt>
      <trkpt lat="42.5467052869498729705810546875" lon="20.1439006626605987548828125">
        <ele>2085.39990234375</ele>
        <time>2026-06-20T07:57:22.000Z</time>
        <extensions>
          <ns3:TrackPointExtension>
            <ns3:atemp>18.0</ns3:atemp>
          </ns3:TrackPointExtension>
        </extensions>
      </trkpt>
      <trkpt lat="42.5467052869498729705810546875" lon="20.1439006626605987548828125">
        <ele>2085.39990234375</ele>
        <time>2026-06-20T07:57:23.000Z</time>
        <extensions>
          <ns3:TrackPointExtension>
            <ns3:atemp>18.0</ns3:atemp>
          </ns3:TrackPointExtension>
        </extensions>
      </trkpt>
      <trkpt lat="42.5467056222259998321533203125" lon="20.14391331933438777923583984375">
        <ele>2085.39990234375</ele>
        <time>2026-06-20T07:57:24.000Z</time>
        <extensions>
          <ns3:TrackPointExtension>
            <ns3:atemp>18.0</ns3:atemp>
          </ns3:TrackPointExtension>
        </extensions>
      </trkpt>
      <trkpt lat="42.5466985814273357391357421875" lon="20.14392086304724216461181640625">
        <ele>2085.39990234375</ele>
        <time>2026-06-20T07:57:25.000Z</time>
        <extensions>
          <ns3:TrackPointExtension>
            <ns3:atemp>18.0</ns3:atemp>
          </ns3:TrackPointExtension>
        </extensions>
      </trkpt>
      <trkpt lat="42.54669061861932277679443359375" lon="20.1439269818365573883056640625">
        <ele>2085.39990234375</ele>
        <time>2026-06-20T07:57:26.000Z</time>
        <extensions>
          <ns3:TrackPointExtension>
            <ns3:atemp>18.0</ns3:atemp>
          </ns3:TrackPointExtension>
        </extensions>
      </trkpt>
      <trkpt lat="42.54668776877224445343017578125" lon="20.1439326815307140350341796875">
        <ele>2085.39990234375</ele>
        <time>2026-06-20T07:57:27.000Z</time>
        <extensions>
          <ns3:TrackPointExtension>
            <ns3:atemp>18.0</ns3:atemp>
          </ns3:TrackPointExtension>
        </extensions>
      </trkpt>
      <trkpt lat="42.546687684953212738037109375" lon="20.14393276534974575042724609375">
        <ele>2085.39990234375</ele>
        <time>2026-06-20T07:57:28.000Z</time>
        <extensions>
          <ns3:TrackPointExtension>
            <ns3:atemp>18.0</ns3:atemp>
          </ns3:TrackPointExtension>
        </extensions>
      </trkpt>
      <trkpt lat="42.54668441601097583770751953125" lon="20.1439387165009975433349609375">
        <ele>2085.39990234375</ele>
        <time>2026-06-20T07:57:29.000Z</time>
        <extensions>
          <ns3:TrackPointExtension>
            <ns3:atemp>18.0</ns3:atemp>
          </ns3:TrackPointExtension>
        </extensions>
      </trkpt>
      <trkpt lat="42.5466821528971195220947265625" lon="20.1439444161951541900634765625">
        <ele>2085.39990234375</ele>
        <time>2026-06-20T07:57:30.000Z</time>
        <extensions>
          <ns3:TrackPointExtension>
            <ns3:atemp>18.0</ns3:atemp>
          </ns3:TrackPointExtension>
        </extensions>
      </trkpt>
      <trkpt lat="42.54668005742132663726806640625" lon="20.1439484395086765289306640625">
        <ele>2085.39990234375</ele>
        <time>2026-06-20T07:57:31.000Z</time>
        <extensions>
          <ns3:TrackPointExtension>
            <ns3:atemp>18.0</ns3:atemp>
          </ns3:TrackPointExtension>
        </extensions>
      </trkpt>
      <trkpt lat="42.546679973602294921875" lon="20.14395103789865970611572265625">
        <ele>2085.39990234375</ele>
        <time>2026-06-20T07:57:32.000Z</time>
        <extensions>
          <ns3:TrackPointExtension>
            <ns3:atemp>18.0</ns3:atemp>
          </ns3:TrackPointExtension>
        </extensions>
      </trkpt>
      <trkpt lat="42.54667821340262889862060546875" lon="20.14395254664123058319091796875">
        <ele>2085.39990234375</ele>
        <time>2026-06-20T07:57:33.000Z</time>
        <extensions>
          <ns3:TrackPointExtension>
            <ns3:atemp>18.0</ns3:atemp>
          </ns3:TrackPointExtension>
        </extensions>
      </trkpt>
      <trkpt lat="42.5466786324977874755859375" lon="20.14395740814507007598876953125">
        <ele>2085.39990234375</ele>
        <time>2026-06-20T07:57:34.000Z</time>
        <extensions>
          <ns3:TrackPointExtension>
            <ns3:atemp>18.0</ns3:atemp>
          </ns3:TrackPointExtension>
        </extensions>
      </trkpt>
      <trkpt lat="42.5466798059642314910888671875" lon="20.14396210201084613800048828125">
        <ele>2085.39990234375</ele>
        <time>2026-06-20T07:57:35.000Z</time>
        <extensions>
          <ns3:TrackPointExtension>
            <ns3:atemp>18.0</ns3:atemp>
          </ns3:TrackPointExtension>
        </extensions>
      </trkpt>
      <trkpt lat="42.5466786324977874755859375" lon="20.143963359296321868896484375">
        <ele>2085.39990234375</ele>
        <time>2026-06-20T07:57:36.000Z</time>
        <extensions>
          <ns3:TrackPointExtension>
            <ns3:atemp>18.0</ns3:atemp>
          </ns3:TrackPointExtension>
        </extensions>
      </trkpt>
      <trkpt lat="42.5466786324977874755859375" lon="20.143963359296321868896484375">
        <ele>2085.39990234375</ele>
        <time>2026-06-20T07:57:37.000Z</time>
        <extensions>
          <ns3:TrackPointExtension>
            <ns3:atemp>18.0</ns3:atemp>
          </ns3:TrackPointExtension>
        </extensions>
      </trkpt>
      <trkpt lat="42.5466786324977874755859375" lon="20.143963359296321868896484375">
        <ele>2085.39990234375</ele>
        <time>2026-06-20T07:57:38.000Z</time>
        <extensions>
          <ns3:TrackPointExtension>
            <ns3:atemp>18.0</ns3:atemp>
          </ns3:TrackPointExtension>
        </extensions>
      </trkpt>
      <trkpt lat="42.54667838104069232940673828125" lon="20.14396344311535358428955078125">
        <ele>2085.39990234375</ele>
        <time>2026-06-20T07:57:39.000Z</time>
        <extensions>
          <ns3:TrackPointExtension>
            <ns3:atemp>18.0</ns3:atemp>
          </ns3:TrackPointExtension>
        </extensions>
      </trkpt>
      <trkpt lat="42.54667553119361400604248046875" lon="20.14397048391401767730712890625">
        <ele>2085.39990234375</ele>
        <time>2026-06-20T07:57:40.000Z</time>
        <extensions>
          <ns3:TrackPointExtension>
            <ns3:atemp>18.0</ns3:atemp>
          </ns3:TrackPointExtension>
        </extensions>
      </trkpt>
      <trkpt lat="42.54667284898459911346435546875" lon="20.1439769379794597625732421875">
        <ele>2085.39990234375</ele>
        <time>2026-06-20T07:57:41.000Z</time>
        <extensions>
          <ns3:TrackPointExtension>
            <ns3:atemp>18.0</ns3:atemp>
          </ns3:TrackPointExtension>
        </extensions>
      </trkpt>
      <trkpt lat="42.54667050205171108245849609375" lon="20.1439789496362209320068359375">
        <ele>2085.39990234375</ele>
        <time>2026-06-20T07:57:42.000Z</time>
        <extensions>
          <ns3:TrackPointExtension>
            <ns3:atemp>18.0</ns3:atemp>
          </ns3:TrackPointExtension>
        </extensions>
      </trkpt>
      <trkpt lat="42.54666999913752079010009765625" lon="20.14398406259715557098388671875">
        <ele>2085.39990234375</ele>
        <time>2026-06-20T07:57:43.000Z</time>
        <extensions>
          <ns3:TrackPointExtension>
            <ns3:atemp>18.0</ns3:atemp>
          </ns3:TrackPointExtension>
        </extensions>
      </trkpt>
      <trkpt lat="42.54667125642299652099609375" lon="20.14398741535842418670654296875">
        <ele>2085.39990234375</ele>
        <time>2026-06-20T07:57:44.000Z</time>
        <extensions>
          <ns3:TrackPointExtension>
            <ns3:atemp>18.0</ns3:atemp>
          </ns3:TrackPointExtension>
        </extensions>
      </trkpt>
      <trkpt lat="42.54667184315621852874755859375" lon="20.14399789273738861083984375">
        <ele>2085.39990234375</ele>
        <time>2026-06-20T07:57:45.000Z</time>
        <extensions>
          <ns3:TrackPointExtension>
            <ns3:atemp>18.0</ns3:atemp>
          </ns3:TrackPointExtension>
        </extensions>
      </trkpt>
      <trkpt lat="42.546673603355884552001953125" lon="20.14400552026927471160888671875">
        <ele>2085.39990234375</ele>
        <time>2026-06-20T07:57:46.000Z</time>
        <extensions>
          <ns3:TrackPointExtension>
            <ns3:atemp>18.0</ns3:atemp>
          </ns3:TrackPointExtension>
        </extensions>
      </trkpt>
      <trkpt lat="42.54667553119361400604248046875" lon="20.144012309610843658447265625">
        <ele>2085.39990234375</ele>
        <time>2026-06-20T07:57:47.000Z</time>
        <extensions>
          <ns3:TrackPointExtension>
            <ns3:atemp>18.0</ns3:atemp>
          </ns3:TrackPointExtension>
        </extensions>
      </trkpt>
      <trkpt lat="42.546677291393280029296875" lon="20.144020020961761474609375">
        <ele>2085.39990234375</ele>
        <time>2026-06-20T07:57:48.000Z</time>
        <extensions>
          <ns3:TrackPointExtension>
            <ns3:atemp>18.0</ns3:atemp>
          </ns3:TrackPointExtension>
        </extensions>
      </trkpt>
      <trkpt lat="42.5466759502887725830078125" lon="20.14402613975107669830322265625">
        <ele>2085.39990234375</ele>
        <time>2026-06-20T07:57:49.000Z</time>
        <extensions>
          <ns3:TrackPointExtension>
            <ns3:atemp>18.0</ns3:atemp>
          </ns3:TrackPointExtension>
        </extensions>
      </trkpt>
      <trkpt lat="42.54667469300329685211181640625" lon="20.1440305821597576141357421875">
        <ele>2085.39990234375</ele>
        <time>2026-06-20T07:57:50.000Z</time>
        <extensions>
          <ns3:TrackPointExtension>
            <ns3:atemp>18.0</ns3:atemp>
          </ns3:TrackPointExtension>
        </extensions>
      </trkpt>
      <trkpt lat="42.54667553119361400604248046875" lon="20.14403049834072589874267578125">
        <ele>2085.39990234375</ele>
        <time>2026-06-20T07:57:51.000Z</time>
        <extensions>
          <ns3:TrackPointExtension>
            <ns3:atemp>18.0</ns3:atemp>
          </ns3:TrackPointExtension>
        </extensions>
      </trkpt>
      <trkpt lat="42.54667553119361400604248046875" lon="20.14403049834072589874267578125">
        <ele>2085.39990234375</ele>
        <time>2026-06-20T07:57:52.000Z</time>
        <extensions>
          <ns3:TrackPointExtension>
            <ns3:atemp>18.0</ns3:atemp>
          </ns3:TrackPointExtension>
        </extensions>
      </trkpt>
      <trkpt lat="42.54667553119361400604248046875" lon="20.14403049834072589874267578125">
        <ele>2085.39990234375</ele>
        <time>2026-06-20T07:57:53.000Z</time>
        <extensions>
          <ns3:TrackPointExtension>
            <ns3:atemp>18.0</ns3:atemp>
          </ns3:TrackPointExtension>
        </extensions>
      </trkpt>
      <trkpt lat="42.54667553119361400604248046875" lon="20.14403049834072589874267578125">
        <ele>2085.39990234375</ele>
        <time>2026-06-20T07:57:54.000Z</time>
        <extensions>
          <ns3:TrackPointExtension>
            <ns3:atemp>18.0</ns3:atemp>
          </ns3:TrackPointExtension>
        </extensions>
      </trkpt>
      <trkpt lat="42.54667553119361400604248046875" lon="20.14403049834072589874267578125">
        <ele>2085.39990234375</ele>
        <time>2026-06-20T07:57:55.000Z</time>
        <extensions>
          <ns3:TrackPointExtension>
            <ns3:atemp>18.0</ns3:atemp>
          </ns3:TrackPointExtension>
        </extensions>
      </trkpt>
      <trkpt lat="42.54667553119361400604248046875" lon="20.14403049834072589874267578125">
        <ele>2085.39990234375</ele>
        <time>2026-06-20T07:57:56.000Z</time>
        <extensions>
          <ns3:TrackPointExtension>
            <ns3:atemp>18.0</ns3:atemp>
          </ns3:TrackPointExtension>
        </extensions>
      </trkpt>
      <trkpt lat="42.54667553119361400604248046875" lon="20.14403049834072589874267578125">
        <ele>2085.39990234375</ele>
        <time>2026-06-20T07:57:57.000Z</time>
        <extensions>
          <ns3:TrackPointExtension>
            <ns3:atemp>18.0</ns3:atemp>
          </ns3:TrackPointExtension>
        </extensions>
      </trkpt>
      <trkpt lat="42.54667553119361400604248046875" lon="20.14403049834072589874267578125">
        <ele>2085.39990234375</ele>
        <time>2026-06-20T07:57:58.000Z</time>
        <extensions>
          <ns3:TrackPointExtension>
            <ns3:atemp>18.0</ns3:atemp>
          </ns3:TrackPointExtension>
        </extensions>
      </trkpt>
      <trkpt lat="42.54667553119361400604248046875" lon="20.14403049834072589874267578125">
        <ele>2085.39990234375</ele>
        <time>2026-06-20T07:57:59.000Z</time>
        <extensions>
          <ns3:TrackPointExtension>
            <ns3:atemp>18.0</ns3:atemp>
          </ns3:TrackPointExtension>
        </extensions>
      </trkpt>
      <trkpt lat="42.54667553119361400604248046875" lon="20.14403049834072589874267578125">
        <ele>2085.39990234375</ele>
        <time>2026-06-20T07:58:00.000Z</time>
        <extensions>
          <ns3:TrackPointExtension>
            <ns3:atemp>18.0</ns3:atemp>
          </ns3:TrackPointExtension>
        </extensions>
      </trkpt>
      <trkpt lat="42.54667553119361400604248046875" lon="20.14403049834072589874267578125">
        <ele>2085.39990234375</ele>
        <time>2026-06-20T07:58:01.000Z</time>
        <extensions>
          <ns3:TrackPointExtension>
            <ns3:atemp>18.0</ns3:atemp>
          </ns3:TrackPointExtension>
        </extensions>
      </trkpt>
      <trkpt lat="42.54667553119361400604248046875" lon="20.14403049834072589874267578125">
        <ele>2085.39990234375</ele>
        <time>2026-06-20T07:58:02.000Z</time>
        <extensions>
          <ns3:TrackPointExtension>
            <ns3:atemp>18.0</ns3:atemp>
          </ns3:TrackPointExtension>
        </extensions>
      </trkpt>
      <trkpt lat="42.54667553119361400604248046875" lon="20.14403049834072589874267578125">
        <ele>2085.39990234375</ele>
        <time>2026-06-20T07:58:03.000Z</time>
        <extensions>
          <ns3:TrackPointExtension>
            <ns3:atemp>18.0</ns3:atemp>
          </ns3:TrackPointExtension>
        </extensions>
      </trkpt>
      <trkpt lat="42.54667703993618488311767578125" lon="20.14403033070266246795654296875">
        <ele>2085.39990234375</ele>
        <time>2026-06-20T07:58:04.000Z</time>
        <extensions>
          <ns3:TrackPointExtension>
            <ns3:atemp>18.0</ns3:atemp>
          </ns3:TrackPointExtension>
        </extensions>
      </trkpt>
      <trkpt lat="42.54667888395488262176513671875" lon="20.14403318054974079132080078125">
        <ele>2085.39990234375</ele>
        <time>2026-06-20T07:58:05.000Z</time>
        <extensions>
          <ns3:TrackPointExtension>
            <ns3:atemp>18.0</ns3:atemp>
          </ns3:TrackPointExtension>
        </extensions>
      </trkpt>
      <trkpt lat="42.54667553119361400604248046875" lon="20.14403049834072589874267578125">
        <ele>2085.39990234375</ele>
        <time>2026-06-20T07:58:06.000Z</time>
        <extensions>
          <ns3:TrackPointExtension>
            <ns3:atemp>18.0</ns3:atemp>
          </ns3:TrackPointExtension>
        </extensions>
      </trkpt>
      <trkpt lat="42.54667553119361400604248046875" lon="20.14403049834072589874267578125">
        <ele>2085.39990234375</ele>
        <time>2026-06-20T07:58:07.000Z</time>
        <extensions>
          <ns3:TrackPointExtension>
            <ns3:atemp>18.0</ns3:atemp>
          </ns3:TrackPointExtension>
        </extensions>
      </trkpt>
      <trkpt lat="42.54667553119361400604248046875" lon="20.14403049834072589874267578125">
        <ele>2085.39990234375</ele>
        <time>2026-06-20T07:58:08.000Z</time>
        <extensions>
          <ns3:TrackPointExtension>
            <ns3:atemp>18.0</ns3:atemp>
          </ns3:TrackPointExtension>
        </extensions>
      </trkpt>
      <trkpt lat="42.54667553119361400604248046875" lon="20.14403049834072589874267578125">
        <ele>2085.39990234375</ele>
        <time>2026-06-20T07:58:09.000Z</time>
        <extensions>
          <ns3:TrackPointExtension>
            <ns3:atemp>18.0</ns3:atemp>
          </ns3:TrackPointExtension>
        </extensions>
      </trkpt>
      <trkpt lat="42.54667553119361400604248046875" lon="20.14403049834072589874267578125">
        <ele>2085.39990234375</ele>
        <time>2026-06-20T07:58:10.000Z</time>
        <extensions>
          <ns3:TrackPointExtension>
            <ns3:atemp>18.0</ns3:atemp>
          </ns3:TrackPointExtension>
        </extensions>
      </trkpt>
      <trkpt lat="42.54667553119361400604248046875" lon="20.14403049834072589874267578125">
        <ele>2085.39990234375</ele>
        <time>2026-06-20T07:58:11.000Z</time>
        <extensions>
          <ns3:TrackPointExtension>
            <ns3:atemp>19.0</ns3:atemp>
          </ns3:TrackPointExtension>
        </extensions>
      </trkpt>
      <trkpt lat="42.54667553119361400604248046875" lon="20.14403049834072589874267578125">
        <ele>2085.39990234375</ele>
        <time>2026-06-20T07:58:12.000Z</time>
        <extensions>
          <ns3:TrackPointExtension>
            <ns3:atemp>18.0</ns3:atemp>
          </ns3:TrackPointExtension>
        </extensions>
      </trkpt>
      <trkpt lat="42.54667972214519977569580078125" lon="20.14403150416910648345947265625">
        <ele>2085.39990234375</ele>
        <time>2026-06-20T07:58:13.000Z</time>
        <extensions>
          <ns3:TrackPointExtension>
            <ns3:atemp>18.0</ns3:atemp>
          </ns3:TrackPointExtension>
        </extensions>
      </trkpt>
      <trkpt lat="42.54667972214519977569580078125" lon="20.14405363239347934722900390625">
        <ele>2085.39990234375</ele>
        <time>2026-06-20T07:58:14.000Z</time>
        <extensions>
          <ns3:TrackPointExtension>
            <ns3:atemp>18.0</ns3:atemp>
          </ns3:TrackPointExtension>
        </extensions>
      </trkpt>
      <trkpt lat="42.54667988978326320648193359375" lon="20.144069306552410125732421875">
        <ele>2085.199951171875</ele>
        <time>2026-06-20T07:58:15.000Z</time>
        <extensions>
          <ns3:TrackPointExtension>
            <ns3:atemp>18.0</ns3:atemp>
          </ns3:TrackPointExtension>
        </extensions>
      </trkpt>
      <trkpt lat="42.5466808117926120758056640625" lon="20.14408900402486324310302734375">
        <ele>2085.39990234375</ele>
        <time>2026-06-20T07:58:16.000Z</time>
        <extensions>
          <ns3:TrackPointExtension>
            <ns3:atemp>18.0</ns3:atemp>
          </ns3:TrackPointExtension>
        </extensions>
      </trkpt>
      <trkpt lat="42.5466801412403583526611328125" lon="20.14410543255507946014404296875">
        <ele>2085.39990234375</ele>
        <time>2026-06-20T07:58:17.000Z</time>
        <extensions>
          <ns3:TrackPointExtension>
            <ns3:atemp>18.0</ns3:atemp>
          </ns3:TrackPointExtension>
        </extensions>
      </trkpt>
      <trkpt lat="42.546680308878421783447265625" lon="20.14412001706659793853759765625">
        <ele>2085.60009765625</ele>
        <time>2026-06-20T07:58:18.000Z</time>
        <extensions>
          <ns3:TrackPointExtension>
            <ns3:atemp>18.0</ns3:atemp>
          </ns3:TrackPointExtension>
        </extensions>
      </trkpt>
      <trkpt lat="42.5466788001358509063720703125" lon="20.1441412232816219329833984375">
        <ele>2085.800048828125</ele>
        <time>2026-06-20T07:58:19.000Z</time>
        <extensions>
          <ns3:TrackPointExtension>
            <ns3:atemp>18.0</ns3:atemp>
          </ns3:TrackPointExtension>
        </extensions>
      </trkpt>
      <trkpt lat="42.5466757826507091522216796875" lon="20.144164860248565673828125">
        <ele>2085.800048828125</ele>
        <time>2026-06-20T07:58:20.000Z</time>
        <extensions>
          <ns3:TrackPointExtension>
            <ns3:atemp>18.0</ns3:atemp>
          </ns3:TrackPointExtension>
        </extensions>
      </trkpt>
      <trkpt lat="42.54667687229812145233154296875" lon="20.1441854797303676605224609375">
        <ele>2086</ele>
        <time>2026-06-20T07:58:21.000Z</time>
        <extensions>
          <ns3:TrackPointExtension>
            <ns3:atemp>18.0</ns3:atemp>
          </ns3:TrackPointExtension>
        </extensions>
      </trkpt>
      <trkpt lat="42.54666991531848907470703125" lon="20.144193358719348907470703125">
        <ele>2086</ele>
        <time>2026-06-20T07:58:22.000Z</time>
        <extensions>
          <ns3:TrackPointExtension>
            <ns3:atemp>18.0</ns3:atemp>
          </ns3:TrackPointExtension>
        </extensions>
      </trkpt>
      <trkpt lat="42.54666647873818874359130859375" lon="20.14418841339647769927978515625">
        <ele>2086.199951171875</ele>
        <time>2026-06-20T07:58:23.000Z</time>
        <extensions>
          <ns3:TrackPointExtension>
            <ns3:atemp>18.0</ns3:atemp>
          </ns3:TrackPointExtension>
        </extensions>
      </trkpt>
      <trkpt lat="42.54666647873818874359130859375" lon="20.14418841339647769927978515625">
        <ele>2086.39990234375</ele>
        <time>2026-06-20T07:58:24.000Z</time>
        <extensions>
          <ns3:TrackPointExtension>
            <ns3:atemp>18.0</ns3:atemp>
          </ns3:TrackPointExtension>
        </extensions>
      </trkpt>
      <trkpt lat="42.54666647873818874359130859375" lon="20.14418841339647769927978515625">
        <ele>2086.39990234375</ele>
        <time>2026-06-20T07:58:25.000Z</time>
        <extensions>
          <ns3:TrackPointExtension>
            <ns3:atemp>18.0</ns3:atemp>
          </ns3:TrackPointExtension>
        </extensions>
      </trkpt>
      <trkpt lat="42.54666647873818874359130859375" lon="20.14418841339647769927978515625">
        <ele>2086.39990234375</ele>
        <time>2026-06-20T07:58:26.000Z</time>
        <extensions>
          <ns3:TrackPointExtension>
            <ns3:atemp>18.0</ns3:atemp>
          </ns3:TrackPointExtension>
        </extensions>
      </trkpt>
      <trkpt lat="42.54666647873818874359130859375" lon="20.14418841339647769927978515625">
        <ele>2086.60009765625</ele>
        <time>2026-06-20T07:58:27.000Z</time>
        <extensions>
          <ns3:TrackPointExtension>
            <ns3:atemp>18.0</ns3:atemp>
          </ns3:TrackPointExtension>
        </extensions>
      </trkpt>
      <trkpt lat="42.54666647873818874359130859375" lon="20.14418841339647769927978515625">
        <ele>2086.60009765625</ele>
        <time>2026-06-20T07:58:28.000Z</time>
        <extensions>
          <ns3:TrackPointExtension>
            <ns3:atemp>18.0</ns3:atemp>
          </ns3:TrackPointExtension>
        </extensions>
      </trkpt>
      <trkpt lat="42.54666647873818874359130859375" lon="20.14418841339647769927978515625">
        <ele>2086.60009765625</ele>
        <time>2026-06-20T07:58:29.000Z</time>
        <extensions>
          <ns3:TrackPointExtension>
            <ns3:atemp>18.0</ns3:atemp>
          </ns3:TrackPointExtension>
        </extensions>
      </trkpt>
      <trkpt lat="42.54666647873818874359130859375" lon="20.14418841339647769927978515625">
        <ele>2086.60009765625</ele>
        <time>2026-06-20T07:58:30.000Z</time>
        <extensions>
          <ns3:TrackPointExtension>
            <ns3:atemp>18.0</ns3:atemp>
          </ns3:TrackPointExtension>
        </extensions>
      </trkpt>
      <trkpt lat="42.54666647873818874359130859375" lon="20.14418841339647769927978515625">
        <ele>2086.60009765625</ele>
        <time>2026-06-20T07:58:31.000Z</time>
        <extensions>
          <ns3:TrackPointExtension>
            <ns3:atemp>18.0</ns3:atemp>
          </ns3:TrackPointExtension>
        </extensions>
      </trkpt>
      <trkpt lat="42.54666647873818874359130859375" lon="20.14418841339647769927978515625">
        <ele>2086.60009765625</ele>
        <time>2026-06-20T07:58:32.000Z</time>
        <extensions>
          <ns3:TrackPointExtension>
            <ns3:atemp>18.0</ns3:atemp>
          </ns3:TrackPointExtension>
        </extensions>
      </trkpt>
      <trkpt lat="42.54666647873818874359130859375" lon="20.14418841339647769927978515625">
        <ele>2086.60009765625</ele>
        <time>2026-06-20T07:58:33.000Z</time>
        <extensions>
          <ns3:TrackPointExtension>
            <ns3:atemp>18.0</ns3:atemp>
          </ns3:TrackPointExtension>
        </extensions>
      </trkpt>
      <trkpt lat="42.54666647873818874359130859375" lon="20.14418841339647769927978515625">
        <ele>2086.800048828125</ele>
        <time>2026-06-20T07:58:34.000Z</time>
        <extensions>
          <ns3:TrackPointExtension>
            <ns3:atemp>18.0</ns3:atemp>
          </ns3:TrackPointExtension>
        </extensions>
      </trkpt>
      <trkpt lat="42.54666647873818874359130859375" lon="20.14418841339647769927978515625">
        <ele>2086.800048828125</ele>
        <time>2026-06-20T07:58:35.000Z</time>
        <extensions>
          <ns3:TrackPointExtension>
            <ns3:atemp>18.0</ns3:atemp>
          </ns3:TrackPointExtension>
        </extensions>
      </trkpt>
      <trkpt lat="42.54666647873818874359130859375" lon="20.14418841339647769927978515625">
        <ele>2086.800048828125</ele>
        <time>2026-06-20T07:58:36.000Z</time>
        <extensions>
          <ns3:TrackPointExtension>
            <ns3:atemp>18.0</ns3:atemp>
          </ns3:TrackPointExtension>
        </extensions>
      </trkpt>
      <trkpt lat="42.54666647873818874359130859375" lon="20.14418841339647769927978515625">
        <ele>2086.800048828125</ele>
        <time>2026-06-20T07:58:37.000Z</time>
        <extensions>
          <ns3:TrackPointExtension>
            <ns3:atemp>18.0</ns3:atemp>
          </ns3:TrackPointExtension>
        </extensions>
      </trkpt>
      <trkpt lat="42.54666647873818874359130859375" lon="20.14418841339647769927978515625">
        <ele>2087</ele>
        <time>2026-06-20T07:58:38.000Z</time>
        <extensions>
          <ns3:TrackPointExtension>
            <ns3:atemp>18.0</ns3:atemp>
          </ns3:TrackPointExtension>
        </extensions>
      </trkpt>
      <trkpt lat="42.54666647873818874359130859375" lon="20.14418841339647769927978515625">
        <ele>2087</ele>
        <time>2026-06-20T07:58:39.000Z</time>
        <extensions>
          <ns3:TrackPointExtension>
            <ns3:atemp>18.0</ns3:atemp>
          </ns3:TrackPointExtension>
        </extensions>
      </trkpt>
      <trkpt lat="42.54666647873818874359130859375" lon="20.14418841339647769927978515625">
        <ele>2087</ele>
        <time>2026-06-20T07:58:40.000Z</time>
        <extensions>
          <ns3:TrackPointExtension>
            <ns3:atemp>18.0</ns3:atemp>
          </ns3:TrackPointExtension>
        </extensions>
      </trkpt>
      <trkpt lat="42.54666647873818874359130859375" lon="20.14418841339647769927978515625">
        <ele>2087</ele>
        <time>2026-06-20T07:58:41.000Z</time>
        <extensions>
          <ns3:TrackPointExtension>
            <ns3:atemp>18.0</ns3:atemp>
          </ns3:TrackPointExtension>
        </extensions>
      </trkpt>
      <trkpt lat="42.54666647873818874359130859375" lon="20.14418841339647769927978515625">
        <ele>2087</ele>
        <time>2026-06-20T07:58:42.000Z</time>
        <extensions>
          <ns3:TrackPointExtension>
            <ns3:atemp>18.0</ns3:atemp>
          </ns3:TrackPointExtension>
        </extensions>
      </trkpt>
      <trkpt lat="42.54666647873818874359130859375" lon="20.14418841339647769927978515625">
        <ele>2087</ele>
        <time>2026-06-20T07:58:43.000Z</time>
        <extensions>
          <ns3:TrackPointExtension>
            <ns3:atemp>18.0</ns3:atemp>
          </ns3:TrackPointExtension>
        </extensions>
      </trkpt>
      <trkpt lat="42.54666647873818874359130859375" lon="20.14418841339647769927978515625">
        <ele>2086.800048828125</ele>
        <time>2026-06-20T07:58:44.000Z</time>
        <extensions>
          <ns3:TrackPointExtension>
            <ns3:atemp>18.0</ns3:atemp>
          </ns3:TrackPointExtension>
        </extensions>
      </trkpt>
      <trkpt lat="42.54666647873818874359130859375" lon="20.14418841339647769927978515625">
        <ele>2086.800048828125</ele>
        <time>2026-06-20T07:58:45.000Z</time>
        <extensions>
          <ns3:TrackPointExtension>
            <ns3:atemp>18.0</ns3:atemp>
          </ns3:TrackPointExtension>
        </extensions>
      </trkpt>
      <trkpt lat="42.54666647873818874359130859375" lon="20.14418841339647769927978515625">
        <ele>2086.800048828125</ele>
        <time>2026-06-20T07:58:46.000Z</time>
        <extensions>
          <ns3:TrackPointExtension>
            <ns3:atemp>18.0</ns3:atemp>
          </ns3:TrackPointExtension>
        </extensions>
      </trkpt>
      <trkpt lat="42.54666647873818874359130859375" lon="20.14418841339647769927978515625">
        <ele>2086.800048828125</ele>
        <time>2026-06-20T07:58:47.000Z</time>
        <extensions>
          <ns3:TrackPointExtension>
            <ns3:atemp>19.0</ns3:atemp>
          </ns3:TrackPointExtension>
        </extensions>
      </trkpt>
      <trkpt lat="42.54666647873818874359130859375" lon="20.14418841339647769927978515625">
        <ele>2087</ele>
        <time>2026-06-20T07:58:48.000Z</time>
        <extensions>
          <ns3:TrackPointExtension>
            <ns3:atemp>19.0</ns3:atemp>
          </ns3:TrackPointExtension>
        </extensions>
      </trkpt>
      <trkpt lat="42.54666647873818874359130859375" lon="20.14418841339647769927978515625">
        <ele>2087</ele>
        <time>2026-06-20T07:58:49.000Z</time>
        <extensions>
          <ns3:TrackPointExtension>
            <ns3:atemp>19.0</ns3:atemp>
          </ns3:TrackPointExtension>
        </extensions>
      </trkpt>
      <trkpt lat="42.54666647873818874359130859375" lon="20.14418841339647769927978515625">
        <ele>2087</ele>
        <time>2026-06-20T07:58:50.000Z</time>
        <extensions>
          <ns3:TrackPointExtension>
            <ns3:atemp>19.0</ns3:atemp>
          </ns3:TrackPointExtension>
        </extensions>
      </trkpt>
      <trkpt lat="42.54666647873818874359130859375" lon="20.14418841339647769927978515625">
        <ele>2087</ele>
        <time>2026-06-20T07:58:51.000Z</time>
        <extensions>
          <ns3:TrackPointExtension>
            <ns3:atemp>19.0</ns3:atemp>
          </ns3:TrackPointExtension>
        </extensions>
      </trkpt>
      <trkpt lat="42.54666647873818874359130859375" lon="20.14418841339647769927978515625">
        <ele>2087</ele>
        <time>2026-06-20T07:58:52.000Z</time>
        <extensions>
          <ns3:TrackPointExtension>
            <ns3:atemp>19.0</ns3:atemp>
          </ns3:TrackPointExtension>
        </extensions>
      </trkpt>
      <trkpt lat="42.54666647873818874359130859375" lon="20.14418841339647769927978515625">
        <ele>2087</ele>
        <time>2026-06-20T07:58:53.000Z</time>
        <extensions>
          <ns3:TrackPointExtension>
            <ns3:atemp>19.0</ns3:atemp>
          </ns3:TrackPointExtension>
        </extensions>
      </trkpt>
      <trkpt lat="42.54666647873818874359130859375" lon="20.14418841339647769927978515625">
        <ele>2087</ele>
        <time>2026-06-20T07:58:54.000Z</time>
        <extensions>
          <ns3:TrackPointExtension>
            <ns3:atemp>19.0</ns3:atemp>
          </ns3:TrackPointExtension>
        </extensions>
      </trkpt>
      <trkpt lat="42.54666647873818874359130859375" lon="20.14418841339647769927978515625">
        <ele>2087</ele>
        <time>2026-06-20T07:58:55.000Z</time>
        <extensions>
          <ns3:TrackPointExtension>
            <ns3:atemp>19.0</ns3:atemp>
          </ns3:TrackPointExtension>
        </extensions>
      </trkpt>
      <trkpt lat="42.54666647873818874359130859375" lon="20.14418841339647769927978515625">
        <ele>2087</ele>
        <time>2026-06-20T07:58:56.000Z</time>
        <extensions>
          <ns3:TrackPointExtension>
            <ns3:atemp>19.0</ns3:atemp>
          </ns3:TrackPointExtension>
        </extensions>
      </trkpt>
      <trkpt lat="42.54666865803301334381103515625" lon="20.14418975450098514556884765625">
        <ele>2087</ele>
        <time>2026-06-20T07:58:57.000Z</time>
        <extensions>
          <ns3:TrackPointExtension>
            <ns3:atemp>19.0</ns3:atemp>
          </ns3:TrackPointExtension>
        </extensions>
      </trkpt>
      <trkpt lat="42.54666647873818874359130859375" lon="20.14418841339647769927978515625">
        <ele>2086.800048828125</ele>
        <time>2026-06-20T07:58:58.000Z</time>
        <extensions>
          <ns3:TrackPointExtension>
            <ns3:atemp>19.0</ns3:atemp>
          </ns3:TrackPointExtension>
        </extensions>
      </trkpt>
      <trkpt lat="42.54666647873818874359130859375" lon="20.14418841339647769927978515625">
        <ele>2086.800048828125</ele>
        <time>2026-06-20T07:58:59.000Z</time>
        <extensions>
          <ns3:TrackPointExtension>
            <ns3:atemp>19.0</ns3:atemp>
          </ns3:TrackPointExtension>
        </extensions>
      </trkpt>
      <trkpt lat="42.54666647873818874359130859375" lon="20.14418841339647769927978515625">
        <ele>2086.800048828125</ele>
        <time>2026-06-20T07:59:00.000Z</time>
        <extensions>
          <ns3:TrackPointExtension>
            <ns3:atemp>19.0</ns3:atemp>
          </ns3:TrackPointExtension>
        </extensions>
      </trkpt>
      <trkpt lat="42.54666647873818874359130859375" lon="20.14418841339647769927978515625">
        <ele>2086.800048828125</ele>
        <time>2026-06-20T07:59:01.000Z</time>
        <extensions>
          <ns3:TrackPointExtension>
            <ns3:atemp>19.0</ns3:atemp>
          </ns3:TrackPointExtension>
        </extensions>
      </trkpt>
      <trkpt lat="42.54666647873818874359130859375" lon="20.14418841339647769927978515625">
        <ele>2087</ele>
        <time>2026-06-20T07:59:02.000Z</time>
        <extensions>
          <ns3:TrackPointExtension>
            <ns3:atemp>18.0</ns3:atemp>
          </ns3:TrackPointExtension>
        </extensions>
      </trkpt>
      <trkpt lat="42.54666647873818874359130859375" lon="20.14418841339647769927978515625">
        <ele>2087</ele>
        <time>2026-06-20T07:59:03.000Z</time>
        <extensions>
          <ns3:TrackPointExtension>
            <ns3:atemp>18.0</ns3:atemp>
          </ns3:TrackPointExtension>
        </extensions>
      </trkpt>
      <trkpt lat="42.54666647873818874359130859375" lon="20.14418841339647769927978515625">
        <ele>2087</ele>
        <time>2026-06-20T07:59:04.000Z</time>
        <extensions>
          <ns3:TrackPointExtension>
            <ns3:atemp>18.0</ns3:atemp>
          </ns3:TrackPointExtension>
        </extensions>
      </trkpt>
      <trkpt lat="42.54666647873818874359130859375" lon="20.14418841339647769927978515625">
        <ele>2087</ele>
        <time>2026-06-20T07:59:05.000Z</time>
        <extensions>
          <ns3:TrackPointExtension>
            <ns3:atemp>18.0</ns3:atemp>
          </ns3:TrackPointExtension>
        </extensions>
      </trkpt>
      <trkpt lat="42.54666647873818874359130859375" lon="20.14418841339647769927978515625">
        <ele>2087</ele>
        <time>2026-06-20T07:59:06.000Z</time>
        <extensions>
          <ns3:TrackPointExtension>
            <ns3:atemp>18.0</ns3:atemp>
          </ns3:TrackPointExtension>
        </extensions>
      </trkpt>
      <trkpt lat="42.54666647873818874359130859375" lon="20.14418841339647769927978515625">
        <ele>2087</ele>
        <time>2026-06-20T07:59:07.000Z</time>
        <extensions>
          <ns3:TrackPointExtension>
            <ns3:atemp>19.0</ns3:atemp>
          </ns3:TrackPointExtension>
        </extensions>
      </trkpt>
      <trkpt lat="42.54666647873818874359130859375" lon="20.14418841339647769927978515625">
        <ele>2087</ele>
        <time>2026-06-20T07:59:08.000Z</time>
        <extensions>
          <ns3:TrackPointExtension>
            <ns3:atemp>19.0</ns3:atemp>
          </ns3:TrackPointExtension>
        </extensions>
      </trkpt>
      <trkpt lat="42.54666647873818874359130859375" lon="20.14418841339647769927978515625">
        <ele>2087</ele>
        <time>2026-06-20T07:59:09.000Z</time>
        <extensions>
          <ns3:TrackPointExtension>
            <ns3:atemp>19.0</ns3:atemp>
          </ns3:TrackPointExtension>
        </extensions>
      </trkpt>
      <trkpt lat="42.54666647873818874359130859375" lon="20.14418841339647769927978515625">
        <ele>2087</ele>
        <time>2026-06-20T07:59:10.000Z</time>
        <extensions>
          <ns3:TrackPointExtension>
            <ns3:atemp>19.0</ns3:atemp>
          </ns3:TrackPointExtension>
        </extensions>
      </trkpt>
      <trkpt lat="42.54666647873818874359130859375" lon="20.14418841339647769927978515625">
        <ele>2087</ele>
        <time>2026-06-20T07:59:11.000Z</time>
        <extensions>
          <ns3:TrackPointExtension>
            <ns3:atemp>19.0</ns3:atemp>
          </ns3:TrackPointExtension>
        </extensions>
      </trkpt>
      <trkpt lat="42.54666647873818874359130859375" lon="20.14418841339647769927978515625">
        <ele>2087</ele>
        <time>2026-06-20T07:59:12.000Z</time>
        <extensions>
          <ns3:TrackPointExtension>
            <ns3:atemp>19.0</ns3:atemp>
          </ns3:TrackPointExtension>
        </extensions>
      </trkpt>
      <trkpt lat="42.54666647873818874359130859375" lon="20.14418841339647769927978515625">
        <ele>2087</ele>
        <time>2026-06-20T07:59:13.000Z</time>
        <extensions>
          <ns3:TrackPointExtension>
            <ns3:atemp>19.0</ns3:atemp>
          </ns3:TrackPointExtension>
        </extensions>
      </trkpt>
      <trkpt lat="42.54666647873818874359130859375" lon="20.14418841339647769927978515625">
        <ele>2087</ele>
        <time>2026-06-20T07:59:14.000Z</time>
        <extensions>
          <ns3:TrackPointExtension>
            <ns3:atemp>19.0</ns3:atemp>
          </ns3:TrackPointExtension>
        </extensions>
      </trkpt>
      <trkpt lat="42.54666647873818874359130859375" lon="20.14418841339647769927978515625">
        <ele>2087</ele>
        <time>2026-06-20T07:59:15.000Z</time>
        <extensions>
          <ns3:TrackPointExtension>
            <ns3:atemp>19.0</ns3:atemp>
          </ns3:TrackPointExtension>
        </extensions>
      </trkpt>
      <trkpt lat="42.54666647873818874359130859375" lon="20.14418841339647769927978515625">
        <ele>2087</ele>
        <time>2026-06-20T07:59:16.000Z</time>
        <extensions>
          <ns3:TrackPointExtension>
            <ns3:atemp>19.0</ns3:atemp>
          </ns3:TrackPointExtension>
        </extensions>
      </trkpt>
      <trkpt lat="42.54666647873818874359130859375" lon="20.14418841339647769927978515625">
        <ele>2087</ele>
        <time>2026-06-20T07:59:17.000Z</time>
        <extensions>
          <ns3:TrackPointExtension>
            <ns3:atemp>19.0</ns3:atemp>
          </ns3:TrackPointExtension>
        </extensions>
      </trkpt>
      <trkpt lat="42.54666647873818874359130859375" lon="20.14418841339647769927978515625">
        <ele>2087.199951171875</ele>
        <time>2026-06-20T07:59:18.000Z</time>
        <extensions>
          <ns3:TrackPointExtension>
            <ns3:atemp>19.0</ns3:atemp>
          </ns3:TrackPointExtension>
        </extensions>
      </trkpt>
      <trkpt lat="42.54666647873818874359130859375" lon="20.14418841339647769927978515625">
        <ele>2087.199951171875</ele>
        <time>2026-06-20T07:59:19.000Z</time>
        <extensions>
          <ns3:TrackPointExtension>
            <ns3:atemp>19.0</ns3:atemp>
          </ns3:TrackPointExtension>
        </extensions>
      </trkpt>
      <trkpt lat="42.54666647873818874359130859375" lon="20.14418841339647769927978515625">
        <ele>2087.199951171875</ele>
        <time>2026-06-20T07:59:20.000Z</time>
        <extensions>
          <ns3:TrackPointExtension>
            <ns3:atemp>19.0</ns3:atemp>
          </ns3:TrackPointExtension>
        </extensions>
      </trkpt>
      <trkpt lat="42.54666647873818874359130859375" lon="20.14418841339647769927978515625">
        <ele>2087.199951171875</ele>
        <time>2026-06-20T07:59:21.000Z</time>
        <extensions>
          <ns3:TrackPointExtension>
            <ns3:atemp>19.0</ns3:atemp>
          </ns3:TrackPointExtension>
        </extensions>
      </trkpt>
      <trkpt lat="42.54666647873818874359130859375" lon="20.14418841339647769927978515625">
        <ele>2087.199951171875</ele>
        <time>2026-06-20T07:59:22.000Z</time>
        <extensions>
          <ns3:TrackPointExtension>
            <ns3:atemp>19.0</ns3:atemp>
          </ns3:TrackPointExtension>
        </extensions>
      </trkpt>
      <trkpt lat="42.54666647873818874359130859375" lon="20.14418841339647769927978515625">
        <ele>2087.199951171875</ele>
        <time>2026-06-20T07:59:23.000Z</time>
        <extensions>
          <ns3:TrackPointExtension>
            <ns3:atemp>19.0</ns3:atemp>
          </ns3:TrackPointExtension>
        </extensions>
      </trkpt>
      <trkpt lat="42.54666647873818874359130859375" lon="20.14418841339647769927978515625">
        <ele>2087.199951171875</ele>
        <time>2026-06-20T07:59:24.000Z</time>
        <extensions>
          <ns3:TrackPointExtension>
            <ns3:atemp>18.0</ns3:atemp>
          </ns3:TrackPointExtension>
        </extensions>
      </trkpt>
      <trkpt lat="42.54666647873818874359130859375" lon="20.14418841339647769927978515625">
        <ele>2087.199951171875</ele>
        <time>2026-06-20T07:59:25.000Z</time>
        <extensions>
          <ns3:TrackPointExtension>
            <ns3:atemp>18.0</ns3:atemp>
          </ns3:TrackPointExtension>
        </extensions>
      </trkpt>
      <trkpt lat="42.54666647873818874359130859375" lon="20.14418841339647769927978515625">
        <ele>2087.199951171875</ele>
        <time>2026-06-20T07:59:26.000Z</time>
        <extensions>
          <ns3:TrackPointExtension>
            <ns3:atemp>19.0</ns3:atemp>
          </ns3:TrackPointExtension>
        </extensions>
      </trkpt>
      <trkpt lat="42.54666647873818874359130859375" lon="20.14418841339647769927978515625">
        <ele>2087.199951171875</ele>
        <time>2026-06-20T07:59:27.000Z</time>
        <extensions>
          <ns3:TrackPointExtension>
            <ns3:atemp>18.0</ns3:atemp>
          </ns3:TrackPointExtension>
        </extensions>
      </trkpt>
      <trkpt lat="42.54666647873818874359130859375" lon="20.14418841339647769927978515625">
        <ele>2087</ele>
        <time>2026-06-20T07:59:28.000Z</time>
        <extensions>
          <ns3:TrackPointExtension>
            <ns3:atemp>19.0</ns3:atemp>
          </ns3:TrackPointExtension>
        </extensions>
      </trkpt>
      <trkpt lat="42.54666647873818874359130859375" lon="20.14418841339647769927978515625">
        <ele>2087.199951171875</ele>
        <time>2026-06-20T07:59:29.000Z</time>
        <extensions>
          <ns3:TrackPointExtension>
            <ns3:atemp>19.0</ns3:atemp>
          </ns3:TrackPointExtension>
        </extensions>
      </trkpt>
      <trkpt lat="42.54666647873818874359130859375" lon="20.14418841339647769927978515625">
        <ele>2087.199951171875</ele>
        <time>2026-06-20T07:59:30.000Z</time>
        <extensions>
          <ns3:TrackPointExtension>
            <ns3:atemp>19.0</ns3:atemp>
          </ns3:TrackPointExtension>
        </extensions>
      </trkpt>
      <trkpt lat="42.54666647873818874359130859375" lon="20.14418841339647769927978515625">
        <ele>2087.199951171875</ele>
        <time>2026-06-20T07:59:31.000Z</time>
        <extensions>
          <ns3:TrackPointExtension>
            <ns3:atemp>19.0</ns3:atemp>
          </ns3:TrackPointExtension>
        </extensions>
      </trkpt>
      <trkpt lat="42.54666647873818874359130859375" lon="20.14418841339647769927978515625">
        <ele>2087.199951171875</ele>
        <time>2026-06-20T07:59:32.000Z</time>
        <extensions>
          <ns3:TrackPointExtension>
            <ns3:atemp>19.0</ns3:atemp>
          </ns3:TrackPointExtension>
        </extensions>
      </trkpt>
      <trkpt lat="42.54666647873818874359130859375" lon="20.14418841339647769927978515625">
        <ele>2087.199951171875</ele>
        <time>2026-06-20T07:59:33.000Z</time>
        <extensions>
          <ns3:TrackPointExtension>
            <ns3:atemp>18.0</ns3:atemp>
          </ns3:TrackPointExtension>
        </extensions>
      </trkpt>
      <trkpt lat="42.54666647873818874359130859375" lon="20.14418841339647769927978515625">
        <ele>2087.199951171875</ele>
        <time>2026-06-20T07:59:34.000Z</time>
        <extensions>
          <ns3:TrackPointExtension>
            <ns3:atemp>19.0</ns3:atemp>
          </ns3:TrackPointExtension>
        </extensions>
      </trkpt>
      <trkpt lat="42.54666647873818874359130859375" lon="20.14418841339647769927978515625">
        <ele>2087.199951171875</ele>
        <time>2026-06-20T07:59:35.000Z</time>
        <extensions>
          <ns3:TrackPointExtension>
            <ns3:atemp>18.0</ns3:atemp>
          </ns3:TrackPointExtension>
        </extensions>
      </trkpt>
      <trkpt lat="42.54666647873818874359130859375" lon="20.14418841339647769927978515625">
        <ele>2087.199951171875</ele>
        <time>2026-06-20T07:59:36.000Z</time>
        <extensions>
          <ns3:TrackPointExtension>
            <ns3:atemp>18.0</ns3:atemp>
          </ns3:TrackPointExtension>
        </extensions>
      </trkpt>
      <trkpt lat="42.54666647873818874359130859375" lon="20.14418841339647769927978515625">
        <ele>2087.199951171875</ele>
        <time>2026-06-20T07:59:37.000Z</time>
        <extensions>
          <ns3:TrackPointExtension>
            <ns3:atemp>18.0</ns3:atemp>
          </ns3:TrackPointExtension>
        </extensions>
      </trkpt>
      <trkpt lat="42.54666647873818874359130859375" lon="20.14418841339647769927978515625">
        <ele>2087.199951171875</ele>
        <time>2026-06-20T07:59:38.000Z</time>
        <extensions>
          <ns3:TrackPointExtension>
            <ns3:atemp>18.0</ns3:atemp>
          </ns3:TrackPointExtension>
        </extensions>
      </trkpt>
      <trkpt lat="42.54666647873818874359130859375" lon="20.14418841339647769927978515625">
        <ele>2087.199951171875</ele>
        <time>2026-06-20T07:59:39.000Z</time>
        <extensions>
          <ns3:TrackPointExtension>
            <ns3:atemp>18.0</ns3:atemp>
          </ns3:TrackPointExtension>
        </extensions>
      </trkpt>
      <trkpt lat="42.54666647873818874359130859375" lon="20.14418841339647769927978515625">
        <ele>2087.199951171875</ele>
        <time>2026-06-20T07:59:40.000Z</time>
        <extensions>
          <ns3:TrackPointExtension>
            <ns3:atemp>19.0</ns3:atemp>
          </ns3:TrackPointExtension>
        </extensions>
      </trkpt>
      <trkpt lat="42.54666647873818874359130859375" lon="20.14418841339647769927978515625">
        <ele>2087.199951171875</ele>
        <time>2026-06-20T07:59:41.000Z</time>
        <extensions>
          <ns3:TrackPointExtension>
            <ns3:atemp>19.0</ns3:atemp>
          </ns3:TrackPointExtension>
        </extensions>
      </trkpt>
      <trkpt lat="42.54666647873818874359130859375" lon="20.14418841339647769927978515625">
        <ele>2087.199951171875</ele>
        <time>2026-06-20T07:59:42.000Z</time>
        <extensions>
          <ns3:TrackPointExtension>
            <ns3:atemp>19.0</ns3:atemp>
          </ns3:TrackPointExtension>
        </extensions>
      </trkpt>
      <trkpt lat="42.54666647873818874359130859375" lon="20.14418841339647769927978515625">
        <ele>2087.199951171875</ele>
        <time>2026-06-20T07:59:43.000Z</time>
        <extensions>
          <ns3:TrackPointExtension>
            <ns3:atemp>19.0</ns3:atemp>
          </ns3:TrackPointExtension>
        </extensions>
      </trkpt>
      <trkpt lat="42.54666647873818874359130859375" lon="20.14418841339647769927978515625">
        <ele>2087.199951171875</ele>
        <time>2026-06-20T07:59:44.000Z</time>
        <extensions>
          <ns3:TrackPointExtension>
            <ns3:atemp>19.0</ns3:atemp>
          </ns3:TrackPointExtension>
        </extensions>
      </trkpt>
      <trkpt lat="42.54666647873818874359130859375" lon="20.14418841339647769927978515625">
        <ele>2087.199951171875</ele>
        <time>2026-06-20T07:59:45.000Z</time>
        <extensions>
          <ns3:TrackPointExtension>
            <ns3:atemp>19.0</ns3:atemp>
          </ns3:TrackPointExtension>
        </extensions>
      </trkpt>
      <trkpt lat="42.54666647873818874359130859375" lon="20.14418841339647769927978515625">
        <ele>2087.199951171875</ele>
        <time>2026-06-20T07:59:46.000Z</time>
        <extensions>
          <ns3:TrackPointExtension>
            <ns3:atemp>19.0</ns3:atemp>
          </ns3:TrackPointExtension>
        </extensions>
      </trkpt>
      <trkpt lat="42.5466759502887725830078125" lon="20.14419478364288806915283203125">
        <ele>2087</ele>
        <time>2026-06-20T07:59:47.000Z</time>
        <extensions>
          <ns3:TrackPointExtension>
            <ns3:atemp>19.0</ns3:atemp>
          </ns3:TrackPointExtension>
        </extensions>
      </trkpt>
      <trkpt lat="42.546685673296451568603515625" lon="20.144195370376110076904296875">
        <ele>2087</ele>
        <time>2026-06-20T07:59:48.000Z</time>
        <extensions>
          <ns3:TrackPointExtension>
            <ns3:atemp>19.0</ns3:atemp>
          </ns3:TrackPointExtension>
        </extensions>
      </trkpt>
      <trkpt lat="42.54668860696256160736083984375" lon="20.1441935263574123382568359375">
        <ele>2087</ele>
        <time>2026-06-20T07:59:49.000Z</time>
        <extensions>
          <ns3:TrackPointExtension>
            <ns3:atemp>19.0</ns3:atemp>
          </ns3:TrackPointExtension>
        </extensions>
      </trkpt>
      <trkpt lat="42.54668860696256160736083984375" lon="20.1441935263574123382568359375">
        <ele>2086.800048828125</ele>
        <time>2026-06-20T07:59:50.000Z</time>
        <extensions>
          <ns3:TrackPointExtension>
            <ns3:atemp>19.0</ns3:atemp>
          </ns3:TrackPointExtension>
        </extensions>
      </trkpt>
      <trkpt lat="42.54668860696256160736083984375" lon="20.1441935263574123382568359375">
        <ele>2086.800048828125</ele>
        <time>2026-06-20T07:59:51.000Z</time>
        <extensions>
          <ns3:TrackPointExtension>
            <ns3:atemp>19.0</ns3:atemp>
          </ns3:TrackPointExtension>
        </extensions>
      </trkpt>
      <trkpt lat="42.54668860696256160736083984375" lon="20.1441935263574123382568359375">
        <ele>2086.800048828125</ele>
        <time>2026-06-20T07:59:52.000Z</time>
        <extensions>
          <ns3:TrackPointExtension>
            <ns3:atemp>19.0</ns3:atemp>
          </ns3:TrackPointExtension>
        </extensions>
      </trkpt>
      <trkpt lat="42.54668860696256160736083984375" lon="20.1441935263574123382568359375">
        <ele>2086.800048828125</ele>
        <time>2026-06-20T07:59:53.000Z</time>
        <extensions>
          <ns3:TrackPointExtension>
            <ns3:atemp>19.0</ns3:atemp>
          </ns3:TrackPointExtension>
        </extensions>
      </trkpt>
      <trkpt lat="42.54668860696256160736083984375" lon="20.1441935263574123382568359375">
        <ele>2086.60009765625</ele>
        <time>2026-06-20T07:59:54.000Z</time>
        <extensions>
          <ns3:TrackPointExtension>
            <ns3:atemp>19.0</ns3:atemp>
          </ns3:TrackPointExtension>
        </extensions>
      </trkpt>
      <trkpt lat="42.54668860696256160736083984375" lon="20.1441935263574123382568359375">
        <ele>2086.60009765625</ele>
        <time>2026-06-20T07:59:55.000Z</time>
        <extensions>
          <ns3:TrackPointExtension>
            <ns3:atemp>19.0</ns3:atemp>
          </ns3:TrackPointExtension>
        </extensions>
      </trkpt>
      <trkpt lat="42.54668860696256160736083984375" lon="20.1441935263574123382568359375">
        <ele>2086.60009765625</ele>
        <time>2026-06-20T07:59:56.000Z</time>
        <extensions>
          <ns3:TrackPointExtension>
            <ns3:atemp>19.0</ns3:atemp>
          </ns3:TrackPointExtension>
        </extensions>
      </trkpt>
      <trkpt lat="42.54668860696256160736083984375" lon="20.1441935263574123382568359375">
        <ele>2086.800048828125</ele>
        <time>2026-06-20T07:59:57.000Z</time>
        <extensions>
          <ns3:TrackPointExtension>
            <ns3:atemp>19.0</ns3:atemp>
          </ns3:TrackPointExtension>
        </extensions>
      </trkpt>
      <trkpt lat="42.54668860696256160736083984375" lon="20.1441935263574123382568359375">
        <ele>2086.800048828125</ele>
        <time>2026-06-20T07:59:58.000Z</time>
        <extensions>
          <ns3:TrackPointExtension>
            <ns3:atemp>19.0</ns3:atemp>
          </ns3:TrackPointExtension>
        </extensions>
      </trkpt>
      <trkpt lat="42.54668860696256160736083984375" lon="20.1441935263574123382568359375">
        <ele>2086.800048828125</ele>
        <time>2026-06-20T07:59:59.000Z</time>
        <extensions>
          <ns3:TrackPointExtension>
            <ns3:atemp>19.0</ns3:atemp>
          </ns3:TrackPointExtension>
        </extensions>
      </trkpt>
      <trkpt lat="42.54668860696256160736083984375" lon="20.1441935263574123382568359375">
        <ele>2086.800048828125</ele>
        <time>2026-06-20T08:00:00.000Z</time>
        <extensions>
          <ns3:TrackPointExtension>
            <ns3:atemp>19.0</ns3:atemp>
          </ns3:TrackPointExtension>
        </extensions>
      </trkpt>
      <trkpt lat="42.54668860696256160736083984375" lon="20.1441935263574123382568359375">
        <ele>2086.800048828125</ele>
        <time>2026-06-20T08:00:01.000Z</time>
        <extensions>
          <ns3:TrackPointExtension>
            <ns3:atemp>18.0</ns3:atemp>
          </ns3:TrackPointExtension>
        </extensions>
      </trkpt>
      <trkpt lat="42.54668860696256160736083984375" lon="20.1441935263574123382568359375">
        <ele>2086.800048828125</ele>
        <time>2026-06-20T08:00:02.000Z</time>
        <extensions>
          <ns3:TrackPointExtension>
            <ns3:atemp>18.0</ns3:atemp>
          </ns3:TrackPointExtension>
        </extensions>
      </trkpt>
      <trkpt lat="42.54668860696256160736083984375" lon="20.1441935263574123382568359375">
        <ele>2086.800048828125</ele>
        <time>2026-06-20T08:00:03.000Z</time>
        <extensions>
          <ns3:TrackPointExtension>
            <ns3:atemp>19.0</ns3:atemp>
          </ns3:TrackPointExtension>
        </extensions>
      </trkpt>
      <trkpt lat="42.54668860696256160736083984375" lon="20.1441935263574123382568359375">
        <ele>2086.800048828125</ele>
        <time>2026-06-20T08:00:04.000Z</time>
        <extensions>
          <ns3:TrackPointExtension>
            <ns3:atemp>19.0</ns3:atemp>
          </ns3:TrackPointExtension>
        </extensions>
      </trkpt>
      <trkpt lat="42.54668860696256160736083984375" lon="20.1441935263574123382568359375">
        <ele>2086.800048828125</ele>
        <time>2026-06-20T08:00:05.000Z</time>
        <extensions>
          <ns3:TrackPointExtension>
            <ns3:atemp>19.0</ns3:atemp>
          </ns3:TrackPointExtension>
        </extensions>
      </trkpt>
      <trkpt lat="42.54668860696256160736083984375" lon="20.1441935263574123382568359375">
        <ele>2086.800048828125</ele>
        <time>2026-06-20T08:00:06.000Z</time>
        <extensions>
          <ns3:TrackPointExtension>
            <ns3:atemp>19.0</ns3:atemp>
          </ns3:TrackPointExtension>
        </extensions>
      </trkpt>
      <trkpt lat="42.54668860696256160736083984375" lon="20.1441935263574123382568359375">
        <ele>2086.800048828125</ele>
        <time>2026-06-20T08:00:07.000Z</time>
        <extensions>
          <ns3:TrackPointExtension>
            <ns3:atemp>19.0</ns3:atemp>
          </ns3:TrackPointExtension>
        </extensions>
      </trkpt>
      <trkpt lat="42.54668860696256160736083984375" lon="20.1441935263574123382568359375">
        <ele>2087</ele>
        <time>2026-06-20T08:00:08.000Z</time>
        <extensions>
          <ns3:TrackPointExtension>
            <ns3:atemp>19.0</ns3:atemp>
          </ns3:TrackPointExtension>
        </extensions>
      </trkpt>
      <trkpt lat="42.54668860696256160736083984375" lon="20.1441935263574123382568359375">
        <ele>2087</ele>
        <time>2026-06-20T08:00:09.000Z</time>
        <extensions>
          <ns3:TrackPointExtension>
            <ns3:atemp>19.0</ns3:atemp>
          </ns3:TrackPointExtension>
        </extensions>
      </trkpt>
      <trkpt lat="42.54668860696256160736083984375" lon="20.1441935263574123382568359375">
        <ele>2087</ele>
        <time>2026-06-20T08:00:10.000Z</time>
        <extensions>
          <ns3:TrackPointExtension>
            <ns3:atemp>19.0</ns3:atemp>
          </ns3:TrackPointExtension>
        </extensions>
      </trkpt>
      <trkpt lat="42.54668860696256160736083984375" lon="20.1441935263574123382568359375">
        <ele>2087</ele>
        <time>2026-06-20T08:00:11.000Z</time>
        <extensions>
          <ns3:TrackPointExtension>
            <ns3:atemp>19.0</ns3:atemp>
          </ns3:TrackPointExtension>
        </extensions>
      </trkpt>
      <trkpt lat="42.54668860696256160736083984375" lon="20.1441935263574123382568359375">
        <ele>2087.199951171875</ele>
        <time>2026-06-20T08:00:12.000Z</time>
        <extensions>
          <ns3:TrackPointExtension>
            <ns3:atemp>19.0</ns3:atemp>
          </ns3:TrackPointExtension>
        </extensions>
      </trkpt>
      <trkpt lat="42.54668860696256160736083984375" lon="20.1441935263574123382568359375">
        <ele>2087.199951171875</ele>
        <time>2026-06-20T08:00:13.000Z</time>
        <extensions>
          <ns3:TrackPointExtension>
            <ns3:atemp>19.0</ns3:atemp>
          </ns3:TrackPointExtension>
        </extensions>
      </trkpt>
      <trkpt lat="42.54668860696256160736083984375" lon="20.1441935263574123382568359375">
        <ele>2087.199951171875</ele>
        <time>2026-06-20T08:00:14.000Z</time>
        <extensions>
          <ns3:TrackPointExtension>
            <ns3:atemp>19.0</ns3:atemp>
          </ns3:TrackPointExtension>
        </extensions>
      </trkpt>
      <trkpt lat="42.54668860696256160736083984375" lon="20.1441935263574123382568359375">
        <ele>2087.199951171875</ele>
        <time>2026-06-20T08:00:15.000Z</time>
        <extensions>
          <ns3:TrackPointExtension>
            <ns3:atemp>18.0</ns3:atemp>
          </ns3:TrackPointExtension>
        </extensions>
      </trkpt>
      <trkpt lat="42.54668860696256160736083984375" lon="20.1441935263574123382568359375">
        <ele>2087.199951171875</ele>
        <time>2026-06-20T08:00:16.000Z</time>
        <extensions>
          <ns3:TrackPointExtension>
            <ns3:atemp>19.0</ns3:atemp>
          </ns3:TrackPointExtension>
        </extensions>
      </trkpt>
      <trkpt lat="42.54668860696256160736083984375" lon="20.1441935263574123382568359375">
        <ele>2087.199951171875</ele>
        <time>2026-06-20T08:00:17.000Z</time>
        <extensions>
          <ns3:TrackPointExtension>
            <ns3:atemp>18.0</ns3:atemp>
          </ns3:TrackPointExtension>
        </extensions>
      </trkpt>
      <trkpt lat="42.54668860696256160736083984375" lon="20.1441935263574123382568359375">
        <ele>2087.199951171875</ele>
        <time>2026-06-20T08:00:18.000Z</time>
        <extensions>
          <ns3:TrackPointExtension>
            <ns3:atemp>18.0</ns3:atemp>
          </ns3:TrackPointExtension>
        </extensions>
      </trkpt>
      <trkpt lat="42.54668860696256160736083984375" lon="20.1441935263574123382568359375">
        <ele>2087</ele>
        <time>2026-06-20T08:00:19.000Z</time>
        <extensions>
          <ns3:TrackPointExtension>
            <ns3:atemp>18.0</ns3:atemp>
          </ns3:TrackPointExtension>
        </extensions>
      </trkpt>
      <trkpt lat="42.54668860696256160736083984375" lon="20.1441935263574123382568359375">
        <ele>2087</ele>
        <time>2026-06-20T08:00:20.000Z</time>
        <extensions>
          <ns3:TrackPointExtension>
            <ns3:atemp>19.0</ns3:atemp>
          </ns3:TrackPointExtension>
        </extensions>
      </trkpt>
      <trkpt lat="42.54668860696256160736083984375" lon="20.1441935263574123382568359375">
        <ele>2087</ele>
        <time>2026-06-20T08:00:21.000Z</time>
        <extensions>
          <ns3:TrackPointExtension>
            <ns3:atemp>19.0</ns3:atemp>
          </ns3:TrackPointExtension>
        </extensions>
      </trkpt>
      <trkpt lat="42.54668860696256160736083984375" lon="20.1441935263574123382568359375">
        <ele>2087</ele>
        <time>2026-06-20T08:00:22.000Z</time>
        <extensions>
          <ns3:TrackPointExtension>
            <ns3:atemp>19.0</ns3:atemp>
          </ns3:TrackPointExtension>
        </extensions>
      </trkpt>
      <trkpt lat="42.54668860696256160736083984375" lon="20.1441935263574123382568359375">
        <ele>2087.199951171875</ele>
        <time>2026-06-20T08:00:23.000Z</time>
        <extensions>
          <ns3:TrackPointExtension>
            <ns3:atemp>19.0</ns3:atemp>
          </ns3:TrackPointExtension>
        </extensions>
      </trkpt>
      <trkpt lat="42.54668860696256160736083984375" lon="20.1441935263574123382568359375">
        <ele>2087.199951171875</ele>
        <time>2026-06-20T08:00:24.000Z</time>
        <extensions>
          <ns3:TrackPointExtension>
            <ns3:atemp>18.0</ns3:atemp>
          </ns3:TrackPointExtension>
        </extensions>
      </trkpt>
      <trkpt lat="42.54668860696256160736083984375" lon="20.1441935263574123382568359375">
        <ele>2087.199951171875</ele>
        <time>2026-06-20T08:00:25.000Z</time>
        <extensions>
          <ns3:TrackPointExtension>
            <ns3:atemp>18.0</ns3:atemp>
          </ns3:TrackPointExtension>
        </extensions>
      </trkpt>
      <trkpt lat="42.54668860696256160736083984375" lon="20.1441935263574123382568359375">
        <ele>2087.199951171875</ele>
        <time>2026-06-20T08:00:26.000Z</time>
        <extensions>
          <ns3:TrackPointExtension>
            <ns3:atemp>18.0</ns3:atemp>
          </ns3:TrackPointExtension>
        </extensions>
      </trkpt>
      <trkpt lat="42.54668860696256160736083984375" lon="20.1441935263574123382568359375">
        <ele>2087.199951171875</ele>
        <time>2026-06-20T08:00:27.000Z</time>
        <extensions>
          <ns3:TrackPointExtension>
            <ns3:atemp>18.0</ns3:atemp>
          </ns3:TrackPointExtension>
        </extensions>
      </trkpt>
      <trkpt lat="42.54668860696256160736083984375" lon="20.1441935263574123382568359375">
        <ele>2087.199951171875</ele>
        <time>2026-06-20T08:00:28.000Z</time>
        <extensions>
          <ns3:TrackPointExtension>
            <ns3:atemp>18.0</ns3:atemp>
          </ns3:TrackPointExtension>
        </extensions>
      </trkpt>
      <trkpt lat="42.54668860696256160736083984375" lon="20.1441935263574123382568359375">
        <ele>2087.199951171875</ele>
        <time>2026-06-20T08:00:29.000Z</time>
        <extensions>
          <ns3:TrackPointExtension>
            <ns3:atemp>18.0</ns3:atemp>
          </ns3:TrackPointExtension>
        </extensions>
      </trkpt>
      <trkpt lat="42.54668860696256160736083984375" lon="20.1441935263574123382568359375">
        <ele>2087.199951171875</ele>
        <time>2026-06-20T08:00:30.000Z</time>
        <extensions>
          <ns3:TrackPointExtension>
            <ns3:atemp>18.0</ns3:atemp>
          </ns3:TrackPointExtension>
        </extensions>
      </trkpt>
      <trkpt lat="42.54668860696256160736083984375" lon="20.1441935263574123382568359375">
        <ele>2087.199951171875</ele>
        <time>2026-06-20T08:00:31.000Z</time>
        <extensions>
          <ns3:TrackPointExtension>
            <ns3:atemp>18.0</ns3:atemp>
          </ns3:TrackPointExtension>
        </extensions>
      </trkpt>
      <trkpt lat="42.54668860696256160736083984375" lon="20.1441935263574123382568359375">
        <ele>2087.199951171875</ele>
        <time>2026-06-20T08:00:32.000Z</time>
        <extensions>
          <ns3:TrackPointExtension>
            <ns3:atemp>18.0</ns3:atemp>
          </ns3:TrackPointExtension>
        </extensions>
      </trkpt>
      <trkpt lat="42.54668860696256160736083984375" lon="20.1441935263574123382568359375">
        <ele>2087.199951171875</ele>
        <time>2026-06-20T08:00:33.000Z</time>
        <extensions>
          <ns3:TrackPointExtension>
            <ns3:atemp>19.0</ns3:atemp>
          </ns3:TrackPointExtension>
        </extensions>
      </trkpt>
      <trkpt lat="42.54668860696256160736083984375" lon="20.1441935263574123382568359375">
        <ele>2087.199951171875</ele>
        <time>2026-06-20T08:00:34.000Z</time>
        <extensions>
          <ns3:TrackPointExtension>
            <ns3:atemp>19.0</ns3:atemp>
          </ns3:TrackPointExtension>
        </extensions>
      </trkpt>
      <trkpt lat="42.54668860696256160736083984375" lon="20.1441935263574123382568359375">
        <ele>2087.199951171875</ele>
        <time>2026-06-20T08:00:35.000Z</time>
        <extensions>
          <ns3:TrackPointExtension>
            <ns3:atemp>19.0</ns3:atemp>
          </ns3:TrackPointExtension>
        </extensions>
      </trkpt>
      <trkpt lat="42.54668860696256160736083984375" lon="20.1441935263574123382568359375">
        <ele>2087.199951171875</ele>
        <time>2026-06-20T08:00:36.000Z</time>
        <extensions>
          <ns3:TrackPointExtension>
            <ns3:atemp>19.0</ns3:atemp>
          </ns3:TrackPointExtension>
        </extensions>
      </trkpt>
      <trkpt lat="42.54668860696256160736083984375" lon="20.1441935263574123382568359375">
        <ele>2087.199951171875</ele>
        <time>2026-06-20T08:00:37.000Z</time>
        <extensions>
          <ns3:TrackPointExtension>
            <ns3:atemp>19.0</ns3:atemp>
          </ns3:TrackPointExtension>
        </extensions>
      </trkpt>
      <trkpt lat="42.54668860696256160736083984375" lon="20.1441935263574123382568359375">
        <ele>2087.199951171875</ele>
        <time>2026-06-20T08:00:38.000Z</time>
        <extensions>
          <ns3:TrackPointExtension>
            <ns3:atemp>19.0</ns3:atemp>
          </ns3:TrackPointExtension>
        </extensions>
      </trkpt>
      <trkpt lat="42.54668860696256160736083984375" lon="20.1441935263574123382568359375">
        <ele>2087.199951171875</ele>
        <time>2026-06-20T08:00:39.000Z</time>
        <extensions>
          <ns3:TrackPointExtension>
            <ns3:atemp>19.0</ns3:atemp>
          </ns3:TrackPointExtension>
        </extensions>
      </trkpt>
      <trkpt lat="42.54668860696256160736083984375" lon="20.1441935263574123382568359375">
        <ele>2087.199951171875</ele>
        <time>2026-06-20T08:00:40.000Z</time>
        <extensions>
          <ns3:TrackPointExtension>
            <ns3:atemp>19.0</ns3:atemp>
          </ns3:TrackPointExtension>
        </extensions>
      </trkpt>
      <trkpt lat="42.54668860696256160736083984375" lon="20.1441935263574123382568359375">
        <ele>2087.199951171875</ele>
        <time>2026-06-20T08:00:41.000Z</time>
        <extensions>
          <ns3:TrackPointExtension>
            <ns3:atemp>18.0</ns3:atemp>
          </ns3:TrackPointExtension>
        </extensions>
      </trkpt>
      <trkpt lat="42.54668860696256160736083984375" lon="20.1441935263574123382568359375">
        <ele>2087.199951171875</ele>
        <time>2026-06-20T08:00:42.000Z</time>
        <extensions>
          <ns3:TrackPointExtension>
            <ns3:atemp>18.0</ns3:atemp>
          </ns3:TrackPointExtension>
        </extensions>
      </trkpt>
      <trkpt lat="42.54668860696256160736083984375" lon="20.1441935263574123382568359375">
        <ele>2087.199951171875</ele>
        <time>2026-06-20T08:00:43.000Z</time>
        <extensions>
          <ns3:TrackPointExtension>
            <ns3:atemp>18.0</ns3:atemp>
          </ns3:TrackPointExtension>
        </extensions>
      </trkpt>
      <trkpt lat="42.54668860696256160736083984375" lon="20.1441935263574123382568359375">
        <ele>2087.199951171875</ele>
        <time>2026-06-20T08:00:44.000Z</time>
        <extensions>
          <ns3:TrackPointExtension>
            <ns3:atemp>18.0</ns3:atemp>
          </ns3:TrackPointExtension>
        </extensions>
      </trkpt>
      <trkpt lat="42.54668860696256160736083984375" lon="20.1441935263574123382568359375">
        <ele>2087.199951171875</ele>
        <time>2026-06-20T08:00:45.000Z</time>
        <extensions>
          <ns3:TrackPointExtension>
            <ns3:atemp>18.0</ns3:atemp>
          </ns3:TrackPointExtension>
        </extensions>
      </trkpt>
      <trkpt lat="42.54668860696256160736083984375" lon="20.1441935263574123382568359375">
        <ele>2087.199951171875</ele>
        <time>2026-06-20T08:00:46.000Z</time>
        <extensions>
          <ns3:TrackPointExtension>
            <ns3:atemp>18.0</ns3:atemp>
          </ns3:TrackPointExtension>
        </extensions>
      </trkpt>
      <trkpt lat="42.54668860696256160736083984375" lon="20.1441935263574123382568359375">
        <ele>2087.199951171875</ele>
        <time>2026-06-20T08:00:47.000Z</time>
        <extensions>
          <ns3:TrackPointExtension>
            <ns3:atemp>18.0</ns3:atemp>
          </ns3:TrackPointExtension>
        </extensions>
      </trkpt>
      <trkpt lat="42.54668860696256160736083984375" lon="20.1441935263574123382568359375">
        <ele>2087.199951171875</ele>
        <time>2026-06-20T08:00:48.000Z</time>
        <extensions>
          <ns3:TrackPointExtension>
            <ns3:atemp>19.0</ns3:atemp>
          </ns3:TrackPointExtension>
        </extensions>
      </trkpt>
      <trkpt lat="42.54668860696256160736083984375" lon="20.1441935263574123382568359375">
        <ele>2087.199951171875</ele>
        <time>2026-06-20T08:00:49.000Z</time>
        <extensions>
          <ns3:TrackPointExtension>
            <ns3:atemp>19.0</ns3:atemp>
          </ns3:TrackPointExtension>
        </extensions>
      </trkpt>
      <trkpt lat="42.54668860696256160736083984375" lon="20.1441935263574123382568359375">
        <ele>2087.199951171875</ele>
        <time>2026-06-20T08:00:50.000Z</time>
        <extensions>
          <ns3:TrackPointExtension>
            <ns3:atemp>19.0</ns3:atemp>
          </ns3:TrackPointExtension>
        </extensions>
      </trkpt>
      <trkpt lat="42.54668860696256160736083984375" lon="20.1441935263574123382568359375">
        <ele>2087.199951171875</ele>
        <time>2026-06-20T08:00:51.000Z</time>
        <extensions>
          <ns3:TrackPointExtension>
            <ns3:atemp>19.0</ns3:atemp>
          </ns3:TrackPointExtension>
        </extensions>
      </trkpt>
      <trkpt lat="42.54668860696256160736083984375" lon="20.1441935263574123382568359375">
        <ele>2087.199951171875</ele>
        <time>2026-06-20T08:00:52.000Z</time>
        <extensions>
          <ns3:TrackPointExtension>
            <ns3:atemp>19.0</ns3:atemp>
          </ns3:TrackPointExtension>
        </extensions>
      </trkpt>
      <trkpt lat="42.54668860696256160736083984375" lon="20.1441935263574123382568359375">
        <ele>2087.199951171875</ele>
        <time>2026-06-20T08:00:53.000Z</time>
        <extensions>
          <ns3:TrackPointExtension>
            <ns3:atemp>19.0</ns3:atemp>
          </ns3:TrackPointExtension>
        </extensions>
      </trkpt>
      <trkpt lat="42.54668860696256160736083984375" lon="20.1441935263574123382568359375">
        <ele>2087.199951171875</ele>
        <time>2026-06-20T08:00:54.000Z</time>
        <extensions>
          <ns3:TrackPointExtension>
            <ns3:atemp>19.0</ns3:atemp>
          </ns3:TrackPointExtension>
        </extensions>
      </trkpt>
      <trkpt lat="42.54668860696256160736083984375" lon="20.1441935263574123382568359375">
        <ele>2087.199951171875</ele>
        <time>2026-06-20T08:00:55.000Z</time>
        <extensions>
          <ns3:TrackPointExtension>
            <ns3:atemp>19.0</ns3:atemp>
          </ns3:TrackPointExtension>
        </extensions>
      </trkpt>
      <trkpt lat="42.54668860696256160736083984375" lon="20.1441935263574123382568359375">
        <ele>2087.199951171875</ele>
        <time>2026-06-20T08:00:56.000Z</time>
        <extensions>
          <ns3:TrackPointExtension>
            <ns3:atemp>19.0</ns3:atemp>
          </ns3:TrackPointExtension>
        </extensions>
      </trkpt>
      <trkpt lat="42.54668860696256160736083984375" lon="20.1441935263574123382568359375">
        <ele>2087.199951171875</ele>
        <time>2026-06-20T08:00:57.000Z</time>
        <extensions>
          <ns3:TrackPointExtension>
            <ns3:atemp>19.0</ns3:atemp>
          </ns3:TrackPointExtension>
        </extensions>
      </trkpt>
      <trkpt lat="42.54668860696256160736083984375" lon="20.1441935263574123382568359375">
        <ele>2087.199951171875</ele>
        <time>2026-06-20T08:00:58.000Z</time>
        <extensions>
          <ns3:TrackPointExtension>
            <ns3:atemp>19.0</ns3:atemp>
          </ns3:TrackPointExtension>
        </extensions>
      </trkpt>
      <trkpt lat="42.54668860696256160736083984375" lon="20.1441935263574123382568359375">
        <ele>2087.199951171875</ele>
        <time>2026-06-20T08:00:59.000Z</time>
        <extensions>
          <ns3:TrackPointExtension>
            <ns3:atemp>19.0</ns3:atemp>
          </ns3:TrackPointExtension>
        </extensions>
      </trkpt>
      <trkpt lat="42.54668860696256160736083984375" lon="20.1441935263574123382568359375">
        <ele>2087.199951171875</ele>
        <time>2026-06-20T08:01:00.000Z</time>
        <extensions>
          <ns3:TrackPointExtension>
            <ns3:atemp>19.0</ns3:atemp>
          </ns3:TrackPointExtension>
        </extensions>
      </trkpt>
      <trkpt lat="42.54668542183935642242431640625" lon="20.14419511891901493072509765625">
        <ele>2087.199951171875</ele>
        <time>2026-06-20T08:01:01.000Z</time>
        <extensions>
          <ns3:TrackPointExtension>
            <ns3:atemp>19.0</ns3:atemp>
          </ns3:TrackPointExtension>
        </extensions>
      </trkpt>
      <trkpt lat="42.5466794706881046295166015625" lon="20.14420685358345508575439453125">
        <ele>2087.199951171875</ele>
        <time>2026-06-20T08:01:02.000Z</time>
        <extensions>
          <ns3:TrackPointExtension>
            <ns3:atemp>19.0</ns3:atemp>
          </ns3:TrackPointExtension>
        </extensions>
      </trkpt>
      <trkpt lat="42.54667553119361400604248046875" lon="20.1442112959921360015869140625">
        <ele>2087.199951171875</ele>
        <time>2026-06-20T08:01:03.000Z</time>
        <extensions>
          <ns3:TrackPointExtension>
            <ns3:atemp>19.0</ns3:atemp>
          </ns3:TrackPointExtension>
        </extensions>
      </trkpt>
      <trkpt lat="42.54667452536523342132568359375" lon="20.1442099548876285552978515625">
        <ele>2087.199951171875</ele>
        <time>2026-06-20T08:01:04.000Z</time>
        <extensions>
          <ns3:TrackPointExtension>
            <ns3:atemp>19.0</ns3:atemp>
          </ns3:TrackPointExtension>
        </extensions>
      </trkpt>
      <trkpt lat="42.5466744415462017059326171875" lon="20.14420987106859683990478515625">
        <ele>2087.199951171875</ele>
        <time>2026-06-20T08:01:05.000Z</time>
        <extensions>
          <ns3:TrackPointExtension>
            <ns3:atemp>19.0</ns3:atemp>
          </ns3:TrackPointExtension>
        </extensions>
      </trkpt>
      <trkpt lat="42.5466744415462017059326171875" lon="20.14420987106859683990478515625">
        <ele>2087.199951171875</ele>
        <time>2026-06-20T08:01:06.000Z</time>
        <extensions>
          <ns3:TrackPointExtension>
            <ns3:atemp>19.0</ns3:atemp>
          </ns3:TrackPointExtension>
        </extensions>
      </trkpt>
      <trkpt lat="42.5466744415462017059326171875" lon="20.14420987106859683990478515625">
        <ele>2087.199951171875</ele>
        <time>2026-06-20T08:01:07.000Z</time>
        <extensions>
          <ns3:TrackPointExtension>
            <ns3:atemp>19.0</ns3:atemp>
          </ns3:TrackPointExtension>
        </extensions>
      </trkpt>
      <trkpt lat="42.5466744415462017059326171875" lon="20.14420987106859683990478515625">
        <ele>2087.199951171875</ele>
        <time>2026-06-20T08:01:08.000Z</time>
        <extensions>
          <ns3:TrackPointExtension>
            <ns3:atemp>19.0</ns3:atemp>
          </ns3:TrackPointExtension>
        </extensions>
      </trkpt>
      <trkpt lat="42.5466744415462017059326171875" lon="20.14420987106859683990478515625">
        <ele>2087.199951171875</ele>
        <time>2026-06-20T08:01:09.000Z</time>
        <extensions>
          <ns3:TrackPointExtension>
            <ns3:atemp>19.0</ns3:atemp>
          </ns3:TrackPointExtension>
        </extensions>
      </trkpt>
      <trkpt lat="42.5466744415462017059326171875" lon="20.14420987106859683990478515625">
        <ele>2087.199951171875</ele>
        <time>2026-06-20T08:01:10.000Z</time>
        <extensions>
          <ns3:TrackPointExtension>
            <ns3:atemp>19.0</ns3:atemp>
          </ns3:TrackPointExtension>
        </extensions>
      </trkpt>
      <trkpt lat="42.5466744415462017059326171875" lon="20.14420987106859683990478515625">
        <ele>2087.199951171875</ele>
        <time>2026-06-20T08:01:11.000Z</time>
        <extensions>
          <ns3:TrackPointExtension>
            <ns3:atemp>19.0</ns3:atemp>
          </ns3:TrackPointExtension>
        </extensions>
      </trkpt>
      <trkpt lat="42.5466744415462017059326171875" lon="20.14420987106859683990478515625">
        <ele>2087.199951171875</ele>
        <time>2026-06-20T08:01:12.000Z</time>
        <extensions>
          <ns3:TrackPointExtension>
            <ns3:atemp>19.0</ns3:atemp>
          </ns3:TrackPointExtension>
        </extensions>
      </trkpt>
      <trkpt lat="42.5466744415462017059326171875" lon="20.14420987106859683990478515625">
        <ele>2087.199951171875</ele>
        <time>2026-06-20T08:01:13.000Z</time>
        <extensions>
          <ns3:TrackPointExtension>
            <ns3:atemp>19.0</ns3:atemp>
          </ns3:TrackPointExtension>
        </extensions>
      </trkpt>
      <trkpt lat="42.5466744415462017059326171875" lon="20.14420987106859683990478515625">
        <ele>2087.199951171875</ele>
        <time>2026-06-20T08:01:14.000Z</time>
        <extensions>
          <ns3:TrackPointExtension>
            <ns3:atemp>19.0</ns3:atemp>
          </ns3:TrackPointExtension>
        </extensions>
      </trkpt>
      <trkpt lat="42.5466732680797576904296875" lon="20.144209451973438262939453125">
        <ele>2087.199951171875</ele>
        <time>2026-06-20T08:01:15.000Z</time>
        <extensions>
          <ns3:TrackPointExtension>
            <ns3:atemp>19.0</ns3:atemp>
          </ns3:TrackPointExtension>
        </extensions>
      </trkpt>
      <trkpt lat="42.5466744415462017059326171875" lon="20.14420987106859683990478515625">
        <ele>2087.199951171875</ele>
        <time>2026-06-20T08:01:16.000Z</time>
        <extensions>
          <ns3:TrackPointExtension>
            <ns3:atemp>19.0</ns3:atemp>
          </ns3:TrackPointExtension>
        </extensions>
      </trkpt>
      <trkpt lat="42.5466744415462017059326171875" lon="20.14420987106859683990478515625">
        <ele>2088.39990234375</ele>
        <time>2026-06-20T08:01:17.000Z</time>
        <extensions>
          <ns3:TrackPointExtension>
            <ns3:atemp>19.0</ns3:atemp>
          </ns3:TrackPointExtension>
        </extensions>
      </trkpt>
      <trkpt lat="42.5466744415462017059326171875" lon="20.14420987106859683990478515625">
        <ele>2088.800048828125</ele>
        <time>2026-06-20T08:01:18.000Z</time>
        <extensions>
          <ns3:TrackPointExtension>
            <ns3:atemp>19.0</ns3:atemp>
          </ns3:TrackPointExtension>
        </extensions>
      </trkpt>
      <trkpt lat="42.546665556728839874267578125" lon="20.14420987106859683990478515625">
        <ele>2089</ele>
        <time>2026-06-20T08:01:19.000Z</time>
        <extensions>
          <ns3:TrackPointExtension>
            <ns3:atemp>19.0</ns3:atemp>
          </ns3:TrackPointExtension>
        </extensions>
      </trkpt>
      <trkpt lat="42.54665859974920749664306640625" lon="20.14422277919948101043701171875">
        <ele>2089.199951171875</ele>
        <time>2026-06-20T08:01:20.000Z</time>
        <extensions>
          <ns3:TrackPointExtension>
            <ns3:atemp>19.0</ns3:atemp>
          </ns3:TrackPointExtension>
        </extensions>
      </trkpt>
      <trkpt lat="42.54665910266339778900146484375" lon="20.14422990381717681884765625">
        <ele>2089.199951171875</ele>
        <time>2026-06-20T08:01:21.000Z</time>
        <extensions>
          <ns3:TrackPointExtension>
            <ns3:atemp>19.0</ns3:atemp>
          </ns3:TrackPointExtension>
        </extensions>
      </trkpt>
      <trkpt lat="42.5466571748256683349609375" lon="20.14423392713069915771484375">
        <ele>2089</ele>
        <time>2026-06-20T08:01:22.000Z</time>
        <extensions>
          <ns3:TrackPointExtension>
            <ns3:atemp>19.0</ns3:atemp>
          </ns3:TrackPointExtension>
        </extensions>
      </trkpt>
      <trkpt lat="42.54665256477892398834228515625" lon="20.144239626824855804443359375">
        <ele>2089</ele>
        <time>2026-06-20T08:01:23.000Z</time>
        <extensions>
          <ns3:TrackPointExtension>
            <ns3:atemp>19.0</ns3:atemp>
          </ns3:TrackPointExtension>
        </extensions>
      </trkpt>
      <trkpt lat="42.5466459430754184722900390625" lon="20.14424507506191730499267578125">
        <ele>2089</ele>
        <time>2026-06-20T08:01:24.000Z</time>
        <extensions>
          <ns3:TrackPointExtension>
            <ns3:atemp>19.0</ns3:atemp>
          </ns3:TrackPointExtension>
        </extensions>
      </trkpt>
      <trkpt lat="42.54664032720029354095458984375" lon="20.14424867928028106689453125">
        <ele>2089.199951171875</ele>
        <time>2026-06-20T08:01:25.000Z</time>
        <extensions>
          <ns3:TrackPointExtension>
            <ns3:atemp>19.0</ns3:atemp>
          </ns3:TrackPointExtension>
        </extensions>
      </trkpt>
      <trkpt lat="42.5466365553438663482666015625" lon="20.14425404369831085205078125">
        <ele>2089.39990234375</ele>
        <time>2026-06-20T08:01:26.000Z</time>
        <extensions>
          <ns3:TrackPointExtension>
            <ns3:atemp>19.0</ns3:atemp>
          </ns3:TrackPointExtension>
        </extensions>
      </trkpt>
      <trkpt lat="42.54663496278226375579833984375" lon="20.144262425601482391357421875">
        <ele>2089.60009765625</ele>
        <time>2026-06-20T08:01:27.000Z</time>
        <extensions>
          <ns3:TrackPointExtension>
            <ns3:atemp>19.0</ns3:atemp>
          </ns3:TrackPointExtension>
        </extensions>
      </trkpt>
      <trkpt lat="42.54663169384002685546875" lon="20.1442679576575756072998046875">
        <ele>2089.800048828125</ele>
        <time>2026-06-20T08:01:28.000Z</time>
        <extensions>
          <ns3:TrackPointExtension>
            <ns3:atemp>19.0</ns3:atemp>
          </ns3:TrackPointExtension>
        </extensions>
      </trkpt>
      <trkpt lat="42.546629346907138824462890625" lon="20.14427692629396915435791015625">
        <ele>2089.800048828125</ele>
        <time>2026-06-20T08:01:29.000Z</time>
        <extensions>
          <ns3:TrackPointExtension>
            <ns3:atemp>19.0</ns3:atemp>
          </ns3:TrackPointExtension>
        </extensions>
      </trkpt>
      <trkpt lat="42.546626664698123931884765625" lon="20.14428514055907726287841796875">
        <ele>2090</ele>
        <time>2026-06-20T08:01:30.000Z</time>
        <extensions>
          <ns3:TrackPointExtension>
            <ns3:atemp>19.0</ns3:atemp>
          </ns3:TrackPointExtension>
        </extensions>
      </trkpt>
      <trkpt lat="42.54662205465137958526611328125" lon="20.14428983442485332489013671875">
        <ele>2090.199951171875</ele>
        <time>2026-06-20T08:01:31.000Z</time>
        <extensions>
          <ns3:TrackPointExtension>
            <ns3:atemp>19.0</ns3:atemp>
          </ns3:TrackPointExtension>
        </extensions>
      </trkpt>
      <trkpt lat="42.54662205465137958526611328125" lon="20.144289918243885040283203125">
        <ele>2090.199951171875</ele>
        <time>2026-06-20T08:01:32.000Z</time>
        <extensions>
          <ns3:TrackPointExtension>
            <ns3:atemp>19.0</ns3:atemp>
          </ns3:TrackPointExtension>
        </extensions>
      </trkpt>
      <trkpt lat="42.54662205465137958526611328125" lon="20.144289918243885040283203125">
        <ele>2090.39990234375</ele>
        <time>2026-06-20T08:01:33.000Z</time>
        <extensions>
          <ns3:TrackPointExtension>
            <ns3:atemp>19.0</ns3:atemp>
          </ns3:TrackPointExtension>
        </extensions>
      </trkpt>
      <trkpt lat="42.54662205465137958526611328125" lon="20.144289918243885040283203125">
        <ele>2090.39990234375</ele>
        <time>2026-06-20T08:01:34.000Z</time>
        <extensions>
          <ns3:TrackPointExtension>
            <ns3:atemp>19.0</ns3:atemp>
          </ns3:TrackPointExtension>
        </extensions>
      </trkpt>
      <trkpt lat="42.54662205465137958526611328125" lon="20.144289918243885040283203125">
        <ele>2090.39990234375</ele>
        <time>2026-06-20T08:01:35.000Z</time>
        <extensions>
          <ns3:TrackPointExtension>
            <ns3:atemp>19.0</ns3:atemp>
          </ns3:TrackPointExtension>
        </extensions>
      </trkpt>
      <trkpt lat="42.54662205465137958526611328125" lon="20.144289918243885040283203125">
        <ele>2090.39990234375</ele>
        <time>2026-06-20T08:01:36.000Z</time>
        <extensions>
          <ns3:TrackPointExtension>
            <ns3:atemp>19.0</ns3:atemp>
          </ns3:TrackPointExtension>
        </extensions>
      </trkpt>
      <trkpt lat="42.5466218031942844390869140625" lon="20.14429000206291675567626953125">
        <ele>2090.39990234375</ele>
        <time>2026-06-20T08:01:37.000Z</time>
        <extensions>
          <ns3:TrackPointExtension>
            <ns3:atemp>19.0</ns3:atemp>
          </ns3:TrackPointExtension>
        </extensions>
      </trkpt>
      <trkpt lat="42.54661886952817440032958984375" lon="20.1442961208522319793701171875">
        <ele>2090.60009765625</ele>
        <time>2026-06-20T08:01:38.000Z</time>
        <extensions>
          <ns3:TrackPointExtension>
            <ns3:atemp>19.0</ns3:atemp>
          </ns3:TrackPointExtension>
        </extensions>
      </trkpt>
      <trkpt lat="42.546615265309810638427734375" lon="20.14430106617510318756103515625">
        <ele>2090.60009765625</ele>
        <time>2026-06-20T08:01:39.000Z</time>
        <extensions>
          <ns3:TrackPointExtension>
            <ns3:atemp>19.0</ns3:atemp>
          </ns3:TrackPointExtension>
        </extensions>
      </trkpt>
      <trkpt lat="42.5466137565672397613525390625" lon="20.14430156908929347991943359375">
        <ele>2090.800048828125</ele>
        <time>2026-06-20T08:01:40.000Z</time>
        <extensions>
          <ns3:TrackPointExtension>
            <ns3:atemp>19.0</ns3:atemp>
          </ns3:TrackPointExtension>
        </extensions>
      </trkpt>
      <trkpt lat="42.54662205465137958526611328125" lon="20.144289918243885040283203125">
        <ele>2091</ele>
        <time>2026-06-20T08:01:41.000Z</time>
        <extensions>
          <ns3:TrackPointExtension>
            <ns3:atemp>19.0</ns3:atemp>
          </ns3:TrackPointExtension>
        </extensions>
      </trkpt>
      <trkpt lat="42.54662205465137958526611328125" lon="20.144289918243885040283203125">
        <ele>2091</ele>
        <time>2026-06-20T08:01:42.000Z</time>
        <extensions>
          <ns3:TrackPointExtension>
            <ns3:atemp>19.0</ns3:atemp>
          </ns3:TrackPointExtension>
        </extensions>
      </trkpt>
      <trkpt lat="42.54661987535655498504638671875" lon="20.14429754577577114105224609375">
        <ele>2091.199951171875</ele>
        <time>2026-06-20T08:01:43.000Z</time>
        <extensions>
          <ns3:TrackPointExtension>
            <ns3:atemp>19.0</ns3:atemp>
          </ns3:TrackPointExtension>
        </extensions>
      </trkpt>
      <trkpt lat="42.54662356339395046234130859375" lon="20.14430374838411808013916015625">
        <ele>2091.199951171875</ele>
        <time>2026-06-20T08:01:44.000Z</time>
        <extensions>
          <ns3:TrackPointExtension>
            <ns3:atemp>19.0</ns3:atemp>
          </ns3:TrackPointExtension>
        </extensions>
      </trkpt>
      <trkpt lat="42.5466276705265045166015625" lon="20.14431028626859188079833984375">
        <ele>2091.39990234375</ele>
        <time>2026-06-20T08:01:45.000Z</time>
        <extensions>
          <ns3:TrackPointExtension>
            <ns3:atemp>19.0</ns3:atemp>
          </ns3:TrackPointExtension>
        </extensions>
      </trkpt>
      <trkpt lat="42.54662490449845790863037109375" lon="20.14432118274271488189697265625">
        <ele>2091.60009765625</ele>
        <time>2026-06-20T08:01:46.000Z</time>
        <extensions>
          <ns3:TrackPointExtension>
            <ns3:atemp>19.0</ns3:atemp>
          </ns3:TrackPointExtension>
        </extensions>
      </trkpt>
      <trkpt lat="42.54662238992750644683837890625" lon="20.14432470314204692840576171875">
        <ele>2092</ele>
        <time>2026-06-20T08:01:47.000Z</time>
        <extensions>
          <ns3:TrackPointExtension>
            <ns3:atemp>19.0</ns3:atemp>
          </ns3:TrackPointExtension>
        </extensions>
      </trkpt>
      <trkpt lat="42.54662021063268184661865234375" lon="20.14432654716074466705322265625">
        <ele>2092.199951171875</ele>
        <time>2026-06-20T08:01:48.000Z</time>
        <extensions>
          <ns3:TrackPointExtension>
            <ns3:atemp>19.0</ns3:atemp>
          </ns3:TrackPointExtension>
        </extensions>
      </trkpt>
      <trkpt lat="42.54661836661398410797119140625" lon="20.14433291740715503692626953125">
        <ele>2092.60009765625</ele>
        <time>2026-06-20T08:01:49.000Z</time>
        <extensions>
          <ns3:TrackPointExtension>
            <ns3:atemp>19.0</ns3:atemp>
          </ns3:TrackPointExtension>
        </extensions>
      </trkpt>
      <trkpt lat="42.54661886952817440032958984375" lon="20.14434515498578548431396484375">
        <ele>2092.800048828125</ele>
        <time>2026-06-20T08:01:50.000Z</time>
        <extensions>
          <ns3:TrackPointExtension>
            <ns3:atemp>19.0</ns3:atemp>
          </ns3:TrackPointExtension>
        </extensions>
      </trkpt>
      <trkpt lat="42.54662054590880870819091796875" lon="20.14435571618378162384033203125">
        <ele>2093</ele>
        <time>2026-06-20T08:01:51.000Z</time>
        <extensions>
          <ns3:TrackPointExtension>
            <ns3:atemp>19.0</ns3:atemp>
          </ns3:TrackPointExtension>
        </extensions>
      </trkpt>
      <trkpt lat="42.5466228090226650238037109375" lon="20.1443665288388729095458984375">
        <ele>2093.199951171875</ele>
        <time>2026-06-20T08:01:52.000Z</time>
        <extensions>
          <ns3:TrackPointExtension>
            <ns3:atemp>19.0</ns3:atemp>
          </ns3:TrackPointExtension>
        </extensions>
      </trkpt>
      <trkpt lat="42.5466204620897769927978515625" lon="20.14437013305723667144775390625">
        <ele>2093.199951171875</ele>
        <time>2026-06-20T08:01:53.000Z</time>
        <extensions>
          <ns3:TrackPointExtension>
            <ns3:atemp>19.0</ns3:atemp>
          </ns3:TrackPointExtension>
        </extensions>
      </trkpt>
      <trkpt lat="42.5466174446046352386474609375" lon="20.14437264762818813323974609375">
        <ele>2093.199951171875</ele>
        <time>2026-06-20T08:01:54.000Z</time>
        <extensions>
          <ns3:TrackPointExtension>
            <ns3:atemp>19.0</ns3:atemp>
          </ns3:TrackPointExtension>
        </extensions>
      </trkpt>
      <trkpt lat="42.54661903716623783111572265625" lon="20.14436828903853893280029296875">
        <ele>2093</ele>
        <time>2026-06-20T08:01:55.000Z</time>
        <extensions>
          <ns3:TrackPointExtension>
            <ns3:atemp>19.0</ns3:atemp>
          </ns3:TrackPointExtension>
        </extensions>
      </trkpt>
      <trkpt lat="42.54661903716623783111572265625" lon="20.14436828903853893280029296875">
        <ele>2093</ele>
        <time>2026-06-20T08:01:56.000Z</time>
        <extensions>
          <ns3:TrackPointExtension>
            <ns3:atemp>19.0</ns3:atemp>
          </ns3:TrackPointExtension>
        </extensions>
      </trkpt>
      <trkpt lat="42.54661903716623783111572265625" lon="20.14436828903853893280029296875">
        <ele>2093.199951171875</ele>
        <time>2026-06-20T08:01:57.000Z</time>
        <extensions>
          <ns3:TrackPointExtension>
            <ns3:atemp>19.0</ns3:atemp>
          </ns3:TrackPointExtension>
        </extensions>
      </trkpt>
      <trkpt lat="42.5466191209852695465087890625" lon="20.1443785987794399261474609375">
        <ele>2093.199951171875</ele>
        <time>2026-06-20T08:01:58.000Z</time>
        <extensions>
          <ns3:TrackPointExtension>
            <ns3:atemp>19.0</ns3:atemp>
          </ns3:TrackPointExtension>
        </extensions>
      </trkpt>
      <trkpt lat="42.54661819897592067718505859375" lon="20.14438454993069171905517578125">
        <ele>2093.39990234375</ele>
        <time>2026-06-20T08:01:59.000Z</time>
        <extensions>
          <ns3:TrackPointExtension>
            <ns3:atemp>19.0</ns3:atemp>
          </ns3:TrackPointExtension>
        </extensions>
      </trkpt>
      <trkpt lat="42.5466196238994598388671875" lon="20.1443888247013092041015625">
        <ele>2093.39990234375</ele>
        <time>2026-06-20T08:02:00.000Z</time>
        <extensions>
          <ns3:TrackPointExtension>
            <ns3:atemp>19.0</ns3:atemp>
          </ns3:TrackPointExtension>
        </extensions>
      </trkpt>
      <trkpt lat="42.5466234795749187469482421875" lon="20.14438857324421405792236328125">
        <ele>2093.60009765625</ele>
        <time>2026-06-20T08:02:01.000Z</time>
        <extensions>
          <ns3:TrackPointExtension>
            <ns3:atemp>19.0</ns3:atemp>
          </ns3:TrackPointExtension>
        </extensions>
      </trkpt>
      <trkpt lat="42.54662054590880870819091796875" lon="20.144387818872928619384765625">
        <ele>2093.800048828125</ele>
        <time>2026-06-20T08:02:02.000Z</time>
        <extensions>
          <ns3:TrackPointExtension>
            <ns3:atemp>19.0</ns3:atemp>
          </ns3:TrackPointExtension>
        </extensions>
      </trkpt>
      <trkpt lat="42.54662004299461841583251953125" lon="20.14439175836741924285888671875">
        <ele>2093.800048828125</ele>
        <time>2026-06-20T08:02:03.000Z</time>
        <extensions>
          <ns3:TrackPointExtension>
            <ns3:atemp>19.0</ns3:atemp>
          </ns3:TrackPointExtension>
        </extensions>
      </trkpt>
      <trkpt lat="42.546617947518825531005859375" lon="20.14439125545322895050048828125">
        <ele>2093.800048828125</ele>
        <time>2026-06-20T08:02:04.000Z</time>
        <extensions>
          <ns3:TrackPointExtension>
            <ns3:atemp>19.0</ns3:atemp>
          </ns3:TrackPointExtension>
        </extensions>
      </trkpt>
      <trkpt lat="42.546617947518825531005859375" lon="20.14439125545322895050048828125">
        <ele>2093.800048828125</ele>
        <time>2026-06-20T08:02:05.000Z</time>
        <extensions>
          <ns3:TrackPointExtension>
            <ns3:atemp>19.0</ns3:atemp>
          </ns3:TrackPointExtension>
        </extensions>
      </trkpt>
      <trkpt lat="42.546617947518825531005859375" lon="20.14439125545322895050048828125">
        <ele>2093.800048828125</ele>
        <time>2026-06-20T08:02:06.000Z</time>
        <extensions>
          <ns3:TrackPointExtension>
            <ns3:atemp>19.0</ns3:atemp>
          </ns3:TrackPointExtension>
        </extensions>
      </trkpt>
      <trkpt lat="42.546617947518825531005859375" lon="20.14439125545322895050048828125">
        <ele>2093.800048828125</ele>
        <time>2026-06-20T08:02:07.000Z</time>
        <extensions>
          <ns3:TrackPointExtension>
            <ns3:atemp>19.0</ns3:atemp>
          </ns3:TrackPointExtension>
        </extensions>
      </trkpt>
      <trkpt lat="42.546617947518825531005859375" lon="20.14439125545322895050048828125">
        <ele>2094</ele>
        <time>2026-06-20T08:02:08.000Z</time>
        <extensions>
          <ns3:TrackPointExtension>
            <ns3:atemp>19.0</ns3:atemp>
          </ns3:TrackPointExtension>
        </extensions>
      </trkpt>
      <trkpt lat="42.546617947518825531005859375" lon="20.14439125545322895050048828125">
        <ele>2094</ele>
        <time>2026-06-20T08:02:09.000Z</time>
        <extensions>
          <ns3:TrackPointExtension>
            <ns3:atemp>19.0</ns3:atemp>
          </ns3:TrackPointExtension>
        </extensions>
      </trkpt>
      <trkpt lat="42.546617947518825531005859375" lon="20.14439125545322895050048828125">
        <ele>2094.199951171875</ele>
        <time>2026-06-20T08:02:10.000Z</time>
        <extensions>
          <ns3:TrackPointExtension>
            <ns3:atemp>19.0</ns3:atemp>
          </ns3:TrackPointExtension>
        </extensions>
      </trkpt>
      <trkpt lat="42.546618282794952392578125" lon="20.1443906687200069427490234375">
        <ele>2094.199951171875</ele>
        <time>2026-06-20T08:02:11.000Z</time>
        <extensions>
          <ns3:TrackPointExtension>
            <ns3:atemp>19.0</ns3:atemp>
          </ns3:TrackPointExtension>
        </extensions>
      </trkpt>
      <trkpt lat="42.54661786369979381561279296875" lon="20.14439460821449756622314453125">
        <ele>2094.39990234375</ele>
        <time>2026-06-20T08:02:12.000Z</time>
        <extensions>
          <ns3:TrackPointExtension>
            <ns3:atemp>19.0</ns3:atemp>
          </ns3:TrackPointExtension>
        </extensions>
      </trkpt>
      <trkpt lat="42.54661568440496921539306640625" lon="20.14440357685089111328125">
        <ele>2094.39990234375</ele>
        <time>2026-06-20T08:02:13.000Z</time>
        <extensions>
          <ns3:TrackPointExtension>
            <ns3:atemp>19.0</ns3:atemp>
          </ns3:TrackPointExtension>
        </extensions>
      </trkpt>
      <trkpt lat="42.54661417566239833831787109375" lon="20.14441137202084064483642578125">
        <ele>2094.39990234375</ele>
        <time>2026-06-20T08:02:14.000Z</time>
        <extensions>
          <ns3:TrackPointExtension>
            <ns3:atemp>19.0</ns3:atemp>
          </ns3:TrackPointExtension>
        </extensions>
      </trkpt>
      <trkpt lat="42.54661333747208118438720703125" lon="20.14441774226725101470947265625">
        <ele>2094.39990234375</ele>
        <time>2026-06-20T08:02:15.000Z</time>
        <extensions>
          <ns3:TrackPointExtension>
            <ns3:atemp>19.0</ns3:atemp>
          </ns3:TrackPointExtension>
        </extensions>
      </trkpt>
      <trkpt lat="42.5466093979775905609130859375" lon="20.144424699246883392333984375">
        <ele>2094.60009765625</ele>
        <time>2026-06-20T08:02:16.000Z</time>
        <extensions>
          <ns3:TrackPointExtension>
            <ns3:atemp>19.0</ns3:atemp>
          </ns3:TrackPointExtension>
        </extensions>
      </trkpt>
      <trkpt lat="42.546603865921497344970703125" lon="20.14442997984588146209716796875">
        <ele>2094.800048828125</ele>
        <time>2026-06-20T08:02:17.000Z</time>
        <extensions>
          <ns3:TrackPointExtension>
            <ns3:atemp>19.0</ns3:atemp>
          </ns3:TrackPointExtension>
        </extensions>
      </trkpt>
      <trkpt lat="42.54660076461732387542724609375" lon="20.1444335840642452239990234375">
        <ele>2095</ele>
        <time>2026-06-20T08:02:18.000Z</time>
        <extensions>
          <ns3:TrackPointExtension>
            <ns3:atemp>19.0</ns3:atemp>
          </ns3:TrackPointExtension>
        </extensions>
      </trkpt>
      <trkpt lat="42.54659875296056270599365234375" lon="20.1444429717957973480224609375">
        <ele>2095.39990234375</ele>
        <time>2026-06-20T08:02:19.000Z</time>
        <extensions>
          <ns3:TrackPointExtension>
            <ns3:atemp>19.0</ns3:atemp>
          </ns3:TrackPointExtension>
        </extensions>
      </trkpt>
      <trkpt lat="42.54659456200897693634033203125" lon="20.144458226859569549560546875">
        <ele>2095.60009765625</ele>
        <time>2026-06-20T08:02:20.000Z</time>
        <extensions>
          <ns3:TrackPointExtension>
            <ns3:atemp>19.0</ns3:atemp>
          </ns3:TrackPointExtension>
        </extensions>
      </trkpt>
      <trkpt lat="42.5465929694473743438720703125" lon="20.1444721408188343048095703125">
        <ele>2095.800048828125</ele>
        <time>2026-06-20T08:02:21.000Z</time>
        <extensions>
          <ns3:TrackPointExtension>
            <ns3:atemp>19.0</ns3:atemp>
          </ns3:TrackPointExtension>
        </extensions>
      </trkpt>
      <trkpt lat="42.546596825122833251953125" lon="20.144477672874927520751953125">
        <ele>2095.800048828125</ele>
        <time>2026-06-20T08:02:22.000Z</time>
        <extensions>
          <ns3:TrackPointExtension>
            <ns3:atemp>19.0</ns3:atemp>
          </ns3:TrackPointExtension>
        </extensions>
      </trkpt>
      <trkpt lat="42.546602524816989898681640625" lon="20.1444855518639087677001953125">
        <ele>2095.800048828125</ele>
        <time>2026-06-20T08:02:23.000Z</time>
        <extensions>
          <ns3:TrackPointExtension>
            <ns3:atemp>19.0</ns3:atemp>
          </ns3:TrackPointExtension>
        </extensions>
      </trkpt>
      <trkpt lat="42.54660311155021190643310546875" lon="20.14449250884354114532470703125">
        <ele>2096</ele>
        <time>2026-06-20T08:02:24.000Z</time>
        <extensions>
          <ns3:TrackPointExtension>
            <ns3:atemp>19.0</ns3:atemp>
          </ns3:TrackPointExtension>
        </extensions>
      </trkpt>
      <trkpt lat="42.546601854264736175537109375" lon="20.144495777785778045654296875">
        <ele>2096</ele>
        <time>2026-06-20T08:02:25.000Z</time>
        <extensions>
          <ns3:TrackPointExtension>
            <ns3:atemp>19.0</ns3:atemp>
          </ns3:TrackPointExtension>
        </extensions>
      </trkpt>
      <trkpt lat="42.54660277627408504486083984375" lon="20.1445016451179981231689453125">
        <ele>2096.199951171875</ele>
        <time>2026-06-20T08:02:26.000Z</time>
        <extensions>
          <ns3:TrackPointExtension>
            <ns3:atemp>19.0</ns3:atemp>
          </ns3:TrackPointExtension>
        </extensions>
      </trkpt>
      <trkpt lat="42.54660244099795818328857421875" lon="20.14450457878410816192626953125">
        <ele>2096.199951171875</ele>
        <time>2026-06-20T08:02:27.000Z</time>
        <extensions>
          <ns3:TrackPointExtension>
            <ns3:atemp>19.0</ns3:atemp>
          </ns3:TrackPointExtension>
        </extensions>
      </trkpt>
      <trkpt lat="42.54660177044570446014404296875" lon="20.14450558461248874664306640625">
        <ele>2096.39990234375</ele>
        <time>2026-06-20T08:02:28.000Z</time>
        <extensions>
          <ns3:TrackPointExtension>
            <ns3:atemp>19.0</ns3:atemp>
          </ns3:TrackPointExtension>
        </extensions>
      </trkpt>
      <trkpt lat="42.546595819294452667236328125" lon="20.1445083506405353546142578125">
        <ele>2096.60009765625</ele>
        <time>2026-06-20T08:02:29.000Z</time>
        <extensions>
          <ns3:TrackPointExtension>
            <ns3:atemp>19.0</ns3:atemp>
          </ns3:TrackPointExtension>
        </extensions>
      </trkpt>
      <trkpt lat="42.5465953163802623748779296875" lon="20.1445100270211696624755859375">
        <ele>2096.800048828125</ele>
        <time>2026-06-20T08:02:30.000Z</time>
        <extensions>
          <ns3:TrackPointExtension>
            <ns3:atemp>19.0</ns3:atemp>
          </ns3:TrackPointExtension>
        </extensions>
      </trkpt>
      <trkpt lat="42.54659540019929409027099609375" lon="20.1445100270211696624755859375">
        <ele>2097</ele>
        <time>2026-06-20T08:02:31.000Z</time>
        <extensions>
          <ns3:TrackPointExtension>
            <ns3:atemp>19.0</ns3:atemp>
          </ns3:TrackPointExtension>
        </extensions>
      </trkpt>
      <trkpt lat="42.546599172055721282958984375" lon="20.144521258771419525146484375">
        <ele>2097</ele>
        <time>2026-06-20T08:02:32.000Z</time>
        <extensions>
          <ns3:TrackPointExtension>
            <ns3:atemp>19.0</ns3:atemp>
          </ns3:TrackPointExtension>
        </extensions>
      </trkpt>
      <trkpt lat="42.54659959115087985992431640625" lon="20.14453039504587650299072265625">
        <ele>2097</ele>
        <time>2026-06-20T08:02:33.000Z</time>
        <extensions>
          <ns3:TrackPointExtension>
            <ns3:atemp>19.0</ns3:atemp>
          </ns3:TrackPointExtension>
        </extensions>
      </trkpt>
      <trkpt lat="42.546599172055721282958984375" lon="20.14454062096774578094482421875">
        <ele>2097</ele>
        <time>2026-06-20T08:02:34.000Z</time>
        <extensions>
          <ns3:TrackPointExtension>
            <ns3:atemp>19.0</ns3:atemp>
          </ns3:TrackPointExtension>
        </extensions>
      </trkpt>
      <trkpt lat="42.54660210572183132171630859375" lon="20.1445459015667438507080078125">
        <ele>2097</ele>
        <time>2026-06-20T08:02:35.000Z</time>
        <extensions>
          <ns3:TrackPointExtension>
            <ns3:atemp>19.0</ns3:atemp>
          </ns3:TrackPointExtension>
        </extensions>
      </trkpt>
      <trkpt lat="42.54660151898860931396484375" lon="20.1445539481937885284423828125">
        <ele>2097</ele>
        <time>2026-06-20T08:02:36.000Z</time>
        <extensions>
          <ns3:TrackPointExtension>
            <ns3:atemp>19.0</ns3:atemp>
          </ns3:TrackPointExtension>
        </extensions>
      </trkpt>
      <trkpt lat="42.5466006807982921600341796875" lon="20.1445636712014675140380859375">
        <ele>2097</ele>
        <time>2026-06-20T08:02:37.000Z</time>
        <extensions>
          <ns3:TrackPointExtension>
            <ns3:atemp>19.0</ns3:atemp>
          </ns3:TrackPointExtension>
        </extensions>
      </trkpt>
      <trkpt lat="42.54659657366573810577392578125" lon="20.14457599259912967681884765625">
        <ele>2097.199951171875</ele>
        <time>2026-06-20T08:02:38.000Z</time>
        <extensions>
          <ns3:TrackPointExtension>
            <ns3:atemp>19.0</ns3:atemp>
          </ns3:TrackPointExtension>
        </extensions>
      </trkpt>
      <trkpt lat="42.5465928018093109130859375" lon="20.14458596706390380859375">
        <ele>2097.39990234375</ele>
        <time>2026-06-20T08:02:39.000Z</time>
        <extensions>
          <ns3:TrackPointExtension>
            <ns3:atemp>19.0</ns3:atemp>
          </ns3:TrackPointExtension>
        </extensions>
      </trkpt>
      <trkpt lat="42.5465892814099788665771484375" lon="20.14459342695772647857666015625">
        <ele>2097.60009765625</ele>
        <time>2026-06-20T08:02:40.000Z</time>
        <extensions>
          <ns3:TrackPointExtension>
            <ns3:atemp>19.0</ns3:atemp>
          </ns3:TrackPointExtension>
        </extensions>
      </trkpt>
      <trkpt lat="42.54658718593418598175048828125" lon="20.14460382051765918731689453125">
        <ele>2098</ele>
        <time>2026-06-20T08:02:41.000Z</time>
        <extensions>
          <ns3:TrackPointExtension>
            <ns3:atemp>19.0</ns3:atemp>
          </ns3:TrackPointExtension>
        </extensions>
      </trkpt>
      <trkpt lat="42.5465912930667400360107421875" lon="20.1446059159934520721435546875">
        <ele>2098.199951171875</ele>
        <time>2026-06-20T08:02:42.000Z</time>
        <extensions>
          <ns3:TrackPointExtension>
            <ns3:atemp>19.0</ns3:atemp>
          </ns3:TrackPointExtension>
        </extensions>
      </trkpt>
      <trkpt lat="42.5465929694473743438720703125" lon="20.14461220242083072662353515625">
        <ele>2098.39990234375</ele>
        <time>2026-06-20T08:02:43.000Z</time>
        <extensions>
          <ns3:TrackPointExtension>
            <ns3:atemp>19.0</ns3:atemp>
          </ns3:TrackPointExtension>
        </extensions>
      </trkpt>
      <trkpt lat="42.546591460704803466796875" lon="20.144620835781097412109375">
        <ele>2098.39990234375</ele>
        <time>2026-06-20T08:02:44.000Z</time>
        <extensions>
          <ns3:TrackPointExtension>
            <ns3:atemp>19.0</ns3:atemp>
          </ns3:TrackPointExtension>
        </extensions>
      </trkpt>
      <trkpt lat="42.5465912930667400360107421875" lon="20.144624523818492889404296875">
        <ele>2098.60009765625</ele>
        <time>2026-06-20T08:02:45.000Z</time>
        <extensions>
          <ns3:TrackPointExtension>
            <ns3:atemp>19.0</ns3:atemp>
          </ns3:TrackPointExtension>
        </extensions>
      </trkpt>
      <trkpt lat="42.5465906225144863128662109375" lon="20.14463081024587154388427734375">
        <ele>2098.800048828125</ele>
        <time>2026-06-20T08:02:46.000Z</time>
        <extensions>
          <ns3:TrackPointExtension>
            <ns3:atemp>19.0</ns3:atemp>
          </ns3:TrackPointExtension>
        </extensions>
      </trkpt>
      <trkpt lat="42.54658970050513744354248046875" lon="20.14463852159678936004638671875">
        <ele>2099</ele>
        <time>2026-06-20T08:02:47.000Z</time>
        <extensions>
          <ns3:TrackPointExtension>
            <ns3:atemp>19.0</ns3:atemp>
          </ns3:TrackPointExtension>
        </extensions>
      </trkpt>
      <trkpt lat="42.54659087397158145904541015625" lon="20.14464673586189746856689453125">
        <ele>2099.199951171875</ele>
        <time>2026-06-20T08:02:48.000Z</time>
        <extensions>
          <ns3:TrackPointExtension>
            <ns3:atemp>19.0</ns3:atemp>
          </ns3:TrackPointExtension>
        </extensions>
      </trkpt>
      <trkpt lat="42.54659405909478664398193359375" lon="20.1446543633937835693359375">
        <ele>2099.199951171875</ele>
        <time>2026-06-20T08:02:49.000Z</time>
        <extensions>
          <ns3:TrackPointExtension>
            <ns3:atemp>19.0</ns3:atemp>
          </ns3:TrackPointExtension>
        </extensions>
      </trkpt>
      <trkpt lat="42.5465954840183258056640625" lon="20.14465847052633762359619140625">
        <ele>2099.39990234375</ele>
        <time>2026-06-20T08:02:50.000Z</time>
        <extensions>
          <ns3:TrackPointExtension>
            <ns3:atemp>19.0</ns3:atemp>
          </ns3:TrackPointExtension>
        </extensions>
      </trkpt>
      <trkpt lat="42.5465953163802623748779296875" lon="20.14466450549662113189697265625">
        <ele>2099.60009765625</ele>
        <time>2026-06-20T08:02:51.000Z</time>
        <extensions>
          <ns3:TrackPointExtension>
            <ns3:atemp>19.0</ns3:atemp>
          </ns3:TrackPointExtension>
        </extensions>
      </trkpt>
      <trkpt lat="42.54659338854253292083740234375" lon="20.144670791923999786376953125">
        <ele>2100</ele>
        <time>2026-06-20T08:02:52.000Z</time>
        <extensions>
          <ns3:TrackPointExtension>
            <ns3:atemp>19.0</ns3:atemp>
          </ns3:TrackPointExtension>
        </extensions>
      </trkpt>
      <trkpt lat="42.5465876050293445587158203125" lon="20.14467917382717132568359375">
        <ele>2100.199951171875</ele>
        <time>2026-06-20T08:02:53.000Z</time>
        <extensions>
          <ns3:TrackPointExtension>
            <ns3:atemp>19.0</ns3:atemp>
          </ns3:TrackPointExtension>
        </extensions>
      </trkpt>
      <trkpt lat="42.54658550955355167388916015625" lon="20.1446853764355182647705078125">
        <ele>2100.39990234375</ele>
        <time>2026-06-20T08:02:54.000Z</time>
        <extensions>
          <ns3:TrackPointExtension>
            <ns3:atemp>19.0</ns3:atemp>
          </ns3:TrackPointExtension>
        </extensions>
      </trkpt>
      <trkpt lat="42.54658517427742481231689453125" lon="20.1446917466819286346435546875">
        <ele>2100.60009765625</ele>
        <time>2026-06-20T08:02:55.000Z</time>
        <extensions>
          <ns3:TrackPointExtension>
            <ns3:atemp>19.0</ns3:atemp>
          </ns3:TrackPointExtension>
        </extensions>
      </trkpt>
      <trkpt lat="42.5465862639248371124267578125" lon="20.144696272909641265869140625">
        <ele>2100.800048828125</ele>
        <time>2026-06-20T08:02:56.000Z</time>
        <extensions>
          <ns3:TrackPointExtension>
            <ns3:atemp>19.0</ns3:atemp>
          </ns3:TrackPointExtension>
        </extensions>
      </trkpt>
      <trkpt lat="42.54658634774386882781982421875" lon="20.14469719491899013519287109375">
        <ele>2101</ele>
        <time>2026-06-20T08:02:57.000Z</time>
        <extensions>
          <ns3:TrackPointExtension>
            <ns3:atemp>19.0</ns3:atemp>
          </ns3:TrackPointExtension>
        </extensions>
      </trkpt>
      <trkpt lat="42.5465847551822662353515625" lon="20.1447058282792568206787109375">
        <ele>2101</ele>
        <time>2026-06-20T08:02:58.000Z</time>
        <extensions>
          <ns3:TrackPointExtension>
            <ns3:atemp>19.0</ns3:atemp>
          </ns3:TrackPointExtension>
        </extensions>
      </trkpt>
      <trkpt lat="42.54658366553485393524169921875" lon="20.1447078399360179901123046875">
        <ele>2101</ele>
        <time>2026-06-20T08:02:59.000Z</time>
        <extensions>
          <ns3:TrackPointExtension>
            <ns3:atemp>19.0</ns3:atemp>
          </ns3:TrackPointExtension>
        </extensions>
      </trkpt>
      <trkpt lat="42.54658366553485393524169921875" lon="20.144712030887603759765625">
        <ele>2101.199951171875</ele>
        <time>2026-06-20T08:03:00.000Z</time>
        <extensions>
          <ns3:TrackPointExtension>
            <ns3:atemp>19.0</ns3:atemp>
          </ns3:TrackPointExtension>
        </extensions>
      </trkpt>
      <trkpt lat="42.5465847551822662353515625" lon="20.1447162218391895294189453125">
        <ele>2101.199951171875</ele>
        <time>2026-06-20T08:03:01.000Z</time>
        <extensions>
          <ns3:TrackPointExtension>
            <ns3:atemp>19.0</ns3:atemp>
          </ns3:TrackPointExtension>
        </extensions>
      </trkpt>
      <trkpt lat="42.54658467136323451995849609375" lon="20.14472384937107563018798828125">
        <ele>2101.39990234375</ele>
        <time>2026-06-20T08:03:02.000Z</time>
        <extensions>
          <ns3:TrackPointExtension>
            <ns3:atemp>19.0</ns3:atemp>
          </ns3:TrackPointExtension>
        </extensions>
      </trkpt>
      <trkpt lat="42.54658601246774196624755859375" lon="20.14472887851297855377197265625">
        <ele>2101.39990234375</ele>
        <time>2026-06-20T08:03:03.000Z</time>
        <extensions>
          <ns3:TrackPointExtension>
            <ns3:atemp>19.0</ns3:atemp>
          </ns3:TrackPointExtension>
        </extensions>
      </trkpt>
      <trkpt lat="42.54658567719161510467529296875" lon="20.144735164940357208251953125">
        <ele>2101.60009765625</ele>
        <time>2026-06-20T08:03:04.000Z</time>
        <extensions>
          <ns3:TrackPointExtension>
            <ns3:atemp>19.0</ns3:atemp>
          </ns3:TrackPointExtension>
        </extensions>
      </trkpt>
      <trkpt lat="42.5465882755815982818603515625" lon="20.1447393558919429779052734375">
        <ele>2101.800048828125</ele>
        <time>2026-06-20T08:03:05.000Z</time>
        <extensions>
          <ns3:TrackPointExtension>
            <ns3:atemp>19.0</ns3:atemp>
          </ns3:TrackPointExtension>
        </extensions>
      </trkpt>
      <trkpt lat="42.546587102115154266357421875" lon="20.14474547468125820159912109375">
        <ele>2101.800048828125</ele>
        <time>2026-06-20T08:03:06.000Z</time>
        <extensions>
          <ns3:TrackPointExtension>
            <ns3:atemp>19.0</ns3:atemp>
          </ns3:TrackPointExtension>
        </extensions>
      </trkpt>
      <trkpt lat="42.54658785648643970489501953125" lon="20.1447517611086368560791015625">
        <ele>2102</ele>
        <time>2026-06-20T08:03:07.000Z</time>
        <extensions>
          <ns3:TrackPointExtension>
            <ns3:atemp>19.0</ns3:atemp>
          </ns3:TrackPointExtension>
        </extensions>
      </trkpt>
      <trkpt lat="42.54658718593418598175048828125" lon="20.14476357959210872650146484375">
        <ele>2102</ele>
        <time>2026-06-20T08:03:08.000Z</time>
        <extensions>
          <ns3:TrackPointExtension>
            <ns3:atemp>19.0</ns3:atemp>
          </ns3:TrackPointExtension>
        </extensions>
      </trkpt>
      <trkpt lat="42.54658668301999568939208984375" lon="20.1447725482285022735595703125">
        <ele>2102.199951171875</ele>
        <time>2026-06-20T08:03:09.000Z</time>
        <extensions>
          <ns3:TrackPointExtension>
            <ns3:atemp>19.0</ns3:atemp>
          </ns3:TrackPointExtension>
        </extensions>
      </trkpt>
      <trkpt lat="42.546586096286773681640625" lon="20.1447765715420246124267578125">
        <ele>2102.39990234375</ele>
        <time>2026-06-20T08:03:10.000Z</time>
        <extensions>
          <ns3:TrackPointExtension>
            <ns3:atemp>19.0</ns3:atemp>
          </ns3:TrackPointExtension>
        </extensions>
      </trkpt>
      <trkpt lat="42.54658265970647335052490234375" lon="20.1447819359600543975830078125">
        <ele>2102.60009765625</ele>
        <time>2026-06-20T08:03:11.000Z</time>
        <extensions>
          <ns3:TrackPointExtension>
            <ns3:atemp>19.0</ns3:atemp>
          </ns3:TrackPointExtension>
        </extensions>
      </trkpt>
      <trkpt lat="42.546581737697124481201171875" lon="20.14479073695838451385498046875">
        <ele>2102.800048828125</ele>
        <time>2026-06-20T08:03:12.000Z</time>
        <extensions>
          <ns3:TrackPointExtension>
            <ns3:atemp>19.0</ns3:atemp>
          </ns3:TrackPointExtension>
        </extensions>
      </trkpt>
      <trkpt lat="42.5465825758874416351318359375" lon="20.1447980292141437530517578125">
        <ele>2103</ele>
        <time>2026-06-20T08:03:13.000Z</time>
        <extensions>
          <ns3:TrackPointExtension>
            <ns3:atemp>19.0</ns3:atemp>
          </ns3:TrackPointExtension>
        </extensions>
      </trkpt>
      <trkpt lat="42.54658433608710765838623046875" lon="20.1448054052889347076416015625">
        <ele>2103.199951171875</ele>
        <time>2026-06-20T08:03:14.000Z</time>
        <extensions>
          <ns3:TrackPointExtension>
            <ns3:atemp>19.0</ns3:atemp>
          </ns3:TrackPointExtension>
        </extensions>
      </trkpt>
      <trkpt lat="42.546588443219661712646484375" lon="20.14480766840279102325439453125">
        <ele>2103.39990234375</ele>
        <time>2026-06-20T08:03:15.000Z</time>
        <extensions>
          <ns3:TrackPointExtension>
            <ns3:atemp>19.0</ns3:atemp>
          </ns3:TrackPointExtension>
        </extensions>
      </trkpt>
      <trkpt lat="42.54659221507608890533447265625" lon="20.14480850659310817718505859375">
        <ele>2103.39990234375</ele>
        <time>2026-06-20T08:03:16.000Z</time>
        <extensions>
          <ns3:TrackPointExtension>
            <ns3:atemp>19.0</ns3:atemp>
          </ns3:TrackPointExtension>
        </extensions>
      </trkpt>
      <trkpt lat="42.546597160398960113525390625" lon="20.14481504447758197784423828125">
        <ele>2103.60009765625</ele>
        <time>2026-06-20T08:03:17.000Z</time>
        <extensions>
          <ns3:TrackPointExtension>
            <ns3:atemp>19.0</ns3:atemp>
          </ns3:TrackPointExtension>
        </extensions>
      </trkpt>
      <trkpt lat="42.54660009406507015228271484375" lon="20.14482669532299041748046875">
        <ele>2103.60009765625</ele>
        <time>2026-06-20T08:03:18.000Z</time>
        <extensions>
          <ns3:TrackPointExtension>
            <ns3:atemp>19.0</ns3:atemp>
          </ns3:TrackPointExtension>
        </extensions>
      </trkpt>
      <trkpt lat="42.54660160280764102935791015625" lon="20.14483750797808170318603515625">
        <ele>2103.800048828125</ele>
        <time>2026-06-20T08:03:19.000Z</time>
        <extensions>
          <ns3:TrackPointExtension>
            <ns3:atemp>19.0</ns3:atemp>
          </ns3:TrackPointExtension>
        </extensions>
      </trkpt>
      <trkpt lat="42.54660059697926044464111328125" lon="20.144848488271236419677734375">
        <ele>2104</ele>
        <time>2026-06-20T08:03:20.000Z</time>
        <extensions>
          <ns3:TrackPointExtension>
            <ns3:atemp>19.0</ns3:atemp>
          </ns3:TrackPointExtension>
        </extensions>
      </trkpt>
      <trkpt lat="42.5465939752757549285888671875" lon="20.14486164785921573638916015625">
        <ele>2104</ele>
        <time>2026-06-20T08:03:21.000Z</time>
        <extensions>
          <ns3:TrackPointExtension>
            <ns3:atemp>19.0</ns3:atemp>
          </ns3:TrackPointExtension>
        </extensions>
      </trkpt>
      <trkpt lat="42.54659037105739116668701171875" lon="20.14486751519143581390380859375">
        <ele>2104.199951171875</ele>
        <time>2026-06-20T08:03:22.000Z</time>
        <extensions>
          <ns3:TrackPointExtension>
            <ns3:atemp>19.0</ns3:atemp>
          </ns3:TrackPointExtension>
        </extensions>
      </trkpt>
      <trkpt lat="42.54658869467675685882568359375" lon="20.1448711194097995758056640625">
        <ele>2104.39990234375</ele>
        <time>2026-06-20T08:03:23.000Z</time>
        <extensions>
          <ns3:TrackPointExtension>
            <ns3:atemp>20.0</ns3:atemp>
          </ns3:TrackPointExtension>
        </extensions>
      </trkpt>
      <trkpt lat="42.54659087397158145904541015625" lon="20.1448714546859264373779296875">
        <ele>2104.60009765625</ele>
        <time>2026-06-20T08:03:24.000Z</time>
        <extensions>
          <ns3:TrackPointExtension>
            <ns3:atemp>20.0</ns3:atemp>
          </ns3:TrackPointExtension>
        </extensions>
      </trkpt>
      <trkpt lat="42.54658986814320087432861328125" lon="20.14487321488559246063232421875">
        <ele>2104.800048828125</ele>
        <time>2026-06-20T08:03:25.000Z</time>
        <extensions>
          <ns3:TrackPointExtension>
            <ns3:atemp>20.0</ns3:atemp>
          </ns3:TrackPointExtension>
        </extensions>
      </trkpt>
      <trkpt lat="42.54659213125705718994140625" lon="20.1448714546859264373779296875">
        <ele>2105</ele>
        <time>2026-06-20T08:03:26.000Z</time>
        <extensions>
          <ns3:TrackPointExtension>
            <ns3:atemp>20.0</ns3:atemp>
          </ns3:TrackPointExtension>
        </extensions>
      </trkpt>
      <trkpt lat="42.5465916283428668975830078125" lon="20.14487673528492450714111328125">
        <ele>2105.199951171875</ele>
        <time>2026-06-20T08:03:27.000Z</time>
        <extensions>
          <ns3:TrackPointExtension>
            <ns3:atemp>20.0</ns3:atemp>
          </ns3:TrackPointExtension>
        </extensions>
      </trkpt>
      <trkpt lat="42.546592466533184051513671875" lon="20.14488025568425655364990234375">
        <ele>2105.39990234375</ele>
        <time>2026-06-20T08:03:28.000Z</time>
        <extensions>
          <ns3:TrackPointExtension>
            <ns3:atemp>20.0</ns3:atemp>
          </ns3:TrackPointExtension>
        </extensions>
      </trkpt>
      <trkpt lat="42.54659087397158145904541015625" lon="20.14488377608358860015869140625">
        <ele>2105.39990234375</ele>
        <time>2026-06-20T08:03:29.000Z</time>
        <extensions>
          <ns3:TrackPointExtension>
            <ns3:atemp>20.0</ns3:atemp>
          </ns3:TrackPointExtension>
        </extensions>
      </trkpt>
      <trkpt lat="42.54658936522901058197021484375" lon="20.1448877155780792236328125">
        <ele>2105.60009765625</ele>
        <time>2026-06-20T08:03:30.000Z</time>
        <extensions>
          <ns3:TrackPointExtension>
            <ns3:atemp>20.0</ns3:atemp>
          </ns3:TrackPointExtension>
        </extensions>
      </trkpt>
      <trkpt lat="42.5465859286487102508544921875" lon="20.144893415272235870361328125">
        <ele>2105.60009765625</ele>
        <time>2026-06-20T08:03:31.000Z</time>
        <extensions>
          <ns3:TrackPointExtension>
            <ns3:atemp>20.0</ns3:atemp>
          </ns3:TrackPointExtension>
        </extensions>
      </trkpt>
      <trkpt lat="42.5465768761932849884033203125" lon="20.14489668421447277069091796875">
        <ele>2105.800048828125</ele>
        <time>2026-06-20T08:03:32.000Z</time>
        <extensions>
          <ns3:TrackPointExtension>
            <ns3:atemp>20.0</ns3:atemp>
          </ns3:TrackPointExtension>
        </extensions>
      </trkpt>
      <trkpt lat="42.54657377488911151885986328125" lon="20.144899450242519378662109375">
        <ele>2105.800048828125</ele>
        <time>2026-06-20T08:03:33.000Z</time>
        <extensions>
          <ns3:TrackPointExtension>
            <ns3:atemp>20.0</ns3:atemp>
          </ns3:TrackPointExtension>
        </extensions>
      </trkpt>
      <trkpt lat="42.54657377488911151885986328125" lon="20.144899450242519378662109375">
        <ele>2105.800048828125</ele>
        <time>2026-06-20T08:03:34.000Z</time>
        <extensions>
          <ns3:TrackPointExtension>
            <ns3:atemp>20.0</ns3:atemp>
          </ns3:TrackPointExtension>
        </extensions>
      </trkpt>
      <trkpt lat="42.54657377488911151885986328125" lon="20.144899450242519378662109375">
        <ele>2105.800048828125</ele>
        <time>2026-06-20T08:03:35.000Z</time>
        <extensions>
          <ns3:TrackPointExtension>
            <ns3:atemp>20.0</ns3:atemp>
          </ns3:TrackPointExtension>
        </extensions>
      </trkpt>
      <trkpt lat="42.54657411016523838043212890625" lon="20.1448992826044559478759765625">
        <ele>2105.800048828125</ele>
        <time>2026-06-20T08:03:36.000Z</time>
        <extensions>
          <ns3:TrackPointExtension>
            <ns3:atemp>20.0</ns3:atemp>
          </ns3:TrackPointExtension>
        </extensions>
      </trkpt>
      <trkpt lat="42.54657511599361896514892578125" lon="20.14490037225186824798583984375">
        <ele>2105.800048828125</ele>
        <time>2026-06-20T08:03:37.000Z</time>
        <extensions>
          <ns3:TrackPointExtension>
            <ns3:atemp>20.0</ns3:atemp>
          </ns3:TrackPointExtension>
        </extensions>
      </trkpt>
      <trkpt lat="42.54657394252717494964599609375" lon="20.14490422792732715606689453125">
        <ele>2106</ele>
        <time>2026-06-20T08:03:38.000Z</time>
        <extensions>
          <ns3:TrackPointExtension>
            <ns3:atemp>20.0</ns3:atemp>
          </ns3:TrackPointExtension>
        </extensions>
      </trkpt>
      <trkpt lat="42.5465644709765911102294921875" lon="20.14490858651697635650634765625">
        <ele>2106.199951171875</ele>
        <time>2026-06-20T08:03:39.000Z</time>
        <extensions>
          <ns3:TrackPointExtension>
            <ns3:atemp>20.0</ns3:atemp>
          </ns3:TrackPointExtension>
        </extensions>
      </trkpt>
      <trkpt lat="42.54655516706407070159912109375" lon="20.14491093344986438751220703125">
        <ele>2106.39990234375</ele>
        <time>2026-06-20T08:03:40.000Z</time>
        <extensions>
          <ns3:TrackPointExtension>
            <ns3:atemp>20.0</ns3:atemp>
          </ns3:TrackPointExtension>
        </extensions>
      </trkpt>
      <trkpt lat="42.54654460586607456207275390625" lon="20.144913196563720703125">
        <ele>2106.60009765625</ele>
        <time>2026-06-20T08:03:41.000Z</time>
        <extensions>
          <ns3:TrackPointExtension>
            <ns3:atemp>20.0</ns3:atemp>
          </ns3:TrackPointExtension>
        </extensions>
      </trkpt>
      <trkpt lat="42.54653622396290302276611328125" lon="20.1449130289256572723388671875">
        <ele>2106.800048828125</ele>
        <time>2026-06-20T08:03:42.000Z</time>
        <extensions>
          <ns3:TrackPointExtension>
            <ns3:atemp>20.0</ns3:atemp>
          </ns3:TrackPointExtension>
        </extensions>
      </trkpt>
      <trkpt lat="42.54653035663068294525146484375" lon="20.1449147053062915802001953125">
        <ele>2106.800048828125</ele>
        <time>2026-06-20T08:03:43.000Z</time>
        <extensions>
          <ns3:TrackPointExtension>
            <ns3:atemp>20.0</ns3:atemp>
          </ns3:TrackPointExtension>
        </extensions>
      </trkpt>
      <trkpt lat="42.5465259142220020294189453125" lon="20.144919566810131072998046875">
        <ele>2106.800048828125</ele>
        <time>2026-06-20T08:03:44.000Z</time>
        <extensions>
          <ns3:TrackPointExtension>
            <ns3:atemp>20.0</ns3:atemp>
          </ns3:TrackPointExtension>
        </extensions>
      </trkpt>
      <trkpt lat="42.54651929251849651336669921875" lon="20.144922249019145965576171875">
        <ele>2107</ele>
        <time>2026-06-20T08:03:45.000Z</time>
        <extensions>
          <ns3:TrackPointExtension>
            <ns3:atemp>20.0</ns3:atemp>
          </ns3:TrackPointExtension>
        </extensions>
      </trkpt>
      <trkpt lat="42.54651292227208614349365234375" lon="20.14492459595203399658203125">
        <ele>2107</ele>
        <time>2026-06-20T08:03:46.000Z</time>
        <extensions>
          <ns3:TrackPointExtension>
            <ns3:atemp>20.0</ns3:atemp>
          </ns3:TrackPointExtension>
        </extensions>
      </trkpt>
      <trkpt lat="42.54650990478694438934326171875" lon="20.14492996037006378173828125">
        <ele>2107.199951171875</ele>
        <time>2026-06-20T08:03:47.000Z</time>
        <extensions>
          <ns3:TrackPointExtension>
            <ns3:atemp>20.0</ns3:atemp>
          </ns3:TrackPointExtension>
        </extensions>
      </trkpt>
      <trkpt lat="42.54650386981666088104248046875" lon="20.14493591152131557464599609375">
        <ele>2107.39990234375</ele>
        <time>2026-06-20T08:03:48.000Z</time>
        <extensions>
          <ns3:TrackPointExtension>
            <ns3:atemp>20.0</ns3:atemp>
          </ns3:TrackPointExtension>
        </extensions>
      </trkpt>
      <trkpt lat="42.5464974157512187957763671875" lon="20.144939012825489044189453125">
        <ele>2107.199951171875</ele>
        <time>2026-06-20T08:03:49.000Z</time>
        <extensions>
          <ns3:TrackPointExtension>
            <ns3:atemp>20.0</ns3:atemp>
          </ns3:TrackPointExtension>
        </extensions>
      </trkpt>
      <trkpt lat="42.5464930571615695953369140625" lon="20.14493934810161590576171875">
        <ele>2107.199951171875</ele>
        <time>2026-06-20T08:03:50.000Z</time>
        <extensions>
          <ns3:TrackPointExtension>
            <ns3:atemp>20.0</ns3:atemp>
          </ns3:TrackPointExtension>
        </extensions>
      </trkpt>
      <trkpt lat="42.5464881956577301025390625" lon="20.14493532478809356689453125">
        <ele>2107.199951171875</ele>
        <time>2026-06-20T08:03:51.000Z</time>
        <extensions>
          <ns3:TrackPointExtension>
            <ns3:atemp>20.0</ns3:atemp>
          </ns3:TrackPointExtension>
        </extensions>
      </trkpt>
      <trkpt lat="42.54648291505873203277587890625" lon="20.14493758790194988250732421875">
        <ele>2107</ele>
        <time>2026-06-20T08:03:52.000Z</time>
        <extensions>
          <ns3:TrackPointExtension>
            <ns3:atemp>20.0</ns3:atemp>
          </ns3:TrackPointExtension>
        </extensions>
      </trkpt>
      <trkpt lat="42.54647822119295597076416015625" lon="20.1449415273964405059814453125">
        <ele>2107</ele>
        <time>2026-06-20T08:03:53.000Z</time>
        <extensions>
          <ns3:TrackPointExtension>
            <ns3:atemp>20.0</ns3:atemp>
          </ns3:TrackPointExtension>
        </extensions>
      </trkpt>
      <trkpt lat="42.54648257978260517120361328125" lon="20.14494295231997966766357421875">
        <ele>2106.800048828125</ele>
        <time>2026-06-20T08:03:54.000Z</time>
        <extensions>
          <ns3:TrackPointExtension>
            <ns3:atemp>20.0</ns3:atemp>
          </ns3:TrackPointExtension>
        </extensions>
      </trkpt>
      <trkpt lat="42.5464826636016368865966796875" lon="20.14494295231997966766357421875">
        <ele>2106.60009765625</ele>
        <time>2026-06-20T08:03:55.000Z</time>
        <extensions>
          <ns3:TrackPointExtension>
            <ns3:atemp>20.0</ns3:atemp>
          </ns3:TrackPointExtension>
        </extensions>
      </trkpt>
      <trkpt lat="42.54648257978260517120361328125" lon="20.144943036139011383056640625">
        <ele>2106.39990234375</ele>
        <time>2026-06-20T08:03:56.000Z</time>
        <extensions>
          <ns3:TrackPointExtension>
            <ns3:atemp>20.0</ns3:atemp>
          </ns3:TrackPointExtension>
        </extensions>
      </trkpt>
      <trkpt lat="42.546489201486110687255859375" lon="20.14494429342448711395263671875">
        <ele>2106.199951171875</ele>
        <time>2026-06-20T08:03:57.000Z</time>
        <extensions>
          <ns3:TrackPointExtension>
            <ns3:atemp>20.0</ns3:atemp>
          </ns3:TrackPointExtension>
        </extensions>
      </trkpt>
      <trkpt lat="42.5464826636016368865966796875" lon="20.14494295231997966766357421875">
        <ele>2106</ele>
        <time>2026-06-20T08:03:58.000Z</time>
        <extensions>
          <ns3:TrackPointExtension>
            <ns3:atemp>20.0</ns3:atemp>
          </ns3:TrackPointExtension>
        </extensions>
      </trkpt>
      <trkpt lat="42.5464826636016368865966796875" lon="20.14494295231997966766357421875">
        <ele>2105.800048828125</ele>
        <time>2026-06-20T08:03:59.000Z</time>
        <extensions>
          <ns3:TrackPointExtension>
            <ns3:atemp>20.0</ns3:atemp>
          </ns3:TrackPointExtension>
        </extensions>
      </trkpt>
      <trkpt lat="42.5464826636016368865966796875" lon="20.14494295231997966766357421875">
        <ele>2105.800048828125</ele>
        <time>2026-06-20T08:04:00.000Z</time>
        <extensions>
          <ns3:TrackPointExtension>
            <ns3:atemp>20.0</ns3:atemp>
          </ns3:TrackPointExtension>
        </extensions>
      </trkpt>
      <trkpt lat="42.5464826636016368865966796875" lon="20.14494295231997966766357421875">
        <ele>2105.800048828125</ele>
        <time>2026-06-20T08:04:01.000Z</time>
        <extensions>
          <ns3:TrackPointExtension>
            <ns3:atemp>20.0</ns3:atemp>
          </ns3:TrackPointExtension>
        </extensions>
      </trkpt>
      <trkpt lat="42.5464826636016368865966796875" lon="20.14494295231997966766357421875">
        <ele>2105.60009765625</ele>
        <time>2026-06-20T08:04:02.000Z</time>
        <extensions>
          <ns3:TrackPointExtension>
            <ns3:atemp>20.0</ns3:atemp>
          </ns3:TrackPointExtension>
        </extensions>
      </trkpt>
      <trkpt lat="42.5464826636016368865966796875" lon="20.14494295231997966766357421875">
        <ele>2105.60009765625</ele>
        <time>2026-06-20T08:04:03.000Z</time>
        <extensions>
          <ns3:TrackPointExtension>
            <ns3:atemp>20.0</ns3:atemp>
          </ns3:TrackPointExtension>
        </extensions>
      </trkpt>
      <trkpt lat="42.5464826636016368865966796875" lon="20.14494295231997966766357421875">
        <ele>2105.60009765625</ele>
        <time>2026-06-20T08:04:04.000Z</time>
        <extensions>
          <ns3:TrackPointExtension>
            <ns3:atemp>20.0</ns3:atemp>
          </ns3:TrackPointExtension>
        </extensions>
      </trkpt>
      <trkpt lat="42.5464826636016368865966796875" lon="20.14494295231997966766357421875">
        <ele>2105.60009765625</ele>
        <time>2026-06-20T08:04:05.000Z</time>
        <extensions>
          <ns3:TrackPointExtension>
            <ns3:atemp>20.0</ns3:atemp>
          </ns3:TrackPointExtension>
        </extensions>
      </trkpt>
      <trkpt lat="42.5464826636016368865966796875" lon="20.14494295231997966766357421875">
        <ele>2105.60009765625</ele>
        <time>2026-06-20T08:04:06.000Z</time>
        <extensions>
          <ns3:TrackPointExtension>
            <ns3:atemp>20.0</ns3:atemp>
          </ns3:TrackPointExtension>
        </extensions>
      </trkpt>
      <trkpt lat="42.5464826636016368865966796875" lon="20.14494295231997966766357421875">
        <ele>2105.60009765625</ele>
        <time>2026-06-20T08:04:07.000Z</time>
        <extensions>
          <ns3:TrackPointExtension>
            <ns3:atemp>20.0</ns3:atemp>
          </ns3:TrackPointExtension>
        </extensions>
      </trkpt>
      <trkpt lat="42.5464826636016368865966796875" lon="20.14494295231997966766357421875">
        <ele>2105.60009765625</ele>
        <time>2026-06-20T08:04:08.000Z</time>
        <extensions>
          <ns3:TrackPointExtension>
            <ns3:atemp>20.0</ns3:atemp>
          </ns3:TrackPointExtension>
        </extensions>
      </trkpt>
      <trkpt lat="42.54648710601031780242919921875" lon="20.1449428685009479522705078125">
        <ele>2105.60009765625</ele>
        <time>2026-06-20T08:04:09.000Z</time>
        <extensions>
          <ns3:TrackPointExtension>
            <ns3:atemp>20.0</ns3:atemp>
          </ns3:TrackPointExtension>
        </extensions>
      </trkpt>
      <trkpt lat="42.54647956229746341705322265625" lon="20.144965164363384246826171875">
        <ele>2105.39990234375</ele>
        <time>2026-06-20T08:04:10.000Z</time>
        <extensions>
          <ns3:TrackPointExtension>
            <ns3:atemp>20.0</ns3:atemp>
          </ns3:TrackPointExtension>
        </extensions>
      </trkpt>
      <trkpt lat="42.54648358561098575592041015625" lon="20.1449735462665557861328125">
        <ele>2105.39990234375</ele>
        <time>2026-06-20T08:04:11.000Z</time>
        <extensions>
          <ns3:TrackPointExtension>
            <ns3:atemp>20.0</ns3:atemp>
          </ns3:TrackPointExtension>
        </extensions>
      </trkpt>
      <trkpt lat="42.5464866869151592254638671875" lon="20.14497731812298297882080078125">
        <ele>2105.39990234375</ele>
        <time>2026-06-20T08:04:12.000Z</time>
        <extensions>
          <ns3:TrackPointExtension>
            <ns3:atemp>20.0</ns3:atemp>
          </ns3:TrackPointExtension>
        </extensions>
      </trkpt>
      <trkpt lat="42.5464866869151592254638671875" lon="20.14497731812298297882080078125">
        <ele>2105.39990234375</ele>
        <time>2026-06-20T08:04:13.000Z</time>
        <extensions>
          <ns3:TrackPointExtension>
            <ns3:atemp>20.0</ns3:atemp>
          </ns3:TrackPointExtension>
        </extensions>
      </trkpt>
      <trkpt lat="42.5464866869151592254638671875" lon="20.14497731812298297882080078125">
        <ele>2105.199951171875</ele>
        <time>2026-06-20T08:04:14.000Z</time>
        <extensions>
          <ns3:TrackPointExtension>
            <ns3:atemp>20.0</ns3:atemp>
          </ns3:TrackPointExtension>
        </extensions>
      </trkpt>
      <trkpt lat="42.5464866869151592254638671875" lon="20.14497731812298297882080078125">
        <ele>2105.199951171875</ele>
        <time>2026-06-20T08:04:15.000Z</time>
        <extensions>
          <ns3:TrackPointExtension>
            <ns3:atemp>20.0</ns3:atemp>
          </ns3:TrackPointExtension>
        </extensions>
      </trkpt>
      <trkpt lat="42.5464866869151592254638671875" lon="20.14497731812298297882080078125">
        <ele>2105</ele>
        <time>2026-06-20T08:04:16.000Z</time>
        <extensions>
          <ns3:TrackPointExtension>
            <ns3:atemp>20.0</ns3:atemp>
          </ns3:TrackPointExtension>
        </extensions>
      </trkpt>
      <trkpt lat="42.5464866869151592254638671875" lon="20.14497731812298297882080078125">
        <ele>2105</ele>
        <time>2026-06-20T08:04:17.000Z</time>
        <extensions>
          <ns3:TrackPointExtension>
            <ns3:atemp>20.0</ns3:atemp>
          </ns3:TrackPointExtension>
        </extensions>
      </trkpt>
      <trkpt lat="42.5464866869151592254638671875" lon="20.14497731812298297882080078125">
        <ele>2105</ele>
        <time>2026-06-20T08:04:18.000Z</time>
        <extensions>
          <ns3:TrackPointExtension>
            <ns3:atemp>20.0</ns3:atemp>
          </ns3:TrackPointExtension>
        </extensions>
      </trkpt>
      <trkpt lat="42.5464866869151592254638671875" lon="20.14497731812298297882080078125">
        <ele>2104.800048828125</ele>
        <time>2026-06-20T08:04:19.000Z</time>
        <extensions>
          <ns3:TrackPointExtension>
            <ns3:atemp>20.0</ns3:atemp>
          </ns3:TrackPointExtension>
        </extensions>
      </trkpt>
      <trkpt lat="42.5464866869151592254638671875" lon="20.14497731812298297882080078125">
        <ele>2104.800048828125</ele>
        <time>2026-06-20T08:04:20.000Z</time>
        <extensions>
          <ns3:TrackPointExtension>
            <ns3:atemp>20.0</ns3:atemp>
          </ns3:TrackPointExtension>
        </extensions>
      </trkpt>
      <trkpt lat="42.5464866869151592254638671875" lon="20.14497731812298297882080078125">
        <ele>2104.800048828125</ele>
        <time>2026-06-20T08:04:21.000Z</time>
        <extensions>
          <ns3:TrackPointExtension>
            <ns3:atemp>20.0</ns3:atemp>
          </ns3:TrackPointExtension>
        </extensions>
      </trkpt>
      <trkpt lat="42.5464866869151592254638671875" lon="20.14497731812298297882080078125">
        <ele>2104.800048828125</ele>
        <time>2026-06-20T08:04:22.000Z</time>
        <extensions>
          <ns3:TrackPointExtension>
            <ns3:atemp>20.0</ns3:atemp>
          </ns3:TrackPointExtension>
        </extensions>
      </trkpt>
      <trkpt lat="42.5464866869151592254638671875" lon="20.14497731812298297882080078125">
        <ele>2104.800048828125</ele>
        <time>2026-06-20T08:04:23.000Z</time>
        <extensions>
          <ns3:TrackPointExtension>
            <ns3:atemp>20.0</ns3:atemp>
          </ns3:TrackPointExtension>
        </extensions>
      </trkpt>
      <trkpt lat="42.5464866869151592254638671875" lon="20.14497731812298297882080078125">
        <ele>2104.800048828125</ele>
        <time>2026-06-20T08:04:24.000Z</time>
        <extensions>
          <ns3:TrackPointExtension>
            <ns3:atemp>20.0</ns3:atemp>
          </ns3:TrackPointExtension>
        </extensions>
      </trkpt>
      <trkpt lat="42.5464866869151592254638671875" lon="20.14497731812298297882080078125">
        <ele>2104.800048828125</ele>
        <time>2026-06-20T08:04:25.000Z</time>
        <extensions>
          <ns3:TrackPointExtension>
            <ns3:atemp>20.0</ns3:atemp>
          </ns3:TrackPointExtension>
        </extensions>
      </trkpt>
      <trkpt lat="42.5464866869151592254638671875" lon="20.14497731812298297882080078125">
        <ele>2104.800048828125</ele>
        <time>2026-06-20T08:04:26.000Z</time>
        <extensions>
          <ns3:TrackPointExtension>
            <ns3:atemp>20.0</ns3:atemp>
          </ns3:TrackPointExtension>
        </extensions>
      </trkpt>
      <trkpt lat="42.5464866869151592254638671875" lon="20.14497731812298297882080078125">
        <ele>2104.800048828125</ele>
        <time>2026-06-20T08:04:27.000Z</time>
        <extensions>
          <ns3:TrackPointExtension>
            <ns3:atemp>20.0</ns3:atemp>
          </ns3:TrackPointExtension>
        </extensions>
      </trkpt>
      <trkpt lat="42.5464866869151592254638671875" lon="20.14497731812298297882080078125">
        <ele>2104.800048828125</ele>
        <time>2026-06-20T08:04:28.000Z</time>
        <extensions>
          <ns3:TrackPointExtension>
            <ns3:atemp>20.0</ns3:atemp>
          </ns3:TrackPointExtension>
        </extensions>
      </trkpt>
      <trkpt lat="42.5464866869151592254638671875" lon="20.14497731812298297882080078125">
        <ele>2104.800048828125</ele>
        <time>2026-06-20T08:04:29.000Z</time>
        <extensions>
          <ns3:TrackPointExtension>
            <ns3:atemp>20.0</ns3:atemp>
          </ns3:TrackPointExtension>
        </extensions>
      </trkpt>
      <trkpt lat="42.5464866869151592254638671875" lon="20.14497731812298297882080078125">
        <ele>2104.800048828125</ele>
        <time>2026-06-20T08:04:30.000Z</time>
        <extensions>
          <ns3:TrackPointExtension>
            <ns3:atemp>20.0</ns3:atemp>
          </ns3:TrackPointExtension>
        </extensions>
      </trkpt>
      <trkpt lat="42.5464866869151592254638671875" lon="20.14497731812298297882080078125">
        <ele>2104.800048828125</ele>
        <time>2026-06-20T08:04:31.000Z</time>
        <extensions>
          <ns3:TrackPointExtension>
            <ns3:atemp>20.0</ns3:atemp>
          </ns3:TrackPointExtension>
        </extensions>
      </trkpt>
      <trkpt lat="42.5464866869151592254638671875" lon="20.14497731812298297882080078125">
        <ele>2104.800048828125</ele>
        <time>2026-06-20T08:04:32.000Z</time>
        <extensions>
          <ns3:TrackPointExtension>
            <ns3:atemp>20.0</ns3:atemp>
          </ns3:TrackPointExtension>
        </extensions>
      </trkpt>
      <trkpt lat="42.5464866869151592254638671875" lon="20.14497731812298297882080078125">
        <ele>2104.60009765625</ele>
        <time>2026-06-20T08:04:33.000Z</time>
        <extensions>
          <ns3:TrackPointExtension>
            <ns3:atemp>20.0</ns3:atemp>
          </ns3:TrackPointExtension>
        </extensions>
      </trkpt>
      <trkpt lat="42.5464866869151592254638671875" lon="20.14497731812298297882080078125">
        <ele>2104.60009765625</ele>
        <time>2026-06-20T08:04:34.000Z</time>
        <extensions>
          <ns3:TrackPointExtension>
            <ns3:atemp>20.0</ns3:atemp>
          </ns3:TrackPointExtension>
        </extensions>
      </trkpt>
      <trkpt lat="42.5464866869151592254638671875" lon="20.14497731812298297882080078125">
        <ele>2104.60009765625</ele>
        <time>2026-06-20T08:04:35.000Z</time>
        <extensions>
          <ns3:TrackPointExtension>
            <ns3:atemp>20.0</ns3:atemp>
          </ns3:TrackPointExtension>
        </extensions>
      </trkpt>
      <trkpt lat="42.5464866869151592254638671875" lon="20.14497731812298297882080078125">
        <ele>2104.60009765625</ele>
        <time>2026-06-20T08:04:36.000Z</time>
        <extensions>
          <ns3:TrackPointExtension>
            <ns3:atemp>20.0</ns3:atemp>
          </ns3:TrackPointExtension>
        </extensions>
      </trkpt>
      <trkpt lat="42.5464866869151592254638671875" lon="20.14497731812298297882080078125">
        <ele>2104.60009765625</ele>
        <time>2026-06-20T08:04:37.000Z</time>
        <extensions>
          <ns3:TrackPointExtension>
            <ns3:atemp>20.0</ns3:atemp>
          </ns3:TrackPointExtension>
        </extensions>
      </trkpt>
      <trkpt lat="42.5464866869151592254638671875" lon="20.14497731812298297882080078125">
        <ele>2104.39990234375</ele>
        <time>2026-06-20T08:04:38.000Z</time>
        <extensions>
          <ns3:TrackPointExtension>
            <ns3:atemp>20.0</ns3:atemp>
          </ns3:TrackPointExtension>
        </extensions>
      </trkpt>
      <trkpt lat="42.5464866869151592254638671875" lon="20.14497731812298297882080078125">
        <ele>2104.39990234375</ele>
        <time>2026-06-20T08:04:39.000Z</time>
        <extensions>
          <ns3:TrackPointExtension>
            <ns3:atemp>20.0</ns3:atemp>
          </ns3:TrackPointExtension>
        </extensions>
      </trkpt>
      <trkpt lat="42.5464866869151592254638671875" lon="20.14497731812298297882080078125">
        <ele>2104.39990234375</ele>
        <time>2026-06-20T08:04:40.000Z</time>
        <extensions>
          <ns3:TrackPointExtension>
            <ns3:atemp>20.0</ns3:atemp>
          </ns3:TrackPointExtension>
        </extensions>
      </trkpt>
      <trkpt lat="42.5464866869151592254638671875" lon="20.14497731812298297882080078125">
        <ele>2104.199951171875</ele>
        <time>2026-06-20T08:04:41.000Z</time>
        <extensions>
          <ns3:TrackPointExtension>
            <ns3:atemp>20.0</ns3:atemp>
          </ns3:TrackPointExtension>
        </extensions>
      </trkpt>
      <trkpt lat="42.5464866869151592254638671875" lon="20.14497731812298297882080078125">
        <ele>2104.199951171875</ele>
        <time>2026-06-20T08:04:42.000Z</time>
        <extensions>
          <ns3:TrackPointExtension>
            <ns3:atemp>20.0</ns3:atemp>
          </ns3:TrackPointExtension>
        </extensions>
      </trkpt>
      <trkpt lat="42.5464866869151592254638671875" lon="20.14497731812298297882080078125">
        <ele>2104.199951171875</ele>
        <time>2026-06-20T08:04:43.000Z</time>
        <extensions>
          <ns3:TrackPointExtension>
            <ns3:atemp>20.0</ns3:atemp>
          </ns3:TrackPointExtension>
        </extensions>
      </trkpt>
      <trkpt lat="42.5464866869151592254638671875" lon="20.14497731812298297882080078125">
        <ele>2104.39990234375</ele>
        <time>2026-06-20T08:04:44.000Z</time>
        <extensions>
          <ns3:TrackPointExtension>
            <ns3:atemp>20.0</ns3:atemp>
          </ns3:TrackPointExtension>
        </extensions>
      </trkpt>
      <trkpt lat="42.5464866869151592254638671875" lon="20.14497731812298297882080078125">
        <ele>2104.39990234375</ele>
        <time>2026-06-20T08:04:45.000Z</time>
        <extensions>
          <ns3:TrackPointExtension>
            <ns3:atemp>20.0</ns3:atemp>
          </ns3:TrackPointExtension>
        </extensions>
      </trkpt>
      <trkpt lat="42.5464866869151592254638671875" lon="20.14497731812298297882080078125">
        <ele>2104.39990234375</ele>
        <time>2026-06-20T08:04:46.000Z</time>
        <extensions>
          <ns3:TrackPointExtension>
            <ns3:atemp>20.0</ns3:atemp>
          </ns3:TrackPointExtension>
        </extensions>
      </trkpt>
      <trkpt lat="42.5464866869151592254638671875" lon="20.14497731812298297882080078125">
        <ele>2104.60009765625</ele>
        <time>2026-06-20T08:04:47.000Z</time>
        <extensions>
          <ns3:TrackPointExtension>
            <ns3:atemp>20.0</ns3:atemp>
          </ns3:TrackPointExtension>
        </extensions>
      </trkpt>
      <trkpt lat="42.5464866869151592254638671875" lon="20.14497731812298297882080078125">
        <ele>2104.60009765625</ele>
        <time>2026-06-20T08:04:48.000Z</time>
        <extensions>
          <ns3:TrackPointExtension>
            <ns3:atemp>20.0</ns3:atemp>
          </ns3:TrackPointExtension>
        </extensions>
      </trkpt>
      <trkpt lat="42.5464866869151592254638671875" lon="20.14497731812298297882080078125">
        <ele>2104.60009765625</ele>
        <time>2026-06-20T08:04:49.000Z</time>
        <extensions>
          <ns3:TrackPointExtension>
            <ns3:atemp>20.0</ns3:atemp>
          </ns3:TrackPointExtension>
        </extensions>
      </trkpt>
      <trkpt lat="42.5464866869151592254638671875" lon="20.14497731812298297882080078125">
        <ele>2104.60009765625</ele>
        <time>2026-06-20T08:04:50.000Z</time>
        <extensions>
          <ns3:TrackPointExtension>
            <ns3:atemp>20.0</ns3:atemp>
          </ns3:TrackPointExtension>
        </extensions>
      </trkpt>
      <trkpt lat="42.5464866869151592254638671875" lon="20.14497731812298297882080078125">
        <ele>2104.60009765625</ele>
        <time>2026-06-20T08:04:51.000Z</time>
        <extensions>
          <ns3:TrackPointExtension>
            <ns3:atemp>20.0</ns3:atemp>
          </ns3:TrackPointExtension>
        </extensions>
      </trkpt>
      <trkpt lat="42.5464866869151592254638671875" lon="20.14497731812298297882080078125">
        <ele>2104.39990234375</ele>
        <time>2026-06-20T08:04:52.000Z</time>
        <extensions>
          <ns3:TrackPointExtension>
            <ns3:atemp>20.0</ns3:atemp>
          </ns3:TrackPointExtension>
        </extensions>
      </trkpt>
      <trkpt lat="42.5464866869151592254638671875" lon="20.14497731812298297882080078125">
        <ele>2104.39990234375</ele>
        <time>2026-06-20T08:04:53.000Z</time>
        <extensions>
          <ns3:TrackPointExtension>
            <ns3:atemp>20.0</ns3:atemp>
          </ns3:TrackPointExtension>
        </extensions>
      </trkpt>
      <trkpt lat="42.5464866869151592254638671875" lon="20.14497731812298297882080078125">
        <ele>2104.39990234375</ele>
        <time>2026-06-20T08:04:54.000Z</time>
        <extensions>
          <ns3:TrackPointExtension>
            <ns3:atemp>20.0</ns3:atemp>
          </ns3:TrackPointExtension>
        </extensions>
      </trkpt>
      <trkpt lat="42.5464866869151592254638671875" lon="20.14497731812298297882080078125">
        <ele>2104.39990234375</ele>
        <time>2026-06-20T08:04:55.000Z</time>
        <extensions>
          <ns3:TrackPointExtension>
            <ns3:atemp>20.0</ns3:atemp>
          </ns3:TrackPointExtension>
        </extensions>
      </trkpt>
      <trkpt lat="42.5464866869151592254638671875" lon="20.14497731812298297882080078125">
        <ele>2104.39990234375</ele>
        <time>2026-06-20T08:04:56.000Z</time>
        <extensions>
          <ns3:TrackPointExtension>
            <ns3:atemp>20.0</ns3:atemp>
          </ns3:TrackPointExtension>
        </extensions>
      </trkpt>
      <trkpt lat="42.5464866869151592254638671875" lon="20.14497731812298297882080078125">
        <ele>2104.39990234375</ele>
        <time>2026-06-20T08:04:57.000Z</time>
        <extensions>
          <ns3:TrackPointExtension>
            <ns3:atemp>20.0</ns3:atemp>
          </ns3:TrackPointExtension>
        </extensions>
      </trkpt>
      <trkpt lat="42.5464866869151592254638671875" lon="20.14497731812298297882080078125">
        <ele>2104.60009765625</ele>
        <time>2026-06-20T08:04:58.000Z</time>
        <extensions>
          <ns3:TrackPointExtension>
            <ns3:atemp>20.0</ns3:atemp>
          </ns3:TrackPointExtension>
        </extensions>
      </trkpt>
      <trkpt lat="42.5464866869151592254638671875" lon="20.14497731812298297882080078125">
        <ele>2104.60009765625</ele>
        <time>2026-06-20T08:04:59.000Z</time>
        <extensions>
          <ns3:TrackPointExtension>
            <ns3:atemp>20.0</ns3:atemp>
          </ns3:TrackPointExtension>
        </extensions>
      </trkpt>
      <trkpt lat="42.5464866869151592254638671875" lon="20.14497731812298297882080078125">
        <ele>2104.60009765625</ele>
        <time>2026-06-20T08:05:00.000Z</time>
        <extensions>
          <ns3:TrackPointExtension>
            <ns3:atemp>20.0</ns3:atemp>
          </ns3:TrackPointExtension>
        </extensions>
      </trkpt>
      <trkpt lat="42.5464866869151592254638671875" lon="20.14497731812298297882080078125">
        <ele>2104.60009765625</ele>
        <time>2026-06-20T08:05:01.000Z</time>
        <extensions>
          <ns3:TrackPointExtension>
            <ns3:atemp>20.0</ns3:atemp>
          </ns3:TrackPointExtension>
        </extensions>
      </trkpt>
      <trkpt lat="42.5464866869151592254638671875" lon="20.14497731812298297882080078125">
        <ele>2104.60009765625</ele>
        <time>2026-06-20T08:05:02.000Z</time>
        <extensions>
          <ns3:TrackPointExtension>
            <ns3:atemp>20.0</ns3:atemp>
          </ns3:TrackPointExtension>
        </extensions>
      </trkpt>
      <trkpt lat="42.5464866869151592254638671875" lon="20.14497731812298297882080078125">
        <ele>2104.60009765625</ele>
        <time>2026-06-20T08:05:03.000Z</time>
        <extensions>
          <ns3:TrackPointExtension>
            <ns3:atemp>20.0</ns3:atemp>
          </ns3:TrackPointExtension>
        </extensions>
      </trkpt>
      <trkpt lat="42.5464866869151592254638671875" lon="20.14497731812298297882080078125">
        <ele>2104.60009765625</ele>
        <time>2026-06-20T08:05:04.000Z</time>
        <extensions>
          <ns3:TrackPointExtension>
            <ns3:atemp>20.0</ns3:atemp>
          </ns3:TrackPointExtension>
        </extensions>
      </trkpt>
      <trkpt lat="42.5464866869151592254638671875" lon="20.14497731812298297882080078125">
        <ele>2104.60009765625</ele>
        <time>2026-06-20T08:05:05.000Z</time>
        <extensions>
          <ns3:TrackPointExtension>
            <ns3:atemp>20.0</ns3:atemp>
          </ns3:TrackPointExtension>
        </extensions>
      </trkpt>
      <trkpt lat="42.5464866869151592254638671875" lon="20.14497731812298297882080078125">
        <ele>2104.60009765625</ele>
        <time>2026-06-20T08:05:06.000Z</time>
        <extensions>
          <ns3:TrackPointExtension>
            <ns3:atemp>20.0</ns3:atemp>
          </ns3:TrackPointExtension>
        </extensions>
      </trkpt>
      <trkpt lat="42.5464866869151592254638671875" lon="20.14497731812298297882080078125">
        <ele>2104.60009765625</ele>
        <time>2026-06-20T08:05:07.000Z</time>
        <extensions>
          <ns3:TrackPointExtension>
            <ns3:atemp>20.0</ns3:atemp>
          </ns3:TrackPointExtension>
        </extensions>
      </trkpt>
      <trkpt lat="42.5464866869151592254638671875" lon="20.14497731812298297882080078125">
        <ele>2104.60009765625</ele>
        <time>2026-06-20T08:05:08.000Z</time>
        <extensions>
          <ns3:TrackPointExtension>
            <ns3:atemp>20.0</ns3:atemp>
          </ns3:TrackPointExtension>
        </extensions>
      </trkpt>
      <trkpt lat="42.5464866869151592254638671875" lon="20.14497731812298297882080078125">
        <ele>2104.60009765625</ele>
        <time>2026-06-20T08:05:09.000Z</time>
        <extensions>
          <ns3:TrackPointExtension>
            <ns3:atemp>20.0</ns3:atemp>
          </ns3:TrackPointExtension>
        </extensions>
      </trkpt>
      <trkpt lat="42.5464866869151592254638671875" lon="20.14497731812298297882080078125">
        <ele>2104.39990234375</ele>
        <time>2026-06-20T08:05:10.000Z</time>
        <extensions>
          <ns3:TrackPointExtension>
            <ns3:atemp>20.0</ns3:atemp>
          </ns3:TrackPointExtension>
        </extensions>
      </trkpt>
      <trkpt lat="42.5464866869151592254638671875" lon="20.14497731812298297882080078125">
        <ele>2104.39990234375</ele>
        <time>2026-06-20T08:05:11.000Z</time>
        <extensions>
          <ns3:TrackPointExtension>
            <ns3:atemp>20.0</ns3:atemp>
          </ns3:TrackPointExtension>
        </extensions>
      </trkpt>
      <trkpt lat="42.5464866869151592254638671875" lon="20.14497731812298297882080078125">
        <ele>2104.39990234375</ele>
        <time>2026-06-20T08:05:12.000Z</time>
        <extensions>
          <ns3:TrackPointExtension>
            <ns3:atemp>20.0</ns3:atemp>
          </ns3:TrackPointExtension>
        </extensions>
      </trkpt>
      <trkpt lat="42.5464866869151592254638671875" lon="20.14497731812298297882080078125">
        <ele>2104.39990234375</ele>
        <time>2026-06-20T08:05:13.000Z</time>
        <extensions>
          <ns3:TrackPointExtension>
            <ns3:atemp>20.0</ns3:atemp>
          </ns3:TrackPointExtension>
        </extensions>
      </trkpt>
      <trkpt lat="42.5464866869151592254638671875" lon="20.14497731812298297882080078125">
        <ele>2104.39990234375</ele>
        <time>2026-06-20T08:05:14.000Z</time>
        <extensions>
          <ns3:TrackPointExtension>
            <ns3:atemp>20.0</ns3:atemp>
          </ns3:TrackPointExtension>
        </extensions>
      </trkpt>
      <trkpt lat="42.5464866869151592254638671875" lon="20.14497731812298297882080078125">
        <ele>2104.39990234375</ele>
        <time>2026-06-20T08:05:15.000Z</time>
        <extensions>
          <ns3:TrackPointExtension>
            <ns3:atemp>20.0</ns3:atemp>
          </ns3:TrackPointExtension>
        </extensions>
      </trkpt>
      <trkpt lat="42.5464866869151592254638671875" lon="20.14497731812298297882080078125">
        <ele>2104.39990234375</ele>
        <time>2026-06-20T08:05:16.000Z</time>
        <extensions>
          <ns3:TrackPointExtension>
            <ns3:atemp>20.0</ns3:atemp>
          </ns3:TrackPointExtension>
        </extensions>
      </trkpt>
      <trkpt lat="42.5464866869151592254638671875" lon="20.14497731812298297882080078125">
        <ele>2104.39990234375</ele>
        <time>2026-06-20T08:05:17.000Z</time>
        <extensions>
          <ns3:TrackPointExtension>
            <ns3:atemp>20.0</ns3:atemp>
          </ns3:TrackPointExtension>
        </extensions>
      </trkpt>
      <trkpt lat="42.5464866869151592254638671875" lon="20.14497731812298297882080078125">
        <ele>2104.39990234375</ele>
        <time>2026-06-20T08:05:18.000Z</time>
        <extensions>
          <ns3:TrackPointExtension>
            <ns3:atemp>20.0</ns3:atemp>
          </ns3:TrackPointExtension>
        </extensions>
      </trkpt>
      <trkpt lat="42.5464866869151592254638671875" lon="20.14497731812298297882080078125">
        <ele>2104.39990234375</ele>
        <time>2026-06-20T08:05:19.000Z</time>
        <extensions>
          <ns3:TrackPointExtension>
            <ns3:atemp>20.0</ns3:atemp>
          </ns3:TrackPointExtension>
        </extensions>
      </trkpt>
      <trkpt lat="42.5464866869151592254638671875" lon="20.14497731812298297882080078125">
        <ele>2104.39990234375</ele>
        <time>2026-06-20T08:05:20.000Z</time>
        <extensions>
          <ns3:TrackPointExtension>
            <ns3:atemp>20.0</ns3:atemp>
          </ns3:TrackPointExtension>
        </extensions>
      </trkpt>
      <trkpt lat="42.5464866869151592254638671875" lon="20.14497731812298297882080078125">
        <ele>2104.39990234375</ele>
        <time>2026-06-20T08:05:21.000Z</time>
        <extensions>
          <ns3:TrackPointExtension>
            <ns3:atemp>20.0</ns3:atemp>
          </ns3:TrackPointExtension>
        </extensions>
      </trkpt>
      <trkpt lat="42.5464866869151592254638671875" lon="20.14497731812298297882080078125">
        <ele>2104.39990234375</ele>
        <time>2026-06-20T08:05:22.000Z</time>
        <extensions>
          <ns3:TrackPointExtension>
            <ns3:atemp>20.0</ns3:atemp>
          </ns3:TrackPointExtension>
        </extensions>
      </trkpt>
      <trkpt lat="42.5464866869151592254638671875" lon="20.14497731812298297882080078125">
        <ele>2104.39990234375</ele>
        <time>2026-06-20T08:05:23.000Z</time>
        <extensions>
          <ns3:TrackPointExtension>
            <ns3:atemp>20.0</ns3:atemp>
          </ns3:TrackPointExtension>
        </extensions>
      </trkpt>
      <trkpt lat="42.5464866869151592254638671875" lon="20.14497731812298297882080078125">
        <ele>2104.39990234375</ele>
        <time>2026-06-20T08:05:24.000Z</time>
        <extensions>
          <ns3:TrackPointExtension>
            <ns3:atemp>20.0</ns3:atemp>
          </ns3:TrackPointExtension>
        </extensions>
      </trkpt>
      <trkpt lat="42.5464866869151592254638671875" lon="20.14497731812298297882080078125">
        <ele>2104.39990234375</ele>
        <time>2026-06-20T08:05:25.000Z</time>
        <extensions>
          <ns3:TrackPointExtension>
            <ns3:atemp>20.0</ns3:atemp>
          </ns3:TrackPointExtension>
        </extensions>
      </trkpt>
      <trkpt lat="42.5464866869151592254638671875" lon="20.14497731812298297882080078125">
        <ele>2104.39990234375</ele>
        <time>2026-06-20T08:05:26.000Z</time>
        <extensions>
          <ns3:TrackPointExtension>
            <ns3:atemp>20.0</ns3:atemp>
          </ns3:TrackPointExtension>
        </extensions>
      </trkpt>
      <trkpt lat="42.5464866869151592254638671875" lon="20.14497731812298297882080078125">
        <ele>2104.39990234375</ele>
        <time>2026-06-20T08:05:27.000Z</time>
        <extensions>
          <ns3:TrackPointExtension>
            <ns3:atemp>20.0</ns3:atemp>
          </ns3:TrackPointExtension>
        </extensions>
      </trkpt>
      <trkpt lat="42.5464866869151592254638671875" lon="20.14497731812298297882080078125">
        <ele>2104.39990234375</ele>
        <time>2026-06-20T08:05:28.000Z</time>
        <extensions>
          <ns3:TrackPointExtension>
            <ns3:atemp>20.0</ns3:atemp>
          </ns3:TrackPointExtension>
        </extensions>
      </trkpt>
      <trkpt lat="42.5464866869151592254638671875" lon="20.14497731812298297882080078125">
        <ele>2104.39990234375</ele>
        <time>2026-06-20T08:05:29.000Z</time>
        <extensions>
          <ns3:TrackPointExtension>
            <ns3:atemp>20.0</ns3:atemp>
          </ns3:TrackPointExtension>
        </extensions>
      </trkpt>
      <trkpt lat="42.5464866869151592254638671875" lon="20.14497731812298297882080078125">
        <ele>2104.39990234375</ele>
        <time>2026-06-20T08:05:30.000Z</time>
        <extensions>
          <ns3:TrackPointExtension>
            <ns3:atemp>20.0</ns3:atemp>
          </ns3:TrackPointExtension>
        </extensions>
      </trkpt>
      <trkpt lat="42.5464866869151592254638671875" lon="20.14497731812298297882080078125">
        <ele>2104.39990234375</ele>
        <time>2026-06-20T08:05:31.000Z</time>
        <extensions>
          <ns3:TrackPointExtension>
            <ns3:atemp>20.0</ns3:atemp>
          </ns3:TrackPointExtension>
        </extensions>
      </trkpt>
      <trkpt lat="42.5464866869151592254638671875" lon="20.14497731812298297882080078125">
        <ele>2104.39990234375</ele>
        <time>2026-06-20T08:05:32.000Z</time>
        <extensions>
          <ns3:TrackPointExtension>
            <ns3:atemp>20.0</ns3:atemp>
          </ns3:TrackPointExtension>
        </extensions>
      </trkpt>
      <trkpt lat="42.5464866869151592254638671875" lon="20.14497731812298297882080078125">
        <ele>2104.39990234375</ele>
        <time>2026-06-20T08:05:33.000Z</time>
        <extensions>
          <ns3:TrackPointExtension>
            <ns3:atemp>20.0</ns3:atemp>
          </ns3:TrackPointExtension>
        </extensions>
      </trkpt>
      <trkpt lat="42.5464866869151592254638671875" lon="20.14497731812298297882080078125">
        <ele>2104.199951171875</ele>
        <time>2026-06-20T08:05:34.000Z</time>
        <extensions>
          <ns3:TrackPointExtension>
            <ns3:atemp>20.0</ns3:atemp>
          </ns3:TrackPointExtension>
        </extensions>
      </trkpt>
      <trkpt lat="42.5464866869151592254638671875" lon="20.14497731812298297882080078125">
        <ele>2104.199951171875</ele>
        <time>2026-06-20T08:05:35.000Z</time>
        <extensions>
          <ns3:TrackPointExtension>
            <ns3:atemp>20.0</ns3:atemp>
          </ns3:TrackPointExtension>
        </extensions>
      </trkpt>
      <trkpt lat="42.5464866869151592254638671875" lon="20.14497731812298297882080078125">
        <ele>2104.199951171875</ele>
        <time>2026-06-20T08:05:36.000Z</time>
        <extensions>
          <ns3:TrackPointExtension>
            <ns3:atemp>20.0</ns3:atemp>
          </ns3:TrackPointExtension>
        </extensions>
      </trkpt>
      <trkpt lat="42.5464866869151592254638671875" lon="20.14497731812298297882080078125">
        <ele>2104.199951171875</ele>
        <time>2026-06-20T08:05:37.000Z</time>
        <extensions>
          <ns3:TrackPointExtension>
            <ns3:atemp>20.0</ns3:atemp>
          </ns3:TrackPointExtension>
        </extensions>
      </trkpt>
      <trkpt lat="42.5464866869151592254638671875" lon="20.14497731812298297882080078125">
        <ele>2104.199951171875</ele>
        <time>2026-06-20T08:05:38.000Z</time>
        <extensions>
          <ns3:TrackPointExtension>
            <ns3:atemp>20.0</ns3:atemp>
          </ns3:TrackPointExtension>
        </extensions>
      </trkpt>
      <trkpt lat="42.5464866869151592254638671875" lon="20.14497731812298297882080078125">
        <ele>2104.199951171875</ele>
        <time>2026-06-20T08:05:39.000Z</time>
        <extensions>
          <ns3:TrackPointExtension>
            <ns3:atemp>20.0</ns3:atemp>
          </ns3:TrackPointExtension>
        </extensions>
      </trkpt>
      <trkpt lat="42.5464866869151592254638671875" lon="20.14497731812298297882080078125">
        <ele>2104.199951171875</ele>
        <time>2026-06-20T08:05:40.000Z</time>
        <extensions>
          <ns3:TrackPointExtension>
            <ns3:atemp>20.0</ns3:atemp>
          </ns3:TrackPointExtension>
        </extensions>
      </trkpt>
      <trkpt lat="42.5464866869151592254638671875" lon="20.14497731812298297882080078125">
        <ele>2104.199951171875</ele>
        <time>2026-06-20T08:05:41.000Z</time>
        <extensions>
          <ns3:TrackPointExtension>
            <ns3:atemp>20.0</ns3:atemp>
          </ns3:TrackPointExtension>
        </extensions>
      </trkpt>
      <trkpt lat="42.5464866869151592254638671875" lon="20.14497731812298297882080078125">
        <ele>2104.199951171875</ele>
        <time>2026-06-20T08:05:42.000Z</time>
        <extensions>
          <ns3:TrackPointExtension>
            <ns3:atemp>20.0</ns3:atemp>
          </ns3:TrackPointExtension>
        </extensions>
      </trkpt>
      <trkpt lat="42.5464866869151592254638671875" lon="20.14497731812298297882080078125">
        <ele>2104.199951171875</ele>
        <time>2026-06-20T08:05:43.000Z</time>
        <extensions>
          <ns3:TrackPointExtension>
            <ns3:atemp>20.0</ns3:atemp>
          </ns3:TrackPointExtension>
        </extensions>
      </trkpt>
      <trkpt lat="42.5464866869151592254638671875" lon="20.14497731812298297882080078125">
        <ele>2104.39990234375</ele>
        <time>2026-06-20T08:05:44.000Z</time>
        <extensions>
          <ns3:TrackPointExtension>
            <ns3:atemp>20.0</ns3:atemp>
          </ns3:TrackPointExtension>
        </extensions>
      </trkpt>
      <trkpt lat="42.5464866869151592254638671875" lon="20.14497731812298297882080078125">
        <ele>2104.39990234375</ele>
        <time>2026-06-20T08:05:45.000Z</time>
        <extensions>
          <ns3:TrackPointExtension>
            <ns3:atemp>20.0</ns3:atemp>
          </ns3:TrackPointExtension>
        </extensions>
      </trkpt>
      <trkpt lat="42.5464866869151592254638671875" lon="20.14497731812298297882080078125">
        <ele>2104.39990234375</ele>
        <time>2026-06-20T08:05:46.000Z</time>
        <extensions>
          <ns3:TrackPointExtension>
            <ns3:atemp>20.0</ns3:atemp>
          </ns3:TrackPointExtension>
        </extensions>
      </trkpt>
      <trkpt lat="42.5464866869151592254638671875" lon="20.14497731812298297882080078125">
        <ele>2104.39990234375</ele>
        <time>2026-06-20T08:05:47.000Z</time>
        <extensions>
          <ns3:TrackPointExtension>
            <ns3:atemp>20.0</ns3:atemp>
          </ns3:TrackPointExtension>
        </extensions>
      </trkpt>
      <trkpt lat="42.5464866869151592254638671875" lon="20.14497731812298297882080078125">
        <ele>2104.39990234375</ele>
        <time>2026-06-20T08:05:48.000Z</time>
        <extensions>
          <ns3:TrackPointExtension>
            <ns3:atemp>20.0</ns3:atemp>
          </ns3:TrackPointExtension>
        </extensions>
      </trkpt>
      <trkpt lat="42.5464866869151592254638671875" lon="20.14497731812298297882080078125">
        <ele>2104.60009765625</ele>
        <time>2026-06-20T08:05:49.000Z</time>
        <extensions>
          <ns3:TrackPointExtension>
            <ns3:atemp>20.0</ns3:atemp>
          </ns3:TrackPointExtension>
        </extensions>
      </trkpt>
      <trkpt lat="42.5464866869151592254638671875" lon="20.14497731812298297882080078125">
        <ele>2104.60009765625</ele>
        <time>2026-06-20T08:05:50.000Z</time>
        <extensions>
          <ns3:TrackPointExtension>
            <ns3:atemp>20.0</ns3:atemp>
          </ns3:TrackPointExtension>
        </extensions>
      </trkpt>
      <trkpt lat="42.5464866869151592254638671875" lon="20.14497731812298297882080078125">
        <ele>2104.60009765625</ele>
        <time>2026-06-20T08:05:51.000Z</time>
        <extensions>
          <ns3:TrackPointExtension>
            <ns3:atemp>20.0</ns3:atemp>
          </ns3:TrackPointExtension>
        </extensions>
      </trkpt>
      <trkpt lat="42.5464866869151592254638671875" lon="20.14497731812298297882080078125">
        <ele>2104.60009765625</ele>
        <time>2026-06-20T08:05:52.000Z</time>
        <extensions>
          <ns3:TrackPointExtension>
            <ns3:atemp>20.0</ns3:atemp>
          </ns3:TrackPointExtension>
        </extensions>
      </trkpt>
      <trkpt lat="42.5464866869151592254638671875" lon="20.14497731812298297882080078125">
        <ele>2104.60009765625</ele>
        <time>2026-06-20T08:05:53.000Z</time>
        <extensions>
          <ns3:TrackPointExtension>
            <ns3:atemp>20.0</ns3:atemp>
          </ns3:TrackPointExtension>
        </extensions>
      </trkpt>
      <trkpt lat="42.5464866869151592254638671875" lon="20.14497731812298297882080078125">
        <ele>2104.60009765625</ele>
        <time>2026-06-20T08:05:54.000Z</time>
        <extensions>
          <ns3:TrackPointExtension>
            <ns3:atemp>20.0</ns3:atemp>
          </ns3:TrackPointExtension>
        </extensions>
      </trkpt>
      <trkpt lat="42.5464866869151592254638671875" lon="20.14497731812298297882080078125">
        <ele>2104.39990234375</ele>
        <time>2026-06-20T08:05:55.000Z</time>
        <extensions>
          <ns3:TrackPointExtension>
            <ns3:atemp>20.0</ns3:atemp>
          </ns3:TrackPointExtension>
        </extensions>
      </trkpt>
      <trkpt lat="42.5464866869151592254638671875" lon="20.14497731812298297882080078125">
        <ele>2104.39990234375</ele>
        <time>2026-06-20T08:05:56.000Z</time>
        <extensions>
          <ns3:TrackPointExtension>
            <ns3:atemp>20.0</ns3:atemp>
          </ns3:TrackPointExtension>
        </extensions>
      </trkpt>
      <trkpt lat="42.5464866869151592254638671875" lon="20.14497731812298297882080078125">
        <ele>2104.39990234375</ele>
        <time>2026-06-20T08:05:57.000Z</time>
        <extensions>
          <ns3:TrackPointExtension>
            <ns3:atemp>20.0</ns3:atemp>
          </ns3:TrackPointExtension>
        </extensions>
      </trkpt>
      <trkpt lat="42.5464866869151592254638671875" lon="20.14497731812298297882080078125">
        <ele>2104.39990234375</ele>
        <time>2026-06-20T08:05:58.000Z</time>
        <extensions>
          <ns3:TrackPointExtension>
            <ns3:atemp>20.0</ns3:atemp>
          </ns3:TrackPointExtension>
        </extensions>
      </trkpt>
      <trkpt lat="42.5464866869151592254638671875" lon="20.14497731812298297882080078125">
        <ele>2104.39990234375</ele>
        <time>2026-06-20T08:05:59.000Z</time>
        <extensions>
          <ns3:TrackPointExtension>
            <ns3:atemp>20.0</ns3:atemp>
          </ns3:TrackPointExtension>
        </extensions>
      </trkpt>
      <trkpt lat="42.5464866869151592254638671875" lon="20.14497731812298297882080078125">
        <ele>2104.39990234375</ele>
        <time>2026-06-20T08:06:00.000Z</time>
        <extensions>
          <ns3:TrackPointExtension>
            <ns3:atemp>20.0</ns3:atemp>
          </ns3:TrackPointExtension>
        </extensions>
      </trkpt>
      <trkpt lat="42.5464866869151592254638671875" lon="20.14497731812298297882080078125">
        <ele>2104.39990234375</ele>
        <time>2026-06-20T08:06:01.000Z</time>
        <extensions>
          <ns3:TrackPointExtension>
            <ns3:atemp>20.0</ns3:atemp>
          </ns3:TrackPointExtension>
        </extensions>
      </trkpt>
      <trkpt lat="42.5464866869151592254638671875" lon="20.14497731812298297882080078125">
        <ele>2104.39990234375</ele>
        <time>2026-06-20T08:06:02.000Z</time>
        <extensions>
          <ns3:TrackPointExtension>
            <ns3:atemp>20.0</ns3:atemp>
          </ns3:TrackPointExtension>
        </extensions>
      </trkpt>
      <trkpt lat="42.5464866869151592254638671875" lon="20.14497731812298297882080078125">
        <ele>2104.39990234375</ele>
        <time>2026-06-20T08:06:03.000Z</time>
        <extensions>
          <ns3:TrackPointExtension>
            <ns3:atemp>20.0</ns3:atemp>
          </ns3:TrackPointExtension>
        </extensions>
      </trkpt>
      <trkpt lat="42.5464866869151592254638671875" lon="20.14497731812298297882080078125">
        <ele>2104.39990234375</ele>
        <time>2026-06-20T08:06:04.000Z</time>
        <extensions>
          <ns3:TrackPointExtension>
            <ns3:atemp>20.0</ns3:atemp>
          </ns3:TrackPointExtension>
        </extensions>
      </trkpt>
      <trkpt lat="42.5464866869151592254638671875" lon="20.14497731812298297882080078125">
        <ele>2104.39990234375</ele>
        <time>2026-06-20T08:06:05.000Z</time>
        <extensions>
          <ns3:TrackPointExtension>
            <ns3:atemp>20.0</ns3:atemp>
          </ns3:TrackPointExtension>
        </extensions>
      </trkpt>
      <trkpt lat="42.5464866869151592254638671875" lon="20.14497731812298297882080078125">
        <ele>2104.39990234375</ele>
        <time>2026-06-20T08:06:06.000Z</time>
        <extensions>
          <ns3:TrackPointExtension>
            <ns3:atemp>20.0</ns3:atemp>
          </ns3:TrackPointExtension>
        </extensions>
      </trkpt>
      <trkpt lat="42.5464866869151592254638671875" lon="20.14497731812298297882080078125">
        <ele>2104.39990234375</ele>
        <time>2026-06-20T08:06:07.000Z</time>
        <extensions>
          <ns3:TrackPointExtension>
            <ns3:atemp>20.0</ns3:atemp>
          </ns3:TrackPointExtension>
        </extensions>
      </trkpt>
      <trkpt lat="42.5464866869151592254638671875" lon="20.14497731812298297882080078125">
        <ele>2104.39990234375</ele>
        <time>2026-06-20T08:06:08.000Z</time>
        <extensions>
          <ns3:TrackPointExtension>
            <ns3:atemp>20.0</ns3:atemp>
          </ns3:TrackPointExtension>
        </extensions>
      </trkpt>
      <trkpt lat="42.5464866869151592254638671875" lon="20.14497731812298297882080078125">
        <ele>2104.39990234375</ele>
        <time>2026-06-20T08:06:09.000Z</time>
        <extensions>
          <ns3:TrackPointExtension>
            <ns3:atemp>20.0</ns3:atemp>
          </ns3:TrackPointExtension>
        </extensions>
      </trkpt>
      <trkpt lat="42.5464866869151592254638671875" lon="20.14497731812298297882080078125">
        <ele>2104.39990234375</ele>
        <time>2026-06-20T08:06:10.000Z</time>
        <extensions>
          <ns3:TrackPointExtension>
            <ns3:atemp>20.0</ns3:atemp>
          </ns3:TrackPointExtension>
        </extensions>
      </trkpt>
      <trkpt lat="42.5464866869151592254638671875" lon="20.14497731812298297882080078125">
        <ele>2104.39990234375</ele>
        <time>2026-06-20T08:06:11.000Z</time>
        <extensions>
          <ns3:TrackPointExtension>
            <ns3:atemp>20.0</ns3:atemp>
          </ns3:TrackPointExtension>
        </extensions>
      </trkpt>
      <trkpt lat="42.5464866869151592254638671875" lon="20.14497731812298297882080078125">
        <ele>2104.60009765625</ele>
        <time>2026-06-20T08:06:12.000Z</time>
        <extensions>
          <ns3:TrackPointExtension>
            <ns3:atemp>20.0</ns3:atemp>
          </ns3:TrackPointExtension>
        </extensions>
      </trkpt>
      <trkpt lat="42.5464866869151592254638671875" lon="20.14497731812298297882080078125">
        <ele>2104.60009765625</ele>
        <time>2026-06-20T08:06:13.000Z</time>
        <extensions>
          <ns3:TrackPointExtension>
            <ns3:atemp>20.0</ns3:atemp>
          </ns3:TrackPointExtension>
        </extensions>
      </trkpt>
      <trkpt lat="42.5464866869151592254638671875" lon="20.14497731812298297882080078125">
        <ele>2104.60009765625</ele>
        <time>2026-06-20T08:06:14.000Z</time>
        <extensions>
          <ns3:TrackPointExtension>
            <ns3:atemp>20.0</ns3:atemp>
          </ns3:TrackPointExtension>
        </extensions>
      </trkpt>
      <trkpt lat="42.5464866869151592254638671875" lon="20.14497731812298297882080078125">
        <ele>2104.60009765625</ele>
        <time>2026-06-20T08:06:15.000Z</time>
        <extensions>
          <ns3:TrackPointExtension>
            <ns3:atemp>20.0</ns3:atemp>
          </ns3:TrackPointExtension>
        </extensions>
      </trkpt>
      <trkpt lat="42.5464866869151592254638671875" lon="20.14497731812298297882080078125">
        <ele>2104.60009765625</ele>
        <time>2026-06-20T08:06:16.000Z</time>
        <extensions>
          <ns3:TrackPointExtension>
            <ns3:atemp>20.0</ns3:atemp>
          </ns3:TrackPointExtension>
        </extensions>
      </trkpt>
      <trkpt lat="42.5464866869151592254638671875" lon="20.14497731812298297882080078125">
        <ele>2104.60009765625</ele>
        <time>2026-06-20T08:06:17.000Z</time>
        <extensions>
          <ns3:TrackPointExtension>
            <ns3:atemp>20.0</ns3:atemp>
          </ns3:TrackPointExtension>
        </extensions>
      </trkpt>
      <trkpt lat="42.5464866869151592254638671875" lon="20.14497731812298297882080078125">
        <ele>2104.60009765625</ele>
        <time>2026-06-20T08:06:18.000Z</time>
        <extensions>
          <ns3:TrackPointExtension>
            <ns3:atemp>20.0</ns3:atemp>
          </ns3:TrackPointExtension>
        </extensions>
      </trkpt>
      <trkpt lat="42.5464866869151592254638671875" lon="20.14497731812298297882080078125">
        <ele>2104.60009765625</ele>
        <time>2026-06-20T08:06:19.000Z</time>
        <extensions>
          <ns3:TrackPointExtension>
            <ns3:atemp>20.0</ns3:atemp>
          </ns3:TrackPointExtension>
        </extensions>
      </trkpt>
      <trkpt lat="42.5464866869151592254638671875" lon="20.14497731812298297882080078125">
        <ele>2104.60009765625</ele>
        <time>2026-06-20T08:06:20.000Z</time>
        <extensions>
          <ns3:TrackPointExtension>
            <ns3:atemp>20.0</ns3:atemp>
          </ns3:TrackPointExtension>
        </extensions>
      </trkpt>
      <trkpt lat="42.5464866869151592254638671875" lon="20.14497731812298297882080078125">
        <ele>2104.60009765625</ele>
        <time>2026-06-20T08:06:21.000Z</time>
        <extensions>
          <ns3:TrackPointExtension>
            <ns3:atemp>20.0</ns3:atemp>
          </ns3:TrackPointExtension>
        </extensions>
      </trkpt>
      <trkpt lat="42.5464866869151592254638671875" lon="20.14497731812298297882080078125">
        <ele>2104.60009765625</ele>
        <time>2026-06-20T08:06:22.000Z</time>
        <extensions>
          <ns3:TrackPointExtension>
            <ns3:atemp>20.0</ns3:atemp>
          </ns3:TrackPointExtension>
        </extensions>
      </trkpt>
      <trkpt lat="42.5464866869151592254638671875" lon="20.14497731812298297882080078125">
        <ele>2104.60009765625</ele>
        <time>2026-06-20T08:06:23.000Z</time>
        <extensions>
          <ns3:TrackPointExtension>
            <ns3:atemp>20.0</ns3:atemp>
          </ns3:TrackPointExtension>
        </extensions>
      </trkpt>
      <trkpt lat="42.5464866869151592254638671875" lon="20.14497731812298297882080078125">
        <ele>2104.60009765625</ele>
        <time>2026-06-20T08:06:24.000Z</time>
        <extensions>
          <ns3:TrackPointExtension>
            <ns3:atemp>20.0</ns3:atemp>
          </ns3:TrackPointExtension>
        </extensions>
      </trkpt>
      <trkpt lat="42.5464866869151592254638671875" lon="20.14497731812298297882080078125">
        <ele>2104.60009765625</ele>
        <time>2026-06-20T08:06:25.000Z</time>
        <extensions>
          <ns3:TrackPointExtension>
            <ns3:atemp>20.0</ns3:atemp>
          </ns3:TrackPointExtension>
        </extensions>
      </trkpt>
      <trkpt lat="42.5464866869151592254638671875" lon="20.14497731812298297882080078125">
        <ele>2104.60009765625</ele>
        <time>2026-06-20T08:06:26.000Z</time>
        <extensions>
          <ns3:TrackPointExtension>
            <ns3:atemp>20.0</ns3:atemp>
          </ns3:TrackPointExtension>
        </extensions>
      </trkpt>
      <trkpt lat="42.5464866869151592254638671875" lon="20.14497731812298297882080078125">
        <ele>2104.60009765625</ele>
        <time>2026-06-20T08:06:27.000Z</time>
        <extensions>
          <ns3:TrackPointExtension>
            <ns3:atemp>20.0</ns3:atemp>
          </ns3:TrackPointExtension>
        </extensions>
      </trkpt>
      <trkpt lat="42.5464866869151592254638671875" lon="20.14497731812298297882080078125">
        <ele>2104.60009765625</ele>
        <time>2026-06-20T08:06:28.000Z</time>
        <extensions>
          <ns3:TrackPointExtension>
            <ns3:atemp>20.0</ns3:atemp>
          </ns3:TrackPointExtension>
        </extensions>
      </trkpt>
      <trkpt lat="42.5464866869151592254638671875" lon="20.14497731812298297882080078125">
        <ele>2104.60009765625</ele>
        <time>2026-06-20T08:06:29.000Z</time>
        <extensions>
          <ns3:TrackPointExtension>
            <ns3:atemp>20.0</ns3:atemp>
          </ns3:TrackPointExtension>
        </extensions>
      </trkpt>
      <trkpt lat="42.5464866869151592254638671875" lon="20.14497731812298297882080078125">
        <ele>2104.60009765625</ele>
        <time>2026-06-20T08:06:30.000Z</time>
        <extensions>
          <ns3:TrackPointExtension>
            <ns3:atemp>20.0</ns3:atemp>
          </ns3:TrackPointExtension>
        </extensions>
      </trkpt>
      <trkpt lat="42.5464866869151592254638671875" lon="20.14497731812298297882080078125">
        <ele>2104.60009765625</ele>
        <time>2026-06-20T08:06:31.000Z</time>
        <extensions>
          <ns3:TrackPointExtension>
            <ns3:atemp>20.0</ns3:atemp>
          </ns3:TrackPointExtension>
        </extensions>
      </trkpt>
      <trkpt lat="42.5464866869151592254638671875" lon="20.14497731812298297882080078125">
        <ele>2104.60009765625</ele>
        <time>2026-06-20T08:06:32.000Z</time>
        <extensions>
          <ns3:TrackPointExtension>
            <ns3:atemp>20.0</ns3:atemp>
          </ns3:TrackPointExtension>
        </extensions>
      </trkpt>
      <trkpt lat="42.5464866869151592254638671875" lon="20.14497731812298297882080078125">
        <ele>2104.60009765625</ele>
        <time>2026-06-20T08:06:33.000Z</time>
        <extensions>
          <ns3:TrackPointExtension>
            <ns3:atemp>20.0</ns3:atemp>
          </ns3:TrackPointExtension>
        </extensions>
      </trkpt>
      <trkpt lat="42.5464866869151592254638671875" lon="20.14497731812298297882080078125">
        <ele>2104.60009765625</ele>
        <time>2026-06-20T08:06:34.000Z</time>
        <extensions>
          <ns3:TrackPointExtension>
            <ns3:atemp>20.0</ns3:atemp>
          </ns3:TrackPointExtension>
        </extensions>
      </trkpt>
      <trkpt lat="42.5464866869151592254638671875" lon="20.14497731812298297882080078125">
        <ele>2104.60009765625</ele>
        <time>2026-06-20T08:06:35.000Z</time>
        <extensions>
          <ns3:TrackPointExtension>
            <ns3:atemp>20.0</ns3:atemp>
          </ns3:TrackPointExtension>
        </extensions>
      </trkpt>
      <trkpt lat="42.5464866869151592254638671875" lon="20.14497731812298297882080078125">
        <ele>2104.60009765625</ele>
        <time>2026-06-20T08:06:36.000Z</time>
        <extensions>
          <ns3:TrackPointExtension>
            <ns3:atemp>20.0</ns3:atemp>
          </ns3:TrackPointExtension>
        </extensions>
      </trkpt>
      <trkpt lat="42.5464866869151592254638671875" lon="20.14497731812298297882080078125">
        <ele>2104.60009765625</ele>
        <time>2026-06-20T08:06:37.000Z</time>
        <extensions>
          <ns3:TrackPointExtension>
            <ns3:atemp>20.0</ns3:atemp>
          </ns3:TrackPointExtension>
        </extensions>
      </trkpt>
      <trkpt lat="42.5464866869151592254638671875" lon="20.14497731812298297882080078125">
        <ele>2104.60009765625</ele>
        <time>2026-06-20T08:06:38.000Z</time>
        <extensions>
          <ns3:TrackPointExtension>
            <ns3:atemp>20.0</ns3:atemp>
          </ns3:TrackPointExtension>
        </extensions>
      </trkpt>
      <trkpt lat="42.5464866869151592254638671875" lon="20.14497731812298297882080078125">
        <ele>2104.60009765625</ele>
        <time>2026-06-20T08:06:39.000Z</time>
        <extensions>
          <ns3:TrackPointExtension>
            <ns3:atemp>20.0</ns3:atemp>
          </ns3:TrackPointExtension>
        </extensions>
      </trkpt>
      <trkpt lat="42.5464866869151592254638671875" lon="20.14497731812298297882080078125">
        <ele>2104.60009765625</ele>
        <time>2026-06-20T08:06:40.000Z</time>
        <extensions>
          <ns3:TrackPointExtension>
            <ns3:atemp>20.0</ns3:atemp>
          </ns3:TrackPointExtension>
        </extensions>
      </trkpt>
      <trkpt lat="42.5464866869151592254638671875" lon="20.14497731812298297882080078125">
        <ele>2104.60009765625</ele>
        <time>2026-06-20T08:06:41.000Z</time>
        <extensions>
          <ns3:TrackPointExtension>
            <ns3:atemp>20.0</ns3:atemp>
          </ns3:TrackPointExtension>
        </extensions>
      </trkpt>
      <trkpt lat="42.5464866869151592254638671875" lon="20.14497731812298297882080078125">
        <ele>2104.60009765625</ele>
        <time>2026-06-20T08:06:42.000Z</time>
        <extensions>
          <ns3:TrackPointExtension>
            <ns3:atemp>20.0</ns3:atemp>
          </ns3:TrackPointExtension>
        </extensions>
      </trkpt>
      <trkpt lat="42.5464866869151592254638671875" lon="20.14497731812298297882080078125">
        <ele>2104.60009765625</ele>
        <time>2026-06-20T08:06:43.000Z</time>
        <extensions>
          <ns3:TrackPointExtension>
            <ns3:atemp>20.0</ns3:atemp>
          </ns3:TrackPointExtension>
        </extensions>
      </trkpt>
      <trkpt lat="42.5464866869151592254638671875" lon="20.14497731812298297882080078125">
        <ele>2104.60009765625</ele>
        <time>2026-06-20T08:06:44.000Z</time>
        <extensions>
          <ns3:TrackPointExtension>
            <ns3:atemp>20.0</ns3:atemp>
          </ns3:TrackPointExtension>
        </extensions>
      </trkpt>
      <trkpt lat="42.5464866869151592254638671875" lon="20.14497731812298297882080078125">
        <ele>2104.60009765625</ele>
        <time>2026-06-20T08:06:45.000Z</time>
        <extensions>
          <ns3:TrackPointExtension>
            <ns3:atemp>20.0</ns3:atemp>
          </ns3:TrackPointExtension>
        </extensions>
      </trkpt>
      <trkpt lat="42.5464866869151592254638671875" lon="20.14497731812298297882080078125">
        <ele>2104.60009765625</ele>
        <time>2026-06-20T08:06:46.000Z</time>
        <extensions>
          <ns3:TrackPointExtension>
            <ns3:atemp>20.0</ns3:atemp>
          </ns3:TrackPointExtension>
        </extensions>
      </trkpt>
      <trkpt lat="42.5464866869151592254638671875" lon="20.14497731812298297882080078125">
        <ele>2104.60009765625</ele>
        <time>2026-06-20T08:06:47.000Z</time>
        <extensions>
          <ns3:TrackPointExtension>
            <ns3:atemp>20.0</ns3:atemp>
          </ns3:TrackPointExtension>
        </extensions>
      </trkpt>
      <trkpt lat="42.5464866869151592254638671875" lon="20.14497731812298297882080078125">
        <ele>2104.60009765625</ele>
        <time>2026-06-20T08:06:48.000Z</time>
        <extensions>
          <ns3:TrackPointExtension>
            <ns3:atemp>20.0</ns3:atemp>
          </ns3:TrackPointExtension>
        </extensions>
      </trkpt>
      <trkpt lat="42.5464866869151592254638671875" lon="20.14497731812298297882080078125">
        <ele>2104.60009765625</ele>
        <time>2026-06-20T08:06:49.000Z</time>
        <extensions>
          <ns3:TrackPointExtension>
            <ns3:atemp>20.0</ns3:atemp>
          </ns3:TrackPointExtension>
        </extensions>
      </trkpt>
      <trkpt lat="42.5464866869151592254638671875" lon="20.14497731812298297882080078125">
        <ele>2104.60009765625</ele>
        <time>2026-06-20T08:06:50.000Z</time>
        <extensions>
          <ns3:TrackPointExtension>
            <ns3:atemp>20.0</ns3:atemp>
          </ns3:TrackPointExtension>
        </extensions>
      </trkpt>
      <trkpt lat="42.5464866869151592254638671875" lon="20.14497731812298297882080078125">
        <ele>2104.60009765625</ele>
        <time>2026-06-20T08:06:51.000Z</time>
        <extensions>
          <ns3:TrackPointExtension>
            <ns3:atemp>20.0</ns3:atemp>
          </ns3:TrackPointExtension>
        </extensions>
      </trkpt>
      <trkpt lat="42.5464866869151592254638671875" lon="20.14497731812298297882080078125">
        <ele>2104.60009765625</ele>
        <time>2026-06-20T08:06:52.000Z</time>
        <extensions>
          <ns3:TrackPointExtension>
            <ns3:atemp>20.0</ns3:atemp>
          </ns3:TrackPointExtension>
        </extensions>
      </trkpt>
      <trkpt lat="42.5464866869151592254638671875" lon="20.14497731812298297882080078125">
        <ele>2104.60009765625</ele>
        <time>2026-06-20T08:06:53.000Z</time>
        <extensions>
          <ns3:TrackPointExtension>
            <ns3:atemp>20.0</ns3:atemp>
          </ns3:TrackPointExtension>
        </extensions>
      </trkpt>
      <trkpt lat="42.5464866869151592254638671875" lon="20.14497731812298297882080078125">
        <ele>2104.60009765625</ele>
        <time>2026-06-20T08:06:54.000Z</time>
        <extensions>
          <ns3:TrackPointExtension>
            <ns3:atemp>20.0</ns3:atemp>
          </ns3:TrackPointExtension>
        </extensions>
      </trkpt>
      <trkpt lat="42.54648760892450809478759765625" lon="20.14497530646622180938720703125">
        <ele>2104.60009765625</ele>
        <time>2026-06-20T08:06:55.000Z</time>
        <extensions>
          <ns3:TrackPointExtension>
            <ns3:atemp>20.0</ns3:atemp>
          </ns3:TrackPointExtension>
        </extensions>
      </trkpt>
      <trkpt lat="42.54648559726774692535400390625" lon="20.14497363008558750152587890625">
        <ele>2104.60009765625</ele>
        <time>2026-06-20T08:06:56.000Z</time>
        <extensions>
          <ns3:TrackPointExtension>
            <ns3:atemp>20.0</ns3:atemp>
          </ns3:TrackPointExtension>
        </extensions>
      </trkpt>
      <trkpt lat="42.5464866869151592254638671875" lon="20.14497731812298297882080078125">
        <ele>2104.60009765625</ele>
        <time>2026-06-20T08:06:57.000Z</time>
        <extensions>
          <ns3:TrackPointExtension>
            <ns3:atemp>20.0</ns3:atemp>
          </ns3:TrackPointExtension>
        </extensions>
      </trkpt>
      <trkpt lat="42.5464866869151592254638671875" lon="20.14497731812298297882080078125">
        <ele>2104.60009765625</ele>
        <time>2026-06-20T08:06:58.000Z</time>
        <extensions>
          <ns3:TrackPointExtension>
            <ns3:atemp>20.0</ns3:atemp>
          </ns3:TrackPointExtension>
        </extensions>
      </trkpt>
      <trkpt lat="42.5464866869151592254638671875" lon="20.14497731812298297882080078125">
        <ele>2104.60009765625</ele>
        <time>2026-06-20T08:06:59.000Z</time>
        <extensions>
          <ns3:TrackPointExtension>
            <ns3:atemp>20.0</ns3:atemp>
          </ns3:TrackPointExtension>
        </extensions>
      </trkpt>
      <trkpt lat="42.5464866869151592254638671875" lon="20.14497731812298297882080078125">
        <ele>2104.60009765625</ele>
        <time>2026-06-20T08:07:00.000Z</time>
        <extensions>
          <ns3:TrackPointExtension>
            <ns3:atemp>20.0</ns3:atemp>
          </ns3:TrackPointExtension>
        </extensions>
      </trkpt>
      <trkpt lat="42.5464866869151592254638671875" lon="20.14497731812298297882080078125">
        <ele>2104.60009765625</ele>
        <time>2026-06-20T08:07:01.000Z</time>
        <extensions>
          <ns3:TrackPointExtension>
            <ns3:atemp>20.0</ns3:atemp>
          </ns3:TrackPointExtension>
        </extensions>
      </trkpt>
      <trkpt lat="42.5464866869151592254638671875" lon="20.14497731812298297882080078125">
        <ele>2104.60009765625</ele>
        <time>2026-06-20T08:07:02.000Z</time>
        <extensions>
          <ns3:TrackPointExtension>
            <ns3:atemp>20.0</ns3:atemp>
          </ns3:TrackPointExtension>
        </extensions>
      </trkpt>
      <trkpt lat="42.5464866869151592254638671875" lon="20.14497731812298297882080078125">
        <ele>2104.60009765625</ele>
        <time>2026-06-20T08:07:03.000Z</time>
        <extensions>
          <ns3:TrackPointExtension>
            <ns3:atemp>20.0</ns3:atemp>
          </ns3:TrackPointExtension>
        </extensions>
      </trkpt>
      <trkpt lat="42.5464866869151592254638671875" lon="20.14497731812298297882080078125">
        <ele>2104.60009765625</ele>
        <time>2026-06-20T08:07:04.000Z</time>
        <extensions>
          <ns3:TrackPointExtension>
            <ns3:atemp>20.0</ns3:atemp>
          </ns3:TrackPointExtension>
        </extensions>
      </trkpt>
      <trkpt lat="42.5464866869151592254638671875" lon="20.14497731812298297882080078125">
        <ele>2104.60009765625</ele>
        <time>2026-06-20T08:07:05.000Z</time>
        <extensions>
          <ns3:TrackPointExtension>
            <ns3:atemp>20.0</ns3:atemp>
          </ns3:TrackPointExtension>
        </extensions>
      </trkpt>
      <trkpt lat="42.5464866869151592254638671875" lon="20.14497731812298297882080078125">
        <ele>2104.60009765625</ele>
        <time>2026-06-20T08:07:06.000Z</time>
        <extensions>
          <ns3:TrackPointExtension>
            <ns3:atemp>20.0</ns3:atemp>
          </ns3:TrackPointExtension>
        </extensions>
      </trkpt>
      <trkpt lat="42.5464866869151592254638671875" lon="20.14497731812298297882080078125">
        <ele>2104.60009765625</ele>
        <time>2026-06-20T08:07:07.000Z</time>
        <extensions>
          <ns3:TrackPointExtension>
            <ns3:atemp>20.0</ns3:atemp>
          </ns3:TrackPointExtension>
        </extensions>
      </trkpt>
      <trkpt lat="42.5464866869151592254638671875" lon="20.14497731812298297882080078125">
        <ele>2104.60009765625</ele>
        <time>2026-06-20T08:07:08.000Z</time>
        <extensions>
          <ns3:TrackPointExtension>
            <ns3:atemp>20.0</ns3:atemp>
          </ns3:TrackPointExtension>
        </extensions>
      </trkpt>
      <trkpt lat="42.5464866869151592254638671875" lon="20.14497731812298297882080078125">
        <ele>2104.60009765625</ele>
        <time>2026-06-20T08:07:09.000Z</time>
        <extensions>
          <ns3:TrackPointExtension>
            <ns3:atemp>20.0</ns3:atemp>
          </ns3:TrackPointExtension>
        </extensions>
      </trkpt>
      <trkpt lat="42.5464866869151592254638671875" lon="20.14497731812298297882080078125">
        <ele>2104.60009765625</ele>
        <time>2026-06-20T08:07:10.000Z</time>
        <extensions>
          <ns3:TrackPointExtension>
            <ns3:atemp>20.0</ns3:atemp>
          </ns3:TrackPointExtension>
        </extensions>
      </trkpt>
      <trkpt lat="42.54648794420063495635986328125" lon="20.14497220516204833984375">
        <ele>2104.60009765625</ele>
        <time>2026-06-20T08:07:11.000Z</time>
        <extensions>
          <ns3:TrackPointExtension>
            <ns3:atemp>20.0</ns3:atemp>
          </ns3:TrackPointExtension>
        </extensions>
      </trkpt>
      <trkpt lat="42.54648291505873203277587890625" lon="20.1449857838451862335205078125">
        <ele>2104.60009765625</ele>
        <time>2026-06-20T08:07:12.000Z</time>
        <extensions>
          <ns3:TrackPointExtension>
            <ns3:atemp>20.0</ns3:atemp>
          </ns3:TrackPointExtension>
        </extensions>
      </trkpt>
      <trkpt lat="42.54647755064070224761962890625" lon="20.1450105942785739898681640625">
        <ele>2105</ele>
        <time>2026-06-20T08:07:13.000Z</time>
        <extensions>
          <ns3:TrackPointExtension>
            <ns3:atemp>20.0</ns3:atemp>
          </ns3:TrackPointExtension>
        </extensions>
      </trkpt>
      <trkpt lat="42.54647050984203815460205078125" lon="20.1450313813984394073486328125">
        <ele>2104.800048828125</ele>
        <time>2026-06-20T08:07:14.000Z</time>
        <extensions>
          <ns3:TrackPointExtension>
            <ns3:atemp>20.0</ns3:atemp>
          </ns3:TrackPointExtension>
        </extensions>
      </trkpt>
      <trkpt lat="42.54645843990147113800048828125" lon="20.14505040831863880157470703125">
        <ele>2104.60009765625</ele>
        <time>2026-06-20T08:07:15.000Z</time>
        <extensions>
          <ns3:TrackPointExtension>
            <ns3:atemp>20.0</ns3:atemp>
          </ns3:TrackPointExtension>
        </extensions>
      </trkpt>
      <trkpt lat="42.5464417599141597747802734375" lon="20.14506231062114238739013671875">
        <ele>2104.199951171875</ele>
        <time>2026-06-20T08:07:16.000Z</time>
        <extensions>
          <ns3:TrackPointExtension>
            <ns3:atemp>20.0</ns3:atemp>
          </ns3:TrackPointExtension>
        </extensions>
      </trkpt>
      <trkpt lat="42.54642088897526264190673828125" lon="20.1450702734291553497314453125">
        <ele>2103.60009765625</ele>
        <time>2026-06-20T08:07:17.000Z</time>
        <extensions>
          <ns3:TrackPointExtension>
            <ns3:atemp>20.0</ns3:atemp>
          </ns3:TrackPointExtension>
        </extensions>
      </trkpt>
      <trkpt lat="42.5463958270847797393798828125" lon="20.1450810022652149200439453125">
        <ele>2103.199951171875</ele>
        <time>2026-06-20T08:07:18.000Z</time>
        <extensions>
          <ns3:TrackPointExtension>
            <ns3:atemp>20.0</ns3:atemp>
          </ns3:TrackPointExtension>
        </extensions>
      </trkpt>
      <trkpt lat="42.54636690951883792877197265625" lon="20.14508829452097415924072265625">
        <ele>2102.60009765625</ele>
        <time>2026-06-20T08:07:19.000Z</time>
        <extensions>
          <ns3:TrackPointExtension>
            <ns3:atemp>20.0</ns3:atemp>
          </ns3:TrackPointExtension>
        </extensions>
      </trkpt>
      <trkpt lat="42.5463358126580715179443359375" lon="20.145083852112293243408203125">
        <ele>2102</ele>
        <time>2026-06-20T08:07:20.000Z</time>
        <extensions>
          <ns3:TrackPointExtension>
            <ns3:atemp>20.0</ns3:atemp>
          </ns3:TrackPointExtension>
        </extensions>
      </trkpt>
      <trkpt lat="42.54630253650248050689697265625" lon="20.14507940970361232757568359375">
        <ele>2101.199951171875</ele>
        <time>2026-06-20T08:07:21.000Z</time>
        <extensions>
          <ns3:TrackPointExtension>
            <ns3:atemp>20.0</ns3:atemp>
          </ns3:TrackPointExtension>
        </extensions>
      </trkpt>
      <trkpt lat="42.54626012407243251800537109375" lon="20.145069099962711334228515625">
        <ele>2100.199951171875</ele>
        <time>2026-06-20T08:07:22.000Z</time>
        <extensions>
          <ns3:TrackPointExtension>
            <ns3:atemp>20.0</ns3:atemp>
          </ns3:TrackPointExtension>
        </extensions>
      </trkpt>
      <trkpt lat="42.54622240550816059112548828125" lon="20.1450622268021106719970703125">
        <ele>2099.39990234375</ele>
        <time>2026-06-20T08:07:23.000Z</time>
        <extensions>
          <ns3:TrackPointExtension>
            <ns3:atemp>20.0</ns3:atemp>
          </ns3:TrackPointExtension>
        </extensions>
      </trkpt>
      <trkpt lat="42.5461839325726032257080078125" lon="20.145057700574398040771484375">
        <ele>2098.800048828125</ele>
        <time>2026-06-20T08:07:24.000Z</time>
        <extensions>
          <ns3:TrackPointExtension>
            <ns3:atemp>20.0</ns3:atemp>
          </ns3:TrackPointExtension>
        </extensions>
      </trkpt>
      <trkpt lat="42.54614395089447498321533203125" lon="20.14506583102047443389892578125">
        <ele>2097.800048828125</ele>
        <time>2026-06-20T08:07:25.000Z</time>
        <extensions>
          <ns3:TrackPointExtension>
            <ns3:atemp>20.0</ns3:atemp>
          </ns3:TrackPointExtension>
        </extensions>
      </trkpt>
      <trkpt lat="42.5461054779589176177978515625" lon="20.14507672749459743499755859375">
        <ele>2097</ele>
        <time>2026-06-20T08:07:26.000Z</time>
        <extensions>
          <ns3:TrackPointExtension>
            <ns3:atemp>20.0</ns3:atemp>
          </ns3:TrackPointExtension>
        </extensions>
      </trkpt>
      <trkpt lat="42.54606641829013824462890625" lon="20.14508645050227642059326171875">
        <ele>2096</ele>
        <time>2026-06-20T08:07:27.000Z</time>
        <extensions>
          <ns3:TrackPointExtension>
            <ns3:atemp>20.0</ns3:atemp>
          </ns3:TrackPointExtension>
        </extensions>
      </trkpt>
      <trkpt lat="42.5460357405245304107666015625" lon="20.14509382657706737518310546875">
        <ele>2095</ele>
        <time>2026-06-20T08:07:28.000Z</time>
        <extensions>
          <ns3:TrackPointExtension>
            <ns3:atemp>20.0</ns3:atemp>
          </ns3:TrackPointExtension>
        </extensions>
      </trkpt>
      <trkpt lat="42.54601486958563327789306640625" lon="20.1451058126986026763916015625">
        <ele>2094.39990234375</ele>
        <time>2026-06-20T08:07:29.000Z</time>
        <extensions>
          <ns3:TrackPointExtension>
            <ns3:atemp>20.0</ns3:atemp>
          </ns3:TrackPointExtension>
        </extensions>
      </trkpt>
      <trkpt lat="42.54599492065608501434326171875" lon="20.1450981013476848602294921875">
        <ele>2093.800048828125</ele>
        <time>2026-06-20T08:07:30.000Z</time>
        <extensions>
          <ns3:TrackPointExtension>
            <ns3:atemp>20.0</ns3:atemp>
          </ns3:TrackPointExtension>
        </extensions>
      </trkpt>
      <trkpt lat="42.54597731865942478179931640625" lon="20.14509282074868679046630859375">
        <ele>2093.199951171875</ele>
        <time>2026-06-20T08:07:31.000Z</time>
        <extensions>
          <ns3:TrackPointExtension>
            <ns3:atemp>20.0</ns3:atemp>
          </ns3:TrackPointExtension>
        </extensions>
      </trkpt>
      <trkpt lat="42.5459566153585910797119140625" lon="20.145092904567718505859375">
        <ele>2092.60009765625</ele>
        <time>2026-06-20T08:07:32.000Z</time>
        <extensions>
          <ns3:TrackPointExtension>
            <ns3:atemp>20.0</ns3:atemp>
          </ns3:TrackPointExtension>
        </extensions>
      </trkpt>
      <trkpt lat="42.54593364894390106201171875" lon="20.1450917311012744903564453125">
        <ele>2092</ele>
        <time>2026-06-20T08:07:33.000Z</time>
        <extensions>
          <ns3:TrackPointExtension>
            <ns3:atemp>20.0</ns3:atemp>
          </ns3:TrackPointExtension>
        </extensions>
      </trkpt>
      <trkpt lat="42.5459090061485767364501953125" lon="20.14509625732898712158203125">
        <ele>2091.60009765625</ele>
        <time>2026-06-20T08:07:34.000Z</time>
        <extensions>
          <ns3:TrackPointExtension>
            <ns3:atemp>20.0</ns3:atemp>
          </ns3:TrackPointExtension>
        </extensions>
      </trkpt>
      <trkpt lat="42.545890398323535919189453125" lon="20.145095251500606536865234375">
        <ele>2091</ele>
        <time>2026-06-20T08:07:35.000Z</time>
        <extensions>
          <ns3:TrackPointExtension>
            <ns3:atemp>20.0</ns3:atemp>
          </ns3:TrackPointExtension>
        </extensions>
      </trkpt>
      <trkpt lat="42.54586852155625820159912109375" lon="20.1450942456722259521484375">
        <ele>2090.60009765625</ele>
        <time>2026-06-20T08:07:36.000Z</time>
        <extensions>
          <ns3:TrackPointExtension>
            <ns3:atemp>20.0</ns3:atemp>
          </ns3:TrackPointExtension>
        </extensions>
      </trkpt>
      <trkpt lat="42.5458463095128536224365234375" lon="20.145102627575397491455078125">
        <ele>2090.199951171875</ele>
        <time>2026-06-20T08:07:37.000Z</time>
        <extensions>
          <ns3:TrackPointExtension>
            <ns3:atemp>20.0</ns3:atemp>
          </ns3:TrackPointExtension>
        </extensions>
      </trkpt>
      <trkpt lat="42.54582233726978302001953125" lon="20.1451078243553638458251953125">
        <ele>2089.800048828125</ele>
        <time>2026-06-20T08:07:38.000Z</time>
        <extensions>
          <ns3:TrackPointExtension>
            <ns3:atemp>20.0</ns3:atemp>
          </ns3:TrackPointExtension>
        </extensions>
      </trkpt>
      <trkpt lat="42.5457946769893169403076171875" lon="20.14511578716337680816650390625">
        <ele>2089.199951171875</ele>
        <time>2026-06-20T08:07:39.000Z</time>
        <extensions>
          <ns3:TrackPointExtension>
            <ns3:atemp>20.0</ns3:atemp>
          </ns3:TrackPointExtension>
        </extensions>
      </trkpt>
      <trkpt lat="42.54576073028147220611572265625" lon="20.14511461369693279266357421875">
        <ele>2088.60009765625</ele>
        <time>2026-06-20T08:07:40.000Z</time>
        <extensions>
          <ns3:TrackPointExtension>
            <ns3:atemp>20.0</ns3:atemp>
          </ns3:TrackPointExtension>
        </extensions>
      </trkpt>
      <trkpt lat="42.54572753794491291046142578125" lon="20.14512173831462860107421875">
        <ele>2088</ele>
        <time>2026-06-20T08:07:41.000Z</time>
        <extensions>
          <ns3:TrackPointExtension>
            <ns3:atemp>20.0</ns3:atemp>
          </ns3:TrackPointExtension>
        </extensions>
      </trkpt>
      <trkpt lat="42.54570306278765201568603515625" lon="20.1451400108635425567626953125">
        <ele>2087.60009765625</ele>
        <time>2026-06-20T08:07:42.000Z</time>
        <extensions>
          <ns3:TrackPointExtension>
            <ns3:atemp>21.0</ns3:atemp>
          </ns3:TrackPointExtension>
        </extensions>
      </trkpt>
      <trkpt lat="42.54568420350551605224609375" lon="20.145158953964710235595703125">
        <ele>2087.199951171875</ele>
        <time>2026-06-20T08:07:43.000Z</time>
        <extensions>
          <ns3:TrackPointExtension>
            <ns3:atemp>20.0</ns3:atemp>
          </ns3:TrackPointExtension>
        </extensions>
      </trkpt>
      <trkpt lat="42.545663751661777496337890625" lon="20.145167000591754913330078125">
        <ele>2086.800048828125</ele>
        <time>2026-06-20T08:07:44.000Z</time>
        <extensions>
          <ns3:TrackPointExtension>
            <ns3:atemp>21.0</ns3:atemp>
          </ns3:TrackPointExtension>
        </extensions>
      </trkpt>
      <trkpt lat="42.5456364266574382781982421875" lon="20.145178399980068206787109375">
        <ele>2086.60009765625</ele>
        <time>2026-06-20T08:07:45.000Z</time>
        <extensions>
          <ns3:TrackPointExtension>
            <ns3:atemp>21.0</ns3:atemp>
          </ns3:TrackPointExtension>
        </extensions>
      </trkpt>
      <trkpt lat="42.54561555571854114532470703125" lon="20.1451949961483478546142578125">
        <ele>2086.199951171875</ele>
        <time>2026-06-20T08:07:46.000Z</time>
        <extensions>
          <ns3:TrackPointExtension>
            <ns3:atemp>21.0</ns3:atemp>
          </ns3:TrackPointExtension>
        </extensions>
      </trkpt>
      <trkpt lat="42.5455925054848194122314453125" lon="20.1452053897082805633544921875">
        <ele>2085.800048828125</ele>
        <time>2026-06-20T08:07:47.000Z</time>
        <extensions>
          <ns3:TrackPointExtension>
            <ns3:atemp>21.0</ns3:atemp>
          </ns3:TrackPointExtension>
        </extensions>
      </trkpt>
      <trkpt lat="42.54556953907012939453125" lon="20.1452157832682132720947265625">
        <ele>2085.39990234375</ele>
        <time>2026-06-20T08:07:48.000Z</time>
        <extensions>
          <ns3:TrackPointExtension>
            <ns3:atemp>21.0</ns3:atemp>
          </ns3:TrackPointExtension>
        </extensions>
      </trkpt>
      <trkpt lat="42.54554271697998046875" lon="20.1452338881790637969970703125">
        <ele>2084.800048828125</ele>
        <time>2026-06-20T08:07:49.000Z</time>
        <extensions>
          <ns3:TrackPointExtension>
            <ns3:atemp>20.0</ns3:atemp>
          </ns3:TrackPointExtension>
        </extensions>
      </trkpt>
      <trkpt lat="42.545512206852436065673828125" lon="20.145256184041500091552734375">
        <ele>2084.199951171875</ele>
        <time>2026-06-20T08:07:50.000Z</time>
        <extensions>
          <ns3:TrackPointExtension>
            <ns3:atemp>20.0</ns3:atemp>
          </ns3:TrackPointExtension>
        </extensions>
      </trkpt>
      <trkpt lat="42.54548303782939910888671875" lon="20.1452851854264736175537109375">
        <ele>2083.800048828125</ele>
        <time>2026-06-20T08:07:51.000Z</time>
        <extensions>
          <ns3:TrackPointExtension>
            <ns3:atemp>20.0</ns3:atemp>
          </ns3:TrackPointExtension>
        </extensions>
      </trkpt>
      <trkpt lat="42.54545780830085277557373046875" lon="20.14531276188790798187255859375">
        <ele>2083.39990234375</ele>
        <time>2026-06-20T08:07:52.000Z</time>
        <extensions>
          <ns3:TrackPointExtension>
            <ns3:atemp>21.0</ns3:atemp>
          </ns3:TrackPointExtension>
        </extensions>
      </trkpt>
      <trkpt lat="42.545437105000019073486328125" lon="20.14534494839608669281005859375">
        <ele>2083</ele>
        <time>2026-06-20T08:07:53.000Z</time>
        <extensions>
          <ns3:TrackPointExtension>
            <ns3:atemp>20.0</ns3:atemp>
          </ns3:TrackPointExtension>
        </extensions>
      </trkpt>
      <trkpt lat="42.54541723988950252532958984375" lon="20.145372860133647918701171875">
        <ele>2082.800048828125</ele>
        <time>2026-06-20T08:07:54.000Z</time>
        <extensions>
          <ns3:TrackPointExtension>
            <ns3:atemp>21.0</ns3:atemp>
          </ns3:TrackPointExtension>
        </extensions>
      </trkpt>
      <trkpt lat="42.5454007275402545928955078125" lon="20.14540513046085834503173828125">
        <ele>2082.60009765625</ele>
        <time>2026-06-20T08:07:55.000Z</time>
        <extensions>
          <ns3:TrackPointExtension>
            <ns3:atemp>21.0</ns3:atemp>
          </ns3:TrackPointExtension>
        </extensions>
      </trkpt>
      <trkpt lat="42.5453889928758144378662109375" lon="20.14543781988322734832763671875">
        <ele>2082.39990234375</ele>
        <time>2026-06-20T08:07:56.000Z</time>
        <extensions>
          <ns3:TrackPointExtension>
            <ns3:atemp>21.0</ns3:atemp>
          </ns3:TrackPointExtension>
        </extensions>
      </trkpt>
      <trkpt lat="42.54538052715361118316650390625" lon="20.145470090210437774658203125">
        <ele>2082.39990234375</ele>
        <time>2026-06-20T08:07:57.000Z</time>
        <extensions>
          <ns3:TrackPointExtension>
            <ns3:atemp>21.0</ns3:atemp>
          </ns3:TrackPointExtension>
        </extensions>
      </trkpt>
      <trkpt lat="42.5453708879649639129638671875" lon="20.14550336636602878570556640625">
        <ele>2082.199951171875</ele>
        <time>2026-06-20T08:07:58.000Z</time>
        <extensions>
          <ns3:TrackPointExtension>
            <ns3:atemp>20.0</ns3:atemp>
          </ns3:TrackPointExtension>
        </extensions>
      </trkpt>
      <trkpt lat="42.54536141641438007354736328125" lon="20.1455326192080974578857421875">
        <ele>2082.199951171875</ele>
        <time>2026-06-20T08:07:59.000Z</time>
        <extensions>
          <ns3:TrackPointExtension>
            <ns3:atemp>20.0</ns3:atemp>
          </ns3:TrackPointExtension>
        </extensions>
      </trkpt>
      <trkpt lat="42.54535605199635028839111328125" lon="20.1455604471266269683837890625">
        <ele>2082.199951171875</ele>
        <time>2026-06-20T08:08:00.000Z</time>
        <extensions>
          <ns3:TrackPointExtension>
            <ns3:atemp>20.0</ns3:atemp>
          </ns3:TrackPointExtension>
        </extensions>
      </trkpt>
      <trkpt lat="42.54534834064543247222900390625" lon="20.14558852650225162506103515625">
        <ele>2082</ele>
        <time>2026-06-20T08:08:01.000Z</time>
        <extensions>
          <ns3:TrackPointExtension>
            <ns3:atemp>20.0</ns3:atemp>
          </ns3:TrackPointExtension>
        </extensions>
      </trkpt>
      <trkpt lat="42.54534297622740268707275390625" lon="20.14561467804014682769775390625">
        <ele>2082</ele>
        <time>2026-06-20T08:08:02.000Z</time>
        <extensions>
          <ns3:TrackPointExtension>
            <ns3:atemp>20.0</ns3:atemp>
          </ns3:TrackPointExtension>
        </extensions>
      </trkpt>
      <trkpt lat="42.5453397072851657867431640625" lon="20.14564116485416889190673828125">
        <ele>2081.800048828125</ele>
        <time>2026-06-20T08:08:03.000Z</time>
        <extensions>
          <ns3:TrackPointExtension>
            <ns3:atemp>20.0</ns3:atemp>
          </ns3:TrackPointExtension>
        </extensions>
      </trkpt>
      <trkpt lat="42.5453363545238971710205078125" lon="20.14567301608622074127197265625">
        <ele>2081.60009765625</ele>
        <time>2026-06-20T08:08:04.000Z</time>
        <extensions>
          <ns3:TrackPointExtension>
            <ns3:atemp>20.0</ns3:atemp>
          </ns3:TrackPointExtension>
        </extensions>
      </trkpt>
      <trkpt lat="42.54532738588750362396240234375" lon="20.14570109546184539794921875">
        <ele>2081.60009765625</ele>
        <time>2026-06-20T08:08:05.000Z</time>
        <extensions>
          <ns3:TrackPointExtension>
            <ns3:atemp>20.0</ns3:atemp>
          </ns3:TrackPointExtension>
        </extensions>
      </trkpt>
      <trkpt lat="42.54532353021204471588134765625" lon="20.14573395252227783203125">
        <ele>2081.39990234375</ele>
        <time>2026-06-20T08:08:06.000Z</time>
        <extensions>
          <ns3:TrackPointExtension>
            <ns3:atemp>20.0</ns3:atemp>
          </ns3:TrackPointExtension>
        </extensions>
      </trkpt>
      <trkpt lat="42.5453179143369197845458984375" lon="20.14576588757336139678955078125">
        <ele>2081.199951171875</ele>
        <time>2026-06-20T08:08:07.000Z</time>
        <extensions>
          <ns3:TrackPointExtension>
            <ns3:atemp>20.0</ns3:atemp>
          </ns3:TrackPointExtension>
        </extensions>
      </trkpt>
      <trkpt lat="42.54531330429017543792724609375" lon="20.14579907990992069244384765625">
        <ele>2081.199951171875</ele>
        <time>2026-06-20T08:08:08.000Z</time>
        <extensions>
          <ns3:TrackPointExtension>
            <ns3:atemp>20.0</ns3:atemp>
          </ns3:TrackPointExtension>
        </extensions>
      </trkpt>
      <trkpt lat="42.54530961625277996063232421875" lon="20.1458303444087505340576171875">
        <ele>2081</ele>
        <time>2026-06-20T08:08:09.000Z</time>
        <extensions>
          <ns3:TrackPointExtension>
            <ns3:atemp>20.0</ns3:atemp>
          </ns3:TrackPointExtension>
        </extensions>
      </trkpt>
      <trkpt lat="42.54530056379735469818115234375" lon="20.14586177654564380645751953125">
        <ele>2081</ele>
        <time>2026-06-20T08:08:10.000Z</time>
        <extensions>
          <ns3:TrackPointExtension>
            <ns3:atemp>20.0</ns3:atemp>
          </ns3:TrackPointExtension>
        </extensions>
      </trkpt>
      <trkpt lat="42.5452892482280731201171875" lon="20.145892202854156494140625">
        <ele>2081</ele>
        <time>2026-06-20T08:08:11.000Z</time>
        <extensions>
          <ns3:TrackPointExtension>
            <ns3:atemp>20.0</ns3:atemp>
          </ns3:TrackPointExtension>
        </extensions>
      </trkpt>
      <trkpt lat="42.54527625627815723419189453125" lon="20.14592011459171772003173828125">
        <ele>2081.199951171875</ele>
        <time>2026-06-20T08:08:12.000Z</time>
        <extensions>
          <ns3:TrackPointExtension>
            <ns3:atemp>21.0</ns3:atemp>
          </ns3:TrackPointExtension>
        </extensions>
      </trkpt>
      <trkpt lat="42.54526368342339992523193359375" lon="20.14594383537769317626953125">
        <ele>2081.199951171875</ele>
        <time>2026-06-20T08:08:13.000Z</time>
        <extensions>
          <ns3:TrackPointExtension>
            <ns3:atemp>21.0</ns3:atemp>
          </ns3:TrackPointExtension>
        </extensions>
      </trkpt>
      <trkpt lat="42.54525211639702320098876953125" lon="20.1459644548594951629638671875">
        <ele>2081.39990234375</ele>
        <time>2026-06-20T08:08:14.000Z</time>
        <extensions>
          <ns3:TrackPointExtension>
            <ns3:atemp>21.0</ns3:atemp>
          </ns3:TrackPointExtension>
        </extensions>
      </trkpt>
      <trkpt lat="42.5452411361038684844970703125" lon="20.14598381705582141876220703125">
        <ele>2081.39990234375</ele>
        <time>2026-06-20T08:08:15.000Z</time>
        <extensions>
          <ns3:TrackPointExtension>
            <ns3:atemp>21.0</ns3:atemp>
          </ns3:TrackPointExtension>
        </extensions>
      </trkpt>
      <trkpt lat="42.54522613249719142913818359375" lon="20.145997144281864166259765625">
        <ele>2081.60009765625</ele>
        <time>2026-06-20T08:08:16.000Z</time>
        <extensions>
          <ns3:TrackPointExtension>
            <ns3:atemp>21.0</ns3:atemp>
          </ns3:TrackPointExtension>
        </extensions>
      </trkpt>
      <trkpt lat="42.54521288909018039703369140625" lon="20.14601625502109527587890625">
        <ele>2081.60009765625</ele>
        <time>2026-06-20T08:08:17.000Z</time>
        <extensions>
          <ns3:TrackPointExtension>
            <ns3:atemp>20.0</ns3:atemp>
          </ns3:TrackPointExtension>
        </extensions>
      </trkpt>
      <trkpt lat="42.5452029146254062652587890625" lon="20.14603729359805583953857421875">
        <ele>2081.60009765625</ele>
        <time>2026-06-20T08:08:18.000Z</time>
        <extensions>
          <ns3:TrackPointExtension>
            <ns3:atemp>21.0</ns3:atemp>
          </ns3:TrackPointExtension>
        </extensions>
      </trkpt>
      <trkpt lat="42.5451992265880107879638671875" lon="20.14605975709855556488037109375">
        <ele>2081.60009765625</ele>
        <time>2026-06-20T08:08:19.000Z</time>
        <extensions>
          <ns3:TrackPointExtension>
            <ns3:atemp>21.0</ns3:atemp>
          </ns3:TrackPointExtension>
        </extensions>
      </trkpt>
      <trkpt lat="42.54519470036029815673828125" lon="20.14608138240873813629150390625">
        <ele>2081.60009765625</ele>
        <time>2026-06-20T08:08:20.000Z</time>
        <extensions>
          <ns3:TrackPointExtension>
            <ns3:atemp>21.0</ns3:atemp>
          </ns3:TrackPointExtension>
        </extensions>
      </trkpt>
      <trkpt lat="42.54519210197031497955322265625" lon="20.14610954560339450836181640625">
        <ele>2081.800048828125</ele>
        <time>2026-06-20T08:08:21.000Z</time>
        <extensions>
          <ns3:TrackPointExtension>
            <ns3:atemp>21.0</ns3:atemp>
          </ns3:TrackPointExtension>
        </extensions>
      </trkpt>
      <trkpt lat="42.5451854802668094635009765625" lon="20.1461381278932094573974609375">
        <ele>2081.800048828125</ele>
        <time>2026-06-20T08:08:22.000Z</time>
        <extensions>
          <ns3:TrackPointExtension>
            <ns3:atemp>21.0</ns3:atemp>
          </ns3:TrackPointExtension>
        </extensions>
      </trkpt>
      <trkpt lat="42.5451807864010334014892578125" lon="20.14614793471992015838623046875">
        <ele>2082</ele>
        <time>2026-06-20T08:08:23.000Z</time>
        <extensions>
          <ns3:TrackPointExtension>
            <ns3:atemp>21.0</ns3:atemp>
          </ns3:TrackPointExtension>
        </extensions>
      </trkpt>
      <trkpt lat="42.5451821275055408477783203125" lon="20.1461438275873661041259765625">
        <ele>2082.199951171875</ele>
        <time>2026-06-20T08:08:24.000Z</time>
        <extensions>
          <ns3:TrackPointExtension>
            <ns3:atemp>21.0</ns3:atemp>
          </ns3:TrackPointExtension>
        </extensions>
      </trkpt>
      <trkpt lat="42.54518221132457256317138671875" lon="20.14614374376833438873291015625">
        <ele>2082.199951171875</ele>
        <time>2026-06-20T08:08:25.000Z</time>
        <extensions>
          <ns3:TrackPointExtension>
            <ns3:atemp>20.0</ns3:atemp>
          </ns3:TrackPointExtension>
        </extensions>
      </trkpt>
      <trkpt lat="42.54518221132457256317138671875" lon="20.14614374376833438873291015625">
        <ele>2082.39990234375</ele>
        <time>2026-06-20T08:08:26.000Z</time>
        <extensions>
          <ns3:TrackPointExtension>
            <ns3:atemp>20.0</ns3:atemp>
          </ns3:TrackPointExtension>
        </extensions>
      </trkpt>
      <trkpt lat="42.54518221132457256317138671875" lon="20.14614374376833438873291015625">
        <ele>2082.39990234375</ele>
        <time>2026-06-20T08:08:27.000Z</time>
        <extensions>
          <ns3:TrackPointExtension>
            <ns3:atemp>20.0</ns3:atemp>
          </ns3:TrackPointExtension>
        </extensions>
      </trkpt>
      <trkpt lat="42.54518221132457256317138671875" lon="20.14614374376833438873291015625">
        <ele>2082.199951171875</ele>
        <time>2026-06-20T08:08:28.000Z</time>
        <extensions>
          <ns3:TrackPointExtension>
            <ns3:atemp>20.0</ns3:atemp>
          </ns3:TrackPointExtension>
        </extensions>
      </trkpt>
      <trkpt lat="42.54518221132457256317138671875" lon="20.14614374376833438873291015625">
        <ele>2082</ele>
        <time>2026-06-20T08:08:29.000Z</time>
        <extensions>
          <ns3:TrackPointExtension>
            <ns3:atemp>20.0</ns3:atemp>
          </ns3:TrackPointExtension>
        </extensions>
      </trkpt>
      <trkpt lat="42.54518221132457256317138671875" lon="20.14614374376833438873291015625">
        <ele>2082</ele>
        <time>2026-06-20T08:08:30.000Z</time>
        <extensions>
          <ns3:TrackPointExtension>
            <ns3:atemp>20.0</ns3:atemp>
          </ns3:TrackPointExtension>
        </extensions>
      </trkpt>
      <trkpt lat="42.54518221132457256317138671875" lon="20.14614374376833438873291015625">
        <ele>2082</ele>
        <time>2026-06-20T08:08:31.000Z</time>
        <extensions>
          <ns3:TrackPointExtension>
            <ns3:atemp>20.0</ns3:atemp>
          </ns3:TrackPointExtension>
        </extensions>
      </trkpt>
      <trkpt lat="42.54518221132457256317138671875" lon="20.14614374376833438873291015625">
        <ele>2081.800048828125</ele>
        <time>2026-06-20T08:08:32.000Z</time>
        <extensions>
          <ns3:TrackPointExtension>
            <ns3:atemp>20.0</ns3:atemp>
          </ns3:TrackPointExtension>
        </extensions>
      </trkpt>
      <trkpt lat="42.54518288187682628631591796875" lon="20.146142654120922088623046875">
        <ele>2081.800048828125</ele>
        <time>2026-06-20T08:08:33.000Z</time>
        <extensions>
          <ns3:TrackPointExtension>
            <ns3:atemp>20.0</ns3:atemp>
          </ns3:TrackPointExtension>
        </extensions>
      </trkpt>
      <trkpt lat="42.54518003202974796295166015625" lon="20.14615346677601337432861328125">
        <ele>2081.800048828125</ele>
        <time>2026-06-20T08:08:34.000Z</time>
        <extensions>
          <ns3:TrackPointExtension>
            <ns3:atemp>20.0</ns3:atemp>
          </ns3:TrackPointExtension>
        </extensions>
      </trkpt>
      <trkpt lat="42.54517399705946445465087890625" lon="20.14617408625781536102294921875">
        <ele>2081.800048828125</ele>
        <time>2026-06-20T08:08:35.000Z</time>
        <extensions>
          <ns3:TrackPointExtension>
            <ns3:atemp>20.0</ns3:atemp>
          </ns3:TrackPointExtension>
        </extensions>
      </trkpt>
      <trkpt lat="42.54516460932791233062744140625" lon="20.14619805850088596343994140625">
        <ele>2081.60009765625</ele>
        <time>2026-06-20T08:08:36.000Z</time>
        <extensions>
          <ns3:TrackPointExtension>
            <ns3:atemp>20.0</ns3:atemp>
          </ns3:TrackPointExtension>
        </extensions>
      </trkpt>
      <trkpt lat="42.5451499409973621368408203125" lon="20.1462286524474620819091796875">
        <ele>2081.60009765625</ele>
        <time>2026-06-20T08:08:37.000Z</time>
        <extensions>
          <ns3:TrackPointExtension>
            <ns3:atemp>20.0</ns3:atemp>
          </ns3:TrackPointExtension>
        </extensions>
      </trkpt>
      <trkpt lat="42.54513091407716274261474609375" lon="20.1462598331272602081298828125">
        <ele>2081.39990234375</ele>
        <time>2026-06-20T08:08:38.000Z</time>
        <extensions>
          <ns3:TrackPointExtension>
            <ns3:atemp>20.0</ns3:atemp>
          </ns3:TrackPointExtension>
        </extensions>
      </trkpt>
      <trkpt lat="42.54510375671088695526123046875" lon="20.14628715813159942626953125">
        <ele>2081.199951171875</ele>
        <time>2026-06-20T08:08:39.000Z</time>
        <extensions>
          <ns3:TrackPointExtension>
            <ns3:atemp>21.0</ns3:atemp>
          </ns3:TrackPointExtension>
        </extensions>
      </trkpt>
      <trkpt lat="42.5450745038688182830810546875" lon="20.146321021020412445068359375">
        <ele>2081.199951171875</ele>
        <time>2026-06-20T08:08:40.000Z</time>
        <extensions>
          <ns3:TrackPointExtension>
            <ns3:atemp>21.0</ns3:atemp>
          </ns3:TrackPointExtension>
        </extensions>
      </trkpt>
      <trkpt lat="42.5450451672077178955078125" lon="20.14634457416832447052001953125">
        <ele>2081</ele>
        <time>2026-06-20T08:08:41.000Z</time>
        <extensions>
          <ns3:TrackPointExtension>
            <ns3:atemp>21.0</ns3:atemp>
          </ns3:TrackPointExtension>
        </extensions>
      </trkpt>
      <trkpt lat="42.54501767456531524658203125" lon="20.14635957777500152587890625">
        <ele>2080.60009765625</ele>
        <time>2026-06-20T08:08:42.000Z</time>
        <extensions>
          <ns3:TrackPointExtension>
            <ns3:atemp>21.0</ns3:atemp>
          </ns3:TrackPointExtension>
        </extensions>
      </trkpt>
      <trkpt lat="42.544988505542278289794921875" lon="20.14637223444879055023193359375">
        <ele>2080.39990234375</ele>
        <time>2026-06-20T08:08:43.000Z</time>
        <extensions>
          <ns3:TrackPointExtension>
            <ns3:atemp>21.0</ns3:atemp>
          </ns3:TrackPointExtension>
        </extensions>
      </trkpt>
      <trkpt lat="42.544959671795368194580078125" lon="20.1463885791599750518798828125">
        <ele>2080.199951171875</ele>
        <time>2026-06-20T08:08:44.000Z</time>
        <extensions>
          <ns3:TrackPointExtension>
            <ns3:atemp>21.0</ns3:atemp>
          </ns3:TrackPointExtension>
        </extensions>
      </trkpt>
      <trkpt lat="42.544936202466487884521484375" lon="20.14640727080404758453369140625">
        <ele>2080.199951171875</ele>
        <time>2026-06-20T08:08:45.000Z</time>
        <extensions>
          <ns3:TrackPointExtension>
            <ns3:atemp>21.0</ns3:atemp>
          </ns3:TrackPointExtension>
        </extensions>
      </trkpt>
      <trkpt lat="42.54492186941206455230712890625" lon="20.14642395079135894775390625">
        <ele>2080</ele>
        <time>2026-06-20T08:08:46.000Z</time>
        <extensions>
          <ns3:TrackPointExtension>
            <ns3:atemp>21.0</ns3:atemp>
          </ns3:TrackPointExtension>
        </extensions>
      </trkpt>
      <trkpt lat="42.5449025072157382965087890625" lon="20.14643828384578227996826171875">
        <ele>2080</ele>
        <time>2026-06-20T08:08:47.000Z</time>
        <extensions>
          <ns3:TrackPointExtension>
            <ns3:atemp>21.0</ns3:atemp>
          </ns3:TrackPointExtension>
        </extensions>
      </trkpt>
      <trkpt lat="42.54488666541874408721923828125" lon="20.14645219780504703521728515625">
        <ele>2080</ele>
        <time>2026-06-20T08:08:48.000Z</time>
        <extensions>
          <ns3:TrackPointExtension>
            <ns3:atemp>21.0</ns3:atemp>
          </ns3:TrackPointExtension>
        </extensions>
      </trkpt>
      <trkpt lat="42.54486721940338611602783203125" lon="20.14646477065980434417724609375">
        <ele>2080.199951171875</ele>
        <time>2026-06-20T08:08:49.000Z</time>
        <extensions>
          <ns3:TrackPointExtension>
            <ns3:atemp>21.0</ns3:atemp>
          </ns3:TrackPointExtension>
        </extensions>
      </trkpt>
      <trkpt lat="42.54485079087316989898681640625" lon="20.1464774273335933685302734375">
        <ele>2080.199951171875</ele>
        <time>2026-06-20T08:08:50.000Z</time>
        <extensions>
          <ns3:TrackPointExtension>
            <ns3:atemp>21.0</ns3:atemp>
          </ns3:TrackPointExtension>
        </extensions>
      </trkpt>
      <trkpt lat="42.54484224133193492889404296875" lon="20.14649176038801670074462890625">
        <ele>2080.39990234375</ele>
        <time>2026-06-20T08:08:51.000Z</time>
        <extensions>
          <ns3:TrackPointExtension>
            <ns3:atemp>21.0</ns3:atemp>
          </ns3:TrackPointExtension>
        </extensions>
      </trkpt>
      <trkpt lat="42.544832266867160797119140625" lon="20.14651120640337467193603515625">
        <ele>2080.39990234375</ele>
        <time>2026-06-20T08:08:52.000Z</time>
        <extensions>
          <ns3:TrackPointExtension>
            <ns3:atemp>21.0</ns3:atemp>
          </ns3:TrackPointExtension>
        </extensions>
      </trkpt>
      <trkpt lat="42.5448206998407840728759765625" lon="20.14652931131422519683837890625">
        <ele>2080.39990234375</ele>
        <time>2026-06-20T08:08:53.000Z</time>
        <extensions>
          <ns3:TrackPointExtension>
            <ns3:atemp>20.0</ns3:atemp>
          </ns3:TrackPointExtension>
        </extensions>
      </trkpt>
      <trkpt lat="42.54480770789086818695068359375" lon="20.14654121361672878265380859375">
        <ele>2080.199951171875</ele>
        <time>2026-06-20T08:08:54.000Z</time>
        <extensions>
          <ns3:TrackPointExtension>
            <ns3:atemp>21.0</ns3:atemp>
          </ns3:TrackPointExtension>
        </extensions>
      </trkpt>
      <trkpt lat="42.54480066709220409393310546875" lon="20.14654733240604400634765625">
        <ele>2080</ele>
        <time>2026-06-20T08:08:55.000Z</time>
        <extensions>
          <ns3:TrackPointExtension>
            <ns3:atemp>21.0</ns3:atemp>
          </ns3:TrackPointExtension>
        </extensions>
      </trkpt>
      <trkpt lat="42.54478943534195423126220703125" lon="20.14655613340437412261962890625">
        <ele>2080</ele>
        <time>2026-06-20T08:08:56.000Z</time>
        <extensions>
          <ns3:TrackPointExtension>
            <ns3:atemp>21.0</ns3:atemp>
          </ns3:TrackPointExtension>
        </extensions>
      </trkpt>
      <trkpt lat="42.544773928821086883544921875" lon="20.14657272957265377044677734375">
        <ele>2079.60009765625</ele>
        <time>2026-06-20T08:08:57.000Z</time>
        <extensions>
          <ns3:TrackPointExtension>
            <ns3:atemp>21.0</ns3:atemp>
          </ns3:TrackPointExtension>
        </extensions>
      </trkpt>
      <trkpt lat="42.54476948641240596771240234375" lon="20.14659167267382144927978515625">
        <ele>2079.60009765625</ele>
        <time>2026-06-20T08:08:58.000Z</time>
        <extensions>
          <ns3:TrackPointExtension>
            <ns3:atemp>21.0</ns3:atemp>
          </ns3:TrackPointExtension>
        </extensions>
      </trkpt>
      <trkpt lat="42.544760517776012420654296875" lon="20.146616064012050628662109375">
        <ele>2079.39990234375</ele>
        <time>2026-06-20T08:08:59.000Z</time>
        <extensions>
          <ns3:TrackPointExtension>
            <ns3:atemp>21.0</ns3:atemp>
          </ns3:TrackPointExtension>
        </extensions>
      </trkpt>
      <trkpt lat="42.544755153357982635498046875" lon="20.1466380245983600616455078125">
        <ele>2079.199951171875</ele>
        <time>2026-06-20T08:09:00.000Z</time>
        <extensions>
          <ns3:TrackPointExtension>
            <ns3:atemp>20.0</ns3:atemp>
          </ns3:TrackPointExtension>
        </extensions>
      </trkpt>
      <trkpt lat="42.5447516329586505889892578125" lon="20.1466594822704792022705078125">
        <ele>2078.800048828125</ele>
        <time>2026-06-20T08:09:01.000Z</time>
        <extensions>
          <ns3:TrackPointExtension>
            <ns3:atemp>21.0</ns3:atemp>
          </ns3:TrackPointExtension>
        </extensions>
      </trkpt>
      <trkpt lat="42.54473880864679813385009765625" lon="20.14668035320937633514404296875">
        <ele>2078.39990234375</ele>
        <time>2026-06-20T08:09:02.000Z</time>
        <extensions>
          <ns3:TrackPointExtension>
            <ns3:atemp>21.0</ns3:atemp>
          </ns3:TrackPointExtension>
        </extensions>
      </trkpt>
      <trkpt lat="42.54472103901207447052001953125" lon="20.14669242314994335174560546875">
        <ele>2078.199951171875</ele>
        <time>2026-06-20T08:09:03.000Z</time>
        <extensions>
          <ns3:TrackPointExtension>
            <ns3:atemp>21.0</ns3:atemp>
          </ns3:TrackPointExtension>
        </extensions>
      </trkpt>
      <trkpt lat="42.544708549976348876953125" lon="20.146709941327571868896484375">
        <ele>2078</ele>
        <time>2026-06-20T08:09:04.000Z</time>
        <extensions>
          <ns3:TrackPointExtension>
            <ns3:atemp>21.0</ns3:atemp>
          </ns3:TrackPointExtension>
        </extensions>
      </trkpt>
      <trkpt lat="42.54469312727451324462890625" lon="20.14673382975161075592041015625">
        <ele>2077.800048828125</ele>
        <time>2026-06-20T08:09:05.000Z</time>
        <extensions>
          <ns3:TrackPointExtension>
            <ns3:atemp>21.0</ns3:atemp>
          </ns3:TrackPointExtension>
        </extensions>
      </trkpt>
      <trkpt lat="42.5446788780391216278076171875" lon="20.14675713144242763519287109375">
        <ele>2077.60009765625</ele>
        <time>2026-06-20T08:09:06.000Z</time>
        <extensions>
          <ns3:TrackPointExtension>
            <ns3:atemp>21.0</ns3:atemp>
          </ns3:TrackPointExtension>
        </extensions>
      </trkpt>
      <trkpt lat="42.54466454498469829559326171875" lon="20.14678412117063999176025390625">
        <ele>2077.199951171875</ele>
        <time>2026-06-20T08:09:07.000Z</time>
        <extensions>
          <ns3:TrackPointExtension>
            <ns3:atemp>21.0</ns3:atemp>
          </ns3:TrackPointExtension>
        </extensions>
      </trkpt>
      <trkpt lat="42.54465423524379730224609375" lon="20.1468096859753131866455078125">
        <ele>2076.800048828125</ele>
        <time>2026-06-20T08:09:08.000Z</time>
        <extensions>
          <ns3:TrackPointExtension>
            <ns3:atemp>21.0</ns3:atemp>
          </ns3:TrackPointExtension>
        </extensions>
      </trkpt>
      <trkpt lat="42.54463939927518367767333984375" lon="20.146834664046764373779296875">
        <ele>2076.39990234375</ele>
        <time>2026-06-20T08:09:09.000Z</time>
        <extensions>
          <ns3:TrackPointExtension>
            <ns3:atemp>21.0</ns3:atemp>
          </ns3:TrackPointExtension>
        </extensions>
      </trkpt>
      <trkpt lat="42.5446240603923797607421875" lon="20.14685905538499355316162109375">
        <ele>2076</ele>
        <time>2026-06-20T08:09:10.000Z</time>
        <extensions>
          <ns3:TrackPointExtension>
            <ns3:atemp>20.0</ns3:atemp>
          </ns3:TrackPointExtension>
        </extensions>
      </trkpt>
      <trkpt lat="42.54460486583411693572998046875" lon="20.146880932152271270751953125">
        <ele>2075.800048828125</ele>
        <time>2026-06-20T08:09:11.000Z</time>
        <extensions>
          <ns3:TrackPointExtension>
            <ns3:atemp>21.0</ns3:atemp>
          </ns3:TrackPointExtension>
        </extensions>
      </trkpt>
      <trkpt lat="42.54458357580006122589111328125" lon="20.14690465293824672698974609375">
        <ele>2075.39990234375</ele>
        <time>2026-06-20T08:09:12.000Z</time>
        <extensions>
          <ns3:TrackPointExtension>
            <ns3:atemp>21.0</ns3:atemp>
          </ns3:TrackPointExtension>
        </extensions>
      </trkpt>
      <trkpt lat="42.5445625372231006622314453125" lon="20.14693080447614192962646484375">
        <ele>2075</ele>
        <time>2026-06-20T08:09:13.000Z</time>
        <extensions>
          <ns3:TrackPointExtension>
            <ns3:atemp>21.0</ns3:atemp>
          </ns3:TrackPointExtension>
        </extensions>
      </trkpt>
      <trkpt lat="42.54454015754163265228271484375" lon="20.14695997349917888641357421875">
        <ele>2074.60009765625</ele>
        <time>2026-06-20T08:09:14.000Z</time>
        <extensions>
          <ns3:TrackPointExtension>
            <ns3:atemp>21.0</ns3:atemp>
          </ns3:TrackPointExtension>
        </extensions>
      </trkpt>
      <trkpt lat="42.54452222026884555816650390625" lon="20.14699366874992847442626953125">
        <ele>2074.199951171875</ele>
        <time>2026-06-20T08:09:15.000Z</time>
        <extensions>
          <ns3:TrackPointExtension>
            <ns3:atemp>21.0</ns3:atemp>
          </ns3:TrackPointExtension>
        </extensions>
      </trkpt>
      <trkpt lat="42.544502355158329010009765625" lon="20.14702971093356609344482421875">
        <ele>2074</ele>
        <time>2026-06-20T08:09:16.000Z</time>
        <extensions>
          <ns3:TrackPointExtension>
            <ns3:atemp>20.0</ns3:atemp>
          </ns3:TrackPointExtension>
        </extensions>
      </trkpt>
      <trkpt lat="42.544488944113254547119140625" lon="20.14706256799399852752685546875">
        <ele>2073.60009765625</ele>
        <time>2026-06-20T08:09:17.000Z</time>
        <extensions>
          <ns3:TrackPointExtension>
            <ns3:atemp>20.0</ns3:atemp>
          </ns3:TrackPointExtension>
        </extensions>
      </trkpt>
      <trkpt lat="42.544471509754657745361328125" lon="20.14709450304508209228515625">
        <ele>2073.199951171875</ele>
        <time>2026-06-20T08:09:18.000Z</time>
        <extensions>
          <ns3:TrackPointExtension>
            <ns3:atemp>20.0</ns3:atemp>
          </ns3:TrackPointExtension>
        </extensions>
      </trkpt>
      <trkpt lat="42.54445374011993408203125" lon="20.1471228338778018951416015625">
        <ele>2073</ele>
        <time>2026-06-20T08:09:19.000Z</time>
        <extensions>
          <ns3:TrackPointExtension>
            <ns3:atemp>20.0</ns3:atemp>
          </ns3:TrackPointExtension>
        </extensions>
      </trkpt>
      <trkpt lat="42.5444376468658447265625" lon="20.14715091325342655181884765625">
        <ele>2072.800048828125</ele>
        <time>2026-06-20T08:09:20.000Z</time>
        <extensions>
          <ns3:TrackPointExtension>
            <ns3:atemp>21.0</ns3:atemp>
          </ns3:TrackPointExtension>
        </extensions>
      </trkpt>
      <trkpt lat="42.544423229992389678955078125" lon="20.14717538841068744659423828125">
        <ele>2072.60009765625</ele>
        <time>2026-06-20T08:09:21.000Z</time>
        <extensions>
          <ns3:TrackPointExtension>
            <ns3:atemp>21.0</ns3:atemp>
          </ns3:TrackPointExtension>
        </extensions>
      </trkpt>
      <trkpt lat="42.5444106571376323699951171875" lon="20.1471922360360622406005859375">
        <ele>2072.39990234375</ele>
        <time>2026-06-20T08:09:22.000Z</time>
        <extensions>
          <ns3:TrackPointExtension>
            <ns3:atemp>21.0</ns3:atemp>
          </ns3:TrackPointExtension>
        </extensions>
      </trkpt>
      <trkpt lat="42.54440956749022006988525390625" lon="20.1471865363419055938720703125">
        <ele>2072.39990234375</ele>
        <time>2026-06-20T08:09:23.000Z</time>
        <extensions>
          <ns3:TrackPointExtension>
            <ns3:atemp>20.0</ns3:atemp>
          </ns3:TrackPointExtension>
        </extensions>
      </trkpt>
      <trkpt lat="42.5444130040705204010009765625" lon="20.14718460850417613983154296875">
        <ele>2072.39990234375</ele>
        <time>2026-06-20T08:09:24.000Z</time>
        <extensions>
          <ns3:TrackPointExtension>
            <ns3:atemp>20.0</ns3:atemp>
          </ns3:TrackPointExtension>
        </extensions>
      </trkpt>
      <trkpt lat="42.54441258497536182403564453125" lon="20.14718544669449329376220703125">
        <ele>2072.39990234375</ele>
        <time>2026-06-20T08:09:25.000Z</time>
        <extensions>
          <ns3:TrackPointExtension>
            <ns3:atemp>20.0</ns3:atemp>
          </ns3:TrackPointExtension>
        </extensions>
      </trkpt>
      <trkpt lat="42.54441258497536182403564453125" lon="20.14718544669449329376220703125">
        <ele>2072.39990234375</ele>
        <time>2026-06-20T08:09:26.000Z</time>
        <extensions>
          <ns3:TrackPointExtension>
            <ns3:atemp>21.0</ns3:atemp>
          </ns3:TrackPointExtension>
        </extensions>
      </trkpt>
      <trkpt lat="42.54441258497536182403564453125" lon="20.14718544669449329376220703125">
        <ele>2072.39990234375</ele>
        <time>2026-06-20T08:09:27.000Z</time>
        <extensions>
          <ns3:TrackPointExtension>
            <ns3:atemp>20.0</ns3:atemp>
          </ns3:TrackPointExtension>
        </extensions>
      </trkpt>
      <trkpt lat="42.54441258497536182403564453125" lon="20.14718544669449329376220703125">
        <ele>2072.199951171875</ele>
        <time>2026-06-20T08:09:28.000Z</time>
        <extensions>
          <ns3:TrackPointExtension>
            <ns3:atemp>21.0</ns3:atemp>
          </ns3:TrackPointExtension>
        </extensions>
      </trkpt>
      <trkpt lat="42.54441258497536182403564453125" lon="20.14718544669449329376220703125">
        <ele>2072.199951171875</ele>
        <time>2026-06-20T08:09:29.000Z</time>
        <extensions>
          <ns3:TrackPointExtension>
            <ns3:atemp>20.0</ns3:atemp>
          </ns3:TrackPointExtension>
        </extensions>
      </trkpt>
      <trkpt lat="42.54441258497536182403564453125" lon="20.14718544669449329376220703125">
        <ele>2072</ele>
        <time>2026-06-20T08:09:30.000Z</time>
        <extensions>
          <ns3:TrackPointExtension>
            <ns3:atemp>20.0</ns3:atemp>
          </ns3:TrackPointExtension>
        </extensions>
      </trkpt>
      <trkpt lat="42.54441258497536182403564453125" lon="20.14718544669449329376220703125">
        <ele>2071.800048828125</ele>
        <time>2026-06-20T08:09:31.000Z</time>
        <extensions>
          <ns3:TrackPointExtension>
            <ns3:atemp>20.0</ns3:atemp>
          </ns3:TrackPointExtension>
        </extensions>
      </trkpt>
      <trkpt lat="42.54441258497536182403564453125" lon="20.14718544669449329376220703125">
        <ele>2071.800048828125</ele>
        <time>2026-06-20T08:09:32.000Z</time>
        <extensions>
          <ns3:TrackPointExtension>
            <ns3:atemp>20.0</ns3:atemp>
          </ns3:TrackPointExtension>
        </extensions>
      </trkpt>
      <trkpt lat="42.54441258497536182403564453125" lon="20.14718544669449329376220703125">
        <ele>2071.800048828125</ele>
        <time>2026-06-20T08:09:33.000Z</time>
        <extensions>
          <ns3:TrackPointExtension>
            <ns3:atemp>20.0</ns3:atemp>
          </ns3:TrackPointExtension>
        </extensions>
      </trkpt>
      <trkpt lat="42.54441258497536182403564453125" lon="20.14718544669449329376220703125">
        <ele>2071.800048828125</ele>
        <time>2026-06-20T08:09:34.000Z</time>
        <extensions>
          <ns3:TrackPointExtension>
            <ns3:atemp>20.0</ns3:atemp>
          </ns3:TrackPointExtension>
        </extensions>
      </trkpt>
      <trkpt lat="42.54441258497536182403564453125" lon="20.14718544669449329376220703125">
        <ele>2071.800048828125</ele>
        <time>2026-06-20T08:09:35.000Z</time>
        <extensions>
          <ns3:TrackPointExtension>
            <ns3:atemp>20.0</ns3:atemp>
          </ns3:TrackPointExtension>
        </extensions>
      </trkpt>
      <trkpt lat="42.54441258497536182403564453125" lon="20.14718544669449329376220703125">
        <ele>2071.60009765625</ele>
        <time>2026-06-20T08:09:36.000Z</time>
        <extensions>
          <ns3:TrackPointExtension>
            <ns3:atemp>21.0</ns3:atemp>
          </ns3:TrackPointExtension>
        </extensions>
      </trkpt>
      <trkpt lat="42.54441258497536182403564453125" lon="20.14718544669449329376220703125">
        <ele>2071.60009765625</ele>
        <time>2026-06-20T08:09:37.000Z</time>
        <extensions>
          <ns3:TrackPointExtension>
            <ns3:atemp>21.0</ns3:atemp>
          </ns3:TrackPointExtension>
        </extensions>
      </trkpt>
      <trkpt lat="42.54441157914698123931884765625" lon="20.14718695543706417083740234375">
        <ele>2071.39990234375</ele>
        <time>2026-06-20T08:09:38.000Z</time>
        <extensions>
          <ns3:TrackPointExtension>
            <ns3:atemp>21.0</ns3:atemp>
          </ns3:TrackPointExtension>
        </extensions>
      </trkpt>
      <trkpt lat="42.54439942538738250732421875" lon="20.14720179140567779541015625">
        <ele>2071.39990234375</ele>
        <time>2026-06-20T08:09:39.000Z</time>
        <extensions>
          <ns3:TrackPointExtension>
            <ns3:atemp>21.0</ns3:atemp>
          </ns3:TrackPointExtension>
        </extensions>
      </trkpt>
      <trkpt lat="42.544388361275196075439453125" lon="20.1472086645662784576416015625">
        <ele>2071.199951171875</ele>
        <time>2026-06-20T08:09:40.000Z</time>
        <extensions>
          <ns3:TrackPointExtension>
            <ns3:atemp>21.0</ns3:atemp>
          </ns3:TrackPointExtension>
        </extensions>
      </trkpt>
      <trkpt lat="42.5443781353533267974853515625" lon="20.1472207345068454742431640625">
        <ele>2071</ele>
        <time>2026-06-20T08:09:41.000Z</time>
        <extensions>
          <ns3:TrackPointExtension>
            <ns3:atemp>21.0</ns3:atemp>
          </ns3:TrackPointExtension>
        </extensions>
      </trkpt>
      <trkpt lat="42.54437126219272613525390625" lon="20.147241018712520599365234375">
        <ele>2070.800048828125</ele>
        <time>2026-06-20T08:09:42.000Z</time>
        <extensions>
          <ns3:TrackPointExtension>
            <ns3:atemp>21.0</ns3:atemp>
          </ns3:TrackPointExtension>
        </extensions>
      </trkpt>
      <trkpt lat="42.5443560071289539337158203125" lon="20.14725216664373874664306640625">
        <ele>2070.39990234375</ele>
        <time>2026-06-20T08:09:43.000Z</time>
        <extensions>
          <ns3:TrackPointExtension>
            <ns3:atemp>20.0</ns3:atemp>
          </ns3:TrackPointExtension>
        </extensions>
      </trkpt>
      <trkpt lat="42.5443343818187713623046875" lon="20.1472613029181957244873046875">
        <ele>2070.199951171875</ele>
        <time>2026-06-20T08:09:44.000Z</time>
        <extensions>
          <ns3:TrackPointExtension>
            <ns3:atemp>20.0</ns3:atemp>
          </ns3:TrackPointExtension>
        </extensions>
      </trkpt>
      <trkpt lat="42.54431719891726970672607421875" lon="20.14726909808814525604248046875">
        <ele>2070</ele>
        <time>2026-06-20T08:09:45.000Z</time>
        <extensions>
          <ns3:TrackPointExtension>
            <ns3:atemp>21.0</ns3:atemp>
          </ns3:TrackPointExtension>
        </extensions>
      </trkpt>
      <trkpt lat="42.5442914664745330810546875" lon="20.14727697707712650299072265625">
        <ele>2069.800048828125</ele>
        <time>2026-06-20T08:09:46.000Z</time>
        <extensions>
          <ns3:TrackPointExtension>
            <ns3:atemp>21.0</ns3:atemp>
          </ns3:TrackPointExtension>
        </extensions>
      </trkpt>
      <trkpt lat="42.5442668236792087554931640625" lon="20.147274546325206756591796875">
        <ele>2069.60009765625</ele>
        <time>2026-06-20T08:09:47.000Z</time>
        <extensions>
          <ns3:TrackPointExtension>
            <ns3:atemp>21.0</ns3:atemp>
          </ns3:TrackPointExtension>
        </extensions>
      </trkpt>
      <trkpt lat="42.54423656500875949859619140625" lon="20.1472797431051731109619140625">
        <ele>2069.39990234375</ele>
        <time>2026-06-20T08:09:48.000Z</time>
        <extensions>
          <ns3:TrackPointExtension>
            <ns3:atemp>21.0</ns3:atemp>
          </ns3:TrackPointExtension>
        </extensions>
      </trkpt>
      <trkpt lat="42.544209323823451995849609375" lon="20.1472914777696132659912109375">
        <ele>2069.199951171875</ele>
        <time>2026-06-20T08:09:49.000Z</time>
        <extensions>
          <ns3:TrackPointExtension>
            <ns3:atemp>21.0</ns3:atemp>
          </ns3:TrackPointExtension>
        </extensions>
      </trkpt>
      <trkpt lat="42.54419130273163318634033203125" lon="20.1473057270050048828125">
        <ele>2069.199951171875</ele>
        <time>2026-06-20T08:09:50.000Z</time>
        <extensions>
          <ns3:TrackPointExtension>
            <ns3:atemp>21.0</ns3:atemp>
          </ns3:TrackPointExtension>
        </extensions>
      </trkpt>
      <trkpt lat="42.544181160628795623779296875" lon="20.14732073061168193817138671875">
        <ele>2069</ele>
        <time>2026-06-20T08:09:51.000Z</time>
        <extensions>
          <ns3:TrackPointExtension>
            <ns3:atemp>21.0</ns3:atemp>
          </ns3:TrackPointExtension>
        </extensions>
      </trkpt>
      <trkpt lat="42.5441788136959075927734375" lon="20.147339589893817901611328125">
        <ele>2068.60009765625</ele>
        <time>2026-06-20T08:09:52.000Z</time>
        <extensions>
          <ns3:TrackPointExtension>
            <ns3:atemp>21.0</ns3:atemp>
          </ns3:TrackPointExtension>
        </extensions>
      </trkpt>
      <trkpt lat="42.54418375901877880096435546875" lon="20.14735828153789043426513671875">
        <ele>2068.39990234375</ele>
        <time>2026-06-20T08:09:53.000Z</time>
        <extensions>
          <ns3:TrackPointExtension>
            <ns3:atemp>21.0</ns3:atemp>
          </ns3:TrackPointExtension>
        </extensions>
      </trkpt>
      <trkpt lat="42.54418996162712574005126953125" lon="20.14737538062036037445068359375">
        <ele>2068</ele>
        <time>2026-06-20T08:09:54.000Z</time>
        <extensions>
          <ns3:TrackPointExtension>
            <ns3:atemp>21.0</ns3:atemp>
          </ns3:TrackPointExtension>
        </extensions>
      </trkpt>
      <trkpt lat="42.54419691860675811767578125" lon="20.14739633537828922271728515625">
        <ele>2067.60009765625</ele>
        <time>2026-06-20T08:09:55.000Z</time>
        <extensions>
          <ns3:TrackPointExtension>
            <ns3:atemp>21.0</ns3:atemp>
          </ns3:TrackPointExtension>
        </extensions>
      </trkpt>
      <trkpt lat="42.54421125166118144989013671875" lon="20.1474094949662685394287109375">
        <ele>2067</ele>
        <time>2026-06-20T08:09:56.000Z</time>
        <extensions>
          <ns3:TrackPointExtension>
            <ns3:atemp>21.0</ns3:atemp>
          </ns3:TrackPointExtension>
        </extensions>
      </trkpt>
      <trkpt lat="42.54422910511493682861328125" lon="20.1474250853061676025390625">
        <ele>2066.60009765625</ele>
        <time>2026-06-20T08:09:57.000Z</time>
        <extensions>
          <ns3:TrackPointExtension>
            <ns3:atemp>21.0</ns3:atemp>
          </ns3:TrackPointExtension>
        </extensions>
      </trkpt>
      <trkpt lat="42.54423824138939380645751953125" lon="20.147451572120189666748046875">
        <ele>2066</ele>
        <time>2026-06-20T08:09:58.000Z</time>
        <extensions>
          <ns3:TrackPointExtension>
            <ns3:atemp>21.0</ns3:atemp>
          </ns3:TrackPointExtension>
        </extensions>
      </trkpt>
      <trkpt lat="42.5442463718354701995849609375" lon="20.1474809087812900543212890625">
        <ele>2065.60009765625</ele>
        <time>2026-06-20T08:09:59.000Z</time>
        <extensions>
          <ns3:TrackPointExtension>
            <ns3:atemp>21.0</ns3:atemp>
          </ns3:TrackPointExtension>
        </extensions>
      </trkpt>
      <trkpt lat="42.54425416700541973114013671875" lon="20.1475027017295360565185546875">
        <ele>2065.199951171875</ele>
        <time>2026-06-20T08:10:00.000Z</time>
        <extensions>
          <ns3:TrackPointExtension>
            <ns3:atemp>21.0</ns3:atemp>
          </ns3:TrackPointExtension>
        </extensions>
      </trkpt>
      <trkpt lat="42.54426992498338222503662109375" lon="20.1475228182971477508544921875">
        <ele>2064.800048828125</ele>
        <time>2026-06-20T08:10:01.000Z</time>
        <extensions>
          <ns3:TrackPointExtension>
            <ns3:atemp>21.0</ns3:atemp>
          </ns3:TrackPointExtension>
        </extensions>
      </trkpt>
      <trkpt lat="42.54428283311426639556884765625" lon="20.1475348882377147674560546875">
        <ele>2064.39990234375</ele>
        <time>2026-06-20T08:10:02.000Z</time>
        <extensions>
          <ns3:TrackPointExtension>
            <ns3:atemp>21.0</ns3:atemp>
          </ns3:TrackPointExtension>
        </extensions>
      </trkpt>
      <trkpt lat="42.544290125370025634765625" lon="20.147549808025360107421875">
        <ele>2064</ele>
        <time>2026-06-20T08:10:03.000Z</time>
        <extensions>
          <ns3:TrackPointExtension>
            <ns3:atemp>21.0</ns3:atemp>
          </ns3:TrackPointExtension>
        </extensions>
      </trkpt>
      <trkpt lat="42.54429590888321399688720703125" lon="20.1475664041936397552490234375">
        <ele>2063.60009765625</ele>
        <time>2026-06-20T08:10:04.000Z</time>
        <extensions>
          <ns3:TrackPointExtension>
            <ns3:atemp>21.0</ns3:atemp>
          </ns3:TrackPointExtension>
        </extensions>
      </trkpt>
      <trkpt lat="42.54429892636835575103759765625" lon="20.14756330288946628570556640625">
        <ele>2063.39990234375</ele>
        <time>2026-06-20T08:10:05.000Z</time>
        <extensions>
          <ns3:TrackPointExtension>
            <ns3:atemp>21.0</ns3:atemp>
          </ns3:TrackPointExtension>
        </extensions>
      </trkpt>
      <trkpt lat="42.54429892636835575103759765625" lon="20.1475633867084980010986328125">
        <ele>2063.39990234375</ele>
        <time>2026-06-20T08:10:06.000Z</time>
        <extensions>
          <ns3:TrackPointExtension>
            <ns3:atemp>21.0</ns3:atemp>
          </ns3:TrackPointExtension>
        </extensions>
      </trkpt>
      <trkpt lat="42.54429892636835575103759765625" lon="20.14756347052752971649169921875">
        <ele>2063.39990234375</ele>
        <time>2026-06-20T08:10:07.000Z</time>
        <extensions>
          <ns3:TrackPointExtension>
            <ns3:atemp>21.0</ns3:atemp>
          </ns3:TrackPointExtension>
        </extensions>
      </trkpt>
      <trkpt lat="42.5442923046648502349853515625" lon="20.14757621102035045623779296875">
        <ele>2063.39990234375</ele>
        <time>2026-06-20T08:10:08.000Z</time>
        <extensions>
          <ns3:TrackPointExtension>
            <ns3:atemp>21.0</ns3:atemp>
          </ns3:TrackPointExtension>
        </extensions>
      </trkpt>
      <trkpt lat="42.5442855991423130035400390625" lon="20.1475881971418857574462890625">
        <ele>2063.199951171875</ele>
        <time>2026-06-20T08:10:09.000Z</time>
        <extensions>
          <ns3:TrackPointExtension>
            <ns3:atemp>21.0</ns3:atemp>
          </ns3:TrackPointExtension>
        </extensions>
      </trkpt>
      <trkpt lat="42.54428149200975894927978515625" lon="20.14759540557861328125">
        <ele>2063.199951171875</ele>
        <time>2026-06-20T08:10:10.000Z</time>
        <extensions>
          <ns3:TrackPointExtension>
            <ns3:atemp>21.0</ns3:atemp>
          </ns3:TrackPointExtension>
        </extensions>
      </trkpt>
      <trkpt lat="42.5442768819630146026611328125" lon="20.147607140243053436279296875">
        <ele>2063</ele>
        <time>2026-06-20T08:10:11.000Z</time>
        <extensions>
          <ns3:TrackPointExtension>
            <ns3:atemp>21.0</ns3:atemp>
          </ns3:TrackPointExtension>
        </extensions>
      </trkpt>
      <trkpt lat="42.54427243955433368682861328125" lon="20.1476163603365421295166015625">
        <ele>2062.800048828125</ele>
        <time>2026-06-20T08:10:12.000Z</time>
        <extensions>
          <ns3:TrackPointExtension>
            <ns3:atemp>21.0</ns3:atemp>
          </ns3:TrackPointExtension>
        </extensions>
      </trkpt>
      <trkpt lat="42.544266320765018463134765625" lon="20.14762851409614086151123046875">
        <ele>2062.60009765625</ele>
        <time>2026-06-20T08:10:13.000Z</time>
        <extensions>
          <ns3:TrackPointExtension>
            <ns3:atemp>21.0</ns3:atemp>
          </ns3:TrackPointExtension>
        </extensions>
      </trkpt>
      <trkpt lat="42.54426531493663787841796875" lon="20.14762985520064830780029296875">
        <ele>2062.60009765625</ele>
        <time>2026-06-20T08:10:14.000Z</time>
        <extensions>
          <ns3:TrackPointExtension>
            <ns3:atemp>21.0</ns3:atemp>
          </ns3:TrackPointExtension>
        </extensions>
      </trkpt>
      <trkpt lat="42.544263638556003570556640625" lon="20.14763538725674152374267578125">
        <ele>2062.60009765625</ele>
        <time>2026-06-20T08:10:15.000Z</time>
        <extensions>
          <ns3:TrackPointExtension>
            <ns3:atemp>21.0</ns3:atemp>
          </ns3:TrackPointExtension>
        </extensions>
      </trkpt>
      <trkpt lat="42.54426389001309871673583984375" lon="20.147638656198978424072265625">
        <ele>2062.60009765625</ele>
        <time>2026-06-20T08:10:16.000Z</time>
        <extensions>
          <ns3:TrackPointExtension>
            <ns3:atemp>21.0</ns3:atemp>
          </ns3:TrackPointExtension>
        </extensions>
      </trkpt>
      <trkpt lat="42.54426372237503528594970703125" lon="20.14763857237994670867919921875">
        <ele>2062.60009765625</ele>
        <time>2026-06-20T08:10:17.000Z</time>
        <extensions>
          <ns3:TrackPointExtension>
            <ns3:atemp>21.0</ns3:atemp>
          </ns3:TrackPointExtension>
        </extensions>
      </trkpt>
      <trkpt lat="42.54426355473697185516357421875" lon="20.14763857237994670867919921875">
        <ele>2062.60009765625</ele>
        <time>2026-06-20T08:10:18.000Z</time>
        <extensions>
          <ns3:TrackPointExtension>
            <ns3:atemp>21.0</ns3:atemp>
          </ns3:TrackPointExtension>
        </extensions>
      </trkpt>
      <trkpt lat="42.54425232298672199249267578125" lon="20.1476475410163402557373046875">
        <ele>2062.60009765625</ele>
        <time>2026-06-20T08:10:19.000Z</time>
        <extensions>
          <ns3:TrackPointExtension>
            <ns3:atemp>21.0</ns3:atemp>
          </ns3:TrackPointExtension>
        </extensions>
      </trkpt>
      <trkpt lat="42.54424410872161388397216796875" lon="20.14765969477593898773193359375">
        <ele>2062.60009765625</ele>
        <time>2026-06-20T08:10:20.000Z</time>
        <extensions>
          <ns3:TrackPointExtension>
            <ns3:atemp>21.0</ns3:atemp>
          </ns3:TrackPointExtension>
        </extensions>
      </trkpt>
      <trkpt lat="42.54424209706485271453857421875" lon="20.14767344109714031219482421875">
        <ele>2062.60009765625</ele>
        <time>2026-06-20T08:10:21.000Z</time>
        <extensions>
          <ns3:TrackPointExtension>
            <ns3:atemp>21.0</ns3:atemp>
          </ns3:TrackPointExtension>
        </extensions>
      </trkpt>
      <trkpt lat="42.54424293525516986846923828125" lon="20.1476793922483921051025390625">
        <ele>2062.60009765625</ele>
        <time>2026-06-20T08:10:22.000Z</time>
        <extensions>
          <ns3:TrackPointExtension>
            <ns3:atemp>21.0</ns3:atemp>
          </ns3:TrackPointExtension>
        </extensions>
      </trkpt>
      <trkpt lat="42.5442436896264553070068359375" lon="20.14768752269446849822998046875">
        <ele>2062.60009765625</ele>
        <time>2026-06-20T08:10:23.000Z</time>
        <extensions>
          <ns3:TrackPointExtension>
            <ns3:atemp>21.0</ns3:atemp>
          </ns3:TrackPointExtension>
        </extensions>
      </trkpt>
      <trkpt lat="42.544244192540645599365234375" lon="20.147700347006320953369140625">
        <ele>2062.60009765625</ele>
        <time>2026-06-20T08:10:24.000Z</time>
        <extensions>
          <ns3:TrackPointExtension>
            <ns3:atemp>21.0</ns3:atemp>
          </ns3:TrackPointExtension>
        </extensions>
      </trkpt>
      <trkpt lat="42.544242180883884429931640625" lon="20.1477078907191753387451171875">
        <ele>2062.60009765625</ele>
        <time>2026-06-20T08:10:25.000Z</time>
        <extensions>
          <ns3:TrackPointExtension>
            <ns3:atemp>21.0</ns3:atemp>
          </ns3:TrackPointExtension>
        </extensions>
      </trkpt>
      <trkpt lat="42.54424075596034526824951171875" lon="20.14771568588912487030029296875">
        <ele>2062.800048828125</ele>
        <time>2026-06-20T08:10:26.000Z</time>
        <extensions>
          <ns3:TrackPointExtension>
            <ns3:atemp>21.0</ns3:atemp>
          </ns3:TrackPointExtension>
        </extensions>
      </trkpt>
      <trkpt lat="42.544240839779376983642578125" lon="20.1477213017642498016357421875">
        <ele>2062.800048828125</ele>
        <time>2026-06-20T08:10:27.000Z</time>
        <extensions>
          <ns3:TrackPointExtension>
            <ns3:atemp>21.0</ns3:atemp>
          </ns3:TrackPointExtension>
        </extensions>
      </trkpt>
      <trkpt lat="42.54424092359840869903564453125" lon="20.1477213017642498016357421875">
        <ele>2062.800048828125</ele>
        <time>2026-06-20T08:10:28.000Z</time>
        <extensions>
          <ns3:TrackPointExtension>
            <ns3:atemp>21.0</ns3:atemp>
          </ns3:TrackPointExtension>
        </extensions>
      </trkpt>
      <trkpt lat="42.54424092359840869903564453125" lon="20.1477213017642498016357421875">
        <ele>2063</ele>
        <time>2026-06-20T08:10:29.000Z</time>
        <extensions>
          <ns3:TrackPointExtension>
            <ns3:atemp>21.0</ns3:atemp>
          </ns3:TrackPointExtension>
        </extensions>
      </trkpt>
      <trkpt lat="42.54424092359840869903564453125" lon="20.1477213017642498016357421875">
        <ele>2063</ele>
        <time>2026-06-20T08:10:30.000Z</time>
        <extensions>
          <ns3:TrackPointExtension>
            <ns3:atemp>21.0</ns3:atemp>
          </ns3:TrackPointExtension>
        </extensions>
      </trkpt>
      <trkpt lat="42.54424092359840869903564453125" lon="20.1477213017642498016357421875">
        <ele>2063</ele>
        <time>2026-06-20T08:10:31.000Z</time>
        <extensions>
          <ns3:TrackPointExtension>
            <ns3:atemp>21.0</ns3:atemp>
          </ns3:TrackPointExtension>
        </extensions>
      </trkpt>
      <trkpt lat="42.54424092359840869903564453125" lon="20.1477213017642498016357421875">
        <ele>2062.800048828125</ele>
        <time>2026-06-20T08:10:32.000Z</time>
        <extensions>
          <ns3:TrackPointExtension>
            <ns3:atemp>21.0</ns3:atemp>
          </ns3:TrackPointExtension>
        </extensions>
      </trkpt>
      <trkpt lat="42.54424092359840869903564453125" lon="20.1477213017642498016357421875">
        <ele>2062.800048828125</ele>
        <time>2026-06-20T08:10:33.000Z</time>
        <extensions>
          <ns3:TrackPointExtension>
            <ns3:atemp>21.0</ns3:atemp>
          </ns3:TrackPointExtension>
        </extensions>
      </trkpt>
      <trkpt lat="42.54424092359840869903564453125" lon="20.1477213017642498016357421875">
        <ele>2062.60009765625</ele>
        <time>2026-06-20T08:10:34.000Z</time>
        <extensions>
          <ns3:TrackPointExtension>
            <ns3:atemp>21.0</ns3:atemp>
          </ns3:TrackPointExtension>
        </extensions>
      </trkpt>
      <trkpt lat="42.54424092359840869903564453125" lon="20.1477213017642498016357421875">
        <ele>2062.60009765625</ele>
        <time>2026-06-20T08:10:35.000Z</time>
        <extensions>
          <ns3:TrackPointExtension>
            <ns3:atemp>21.0</ns3:atemp>
          </ns3:TrackPointExtension>
        </extensions>
      </trkpt>
      <trkpt lat="42.54424092359840869903564453125" lon="20.1477213017642498016357421875">
        <ele>2062.60009765625</ele>
        <time>2026-06-20T08:10:36.000Z</time>
        <extensions>
          <ns3:TrackPointExtension>
            <ns3:atemp>21.0</ns3:atemp>
          </ns3:TrackPointExtension>
        </extensions>
      </trkpt>
      <trkpt lat="42.54424259997904300689697265625" lon="20.14772037975490093231201171875">
        <ele>2062.39990234375</ele>
        <time>2026-06-20T08:10:37.000Z</time>
        <extensions>
          <ns3:TrackPointExtension>
            <ns3:atemp>21.0</ns3:atemp>
          </ns3:TrackPointExtension>
        </extensions>
      </trkpt>
      <trkpt lat="42.54425835795700550079345703125" lon="20.14773027040064334869384765625">
        <ele>2062.199951171875</ele>
        <time>2026-06-20T08:10:38.000Z</time>
        <extensions>
          <ns3:TrackPointExtension>
            <ns3:atemp>21.0</ns3:atemp>
          </ns3:TrackPointExtension>
        </extensions>
      </trkpt>
      <trkpt lat="42.5442681647837162017822265625" lon="20.14776379801332950592041015625">
        <ele>2062</ele>
        <time>2026-06-20T08:10:39.000Z</time>
        <extensions>
          <ns3:TrackPointExtension>
            <ns3:atemp>21.0</ns3:atemp>
          </ns3:TrackPointExtension>
        </extensions>
      </trkpt>
      <trkpt lat="42.54427160136401653289794921875" lon="20.14778994955122470855712890625">
        <ele>2061.800048828125</ele>
        <time>2026-06-20T08:10:40.000Z</time>
        <extensions>
          <ns3:TrackPointExtension>
            <ns3:atemp>21.0</ns3:atemp>
          </ns3:TrackPointExtension>
        </extensions>
      </trkpt>
      <trkpt lat="42.54427604377269744873046875" lon="20.147815011441707611083984375">
        <ele>2061.800048828125</ele>
        <time>2026-06-20T08:10:41.000Z</time>
        <extensions>
          <ns3:TrackPointExtension>
            <ns3:atemp>21.0</ns3:atemp>
          </ns3:TrackPointExtension>
        </extensions>
      </trkpt>
      <trkpt lat="42.54427738487720489501953125" lon="20.14784024097025394439697265625">
        <ele>2061.800048828125</ele>
        <time>2026-06-20T08:10:42.000Z</time>
        <extensions>
          <ns3:TrackPointExtension>
            <ns3:atemp>21.0</ns3:atemp>
          </ns3:TrackPointExtension>
        </extensions>
      </trkpt>
      <trkpt lat="42.5442755408585071563720703125" lon="20.147867314517498016357421875">
        <ele>2061.800048828125</ele>
        <time>2026-06-20T08:10:43.000Z</time>
        <extensions>
          <ns3:TrackPointExtension>
            <ns3:atemp>21.0</ns3:atemp>
          </ns3:TrackPointExtension>
        </extensions>
      </trkpt>
      <trkpt lat="42.5442807376384735107421875" lon="20.14788785018026828765869140625">
        <ele>2062</ele>
        <time>2026-06-20T08:10:44.000Z</time>
        <extensions>
          <ns3:TrackPointExtension>
            <ns3:atemp>21.0</ns3:atemp>
          </ns3:TrackPointExtension>
        </extensions>
      </trkpt>
      <trkpt lat="42.5442819111049175262451171875" lon="20.1479107327759265899658203125">
        <ele>2062</ele>
        <time>2026-06-20T08:10:45.000Z</time>
        <extensions>
          <ns3:TrackPointExtension>
            <ns3:atemp>21.0</ns3:atemp>
          </ns3:TrackPointExtension>
        </extensions>
      </trkpt>
      <trkpt lat="42.54429079592227935791015625" lon="20.14792489819228649139404296875">
        <ele>2062</ele>
        <time>2026-06-20T08:10:46.000Z</time>
        <extensions>
          <ns3:TrackPointExtension>
            <ns3:atemp>21.0</ns3:atemp>
          </ns3:TrackPointExtension>
        </extensions>
      </trkpt>
      <trkpt lat="42.54429280757904052734375" lon="20.14794602058827877044677734375">
        <ele>2062</ele>
        <time>2026-06-20T08:10:47.000Z</time>
        <extensions>
          <ns3:TrackPointExtension>
            <ns3:atemp>21.0</ns3:atemp>
          </ns3:TrackPointExtension>
        </extensions>
      </trkpt>
      <trkpt lat="42.544299848377704620361328125" lon="20.1479761116206645965576171875">
        <ele>2061.800048828125</ele>
        <time>2026-06-20T08:10:48.000Z</time>
        <extensions>
          <ns3:TrackPointExtension>
            <ns3:atemp>21.0</ns3:atemp>
          </ns3:TrackPointExtension>
        </extensions>
      </trkpt>
      <trkpt lat="42.54430395551025867462158203125" lon="20.14801106415688991546630859375">
        <ele>2061.800048828125</ele>
        <time>2026-06-20T08:10:49.000Z</time>
        <extensions>
          <ns3:TrackPointExtension>
            <ns3:atemp>21.0</ns3:atemp>
          </ns3:TrackPointExtension>
        </extensions>
      </trkpt>
      <trkpt lat="42.544305212795734405517578125" lon="20.14803570695221424102783203125">
        <ele>2061.60009765625</ele>
        <time>2026-06-20T08:10:50.000Z</time>
        <extensions>
          <ns3:TrackPointExtension>
            <ns3:atemp>21.0</ns3:atemp>
          </ns3:TrackPointExtension>
        </extensions>
      </trkpt>
      <trkpt lat="42.54430244676768779754638671875" lon="20.14806068502366542816162109375">
        <ele>2061.60009765625</ele>
        <time>2026-06-20T08:10:51.000Z</time>
        <extensions>
          <ns3:TrackPointExtension>
            <ns3:atemp>21.0</ns3:atemp>
          </ns3:TrackPointExtension>
        </extensions>
      </trkpt>
      <trkpt lat="42.5443033687770366668701171875" lon="20.148084573447704315185546875">
        <ele>2061.39990234375</ele>
        <time>2026-06-20T08:10:52.000Z</time>
        <extensions>
          <ns3:TrackPointExtension>
            <ns3:atemp>21.0</ns3:atemp>
          </ns3:TrackPointExtension>
        </extensions>
      </trkpt>
      <trkpt lat="42.54430554807186126708984375" lon="20.14810611493885517120361328125">
        <ele>2061.199951171875</ele>
        <time>2026-06-20T08:10:53.000Z</time>
        <extensions>
          <ns3:TrackPointExtension>
            <ns3:atemp>21.0</ns3:atemp>
          </ns3:TrackPointExtension>
        </extensions>
      </trkpt>
      <trkpt lat="42.5443080626428127288818359375" lon="20.148121453821659088134765625">
        <ele>2061</ele>
        <time>2026-06-20T08:10:54.000Z</time>
        <extensions>
          <ns3:TrackPointExtension>
            <ns3:atemp>21.0</ns3:atemp>
          </ns3:TrackPointExtension>
        </extensions>
      </trkpt>
      <trkpt lat="42.54431233741343021392822265625" lon="20.148123800754547119140625">
        <ele>2061</ele>
        <time>2026-06-20T08:10:55.000Z</time>
        <extensions>
          <ns3:TrackPointExtension>
            <ns3:atemp>21.0</ns3:atemp>
          </ns3:TrackPointExtension>
        </extensions>
      </trkpt>
      <trkpt lat="42.54431233741343021392822265625" lon="20.1481236331164836883544921875">
        <ele>2060.800048828125</ele>
        <time>2026-06-20T08:10:56.000Z</time>
        <extensions>
          <ns3:TrackPointExtension>
            <ns3:atemp>21.0</ns3:atemp>
          </ns3:TrackPointExtension>
        </extensions>
      </trkpt>
      <trkpt lat="42.54431233741343021392822265625" lon="20.1481236331164836883544921875">
        <ele>2060.800048828125</ele>
        <time>2026-06-20T08:10:57.000Z</time>
        <extensions>
          <ns3:TrackPointExtension>
            <ns3:atemp>21.0</ns3:atemp>
          </ns3:TrackPointExtension>
        </extensions>
      </trkpt>
      <trkpt lat="42.54431233741343021392822265625" lon="20.1481236331164836883544921875">
        <ele>2060.800048828125</ele>
        <time>2026-06-20T08:10:58.000Z</time>
        <extensions>
          <ns3:TrackPointExtension>
            <ns3:atemp>21.0</ns3:atemp>
          </ns3:TrackPointExtension>
        </extensions>
      </trkpt>
      <trkpt lat="42.54431233741343021392822265625" lon="20.1481236331164836883544921875">
        <ele>2060.60009765625</ele>
        <time>2026-06-20T08:10:59.000Z</time>
        <extensions>
          <ns3:TrackPointExtension>
            <ns3:atemp>21.0</ns3:atemp>
          </ns3:TrackPointExtension>
        </extensions>
      </trkpt>
      <trkpt lat="42.54431233741343021392822265625" lon="20.1481236331164836883544921875">
        <ele>2060.60009765625</ele>
        <time>2026-06-20T08:11:00.000Z</time>
        <extensions>
          <ns3:TrackPointExtension>
            <ns3:atemp>21.0</ns3:atemp>
          </ns3:TrackPointExtension>
        </extensions>
      </trkpt>
      <trkpt lat="42.54431233741343021392822265625" lon="20.1481236331164836883544921875">
        <ele>2060.39990234375</ele>
        <time>2026-06-20T08:11:01.000Z</time>
        <extensions>
          <ns3:TrackPointExtension>
            <ns3:atemp>21.0</ns3:atemp>
          </ns3:TrackPointExtension>
        </extensions>
      </trkpt>
      <trkpt lat="42.54431233741343021392822265625" lon="20.1481236331164836883544921875">
        <ele>2060.39990234375</ele>
        <time>2026-06-20T08:11:02.000Z</time>
        <extensions>
          <ns3:TrackPointExtension>
            <ns3:atemp>21.0</ns3:atemp>
          </ns3:TrackPointExtension>
        </extensions>
      </trkpt>
      <trkpt lat="42.54431233741343021392822265625" lon="20.1481236331164836883544921875">
        <ele>2060.39990234375</ele>
        <time>2026-06-20T08:11:03.000Z</time>
        <extensions>
          <ns3:TrackPointExtension>
            <ns3:atemp>21.0</ns3:atemp>
          </ns3:TrackPointExtension>
        </extensions>
      </trkpt>
      <trkpt lat="42.54431233741343021392822265625" lon="20.1481236331164836883544921875">
        <ele>2060.39990234375</ele>
        <time>2026-06-20T08:11:04.000Z</time>
        <extensions>
          <ns3:TrackPointExtension>
            <ns3:atemp>21.0</ns3:atemp>
          </ns3:TrackPointExtension>
        </extensions>
      </trkpt>
      <trkpt lat="42.54431233741343021392822265625" lon="20.1481236331164836883544921875">
        <ele>2060.39990234375</ele>
        <time>2026-06-20T08:11:05.000Z</time>
        <extensions>
          <ns3:TrackPointExtension>
            <ns3:atemp>21.0</ns3:atemp>
          </ns3:TrackPointExtension>
        </extensions>
      </trkpt>
      <trkpt lat="42.54431233741343021392822265625" lon="20.1481236331164836883544921875">
        <ele>2060.39990234375</ele>
        <time>2026-06-20T08:11:06.000Z</time>
        <extensions>
          <ns3:TrackPointExtension>
            <ns3:atemp>21.0</ns3:atemp>
          </ns3:TrackPointExtension>
        </extensions>
      </trkpt>
      <trkpt lat="42.54431233741343021392822265625" lon="20.1481236331164836883544921875">
        <ele>2060.39990234375</ele>
        <time>2026-06-20T08:11:07.000Z</time>
        <extensions>
          <ns3:TrackPointExtension>
            <ns3:atemp>21.0</ns3:atemp>
          </ns3:TrackPointExtension>
        </extensions>
      </trkpt>
      <trkpt lat="42.54431233741343021392822265625" lon="20.1481236331164836883544921875">
        <ele>2060.199951171875</ele>
        <time>2026-06-20T08:11:08.000Z</time>
        <extensions>
          <ns3:TrackPointExtension>
            <ns3:atemp>21.0</ns3:atemp>
          </ns3:TrackPointExtension>
        </extensions>
      </trkpt>
      <trkpt lat="42.54431233741343021392822265625" lon="20.1481236331164836883544921875">
        <ele>2060.199951171875</ele>
        <time>2026-06-20T08:11:09.000Z</time>
        <extensions>
          <ns3:TrackPointExtension>
            <ns3:atemp>21.0</ns3:atemp>
          </ns3:TrackPointExtension>
        </extensions>
      </trkpt>
      <trkpt lat="42.54431233741343021392822265625" lon="20.1481236331164836883544921875">
        <ele>2060</ele>
        <time>2026-06-20T08:11:10.000Z</time>
        <extensions>
          <ns3:TrackPointExtension>
            <ns3:atemp>21.0</ns3:atemp>
          </ns3:TrackPointExtension>
        </extensions>
      </trkpt>
      <trkpt lat="42.54431233741343021392822265625" lon="20.1481236331164836883544921875">
        <ele>2060</ele>
        <time>2026-06-20T08:11:11.000Z</time>
        <extensions>
          <ns3:TrackPointExtension>
            <ns3:atemp>21.0</ns3:atemp>
          </ns3:TrackPointExtension>
        </extensions>
      </trkpt>
      <trkpt lat="42.54431233741343021392822265625" lon="20.1481236331164836883544921875">
        <ele>2060</ele>
        <time>2026-06-20T08:11:12.000Z</time>
        <extensions>
          <ns3:TrackPointExtension>
            <ns3:atemp>21.0</ns3:atemp>
          </ns3:TrackPointExtension>
        </extensions>
      </trkpt>
      <trkpt lat="42.54431233741343021392822265625" lon="20.1481236331164836883544921875">
        <ele>2060</ele>
        <time>2026-06-20T08:11:13.000Z</time>
        <extensions>
          <ns3:TrackPointExtension>
            <ns3:atemp>21.0</ns3:atemp>
          </ns3:TrackPointExtension>
        </extensions>
      </trkpt>
      <trkpt lat="42.54431233741343021392822265625" lon="20.1481236331164836883544921875">
        <ele>2060</ele>
        <time>2026-06-20T08:11:14.000Z</time>
        <extensions>
          <ns3:TrackPointExtension>
            <ns3:atemp>21.0</ns3:atemp>
          </ns3:TrackPointExtension>
        </extensions>
      </trkpt>
      <trkpt lat="42.54431233741343021392822265625" lon="20.1481236331164836883544921875">
        <ele>2060</ele>
        <time>2026-06-20T08:11:15.000Z</time>
        <extensions>
          <ns3:TrackPointExtension>
            <ns3:atemp>21.0</ns3:atemp>
          </ns3:TrackPointExtension>
        </extensions>
      </trkpt>
      <trkpt lat="42.54431233741343021392822265625" lon="20.1481236331164836883544921875">
        <ele>2060.199951171875</ele>
        <time>2026-06-20T08:11:16.000Z</time>
        <extensions>
          <ns3:TrackPointExtension>
            <ns3:atemp>21.0</ns3:atemp>
          </ns3:TrackPointExtension>
        </extensions>
      </trkpt>
      <trkpt lat="42.54431233741343021392822265625" lon="20.1481236331164836883544921875">
        <ele>2060.199951171875</ele>
        <time>2026-06-20T08:11:17.000Z</time>
        <extensions>
          <ns3:TrackPointExtension>
            <ns3:atemp>21.0</ns3:atemp>
          </ns3:TrackPointExtension>
        </extensions>
      </trkpt>
      <trkpt lat="42.54431233741343021392822265625" lon="20.1481236331164836883544921875">
        <ele>2060.199951171875</ele>
        <time>2026-06-20T08:11:18.000Z</time>
        <extensions>
          <ns3:TrackPointExtension>
            <ns3:atemp>21.0</ns3:atemp>
          </ns3:TrackPointExtension>
        </extensions>
      </trkpt>
      <trkpt lat="42.54431233741343021392822265625" lon="20.1481236331164836883544921875">
        <ele>2060.39990234375</ele>
        <time>2026-06-20T08:11:19.000Z</time>
        <extensions>
          <ns3:TrackPointExtension>
            <ns3:atemp>21.0</ns3:atemp>
          </ns3:TrackPointExtension>
        </extensions>
      </trkpt>
      <trkpt lat="42.544309236109256744384765625" lon="20.14812405221164226531982421875">
        <ele>2060.60009765625</ele>
        <time>2026-06-20T08:11:20.000Z</time>
        <extensions>
          <ns3:TrackPointExtension>
            <ns3:atemp>21.0</ns3:atemp>
          </ns3:TrackPointExtension>
        </extensions>
      </trkpt>
      <trkpt lat="42.54430026747286319732666015625" lon="20.14812338165938854217529296875">
        <ele>2061</ele>
        <time>2026-06-20T08:11:21.000Z</time>
        <extensions>
          <ns3:TrackPointExtension>
            <ns3:atemp>21.0</ns3:atemp>
          </ns3:TrackPointExtension>
        </extensions>
      </trkpt>
      <trkpt lat="42.5442973338067531585693359375" lon="20.14811902306973934173583984375">
        <ele>2061.199951171875</ele>
        <time>2026-06-20T08:11:22.000Z</time>
        <extensions>
          <ns3:TrackPointExtension>
            <ns3:atemp>21.0</ns3:atemp>
          </ns3:TrackPointExtension>
        </extensions>
      </trkpt>
      <trkpt lat="42.5442973338067531585693359375" lon="20.148118771612644195556640625">
        <ele>2061.60009765625</ele>
        <time>2026-06-20T08:11:23.000Z</time>
        <extensions>
          <ns3:TrackPointExtension>
            <ns3:atemp>21.0</ns3:atemp>
          </ns3:TrackPointExtension>
        </extensions>
      </trkpt>
      <trkpt lat="42.5442973338067531585693359375" lon="20.148118771612644195556640625">
        <ele>2061.800048828125</ele>
        <time>2026-06-20T08:11:24.000Z</time>
        <extensions>
          <ns3:TrackPointExtension>
            <ns3:atemp>21.0</ns3:atemp>
          </ns3:TrackPointExtension>
        </extensions>
      </trkpt>
      <trkpt lat="42.54429741762578487396240234375" lon="20.14811801724135875701904296875">
        <ele>2061.800048828125</ele>
        <time>2026-06-20T08:11:25.000Z</time>
        <extensions>
          <ns3:TrackPointExtension>
            <ns3:atemp>21.0</ns3:atemp>
          </ns3:TrackPointExtension>
        </extensions>
      </trkpt>
      <trkpt lat="42.5442976690828800201416015625" lon="20.14809764921665191650390625">
        <ele>2061.199951171875</ele>
        <time>2026-06-20T08:11:26.000Z</time>
        <extensions>
          <ns3:TrackPointExtension>
            <ns3:atemp>21.0</ns3:atemp>
          </ns3:TrackPointExtension>
        </extensions>
      </trkpt>
      <trkpt lat="42.5442996807396411895751953125" lon="20.148085243999958038330078125">
        <ele>2061</ele>
        <time>2026-06-20T08:11:27.000Z</time>
        <extensions>
          <ns3:TrackPointExtension>
            <ns3:atemp>21.0</ns3:atemp>
          </ns3:TrackPointExtension>
        </extensions>
      </trkpt>
      <trkpt lat="42.54429959692060947418212890625" lon="20.14807526953518390655517578125">
        <ele>2060.60009765625</ele>
        <time>2026-06-20T08:11:28.000Z</time>
        <extensions>
          <ns3:TrackPointExtension>
            <ns3:atemp>21.0</ns3:atemp>
          </ns3:TrackPointExtension>
        </extensions>
      </trkpt>
      <trkpt lat="42.5442996807396411895751953125" lon="20.1480696536600589752197265625">
        <ele>2060.199951171875</ele>
        <time>2026-06-20T08:11:29.000Z</time>
        <extensions>
          <ns3:TrackPointExtension>
            <ns3:atemp>21.0</ns3:atemp>
          </ns3:TrackPointExtension>
        </extensions>
      </trkpt>
      <trkpt lat="42.5442996807396411895751953125" lon="20.14806973747909069061279296875">
        <ele>2060</ele>
        <time>2026-06-20T08:11:30.000Z</time>
        <extensions>
          <ns3:TrackPointExtension>
            <ns3:atemp>21.0</ns3:atemp>
          </ns3:TrackPointExtension>
        </extensions>
      </trkpt>
      <trkpt lat="42.54429959692060947418212890625" lon="20.148069821298122406005859375">
        <ele>2060</ele>
        <time>2026-06-20T08:11:31.000Z</time>
        <extensions>
          <ns3:TrackPointExtension>
            <ns3:atemp>21.0</ns3:atemp>
          </ns3:TrackPointExtension>
        </extensions>
      </trkpt>
      <trkpt lat="42.54429909400641918182373046875" lon="20.14806739054620265960693359375">
        <ele>2060.199951171875</ele>
        <time>2026-06-20T08:11:32.000Z</time>
        <extensions>
          <ns3:TrackPointExtension>
            <ns3:atemp>21.0</ns3:atemp>
          </ns3:TrackPointExtension>
        </extensions>
      </trkpt>
      <trkpt lat="42.54429884254932403564453125" lon="20.14805875718593597412109375">
        <ele>2060.39990234375</ele>
        <time>2026-06-20T08:11:33.000Z</time>
        <extensions>
          <ns3:TrackPointExtension>
            <ns3:atemp>21.0</ns3:atemp>
          </ns3:TrackPointExtension>
        </extensions>
      </trkpt>
      <trkpt lat="42.54430177621543407440185546875" lon="20.14804190956056118011474609375">
        <ele>2060.39990234375</ele>
        <time>2026-06-20T08:11:34.000Z</time>
        <extensions>
          <ns3:TrackPointExtension>
            <ns3:atemp>21.0</ns3:atemp>
          </ns3:TrackPointExtension>
        </extensions>
      </trkpt>
      <trkpt lat="42.54430244676768779754638671875" lon="20.1480193622410297393798828125">
        <ele>2060.39990234375</ele>
        <time>2026-06-20T08:11:35.000Z</time>
        <extensions>
          <ns3:TrackPointExtension>
            <ns3:atemp>21.0</ns3:atemp>
          </ns3:TrackPointExtension>
        </extensions>
      </trkpt>
      <trkpt lat="42.5443023629486560821533203125" lon="20.14799362979829311370849609375">
        <ele>2060.60009765625</ele>
        <time>2026-06-20T08:11:36.000Z</time>
        <extensions>
          <ns3:TrackPointExtension>
            <ns3:atemp>21.0</ns3:atemp>
          </ns3:TrackPointExtension>
        </extensions>
      </trkpt>
      <trkpt lat="42.5442996807396411895751953125" lon="20.14797351323068141937255859375">
        <ele>2060.60009765625</ele>
        <time>2026-06-20T08:11:37.000Z</time>
        <extensions>
          <ns3:TrackPointExtension>
            <ns3:atemp>21.0</ns3:atemp>
          </ns3:TrackPointExtension>
        </extensions>
      </trkpt>
      <trkpt lat="42.54430152475833892822265625" lon="20.14796077273786067962646484375">
        <ele>2060.60009765625</ele>
        <time>2026-06-20T08:11:38.000Z</time>
        <extensions>
          <ns3:TrackPointExtension>
            <ns3:atemp>21.0</ns3:atemp>
          </ns3:TrackPointExtension>
        </extensions>
      </trkpt>
      <trkpt lat="42.544299177825450897216796875" lon="20.1479519717395305633544921875">
        <ele>2060.60009765625</ele>
        <time>2026-06-20T08:11:39.000Z</time>
        <extensions>
          <ns3:TrackPointExtension>
            <ns3:atemp>21.0</ns3:atemp>
          </ns3:TrackPointExtension>
        </extensions>
      </trkpt>
      <trkpt lat="42.5442919693887233734130859375" lon="20.14793914742767810821533203125">
        <ele>2060.800048828125</ele>
        <time>2026-06-20T08:11:40.000Z</time>
        <extensions>
          <ns3:TrackPointExtension>
            <ns3:atemp>21.0</ns3:atemp>
          </ns3:TrackPointExtension>
        </extensions>
      </trkpt>
      <trkpt lat="42.54428702406585216522216796875" lon="20.1479251496493816375732421875">
        <ele>2060.800048828125</ele>
        <time>2026-06-20T08:11:41.000Z</time>
        <extensions>
          <ns3:TrackPointExtension>
            <ns3:atemp>21.0</ns3:atemp>
          </ns3:TrackPointExtension>
        </extensions>
      </trkpt>
      <trkpt lat="42.54428207874298095703125" lon="20.1479070447385311126708984375">
        <ele>2061</ele>
        <time>2026-06-20T08:11:42.000Z</time>
        <extensions>
          <ns3:TrackPointExtension>
            <ns3:atemp>21.0</ns3:atemp>
          </ns3:TrackPointExtension>
        </extensions>
      </trkpt>
      <trkpt lat="42.54427830688655376434326171875" lon="20.14789606444537639617919921875">
        <ele>2061.39990234375</ele>
        <time>2026-06-20T08:11:43.000Z</time>
        <extensions>
          <ns3:TrackPointExtension>
            <ns3:atemp>21.0</ns3:atemp>
          </ns3:TrackPointExtension>
        </extensions>
      </trkpt>
      <trkpt lat="42.54427612759172916412353515625" lon="20.14787904918193817138671875">
        <ele>2061.60009765625</ele>
        <time>2026-06-20T08:11:44.000Z</time>
        <extensions>
          <ns3:TrackPointExtension>
            <ns3:atemp>21.0</ns3:atemp>
          </ns3:TrackPointExtension>
        </extensions>
      </trkpt>
      <trkpt lat="42.54427411593496799468994140625" lon="20.14786320738494396209716796875">
        <ele>2061.60009765625</ele>
        <time>2026-06-20T08:11:45.000Z</time>
        <extensions>
          <ns3:TrackPointExtension>
            <ns3:atemp>21.0</ns3:atemp>
          </ns3:TrackPointExtension>
        </extensions>
      </trkpt>
      <trkpt lat="42.544272355735301971435546875" lon="20.14784644357860088348388671875">
        <ele>2061.60009765625</ele>
        <time>2026-06-20T08:11:46.000Z</time>
        <extensions>
          <ns3:TrackPointExtension>
            <ns3:atemp>21.0</ns3:atemp>
          </ns3:TrackPointExtension>
        </extensions>
      </trkpt>
      <trkpt lat="42.5442681647837162017822265625" lon="20.14782967977225780487060546875">
        <ele>2061.60009765625</ele>
        <time>2026-06-20T08:11:47.000Z</time>
        <extensions>
          <ns3:TrackPointExtension>
            <ns3:atemp>21.0</ns3:atemp>
          </ns3:TrackPointExtension>
        </extensions>
      </trkpt>
      <trkpt lat="42.54426623694598674774169921875" lon="20.1478145085275173187255859375">
        <ele>2061.60009765625</ele>
        <time>2026-06-20T08:11:48.000Z</time>
        <extensions>
          <ns3:TrackPointExtension>
            <ns3:atemp>21.0</ns3:atemp>
          </ns3:TrackPointExtension>
        </extensions>
      </trkpt>
      <trkpt lat="42.544264979660511016845703125" lon="20.1478027738630771636962890625">
        <ele>2061.39990234375</ele>
        <time>2026-06-20T08:11:49.000Z</time>
        <extensions>
          <ns3:TrackPointExtension>
            <ns3:atemp>21.0</ns3:atemp>
          </ns3:TrackPointExtension>
        </extensions>
      </trkpt>
      <trkpt lat="42.5442631356418132781982421875" lon="20.14778860844671726226806640625">
        <ele>2061.39990234375</ele>
        <time>2026-06-20T08:11:50.000Z</time>
        <extensions>
          <ns3:TrackPointExtension>
            <ns3:atemp>21.0</ns3:atemp>
          </ns3:TrackPointExtension>
        </extensions>
      </trkpt>
      <trkpt lat="42.5442634709179401397705078125" lon="20.14777486212551593780517578125">
        <ele>2061.39990234375</ele>
        <time>2026-06-20T08:11:51.000Z</time>
        <extensions>
          <ns3:TrackPointExtension>
            <ns3:atemp>21.0</ns3:atemp>
          </ns3:TrackPointExtension>
        </extensions>
      </trkpt>
      <trkpt lat="42.54425835795700550079345703125" lon="20.1477689109742641448974609375">
        <ele>2061.39990234375</ele>
        <time>2026-06-20T08:11:52.000Z</time>
        <extensions>
          <ns3:TrackPointExtension>
            <ns3:atemp>21.0</ns3:atemp>
          </ns3:TrackPointExtension>
        </extensions>
      </trkpt>
      <trkpt lat="42.54425148479640483856201171875" lon="20.14775700867176055908203125">
        <ele>2061.39990234375</ele>
        <time>2026-06-20T08:11:53.000Z</time>
        <extensions>
          <ns3:TrackPointExtension>
            <ns3:atemp>21.0</ns3:atemp>
          </ns3:TrackPointExtension>
        </extensions>
      </trkpt>
      <trkpt lat="42.5442503951489925384521484375" lon="20.14775290153920650482177734375">
        <ele>2061.60009765625</ele>
        <time>2026-06-20T08:11:54.000Z</time>
        <extensions>
          <ns3:TrackPointExtension>
            <ns3:atemp>21.0</ns3:atemp>
          </ns3:TrackPointExtension>
        </extensions>
      </trkpt>
      <trkpt lat="42.544250227510929107666015625" lon="20.147752650082111358642578125">
        <ele>2061.800048828125</ele>
        <time>2026-06-20T08:11:55.000Z</time>
        <extensions>
          <ns3:TrackPointExtension>
            <ns3:atemp>21.0</ns3:atemp>
          </ns3:TrackPointExtension>
        </extensions>
      </trkpt>
      <trkpt lat="42.54425014369189739227294921875" lon="20.14775239862501621246337890625">
        <ele>2062</ele>
        <time>2026-06-20T08:11:56.000Z</time>
        <extensions>
          <ns3:TrackPointExtension>
            <ns3:atemp>21.0</ns3:atemp>
          </ns3:TrackPointExtension>
        </extensions>
      </trkpt>
      <trkpt lat="42.54424385726451873779296875" lon="20.14773513190448284149169921875">
        <ele>2062.199951171875</ele>
        <time>2026-06-20T08:11:57.000Z</time>
        <extensions>
          <ns3:TrackPointExtension>
            <ns3:atemp>21.0</ns3:atemp>
          </ns3:TrackPointExtension>
        </extensions>
      </trkpt>
      <trkpt lat="42.54423581063747406005859375" lon="20.14772725291550159454345703125">
        <ele>2062.60009765625</ele>
        <time>2026-06-20T08:11:58.000Z</time>
        <extensions>
          <ns3:TrackPointExtension>
            <ns3:atemp>21.0</ns3:atemp>
          </ns3:TrackPointExtension>
        </extensions>
      </trkpt>
      <trkpt lat="42.544228769838809967041015625" lon="20.14772423543035984039306640625">
        <ele>2062.800048828125</ele>
        <time>2026-06-20T08:11:59.000Z</time>
        <extensions>
          <ns3:TrackPointExtension>
            <ns3:atemp>21.0</ns3:atemp>
          </ns3:TrackPointExtension>
        </extensions>
      </trkpt>
      <trkpt lat="42.54422147758305072784423828125" lon="20.14772859402000904083251953125">
        <ele>2062.800048828125</ele>
        <time>2026-06-20T08:12:00.000Z</time>
        <extensions>
          <ns3:TrackPointExtension>
            <ns3:atemp>21.0</ns3:atemp>
          </ns3:TrackPointExtension>
        </extensions>
      </trkpt>
      <trkpt lat="42.54421644844114780426025390625" lon="20.147737897932529449462890625">
        <ele>2062.800048828125</ele>
        <time>2026-06-20T08:12:01.000Z</time>
        <extensions>
          <ns3:TrackPointExtension>
            <ns3:atemp>21.0</ns3:atemp>
          </ns3:TrackPointExtension>
        </extensions>
      </trkpt>
      <trkpt lat="42.5442192144691944122314453125" lon="20.14774083159863948822021484375">
        <ele>2062.800048828125</ele>
        <time>2026-06-20T08:12:02.000Z</time>
        <extensions>
          <ns3:TrackPointExtension>
            <ns3:atemp>21.0</ns3:atemp>
          </ns3:TrackPointExtension>
        </extensions>
      </trkpt>
      <trkpt lat="42.54421963356435298919677734375" lon="20.1477457769215106964111328125">
        <ele>2063</ele>
        <time>2026-06-20T08:12:03.000Z</time>
        <extensions>
          <ns3:TrackPointExtension>
            <ns3:atemp>21.0</ns3:atemp>
          </ns3:TrackPointExtension>
        </extensions>
      </trkpt>
      <trkpt lat="42.54421837627887725830078125" lon="20.1477521471679210662841796875">
        <ele>2063.199951171875</ele>
        <time>2026-06-20T08:12:04.000Z</time>
        <extensions>
          <ns3:TrackPointExtension>
            <ns3:atemp>21.0</ns3:atemp>
          </ns3:TrackPointExtension>
        </extensions>
      </trkpt>
      <trkpt lat="42.54421510733664035797119140625" lon="20.14775927178561687469482421875">
        <ele>2063.39990234375</ele>
        <time>2026-06-20T08:12:05.000Z</time>
        <extensions>
          <ns3:TrackPointExtension>
            <ns3:atemp>21.0</ns3:atemp>
          </ns3:TrackPointExtension>
        </extensions>
      </trkpt>
      <trkpt lat="42.544211335480213165283203125" lon="20.147768743336200714111328125">
        <ele>2063.60009765625</ele>
        <time>2026-06-20T08:12:06.000Z</time>
        <extensions>
          <ns3:TrackPointExtension>
            <ns3:atemp>21.0</ns3:atemp>
          </ns3:TrackPointExtension>
        </extensions>
      </trkpt>
      <trkpt lat="42.54420706070959568023681640625" lon="20.14778056181967258453369140625">
        <ele>2063.800048828125</ele>
        <time>2026-06-20T08:12:07.000Z</time>
        <extensions>
          <ns3:TrackPointExtension>
            <ns3:atemp>21.0</ns3:atemp>
          </ns3:TrackPointExtension>
        </extensions>
      </trkpt>
      <trkpt lat="42.54420571960508823394775390625" lon="20.14778517186641693115234375">
        <ele>2064</ele>
        <time>2026-06-20T08:12:08.000Z</time>
        <extensions>
          <ns3:TrackPointExtension>
            <ns3:atemp>21.0</ns3:atemp>
          </ns3:TrackPointExtension>
        </extensions>
      </trkpt>
      <trkpt lat="42.54420739598572254180908203125" lon="20.14777955599129199981689453125">
        <ele>2064.199951171875</ele>
        <time>2026-06-20T08:12:09.000Z</time>
        <extensions>
          <ns3:TrackPointExtension>
            <ns3:atemp>21.0</ns3:atemp>
          </ns3:TrackPointExtension>
        </extensions>
      </trkpt>
      <trkpt lat="42.54420630633831024169921875" lon="20.1477843336760997772216796875">
        <ele>2064.39990234375</ele>
        <time>2026-06-20T08:12:10.000Z</time>
        <extensions>
          <ns3:TrackPointExtension>
            <ns3:atemp>21.0</ns3:atemp>
          </ns3:TrackPointExtension>
        </extensions>
      </trkpt>
      <trkpt lat="42.5442058034241199493408203125" lon="20.14778944663703441619873046875">
        <ele>2064.60009765625</ele>
        <time>2026-06-20T08:12:11.000Z</time>
        <extensions>
          <ns3:TrackPointExtension>
            <ns3:atemp>21.0</ns3:atemp>
          </ns3:TrackPointExtension>
        </extensions>
      </trkpt>
      <trkpt lat="42.5442058034241199493408203125" lon="20.14778944663703441619873046875">
        <ele>2064.800048828125</ele>
        <time>2026-06-20T08:12:12.000Z</time>
        <extensions>
          <ns3:TrackPointExtension>
            <ns3:atemp>21.0</ns3:atemp>
          </ns3:TrackPointExtension>
        </extensions>
      </trkpt>
      <trkpt lat="42.5442058034241199493408203125" lon="20.14778944663703441619873046875">
        <ele>2065</ele>
        <time>2026-06-20T08:12:13.000Z</time>
        <extensions>
          <ns3:TrackPointExtension>
            <ns3:atemp>21.0</ns3:atemp>
          </ns3:TrackPointExtension>
        </extensions>
      </trkpt>
      <trkpt lat="42.5442058034241199493408203125" lon="20.14778944663703441619873046875">
        <ele>2065</ele>
        <time>2026-06-20T08:12:14.000Z</time>
        <extensions>
          <ns3:TrackPointExtension>
            <ns3:atemp>21.0</ns3:atemp>
          </ns3:TrackPointExtension>
        </extensions>
      </trkpt>
      <trkpt lat="42.5442058034241199493408203125" lon="20.14778944663703441619873046875">
        <ele>2064.800048828125</ele>
        <time>2026-06-20T08:12:15.000Z</time>
        <extensions>
          <ns3:TrackPointExtension>
            <ns3:atemp>21.0</ns3:atemp>
          </ns3:TrackPointExtension>
        </extensions>
      </trkpt>
      <trkpt lat="42.5442058034241199493408203125" lon="20.14778944663703441619873046875">
        <ele>2064.800048828125</ele>
        <time>2026-06-20T08:12:16.000Z</time>
        <extensions>
          <ns3:TrackPointExtension>
            <ns3:atemp>21.0</ns3:atemp>
          </ns3:TrackPointExtension>
        </extensions>
      </trkpt>
      <trkpt lat="42.5442058034241199493408203125" lon="20.14778944663703441619873046875">
        <ele>2064.800048828125</ele>
        <time>2026-06-20T08:12:17.000Z</time>
        <extensions>
          <ns3:TrackPointExtension>
            <ns3:atemp>21.0</ns3:atemp>
          </ns3:TrackPointExtension>
        </extensions>
      </trkpt>
      <trkpt lat="42.544205971062183380126953125" lon="20.147789530456066131591796875">
        <ele>2064.60009765625</ele>
        <time>2026-06-20T08:12:18.000Z</time>
        <extensions>
          <ns3:TrackPointExtension>
            <ns3:atemp>21.0</ns3:atemp>
          </ns3:TrackPointExtension>
        </extensions>
      </trkpt>
      <trkpt lat="42.5442017801105976104736328125" lon="20.14780218712985515594482421875">
        <ele>2064.60009765625</ele>
        <time>2026-06-20T08:12:19.000Z</time>
        <extensions>
          <ns3:TrackPointExtension>
            <ns3:atemp>21.0</ns3:atemp>
          </ns3:TrackPointExtension>
        </extensions>
      </trkpt>
      <trkpt lat="42.5441960804164409637451171875" lon="20.14781559817492961883544921875">
        <ele>2064.800048828125</ele>
        <time>2026-06-20T08:12:20.000Z</time>
        <extensions>
          <ns3:TrackPointExtension>
            <ns3:atemp>21.0</ns3:atemp>
          </ns3:TrackPointExtension>
        </extensions>
      </trkpt>
      <trkpt lat="42.544193230569362640380859375" lon="20.14783320017158985137939453125">
        <ele>2065</ele>
        <time>2026-06-20T08:12:21.000Z</time>
        <extensions>
          <ns3:TrackPointExtension>
            <ns3:atemp>21.0</ns3:atemp>
          </ns3:TrackPointExtension>
        </extensions>
      </trkpt>
      <trkpt lat="42.544189877808094024658203125" lon="20.14785298146307468414306640625">
        <ele>2065</ele>
        <time>2026-06-20T08:12:22.000Z</time>
        <extensions>
          <ns3:TrackPointExtension>
            <ns3:atemp>21.0</ns3:atemp>
          </ns3:TrackPointExtension>
        </extensions>
      </trkpt>
      <trkpt lat="42.5441850163042545318603515625" lon="20.14787041582167148590087890625">
        <ele>2065.199951171875</ele>
        <time>2026-06-20T08:12:23.000Z</time>
        <extensions>
          <ns3:TrackPointExtension>
            <ns3:atemp>21.0</ns3:atemp>
          </ns3:TrackPointExtension>
        </extensions>
      </trkpt>
      <trkpt lat="42.5441836751997470855712890625" lon="20.1478902809321880340576171875">
        <ele>2065.39990234375</ele>
        <time>2026-06-20T08:12:24.000Z</time>
        <extensions>
          <ns3:TrackPointExtension>
            <ns3:atemp>21.0</ns3:atemp>
          </ns3:TrackPointExtension>
        </extensions>
      </trkpt>
      <trkpt lat="42.54418141208589076995849609375" lon="20.1479077152907848358154296875">
        <ele>2065.39990234375</ele>
        <time>2026-06-20T08:12:25.000Z</time>
        <extensions>
          <ns3:TrackPointExtension>
            <ns3:atemp>21.0</ns3:atemp>
          </ns3:TrackPointExtension>
        </extensions>
      </trkpt>
      <trkpt lat="42.5441783107817173004150390625" lon="20.14790846966207027435302734375">
        <ele>2065.60009765625</ele>
        <time>2026-06-20T08:12:26.000Z</time>
        <extensions>
          <ns3:TrackPointExtension>
            <ns3:atemp>21.0</ns3:atemp>
          </ns3:TrackPointExtension>
        </extensions>
      </trkpt>
      <trkpt lat="42.54417822696268558502197265625" lon="20.14790863730013370513916015625">
        <ele>2065.800048828125</ele>
        <time>2026-06-20T08:12:27.000Z</time>
        <extensions>
          <ns3:TrackPointExtension>
            <ns3:atemp>21.0</ns3:atemp>
          </ns3:TrackPointExtension>
        </extensions>
      </trkpt>
      <trkpt lat="42.54417822696268558502197265625" lon="20.14790880493819713592529296875">
        <ele>2066</ele>
        <time>2026-06-20T08:12:28.000Z</time>
        <extensions>
          <ns3:TrackPointExtension>
            <ns3:atemp>21.0</ns3:atemp>
          </ns3:TrackPointExtension>
        </extensions>
      </trkpt>
      <trkpt lat="42.5441746227443218231201171875" lon="20.1479415781795978546142578125">
        <ele>2066</ele>
        <time>2026-06-20T08:12:29.000Z</time>
        <extensions>
          <ns3:TrackPointExtension>
            <ns3:atemp>21.0</ns3:atemp>
          </ns3:TrackPointExtension>
        </extensions>
      </trkpt>
      <trkpt lat="42.54417001269757747650146484375" lon="20.14796865172684192657470703125">
        <ele>2066</ele>
        <time>2026-06-20T08:12:30.000Z</time>
        <extensions>
          <ns3:TrackPointExtension>
            <ns3:atemp>21.0</ns3:atemp>
          </ns3:TrackPointExtension>
        </extensions>
      </trkpt>
      <trkpt lat="42.54417235963046550750732421875" lon="20.14799815602600574493408203125">
        <ele>2066</ele>
        <time>2026-06-20T08:12:31.000Z</time>
        <extensions>
          <ns3:TrackPointExtension>
            <ns3:atemp>21.0</ns3:atemp>
          </ns3:TrackPointExtension>
        </extensions>
      </trkpt>
      <trkpt lat="42.5441685877740383148193359375" lon="20.14802648685872554779052734375">
        <ele>2065.800048828125</ele>
        <time>2026-06-20T08:12:32.000Z</time>
        <extensions>
          <ns3:TrackPointExtension>
            <ns3:atemp>21.0</ns3:atemp>
          </ns3:TrackPointExtension>
        </extensions>
      </trkpt>
      <trkpt lat="42.5441628880798816680908203125" lon="20.1480495370924472808837890625">
        <ele>2065.800048828125</ele>
        <time>2026-06-20T08:12:33.000Z</time>
        <extensions>
          <ns3:TrackPointExtension>
            <ns3:atemp>21.0</ns3:atemp>
          </ns3:TrackPointExtension>
        </extensions>
      </trkpt>
      <trkpt lat="42.5441665761172771453857421875" lon="20.14807275496423244476318359375">
        <ele>2065.60009765625</ele>
        <time>2026-06-20T08:12:34.000Z</time>
        <extensions>
          <ns3:TrackPointExtension>
            <ns3:atemp>21.0</ns3:atemp>
          </ns3:TrackPointExtension>
        </extensions>
      </trkpt>
      <trkpt lat="42.54416339099407196044921875" lon="20.14809857122600078582763671875">
        <ele>2065.60009765625</ele>
        <time>2026-06-20T08:12:35.000Z</time>
        <extensions>
          <ns3:TrackPointExtension>
            <ns3:atemp>21.0</ns3:atemp>
          </ns3:TrackPointExtension>
        </extensions>
      </trkpt>
      <trkpt lat="42.5441573560237884521484375" lon="20.1481236331164836883544921875">
        <ele>2065.60009765625</ele>
        <time>2026-06-20T08:12:36.000Z</time>
        <extensions>
          <ns3:TrackPointExtension>
            <ns3:atemp>21.0</ns3:atemp>
          </ns3:TrackPointExtension>
        </extensions>
      </trkpt>
      <trkpt lat="42.54414453171193599700927734375" lon="20.14815305359661579132080078125">
        <ele>2065.39990234375</ele>
        <time>2026-06-20T08:12:37.000Z</time>
        <extensions>
          <ns3:TrackPointExtension>
            <ns3:atemp>21.0</ns3:atemp>
          </ns3:TrackPointExtension>
        </extensions>
      </trkpt>
      <trkpt lat="42.5441286899149417877197265625" lon="20.14817249961197376251220703125">
        <ele>2065.39990234375</ele>
        <time>2026-06-20T08:12:38.000Z</time>
        <extensions>
          <ns3:TrackPointExtension>
            <ns3:atemp>21.0</ns3:atemp>
          </ns3:TrackPointExtension>
        </extensions>
      </trkpt>
      <trkpt lat="42.54411469213664531707763671875" lon="20.148189179599285125732421875">
        <ele>2065.39990234375</ele>
        <time>2026-06-20T08:12:39.000Z</time>
        <extensions>
          <ns3:TrackPointExtension>
            <ns3:atemp>21.0</ns3:atemp>
          </ns3:TrackPointExtension>
        </extensions>
      </trkpt>
      <trkpt lat="42.54409876652061939239501953125" lon="20.14821189455687999725341796875">
        <ele>2065.39990234375</ele>
        <time>2026-06-20T08:12:40.000Z</time>
        <extensions>
          <ns3:TrackPointExtension>
            <ns3:atemp>21.0</ns3:atemp>
          </ns3:TrackPointExtension>
        </extensions>
      </trkpt>
      <trkpt lat="42.54408267326653003692626953125" lon="20.14823972247540950775146484375">
        <ele>2065.39990234375</ele>
        <time>2026-06-20T08:12:41.000Z</time>
        <extensions>
          <ns3:TrackPointExtension>
            <ns3:atemp>21.0</ns3:atemp>
          </ns3:TrackPointExtension>
        </extensions>
      </trkpt>
      <trkpt lat="42.54406951367855072021484375" lon="20.14826268889009952545166015625">
        <ele>2065.39990234375</ele>
        <time>2026-06-20T08:12:42.000Z</time>
        <extensions>
          <ns3:TrackPointExtension>
            <ns3:atemp>21.0</ns3:atemp>
          </ns3:TrackPointExtension>
        </extensions>
      </trkpt>
      <trkpt lat="42.5440572760999202728271484375" lon="20.14828800223767757415771484375">
        <ele>2065.199951171875</ele>
        <time>2026-06-20T08:12:43.000Z</time>
        <extensions>
          <ns3:TrackPointExtension>
            <ns3:atemp>21.0</ns3:atemp>
          </ns3:TrackPointExtension>
        </extensions>
      </trkpt>
      <trkpt lat="42.544049061834812164306640625" lon="20.1483207754790782928466796875">
        <ele>2065.199951171875</ele>
        <time>2026-06-20T08:12:44.000Z</time>
        <extensions>
          <ns3:TrackPointExtension>
            <ns3:atemp>21.0</ns3:atemp>
          </ns3:TrackPointExtension>
        </extensions>
      </trkpt>
      <trkpt lat="42.5440381653606891632080078125" lon="20.148358158767223358154296875">
        <ele>2065</ele>
        <time>2026-06-20T08:12:45.000Z</time>
        <extensions>
          <ns3:TrackPointExtension>
            <ns3:atemp>21.0</ns3:atemp>
          </ns3:TrackPointExtension>
        </extensions>
      </trkpt>
      <trkpt lat="42.5440254248678684234619140625" lon="20.14839495532214641571044921875">
        <ele>2064.800048828125</ele>
        <time>2026-06-20T08:12:46.000Z</time>
        <extensions>
          <ns3:TrackPointExtension>
            <ns3:atemp>21.0</ns3:atemp>
          </ns3:TrackPointExtension>
        </extensions>
      </trkpt>
      <trkpt lat="42.54401092417538166046142578125" lon="20.14843736775219440460205078125">
        <ele>2064.39990234375</ele>
        <time>2026-06-20T08:12:47.000Z</time>
        <extensions>
          <ns3:TrackPointExtension>
            <ns3:atemp>21.0</ns3:atemp>
          </ns3:TrackPointExtension>
        </extensions>
      </trkpt>
      <trkpt lat="42.54399533383548259735107421875" lon="20.14847860671579837799072265625">
        <ele>2064.199951171875</ele>
        <time>2026-06-20T08:12:48.000Z</time>
        <extensions>
          <ns3:TrackPointExtension>
            <ns3:atemp>21.0</ns3:atemp>
          </ns3:TrackPointExtension>
        </extensions>
      </trkpt>
      <trkpt lat="42.54398276098072528839111328125" lon="20.14852420426905155181884765625">
        <ele>2063.800048828125</ele>
        <time>2026-06-20T08:12:49.000Z</time>
        <extensions>
          <ns3:TrackPointExtension>
            <ns3:atemp>21.0</ns3:atemp>
          </ns3:TrackPointExtension>
        </extensions>
      </trkpt>
      <trkpt lat="42.54396918229758739471435546875" lon="20.14856837689876556396484375">
        <ele>2063.60009765625</ele>
        <time>2026-06-20T08:12:50.000Z</time>
        <extensions>
          <ns3:TrackPointExtension>
            <ns3:atemp>21.0</ns3:atemp>
          </ns3:TrackPointExtension>
        </extensions>
      </trkpt>
      <trkpt lat="42.54395090974867343902587890625" lon="20.14861154370009899139404296875">
        <ele>2063</ele>
        <time>2026-06-20T08:12:51.000Z</time>
        <extensions>
          <ns3:TrackPointExtension>
            <ns3:atemp>21.0</ns3:atemp>
          </ns3:TrackPointExtension>
        </extensions>
      </trkpt>
      <trkpt lat="42.54393347539007663726806640625" lon="20.1486540399491786956787109375">
        <ele>2062.60009765625</ele>
        <time>2026-06-20T08:12:52.000Z</time>
        <extensions>
          <ns3:TrackPointExtension>
            <ns3:atemp>21.0</ns3:atemp>
          </ns3:TrackPointExtension>
        </extensions>
      </trkpt>
      <trkpt lat="42.54392467439174652099609375" lon="20.14870206825435161590576171875">
        <ele>2062</ele>
        <time>2026-06-20T08:12:53.000Z</time>
        <extensions>
          <ns3:TrackPointExtension>
            <ns3:atemp>21.0</ns3:atemp>
          </ns3:TrackPointExtension>
        </extensions>
      </trkpt>
      <trkpt lat="42.54391537047922611236572265625" lon="20.1487562991678714752197265625">
        <ele>2061.39990234375</ele>
        <time>2026-06-20T08:12:54.000Z</time>
        <extensions>
          <ns3:TrackPointExtension>
            <ns3:atemp>21.0</ns3:atemp>
          </ns3:TrackPointExtension>
        </extensions>
      </trkpt>
      <trkpt lat="42.54389542154967784881591796875" lon="20.14880734495818614959716796875">
        <ele>2060.800048828125</ele>
        <time>2026-06-20T08:12:55.000Z</time>
        <extensions>
          <ns3:TrackPointExtension>
            <ns3:atemp>21.0</ns3:atemp>
          </ns3:TrackPointExtension>
        </extensions>
      </trkpt>
      <trkpt lat="42.543870694935321807861328125" lon="20.14885612763464450836181640625">
        <ele>2060.39990234375</ele>
        <time>2026-06-20T08:12:56.000Z</time>
        <extensions>
          <ns3:TrackPointExtension>
            <ns3:atemp>21.0</ns3:atemp>
          </ns3:TrackPointExtension>
        </extensions>
      </trkpt>
      <trkpt lat="42.54384689033031463623046875" lon="20.14889988116919994354248046875">
        <ele>2059.800048828125</ele>
        <time>2026-06-20T08:12:57.000Z</time>
        <extensions>
          <ns3:TrackPointExtension>
            <ns3:atemp>21.0</ns3:atemp>
          </ns3:TrackPointExtension>
        </extensions>
      </trkpt>
      <trkpt lat="42.54382677376270294189453125" lon="20.1489480771124362945556640625">
        <ele>2059.39990234375</ele>
        <time>2026-06-20T08:12:58.000Z</time>
        <extensions>
          <ns3:TrackPointExtension>
            <ns3:atemp>21.0</ns3:atemp>
          </ns3:TrackPointExtension>
        </extensions>
      </trkpt>
      <trkpt lat="42.54380531609058380126953125" lon="20.14898973517119884490966796875">
        <ele>2059.199951171875</ele>
        <time>2026-06-20T08:12:59.000Z</time>
        <extensions>
          <ns3:TrackPointExtension>
            <ns3:atemp>21.0</ns3:atemp>
          </ns3:TrackPointExtension>
        </extensions>
      </trkpt>
      <trkpt lat="42.5437863729894161224365234375" lon="20.149024017155170440673828125">
        <ele>2059.199951171875</ele>
        <time>2026-06-20T08:13:00.000Z</time>
        <extensions>
          <ns3:TrackPointExtension>
            <ns3:atemp>21.0</ns3:atemp>
          </ns3:TrackPointExtension>
        </extensions>
      </trkpt>
      <trkpt lat="42.5437709502875804901123046875" lon="20.14905595220625400543212890625">
        <ele>2059.199951171875</ele>
        <time>2026-06-20T08:13:01.000Z</time>
        <extensions>
          <ns3:TrackPointExtension>
            <ns3:atemp>21.0</ns3:atemp>
          </ns3:TrackPointExtension>
        </extensions>
      </trkpt>
      <trkpt lat="42.5437588803470134735107421875" lon="20.1490852050483226776123046875">
        <ele>2059.199951171875</ele>
        <time>2026-06-20T08:13:02.000Z</time>
        <extensions>
          <ns3:TrackPointExtension>
            <ns3:atemp>21.0</ns3:atemp>
          </ns3:TrackPointExtension>
        </extensions>
      </trkpt>
      <trkpt lat="42.543748319149017333984375" lon="20.14911278150975704193115234375">
        <ele>2059</ele>
        <time>2026-06-20T08:13:03.000Z</time>
        <extensions>
          <ns3:TrackPointExtension>
            <ns3:atemp>21.0</ns3:atemp>
          </ns3:TrackPointExtension>
        </extensions>
      </trkpt>
      <trkpt lat="42.5437364168465137481689453125" lon="20.14914329163730144500732421875">
        <ele>2059</ele>
        <time>2026-06-20T08:13:04.000Z</time>
        <extensions>
          <ns3:TrackPointExtension>
            <ns3:atemp>21.0</ns3:atemp>
          </ns3:TrackPointExtension>
        </extensions>
      </trkpt>
      <trkpt lat="42.54372811876237392425537109375" lon="20.14917380176484584808349609375">
        <ele>2058.800048828125</ele>
        <time>2026-06-20T08:13:05.000Z</time>
        <extensions>
          <ns3:TrackPointExtension>
            <ns3:atemp>21.0</ns3:atemp>
          </ns3:TrackPointExtension>
        </extensions>
      </trkpt>
      <trkpt lat="42.54371789284050464630126953125" lon="20.14920749701559543609619140625">
        <ele>2058.39990234375</ele>
        <time>2026-06-20T08:13:06.000Z</time>
        <extensions>
          <ns3:TrackPointExtension>
            <ns3:atemp>21.0</ns3:atemp>
          </ns3:TrackPointExtension>
        </extensions>
      </trkpt>
      <trkpt lat="42.54370984621345996856689453125" lon="20.1492427848279476165771484375">
        <ele>2058.199951171875</ele>
        <time>2026-06-20T08:13:07.000Z</time>
        <extensions>
          <ns3:TrackPointExtension>
            <ns3:atemp>21.0</ns3:atemp>
          </ns3:TrackPointExtension>
        </extensions>
      </trkpt>
      <trkpt lat="42.54370364360511302947998046875" lon="20.14927471987903118133544921875">
        <ele>2057.800048828125</ele>
        <time>2026-06-20T08:13:08.000Z</time>
        <extensions>
          <ns3:TrackPointExtension>
            <ns3:atemp>21.0</ns3:atemp>
          </ns3:TrackPointExtension>
        </extensions>
      </trkpt>
      <trkpt lat="42.543694339692592620849609375" lon="20.14930958859622478485107421875">
        <ele>2057.39990234375</ele>
        <time>2026-06-20T08:13:09.000Z</time>
        <extensions>
          <ns3:TrackPointExtension>
            <ns3:atemp>21.0</ns3:atemp>
          </ns3:TrackPointExtension>
        </extensions>
      </trkpt>
      <trkpt lat="42.543682940304279327392578125" lon="20.149341523647308349609375">
        <ele>2057</ele>
        <time>2026-06-20T08:13:10.000Z</time>
        <extensions>
          <ns3:TrackPointExtension>
            <ns3:atemp>21.0</ns3:atemp>
          </ns3:TrackPointExtension>
        </extensions>
      </trkpt>
      <trkpt lat="42.54367229528725147247314453125" lon="20.14937396161258220672607421875">
        <ele>2056.60009765625</ele>
        <time>2026-06-20T08:13:11.000Z</time>
        <extensions>
          <ns3:TrackPointExtension>
            <ns3:atemp>21.0</ns3:atemp>
          </ns3:TrackPointExtension>
        </extensions>
      </trkpt>
      <trkpt lat="42.54366056062281131744384765625" lon="20.1494063995778560638427734375">
        <ele>2056.199951171875</ele>
        <time>2026-06-20T08:13:12.000Z</time>
        <extensions>
          <ns3:TrackPointExtension>
            <ns3:atemp>21.0</ns3:atemp>
          </ns3:TrackPointExtension>
        </extensions>
      </trkpt>
      <trkpt lat="42.5436477363109588623046875" lon="20.149438083171844482421875">
        <ele>2055.800048828125</ele>
        <time>2026-06-20T08:13:13.000Z</time>
        <extensions>
          <ns3:TrackPointExtension>
            <ns3:atemp>21.0</ns3:atemp>
          </ns3:TrackPointExtension>
        </extensions>
      </trkpt>
      <trkpt lat="42.54363373853266239166259765625" lon="20.14946633018553256988525390625">
        <ele>2055.39990234375</ele>
        <time>2026-06-20T08:13:14.000Z</time>
        <extensions>
          <ns3:TrackPointExtension>
            <ns3:atemp>21.0</ns3:atemp>
          </ns3:TrackPointExtension>
        </extensions>
      </trkpt>
      <trkpt lat="42.54362585954368114471435546875" lon="20.14949449338018894195556640625">
        <ele>2055</ele>
        <time>2026-06-20T08:13:15.000Z</time>
        <extensions>
          <ns3:TrackPointExtension>
            <ns3:atemp>21.0</ns3:atemp>
          </ns3:TrackPointExtension>
        </extensions>
      </trkpt>
      <trkpt lat="42.5436173938214778900146484375" lon="20.149524249136447906494140625">
        <ele>2054.60009765625</ele>
        <time>2026-06-20T08:13:16.000Z</time>
        <extensions>
          <ns3:TrackPointExtension>
            <ns3:atemp>21.0</ns3:atemp>
          </ns3:TrackPointExtension>
        </extensions>
      </trkpt>
      <trkpt lat="42.54360758699476718902587890625" lon="20.14955484308302402496337890625">
        <ele>2054.199951171875</ele>
        <time>2026-06-20T08:13:17.000Z</time>
        <extensions>
          <ns3:TrackPointExtension>
            <ns3:atemp>21.0</ns3:atemp>
          </ns3:TrackPointExtension>
        </extensions>
      </trkpt>
      <trkpt lat="42.5435959361493587493896484375" lon="20.1495802402496337890625">
        <ele>2053.800048828125</ele>
        <time>2026-06-20T08:13:18.000Z</time>
        <extensions>
          <ns3:TrackPointExtension>
            <ns3:atemp>21.0</ns3:atemp>
          </ns3:TrackPointExtension>
        </extensions>
      </trkpt>
      <trkpt lat="42.54358395002782344818115234375" lon="20.14960312284529209136962890625">
        <ele>2053.199951171875</ele>
        <time>2026-06-20T08:13:19.000Z</time>
        <extensions>
          <ns3:TrackPointExtension>
            <ns3:atemp>21.0</ns3:atemp>
          </ns3:TrackPointExtension>
        </extensions>
      </trkpt>
      <trkpt lat="42.5435717962682247161865234375" lon="20.149622820317745208740234375">
        <ele>2052.800048828125</ele>
        <time>2026-06-20T08:13:20.000Z</time>
        <extensions>
          <ns3:TrackPointExtension>
            <ns3:atemp>21.0</ns3:atemp>
          </ns3:TrackPointExtension>
        </extensions>
      </trkpt>
      <trkpt lat="42.543562240898609161376953125" lon="20.14964151196181774139404296875">
        <ele>2052.60009765625</ele>
        <time>2026-06-20T08:13:21.000Z</time>
        <extensions>
          <ns3:TrackPointExtension>
            <ns3:atemp>21.0</ns3:atemp>
          </ns3:TrackPointExtension>
        </extensions>
      </trkpt>
      <trkpt lat="42.543548159301280975341796875" lon="20.1496628858149051666259765625">
        <ele>2052.199951171875</ele>
        <time>2026-06-20T08:13:22.000Z</time>
        <extensions>
          <ns3:TrackPointExtension>
            <ns3:atemp>21.0</ns3:atemp>
          </ns3:TrackPointExtension>
        </extensions>
      </trkpt>
      <trkpt lat="42.543539442121982574462890625" lon="20.14969113282859325408935546875">
        <ele>2051.800048828125</ele>
        <time>2026-06-20T08:13:23.000Z</time>
        <extensions>
          <ns3:TrackPointExtension>
            <ns3:atemp>21.0</ns3:atemp>
          </ns3:TrackPointExtension>
        </extensions>
      </trkpt>
      <trkpt lat="42.5435352511703968048095703125" lon="20.149714685976505279541015625">
        <ele>2051.60009765625</ele>
        <time>2026-06-20T08:13:24.000Z</time>
        <extensions>
          <ns3:TrackPointExtension>
            <ns3:atemp>21.0</ns3:atemp>
          </ns3:TrackPointExtension>
        </extensions>
      </trkpt>
      <trkpt lat="42.5435396097600460052490234375" lon="20.14973941259086132049560546875">
        <ele>2051</ele>
        <time>2026-06-20T08:13:25.000Z</time>
        <extensions>
          <ns3:TrackPointExtension>
            <ns3:atemp>21.0</ns3:atemp>
          </ns3:TrackPointExtension>
        </extensions>
      </trkpt>
      <trkpt lat="42.54354589618742465972900390625" lon="20.149756260216236114501953125">
        <ele>2050.60009765625</ele>
        <time>2026-06-20T08:13:26.000Z</time>
        <extensions>
          <ns3:TrackPointExtension>
            <ns3:atemp>21.0</ns3:atemp>
          </ns3:TrackPointExtension>
        </extensions>
      </trkpt>
      <trkpt lat="42.54355109296739101409912109375" lon="20.1497658155858516693115234375">
        <ele>2050.39990234375</ele>
        <time>2026-06-20T08:13:27.000Z</time>
        <extensions>
          <ns3:TrackPointExtension>
            <ns3:atemp>21.0</ns3:atemp>
          </ns3:TrackPointExtension>
        </extensions>
      </trkpt>
      <trkpt lat="42.5435538589954376220703125" lon="20.14976866543292999267578125">
        <ele>2050.199951171875</ele>
        <time>2026-06-20T08:13:28.000Z</time>
        <extensions>
          <ns3:TrackPointExtension>
            <ns3:atemp>21.0</ns3:atemp>
          </ns3:TrackPointExtension>
        </extensions>
      </trkpt>
      <trkpt lat="42.54356014542281627655029296875" lon="20.149770341813564300537109375">
        <ele>2049.800048828125</ele>
        <time>2026-06-20T08:13:29.000Z</time>
        <extensions>
          <ns3:TrackPointExtension>
            <ns3:atemp>21.0</ns3:atemp>
          </ns3:TrackPointExtension>
        </extensions>
      </trkpt>
      <trkpt lat="42.54355813376605510711669921875" lon="20.1497718505561351776123046875">
        <ele>2049.60009765625</ele>
        <time>2026-06-20T08:13:30.000Z</time>
        <extensions>
          <ns3:TrackPointExtension>
            <ns3:atemp>21.0</ns3:atemp>
          </ns3:TrackPointExtension>
        </extensions>
      </trkpt>
      <trkpt lat="42.54355897195637226104736328125" lon="20.1497809030115604400634765625">
        <ele>2049.60009765625</ele>
        <time>2026-06-20T08:13:31.000Z</time>
        <extensions>
          <ns3:TrackPointExtension>
            <ns3:atemp>21.0</ns3:atemp>
          </ns3:TrackPointExtension>
        </extensions>
      </trkpt>
      <trkpt lat="42.5435540266335010528564453125" lon="20.149793140590190887451171875">
        <ele>2049.39990234375</ele>
        <time>2026-06-20T08:13:32.000Z</time>
        <extensions>
          <ns3:TrackPointExtension>
            <ns3:atemp>21.0</ns3:atemp>
          </ns3:TrackPointExtension>
        </extensions>
      </trkpt>
      <trkpt lat="42.54355545155704021453857421875" lon="20.149792134761810302734375">
        <ele>2049.39990234375</ele>
        <time>2026-06-20T08:13:33.000Z</time>
        <extensions>
          <ns3:TrackPointExtension>
            <ns3:atemp>21.0</ns3:atemp>
          </ns3:TrackPointExtension>
        </extensions>
      </trkpt>
      <trkpt lat="42.54355545155704021453857421875" lon="20.1497923023998737335205078125">
        <ele>2049.199951171875</ele>
        <time>2026-06-20T08:13:34.000Z</time>
        <extensions>
          <ns3:TrackPointExtension>
            <ns3:atemp>21.0</ns3:atemp>
          </ns3:TrackPointExtension>
        </extensions>
      </trkpt>
      <trkpt lat="42.54355545155704021453857421875" lon="20.1497923023998737335205078125">
        <ele>2049.199951171875</ele>
        <time>2026-06-20T08:13:35.000Z</time>
        <extensions>
          <ns3:TrackPointExtension>
            <ns3:atemp>21.0</ns3:atemp>
          </ns3:TrackPointExtension>
        </extensions>
      </trkpt>
      <trkpt lat="42.543555535376071929931640625" lon="20.14979280531406402587890625">
        <ele>2049.199951171875</ele>
        <time>2026-06-20T08:13:36.000Z</time>
        <extensions>
          <ns3:TrackPointExtension>
            <ns3:atemp>21.0</ns3:atemp>
          </ns3:TrackPointExtension>
        </extensions>
      </trkpt>
      <trkpt lat="42.54355293698608875274658203125" lon="20.14980277977883815765380859375">
        <ele>2049.39990234375</ele>
        <time>2026-06-20T08:13:37.000Z</time>
        <extensions>
          <ns3:TrackPointExtension>
            <ns3:atemp>21.0</ns3:atemp>
          </ns3:TrackPointExtension>
        </extensions>
      </trkpt>
      <trkpt lat="42.54355360753834247589111328125" lon="20.14980831183493137359619140625">
        <ele>2049.199951171875</ele>
        <time>2026-06-20T08:13:38.000Z</time>
        <extensions>
          <ns3:TrackPointExtension>
            <ns3:atemp>21.0</ns3:atemp>
          </ns3:TrackPointExtension>
        </extensions>
      </trkpt>
      <trkpt lat="42.54355478100478649139404296875" lon="20.1498140953481197357177734375">
        <ele>2049.199951171875</ele>
        <time>2026-06-20T08:13:39.000Z</time>
        <extensions>
          <ns3:TrackPointExtension>
            <ns3:atemp>21.0</ns3:atemp>
          </ns3:TrackPointExtension>
        </extensions>
      </trkpt>
      <trkpt lat="42.5435546971857547760009765625" lon="20.149825327098369598388671875">
        <ele>2049.199951171875</ele>
        <time>2026-06-20T08:13:40.000Z</time>
        <extensions>
          <ns3:TrackPointExtension>
            <ns3:atemp>21.0</ns3:atemp>
          </ns3:TrackPointExtension>
        </extensions>
      </trkpt>
      <trkpt lat="42.5435510091483592987060546875" lon="20.1498399116098880767822265625">
        <ele>2049</ele>
        <time>2026-06-20T08:13:41.000Z</time>
        <extensions>
          <ns3:TrackPointExtension>
            <ns3:atemp>21.0</ns3:atemp>
          </ns3:TrackPointExtension>
        </extensions>
      </trkpt>
      <trkpt lat="42.5435513444244861602783203125" lon="20.14985206536948680877685546875">
        <ele>2049</ele>
        <time>2026-06-20T08:13:42.000Z</time>
        <extensions>
          <ns3:TrackPointExtension>
            <ns3:atemp>21.0</ns3:atemp>
          </ns3:TrackPointExtension>
        </extensions>
      </trkpt>
      <trkpt lat="42.54355184733867645263671875" lon="20.1498647220432758331298828125">
        <ele>2049</ele>
        <time>2026-06-20T08:13:43.000Z</time>
        <extensions>
          <ns3:TrackPointExtension>
            <ns3:atemp>21.0</ns3:atemp>
          </ns3:TrackPointExtension>
        </extensions>
      </trkpt>
      <trkpt lat="42.5435565412044525146484375" lon="20.1498684100806713104248046875">
        <ele>2049</ele>
        <time>2026-06-20T08:13:44.000Z</time>
        <extensions>
          <ns3:TrackPointExtension>
            <ns3:atemp>21.0</ns3:atemp>
          </ns3:TrackPointExtension>
        </extensions>
      </trkpt>
      <trkpt lat="42.5435553677380084991455078125" lon="20.14987486414611339569091796875">
        <ele>2048.800048828125</ele>
        <time>2026-06-20T08:13:45.000Z</time>
        <extensions>
          <ns3:TrackPointExtension>
            <ns3:atemp>21.0</ns3:atemp>
          </ns3:TrackPointExtension>
        </extensions>
      </trkpt>
      <trkpt lat="42.54356048069894313812255859375" lon="20.1498915441334247589111328125">
        <ele>2048.800048828125</ele>
        <time>2026-06-20T08:13:46.000Z</time>
        <extensions>
          <ns3:TrackPointExtension>
            <ns3:atemp>21.0</ns3:atemp>
          </ns3:TrackPointExtension>
        </extensions>
      </trkpt>
      <trkpt lat="42.54356785677373409271240234375" lon="20.14991283416748046875">
        <ele>2048.60009765625</ele>
        <time>2026-06-20T08:13:47.000Z</time>
        <extensions>
          <ns3:TrackPointExtension>
            <ns3:atemp>21.0</ns3:atemp>
          </ns3:TrackPointExtension>
        </extensions>
      </trkpt>
      <trkpt lat="42.5435699522495269775390625" lon="20.14993286691606044769287109375">
        <ele>2048.39990234375</ele>
        <time>2026-06-20T08:13:48.000Z</time>
        <extensions>
          <ns3:TrackPointExtension>
            <ns3:atemp>21.0</ns3:atemp>
          </ns3:TrackPointExtension>
        </extensions>
      </trkpt>
      <trkpt lat="42.54357305355370044708251953125" lon="20.1499535702168941497802734375">
        <ele>2048.39990234375</ele>
        <time>2026-06-20T08:13:49.000Z</time>
        <extensions>
          <ns3:TrackPointExtension>
            <ns3:atemp>21.0</ns3:atemp>
          </ns3:TrackPointExtension>
        </extensions>
      </trkpt>
      <trkpt lat="42.54357523284852504730224609375" lon="20.1499726809561252593994140625">
        <ele>2048.199951171875</ele>
        <time>2026-06-20T08:13:50.000Z</time>
        <extensions>
          <ns3:TrackPointExtension>
            <ns3:atemp>21.0</ns3:atemp>
          </ns3:TrackPointExtension>
        </extensions>
      </trkpt>
      <trkpt lat="42.54357825033366680145263671875" lon="20.1499948091804981231689453125">
        <ele>2048.199951171875</ele>
        <time>2026-06-20T08:13:51.000Z</time>
        <extensions>
          <ns3:TrackPointExtension>
            <ns3:atemp>21.0</ns3:atemp>
          </ns3:TrackPointExtension>
        </extensions>
      </trkpt>
      <trkpt lat="42.54358814097940921783447265625" lon="20.15001450665295124053955078125">
        <ele>2048</ele>
        <time>2026-06-20T08:13:52.000Z</time>
        <extensions>
          <ns3:TrackPointExtension>
            <ns3:atemp>21.0</ns3:atemp>
          </ns3:TrackPointExtension>
        </extensions>
      </trkpt>
      <trkpt lat="42.5435989536345005035400390625" lon="20.15003395266830921173095703125">
        <ele>2048</ele>
        <time>2026-06-20T08:13:53.000Z</time>
        <extensions>
          <ns3:TrackPointExtension>
            <ns3:atemp>21.0</ns3:atemp>
          </ns3:TrackPointExtension>
        </extensions>
      </trkpt>
      <trkpt lat="42.54361596889793872833251953125" lon="20.15005205757915973663330078125">
        <ele>2047.5999755859375</ele>
        <time>2026-06-20T08:13:54.000Z</time>
        <extensions>
          <ns3:TrackPointExtension>
            <ns3:atemp>21.0</ns3:atemp>
          </ns3:TrackPointExtension>
        </extensions>
      </trkpt>
      <trkpt lat="42.54363910295069217681884765625" lon="20.1500662229955196380615234375">
        <ele>2047.4000244140625</ele>
        <time>2026-06-20T08:13:55.000Z</time>
        <extensions>
          <ns3:TrackPointExtension>
            <ns3:atemp>21.0</ns3:atemp>
          </ns3:TrackPointExtension>
        </extensions>
      </trkpt>
      <trkpt lat="42.54366173408925533294677734375" lon="20.15007753856480121612548828125">
        <ele>2047</ele>
        <time>2026-06-20T08:13:56.000Z</time>
        <extensions>
          <ns3:TrackPointExtension>
            <ns3:atemp>21.0</ns3:atemp>
          </ns3:TrackPointExtension>
        </extensions>
      </trkpt>
      <trkpt lat="42.54368084482848644256591796875" lon="20.15009681694209575653076171875">
        <ele>2046.5999755859375</ele>
        <time>2026-06-20T08:13:57.000Z</time>
        <extensions>
          <ns3:TrackPointExtension>
            <ns3:atemp>21.0</ns3:atemp>
          </ns3:TrackPointExtension>
        </extensions>
      </trkpt>
      <trkpt lat="42.54370096139609813690185546875" lon="20.15011869370937347412109375">
        <ele>2046.199951171875</ele>
        <time>2026-06-20T08:13:58.000Z</time>
        <extensions>
          <ns3:TrackPointExtension>
            <ns3:atemp>21.0</ns3:atemp>
          </ns3:TrackPointExtension>
        </extensions>
      </trkpt>
      <trkpt lat="42.54372350871562957763671875" lon="20.15014392323791980743408203125">
        <ele>2045.800048828125</ele>
        <time>2026-06-20T08:13:59.000Z</time>
        <extensions>
          <ns3:TrackPointExtension>
            <ns3:atemp>21.0</ns3:atemp>
          </ns3:TrackPointExtension>
        </extensions>
      </trkpt>
      <trkpt lat="42.5437504984438419342041015625" lon="20.1501701585948467254638671875">
        <ele>2045.4000244140625</ele>
        <time>2026-06-20T08:14:00.000Z</time>
        <extensions>
          <ns3:TrackPointExtension>
            <ns3:atemp>21.0</ns3:atemp>
          </ns3:TrackPointExtension>
        </extensions>
      </trkpt>
      <trkpt lat="42.543775141239166259765625" lon="20.15019706450402736663818359375">
        <ele>2045</ele>
        <time>2026-06-20T08:14:01.000Z</time>
        <extensions>
          <ns3:TrackPointExtension>
            <ns3:atemp>21.0</ns3:atemp>
          </ns3:TrackPointExtension>
        </extensions>
      </trkpt>
      <trkpt lat="42.54379735328257083892822265625" lon="20.150230340659618377685546875">
        <ele>2044.5999755859375</ele>
        <time>2026-06-20T08:14:02.000Z</time>
        <extensions>
          <ns3:TrackPointExtension>
            <ns3:atemp>21.0</ns3:atemp>
          </ns3:TrackPointExtension>
        </extensions>
      </trkpt>
      <trkpt lat="42.5438168831169605255126953125" lon="20.15026210807263851165771484375">
        <ele>2044.4000244140625</ele>
        <time>2026-06-20T08:14:03.000Z</time>
        <extensions>
          <ns3:TrackPointExtension>
            <ns3:atemp>21.0</ns3:atemp>
          </ns3:TrackPointExtension>
        </extensions>
      </trkpt>
      <trkpt lat="42.5438296236097812652587890625" lon="20.15029781498014926910400390625">
        <ele>2044.199951171875</ele>
        <time>2026-06-20T08:14:04.000Z</time>
        <extensions>
          <ns3:TrackPointExtension>
            <ns3:atemp>21.0</ns3:atemp>
          </ns3:TrackPointExtension>
        </extensions>
      </trkpt>
      <trkpt lat="42.543838508427143096923828125" lon="20.15033720992505550384521484375">
        <ele>2044.199951171875</ele>
        <time>2026-06-20T08:14:05.000Z</time>
        <extensions>
          <ns3:TrackPointExtension>
            <ns3:atemp>21.0</ns3:atemp>
          </ns3:TrackPointExtension>
        </extensions>
      </trkpt>
      <trkpt lat="42.54384647123515605926513671875" lon="20.15037593431770801544189453125">
        <ele>2044.199951171875</ele>
        <time>2026-06-20T08:14:06.000Z</time>
        <extensions>
          <ns3:TrackPointExtension>
            <ns3:atemp>21.0</ns3:atemp>
          </ns3:TrackPointExtension>
        </extensions>
      </trkpt>
      <trkpt lat="42.54386474378407001495361328125" lon="20.1504014991223812103271484375">
        <ele>2044.199951171875</ele>
        <time>2026-06-20T08:14:07.000Z</time>
        <extensions>
          <ns3:TrackPointExtension>
            <ns3:atemp>21.0</ns3:atemp>
          </ns3:TrackPointExtension>
        </extensions>
      </trkpt>
      <trkpt lat="42.5438762269914150238037109375" lon="20.15043561346828937530517578125">
        <ele>2044</ele>
        <time>2026-06-20T08:14:08.000Z</time>
        <extensions>
          <ns3:TrackPointExtension>
            <ns3:atemp>21.0</ns3:atemp>
          </ns3:TrackPointExtension>
        </extensions>
      </trkpt>
      <trkpt lat="42.54388636909425258636474609375" lon="20.15046335756778717041015625">
        <ele>2043.800048828125</ele>
        <time>2026-06-20T08:14:09.000Z</time>
        <extensions>
          <ns3:TrackPointExtension>
            <ns3:atemp>21.0</ns3:atemp>
          </ns3:TrackPointExtension>
        </extensions>
      </trkpt>
      <trkpt lat="42.543898522853851318359375" lon="20.15049395151436328887939453125">
        <ele>2043.800048828125</ele>
        <time>2026-06-20T08:14:10.000Z</time>
        <extensions>
          <ns3:TrackPointExtension>
            <ns3:atemp>21.0</ns3:atemp>
          </ns3:TrackPointExtension>
        </extensions>
      </trkpt>
      <trkpt lat="42.5439104251563549041748046875" lon="20.150527060031890869140625">
        <ele>2043.5999755859375</ele>
        <time>2026-06-20T08:14:11.000Z</time>
        <extensions>
          <ns3:TrackPointExtension>
            <ns3:atemp>21.0</ns3:atemp>
          </ns3:TrackPointExtension>
        </extensions>
      </trkpt>
      <trkpt lat="42.54391889087855815887451171875" lon="20.15056536532938480377197265625">
        <ele>2043.4000244140625</ele>
        <time>2026-06-20T08:14:12.000Z</time>
        <extensions>
          <ns3:TrackPointExtension>
            <ns3:atemp>21.0</ns3:atemp>
          </ns3:TrackPointExtension>
        </extensions>
      </trkpt>
      <trkpt lat="42.543931044638156890869140625" lon="20.15060023404657840728759765625">
        <ele>2043.199951171875</ele>
        <time>2026-06-20T08:14:13.000Z</time>
        <extensions>
          <ns3:TrackPointExtension>
            <ns3:atemp>21.0</ns3:atemp>
          </ns3:TrackPointExtension>
        </extensions>
      </trkpt>
      <trkpt lat="42.54394068382680416107177734375" lon="20.15064180828630924224853515625">
        <ele>2043</ele>
        <time>2026-06-20T08:14:14.000Z</time>
        <extensions>
          <ns3:TrackPointExtension>
            <ns3:atemp>21.0</ns3:atemp>
          </ns3:TrackPointExtension>
        </extensions>
      </trkpt>
      <trkpt lat="42.5439493171870708465576171875" lon="20.15068371780216693878173828125">
        <ele>2042.800048828125</ele>
        <time>2026-06-20T08:14:15.000Z</time>
        <extensions>
          <ns3:TrackPointExtension>
            <ns3:atemp>21.0</ns3:atemp>
          </ns3:TrackPointExtension>
        </extensions>
      </trkpt>
      <trkpt lat="42.54395895637571811676025390625" lon="20.15071992762386798858642578125">
        <ele>2042.5999755859375</ele>
        <time>2026-06-20T08:14:16.000Z</time>
        <extensions>
          <ns3:TrackPointExtension>
            <ns3:atemp>21.0</ns3:atemp>
          </ns3:TrackPointExtension>
        </extensions>
      </trkpt>
      <trkpt lat="42.54396817646920680999755859375" lon="20.15075898729264736175537109375">
        <ele>2042.199951171875</ele>
        <time>2026-06-20T08:14:17.000Z</time>
        <extensions>
          <ns3:TrackPointExtension>
            <ns3:atemp>21.0</ns3:atemp>
          </ns3:TrackPointExtension>
        </extensions>
      </trkpt>
      <trkpt lat="42.5439758040010929107666015625" lon="20.15079972334206104278564453125">
        <ele>2042</ele>
        <time>2026-06-20T08:14:18.000Z</time>
        <extensions>
          <ns3:TrackPointExtension>
            <ns3:atemp>21.0</ns3:atemp>
          </ns3:TrackPointExtension>
        </extensions>
      </trkpt>
      <trkpt lat="42.54398443736135959625244140625" lon="20.150847248733043670654296875">
        <ele>2041.800048828125</ele>
        <time>2026-06-20T08:14:19.000Z</time>
        <extensions>
          <ns3:TrackPointExtension>
            <ns3:atemp>21.0</ns3:atemp>
          </ns3:TrackPointExtension>
        </extensions>
      </trkpt>
      <trkpt lat="42.54399080760776996612548828125" lon="20.15089544467628002166748046875">
        <ele>2041.5999755859375</ele>
        <time>2026-06-20T08:14:20.000Z</time>
        <extensions>
          <ns3:TrackPointExtension>
            <ns3:atemp>21.0</ns3:atemp>
          </ns3:TrackPointExtension>
        </extensions>
      </trkpt>
      <trkpt lat="42.5439969263970851898193359375" lon="20.15093668363988399505615234375">
        <ele>2041.4000244140625</ele>
        <time>2026-06-20T08:14:21.000Z</time>
        <extensions>
          <ns3:TrackPointExtension>
            <ns3:atemp>21.0</ns3:atemp>
          </ns3:TrackPointExtension>
        </extensions>
      </trkpt>
      <trkpt lat="42.54399751313030719757080078125" lon="20.1509671099483966827392578125">
        <ele>2041.199951171875</ele>
        <time>2026-06-20T08:14:22.000Z</time>
        <extensions>
          <ns3:TrackPointExtension>
            <ns3:atemp>21.0</ns3:atemp>
          </ns3:TrackPointExtension>
        </extensions>
      </trkpt>
      <trkpt lat="42.5440056435763835906982421875" lon="20.1510053314268589019775390625">
        <ele>2040.800048828125</ele>
        <time>2026-06-20T08:14:23.000Z</time>
        <extensions>
          <ns3:TrackPointExtension>
            <ns3:atemp>21.0</ns3:atemp>
          </ns3:TrackPointExtension>
        </extensions>
      </trkpt>
      <trkpt lat="42.5440163724124431610107421875" lon="20.151049084961414337158203125">
        <ele>2040.4000244140625</ele>
        <time>2026-06-20T08:14:24.000Z</time>
        <extensions>
          <ns3:TrackPointExtension>
            <ns3:atemp>21.0</ns3:atemp>
          </ns3:TrackPointExtension>
        </extensions>
      </trkpt>
      <trkpt lat="42.544024921953678131103515625" lon="20.15110113658010959625244140625">
        <ele>2040</ele>
        <time>2026-06-20T08:14:25.000Z</time>
        <extensions>
          <ns3:TrackPointExtension>
            <ns3:atemp>21.0</ns3:atemp>
          </ns3:TrackPointExtension>
        </extensions>
      </trkpt>
      <trkpt lat="42.54403137601912021636962890625" lon="20.15115645714104175567626953125">
        <ele>2039.5999755859375</ele>
        <time>2026-06-20T08:14:26.000Z</time>
        <extensions>
          <ns3:TrackPointExtension>
            <ns3:atemp>21.0</ns3:atemp>
          </ns3:TrackPointExtension>
        </extensions>
      </trkpt>
      <trkpt lat="42.54403062164783477783203125" lon="20.1512205787003040313720703125">
        <ele>2039</ele>
        <time>2026-06-20T08:14:27.000Z</time>
        <extensions>
          <ns3:TrackPointExtension>
            <ns3:atemp>21.0</ns3:atemp>
          </ns3:TrackPointExtension>
        </extensions>
      </trkpt>
      <trkpt lat="42.54403598606586456298828125" lon="20.151281766593456268310546875">
        <ele>2038.4000244140625</ele>
        <time>2026-06-20T08:14:28.000Z</time>
        <extensions>
          <ns3:TrackPointExtension>
            <ns3:atemp>21.0</ns3:atemp>
          </ns3:TrackPointExtension>
        </extensions>
      </trkpt>
      <trkpt lat="42.54404176957905292510986328125" lon="20.1513357460498809814453125">
        <ele>2037.5999755859375</ele>
        <time>2026-06-20T08:14:29.000Z</time>
        <extensions>
          <ns3:TrackPointExtension>
            <ns3:atemp>21.0</ns3:atemp>
          </ns3:TrackPointExtension>
        </extensions>
      </trkpt>
      <trkpt lat="42.54404294304549694061279296875" lon="20.15140254981815814971923828125">
        <ele>2037.199951171875</ele>
        <time>2026-06-20T08:14:30.000Z</time>
        <extensions>
          <ns3:TrackPointExtension>
            <ns3:atemp>21.0</ns3:atemp>
          </ns3:TrackPointExtension>
        </extensions>
      </trkpt>
      <trkpt lat="42.54404210485517978668212890625" lon="20.15147111378610134124755859375">
        <ele>2036.800048828125</ele>
        <time>2026-06-20T08:14:31.000Z</time>
        <extensions>
          <ns3:TrackPointExtension>
            <ns3:atemp>21.0</ns3:atemp>
          </ns3:TrackPointExtension>
        </extensions>
      </trkpt>
      <trkpt lat="42.5440361537039279937744140625" lon="20.15154018066823482513427734375">
        <ele>2036.4000244140625</ele>
        <time>2026-06-20T08:14:32.000Z</time>
        <extensions>
          <ns3:TrackPointExtension>
            <ns3:atemp>21.0</ns3:atemp>
          </ns3:TrackPointExtension>
        </extensions>
      </trkpt>
      <trkpt lat="42.54402936436235904693603515625" lon="20.15160220675170421600341796875">
        <ele>2035.800048828125</ele>
        <time>2026-06-20T08:14:33.000Z</time>
        <extensions>
          <ns3:TrackPointExtension>
            <ns3:atemp>21.0</ns3:atemp>
          </ns3:TrackPointExtension>
        </extensions>
      </trkpt>
      <trkpt lat="42.54402123391628265380859375" lon="20.15166222117841243743896484375">
        <ele>2035.4000244140625</ele>
        <time>2026-06-20T08:14:34.000Z</time>
        <extensions>
          <ns3:TrackPointExtension>
            <ns3:atemp>21.0</ns3:atemp>
          </ns3:TrackPointExtension>
        </extensions>
      </trkpt>
      <trkpt lat="42.5440224073827266693115234375" lon="20.1517141051590442657470703125">
        <ele>2035.199951171875</ele>
        <time>2026-06-20T08:14:35.000Z</time>
        <extensions>
          <ns3:TrackPointExtension>
            <ns3:atemp>21.0</ns3:atemp>
          </ns3:TrackPointExtension>
        </extensions>
      </trkpt>
      <trkpt lat="42.54402232356369495391845703125" lon="20.15176816843450069427490234375">
        <ele>2035</ele>
        <time>2026-06-20T08:14:36.000Z</time>
        <extensions>
          <ns3:TrackPointExtension>
            <ns3:atemp>21.0</ns3:atemp>
          </ns3:TrackPointExtension>
        </extensions>
      </trkpt>
      <trkpt lat="42.54402014426887035369873046875" lon="20.1518126763403415679931640625">
        <ele>2035</ele>
        <time>2026-06-20T08:14:37.000Z</time>
        <extensions>
          <ns3:TrackPointExtension>
            <ns3:atemp>21.0</ns3:atemp>
          </ns3:TrackPointExtension>
        </extensions>
      </trkpt>
      <trkpt lat="42.544016540050506591796875" lon="20.15184896998107433319091796875">
        <ele>2035</ele>
        <time>2026-06-20T08:14:38.000Z</time>
        <extensions>
          <ns3:TrackPointExtension>
            <ns3:atemp>21.0</ns3:atemp>
          </ns3:TrackPointExtension>
        </extensions>
      </trkpt>
      <trkpt lat="42.54401645623147487640380859375" lon="20.1518790610134601593017578125">
        <ele>2035</ele>
        <time>2026-06-20T08:14:39.000Z</time>
        <extensions>
          <ns3:TrackPointExtension>
            <ns3:atemp>21.0</ns3:atemp>
          </ns3:TrackPointExtension>
        </extensions>
      </trkpt>
      <trkpt lat="42.5440157018601894378662109375" lon="20.1519082300364971160888671875">
        <ele>2035.199951171875</ele>
        <time>2026-06-20T08:14:40.000Z</time>
        <extensions>
          <ns3:TrackPointExtension>
            <ns3:atemp>21.0</ns3:atemp>
          </ns3:TrackPointExtension>
        </extensions>
      </trkpt>
      <trkpt lat="42.54401662386953830718994140625" lon="20.15194284729659557342529296875">
        <ele>2035.199951171875</ele>
        <time>2026-06-20T08:14:41.000Z</time>
        <extensions>
          <ns3:TrackPointExtension>
            <ns3:atemp>21.0</ns3:atemp>
          </ns3:TrackPointExtension>
        </extensions>
      </trkpt>
      <trkpt lat="42.5440190546214580535888671875" lon="20.15198039822280406951904296875">
        <ele>2035.199951171875</ele>
        <time>2026-06-20T08:14:42.000Z</time>
        <extensions>
          <ns3:TrackPointExtension>
            <ns3:atemp>21.0</ns3:atemp>
          </ns3:TrackPointExtension>
        </extensions>
      </trkpt>
      <trkpt lat="42.54402249120175838470458984375" lon="20.15202750451862812042236328125">
        <ele>2035.199951171875</ele>
        <time>2026-06-20T08:14:43.000Z</time>
        <extensions>
          <ns3:TrackPointExtension>
            <ns3:atemp>21.0</ns3:atemp>
          </ns3:TrackPointExtension>
        </extensions>
      </trkpt>
      <trkpt lat="42.54402182064950466156005859375" lon="20.152070336043834686279296875">
        <ele>2035.199951171875</ele>
        <time>2026-06-20T08:14:44.000Z</time>
        <extensions>
          <ns3:TrackPointExtension>
            <ns3:atemp>21.0</ns3:atemp>
          </ns3:TrackPointExtension>
        </extensions>
      </trkpt>
      <trkpt lat="42.544027604162693023681640625" lon="20.1521087251603603363037109375">
        <ele>2035.199951171875</ele>
        <time>2026-06-20T08:14:45.000Z</time>
        <extensions>
          <ns3:TrackPointExtension>
            <ns3:atemp>21.0</ns3:atemp>
          </ns3:TrackPointExtension>
        </extensions>
      </trkpt>
      <trkpt lat="42.5440287776291370391845703125" lon="20.152152143418788909912109375">
        <ele>2035.199951171875</ele>
        <time>2026-06-20T08:14:46.000Z</time>
        <extensions>
          <ns3:TrackPointExtension>
            <ns3:atemp>21.0</ns3:atemp>
          </ns3:TrackPointExtension>
        </extensions>
      </trkpt>
      <trkpt lat="42.5440304540097713470458984375" lon="20.1522042788565158843994140625">
        <ele>2035.199951171875</ele>
        <time>2026-06-20T08:14:47.000Z</time>
        <extensions>
          <ns3:TrackPointExtension>
            <ns3:atemp>21.0</ns3:atemp>
          </ns3:TrackPointExtension>
        </extensions>
      </trkpt>
      <trkpt lat="42.5440271012485027313232421875" lon="20.152252726256847381591796875">
        <ele>2035.199951171875</ele>
        <time>2026-06-20T08:14:48.000Z</time>
        <extensions>
          <ns3:TrackPointExtension>
            <ns3:atemp>21.0</ns3:atemp>
          </ns3:TrackPointExtension>
        </extensions>
      </trkpt>
      <trkpt lat="42.54401662386953830718994140625" lon="20.15229203738272190093994140625">
        <ele>2035.199951171875</ele>
        <time>2026-06-20T08:14:49.000Z</time>
        <extensions>
          <ns3:TrackPointExtension>
            <ns3:atemp>21.0</ns3:atemp>
          </ns3:TrackPointExtension>
        </extensions>
      </trkpt>
      <trkpt lat="42.54400455392897129058837890625" lon="20.15232774429023265838623046875">
        <ele>2035.4000244140625</ele>
        <time>2026-06-20T08:14:50.000Z</time>
        <extensions>
          <ns3:TrackPointExtension>
            <ns3:atemp>21.0</ns3:atemp>
          </ns3:TrackPointExtension>
        </extensions>
      </trkpt>
      <trkpt lat="42.54399449564516544342041015625" lon="20.15235641039907932281494140625">
        <ele>2035.4000244140625</ele>
        <time>2026-06-20T08:14:51.000Z</time>
        <extensions>
          <ns3:TrackPointExtension>
            <ns3:atemp>21.0</ns3:atemp>
          </ns3:TrackPointExtension>
        </extensions>
      </trkpt>
      <trkpt lat="42.54398594610393047332763671875" lon="20.15239262022078037261962890625">
        <ele>2035.5999755859375</ele>
        <time>2026-06-20T08:14:52.000Z</time>
        <extensions>
          <ns3:TrackPointExtension>
            <ns3:atemp>21.0</ns3:atemp>
          </ns3:TrackPointExtension>
        </extensions>
      </trkpt>
      <trkpt lat="42.543979324400424957275390625" lon="20.15243536792695522308349609375">
        <ele>2035.5999755859375</ele>
        <time>2026-06-20T08:14:53.000Z</time>
        <extensions>
          <ns3:TrackPointExtension>
            <ns3:atemp>21.0</ns3:atemp>
          </ns3:TrackPointExtension>
        </extensions>
      </trkpt>
      <trkpt lat="42.54397572018206119537353515625" lon="20.15248213894665241241455078125">
        <ele>2035.800048828125</ele>
        <time>2026-06-20T08:14:54.000Z</time>
        <extensions>
          <ns3:TrackPointExtension>
            <ns3:atemp>21.0</ns3:atemp>
          </ns3:TrackPointExtension>
        </extensions>
      </trkpt>
      <trkpt lat="42.5439731217920780181884765625" lon="20.15253360383212566375732421875">
        <ele>2035.800048828125</ele>
        <time>2026-06-20T08:14:55.000Z</time>
        <extensions>
          <ns3:TrackPointExtension>
            <ns3:atemp>21.0</ns3:atemp>
          </ns3:TrackPointExtension>
        </extensions>
      </trkpt>
      <trkpt lat="42.543972618877887725830078125" lon="20.1525829732418060302734375">
        <ele>2035.800048828125</ele>
        <time>2026-06-20T08:14:56.000Z</time>
        <extensions>
          <ns3:TrackPointExtension>
            <ns3:atemp>21.0</ns3:atemp>
          </ns3:TrackPointExtension>
        </extensions>
      </trkpt>
      <trkpt lat="42.5439791567623615264892578125" lon="20.15262681059539318084716796875">
        <ele>2035.5999755859375</ele>
        <time>2026-06-20T08:14:57.000Z</time>
        <extensions>
          <ns3:TrackPointExtension>
            <ns3:atemp>21.0</ns3:atemp>
          </ns3:TrackPointExtension>
        </extensions>
      </trkpt>
      <trkpt lat="42.54398326389491558074951171875" lon="20.15267039649188518524169921875">
        <ele>2035.5999755859375</ele>
        <time>2026-06-20T08:14:58.000Z</time>
        <extensions>
          <ns3:TrackPointExtension>
            <ns3:atemp>21.0</ns3:atemp>
          </ns3:TrackPointExtension>
        </extensions>
      </trkpt>
      <trkpt lat="42.543984018266201019287109375" lon="20.1527159102261066436767578125">
        <ele>2035.5999755859375</ele>
        <time>2026-06-20T08:14:59.000Z</time>
        <extensions>
          <ns3:TrackPointExtension>
            <ns3:atemp>21.0</ns3:atemp>
          </ns3:TrackPointExtension>
        </extensions>
      </trkpt>
      <trkpt lat="42.54397907294332981109619140625" lon="20.15276142396032810211181640625">
        <ele>2035.4000244140625</ele>
        <time>2026-06-20T08:15:00.000Z</time>
        <extensions>
          <ns3:TrackPointExtension>
            <ns3:atemp>21.0</ns3:atemp>
          </ns3:TrackPointExtension>
        </extensions>
      </trkpt>
      <trkpt lat="42.54397152923047542572021484375" lon="20.15280484221875667572021484375">
        <ele>2035.4000244140625</ele>
        <time>2026-06-20T08:15:01.000Z</time>
        <extensions>
          <ns3:TrackPointExtension>
            <ns3:atemp>21.0</ns3:atemp>
          </ns3:TrackPointExtension>
        </extensions>
      </trkpt>
      <trkpt lat="42.54396281205117702484130859375" lon="20.15284641645848751068115234375">
        <ele>2035.4000244140625</ele>
        <time>2026-06-20T08:15:02.000Z</time>
        <extensions>
          <ns3:TrackPointExtension>
            <ns3:atemp>21.0</ns3:atemp>
          </ns3:TrackPointExtension>
        </extensions>
      </trkpt>
      <trkpt lat="42.5439513288438320159912109375" lon="20.15288564376533031463623046875">
        <ele>2035.4000244140625</ele>
        <time>2026-06-20T08:15:03.000Z</time>
        <extensions>
          <ns3:TrackPointExtension>
            <ns3:atemp>21.0</ns3:atemp>
          </ns3:TrackPointExtension>
        </extensions>
      </trkpt>
      <trkpt lat="42.5439442880451679229736328125" lon="20.15291900373995304107666015625">
        <ele>2035.199951171875</ele>
        <time>2026-06-20T08:15:04.000Z</time>
        <extensions>
          <ns3:TrackPointExtension>
            <ns3:atemp>21.0</ns3:atemp>
          </ns3:TrackPointExtension>
        </extensions>
      </trkpt>
      <trkpt lat="42.543933726847171783447265625" lon="20.15295286662876605987548828125">
        <ele>2035.199951171875</ele>
        <time>2026-06-20T08:15:05.000Z</time>
        <extensions>
          <ns3:TrackPointExtension>
            <ns3:atemp>21.0</ns3:atemp>
          </ns3:TrackPointExtension>
        </extensions>
      </trkpt>
      <trkpt lat="42.54392274655401706695556640625" lon="20.1529878191649913787841796875">
        <ele>2035.199951171875</ele>
        <time>2026-06-20T08:15:06.000Z</time>
        <extensions>
          <ns3:TrackPointExtension>
            <ns3:atemp>21.0</ns3:atemp>
          </ns3:TrackPointExtension>
        </extensions>
      </trkpt>
      <trkpt lat="42.54390765912830829620361328125" lon="20.15301841311156749725341796875">
        <ele>2035.199951171875</ele>
        <time>2026-06-20T08:15:07.000Z</time>
        <extensions>
          <ns3:TrackPointExtension>
            <ns3:atemp>21.0</ns3:atemp>
          </ns3:TrackPointExtension>
        </extensions>
      </trkpt>
      <trkpt lat="42.5438809208571910858154296875" lon="20.1530443131923675537109375">
        <ele>2035.4000244140625</ele>
        <time>2026-06-20T08:15:08.000Z</time>
        <extensions>
          <ns3:TrackPointExtension>
            <ns3:atemp>21.0</ns3:atemp>
          </ns3:TrackPointExtension>
        </extensions>
      </trkpt>
      <trkpt lat="42.5438544340431690216064453125" lon="20.1530803553760051727294921875">
        <ele>2035.199951171875</ele>
        <time>2026-06-20T08:15:09.000Z</time>
        <extensions>
          <ns3:TrackPointExtension>
            <ns3:atemp>21.0</ns3:atemp>
          </ns3:TrackPointExtension>
        </extensions>
      </trkpt>
      <trkpt lat="42.54383708350360393524169921875" lon="20.15312813222408294677734375">
        <ele>2035.199951171875</ele>
        <time>2026-06-20T08:15:10.000Z</time>
        <extensions>
          <ns3:TrackPointExtension>
            <ns3:atemp>21.0</ns3:atemp>
          </ns3:TrackPointExtension>
        </extensions>
      </trkpt>
      <trkpt lat="42.543834485113620758056640625" lon="20.1531718857586383819580078125">
        <ele>2035.199951171875</ele>
        <time>2026-06-20T08:15:11.000Z</time>
        <extensions>
          <ns3:TrackPointExtension>
            <ns3:atemp>21.0</ns3:atemp>
          </ns3:TrackPointExtension>
        </extensions>
      </trkpt>
      <trkpt lat="42.5438319705426692962646484375" lon="20.15320918522775173187255859375">
        <ele>2035.199951171875</ele>
        <time>2026-06-20T08:15:12.000Z</time>
        <extensions>
          <ns3:TrackPointExtension>
            <ns3:atemp>21.0</ns3:atemp>
          </ns3:TrackPointExtension>
        </extensions>
      </trkpt>
      <trkpt lat="42.5438245944678783416748046875" lon="20.153239779174327850341796875">
        <ele>2035.199951171875</ele>
        <time>2026-06-20T08:15:13.000Z</time>
        <extensions>
          <ns3:TrackPointExtension>
            <ns3:atemp>21.0</ns3:atemp>
          </ns3:TrackPointExtension>
        </extensions>
      </trkpt>
      <trkpt lat="42.543828450143337249755859375" lon="20.15327833592891693115234375">
        <ele>2035.199951171875</ele>
        <time>2026-06-20T08:15:14.000Z</time>
        <extensions>
          <ns3:TrackPointExtension>
            <ns3:atemp>21.0</ns3:atemp>
          </ns3:TrackPointExtension>
        </extensions>
      </trkpt>
      <trkpt lat="42.54383272491395473480224609375" lon="20.15332200564444065093994140625">
        <ele>2035.199951171875</ele>
        <time>2026-06-20T08:15:15.000Z</time>
        <extensions>
          <ns3:TrackPointExtension>
            <ns3:atemp>21.0</ns3:atemp>
          </ns3:TrackPointExtension>
        </extensions>
      </trkpt>
      <trkpt lat="42.54384462721645832061767578125" lon="20.1533683575689792633056640625">
        <ele>2035.199951171875</ele>
        <time>2026-06-20T08:15:16.000Z</time>
        <extensions>
          <ns3:TrackPointExtension>
            <ns3:atemp>21.0</ns3:atemp>
          </ns3:TrackPointExtension>
        </extensions>
      </trkpt>
      <trkpt lat="42.54386021755635738372802734375" lon="20.1534156315028667449951171875">
        <ele>2035</ele>
        <time>2026-06-20T08:15:17.000Z</time>
        <extensions>
          <ns3:TrackPointExtension>
            <ns3:atemp>21.0</ns3:atemp>
          </ns3:TrackPointExtension>
        </extensions>
      </trkpt>
      <trkpt lat="42.543876729905605316162109375" lon="20.15344672836363315582275390625">
        <ele>2035</ele>
        <time>2026-06-20T08:15:18.000Z</time>
        <extensions>
          <ns3:TrackPointExtension>
            <ns3:atemp>21.0</ns3:atemp>
          </ns3:TrackPointExtension>
        </extensions>
      </trkpt>
      <trkpt lat="42.5438893027603626251220703125" lon="20.1534776575863361358642578125">
        <ele>2034.800048828125</ele>
        <time>2026-06-20T08:15:19.000Z</time>
        <extensions>
          <ns3:TrackPointExtension>
            <ns3:atemp>21.0</ns3:atemp>
          </ns3:TrackPointExtension>
        </extensions>
      </trkpt>
      <trkpt lat="42.5439043901860713958740234375" lon="20.15351009555160999298095703125">
        <ele>2034.800048828125</ele>
        <time>2026-06-20T08:15:20.000Z</time>
        <extensions>
          <ns3:TrackPointExtension>
            <ns3:atemp>21.0</ns3:atemp>
          </ns3:TrackPointExtension>
        </extensions>
      </trkpt>
      <trkpt lat="42.54392065107822418212890625" lon="20.153541862964630126953125">
        <ele>2034.800048828125</ele>
        <time>2026-06-20T08:15:21.000Z</time>
        <extensions>
          <ns3:TrackPointExtension>
            <ns3:atemp>21.0</ns3:atemp>
          </ns3:TrackPointExtension>
        </extensions>
      </trkpt>
      <trkpt lat="42.54393548704683780670166015625" lon="20.15357530675828456878662109375">
        <ele>2035</ele>
        <time>2026-06-20T08:15:22.000Z</time>
        <extensions>
          <ns3:TrackPointExtension>
            <ns3:atemp>21.0</ns3:atemp>
          </ns3:TrackPointExtension>
        </extensions>
      </trkpt>
      <trkpt lat="42.54395124502480030059814453125" lon="20.153605230152606964111328125">
        <ele>2035</ele>
        <time>2026-06-20T08:15:23.000Z</time>
        <extensions>
          <ns3:TrackPointExtension>
            <ns3:atemp>21.0</ns3:atemp>
          </ns3:TrackPointExtension>
        </extensions>
      </trkpt>
      <trkpt lat="42.5439657457172870635986328125" lon="20.15363833867013454437255859375">
        <ele>2035.199951171875</ele>
        <time>2026-06-20T08:15:24.000Z</time>
        <extensions>
          <ns3:TrackPointExtension>
            <ns3:atemp>21.0</ns3:atemp>
          </ns3:TrackPointExtension>
        </extensions>
      </trkpt>
      <trkpt lat="42.54398058168590068817138671875" lon="20.153672285377979278564453125">
        <ele>2035.199951171875</ele>
        <time>2026-06-20T08:15:25.000Z</time>
        <extensions>
          <ns3:TrackPointExtension>
            <ns3:atemp>21.0</ns3:atemp>
          </ns3:TrackPointExtension>
        </extensions>
      </trkpt>
      <trkpt lat="42.54399172961711883544921875" lon="20.15370883047580718994140625">
        <ele>2035.199951171875</ele>
        <time>2026-06-20T08:15:26.000Z</time>
        <extensions>
          <ns3:TrackPointExtension>
            <ns3:atemp>21.0</ns3:atemp>
          </ns3:TrackPointExtension>
        </extensions>
      </trkpt>
      <trkpt lat="42.5440071523189544677734375" lon="20.1537445373833179473876953125">
        <ele>2035.199951171875</ele>
        <time>2026-06-20T08:15:27.000Z</time>
        <extensions>
          <ns3:TrackPointExtension>
            <ns3:atemp>21.0</ns3:atemp>
          </ns3:TrackPointExtension>
        </extensions>
      </trkpt>
      <trkpt lat="42.544022239744663238525390625" lon="20.153784938156604766845703125">
        <ele>2035</ele>
        <time>2026-06-20T08:15:28.000Z</time>
        <extensions>
          <ns3:TrackPointExtension>
            <ns3:atemp>21.0</ns3:atemp>
          </ns3:TrackPointExtension>
        </extensions>
      </trkpt>
      <trkpt lat="42.54404277540743350982666015625" lon="20.1538273505866527557373046875">
        <ele>2035</ele>
        <time>2026-06-20T08:15:29.000Z</time>
        <extensions>
          <ns3:TrackPointExtension>
            <ns3:atemp>21.0</ns3:atemp>
          </ns3:TrackPointExtension>
        </extensions>
      </trkpt>
      <trkpt lat="42.54406255669891834259033203125" lon="20.15387102030217647552490234375">
        <ele>2034.800048828125</ele>
        <time>2026-06-20T08:15:30.000Z</time>
        <extensions>
          <ns3:TrackPointExtension>
            <ns3:atemp>21.0</ns3:atemp>
          </ns3:TrackPointExtension>
        </extensions>
      </trkpt>
      <trkpt lat="42.5440767221152782440185546875" lon="20.15391536056995391845703125">
        <ele>2034.800048828125</ele>
        <time>2026-06-20T08:15:31.000Z</time>
        <extensions>
          <ns3:TrackPointExtension>
            <ns3:atemp>21.0</ns3:atemp>
          </ns3:TrackPointExtension>
        </extensions>
      </trkpt>
      <trkpt lat="42.544085942208766937255859375" lon="20.15395936556160449981689453125">
        <ele>2034.800048828125</ele>
        <time>2026-06-20T08:15:32.000Z</time>
        <extensions>
          <ns3:TrackPointExtension>
            <ns3:atemp>21.0</ns3:atemp>
          </ns3:TrackPointExtension>
        </extensions>
      </trkpt>
      <trkpt lat="42.54409172572195529937744140625" lon="20.15400211326777935028076171875">
        <ele>2034.800048828125</ele>
        <time>2026-06-20T08:15:33.000Z</time>
        <extensions>
          <ns3:TrackPointExtension>
            <ns3:atemp>21.0</ns3:atemp>
          </ns3:TrackPointExtension>
        </extensions>
      </trkpt>
      <trkpt lat="42.54409893415868282318115234375" lon="20.15404201112687587738037109375">
        <ele>2034.800048828125</ele>
        <time>2026-06-20T08:15:34.000Z</time>
        <extensions>
          <ns3:TrackPointExtension>
            <ns3:atemp>21.0</ns3:atemp>
          </ns3:TrackPointExtension>
        </extensions>
      </trkpt>
      <trkpt lat="42.54410932771861553192138671875" lon="20.1540781371295452117919921875">
        <ele>2034.800048828125</ele>
        <time>2026-06-20T08:15:35.000Z</time>
        <extensions>
          <ns3:TrackPointExtension>
            <ns3:atemp>21.0</ns3:atemp>
          </ns3:TrackPointExtension>
        </extensions>
      </trkpt>
      <trkpt lat="42.54412106238305568695068359375" lon="20.15411979518830776214599609375">
        <ele>2034.5999755859375</ele>
        <time>2026-06-20T08:15:36.000Z</time>
        <extensions>
          <ns3:TrackPointExtension>
            <ns3:atemp>21.0</ns3:atemp>
          </ns3:TrackPointExtension>
        </extensions>
      </trkpt>
      <trkpt lat="42.54413011483848094940185546875" lon="20.154163129627704620361328125">
        <ele>2034.5999755859375</ele>
        <time>2026-06-20T08:15:37.000Z</time>
        <extensions>
          <ns3:TrackPointExtension>
            <ns3:atemp>21.0</ns3:atemp>
          </ns3:TrackPointExtension>
        </extensions>
      </trkpt>
      <trkpt lat="42.54414184950292110443115234375" lon="20.15420260839164257049560546875">
        <ele>2034.4000244140625</ele>
        <time>2026-06-20T08:15:38.000Z</time>
        <extensions>
          <ns3:TrackPointExtension>
            <ns3:atemp>21.0</ns3:atemp>
          </ns3:TrackPointExtension>
        </extensions>
      </trkpt>
      <trkpt lat="42.5441474653780460357666015625" lon="20.15424661338329315185546875">
        <ele>2034.199951171875</ele>
        <time>2026-06-20T08:15:39.000Z</time>
        <extensions>
          <ns3:TrackPointExtension>
            <ns3:atemp>21.0</ns3:atemp>
          </ns3:TrackPointExtension>
        </extensions>
      </trkpt>
      <trkpt lat="42.5441654026508331298828125" lon="20.154287181794643402099609375">
        <ele>2034.199951171875</ele>
        <time>2026-06-20T08:15:40.000Z</time>
        <extensions>
          <ns3:TrackPointExtension>
            <ns3:atemp>21.0</ns3:atemp>
          </ns3:TrackPointExtension>
        </extensions>
      </trkpt>
      <trkpt lat="42.5441786460578441619873046875" lon="20.15433269552886486053466796875">
        <ele>2034</ele>
        <time>2026-06-20T08:15:41.000Z</time>
        <extensions>
          <ns3:TrackPointExtension>
            <ns3:atemp>21.0</ns3:atemp>
          </ns3:TrackPointExtension>
        </extensions>
      </trkpt>
      <trkpt lat="42.54419012926518917083740234375" lon="20.15438164584338665008544921875">
        <ele>2034</ele>
        <time>2026-06-20T08:15:42.000Z</time>
        <extensions>
          <ns3:TrackPointExtension>
            <ns3:atemp>21.0</ns3:atemp>
          </ns3:TrackPointExtension>
        </extensions>
      </trkpt>
      <trkpt lat="42.54420219920575618743896484375" lon="20.15443436801433563232421875">
        <ele>2034</ele>
        <time>2026-06-20T08:15:43.000Z</time>
        <extensions>
          <ns3:TrackPointExtension>
            <ns3:atemp>21.0</ns3:atemp>
          </ns3:TrackPointExtension>
        </extensions>
      </trkpt>
      <trkpt lat="42.5442074798047542572021484375" lon="20.1544844917953014373779296875">
        <ele>2033.800048828125</ele>
        <time>2026-06-20T08:15:44.000Z</time>
        <extensions>
          <ns3:TrackPointExtension>
            <ns3:atemp>21.0</ns3:atemp>
          </ns3:TrackPointExtension>
        </extensions>
      </trkpt>
      <trkpt lat="42.54421343095600605010986328125" lon="20.15452883206307888031005859375">
        <ele>2033.800048828125</ele>
        <time>2026-06-20T08:15:45.000Z</time>
        <extensions>
          <ns3:TrackPointExtension>
            <ns3:atemp>21.0</ns3:atemp>
          </ns3:TrackPointExtension>
        </extensions>
      </trkpt>
      <trkpt lat="42.54421376623213291168212890625" lon="20.15457543544471263885498046875">
        <ele>2033.800048828125</ele>
        <time>2026-06-20T08:15:46.000Z</time>
        <extensions>
          <ns3:TrackPointExtension>
            <ns3:atemp>21.0</ns3:atemp>
          </ns3:TrackPointExtension>
        </extensions>
      </trkpt>
      <trkpt lat="42.54421074874699115753173828125" lon="20.15462690033018589019775390625">
        <ele>2033.4000244140625</ele>
        <time>2026-06-20T08:15:47.000Z</time>
        <extensions>
          <ns3:TrackPointExtension>
            <ns3:atemp>21.0</ns3:atemp>
          </ns3:TrackPointExtension>
        </extensions>
      </trkpt>
      <trkpt lat="42.5442111678421497344970703125" lon="20.15468917787075042724609375">
        <ele>2033</ele>
        <time>2026-06-20T08:15:48.000Z</time>
        <extensions>
          <ns3:TrackPointExtension>
            <ns3:atemp>21.0</ns3:atemp>
          </ns3:TrackPointExtension>
        </extensions>
      </trkpt>
      <trkpt lat="42.5442138500511646270751953125" lon="20.15475765801966190338134765625">
        <ele>2032.5999755859375</ele>
        <time>2026-06-20T08:15:49.000Z</time>
        <extensions>
          <ns3:TrackPointExtension>
            <ns3:atemp>21.0</ns3:atemp>
          </ns3:TrackPointExtension>
        </extensions>
      </trkpt>
      <trkpt lat="42.54420873709022998809814453125" lon="20.1548274792730808258056640625">
        <ele>2031.800048828125</ele>
        <time>2026-06-20T08:15:50.000Z</time>
        <extensions>
          <ns3:TrackPointExtension>
            <ns3:atemp>21.0</ns3:atemp>
          </ns3:TrackPointExtension>
        </extensions>
      </trkpt>
      <trkpt lat="42.54419733770191669464111328125" lon="20.1548948697745800018310546875">
        <ele>2031</ele>
        <time>2026-06-20T08:15:51.000Z</time>
        <extensions>
          <ns3:TrackPointExtension>
            <ns3:atemp>21.0</ns3:atemp>
          </ns3:TrackPointExtension>
        </extensions>
      </trkpt>
      <trkpt lat="42.544193901121616363525390625" lon="20.1549585722386837005615234375">
        <ele>2030.4000244140625</ele>
        <time>2026-06-20T08:15:52.000Z</time>
        <extensions>
          <ns3:TrackPointExtension>
            <ns3:atemp>21.0</ns3:atemp>
          </ns3:TrackPointExtension>
        </extensions>
      </trkpt>
      <trkpt lat="42.54419163800776004791259765625" lon="20.15502587892115116119384765625">
        <ele>2029.800048828125</ele>
        <time>2026-06-20T08:15:53.000Z</time>
        <extensions>
          <ns3:TrackPointExtension>
            <ns3:atemp>21.0</ns3:atemp>
          </ns3:TrackPointExtension>
        </extensions>
      </trkpt>
      <trkpt lat="42.54418057389557361602783203125" lon="20.1550900004804134368896484375">
        <ele>2029.199951171875</ele>
        <time>2026-06-20T08:15:54.000Z</time>
        <extensions>
          <ns3:TrackPointExtension>
            <ns3:atemp>21.0</ns3:atemp>
          </ns3:TrackPointExtension>
        </extensions>
      </trkpt>
      <trkpt lat="42.5441672466695308685302734375" lon="20.15515378676354885101318359375">
        <ele>2028.4000244140625</ele>
        <time>2026-06-20T08:15:55.000Z</time>
        <extensions>
          <ns3:TrackPointExtension>
            <ns3:atemp>21.0</ns3:atemp>
          </ns3:TrackPointExtension>
        </extensions>
      </trkpt>
      <trkpt lat="42.54414889030158519744873046875" lon="20.155219919979572296142578125">
        <ele>2027.5999755859375</ele>
        <time>2026-06-20T08:15:56.000Z</time>
        <extensions>
          <ns3:TrackPointExtension>
            <ns3:atemp>21.0</ns3:atemp>
          </ns3:TrackPointExtension>
        </extensions>
      </trkpt>
      <trkpt lat="42.54412718117237091064453125" lon="20.1552784256637096405029296875">
        <ele>2026.800048828125</ele>
        <time>2026-06-20T08:15:57.000Z</time>
        <extensions>
          <ns3:TrackPointExtension>
            <ns3:atemp>21.0</ns3:atemp>
          </ns3:TrackPointExtension>
        </extensions>
      </trkpt>
      <trkpt lat="42.54410547204315662384033203125" lon="20.15533684752881526947021484375">
        <ele>2026.199951171875</ele>
        <time>2026-06-20T08:15:58.000Z</time>
        <extensions>
          <ns3:TrackPointExtension>
            <ns3:atemp>21.0</ns3:atemp>
          </ns3:TrackPointExtension>
        </extensions>
      </trkpt>
      <trkpt lat="42.544086612761020660400390625" lon="20.15539568848907947540283203125">
        <ele>2025.5999755859375</ele>
        <time>2026-06-20T08:15:59.000Z</time>
        <extensions>
          <ns3:TrackPointExtension>
            <ns3:atemp>21.0</ns3:atemp>
          </ns3:TrackPointExtension>
        </extensions>
      </trkpt>
      <trkpt lat="42.5440680049359798431396484375" lon="20.15544229187071323394775390625">
        <ele>2024.800048828125</ele>
        <time>2026-06-20T08:16:00.000Z</time>
        <extensions>
          <ns3:TrackPointExtension>
            <ns3:atemp>21.0</ns3:atemp>
          </ns3:TrackPointExtension>
        </extensions>
      </trkpt>
      <trkpt lat="42.54404805600643157958984375" lon="20.15549208037555217742919921875">
        <ele>2024.5999755859375</ele>
        <time>2026-06-20T08:16:01.000Z</time>
        <extensions>
          <ns3:TrackPointExtension>
            <ns3:atemp>21.0</ns3:atemp>
          </ns3:TrackPointExtension>
        </extensions>
      </trkpt>
      <trkpt lat="42.54402701742947101593017578125" lon="20.15554488636553287506103515625">
        <ele>2024.199951171875</ele>
        <time>2026-06-20T08:16:02.000Z</time>
        <extensions>
          <ns3:TrackPointExtension>
            <ns3:atemp>21.0</ns3:atemp>
          </ns3:TrackPointExtension>
        </extensions>
      </trkpt>
      <trkpt lat="42.5440046377480030059814453125" lon="20.1556019671261310577392578125">
        <ele>2023.800048828125</ele>
        <time>2026-06-20T08:16:03.000Z</time>
        <extensions>
          <ns3:TrackPointExtension>
            <ns3:atemp>21.0</ns3:atemp>
          </ns3:TrackPointExtension>
        </extensions>
      </trkpt>
      <trkpt lat="42.54397873766720294952392578125" lon="20.15565955080091953277587890625">
        <ele>2023.199951171875</ele>
        <time>2026-06-20T08:16:04.000Z</time>
        <extensions>
          <ns3:TrackPointExtension>
            <ns3:atemp>21.0</ns3:atemp>
          </ns3:TrackPointExtension>
        </extensions>
      </trkpt>
      <trkpt lat="42.5439543463289737701416015625" lon="20.15571319498121738433837890625">
        <ele>2023</ele>
        <time>2026-06-20T08:16:05.000Z</time>
        <extensions>
          <ns3:TrackPointExtension>
            <ns3:atemp>21.0</ns3:atemp>
          </ns3:TrackPointExtension>
        </extensions>
      </trkpt>
      <trkpt lat="42.54392802715301513671875" lon="20.15577035956084728240966796875">
        <ele>2022.800048828125</ele>
        <time>2026-06-20T08:16:06.000Z</time>
        <extensions>
          <ns3:TrackPointExtension>
            <ns3:atemp>21.0</ns3:atemp>
          </ns3:TrackPointExtension>
        </extensions>
      </trkpt>
      <trkpt lat="42.54390732385218143463134765625" lon="20.155830122530460357666015625">
        <ele>2022.4000244140625</ele>
        <time>2026-06-20T08:16:07.000Z</time>
        <extensions>
          <ns3:TrackPointExtension>
            <ns3:atemp>21.0</ns3:atemp>
          </ns3:TrackPointExtension>
        </extensions>
      </trkpt>
      <trkpt lat="42.5438891351222991943359375" lon="20.1558822579681873321533203125">
        <ele>2022.199951171875</ele>
        <time>2026-06-20T08:16:08.000Z</time>
        <extensions>
          <ns3:TrackPointExtension>
            <ns3:atemp>21.0</ns3:atemp>
          </ns3:TrackPointExtension>
        </extensions>
      </trkpt>
      <trkpt lat="42.543877065181732177734375" lon="20.15593531541526317596435546875">
        <ele>2021.800048828125</ele>
        <time>2026-06-20T08:16:09.000Z</time>
        <extensions>
          <ns3:TrackPointExtension>
            <ns3:atemp>21.0</ns3:atemp>
          </ns3:TrackPointExtension>
        </extensions>
      </trkpt>
      <trkpt lat="42.54386474378407001495361328125" lon="20.15599566511809825897216796875">
        <ele>2021.5999755859375</ele>
        <time>2026-06-20T08:16:10.000Z</time>
        <extensions>
          <ns3:TrackPointExtension>
            <ns3:atemp>21.0</ns3:atemp>
          </ns3:TrackPointExtension>
        </extensions>
      </trkpt>
      <trkpt lat="42.54384613595902919769287109375" lon="20.1560555957257747650146484375">
        <ele>2021.199951171875</ele>
        <time>2026-06-20T08:16:11.000Z</time>
        <extensions>
          <ns3:TrackPointExtension>
            <ns3:atemp>21.0</ns3:atemp>
          </ns3:TrackPointExtension>
        </extensions>
      </trkpt>
      <trkpt lat="42.54382367245852947235107421875" lon="20.15611066482961177825927734375">
        <ele>2020.800048828125</ele>
        <time>2026-06-20T08:16:12.000Z</time>
        <extensions>
          <ns3:TrackPointExtension>
            <ns3:atemp>21.0</ns3:atemp>
          </ns3:TrackPointExtension>
        </extensions>
      </trkpt>
      <trkpt lat="42.54380255006253719329833984375" lon="20.1561628840863704681396484375">
        <ele>2020.4000244140625</ele>
        <time>2026-06-20T08:16:13.000Z</time>
        <extensions>
          <ns3:TrackPointExtension>
            <ns3:atemp>21.0</ns3:atemp>
          </ns3:TrackPointExtension>
        </extensions>
      </trkpt>
      <trkpt lat="42.54377824254333972930908203125" lon="20.156215019524097442626953125">
        <ele>2020.199951171875</ele>
        <time>2026-06-20T08:16:14.000Z</time>
        <extensions>
          <ns3:TrackPointExtension>
            <ns3:atemp>21.0</ns3:atemp>
          </ns3:TrackPointExtension>
        </extensions>
      </trkpt>
      <trkpt lat="42.54375628195703029632568359375" lon="20.15627025626599788665771484375">
        <ele>2019.5999755859375</ele>
        <time>2026-06-20T08:16:15.000Z</time>
        <extensions>
          <ns3:TrackPointExtension>
            <ns3:atemp>21.0</ns3:atemp>
          </ns3:TrackPointExtension>
        </extensions>
      </trkpt>
      <trkpt lat="42.543738596141338348388671875" lon="20.1563261635601520538330078125">
        <ele>2019.199951171875</ele>
        <time>2026-06-20T08:16:16.000Z</time>
        <extensions>
          <ns3:TrackPointExtension>
            <ns3:atemp>21.0</ns3:atemp>
          </ns3:TrackPointExtension>
        </extensions>
      </trkpt>
      <trkpt lat="42.5437183119356632232666015625" lon="20.15637787990272045135498046875">
        <ele>2018.5999755859375</ele>
        <time>2026-06-20T08:16:17.000Z</time>
        <extensions>
          <ns3:TrackPointExtension>
            <ns3:atemp>21.0</ns3:atemp>
          </ns3:TrackPointExtension>
        </extensions>
      </trkpt>
      <trkpt lat="42.5436988659203052520751953125" lon="20.15642582438886165618896484375">
        <ele>2018</ele>
        <time>2026-06-20T08:16:18.000Z</time>
        <extensions>
          <ns3:TrackPointExtension>
            <ns3:atemp>21.0</ns3:atemp>
          </ns3:TrackPointExtension>
        </extensions>
      </trkpt>
      <trkpt lat="42.5436780788004398345947265625" lon="20.156473852694034576416015625">
        <ele>2017.5999755859375</ele>
        <time>2026-06-20T08:16:19.000Z</time>
        <extensions>
          <ns3:TrackPointExtension>
            <ns3:atemp>21.0</ns3:atemp>
          </ns3:TrackPointExtension>
        </extensions>
      </trkpt>
      <trkpt lat="42.5436532683670520782470703125" lon="20.1565172709524631500244140625">
        <ele>2017</ele>
        <time>2026-06-20T08:16:20.000Z</time>
        <extensions>
          <ns3:TrackPointExtension>
            <ns3:atemp>21.0</ns3:atemp>
          </ns3:TrackPointExtension>
        </extensions>
      </trkpt>
      <trkpt lat="42.54362518899142742156982421875" lon="20.1565554924309253692626953125">
        <ele>2016.5999755859375</ele>
        <time>2026-06-20T08:16:21.000Z</time>
        <extensions>
          <ns3:TrackPointExtension>
            <ns3:atemp>21.0</ns3:atemp>
          </ns3:TrackPointExtension>
        </extensions>
      </trkpt>
      <trkpt lat="42.54359610378742218017578125" lon="20.15659731812775135040283203125">
        <ele>2016</ele>
        <time>2026-06-20T08:16:22.000Z</time>
        <extensions>
          <ns3:TrackPointExtension>
            <ns3:atemp>21.0</ns3:atemp>
          </ns3:TrackPointExtension>
        </extensions>
      </trkpt>
      <trkpt lat="42.54356718622148036956787109375" lon="20.15664291568100452423095703125">
        <ele>2015.5999755859375</ele>
        <time>2026-06-20T08:16:23.000Z</time>
        <extensions>
          <ns3:TrackPointExtension>
            <ns3:atemp>21.0</ns3:atemp>
          </ns3:TrackPointExtension>
        </extensions>
      </trkpt>
      <trkpt lat="42.543538101017475128173828125" lon="20.15669086016714572906494140625">
        <ele>2015</ele>
        <time>2026-06-20T08:16:24.000Z</time>
        <extensions>
          <ns3:TrackPointExtension>
            <ns3:atemp>21.0</ns3:atemp>
          </ns3:TrackPointExtension>
        </extensions>
      </trkpt>
      <trkpt lat="42.54350918345153331756591796875" lon="20.1567345298826694488525390625">
        <ele>2014.4000244140625</ele>
        <time>2026-06-20T08:16:25.000Z</time>
        <extensions>
          <ns3:TrackPointExtension>
            <ns3:atemp>21.0</ns3:atemp>
          </ns3:TrackPointExtension>
        </extensions>
      </trkpt>
      <trkpt lat="42.5434841215610504150390625" lon="20.1567697338759899139404296875">
        <ele>2013.800048828125</ele>
        <time>2026-06-20T08:16:26.000Z</time>
        <extensions>
          <ns3:TrackPointExtension>
            <ns3:atemp>21.0</ns3:atemp>
          </ns3:TrackPointExtension>
        </extensions>
      </trkpt>
      <trkpt lat="42.543464340269565582275390625" lon="20.15679697506129741668701171875">
        <ele>2013.4000244140625</ele>
        <time>2026-06-20T08:16:27.000Z</time>
        <extensions>
          <ns3:TrackPointExtension>
            <ns3:atemp>21.0</ns3:atemp>
          </ns3:TrackPointExtension>
        </extensions>
      </trkpt>
      <trkpt lat="42.543454281985759735107421875" lon="20.15681172721087932586669921875">
        <ele>2013</ele>
        <time>2026-06-20T08:16:28.000Z</time>
        <extensions>
          <ns3:TrackPointExtension>
            <ns3:atemp>21.0</ns3:atemp>
          </ns3:TrackPointExtension>
        </extensions>
      </trkpt>
      <trkpt lat="42.54344531334936618804931640625" lon="20.15682748518884181976318359375">
        <ele>2012.800048828125</ele>
        <time>2026-06-20T08:16:29.000Z</time>
        <extensions>
          <ns3:TrackPointExtension>
            <ns3:atemp>21.0</ns3:atemp>
          </ns3:TrackPointExtension>
        </extensions>
      </trkpt>
      <trkpt lat="42.54344129003584384918212890625" lon="20.15682513825595378875732421875">
        <ele>2012.5999755859375</ele>
        <time>2026-06-20T08:16:30.000Z</time>
        <extensions>
          <ns3:TrackPointExtension>
            <ns3:atemp>21.0</ns3:atemp>
          </ns3:TrackPointExtension>
        </extensions>
      </trkpt>
      <trkpt lat="42.5434396974742412567138671875" lon="20.15682044439017772674560546875">
        <ele>2012.4000244140625</ele>
        <time>2026-06-20T08:16:31.000Z</time>
        <extensions>
          <ns3:TrackPointExtension>
            <ns3:atemp>21.0</ns3:atemp>
          </ns3:TrackPointExtension>
        </extensions>
      </trkpt>
      <trkpt lat="42.5434396974742412567138671875" lon="20.156820528209209442138671875">
        <ele>2012.199951171875</ele>
        <time>2026-06-20T08:16:32.000Z</time>
        <extensions>
          <ns3:TrackPointExtension>
            <ns3:atemp>21.0</ns3:atemp>
          </ns3:TrackPointExtension>
        </extensions>
      </trkpt>
      <trkpt lat="42.5434396974742412567138671875" lon="20.156820528209209442138671875">
        <ele>2012.199951171875</ele>
        <time>2026-06-20T08:16:33.000Z</time>
        <extensions>
          <ns3:TrackPointExtension>
            <ns3:atemp>21.0</ns3:atemp>
          </ns3:TrackPointExtension>
        </extensions>
      </trkpt>
      <trkpt lat="42.5434396974742412567138671875" lon="20.156820528209209442138671875">
        <ele>2012</ele>
        <time>2026-06-20T08:16:34.000Z</time>
        <extensions>
          <ns3:TrackPointExtension>
            <ns3:atemp>21.0</ns3:atemp>
          </ns3:TrackPointExtension>
        </extensions>
      </trkpt>
      <trkpt lat="42.5434396974742412567138671875" lon="20.156820528209209442138671875">
        <ele>2012</ele>
        <time>2026-06-20T08:16:35.000Z</time>
        <extensions>
          <ns3:TrackPointExtension>
            <ns3:atemp>21.0</ns3:atemp>
          </ns3:TrackPointExtension>
        </extensions>
      </trkpt>
      <trkpt lat="42.5434396974742412567138671875" lon="20.156820528209209442138671875">
        <ele>2011.800048828125</ele>
        <time>2026-06-20T08:16:36.000Z</time>
        <extensions>
          <ns3:TrackPointExtension>
            <ns3:atemp>21.0</ns3:atemp>
          </ns3:TrackPointExtension>
        </extensions>
      </trkpt>
      <trkpt lat="42.5434396974742412567138671875" lon="20.156820528209209442138671875">
        <ele>2011.800048828125</ele>
        <time>2026-06-20T08:16:37.000Z</time>
        <extensions>
          <ns3:TrackPointExtension>
            <ns3:atemp>21.0</ns3:atemp>
          </ns3:TrackPointExtension>
        </extensions>
      </trkpt>
      <trkpt lat="42.5434396974742412567138671875" lon="20.156820528209209442138671875">
        <ele>2011.5999755859375</ele>
        <time>2026-06-20T08:16:38.000Z</time>
        <extensions>
          <ns3:TrackPointExtension>
            <ns3:atemp>21.0</ns3:atemp>
          </ns3:TrackPointExtension>
        </extensions>
      </trkpt>
      <trkpt lat="42.5434396974742412567138671875" lon="20.156820528209209442138671875">
        <ele>2011.5999755859375</ele>
        <time>2026-06-20T08:16:39.000Z</time>
        <extensions>
          <ns3:TrackPointExtension>
            <ns3:atemp>21.0</ns3:atemp>
          </ns3:TrackPointExtension>
        </extensions>
      </trkpt>
      <trkpt lat="42.5434396974742412567138671875" lon="20.156820528209209442138671875">
        <ele>2011.4000244140625</ele>
        <time>2026-06-20T08:16:40.000Z</time>
        <extensions>
          <ns3:TrackPointExtension>
            <ns3:atemp>21.0</ns3:atemp>
          </ns3:TrackPointExtension>
        </extensions>
      </trkpt>
      <trkpt lat="42.5434396974742412567138671875" lon="20.156820528209209442138671875">
        <ele>2011.4000244140625</ele>
        <time>2026-06-20T08:16:41.000Z</time>
        <extensions>
          <ns3:TrackPointExtension>
            <ns3:atemp>21.0</ns3:atemp>
          </ns3:TrackPointExtension>
        </extensions>
      </trkpt>
      <trkpt lat="42.5434396974742412567138671875" lon="20.156820528209209442138671875">
        <ele>2011.4000244140625</ele>
        <time>2026-06-20T08:16:42.000Z</time>
        <extensions>
          <ns3:TrackPointExtension>
            <ns3:atemp>21.0</ns3:atemp>
          </ns3:TrackPointExtension>
        </extensions>
      </trkpt>
      <trkpt lat="42.5434396974742412567138671875" lon="20.156820528209209442138671875">
        <ele>2011.4000244140625</ele>
        <time>2026-06-20T08:16:43.000Z</time>
        <extensions>
          <ns3:TrackPointExtension>
            <ns3:atemp>21.0</ns3:atemp>
          </ns3:TrackPointExtension>
        </extensions>
      </trkpt>
      <trkpt lat="42.5434396974742412567138671875" lon="20.156820528209209442138671875">
        <ele>2011.4000244140625</ele>
        <time>2026-06-20T08:16:44.000Z</time>
        <extensions>
          <ns3:TrackPointExtension>
            <ns3:atemp>21.0</ns3:atemp>
          </ns3:TrackPointExtension>
        </extensions>
      </trkpt>
      <trkpt lat="42.5434396974742412567138671875" lon="20.156820528209209442138671875">
        <ele>2011.4000244140625</ele>
        <time>2026-06-20T08:16:45.000Z</time>
        <extensions>
          <ns3:TrackPointExtension>
            <ns3:atemp>21.0</ns3:atemp>
          </ns3:TrackPointExtension>
        </extensions>
      </trkpt>
      <trkpt lat="42.5434396974742412567138671875" lon="20.156820528209209442138671875">
        <ele>2011.4000244140625</ele>
        <time>2026-06-20T08:16:46.000Z</time>
        <extensions>
          <ns3:TrackPointExtension>
            <ns3:atemp>21.0</ns3:atemp>
          </ns3:TrackPointExtension>
        </extensions>
      </trkpt>
      <trkpt lat="42.5434396974742412567138671875" lon="20.156820528209209442138671875">
        <ele>2011.4000244140625</ele>
        <time>2026-06-20T08:16:47.000Z</time>
        <extensions>
          <ns3:TrackPointExtension>
            <ns3:atemp>21.0</ns3:atemp>
          </ns3:TrackPointExtension>
        </extensions>
      </trkpt>
      <trkpt lat="42.5434396974742412567138671875" lon="20.156820528209209442138671875">
        <ele>2011.4000244140625</ele>
        <time>2026-06-20T08:16:48.000Z</time>
        <extensions>
          <ns3:TrackPointExtension>
            <ns3:atemp>21.0</ns3:atemp>
          </ns3:TrackPointExtension>
        </extensions>
      </trkpt>
      <trkpt lat="42.5434396974742412567138671875" lon="20.156820528209209442138671875">
        <ele>2011.4000244140625</ele>
        <time>2026-06-20T08:16:49.000Z</time>
        <extensions>
          <ns3:TrackPointExtension>
            <ns3:atemp>21.0</ns3:atemp>
          </ns3:TrackPointExtension>
        </extensions>
      </trkpt>
      <trkpt lat="42.5434396974742412567138671875" lon="20.156820528209209442138671875">
        <ele>2011.199951171875</ele>
        <time>2026-06-20T08:16:50.000Z</time>
        <extensions>
          <ns3:TrackPointExtension>
            <ns3:atemp>21.0</ns3:atemp>
          </ns3:TrackPointExtension>
        </extensions>
      </trkpt>
      <trkpt lat="42.5434396974742412567138671875" lon="20.156820528209209442138671875">
        <ele>2011.199951171875</ele>
        <time>2026-06-20T08:16:51.000Z</time>
        <extensions>
          <ns3:TrackPointExtension>
            <ns3:atemp>21.0</ns3:atemp>
          </ns3:TrackPointExtension>
        </extensions>
      </trkpt>
      <trkpt lat="42.5434396974742412567138671875" lon="20.156820528209209442138671875">
        <ele>2011.199951171875</ele>
        <time>2026-06-20T08:16:52.000Z</time>
        <extensions>
          <ns3:TrackPointExtension>
            <ns3:atemp>21.0</ns3:atemp>
          </ns3:TrackPointExtension>
        </extensions>
      </trkpt>
      <trkpt lat="42.5434396974742412567138671875" lon="20.156820528209209442138671875">
        <ele>2011.199951171875</ele>
        <time>2026-06-20T08:16:53.000Z</time>
        <extensions>
          <ns3:TrackPointExtension>
            <ns3:atemp>21.0</ns3:atemp>
          </ns3:TrackPointExtension>
        </extensions>
      </trkpt>
      <trkpt lat="42.5434396974742412567138671875" lon="20.156820528209209442138671875">
        <ele>2011</ele>
        <time>2026-06-20T08:16:54.000Z</time>
        <extensions>
          <ns3:TrackPointExtension>
            <ns3:atemp>21.0</ns3:atemp>
          </ns3:TrackPointExtension>
        </extensions>
      </trkpt>
      <trkpt lat="42.5434396974742412567138671875" lon="20.156820528209209442138671875">
        <ele>2011</ele>
        <time>2026-06-20T08:16:55.000Z</time>
        <extensions>
          <ns3:TrackPointExtension>
            <ns3:atemp>21.0</ns3:atemp>
          </ns3:TrackPointExtension>
        </extensions>
      </trkpt>
      <trkpt lat="42.5434396974742412567138671875" lon="20.156820528209209442138671875">
        <ele>2011</ele>
        <time>2026-06-20T08:16:56.000Z</time>
        <extensions>
          <ns3:TrackPointExtension>
            <ns3:atemp>21.0</ns3:atemp>
          </ns3:TrackPointExtension>
        </extensions>
      </trkpt>
      <trkpt lat="42.5434396974742412567138671875" lon="20.156820528209209442138671875">
        <ele>2011</ele>
        <time>2026-06-20T08:16:57.000Z</time>
        <extensions>
          <ns3:TrackPointExtension>
            <ns3:atemp>21.0</ns3:atemp>
          </ns3:TrackPointExtension>
        </extensions>
      </trkpt>
      <trkpt lat="42.5434396974742412567138671875" lon="20.156820528209209442138671875">
        <ele>2011</ele>
        <time>2026-06-20T08:16:58.000Z</time>
        <extensions>
          <ns3:TrackPointExtension>
            <ns3:atemp>21.0</ns3:atemp>
          </ns3:TrackPointExtension>
        </extensions>
      </trkpt>
      <trkpt lat="42.5434396974742412567138671875" lon="20.156820528209209442138671875">
        <ele>2011</ele>
        <time>2026-06-20T08:16:59.000Z</time>
        <extensions>
          <ns3:TrackPointExtension>
            <ns3:atemp>21.0</ns3:atemp>
          </ns3:TrackPointExtension>
        </extensions>
      </trkpt>
      <trkpt lat="42.5434396974742412567138671875" lon="20.156820528209209442138671875">
        <ele>2011</ele>
        <time>2026-06-20T08:17:00.000Z</time>
        <extensions>
          <ns3:TrackPointExtension>
            <ns3:atemp>21.0</ns3:atemp>
          </ns3:TrackPointExtension>
        </extensions>
      </trkpt>
      <trkpt lat="42.5434396974742412567138671875" lon="20.156820528209209442138671875">
        <ele>2011</ele>
        <time>2026-06-20T08:17:01.000Z</time>
        <extensions>
          <ns3:TrackPointExtension>
            <ns3:atemp>21.0</ns3:atemp>
          </ns3:TrackPointExtension>
        </extensions>
      </trkpt>
      <trkpt lat="42.5434396974742412567138671875" lon="20.156820528209209442138671875">
        <ele>2011</ele>
        <time>2026-06-20T08:17:02.000Z</time>
        <extensions>
          <ns3:TrackPointExtension>
            <ns3:atemp>21.0</ns3:atemp>
          </ns3:TrackPointExtension>
        </extensions>
      </trkpt>
      <trkpt lat="42.5434396974742412567138671875" lon="20.156820528209209442138671875">
        <ele>2010.800048828125</ele>
        <time>2026-06-20T08:17:03.000Z</time>
        <extensions>
          <ns3:TrackPointExtension>
            <ns3:atemp>21.0</ns3:atemp>
          </ns3:TrackPointExtension>
        </extensions>
      </trkpt>
      <trkpt lat="42.5434396974742412567138671875" lon="20.156820528209209442138671875">
        <ele>2010.800048828125</ele>
        <time>2026-06-20T08:17:04.000Z</time>
        <extensions>
          <ns3:TrackPointExtension>
            <ns3:atemp>21.0</ns3:atemp>
          </ns3:TrackPointExtension>
        </extensions>
      </trkpt>
      <trkpt lat="42.5434396974742412567138671875" lon="20.156820528209209442138671875">
        <ele>2010.800048828125</ele>
        <time>2026-06-20T08:17:05.000Z</time>
        <extensions>
          <ns3:TrackPointExtension>
            <ns3:atemp>21.0</ns3:atemp>
          </ns3:TrackPointExtension>
        </extensions>
      </trkpt>
      <trkpt lat="42.5434396974742412567138671875" lon="20.156820528209209442138671875">
        <ele>2010.800048828125</ele>
        <time>2026-06-20T08:17:06.000Z</time>
        <extensions>
          <ns3:TrackPointExtension>
            <ns3:atemp>21.0</ns3:atemp>
          </ns3:TrackPointExtension>
        </extensions>
      </trkpt>
      <trkpt lat="42.5434396974742412567138671875" lon="20.156820528209209442138671875">
        <ele>2010.5999755859375</ele>
        <time>2026-06-20T08:17:07.000Z</time>
        <extensions>
          <ns3:TrackPointExtension>
            <ns3:atemp>21.0</ns3:atemp>
          </ns3:TrackPointExtension>
        </extensions>
      </trkpt>
      <trkpt lat="42.5434396974742412567138671875" lon="20.156820528209209442138671875">
        <ele>2010.5999755859375</ele>
        <time>2026-06-20T08:17:08.000Z</time>
        <extensions>
          <ns3:TrackPointExtension>
            <ns3:atemp>21.0</ns3:atemp>
          </ns3:TrackPointExtension>
        </extensions>
      </trkpt>
      <trkpt lat="42.5434396974742412567138671875" lon="20.156820528209209442138671875">
        <ele>2010.5999755859375</ele>
        <time>2026-06-20T08:17:09.000Z</time>
        <extensions>
          <ns3:TrackPointExtension>
            <ns3:atemp>21.0</ns3:atemp>
          </ns3:TrackPointExtension>
        </extensions>
      </trkpt>
      <trkpt lat="42.5434396974742412567138671875" lon="20.156820528209209442138671875">
        <ele>2010.5999755859375</ele>
        <time>2026-06-20T08:17:10.000Z</time>
        <extensions>
          <ns3:TrackPointExtension>
            <ns3:atemp>21.0</ns3:atemp>
          </ns3:TrackPointExtension>
        </extensions>
      </trkpt>
      <trkpt lat="42.5434396974742412567138671875" lon="20.156820528209209442138671875">
        <ele>2010.5999755859375</ele>
        <time>2026-06-20T08:17:11.000Z</time>
        <extensions>
          <ns3:TrackPointExtension>
            <ns3:atemp>21.0</ns3:atemp>
          </ns3:TrackPointExtension>
        </extensions>
      </trkpt>
      <trkpt lat="42.5434396974742412567138671875" lon="20.156820528209209442138671875">
        <ele>2010.5999755859375</ele>
        <time>2026-06-20T08:17:12.000Z</time>
        <extensions>
          <ns3:TrackPointExtension>
            <ns3:atemp>21.0</ns3:atemp>
          </ns3:TrackPointExtension>
        </extensions>
      </trkpt>
      <trkpt lat="42.5434396974742412567138671875" lon="20.156820528209209442138671875">
        <ele>2010.5999755859375</ele>
        <time>2026-06-20T08:17:13.000Z</time>
        <extensions>
          <ns3:TrackPointExtension>
            <ns3:atemp>21.0</ns3:atemp>
          </ns3:TrackPointExtension>
        </extensions>
      </trkpt>
      <trkpt lat="42.5434396974742412567138671875" lon="20.156820528209209442138671875">
        <ele>2010.5999755859375</ele>
        <time>2026-06-20T08:17:14.000Z</time>
        <extensions>
          <ns3:TrackPointExtension>
            <ns3:atemp>21.0</ns3:atemp>
          </ns3:TrackPointExtension>
        </extensions>
      </trkpt>
      <trkpt lat="42.5434396974742412567138671875" lon="20.156820528209209442138671875">
        <ele>2010.5999755859375</ele>
        <time>2026-06-20T08:17:15.000Z</time>
        <extensions>
          <ns3:TrackPointExtension>
            <ns3:atemp>21.0</ns3:atemp>
          </ns3:TrackPointExtension>
        </extensions>
      </trkpt>
      <trkpt lat="42.5434396974742412567138671875" lon="20.156820528209209442138671875">
        <ele>2010.5999755859375</ele>
        <time>2026-06-20T08:17:16.000Z</time>
        <extensions>
          <ns3:TrackPointExtension>
            <ns3:atemp>21.0</ns3:atemp>
          </ns3:TrackPointExtension>
        </extensions>
      </trkpt>
      <trkpt lat="42.5434396974742412567138671875" lon="20.156820528209209442138671875">
        <ele>2010.5999755859375</ele>
        <time>2026-06-20T08:17:17.000Z</time>
        <extensions>
          <ns3:TrackPointExtension>
            <ns3:atemp>21.0</ns3:atemp>
          </ns3:TrackPointExtension>
        </extensions>
      </trkpt>
      <trkpt lat="42.5434396974742412567138671875" lon="20.156820528209209442138671875">
        <ele>2010.5999755859375</ele>
        <time>2026-06-20T08:17:18.000Z</time>
        <extensions>
          <ns3:TrackPointExtension>
            <ns3:atemp>21.0</ns3:atemp>
          </ns3:TrackPointExtension>
        </extensions>
      </trkpt>
      <trkpt lat="42.5434396974742412567138671875" lon="20.156820528209209442138671875">
        <ele>2010.5999755859375</ele>
        <time>2026-06-20T08:17:19.000Z</time>
        <extensions>
          <ns3:TrackPointExtension>
            <ns3:atemp>21.0</ns3:atemp>
          </ns3:TrackPointExtension>
        </extensions>
      </trkpt>
      <trkpt lat="42.5434396974742412567138671875" lon="20.156820528209209442138671875">
        <ele>2010.5999755859375</ele>
        <time>2026-06-20T08:17:20.000Z</time>
        <extensions>
          <ns3:TrackPointExtension>
            <ns3:atemp>21.0</ns3:atemp>
          </ns3:TrackPointExtension>
        </extensions>
      </trkpt>
      <trkpt lat="42.5434396974742412567138671875" lon="20.156820528209209442138671875">
        <ele>2010.5999755859375</ele>
        <time>2026-06-20T08:17:21.000Z</time>
        <extensions>
          <ns3:TrackPointExtension>
            <ns3:atemp>21.0</ns3:atemp>
          </ns3:TrackPointExtension>
        </extensions>
      </trkpt>
      <trkpt lat="42.5434396974742412567138671875" lon="20.156820528209209442138671875">
        <ele>2010.5999755859375</ele>
        <time>2026-06-20T08:17:22.000Z</time>
        <extensions>
          <ns3:TrackPointExtension>
            <ns3:atemp>21.0</ns3:atemp>
          </ns3:TrackPointExtension>
        </extensions>
      </trkpt>
      <trkpt lat="42.5434396974742412567138671875" lon="20.156820528209209442138671875">
        <ele>2010.5999755859375</ele>
        <time>2026-06-20T08:17:23.000Z</time>
        <extensions>
          <ns3:TrackPointExtension>
            <ns3:atemp>21.0</ns3:atemp>
          </ns3:TrackPointExtension>
        </extensions>
      </trkpt>
      <trkpt lat="42.5434396974742412567138671875" lon="20.156820528209209442138671875">
        <ele>2010.5999755859375</ele>
        <time>2026-06-20T08:17:24.000Z</time>
        <extensions>
          <ns3:TrackPointExtension>
            <ns3:atemp>21.0</ns3:atemp>
          </ns3:TrackPointExtension>
        </extensions>
      </trkpt>
      <trkpt lat="42.5434376858174800872802734375" lon="20.15681943856179714202880859375">
        <ele>2010.4000244140625</ele>
        <time>2026-06-20T08:17:25.000Z</time>
        <extensions>
          <ns3:TrackPointExtension>
            <ns3:atemp>21.0</ns3:atemp>
          </ns3:TrackPointExtension>
        </extensions>
      </trkpt>
      <trkpt lat="42.54341639578342437744140625" lon="20.15683502890169620513916015625">
        <ele>2010.199951171875</ele>
        <time>2026-06-20T08:17:26.000Z</time>
        <extensions>
          <ns3:TrackPointExtension>
            <ns3:atemp>21.0</ns3:atemp>
          </ns3:TrackPointExtension>
        </extensions>
      </trkpt>
      <trkpt lat="42.54339627921581268310546875" lon="20.15685196034610271453857421875">
        <ele>2010</ele>
        <time>2026-06-20T08:17:27.000Z</time>
        <extensions>
          <ns3:TrackPointExtension>
            <ns3:atemp>21.0</ns3:atemp>
          </ns3:TrackPointExtension>
        </extensions>
      </trkpt>
      <trkpt lat="42.5433756597340106964111328125" lon="20.1568689756095409393310546875">
        <ele>2009.800048828125</ele>
        <time>2026-06-20T08:17:28.000Z</time>
        <extensions>
          <ns3:TrackPointExtension>
            <ns3:atemp>21.0</ns3:atemp>
          </ns3:TrackPointExtension>
        </extensions>
      </trkpt>
      <trkpt lat="42.5433552078902721405029296875" lon="20.1568852365016937255859375">
        <ele>2009.5999755859375</ele>
        <time>2026-06-20T08:17:29.000Z</time>
        <extensions>
          <ns3:TrackPointExtension>
            <ns3:atemp>21.0</ns3:atemp>
          </ns3:TrackPointExtension>
        </extensions>
      </trkpt>
      <trkpt lat="42.543334253132343292236328125" lon="20.1568971388041973114013671875">
        <ele>2009.199951171875</ele>
        <time>2026-06-20T08:17:30.000Z</time>
        <extensions>
          <ns3:TrackPointExtension>
            <ns3:atemp>21.0</ns3:atemp>
          </ns3:TrackPointExtension>
        </extensions>
      </trkpt>
      <trkpt lat="42.5433096103370189666748046875" lon="20.156907700002193450927734375">
        <ele>2009</ele>
        <time>2026-06-20T08:17:31.000Z</time>
        <extensions>
          <ns3:TrackPointExtension>
            <ns3:atemp>21.0</ns3:atemp>
          </ns3:TrackPointExtension>
        </extensions>
      </trkpt>
      <trkpt lat="42.54328689537942409515380859375" lon="20.156921446323394775390625">
        <ele>2008.5999755859375</ele>
        <time>2026-06-20T08:17:32.000Z</time>
        <extensions>
          <ns3:TrackPointExtension>
            <ns3:atemp>21.0</ns3:atemp>
          </ns3:TrackPointExtension>
        </extensions>
      </trkpt>
      <trkpt lat="42.543260492384433746337890625" lon="20.15693091787397861480712890625">
        <ele>2008.199951171875</ele>
        <time>2026-06-20T08:17:33.000Z</time>
        <extensions>
          <ns3:TrackPointExtension>
            <ns3:atemp>21.0</ns3:atemp>
          </ns3:TrackPointExtension>
        </extensions>
      </trkpt>
      <trkpt lat="42.543226294219493865966796875" lon="20.15693561173975467681884765625">
        <ele>2007.5999755859375</ele>
        <time>2026-06-20T08:17:34.000Z</time>
        <extensions>
          <ns3:TrackPointExtension>
            <ns3:atemp>21.0</ns3:atemp>
          </ns3:TrackPointExtension>
        </extensions>
      </trkpt>
      <trkpt lat="42.54318698309361934661865234375" lon="20.15693913213908672332763671875">
        <ele>2006.800048828125</ele>
        <time>2026-06-20T08:17:35.000Z</time>
        <extensions>
          <ns3:TrackPointExtension>
            <ns3:atemp>21.0</ns3:atemp>
          </ns3:TrackPointExtension>
        </extensions>
      </trkpt>
      <trkpt lat="42.5431429781019687652587890625" lon="20.15693896450102329254150390625">
        <ele>2006</ele>
        <time>2026-06-20T08:17:36.000Z</time>
        <extensions>
          <ns3:TrackPointExtension>
            <ns3:atemp>21.0</ns3:atemp>
          </ns3:TrackPointExtension>
        </extensions>
      </trkpt>
      <trkpt lat="42.54310299642384052276611328125" lon="20.15694198198616504669189453125">
        <ele>2005</ele>
        <time>2026-06-20T08:17:37.000Z</time>
        <extensions>
          <ns3:TrackPointExtension>
            <ns3:atemp>21.0</ns3:atemp>
          </ns3:TrackPointExtension>
        </extensions>
      </trkpt>
      <trkpt lat="42.54306108690798282623291015625" lon="20.15695438720285892486572265625">
        <ele>2004</ele>
        <time>2026-06-20T08:17:38.000Z</time>
        <extensions>
          <ns3:TrackPointExtension>
            <ns3:atemp>21.0</ns3:atemp>
          </ns3:TrackPointExtension>
        </extensions>
      </trkpt>
      <trkpt lat="42.543018758296966552734375" lon="20.156969390809535980224609375">
        <ele>2003.4000244140625</ele>
        <time>2026-06-20T08:17:39.000Z</time>
        <extensions>
          <ns3:TrackPointExtension>
            <ns3:atemp>21.0</ns3:atemp>
          </ns3:TrackPointExtension>
        </extensions>
      </trkpt>
      <trkpt lat="42.542976178228855133056640625" lon="20.15698322094976902008056640625">
        <ele>2002.4000244140625</ele>
        <time>2026-06-20T08:17:40.000Z</time>
        <extensions>
          <ns3:TrackPointExtension>
            <ns3:atemp>21.0</ns3:atemp>
          </ns3:TrackPointExtension>
        </extensions>
      </trkpt>
      <trkpt lat="42.54293569363653659820556640625" lon="20.15699730254709720611572265625">
        <ele>2001.5999755859375</ele>
        <time>2026-06-20T08:17:41.000Z</time>
        <extensions>
          <ns3:TrackPointExtension>
            <ns3:atemp>21.0</ns3:atemp>
          </ns3:TrackPointExtension>
        </extensions>
      </trkpt>
      <trkpt lat="42.54289470613002777099609375" lon="20.15701255761086940765380859375">
        <ele>2001</ele>
        <time>2026-06-20T08:17:42.000Z</time>
        <extensions>
          <ns3:TrackPointExtension>
            <ns3:atemp>21.0</ns3:atemp>
          </ns3:TrackPointExtension>
        </extensions>
      </trkpt>
      <trkpt lat="42.54285288043320178985595703125" lon="20.15702940523624420166015625">
        <ele>2000.5999755859375</ele>
        <time>2026-06-20T08:17:43.000Z</time>
        <extensions>
          <ns3:TrackPointExtension>
            <ns3:atemp>21.0</ns3:atemp>
          </ns3:TrackPointExtension>
        </extensions>
      </trkpt>
      <trkpt lat="42.5428108870983123779296875" lon="20.157051198184490203857421875">
        <ele>2000</ele>
        <time>2026-06-20T08:17:44.000Z</time>
        <extensions>
          <ns3:TrackPointExtension>
            <ns3:atemp>21.0</ns3:atemp>
          </ns3:TrackPointExtension>
        </extensions>
      </trkpt>
      <trkpt lat="42.54276721738278865814208984375" lon="20.15707240439951419830322265625">
        <ele>1999</ele>
        <time>2026-06-20T08:17:45.000Z</time>
        <extensions>
          <ns3:TrackPointExtension>
            <ns3:atemp>21.0</ns3:atemp>
          </ns3:TrackPointExtension>
        </extensions>
      </trkpt>
      <trkpt lat="42.5427212007343769073486328125" lon="20.1570936106145381927490234375">
        <ele>1998</ele>
        <time>2026-06-20T08:17:46.000Z</time>
        <extensions>
          <ns3:TrackPointExtension>
            <ns3:atemp>21.0</ns3:atemp>
          </ns3:TrackPointExtension>
        </extensions>
      </trkpt>
      <trkpt lat="42.54267275333404541015625" lon="20.15711263753473758697509765625">
        <ele>1997.4000244140625</ele>
        <time>2026-06-20T08:17:47.000Z</time>
        <extensions>
          <ns3:TrackPointExtension>
            <ns3:atemp>21.0</ns3:atemp>
          </ns3:TrackPointExtension>
        </extensions>
      </trkpt>
      <trkpt lat="42.542624138295650482177734375" lon="20.15713929198682308197021484375">
        <ele>1996.5999755859375</ele>
        <time>2026-06-20T08:17:48.000Z</time>
        <extensions>
          <ns3:TrackPointExtension>
            <ns3:atemp>21.0</ns3:atemp>
          </ns3:TrackPointExtension>
        </extensions>
      </trkpt>
      <trkpt lat="42.542578540742397308349609375" lon="20.15717424452304840087890625">
        <ele>1995.800048828125</ele>
        <time>2026-06-20T08:17:49.000Z</time>
        <extensions>
          <ns3:TrackPointExtension>
            <ns3:atemp>21.0</ns3:atemp>
          </ns3:TrackPointExtension>
        </extensions>
      </trkpt>
      <trkpt lat="42.54253218881785869598388671875" lon="20.157213471829891204833984375">
        <ele>1995.199951171875</ele>
        <time>2026-06-20T08:17:50.000Z</time>
        <extensions>
          <ns3:TrackPointExtension>
            <ns3:atemp>21.0</ns3:atemp>
          </ns3:TrackPointExtension>
        </extensions>
      </trkpt>
      <trkpt lat="42.542482651770114898681640625" lon="20.157254040241241455078125">
        <ele>1994.4000244140625</ele>
        <time>2026-06-20T08:17:51.000Z</time>
        <extensions>
          <ns3:TrackPointExtension>
            <ns3:atemp>21.0</ns3:atemp>
          </ns3:TrackPointExtension>
        </extensions>
      </trkpt>
      <trkpt lat="42.5424238108098506927490234375" lon="20.15729636885225772857666015625">
        <ele>1993.4000244140625</ele>
        <time>2026-06-20T08:17:52.000Z</time>
        <extensions>
          <ns3:TrackPointExtension>
            <ns3:atemp>21.0</ns3:atemp>
          </ns3:TrackPointExtension>
        </extensions>
      </trkpt>
      <trkpt lat="42.5423698313534259796142578125" lon="20.157346911728382110595703125">
        <ele>1992.5999755859375</ele>
        <time>2026-06-20T08:17:53.000Z</time>
        <extensions>
          <ns3:TrackPointExtension>
            <ns3:atemp>21.0</ns3:atemp>
          </ns3:TrackPointExtension>
        </extensions>
      </trkpt>
      <trkpt lat="42.54230956546962261199951171875" lon="20.15738521702587604522705078125">
        <ele>1991.5999755859375</ele>
        <time>2026-06-20T08:17:54.000Z</time>
        <extensions>
          <ns3:TrackPointExtension>
            <ns3:atemp>21.0</ns3:atemp>
          </ns3:TrackPointExtension>
        </extensions>
      </trkpt>
      <trkpt lat="42.54225575365126132965087890625" lon="20.15743215568363666534423828125">
        <ele>1990.800048828125</ele>
        <time>2026-06-20T08:17:55.000Z</time>
        <extensions>
          <ns3:TrackPointExtension>
            <ns3:atemp>21.0</ns3:atemp>
          </ns3:TrackPointExtension>
        </extensions>
      </trkpt>
      <trkpt lat="42.54221602343022823333740234375" lon="20.15748043544590473175048828125">
        <ele>1990.5999755859375</ele>
        <time>2026-06-20T08:17:56.000Z</time>
        <extensions>
          <ns3:TrackPointExtension>
            <ns3:atemp>21.0</ns3:atemp>
          </ns3:TrackPointExtension>
        </extensions>
      </trkpt>
      <trkpt lat="42.54219330847263336181640625" lon="20.157519914209842681884765625">
        <ele>1990.4000244140625</ele>
        <time>2026-06-20T08:17:57.000Z</time>
        <extensions>
          <ns3:TrackPointExtension>
            <ns3:atemp>21.0</ns3:atemp>
          </ns3:TrackPointExtension>
        </extensions>
      </trkpt>
      <trkpt lat="42.54217864014208316802978515625" lon="20.15755553729832172393798828125">
        <ele>1990.4000244140625</ele>
        <time>2026-06-20T08:17:58.000Z</time>
        <extensions>
          <ns3:TrackPointExtension>
            <ns3:atemp>21.0</ns3:atemp>
          </ns3:TrackPointExtension>
        </extensions>
      </trkpt>
      <trkpt lat="42.54215584136545658111572265625" lon="20.15757967717945575714111328125">
        <ele>1990.5999755859375</ele>
        <time>2026-06-20T08:17:59.000Z</time>
        <extensions>
          <ns3:TrackPointExtension>
            <ns3:atemp>21.0</ns3:atemp>
          </ns3:TrackPointExtension>
        </extensions>
      </trkpt>
      <trkpt lat="42.54212851636111736297607421875" lon="20.15760934911668300628662109375">
        <ele>1990.800048828125</ele>
        <time>2026-06-20T08:18:00.000Z</time>
        <extensions>
          <ns3:TrackPointExtension>
            <ns3:atemp>21.0</ns3:atemp>
          </ns3:TrackPointExtension>
        </extensions>
      </trkpt>
      <trkpt lat="42.54209867678582668304443359375" lon="20.15763684175908565521240234375">
        <ele>1990.800048828125</ele>
        <time>2026-06-20T08:18:01.000Z</time>
        <extensions>
          <ns3:TrackPointExtension>
            <ns3:atemp>21.0</ns3:atemp>
          </ns3:TrackPointExtension>
        </extensions>
      </trkpt>
      <trkpt lat="42.54206716082990169525146484375" lon="20.15765561722218990325927734375">
        <ele>1990.800048828125</ele>
        <time>2026-06-20T08:18:02.000Z</time>
        <extensions>
          <ns3:TrackPointExtension>
            <ns3:atemp>21.0</ns3:atemp>
          </ns3:TrackPointExtension>
        </extensions>
      </trkpt>
      <trkpt lat="42.54203950054943561553955078125" lon="20.1576719619333744049072265625">
        <ele>1990.5999755859375</ele>
        <time>2026-06-20T08:18:03.000Z</time>
        <extensions>
          <ns3:TrackPointExtension>
            <ns3:atemp>21.0</ns3:atemp>
          </ns3:TrackPointExtension>
        </extensions>
      </trkpt>
      <trkpt lat="42.5420129299163818359375" lon="20.15768445096909999847412109375">
        <ele>1990.4000244140625</ele>
        <time>2026-06-20T08:18:04.000Z</time>
        <extensions>
          <ns3:TrackPointExtension>
            <ns3:atemp>21.0</ns3:atemp>
          </ns3:TrackPointExtension>
        </extensions>
      </trkpt>
      <trkpt lat="42.541984431445598602294921875" lon="20.15770372934639453887939453125">
        <ele>1990.199951171875</ele>
        <time>2026-06-20T08:18:05.000Z</time>
        <extensions>
          <ns3:TrackPointExtension>
            <ns3:atemp>21.0</ns3:atemp>
          </ns3:TrackPointExtension>
        </extensions>
      </trkpt>
      <trkpt lat="42.5419483892619609832763671875" lon="20.15772636048495769500732421875">
        <ele>1989.800048828125</ele>
        <time>2026-06-20T08:18:06.000Z</time>
        <extensions>
          <ns3:TrackPointExtension>
            <ns3:atemp>21.0</ns3:atemp>
          </ns3:TrackPointExtension>
        </extensions>
      </trkpt>
      <trkpt lat="42.54190488718450069427490234375" lon="20.15774647705256938934326171875">
        <ele>1989.4000244140625</ele>
        <time>2026-06-20T08:18:07.000Z</time>
        <extensions>
          <ns3:TrackPointExtension>
            <ns3:atemp>21.0</ns3:atemp>
          </ns3:TrackPointExtension>
        </extensions>
      </trkpt>
      <trkpt lat="42.54186146892607212066650390625" lon="20.1577755622565746307373046875">
        <ele>1989</ele>
        <time>2026-06-20T08:18:08.000Z</time>
        <extensions>
          <ns3:TrackPointExtension>
            <ns3:atemp>21.0</ns3:atemp>
          </ns3:TrackPointExtension>
        </extensions>
      </trkpt>
      <trkpt lat="42.54181670956313610076904296875" lon="20.15780322253704071044921875">
        <ele>1988.5999755859375</ele>
        <time>2026-06-20T08:18:09.000Z</time>
        <extensions>
          <ns3:TrackPointExtension>
            <ns3:atemp>21.0</ns3:atemp>
          </ns3:TrackPointExtension>
        </extensions>
      </trkpt>
      <trkpt lat="42.5417763926088809967041015625" lon="20.15781889669597148895263671875">
        <ele>1988.199951171875</ele>
        <time>2026-06-20T08:18:10.000Z</time>
        <extensions>
          <ns3:TrackPointExtension>
            <ns3:atemp>21.0</ns3:atemp>
          </ns3:TrackPointExtension>
        </extensions>
      </trkpt>
      <trkpt lat="42.54174060188233852386474609375" lon="20.15783004462718963623046875">
        <ele>1987.800048828125</ele>
        <time>2026-06-20T08:18:11.000Z</time>
        <extensions>
          <ns3:TrackPointExtension>
            <ns3:atemp>21.0</ns3:atemp>
          </ns3:TrackPointExtension>
        </extensions>
      </trkpt>
      <trkpt lat="42.54170707426965236663818359375" lon="20.1578369177877902984619140625">
        <ele>1987.5999755859375</ele>
        <time>2026-06-20T08:18:12.000Z</time>
        <extensions>
          <ns3:TrackPointExtension>
            <ns3:atemp>21.0</ns3:atemp>
          </ns3:TrackPointExtension>
        </extensions>
      </trkpt>
      <trkpt lat="42.5416758097708225250244140625" lon="20.1578342355787754058837890625">
        <ele>1987.4000244140625</ele>
        <time>2026-06-20T08:18:13.000Z</time>
        <extensions>
          <ns3:TrackPointExtension>
            <ns3:atemp>21.0</ns3:atemp>
          </ns3:TrackPointExtension>
        </extensions>
      </trkpt>
      <trkpt lat="42.5416468083858489990234375" lon="20.1578266918659210205078125">
        <ele>1987.199951171875</ele>
        <time>2026-06-20T08:18:14.000Z</time>
        <extensions>
          <ns3:TrackPointExtension>
            <ns3:atemp>21.0</ns3:atemp>
          </ns3:TrackPointExtension>
        </extensions>
      </trkpt>
      <trkpt lat="42.54161722026765346527099609375" lon="20.1578268595039844512939453125">
        <ele>1986.800048828125</ele>
        <time>2026-06-20T08:18:15.000Z</time>
        <extensions>
          <ns3:TrackPointExtension>
            <ns3:atemp>21.0</ns3:atemp>
          </ns3:TrackPointExtension>
        </extensions>
      </trkpt>
      <trkpt lat="42.5415822677314281463623046875" lon="20.15782811678946018218994140625">
        <ele>1986.4000244140625</ele>
        <time>2026-06-20T08:18:16.000Z</time>
        <extensions>
          <ns3:TrackPointExtension>
            <ns3:atemp>21.0</ns3:atemp>
          </ns3:TrackPointExtension>
        </extensions>
      </trkpt>
      <trkpt lat="42.541540525853633880615234375" lon="20.15782057307660579681396484375">
        <ele>1986</ele>
        <time>2026-06-20T08:18:17.000Z</time>
        <extensions>
          <ns3:TrackPointExtension>
            <ns3:atemp>21.0</ns3:atemp>
          </ns3:TrackPointExtension>
        </extensions>
      </trkpt>
      <trkpt lat="42.5414914079010486602783203125" lon="20.1578124426305294036865234375">
        <ele>1985</ele>
        <time>2026-06-20T08:18:18.000Z</time>
        <extensions>
          <ns3:TrackPointExtension>
            <ns3:atemp>21.0</ns3:atemp>
          </ns3:TrackPointExtension>
        </extensions>
      </trkpt>
      <trkpt lat="42.54143550060689449310302734375" lon="20.157805569469928741455078125">
        <ele>1984.4000244140625</ele>
        <time>2026-06-20T08:18:19.000Z</time>
        <extensions>
          <ns3:TrackPointExtension>
            <ns3:atemp>21.0</ns3:atemp>
          </ns3:TrackPointExtension>
        </extensions>
      </trkpt>
      <trkpt lat="42.54137816838920116424560546875" lon="20.15779777429997920989990234375">
        <ele>1983.5999755859375</ele>
        <time>2026-06-20T08:18:20.000Z</time>
        <extensions>
          <ns3:TrackPointExtension>
            <ns3:atemp>21.0</ns3:atemp>
          </ns3:TrackPointExtension>
        </extensions>
      </trkpt>
      <trkpt lat="42.54131966270506381988525390625" lon="20.15779509209096431732177734375">
        <ele>1983</ele>
        <time>2026-06-20T08:18:21.000Z</time>
        <extensions>
          <ns3:TrackPointExtension>
            <ns3:atemp>21.0</ns3:atemp>
          </ns3:TrackPointExtension>
        </extensions>
      </trkpt>
      <trkpt lat="42.5412637554109096527099609375" lon="20.157785117626190185546875">
        <ele>1982.199951171875</ele>
        <time>2026-06-20T08:18:22.000Z</time>
        <extensions>
          <ns3:TrackPointExtension>
            <ns3:atemp>21.0</ns3:atemp>
          </ns3:TrackPointExtension>
        </extensions>
      </trkpt>
      <trkpt lat="42.54121103323996067047119140625" lon="20.15777128748595714569091796875">
        <ele>1981.4000244140625</ele>
        <time>2026-06-20T08:18:23.000Z</time>
        <extensions>
          <ns3:TrackPointExtension>
            <ns3:atemp>21.0</ns3:atemp>
          </ns3:TrackPointExtension>
        </extensions>
      </trkpt>
      <trkpt lat="42.5411655195057392120361328125" lon="20.157774388790130615234375">
        <ele>1981.199951171875</ele>
        <time>2026-06-20T08:18:24.000Z</time>
        <extensions>
          <ns3:TrackPointExtension>
            <ns3:atemp>21.0</ns3:atemp>
          </ns3:TrackPointExtension>
        </extensions>
      </trkpt>
      <trkpt lat="42.54112578928470611572265625" lon="20.1577998697757720947265625">
        <ele>1980.800048828125</ele>
        <time>2026-06-20T08:18:25.000Z</time>
        <extensions>
          <ns3:TrackPointExtension>
            <ns3:atemp>21.0</ns3:atemp>
          </ns3:TrackPointExtension>
        </extensions>
      </trkpt>
      <trkpt lat="42.541093938052654266357421875" lon="20.1578261889517307281494140625">
        <ele>1980.5999755859375</ele>
        <time>2026-06-20T08:18:26.000Z</time>
        <extensions>
          <ns3:TrackPointExtension>
            <ns3:atemp>21.0</ns3:atemp>
          </ns3:TrackPointExtension>
        </extensions>
      </trkpt>
      <trkpt lat="42.54106736741960048675537109375" lon="20.157845132052898406982421875">
        <ele>1980.5999755859375</ele>
        <time>2026-06-20T08:18:27.000Z</time>
        <extensions>
          <ns3:TrackPointExtension>
            <ns3:atemp>21.0</ns3:atemp>
          </ns3:TrackPointExtension>
        </extensions>
      </trkpt>
      <trkpt lat="42.54105730913579463958740234375" lon="20.15784555114805698394775390625">
        <ele>1980.4000244140625</ele>
        <time>2026-06-20T08:18:28.000Z</time>
        <extensions>
          <ns3:TrackPointExtension>
            <ns3:atemp>21.0</ns3:atemp>
          </ns3:TrackPointExtension>
        </extensions>
      </trkpt>
      <trkpt lat="42.54105781204998493194580078125" lon="20.15784018673002719879150390625">
        <ele>1980.199951171875</ele>
        <time>2026-06-20T08:18:29.000Z</time>
        <extensions>
          <ns3:TrackPointExtension>
            <ns3:atemp>21.0</ns3:atemp>
          </ns3:TrackPointExtension>
        </extensions>
      </trkpt>
      <trkpt lat="42.54105781204998493194580078125" lon="20.15784018673002719879150390625">
        <ele>1980.199951171875</ele>
        <time>2026-06-20T08:18:30.000Z</time>
        <extensions>
          <ns3:TrackPointExtension>
            <ns3:atemp>21.0</ns3:atemp>
          </ns3:TrackPointExtension>
        </extensions>
      </trkpt>
      <trkpt lat="42.54105781204998493194580078125" lon="20.15784018673002719879150390625">
        <ele>1980.199951171875</ele>
        <time>2026-06-20T08:18:31.000Z</time>
        <extensions>
          <ns3:TrackPointExtension>
            <ns3:atemp>21.0</ns3:atemp>
          </ns3:TrackPointExtension>
        </extensions>
      </trkpt>
      <trkpt lat="42.54105781204998493194580078125" lon="20.15784018673002719879150390625">
        <ele>1980.199951171875</ele>
        <time>2026-06-20T08:18:32.000Z</time>
        <extensions>
          <ns3:TrackPointExtension>
            <ns3:atemp>21.0</ns3:atemp>
          </ns3:TrackPointExtension>
        </extensions>
      </trkpt>
      <trkpt lat="42.54105781204998493194580078125" lon="20.15784018673002719879150390625">
        <ele>1980.199951171875</ele>
        <time>2026-06-20T08:18:33.000Z</time>
        <extensions>
          <ns3:TrackPointExtension>
            <ns3:atemp>21.0</ns3:atemp>
          </ns3:TrackPointExtension>
        </extensions>
      </trkpt>
      <trkpt lat="42.54105781204998493194580078125" lon="20.15784018673002719879150390625">
        <ele>1980.199951171875</ele>
        <time>2026-06-20T08:18:34.000Z</time>
        <extensions>
          <ns3:TrackPointExtension>
            <ns3:atemp>21.0</ns3:atemp>
          </ns3:TrackPointExtension>
        </extensions>
      </trkpt>
      <trkpt lat="42.54105781204998493194580078125" lon="20.15784018673002719879150390625">
        <ele>1980.199951171875</ele>
        <time>2026-06-20T08:18:35.000Z</time>
        <extensions>
          <ns3:TrackPointExtension>
            <ns3:atemp>21.0</ns3:atemp>
          </ns3:TrackPointExtension>
        </extensions>
      </trkpt>
      <trkpt lat="42.54105781204998493194580078125" lon="20.15784018673002719879150390625">
        <ele>1980</ele>
        <time>2026-06-20T08:18:36.000Z</time>
        <extensions>
          <ns3:TrackPointExtension>
            <ns3:atemp>21.0</ns3:atemp>
          </ns3:TrackPointExtension>
        </extensions>
      </trkpt>
      <trkpt lat="42.54105781204998493194580078125" lon="20.15784018673002719879150390625">
        <ele>1979.800048828125</ele>
        <time>2026-06-20T08:18:37.000Z</time>
        <extensions>
          <ns3:TrackPointExtension>
            <ns3:atemp>21.0</ns3:atemp>
          </ns3:TrackPointExtension>
        </extensions>
      </trkpt>
      <trkpt lat="42.54105781204998493194580078125" lon="20.15784018673002719879150390625">
        <ele>1979.800048828125</ele>
        <time>2026-06-20T08:18:38.000Z</time>
        <extensions>
          <ns3:TrackPointExtension>
            <ns3:atemp>21.0</ns3:atemp>
          </ns3:TrackPointExtension>
        </extensions>
      </trkpt>
      <trkpt lat="42.54105781204998493194580078125" lon="20.15784018673002719879150390625">
        <ele>1979.800048828125</ele>
        <time>2026-06-20T08:18:39.000Z</time>
        <extensions>
          <ns3:TrackPointExtension>
            <ns3:atemp>21.0</ns3:atemp>
          </ns3:TrackPointExtension>
        </extensions>
      </trkpt>
      <trkpt lat="42.54105781204998493194580078125" lon="20.15784018673002719879150390625">
        <ele>1979.5999755859375</ele>
        <time>2026-06-20T08:18:40.000Z</time>
        <extensions>
          <ns3:TrackPointExtension>
            <ns3:atemp>21.0</ns3:atemp>
          </ns3:TrackPointExtension>
        </extensions>
      </trkpt>
      <trkpt lat="42.54105781204998493194580078125" lon="20.15784018673002719879150390625">
        <ele>1979.5999755859375</ele>
        <time>2026-06-20T08:18:41.000Z</time>
        <extensions>
          <ns3:TrackPointExtension>
            <ns3:atemp>21.0</ns3:atemp>
          </ns3:TrackPointExtension>
        </extensions>
      </trkpt>
      <trkpt lat="42.54105781204998493194580078125" lon="20.15784018673002719879150390625">
        <ele>1979.5999755859375</ele>
        <time>2026-06-20T08:18:42.000Z</time>
        <extensions>
          <ns3:TrackPointExtension>
            <ns3:atemp>21.0</ns3:atemp>
          </ns3:TrackPointExtension>
        </extensions>
      </trkpt>
      <trkpt lat="42.54105781204998493194580078125" lon="20.15784018673002719879150390625">
        <ele>1979.5999755859375</ele>
        <time>2026-06-20T08:18:43.000Z</time>
        <extensions>
          <ns3:TrackPointExtension>
            <ns3:atemp>21.0</ns3:atemp>
          </ns3:TrackPointExtension>
        </extensions>
      </trkpt>
      <trkpt lat="42.54105781204998493194580078125" lon="20.15784018673002719879150390625">
        <ele>1979.5999755859375</ele>
        <time>2026-06-20T08:18:44.000Z</time>
        <extensions>
          <ns3:TrackPointExtension>
            <ns3:atemp>21.0</ns3:atemp>
          </ns3:TrackPointExtension>
        </extensions>
      </trkpt>
      <trkpt lat="42.54105781204998493194580078125" lon="20.15784018673002719879150390625">
        <ele>1979.5999755859375</ele>
        <time>2026-06-20T08:18:45.000Z</time>
        <extensions>
          <ns3:TrackPointExtension>
            <ns3:atemp>21.0</ns3:atemp>
          </ns3:TrackPointExtension>
        </extensions>
      </trkpt>
      <trkpt lat="42.54105781204998493194580078125" lon="20.15784018673002719879150390625">
        <ele>1979.5999755859375</ele>
        <time>2026-06-20T08:18:46.000Z</time>
        <extensions>
          <ns3:TrackPointExtension>
            <ns3:atemp>21.0</ns3:atemp>
          </ns3:TrackPointExtension>
        </extensions>
      </trkpt>
      <trkpt lat="42.54105781204998493194580078125" lon="20.15784018673002719879150390625">
        <ele>1979.5999755859375</ele>
        <time>2026-06-20T08:18:47.000Z</time>
        <extensions>
          <ns3:TrackPointExtension>
            <ns3:atemp>21.0</ns3:atemp>
          </ns3:TrackPointExtension>
        </extensions>
      </trkpt>
      <trkpt lat="42.54105781204998493194580078125" lon="20.15784018673002719879150390625">
        <ele>1979.5999755859375</ele>
        <time>2026-06-20T08:18:48.000Z</time>
        <extensions>
          <ns3:TrackPointExtension>
            <ns3:atemp>21.0</ns3:atemp>
          </ns3:TrackPointExtension>
        </extensions>
      </trkpt>
      <trkpt lat="42.54105781204998493194580078125" lon="20.15784018673002719879150390625">
        <ele>1979.800048828125</ele>
        <time>2026-06-20T08:18:49.000Z</time>
        <extensions>
          <ns3:TrackPointExtension>
            <ns3:atemp>21.0</ns3:atemp>
          </ns3:TrackPointExtension>
        </extensions>
      </trkpt>
      <trkpt lat="42.54105781204998493194580078125" lon="20.15784018673002719879150390625">
        <ele>1979.800048828125</ele>
        <time>2026-06-20T08:18:50.000Z</time>
        <extensions>
          <ns3:TrackPointExtension>
            <ns3:atemp>21.0</ns3:atemp>
          </ns3:TrackPointExtension>
        </extensions>
      </trkpt>
      <trkpt lat="42.54105781204998493194580078125" lon="20.15784018673002719879150390625">
        <ele>1979.800048828125</ele>
        <time>2026-06-20T08:18:51.000Z</time>
        <extensions>
          <ns3:TrackPointExtension>
            <ns3:atemp>21.0</ns3:atemp>
          </ns3:TrackPointExtension>
        </extensions>
      </trkpt>
      <trkpt lat="42.54105781204998493194580078125" lon="20.15784018673002719879150390625">
        <ele>1980</ele>
        <time>2026-06-20T08:18:52.000Z</time>
        <extensions>
          <ns3:TrackPointExtension>
            <ns3:atemp>21.0</ns3:atemp>
          </ns3:TrackPointExtension>
        </extensions>
      </trkpt>
      <trkpt lat="42.54105781204998493194580078125" lon="20.15784018673002719879150390625">
        <ele>1980</ele>
        <time>2026-06-20T08:18:53.000Z</time>
        <extensions>
          <ns3:TrackPointExtension>
            <ns3:atemp>21.0</ns3:atemp>
          </ns3:TrackPointExtension>
        </extensions>
      </trkpt>
      <trkpt lat="42.54105781204998493194580078125" lon="20.15784018673002719879150390625">
        <ele>1980</ele>
        <time>2026-06-20T08:18:54.000Z</time>
        <extensions>
          <ns3:TrackPointExtension>
            <ns3:atemp>21.0</ns3:atemp>
          </ns3:TrackPointExtension>
        </extensions>
      </trkpt>
      <trkpt lat="42.54105781204998493194580078125" lon="20.15784018673002719879150390625">
        <ele>1980</ele>
        <time>2026-06-20T08:18:55.000Z</time>
        <extensions>
          <ns3:TrackPointExtension>
            <ns3:atemp>21.0</ns3:atemp>
          </ns3:TrackPointExtension>
        </extensions>
      </trkpt>
      <trkpt lat="42.54105781204998493194580078125" lon="20.15784018673002719879150390625">
        <ele>1980.199951171875</ele>
        <time>2026-06-20T08:18:56.000Z</time>
        <extensions>
          <ns3:TrackPointExtension>
            <ns3:atemp>21.0</ns3:atemp>
          </ns3:TrackPointExtension>
        </extensions>
      </trkpt>
      <trkpt lat="42.54105781204998493194580078125" lon="20.15784018673002719879150390625">
        <ele>1980.199951171875</ele>
        <time>2026-06-20T08:18:57.000Z</time>
        <extensions>
          <ns3:TrackPointExtension>
            <ns3:atemp>21.0</ns3:atemp>
          </ns3:TrackPointExtension>
        </extensions>
      </trkpt>
      <trkpt lat="42.54105781204998493194580078125" lon="20.15784018673002719879150390625">
        <ele>1980.199951171875</ele>
        <time>2026-06-20T08:18:58.000Z</time>
        <extensions>
          <ns3:TrackPointExtension>
            <ns3:atemp>21.0</ns3:atemp>
          </ns3:TrackPointExtension>
        </extensions>
      </trkpt>
      <trkpt lat="42.54105781204998493194580078125" lon="20.15784018673002719879150390625">
        <ele>1980.199951171875</ele>
        <time>2026-06-20T08:18:59.000Z</time>
        <extensions>
          <ns3:TrackPointExtension>
            <ns3:atemp>21.0</ns3:atemp>
          </ns3:TrackPointExtension>
        </extensions>
      </trkpt>
      <trkpt lat="42.54105781204998493194580078125" lon="20.15784018673002719879150390625">
        <ele>1980.199951171875</ele>
        <time>2026-06-20T08:19:00.000Z</time>
        <extensions>
          <ns3:TrackPointExtension>
            <ns3:atemp>21.0</ns3:atemp>
          </ns3:TrackPointExtension>
        </extensions>
      </trkpt>
      <trkpt lat="42.54105781204998493194580078125" lon="20.15784018673002719879150390625">
        <ele>1980.199951171875</ele>
        <time>2026-06-20T08:19:01.000Z</time>
        <extensions>
          <ns3:TrackPointExtension>
            <ns3:atemp>21.0</ns3:atemp>
          </ns3:TrackPointExtension>
        </extensions>
      </trkpt>
      <trkpt lat="42.54105781204998493194580078125" lon="20.15784018673002719879150390625">
        <ele>1980.199951171875</ele>
        <time>2026-06-20T08:19:02.000Z</time>
        <extensions>
          <ns3:TrackPointExtension>
            <ns3:atemp>21.0</ns3:atemp>
          </ns3:TrackPointExtension>
        </extensions>
      </trkpt>
      <trkpt lat="42.54105781204998493194580078125" lon="20.15784018673002719879150390625">
        <ele>1980.199951171875</ele>
        <time>2026-06-20T08:19:03.000Z</time>
        <extensions>
          <ns3:TrackPointExtension>
            <ns3:atemp>21.0</ns3:atemp>
          </ns3:TrackPointExtension>
        </extensions>
      </trkpt>
      <trkpt lat="42.54105781204998493194580078125" lon="20.15784018673002719879150390625">
        <ele>1980.199951171875</ele>
        <time>2026-06-20T08:19:04.000Z</time>
        <extensions>
          <ns3:TrackPointExtension>
            <ns3:atemp>21.0</ns3:atemp>
          </ns3:TrackPointExtension>
        </extensions>
      </trkpt>
      <trkpt lat="42.54105781204998493194580078125" lon="20.15784018673002719879150390625">
        <ele>1980.199951171875</ele>
        <time>2026-06-20T08:19:05.000Z</time>
        <extensions>
          <ns3:TrackPointExtension>
            <ns3:atemp>21.0</ns3:atemp>
          </ns3:TrackPointExtension>
        </extensions>
      </trkpt>
      <trkpt lat="42.54105781204998493194580078125" lon="20.15784018673002719879150390625">
        <ele>1980.199951171875</ele>
        <time>2026-06-20T08:19:06.000Z</time>
        <extensions>
          <ns3:TrackPointExtension>
            <ns3:atemp>21.0</ns3:atemp>
          </ns3:TrackPointExtension>
        </extensions>
      </trkpt>
      <trkpt lat="42.54105781204998493194580078125" lon="20.15784018673002719879150390625">
        <ele>1980.199951171875</ele>
        <time>2026-06-20T08:19:07.000Z</time>
        <extensions>
          <ns3:TrackPointExtension>
            <ns3:atemp>21.0</ns3:atemp>
          </ns3:TrackPointExtension>
        </extensions>
      </trkpt>
      <trkpt lat="42.54105781204998493194580078125" lon="20.15784018673002719879150390625">
        <ele>1980</ele>
        <time>2026-06-20T08:19:08.000Z</time>
        <extensions>
          <ns3:TrackPointExtension>
            <ns3:atemp>21.0</ns3:atemp>
          </ns3:TrackPointExtension>
        </extensions>
      </trkpt>
      <trkpt lat="42.54105781204998493194580078125" lon="20.15784018673002719879150390625">
        <ele>1980</ele>
        <time>2026-06-20T08:19:09.000Z</time>
        <extensions>
          <ns3:TrackPointExtension>
            <ns3:atemp>21.0</ns3:atemp>
          </ns3:TrackPointExtension>
        </extensions>
      </trkpt>
      <trkpt lat="42.54105781204998493194580078125" lon="20.15784018673002719879150390625">
        <ele>1980</ele>
        <time>2026-06-20T08:19:10.000Z</time>
        <extensions>
          <ns3:TrackPointExtension>
            <ns3:atemp>21.0</ns3:atemp>
          </ns3:TrackPointExtension>
        </extensions>
      </trkpt>
      <trkpt lat="42.54105781204998493194580078125" lon="20.15784018673002719879150390625">
        <ele>1979.800048828125</ele>
        <time>2026-06-20T08:19:11.000Z</time>
        <extensions>
          <ns3:TrackPointExtension>
            <ns3:atemp>21.0</ns3:atemp>
          </ns3:TrackPointExtension>
        </extensions>
      </trkpt>
      <trkpt lat="42.54105781204998493194580078125" lon="20.15784018673002719879150390625">
        <ele>1979.800048828125</ele>
        <time>2026-06-20T08:19:12.000Z</time>
        <extensions>
          <ns3:TrackPointExtension>
            <ns3:atemp>21.0</ns3:atemp>
          </ns3:TrackPointExtension>
        </extensions>
      </trkpt>
      <trkpt lat="42.54105781204998493194580078125" lon="20.15784018673002719879150390625">
        <ele>1979.800048828125</ele>
        <time>2026-06-20T08:19:13.000Z</time>
        <extensions>
          <ns3:TrackPointExtension>
            <ns3:atemp>21.0</ns3:atemp>
          </ns3:TrackPointExtension>
        </extensions>
      </trkpt>
      <trkpt lat="42.54105781204998493194580078125" lon="20.15784018673002719879150390625">
        <ele>1979.800048828125</ele>
        <time>2026-06-20T08:19:14.000Z</time>
        <extensions>
          <ns3:TrackPointExtension>
            <ns3:atemp>21.0</ns3:atemp>
          </ns3:TrackPointExtension>
        </extensions>
      </trkpt>
      <trkpt lat="42.54105781204998493194580078125" lon="20.15784018673002719879150390625">
        <ele>1979.800048828125</ele>
        <time>2026-06-20T08:19:15.000Z</time>
        <extensions>
          <ns3:TrackPointExtension>
            <ns3:atemp>21.0</ns3:atemp>
          </ns3:TrackPointExtension>
        </extensions>
      </trkpt>
      <trkpt lat="42.54105781204998493194580078125" lon="20.15784018673002719879150390625">
        <ele>1979.800048828125</ele>
        <time>2026-06-20T08:19:16.000Z</time>
        <extensions>
          <ns3:TrackPointExtension>
            <ns3:atemp>21.0</ns3:atemp>
          </ns3:TrackPointExtension>
        </extensions>
      </trkpt>
      <trkpt lat="42.54105781204998493194580078125" lon="20.15784018673002719879150390625">
        <ele>1979.5999755859375</ele>
        <time>2026-06-20T08:19:17.000Z</time>
        <extensions>
          <ns3:TrackPointExtension>
            <ns3:atemp>21.0</ns3:atemp>
          </ns3:TrackPointExtension>
        </extensions>
      </trkpt>
      <trkpt lat="42.54105781204998493194580078125" lon="20.15784018673002719879150390625">
        <ele>1979.5999755859375</ele>
        <time>2026-06-20T08:19:18.000Z</time>
        <extensions>
          <ns3:TrackPointExtension>
            <ns3:atemp>21.0</ns3:atemp>
          </ns3:TrackPointExtension>
        </extensions>
      </trkpt>
      <trkpt lat="42.54105781204998493194580078125" lon="20.15784018673002719879150390625">
        <ele>1979.800048828125</ele>
        <time>2026-06-20T08:19:19.000Z</time>
        <extensions>
          <ns3:TrackPointExtension>
            <ns3:atemp>21.0</ns3:atemp>
          </ns3:TrackPointExtension>
        </extensions>
      </trkpt>
      <trkpt lat="42.54105781204998493194580078125" lon="20.15784018673002719879150390625">
        <ele>1979.800048828125</ele>
        <time>2026-06-20T08:19:20.000Z</time>
        <extensions>
          <ns3:TrackPointExtension>
            <ns3:atemp>21.0</ns3:atemp>
          </ns3:TrackPointExtension>
        </extensions>
      </trkpt>
      <trkpt lat="42.54105781204998493194580078125" lon="20.15784018673002719879150390625">
        <ele>1979.800048828125</ele>
        <time>2026-06-20T08:19:21.000Z</time>
        <extensions>
          <ns3:TrackPointExtension>
            <ns3:atemp>21.0</ns3:atemp>
          </ns3:TrackPointExtension>
        </extensions>
      </trkpt>
      <trkpt lat="42.54105781204998493194580078125" lon="20.15784018673002719879150390625">
        <ele>1979.5999755859375</ele>
        <time>2026-06-20T08:19:22.000Z</time>
        <extensions>
          <ns3:TrackPointExtension>
            <ns3:atemp>21.0</ns3:atemp>
          </ns3:TrackPointExtension>
        </extensions>
      </trkpt>
      <trkpt lat="42.54105781204998493194580078125" lon="20.15784018673002719879150390625">
        <ele>1979.5999755859375</ele>
        <time>2026-06-20T08:19:23.000Z</time>
        <extensions>
          <ns3:TrackPointExtension>
            <ns3:atemp>21.0</ns3:atemp>
          </ns3:TrackPointExtension>
        </extensions>
      </trkpt>
      <trkpt lat="42.54105781204998493194580078125" lon="20.15784018673002719879150390625">
        <ele>1979.5999755859375</ele>
        <time>2026-06-20T08:19:24.000Z</time>
        <extensions>
          <ns3:TrackPointExtension>
            <ns3:atemp>21.0</ns3:atemp>
          </ns3:TrackPointExtension>
        </extensions>
      </trkpt>
      <trkpt lat="42.54105781204998493194580078125" lon="20.15784018673002719879150390625">
        <ele>1979.5999755859375</ele>
        <time>2026-06-20T08:19:25.000Z</time>
        <extensions>
          <ns3:TrackPointExtension>
            <ns3:atemp>21.0</ns3:atemp>
          </ns3:TrackPointExtension>
        </extensions>
      </trkpt>
      <trkpt lat="42.54105781204998493194580078125" lon="20.15784018673002719879150390625">
        <ele>1979.4000244140625</ele>
        <time>2026-06-20T08:19:26.000Z</time>
        <extensions>
          <ns3:TrackPointExtension>
            <ns3:atemp>21.0</ns3:atemp>
          </ns3:TrackPointExtension>
        </extensions>
      </trkpt>
      <trkpt lat="42.54105781204998493194580078125" lon="20.15784018673002719879150390625">
        <ele>1979.4000244140625</ele>
        <time>2026-06-20T08:19:27.000Z</time>
        <extensions>
          <ns3:TrackPointExtension>
            <ns3:atemp>21.0</ns3:atemp>
          </ns3:TrackPointExtension>
        </extensions>
      </trkpt>
      <trkpt lat="42.54105781204998493194580078125" lon="20.15784018673002719879150390625">
        <ele>1979.4000244140625</ele>
        <time>2026-06-20T08:19:28.000Z</time>
        <extensions>
          <ns3:TrackPointExtension>
            <ns3:atemp>21.0</ns3:atemp>
          </ns3:TrackPointExtension>
        </extensions>
      </trkpt>
      <trkpt lat="42.54105781204998493194580078125" lon="20.15784018673002719879150390625">
        <ele>1979.4000244140625</ele>
        <time>2026-06-20T08:19:29.000Z</time>
        <extensions>
          <ns3:TrackPointExtension>
            <ns3:atemp>21.0</ns3:atemp>
          </ns3:TrackPointExtension>
        </extensions>
      </trkpt>
      <trkpt lat="42.54105781204998493194580078125" lon="20.15784018673002719879150390625">
        <ele>1979.4000244140625</ele>
        <time>2026-06-20T08:19:30.000Z</time>
        <extensions>
          <ns3:TrackPointExtension>
            <ns3:atemp>21.0</ns3:atemp>
          </ns3:TrackPointExtension>
        </extensions>
      </trkpt>
      <trkpt lat="42.54105781204998493194580078125" lon="20.15784018673002719879150390625">
        <ele>1979.4000244140625</ele>
        <time>2026-06-20T08:19:31.000Z</time>
        <extensions>
          <ns3:TrackPointExtension>
            <ns3:atemp>21.0</ns3:atemp>
          </ns3:TrackPointExtension>
        </extensions>
      </trkpt>
      <trkpt lat="42.54105873405933380126953125" lon="20.15784052200615406036376953125">
        <ele>1979.4000244140625</ele>
        <time>2026-06-20T08:19:32.000Z</time>
        <extensions>
          <ns3:TrackPointExtension>
            <ns3:atemp>21.0</ns3:atemp>
          </ns3:TrackPointExtension>
        </extensions>
      </trkpt>
      <trkpt lat="42.54104943014681339263916015625" lon="20.1578466407954692840576171875">
        <ele>1979.5999755859375</ele>
        <time>2026-06-20T08:19:33.000Z</time>
        <extensions>
          <ns3:TrackPointExtension>
            <ns3:atemp>21.0</ns3:atemp>
          </ns3:TrackPointExtension>
        </extensions>
      </trkpt>
      <trkpt lat="42.5410317443311214447021484375" lon="20.1578535139560699462890625">
        <ele>1979.5999755859375</ele>
        <time>2026-06-20T08:19:34.000Z</time>
        <extensions>
          <ns3:TrackPointExtension>
            <ns3:atemp>21.0</ns3:atemp>
          </ns3:TrackPointExtension>
        </extensions>
      </trkpt>
      <trkpt lat="42.54101254977285861968994140625" lon="20.1578667573630809783935546875">
        <ele>1979.5999755859375</ele>
        <time>2026-06-20T08:19:35.000Z</time>
        <extensions>
          <ns3:TrackPointExtension>
            <ns3:atemp>21.0</ns3:atemp>
          </ns3:TrackPointExtension>
        </extensions>
      </trkpt>
      <trkpt lat="42.54098908044397830963134765625" lon="20.1578741334378719329833984375">
        <ele>1979.4000244140625</ele>
        <time>2026-06-20T08:19:36.000Z</time>
        <extensions>
          <ns3:TrackPointExtension>
            <ns3:atemp>21.0</ns3:atemp>
          </ns3:TrackPointExtension>
        </extensions>
      </trkpt>
      <trkpt lat="42.54096795804798603057861328125" lon="20.15788980759680271148681640625">
        <ele>1979.4000244140625</ele>
        <time>2026-06-20T08:19:37.000Z</time>
        <extensions>
          <ns3:TrackPointExtension>
            <ns3:atemp>21.0</ns3:atemp>
          </ns3:TrackPointExtension>
        </extensions>
      </trkpt>
      <trkpt lat="42.54094935022294521331787109375" lon="20.1579079963266849517822265625">
        <ele>1979.199951171875</ele>
        <time>2026-06-20T08:19:38.000Z</time>
        <extensions>
          <ns3:TrackPointExtension>
            <ns3:atemp>21.0</ns3:atemp>
          </ns3:TrackPointExtension>
        </extensions>
      </trkpt>
      <trkpt lat="42.54093208350241184234619140625" lon="20.15792526304721832275390625">
        <ele>1979</ele>
        <time>2026-06-20T08:19:39.000Z</time>
        <extensions>
          <ns3:TrackPointExtension>
            <ns3:atemp>21.0</ns3:atemp>
          </ns3:TrackPointExtension>
        </extensions>
      </trkpt>
      <trkpt lat="42.5409164093434810638427734375" lon="20.15794110484421253204345703125">
        <ele>1979</ele>
        <time>2026-06-20T08:19:40.000Z</time>
        <extensions>
          <ns3:TrackPointExtension>
            <ns3:atemp>21.0</ns3:atemp>
          </ns3:TrackPointExtension>
        </extensions>
      </trkpt>
      <trkpt lat="42.5409011542797088623046875" lon="20.1579492352902889251708984375">
        <ele>1979</ele>
        <time>2026-06-20T08:19:41.000Z</time>
        <extensions>
          <ns3:TrackPointExtension>
            <ns3:atemp>21.0</ns3:atemp>
          </ns3:TrackPointExtension>
        </extensions>
      </trkpt>
      <trkpt lat="42.540882714092731475830078125" lon="20.15795434825122356414794921875">
        <ele>1979</ele>
        <time>2026-06-20T08:19:42.000Z</time>
        <extensions>
          <ns3:TrackPointExtension>
            <ns3:atemp>21.0</ns3:atemp>
          </ns3:TrackPointExtension>
        </extensions>
      </trkpt>
      <trkpt lat="42.5408594124019145965576171875" lon="20.1579636521637439727783203125">
        <ele>1979</ele>
        <time>2026-06-20T08:19:43.000Z</time>
        <extensions>
          <ns3:TrackPointExtension>
            <ns3:atemp>21.0</ns3:atemp>
          </ns3:TrackPointExtension>
        </extensions>
      </trkpt>
      <trkpt lat="42.5408406369388103485107421875" lon="20.15797714702785015106201171875">
        <ele>1979</ele>
        <time>2026-06-20T08:19:44.000Z</time>
        <extensions>
          <ns3:TrackPointExtension>
            <ns3:atemp>21.0</ns3:atemp>
          </ns3:TrackPointExtension>
        </extensions>
      </trkpt>
      <trkpt lat="42.54082429222762584686279296875" lon="20.15798787586390972137451171875">
        <ele>1978.800048828125</ele>
        <time>2026-06-20T08:19:45.000Z</time>
        <extensions>
          <ns3:TrackPointExtension>
            <ns3:atemp>21.0</ns3:atemp>
          </ns3:TrackPointExtension>
        </extensions>
      </trkpt>
      <trkpt lat="42.54080669023096561431884765625" lon="20.15799659304320812225341796875">
        <ele>1978.800048828125</ele>
        <time>2026-06-20T08:19:46.000Z</time>
        <extensions>
          <ns3:TrackPointExtension>
            <ns3:atemp>21.0</ns3:atemp>
          </ns3:TrackPointExtension>
        </extensions>
      </trkpt>
      <trkpt lat="42.5407873280346393585205078125" lon="20.15800195746123790740966796875">
        <ele>1978.800048828125</ele>
        <time>2026-06-20T08:19:47.000Z</time>
        <extensions>
          <ns3:TrackPointExtension>
            <ns3:atemp>21.0</ns3:atemp>
          </ns3:TrackPointExtension>
        </extensions>
      </trkpt>
      <trkpt lat="42.540768049657344818115234375" lon="20.158008746802806854248046875">
        <ele>1978.800048828125</ele>
        <time>2026-06-20T08:19:48.000Z</time>
        <extensions>
          <ns3:TrackPointExtension>
            <ns3:atemp>21.0</ns3:atemp>
          </ns3:TrackPointExtension>
        </extensions>
      </trkpt>
      <trkpt lat="42.54075019620358943939208984375" lon="20.15801536850631237030029296875">
        <ele>1978.800048828125</ele>
        <time>2026-06-20T08:19:49.000Z</time>
        <extensions>
          <ns3:TrackPointExtension>
            <ns3:atemp>21.0</ns3:atemp>
          </ns3:TrackPointExtension>
        </extensions>
      </trkpt>
      <trkpt lat="42.540733851492404937744140625" lon="20.158026516437530517578125">
        <ele>1979</ele>
        <time>2026-06-20T08:19:50.000Z</time>
        <extensions>
          <ns3:TrackPointExtension>
            <ns3:atemp>21.0</ns3:atemp>
          </ns3:TrackPointExtension>
        </extensions>
      </trkpt>
      <trkpt lat="42.54072085954248905181884765625" lon="20.15803783200681209564208984375">
        <ele>1979</ele>
        <time>2026-06-20T08:19:51.000Z</time>
        <extensions>
          <ns3:TrackPointExtension>
            <ns3:atemp>21.0</ns3:atemp>
          </ns3:TrackPointExtension>
        </extensions>
      </trkpt>
      <trkpt lat="42.54070644266903400421142578125" lon="20.1580491475760936737060546875">
        <ele>1979</ele>
        <time>2026-06-20T08:19:52.000Z</time>
        <extensions>
          <ns3:TrackPointExtension>
            <ns3:atemp>21.0</ns3:atemp>
          </ns3:TrackPointExtension>
        </extensions>
      </trkpt>
      <trkpt lat="42.54069269634783267974853515625" lon="20.1580602116882801055908203125">
        <ele>1979</ele>
        <time>2026-06-20T08:19:53.000Z</time>
        <extensions>
          <ns3:TrackPointExtension>
            <ns3:atemp>21.0</ns3:atemp>
          </ns3:TrackPointExtension>
        </extensions>
      </trkpt>
      <trkpt lat="42.54067576490342617034912109375" lon="20.15806934796273708343505859375">
        <ele>1979</ele>
        <time>2026-06-20T08:19:54.000Z</time>
        <extensions>
          <ns3:TrackPointExtension>
            <ns3:atemp>21.0</ns3:atemp>
          </ns3:TrackPointExtension>
        </extensions>
      </trkpt>
      <trkpt lat="42.54065598361194133758544921875" lon="20.1580742932856082916259765625">
        <ele>1979</ele>
        <time>2026-06-20T08:19:55.000Z</time>
        <extensions>
          <ns3:TrackPointExtension>
            <ns3:atemp>21.0</ns3:atemp>
          </ns3:TrackPointExtension>
        </extensions>
      </trkpt>
      <trkpt lat="42.540637291967868804931640625" lon="20.1580692641437053680419921875">
        <ele>1979</ele>
        <time>2026-06-20T08:19:56.000Z</time>
        <extensions>
          <ns3:TrackPointExtension>
            <ns3:atemp>21.0</ns3:atemp>
          </ns3:TrackPointExtension>
        </extensions>
      </trkpt>
      <trkpt lat="42.5406220369040966033935546875" lon="20.15806130133569240570068359375">
        <ele>1979.199951171875</ele>
        <time>2026-06-20T08:19:57.000Z</time>
        <extensions>
          <ns3:TrackPointExtension>
            <ns3:atemp>21.0</ns3:atemp>
          </ns3:TrackPointExtension>
        </extensions>
      </trkpt>
      <trkpt lat="42.54060954786837100982666015625" lon="20.15806046314537525177001953125">
        <ele>1979.199951171875</ele>
        <time>2026-06-20T08:19:58.000Z</time>
        <extensions>
          <ns3:TrackPointExtension>
            <ns3:atemp>21.0</ns3:atemp>
          </ns3:TrackPointExtension>
        </extensions>
      </trkpt>
      <trkpt lat="42.5406015850603580474853515625" lon="20.15806431882083415985107421875">
        <ele>1979.4000244140625</ele>
        <time>2026-06-20T08:19:59.000Z</time>
        <extensions>
          <ns3:TrackPointExtension>
            <ns3:atemp>21.0</ns3:atemp>
          </ns3:TrackPointExtension>
        </extensions>
      </trkpt>
      <trkpt lat="42.5406007468700408935546875" lon="20.15805727802217006683349609375">
        <ele>1979.4000244140625</ele>
        <time>2026-06-20T08:20:00.000Z</time>
        <extensions>
          <ns3:TrackPointExtension>
            <ns3:atemp>21.0</ns3:atemp>
          </ns3:TrackPointExtension>
        </extensions>
      </trkpt>
      <trkpt lat="42.54059865139424800872802734375" lon="20.15806532464921474456787109375">
        <ele>1979.5999755859375</ele>
        <time>2026-06-20T08:20:01.000Z</time>
        <extensions>
          <ns3:TrackPointExtension>
            <ns3:atemp>21.0</ns3:atemp>
          </ns3:TrackPointExtension>
        </extensions>
      </trkpt>
      <trkpt lat="42.54059848375618457794189453125" lon="20.15806549228727817535400390625">
        <ele>1979.800048828125</ele>
        <time>2026-06-20T08:20:02.000Z</time>
        <extensions>
          <ns3:TrackPointExtension>
            <ns3:atemp>21.0</ns3:atemp>
          </ns3:TrackPointExtension>
        </extensions>
      </trkpt>
      <trkpt lat="42.54059337079524993896484375" lon="20.158080160617828369140625">
        <ele>1979.800048828125</ele>
        <time>2026-06-20T08:20:03.000Z</time>
        <extensions>
          <ns3:TrackPointExtension>
            <ns3:atemp>21.0</ns3:atemp>
          </ns3:TrackPointExtension>
        </extensions>
      </trkpt>
      <trkpt lat="42.54058892838656902313232421875" lon="20.15809290111064910888671875">
        <ele>1979.5999755859375</ele>
        <time>2026-06-20T08:20:04.000Z</time>
        <extensions>
          <ns3:TrackPointExtension>
            <ns3:atemp>21.0</ns3:atemp>
          </ns3:TrackPointExtension>
        </extensions>
      </trkpt>
      <trkpt lat="42.54058406688272953033447265625" lon="20.1580991037189960479736328125">
        <ele>1979.4000244140625</ele>
        <time>2026-06-20T08:20:05.000Z</time>
        <extensions>
          <ns3:TrackPointExtension>
            <ns3:atemp>21.0</ns3:atemp>
          </ns3:TrackPointExtension>
        </extensions>
      </trkpt>
      <trkpt lat="42.5405814684927463531494140625" lon="20.15810539014637470245361328125">
        <ele>1979.199951171875</ele>
        <time>2026-06-20T08:20:06.000Z</time>
        <extensions>
          <ns3:TrackPointExtension>
            <ns3:atemp>21.0</ns3:atemp>
          </ns3:TrackPointExtension>
        </extensions>
      </trkpt>
      <trkpt lat="42.54058054648339748382568359375" lon="20.1581056416034698486328125">
        <ele>1979.199951171875</ele>
        <time>2026-06-20T08:20:07.000Z</time>
        <extensions>
          <ns3:TrackPointExtension>
            <ns3:atemp>21.0</ns3:atemp>
          </ns3:TrackPointExtension>
        </extensions>
      </trkpt>
      <trkpt lat="42.54058054648339748382568359375" lon="20.1581056416034698486328125">
        <ele>1979.199951171875</ele>
        <time>2026-06-20T08:20:08.000Z</time>
        <extensions>
          <ns3:TrackPointExtension>
            <ns3:atemp>21.0</ns3:atemp>
          </ns3:TrackPointExtension>
        </extensions>
      </trkpt>
      <trkpt lat="42.54058054648339748382568359375" lon="20.1581056416034698486328125">
        <ele>1979.199951171875</ele>
        <time>2026-06-20T08:20:09.000Z</time>
        <extensions>
          <ns3:TrackPointExtension>
            <ns3:atemp>21.0</ns3:atemp>
          </ns3:TrackPointExtension>
        </extensions>
      </trkpt>
      <trkpt lat="42.54058054648339748382568359375" lon="20.1581056416034698486328125">
        <ele>1979.199951171875</ele>
        <time>2026-06-20T08:20:10.000Z</time>
        <extensions>
          <ns3:TrackPointExtension>
            <ns3:atemp>21.0</ns3:atemp>
          </ns3:TrackPointExtension>
        </extensions>
      </trkpt>
      <trkpt lat="42.54058054648339748382568359375" lon="20.1581056416034698486328125">
        <ele>1979.4000244140625</ele>
        <time>2026-06-20T08:20:11.000Z</time>
        <extensions>
          <ns3:TrackPointExtension>
            <ns3:atemp>21.0</ns3:atemp>
          </ns3:TrackPointExtension>
        </extensions>
      </trkpt>
      <trkpt lat="42.54058054648339748382568359375" lon="20.1581056416034698486328125">
        <ele>1979.4000244140625</ele>
        <time>2026-06-20T08:20:12.000Z</time>
        <extensions>
          <ns3:TrackPointExtension>
            <ns3:atemp>21.0</ns3:atemp>
          </ns3:TrackPointExtension>
        </extensions>
      </trkpt>
      <trkpt lat="42.54058054648339748382568359375" lon="20.1581056416034698486328125">
        <ele>1979.4000244140625</ele>
        <time>2026-06-20T08:20:13.000Z</time>
        <extensions>
          <ns3:TrackPointExtension>
            <ns3:atemp>21.0</ns3:atemp>
          </ns3:TrackPointExtension>
        </extensions>
      </trkpt>
      <trkpt lat="42.5405794568359851837158203125" lon="20.158106647431850433349609375">
        <ele>1979.4000244140625</ele>
        <time>2026-06-20T08:20:14.000Z</time>
        <extensions>
          <ns3:TrackPointExtension>
            <ns3:atemp>21.0</ns3:atemp>
          </ns3:TrackPointExtension>
        </extensions>
      </trkpt>
      <trkpt lat="42.54056998528540134429931640625" lon="20.1581118442118167877197265625">
        <ele>1979.4000244140625</ele>
        <time>2026-06-20T08:20:15.000Z</time>
        <extensions>
          <ns3:TrackPointExtension>
            <ns3:atemp>21.0</ns3:atemp>
          </ns3:TrackPointExtension>
        </extensions>
      </trkpt>
      <trkpt lat="42.54056654870510101318359375" lon="20.15811678953468799591064453125">
        <ele>1979.4000244140625</ele>
        <time>2026-06-20T08:20:16.000Z</time>
        <extensions>
          <ns3:TrackPointExtension>
            <ns3:atemp>21.0</ns3:atemp>
          </ns3:TrackPointExtension>
        </extensions>
      </trkpt>
      <trkpt lat="42.54056654870510101318359375" lon="20.158116705715656280517578125">
        <ele>1979.4000244140625</ele>
        <time>2026-06-20T08:20:17.000Z</time>
        <extensions>
          <ns3:TrackPointExtension>
            <ns3:atemp>21.0</ns3:atemp>
          </ns3:TrackPointExtension>
        </extensions>
      </trkpt>
      <trkpt lat="42.54056654870510101318359375" lon="20.158116705715656280517578125">
        <ele>1979.4000244140625</ele>
        <time>2026-06-20T08:20:18.000Z</time>
        <extensions>
          <ns3:TrackPointExtension>
            <ns3:atemp>21.0</ns3:atemp>
          </ns3:TrackPointExtension>
        </extensions>
      </trkpt>
      <trkpt lat="42.54056654870510101318359375" lon="20.158116705715656280517578125">
        <ele>1979.4000244140625</ele>
        <time>2026-06-20T08:20:19.000Z</time>
        <extensions>
          <ns3:TrackPointExtension>
            <ns3:atemp>21.0</ns3:atemp>
          </ns3:TrackPointExtension>
        </extensions>
      </trkpt>
      <trkpt lat="42.54056654870510101318359375" lon="20.158116705715656280517578125">
        <ele>1979.4000244140625</ele>
        <time>2026-06-20T08:20:20.000Z</time>
        <extensions>
          <ns3:TrackPointExtension>
            <ns3:atemp>21.0</ns3:atemp>
          </ns3:TrackPointExtension>
        </extensions>
      </trkpt>
      <trkpt lat="42.54056654870510101318359375" lon="20.158116705715656280517578125">
        <ele>1979.4000244140625</ele>
        <time>2026-06-20T08:20:21.000Z</time>
        <extensions>
          <ns3:TrackPointExtension>
            <ns3:atemp>21.0</ns3:atemp>
          </ns3:TrackPointExtension>
        </extensions>
      </trkpt>
      <trkpt lat="42.54056654870510101318359375" lon="20.158116705715656280517578125">
        <ele>1979.4000244140625</ele>
        <time>2026-06-20T08:20:22.000Z</time>
        <extensions>
          <ns3:TrackPointExtension>
            <ns3:atemp>21.0</ns3:atemp>
          </ns3:TrackPointExtension>
        </extensions>
      </trkpt>
      <trkpt lat="42.54056654870510101318359375" lon="20.158116705715656280517578125">
        <ele>1979.199951171875</ele>
        <time>2026-06-20T08:20:23.000Z</time>
        <extensions>
          <ns3:TrackPointExtension>
            <ns3:atemp>21.0</ns3:atemp>
          </ns3:TrackPointExtension>
        </extensions>
      </trkpt>
      <trkpt lat="42.54056654870510101318359375" lon="20.158116705715656280517578125">
        <ele>1979.199951171875</ele>
        <time>2026-06-20T08:20:24.000Z</time>
        <extensions>
          <ns3:TrackPointExtension>
            <ns3:atemp>21.0</ns3:atemp>
          </ns3:TrackPointExtension>
        </extensions>
      </trkpt>
      <trkpt lat="42.54056654870510101318359375" lon="20.158116705715656280517578125">
        <ele>1979.199951171875</ele>
        <time>2026-06-20T08:20:25.000Z</time>
        <extensions>
          <ns3:TrackPointExtension>
            <ns3:atemp>21.0</ns3:atemp>
          </ns3:TrackPointExtension>
        </extensions>
      </trkpt>
      <trkpt lat="42.54056654870510101318359375" lon="20.158116705715656280517578125">
        <ele>1979.199951171875</ele>
        <time>2026-06-20T08:20:26.000Z</time>
        <extensions>
          <ns3:TrackPointExtension>
            <ns3:atemp>21.0</ns3:atemp>
          </ns3:TrackPointExtension>
        </extensions>
      </trkpt>
      <trkpt lat="42.54056696780025959014892578125" lon="20.158115364611148834228515625">
        <ele>1979.199951171875</ele>
        <time>2026-06-20T08:20:27.000Z</time>
        <extensions>
          <ns3:TrackPointExtension>
            <ns3:atemp>21.0</ns3:atemp>
          </ns3:TrackPointExtension>
        </extensions>
      </trkpt>
      <trkpt lat="42.540556155145168304443359375" lon="20.15811930410563945770263671875">
        <ele>1979.199951171875</ele>
        <time>2026-06-20T08:20:28.000Z</time>
        <extensions>
          <ns3:TrackPointExtension>
            <ns3:atemp>21.0</ns3:atemp>
          </ns3:TrackPointExtension>
        </extensions>
      </trkpt>
      <trkpt lat="42.54053813405334949493408203125" lon="20.1581306196749210357666015625">
        <ele>1979.199951171875</ele>
        <time>2026-06-20T08:20:29.000Z</time>
        <extensions>
          <ns3:TrackPointExtension>
            <ns3:atemp>21.0</ns3:atemp>
          </ns3:TrackPointExtension>
        </extensions>
      </trkpt>
      <trkpt lat="42.540517263114452362060546875" lon="20.15813942067325115203857421875">
        <ele>1979.199951171875</ele>
        <time>2026-06-20T08:20:30.000Z</time>
        <extensions>
          <ns3:TrackPointExtension>
            <ns3:atemp>21.0</ns3:atemp>
          </ns3:TrackPointExtension>
        </extensions>
      </trkpt>
      <trkpt lat="42.54049756564199924468994140625" lon="20.158142186701297760009765625">
        <ele>1979.199951171875</ele>
        <time>2026-06-20T08:20:31.000Z</time>
        <extensions>
          <ns3:TrackPointExtension>
            <ns3:atemp>21.0</ns3:atemp>
          </ns3:TrackPointExtension>
        </extensions>
      </trkpt>
      <trkpt lat="42.540478371083736419677734375" lon="20.15814210288226604461669921875">
        <ele>1979.199951171875</ele>
        <time>2026-06-20T08:20:32.000Z</time>
        <extensions>
          <ns3:TrackPointExtension>
            <ns3:atemp>21.0</ns3:atemp>
          </ns3:TrackPointExtension>
        </extensions>
      </trkpt>
      <trkpt lat="42.54045867361128330230712890625" lon="20.15814042650163173675537109375">
        <ele>1979.4000244140625</ele>
        <time>2026-06-20T08:20:33.000Z</time>
        <extensions>
          <ns3:TrackPointExtension>
            <ns3:atemp>21.0</ns3:atemp>
          </ns3:TrackPointExtension>
        </extensions>
      </trkpt>
      <trkpt lat="42.54044040106236934661865234375" lon="20.1581366546452045440673828125">
        <ele>1979.4000244140625</ele>
        <time>2026-06-20T08:20:34.000Z</time>
        <extensions>
          <ns3:TrackPointExtension>
            <ns3:atemp>21.0</ns3:atemp>
          </ns3:TrackPointExtension>
        </extensions>
      </trkpt>
      <trkpt lat="42.540422044694423675537109375" lon="20.1581319607794284820556640625">
        <ele>1979.5999755859375</ele>
        <time>2026-06-20T08:20:35.000Z</time>
        <extensions>
          <ns3:TrackPointExtension>
            <ns3:atemp>21.0</ns3:atemp>
          </ns3:TrackPointExtension>
        </extensions>
      </trkpt>
      <trkpt lat="42.54040427505970001220703125" lon="20.15812936238944530487060546875">
        <ele>1979.800048828125</ele>
        <time>2026-06-20T08:20:36.000Z</time>
        <extensions>
          <ns3:TrackPointExtension>
            <ns3:atemp>21.0</ns3:atemp>
          </ns3:TrackPointExtension>
        </extensions>
      </trkpt>
      <trkpt lat="42.540390193462371826171875" lon="20.15812081284821033477783203125">
        <ele>1980</ele>
        <time>2026-06-20T08:20:37.000Z</time>
        <extensions>
          <ns3:TrackPointExtension>
            <ns3:atemp>21.0</ns3:atemp>
          </ns3:TrackPointExtension>
        </extensions>
      </trkpt>
      <trkpt lat="42.54037602804601192474365234375" lon="20.15812030993402004241943359375">
        <ele>1980</ele>
        <time>2026-06-20T08:20:38.000Z</time>
        <extensions>
          <ns3:TrackPointExtension>
            <ns3:atemp>21.0</ns3:atemp>
          </ns3:TrackPointExtension>
        </extensions>
      </trkpt>
      <trkpt lat="42.540369071066379547119140625" lon="20.158126093447208404541015625">
        <ele>1980</ele>
        <time>2026-06-20T08:20:39.000Z</time>
        <extensions>
          <ns3:TrackPointExtension>
            <ns3:atemp>21.0</ns3:atemp>
          </ns3:TrackPointExtension>
        </extensions>
      </trkpt>
      <trkpt lat="42.540361024439334869384765625" lon="20.158127434551715850830078125">
        <ele>1980</ele>
        <time>2026-06-20T08:20:40.000Z</time>
        <extensions>
          <ns3:TrackPointExtension>
            <ns3:atemp>21.0</ns3:atemp>
          </ns3:TrackPointExtension>
        </extensions>
      </trkpt>
      <trkpt lat="42.5403513014316558837890625" lon="20.15813187696039676666259765625">
        <ele>1980</ele>
        <time>2026-06-20T08:20:41.000Z</time>
        <extensions>
          <ns3:TrackPointExtension>
            <ns3:atemp>21.0</ns3:atemp>
          </ns3:TrackPointExtension>
        </extensions>
      </trkpt>
      <trkpt lat="42.54034535028040409088134765625" lon="20.1581405103206634521484375">
        <ele>1979.800048828125</ele>
        <time>2026-06-20T08:20:42.000Z</time>
        <extensions>
          <ns3:TrackPointExtension>
            <ns3:atemp>21.0</ns3:atemp>
          </ns3:TrackPointExtension>
        </extensions>
      </trkpt>
      <trkpt lat="42.54033311270177364349365234375" lon="20.1581527478992938995361328125">
        <ele>1979.800048828125</ele>
        <time>2026-06-20T08:20:43.000Z</time>
        <extensions>
          <ns3:TrackPointExtension>
            <ns3:atemp>21.0</ns3:atemp>
          </ns3:TrackPointExtension>
        </extensions>
      </trkpt>
      <trkpt lat="42.54031685180962085723876953125" lon="20.1581628061830997467041015625">
        <ele>1979.5999755859375</ele>
        <time>2026-06-20T08:20:44.000Z</time>
        <extensions>
          <ns3:TrackPointExtension>
            <ns3:atemp>21.0</ns3:atemp>
          </ns3:TrackPointExtension>
        </extensions>
      </trkpt>
      <trkpt lat="42.5402978248894214630126953125" lon="20.158166326582431793212890625">
        <ele>1979.5999755859375</ele>
        <time>2026-06-20T08:20:45.000Z</time>
        <extensions>
          <ns3:TrackPointExtension>
            <ns3:atemp>21.0</ns3:atemp>
          </ns3:TrackPointExtension>
        </extensions>
      </trkpt>
      <trkpt lat="42.540281228721141815185546875" lon="20.1581788994371891021728515625">
        <ele>1979.5999755859375</ele>
        <time>2026-06-20T08:20:46.000Z</time>
        <extensions>
          <ns3:TrackPointExtension>
            <ns3:atemp>21.0</ns3:atemp>
          </ns3:TrackPointExtension>
        </extensions>
      </trkpt>
      <trkpt lat="42.540268488228321075439453125" lon="20.1581956632435321807861328125">
        <ele>1979.5999755859375</ele>
        <time>2026-06-20T08:20:47.000Z</time>
        <extensions>
          <ns3:TrackPointExtension>
            <ns3:atemp>21.0</ns3:atemp>
          </ns3:TrackPointExtension>
        </extensions>
      </trkpt>
      <trkpt lat="42.5402596034109592437744140625" lon="20.15821686945855617523193359375">
        <ele>1979.4000244140625</ele>
        <time>2026-06-20T08:20:48.000Z</time>
        <extensions>
          <ns3:TrackPointExtension>
            <ns3:atemp>21.0</ns3:atemp>
          </ns3:TrackPointExtension>
        </extensions>
      </trkpt>
      <trkpt lat="42.540249042212963104248046875" lon="20.15821896493434906005859375">
        <ele>1979.5999755859375</ele>
        <time>2026-06-20T08:20:49.000Z</time>
        <extensions>
          <ns3:TrackPointExtension>
            <ns3:atemp>21.0</ns3:atemp>
          </ns3:TrackPointExtension>
        </extensions>
      </trkpt>
      <trkpt lat="42.54023127257823944091796875" lon="20.15822323970496654510498046875">
        <ele>1979.4000244140625</ele>
        <time>2026-06-20T08:20:50.000Z</time>
        <extensions>
          <ns3:TrackPointExtension>
            <ns3:atemp>21.0</ns3:atemp>
          </ns3:TrackPointExtension>
        </extensions>
      </trkpt>
      <trkpt lat="42.54020981490612030029296875" lon="20.15823313035070896148681640625">
        <ele>1979.5999755859375</ele>
        <time>2026-06-20T08:20:51.000Z</time>
        <extensions>
          <ns3:TrackPointExtension>
            <ns3:atemp>21.0</ns3:atemp>
          </ns3:TrackPointExtension>
        </extensions>
      </trkpt>
      <trkpt lat="42.54018492065370082855224609375" lon="20.15824050642549991607666015625">
        <ele>1979.5999755859375</ele>
        <time>2026-06-20T08:20:52.000Z</time>
        <extensions>
          <ns3:TrackPointExtension>
            <ns3:atemp>21.0</ns3:atemp>
          </ns3:TrackPointExtension>
        </extensions>
      </trkpt>
      <trkpt lat="42.5401596911251544952392578125" lon="20.158238746225833892822265625">
        <ele>1979.5999755859375</ele>
        <time>2026-06-20T08:20:53.000Z</time>
        <extensions>
          <ns3:TrackPointExtension>
            <ns3:atemp>21.0</ns3:atemp>
          </ns3:TrackPointExtension>
        </extensions>
      </trkpt>
      <trkpt lat="42.54013647325336933135986328125" lon="20.1582362316548824310302734375">
        <ele>1979.5999755859375</ele>
        <time>2026-06-20T08:20:54.000Z</time>
        <extensions>
          <ns3:TrackPointExtension>
            <ns3:atemp>21.0</ns3:atemp>
          </ns3:TrackPointExtension>
        </extensions>
      </trkpt>
      <trkpt lat="42.54011753015220165252685546875" lon="20.15823212452232837677001953125">
        <ele>1979.5999755859375</ele>
        <time>2026-06-20T08:20:55.000Z</time>
        <extensions>
          <ns3:TrackPointExtension>
            <ns3:atemp>21.0</ns3:atemp>
          </ns3:TrackPointExtension>
        </extensions>
      </trkpt>
      <trkpt lat="42.54009841941297054290771484375" lon="20.15822977758944034576416015625">
        <ele>1979.5999755859375</ele>
        <time>2026-06-20T08:20:56.000Z</time>
        <extensions>
          <ns3:TrackPointExtension>
            <ns3:atemp>21.0</ns3:atemp>
          </ns3:TrackPointExtension>
        </extensions>
      </trkpt>
      <trkpt lat="42.540080063045024871826171875" lon="20.158234052360057830810546875">
        <ele>1979.800048828125</ele>
        <time>2026-06-20T08:20:57.000Z</time>
        <extensions>
          <ns3:TrackPointExtension>
            <ns3:atemp>21.0</ns3:atemp>
          </ns3:TrackPointExtension>
        </extensions>
      </trkpt>
      <trkpt lat="42.54006774164736270904541015625" lon="20.15823866240680217742919921875">
        <ele>1979.800048828125</ele>
        <time>2026-06-20T08:20:58.000Z</time>
        <extensions>
          <ns3:TrackPointExtension>
            <ns3:atemp>21.0</ns3:atemp>
          </ns3:TrackPointExtension>
        </extensions>
      </trkpt>
      <trkpt lat="42.5400611199438571929931640625" lon="20.1582436077296733856201171875">
        <ele>1980</ele>
        <time>2026-06-20T08:20:59.000Z</time>
        <extensions>
          <ns3:TrackPointExtension>
            <ns3:atemp>21.0</ns3:atemp>
          </ns3:TrackPointExtension>
        </extensions>
      </trkpt>
      <trkpt lat="42.54005835391581058502197265625" lon="20.15825115144252777099609375">
        <ele>1980</ele>
        <time>2026-06-20T08:21:00.000Z</time>
        <extensions>
          <ns3:TrackPointExtension>
            <ns3:atemp>21.0</ns3:atemp>
          </ns3:TrackPointExtension>
        </extensions>
      </trkpt>
      <trkpt lat="42.5400483794510364532470703125" lon="20.15826364047825336456298828125">
        <ele>1980.199951171875</ele>
        <time>2026-06-20T08:21:01.000Z</time>
        <extensions>
          <ns3:TrackPointExtension>
            <ns3:atemp>21.0</ns3:atemp>
          </ns3:TrackPointExtension>
        </extensions>
      </trkpt>
      <trkpt lat="42.54003203473985195159912109375" lon="20.15827168710529804229736328125">
        <ele>1980.199951171875</ele>
        <time>2026-06-20T08:21:02.000Z</time>
        <extensions>
          <ns3:TrackPointExtension>
            <ns3:atemp>21.0</ns3:atemp>
          </ns3:TrackPointExtension>
        </extensions>
      </trkpt>
      <trkpt lat="42.54001493565738201141357421875" lon="20.15827286057174205780029296875">
        <ele>1980.199951171875</ele>
        <time>2026-06-20T08:21:03.000Z</time>
        <extensions>
          <ns3:TrackPointExtension>
            <ns3:atemp>21.0</ns3:atemp>
          </ns3:TrackPointExtension>
        </extensions>
      </trkpt>
      <trkpt lat="42.5399997644126415252685546875" lon="20.1582684181630611419677734375">
        <ele>1980.199951171875</ele>
        <time>2026-06-20T08:21:04.000Z</time>
        <extensions>
          <ns3:TrackPointExtension>
            <ns3:atemp>21.0</ns3:atemp>
          </ns3:TrackPointExtension>
        </extensions>
      </trkpt>
      <trkpt lat="42.53998794592916965484619140625" lon="20.15825173817574977874755859375">
        <ele>1980.199951171875</ele>
        <time>2026-06-20T08:21:05.000Z</time>
        <extensions>
          <ns3:TrackPointExtension>
            <ns3:atemp>21.0</ns3:atemp>
          </ns3:TrackPointExtension>
        </extensions>
      </trkpt>
      <trkpt lat="42.53997822292149066925048828125" lon="20.15823396854102611541748046875">
        <ele>1980</ele>
        <time>2026-06-20T08:21:06.000Z</time>
        <extensions>
          <ns3:TrackPointExtension>
            <ns3:atemp>21.0</ns3:atemp>
          </ns3:TrackPointExtension>
        </extensions>
      </trkpt>
      <trkpt lat="42.53996682353317737579345703125" lon="20.15822106041014194488525390625">
        <ele>1980</ele>
        <time>2026-06-20T08:21:07.000Z</time>
        <extensions>
          <ns3:TrackPointExtension>
            <ns3:atemp>21.0</ns3:atemp>
          </ns3:TrackPointExtension>
        </extensions>
      </trkpt>
      <trkpt lat="42.53996011801064014434814453125" lon="20.15822106041014194488525390625">
        <ele>1980</ele>
        <time>2026-06-20T08:21:08.000Z</time>
        <extensions>
          <ns3:TrackPointExtension>
            <ns3:atemp>21.0</ns3:atemp>
          </ns3:TrackPointExtension>
        </extensions>
      </trkpt>
      <trkpt lat="42.53995760343968868255615234375" lon="20.158215947449207305908203125">
        <ele>1979.800048828125</ele>
        <time>2026-06-20T08:21:09.000Z</time>
        <extensions>
          <ns3:TrackPointExtension>
            <ns3:atemp>21.0</ns3:atemp>
          </ns3:TrackPointExtension>
        </extensions>
      </trkpt>
      <trkpt lat="42.53995743580162525177001953125" lon="20.158215947449207305908203125">
        <ele>1979.800048828125</ele>
        <time>2026-06-20T08:21:10.000Z</time>
        <extensions>
          <ns3:TrackPointExtension>
            <ns3:atemp>21.0</ns3:atemp>
          </ns3:TrackPointExtension>
        </extensions>
      </trkpt>
      <trkpt lat="42.53995726816356182098388671875" lon="20.158215947449207305908203125">
        <ele>1979.800048828125</ele>
        <time>2026-06-20T08:21:11.000Z</time>
        <extensions>
          <ns3:TrackPointExtension>
            <ns3:atemp>21.0</ns3:atemp>
          </ns3:TrackPointExtension>
        </extensions>
      </trkpt>
      <trkpt lat="42.5399464555084705352783203125" lon="20.1582231558859348297119140625">
        <ele>1979.800048828125</ele>
        <time>2026-06-20T08:21:12.000Z</time>
        <extensions>
          <ns3:TrackPointExtension>
            <ns3:atemp>21.0</ns3:atemp>
          </ns3:TrackPointExtension>
        </extensions>
      </trkpt>
      <trkpt lat="42.53994301892817020416259765625" lon="20.15822944231331348419189453125">
        <ele>1979.800048828125</ele>
        <time>2026-06-20T08:21:13.000Z</time>
        <extensions>
          <ns3:TrackPointExtension>
            <ns3:atemp>21.0</ns3:atemp>
          </ns3:TrackPointExtension>
        </extensions>
      </trkpt>
      <trkpt lat="42.5399410910904407501220703125" lon="20.15823363326489925384521484375">
        <ele>1979.800048828125</ele>
        <time>2026-06-20T08:21:14.000Z</time>
        <extensions>
          <ns3:TrackPointExtension>
            <ns3:atemp>21.0</ns3:atemp>
          </ns3:TrackPointExtension>
        </extensions>
      </trkpt>
      <trkpt lat="42.5399333797395229339599609375" lon="20.1582442782819271087646484375">
        <ele>1979.800048828125</ele>
        <time>2026-06-20T08:21:15.000Z</time>
        <extensions>
          <ns3:TrackPointExtension>
            <ns3:atemp>21.0</ns3:atemp>
          </ns3:TrackPointExtension>
        </extensions>
      </trkpt>
      <trkpt lat="42.5399253331124782562255859375" lon="20.1582491397857666015625">
        <ele>1979.800048828125</ele>
        <time>2026-06-20T08:21:16.000Z</time>
        <extensions>
          <ns3:TrackPointExtension>
            <ns3:atemp>21.0</ns3:atemp>
          </ns3:TrackPointExtension>
        </extensions>
      </trkpt>
      <trkpt lat="42.539918124675750732421875" lon="20.1582553423941135406494140625">
        <ele>1979.800048828125</ele>
        <time>2026-06-20T08:21:17.000Z</time>
        <extensions>
          <ns3:TrackPointExtension>
            <ns3:atemp>21.0</ns3:atemp>
          </ns3:TrackPointExtension>
        </extensions>
      </trkpt>
      <trkpt lat="42.53991208970546722412109375" lon="20.15825374983251094818115234375">
        <ele>1979.800048828125</ele>
        <time>2026-06-20T08:21:18.000Z</time>
        <extensions>
          <ns3:TrackPointExtension>
            <ns3:atemp>21.0</ns3:atemp>
          </ns3:TrackPointExtension>
        </extensions>
      </trkpt>
      <trkpt lat="42.53990647383034229278564453125" lon="20.15824872069060802459716796875">
        <ele>1979.800048828125</ele>
        <time>2026-06-20T08:21:19.000Z</time>
        <extensions>
          <ns3:TrackPointExtension>
            <ns3:atemp>21.0</ns3:atemp>
          </ns3:TrackPointExtension>
        </extensions>
      </trkpt>
      <trkpt lat="42.53989893011748790740966796875" lon="20.1582429371774196624755859375">
        <ele>1979.800048828125</ele>
        <time>2026-06-20T08:21:20.000Z</time>
        <extensions>
          <ns3:TrackPointExtension>
            <ns3:atemp>21.0</ns3:atemp>
          </ns3:TrackPointExtension>
        </extensions>
      </trkpt>
      <trkpt lat="42.53989809192717075347900390625" lon="20.1582397520542144775390625">
        <ele>1979.800048828125</ele>
        <time>2026-06-20T08:21:21.000Z</time>
        <extensions>
          <ns3:TrackPointExtension>
            <ns3:atemp>21.0</ns3:atemp>
          </ns3:TrackPointExtension>
        </extensions>
      </trkpt>
      <trkpt lat="42.5398980081081390380859375" lon="20.1582397520542144775390625">
        <ele>1979.800048828125</ele>
        <time>2026-06-20T08:21:22.000Z</time>
        <extensions>
          <ns3:TrackPointExtension>
            <ns3:atemp>21.0</ns3:atemp>
          </ns3:TrackPointExtension>
        </extensions>
      </trkpt>
      <trkpt lat="42.53989004530012607574462890625" lon="20.158240757882595062255859375">
        <ele>1979.800048828125</ele>
        <time>2026-06-20T08:21:23.000Z</time>
        <extensions>
          <ns3:TrackPointExtension>
            <ns3:atemp>21.0</ns3:atemp>
          </ns3:TrackPointExtension>
        </extensions>
      </trkpt>
      <trkpt lat="42.5398847647011280059814453125" lon="20.15824578702449798583984375">
        <ele>1979.800048828125</ele>
        <time>2026-06-20T08:21:24.000Z</time>
        <extensions>
          <ns3:TrackPointExtension>
            <ns3:atemp>21.0</ns3:atemp>
          </ns3:TrackPointExtension>
        </extensions>
      </trkpt>
      <trkpt lat="42.539880909025669097900390625" lon="20.1582523249089717864990234375">
        <ele>1979.800048828125</ele>
        <time>2026-06-20T08:21:25.000Z</time>
        <extensions>
          <ns3:TrackPointExtension>
            <ns3:atemp>21.0</ns3:atemp>
          </ns3:TrackPointExtension>
        </extensions>
      </trkpt>
      <trkpt lat="42.5398757122457027435302734375" lon="20.1582590304315090179443359375">
        <ele>1979.800048828125</ele>
        <time>2026-06-20T08:21:26.000Z</time>
        <extensions>
          <ns3:TrackPointExtension>
            <ns3:atemp>21.0</ns3:atemp>
          </ns3:TrackPointExtension>
        </extensions>
      </trkpt>
      <trkpt lat="42.5398723594844341278076171875" lon="20.15826012007892131805419921875">
        <ele>1979.800048828125</ele>
        <time>2026-06-20T08:21:27.000Z</time>
        <extensions>
          <ns3:TrackPointExtension>
            <ns3:atemp>21.0</ns3:atemp>
          </ns3:TrackPointExtension>
        </extensions>
      </trkpt>
      <trkpt lat="42.53987311385571956634521484375" lon="20.15826079063117504119873046875">
        <ele>1979.800048828125</ele>
        <time>2026-06-20T08:21:28.000Z</time>
        <extensions>
          <ns3:TrackPointExtension>
            <ns3:atemp>21.0</ns3:atemp>
          </ns3:TrackPointExtension>
        </extensions>
      </trkpt>
      <trkpt lat="42.53987311385571956634521484375" lon="20.15826079063117504119873046875">
        <ele>1979.800048828125</ele>
        <time>2026-06-20T08:21:29.000Z</time>
        <extensions>
          <ns3:TrackPointExtension>
            <ns3:atemp>21.0</ns3:atemp>
          </ns3:TrackPointExtension>
        </extensions>
      </trkpt>
      <trkpt lat="42.53987311385571956634521484375" lon="20.15826079063117504119873046875">
        <ele>1979.800048828125</ele>
        <time>2026-06-20T08:21:30.000Z</time>
        <extensions>
          <ns3:TrackPointExtension>
            <ns3:atemp>21.0</ns3:atemp>
          </ns3:TrackPointExtension>
        </extensions>
      </trkpt>
      <trkpt lat="42.539872862398624420166015625" lon="20.15826112590730190277099609375">
        <ele>1979.800048828125</ele>
        <time>2026-06-20T08:21:31.000Z</time>
        <extensions>
          <ns3:TrackPointExtension>
            <ns3:atemp>21.0</ns3:atemp>
          </ns3:TrackPointExtension>
        </extensions>
      </trkpt>
      <trkpt lat="42.53985635004937648773193359375" lon="20.15828560106456279754638671875">
        <ele>1979.800048828125</ele>
        <time>2026-06-20T08:21:32.000Z</time>
        <extensions>
          <ns3:TrackPointExtension>
            <ns3:atemp>21.0</ns3:atemp>
          </ns3:TrackPointExtension>
        </extensions>
      </trkpt>
      <trkpt lat="42.53984679467976093292236328125" lon="20.15829498879611492156982421875">
        <ele>1979.800048828125</ele>
        <time>2026-06-20T08:21:33.000Z</time>
        <extensions>
          <ns3:TrackPointExtension>
            <ns3:atemp>21.0</ns3:atemp>
          </ns3:TrackPointExtension>
        </extensions>
      </trkpt>
      <trkpt lat="42.53983053378760814666748046875" lon="20.15830320306122303009033203125">
        <ele>1979.800048828125</ele>
        <time>2026-06-20T08:21:34.000Z</time>
        <extensions>
          <ns3:TrackPointExtension>
            <ns3:atemp>21.0</ns3:atemp>
          </ns3:TrackPointExtension>
        </extensions>
      </trkpt>
      <trkpt lat="42.53981712274253368377685546875" lon="20.15831577591598033905029296875">
        <ele>1979.5999755859375</ele>
        <time>2026-06-20T08:21:35.000Z</time>
        <extensions>
          <ns3:TrackPointExtension>
            <ns3:atemp>21.0</ns3:atemp>
          </ns3:TrackPointExtension>
        </extensions>
      </trkpt>
      <trkpt lat="42.5398039631545543670654296875" lon="20.15832767821848392486572265625">
        <ele>1979.4000244140625</ele>
        <time>2026-06-20T08:21:36.000Z</time>
        <extensions>
          <ns3:TrackPointExtension>
            <ns3:atemp>21.0</ns3:atemp>
          </ns3:TrackPointExtension>
        </extensions>
      </trkpt>
      <trkpt lat="42.53978426568210124969482421875" lon="20.15833438374102115631103515625">
        <ele>1979.4000244140625</ele>
        <time>2026-06-20T08:21:37.000Z</time>
        <extensions>
          <ns3:TrackPointExtension>
            <ns3:atemp>21.0</ns3:atemp>
          </ns3:TrackPointExtension>
        </extensions>
      </trkpt>
      <trkpt lat="42.53975911997258663177490234375" lon="20.15834092162549495697021484375">
        <ele>1979.199951171875</ele>
        <time>2026-06-20T08:21:38.000Z</time>
        <extensions>
          <ns3:TrackPointExtension>
            <ns3:atemp>21.0</ns3:atemp>
          </ns3:TrackPointExtension>
        </extensions>
      </trkpt>
      <trkpt lat="42.5397370755672454833984375" lon="20.1583539135754108428955078125">
        <ele>1979.199951171875</ele>
        <time>2026-06-20T08:21:39.000Z</time>
        <extensions>
          <ns3:TrackPointExtension>
            <ns3:atemp>21.0</ns3:atemp>
          </ns3:TrackPointExtension>
        </extensions>
      </trkpt>
      <trkpt lat="42.5397154502570629119873046875" lon="20.15837050974369049072265625">
        <ele>1979.199951171875</ele>
        <time>2026-06-20T08:21:40.000Z</time>
        <extensions>
          <ns3:TrackPointExtension>
            <ns3:atemp>21.0</ns3:atemp>
          </ns3:TrackPointExtension>
        </extensions>
      </trkpt>
      <trkpt lat="42.539689801633358001708984375" lon="20.15838350169360637664794921875">
        <ele>1979.199951171875</ele>
        <time>2026-06-20T08:21:41.000Z</time>
        <extensions>
          <ns3:TrackPointExtension>
            <ns3:atemp>21.0</ns3:atemp>
          </ns3:TrackPointExtension>
        </extensions>
      </trkpt>
      <trkpt lat="42.5396624766290187835693359375" lon="20.1583847589790821075439453125">
        <ele>1979.4000244140625</ele>
        <time>2026-06-20T08:21:42.000Z</time>
        <extensions>
          <ns3:TrackPointExtension>
            <ns3:atemp>21.0</ns3:atemp>
          </ns3:TrackPointExtension>
        </extensions>
      </trkpt>
      <trkpt lat="42.53963582217693328857421875" lon="20.15837830491364002227783203125">
        <ele>1979.4000244140625</ele>
        <time>2026-06-20T08:21:43.000Z</time>
        <extensions>
          <ns3:TrackPointExtension>
            <ns3:atemp>21.0</ns3:atemp>
          </ns3:TrackPointExtension>
        </extensions>
      </trkpt>
      <trkpt lat="42.5396088324487209320068359375" lon="20.15837444923818111419677734375">
        <ele>1979.4000244140625</ele>
        <time>2026-06-20T08:21:44.000Z</time>
        <extensions>
          <ns3:TrackPointExtension>
            <ns3:atemp>21.0</ns3:atemp>
          </ns3:TrackPointExtension>
        </extensions>
      </trkpt>
      <trkpt lat="42.53958217799663543701171875" lon="20.1583747006952762603759765625">
        <ele>1979.5999755859375</ele>
        <time>2026-06-20T08:21:45.000Z</time>
        <extensions>
          <ns3:TrackPointExtension>
            <ns3:atemp>21.0</ns3:atemp>
          </ns3:TrackPointExtension>
        </extensions>
      </trkpt>
      <trkpt lat="42.53955527208745479583740234375" lon="20.15838450752198696136474609375">
        <ele>1979.800048828125</ele>
        <time>2026-06-20T08:21:46.000Z</time>
        <extensions>
          <ns3:TrackPointExtension>
            <ns3:atemp>21.0</ns3:atemp>
          </ns3:TrackPointExtension>
        </extensions>
      </trkpt>
      <trkpt lat="42.539530210196971893310546875" lon="20.15840135514736175537109375">
        <ele>1979.800048828125</ele>
        <time>2026-06-20T08:21:47.000Z</time>
        <extensions>
          <ns3:TrackPointExtension>
            <ns3:atemp>21.0</ns3:atemp>
          </ns3:TrackPointExtension>
        </extensions>
      </trkpt>
      <trkpt lat="42.53950380720198154449462890625" lon="20.1584199629724025726318359375">
        <ele>1979.800048828125</ele>
        <time>2026-06-20T08:21:48.000Z</time>
        <extensions>
          <ns3:TrackPointExtension>
            <ns3:atemp>21.0</ns3:atemp>
          </ns3:TrackPointExtension>
        </extensions>
      </trkpt>
      <trkpt lat="42.53947195596992969512939453125" lon="20.158437229692935943603515625">
        <ele>1979.800048828125</ele>
        <time>2026-06-20T08:21:49.000Z</time>
        <extensions>
          <ns3:TrackPointExtension>
            <ns3:atemp>21.0</ns3:atemp>
          </ns3:TrackPointExtension>
        </extensions>
      </trkpt>
      <trkpt lat="42.53943909890949726104736328125" lon="20.15844183973968029022216796875">
        <ele>1979.800048828125</ele>
        <time>2026-06-20T08:21:50.000Z</time>
        <extensions>
          <ns3:TrackPointExtension>
            <ns3:atemp>21.0</ns3:atemp>
          </ns3:TrackPointExtension>
        </extensions>
      </trkpt>
      <trkpt lat="42.5394073314964771270751953125" lon="20.15844351612031459808349609375">
        <ele>1980</ele>
        <time>2026-06-20T08:21:51.000Z</time>
        <extensions>
          <ns3:TrackPointExtension>
            <ns3:atemp>21.0</ns3:atemp>
          </ns3:TrackPointExtension>
        </extensions>
      </trkpt>
      <trkpt lat="42.5393764860928058624267578125" lon="20.15844301320612430572509765625">
        <ele>1980</ele>
        <time>2026-06-20T08:21:52.000Z</time>
        <extensions>
          <ns3:TrackPointExtension>
            <ns3:atemp>21.0</ns3:atemp>
          </ns3:TrackPointExtension>
        </extensions>
      </trkpt>
      <trkpt lat="42.53934421576559543609619140625" lon="20.15844385139644145965576171875">
        <ele>1980</ele>
        <time>2026-06-20T08:21:53.000Z</time>
        <extensions>
          <ns3:TrackPointExtension>
            <ns3:atemp>21.0</ns3:atemp>
          </ns3:TrackPointExtension>
        </extensions>
      </trkpt>
      <trkpt lat="42.539309598505496978759765625" lon="20.1584570109844207763671875">
        <ele>1980.199951171875</ele>
        <time>2026-06-20T08:21:54.000Z</time>
        <extensions>
          <ns3:TrackPointExtension>
            <ns3:atemp>21.0</ns3:atemp>
          </ns3:TrackPointExtension>
        </extensions>
      </trkpt>
      <trkpt lat="42.539267353713512420654296875" lon="20.1584581844508647918701171875">
        <ele>1980</ele>
        <time>2026-06-20T08:21:55.000Z</time>
        <extensions>
          <ns3:TrackPointExtension>
            <ns3:atemp>21.0</ns3:atemp>
          </ns3:TrackPointExtension>
        </extensions>
      </trkpt>
      <trkpt lat="42.53922368399798870086669921875" lon="20.15845407731831073760986328125">
        <ele>1979.800048828125</ele>
        <time>2026-06-20T08:21:56.000Z</time>
        <extensions>
          <ns3:TrackPointExtension>
            <ns3:atemp>21.0</ns3:atemp>
          </ns3:TrackPointExtension>
        </extensions>
      </trkpt>
      <trkpt lat="42.53917808644473552703857421875" lon="20.158443935215473175048828125">
        <ele>1979.4000244140625</ele>
        <time>2026-06-20T08:21:57.000Z</time>
        <extensions>
          <ns3:TrackPointExtension>
            <ns3:atemp>21.0</ns3:atemp>
          </ns3:TrackPointExtension>
        </extensions>
      </trkpt>
      <trkpt lat="42.53914187662303447723388671875" lon="20.1584301888942718505859375">
        <ele>1979</ele>
        <time>2026-06-20T08:21:58.000Z</time>
        <extensions>
          <ns3:TrackPointExtension>
            <ns3:atemp>21.0</ns3:atemp>
          </ns3:TrackPointExtension>
        </extensions>
      </trkpt>
      <trkpt lat="42.53912662155926227569580078125" lon="20.15841971151530742645263671875">
        <ele>1979</ele>
        <time>2026-06-20T08:21:59.000Z</time>
        <extensions>
          <ns3:TrackPointExtension>
            <ns3:atemp>21.0</ns3:atemp>
          </ns3:TrackPointExtension>
        </extensions>
      </trkpt>
      <trkpt lat="42.539122514426708221435546875" lon="20.15841250307857990264892578125">
        <ele>1979</ele>
        <time>2026-06-20T08:22:00.000Z</time>
        <extensions>
          <ns3:TrackPointExtension>
            <ns3:atemp>21.0</ns3:atemp>
          </ns3:TrackPointExtension>
        </extensions>
      </trkpt>
      <trkpt lat="42.539124526083469390869140625" lon="20.15840998850762844085693359375">
        <ele>1979</ele>
        <time>2026-06-20T08:22:01.000Z</time>
        <extensions>
          <ns3:TrackPointExtension>
            <ns3:atemp>21.0</ns3:atemp>
          </ns3:TrackPointExtension>
        </extensions>
      </trkpt>
      <trkpt lat="42.53912444226443767547607421875" lon="20.15840998850762844085693359375">
        <ele>1979</ele>
        <time>2026-06-20T08:22:02.000Z</time>
        <extensions>
          <ns3:TrackPointExtension>
            <ns3:atemp>21.0</ns3:atemp>
          </ns3:TrackPointExtension>
        </extensions>
      </trkpt>
      <trkpt lat="42.5391243584454059600830078125" lon="20.15841007232666015625">
        <ele>1979</ele>
        <time>2026-06-20T08:22:03.000Z</time>
        <extensions>
          <ns3:TrackPointExtension>
            <ns3:atemp>21.0</ns3:atemp>
          </ns3:TrackPointExtension>
        </extensions>
      </trkpt>
      <trkpt lat="42.5391106121242046356201171875" lon="20.158403031527996063232421875">
        <ele>1979</ele>
        <time>2026-06-20T08:22:04.000Z</time>
        <extensions>
          <ns3:TrackPointExtension>
            <ns3:atemp>21.0</ns3:atemp>
          </ns3:TrackPointExtension>
        </extensions>
      </trkpt>
      <trkpt lat="42.5391012243926525115966796875" lon="20.15839825384318828582763671875">
        <ele>1978.800048828125</ele>
        <time>2026-06-20T08:22:05.000Z</time>
        <extensions>
          <ns3:TrackPointExtension>
            <ns3:atemp>21.0</ns3:atemp>
          </ns3:TrackPointExtension>
        </extensions>
      </trkpt>
      <trkpt lat="42.53909896127879619598388671875" lon="20.158394314348697662353515625">
        <ele>1978.800048828125</ele>
        <time>2026-06-20T08:22:06.000Z</time>
        <extensions>
          <ns3:TrackPointExtension>
            <ns3:atemp>21.0</ns3:atemp>
          </ns3:TrackPointExtension>
        </extensions>
      </trkpt>
      <trkpt lat="42.5390988774597644805908203125" lon="20.1583941467106342315673828125">
        <ele>1978.800048828125</ele>
        <time>2026-06-20T08:22:07.000Z</time>
        <extensions>
          <ns3:TrackPointExtension>
            <ns3:atemp>21.0</ns3:atemp>
          </ns3:TrackPointExtension>
        </extensions>
      </trkpt>
      <trkpt lat="42.53908840008080005645751953125" lon="20.158396661281585693359375">
        <ele>1978.800048828125</ele>
        <time>2026-06-20T08:22:08.000Z</time>
        <extensions>
          <ns3:TrackPointExtension>
            <ns3:atemp>21.0</ns3:atemp>
          </ns3:TrackPointExtension>
        </extensions>
      </trkpt>
      <trkpt lat="42.53908194601535797119140625" lon="20.15839825384318828582763671875">
        <ele>1978.800048828125</ele>
        <time>2026-06-20T08:22:09.000Z</time>
        <extensions>
          <ns3:TrackPointExtension>
            <ns3:atemp>21.0</ns3:atemp>
          </ns3:TrackPointExtension>
        </extensions>
      </trkpt>
      <trkpt lat="42.539079599082469940185546875" lon="20.15839640982449054718017578125">
        <ele>1978.800048828125</ele>
        <time>2026-06-20T08:22:10.000Z</time>
        <extensions>
          <ns3:TrackPointExtension>
            <ns3:atemp>21.0</ns3:atemp>
          </ns3:TrackPointExtension>
        </extensions>
      </trkpt>
      <trkpt lat="42.539079599082469940185546875" lon="20.15839640982449054718017578125">
        <ele>1978.5999755859375</ele>
        <time>2026-06-20T08:22:11.000Z</time>
        <extensions>
          <ns3:TrackPointExtension>
            <ns3:atemp>21.0</ns3:atemp>
          </ns3:TrackPointExtension>
        </extensions>
      </trkpt>
      <trkpt lat="42.53907280974090099334716796875" lon="20.1584005169570446014404296875">
        <ele>1978.5999755859375</ele>
        <time>2026-06-20T08:22:12.000Z</time>
        <extensions>
          <ns3:TrackPointExtension>
            <ns3:atemp>21.0</ns3:atemp>
          </ns3:TrackPointExtension>
        </extensions>
      </trkpt>
      <trkpt lat="42.5390626676380634307861328125" lon="20.158407054841518402099609375">
        <ele>1978.5999755859375</ele>
        <time>2026-06-20T08:22:13.000Z</time>
        <extensions>
          <ns3:TrackPointExtension>
            <ns3:atemp>21.0</ns3:atemp>
          </ns3:TrackPointExtension>
        </extensions>
      </trkpt>
      <trkpt lat="42.53906141035258769989013671875" lon="20.15840663574635982513427734375">
        <ele>1978.5999755859375</ele>
        <time>2026-06-20T08:22:14.000Z</time>
        <extensions>
          <ns3:TrackPointExtension>
            <ns3:atemp>21.0</ns3:atemp>
          </ns3:TrackPointExtension>
        </extensions>
      </trkpt>
      <trkpt lat="42.53906141035258769989013671875" lon="20.15840671956539154052734375">
        <ele>1978.5999755859375</ele>
        <time>2026-06-20T08:22:15.000Z</time>
        <extensions>
          <ns3:TrackPointExtension>
            <ns3:atemp>21.0</ns3:atemp>
          </ns3:TrackPointExtension>
        </extensions>
      </trkpt>
      <trkpt lat="42.5390613265335559844970703125" lon="20.1584068872034549713134765625">
        <ele>1978.5999755859375</ele>
        <time>2026-06-20T08:22:16.000Z</time>
        <extensions>
          <ns3:TrackPointExtension>
            <ns3:atemp>21.0</ns3:atemp>
          </ns3:TrackPointExtension>
        </extensions>
      </trkpt>
      <trkpt lat="42.5390519388020038604736328125" lon="20.15842205844819545745849609375">
        <ele>1978.5999755859375</ele>
        <time>2026-06-20T08:22:17.000Z</time>
        <extensions>
          <ns3:TrackPointExtension>
            <ns3:atemp>21.0</ns3:atemp>
          </ns3:TrackPointExtension>
        </extensions>
      </trkpt>
      <trkpt lat="42.5390492565929889678955078125" lon="20.1584249921143054962158203125">
        <ele>1978.5999755859375</ele>
        <time>2026-06-20T08:22:18.000Z</time>
        <extensions>
          <ns3:TrackPointExtension>
            <ns3:atemp>21.0</ns3:atemp>
          </ns3:TrackPointExtension>
        </extensions>
      </trkpt>
      <trkpt lat="42.5390492565929889678955078125" lon="20.15842507593333721160888671875">
        <ele>1978.5999755859375</ele>
        <time>2026-06-20T08:22:19.000Z</time>
        <extensions>
          <ns3:TrackPointExtension>
            <ns3:atemp>21.0</ns3:atemp>
          </ns3:TrackPointExtension>
        </extensions>
      </trkpt>
      <trkpt lat="42.5390492565929889678955078125" lon="20.15842507593333721160888671875">
        <ele>1978.5999755859375</ele>
        <time>2026-06-20T08:22:20.000Z</time>
        <extensions>
          <ns3:TrackPointExtension>
            <ns3:atemp>21.0</ns3:atemp>
          </ns3:TrackPointExtension>
        </extensions>
      </trkpt>
      <trkpt lat="42.5390492565929889678955078125" lon="20.15842541120946407318115234375">
        <ele>1978.5999755859375</ele>
        <time>2026-06-20T08:22:21.000Z</time>
        <extensions>
          <ns3:TrackPointExtension>
            <ns3:atemp>21.0</ns3:atemp>
          </ns3:TrackPointExtension>
        </extensions>
      </trkpt>
      <trkpt lat="42.539037354290485382080078125" lon="20.1584430970251560211181640625">
        <ele>1978.5999755859375</ele>
        <time>2026-06-20T08:22:22.000Z</time>
        <extensions>
          <ns3:TrackPointExtension>
            <ns3:atemp>21.0</ns3:atemp>
          </ns3:TrackPointExtension>
        </extensions>
      </trkpt>
      <trkpt lat="42.5390217639505863189697265625" lon="20.15846438705921173095703125">
        <ele>1978.4000244140625</ele>
        <time>2026-06-20T08:22:23.000Z</time>
        <extensions>
          <ns3:TrackPointExtension>
            <ns3:atemp>21.0</ns3:atemp>
          </ns3:TrackPointExtension>
        </extensions>
      </trkpt>
      <trkpt lat="42.538999803364276885986328125" lon="20.15847285278141498565673828125">
        <ele>1978.199951171875</ele>
        <time>2026-06-20T08:22:24.000Z</time>
        <extensions>
          <ns3:TrackPointExtension>
            <ns3:atemp>21.0</ns3:atemp>
          </ns3:TrackPointExtension>
        </extensions>
      </trkpt>
      <trkpt lat="42.5389731489121913909912109375" lon="20.15847402624785900115966796875">
        <ele>1978.199951171875</ele>
        <time>2026-06-20T08:22:25.000Z</time>
        <extensions>
          <ns3:TrackPointExtension>
            <ns3:atemp>21.0</ns3:atemp>
          </ns3:TrackPointExtension>
        </extensions>
      </trkpt>
      <trkpt lat="42.53894490189850330352783203125" lon="20.1584826596081256866455078125">
        <ele>1977.800048828125</ele>
        <time>2026-06-20T08:22:26.000Z</time>
        <extensions>
          <ns3:TrackPointExtension>
            <ns3:atemp>21.0</ns3:atemp>
          </ns3:TrackPointExtension>
        </extensions>
      </trkpt>
      <trkpt lat="42.53892344422638416290283203125" lon="20.15848509036004543304443359375">
        <ele>1977.5999755859375</ele>
        <time>2026-06-20T08:22:27.000Z</time>
        <extensions>
          <ns3:TrackPointExtension>
            <ns3:atemp>21.0</ns3:atemp>
          </ns3:TrackPointExtension>
        </extensions>
      </trkpt>
      <trkpt lat="42.53891640342772006988525390625" lon="20.158492885529994964599609375">
        <ele>1977.5999755859375</ele>
        <time>2026-06-20T08:22:28.000Z</time>
        <extensions>
          <ns3:TrackPointExtension>
            <ns3:atemp>21.0</ns3:atemp>
          </ns3:TrackPointExtension>
        </extensions>
      </trkpt>
      <trkpt lat="42.53891187720000743865966796875" lon="20.158501602709293365478515625">
        <ele>1977.5999755859375</ele>
        <time>2026-06-20T08:22:29.000Z</time>
        <extensions>
          <ns3:TrackPointExtension>
            <ns3:atemp>21.0</ns3:atemp>
          </ns3:TrackPointExtension>
        </extensions>
      </trkpt>
      <trkpt lat="42.5389081053435802459716796875" lon="20.15850185416638851165771484375">
        <ele>1977.5999755859375</ele>
        <time>2026-06-20T08:22:30.000Z</time>
        <extensions>
          <ns3:TrackPointExtension>
            <ns3:atemp>21.0</ns3:atemp>
          </ns3:TrackPointExtension>
        </extensions>
      </trkpt>
      <trkpt lat="42.53890047781169414520263671875" lon="20.15851358883082866668701171875">
        <ele>1977.800048828125</ele>
        <time>2026-06-20T08:22:31.000Z</time>
        <extensions>
          <ns3:TrackPointExtension>
            <ns3:atemp>21.0</ns3:atemp>
          </ns3:TrackPointExtension>
        </extensions>
      </trkpt>
      <trkpt lat="42.538899891078472137451171875" lon="20.15851945616304874420166015625">
        <ele>1977.5999755859375</ele>
        <time>2026-06-20T08:22:32.000Z</time>
        <extensions>
          <ns3:TrackPointExtension>
            <ns3:atemp>21.0</ns3:atemp>
          </ns3:TrackPointExtension>
        </extensions>
      </trkpt>
      <trkpt lat="42.5388990528881549835205078125" lon="20.15852767042815685272216796875">
        <ele>1977.5999755859375</ele>
        <time>2026-06-20T08:22:33.000Z</time>
        <extensions>
          <ns3:TrackPointExtension>
            <ns3:atemp>21.0</ns3:atemp>
          </ns3:TrackPointExtension>
        </extensions>
      </trkpt>
      <trkpt lat="42.5388946942985057830810546875" lon="20.15853085555136203765869140625">
        <ele>1977.4000244140625</ele>
        <time>2026-06-20T08:22:34.000Z</time>
        <extensions>
          <ns3:TrackPointExtension>
            <ns3:atemp>21.0</ns3:atemp>
          </ns3:TrackPointExtension>
        </extensions>
      </trkpt>
      <trkpt lat="42.53889125771820545196533203125" lon="20.158543847501277923583984375">
        <ele>1977.199951171875</ele>
        <time>2026-06-20T08:22:35.000Z</time>
        <extensions>
          <ns3:TrackPointExtension>
            <ns3:atemp>21.0</ns3:atemp>
          </ns3:TrackPointExtension>
        </extensions>
      </trkpt>
      <trkpt lat="42.53889008425176143646240234375" lon="20.15855650417506694793701171875">
        <ele>1977.199951171875</ele>
        <time>2026-06-20T08:22:36.000Z</time>
        <extensions>
          <ns3:TrackPointExtension>
            <ns3:atemp>21.0</ns3:atemp>
          </ns3:TrackPointExtension>
        </extensions>
      </trkpt>
      <trkpt lat="42.53888891078531742095947265625" lon="20.1585671491920948028564453125">
        <ele>1977</ele>
        <time>2026-06-20T08:22:37.000Z</time>
        <extensions>
          <ns3:TrackPointExtension>
            <ns3:atemp>21.0</ns3:atemp>
          </ns3:TrackPointExtension>
        </extensions>
      </trkpt>
      <trkpt lat="42.53889016807079315185546875" lon="20.1585664786398410797119140625">
        <ele>1977</ele>
        <time>2026-06-20T08:22:38.000Z</time>
        <extensions>
          <ns3:TrackPointExtension>
            <ns3:atemp>21.0</ns3:atemp>
          </ns3:TrackPointExtension>
        </extensions>
      </trkpt>
      <trkpt lat="42.53889008425176143646240234375" lon="20.1585664786398410797119140625">
        <ele>1976.800048828125</ele>
        <time>2026-06-20T08:22:39.000Z</time>
        <extensions>
          <ns3:TrackPointExtension>
            <ns3:atemp>21.0</ns3:atemp>
          </ns3:TrackPointExtension>
        </extensions>
      </trkpt>
      <trkpt lat="42.53889008425176143646240234375" lon="20.1585664786398410797119140625">
        <ele>1976.800048828125</ele>
        <time>2026-06-20T08:22:40.000Z</time>
        <extensions>
          <ns3:TrackPointExtension>
            <ns3:atemp>21.0</ns3:atemp>
          </ns3:TrackPointExtension>
        </extensions>
      </trkpt>
      <trkpt lat="42.53889008425176143646240234375" lon="20.1585664786398410797119140625">
        <ele>1976.800048828125</ele>
        <time>2026-06-20T08:22:41.000Z</time>
        <extensions>
          <ns3:TrackPointExtension>
            <ns3:atemp>21.0</ns3:atemp>
          </ns3:TrackPointExtension>
        </extensions>
      </trkpt>
      <trkpt lat="42.53889008425176143646240234375" lon="20.1585664786398410797119140625">
        <ele>1976.800048828125</ele>
        <time>2026-06-20T08:22:42.000Z</time>
        <extensions>
          <ns3:TrackPointExtension>
            <ns3:atemp>21.0</ns3:atemp>
          </ns3:TrackPointExtension>
        </extensions>
      </trkpt>
      <trkpt lat="42.53889008425176143646240234375" lon="20.1585664786398410797119140625">
        <ele>1976.800048828125</ele>
        <time>2026-06-20T08:22:43.000Z</time>
        <extensions>
          <ns3:TrackPointExtension>
            <ns3:atemp>21.0</ns3:atemp>
          </ns3:TrackPointExtension>
        </extensions>
      </trkpt>
      <trkpt lat="42.53889008425176143646240234375" lon="20.1585664786398410797119140625">
        <ele>1977</ele>
        <time>2026-06-20T08:22:44.000Z</time>
        <extensions>
          <ns3:TrackPointExtension>
            <ns3:atemp>21.0</ns3:atemp>
          </ns3:TrackPointExtension>
        </extensions>
      </trkpt>
      <trkpt lat="42.53889008425176143646240234375" lon="20.1585664786398410797119140625">
        <ele>1977</ele>
        <time>2026-06-20T08:22:45.000Z</time>
        <extensions>
          <ns3:TrackPointExtension>
            <ns3:atemp>21.0</ns3:atemp>
          </ns3:TrackPointExtension>
        </extensions>
      </trkpt>
      <trkpt lat="42.53889008425176143646240234375" lon="20.1585664786398410797119140625">
        <ele>1977</ele>
        <time>2026-06-20T08:22:46.000Z</time>
        <extensions>
          <ns3:TrackPointExtension>
            <ns3:atemp>21.0</ns3:atemp>
          </ns3:TrackPointExtension>
        </extensions>
      </trkpt>
      <trkpt lat="42.53889008425176143646240234375" lon="20.1585664786398410797119140625">
        <ele>1977</ele>
        <time>2026-06-20T08:22:47.000Z</time>
        <extensions>
          <ns3:TrackPointExtension>
            <ns3:atemp>21.0</ns3:atemp>
          </ns3:TrackPointExtension>
        </extensions>
      </trkpt>
      <trkpt lat="42.5388896651566028594970703125" lon="20.1585669815540313720703125">
        <ele>1977</ele>
        <time>2026-06-20T08:22:48.000Z</time>
        <extensions>
          <ns3:TrackPointExtension>
            <ns3:atemp>21.0</ns3:atemp>
          </ns3:TrackPointExtension>
        </extensions>
      </trkpt>
      <trkpt lat="42.53889192827045917510986328125" lon="20.15858776867389678955078125">
        <ele>1977</ele>
        <time>2026-06-20T08:22:49.000Z</time>
        <extensions>
          <ns3:TrackPointExtension>
            <ns3:atemp>21.0</ns3:atemp>
          </ns3:TrackPointExtension>
        </extensions>
      </trkpt>
      <trkpt lat="42.5389017350971698760986328125" lon="20.158604197204113006591796875">
        <ele>1976.800048828125</ele>
        <time>2026-06-20T08:22:50.000Z</time>
        <extensions>
          <ns3:TrackPointExtension>
            <ns3:atemp>21.0</ns3:atemp>
          </ns3:TrackPointExtension>
        </extensions>
      </trkpt>
      <trkpt lat="42.538905255496501922607421875" lon="20.15862339176237583160400390625">
        <ele>1976.800048828125</ele>
        <time>2026-06-20T08:22:51.000Z</time>
        <extensions>
          <ns3:TrackPointExtension>
            <ns3:atemp>21.0</ns3:atemp>
          </ns3:TrackPointExtension>
        </extensions>
      </trkpt>
      <trkpt lat="42.53891338594257831573486328125" lon="20.15865021385252475738525390625">
        <ele>1976.5999755859375</ele>
        <time>2026-06-20T08:22:52.000Z</time>
        <extensions>
          <ns3:TrackPointExtension>
            <ns3:atemp>21.0</ns3:atemp>
          </ns3:TrackPointExtension>
        </extensions>
      </trkpt>
      <trkpt lat="42.5389188341796398162841796875" lon="20.15867896378040313720703125">
        <ele>1976.4000244140625</ele>
        <time>2026-06-20T08:22:53.000Z</time>
        <extensions>
          <ns3:TrackPointExtension>
            <ns3:atemp>21.0</ns3:atemp>
          </ns3:TrackPointExtension>
        </extensions>
      </trkpt>
      <trkpt lat="42.5389171577990055084228515625" lon="20.15871609561145305633544921875">
        <ele>1976.199951171875</ele>
        <time>2026-06-20T08:22:54.000Z</time>
        <extensions>
          <ns3:TrackPointExtension>
            <ns3:atemp>21.0</ns3:atemp>
          </ns3:TrackPointExtension>
        </extensions>
      </trkpt>
      <trkpt lat="42.5389082729816436767578125" lon="20.1587528921663761138916015625">
        <ele>1976.199951171875</ele>
        <time>2026-06-20T08:22:55.000Z</time>
        <extensions>
          <ns3:TrackPointExtension>
            <ns3:atemp>21.0</ns3:atemp>
          </ns3:TrackPointExtension>
        </extensions>
      </trkpt>
      <trkpt lat="42.5389013998210430145263671875" lon="20.15878935344517230987548828125">
        <ele>1976.199951171875</ele>
        <time>2026-06-20T08:22:56.000Z</time>
        <extensions>
          <ns3:TrackPointExtension>
            <ns3:atemp>21.0</ns3:atemp>
          </ns3:TrackPointExtension>
        </extensions>
      </trkpt>
      <trkpt lat="42.53888480365276336669921875" lon="20.1588276587426662445068359375">
        <ele>1976.199951171875</ele>
        <time>2026-06-20T08:22:57.000Z</time>
        <extensions>
          <ns3:TrackPointExtension>
            <ns3:atemp>21.0</ns3:atemp>
          </ns3:TrackPointExtension>
        </extensions>
      </trkpt>
      <trkpt lat="42.53887818194925785064697265625" lon="20.1588642038404941558837890625">
        <ele>1976</ele>
        <time>2026-06-20T08:22:58.000Z</time>
        <extensions>
          <ns3:TrackPointExtension>
            <ns3:atemp>21.0</ns3:atemp>
          </ns3:TrackPointExtension>
        </extensions>
      </trkpt>
      <trkpt lat="42.538871057331562042236328125" lon="20.158900581300258636474609375">
        <ele>1976</ele>
        <time>2026-06-20T08:22:59.000Z</time>
        <extensions>
          <ns3:TrackPointExtension>
            <ns3:atemp>21.0</ns3:atemp>
          </ns3:TrackPointExtension>
        </extensions>
      </trkpt>
      <trkpt lat="42.53886393271386623382568359375" lon="20.15892564319074153900146484375">
        <ele>1975.800048828125</ele>
        <time>2026-06-20T08:23:00.000Z</time>
        <extensions>
          <ns3:TrackPointExtension>
            <ns3:atemp>21.0</ns3:atemp>
          </ns3:TrackPointExtension>
        </extensions>
      </trkpt>
      <trkpt lat="42.53885018639266490936279296875" lon="20.15895497985184192657470703125">
        <ele>1975.4000244140625</ele>
        <time>2026-06-20T08:23:01.000Z</time>
        <extensions>
          <ns3:TrackPointExtension>
            <ns3:atemp>21.0</ns3:atemp>
          </ns3:TrackPointExtension>
        </extensions>
      </trkpt>
      <trkpt lat="42.5388323329389095306396484375" lon="20.1589832268655300140380859375">
        <ele>1975.199951171875</ele>
        <time>2026-06-20T08:23:02.000Z</time>
        <extensions>
          <ns3:TrackPointExtension>
            <ns3:atemp>21.0</ns3:atemp>
          </ns3:TrackPointExtension>
        </extensions>
      </trkpt>
      <trkpt lat="42.53882043063640594482421875" lon="20.15901499427855014801025390625">
        <ele>1975</ele>
        <time>2026-06-20T08:23:03.000Z</time>
        <extensions>
          <ns3:TrackPointExtension>
            <ns3:atemp>21.0</ns3:atemp>
          </ns3:TrackPointExtension>
        </extensions>
      </trkpt>
      <trkpt lat="42.53880743868649005889892578125" lon="20.15904642641544342041015625">
        <ele>1974.800048828125</ele>
        <time>2026-06-20T08:23:04.000Z</time>
        <extensions>
          <ns3:TrackPointExtension>
            <ns3:atemp>21.0</ns3:atemp>
          </ns3:TrackPointExtension>
        </extensions>
      </trkpt>
      <trkpt lat="42.53879402764141559600830078125" lon="20.15908406116068363189697265625">
        <ele>1974.4000244140625</ele>
        <time>2026-06-20T08:23:05.000Z</time>
        <extensions>
          <ns3:TrackPointExtension>
            <ns3:atemp>21.0</ns3:atemp>
          </ns3:TrackPointExtension>
        </extensions>
      </trkpt>
      <trkpt lat="42.538774497807025909423828125" lon="20.15911641530692577362060546875">
        <ele>1974.199951171875</ele>
        <time>2026-06-20T08:23:06.000Z</time>
        <extensions>
          <ns3:TrackPointExtension>
            <ns3:atemp>21.0</ns3:atemp>
          </ns3:TrackPointExtension>
        </extensions>
      </trkpt>
      <trkpt lat="42.5387528724968433380126953125" lon="20.15914005227386951446533203125">
        <ele>1974</ele>
        <time>2026-06-20T08:23:07.000Z</time>
        <extensions>
          <ns3:TrackPointExtension>
            <ns3:atemp>21.0</ns3:atemp>
          </ns3:TrackPointExtension>
        </extensions>
      </trkpt>
      <trkpt lat="42.538726218044757843017578125" lon="20.1591575704514980316162109375">
        <ele>1973.5999755859375</ele>
        <time>2026-06-20T08:23:08.000Z</time>
        <extensions>
          <ns3:TrackPointExtension>
            <ns3:atemp>21.0</ns3:atemp>
          </ns3:TrackPointExtension>
        </extensions>
      </trkpt>
      <trkpt lat="42.53870467655360698699951171875" lon="20.15918514691293239593505859375">
        <ele>1973.4000244140625</ele>
        <time>2026-06-20T08:23:09.000Z</time>
        <extensions>
          <ns3:TrackPointExtension>
            <ns3:atemp>21.0</ns3:atemp>
          </ns3:TrackPointExtension>
        </extensions>
      </trkpt>
      <trkpt lat="42.5386874936521053314208984375" lon="20.1592098735272884368896484375">
        <ele>1973</ele>
        <time>2026-06-20T08:23:10.000Z</time>
        <extensions>
          <ns3:TrackPointExtension>
            <ns3:atemp>21.0</ns3:atemp>
          </ns3:TrackPointExtension>
        </extensions>
      </trkpt>
      <trkpt lat="42.538682632148265838623046875" lon="20.15921406447887420654296875">
        <ele>1973</ele>
        <time>2026-06-20T08:23:11.000Z</time>
        <extensions>
          <ns3:TrackPointExtension>
            <ns3:atemp>21.0</ns3:atemp>
          </ns3:TrackPointExtension>
        </extensions>
      </trkpt>
      <trkpt lat="42.53868087194859981536865234375" lon="20.159217752516269683837890625">
        <ele>1972.800048828125</ele>
        <time>2026-06-20T08:23:12.000Z</time>
        <extensions>
          <ns3:TrackPointExtension>
            <ns3:atemp>21.0</ns3:atemp>
          </ns3:TrackPointExtension>
        </extensions>
      </trkpt>
      <trkpt lat="42.53868087194859981536865234375" lon="20.159217752516269683837890625">
        <ele>1972.5999755859375</ele>
        <time>2026-06-20T08:23:13.000Z</time>
        <extensions>
          <ns3:TrackPointExtension>
            <ns3:atemp>21.0</ns3:atemp>
          </ns3:TrackPointExtension>
        </extensions>
      </trkpt>
      <trkpt lat="42.53868087194859981536865234375" lon="20.159217752516269683837890625">
        <ele>1972.5999755859375</ele>
        <time>2026-06-20T08:23:14.000Z</time>
        <extensions>
          <ns3:TrackPointExtension>
            <ns3:atemp>21.0</ns3:atemp>
          </ns3:TrackPointExtension>
        </extensions>
      </trkpt>
      <trkpt lat="42.53868087194859981536865234375" lon="20.159217752516269683837890625">
        <ele>1972.4000244140625</ele>
        <time>2026-06-20T08:23:15.000Z</time>
        <extensions>
          <ns3:TrackPointExtension>
            <ns3:atemp>21.0</ns3:atemp>
          </ns3:TrackPointExtension>
        </extensions>
      </trkpt>
      <trkpt lat="42.53868087194859981536865234375" lon="20.159217752516269683837890625">
        <ele>1972.4000244140625</ele>
        <time>2026-06-20T08:23:16.000Z</time>
        <extensions>
          <ns3:TrackPointExtension>
            <ns3:atemp>21.0</ns3:atemp>
          </ns3:TrackPointExtension>
        </extensions>
      </trkpt>
      <trkpt lat="42.53868087194859981536865234375" lon="20.159217752516269683837890625">
        <ele>1972.4000244140625</ele>
        <time>2026-06-20T08:23:17.000Z</time>
        <extensions>
          <ns3:TrackPointExtension>
            <ns3:atemp>21.0</ns3:atemp>
          </ns3:TrackPointExtension>
        </extensions>
      </trkpt>
      <trkpt lat="42.53868087194859981536865234375" lon="20.159217752516269683837890625">
        <ele>1972.4000244140625</ele>
        <time>2026-06-20T08:23:18.000Z</time>
        <extensions>
          <ns3:TrackPointExtension>
            <ns3:atemp>21.0</ns3:atemp>
          </ns3:TrackPointExtension>
        </extensions>
      </trkpt>
      <trkpt lat="42.53868087194859981536865234375" lon="20.159217752516269683837890625">
        <ele>1972.4000244140625</ele>
        <time>2026-06-20T08:23:19.000Z</time>
        <extensions>
          <ns3:TrackPointExtension>
            <ns3:atemp>21.0</ns3:atemp>
          </ns3:TrackPointExtension>
        </extensions>
      </trkpt>
      <trkpt lat="42.53868087194859981536865234375" lon="20.159217752516269683837890625">
        <ele>1972.4000244140625</ele>
        <time>2026-06-20T08:23:20.000Z</time>
        <extensions>
          <ns3:TrackPointExtension>
            <ns3:atemp>21.0</ns3:atemp>
          </ns3:TrackPointExtension>
        </extensions>
      </trkpt>
      <trkpt lat="42.53868087194859981536865234375" lon="20.159217752516269683837890625">
        <ele>1972.4000244140625</ele>
        <time>2026-06-20T08:23:21.000Z</time>
        <extensions>
          <ns3:TrackPointExtension>
            <ns3:atemp>21.0</ns3:atemp>
          </ns3:TrackPointExtension>
        </extensions>
      </trkpt>
      <trkpt lat="42.53868036903440952301025390625" lon="20.15921833924949169158935546875">
        <ele>1972.4000244140625</ele>
        <time>2026-06-20T08:23:22.000Z</time>
        <extensions>
          <ns3:TrackPointExtension>
            <ns3:atemp>21.0</ns3:atemp>
          </ns3:TrackPointExtension>
        </extensions>
      </trkpt>
      <trkpt lat="42.5386683829128742218017578125" lon="20.159233510494232177734375">
        <ele>1972.4000244140625</ele>
        <time>2026-06-20T08:23:23.000Z</time>
        <extensions>
          <ns3:TrackPointExtension>
            <ns3:atemp>21.0</ns3:atemp>
          </ns3:TrackPointExtension>
        </extensions>
      </trkpt>
      <trkpt lat="42.5386522896587848663330078125" lon="20.159253962337970733642578125">
        <ele>1972.199951171875</ele>
        <time>2026-06-20T08:23:24.000Z</time>
        <extensions>
          <ns3:TrackPointExtension>
            <ns3:atemp>21.0</ns3:atemp>
          </ns3:TrackPointExtension>
        </extensions>
      </trkpt>
      <trkpt lat="42.53863544203341007232666015625" lon="20.15926980413496494293212890625">
        <ele>1972</ele>
        <time>2026-06-20T08:23:25.000Z</time>
        <extensions>
          <ns3:TrackPointExtension>
            <ns3:atemp>21.0</ns3:atemp>
          </ns3:TrackPointExtension>
        </extensions>
      </trkpt>
      <trkpt lat="42.53861348144710063934326171875" lon="20.15928723849356174468994140625">
        <ele>1972</ele>
        <time>2026-06-20T08:23:26.000Z</time>
        <extensions>
          <ns3:TrackPointExtension>
            <ns3:atemp>21.0</ns3:atemp>
          </ns3:TrackPointExtension>
        </extensions>
      </trkpt>
      <trkpt lat="42.53858976066112518310546875" lon="20.15930484049022197723388671875">
        <ele>1971.800048828125</ele>
        <time>2026-06-20T08:23:27.000Z</time>
        <extensions>
          <ns3:TrackPointExtension>
            <ns3:atemp>21.0</ns3:atemp>
          </ns3:TrackPointExtension>
        </extensions>
      </trkpt>
      <trkpt lat="42.53857073374092578887939453125" lon="20.15933468006551265716552734375">
        <ele>1971.5999755859375</ele>
        <time>2026-06-20T08:23:28.000Z</time>
        <extensions>
          <ns3:TrackPointExtension>
            <ns3:atemp>21.0</ns3:atemp>
          </ns3:TrackPointExtension>
        </extensions>
      </trkpt>
      <trkpt lat="42.53854743205010890960693359375" lon="20.15937306918203830718994140625">
        <ele>1971.4000244140625</ele>
        <time>2026-06-20T08:23:29.000Z</time>
        <extensions>
          <ns3:TrackPointExtension>
            <ns3:atemp>21.0</ns3:atemp>
          </ns3:TrackPointExtension>
        </extensions>
      </trkpt>
      <trkpt lat="42.5385144911706447601318359375" lon="20.1594080217182636260986328125">
        <ele>1971</ele>
        <time>2026-06-20T08:23:30.000Z</time>
        <extensions>
          <ns3:TrackPointExtension>
            <ns3:atemp>21.0</ns3:atemp>
          </ns3:TrackPointExtension>
        </extensions>
      </trkpt>
      <trkpt lat="42.53848440013825893402099609375" lon="20.15944096259772777557373046875">
        <ele>1970.800048828125</ele>
        <time>2026-06-20T08:23:31.000Z</time>
        <extensions>
          <ns3:TrackPointExtension>
            <ns3:atemp>21.0</ns3:atemp>
          </ns3:TrackPointExtension>
        </extensions>
      </trkpt>
      <trkpt lat="42.53845707513391971588134765625" lon="20.15947918407618999481201171875">
        <ele>1970.4000244140625</ele>
        <time>2026-06-20T08:23:32.000Z</time>
        <extensions>
          <ns3:TrackPointExtension>
            <ns3:atemp>21.0</ns3:atemp>
          </ns3:TrackPointExtension>
        </extensions>
      </trkpt>
      <trkpt lat="42.53842723555862903594970703125" lon="20.1595189981162548065185546875">
        <ele>1970.4000244140625</ele>
        <time>2026-06-20T08:23:33.000Z</time>
        <extensions>
          <ns3:TrackPointExtension>
            <ns3:atemp>21.0</ns3:atemp>
          </ns3:TrackPointExtension>
        </extensions>
      </trkpt>
      <trkpt lat="42.53839873708784580230712890625" lon="20.15955738723278045654296875">
        <ele>1970.199951171875</ele>
        <time>2026-06-20T08:23:34.000Z</time>
        <extensions>
          <ns3:TrackPointExtension>
            <ns3:atemp>21.0</ns3:atemp>
          </ns3:TrackPointExtension>
        </extensions>
      </trkpt>
      <trkpt lat="42.53836470656096935272216796875" lon="20.15959720127284526824951171875">
        <ele>1970</ele>
        <time>2026-06-20T08:23:35.000Z</time>
        <extensions>
          <ns3:TrackPointExtension>
            <ns3:atemp>21.0</ns3:atemp>
          </ns3:TrackPointExtension>
        </extensions>
      </trkpt>
      <trkpt lat="42.53832547925412654876708984375" lon="20.15962444245815277099609375">
        <ele>1969.800048828125</ele>
        <time>2026-06-20T08:23:36.000Z</time>
        <extensions>
          <ns3:TrackPointExtension>
            <ns3:atemp>21.0</ns3:atemp>
          </ns3:TrackPointExtension>
        </extensions>
      </trkpt>
      <trkpt lat="42.538286335766315460205078125" lon="20.15965503640472888946533203125">
        <ele>1969.5999755859375</ele>
        <time>2026-06-20T08:23:37.000Z</time>
        <extensions>
          <ns3:TrackPointExtension>
            <ns3:atemp>21.0</ns3:atemp>
          </ns3:TrackPointExtension>
        </extensions>
      </trkpt>
      <trkpt lat="42.5382479466497898101806640625" lon="20.15968102030456066131591796875">
        <ele>1969.4000244140625</ele>
        <time>2026-06-20T08:23:38.000Z</time>
        <extensions>
          <ns3:TrackPointExtension>
            <ns3:atemp>21.0</ns3:atemp>
          </ns3:TrackPointExtension>
        </extensions>
      </trkpt>
      <trkpt lat="42.53821148537099361419677734375" lon="20.1597188226878643035888671875">
        <ele>1969.199951171875</ele>
        <time>2026-06-20T08:23:39.000Z</time>
        <extensions>
          <ns3:TrackPointExtension>
            <ns3:atemp>21.0</ns3:atemp>
          </ns3:TrackPointExtension>
        </extensions>
      </trkpt>
      <trkpt lat="42.5381684862077236175537109375" lon="20.159755535423755645751953125">
        <ele>1969.199951171875</ele>
        <time>2026-06-20T08:23:40.000Z</time>
        <extensions>
          <ns3:TrackPointExtension>
            <ns3:atemp>21.0</ns3:atemp>
          </ns3:TrackPointExtension>
        </extensions>
      </trkpt>
      <trkpt lat="42.53813101910054683685302734375" lon="20.15979602001607418060302734375">
        <ele>1969</ele>
        <time>2026-06-20T08:23:41.000Z</time>
        <extensions>
          <ns3:TrackPointExtension>
            <ns3:atemp>21.0</ns3:atemp>
          </ns3:TrackPointExtension>
        </extensions>
      </trkpt>
      <trkpt lat="42.53810293972492218017578125" lon="20.15984597615897655487060546875">
        <ele>1969</ele>
        <time>2026-06-20T08:23:42.000Z</time>
        <extensions>
          <ns3:TrackPointExtension>
            <ns3:atemp>21.0</ns3:atemp>
          </ns3:TrackPointExtension>
        </extensions>
      </trkpt>
      <trkpt lat="42.53807804547250270843505859375" lon="20.1598918251693248748779296875">
        <ele>1969</ele>
        <time>2026-06-20T08:23:43.000Z</time>
        <extensions>
          <ns3:TrackPointExtension>
            <ns3:atemp>21.0</ns3:atemp>
          </ns3:TrackPointExtension>
        </extensions>
      </trkpt>
      <trkpt lat="42.538059018552303314208984375" lon="20.15993650071322917938232421875">
        <ele>1969</ele>
        <time>2026-06-20T08:23:44.000Z</time>
        <extensions>
          <ns3:TrackPointExtension>
            <ns3:atemp>21.0</ns3:atemp>
          </ns3:TrackPointExtension>
        </extensions>
      </trkpt>
      <trkpt lat="42.53804116509854793548583984375" lon="20.15998561866581439971923828125">
        <ele>1969</ele>
        <time>2026-06-20T08:23:45.000Z</time>
        <extensions>
          <ns3:TrackPointExtension>
            <ns3:atemp>21.0</ns3:atemp>
          </ns3:TrackPointExtension>
        </extensions>
      </trkpt>
      <trkpt lat="42.5380233116447925567626953125" lon="20.16004228033125400543212890625">
        <ele>1968.800048828125</ele>
        <time>2026-06-20T08:23:46.000Z</time>
        <extensions>
          <ns3:TrackPointExtension>
            <ns3:atemp>21.0</ns3:atemp>
          </ns3:TrackPointExtension>
        </extensions>
      </trkpt>
      <trkpt lat="42.5380082242190837860107421875" lon="20.1601043902337551116943359375">
        <ele>1968.800048828125</ele>
        <time>2026-06-20T08:23:47.000Z</time>
        <extensions>
          <ns3:TrackPointExtension>
            <ns3:atemp>21.0</ns3:atemp>
          </ns3:TrackPointExtension>
        </extensions>
      </trkpt>
      <trkpt lat="42.53799640573561191558837890625" lon="20.16015208326280117034912109375">
        <ele>1968.5999755859375</ele>
        <time>2026-06-20T08:23:48.000Z</time>
        <extensions>
          <ns3:TrackPointExtension>
            <ns3:atemp>21.0</ns3:atemp>
          </ns3:TrackPointExtension>
        </extensions>
      </trkpt>
      <trkpt lat="42.53798215650022029876708984375" lon="20.16020379960536956787109375">
        <ele>1968.5999755859375</ele>
        <time>2026-06-20T08:23:49.000Z</time>
        <extensions>
          <ns3:TrackPointExtension>
            <ns3:atemp>21.0</ns3:atemp>
          </ns3:TrackPointExtension>
        </extensions>
      </trkpt>
      <trkpt lat="42.53796748816967010498046875" lon="20.16025132499635219573974609375">
        <ele>1968.5999755859375</ele>
        <time>2026-06-20T08:23:50.000Z</time>
        <extensions>
          <ns3:TrackPointExtension>
            <ns3:atemp>21.0</ns3:atemp>
          </ns3:TrackPointExtension>
        </extensions>
      </trkpt>
      <trkpt lat="42.53795541822910308837890625" lon="20.16030899249017238616943359375">
        <ele>1968.5999755859375</ele>
        <time>2026-06-20T08:23:51.000Z</time>
        <extensions>
          <ns3:TrackPointExtension>
            <ns3:atemp>21.0</ns3:atemp>
          </ns3:TrackPointExtension>
        </extensions>
      </trkpt>
      <trkpt lat="42.53794276155531406402587890625" lon="20.16037018038332462310791015625">
        <ele>1968.5999755859375</ele>
        <time>2026-06-20T08:23:52.000Z</time>
        <extensions>
          <ns3:TrackPointExtension>
            <ns3:atemp>21.0</ns3:atemp>
          </ns3:TrackPointExtension>
        </extensions>
      </trkpt>
      <trkpt lat="42.53793018870055675506591796875" lon="20.16042382456362247467041015625">
        <ele>1968.4000244140625</ele>
        <time>2026-06-20T08:23:53.000Z</time>
        <extensions>
          <ns3:TrackPointExtension>
            <ns3:atemp>21.0</ns3:atemp>
          </ns3:TrackPointExtension>
        </extensions>
      </trkpt>
      <trkpt lat="42.5379270873963832855224609375" lon="20.16047478653490543365478515625">
        <ele>1968.199951171875</ele>
        <time>2026-06-20T08:23:54.000Z</time>
        <extensions>
          <ns3:TrackPointExtension>
            <ns3:atemp>21.0</ns3:atemp>
          </ns3:TrackPointExtension>
        </extensions>
      </trkpt>
      <trkpt lat="42.5379230640828609466552734375" lon="20.16051703132688999176025390625">
        <ele>1968</ele>
        <time>2026-06-20T08:23:55.000Z</time>
        <extensions>
          <ns3:TrackPointExtension>
            <ns3:atemp>21.0</ns3:atemp>
          </ns3:TrackPointExtension>
        </extensions>
      </trkpt>
      <trkpt lat="42.5379176996648311614990234375" lon="20.1605536602437496185302734375">
        <ele>1967.5999755859375</ele>
        <time>2026-06-20T08:23:56.000Z</time>
        <extensions>
          <ns3:TrackPointExtension>
            <ns3:atemp>21.0</ns3:atemp>
          </ns3:TrackPointExtension>
        </extensions>
      </trkpt>
      <trkpt lat="42.5379113294184207916259765625" lon="20.1605875231325626373291015625">
        <ele>1967.4000244140625</ele>
        <time>2026-06-20T08:23:57.000Z</time>
        <extensions>
          <ns3:TrackPointExtension>
            <ns3:atemp>21.0</ns3:atemp>
          </ns3:TrackPointExtension>
        </extensions>
      </trkpt>
      <trkpt lat="42.53791174851357936859130859375" lon="20.1606176979839801788330078125">
        <ele>1967.199951171875</ele>
        <time>2026-06-20T08:23:58.000Z</time>
        <extensions>
          <ns3:TrackPointExtension>
            <ns3:atemp>21.0</ns3:atemp>
          </ns3:TrackPointExtension>
        </extensions>
      </trkpt>
      <trkpt lat="42.53790688700973987579345703125" lon="20.16065172851085662841796875">
        <ele>1967</ele>
        <time>2026-06-20T08:23:59.000Z</time>
        <extensions>
          <ns3:TrackPointExtension>
            <ns3:atemp>21.0</ns3:atemp>
          </ns3:TrackPointExtension>
        </extensions>
      </trkpt>
      <trkpt lat="42.5379051268100738525390625" lon="20.16069330275058746337890625">
        <ele>1966.5999755859375</ele>
        <time>2026-06-20T08:24:00.000Z</time>
        <extensions>
          <ns3:TrackPointExtension>
            <ns3:atemp>21.0</ns3:atemp>
          </ns3:TrackPointExtension>
        </extensions>
      </trkpt>
      <trkpt lat="42.53790034912526607513427734375" lon="20.160741917788982391357421875">
        <ele>1966.4000244140625</ele>
        <time>2026-06-20T08:24:01.000Z</time>
        <extensions>
          <ns3:TrackPointExtension>
            <ns3:atemp>21.0</ns3:atemp>
          </ns3:TrackPointExtension>
        </extensions>
      </trkpt>
      <trkpt lat="42.53789146430790424346923828125" lon="20.160793550312519073486328125">
        <ele>1966</ele>
        <time>2026-06-20T08:24:02.000Z</time>
        <extensions>
          <ns3:TrackPointExtension>
            <ns3:atemp>21.0</ns3:atemp>
          </ns3:TrackPointExtension>
        </extensions>
      </trkpt>
      <trkpt lat="42.53788325004279613494873046875" lon="20.16086001880466938018798828125">
        <ele>1965.5999755859375</ele>
        <time>2026-06-20T08:24:03.000Z</time>
        <extensions>
          <ns3:TrackPointExtension>
            <ns3:atemp>21.0</ns3:atemp>
          </ns3:TrackPointExtension>
        </extensions>
      </trkpt>
      <trkpt lat="42.53786900080740451812744140625" lon="20.16092657111585140228271484375">
        <ele>1965</ele>
        <time>2026-06-20T08:24:04.000Z</time>
        <extensions>
          <ns3:TrackPointExtension>
            <ns3:atemp>21.0</ns3:atemp>
          </ns3:TrackPointExtension>
        </extensions>
      </trkpt>
      <trkpt lat="42.53785441629588603973388671875" lon="20.16099245287477970123291015625">
        <ele>1964.5999755859375</ele>
        <time>2026-06-20T08:24:05.000Z</time>
        <extensions>
          <ns3:TrackPointExtension>
            <ns3:atemp>21.0</ns3:atemp>
          </ns3:TrackPointExtension>
        </extensions>
      </trkpt>
      <trkpt lat="42.53784636966884136199951171875" lon="20.1610600948333740234375">
        <ele>1964.199951171875</ele>
        <time>2026-06-20T08:24:06.000Z</time>
        <extensions>
          <ns3:TrackPointExtension>
            <ns3:atemp>21.0</ns3:atemp>
          </ns3:TrackPointExtension>
        </extensions>
      </trkpt>
      <trkpt lat="42.53784402273595333099365234375" lon="20.16112723387777805328369140625">
        <ele>1963.800048828125</ele>
        <time>2026-06-20T08:24:07.000Z</time>
        <extensions>
          <ns3:TrackPointExtension>
            <ns3:atemp>21.0</ns3:atemp>
          </ns3:TrackPointExtension>
        </extensions>
      </trkpt>
      <trkpt lat="42.5378392450511455535888671875" lon="20.16119043342769145965576171875">
        <ele>1963.4000244140625</ele>
        <time>2026-06-20T08:24:08.000Z</time>
        <extensions>
          <ns3:TrackPointExtension>
            <ns3:atemp>21.0</ns3:atemp>
          </ns3:TrackPointExtension>
        </extensions>
      </trkpt>
      <trkpt lat="42.53783547319471836090087890625" lon="20.16123368404805660247802734375">
        <ele>1963.4000244140625</ele>
        <time>2026-06-20T08:24:09.000Z</time>
        <extensions>
          <ns3:TrackPointExtension>
            <ns3:atemp>21.0</ns3:atemp>
          </ns3:TrackPointExtension>
        </extensions>
      </trkpt>
      <trkpt lat="42.5378358922898769378662109375" lon="20.16125799156725406646728515625">
        <ele>1963.4000244140625</ele>
        <time>2026-06-20T08:24:10.000Z</time>
        <extensions>
          <ns3:TrackPointExtension>
            <ns3:atemp>21.0</ns3:atemp>
          </ns3:TrackPointExtension>
        </extensions>
      </trkpt>
      <trkpt lat="42.53783714957535266876220703125" lon="20.1612802036106586456298828125">
        <ele>1963.5999755859375</ele>
        <time>2026-06-20T08:24:11.000Z</time>
        <extensions>
          <ns3:TrackPointExtension>
            <ns3:atemp>21.0</ns3:atemp>
          </ns3:TrackPointExtension>
        </extensions>
      </trkpt>
      <trkpt lat="42.5378368981182575225830078125" lon="20.1612999849021434783935546875">
        <ele>1963.800048828125</ele>
        <time>2026-06-20T08:24:12.000Z</time>
        <extensions>
          <ns3:TrackPointExtension>
            <ns3:atemp>21.0</ns3:atemp>
          </ns3:TrackPointExtension>
        </extensions>
      </trkpt>
      <trkpt lat="42.53783471882343292236328125" lon="20.16132722608745098114013671875">
        <ele>1964.199951171875</ele>
        <time>2026-06-20T08:24:13.000Z</time>
        <extensions>
          <ns3:TrackPointExtension>
            <ns3:atemp>21.0</ns3:atemp>
          </ns3:TrackPointExtension>
        </extensions>
      </trkpt>
      <trkpt lat="42.53784066997468471527099609375" lon="20.16136159189045429229736328125">
        <ele>1964.4000244140625</ele>
        <time>2026-06-20T08:24:14.000Z</time>
        <extensions>
          <ns3:TrackPointExtension>
            <ns3:atemp>21.0</ns3:atemp>
          </ns3:TrackPointExtension>
        </extensions>
      </trkpt>
      <trkpt lat="42.5378415919840335845947265625" lon="20.16140098683536052703857421875">
        <ele>1964.5999755859375</ele>
        <time>2026-06-20T08:24:15.000Z</time>
        <extensions>
          <ns3:TrackPointExtension>
            <ns3:atemp>21.0</ns3:atemp>
          </ns3:TrackPointExtension>
        </extensions>
      </trkpt>
      <trkpt lat="42.53783798776566982269287109375" lon="20.16143627464771270751953125">
        <ele>1964.5999755859375</ele>
        <time>2026-06-20T08:24:16.000Z</time>
        <extensions>
          <ns3:TrackPointExtension>
            <ns3:atemp>21.0</ns3:atemp>
          </ns3:TrackPointExtension>
        </extensions>
      </trkpt>
      <trkpt lat="42.53784569911658763885498046875" lon="20.1614682935178279876708984375">
        <ele>1964.5999755859375</ele>
        <time>2026-06-20T08:24:17.000Z</time>
        <extensions>
          <ns3:TrackPointExtension>
            <ns3:atemp>21.0</ns3:atemp>
          </ns3:TrackPointExtension>
        </extensions>
      </trkpt>
      <trkpt lat="42.53785441629588603973388671875" lon="20.16150735318660736083984375">
        <ele>1964.4000244140625</ele>
        <time>2026-06-20T08:24:18.000Z</time>
        <extensions>
          <ns3:TrackPointExtension>
            <ns3:atemp>21.0</ns3:atemp>
          </ns3:TrackPointExtension>
        </extensions>
      </trkpt>
      <trkpt lat="42.5378640554845333099365234375" lon="20.16155471093952655792236328125">
        <ele>1964.199951171875</ele>
        <time>2026-06-20T08:24:19.000Z</time>
        <extensions>
          <ns3:TrackPointExtension>
            <ns3:atemp>21.0</ns3:atemp>
          </ns3:TrackPointExtension>
        </extensions>
      </trkpt>
      <trkpt lat="42.53786765970289707183837890625" lon="20.16160793602466583251953125">
        <ele>1963.800048828125</ele>
        <time>2026-06-20T08:24:20.000Z</time>
        <extensions>
          <ns3:TrackPointExtension>
            <ns3:atemp>21.0</ns3:atemp>
          </ns3:TrackPointExtension>
        </extensions>
      </trkpt>
      <trkpt lat="42.53787168301641941070556640625" lon="20.1616583950817584991455078125">
        <ele>1963.4000244140625</ele>
        <time>2026-06-20T08:24:21.000Z</time>
        <extensions>
          <ns3:TrackPointExtension>
            <ns3:atemp>21.0</ns3:atemp>
          </ns3:TrackPointExtension>
        </extensions>
      </trkpt>
      <trkpt lat="42.53787319175899028778076171875" lon="20.1617103628814220428466796875">
        <ele>1963</ele>
        <time>2026-06-20T08:24:22.000Z</time>
        <extensions>
          <ns3:TrackPointExtension>
            <ns3:atemp>21.0</ns3:atemp>
          </ns3:TrackPointExtension>
        </extensions>
      </trkpt>
      <trkpt lat="42.53787268884479999542236328125" lon="20.16175336204469203948974609375">
        <ele>1962.800048828125</ele>
        <time>2026-06-20T08:24:23.000Z</time>
        <extensions>
          <ns3:TrackPointExtension>
            <ns3:atemp>21.0</ns3:atemp>
          </ns3:TrackPointExtension>
        </extensions>
      </trkpt>
      <trkpt lat="42.53787185065448284149169921875" lon="20.16179166734218597412109375">
        <ele>1962.4000244140625</ele>
        <time>2026-06-20T08:24:24.000Z</time>
        <extensions>
          <ns3:TrackPointExtension>
            <ns3:atemp>21.0</ns3:atemp>
          </ns3:TrackPointExtension>
        </extensions>
      </trkpt>
      <trkpt lat="42.5378717668354511260986328125" lon="20.1618370972573757171630859375">
        <ele>1962.199951171875</ele>
        <time>2026-06-20T08:24:25.000Z</time>
        <extensions>
          <ns3:TrackPointExtension>
            <ns3:atemp>21.0</ns3:atemp>
          </ns3:TrackPointExtension>
        </extensions>
      </trkpt>
      <trkpt lat="42.53787503577768802642822265625" lon="20.16188931651413440704345703125">
        <ele>1962</ele>
        <time>2026-06-20T08:24:26.000Z</time>
        <extensions>
          <ns3:TrackPointExtension>
            <ns3:atemp>21.0</ns3:atemp>
          </ns3:TrackPointExtension>
        </extensions>
      </trkpt>
      <trkpt lat="42.5378764607012271881103515625" lon="20.1619453914463520050048828125">
        <ele>1961.4000244140625</ele>
        <time>2026-06-20T08:24:27.000Z</time>
        <extensions>
          <ns3:TrackPointExtension>
            <ns3:atemp>21.0</ns3:atemp>
          </ns3:TrackPointExtension>
        </extensions>
      </trkpt>
      <trkpt lat="42.53787201829254627227783203125" lon="20.16198822297155857086181640625">
        <ele>1961.199951171875</ele>
        <time>2026-06-20T08:24:28.000Z</time>
        <extensions>
          <ns3:TrackPointExtension>
            <ns3:atemp>21.0</ns3:atemp>
          </ns3:TrackPointExtension>
        </extensions>
      </trkpt>
      <trkpt lat="42.537868581712245941162109375" lon="20.16202074475586414337158203125">
        <ele>1961</ele>
        <time>2026-06-20T08:24:29.000Z</time>
        <extensions>
          <ns3:TrackPointExtension>
            <ns3:atemp>21.0</ns3:atemp>
          </ns3:TrackPointExtension>
        </extensions>
      </trkpt>
      <trkpt lat="42.53787226974964141845703125" lon="20.16205184161663055419921875">
        <ele>1960.800048828125</ele>
        <time>2026-06-20T08:24:30.000Z</time>
        <extensions>
          <ns3:TrackPointExtension>
            <ns3:atemp>21.0</ns3:atemp>
          </ns3:TrackPointExtension>
        </extensions>
      </trkpt>
      <trkpt lat="42.53787268884479999542236328125" lon="20.1620771549642086029052734375">
        <ele>1960.800048828125</ele>
        <time>2026-06-20T08:24:31.000Z</time>
        <extensions>
          <ns3:TrackPointExtension>
            <ns3:atemp>21.0</ns3:atemp>
          </ns3:TrackPointExtension>
        </extensions>
      </trkpt>
      <trkpt lat="42.53787696361541748046875" lon="20.16210607253015041351318359375">
        <ele>1960.800048828125</ele>
        <time>2026-06-20T08:24:32.000Z</time>
        <extensions>
          <ns3:TrackPointExtension>
            <ns3:atemp>21.0</ns3:atemp>
          </ns3:TrackPointExtension>
        </extensions>
      </trkpt>
      <trkpt lat="42.5378710962831974029541015625" lon="20.16213390044867992401123046875">
        <ele>1960.800048828125</ele>
        <time>2026-06-20T08:24:33.000Z</time>
        <extensions>
          <ns3:TrackPointExtension>
            <ns3:atemp>21.0</ns3:atemp>
          </ns3:TrackPointExtension>
        </extensions>
      </trkpt>
      <trkpt lat="42.5378670729696750640869140625" lon="20.16216575168073177337646484375">
        <ele>1961</ele>
        <time>2026-06-20T08:24:34.000Z</time>
        <extensions>
          <ns3:TrackPointExtension>
            <ns3:atemp>21.0</ns3:atemp>
          </ns3:TrackPointExtension>
        </extensions>
      </trkpt>
      <trkpt lat="42.53786422312259674072265625" lon="20.162194333970546722412109375">
        <ele>1960.800048828125</ele>
        <time>2026-06-20T08:24:35.000Z</time>
        <extensions>
          <ns3:TrackPointExtension>
            <ns3:atemp>21.0</ns3:atemp>
          </ns3:TrackPointExtension>
        </extensions>
      </trkpt>
      <trkpt lat="42.53785642795264720916748046875" lon="20.1622149534523487091064453125">
        <ele>1960.800048828125</ele>
        <time>2026-06-20T08:24:36.000Z</time>
        <extensions>
          <ns3:TrackPointExtension>
            <ns3:atemp>21.0</ns3:atemp>
          </ns3:TrackPointExtension>
        </extensions>
      </trkpt>
      <trkpt lat="42.5378516502678394317626953125" lon="20.162237919867038726806640625">
        <ele>1961</ele>
        <time>2026-06-20T08:24:37.000Z</time>
        <extensions>
          <ns3:TrackPointExtension>
            <ns3:atemp>21.0</ns3:atemp>
          </ns3:TrackPointExtension>
        </extensions>
      </trkpt>
      <trkpt lat="42.53784653730690479278564453125" lon="20.162259377539157867431640625">
        <ele>1961</ele>
        <time>2026-06-20T08:24:38.000Z</time>
        <extensions>
          <ns3:TrackPointExtension>
            <ns3:atemp>21.0</ns3:atemp>
          </ns3:TrackPointExtension>
        </extensions>
      </trkpt>
      <trkpt lat="42.53783849067986011505126953125" lon="20.1622820086777210235595703125">
        <ele>1961</ele>
        <time>2026-06-20T08:24:39.000Z</time>
        <extensions>
          <ns3:TrackPointExtension>
            <ns3:atemp>21.0</ns3:atemp>
          </ns3:TrackPointExtension>
        </extensions>
      </trkpt>
      <trkpt lat="42.53782943822443485260009765625" lon="20.16230958513915538787841796875">
        <ele>1961.199951171875</ele>
        <time>2026-06-20T08:24:40.000Z</time>
        <extensions>
          <ns3:TrackPointExtension>
            <ns3:atemp>21.0</ns3:atemp>
          </ns3:TrackPointExtension>
        </extensions>
      </trkpt>
      <trkpt lat="42.537815272808074951171875" lon="20.16232676804065704345703125">
        <ele>1961.199951171875</ele>
        <time>2026-06-20T08:24:41.000Z</time>
        <extensions>
          <ns3:TrackPointExtension>
            <ns3:atemp>21.0</ns3:atemp>
          </ns3:TrackPointExtension>
        </extensions>
      </trkpt>
      <trkpt lat="42.537802867591381072998046875" lon="20.1623515784740447998046875">
        <ele>1961.199951171875</ele>
        <time>2026-06-20T08:24:42.000Z</time>
        <extensions>
          <ns3:TrackPointExtension>
            <ns3:atemp>21.0</ns3:atemp>
          </ns3:TrackPointExtension>
        </extensions>
      </trkpt>
      <trkpt lat="42.53778534941375255584716796875" lon="20.16237462870776653289794921875">
        <ele>1961.199951171875</ele>
        <time>2026-06-20T08:24:43.000Z</time>
        <extensions>
          <ns3:TrackPointExtension>
            <ns3:atemp>21.0</ns3:atemp>
          </ns3:TrackPointExtension>
        </extensions>
      </trkpt>
      <trkpt lat="42.537770010530948638916015625" lon="20.1623956672847270965576171875">
        <ele>1961.199951171875</ele>
        <time>2026-06-20T08:24:44.000Z</time>
        <extensions>
          <ns3:TrackPointExtension>
            <ns3:atemp>21.0</ns3:atemp>
          </ns3:TrackPointExtension>
        </extensions>
      </trkpt>
      <trkpt lat="42.53775534220039844512939453125" lon="20.1624134369194507598876953125">
        <ele>1961</ele>
        <time>2026-06-20T08:24:45.000Z</time>
        <extensions>
          <ns3:TrackPointExtension>
            <ns3:atemp>21.0</ns3:atemp>
          </ns3:TrackPointExtension>
        </extensions>
      </trkpt>
      <trkpt lat="42.53774025477468967437744140625" lon="20.16243112273514270782470703125">
        <ele>1961</ele>
        <time>2026-06-20T08:24:46.000Z</time>
        <extensions>
          <ns3:TrackPointExtension>
            <ns3:atemp>21.0</ns3:atemp>
          </ns3:TrackPointExtension>
        </extensions>
      </trkpt>
      <trkpt lat="42.5377254188060760498046875" lon="20.1624523289501667022705078125">
        <ele>1961</ele>
        <time>2026-06-20T08:24:47.000Z</time>
        <extensions>
          <ns3:TrackPointExtension>
            <ns3:atemp>21.0</ns3:atemp>
          </ns3:TrackPointExtension>
        </extensions>
      </trkpt>
      <trkpt lat="42.53770974464714527130126953125" lon="20.1624727807939052581787109375">
        <ele>1961</ele>
        <time>2026-06-20T08:24:48.000Z</time>
        <extensions>
          <ns3:TrackPointExtension>
            <ns3:atemp>21.0</ns3:atemp>
          </ns3:TrackPointExtension>
        </extensions>
      </trkpt>
      <trkpt lat="42.53769851289689540863037109375" lon="20.1624922268092632293701171875">
        <ele>1961.199951171875</ele>
        <time>2026-06-20T08:24:49.000Z</time>
        <extensions>
          <ns3:TrackPointExtension>
            <ns3:atemp>21.0</ns3:atemp>
          </ns3:TrackPointExtension>
        </extensions>
      </trkpt>
      <trkpt lat="42.53768845461308956146240234375" lon="20.16251108609139919281005859375">
        <ele>1961.199951171875</ele>
        <time>2026-06-20T08:24:50.000Z</time>
        <extensions>
          <ns3:TrackPointExtension>
            <ns3:atemp>21.0</ns3:atemp>
          </ns3:TrackPointExtension>
        </extensions>
      </trkpt>
      <trkpt lat="42.53767906688153743743896484375" lon="20.16253103502094745635986328125">
        <ele>1961.199951171875</ele>
        <time>2026-06-20T08:24:51.000Z</time>
        <extensions>
          <ns3:TrackPointExtension>
            <ns3:atemp>21.0</ns3:atemp>
          </ns3:TrackPointExtension>
        </extensions>
      </trkpt>
      <trkpt lat="42.5376692600548267364501953125" lon="20.16255333088338375091552734375">
        <ele>1961.4000244140625</ele>
        <time>2026-06-20T08:24:52.000Z</time>
        <extensions>
          <ns3:TrackPointExtension>
            <ns3:atemp>21.0</ns3:atemp>
          </ns3:TrackPointExtension>
        </extensions>
      </trkpt>
      <trkpt lat="42.53765643574297428131103515625" lon="20.162575878202915191650390625">
        <ele>1961.4000244140625</ele>
        <time>2026-06-20T08:24:53.000Z</time>
        <extensions>
          <ns3:TrackPointExtension>
            <ns3:atemp>21.0</ns3:atemp>
          </ns3:TrackPointExtension>
        </extensions>
      </trkpt>
      <trkpt lat="42.53764671273529529571533203125" lon="20.16259574331343173980712890625">
        <ele>1961.5999755859375</ele>
        <time>2026-06-20T08:24:54.000Z</time>
        <extensions>
          <ns3:TrackPointExtension>
            <ns3:atemp>21.0</ns3:atemp>
          </ns3:TrackPointExtension>
        </extensions>
      </trkpt>
      <trkpt lat="42.5376370735466480255126953125" lon="20.16261585988104343414306640625">
        <ele>1961.5999755859375</ele>
        <time>2026-06-20T08:24:55.000Z</time>
        <extensions>
          <ns3:TrackPointExtension>
            <ns3:atemp>21.0</ns3:atemp>
          </ns3:TrackPointExtension>
        </extensions>
      </trkpt>
      <trkpt lat="42.53763028420507907867431640625" lon="20.1626327075064182281494140625">
        <ele>1961.800048828125</ele>
        <time>2026-06-20T08:24:56.000Z</time>
        <extensions>
          <ns3:TrackPointExtension>
            <ns3:atemp>21.0</ns3:atemp>
          </ns3:TrackPointExtension>
        </extensions>
      </trkpt>
      <trkpt lat="42.5376243330538272857666015625" lon="20.16264754347503185272216796875">
        <ele>1961.800048828125</ele>
        <time>2026-06-20T08:24:57.000Z</time>
        <extensions>
          <ns3:TrackPointExtension>
            <ns3:atemp>21.0</ns3:atemp>
          </ns3:TrackPointExtension>
        </extensions>
      </trkpt>
      <trkpt lat="42.53761880099773406982421875" lon="20.162645280361175537109375">
        <ele>1962</ele>
        <time>2026-06-20T08:24:58.000Z</time>
        <extensions>
          <ns3:TrackPointExtension>
            <ns3:atemp>21.0</ns3:atemp>
          </ns3:TrackPointExtension>
        </extensions>
      </trkpt>
      <trkpt lat="42.537617795169353485107421875" lon="20.16264729201793670654296875">
        <ele>1962</ele>
        <time>2026-06-20T08:24:59.000Z</time>
        <extensions>
          <ns3:TrackPointExtension>
            <ns3:atemp>21.0</ns3:atemp>
          </ns3:TrackPointExtension>
        </extensions>
      </trkpt>
      <trkpt lat="42.537617795169353485107421875" lon="20.16264737583696842193603515625">
        <ele>1962</ele>
        <time>2026-06-20T08:25:00.000Z</time>
        <extensions>
          <ns3:TrackPointExtension>
            <ns3:atemp>21.0</ns3:atemp>
          </ns3:TrackPointExtension>
        </extensions>
      </trkpt>
      <trkpt lat="42.537617795169353485107421875" lon="20.16264737583696842193603515625">
        <ele>1962.199951171875</ele>
        <time>2026-06-20T08:25:01.000Z</time>
        <extensions>
          <ns3:TrackPointExtension>
            <ns3:atemp>21.0</ns3:atemp>
          </ns3:TrackPointExtension>
        </extensions>
      </trkpt>
      <trkpt lat="42.537617795169353485107421875" lon="20.16264737583696842193603515625">
        <ele>1962.199951171875</ele>
        <time>2026-06-20T08:25:02.000Z</time>
        <extensions>
          <ns3:TrackPointExtension>
            <ns3:atemp>21.0</ns3:atemp>
          </ns3:TrackPointExtension>
        </extensions>
      </trkpt>
      <trkpt lat="42.537617795169353485107421875" lon="20.16264737583696842193603515625">
        <ele>1962</ele>
        <time>2026-06-20T08:25:03.000Z</time>
        <extensions>
          <ns3:TrackPointExtension>
            <ns3:atemp>21.0</ns3:atemp>
          </ns3:TrackPointExtension>
        </extensions>
      </trkpt>
      <trkpt lat="42.537617795169353485107421875" lon="20.16264737583696842193603515625">
        <ele>1962</ele>
        <time>2026-06-20T08:25:04.000Z</time>
        <extensions>
          <ns3:TrackPointExtension>
            <ns3:atemp>21.0</ns3:atemp>
          </ns3:TrackPointExtension>
        </extensions>
      </trkpt>
      <trkpt lat="42.537617795169353485107421875" lon="20.16264737583696842193603515625">
        <ele>1961.800048828125</ele>
        <time>2026-06-20T08:25:05.000Z</time>
        <extensions>
          <ns3:TrackPointExtension>
            <ns3:atemp>21.0</ns3:atemp>
          </ns3:TrackPointExtension>
        </extensions>
      </trkpt>
      <trkpt lat="42.537617795169353485107421875" lon="20.16264737583696842193603515625">
        <ele>1961.800048828125</ele>
        <time>2026-06-20T08:25:06.000Z</time>
        <extensions>
          <ns3:TrackPointExtension>
            <ns3:atemp>21.0</ns3:atemp>
          </ns3:TrackPointExtension>
        </extensions>
      </trkpt>
      <trkpt lat="42.537617795169353485107421875" lon="20.16264737583696842193603515625">
        <ele>1961.800048828125</ele>
        <time>2026-06-20T08:25:07.000Z</time>
        <extensions>
          <ns3:TrackPointExtension>
            <ns3:atemp>21.0</ns3:atemp>
          </ns3:TrackPointExtension>
        </extensions>
      </trkpt>
      <trkpt lat="42.537617795169353485107421875" lon="20.16264737583696842193603515625">
        <ele>1961.800048828125</ele>
        <time>2026-06-20T08:25:08.000Z</time>
        <extensions>
          <ns3:TrackPointExtension>
            <ns3:atemp>21.0</ns3:atemp>
          </ns3:TrackPointExtension>
        </extensions>
      </trkpt>
      <trkpt lat="42.537617795169353485107421875" lon="20.16264737583696842193603515625">
        <ele>1961.5999755859375</ele>
        <time>2026-06-20T08:25:09.000Z</time>
        <extensions>
          <ns3:TrackPointExtension>
            <ns3:atemp>21.0</ns3:atemp>
          </ns3:TrackPointExtension>
        </extensions>
      </trkpt>
      <trkpt lat="42.537617795169353485107421875" lon="20.16264737583696842193603515625">
        <ele>1961.800048828125</ele>
        <time>2026-06-20T08:25:10.000Z</time>
        <extensions>
          <ns3:TrackPointExtension>
            <ns3:atemp>21.0</ns3:atemp>
          </ns3:TrackPointExtension>
        </extensions>
      </trkpt>
      <trkpt lat="42.537617795169353485107421875" lon="20.16264737583696842193603515625">
        <ele>1961.800048828125</ele>
        <time>2026-06-20T08:25:11.000Z</time>
        <extensions>
          <ns3:TrackPointExtension>
            <ns3:atemp>21.0</ns3:atemp>
          </ns3:TrackPointExtension>
        </extensions>
      </trkpt>
      <trkpt lat="42.537617795169353485107421875" lon="20.16264737583696842193603515625">
        <ele>1961.800048828125</ele>
        <time>2026-06-20T08:25:12.000Z</time>
        <extensions>
          <ns3:TrackPointExtension>
            <ns3:atemp>21.0</ns3:atemp>
          </ns3:TrackPointExtension>
        </extensions>
      </trkpt>
      <trkpt lat="42.537617795169353485107421875" lon="20.16264737583696842193603515625">
        <ele>1961.800048828125</ele>
        <time>2026-06-20T08:25:13.000Z</time>
        <extensions>
          <ns3:TrackPointExtension>
            <ns3:atemp>21.0</ns3:atemp>
          </ns3:TrackPointExtension>
        </extensions>
      </trkpt>
      <trkpt lat="42.537617795169353485107421875" lon="20.16264737583696842193603515625">
        <ele>1961.800048828125</ele>
        <time>2026-06-20T08:25:14.000Z</time>
        <extensions>
          <ns3:TrackPointExtension>
            <ns3:atemp>21.0</ns3:atemp>
          </ns3:TrackPointExtension>
        </extensions>
      </trkpt>
      <trkpt lat="42.537617795169353485107421875" lon="20.16264737583696842193603515625">
        <ele>1961.5999755859375</ele>
        <time>2026-06-20T08:25:15.000Z</time>
        <extensions>
          <ns3:TrackPointExtension>
            <ns3:atemp>21.0</ns3:atemp>
          </ns3:TrackPointExtension>
        </extensions>
      </trkpt>
      <trkpt lat="42.537617795169353485107421875" lon="20.16264737583696842193603515625">
        <ele>1961.5999755859375</ele>
        <time>2026-06-20T08:25:16.000Z</time>
        <extensions>
          <ns3:TrackPointExtension>
            <ns3:atemp>21.0</ns3:atemp>
          </ns3:TrackPointExtension>
        </extensions>
      </trkpt>
      <trkpt lat="42.537617795169353485107421875" lon="20.16264737583696842193603515625">
        <ele>1961.5999755859375</ele>
        <time>2026-06-20T08:25:17.000Z</time>
        <extensions>
          <ns3:TrackPointExtension>
            <ns3:atemp>21.0</ns3:atemp>
          </ns3:TrackPointExtension>
        </extensions>
      </trkpt>
      <trkpt lat="42.537617795169353485107421875" lon="20.16264737583696842193603515625">
        <ele>1961.5999755859375</ele>
        <time>2026-06-20T08:25:18.000Z</time>
        <extensions>
          <ns3:TrackPointExtension>
            <ns3:atemp>21.0</ns3:atemp>
          </ns3:TrackPointExtension>
        </extensions>
      </trkpt>
      <trkpt lat="42.537617795169353485107421875" lon="20.16264737583696842193603515625">
        <ele>1961.5999755859375</ele>
        <time>2026-06-20T08:25:19.000Z</time>
        <extensions>
          <ns3:TrackPointExtension>
            <ns3:atemp>21.0</ns3:atemp>
          </ns3:TrackPointExtension>
        </extensions>
      </trkpt>
      <trkpt lat="42.537617795169353485107421875" lon="20.16264737583696842193603515625">
        <ele>1961.4000244140625</ele>
        <time>2026-06-20T08:25:20.000Z</time>
        <extensions>
          <ns3:TrackPointExtension>
            <ns3:atemp>21.0</ns3:atemp>
          </ns3:TrackPointExtension>
        </extensions>
      </trkpt>
      <trkpt lat="42.537617795169353485107421875" lon="20.16264737583696842193603515625">
        <ele>1961.4000244140625</ele>
        <time>2026-06-20T08:25:21.000Z</time>
        <extensions>
          <ns3:TrackPointExtension>
            <ns3:atemp>21.0</ns3:atemp>
          </ns3:TrackPointExtension>
        </extensions>
      </trkpt>
      <trkpt lat="42.537617795169353485107421875" lon="20.16264737583696842193603515625">
        <ele>1961.4000244140625</ele>
        <time>2026-06-20T08:25:22.000Z</time>
        <extensions>
          <ns3:TrackPointExtension>
            <ns3:atemp>21.0</ns3:atemp>
          </ns3:TrackPointExtension>
        </extensions>
      </trkpt>
      <trkpt lat="42.537617795169353485107421875" lon="20.16264737583696842193603515625">
        <ele>1961.4000244140625</ele>
        <time>2026-06-20T08:25:23.000Z</time>
        <extensions>
          <ns3:TrackPointExtension>
            <ns3:atemp>21.0</ns3:atemp>
          </ns3:TrackPointExtension>
        </extensions>
      </trkpt>
      <trkpt lat="42.537617795169353485107421875" lon="20.16264737583696842193603515625">
        <ele>1961.199951171875</ele>
        <time>2026-06-20T08:25:24.000Z</time>
        <extensions>
          <ns3:TrackPointExtension>
            <ns3:atemp>21.0</ns3:atemp>
          </ns3:TrackPointExtension>
        </extensions>
      </trkpt>
      <trkpt lat="42.537617795169353485107421875" lon="20.16264737583696842193603515625">
        <ele>1961.199951171875</ele>
        <time>2026-06-20T08:25:25.000Z</time>
        <extensions>
          <ns3:TrackPointExtension>
            <ns3:atemp>21.0</ns3:atemp>
          </ns3:TrackPointExtension>
        </extensions>
      </trkpt>
      <trkpt lat="42.537617795169353485107421875" lon="20.16264737583696842193603515625">
        <ele>1961</ele>
        <time>2026-06-20T08:25:26.000Z</time>
        <extensions>
          <ns3:TrackPointExtension>
            <ns3:atemp>21.0</ns3:atemp>
          </ns3:TrackPointExtension>
        </extensions>
      </trkpt>
      <trkpt lat="42.537617795169353485107421875" lon="20.16264737583696842193603515625">
        <ele>1961</ele>
        <time>2026-06-20T08:25:27.000Z</time>
        <extensions>
          <ns3:TrackPointExtension>
            <ns3:atemp>21.0</ns3:atemp>
          </ns3:TrackPointExtension>
        </extensions>
      </trkpt>
      <trkpt lat="42.537617795169353485107421875" lon="20.16264737583696842193603515625">
        <ele>1961</ele>
        <time>2026-06-20T08:25:28.000Z</time>
        <extensions>
          <ns3:TrackPointExtension>
            <ns3:atemp>21.0</ns3:atemp>
          </ns3:TrackPointExtension>
        </extensions>
      </trkpt>
      <trkpt lat="42.537617795169353485107421875" lon="20.16264737583696842193603515625">
        <ele>1961.199951171875</ele>
        <time>2026-06-20T08:25:29.000Z</time>
        <extensions>
          <ns3:TrackPointExtension>
            <ns3:atemp>21.0</ns3:atemp>
          </ns3:TrackPointExtension>
        </extensions>
      </trkpt>
      <trkpt lat="42.537617795169353485107421875" lon="20.16264737583696842193603515625">
        <ele>1961.199951171875</ele>
        <time>2026-06-20T08:25:30.000Z</time>
        <extensions>
          <ns3:TrackPointExtension>
            <ns3:atemp>21.0</ns3:atemp>
          </ns3:TrackPointExtension>
        </extensions>
      </trkpt>
      <trkpt lat="42.537617795169353485107421875" lon="20.16264737583696842193603515625">
        <ele>1961</ele>
        <time>2026-06-20T08:25:31.000Z</time>
        <extensions>
          <ns3:TrackPointExtension>
            <ns3:atemp>21.0</ns3:atemp>
          </ns3:TrackPointExtension>
        </extensions>
      </trkpt>
      <trkpt lat="42.537617795169353485107421875" lon="20.16264737583696842193603515625">
        <ele>1961</ele>
        <time>2026-06-20T08:25:32.000Z</time>
        <extensions>
          <ns3:TrackPointExtension>
            <ns3:atemp>21.0</ns3:atemp>
          </ns3:TrackPointExtension>
        </extensions>
      </trkpt>
      <trkpt lat="42.537617795169353485107421875" lon="20.16264737583696842193603515625">
        <ele>1960.800048828125</ele>
        <time>2026-06-20T08:25:33.000Z</time>
        <extensions>
          <ns3:TrackPointExtension>
            <ns3:atemp>21.0</ns3:atemp>
          </ns3:TrackPointExtension>
        </extensions>
      </trkpt>
      <trkpt lat="42.537617795169353485107421875" lon="20.16264737583696842193603515625">
        <ele>1960.800048828125</ele>
        <time>2026-06-20T08:25:34.000Z</time>
        <extensions>
          <ns3:TrackPointExtension>
            <ns3:atemp>21.0</ns3:atemp>
          </ns3:TrackPointExtension>
        </extensions>
      </trkpt>
      <trkpt lat="42.537617795169353485107421875" lon="20.16264737583696842193603515625">
        <ele>1960.800048828125</ele>
        <time>2026-06-20T08:25:35.000Z</time>
        <extensions>
          <ns3:TrackPointExtension>
            <ns3:atemp>21.0</ns3:atemp>
          </ns3:TrackPointExtension>
        </extensions>
      </trkpt>
      <trkpt lat="42.537617795169353485107421875" lon="20.16264737583696842193603515625">
        <ele>1961</ele>
        <time>2026-06-20T08:25:36.000Z</time>
        <extensions>
          <ns3:TrackPointExtension>
            <ns3:atemp>21.0</ns3:atemp>
          </ns3:TrackPointExtension>
        </extensions>
      </trkpt>
      <trkpt lat="42.537617795169353485107421875" lon="20.16264737583696842193603515625">
        <ele>1961</ele>
        <time>2026-06-20T08:25:37.000Z</time>
        <extensions>
          <ns3:TrackPointExtension>
            <ns3:atemp>21.0</ns3:atemp>
          </ns3:TrackPointExtension>
        </extensions>
      </trkpt>
      <trkpt lat="42.537617795169353485107421875" lon="20.16264737583696842193603515625">
        <ele>1961</ele>
        <time>2026-06-20T08:25:38.000Z</time>
        <extensions>
          <ns3:TrackPointExtension>
            <ns3:atemp>21.0</ns3:atemp>
          </ns3:TrackPointExtension>
        </extensions>
      </trkpt>
      <trkpt lat="42.537617795169353485107421875" lon="20.16264737583696842193603515625">
        <ele>1961</ele>
        <time>2026-06-20T08:25:39.000Z</time>
        <extensions>
          <ns3:TrackPointExtension>
            <ns3:atemp>21.0</ns3:atemp>
          </ns3:TrackPointExtension>
        </extensions>
      </trkpt>
      <trkpt lat="42.537617795169353485107421875" lon="20.16264737583696842193603515625">
        <ele>1960.800048828125</ele>
        <time>2026-06-20T08:25:40.000Z</time>
        <extensions>
          <ns3:TrackPointExtension>
            <ns3:atemp>21.0</ns3:atemp>
          </ns3:TrackPointExtension>
        </extensions>
      </trkpt>
      <trkpt lat="42.537617795169353485107421875" lon="20.16264737583696842193603515625">
        <ele>1960.800048828125</ele>
        <time>2026-06-20T08:25:41.000Z</time>
        <extensions>
          <ns3:TrackPointExtension>
            <ns3:atemp>21.0</ns3:atemp>
          </ns3:TrackPointExtension>
        </extensions>
      </trkpt>
      <trkpt lat="42.537617795169353485107421875" lon="20.16264737583696842193603515625">
        <ele>1960.800048828125</ele>
        <time>2026-06-20T08:25:42.000Z</time>
        <extensions>
          <ns3:TrackPointExtension>
            <ns3:atemp>21.0</ns3:atemp>
          </ns3:TrackPointExtension>
        </extensions>
      </trkpt>
      <trkpt lat="42.537617795169353485107421875" lon="20.16264737583696842193603515625">
        <ele>1960.5999755859375</ele>
        <time>2026-06-20T08:25:43.000Z</time>
        <extensions>
          <ns3:TrackPointExtension>
            <ns3:atemp>21.0</ns3:atemp>
          </ns3:TrackPointExtension>
        </extensions>
      </trkpt>
      <trkpt lat="42.537617795169353485107421875" lon="20.16264737583696842193603515625">
        <ele>1960.5999755859375</ele>
        <time>2026-06-20T08:25:44.000Z</time>
        <extensions>
          <ns3:TrackPointExtension>
            <ns3:atemp>21.0</ns3:atemp>
          </ns3:TrackPointExtension>
        </extensions>
      </trkpt>
      <trkpt lat="42.537617795169353485107421875" lon="20.16264737583696842193603515625">
        <ele>1960.5999755859375</ele>
        <time>2026-06-20T08:25:45.000Z</time>
        <extensions>
          <ns3:TrackPointExtension>
            <ns3:atemp>21.0</ns3:atemp>
          </ns3:TrackPointExtension>
        </extensions>
      </trkpt>
      <trkpt lat="42.537617795169353485107421875" lon="20.16264737583696842193603515625">
        <ele>1960.4000244140625</ele>
        <time>2026-06-20T08:25:46.000Z</time>
        <extensions>
          <ns3:TrackPointExtension>
            <ns3:atemp>21.0</ns3:atemp>
          </ns3:TrackPointExtension>
        </extensions>
      </trkpt>
      <trkpt lat="42.537617795169353485107421875" lon="20.16264737583696842193603515625">
        <ele>1960.4000244140625</ele>
        <time>2026-06-20T08:25:47.000Z</time>
        <extensions>
          <ns3:TrackPointExtension>
            <ns3:atemp>21.0</ns3:atemp>
          </ns3:TrackPointExtension>
        </extensions>
      </trkpt>
      <trkpt lat="42.537617795169353485107421875" lon="20.16264737583696842193603515625">
        <ele>1960.4000244140625</ele>
        <time>2026-06-20T08:25:48.000Z</time>
        <extensions>
          <ns3:TrackPointExtension>
            <ns3:atemp>21.0</ns3:atemp>
          </ns3:TrackPointExtension>
        </extensions>
      </trkpt>
      <trkpt lat="42.537617795169353485107421875" lon="20.16264737583696842193603515625">
        <ele>1960.4000244140625</ele>
        <time>2026-06-20T08:25:49.000Z</time>
        <extensions>
          <ns3:TrackPointExtension>
            <ns3:atemp>21.0</ns3:atemp>
          </ns3:TrackPointExtension>
        </extensions>
      </trkpt>
      <trkpt lat="42.537617795169353485107421875" lon="20.16264737583696842193603515625">
        <ele>1960.4000244140625</ele>
        <time>2026-06-20T08:25:50.000Z</time>
        <extensions>
          <ns3:TrackPointExtension>
            <ns3:atemp>21.0</ns3:atemp>
          </ns3:TrackPointExtension>
        </extensions>
      </trkpt>
      <trkpt lat="42.537617795169353485107421875" lon="20.16264737583696842193603515625">
        <ele>1960.5999755859375</ele>
        <time>2026-06-20T08:25:51.000Z</time>
        <extensions>
          <ns3:TrackPointExtension>
            <ns3:atemp>21.0</ns3:atemp>
          </ns3:TrackPointExtension>
        </extensions>
      </trkpt>
      <trkpt lat="42.537617795169353485107421875" lon="20.16264737583696842193603515625">
        <ele>1960.5999755859375</ele>
        <time>2026-06-20T08:25:52.000Z</time>
        <extensions>
          <ns3:TrackPointExtension>
            <ns3:atemp>21.0</ns3:atemp>
          </ns3:TrackPointExtension>
        </extensions>
      </trkpt>
      <trkpt lat="42.537617795169353485107421875" lon="20.16264737583696842193603515625">
        <ele>1960.5999755859375</ele>
        <time>2026-06-20T08:25:53.000Z</time>
        <extensions>
          <ns3:TrackPointExtension>
            <ns3:atemp>21.0</ns3:atemp>
          </ns3:TrackPointExtension>
        </extensions>
      </trkpt>
      <trkpt lat="42.537617795169353485107421875" lon="20.16264737583696842193603515625">
        <ele>1960.5999755859375</ele>
        <time>2026-06-20T08:25:54.000Z</time>
        <extensions>
          <ns3:TrackPointExtension>
            <ns3:atemp>21.0</ns3:atemp>
          </ns3:TrackPointExtension>
        </extensions>
      </trkpt>
      <trkpt lat="42.537617795169353485107421875" lon="20.16264737583696842193603515625">
        <ele>1960.4000244140625</ele>
        <time>2026-06-20T08:25:55.000Z</time>
        <extensions>
          <ns3:TrackPointExtension>
            <ns3:atemp>21.0</ns3:atemp>
          </ns3:TrackPointExtension>
        </extensions>
      </trkpt>
      <trkpt lat="42.537617795169353485107421875" lon="20.16264737583696842193603515625">
        <ele>1960.4000244140625</ele>
        <time>2026-06-20T08:25:56.000Z</time>
        <extensions>
          <ns3:TrackPointExtension>
            <ns3:atemp>21.0</ns3:atemp>
          </ns3:TrackPointExtension>
        </extensions>
      </trkpt>
      <trkpt lat="42.537617795169353485107421875" lon="20.16264737583696842193603515625">
        <ele>1960.4000244140625</ele>
        <time>2026-06-20T08:25:57.000Z</time>
        <extensions>
          <ns3:TrackPointExtension>
            <ns3:atemp>21.0</ns3:atemp>
          </ns3:TrackPointExtension>
        </extensions>
      </trkpt>
      <trkpt lat="42.537617795169353485107421875" lon="20.16264737583696842193603515625">
        <ele>1960.4000244140625</ele>
        <time>2026-06-20T08:25:58.000Z</time>
        <extensions>
          <ns3:TrackPointExtension>
            <ns3:atemp>21.0</ns3:atemp>
          </ns3:TrackPointExtension>
        </extensions>
      </trkpt>
      <trkpt lat="42.537617795169353485107421875" lon="20.16264737583696842193603515625">
        <ele>1960.4000244140625</ele>
        <time>2026-06-20T08:25:59.000Z</time>
        <extensions>
          <ns3:TrackPointExtension>
            <ns3:atemp>21.0</ns3:atemp>
          </ns3:TrackPointExtension>
        </extensions>
      </trkpt>
      <trkpt lat="42.537617795169353485107421875" lon="20.16264737583696842193603515625">
        <ele>1960.5999755859375</ele>
        <time>2026-06-20T08:26:00.000Z</time>
        <extensions>
          <ns3:TrackPointExtension>
            <ns3:atemp>21.0</ns3:atemp>
          </ns3:TrackPointExtension>
        </extensions>
      </trkpt>
      <trkpt lat="42.537617795169353485107421875" lon="20.16264737583696842193603515625">
        <ele>1960.5999755859375</ele>
        <time>2026-06-20T08:26:01.000Z</time>
        <extensions>
          <ns3:TrackPointExtension>
            <ns3:atemp>21.0</ns3:atemp>
          </ns3:TrackPointExtension>
        </extensions>
      </trkpt>
      <trkpt lat="42.537617795169353485107421875" lon="20.16264737583696842193603515625">
        <ele>1960.5999755859375</ele>
        <time>2026-06-20T08:26:02.000Z</time>
        <extensions>
          <ns3:TrackPointExtension>
            <ns3:atemp>21.0</ns3:atemp>
          </ns3:TrackPointExtension>
        </extensions>
      </trkpt>
      <trkpt lat="42.537617795169353485107421875" lon="20.16264737583696842193603515625">
        <ele>1960.5999755859375</ele>
        <time>2026-06-20T08:26:03.000Z</time>
        <extensions>
          <ns3:TrackPointExtension>
            <ns3:atemp>21.0</ns3:atemp>
          </ns3:TrackPointExtension>
        </extensions>
      </trkpt>
      <trkpt lat="42.537617795169353485107421875" lon="20.16264737583696842193603515625">
        <ele>1960.5999755859375</ele>
        <time>2026-06-20T08:26:04.000Z</time>
        <extensions>
          <ns3:TrackPointExtension>
            <ns3:atemp>21.0</ns3:atemp>
          </ns3:TrackPointExtension>
        </extensions>
      </trkpt>
      <trkpt lat="42.537617795169353485107421875" lon="20.16264737583696842193603515625">
        <ele>1960.5999755859375</ele>
        <time>2026-06-20T08:26:05.000Z</time>
        <extensions>
          <ns3:TrackPointExtension>
            <ns3:atemp>21.0</ns3:atemp>
          </ns3:TrackPointExtension>
        </extensions>
      </trkpt>
      <trkpt lat="42.537617795169353485107421875" lon="20.16264737583696842193603515625">
        <ele>1960.5999755859375</ele>
        <time>2026-06-20T08:26:06.000Z</time>
        <extensions>
          <ns3:TrackPointExtension>
            <ns3:atemp>21.0</ns3:atemp>
          </ns3:TrackPointExtension>
        </extensions>
      </trkpt>
      <trkpt lat="42.537617795169353485107421875" lon="20.16264737583696842193603515625">
        <ele>1960.5999755859375</ele>
        <time>2026-06-20T08:26:07.000Z</time>
        <extensions>
          <ns3:TrackPointExtension>
            <ns3:atemp>21.0</ns3:atemp>
          </ns3:TrackPointExtension>
        </extensions>
      </trkpt>
      <trkpt lat="42.537617795169353485107421875" lon="20.16264737583696842193603515625">
        <ele>1960.5999755859375</ele>
        <time>2026-06-20T08:26:08.000Z</time>
        <extensions>
          <ns3:TrackPointExtension>
            <ns3:atemp>21.0</ns3:atemp>
          </ns3:TrackPointExtension>
        </extensions>
      </trkpt>
      <trkpt lat="42.537617795169353485107421875" lon="20.16264737583696842193603515625">
        <ele>1960.4000244140625</ele>
        <time>2026-06-20T08:26:09.000Z</time>
        <extensions>
          <ns3:TrackPointExtension>
            <ns3:atemp>21.0</ns3:atemp>
          </ns3:TrackPointExtension>
        </extensions>
      </trkpt>
      <trkpt lat="42.537617795169353485107421875" lon="20.16264737583696842193603515625">
        <ele>1960.4000244140625</ele>
        <time>2026-06-20T08:26:10.000Z</time>
        <extensions>
          <ns3:TrackPointExtension>
            <ns3:atemp>21.0</ns3:atemp>
          </ns3:TrackPointExtension>
        </extensions>
      </trkpt>
      <trkpt lat="42.537617795169353485107421875" lon="20.16264737583696842193603515625">
        <ele>1960.4000244140625</ele>
        <time>2026-06-20T08:26:11.000Z</time>
        <extensions>
          <ns3:TrackPointExtension>
            <ns3:atemp>21.0</ns3:atemp>
          </ns3:TrackPointExtension>
        </extensions>
      </trkpt>
      <trkpt lat="42.537617795169353485107421875" lon="20.16264737583696842193603515625">
        <ele>1960.4000244140625</ele>
        <time>2026-06-20T08:26:12.000Z</time>
        <extensions>
          <ns3:TrackPointExtension>
            <ns3:atemp>21.0</ns3:atemp>
          </ns3:TrackPointExtension>
        </extensions>
      </trkpt>
      <trkpt lat="42.537617795169353485107421875" lon="20.16264737583696842193603515625">
        <ele>1960.4000244140625</ele>
        <time>2026-06-20T08:26:13.000Z</time>
        <extensions>
          <ns3:TrackPointExtension>
            <ns3:atemp>21.0</ns3:atemp>
          </ns3:TrackPointExtension>
        </extensions>
      </trkpt>
      <trkpt lat="42.537617795169353485107421875" lon="20.16264737583696842193603515625">
        <ele>1960.4000244140625</ele>
        <time>2026-06-20T08:26:14.000Z</time>
        <extensions>
          <ns3:TrackPointExtension>
            <ns3:atemp>21.0</ns3:atemp>
          </ns3:TrackPointExtension>
        </extensions>
      </trkpt>
      <trkpt lat="42.537617795169353485107421875" lon="20.16264737583696842193603515625">
        <ele>1960.4000244140625</ele>
        <time>2026-06-20T08:26:15.000Z</time>
        <extensions>
          <ns3:TrackPointExtension>
            <ns3:atemp>21.0</ns3:atemp>
          </ns3:TrackPointExtension>
        </extensions>
      </trkpt>
      <trkpt lat="42.537617795169353485107421875" lon="20.16264737583696842193603515625">
        <ele>1960.4000244140625</ele>
        <time>2026-06-20T08:26:16.000Z</time>
        <extensions>
          <ns3:TrackPointExtension>
            <ns3:atemp>21.0</ns3:atemp>
          </ns3:TrackPointExtension>
        </extensions>
      </trkpt>
      <trkpt lat="42.537617795169353485107421875" lon="20.16264737583696842193603515625">
        <ele>1960.4000244140625</ele>
        <time>2026-06-20T08:26:17.000Z</time>
        <extensions>
          <ns3:TrackPointExtension>
            <ns3:atemp>21.0</ns3:atemp>
          </ns3:TrackPointExtension>
        </extensions>
      </trkpt>
      <trkpt lat="42.537617795169353485107421875" lon="20.16264737583696842193603515625">
        <ele>1960.4000244140625</ele>
        <time>2026-06-20T08:26:18.000Z</time>
        <extensions>
          <ns3:TrackPointExtension>
            <ns3:atemp>21.0</ns3:atemp>
          </ns3:TrackPointExtension>
        </extensions>
      </trkpt>
      <trkpt lat="42.537617795169353485107421875" lon="20.16264737583696842193603515625">
        <ele>1960.4000244140625</ele>
        <time>2026-06-20T08:26:19.000Z</time>
        <extensions>
          <ns3:TrackPointExtension>
            <ns3:atemp>21.0</ns3:atemp>
          </ns3:TrackPointExtension>
        </extensions>
      </trkpt>
      <trkpt lat="42.537617795169353485107421875" lon="20.16264737583696842193603515625">
        <ele>1960.4000244140625</ele>
        <time>2026-06-20T08:26:20.000Z</time>
        <extensions>
          <ns3:TrackPointExtension>
            <ns3:atemp>21.0</ns3:atemp>
          </ns3:TrackPointExtension>
        </extensions>
      </trkpt>
      <trkpt lat="42.537617795169353485107421875" lon="20.16264737583696842193603515625">
        <ele>1960.4000244140625</ele>
        <time>2026-06-20T08:26:21.000Z</time>
        <extensions>
          <ns3:TrackPointExtension>
            <ns3:atemp>21.0</ns3:atemp>
          </ns3:TrackPointExtension>
        </extensions>
      </trkpt>
      <trkpt lat="42.537617795169353485107421875" lon="20.16264737583696842193603515625">
        <ele>1960.4000244140625</ele>
        <time>2026-06-20T08:26:22.000Z</time>
        <extensions>
          <ns3:TrackPointExtension>
            <ns3:atemp>21.0</ns3:atemp>
          </ns3:TrackPointExtension>
        </extensions>
      </trkpt>
      <trkpt lat="42.537617795169353485107421875" lon="20.16264737583696842193603515625">
        <ele>1960.4000244140625</ele>
        <time>2026-06-20T08:26:23.000Z</time>
        <extensions>
          <ns3:TrackPointExtension>
            <ns3:atemp>21.0</ns3:atemp>
          </ns3:TrackPointExtension>
        </extensions>
      </trkpt>
      <trkpt lat="42.537617795169353485107421875" lon="20.16264737583696842193603515625">
        <ele>1960.4000244140625</ele>
        <time>2026-06-20T08:26:24.000Z</time>
        <extensions>
          <ns3:TrackPointExtension>
            <ns3:atemp>21.0</ns3:atemp>
          </ns3:TrackPointExtension>
        </extensions>
      </trkpt>
      <trkpt lat="42.537617795169353485107421875" lon="20.16264737583696842193603515625">
        <ele>1960.4000244140625</ele>
        <time>2026-06-20T08:26:25.000Z</time>
        <extensions>
          <ns3:TrackPointExtension>
            <ns3:atemp>21.0</ns3:atemp>
          </ns3:TrackPointExtension>
        </extensions>
      </trkpt>
      <trkpt lat="42.537617795169353485107421875" lon="20.16264737583696842193603515625">
        <ele>1960.4000244140625</ele>
        <time>2026-06-20T08:26:26.000Z</time>
        <extensions>
          <ns3:TrackPointExtension>
            <ns3:atemp>21.0</ns3:atemp>
          </ns3:TrackPointExtension>
        </extensions>
      </trkpt>
      <trkpt lat="42.537617795169353485107421875" lon="20.16264737583696842193603515625">
        <ele>1960.4000244140625</ele>
        <time>2026-06-20T08:26:27.000Z</time>
        <extensions>
          <ns3:TrackPointExtension>
            <ns3:atemp>21.0</ns3:atemp>
          </ns3:TrackPointExtension>
        </extensions>
      </trkpt>
      <trkpt lat="42.537617795169353485107421875" lon="20.16264737583696842193603515625">
        <ele>1960.4000244140625</ele>
        <time>2026-06-20T08:26:28.000Z</time>
        <extensions>
          <ns3:TrackPointExtension>
            <ns3:atemp>21.0</ns3:atemp>
          </ns3:TrackPointExtension>
        </extensions>
      </trkpt>
      <trkpt lat="42.537617795169353485107421875" lon="20.16264737583696842193603515625">
        <ele>1960.4000244140625</ele>
        <time>2026-06-20T08:26:29.000Z</time>
        <extensions>
          <ns3:TrackPointExtension>
            <ns3:atemp>21.0</ns3:atemp>
          </ns3:TrackPointExtension>
        </extensions>
      </trkpt>
      <trkpt lat="42.537617795169353485107421875" lon="20.16264737583696842193603515625">
        <ele>1960.4000244140625</ele>
        <time>2026-06-20T08:26:30.000Z</time>
        <extensions>
          <ns3:TrackPointExtension>
            <ns3:atemp>21.0</ns3:atemp>
          </ns3:TrackPointExtension>
        </extensions>
      </trkpt>
      <trkpt lat="42.537617795169353485107421875" lon="20.16264737583696842193603515625">
        <ele>1960.4000244140625</ele>
        <time>2026-06-20T08:26:31.000Z</time>
        <extensions>
          <ns3:TrackPointExtension>
            <ns3:atemp>21.0</ns3:atemp>
          </ns3:TrackPointExtension>
        </extensions>
      </trkpt>
      <trkpt lat="42.537617795169353485107421875" lon="20.16264737583696842193603515625">
        <ele>1960.4000244140625</ele>
        <time>2026-06-20T08:26:32.000Z</time>
        <extensions>
          <ns3:TrackPointExtension>
            <ns3:atemp>21.0</ns3:atemp>
          </ns3:TrackPointExtension>
        </extensions>
      </trkpt>
      <trkpt lat="42.537617795169353485107421875" lon="20.16264737583696842193603515625">
        <ele>1960.4000244140625</ele>
        <time>2026-06-20T08:26:33.000Z</time>
        <extensions>
          <ns3:TrackPointExtension>
            <ns3:atemp>21.0</ns3:atemp>
          </ns3:TrackPointExtension>
        </extensions>
      </trkpt>
      <trkpt lat="42.537617795169353485107421875" lon="20.16264737583696842193603515625">
        <ele>1960.4000244140625</ele>
        <time>2026-06-20T08:26:34.000Z</time>
        <extensions>
          <ns3:TrackPointExtension>
            <ns3:atemp>21.0</ns3:atemp>
          </ns3:TrackPointExtension>
        </extensions>
      </trkpt>
      <trkpt lat="42.537617795169353485107421875" lon="20.16264737583696842193603515625">
        <ele>1960.4000244140625</ele>
        <time>2026-06-20T08:26:35.000Z</time>
        <extensions>
          <ns3:TrackPointExtension>
            <ns3:atemp>21.0</ns3:atemp>
          </ns3:TrackPointExtension>
        </extensions>
      </trkpt>
      <trkpt lat="42.537617795169353485107421875" lon="20.16264737583696842193603515625">
        <ele>1960.4000244140625</ele>
        <time>2026-06-20T08:26:36.000Z</time>
        <extensions>
          <ns3:TrackPointExtension>
            <ns3:atemp>21.0</ns3:atemp>
          </ns3:TrackPointExtension>
        </extensions>
      </trkpt>
      <trkpt lat="42.537617795169353485107421875" lon="20.16264737583696842193603515625">
        <ele>1960.4000244140625</ele>
        <time>2026-06-20T08:26:37.000Z</time>
        <extensions>
          <ns3:TrackPointExtension>
            <ns3:atemp>21.0</ns3:atemp>
          </ns3:TrackPointExtension>
        </extensions>
      </trkpt>
      <trkpt lat="42.537617795169353485107421875" lon="20.16264737583696842193603515625">
        <ele>1960.4000244140625</ele>
        <time>2026-06-20T08:26:38.000Z</time>
        <extensions>
          <ns3:TrackPointExtension>
            <ns3:atemp>21.0</ns3:atemp>
          </ns3:TrackPointExtension>
        </extensions>
      </trkpt>
      <trkpt lat="42.537617795169353485107421875" lon="20.16264737583696842193603515625">
        <ele>1960.4000244140625</ele>
        <time>2026-06-20T08:26:39.000Z</time>
        <extensions>
          <ns3:TrackPointExtension>
            <ns3:atemp>21.0</ns3:atemp>
          </ns3:TrackPointExtension>
        </extensions>
      </trkpt>
      <trkpt lat="42.537617795169353485107421875" lon="20.16264737583696842193603515625">
        <ele>1960.4000244140625</ele>
        <time>2026-06-20T08:26:40.000Z</time>
        <extensions>
          <ns3:TrackPointExtension>
            <ns3:atemp>21.0</ns3:atemp>
          </ns3:TrackPointExtension>
        </extensions>
      </trkpt>
      <trkpt lat="42.537617795169353485107421875" lon="20.16264737583696842193603515625">
        <ele>1960.4000244140625</ele>
        <time>2026-06-20T08:26:41.000Z</time>
        <extensions>
          <ns3:TrackPointExtension>
            <ns3:atemp>21.0</ns3:atemp>
          </ns3:TrackPointExtension>
        </extensions>
      </trkpt>
      <trkpt lat="42.537617795169353485107421875" lon="20.16264737583696842193603515625">
        <ele>1960.4000244140625</ele>
        <time>2026-06-20T08:26:42.000Z</time>
        <extensions>
          <ns3:TrackPointExtension>
            <ns3:atemp>21.0</ns3:atemp>
          </ns3:TrackPointExtension>
        </extensions>
      </trkpt>
      <trkpt lat="42.537617795169353485107421875" lon="20.16264737583696842193603515625">
        <ele>1960.4000244140625</ele>
        <time>2026-06-20T08:26:43.000Z</time>
        <extensions>
          <ns3:TrackPointExtension>
            <ns3:atemp>21.0</ns3:atemp>
          </ns3:TrackPointExtension>
        </extensions>
      </trkpt>
      <trkpt lat="42.537617795169353485107421875" lon="20.16264737583696842193603515625">
        <ele>1960.4000244140625</ele>
        <time>2026-06-20T08:26:44.000Z</time>
        <extensions>
          <ns3:TrackPointExtension>
            <ns3:atemp>21.0</ns3:atemp>
          </ns3:TrackPointExtension>
        </extensions>
      </trkpt>
      <trkpt lat="42.537617795169353485107421875" lon="20.16264737583696842193603515625">
        <ele>1960.4000244140625</ele>
        <time>2026-06-20T08:26:45.000Z</time>
        <extensions>
          <ns3:TrackPointExtension>
            <ns3:atemp>21.0</ns3:atemp>
          </ns3:TrackPointExtension>
        </extensions>
      </trkpt>
      <trkpt lat="42.537617795169353485107421875" lon="20.16264737583696842193603515625">
        <ele>1960.199951171875</ele>
        <time>2026-06-20T08:26:46.000Z</time>
        <extensions>
          <ns3:TrackPointExtension>
            <ns3:atemp>21.0</ns3:atemp>
          </ns3:TrackPointExtension>
        </extensions>
      </trkpt>
      <trkpt lat="42.537617795169353485107421875" lon="20.16264737583696842193603515625">
        <ele>1960.199951171875</ele>
        <time>2026-06-20T08:26:47.000Z</time>
        <extensions>
          <ns3:TrackPointExtension>
            <ns3:atemp>21.0</ns3:atemp>
          </ns3:TrackPointExtension>
        </extensions>
      </trkpt>
      <trkpt lat="42.537617795169353485107421875" lon="20.16264737583696842193603515625">
        <ele>1960.199951171875</ele>
        <time>2026-06-20T08:26:48.000Z</time>
        <extensions>
          <ns3:TrackPointExtension>
            <ns3:atemp>21.0</ns3:atemp>
          </ns3:TrackPointExtension>
        </extensions>
      </trkpt>
      <trkpt lat="42.537617795169353485107421875" lon="20.16264737583696842193603515625">
        <ele>1960.199951171875</ele>
        <time>2026-06-20T08:26:49.000Z</time>
        <extensions>
          <ns3:TrackPointExtension>
            <ns3:atemp>21.0</ns3:atemp>
          </ns3:TrackPointExtension>
        </extensions>
      </trkpt>
      <trkpt lat="42.537617795169353485107421875" lon="20.16264737583696842193603515625">
        <ele>1960.199951171875</ele>
        <time>2026-06-20T08:26:50.000Z</time>
        <extensions>
          <ns3:TrackPointExtension>
            <ns3:atemp>21.0</ns3:atemp>
          </ns3:TrackPointExtension>
        </extensions>
      </trkpt>
      <trkpt lat="42.537617795169353485107421875" lon="20.16264737583696842193603515625">
        <ele>1960.199951171875</ele>
        <time>2026-06-20T08:26:51.000Z</time>
        <extensions>
          <ns3:TrackPointExtension>
            <ns3:atemp>21.0</ns3:atemp>
          </ns3:TrackPointExtension>
        </extensions>
      </trkpt>
      <trkpt lat="42.537617795169353485107421875" lon="20.16264737583696842193603515625">
        <ele>1960.199951171875</ele>
        <time>2026-06-20T08:26:52.000Z</time>
        <extensions>
          <ns3:TrackPointExtension>
            <ns3:atemp>21.0</ns3:atemp>
          </ns3:TrackPointExtension>
        </extensions>
      </trkpt>
      <trkpt lat="42.537617795169353485107421875" lon="20.16264737583696842193603515625">
        <ele>1960.4000244140625</ele>
        <time>2026-06-20T08:26:53.000Z</time>
        <extensions>
          <ns3:TrackPointExtension>
            <ns3:atemp>21.0</ns3:atemp>
          </ns3:TrackPointExtension>
        </extensions>
      </trkpt>
      <trkpt lat="42.537617795169353485107421875" lon="20.16264737583696842193603515625">
        <ele>1960.4000244140625</ele>
        <time>2026-06-20T08:26:54.000Z</time>
        <extensions>
          <ns3:TrackPointExtension>
            <ns3:atemp>21.0</ns3:atemp>
          </ns3:TrackPointExtension>
        </extensions>
      </trkpt>
      <trkpt lat="42.537617795169353485107421875" lon="20.16264737583696842193603515625">
        <ele>1960.4000244140625</ele>
        <time>2026-06-20T08:26:55.000Z</time>
        <extensions>
          <ns3:TrackPointExtension>
            <ns3:atemp>21.0</ns3:atemp>
          </ns3:TrackPointExtension>
        </extensions>
      </trkpt>
      <trkpt lat="42.537617795169353485107421875" lon="20.16264737583696842193603515625">
        <ele>1960.4000244140625</ele>
        <time>2026-06-20T08:26:56.000Z</time>
        <extensions>
          <ns3:TrackPointExtension>
            <ns3:atemp>21.0</ns3:atemp>
          </ns3:TrackPointExtension>
        </extensions>
      </trkpt>
      <trkpt lat="42.537617795169353485107421875" lon="20.16264737583696842193603515625">
        <ele>1960.199951171875</ele>
        <time>2026-06-20T08:26:57.000Z</time>
        <extensions>
          <ns3:TrackPointExtension>
            <ns3:atemp>21.0</ns3:atemp>
          </ns3:TrackPointExtension>
        </extensions>
      </trkpt>
      <trkpt lat="42.537617795169353485107421875" lon="20.16264737583696842193603515625">
        <ele>1960</ele>
        <time>2026-06-20T08:26:58.000Z</time>
        <extensions>
          <ns3:TrackPointExtension>
            <ns3:atemp>21.0</ns3:atemp>
          </ns3:TrackPointExtension>
        </extensions>
      </trkpt>
      <trkpt lat="42.537617795169353485107421875" lon="20.16264737583696842193603515625">
        <ele>1960</ele>
        <time>2026-06-20T08:26:59.000Z</time>
        <extensions>
          <ns3:TrackPointExtension>
            <ns3:atemp>21.0</ns3:atemp>
          </ns3:TrackPointExtension>
        </extensions>
      </trkpt>
      <trkpt lat="42.537617795169353485107421875" lon="20.16264737583696842193603515625">
        <ele>1960</ele>
        <time>2026-06-20T08:27:00.000Z</time>
        <extensions>
          <ns3:TrackPointExtension>
            <ns3:atemp>21.0</ns3:atemp>
          </ns3:TrackPointExtension>
        </extensions>
      </trkpt>
      <trkpt lat="42.537617795169353485107421875" lon="20.16264737583696842193603515625">
        <ele>1960</ele>
        <time>2026-06-20T08:27:01.000Z</time>
        <extensions>
          <ns3:TrackPointExtension>
            <ns3:atemp>21.0</ns3:atemp>
          </ns3:TrackPointExtension>
        </extensions>
      </trkpt>
      <trkpt lat="42.537617795169353485107421875" lon="20.16264737583696842193603515625">
        <ele>1960</ele>
        <time>2026-06-20T08:27:02.000Z</time>
        <extensions>
          <ns3:TrackPointExtension>
            <ns3:atemp>21.0</ns3:atemp>
          </ns3:TrackPointExtension>
        </extensions>
      </trkpt>
      <trkpt lat="42.537617795169353485107421875" lon="20.16264737583696842193603515625">
        <ele>1960</ele>
        <time>2026-06-20T08:27:03.000Z</time>
        <extensions>
          <ns3:TrackPointExtension>
            <ns3:atemp>21.0</ns3:atemp>
          </ns3:TrackPointExtension>
        </extensions>
      </trkpt>
      <trkpt lat="42.537617795169353485107421875" lon="20.16264737583696842193603515625">
        <ele>1960</ele>
        <time>2026-06-20T08:27:04.000Z</time>
        <extensions>
          <ns3:TrackPointExtension>
            <ns3:atemp>21.0</ns3:atemp>
          </ns3:TrackPointExtension>
        </extensions>
      </trkpt>
      <trkpt lat="42.537617795169353485107421875" lon="20.16264737583696842193603515625">
        <ele>1960.199951171875</ele>
        <time>2026-06-20T08:27:05.000Z</time>
        <extensions>
          <ns3:TrackPointExtension>
            <ns3:atemp>21.0</ns3:atemp>
          </ns3:TrackPointExtension>
        </extensions>
      </trkpt>
      <trkpt lat="42.537617795169353485107421875" lon="20.16264737583696842193603515625">
        <ele>1960.199951171875</ele>
        <time>2026-06-20T08:27:06.000Z</time>
        <extensions>
          <ns3:TrackPointExtension>
            <ns3:atemp>21.0</ns3:atemp>
          </ns3:TrackPointExtension>
        </extensions>
      </trkpt>
      <trkpt lat="42.537617795169353485107421875" lon="20.16264737583696842193603515625">
        <ele>1960.199951171875</ele>
        <time>2026-06-20T08:27:07.000Z</time>
        <extensions>
          <ns3:TrackPointExtension>
            <ns3:atemp>21.0</ns3:atemp>
          </ns3:TrackPointExtension>
        </extensions>
      </trkpt>
      <trkpt lat="42.537617795169353485107421875" lon="20.16264737583696842193603515625">
        <ele>1960.199951171875</ele>
        <time>2026-06-20T08:27:08.000Z</time>
        <extensions>
          <ns3:TrackPointExtension>
            <ns3:atemp>21.0</ns3:atemp>
          </ns3:TrackPointExtension>
        </extensions>
      </trkpt>
      <trkpt lat="42.537617795169353485107421875" lon="20.16264737583696842193603515625">
        <ele>1960.199951171875</ele>
        <time>2026-06-20T08:27:09.000Z</time>
        <extensions>
          <ns3:TrackPointExtension>
            <ns3:atemp>21.0</ns3:atemp>
          </ns3:TrackPointExtension>
        </extensions>
      </trkpt>
      <trkpt lat="42.537617795169353485107421875" lon="20.16264737583696842193603515625">
        <ele>1960.199951171875</ele>
        <time>2026-06-20T08:27:10.000Z</time>
        <extensions>
          <ns3:TrackPointExtension>
            <ns3:atemp>21.0</ns3:atemp>
          </ns3:TrackPointExtension>
        </extensions>
      </trkpt>
      <trkpt lat="42.537617795169353485107421875" lon="20.16264737583696842193603515625">
        <ele>1960.199951171875</ele>
        <time>2026-06-20T08:27:11.000Z</time>
        <extensions>
          <ns3:TrackPointExtension>
            <ns3:atemp>21.0</ns3:atemp>
          </ns3:TrackPointExtension>
        </extensions>
      </trkpt>
      <trkpt lat="42.537617795169353485107421875" lon="20.16264737583696842193603515625">
        <ele>1960.199951171875</ele>
        <time>2026-06-20T08:27:12.000Z</time>
        <extensions>
          <ns3:TrackPointExtension>
            <ns3:atemp>21.0</ns3:atemp>
          </ns3:TrackPointExtension>
        </extensions>
      </trkpt>
      <trkpt lat="42.537617795169353485107421875" lon="20.16264737583696842193603515625">
        <ele>1960.199951171875</ele>
        <time>2026-06-20T08:27:13.000Z</time>
        <extensions>
          <ns3:TrackPointExtension>
            <ns3:atemp>21.0</ns3:atemp>
          </ns3:TrackPointExtension>
        </extensions>
      </trkpt>
      <trkpt lat="42.537617795169353485107421875" lon="20.16264737583696842193603515625">
        <ele>1960</ele>
        <time>2026-06-20T08:27:14.000Z</time>
        <extensions>
          <ns3:TrackPointExtension>
            <ns3:atemp>21.0</ns3:atemp>
          </ns3:TrackPointExtension>
        </extensions>
      </trkpt>
      <trkpt lat="42.537617795169353485107421875" lon="20.16264737583696842193603515625">
        <ele>1960</ele>
        <time>2026-06-20T08:27:15.000Z</time>
        <extensions>
          <ns3:TrackPointExtension>
            <ns3:atemp>21.0</ns3:atemp>
          </ns3:TrackPointExtension>
        </extensions>
      </trkpt>
      <trkpt lat="42.537617795169353485107421875" lon="20.16264737583696842193603515625">
        <ele>1960</ele>
        <time>2026-06-20T08:27:16.000Z</time>
        <extensions>
          <ns3:TrackPointExtension>
            <ns3:atemp>21.0</ns3:atemp>
          </ns3:TrackPointExtension>
        </extensions>
      </trkpt>
      <trkpt lat="42.537617795169353485107421875" lon="20.16264737583696842193603515625">
        <ele>1960</ele>
        <time>2026-06-20T08:27:17.000Z</time>
        <extensions>
          <ns3:TrackPointExtension>
            <ns3:atemp>21.0</ns3:atemp>
          </ns3:TrackPointExtension>
        </extensions>
      </trkpt>
      <trkpt lat="42.537617795169353485107421875" lon="20.16264737583696842193603515625">
        <ele>1960</ele>
        <time>2026-06-20T08:27:18.000Z</time>
        <extensions>
          <ns3:TrackPointExtension>
            <ns3:atemp>21.0</ns3:atemp>
          </ns3:TrackPointExtension>
        </extensions>
      </trkpt>
      <trkpt lat="42.537617795169353485107421875" lon="20.16264737583696842193603515625">
        <ele>1960</ele>
        <time>2026-06-20T08:27:19.000Z</time>
        <extensions>
          <ns3:TrackPointExtension>
            <ns3:atemp>21.0</ns3:atemp>
          </ns3:TrackPointExtension>
        </extensions>
      </trkpt>
      <trkpt lat="42.537617795169353485107421875" lon="20.16264737583696842193603515625">
        <ele>1960</ele>
        <time>2026-06-20T08:27:20.000Z</time>
        <extensions>
          <ns3:TrackPointExtension>
            <ns3:atemp>21.0</ns3:atemp>
          </ns3:TrackPointExtension>
        </extensions>
      </trkpt>
      <trkpt lat="42.537617795169353485107421875" lon="20.16264737583696842193603515625">
        <ele>1960</ele>
        <time>2026-06-20T08:27:21.000Z</time>
        <extensions>
          <ns3:TrackPointExtension>
            <ns3:atemp>21.0</ns3:atemp>
          </ns3:TrackPointExtension>
        </extensions>
      </trkpt>
      <trkpt lat="42.537617795169353485107421875" lon="20.16264737583696842193603515625">
        <ele>1960</ele>
        <time>2026-06-20T08:27:22.000Z</time>
        <extensions>
          <ns3:TrackPointExtension>
            <ns3:atemp>21.0</ns3:atemp>
          </ns3:TrackPointExtension>
        </extensions>
      </trkpt>
      <trkpt lat="42.537617795169353485107421875" lon="20.16264737583696842193603515625">
        <ele>1960</ele>
        <time>2026-06-20T08:27:23.000Z</time>
        <extensions>
          <ns3:TrackPointExtension>
            <ns3:atemp>21.0</ns3:atemp>
          </ns3:TrackPointExtension>
        </extensions>
      </trkpt>
      <trkpt lat="42.537617795169353485107421875" lon="20.16264737583696842193603515625">
        <ele>1960</ele>
        <time>2026-06-20T08:27:24.000Z</time>
        <extensions>
          <ns3:TrackPointExtension>
            <ns3:atemp>21.0</ns3:atemp>
          </ns3:TrackPointExtension>
        </extensions>
      </trkpt>
      <trkpt lat="42.537617795169353485107421875" lon="20.16264737583696842193603515625">
        <ele>1960</ele>
        <time>2026-06-20T08:27:25.000Z</time>
        <extensions>
          <ns3:TrackPointExtension>
            <ns3:atemp>21.0</ns3:atemp>
          </ns3:TrackPointExtension>
        </extensions>
      </trkpt>
      <trkpt lat="42.537617795169353485107421875" lon="20.16264737583696842193603515625">
        <ele>1960</ele>
        <time>2026-06-20T08:27:26.000Z</time>
        <extensions>
          <ns3:TrackPointExtension>
            <ns3:atemp>21.0</ns3:atemp>
          </ns3:TrackPointExtension>
        </extensions>
      </trkpt>
      <trkpt lat="42.537617795169353485107421875" lon="20.16264737583696842193603515625">
        <ele>1959.800048828125</ele>
        <time>2026-06-20T08:27:27.000Z</time>
        <extensions>
          <ns3:TrackPointExtension>
            <ns3:atemp>21.0</ns3:atemp>
          </ns3:TrackPointExtension>
        </extensions>
      </trkpt>
      <trkpt lat="42.537617795169353485107421875" lon="20.16264737583696842193603515625">
        <ele>1959.800048828125</ele>
        <time>2026-06-20T08:27:28.000Z</time>
        <extensions>
          <ns3:TrackPointExtension>
            <ns3:atemp>21.0</ns3:atemp>
          </ns3:TrackPointExtension>
        </extensions>
      </trkpt>
      <trkpt lat="42.537617795169353485107421875" lon="20.16264737583696842193603515625">
        <ele>1959.5999755859375</ele>
        <time>2026-06-20T08:27:29.000Z</time>
        <extensions>
          <ns3:TrackPointExtension>
            <ns3:atemp>21.0</ns3:atemp>
          </ns3:TrackPointExtension>
        </extensions>
      </trkpt>
      <trkpt lat="42.537617795169353485107421875" lon="20.16264737583696842193603515625">
        <ele>1959.5999755859375</ele>
        <time>2026-06-20T08:27:30.000Z</time>
        <extensions>
          <ns3:TrackPointExtension>
            <ns3:atemp>21.0</ns3:atemp>
          </ns3:TrackPointExtension>
        </extensions>
      </trkpt>
      <trkpt lat="42.537617795169353485107421875" lon="20.16264737583696842193603515625">
        <ele>1959.5999755859375</ele>
        <time>2026-06-20T08:27:31.000Z</time>
        <extensions>
          <ns3:TrackPointExtension>
            <ns3:atemp>21.0</ns3:atemp>
          </ns3:TrackPointExtension>
        </extensions>
      </trkpt>
      <trkpt lat="42.537617795169353485107421875" lon="20.16264737583696842193603515625">
        <ele>1959.5999755859375</ele>
        <time>2026-06-20T08:27:32.000Z</time>
        <extensions>
          <ns3:TrackPointExtension>
            <ns3:atemp>21.0</ns3:atemp>
          </ns3:TrackPointExtension>
        </extensions>
      </trkpt>
      <trkpt lat="42.537617795169353485107421875" lon="20.16264737583696842193603515625">
        <ele>1959.5999755859375</ele>
        <time>2026-06-20T08:27:33.000Z</time>
        <extensions>
          <ns3:TrackPointExtension>
            <ns3:atemp>21.0</ns3:atemp>
          </ns3:TrackPointExtension>
        </extensions>
      </trkpt>
      <trkpt lat="42.537617795169353485107421875" lon="20.16264737583696842193603515625">
        <ele>1959.5999755859375</ele>
        <time>2026-06-20T08:27:34.000Z</time>
        <extensions>
          <ns3:TrackPointExtension>
            <ns3:atemp>21.0</ns3:atemp>
          </ns3:TrackPointExtension>
        </extensions>
      </trkpt>
      <trkpt lat="42.537617795169353485107421875" lon="20.16264737583696842193603515625">
        <ele>1959.5999755859375</ele>
        <time>2026-06-20T08:27:35.000Z</time>
        <extensions>
          <ns3:TrackPointExtension>
            <ns3:atemp>21.0</ns3:atemp>
          </ns3:TrackPointExtension>
        </extensions>
      </trkpt>
      <trkpt lat="42.537617795169353485107421875" lon="20.16264737583696842193603515625">
        <ele>1959.5999755859375</ele>
        <time>2026-06-20T08:27:36.000Z</time>
        <extensions>
          <ns3:TrackPointExtension>
            <ns3:atemp>21.0</ns3:atemp>
          </ns3:TrackPointExtension>
        </extensions>
      </trkpt>
      <trkpt lat="42.537617795169353485107421875" lon="20.16264737583696842193603515625">
        <ele>1959.5999755859375</ele>
        <time>2026-06-20T08:27:37.000Z</time>
        <extensions>
          <ns3:TrackPointExtension>
            <ns3:atemp>21.0</ns3:atemp>
          </ns3:TrackPointExtension>
        </extensions>
      </trkpt>
      <trkpt lat="42.537617795169353485107421875" lon="20.16264737583696842193603515625">
        <ele>1959.5999755859375</ele>
        <time>2026-06-20T08:27:38.000Z</time>
        <extensions>
          <ns3:TrackPointExtension>
            <ns3:atemp>21.0</ns3:atemp>
          </ns3:TrackPointExtension>
        </extensions>
      </trkpt>
      <trkpt lat="42.537617795169353485107421875" lon="20.16264737583696842193603515625">
        <ele>1959.5999755859375</ele>
        <time>2026-06-20T08:27:39.000Z</time>
        <extensions>
          <ns3:TrackPointExtension>
            <ns3:atemp>21.0</ns3:atemp>
          </ns3:TrackPointExtension>
        </extensions>
      </trkpt>
      <trkpt lat="42.537617795169353485107421875" lon="20.16264737583696842193603515625">
        <ele>1959.5999755859375</ele>
        <time>2026-06-20T08:27:40.000Z</time>
        <extensions>
          <ns3:TrackPointExtension>
            <ns3:atemp>21.0</ns3:atemp>
          </ns3:TrackPointExtension>
        </extensions>
      </trkpt>
      <trkpt lat="42.537617795169353485107421875" lon="20.16264737583696842193603515625">
        <ele>1959.5999755859375</ele>
        <time>2026-06-20T08:27:41.000Z</time>
        <extensions>
          <ns3:TrackPointExtension>
            <ns3:atemp>21.0</ns3:atemp>
          </ns3:TrackPointExtension>
        </extensions>
      </trkpt>
      <trkpt lat="42.537617795169353485107421875" lon="20.16264737583696842193603515625">
        <ele>1959.5999755859375</ele>
        <time>2026-06-20T08:27:42.000Z</time>
        <extensions>
          <ns3:TrackPointExtension>
            <ns3:atemp>21.0</ns3:atemp>
          </ns3:TrackPointExtension>
        </extensions>
      </trkpt>
      <trkpt lat="42.537617795169353485107421875" lon="20.16264737583696842193603515625">
        <ele>1959.800048828125</ele>
        <time>2026-06-20T08:27:43.000Z</time>
        <extensions>
          <ns3:TrackPointExtension>
            <ns3:atemp>21.0</ns3:atemp>
          </ns3:TrackPointExtension>
        </extensions>
      </trkpt>
      <trkpt lat="42.537617795169353485107421875" lon="20.16264737583696842193603515625">
        <ele>1959.800048828125</ele>
        <time>2026-06-20T08:27:44.000Z</time>
        <extensions>
          <ns3:TrackPointExtension>
            <ns3:atemp>21.0</ns3:atemp>
          </ns3:TrackPointExtension>
        </extensions>
      </trkpt>
      <trkpt lat="42.537617795169353485107421875" lon="20.16264737583696842193603515625">
        <ele>1959.800048828125</ele>
        <time>2026-06-20T08:27:45.000Z</time>
        <extensions>
          <ns3:TrackPointExtension>
            <ns3:atemp>21.0</ns3:atemp>
          </ns3:TrackPointExtension>
        </extensions>
      </trkpt>
      <trkpt lat="42.537617795169353485107421875" lon="20.16264737583696842193603515625">
        <ele>1959.800048828125</ele>
        <time>2026-06-20T08:27:46.000Z</time>
        <extensions>
          <ns3:TrackPointExtension>
            <ns3:atemp>21.0</ns3:atemp>
          </ns3:TrackPointExtension>
        </extensions>
      </trkpt>
      <trkpt lat="42.537617795169353485107421875" lon="20.16264737583696842193603515625">
        <ele>1960</ele>
        <time>2026-06-20T08:27:47.000Z</time>
        <extensions>
          <ns3:TrackPointExtension>
            <ns3:atemp>21.0</ns3:atemp>
          </ns3:TrackPointExtension>
        </extensions>
      </trkpt>
      <trkpt lat="42.537617795169353485107421875" lon="20.16264737583696842193603515625">
        <ele>1960</ele>
        <time>2026-06-20T08:27:48.000Z</time>
        <extensions>
          <ns3:TrackPointExtension>
            <ns3:atemp>21.0</ns3:atemp>
          </ns3:TrackPointExtension>
        </extensions>
      </trkpt>
      <trkpt lat="42.537617795169353485107421875" lon="20.16264737583696842193603515625">
        <ele>1960</ele>
        <time>2026-06-20T08:27:49.000Z</time>
        <extensions>
          <ns3:TrackPointExtension>
            <ns3:atemp>21.0</ns3:atemp>
          </ns3:TrackPointExtension>
        </extensions>
      </trkpt>
      <trkpt lat="42.537617795169353485107421875" lon="20.16264737583696842193603515625">
        <ele>1959.800048828125</ele>
        <time>2026-06-20T08:27:50.000Z</time>
        <extensions>
          <ns3:TrackPointExtension>
            <ns3:atemp>21.0</ns3:atemp>
          </ns3:TrackPointExtension>
        </extensions>
      </trkpt>
      <trkpt lat="42.537617795169353485107421875" lon="20.16264737583696842193603515625">
        <ele>1959.800048828125</ele>
        <time>2026-06-20T08:27:51.000Z</time>
        <extensions>
          <ns3:TrackPointExtension>
            <ns3:atemp>21.0</ns3:atemp>
          </ns3:TrackPointExtension>
        </extensions>
      </trkpt>
      <trkpt lat="42.537617795169353485107421875" lon="20.16264737583696842193603515625">
        <ele>1959.800048828125</ele>
        <time>2026-06-20T08:27:52.000Z</time>
        <extensions>
          <ns3:TrackPointExtension>
            <ns3:atemp>21.0</ns3:atemp>
          </ns3:TrackPointExtension>
        </extensions>
      </trkpt>
      <trkpt lat="42.537617795169353485107421875" lon="20.16264737583696842193603515625">
        <ele>1959.800048828125</ele>
        <time>2026-06-20T08:27:53.000Z</time>
        <extensions>
          <ns3:TrackPointExtension>
            <ns3:atemp>21.0</ns3:atemp>
          </ns3:TrackPointExtension>
        </extensions>
      </trkpt>
      <trkpt lat="42.53761637024581432342529296875" lon="20.16265324316918849945068359375">
        <ele>1959.800048828125</ele>
        <time>2026-06-20T08:27:54.000Z</time>
        <extensions>
          <ns3:TrackPointExtension>
            <ns3:atemp>21.0</ns3:atemp>
          </ns3:TrackPointExtension>
        </extensions>
      </trkpt>
      <trkpt lat="42.5376216508448123931884765625" lon="20.16269213519990444183349609375">
        <ele>1959.800048828125</ele>
        <time>2026-06-20T08:27:55.000Z</time>
        <extensions>
          <ns3:TrackPointExtension>
            <ns3:atemp>21.0</ns3:atemp>
          </ns3:TrackPointExtension>
        </extensions>
      </trkpt>
      <trkpt lat="42.5376216508448123931884765625" lon="20.16269213519990444183349609375">
        <ele>1959.5999755859375</ele>
        <time>2026-06-20T08:27:56.000Z</time>
        <extensions>
          <ns3:TrackPointExtension>
            <ns3:atemp>21.0</ns3:atemp>
          </ns3:TrackPointExtension>
        </extensions>
      </trkpt>
      <trkpt lat="42.53763355314731597900390625" lon="20.162720717489719390869140625">
        <ele>1959.4000244140625</ele>
        <time>2026-06-20T08:27:57.000Z</time>
        <extensions>
          <ns3:TrackPointExtension>
            <ns3:atemp>21.0</ns3:atemp>
          </ns3:TrackPointExtension>
        </extensions>
      </trkpt>
      <trkpt lat="42.53766716457903385162353515625" lon="20.1627539098262786865234375">
        <ele>1959.199951171875</ele>
        <time>2026-06-20T08:27:58.000Z</time>
        <extensions>
          <ns3:TrackPointExtension>
            <ns3:atemp>21.0</ns3:atemp>
          </ns3:TrackPointExtension>
        </extensions>
      </trkpt>
      <trkpt lat="42.53768091090023517608642578125" lon="20.1627721823751926422119140625">
        <ele>1959</ele>
        <time>2026-06-20T08:27:59.000Z</time>
        <extensions>
          <ns3:TrackPointExtension>
            <ns3:atemp>21.0</ns3:atemp>
          </ns3:TrackPointExtension>
        </extensions>
      </trkpt>
      <trkpt lat="42.5376967526972293853759765625" lon="20.16278735361993312835693359375">
        <ele>1958.5999755859375</ele>
        <time>2026-06-20T08:28:00.000Z</time>
        <extensions>
          <ns3:TrackPointExtension>
            <ns3:atemp>21.0</ns3:atemp>
          </ns3:TrackPointExtension>
        </extensions>
      </trkpt>
      <trkpt lat="42.5377101637423038482666015625" lon="20.16280747018754482269287109375">
        <ele>1958.4000244140625</ele>
        <time>2026-06-20T08:28:01.000Z</time>
        <extensions>
          <ns3:TrackPointExtension>
            <ns3:atemp>21.0</ns3:atemp>
          </ns3:TrackPointExtension>
        </extensions>
      </trkpt>
      <trkpt lat="42.5377101637423038482666015625" lon="20.16280747018754482269287109375">
        <ele>1958.199951171875</ele>
        <time>2026-06-20T08:28:02.000Z</time>
        <extensions>
          <ns3:TrackPointExtension>
            <ns3:atemp>21.0</ns3:atemp>
          </ns3:TrackPointExtension>
        </extensions>
      </trkpt>
      <trkpt lat="42.53773489035665988922119140625" lon="20.16283764503896236419677734375">
        <ele>1958</ele>
        <time>2026-06-20T08:28:03.000Z</time>
        <extensions>
          <ns3:TrackPointExtension>
            <ns3:atemp>21.0</ns3:atemp>
          </ns3:TrackPointExtension>
        </extensions>
      </trkpt>
      <trkpt lat="42.5377426855266094207763671875" lon="20.1628489606082439422607421875">
        <ele>1957.800048828125</ele>
        <time>2026-06-20T08:28:04.000Z</time>
        <extensions>
          <ns3:TrackPointExtension>
            <ns3:atemp>21.0</ns3:atemp>
          </ns3:TrackPointExtension>
        </extensions>
      </trkpt>
      <trkpt lat="42.5377426855266094207763671875" lon="20.1628489606082439422607421875">
        <ele>1957.4000244140625</ele>
        <time>2026-06-20T08:28:05.000Z</time>
        <extensions>
          <ns3:TrackPointExtension>
            <ns3:atemp>21.0</ns3:atemp>
          </ns3:TrackPointExtension>
        </extensions>
      </trkpt>
      <trkpt lat="42.53776825033128261566162109375" lon="20.16287318430840969085693359375">
        <ele>1957.199951171875</ele>
        <time>2026-06-20T08:28:06.000Z</time>
        <extensions>
          <ns3:TrackPointExtension>
            <ns3:atemp>21.0</ns3:atemp>
          </ns3:TrackPointExtension>
        </extensions>
      </trkpt>
      <trkpt lat="42.53776825033128261566162109375" lon="20.16287318430840969085693359375">
        <ele>1956.800048828125</ele>
        <time>2026-06-20T08:28:07.000Z</time>
        <extensions>
          <ns3:TrackPointExtension>
            <ns3:atemp>21.0</ns3:atemp>
          </ns3:TrackPointExtension>
        </extensions>
      </trkpt>
      <trkpt lat="42.5377758778631687164306640625" lon="20.1628814823925495147705078125">
        <ele>1956.4000244140625</ele>
        <time>2026-06-20T08:28:08.000Z</time>
        <extensions>
          <ns3:TrackPointExtension>
            <ns3:atemp>21.0</ns3:atemp>
          </ns3:TrackPointExtension>
        </extensions>
      </trkpt>
      <trkpt lat="42.53780328668653964996337890625" lon="20.162918530404567718505859375">
        <ele>1955.800048828125</ele>
        <time>2026-06-20T08:28:09.000Z</time>
        <extensions>
          <ns3:TrackPointExtension>
            <ns3:atemp>21.0</ns3:atemp>
          </ns3:TrackPointExtension>
        </extensions>
      </trkpt>
      <trkpt lat="42.53782038576900959014892578125" lon="20.16294769942760467529296875">
        <ele>1955.4000244140625</ele>
        <time>2026-06-20T08:28:10.000Z</time>
        <extensions>
          <ns3:TrackPointExtension>
            <ns3:atemp>21.0</ns3:atemp>
          </ns3:TrackPointExtension>
        </extensions>
      </trkpt>
      <trkpt lat="42.53783698193728923797607421875" lon="20.1629656367003917694091796875">
        <ele>1955</ele>
        <time>2026-06-20T08:28:11.000Z</time>
        <extensions>
          <ns3:TrackPointExtension>
            <ns3:atemp>21.0</ns3:atemp>
          </ns3:TrackPointExtension>
        </extensions>
      </trkpt>
      <trkpt lat="42.53783698193728923797607421875" lon="20.1629656367003917694091796875">
        <ele>1954.5999755859375</ele>
        <time>2026-06-20T08:28:12.000Z</time>
        <extensions>
          <ns3:TrackPointExtension>
            <ns3:atemp>21.0</ns3:atemp>
          </ns3:TrackPointExtension>
        </extensions>
      </trkpt>
      <trkpt lat="42.537867911159992218017578125" lon="20.16298935748636722564697265625">
        <ele>1954.199951171875</ele>
        <time>2026-06-20T08:28:13.000Z</time>
        <extensions>
          <ns3:TrackPointExtension>
            <ns3:atemp>21.0</ns3:atemp>
          </ns3:TrackPointExtension>
        </extensions>
      </trkpt>
      <trkpt lat="42.5378838367760181427001953125" lon="20.1629971526563167572021484375">
        <ele>1954</ele>
        <time>2026-06-20T08:28:14.000Z</time>
        <extensions>
          <ns3:TrackPointExtension>
            <ns3:atemp>21.0</ns3:atemp>
          </ns3:TrackPointExtension>
        </extensions>
      </trkpt>
      <trkpt lat="42.53790303133428096771240234375" lon="20.1629998348653316497802734375">
        <ele>1953.5999755859375</ele>
        <time>2026-06-20T08:28:15.000Z</time>
        <extensions>
          <ns3:TrackPointExtension>
            <ns3:atemp>21.0</ns3:atemp>
          </ns3:TrackPointExtension>
        </extensions>
      </trkpt>
      <trkpt lat="42.537919543683528900146484375" lon="20.16300226561725139617919921875">
        <ele>1953.199951171875</ele>
        <time>2026-06-20T08:28:16.000Z</time>
        <extensions>
          <ns3:TrackPointExtension>
            <ns3:atemp>21.0</ns3:atemp>
          </ns3:TrackPointExtension>
        </extensions>
      </trkpt>
      <trkpt lat="42.537919543683528900146484375" lon="20.16300226561725139617919921875">
        <ele>1952.800048828125</ele>
        <time>2026-06-20T08:28:17.000Z</time>
        <extensions>
          <ns3:TrackPointExtension>
            <ns3:atemp>21.0</ns3:atemp>
          </ns3:TrackPointExtension>
        </extensions>
      </trkpt>
      <trkpt lat="42.537957765161991119384765625" lon="20.16302053816616535186767578125">
        <ele>1952.199951171875</ele>
        <time>2026-06-20T08:28:18.000Z</time>
        <extensions>
          <ns3:TrackPointExtension>
            <ns3:atemp>21.0</ns3:atemp>
          </ns3:TrackPointExtension>
        </extensions>
      </trkpt>
      <trkpt lat="42.53797293640673160552978515625" lon="20.16303327865898609161376953125">
        <ele>1951.5999755859375</ele>
        <time>2026-06-20T08:28:19.000Z</time>
        <extensions>
          <ns3:TrackPointExtension>
            <ns3:atemp>21.0</ns3:atemp>
          </ns3:TrackPointExtension>
        </extensions>
      </trkpt>
      <trkpt lat="42.53798115067183971405029296875" lon="20.16304970718920230865478515625">
        <ele>1951.199951171875</ele>
        <time>2026-06-20T08:28:20.000Z</time>
        <extensions>
          <ns3:TrackPointExtension>
            <ns3:atemp>21.0</ns3:atemp>
          </ns3:TrackPointExtension>
        </extensions>
      </trkpt>
      <trkpt lat="42.53799020312726497650146484375" lon="20.16306781210005283355712890625">
        <ele>1950.800048828125</ele>
        <time>2026-06-20T08:28:21.000Z</time>
        <extensions>
          <ns3:TrackPointExtension>
            <ns3:atemp>21.0</ns3:atemp>
          </ns3:TrackPointExtension>
        </extensions>
      </trkpt>
      <trkpt lat="42.53799858503043651580810546875" lon="20.16308306716382503509521484375">
        <ele>1950.4000244140625</ele>
        <time>2026-06-20T08:28:22.000Z</time>
        <extensions>
          <ns3:TrackPointExtension>
            <ns3:atemp>21.0</ns3:atemp>
          </ns3:TrackPointExtension>
        </extensions>
      </trkpt>
      <trkpt lat="42.538005374372005462646484375" lon="20.16310418955981731414794921875">
        <ele>1950.199951171875</ele>
        <time>2026-06-20T08:28:23.000Z</time>
        <extensions>
          <ns3:TrackPointExtension>
            <ns3:atemp>21.0</ns3:atemp>
          </ns3:TrackPointExtension>
        </extensions>
      </trkpt>
      <trkpt lat="42.538005374372005462646484375" lon="20.16310418955981731414794921875">
        <ele>1949.800048828125</ele>
        <time>2026-06-20T08:28:24.000Z</time>
        <extensions>
          <ns3:TrackPointExtension>
            <ns3:atemp>21.0</ns3:atemp>
          </ns3:TrackPointExtension>
        </extensions>
      </trkpt>
      <trkpt lat="42.53802272491157054901123046875" lon="20.16314157284796237945556640625">
        <ele>1949.5999755859375</ele>
        <time>2026-06-20T08:28:25.000Z</time>
        <extensions>
          <ns3:TrackPointExtension>
            <ns3:atemp>21.0</ns3:atemp>
          </ns3:TrackPointExtension>
        </extensions>
      </trkpt>
      <trkpt lat="42.53802272491157054901123046875" lon="20.16314157284796237945556640625">
        <ele>1949.4000244140625</ele>
        <time>2026-06-20T08:28:26.000Z</time>
        <extensions>
          <ns3:TrackPointExtension>
            <ns3:atemp>21.0</ns3:atemp>
          </ns3:TrackPointExtension>
        </extensions>
      </trkpt>
      <trkpt lat="42.53803186118602752685546875" lon="20.1631862483918666839599609375">
        <ele>1949</ele>
        <time>2026-06-20T08:28:27.000Z</time>
        <extensions>
          <ns3:TrackPointExtension>
            <ns3:atemp>21.0</ns3:atemp>
          </ns3:TrackPointExtension>
        </extensions>
      </trkpt>
      <trkpt lat="42.53803990781307220458984375" lon="20.1632046885788440704345703125">
        <ele>1948.5999755859375</ele>
        <time>2026-06-20T08:28:28.000Z</time>
        <extensions>
          <ns3:TrackPointExtension>
            <ns3:atemp>21.0</ns3:atemp>
          </ns3:TrackPointExtension>
        </extensions>
      </trkpt>
      <trkpt lat="42.5380487926304340362548828125" lon="20.16322539187967777252197265625">
        <ele>1948</ele>
        <time>2026-06-20T08:28:29.000Z</time>
        <extensions>
          <ns3:TrackPointExtension>
            <ns3:atemp>21.0</ns3:atemp>
          </ns3:TrackPointExtension>
        </extensions>
      </trkpt>
      <trkpt lat="42.53805323503911495208740234375" lon="20.16325456090271472930908203125">
        <ele>1947.5999755859375</ele>
        <time>2026-06-20T08:28:30.000Z</time>
        <extensions>
          <ns3:TrackPointExtension>
            <ns3:atemp>21.0</ns3:atemp>
          </ns3:TrackPointExtension>
        </extensions>
      </trkpt>
      <trkpt lat="42.53805072046816349029541015625" lon="20.16327886842191219329833984375">
        <ele>1947.199951171875</ele>
        <time>2026-06-20T08:28:31.000Z</time>
        <extensions>
          <ns3:TrackPointExtension>
            <ns3:atemp>21.0</ns3:atemp>
          </ns3:TrackPointExtension>
        </extensions>
      </trkpt>
      <trkpt lat="42.5380432605743408203125" lon="20.16329864971339702606201171875">
        <ele>1946.800048828125</ele>
        <time>2026-06-20T08:28:32.000Z</time>
        <extensions>
          <ns3:TrackPointExtension>
            <ns3:atemp>21.0</ns3:atemp>
          </ns3:TrackPointExtension>
        </extensions>
      </trkpt>
      <trkpt lat="42.5380432605743408203125" lon="20.16329864971339702606201171875">
        <ele>1946.4000244140625</ele>
        <time>2026-06-20T08:28:33.000Z</time>
        <extensions>
          <ns3:TrackPointExtension>
            <ns3:atemp>22.0</ns3:atemp>
          </ns3:TrackPointExtension>
        </extensions>
      </trkpt>
      <trkpt lat="42.53801434300839900970458984375" lon="20.163320191204547882080078125">
        <ele>1946</ele>
        <time>2026-06-20T08:28:34.000Z</time>
        <extensions>
          <ns3:TrackPointExtension>
            <ns3:atemp>22.0</ns3:atemp>
          </ns3:TrackPointExtension>
        </extensions>
      </trkpt>
      <trkpt lat="42.53801434300839900970458984375" lon="20.163320191204547882080078125">
        <ele>1945.800048828125</ele>
        <time>2026-06-20T08:28:35.000Z</time>
        <extensions>
          <ns3:TrackPointExtension>
            <ns3:atemp>22.0</ns3:atemp>
          </ns3:TrackPointExtension>
        </extensions>
      </trkpt>
      <trkpt lat="42.537992633879184722900390625" lon="20.1633237116038799285888671875">
        <ele>1945.800048828125</ele>
        <time>2026-06-20T08:28:36.000Z</time>
        <extensions>
          <ns3:TrackPointExtension>
            <ns3:atemp>22.0</ns3:atemp>
          </ns3:TrackPointExtension>
        </extensions>
      </trkpt>
      <trkpt lat="42.53795617260038852691650390625" lon="20.16331004910171031951904296875">
        <ele>1946</ele>
        <time>2026-06-20T08:28:37.000Z</time>
        <extensions>
          <ns3:TrackPointExtension>
            <ns3:atemp>22.0</ns3:atemp>
          </ns3:TrackPointExtension>
        </extensions>
      </trkpt>
      <trkpt lat="42.53794007934629917144775390625" lon="20.16329647041857242584228515625">
        <ele>1946</ele>
        <time>2026-06-20T08:28:38.000Z</time>
        <extensions>
          <ns3:TrackPointExtension>
            <ns3:atemp>22.0</ns3:atemp>
          </ns3:TrackPointExtension>
        </extensions>
      </trkpt>
      <trkpt lat="42.53792733885347843170166015625" lon="20.16328171826899051666259765625">
        <ele>1946.199951171875</ele>
        <time>2026-06-20T08:28:39.000Z</time>
        <extensions>
          <ns3:TrackPointExtension>
            <ns3:atemp>22.0</ns3:atemp>
          </ns3:TrackPointExtension>
        </extensions>
      </trkpt>
      <trkpt lat="42.53792096860706806182861328125" lon="20.1632606796920299530029296875">
        <ele>1946.5999755859375</ele>
        <time>2026-06-20T08:28:40.000Z</time>
        <extensions>
          <ns3:TrackPointExtension>
            <ns3:atemp>22.0</ns3:atemp>
          </ns3:TrackPointExtension>
        </extensions>
      </trkpt>
      <trkpt lat="42.53792096860706806182861328125" lon="20.1632606796920299530029296875">
        <ele>1946.800048828125</ele>
        <time>2026-06-20T08:28:41.000Z</time>
        <extensions>
          <ns3:TrackPointExtension>
            <ns3:atemp>21.0</ns3:atemp>
          </ns3:TrackPointExtension>
        </extensions>
      </trkpt>
      <trkpt lat="42.53791962750256061553955078125" lon="20.1632395572960376739501953125">
        <ele>1947</ele>
        <time>2026-06-20T08:28:42.000Z</time>
        <extensions>
          <ns3:TrackPointExtension>
            <ns3:atemp>21.0</ns3:atemp>
          </ns3:TrackPointExtension>
        </extensions>
      </trkpt>
      <trkpt lat="42.53791225142776966094970703125" lon="20.163188762962818145751953125">
        <ele>1947.4000244140625</ele>
        <time>2026-06-20T08:28:43.000Z</time>
        <extensions>
          <ns3:TrackPointExtension>
            <ns3:atemp>21.0</ns3:atemp>
          </ns3:TrackPointExtension>
        </extensions>
      </trkpt>
      <trkpt lat="42.53791225142776966094970703125" lon="20.163188762962818145751953125">
        <ele>1947.5999755859375</ele>
        <time>2026-06-20T08:28:44.000Z</time>
        <extensions>
          <ns3:TrackPointExtension>
            <ns3:atemp>21.0</ns3:atemp>
          </ns3:TrackPointExtension>
        </extensions>
      </trkpt>
      <trkpt lat="42.53789632581174373626708984375" lon="20.16313453204929828643798828125">
        <ele>1948.199951171875</ele>
        <time>2026-06-20T08:28:45.000Z</time>
        <extensions>
          <ns3:TrackPointExtension>
            <ns3:atemp>21.0</ns3:atemp>
          </ns3:TrackPointExtension>
        </extensions>
      </trkpt>
      <trkpt lat="42.53788693808019161224365234375" lon="20.16310997307300567626953125">
        <ele>1948.5999755859375</ele>
        <time>2026-06-20T08:28:46.000Z</time>
        <extensions>
          <ns3:TrackPointExtension>
            <ns3:atemp>21.0</ns3:atemp>
          </ns3:TrackPointExtension>
        </extensions>
      </trkpt>
      <trkpt lat="42.53787495195865631103515625" lon="20.1630930416285991668701171875">
        <ele>1949</ele>
        <time>2026-06-20T08:28:47.000Z</time>
        <extensions>
          <ns3:TrackPointExtension>
            <ns3:atemp>21.0</ns3:atemp>
          </ns3:TrackPointExtension>
        </extensions>
      </trkpt>
      <trkpt lat="42.537864558398723602294921875" lon="20.16307300888001918792724609375">
        <ele>1949.4000244140625</ele>
        <time>2026-06-20T08:28:48.000Z</time>
        <extensions>
          <ns3:TrackPointExtension>
            <ns3:atemp>21.0</ns3:atemp>
          </ns3:TrackPointExtension>
        </extensions>
      </trkpt>
      <trkpt lat="42.5378580205142498016357421875" lon="20.1630538143217563629150390625">
        <ele>1949.800048828125</ele>
        <time>2026-06-20T08:28:49.000Z</time>
        <extensions>
          <ns3:TrackPointExtension>
            <ns3:atemp>21.0</ns3:atemp>
          </ns3:TrackPointExtension>
        </extensions>
      </trkpt>
      <trkpt lat="42.5378580205142498016357421875" lon="20.1630538143217563629150390625">
        <ele>1950.199951171875</ele>
        <time>2026-06-20T08:28:50.000Z</time>
        <extensions>
          <ns3:TrackPointExtension>
            <ns3:atemp>21.0</ns3:atemp>
          </ns3:TrackPointExtension>
        </extensions>
      </trkpt>
      <trkpt lat="42.53784921951591968536376953125" lon="20.163038559257984161376953125">
        <ele>1950.5999755859375</ele>
        <time>2026-06-20T08:28:51.000Z</time>
        <extensions>
          <ns3:TrackPointExtension>
            <ns3:atemp>21.0</ns3:atemp>
          </ns3:TrackPointExtension>
        </extensions>
      </trkpt>
      <trkpt lat="42.53781569190323352813720703125" lon="20.1630330272018909454345703125">
        <ele>1951</ele>
        <time>2026-06-20T08:28:52.000Z</time>
        <extensions>
          <ns3:TrackPointExtension>
            <ns3:atemp>21.0</ns3:atemp>
          </ns3:TrackPointExtension>
        </extensions>
      </trkpt>
      <trkpt lat="42.53781569190323352813720703125" lon="20.1630330272018909454345703125">
        <ele>1951.4000244140625</ele>
        <time>2026-06-20T08:28:53.000Z</time>
        <extensions>
          <ns3:TrackPointExtension>
            <ns3:atemp>22.0</ns3:atemp>
          </ns3:TrackPointExtension>
        </extensions>
      </trkpt>
      <trkpt lat="42.537775374948978424072265625" lon="20.16303830780088901519775390625">
        <ele>1951.5999755859375</ele>
        <time>2026-06-20T08:28:54.000Z</time>
        <extensions>
          <ns3:TrackPointExtension>
            <ns3:atemp>22.0</ns3:atemp>
          </ns3:TrackPointExtension>
        </extensions>
      </trkpt>
      <trkpt lat="42.537775374948978424072265625" lon="20.16303830780088901519775390625">
        <ele>1952</ele>
        <time>2026-06-20T08:28:55.000Z</time>
        <extensions>
          <ns3:TrackPointExtension>
            <ns3:atemp>21.0</ns3:atemp>
          </ns3:TrackPointExtension>
        </extensions>
      </trkpt>
      <trkpt lat="42.53773656673729419708251953125" lon="20.16302682459354400634765625">
        <ele>1952.4000244140625</ele>
        <time>2026-06-20T08:28:56.000Z</time>
        <extensions>
          <ns3:TrackPointExtension>
            <ns3:atemp>21.0</ns3:atemp>
          </ns3:TrackPointExtension>
        </extensions>
      </trkpt>
      <trkpt lat="42.5377200543880462646484375" lon="20.163024477660655975341796875">
        <ele>1952.800048828125</ele>
        <time>2026-06-20T08:28:57.000Z</time>
        <extensions>
          <ns3:TrackPointExtension>
            <ns3:atemp>21.0</ns3:atemp>
          </ns3:TrackPointExtension>
        </extensions>
      </trkpt>
      <trkpt lat="42.53770387731492519378662109375" lon="20.16301902942359447479248046875">
        <ele>1953.199951171875</ele>
        <time>2026-06-20T08:28:58.000Z</time>
        <extensions>
          <ns3:TrackPointExtension>
            <ns3:atemp>21.0</ns3:atemp>
          </ns3:TrackPointExtension>
        </extensions>
      </trkpt>
      <trkpt lat="42.537686526775360107421875" lon="20.16301567666232585906982421875">
        <ele>1953.4000244140625</ele>
        <time>2026-06-20T08:28:59.000Z</time>
        <extensions>
          <ns3:TrackPointExtension>
            <ns3:atemp>21.0</ns3:atemp>
          </ns3:TrackPointExtension>
        </extensions>
      </trkpt>
      <trkpt lat="42.537686526775360107421875" lon="20.16301567666232585906982421875">
        <ele>1953.800048828125</ele>
        <time>2026-06-20T08:29:00.000Z</time>
        <extensions>
          <ns3:TrackPointExtension>
            <ns3:atemp>21.0</ns3:atemp>
          </ns3:TrackPointExtension>
        </extensions>
      </trkpt>
      <trkpt lat="42.53764620982110500335693359375" lon="20.16301609575748443603515625">
        <ele>1954</ele>
        <time>2026-06-20T08:29:01.000Z</time>
        <extensions>
          <ns3:TrackPointExtension>
            <ns3:atemp>21.0</ns3:atemp>
          </ns3:TrackPointExtension>
        </extensions>
      </trkpt>
      <trkpt lat="42.53762978129088878631591796875" lon="20.1630165986716747283935546875">
        <ele>1954.199951171875</ele>
        <time>2026-06-20T08:29:02.000Z</time>
        <extensions>
          <ns3:TrackPointExtension>
            <ns3:atemp>21.0</ns3:atemp>
          </ns3:TrackPointExtension>
        </extensions>
      </trkpt>
      <trkpt lat="42.537607736885547637939453125" lon="20.16302087344229221343994140625">
        <ele>1954.4000244140625</ele>
        <time>2026-06-20T08:29:03.000Z</time>
        <extensions>
          <ns3:TrackPointExtension>
            <ns3:atemp>21.0</ns3:atemp>
          </ns3:TrackPointExtension>
        </extensions>
      </trkpt>
      <trkpt lat="42.537607736885547637939453125" lon="20.16302087344229221343994140625">
        <ele>1954.5999755859375</ele>
        <time>2026-06-20T08:29:04.000Z</time>
        <extensions>
          <ns3:TrackPointExtension>
            <ns3:atemp>21.0</ns3:atemp>
          </ns3:TrackPointExtension>
        </extensions>
      </trkpt>
      <trkpt lat="42.53757513128221035003662109375" lon="20.1630189456045627593994140625">
        <ele>1954.5999755859375</ele>
        <time>2026-06-20T08:29:05.000Z</time>
        <extensions>
          <ns3:TrackPointExtension>
            <ns3:atemp>21.0</ns3:atemp>
          </ns3:TrackPointExtension>
        </extensions>
      </trkpt>
      <trkpt lat="42.5375613011419773101806640625" lon="20.16300276853144168853759765625">
        <ele>1955</ele>
        <time>2026-06-20T08:29:06.000Z</time>
        <extensions>
          <ns3:TrackPointExtension>
            <ns3:atemp>21.0</ns3:atemp>
          </ns3:TrackPointExtension>
        </extensions>
      </trkpt>
      <trkpt lat="42.5375613011419773101806640625" lon="20.16300276853144168853759765625">
        <ele>1955.199951171875</ele>
        <time>2026-06-20T08:29:07.000Z</time>
        <extensions>
          <ns3:TrackPointExtension>
            <ns3:atemp>21.0</ns3:atemp>
          </ns3:TrackPointExtension>
        </extensions>
      </trkpt>
      <trkpt lat="42.53753489814698696136474609375" lon="20.162978209555149078369140625">
        <ele>1955.4000244140625</ele>
        <time>2026-06-20T08:29:08.000Z</time>
        <extensions>
          <ns3:TrackPointExtension>
            <ns3:atemp>21.0</ns3:atemp>
          </ns3:TrackPointExtension>
        </extensions>
      </trkpt>
      <trkpt lat="42.53752383403480052947998046875" lon="20.16296320594847202301025390625">
        <ele>1955.5999755859375</ele>
        <time>2026-06-20T08:29:09.000Z</time>
        <extensions>
          <ns3:TrackPointExtension>
            <ns3:atemp>21.0</ns3:atemp>
          </ns3:TrackPointExtension>
        </extensions>
      </trkpt>
      <trkpt lat="42.53751293756067752838134765625" lon="20.16294593922793865203857421875">
        <ele>1956</ele>
        <time>2026-06-20T08:29:10.000Z</time>
        <extensions>
          <ns3:TrackPointExtension>
            <ns3:atemp>21.0</ns3:atemp>
          </ns3:TrackPointExtension>
        </extensions>
      </trkpt>
      <trkpt lat="42.53751017153263092041015625" lon="20.16292355954647064208984375">
        <ele>1956.199951171875</ele>
        <time>2026-06-20T08:29:11.000Z</time>
        <extensions>
          <ns3:TrackPointExtension>
            <ns3:atemp>21.0</ns3:atemp>
          </ns3:TrackPointExtension>
        </extensions>
      </trkpt>
      <trkpt lat="42.537517547607421875" lon="20.16290822066366672515869140625">
        <ele>1956.5999755859375</ele>
        <time>2026-06-20T08:29:12.000Z</time>
        <extensions>
          <ns3:TrackPointExtension>
            <ns3:atemp>21.0</ns3:atemp>
          </ns3:TrackPointExtension>
        </extensions>
      </trkpt>
      <trkpt lat="42.53752199001610279083251953125" lon="20.16288391314446926116943359375">
        <ele>1957</ele>
        <time>2026-06-20T08:29:13.000Z</time>
        <extensions>
          <ns3:TrackPointExtension>
            <ns3:atemp>21.0</ns3:atemp>
          </ns3:TrackPointExtension>
        </extensions>
      </trkpt>
      <trkpt lat="42.53752199001610279083251953125" lon="20.16288391314446926116943359375">
        <ele>1957.4000244140625</ele>
        <time>2026-06-20T08:29:14.000Z</time>
        <extensions>
          <ns3:TrackPointExtension>
            <ns3:atemp>21.0</ns3:atemp>
          </ns3:TrackPointExtension>
        </extensions>
      </trkpt>
      <trkpt lat="42.53752919845283031463623046875" lon="20.162840746343135833740234375">
        <ele>1957.5999755859375</ele>
        <time>2026-06-20T08:29:15.000Z</time>
        <extensions>
          <ns3:TrackPointExtension>
            <ns3:atemp>21.0</ns3:atemp>
          </ns3:TrackPointExtension>
        </extensions>
      </trkpt>
      <trkpt lat="42.53753523342311382293701171875" lon="20.1628156006336212158203125">
        <ele>1958.199951171875</ele>
        <time>2026-06-20T08:29:16.000Z</time>
        <extensions>
          <ns3:TrackPointExtension>
            <ns3:atemp>21.0</ns3:atemp>
          </ns3:TrackPointExtension>
        </extensions>
      </trkpt>
      <trkpt lat="42.53753791563212871551513671875" lon="20.1627902872860431671142578125">
        <ele>1958.4000244140625</ele>
        <time>2026-06-20T08:29:17.000Z</time>
        <extensions>
          <ns3:TrackPointExtension>
            <ns3:atemp>21.0</ns3:atemp>
          </ns3:TrackPointExtension>
        </extensions>
      </trkpt>
      <trkpt lat="42.53753791563212871551513671875" lon="20.1627902872860431671142578125">
        <ele>1958.800048828125</ele>
        <time>2026-06-20T08:29:18.000Z</time>
        <extensions>
          <ns3:TrackPointExtension>
            <ns3:atemp>21.0</ns3:atemp>
          </ns3:TrackPointExtension>
        </extensions>
      </trkpt>
      <trkpt lat="42.53753841854631900787353515625" lon="20.1627487130463123321533203125">
        <ele>1958.800048828125</ele>
        <time>2026-06-20T08:29:19.000Z</time>
        <extensions>
          <ns3:TrackPointExtension>
            <ns3:atemp>21.0</ns3:atemp>
          </ns3:TrackPointExtension>
        </extensions>
      </trkpt>
      <trkpt lat="42.537546716630458831787109375" lon="20.162733457982540130615234375">
        <ele>1959</ele>
        <time>2026-06-20T08:29:20.000Z</time>
        <extensions>
          <ns3:TrackPointExtension>
            <ns3:atemp>21.0</ns3:atemp>
          </ns3:TrackPointExtension>
        </extensions>
      </trkpt>
      <trkpt lat="42.53756021149456501007080078125" lon="20.1627232320606708526611328125">
        <ele>1959.199951171875</ele>
        <time>2026-06-20T08:29:21.000Z</time>
        <extensions>
          <ns3:TrackPointExtension>
            <ns3:atemp>21.0</ns3:atemp>
          </ns3:TrackPointExtension>
        </extensions>
      </trkpt>
      <trkpt lat="42.537574209272861480712890625" lon="20.162712000310420989990234375">
        <ele>1959.5999755859375</ele>
        <time>2026-06-20T08:29:22.000Z</time>
        <extensions>
          <ns3:TrackPointExtension>
            <ns3:atemp>22.0</ns3:atemp>
          </ns3:TrackPointExtension>
        </extensions>
      </trkpt>
      <trkpt lat="42.53758518956601619720458984375" lon="20.162694565951824188232421875">
        <ele>1959.5999755859375</ele>
        <time>2026-06-20T08:29:23.000Z</time>
        <extensions>
          <ns3:TrackPointExtension>
            <ns3:atemp>21.0</ns3:atemp>
          </ns3:TrackPointExtension>
        </extensions>
      </trkpt>
      <trkpt lat="42.53758870996534824371337890625" lon="20.1626793108880519866943359375">
        <ele>1959.800048828125</ele>
        <time>2026-06-20T08:29:24.000Z</time>
        <extensions>
          <ns3:TrackPointExtension>
            <ns3:atemp>21.0</ns3:atemp>
          </ns3:TrackPointExtension>
        </extensions>
      </trkpt>
      <trkpt lat="42.53758485428988933563232421875" lon="20.16267872415482997894287109375">
        <ele>1960</ele>
        <time>2026-06-20T08:29:25.000Z</time>
        <extensions>
          <ns3:TrackPointExtension>
            <ns3:atemp>21.0</ns3:atemp>
          </ns3:TrackPointExtension>
        </extensions>
      </trkpt>
      <trkpt lat="42.53758485428988933563232421875" lon="20.16267855651676654815673828125">
        <ele>1960.199951171875</ele>
        <time>2026-06-20T08:29:26.000Z</time>
        <extensions>
          <ns3:TrackPointExtension>
            <ns3:atemp>22.0</ns3:atemp>
          </ns3:TrackPointExtension>
        </extensions>
      </trkpt>
      <trkpt lat="42.53758485428988933563232421875" lon="20.16267855651676654815673828125">
        <ele>1960.800048828125</ele>
        <time>2026-06-20T08:29:27.000Z</time>
        <extensions>
          <ns3:TrackPointExtension>
            <ns3:atemp>22.0</ns3:atemp>
          </ns3:TrackPointExtension>
        </extensions>
      </trkpt>
      <trkpt lat="42.53758485428988933563232421875" lon="20.16267855651676654815673828125">
        <ele>1960.800048828125</ele>
        <time>2026-06-20T08:29:28.000Z</time>
        <extensions>
          <ns3:TrackPointExtension>
            <ns3:atemp>22.0</ns3:atemp>
          </ns3:TrackPointExtension>
        </extensions>
      </trkpt>
      <trkpt lat="42.53758485428988933563232421875" lon="20.16267855651676654815673828125">
        <ele>1960.800048828125</ele>
        <time>2026-06-20T08:29:29.000Z</time>
        <extensions>
          <ns3:TrackPointExtension>
            <ns3:atemp>22.0</ns3:atemp>
          </ns3:TrackPointExtension>
        </extensions>
      </trkpt>
      <trkpt lat="42.53758485428988933563232421875" lon="20.16267855651676654815673828125">
        <ele>1960.800048828125</ele>
        <time>2026-06-20T08:29:30.000Z</time>
        <extensions>
          <ns3:TrackPointExtension>
            <ns3:atemp>22.0</ns3:atemp>
          </ns3:TrackPointExtension>
        </extensions>
      </trkpt>
      <trkpt lat="42.53758485428988933563232421875" lon="20.16267855651676654815673828125">
        <ele>1960.800048828125</ele>
        <time>2026-06-20T08:29:31.000Z</time>
        <extensions>
          <ns3:TrackPointExtension>
            <ns3:atemp>22.0</ns3:atemp>
          </ns3:TrackPointExtension>
        </extensions>
      </trkpt>
      <trkpt lat="42.53758485428988933563232421875" lon="20.16267855651676654815673828125">
        <ele>1960.800048828125</ele>
        <time>2026-06-20T08:29:32.000Z</time>
        <extensions>
          <ns3:TrackPointExtension>
            <ns3:atemp>22.0</ns3:atemp>
          </ns3:TrackPointExtension>
        </extensions>
      </trkpt>
      <trkpt lat="42.53758485428988933563232421875" lon="20.16267855651676654815673828125">
        <ele>1960.800048828125</ele>
        <time>2026-06-20T08:29:33.000Z</time>
        <extensions>
          <ns3:TrackPointExtension>
            <ns3:atemp>22.0</ns3:atemp>
          </ns3:TrackPointExtension>
        </extensions>
      </trkpt>
      <trkpt lat="42.53758485428988933563232421875" lon="20.16267855651676654815673828125">
        <ele>1960.800048828125</ele>
        <time>2026-06-20T08:29:34.000Z</time>
        <extensions>
          <ns3:TrackPointExtension>
            <ns3:atemp>22.0</ns3:atemp>
          </ns3:TrackPointExtension>
        </extensions>
      </trkpt>
      <trkpt lat="42.53758485428988933563232421875" lon="20.16267855651676654815673828125">
        <ele>1960.800048828125</ele>
        <time>2026-06-20T08:29:35.000Z</time>
        <extensions>
          <ns3:TrackPointExtension>
            <ns3:atemp>22.0</ns3:atemp>
          </ns3:TrackPointExtension>
        </extensions>
      </trkpt>
      <trkpt lat="42.53758485428988933563232421875" lon="20.16267855651676654815673828125">
        <ele>1960.800048828125</ele>
        <time>2026-06-20T08:29:36.000Z</time>
        <extensions>
          <ns3:TrackPointExtension>
            <ns3:atemp>22.0</ns3:atemp>
          </ns3:TrackPointExtension>
        </extensions>
      </trkpt>
      <trkpt lat="42.53758485428988933563232421875" lon="20.16267855651676654815673828125">
        <ele>1960.800048828125</ele>
        <time>2026-06-20T08:29:37.000Z</time>
        <extensions>
          <ns3:TrackPointExtension>
            <ns3:atemp>22.0</ns3:atemp>
          </ns3:TrackPointExtension>
        </extensions>
      </trkpt>
      <trkpt lat="42.53758485428988933563232421875" lon="20.16267855651676654815673828125">
        <ele>1960.800048828125</ele>
        <time>2026-06-20T08:29:38.000Z</time>
        <extensions>
          <ns3:TrackPointExtension>
            <ns3:atemp>22.0</ns3:atemp>
          </ns3:TrackPointExtension>
        </extensions>
      </trkpt>
      <trkpt lat="42.53758485428988933563232421875" lon="20.16267855651676654815673828125">
        <ele>1960.800048828125</ele>
        <time>2026-06-20T08:29:39.000Z</time>
        <extensions>
          <ns3:TrackPointExtension>
            <ns3:atemp>22.0</ns3:atemp>
          </ns3:TrackPointExtension>
        </extensions>
      </trkpt>
      <trkpt lat="42.53758485428988933563232421875" lon="20.16267855651676654815673828125">
        <ele>1960.800048828125</ele>
        <time>2026-06-20T08:29:40.000Z</time>
        <extensions>
          <ns3:TrackPointExtension>
            <ns3:atemp>22.0</ns3:atemp>
          </ns3:TrackPointExtension>
        </extensions>
      </trkpt>
      <trkpt lat="42.53758485428988933563232421875" lon="20.16267855651676654815673828125">
        <ele>1960.800048828125</ele>
        <time>2026-06-20T08:29:41.000Z</time>
        <extensions>
          <ns3:TrackPointExtension>
            <ns3:atemp>22.0</ns3:atemp>
          </ns3:TrackPointExtension>
        </extensions>
      </trkpt>
      <trkpt lat="42.53758485428988933563232421875" lon="20.16267855651676654815673828125">
        <ele>1960.800048828125</ele>
        <time>2026-06-20T08:29:42.000Z</time>
        <extensions>
          <ns3:TrackPointExtension>
            <ns3:atemp>21.0</ns3:atemp>
          </ns3:TrackPointExtension>
        </extensions>
      </trkpt>
      <trkpt lat="42.53758485428988933563232421875" lon="20.16267855651676654815673828125">
        <ele>1960.800048828125</ele>
        <time>2026-06-20T08:29:43.000Z</time>
        <extensions>
          <ns3:TrackPointExtension>
            <ns3:atemp>21.0</ns3:atemp>
          </ns3:TrackPointExtension>
        </extensions>
      </trkpt>
      <trkpt lat="42.53758485428988933563232421875" lon="20.16267855651676654815673828125">
        <ele>1960.800048828125</ele>
        <time>2026-06-20T08:29:44.000Z</time>
        <extensions>
          <ns3:TrackPointExtension>
            <ns3:atemp>21.0</ns3:atemp>
          </ns3:TrackPointExtension>
        </extensions>
      </trkpt>
      <trkpt lat="42.53758485428988933563232421875" lon="20.16267855651676654815673828125">
        <ele>1960.800048828125</ele>
        <time>2026-06-20T08:29:45.000Z</time>
        <extensions>
          <ns3:TrackPointExtension>
            <ns3:atemp>21.0</ns3:atemp>
          </ns3:TrackPointExtension>
        </extensions>
      </trkpt>
      <trkpt lat="42.53758485428988933563232421875" lon="20.16267855651676654815673828125">
        <ele>1960.800048828125</ele>
        <time>2026-06-20T08:29:46.000Z</time>
        <extensions>
          <ns3:TrackPointExtension>
            <ns3:atemp>22.0</ns3:atemp>
          </ns3:TrackPointExtension>
        </extensions>
      </trkpt>
      <trkpt lat="42.53758485428988933563232421875" lon="20.16267855651676654815673828125">
        <ele>1960.800048828125</ele>
        <time>2026-06-20T08:29:47.000Z</time>
        <extensions>
          <ns3:TrackPointExtension>
            <ns3:atemp>22.0</ns3:atemp>
          </ns3:TrackPointExtension>
        </extensions>
      </trkpt>
      <trkpt lat="42.53758485428988933563232421875" lon="20.16267855651676654815673828125">
        <ele>1960.800048828125</ele>
        <time>2026-06-20T08:29:48.000Z</time>
        <extensions>
          <ns3:TrackPointExtension>
            <ns3:atemp>22.0</ns3:atemp>
          </ns3:TrackPointExtension>
        </extensions>
      </trkpt>
      <trkpt lat="42.53758485428988933563232421875" lon="20.16267855651676654815673828125">
        <ele>1960.800048828125</ele>
        <time>2026-06-20T08:29:49.000Z</time>
        <extensions>
          <ns3:TrackPointExtension>
            <ns3:atemp>22.0</ns3:atemp>
          </ns3:TrackPointExtension>
        </extensions>
      </trkpt>
      <trkpt lat="42.53758485428988933563232421875" lon="20.16267855651676654815673828125">
        <ele>1960.800048828125</ele>
        <time>2026-06-20T08:29:50.000Z</time>
        <extensions>
          <ns3:TrackPointExtension>
            <ns3:atemp>22.0</ns3:atemp>
          </ns3:TrackPointExtension>
        </extensions>
      </trkpt>
      <trkpt lat="42.53758485428988933563232421875" lon="20.16267855651676654815673828125">
        <ele>1960.800048828125</ele>
        <time>2026-06-20T08:29:51.000Z</time>
        <extensions>
          <ns3:TrackPointExtension>
            <ns3:atemp>22.0</ns3:atemp>
          </ns3:TrackPointExtension>
        </extensions>
      </trkpt>
      <trkpt lat="42.53758485428988933563232421875" lon="20.16267855651676654815673828125">
        <ele>1960.800048828125</ele>
        <time>2026-06-20T08:29:52.000Z</time>
        <extensions>
          <ns3:TrackPointExtension>
            <ns3:atemp>22.0</ns3:atemp>
          </ns3:TrackPointExtension>
        </extensions>
      </trkpt>
      <trkpt lat="42.53758485428988933563232421875" lon="20.16267855651676654815673828125">
        <ele>1960.800048828125</ele>
        <time>2026-06-20T08:29:53.000Z</time>
        <extensions>
          <ns3:TrackPointExtension>
            <ns3:atemp>22.0</ns3:atemp>
          </ns3:TrackPointExtension>
        </extensions>
      </trkpt>
      <trkpt lat="42.53758485428988933563232421875" lon="20.16267855651676654815673828125">
        <ele>1960.800048828125</ele>
        <time>2026-06-20T08:29:54.000Z</time>
        <extensions>
          <ns3:TrackPointExtension>
            <ns3:atemp>22.0</ns3:atemp>
          </ns3:TrackPointExtension>
        </extensions>
      </trkpt>
      <trkpt lat="42.53758485428988933563232421875" lon="20.16267855651676654815673828125">
        <ele>1960.800048828125</ele>
        <time>2026-06-20T08:29:55.000Z</time>
        <extensions>
          <ns3:TrackPointExtension>
            <ns3:atemp>22.0</ns3:atemp>
          </ns3:TrackPointExtension>
        </extensions>
      </trkpt>
      <trkpt lat="42.53758485428988933563232421875" lon="20.16267855651676654815673828125">
        <ele>1960.800048828125</ele>
        <time>2026-06-20T08:29:56.000Z</time>
        <extensions>
          <ns3:TrackPointExtension>
            <ns3:atemp>22.0</ns3:atemp>
          </ns3:TrackPointExtension>
        </extensions>
      </trkpt>
      <trkpt lat="42.53758485428988933563232421875" lon="20.16267855651676654815673828125">
        <ele>1960.800048828125</ele>
        <time>2026-06-20T08:29:57.000Z</time>
        <extensions>
          <ns3:TrackPointExtension>
            <ns3:atemp>22.0</ns3:atemp>
          </ns3:TrackPointExtension>
        </extensions>
      </trkpt>
      <trkpt lat="42.53758485428988933563232421875" lon="20.16267855651676654815673828125">
        <ele>1960.800048828125</ele>
        <time>2026-06-20T08:29:58.000Z</time>
        <extensions>
          <ns3:TrackPointExtension>
            <ns3:atemp>22.0</ns3:atemp>
          </ns3:TrackPointExtension>
        </extensions>
      </trkpt>
      <trkpt lat="42.53758485428988933563232421875" lon="20.16267855651676654815673828125">
        <ele>1960.800048828125</ele>
        <time>2026-06-20T08:29:59.000Z</time>
        <extensions>
          <ns3:TrackPointExtension>
            <ns3:atemp>22.0</ns3:atemp>
          </ns3:TrackPointExtension>
        </extensions>
      </trkpt>
      <trkpt lat="42.53758485428988933563232421875" lon="20.16267855651676654815673828125">
        <ele>1960.800048828125</ele>
        <time>2026-06-20T08:30:00.000Z</time>
        <extensions>
          <ns3:TrackPointExtension>
            <ns3:atemp>22.0</ns3:atemp>
          </ns3:TrackPointExtension>
        </extensions>
      </trkpt>
      <trkpt lat="42.53758485428988933563232421875" lon="20.16267855651676654815673828125">
        <ele>1960.800048828125</ele>
        <time>2026-06-20T08:30:01.000Z</time>
        <extensions>
          <ns3:TrackPointExtension>
            <ns3:atemp>22.0</ns3:atemp>
          </ns3:TrackPointExtension>
        </extensions>
      </trkpt>
      <trkpt lat="42.53758485428988933563232421875" lon="20.16267855651676654815673828125">
        <ele>1960.800048828125</ele>
        <time>2026-06-20T08:30:02.000Z</time>
        <extensions>
          <ns3:TrackPointExtension>
            <ns3:atemp>22.0</ns3:atemp>
          </ns3:TrackPointExtension>
        </extensions>
      </trkpt>
      <trkpt lat="42.53758485428988933563232421875" lon="20.16267855651676654815673828125">
        <ele>1960.800048828125</ele>
        <time>2026-06-20T08:30:03.000Z</time>
        <extensions>
          <ns3:TrackPointExtension>
            <ns3:atemp>22.0</ns3:atemp>
          </ns3:TrackPointExtension>
        </extensions>
      </trkpt>
      <trkpt lat="42.53758485428988933563232421875" lon="20.16267855651676654815673828125">
        <ele>1960.800048828125</ele>
        <time>2026-06-20T08:30:04.000Z</time>
        <extensions>
          <ns3:TrackPointExtension>
            <ns3:atemp>22.0</ns3:atemp>
          </ns3:TrackPointExtension>
        </extensions>
      </trkpt>
      <trkpt lat="42.53758485428988933563232421875" lon="20.16267855651676654815673828125">
        <ele>1960.800048828125</ele>
        <time>2026-06-20T08:30:05.000Z</time>
        <extensions>
          <ns3:TrackPointExtension>
            <ns3:atemp>22.0</ns3:atemp>
          </ns3:TrackPointExtension>
        </extensions>
      </trkpt>
      <trkpt lat="42.53758485428988933563232421875" lon="20.16267855651676654815673828125">
        <ele>1960.800048828125</ele>
        <time>2026-06-20T08:30:06.000Z</time>
        <extensions>
          <ns3:TrackPointExtension>
            <ns3:atemp>22.0</ns3:atemp>
          </ns3:TrackPointExtension>
        </extensions>
      </trkpt>
      <trkpt lat="42.53758485428988933563232421875" lon="20.16267855651676654815673828125">
        <ele>1960.800048828125</ele>
        <time>2026-06-20T08:30:07.000Z</time>
        <extensions>
          <ns3:TrackPointExtension>
            <ns3:atemp>22.0</ns3:atemp>
          </ns3:TrackPointExtension>
        </extensions>
      </trkpt>
      <trkpt lat="42.53758485428988933563232421875" lon="20.16267855651676654815673828125">
        <ele>1960.800048828125</ele>
        <time>2026-06-20T08:30:08.000Z</time>
        <extensions>
          <ns3:TrackPointExtension>
            <ns3:atemp>22.0</ns3:atemp>
          </ns3:TrackPointExtension>
        </extensions>
      </trkpt>
      <trkpt lat="42.53758485428988933563232421875" lon="20.16267855651676654815673828125">
        <ele>1960.800048828125</ele>
        <time>2026-06-20T08:30:09.000Z</time>
        <extensions>
          <ns3:TrackPointExtension>
            <ns3:atemp>22.0</ns3:atemp>
          </ns3:TrackPointExtension>
        </extensions>
      </trkpt>
      <trkpt lat="42.53758485428988933563232421875" lon="20.16267855651676654815673828125">
        <ele>1960.800048828125</ele>
        <time>2026-06-20T08:30:10.000Z</time>
        <extensions>
          <ns3:TrackPointExtension>
            <ns3:atemp>22.0</ns3:atemp>
          </ns3:TrackPointExtension>
        </extensions>
      </trkpt>
      <trkpt lat="42.53758485428988933563232421875" lon="20.16267855651676654815673828125">
        <ele>1960.800048828125</ele>
        <time>2026-06-20T08:30:11.000Z</time>
        <extensions>
          <ns3:TrackPointExtension>
            <ns3:atemp>22.0</ns3:atemp>
          </ns3:TrackPointExtension>
        </extensions>
      </trkpt>
      <trkpt lat="42.53758485428988933563232421875" lon="20.16267855651676654815673828125">
        <ele>1960.800048828125</ele>
        <time>2026-06-20T08:30:12.000Z</time>
        <extensions>
          <ns3:TrackPointExtension>
            <ns3:atemp>22.0</ns3:atemp>
          </ns3:TrackPointExtension>
        </extensions>
      </trkpt>
      <trkpt lat="42.53758485428988933563232421875" lon="20.16267855651676654815673828125">
        <ele>1960.800048828125</ele>
        <time>2026-06-20T08:30:13.000Z</time>
        <extensions>
          <ns3:TrackPointExtension>
            <ns3:atemp>22.0</ns3:atemp>
          </ns3:TrackPointExtension>
        </extensions>
      </trkpt>
      <trkpt lat="42.53758485428988933563232421875" lon="20.16267855651676654815673828125">
        <ele>1960.800048828125</ele>
        <time>2026-06-20T08:30:14.000Z</time>
        <extensions>
          <ns3:TrackPointExtension>
            <ns3:atemp>22.0</ns3:atemp>
          </ns3:TrackPointExtension>
        </extensions>
      </trkpt>
      <trkpt lat="42.53758485428988933563232421875" lon="20.16267855651676654815673828125">
        <ele>1960.800048828125</ele>
        <time>2026-06-20T08:30:15.000Z</time>
        <extensions>
          <ns3:TrackPointExtension>
            <ns3:atemp>22.0</ns3:atemp>
          </ns3:TrackPointExtension>
        </extensions>
      </trkpt>
      <trkpt lat="42.53758485428988933563232421875" lon="20.16267855651676654815673828125">
        <ele>1960.800048828125</ele>
        <time>2026-06-20T08:30:16.000Z</time>
        <extensions>
          <ns3:TrackPointExtension>
            <ns3:atemp>22.0</ns3:atemp>
          </ns3:TrackPointExtension>
        </extensions>
      </trkpt>
      <trkpt lat="42.53758485428988933563232421875" lon="20.16267855651676654815673828125">
        <ele>1960.800048828125</ele>
        <time>2026-06-20T08:30:17.000Z</time>
        <extensions>
          <ns3:TrackPointExtension>
            <ns3:atemp>22.0</ns3:atemp>
          </ns3:TrackPointExtension>
        </extensions>
      </trkpt>
      <trkpt lat="42.53758485428988933563232421875" lon="20.16267855651676654815673828125">
        <ele>1960.800048828125</ele>
        <time>2026-06-20T08:30:18.000Z</time>
        <extensions>
          <ns3:TrackPointExtension>
            <ns3:atemp>22.0</ns3:atemp>
          </ns3:TrackPointExtension>
        </extensions>
      </trkpt>
      <trkpt lat="42.53758485428988933563232421875" lon="20.16267855651676654815673828125">
        <ele>1960.800048828125</ele>
        <time>2026-06-20T08:30:19.000Z</time>
        <extensions>
          <ns3:TrackPointExtension>
            <ns3:atemp>22.0</ns3:atemp>
          </ns3:TrackPointExtension>
        </extensions>
      </trkpt>
      <trkpt lat="42.53758485428988933563232421875" lon="20.16267855651676654815673828125">
        <ele>1960.800048828125</ele>
        <time>2026-06-20T08:30:20.000Z</time>
        <extensions>
          <ns3:TrackPointExtension>
            <ns3:atemp>22.0</ns3:atemp>
          </ns3:TrackPointExtension>
        </extensions>
      </trkpt>
      <trkpt lat="42.53758485428988933563232421875" lon="20.16267855651676654815673828125">
        <ele>1960.800048828125</ele>
        <time>2026-06-20T08:30:21.000Z</time>
        <extensions>
          <ns3:TrackPointExtension>
            <ns3:atemp>22.0</ns3:atemp>
          </ns3:TrackPointExtension>
        </extensions>
      </trkpt>
      <trkpt lat="42.53758485428988933563232421875" lon="20.16267855651676654815673828125">
        <ele>1960.800048828125</ele>
        <time>2026-06-20T08:30:22.000Z</time>
        <extensions>
          <ns3:TrackPointExtension>
            <ns3:atemp>22.0</ns3:atemp>
          </ns3:TrackPointExtension>
        </extensions>
      </trkpt>
      <trkpt lat="42.53758485428988933563232421875" lon="20.16267855651676654815673828125">
        <ele>1960.800048828125</ele>
        <time>2026-06-20T08:30:23.000Z</time>
        <extensions>
          <ns3:TrackPointExtension>
            <ns3:atemp>22.0</ns3:atemp>
          </ns3:TrackPointExtension>
        </extensions>
      </trkpt>
      <trkpt lat="42.53758485428988933563232421875" lon="20.16267855651676654815673828125">
        <ele>1960.800048828125</ele>
        <time>2026-06-20T08:30:24.000Z</time>
        <extensions>
          <ns3:TrackPointExtension>
            <ns3:atemp>22.0</ns3:atemp>
          </ns3:TrackPointExtension>
        </extensions>
      </trkpt>
      <trkpt lat="42.53758485428988933563232421875" lon="20.16267855651676654815673828125">
        <ele>1960.800048828125</ele>
        <time>2026-06-20T08:30:25.000Z</time>
        <extensions>
          <ns3:TrackPointExtension>
            <ns3:atemp>22.0</ns3:atemp>
          </ns3:TrackPointExtension>
        </extensions>
      </trkpt>
      <trkpt lat="42.53758485428988933563232421875" lon="20.16267855651676654815673828125">
        <ele>1960.800048828125</ele>
        <time>2026-06-20T08:30:26.000Z</time>
        <extensions>
          <ns3:TrackPointExtension>
            <ns3:atemp>22.0</ns3:atemp>
          </ns3:TrackPointExtension>
        </extensions>
      </trkpt>
      <trkpt lat="42.53758485428988933563232421875" lon="20.16267855651676654815673828125">
        <ele>1960.800048828125</ele>
        <time>2026-06-20T08:30:27.000Z</time>
        <extensions>
          <ns3:TrackPointExtension>
            <ns3:atemp>22.0</ns3:atemp>
          </ns3:TrackPointExtension>
        </extensions>
      </trkpt>
      <trkpt lat="42.53758485428988933563232421875" lon="20.16267855651676654815673828125">
        <ele>1960.800048828125</ele>
        <time>2026-06-20T08:30:28.000Z</time>
        <extensions>
          <ns3:TrackPointExtension>
            <ns3:atemp>22.0</ns3:atemp>
          </ns3:TrackPointExtension>
        </extensions>
      </trkpt>
      <trkpt lat="42.53758485428988933563232421875" lon="20.16267855651676654815673828125">
        <ele>1960.800048828125</ele>
        <time>2026-06-20T08:30:29.000Z</time>
        <extensions>
          <ns3:TrackPointExtension>
            <ns3:atemp>22.0</ns3:atemp>
          </ns3:TrackPointExtension>
        </extensions>
      </trkpt>
      <trkpt lat="42.53758485428988933563232421875" lon="20.16267855651676654815673828125">
        <ele>1960.800048828125</ele>
        <time>2026-06-20T08:30:30.000Z</time>
        <extensions>
          <ns3:TrackPointExtension>
            <ns3:atemp>22.0</ns3:atemp>
          </ns3:TrackPointExtension>
        </extensions>
      </trkpt>
      <trkpt lat="42.53758485428988933563232421875" lon="20.16267855651676654815673828125">
        <ele>1960.800048828125</ele>
        <time>2026-06-20T08:30:31.000Z</time>
        <extensions>
          <ns3:TrackPointExtension>
            <ns3:atemp>22.0</ns3:atemp>
          </ns3:TrackPointExtension>
        </extensions>
      </trkpt>
      <trkpt lat="42.53758485428988933563232421875" lon="20.16267855651676654815673828125">
        <ele>1960.800048828125</ele>
        <time>2026-06-20T08:30:32.000Z</time>
        <extensions>
          <ns3:TrackPointExtension>
            <ns3:atemp>22.0</ns3:atemp>
          </ns3:TrackPointExtension>
        </extensions>
      </trkpt>
      <trkpt lat="42.53758485428988933563232421875" lon="20.16267855651676654815673828125">
        <ele>1960.800048828125</ele>
        <time>2026-06-20T08:30:33.000Z</time>
        <extensions>
          <ns3:TrackPointExtension>
            <ns3:atemp>22.0</ns3:atemp>
          </ns3:TrackPointExtension>
        </extensions>
      </trkpt>
      <trkpt lat="42.53758485428988933563232421875" lon="20.16267855651676654815673828125">
        <ele>1960.800048828125</ele>
        <time>2026-06-20T08:30:34.000Z</time>
        <extensions>
          <ns3:TrackPointExtension>
            <ns3:atemp>22.0</ns3:atemp>
          </ns3:TrackPointExtension>
        </extensions>
      </trkpt>
      <trkpt lat="42.53758485428988933563232421875" lon="20.16267855651676654815673828125">
        <ele>1960.800048828125</ele>
        <time>2026-06-20T08:30:35.000Z</time>
        <extensions>
          <ns3:TrackPointExtension>
            <ns3:atemp>22.0</ns3:atemp>
          </ns3:TrackPointExtension>
        </extensions>
      </trkpt>
      <trkpt lat="42.53758485428988933563232421875" lon="20.16267855651676654815673828125">
        <ele>1960.800048828125</ele>
        <time>2026-06-20T08:30:36.000Z</time>
        <extensions>
          <ns3:TrackPointExtension>
            <ns3:atemp>22.0</ns3:atemp>
          </ns3:TrackPointExtension>
        </extensions>
      </trkpt>
      <trkpt lat="42.53758485428988933563232421875" lon="20.16267855651676654815673828125">
        <ele>1960.800048828125</ele>
        <time>2026-06-20T08:30:37.000Z</time>
        <extensions>
          <ns3:TrackPointExtension>
            <ns3:atemp>22.0</ns3:atemp>
          </ns3:TrackPointExtension>
        </extensions>
      </trkpt>
      <trkpt lat="42.53758485428988933563232421875" lon="20.16267855651676654815673828125">
        <ele>1960.800048828125</ele>
        <time>2026-06-20T08:30:38.000Z</time>
        <extensions>
          <ns3:TrackPointExtension>
            <ns3:atemp>22.0</ns3:atemp>
          </ns3:TrackPointExtension>
        </extensions>
      </trkpt>
      <trkpt lat="42.53758485428988933563232421875" lon="20.16267855651676654815673828125">
        <ele>1960.800048828125</ele>
        <time>2026-06-20T08:30:39.000Z</time>
        <extensions>
          <ns3:TrackPointExtension>
            <ns3:atemp>22.0</ns3:atemp>
          </ns3:TrackPointExtension>
        </extensions>
      </trkpt>
      <trkpt lat="42.53758485428988933563232421875" lon="20.16267855651676654815673828125">
        <ele>1960.800048828125</ele>
        <time>2026-06-20T08:30:40.000Z</time>
        <extensions>
          <ns3:TrackPointExtension>
            <ns3:atemp>22.0</ns3:atemp>
          </ns3:TrackPointExtension>
        </extensions>
      </trkpt>
      <trkpt lat="42.53758485428988933563232421875" lon="20.16267855651676654815673828125">
        <ele>1960.800048828125</ele>
        <time>2026-06-20T08:30:41.000Z</time>
        <extensions>
          <ns3:TrackPointExtension>
            <ns3:atemp>22.0</ns3:atemp>
          </ns3:TrackPointExtension>
        </extensions>
      </trkpt>
      <trkpt lat="42.53758485428988933563232421875" lon="20.16267855651676654815673828125">
        <ele>1960.800048828125</ele>
        <time>2026-06-20T08:30:42.000Z</time>
        <extensions>
          <ns3:TrackPointExtension>
            <ns3:atemp>22.0</ns3:atemp>
          </ns3:TrackPointExtension>
        </extensions>
      </trkpt>
      <trkpt lat="42.53758485428988933563232421875" lon="20.16267855651676654815673828125">
        <ele>1960.800048828125</ele>
        <time>2026-06-20T08:30:43.000Z</time>
        <extensions>
          <ns3:TrackPointExtension>
            <ns3:atemp>22.0</ns3:atemp>
          </ns3:TrackPointExtension>
        </extensions>
      </trkpt>
      <trkpt lat="42.53758485428988933563232421875" lon="20.16267855651676654815673828125">
        <ele>1960.800048828125</ele>
        <time>2026-06-20T08:30:44.000Z</time>
        <extensions>
          <ns3:TrackPointExtension>
            <ns3:atemp>22.0</ns3:atemp>
          </ns3:TrackPointExtension>
        </extensions>
      </trkpt>
      <trkpt lat="42.53758485428988933563232421875" lon="20.16267855651676654815673828125">
        <ele>1960.800048828125</ele>
        <time>2026-06-20T08:30:45.000Z</time>
        <extensions>
          <ns3:TrackPointExtension>
            <ns3:atemp>22.0</ns3:atemp>
          </ns3:TrackPointExtension>
        </extensions>
      </trkpt>
      <trkpt lat="42.53758485428988933563232421875" lon="20.16267855651676654815673828125">
        <ele>1960.800048828125</ele>
        <time>2026-06-20T08:30:46.000Z</time>
        <extensions>
          <ns3:TrackPointExtension>
            <ns3:atemp>22.0</ns3:atemp>
          </ns3:TrackPointExtension>
        </extensions>
      </trkpt>
      <trkpt lat="42.53758485428988933563232421875" lon="20.16267855651676654815673828125">
        <ele>1960.800048828125</ele>
        <time>2026-06-20T08:30:47.000Z</time>
        <extensions>
          <ns3:TrackPointExtension>
            <ns3:atemp>22.0</ns3:atemp>
          </ns3:TrackPointExtension>
        </extensions>
      </trkpt>
      <trkpt lat="42.53758485428988933563232421875" lon="20.16267855651676654815673828125">
        <ele>1960.800048828125</ele>
        <time>2026-06-20T08:30:48.000Z</time>
        <extensions>
          <ns3:TrackPointExtension>
            <ns3:atemp>22.0</ns3:atemp>
          </ns3:TrackPointExtension>
        </extensions>
      </trkpt>
      <trkpt lat="42.53758485428988933563232421875" lon="20.16267855651676654815673828125">
        <ele>1960.800048828125</ele>
        <time>2026-06-20T08:30:49.000Z</time>
        <extensions>
          <ns3:TrackPointExtension>
            <ns3:atemp>22.0</ns3:atemp>
          </ns3:TrackPointExtension>
        </extensions>
      </trkpt>
      <trkpt lat="42.53758485428988933563232421875" lon="20.16267855651676654815673828125">
        <ele>1958.5999755859375</ele>
        <time>2026-06-20T08:30:50.000Z</time>
        <extensions>
          <ns3:TrackPointExtension>
            <ns3:atemp>22.0</ns3:atemp>
          </ns3:TrackPointExtension>
        </extensions>
      </trkpt>
      <trkpt lat="42.53758485428988933563232421875" lon="20.16267855651676654815673828125">
        <ele>1958.5999755859375</ele>
        <time>2026-06-20T08:30:51.000Z</time>
        <extensions>
          <ns3:TrackPointExtension>
            <ns3:atemp>22.0</ns3:atemp>
          </ns3:TrackPointExtension>
        </extensions>
      </trkpt>
      <trkpt lat="42.53758485428988933563232421875" lon="20.16267855651676654815673828125">
        <ele>1958.4000244140625</ele>
        <time>2026-06-20T08:30:52.000Z</time>
        <extensions>
          <ns3:TrackPointExtension>
            <ns3:atemp>22.0</ns3:atemp>
          </ns3:TrackPointExtension>
        </extensions>
      </trkpt>
      <trkpt lat="42.53758485428988933563232421875" lon="20.16267855651676654815673828125">
        <ele>1958.4000244140625</ele>
        <time>2026-06-20T08:30:53.000Z</time>
        <extensions>
          <ns3:TrackPointExtension>
            <ns3:atemp>22.0</ns3:atemp>
          </ns3:TrackPointExtension>
        </extensions>
      </trkpt>
      <trkpt lat="42.53758485428988933563232421875" lon="20.16267855651676654815673828125">
        <ele>1958.4000244140625</ele>
        <time>2026-06-20T08:30:54.000Z</time>
        <extensions>
          <ns3:TrackPointExtension>
            <ns3:atemp>22.0</ns3:atemp>
          </ns3:TrackPointExtension>
        </extensions>
      </trkpt>
      <trkpt lat="42.53758485428988933563232421875" lon="20.16267855651676654815673828125">
        <ele>1958.5999755859375</ele>
        <time>2026-06-20T08:30:55.000Z</time>
        <extensions>
          <ns3:TrackPointExtension>
            <ns3:atemp>22.0</ns3:atemp>
          </ns3:TrackPointExtension>
        </extensions>
      </trkpt>
      <trkpt lat="42.53758485428988933563232421875" lon="20.16267855651676654815673828125">
        <ele>1958.5999755859375</ele>
        <time>2026-06-20T08:30:56.000Z</time>
        <extensions>
          <ns3:TrackPointExtension>
            <ns3:atemp>22.0</ns3:atemp>
          </ns3:TrackPointExtension>
        </extensions>
      </trkpt>
      <trkpt lat="42.53758485428988933563232421875" lon="20.16267855651676654815673828125">
        <ele>1958.5999755859375</ele>
        <time>2026-06-20T08:30:57.000Z</time>
        <extensions>
          <ns3:TrackPointExtension>
            <ns3:atemp>22.0</ns3:atemp>
          </ns3:TrackPointExtension>
        </extensions>
      </trkpt>
      <trkpt lat="42.53758485428988933563232421875" lon="20.16267855651676654815673828125">
        <ele>1958.5999755859375</ele>
        <time>2026-06-20T08:30:58.000Z</time>
        <extensions>
          <ns3:TrackPointExtension>
            <ns3:atemp>22.0</ns3:atemp>
          </ns3:TrackPointExtension>
        </extensions>
      </trkpt>
      <trkpt lat="42.53758485428988933563232421875" lon="20.16267855651676654815673828125">
        <ele>1958.5999755859375</ele>
        <time>2026-06-20T08:30:59.000Z</time>
        <extensions>
          <ns3:TrackPointExtension>
            <ns3:atemp>22.0</ns3:atemp>
          </ns3:TrackPointExtension>
        </extensions>
      </trkpt>
      <trkpt lat="42.53758485428988933563232421875" lon="20.16267855651676654815673828125">
        <ele>1958.800048828125</ele>
        <time>2026-06-20T08:31:00.000Z</time>
        <extensions>
          <ns3:TrackPointExtension>
            <ns3:atemp>22.0</ns3:atemp>
          </ns3:TrackPointExtension>
        </extensions>
      </trkpt>
      <trkpt lat="42.53758485428988933563232421875" lon="20.16267855651676654815673828125">
        <ele>1958.800048828125</ele>
        <time>2026-06-20T08:31:01.000Z</time>
        <extensions>
          <ns3:TrackPointExtension>
            <ns3:atemp>22.0</ns3:atemp>
          </ns3:TrackPointExtension>
        </extensions>
      </trkpt>
      <trkpt lat="42.53758485428988933563232421875" lon="20.16267855651676654815673828125">
        <ele>1958.800048828125</ele>
        <time>2026-06-20T08:31:02.000Z</time>
        <extensions>
          <ns3:TrackPointExtension>
            <ns3:atemp>22.0</ns3:atemp>
          </ns3:TrackPointExtension>
        </extensions>
      </trkpt>
      <trkpt lat="42.53758485428988933563232421875" lon="20.16267855651676654815673828125">
        <ele>1958.5999755859375</ele>
        <time>2026-06-20T08:31:03.000Z</time>
        <extensions>
          <ns3:TrackPointExtension>
            <ns3:atemp>22.0</ns3:atemp>
          </ns3:TrackPointExtension>
        </extensions>
      </trkpt>
      <trkpt lat="42.53758485428988933563232421875" lon="20.16267855651676654815673828125">
        <ele>1958.5999755859375</ele>
        <time>2026-06-20T08:31:04.000Z</time>
        <extensions>
          <ns3:TrackPointExtension>
            <ns3:atemp>22.0</ns3:atemp>
          </ns3:TrackPointExtension>
        </extensions>
      </trkpt>
      <trkpt lat="42.53758485428988933563232421875" lon="20.16267855651676654815673828125">
        <ele>1958.5999755859375</ele>
        <time>2026-06-20T08:31:05.000Z</time>
        <extensions>
          <ns3:TrackPointExtension>
            <ns3:atemp>22.0</ns3:atemp>
          </ns3:TrackPointExtension>
        </extensions>
      </trkpt>
      <trkpt lat="42.53758485428988933563232421875" lon="20.16267855651676654815673828125">
        <ele>1958.5999755859375</ele>
        <time>2026-06-20T08:31:06.000Z</time>
        <extensions>
          <ns3:TrackPointExtension>
            <ns3:atemp>22.0</ns3:atemp>
          </ns3:TrackPointExtension>
        </extensions>
      </trkpt>
      <trkpt lat="42.53758485428988933563232421875" lon="20.16267855651676654815673828125">
        <ele>1958.4000244140625</ele>
        <time>2026-06-20T08:31:07.000Z</time>
        <extensions>
          <ns3:TrackPointExtension>
            <ns3:atemp>22.0</ns3:atemp>
          </ns3:TrackPointExtension>
        </extensions>
      </trkpt>
      <trkpt lat="42.53758485428988933563232421875" lon="20.16267855651676654815673828125">
        <ele>1958.4000244140625</ele>
        <time>2026-06-20T08:31:08.000Z</time>
        <extensions>
          <ns3:TrackPointExtension>
            <ns3:atemp>22.0</ns3:atemp>
          </ns3:TrackPointExtension>
        </extensions>
      </trkpt>
      <trkpt lat="42.53758485428988933563232421875" lon="20.16267855651676654815673828125">
        <ele>1958.4000244140625</ele>
        <time>2026-06-20T08:31:09.000Z</time>
        <extensions>
          <ns3:TrackPointExtension>
            <ns3:atemp>22.0</ns3:atemp>
          </ns3:TrackPointExtension>
        </extensions>
      </trkpt>
      <trkpt lat="42.53758485428988933563232421875" lon="20.16267855651676654815673828125">
        <ele>1958.4000244140625</ele>
        <time>2026-06-20T08:31:10.000Z</time>
        <extensions>
          <ns3:TrackPointExtension>
            <ns3:atemp>22.0</ns3:atemp>
          </ns3:TrackPointExtension>
        </extensions>
      </trkpt>
      <trkpt lat="42.53758485428988933563232421875" lon="20.16267855651676654815673828125">
        <ele>1958.4000244140625</ele>
        <time>2026-06-20T08:31:11.000Z</time>
        <extensions>
          <ns3:TrackPointExtension>
            <ns3:atemp>22.0</ns3:atemp>
          </ns3:TrackPointExtension>
        </extensions>
      </trkpt>
      <trkpt lat="42.53758485428988933563232421875" lon="20.16267855651676654815673828125">
        <ele>1958.5999755859375</ele>
        <time>2026-06-20T08:31:12.000Z</time>
        <extensions>
          <ns3:TrackPointExtension>
            <ns3:atemp>22.0</ns3:atemp>
          </ns3:TrackPointExtension>
        </extensions>
      </trkpt>
      <trkpt lat="42.53758485428988933563232421875" lon="20.16267855651676654815673828125">
        <ele>1958.5999755859375</ele>
        <time>2026-06-20T08:31:13.000Z</time>
        <extensions>
          <ns3:TrackPointExtension>
            <ns3:atemp>22.0</ns3:atemp>
          </ns3:TrackPointExtension>
        </extensions>
      </trkpt>
      <trkpt lat="42.53758485428988933563232421875" lon="20.16267855651676654815673828125">
        <ele>1958.5999755859375</ele>
        <time>2026-06-20T08:31:14.000Z</time>
        <extensions>
          <ns3:TrackPointExtension>
            <ns3:atemp>22.0</ns3:atemp>
          </ns3:TrackPointExtension>
        </extensions>
      </trkpt>
      <trkpt lat="42.53758485428988933563232421875" lon="20.16267855651676654815673828125">
        <ele>1958.5999755859375</ele>
        <time>2026-06-20T08:31:15.000Z</time>
        <extensions>
          <ns3:TrackPointExtension>
            <ns3:atemp>22.0</ns3:atemp>
          </ns3:TrackPointExtension>
        </extensions>
      </trkpt>
      <trkpt lat="42.53758485428988933563232421875" lon="20.16267855651676654815673828125">
        <ele>1958.5999755859375</ele>
        <time>2026-06-20T08:31:16.000Z</time>
        <extensions>
          <ns3:TrackPointExtension>
            <ns3:atemp>22.0</ns3:atemp>
          </ns3:TrackPointExtension>
        </extensions>
      </trkpt>
      <trkpt lat="42.53758485428988933563232421875" lon="20.16267855651676654815673828125">
        <ele>1958.5999755859375</ele>
        <time>2026-06-20T08:31:17.000Z</time>
        <extensions>
          <ns3:TrackPointExtension>
            <ns3:atemp>22.0</ns3:atemp>
          </ns3:TrackPointExtension>
        </extensions>
      </trkpt>
      <trkpt lat="42.53758485428988933563232421875" lon="20.16267855651676654815673828125">
        <ele>1958.5999755859375</ele>
        <time>2026-06-20T08:31:18.000Z</time>
        <extensions>
          <ns3:TrackPointExtension>
            <ns3:atemp>22.0</ns3:atemp>
          </ns3:TrackPointExtension>
        </extensions>
      </trkpt>
      <trkpt lat="42.53758485428988933563232421875" lon="20.16267855651676654815673828125">
        <ele>1958.5999755859375</ele>
        <time>2026-06-20T08:31:19.000Z</time>
        <extensions>
          <ns3:TrackPointExtension>
            <ns3:atemp>22.0</ns3:atemp>
          </ns3:TrackPointExtension>
        </extensions>
      </trkpt>
      <trkpt lat="42.53758485428988933563232421875" lon="20.16267855651676654815673828125">
        <ele>1958.5999755859375</ele>
        <time>2026-06-20T08:31:20.000Z</time>
        <extensions>
          <ns3:TrackPointExtension>
            <ns3:atemp>22.0</ns3:atemp>
          </ns3:TrackPointExtension>
        </extensions>
      </trkpt>
      <trkpt lat="42.53758485428988933563232421875" lon="20.16267855651676654815673828125">
        <ele>1958.5999755859375</ele>
        <time>2026-06-20T08:31:21.000Z</time>
        <extensions>
          <ns3:TrackPointExtension>
            <ns3:atemp>22.0</ns3:atemp>
          </ns3:TrackPointExtension>
        </extensions>
      </trkpt>
      <trkpt lat="42.53758485428988933563232421875" lon="20.16267855651676654815673828125">
        <ele>1958.5999755859375</ele>
        <time>2026-06-20T08:31:22.000Z</time>
        <extensions>
          <ns3:TrackPointExtension>
            <ns3:atemp>22.0</ns3:atemp>
          </ns3:TrackPointExtension>
        </extensions>
      </trkpt>
      <trkpt lat="42.53758485428988933563232421875" lon="20.16267855651676654815673828125">
        <ele>1958.5999755859375</ele>
        <time>2026-06-20T08:31:23.000Z</time>
        <extensions>
          <ns3:TrackPointExtension>
            <ns3:atemp>22.0</ns3:atemp>
          </ns3:TrackPointExtension>
        </extensions>
      </trkpt>
      <trkpt lat="42.53758485428988933563232421875" lon="20.16267855651676654815673828125">
        <ele>1958.5999755859375</ele>
        <time>2026-06-20T08:31:24.000Z</time>
        <extensions>
          <ns3:TrackPointExtension>
            <ns3:atemp>22.0</ns3:atemp>
          </ns3:TrackPointExtension>
        </extensions>
      </trkpt>
      <trkpt lat="42.53758485428988933563232421875" lon="20.16267855651676654815673828125">
        <ele>1958.5999755859375</ele>
        <time>2026-06-20T08:31:25.000Z</time>
        <extensions>
          <ns3:TrackPointExtension>
            <ns3:atemp>22.0</ns3:atemp>
          </ns3:TrackPointExtension>
        </extensions>
      </trkpt>
      <trkpt lat="42.53758485428988933563232421875" lon="20.16267855651676654815673828125">
        <ele>1958.5999755859375</ele>
        <time>2026-06-20T08:31:26.000Z</time>
        <extensions>
          <ns3:TrackPointExtension>
            <ns3:atemp>22.0</ns3:atemp>
          </ns3:TrackPointExtension>
        </extensions>
      </trkpt>
      <trkpt lat="42.53758485428988933563232421875" lon="20.16267855651676654815673828125">
        <ele>1958.5999755859375</ele>
        <time>2026-06-20T08:31:27.000Z</time>
        <extensions>
          <ns3:TrackPointExtension>
            <ns3:atemp>22.0</ns3:atemp>
          </ns3:TrackPointExtension>
        </extensions>
      </trkpt>
      <trkpt lat="42.53758485428988933563232421875" lon="20.16267855651676654815673828125">
        <ele>1958.5999755859375</ele>
        <time>2026-06-20T08:31:28.000Z</time>
        <extensions>
          <ns3:TrackPointExtension>
            <ns3:atemp>22.0</ns3:atemp>
          </ns3:TrackPointExtension>
        </extensions>
      </trkpt>
      <trkpt lat="42.53758485428988933563232421875" lon="20.16267855651676654815673828125">
        <ele>1958.5999755859375</ele>
        <time>2026-06-20T08:31:29.000Z</time>
        <extensions>
          <ns3:TrackPointExtension>
            <ns3:atemp>22.0</ns3:atemp>
          </ns3:TrackPointExtension>
        </extensions>
      </trkpt>
      <trkpt lat="42.53758485428988933563232421875" lon="20.16267855651676654815673828125">
        <ele>1958.5999755859375</ele>
        <time>2026-06-20T08:31:30.000Z</time>
        <extensions>
          <ns3:TrackPointExtension>
            <ns3:atemp>22.0</ns3:atemp>
          </ns3:TrackPointExtension>
        </extensions>
      </trkpt>
      <trkpt lat="42.53758485428988933563232421875" lon="20.16267855651676654815673828125">
        <ele>1958.5999755859375</ele>
        <time>2026-06-20T08:31:31.000Z</time>
        <extensions>
          <ns3:TrackPointExtension>
            <ns3:atemp>22.0</ns3:atemp>
          </ns3:TrackPointExtension>
        </extensions>
      </trkpt>
      <trkpt lat="42.53758485428988933563232421875" lon="20.16267855651676654815673828125">
        <ele>1958.5999755859375</ele>
        <time>2026-06-20T08:31:32.000Z</time>
        <extensions>
          <ns3:TrackPointExtension>
            <ns3:atemp>22.0</ns3:atemp>
          </ns3:TrackPointExtension>
        </extensions>
      </trkpt>
      <trkpt lat="42.53758485428988933563232421875" lon="20.16267855651676654815673828125">
        <ele>1958.5999755859375</ele>
        <time>2026-06-20T08:31:33.000Z</time>
        <extensions>
          <ns3:TrackPointExtension>
            <ns3:atemp>22.0</ns3:atemp>
          </ns3:TrackPointExtension>
        </extensions>
      </trkpt>
      <trkpt lat="42.53758485428988933563232421875" lon="20.16267855651676654815673828125">
        <ele>1958.5999755859375</ele>
        <time>2026-06-20T08:31:34.000Z</time>
        <extensions>
          <ns3:TrackPointExtension>
            <ns3:atemp>22.0</ns3:atemp>
          </ns3:TrackPointExtension>
        </extensions>
      </trkpt>
      <trkpt lat="42.53758485428988933563232421875" lon="20.16267855651676654815673828125">
        <ele>1958.5999755859375</ele>
        <time>2026-06-20T08:31:35.000Z</time>
        <extensions>
          <ns3:TrackPointExtension>
            <ns3:atemp>22.0</ns3:atemp>
          </ns3:TrackPointExtension>
        </extensions>
      </trkpt>
      <trkpt lat="42.53758485428988933563232421875" lon="20.16267855651676654815673828125">
        <ele>1958.4000244140625</ele>
        <time>2026-06-20T08:31:36.000Z</time>
        <extensions>
          <ns3:TrackPointExtension>
            <ns3:atemp>22.0</ns3:atemp>
          </ns3:TrackPointExtension>
        </extensions>
      </trkpt>
      <trkpt lat="42.53758485428988933563232421875" lon="20.16267855651676654815673828125">
        <ele>1958.4000244140625</ele>
        <time>2026-06-20T08:31:37.000Z</time>
        <extensions>
          <ns3:TrackPointExtension>
            <ns3:atemp>22.0</ns3:atemp>
          </ns3:TrackPointExtension>
        </extensions>
      </trkpt>
      <trkpt lat="42.53758485428988933563232421875" lon="20.16267855651676654815673828125">
        <ele>1958.4000244140625</ele>
        <time>2026-06-20T08:31:38.000Z</time>
        <extensions>
          <ns3:TrackPointExtension>
            <ns3:atemp>22.0</ns3:atemp>
          </ns3:TrackPointExtension>
        </extensions>
      </trkpt>
      <trkpt lat="42.53758485428988933563232421875" lon="20.16267855651676654815673828125">
        <ele>1958.4000244140625</ele>
        <time>2026-06-20T08:31:39.000Z</time>
        <extensions>
          <ns3:TrackPointExtension>
            <ns3:atemp>22.0</ns3:atemp>
          </ns3:TrackPointExtension>
        </extensions>
      </trkpt>
      <trkpt lat="42.53758485428988933563232421875" lon="20.16267855651676654815673828125">
        <ele>1958.4000244140625</ele>
        <time>2026-06-20T08:31:40.000Z</time>
        <extensions>
          <ns3:TrackPointExtension>
            <ns3:atemp>22.0</ns3:atemp>
          </ns3:TrackPointExtension>
        </extensions>
      </trkpt>
      <trkpt lat="42.53758485428988933563232421875" lon="20.16267855651676654815673828125">
        <ele>1958.5999755859375</ele>
        <time>2026-06-20T08:31:41.000Z</time>
        <extensions>
          <ns3:TrackPointExtension>
            <ns3:atemp>22.0</ns3:atemp>
          </ns3:TrackPointExtension>
        </extensions>
      </trkpt>
      <trkpt lat="42.53758485428988933563232421875" lon="20.16267855651676654815673828125">
        <ele>1958.5999755859375</ele>
        <time>2026-06-20T08:31:42.000Z</time>
        <extensions>
          <ns3:TrackPointExtension>
            <ns3:atemp>22.0</ns3:atemp>
          </ns3:TrackPointExtension>
        </extensions>
      </trkpt>
      <trkpt lat="42.53758485428988933563232421875" lon="20.16267855651676654815673828125">
        <ele>1958.5999755859375</ele>
        <time>2026-06-20T08:31:43.000Z</time>
        <extensions>
          <ns3:TrackPointExtension>
            <ns3:atemp>22.0</ns3:atemp>
          </ns3:TrackPointExtension>
        </extensions>
      </trkpt>
      <trkpt lat="42.53758485428988933563232421875" lon="20.16267855651676654815673828125">
        <ele>1958.5999755859375</ele>
        <time>2026-06-20T08:31:44.000Z</time>
        <extensions>
          <ns3:TrackPointExtension>
            <ns3:atemp>22.0</ns3:atemp>
          </ns3:TrackPointExtension>
        </extensions>
      </trkpt>
      <trkpt lat="42.53758485428988933563232421875" lon="20.16267855651676654815673828125">
        <ele>1958.5999755859375</ele>
        <time>2026-06-20T08:31:45.000Z</time>
        <extensions>
          <ns3:TrackPointExtension>
            <ns3:atemp>22.0</ns3:atemp>
          </ns3:TrackPointExtension>
        </extensions>
      </trkpt>
      <trkpt lat="42.53758485428988933563232421875" lon="20.16267855651676654815673828125">
        <ele>1958.5999755859375</ele>
        <time>2026-06-20T08:31:46.000Z</time>
        <extensions>
          <ns3:TrackPointExtension>
            <ns3:atemp>22.0</ns3:atemp>
          </ns3:TrackPointExtension>
        </extensions>
      </trkpt>
      <trkpt lat="42.53758485428988933563232421875" lon="20.16267855651676654815673828125">
        <ele>1958.5999755859375</ele>
        <time>2026-06-20T08:31:47.000Z</time>
        <extensions>
          <ns3:TrackPointExtension>
            <ns3:atemp>22.0</ns3:atemp>
          </ns3:TrackPointExtension>
        </extensions>
      </trkpt>
      <trkpt lat="42.53758485428988933563232421875" lon="20.16267855651676654815673828125">
        <ele>1958.5999755859375</ele>
        <time>2026-06-20T08:31:48.000Z</time>
        <extensions>
          <ns3:TrackPointExtension>
            <ns3:atemp>22.0</ns3:atemp>
          </ns3:TrackPointExtension>
        </extensions>
      </trkpt>
      <trkpt lat="42.53758485428988933563232421875" lon="20.16267855651676654815673828125">
        <ele>1958.5999755859375</ele>
        <time>2026-06-20T08:31:49.000Z</time>
        <extensions>
          <ns3:TrackPointExtension>
            <ns3:atemp>22.0</ns3:atemp>
          </ns3:TrackPointExtension>
        </extensions>
      </trkpt>
      <trkpt lat="42.53758485428988933563232421875" lon="20.16267855651676654815673828125">
        <ele>1958.5999755859375</ele>
        <time>2026-06-20T08:31:50.000Z</time>
        <extensions>
          <ns3:TrackPointExtension>
            <ns3:atemp>22.0</ns3:atemp>
          </ns3:TrackPointExtension>
        </extensions>
      </trkpt>
      <trkpt lat="42.53758485428988933563232421875" lon="20.16267855651676654815673828125">
        <ele>1958.5999755859375</ele>
        <time>2026-06-20T08:31:51.000Z</time>
        <extensions>
          <ns3:TrackPointExtension>
            <ns3:atemp>22.0</ns3:atemp>
          </ns3:TrackPointExtension>
        </extensions>
      </trkpt>
      <trkpt lat="42.53758485428988933563232421875" lon="20.16267855651676654815673828125">
        <ele>1958.5999755859375</ele>
        <time>2026-06-20T08:31:52.000Z</time>
        <extensions>
          <ns3:TrackPointExtension>
            <ns3:atemp>22.0</ns3:atemp>
          </ns3:TrackPointExtension>
        </extensions>
      </trkpt>
      <trkpt lat="42.53758485428988933563232421875" lon="20.16267855651676654815673828125">
        <ele>1958.5999755859375</ele>
        <time>2026-06-20T08:31:53.000Z</time>
        <extensions>
          <ns3:TrackPointExtension>
            <ns3:atemp>22.0</ns3:atemp>
          </ns3:TrackPointExtension>
        </extensions>
      </trkpt>
      <trkpt lat="42.53758485428988933563232421875" lon="20.16267855651676654815673828125">
        <ele>1958.5999755859375</ele>
        <time>2026-06-20T08:31:54.000Z</time>
        <extensions>
          <ns3:TrackPointExtension>
            <ns3:atemp>22.0</ns3:atemp>
          </ns3:TrackPointExtension>
        </extensions>
      </trkpt>
      <trkpt lat="42.53758485428988933563232421875" lon="20.16267855651676654815673828125">
        <ele>1958.5999755859375</ele>
        <time>2026-06-20T08:31:55.000Z</time>
        <extensions>
          <ns3:TrackPointExtension>
            <ns3:atemp>22.0</ns3:atemp>
          </ns3:TrackPointExtension>
        </extensions>
      </trkpt>
      <trkpt lat="42.53758485428988933563232421875" lon="20.16267855651676654815673828125">
        <ele>1958.5999755859375</ele>
        <time>2026-06-20T08:31:56.000Z</time>
        <extensions>
          <ns3:TrackPointExtension>
            <ns3:atemp>22.0</ns3:atemp>
          </ns3:TrackPointExtension>
        </extensions>
      </trkpt>
      <trkpt lat="42.53758485428988933563232421875" lon="20.16267855651676654815673828125">
        <ele>1958.5999755859375</ele>
        <time>2026-06-20T08:31:57.000Z</time>
        <extensions>
          <ns3:TrackPointExtension>
            <ns3:atemp>22.0</ns3:atemp>
          </ns3:TrackPointExtension>
        </extensions>
      </trkpt>
      <trkpt lat="42.53758485428988933563232421875" lon="20.16267855651676654815673828125">
        <ele>1958.5999755859375</ele>
        <time>2026-06-20T08:31:58.000Z</time>
        <extensions>
          <ns3:TrackPointExtension>
            <ns3:atemp>22.0</ns3:atemp>
          </ns3:TrackPointExtension>
        </extensions>
      </trkpt>
      <trkpt lat="42.53758485428988933563232421875" lon="20.16267855651676654815673828125">
        <ele>1958.5999755859375</ele>
        <time>2026-06-20T08:31:59.000Z</time>
        <extensions>
          <ns3:TrackPointExtension>
            <ns3:atemp>22.0</ns3:atemp>
          </ns3:TrackPointExtension>
        </extensions>
      </trkpt>
      <trkpt lat="42.53758485428988933563232421875" lon="20.16267855651676654815673828125">
        <ele>1958.5999755859375</ele>
        <time>2026-06-20T08:32:00.000Z</time>
        <extensions>
          <ns3:TrackPointExtension>
            <ns3:atemp>22.0</ns3:atemp>
          </ns3:TrackPointExtension>
        </extensions>
      </trkpt>
      <trkpt lat="42.53758485428988933563232421875" lon="20.16267855651676654815673828125">
        <ele>1958.5999755859375</ele>
        <time>2026-06-20T08:32:01.000Z</time>
        <extensions>
          <ns3:TrackPointExtension>
            <ns3:atemp>22.0</ns3:atemp>
          </ns3:TrackPointExtension>
        </extensions>
      </trkpt>
      <trkpt lat="42.53758485428988933563232421875" lon="20.16267855651676654815673828125">
        <ele>1958.5999755859375</ele>
        <time>2026-06-20T08:32:02.000Z</time>
        <extensions>
          <ns3:TrackPointExtension>
            <ns3:atemp>22.0</ns3:atemp>
          </ns3:TrackPointExtension>
        </extensions>
      </trkpt>
      <trkpt lat="42.53758485428988933563232421875" lon="20.16267855651676654815673828125">
        <ele>1958.5999755859375</ele>
        <time>2026-06-20T08:32:03.000Z</time>
        <extensions>
          <ns3:TrackPointExtension>
            <ns3:atemp>22.0</ns3:atemp>
          </ns3:TrackPointExtension>
        </extensions>
      </trkpt>
      <trkpt lat="42.53758485428988933563232421875" lon="20.16267855651676654815673828125">
        <ele>1958.5999755859375</ele>
        <time>2026-06-20T08:32:04.000Z</time>
        <extensions>
          <ns3:TrackPointExtension>
            <ns3:atemp>22.0</ns3:atemp>
          </ns3:TrackPointExtension>
        </extensions>
      </trkpt>
      <trkpt lat="42.53758485428988933563232421875" lon="20.16267855651676654815673828125">
        <ele>1958.5999755859375</ele>
        <time>2026-06-20T08:32:05.000Z</time>
        <extensions>
          <ns3:TrackPointExtension>
            <ns3:atemp>22.0</ns3:atemp>
          </ns3:TrackPointExtension>
        </extensions>
      </trkpt>
      <trkpt lat="42.53758485428988933563232421875" lon="20.16267855651676654815673828125">
        <ele>1958.5999755859375</ele>
        <time>2026-06-20T08:32:06.000Z</time>
        <extensions>
          <ns3:TrackPointExtension>
            <ns3:atemp>23.0</ns3:atemp>
          </ns3:TrackPointExtension>
        </extensions>
      </trkpt>
      <trkpt lat="42.53758485428988933563232421875" lon="20.16267855651676654815673828125">
        <ele>1958.5999755859375</ele>
        <time>2026-06-20T08:32:07.000Z</time>
        <extensions>
          <ns3:TrackPointExtension>
            <ns3:atemp>23.0</ns3:atemp>
          </ns3:TrackPointExtension>
        </extensions>
      </trkpt>
      <trkpt lat="42.53758485428988933563232421875" lon="20.16267855651676654815673828125">
        <ele>1958.5999755859375</ele>
        <time>2026-06-20T08:32:08.000Z</time>
        <extensions>
          <ns3:TrackPointExtension>
            <ns3:atemp>23.0</ns3:atemp>
          </ns3:TrackPointExtension>
        </extensions>
      </trkpt>
      <trkpt lat="42.53758485428988933563232421875" lon="20.16267855651676654815673828125">
        <ele>1958.5999755859375</ele>
        <time>2026-06-20T08:32:09.000Z</time>
        <extensions>
          <ns3:TrackPointExtension>
            <ns3:atemp>23.0</ns3:atemp>
          </ns3:TrackPointExtension>
        </extensions>
      </trkpt>
      <trkpt lat="42.53758485428988933563232421875" lon="20.16267855651676654815673828125">
        <ele>1958.5999755859375</ele>
        <time>2026-06-20T08:32:10.000Z</time>
        <extensions>
          <ns3:TrackPointExtension>
            <ns3:atemp>23.0</ns3:atemp>
          </ns3:TrackPointExtension>
        </extensions>
      </trkpt>
      <trkpt lat="42.53758485428988933563232421875" lon="20.16267855651676654815673828125">
        <ele>1958.5999755859375</ele>
        <time>2026-06-20T08:32:11.000Z</time>
        <extensions>
          <ns3:TrackPointExtension>
            <ns3:atemp>23.0</ns3:atemp>
          </ns3:TrackPointExtension>
        </extensions>
      </trkpt>
      <trkpt lat="42.53758485428988933563232421875" lon="20.16267855651676654815673828125">
        <ele>1958.5999755859375</ele>
        <time>2026-06-20T08:32:12.000Z</time>
        <extensions>
          <ns3:TrackPointExtension>
            <ns3:atemp>23.0</ns3:atemp>
          </ns3:TrackPointExtension>
        </extensions>
      </trkpt>
      <trkpt lat="42.53758485428988933563232421875" lon="20.16267855651676654815673828125">
        <ele>1958.5999755859375</ele>
        <time>2026-06-20T08:32:13.000Z</time>
        <extensions>
          <ns3:TrackPointExtension>
            <ns3:atemp>23.0</ns3:atemp>
          </ns3:TrackPointExtension>
        </extensions>
      </trkpt>
      <trkpt lat="42.53758485428988933563232421875" lon="20.16267855651676654815673828125">
        <ele>1958.5999755859375</ele>
        <time>2026-06-20T08:32:14.000Z</time>
        <extensions>
          <ns3:TrackPointExtension>
            <ns3:atemp>23.0</ns3:atemp>
          </ns3:TrackPointExtension>
        </extensions>
      </trkpt>
      <trkpt lat="42.53758485428988933563232421875" lon="20.16267855651676654815673828125">
        <ele>1958.5999755859375</ele>
        <time>2026-06-20T08:32:15.000Z</time>
        <extensions>
          <ns3:TrackPointExtension>
            <ns3:atemp>23.0</ns3:atemp>
          </ns3:TrackPointExtension>
        </extensions>
      </trkpt>
      <trkpt lat="42.53758485428988933563232421875" lon="20.16267855651676654815673828125">
        <ele>1958.5999755859375</ele>
        <time>2026-06-20T08:32:16.000Z</time>
        <extensions>
          <ns3:TrackPointExtension>
            <ns3:atemp>23.0</ns3:atemp>
          </ns3:TrackPointExtension>
        </extensions>
      </trkpt>
      <trkpt lat="42.53758485428988933563232421875" lon="20.16267855651676654815673828125">
        <ele>1958.5999755859375</ele>
        <time>2026-06-20T08:32:17.000Z</time>
        <extensions>
          <ns3:TrackPointExtension>
            <ns3:atemp>23.0</ns3:atemp>
          </ns3:TrackPointExtension>
        </extensions>
      </trkpt>
      <trkpt lat="42.53758485428988933563232421875" lon="20.16267855651676654815673828125">
        <ele>1958.5999755859375</ele>
        <time>2026-06-20T08:32:18.000Z</time>
        <extensions>
          <ns3:TrackPointExtension>
            <ns3:atemp>23.0</ns3:atemp>
          </ns3:TrackPointExtension>
        </extensions>
      </trkpt>
      <trkpt lat="42.53758485428988933563232421875" lon="20.16267855651676654815673828125">
        <ele>1958.5999755859375</ele>
        <time>2026-06-20T08:32:19.000Z</time>
        <extensions>
          <ns3:TrackPointExtension>
            <ns3:atemp>23.0</ns3:atemp>
          </ns3:TrackPointExtension>
        </extensions>
      </trkpt>
      <trkpt lat="42.53758485428988933563232421875" lon="20.16267855651676654815673828125">
        <ele>1958.5999755859375</ele>
        <time>2026-06-20T08:32:20.000Z</time>
        <extensions>
          <ns3:TrackPointExtension>
            <ns3:atemp>23.0</ns3:atemp>
          </ns3:TrackPointExtension>
        </extensions>
      </trkpt>
      <trkpt lat="42.53758485428988933563232421875" lon="20.16267855651676654815673828125">
        <ele>1958.5999755859375</ele>
        <time>2026-06-20T08:32:21.000Z</time>
        <extensions>
          <ns3:TrackPointExtension>
            <ns3:atemp>23.0</ns3:atemp>
          </ns3:TrackPointExtension>
        </extensions>
      </trkpt>
      <trkpt lat="42.53758485428988933563232421875" lon="20.16267855651676654815673828125">
        <ele>1958.5999755859375</ele>
        <time>2026-06-20T08:32:22.000Z</time>
        <extensions>
          <ns3:TrackPointExtension>
            <ns3:atemp>23.0</ns3:atemp>
          </ns3:TrackPointExtension>
        </extensions>
      </trkpt>
      <trkpt lat="42.53758485428988933563232421875" lon="20.16267855651676654815673828125">
        <ele>1958.5999755859375</ele>
        <time>2026-06-20T08:32:23.000Z</time>
        <extensions>
          <ns3:TrackPointExtension>
            <ns3:atemp>23.0</ns3:atemp>
          </ns3:TrackPointExtension>
        </extensions>
      </trkpt>
      <trkpt lat="42.53758485428988933563232421875" lon="20.16267855651676654815673828125">
        <ele>1958.5999755859375</ele>
        <time>2026-06-20T08:32:24.000Z</time>
        <extensions>
          <ns3:TrackPointExtension>
            <ns3:atemp>23.0</ns3:atemp>
          </ns3:TrackPointExtension>
        </extensions>
      </trkpt>
      <trkpt lat="42.53758485428988933563232421875" lon="20.16267855651676654815673828125">
        <ele>1958.5999755859375</ele>
        <time>2026-06-20T08:32:25.000Z</time>
        <extensions>
          <ns3:TrackPointExtension>
            <ns3:atemp>23.0</ns3:atemp>
          </ns3:TrackPointExtension>
        </extensions>
      </trkpt>
      <trkpt lat="42.53758485428988933563232421875" lon="20.16267855651676654815673828125">
        <ele>1958.5999755859375</ele>
        <time>2026-06-20T08:32:26.000Z</time>
        <extensions>
          <ns3:TrackPointExtension>
            <ns3:atemp>23.0</ns3:atemp>
          </ns3:TrackPointExtension>
        </extensions>
      </trkpt>
      <trkpt lat="42.53758485428988933563232421875" lon="20.16267855651676654815673828125">
        <ele>1958.5999755859375</ele>
        <time>2026-06-20T08:32:27.000Z</time>
        <extensions>
          <ns3:TrackPointExtension>
            <ns3:atemp>23.0</ns3:atemp>
          </ns3:TrackPointExtension>
        </extensions>
      </trkpt>
      <trkpt lat="42.53758485428988933563232421875" lon="20.16267855651676654815673828125">
        <ele>1958.5999755859375</ele>
        <time>2026-06-20T08:32:28.000Z</time>
        <extensions>
          <ns3:TrackPointExtension>
            <ns3:atemp>23.0</ns3:atemp>
          </ns3:TrackPointExtension>
        </extensions>
      </trkpt>
      <trkpt lat="42.53758485428988933563232421875" lon="20.16267855651676654815673828125">
        <ele>1958.5999755859375</ele>
        <time>2026-06-20T08:32:29.000Z</time>
        <extensions>
          <ns3:TrackPointExtension>
            <ns3:atemp>23.0</ns3:atemp>
          </ns3:TrackPointExtension>
        </extensions>
      </trkpt>
      <trkpt lat="42.53758485428988933563232421875" lon="20.16267855651676654815673828125">
        <ele>1958.5999755859375</ele>
        <time>2026-06-20T08:32:30.000Z</time>
        <extensions>
          <ns3:TrackPointExtension>
            <ns3:atemp>23.0</ns3:atemp>
          </ns3:TrackPointExtension>
        </extensions>
      </trkpt>
      <trkpt lat="42.53758485428988933563232421875" lon="20.16267855651676654815673828125">
        <ele>1958.5999755859375</ele>
        <time>2026-06-20T08:32:31.000Z</time>
        <extensions>
          <ns3:TrackPointExtension>
            <ns3:atemp>23.0</ns3:atemp>
          </ns3:TrackPointExtension>
        </extensions>
      </trkpt>
      <trkpt lat="42.53758485428988933563232421875" lon="20.16267855651676654815673828125">
        <ele>1958.5999755859375</ele>
        <time>2026-06-20T08:32:32.000Z</time>
        <extensions>
          <ns3:TrackPointExtension>
            <ns3:atemp>23.0</ns3:atemp>
          </ns3:TrackPointExtension>
        </extensions>
      </trkpt>
      <trkpt lat="42.53758485428988933563232421875" lon="20.16267855651676654815673828125">
        <ele>1958.5999755859375</ele>
        <time>2026-06-20T08:32:33.000Z</time>
        <extensions>
          <ns3:TrackPointExtension>
            <ns3:atemp>23.0</ns3:atemp>
          </ns3:TrackPointExtension>
        </extensions>
      </trkpt>
      <trkpt lat="42.53758485428988933563232421875" lon="20.16267855651676654815673828125">
        <ele>1958.5999755859375</ele>
        <time>2026-06-20T08:32:34.000Z</time>
        <extensions>
          <ns3:TrackPointExtension>
            <ns3:atemp>23.0</ns3:atemp>
          </ns3:TrackPointExtension>
        </extensions>
      </trkpt>
      <trkpt lat="42.53758485428988933563232421875" lon="20.16267855651676654815673828125">
        <ele>1958.5999755859375</ele>
        <time>2026-06-20T08:32:35.000Z</time>
        <extensions>
          <ns3:TrackPointExtension>
            <ns3:atemp>23.0</ns3:atemp>
          </ns3:TrackPointExtension>
        </extensions>
      </trkpt>
      <trkpt lat="42.53758485428988933563232421875" lon="20.16267855651676654815673828125">
        <ele>1958.5999755859375</ele>
        <time>2026-06-20T08:32:36.000Z</time>
        <extensions>
          <ns3:TrackPointExtension>
            <ns3:atemp>23.0</ns3:atemp>
          </ns3:TrackPointExtension>
        </extensions>
      </trkpt>
      <trkpt lat="42.53758485428988933563232421875" lon="20.16267855651676654815673828125">
        <ele>1958.5999755859375</ele>
        <time>2026-06-20T08:32:37.000Z</time>
        <extensions>
          <ns3:TrackPointExtension>
            <ns3:atemp>23.0</ns3:atemp>
          </ns3:TrackPointExtension>
        </extensions>
      </trkpt>
      <trkpt lat="42.53758485428988933563232421875" lon="20.16267855651676654815673828125">
        <ele>1958.5999755859375</ele>
        <time>2026-06-20T08:32:38.000Z</time>
        <extensions>
          <ns3:TrackPointExtension>
            <ns3:atemp>23.0</ns3:atemp>
          </ns3:TrackPointExtension>
        </extensions>
      </trkpt>
      <trkpt lat="42.53758485428988933563232421875" lon="20.16267855651676654815673828125">
        <ele>1958.5999755859375</ele>
        <time>2026-06-20T08:32:39.000Z</time>
        <extensions>
          <ns3:TrackPointExtension>
            <ns3:atemp>23.0</ns3:atemp>
          </ns3:TrackPointExtension>
        </extensions>
      </trkpt>
      <trkpt lat="42.53758485428988933563232421875" lon="20.16267855651676654815673828125">
        <ele>1958.5999755859375</ele>
        <time>2026-06-20T08:32:40.000Z</time>
        <extensions>
          <ns3:TrackPointExtension>
            <ns3:atemp>23.0</ns3:atemp>
          </ns3:TrackPointExtension>
        </extensions>
      </trkpt>
      <trkpt lat="42.53758485428988933563232421875" lon="20.16267855651676654815673828125">
        <ele>1958.5999755859375</ele>
        <time>2026-06-20T08:32:41.000Z</time>
        <extensions>
          <ns3:TrackPointExtension>
            <ns3:atemp>23.0</ns3:atemp>
          </ns3:TrackPointExtension>
        </extensions>
      </trkpt>
      <trkpt lat="42.53758485428988933563232421875" lon="20.16267855651676654815673828125">
        <ele>1958.5999755859375</ele>
        <time>2026-06-20T08:32:42.000Z</time>
        <extensions>
          <ns3:TrackPointExtension>
            <ns3:atemp>23.0</ns3:atemp>
          </ns3:TrackPointExtension>
        </extensions>
      </trkpt>
      <trkpt lat="42.53758485428988933563232421875" lon="20.16267855651676654815673828125">
        <ele>1958.5999755859375</ele>
        <time>2026-06-20T08:32:43.000Z</time>
        <extensions>
          <ns3:TrackPointExtension>
            <ns3:atemp>23.0</ns3:atemp>
          </ns3:TrackPointExtension>
        </extensions>
      </trkpt>
      <trkpt lat="42.53758485428988933563232421875" lon="20.16267855651676654815673828125">
        <ele>1958.5999755859375</ele>
        <time>2026-06-20T08:32:44.000Z</time>
        <extensions>
          <ns3:TrackPointExtension>
            <ns3:atemp>23.0</ns3:atemp>
          </ns3:TrackPointExtension>
        </extensions>
      </trkpt>
      <trkpt lat="42.53758485428988933563232421875" lon="20.16267855651676654815673828125">
        <ele>1958.5999755859375</ele>
        <time>2026-06-20T08:32:45.000Z</time>
        <extensions>
          <ns3:TrackPointExtension>
            <ns3:atemp>23.0</ns3:atemp>
          </ns3:TrackPointExtension>
        </extensions>
      </trkpt>
      <trkpt lat="42.53758485428988933563232421875" lon="20.16267855651676654815673828125">
        <ele>1958.5999755859375</ele>
        <time>2026-06-20T08:32:46.000Z</time>
        <extensions>
          <ns3:TrackPointExtension>
            <ns3:atemp>23.0</ns3:atemp>
          </ns3:TrackPointExtension>
        </extensions>
      </trkpt>
      <trkpt lat="42.53758485428988933563232421875" lon="20.16267855651676654815673828125">
        <ele>1958.5999755859375</ele>
        <time>2026-06-20T08:32:47.000Z</time>
        <extensions>
          <ns3:TrackPointExtension>
            <ns3:atemp>23.0</ns3:atemp>
          </ns3:TrackPointExtension>
        </extensions>
      </trkpt>
      <trkpt lat="42.53758485428988933563232421875" lon="20.16267855651676654815673828125">
        <ele>1958.5999755859375</ele>
        <time>2026-06-20T08:32:48.000Z</time>
        <extensions>
          <ns3:TrackPointExtension>
            <ns3:atemp>23.0</ns3:atemp>
          </ns3:TrackPointExtension>
        </extensions>
      </trkpt>
      <trkpt lat="42.53758485428988933563232421875" lon="20.16267855651676654815673828125">
        <ele>1958.5999755859375</ele>
        <time>2026-06-20T08:32:49.000Z</time>
        <extensions>
          <ns3:TrackPointExtension>
            <ns3:atemp>23.0</ns3:atemp>
          </ns3:TrackPointExtension>
        </extensions>
      </trkpt>
      <trkpt lat="42.53758485428988933563232421875" lon="20.16267855651676654815673828125">
        <ele>1958.5999755859375</ele>
        <time>2026-06-20T08:32:50.000Z</time>
        <extensions>
          <ns3:TrackPointExtension>
            <ns3:atemp>23.0</ns3:atemp>
          </ns3:TrackPointExtension>
        </extensions>
      </trkpt>
      <trkpt lat="42.53758485428988933563232421875" lon="20.16267855651676654815673828125">
        <ele>1958.5999755859375</ele>
        <time>2026-06-20T08:32:51.000Z</time>
        <extensions>
          <ns3:TrackPointExtension>
            <ns3:atemp>23.0</ns3:atemp>
          </ns3:TrackPointExtension>
        </extensions>
      </trkpt>
      <trkpt lat="42.53758485428988933563232421875" lon="20.16267855651676654815673828125">
        <ele>1958.5999755859375</ele>
        <time>2026-06-20T08:32:52.000Z</time>
        <extensions>
          <ns3:TrackPointExtension>
            <ns3:atemp>23.0</ns3:atemp>
          </ns3:TrackPointExtension>
        </extensions>
      </trkpt>
      <trkpt lat="42.53758485428988933563232421875" lon="20.16267855651676654815673828125">
        <ele>1958.5999755859375</ele>
        <time>2026-06-20T08:32:53.000Z</time>
        <extensions>
          <ns3:TrackPointExtension>
            <ns3:atemp>23.0</ns3:atemp>
          </ns3:TrackPointExtension>
        </extensions>
      </trkpt>
      <trkpt lat="42.53758485428988933563232421875" lon="20.16267855651676654815673828125">
        <ele>1958.5999755859375</ele>
        <time>2026-06-20T08:32:54.000Z</time>
        <extensions>
          <ns3:TrackPointExtension>
            <ns3:atemp>23.0</ns3:atemp>
          </ns3:TrackPointExtension>
        </extensions>
      </trkpt>
      <trkpt lat="42.53758485428988933563232421875" lon="20.16267855651676654815673828125">
        <ele>1958.5999755859375</ele>
        <time>2026-06-20T08:32:55.000Z</time>
        <extensions>
          <ns3:TrackPointExtension>
            <ns3:atemp>23.0</ns3:atemp>
          </ns3:TrackPointExtension>
        </extensions>
      </trkpt>
      <trkpt lat="42.53758485428988933563232421875" lon="20.16267855651676654815673828125">
        <ele>1958.5999755859375</ele>
        <time>2026-06-20T08:32:56.000Z</time>
        <extensions>
          <ns3:TrackPointExtension>
            <ns3:atemp>23.0</ns3:atemp>
          </ns3:TrackPointExtension>
        </extensions>
      </trkpt>
      <trkpt lat="42.53758485428988933563232421875" lon="20.16267855651676654815673828125">
        <ele>1958.5999755859375</ele>
        <time>2026-06-20T08:32:57.000Z</time>
        <extensions>
          <ns3:TrackPointExtension>
            <ns3:atemp>23.0</ns3:atemp>
          </ns3:TrackPointExtension>
        </extensions>
      </trkpt>
      <trkpt lat="42.53758485428988933563232421875" lon="20.16267855651676654815673828125">
        <ele>1958.5999755859375</ele>
        <time>2026-06-20T08:32:58.000Z</time>
        <extensions>
          <ns3:TrackPointExtension>
            <ns3:atemp>23.0</ns3:atemp>
          </ns3:TrackPointExtension>
        </extensions>
      </trkpt>
      <trkpt lat="42.53758485428988933563232421875" lon="20.16267855651676654815673828125">
        <ele>1958.5999755859375</ele>
        <time>2026-06-20T08:32:59.000Z</time>
        <extensions>
          <ns3:TrackPointExtension>
            <ns3:atemp>23.0</ns3:atemp>
          </ns3:TrackPointExtension>
        </extensions>
      </trkpt>
      <trkpt lat="42.53758485428988933563232421875" lon="20.16267855651676654815673828125">
        <ele>1958.5999755859375</ele>
        <time>2026-06-20T08:33:00.000Z</time>
        <extensions>
          <ns3:TrackPointExtension>
            <ns3:atemp>23.0</ns3:atemp>
          </ns3:TrackPointExtension>
        </extensions>
      </trkpt>
      <trkpt lat="42.53758485428988933563232421875" lon="20.16267855651676654815673828125">
        <ele>1958.5999755859375</ele>
        <time>2026-06-20T08:33:01.000Z</time>
        <extensions>
          <ns3:TrackPointExtension>
            <ns3:atemp>23.0</ns3:atemp>
          </ns3:TrackPointExtension>
        </extensions>
      </trkpt>
      <trkpt lat="42.53758485428988933563232421875" lon="20.16267855651676654815673828125">
        <ele>1958.5999755859375</ele>
        <time>2026-06-20T08:33:02.000Z</time>
        <extensions>
          <ns3:TrackPointExtension>
            <ns3:atemp>23.0</ns3:atemp>
          </ns3:TrackPointExtension>
        </extensions>
      </trkpt>
      <trkpt lat="42.53758485428988933563232421875" lon="20.16267855651676654815673828125">
        <ele>1958.5999755859375</ele>
        <time>2026-06-20T08:33:03.000Z</time>
        <extensions>
          <ns3:TrackPointExtension>
            <ns3:atemp>23.0</ns3:atemp>
          </ns3:TrackPointExtension>
        </extensions>
      </trkpt>
      <trkpt lat="42.53758485428988933563232421875" lon="20.16267855651676654815673828125">
        <ele>1958.5999755859375</ele>
        <time>2026-06-20T08:33:04.000Z</time>
        <extensions>
          <ns3:TrackPointExtension>
            <ns3:atemp>23.0</ns3:atemp>
          </ns3:TrackPointExtension>
        </extensions>
      </trkpt>
      <trkpt lat="42.53758485428988933563232421875" lon="20.16267855651676654815673828125">
        <ele>1958.5999755859375</ele>
        <time>2026-06-20T08:33:05.000Z</time>
        <extensions>
          <ns3:TrackPointExtension>
            <ns3:atemp>23.0</ns3:atemp>
          </ns3:TrackPointExtension>
        </extensions>
      </trkpt>
      <trkpt lat="42.53758485428988933563232421875" lon="20.16267855651676654815673828125">
        <ele>1958.5999755859375</ele>
        <time>2026-06-20T08:33:06.000Z</time>
        <extensions>
          <ns3:TrackPointExtension>
            <ns3:atemp>23.0</ns3:atemp>
          </ns3:TrackPointExtension>
        </extensions>
      </trkpt>
      <trkpt lat="42.53758485428988933563232421875" lon="20.16267855651676654815673828125">
        <ele>1958.5999755859375</ele>
        <time>2026-06-20T08:33:07.000Z</time>
        <extensions>
          <ns3:TrackPointExtension>
            <ns3:atemp>23.0</ns3:atemp>
          </ns3:TrackPointExtension>
        </extensions>
      </trkpt>
      <trkpt lat="42.53758485428988933563232421875" lon="20.16267855651676654815673828125">
        <ele>1958.5999755859375</ele>
        <time>2026-06-20T08:33:08.000Z</time>
        <extensions>
          <ns3:TrackPointExtension>
            <ns3:atemp>23.0</ns3:atemp>
          </ns3:TrackPointExtension>
        </extensions>
      </trkpt>
      <trkpt lat="42.53758485428988933563232421875" lon="20.16267855651676654815673828125">
        <ele>1958.5999755859375</ele>
        <time>2026-06-20T08:33:09.000Z</time>
        <extensions>
          <ns3:TrackPointExtension>
            <ns3:atemp>23.0</ns3:atemp>
          </ns3:TrackPointExtension>
        </extensions>
      </trkpt>
      <trkpt lat="42.53758485428988933563232421875" lon="20.16267855651676654815673828125">
        <ele>1958.5999755859375</ele>
        <time>2026-06-20T08:33:10.000Z</time>
        <extensions>
          <ns3:TrackPointExtension>
            <ns3:atemp>23.0</ns3:atemp>
          </ns3:TrackPointExtension>
        </extensions>
      </trkpt>
      <trkpt lat="42.53758485428988933563232421875" lon="20.16267855651676654815673828125">
        <ele>1958.5999755859375</ele>
        <time>2026-06-20T08:33:11.000Z</time>
        <extensions>
          <ns3:TrackPointExtension>
            <ns3:atemp>23.0</ns3:atemp>
          </ns3:TrackPointExtension>
        </extensions>
      </trkpt>
      <trkpt lat="42.53758485428988933563232421875" lon="20.16267855651676654815673828125">
        <ele>1958.5999755859375</ele>
        <time>2026-06-20T08:33:12.000Z</time>
        <extensions>
          <ns3:TrackPointExtension>
            <ns3:atemp>23.0</ns3:atemp>
          </ns3:TrackPointExtension>
        </extensions>
      </trkpt>
      <trkpt lat="42.53758485428988933563232421875" lon="20.16267855651676654815673828125">
        <ele>1958.5999755859375</ele>
        <time>2026-06-20T08:33:13.000Z</time>
        <extensions>
          <ns3:TrackPointExtension>
            <ns3:atemp>23.0</ns3:atemp>
          </ns3:TrackPointExtension>
        </extensions>
      </trkpt>
      <trkpt lat="42.53758485428988933563232421875" lon="20.16267855651676654815673828125">
        <ele>1958.5999755859375</ele>
        <time>2026-06-20T08:33:14.000Z</time>
        <extensions>
          <ns3:TrackPointExtension>
            <ns3:atemp>23.0</ns3:atemp>
          </ns3:TrackPointExtension>
        </extensions>
      </trkpt>
      <trkpt lat="42.53758485428988933563232421875" lon="20.16267855651676654815673828125">
        <ele>1958.5999755859375</ele>
        <time>2026-06-20T08:33:15.000Z</time>
        <extensions>
          <ns3:TrackPointExtension>
            <ns3:atemp>23.0</ns3:atemp>
          </ns3:TrackPointExtension>
        </extensions>
      </trkpt>
      <trkpt lat="42.53758485428988933563232421875" lon="20.16267855651676654815673828125">
        <ele>1958.5999755859375</ele>
        <time>2026-06-20T08:33:16.000Z</time>
        <extensions>
          <ns3:TrackPointExtension>
            <ns3:atemp>23.0</ns3:atemp>
          </ns3:TrackPointExtension>
        </extensions>
      </trkpt>
      <trkpt lat="42.53758485428988933563232421875" lon="20.16267855651676654815673828125">
        <ele>1958.5999755859375</ele>
        <time>2026-06-20T08:33:17.000Z</time>
        <extensions>
          <ns3:TrackPointExtension>
            <ns3:atemp>23.0</ns3:atemp>
          </ns3:TrackPointExtension>
        </extensions>
      </trkpt>
      <trkpt lat="42.53758485428988933563232421875" lon="20.16267855651676654815673828125">
        <ele>1958.5999755859375</ele>
        <time>2026-06-20T08:33:18.000Z</time>
        <extensions>
          <ns3:TrackPointExtension>
            <ns3:atemp>23.0</ns3:atemp>
          </ns3:TrackPointExtension>
        </extensions>
      </trkpt>
      <trkpt lat="42.53758485428988933563232421875" lon="20.16267855651676654815673828125">
        <ele>1958.5999755859375</ele>
        <time>2026-06-20T08:33:19.000Z</time>
        <extensions>
          <ns3:TrackPointExtension>
            <ns3:atemp>23.0</ns3:atemp>
          </ns3:TrackPointExtension>
        </extensions>
      </trkpt>
      <trkpt lat="42.53758485428988933563232421875" lon="20.16267855651676654815673828125">
        <ele>1958.5999755859375</ele>
        <time>2026-06-20T08:33:20.000Z</time>
        <extensions>
          <ns3:TrackPointExtension>
            <ns3:atemp>23.0</ns3:atemp>
          </ns3:TrackPointExtension>
        </extensions>
      </trkpt>
      <trkpt lat="42.53758485428988933563232421875" lon="20.16267855651676654815673828125">
        <ele>1958.5999755859375</ele>
        <time>2026-06-20T08:33:21.000Z</time>
        <extensions>
          <ns3:TrackPointExtension>
            <ns3:atemp>23.0</ns3:atemp>
          </ns3:TrackPointExtension>
        </extensions>
      </trkpt>
      <trkpt lat="42.53758485428988933563232421875" lon="20.16267855651676654815673828125">
        <ele>1958.5999755859375</ele>
        <time>2026-06-20T08:33:22.000Z</time>
        <extensions>
          <ns3:TrackPointExtension>
            <ns3:atemp>23.0</ns3:atemp>
          </ns3:TrackPointExtension>
        </extensions>
      </trkpt>
      <trkpt lat="42.53758485428988933563232421875" lon="20.16267855651676654815673828125">
        <ele>1958.5999755859375</ele>
        <time>2026-06-20T08:33:23.000Z</time>
        <extensions>
          <ns3:TrackPointExtension>
            <ns3:atemp>23.0</ns3:atemp>
          </ns3:TrackPointExtension>
        </extensions>
      </trkpt>
      <trkpt lat="42.53758485428988933563232421875" lon="20.16267855651676654815673828125">
        <ele>1958.5999755859375</ele>
        <time>2026-06-20T08:33:24.000Z</time>
        <extensions>
          <ns3:TrackPointExtension>
            <ns3:atemp>23.0</ns3:atemp>
          </ns3:TrackPointExtension>
        </extensions>
      </trkpt>
      <trkpt lat="42.53758485428988933563232421875" lon="20.16267855651676654815673828125">
        <ele>1958.5999755859375</ele>
        <time>2026-06-20T08:33:25.000Z</time>
        <extensions>
          <ns3:TrackPointExtension>
            <ns3:atemp>23.0</ns3:atemp>
          </ns3:TrackPointExtension>
        </extensions>
      </trkpt>
      <trkpt lat="42.53758485428988933563232421875" lon="20.16267855651676654815673828125">
        <ele>1958.5999755859375</ele>
        <time>2026-06-20T08:33:26.000Z</time>
        <extensions>
          <ns3:TrackPointExtension>
            <ns3:atemp>23.0</ns3:atemp>
          </ns3:TrackPointExtension>
        </extensions>
      </trkpt>
      <trkpt lat="42.53758485428988933563232421875" lon="20.16267855651676654815673828125">
        <ele>1958.5999755859375</ele>
        <time>2026-06-20T08:33:27.000Z</time>
        <extensions>
          <ns3:TrackPointExtension>
            <ns3:atemp>23.0</ns3:atemp>
          </ns3:TrackPointExtension>
        </extensions>
      </trkpt>
      <trkpt lat="42.53758485428988933563232421875" lon="20.16267855651676654815673828125">
        <ele>1958.5999755859375</ele>
        <time>2026-06-20T08:33:28.000Z</time>
        <extensions>
          <ns3:TrackPointExtension>
            <ns3:atemp>23.0</ns3:atemp>
          </ns3:TrackPointExtension>
        </extensions>
      </trkpt>
      <trkpt lat="42.53758485428988933563232421875" lon="20.16267855651676654815673828125">
        <ele>1958.5999755859375</ele>
        <time>2026-06-20T08:33:29.000Z</time>
        <extensions>
          <ns3:TrackPointExtension>
            <ns3:atemp>23.0</ns3:atemp>
          </ns3:TrackPointExtension>
        </extensions>
      </trkpt>
      <trkpt lat="42.53758485428988933563232421875" lon="20.16267855651676654815673828125">
        <ele>1958.5999755859375</ele>
        <time>2026-06-20T08:33:30.000Z</time>
        <extensions>
          <ns3:TrackPointExtension>
            <ns3:atemp>23.0</ns3:atemp>
          </ns3:TrackPointExtension>
        </extensions>
      </trkpt>
      <trkpt lat="42.53758485428988933563232421875" lon="20.16267855651676654815673828125">
        <ele>1958.5999755859375</ele>
        <time>2026-06-20T08:33:31.000Z</time>
        <extensions>
          <ns3:TrackPointExtension>
            <ns3:atemp>23.0</ns3:atemp>
          </ns3:TrackPointExtension>
        </extensions>
      </trkpt>
      <trkpt lat="42.53758485428988933563232421875" lon="20.16267855651676654815673828125">
        <ele>1958.5999755859375</ele>
        <time>2026-06-20T08:33:32.000Z</time>
        <extensions>
          <ns3:TrackPointExtension>
            <ns3:atemp>23.0</ns3:atemp>
          </ns3:TrackPointExtension>
        </extensions>
      </trkpt>
      <trkpt lat="42.53758485428988933563232421875" lon="20.16267855651676654815673828125">
        <ele>1958.5999755859375</ele>
        <time>2026-06-20T08:33:33.000Z</time>
        <extensions>
          <ns3:TrackPointExtension>
            <ns3:atemp>23.0</ns3:atemp>
          </ns3:TrackPointExtension>
        </extensions>
      </trkpt>
      <trkpt lat="42.53758485428988933563232421875" lon="20.16267855651676654815673828125">
        <ele>1958.5999755859375</ele>
        <time>2026-06-20T08:33:34.000Z</time>
        <extensions>
          <ns3:TrackPointExtension>
            <ns3:atemp>23.0</ns3:atemp>
          </ns3:TrackPointExtension>
        </extensions>
      </trkpt>
      <trkpt lat="42.53758485428988933563232421875" lon="20.16267855651676654815673828125">
        <ele>1958.5999755859375</ele>
        <time>2026-06-20T08:33:35.000Z</time>
        <extensions>
          <ns3:TrackPointExtension>
            <ns3:atemp>23.0</ns3:atemp>
          </ns3:TrackPointExtension>
        </extensions>
      </trkpt>
      <trkpt lat="42.53758485428988933563232421875" lon="20.16267855651676654815673828125">
        <ele>1958.5999755859375</ele>
        <time>2026-06-20T08:33:36.000Z</time>
        <extensions>
          <ns3:TrackPointExtension>
            <ns3:atemp>23.0</ns3:atemp>
          </ns3:TrackPointExtension>
        </extensions>
      </trkpt>
      <trkpt lat="42.53758485428988933563232421875" lon="20.16267855651676654815673828125">
        <ele>1958.5999755859375</ele>
        <time>2026-06-20T08:33:37.000Z</time>
        <extensions>
          <ns3:TrackPointExtension>
            <ns3:atemp>23.0</ns3:atemp>
          </ns3:TrackPointExtension>
        </extensions>
      </trkpt>
      <trkpt lat="42.53758485428988933563232421875" lon="20.16267855651676654815673828125">
        <ele>1958.5999755859375</ele>
        <time>2026-06-20T08:33:38.000Z</time>
        <extensions>
          <ns3:TrackPointExtension>
            <ns3:atemp>23.0</ns3:atemp>
          </ns3:TrackPointExtension>
        </extensions>
      </trkpt>
      <trkpt lat="42.53758485428988933563232421875" lon="20.16267855651676654815673828125">
        <ele>1958.5999755859375</ele>
        <time>2026-06-20T08:33:39.000Z</time>
        <extensions>
          <ns3:TrackPointExtension>
            <ns3:atemp>23.0</ns3:atemp>
          </ns3:TrackPointExtension>
        </extensions>
      </trkpt>
      <trkpt lat="42.53758485428988933563232421875" lon="20.16267855651676654815673828125">
        <ele>1958.5999755859375</ele>
        <time>2026-06-20T08:33:40.000Z</time>
        <extensions>
          <ns3:TrackPointExtension>
            <ns3:atemp>23.0</ns3:atemp>
          </ns3:TrackPointExtension>
        </extensions>
      </trkpt>
      <trkpt lat="42.53758485428988933563232421875" lon="20.16267855651676654815673828125">
        <ele>1958.5999755859375</ele>
        <time>2026-06-20T08:33:41.000Z</time>
        <extensions>
          <ns3:TrackPointExtension>
            <ns3:atemp>23.0</ns3:atemp>
          </ns3:TrackPointExtension>
        </extensions>
      </trkpt>
      <trkpt lat="42.53758485428988933563232421875" lon="20.16267855651676654815673828125">
        <ele>1958.5999755859375</ele>
        <time>2026-06-20T08:33:42.000Z</time>
        <extensions>
          <ns3:TrackPointExtension>
            <ns3:atemp>23.0</ns3:atemp>
          </ns3:TrackPointExtension>
        </extensions>
      </trkpt>
      <trkpt lat="42.53758485428988933563232421875" lon="20.16267855651676654815673828125">
        <ele>1958.5999755859375</ele>
        <time>2026-06-20T08:33:43.000Z</time>
        <extensions>
          <ns3:TrackPointExtension>
            <ns3:atemp>23.0</ns3:atemp>
          </ns3:TrackPointExtension>
        </extensions>
      </trkpt>
      <trkpt lat="42.53758485428988933563232421875" lon="20.16267855651676654815673828125">
        <ele>1958.5999755859375</ele>
        <time>2026-06-20T08:33:44.000Z</time>
        <extensions>
          <ns3:TrackPointExtension>
            <ns3:atemp>23.0</ns3:atemp>
          </ns3:TrackPointExtension>
        </extensions>
      </trkpt>
      <trkpt lat="42.53758485428988933563232421875" lon="20.16267855651676654815673828125">
        <ele>1958.5999755859375</ele>
        <time>2026-06-20T08:33:45.000Z</time>
        <extensions>
          <ns3:TrackPointExtension>
            <ns3:atemp>23.0</ns3:atemp>
          </ns3:TrackPointExtension>
        </extensions>
      </trkpt>
      <trkpt lat="42.53758485428988933563232421875" lon="20.16267855651676654815673828125">
        <ele>1958.5999755859375</ele>
        <time>2026-06-20T08:33:46.000Z</time>
        <extensions>
          <ns3:TrackPointExtension>
            <ns3:atemp>23.0</ns3:atemp>
          </ns3:TrackPointExtension>
        </extensions>
      </trkpt>
      <trkpt lat="42.53758485428988933563232421875" lon="20.16267855651676654815673828125">
        <ele>1958.5999755859375</ele>
        <time>2026-06-20T08:33:47.000Z</time>
        <extensions>
          <ns3:TrackPointExtension>
            <ns3:atemp>23.0</ns3:atemp>
          </ns3:TrackPointExtension>
        </extensions>
      </trkpt>
      <trkpt lat="42.53758485428988933563232421875" lon="20.16267855651676654815673828125">
        <ele>1958.5999755859375</ele>
        <time>2026-06-20T08:33:48.000Z</time>
        <extensions>
          <ns3:TrackPointExtension>
            <ns3:atemp>23.0</ns3:atemp>
          </ns3:TrackPointExtension>
        </extensions>
      </trkpt>
      <trkpt lat="42.53758485428988933563232421875" lon="20.16267855651676654815673828125">
        <ele>1958.5999755859375</ele>
        <time>2026-06-20T08:33:49.000Z</time>
        <extensions>
          <ns3:TrackPointExtension>
            <ns3:atemp>23.0</ns3:atemp>
          </ns3:TrackPointExtension>
        </extensions>
      </trkpt>
      <trkpt lat="42.53758485428988933563232421875" lon="20.16267855651676654815673828125">
        <ele>1958.5999755859375</ele>
        <time>2026-06-20T08:33:50.000Z</time>
        <extensions>
          <ns3:TrackPointExtension>
            <ns3:atemp>23.0</ns3:atemp>
          </ns3:TrackPointExtension>
        </extensions>
      </trkpt>
      <trkpt lat="42.53758485428988933563232421875" lon="20.16267855651676654815673828125">
        <ele>1958.5999755859375</ele>
        <time>2026-06-20T08:33:51.000Z</time>
        <extensions>
          <ns3:TrackPointExtension>
            <ns3:atemp>23.0</ns3:atemp>
          </ns3:TrackPointExtension>
        </extensions>
      </trkpt>
      <trkpt lat="42.53758485428988933563232421875" lon="20.16267855651676654815673828125">
        <ele>1958.5999755859375</ele>
        <time>2026-06-20T08:33:52.000Z</time>
        <extensions>
          <ns3:TrackPointExtension>
            <ns3:atemp>23.0</ns3:atemp>
          </ns3:TrackPointExtension>
        </extensions>
      </trkpt>
      <trkpt lat="42.53758485428988933563232421875" lon="20.16267855651676654815673828125">
        <ele>1958.5999755859375</ele>
        <time>2026-06-20T08:33:53.000Z</time>
        <extensions>
          <ns3:TrackPointExtension>
            <ns3:atemp>23.0</ns3:atemp>
          </ns3:TrackPointExtension>
        </extensions>
      </trkpt>
      <trkpt lat="42.53758485428988933563232421875" lon="20.16267855651676654815673828125">
        <ele>1958.5999755859375</ele>
        <time>2026-06-20T08:33:54.000Z</time>
        <extensions>
          <ns3:TrackPointExtension>
            <ns3:atemp>23.0</ns3:atemp>
          </ns3:TrackPointExtension>
        </extensions>
      </trkpt>
      <trkpt lat="42.53758485428988933563232421875" lon="20.16267855651676654815673828125">
        <ele>1958.5999755859375</ele>
        <time>2026-06-20T08:33:55.000Z</time>
        <extensions>
          <ns3:TrackPointExtension>
            <ns3:atemp>23.0</ns3:atemp>
          </ns3:TrackPointExtension>
        </extensions>
      </trkpt>
      <trkpt lat="42.53758485428988933563232421875" lon="20.16267855651676654815673828125">
        <ele>1958.5999755859375</ele>
        <time>2026-06-20T08:33:56.000Z</time>
        <extensions>
          <ns3:TrackPointExtension>
            <ns3:atemp>23.0</ns3:atemp>
          </ns3:TrackPointExtension>
        </extensions>
      </trkpt>
      <trkpt lat="42.53758485428988933563232421875" lon="20.16267855651676654815673828125">
        <ele>1958.5999755859375</ele>
        <time>2026-06-20T08:33:57.000Z</time>
        <extensions>
          <ns3:TrackPointExtension>
            <ns3:atemp>23.0</ns3:atemp>
          </ns3:TrackPointExtension>
        </extensions>
      </trkpt>
      <trkpt lat="42.53758485428988933563232421875" lon="20.16267855651676654815673828125">
        <ele>1958.5999755859375</ele>
        <time>2026-06-20T08:33:58.000Z</time>
        <extensions>
          <ns3:TrackPointExtension>
            <ns3:atemp>23.0</ns3:atemp>
          </ns3:TrackPointExtension>
        </extensions>
      </trkpt>
      <trkpt lat="42.53758485428988933563232421875" lon="20.16267855651676654815673828125">
        <ele>1958.5999755859375</ele>
        <time>2026-06-20T08:33:59.000Z</time>
        <extensions>
          <ns3:TrackPointExtension>
            <ns3:atemp>23.0</ns3:atemp>
          </ns3:TrackPointExtension>
        </extensions>
      </trkpt>
      <trkpt lat="42.53758485428988933563232421875" lon="20.16267855651676654815673828125">
        <ele>1958.5999755859375</ele>
        <time>2026-06-20T08:34:00.000Z</time>
        <extensions>
          <ns3:TrackPointExtension>
            <ns3:atemp>23.0</ns3:atemp>
          </ns3:TrackPointExtension>
        </extensions>
      </trkpt>
      <trkpt lat="42.53758485428988933563232421875" lon="20.16267855651676654815673828125">
        <ele>1958.5999755859375</ele>
        <time>2026-06-20T08:34:01.000Z</time>
        <extensions>
          <ns3:TrackPointExtension>
            <ns3:atemp>23.0</ns3:atemp>
          </ns3:TrackPointExtension>
        </extensions>
      </trkpt>
      <trkpt lat="42.53758485428988933563232421875" lon="20.16267855651676654815673828125">
        <ele>1958.5999755859375</ele>
        <time>2026-06-20T08:34:02.000Z</time>
        <extensions>
          <ns3:TrackPointExtension>
            <ns3:atemp>23.0</ns3:atemp>
          </ns3:TrackPointExtension>
        </extensions>
      </trkpt>
      <trkpt lat="42.53758485428988933563232421875" lon="20.16267855651676654815673828125">
        <ele>1958.5999755859375</ele>
        <time>2026-06-20T08:34:03.000Z</time>
        <extensions>
          <ns3:TrackPointExtension>
            <ns3:atemp>23.0</ns3:atemp>
          </ns3:TrackPointExtension>
        </extensions>
      </trkpt>
      <trkpt lat="42.53758485428988933563232421875" lon="20.16267855651676654815673828125">
        <ele>1958.5999755859375</ele>
        <time>2026-06-20T08:34:04.000Z</time>
        <extensions>
          <ns3:TrackPointExtension>
            <ns3:atemp>23.0</ns3:atemp>
          </ns3:TrackPointExtension>
        </extensions>
      </trkpt>
      <trkpt lat="42.53758485428988933563232421875" lon="20.16267855651676654815673828125">
        <ele>1958.5999755859375</ele>
        <time>2026-06-20T08:34:05.000Z</time>
        <extensions>
          <ns3:TrackPointExtension>
            <ns3:atemp>23.0</ns3:atemp>
          </ns3:TrackPointExtension>
        </extensions>
      </trkpt>
      <trkpt lat="42.53758485428988933563232421875" lon="20.16267855651676654815673828125">
        <ele>1958.5999755859375</ele>
        <time>2026-06-20T08:34:06.000Z</time>
        <extensions>
          <ns3:TrackPointExtension>
            <ns3:atemp>23.0</ns3:atemp>
          </ns3:TrackPointExtension>
        </extensions>
      </trkpt>
      <trkpt lat="42.53758485428988933563232421875" lon="20.16267855651676654815673828125">
        <ele>1958.5999755859375</ele>
        <time>2026-06-20T08:34:07.000Z</time>
        <extensions>
          <ns3:TrackPointExtension>
            <ns3:atemp>23.0</ns3:atemp>
          </ns3:TrackPointExtension>
        </extensions>
      </trkpt>
      <trkpt lat="42.53758485428988933563232421875" lon="20.16267855651676654815673828125">
        <ele>1958.5999755859375</ele>
        <time>2026-06-20T08:34:08.000Z</time>
        <extensions>
          <ns3:TrackPointExtension>
            <ns3:atemp>23.0</ns3:atemp>
          </ns3:TrackPointExtension>
        </extensions>
      </trkpt>
      <trkpt lat="42.53758485428988933563232421875" lon="20.16267855651676654815673828125">
        <ele>1958.5999755859375</ele>
        <time>2026-06-20T08:34:09.000Z</time>
        <extensions>
          <ns3:TrackPointExtension>
            <ns3:atemp>23.0</ns3:atemp>
          </ns3:TrackPointExtension>
        </extensions>
      </trkpt>
      <trkpt lat="42.53758485428988933563232421875" lon="20.16267855651676654815673828125">
        <ele>1958.5999755859375</ele>
        <time>2026-06-20T08:34:10.000Z</time>
        <extensions>
          <ns3:TrackPointExtension>
            <ns3:atemp>23.0</ns3:atemp>
          </ns3:TrackPointExtension>
        </extensions>
      </trkpt>
      <trkpt lat="42.53758485428988933563232421875" lon="20.16267855651676654815673828125">
        <ele>1958.5999755859375</ele>
        <time>2026-06-20T08:34:11.000Z</time>
        <extensions>
          <ns3:TrackPointExtension>
            <ns3:atemp>23.0</ns3:atemp>
          </ns3:TrackPointExtension>
        </extensions>
      </trkpt>
      <trkpt lat="42.53758485428988933563232421875" lon="20.16267855651676654815673828125">
        <ele>1958.5999755859375</ele>
        <time>2026-06-20T08:34:12.000Z</time>
        <extensions>
          <ns3:TrackPointExtension>
            <ns3:atemp>23.0</ns3:atemp>
          </ns3:TrackPointExtension>
        </extensions>
      </trkpt>
      <trkpt lat="42.53758485428988933563232421875" lon="20.16267855651676654815673828125">
        <ele>1958.5999755859375</ele>
        <time>2026-06-20T08:34:13.000Z</time>
        <extensions>
          <ns3:TrackPointExtension>
            <ns3:atemp>23.0</ns3:atemp>
          </ns3:TrackPointExtension>
        </extensions>
      </trkpt>
      <trkpt lat="42.53758485428988933563232421875" lon="20.16267855651676654815673828125">
        <ele>1958.5999755859375</ele>
        <time>2026-06-20T08:34:14.000Z</time>
        <extensions>
          <ns3:TrackPointExtension>
            <ns3:atemp>23.0</ns3:atemp>
          </ns3:TrackPointExtension>
        </extensions>
      </trkpt>
      <trkpt lat="42.53758485428988933563232421875" lon="20.16267855651676654815673828125">
        <ele>1958.5999755859375</ele>
        <time>2026-06-20T08:34:15.000Z</time>
        <extensions>
          <ns3:TrackPointExtension>
            <ns3:atemp>24.0</ns3:atemp>
          </ns3:TrackPointExtension>
        </extensions>
      </trkpt>
      <trkpt lat="42.53758485428988933563232421875" lon="20.16267855651676654815673828125">
        <ele>1958.5999755859375</ele>
        <time>2026-06-20T08:34:16.000Z</time>
        <extensions>
          <ns3:TrackPointExtension>
            <ns3:atemp>23.0</ns3:atemp>
          </ns3:TrackPointExtension>
        </extensions>
      </trkpt>
      <trkpt lat="42.53758485428988933563232421875" lon="20.16267855651676654815673828125">
        <ele>1958.5999755859375</ele>
        <time>2026-06-20T08:34:17.000Z</time>
        <extensions>
          <ns3:TrackPointExtension>
            <ns3:atemp>24.0</ns3:atemp>
          </ns3:TrackPointExtension>
        </extensions>
      </trkpt>
      <trkpt lat="42.53758485428988933563232421875" lon="20.16267855651676654815673828125">
        <ele>1958.5999755859375</ele>
        <time>2026-06-20T08:34:18.000Z</time>
        <extensions>
          <ns3:TrackPointExtension>
            <ns3:atemp>24.0</ns3:atemp>
          </ns3:TrackPointExtension>
        </extensions>
      </trkpt>
      <trkpt lat="42.53758485428988933563232421875" lon="20.16267855651676654815673828125">
        <ele>1958.5999755859375</ele>
        <time>2026-06-20T08:34:19.000Z</time>
        <extensions>
          <ns3:TrackPointExtension>
            <ns3:atemp>24.0</ns3:atemp>
          </ns3:TrackPointExtension>
        </extensions>
      </trkpt>
      <trkpt lat="42.53758485428988933563232421875" lon="20.16267855651676654815673828125">
        <ele>1958.5999755859375</ele>
        <time>2026-06-20T08:34:20.000Z</time>
        <extensions>
          <ns3:TrackPointExtension>
            <ns3:atemp>24.0</ns3:atemp>
          </ns3:TrackPointExtension>
        </extensions>
      </trkpt>
      <trkpt lat="42.53758485428988933563232421875" lon="20.16267855651676654815673828125">
        <ele>1958.5999755859375</ele>
        <time>2026-06-20T08:34:21.000Z</time>
        <extensions>
          <ns3:TrackPointExtension>
            <ns3:atemp>24.0</ns3:atemp>
          </ns3:TrackPointExtension>
        </extensions>
      </trkpt>
      <trkpt lat="42.53758485428988933563232421875" lon="20.16267855651676654815673828125">
        <ele>1958.5999755859375</ele>
        <time>2026-06-20T08:34:22.000Z</time>
        <extensions>
          <ns3:TrackPointExtension>
            <ns3:atemp>24.0</ns3:atemp>
          </ns3:TrackPointExtension>
        </extensions>
      </trkpt>
      <trkpt lat="42.53758485428988933563232421875" lon="20.16267855651676654815673828125">
        <ele>1958.5999755859375</ele>
        <time>2026-06-20T08:34:23.000Z</time>
        <extensions>
          <ns3:TrackPointExtension>
            <ns3:atemp>24.0</ns3:atemp>
          </ns3:TrackPointExtension>
        </extensions>
      </trkpt>
      <trkpt lat="42.53758485428988933563232421875" lon="20.16267855651676654815673828125">
        <ele>1958.5999755859375</ele>
        <time>2026-06-20T08:34:24.000Z</time>
        <extensions>
          <ns3:TrackPointExtension>
            <ns3:atemp>24.0</ns3:atemp>
          </ns3:TrackPointExtension>
        </extensions>
      </trkpt>
      <trkpt lat="42.53758485428988933563232421875" lon="20.16267855651676654815673828125">
        <ele>1958.5999755859375</ele>
        <time>2026-06-20T08:34:25.000Z</time>
        <extensions>
          <ns3:TrackPointExtension>
            <ns3:atemp>24.0</ns3:atemp>
          </ns3:TrackPointExtension>
        </extensions>
      </trkpt>
      <trkpt lat="42.53758485428988933563232421875" lon="20.16267855651676654815673828125">
        <ele>1958.5999755859375</ele>
        <time>2026-06-20T08:34:26.000Z</time>
        <extensions>
          <ns3:TrackPointExtension>
            <ns3:atemp>24.0</ns3:atemp>
          </ns3:TrackPointExtension>
        </extensions>
      </trkpt>
      <trkpt lat="42.53758485428988933563232421875" lon="20.16267855651676654815673828125">
        <ele>1958.5999755859375</ele>
        <time>2026-06-20T08:34:27.000Z</time>
        <extensions>
          <ns3:TrackPointExtension>
            <ns3:atemp>24.0</ns3:atemp>
          </ns3:TrackPointExtension>
        </extensions>
      </trkpt>
      <trkpt lat="42.53758485428988933563232421875" lon="20.16267855651676654815673828125">
        <ele>1958.5999755859375</ele>
        <time>2026-06-20T08:34:28.000Z</time>
        <extensions>
          <ns3:TrackPointExtension>
            <ns3:atemp>24.0</ns3:atemp>
          </ns3:TrackPointExtension>
        </extensions>
      </trkpt>
      <trkpt lat="42.53758485428988933563232421875" lon="20.16267855651676654815673828125">
        <ele>1958.5999755859375</ele>
        <time>2026-06-20T08:34:29.000Z</time>
        <extensions>
          <ns3:TrackPointExtension>
            <ns3:atemp>24.0</ns3:atemp>
          </ns3:TrackPointExtension>
        </extensions>
      </trkpt>
      <trkpt lat="42.53758485428988933563232421875" lon="20.16267855651676654815673828125">
        <ele>1958.5999755859375</ele>
        <time>2026-06-20T08:34:30.000Z</time>
        <extensions>
          <ns3:TrackPointExtension>
            <ns3:atemp>24.0</ns3:atemp>
          </ns3:TrackPointExtension>
        </extensions>
      </trkpt>
      <trkpt lat="42.53758485428988933563232421875" lon="20.16267855651676654815673828125">
        <ele>1958.5999755859375</ele>
        <time>2026-06-20T08:34:31.000Z</time>
        <extensions>
          <ns3:TrackPointExtension>
            <ns3:atemp>24.0</ns3:atemp>
          </ns3:TrackPointExtension>
        </extensions>
      </trkpt>
      <trkpt lat="42.53758485428988933563232421875" lon="20.16267855651676654815673828125">
        <ele>1958.5999755859375</ele>
        <time>2026-06-20T08:34:32.000Z</time>
        <extensions>
          <ns3:TrackPointExtension>
            <ns3:atemp>24.0</ns3:atemp>
          </ns3:TrackPointExtension>
        </extensions>
      </trkpt>
      <trkpt lat="42.53758485428988933563232421875" lon="20.16267855651676654815673828125">
        <ele>1958.5999755859375</ele>
        <time>2026-06-20T08:34:33.000Z</time>
        <extensions>
          <ns3:TrackPointExtension>
            <ns3:atemp>24.0</ns3:atemp>
          </ns3:TrackPointExtension>
        </extensions>
      </trkpt>
      <trkpt lat="42.53758485428988933563232421875" lon="20.16267855651676654815673828125">
        <ele>1958.5999755859375</ele>
        <time>2026-06-20T08:34:34.000Z</time>
        <extensions>
          <ns3:TrackPointExtension>
            <ns3:atemp>24.0</ns3:atemp>
          </ns3:TrackPointExtension>
        </extensions>
      </trkpt>
      <trkpt lat="42.53758485428988933563232421875" lon="20.16267855651676654815673828125">
        <ele>1958.5999755859375</ele>
        <time>2026-06-20T08:34:35.000Z</time>
        <extensions>
          <ns3:TrackPointExtension>
            <ns3:atemp>24.0</ns3:atemp>
          </ns3:TrackPointExtension>
        </extensions>
      </trkpt>
      <trkpt lat="42.53758485428988933563232421875" lon="20.16267855651676654815673828125">
        <ele>1958.5999755859375</ele>
        <time>2026-06-20T08:34:36.000Z</time>
        <extensions>
          <ns3:TrackPointExtension>
            <ns3:atemp>24.0</ns3:atemp>
          </ns3:TrackPointExtension>
        </extensions>
      </trkpt>
      <trkpt lat="42.53758485428988933563232421875" lon="20.16267855651676654815673828125">
        <ele>1958.5999755859375</ele>
        <time>2026-06-20T08:34:37.000Z</time>
        <extensions>
          <ns3:TrackPointExtension>
            <ns3:atemp>24.0</ns3:atemp>
          </ns3:TrackPointExtension>
        </extensions>
      </trkpt>
      <trkpt lat="42.53758485428988933563232421875" lon="20.16267855651676654815673828125">
        <ele>1958.5999755859375</ele>
        <time>2026-06-20T08:34:38.000Z</time>
        <extensions>
          <ns3:TrackPointExtension>
            <ns3:atemp>24.0</ns3:atemp>
          </ns3:TrackPointExtension>
        </extensions>
      </trkpt>
      <trkpt lat="42.53758485428988933563232421875" lon="20.16267855651676654815673828125">
        <ele>1958.5999755859375</ele>
        <time>2026-06-20T08:34:39.000Z</time>
        <extensions>
          <ns3:TrackPointExtension>
            <ns3:atemp>24.0</ns3:atemp>
          </ns3:TrackPointExtension>
        </extensions>
      </trkpt>
      <trkpt lat="42.53758485428988933563232421875" lon="20.16267855651676654815673828125">
        <ele>1958.5999755859375</ele>
        <time>2026-06-20T08:34:40.000Z</time>
        <extensions>
          <ns3:TrackPointExtension>
            <ns3:atemp>24.0</ns3:atemp>
          </ns3:TrackPointExtension>
        </extensions>
      </trkpt>
      <trkpt lat="42.53758485428988933563232421875" lon="20.16267855651676654815673828125">
        <ele>1958.5999755859375</ele>
        <time>2026-06-20T08:34:41.000Z</time>
        <extensions>
          <ns3:TrackPointExtension>
            <ns3:atemp>24.0</ns3:atemp>
          </ns3:TrackPointExtension>
        </extensions>
      </trkpt>
      <trkpt lat="42.53758485428988933563232421875" lon="20.16267855651676654815673828125">
        <ele>1958.5999755859375</ele>
        <time>2026-06-20T08:34:42.000Z</time>
        <extensions>
          <ns3:TrackPointExtension>
            <ns3:atemp>24.0</ns3:atemp>
          </ns3:TrackPointExtension>
        </extensions>
      </trkpt>
      <trkpt lat="42.53758485428988933563232421875" lon="20.16267855651676654815673828125">
        <ele>1958.5999755859375</ele>
        <time>2026-06-20T08:34:43.000Z</time>
        <extensions>
          <ns3:TrackPointExtension>
            <ns3:atemp>24.0</ns3:atemp>
          </ns3:TrackPointExtension>
        </extensions>
      </trkpt>
      <trkpt lat="42.53758485428988933563232421875" lon="20.16267855651676654815673828125">
        <ele>1958.5999755859375</ele>
        <time>2026-06-20T08:34:44.000Z</time>
        <extensions>
          <ns3:TrackPointExtension>
            <ns3:atemp>24.0</ns3:atemp>
          </ns3:TrackPointExtension>
        </extensions>
      </trkpt>
      <trkpt lat="42.53758485428988933563232421875" lon="20.16267855651676654815673828125">
        <ele>1958.5999755859375</ele>
        <time>2026-06-20T08:34:45.000Z</time>
        <extensions>
          <ns3:TrackPointExtension>
            <ns3:atemp>24.0</ns3:atemp>
          </ns3:TrackPointExtension>
        </extensions>
      </trkpt>
      <trkpt lat="42.53758485428988933563232421875" lon="20.16267855651676654815673828125">
        <ele>1958.5999755859375</ele>
        <time>2026-06-20T08:34:46.000Z</time>
        <extensions>
          <ns3:TrackPointExtension>
            <ns3:atemp>24.0</ns3:atemp>
          </ns3:TrackPointExtension>
        </extensions>
      </trkpt>
      <trkpt lat="42.53758485428988933563232421875" lon="20.16267855651676654815673828125">
        <ele>1958.5999755859375</ele>
        <time>2026-06-20T08:34:47.000Z</time>
        <extensions>
          <ns3:TrackPointExtension>
            <ns3:atemp>24.0</ns3:atemp>
          </ns3:TrackPointExtension>
        </extensions>
      </trkpt>
      <trkpt lat="42.53758485428988933563232421875" lon="20.16267855651676654815673828125">
        <ele>1958.5999755859375</ele>
        <time>2026-06-20T08:34:48.000Z</time>
        <extensions>
          <ns3:TrackPointExtension>
            <ns3:atemp>24.0</ns3:atemp>
          </ns3:TrackPointExtension>
        </extensions>
      </trkpt>
      <trkpt lat="42.53758485428988933563232421875" lon="20.16267855651676654815673828125">
        <ele>1958.5999755859375</ele>
        <time>2026-06-20T08:34:49.000Z</time>
        <extensions>
          <ns3:TrackPointExtension>
            <ns3:atemp>24.0</ns3:atemp>
          </ns3:TrackPointExtension>
        </extensions>
      </trkpt>
      <trkpt lat="42.53758485428988933563232421875" lon="20.16267855651676654815673828125">
        <ele>1958.5999755859375</ele>
        <time>2026-06-20T08:34:50.000Z</time>
        <extensions>
          <ns3:TrackPointExtension>
            <ns3:atemp>24.0</ns3:atemp>
          </ns3:TrackPointExtension>
        </extensions>
      </trkpt>
      <trkpt lat="42.53758485428988933563232421875" lon="20.16267855651676654815673828125">
        <ele>1958.5999755859375</ele>
        <time>2026-06-20T08:34:51.000Z</time>
        <extensions>
          <ns3:TrackPointExtension>
            <ns3:atemp>24.0</ns3:atemp>
          </ns3:TrackPointExtension>
        </extensions>
      </trkpt>
      <trkpt lat="42.53758485428988933563232421875" lon="20.16267855651676654815673828125">
        <ele>1958.5999755859375</ele>
        <time>2026-06-20T08:34:52.000Z</time>
        <extensions>
          <ns3:TrackPointExtension>
            <ns3:atemp>24.0</ns3:atemp>
          </ns3:TrackPointExtension>
        </extensions>
      </trkpt>
      <trkpt lat="42.53758485428988933563232421875" lon="20.16267855651676654815673828125">
        <ele>1958.5999755859375</ele>
        <time>2026-06-20T08:34:53.000Z</time>
        <extensions>
          <ns3:TrackPointExtension>
            <ns3:atemp>24.0</ns3:atemp>
          </ns3:TrackPointExtension>
        </extensions>
      </trkpt>
      <trkpt lat="42.53758485428988933563232421875" lon="20.16267855651676654815673828125">
        <ele>1958.5999755859375</ele>
        <time>2026-06-20T08:34:54.000Z</time>
        <extensions>
          <ns3:TrackPointExtension>
            <ns3:atemp>24.0</ns3:atemp>
          </ns3:TrackPointExtension>
        </extensions>
      </trkpt>
      <trkpt lat="42.53758485428988933563232421875" lon="20.16267855651676654815673828125">
        <ele>1958.5999755859375</ele>
        <time>2026-06-20T08:34:55.000Z</time>
        <extensions>
          <ns3:TrackPointExtension>
            <ns3:atemp>24.0</ns3:atemp>
          </ns3:TrackPointExtension>
        </extensions>
      </trkpt>
      <trkpt lat="42.53758485428988933563232421875" lon="20.16267855651676654815673828125">
        <ele>1958.5999755859375</ele>
        <time>2026-06-20T08:34:56.000Z</time>
        <extensions>
          <ns3:TrackPointExtension>
            <ns3:atemp>24.0</ns3:atemp>
          </ns3:TrackPointExtension>
        </extensions>
      </trkpt>
      <trkpt lat="42.53758485428988933563232421875" lon="20.16267855651676654815673828125">
        <ele>1958.5999755859375</ele>
        <time>2026-06-20T08:34:57.000Z</time>
        <extensions>
          <ns3:TrackPointExtension>
            <ns3:atemp>24.0</ns3:atemp>
          </ns3:TrackPointExtension>
        </extensions>
      </trkpt>
      <trkpt lat="42.53758485428988933563232421875" lon="20.16267855651676654815673828125">
        <ele>1958.5999755859375</ele>
        <time>2026-06-20T08:34:58.000Z</time>
        <extensions>
          <ns3:TrackPointExtension>
            <ns3:atemp>24.0</ns3:atemp>
          </ns3:TrackPointExtension>
        </extensions>
      </trkpt>
      <trkpt lat="42.53758485428988933563232421875" lon="20.16267855651676654815673828125">
        <ele>1958.5999755859375</ele>
        <time>2026-06-20T08:34:59.000Z</time>
        <extensions>
          <ns3:TrackPointExtension>
            <ns3:atemp>24.0</ns3:atemp>
          </ns3:TrackPointExtension>
        </extensions>
      </trkpt>
      <trkpt lat="42.53758485428988933563232421875" lon="20.16267855651676654815673828125">
        <ele>1958.5999755859375</ele>
        <time>2026-06-20T08:35:00.000Z</time>
        <extensions>
          <ns3:TrackPointExtension>
            <ns3:atemp>24.0</ns3:atemp>
          </ns3:TrackPointExtension>
        </extensions>
      </trkpt>
      <trkpt lat="42.53758485428988933563232421875" lon="20.16267855651676654815673828125">
        <ele>1958.5999755859375</ele>
        <time>2026-06-20T08:35:01.000Z</time>
        <extensions>
          <ns3:TrackPointExtension>
            <ns3:atemp>24.0</ns3:atemp>
          </ns3:TrackPointExtension>
        </extensions>
      </trkpt>
      <trkpt lat="42.53758485428988933563232421875" lon="20.16267855651676654815673828125">
        <ele>1958.5999755859375</ele>
        <time>2026-06-20T08:35:02.000Z</time>
        <extensions>
          <ns3:TrackPointExtension>
            <ns3:atemp>24.0</ns3:atemp>
          </ns3:TrackPointExtension>
        </extensions>
      </trkpt>
      <trkpt lat="42.53758485428988933563232421875" lon="20.16267855651676654815673828125">
        <ele>1958.5999755859375</ele>
        <time>2026-06-20T08:35:03.000Z</time>
        <extensions>
          <ns3:TrackPointExtension>
            <ns3:atemp>24.0</ns3:atemp>
          </ns3:TrackPointExtension>
        </extensions>
      </trkpt>
      <trkpt lat="42.53758485428988933563232421875" lon="20.16267855651676654815673828125">
        <ele>1958.5999755859375</ele>
        <time>2026-06-20T08:35:04.000Z</time>
        <extensions>
          <ns3:TrackPointExtension>
            <ns3:atemp>24.0</ns3:atemp>
          </ns3:TrackPointExtension>
        </extensions>
      </trkpt>
      <trkpt lat="42.53758485428988933563232421875" lon="20.16267855651676654815673828125">
        <ele>1958.5999755859375</ele>
        <time>2026-06-20T08:35:05.000Z</time>
        <extensions>
          <ns3:TrackPointExtension>
            <ns3:atemp>24.0</ns3:atemp>
          </ns3:TrackPointExtension>
        </extensions>
      </trkpt>
      <trkpt lat="42.53758485428988933563232421875" lon="20.16267855651676654815673828125">
        <ele>1958.5999755859375</ele>
        <time>2026-06-20T08:35:06.000Z</time>
        <extensions>
          <ns3:TrackPointExtension>
            <ns3:atemp>24.0</ns3:atemp>
          </ns3:TrackPointExtension>
        </extensions>
      </trkpt>
      <trkpt lat="42.53758485428988933563232421875" lon="20.16267855651676654815673828125">
        <ele>1958.5999755859375</ele>
        <time>2026-06-20T08:35:07.000Z</time>
        <extensions>
          <ns3:TrackPointExtension>
            <ns3:atemp>24.0</ns3:atemp>
          </ns3:TrackPointExtension>
        </extensions>
      </trkpt>
      <trkpt lat="42.53758485428988933563232421875" lon="20.16267855651676654815673828125">
        <ele>1958.5999755859375</ele>
        <time>2026-06-20T08:35:08.000Z</time>
        <extensions>
          <ns3:TrackPointExtension>
            <ns3:atemp>24.0</ns3:atemp>
          </ns3:TrackPointExtension>
        </extensions>
      </trkpt>
      <trkpt lat="42.53758485428988933563232421875" lon="20.16267855651676654815673828125">
        <ele>1958.5999755859375</ele>
        <time>2026-06-20T08:35:09.000Z</time>
        <extensions>
          <ns3:TrackPointExtension>
            <ns3:atemp>24.0</ns3:atemp>
          </ns3:TrackPointExtension>
        </extensions>
      </trkpt>
      <trkpt lat="42.53758485428988933563232421875" lon="20.16267855651676654815673828125">
        <ele>1958.5999755859375</ele>
        <time>2026-06-20T08:35:10.000Z</time>
        <extensions>
          <ns3:TrackPointExtension>
            <ns3:atemp>24.0</ns3:atemp>
          </ns3:TrackPointExtension>
        </extensions>
      </trkpt>
      <trkpt lat="42.53758485428988933563232421875" lon="20.16267855651676654815673828125">
        <ele>1958.5999755859375</ele>
        <time>2026-06-20T08:35:11.000Z</time>
        <extensions>
          <ns3:TrackPointExtension>
            <ns3:atemp>24.0</ns3:atemp>
          </ns3:TrackPointExtension>
        </extensions>
      </trkpt>
      <trkpt lat="42.53758485428988933563232421875" lon="20.16267855651676654815673828125">
        <ele>1958.5999755859375</ele>
        <time>2026-06-20T08:35:12.000Z</time>
        <extensions>
          <ns3:TrackPointExtension>
            <ns3:atemp>24.0</ns3:atemp>
          </ns3:TrackPointExtension>
        </extensions>
      </trkpt>
      <trkpt lat="42.53758485428988933563232421875" lon="20.16267855651676654815673828125">
        <ele>1958.5999755859375</ele>
        <time>2026-06-20T08:35:13.000Z</time>
        <extensions>
          <ns3:TrackPointExtension>
            <ns3:atemp>24.0</ns3:atemp>
          </ns3:TrackPointExtension>
        </extensions>
      </trkpt>
      <trkpt lat="42.53758485428988933563232421875" lon="20.16267855651676654815673828125">
        <ele>1958.5999755859375</ele>
        <time>2026-06-20T08:35:14.000Z</time>
        <extensions>
          <ns3:TrackPointExtension>
            <ns3:atemp>24.0</ns3:atemp>
          </ns3:TrackPointExtension>
        </extensions>
      </trkpt>
      <trkpt lat="42.53758485428988933563232421875" lon="20.16267855651676654815673828125">
        <ele>1958.5999755859375</ele>
        <time>2026-06-20T08:35:15.000Z</time>
        <extensions>
          <ns3:TrackPointExtension>
            <ns3:atemp>24.0</ns3:atemp>
          </ns3:TrackPointExtension>
        </extensions>
      </trkpt>
      <trkpt lat="42.53758485428988933563232421875" lon="20.16267855651676654815673828125">
        <ele>1958.5999755859375</ele>
        <time>2026-06-20T08:35:16.000Z</time>
        <extensions>
          <ns3:TrackPointExtension>
            <ns3:atemp>24.0</ns3:atemp>
          </ns3:TrackPointExtension>
        </extensions>
      </trkpt>
      <trkpt lat="42.53758485428988933563232421875" lon="20.16267855651676654815673828125">
        <ele>1958.5999755859375</ele>
        <time>2026-06-20T08:35:17.000Z</time>
        <extensions>
          <ns3:TrackPointExtension>
            <ns3:atemp>24.0</ns3:atemp>
          </ns3:TrackPointExtension>
        </extensions>
      </trkpt>
      <trkpt lat="42.53758485428988933563232421875" lon="20.16267855651676654815673828125">
        <ele>1958.5999755859375</ele>
        <time>2026-06-20T08:35:18.000Z</time>
        <extensions>
          <ns3:TrackPointExtension>
            <ns3:atemp>24.0</ns3:atemp>
          </ns3:TrackPointExtension>
        </extensions>
      </trkpt>
      <trkpt lat="42.53758485428988933563232421875" lon="20.16267855651676654815673828125">
        <ele>1958.5999755859375</ele>
        <time>2026-06-20T08:35:19.000Z</time>
        <extensions>
          <ns3:TrackPointExtension>
            <ns3:atemp>24.0</ns3:atemp>
          </ns3:TrackPointExtension>
        </extensions>
      </trkpt>
      <trkpt lat="42.53758485428988933563232421875" lon="20.16267855651676654815673828125">
        <ele>1958.5999755859375</ele>
        <time>2026-06-20T08:35:20.000Z</time>
        <extensions>
          <ns3:TrackPointExtension>
            <ns3:atemp>24.0</ns3:atemp>
          </ns3:TrackPointExtension>
        </extensions>
      </trkpt>
      <trkpt lat="42.53758485428988933563232421875" lon="20.16267855651676654815673828125">
        <ele>1958.5999755859375</ele>
        <time>2026-06-20T08:35:21.000Z</time>
        <extensions>
          <ns3:TrackPointExtension>
            <ns3:atemp>24.0</ns3:atemp>
          </ns3:TrackPointExtension>
        </extensions>
      </trkpt>
      <trkpt lat="42.53758485428988933563232421875" lon="20.16267855651676654815673828125">
        <ele>1958.5999755859375</ele>
        <time>2026-06-20T08:35:22.000Z</time>
        <extensions>
          <ns3:TrackPointExtension>
            <ns3:atemp>24.0</ns3:atemp>
          </ns3:TrackPointExtension>
        </extensions>
      </trkpt>
      <trkpt lat="42.53758485428988933563232421875" lon="20.16267855651676654815673828125">
        <ele>1958.5999755859375</ele>
        <time>2026-06-20T08:35:23.000Z</time>
        <extensions>
          <ns3:TrackPointExtension>
            <ns3:atemp>24.0</ns3:atemp>
          </ns3:TrackPointExtension>
        </extensions>
      </trkpt>
      <trkpt lat="42.53758485428988933563232421875" lon="20.16267855651676654815673828125">
        <ele>1958.5999755859375</ele>
        <time>2026-06-20T08:35:24.000Z</time>
        <extensions>
          <ns3:TrackPointExtension>
            <ns3:atemp>24.0</ns3:atemp>
          </ns3:TrackPointExtension>
        </extensions>
      </trkpt>
      <trkpt lat="42.53758485428988933563232421875" lon="20.16267855651676654815673828125">
        <ele>1958.5999755859375</ele>
        <time>2026-06-20T08:35:25.000Z</time>
        <extensions>
          <ns3:TrackPointExtension>
            <ns3:atemp>24.0</ns3:atemp>
          </ns3:TrackPointExtension>
        </extensions>
      </trkpt>
      <trkpt lat="42.53758485428988933563232421875" lon="20.16267855651676654815673828125">
        <ele>1958.5999755859375</ele>
        <time>2026-06-20T08:35:26.000Z</time>
        <extensions>
          <ns3:TrackPointExtension>
            <ns3:atemp>24.0</ns3:atemp>
          </ns3:TrackPointExtension>
        </extensions>
      </trkpt>
      <trkpt lat="42.53758485428988933563232421875" lon="20.16267855651676654815673828125">
        <ele>1958.5999755859375</ele>
        <time>2026-06-20T08:35:27.000Z</time>
        <extensions>
          <ns3:TrackPointExtension>
            <ns3:atemp>24.0</ns3:atemp>
          </ns3:TrackPointExtension>
        </extensions>
      </trkpt>
      <trkpt lat="42.53758485428988933563232421875" lon="20.16267855651676654815673828125">
        <ele>1958.5999755859375</ele>
        <time>2026-06-20T08:35:28.000Z</time>
        <extensions>
          <ns3:TrackPointExtension>
            <ns3:atemp>24.0</ns3:atemp>
          </ns3:TrackPointExtension>
        </extensions>
      </trkpt>
      <trkpt lat="42.53758485428988933563232421875" lon="20.16267855651676654815673828125">
        <ele>1958.5999755859375</ele>
        <time>2026-06-20T08:35:29.000Z</time>
        <extensions>
          <ns3:TrackPointExtension>
            <ns3:atemp>24.0</ns3:atemp>
          </ns3:TrackPointExtension>
        </extensions>
      </trkpt>
      <trkpt lat="42.53758485428988933563232421875" lon="20.16267855651676654815673828125">
        <ele>1958.5999755859375</ele>
        <time>2026-06-20T08:35:30.000Z</time>
        <extensions>
          <ns3:TrackPointExtension>
            <ns3:atemp>24.0</ns3:atemp>
          </ns3:TrackPointExtension>
        </extensions>
      </trkpt>
      <trkpt lat="42.53758485428988933563232421875" lon="20.16267855651676654815673828125">
        <ele>1958.5999755859375</ele>
        <time>2026-06-20T08:35:31.000Z</time>
        <extensions>
          <ns3:TrackPointExtension>
            <ns3:atemp>24.0</ns3:atemp>
          </ns3:TrackPointExtension>
        </extensions>
      </trkpt>
      <trkpt lat="42.53758485428988933563232421875" lon="20.16267855651676654815673828125">
        <ele>1958.5999755859375</ele>
        <time>2026-06-20T08:35:32.000Z</time>
        <extensions>
          <ns3:TrackPointExtension>
            <ns3:atemp>24.0</ns3:atemp>
          </ns3:TrackPointExtension>
        </extensions>
      </trkpt>
      <trkpt lat="42.53758485428988933563232421875" lon="20.16267855651676654815673828125">
        <ele>1958.5999755859375</ele>
        <time>2026-06-20T08:35:33.000Z</time>
        <extensions>
          <ns3:TrackPointExtension>
            <ns3:atemp>24.0</ns3:atemp>
          </ns3:TrackPointExtension>
        </extensions>
      </trkpt>
      <trkpt lat="42.53758485428988933563232421875" lon="20.16267855651676654815673828125">
        <ele>1958.5999755859375</ele>
        <time>2026-06-20T08:35:34.000Z</time>
        <extensions>
          <ns3:TrackPointExtension>
            <ns3:atemp>24.0</ns3:atemp>
          </ns3:TrackPointExtension>
        </extensions>
      </trkpt>
      <trkpt lat="42.53758485428988933563232421875" lon="20.16267855651676654815673828125">
        <ele>1958.5999755859375</ele>
        <time>2026-06-20T08:35:35.000Z</time>
        <extensions>
          <ns3:TrackPointExtension>
            <ns3:atemp>24.0</ns3:atemp>
          </ns3:TrackPointExtension>
        </extensions>
      </trkpt>
      <trkpt lat="42.53758485428988933563232421875" lon="20.16267855651676654815673828125">
        <ele>1958.5999755859375</ele>
        <time>2026-06-20T08:35:36.000Z</time>
        <extensions>
          <ns3:TrackPointExtension>
            <ns3:atemp>24.0</ns3:atemp>
          </ns3:TrackPointExtension>
        </extensions>
      </trkpt>
      <trkpt lat="42.53758485428988933563232421875" lon="20.16267855651676654815673828125">
        <ele>1958.5999755859375</ele>
        <time>2026-06-20T08:35:37.000Z</time>
        <extensions>
          <ns3:TrackPointExtension>
            <ns3:atemp>24.0</ns3:atemp>
          </ns3:TrackPointExtension>
        </extensions>
      </trkpt>
      <trkpt lat="42.53758485428988933563232421875" lon="20.16267855651676654815673828125">
        <ele>1958.5999755859375</ele>
        <time>2026-06-20T08:35:38.000Z</time>
        <extensions>
          <ns3:TrackPointExtension>
            <ns3:atemp>24.0</ns3:atemp>
          </ns3:TrackPointExtension>
        </extensions>
      </trkpt>
      <trkpt lat="42.53758485428988933563232421875" lon="20.16267855651676654815673828125">
        <ele>1958.5999755859375</ele>
        <time>2026-06-20T08:35:39.000Z</time>
        <extensions>
          <ns3:TrackPointExtension>
            <ns3:atemp>24.0</ns3:atemp>
          </ns3:TrackPointExtension>
        </extensions>
      </trkpt>
      <trkpt lat="42.53758485428988933563232421875" lon="20.16267855651676654815673828125">
        <ele>1958.5999755859375</ele>
        <time>2026-06-20T08:35:40.000Z</time>
        <extensions>
          <ns3:TrackPointExtension>
            <ns3:atemp>24.0</ns3:atemp>
          </ns3:TrackPointExtension>
        </extensions>
      </trkpt>
      <trkpt lat="42.53758485428988933563232421875" lon="20.16267855651676654815673828125">
        <ele>1958.5999755859375</ele>
        <time>2026-06-20T08:35:41.000Z</time>
        <extensions>
          <ns3:TrackPointExtension>
            <ns3:atemp>24.0</ns3:atemp>
          </ns3:TrackPointExtension>
        </extensions>
      </trkpt>
      <trkpt lat="42.53758485428988933563232421875" lon="20.16267855651676654815673828125">
        <ele>1958.5999755859375</ele>
        <time>2026-06-20T08:35:42.000Z</time>
        <extensions>
          <ns3:TrackPointExtension>
            <ns3:atemp>24.0</ns3:atemp>
          </ns3:TrackPointExtension>
        </extensions>
      </trkpt>
      <trkpt lat="42.53758485428988933563232421875" lon="20.16267855651676654815673828125">
        <ele>1958.5999755859375</ele>
        <time>2026-06-20T08:35:43.000Z</time>
        <extensions>
          <ns3:TrackPointExtension>
            <ns3:atemp>24.0</ns3:atemp>
          </ns3:TrackPointExtension>
        </extensions>
      </trkpt>
      <trkpt lat="42.53758485428988933563232421875" lon="20.16267855651676654815673828125">
        <ele>1958.5999755859375</ele>
        <time>2026-06-20T08:35:44.000Z</time>
        <extensions>
          <ns3:TrackPointExtension>
            <ns3:atemp>24.0</ns3:atemp>
          </ns3:TrackPointExtension>
        </extensions>
      </trkpt>
      <trkpt lat="42.53758485428988933563232421875" lon="20.16267855651676654815673828125">
        <ele>1958.5999755859375</ele>
        <time>2026-06-20T08:35:45.000Z</time>
        <extensions>
          <ns3:TrackPointExtension>
            <ns3:atemp>24.0</ns3:atemp>
          </ns3:TrackPointExtension>
        </extensions>
      </trkpt>
      <trkpt lat="42.53758485428988933563232421875" lon="20.16267855651676654815673828125">
        <ele>1958.5999755859375</ele>
        <time>2026-06-20T08:35:46.000Z</time>
        <extensions>
          <ns3:TrackPointExtension>
            <ns3:atemp>24.0</ns3:atemp>
          </ns3:TrackPointExtension>
        </extensions>
      </trkpt>
      <trkpt lat="42.53758485428988933563232421875" lon="20.16267855651676654815673828125">
        <ele>1958.5999755859375</ele>
        <time>2026-06-20T08:35:47.000Z</time>
        <extensions>
          <ns3:TrackPointExtension>
            <ns3:atemp>24.0</ns3:atemp>
          </ns3:TrackPointExtension>
        </extensions>
      </trkpt>
      <trkpt lat="42.53758485428988933563232421875" lon="20.16267855651676654815673828125">
        <ele>1958.5999755859375</ele>
        <time>2026-06-20T08:35:48.000Z</time>
        <extensions>
          <ns3:TrackPointExtension>
            <ns3:atemp>24.0</ns3:atemp>
          </ns3:TrackPointExtension>
        </extensions>
      </trkpt>
      <trkpt lat="42.53758485428988933563232421875" lon="20.16267855651676654815673828125">
        <ele>1958.5999755859375</ele>
        <time>2026-06-20T08:35:49.000Z</time>
        <extensions>
          <ns3:TrackPointExtension>
            <ns3:atemp>24.0</ns3:atemp>
          </ns3:TrackPointExtension>
        </extensions>
      </trkpt>
      <trkpt lat="42.53758485428988933563232421875" lon="20.16267855651676654815673828125">
        <ele>1958.5999755859375</ele>
        <time>2026-06-20T08:35:50.000Z</time>
        <extensions>
          <ns3:TrackPointExtension>
            <ns3:atemp>24.0</ns3:atemp>
          </ns3:TrackPointExtension>
        </extensions>
      </trkpt>
      <trkpt lat="42.53758485428988933563232421875" lon="20.16267855651676654815673828125">
        <ele>1958.5999755859375</ele>
        <time>2026-06-20T08:35:51.000Z</time>
        <extensions>
          <ns3:TrackPointExtension>
            <ns3:atemp>24.0</ns3:atemp>
          </ns3:TrackPointExtension>
        </extensions>
      </trkpt>
      <trkpt lat="42.53758485428988933563232421875" lon="20.16267855651676654815673828125">
        <ele>1958.5999755859375</ele>
        <time>2026-06-20T08:35:52.000Z</time>
        <extensions>
          <ns3:TrackPointExtension>
            <ns3:atemp>24.0</ns3:atemp>
          </ns3:TrackPointExtension>
        </extensions>
      </trkpt>
      <trkpt lat="42.53758485428988933563232421875" lon="20.16267855651676654815673828125">
        <ele>1958.5999755859375</ele>
        <time>2026-06-20T08:35:53.000Z</time>
        <extensions>
          <ns3:TrackPointExtension>
            <ns3:atemp>24.0</ns3:atemp>
          </ns3:TrackPointExtension>
        </extensions>
      </trkpt>
      <trkpt lat="42.53758485428988933563232421875" lon="20.16267855651676654815673828125">
        <ele>1958.5999755859375</ele>
        <time>2026-06-20T08:35:54.000Z</time>
        <extensions>
          <ns3:TrackPointExtension>
            <ns3:atemp>24.0</ns3:atemp>
          </ns3:TrackPointExtension>
        </extensions>
      </trkpt>
      <trkpt lat="42.53758485428988933563232421875" lon="20.16267855651676654815673828125">
        <ele>1958.5999755859375</ele>
        <time>2026-06-20T08:35:55.000Z</time>
        <extensions>
          <ns3:TrackPointExtension>
            <ns3:atemp>24.0</ns3:atemp>
          </ns3:TrackPointExtension>
        </extensions>
      </trkpt>
      <trkpt lat="42.53758485428988933563232421875" lon="20.16267855651676654815673828125">
        <ele>1958.5999755859375</ele>
        <time>2026-06-20T08:35:56.000Z</time>
        <extensions>
          <ns3:TrackPointExtension>
            <ns3:atemp>24.0</ns3:atemp>
          </ns3:TrackPointExtension>
        </extensions>
      </trkpt>
      <trkpt lat="42.53758485428988933563232421875" lon="20.16267855651676654815673828125">
        <ele>1958.5999755859375</ele>
        <time>2026-06-20T08:35:57.000Z</time>
        <extensions>
          <ns3:TrackPointExtension>
            <ns3:atemp>24.0</ns3:atemp>
          </ns3:TrackPointExtension>
        </extensions>
      </trkpt>
      <trkpt lat="42.53758485428988933563232421875" lon="20.16267855651676654815673828125">
        <ele>1958.5999755859375</ele>
        <time>2026-06-20T08:35:58.000Z</time>
        <extensions>
          <ns3:TrackPointExtension>
            <ns3:atemp>24.0</ns3:atemp>
          </ns3:TrackPointExtension>
        </extensions>
      </trkpt>
      <trkpt lat="42.53758485428988933563232421875" lon="20.16267855651676654815673828125">
        <ele>1958.5999755859375</ele>
        <time>2026-06-20T08:35:59.000Z</time>
        <extensions>
          <ns3:TrackPointExtension>
            <ns3:atemp>24.0</ns3:atemp>
          </ns3:TrackPointExtension>
        </extensions>
      </trkpt>
      <trkpt lat="42.53758485428988933563232421875" lon="20.16267855651676654815673828125">
        <ele>1958.5999755859375</ele>
        <time>2026-06-20T08:36:00.000Z</time>
        <extensions>
          <ns3:TrackPointExtension>
            <ns3:atemp>24.0</ns3:atemp>
          </ns3:TrackPointExtension>
        </extensions>
      </trkpt>
      <trkpt lat="42.53758485428988933563232421875" lon="20.16267855651676654815673828125">
        <ele>1958.5999755859375</ele>
        <time>2026-06-20T08:36:01.000Z</time>
        <extensions>
          <ns3:TrackPointExtension>
            <ns3:atemp>24.0</ns3:atemp>
          </ns3:TrackPointExtension>
        </extensions>
      </trkpt>
      <trkpt lat="42.53758485428988933563232421875" lon="20.16267855651676654815673828125">
        <ele>1958.5999755859375</ele>
        <time>2026-06-20T08:36:02.000Z</time>
        <extensions>
          <ns3:TrackPointExtension>
            <ns3:atemp>24.0</ns3:atemp>
          </ns3:TrackPointExtension>
        </extensions>
      </trkpt>
      <trkpt lat="42.53758485428988933563232421875" lon="20.16267855651676654815673828125">
        <ele>1958.5999755859375</ele>
        <time>2026-06-20T08:36:03.000Z</time>
        <extensions>
          <ns3:TrackPointExtension>
            <ns3:atemp>24.0</ns3:atemp>
          </ns3:TrackPointExtension>
        </extensions>
      </trkpt>
      <trkpt lat="42.53758485428988933563232421875" lon="20.16267855651676654815673828125">
        <ele>1958.5999755859375</ele>
        <time>2026-06-20T08:36:04.000Z</time>
        <extensions>
          <ns3:TrackPointExtension>
            <ns3:atemp>24.0</ns3:atemp>
          </ns3:TrackPointExtension>
        </extensions>
      </trkpt>
      <trkpt lat="42.53758485428988933563232421875" lon="20.16267855651676654815673828125">
        <ele>1958.5999755859375</ele>
        <time>2026-06-20T08:36:05.000Z</time>
        <extensions>
          <ns3:TrackPointExtension>
            <ns3:atemp>24.0</ns3:atemp>
          </ns3:TrackPointExtension>
        </extensions>
      </trkpt>
      <trkpt lat="42.5375871174037456512451171875" lon="20.16267553903162479400634765625">
        <ele>1958.5999755859375</ele>
        <time>2026-06-20T08:36:06.000Z</time>
        <extensions>
          <ns3:TrackPointExtension>
            <ns3:atemp>24.0</ns3:atemp>
          </ns3:TrackPointExtension>
        </extensions>
      </trkpt>
      <trkpt lat="42.5375871174037456512451171875" lon="20.16268123872578144073486328125">
        <ele>1958.5999755859375</ele>
        <time>2026-06-20T08:36:07.000Z</time>
        <extensions>
          <ns3:TrackPointExtension>
            <ns3:atemp>24.0</ns3:atemp>
          </ns3:TrackPointExtension>
        </extensions>
      </trkpt>
      <trkpt lat="42.537584267556667327880859375" lon="20.1626964099705219268798828125">
        <ele>1958.5999755859375</ele>
        <time>2026-06-20T08:36:08.000Z</time>
        <extensions>
          <ns3:TrackPointExtension>
            <ns3:atemp>24.0</ns3:atemp>
          </ns3:TrackPointExtension>
        </extensions>
      </trkpt>
      <trkpt lat="42.53757412545382976531982421875" lon="20.16270454041659832000732421875">
        <ele>1958.5999755859375</ele>
        <time>2026-06-20T08:36:09.000Z</time>
        <extensions>
          <ns3:TrackPointExtension>
            <ns3:atemp>24.0</ns3:atemp>
          </ns3:TrackPointExtension>
        </extensions>
      </trkpt>
      <trkpt lat="42.5375676713883876800537109375" lon="20.16271024011075496673583984375">
        <ele>1958.5999755859375</ele>
        <time>2026-06-20T08:36:10.000Z</time>
        <extensions>
          <ns3:TrackPointExtension>
            <ns3:atemp>24.0</ns3:atemp>
          </ns3:TrackPointExtension>
        </extensions>
      </trkpt>
      <trkpt lat="42.537567503750324249267578125" lon="20.162708647549152374267578125">
        <ele>1958.5999755859375</ele>
        <time>2026-06-20T08:36:11.000Z</time>
        <extensions>
          <ns3:TrackPointExtension>
            <ns3:atemp>24.0</ns3:atemp>
          </ns3:TrackPointExtension>
        </extensions>
      </trkpt>
      <trkpt lat="42.537567503750324249267578125" lon="20.162708647549152374267578125">
        <ele>1958.5999755859375</ele>
        <time>2026-06-20T08:36:12.000Z</time>
        <extensions>
          <ns3:TrackPointExtension>
            <ns3:atemp>24.0</ns3:atemp>
          </ns3:TrackPointExtension>
        </extensions>
      </trkpt>
      <trkpt lat="42.537567503750324249267578125" lon="20.162708647549152374267578125">
        <ele>1958.4000244140625</ele>
        <time>2026-06-20T08:36:13.000Z</time>
        <extensions>
          <ns3:TrackPointExtension>
            <ns3:atemp>24.0</ns3:atemp>
          </ns3:TrackPointExtension>
        </extensions>
      </trkpt>
      <trkpt lat="42.537567503750324249267578125" lon="20.162708647549152374267578125">
        <ele>1958.4000244140625</ele>
        <time>2026-06-20T08:36:14.000Z</time>
        <extensions>
          <ns3:TrackPointExtension>
            <ns3:atemp>24.0</ns3:atemp>
          </ns3:TrackPointExtension>
        </extensions>
      </trkpt>
      <trkpt lat="42.537567503750324249267578125" lon="20.162708647549152374267578125">
        <ele>1958.5999755859375</ele>
        <time>2026-06-20T08:36:15.000Z</time>
        <extensions>
          <ns3:TrackPointExtension>
            <ns3:atemp>24.0</ns3:atemp>
          </ns3:TrackPointExtension>
        </extensions>
      </trkpt>
      <trkpt lat="42.537567503750324249267578125" lon="20.162708647549152374267578125">
        <ele>1958.5999755859375</ele>
        <time>2026-06-20T08:36:16.000Z</time>
        <extensions>
          <ns3:TrackPointExtension>
            <ns3:atemp>24.0</ns3:atemp>
          </ns3:TrackPointExtension>
        </extensions>
      </trkpt>
      <trkpt lat="42.537567503750324249267578125" lon="20.162708647549152374267578125">
        <ele>1958.800048828125</ele>
        <time>2026-06-20T08:36:17.000Z</time>
        <extensions>
          <ns3:TrackPointExtension>
            <ns3:atemp>24.0</ns3:atemp>
          </ns3:TrackPointExtension>
        </extensions>
      </trkpt>
      <trkpt lat="42.537567503750324249267578125" lon="20.162708647549152374267578125">
        <ele>1958.800048828125</ele>
        <time>2026-06-20T08:36:18.000Z</time>
        <extensions>
          <ns3:TrackPointExtension>
            <ns3:atemp>24.0</ns3:atemp>
          </ns3:TrackPointExtension>
        </extensions>
      </trkpt>
      <trkpt lat="42.537567503750324249267578125" lon="20.162708647549152374267578125">
        <ele>1959</ele>
        <time>2026-06-20T08:36:19.000Z</time>
        <extensions>
          <ns3:TrackPointExtension>
            <ns3:atemp>25.0</ns3:atemp>
          </ns3:TrackPointExtension>
        </extensions>
      </trkpt>
      <trkpt lat="42.537567503750324249267578125" lon="20.162708647549152374267578125">
        <ele>1959</ele>
        <time>2026-06-20T08:36:20.000Z</time>
        <extensions>
          <ns3:TrackPointExtension>
            <ns3:atemp>25.0</ns3:atemp>
          </ns3:TrackPointExtension>
        </extensions>
      </trkpt>
      <trkpt lat="42.537567503750324249267578125" lon="20.162708647549152374267578125">
        <ele>1959</ele>
        <time>2026-06-20T08:36:21.000Z</time>
        <extensions>
          <ns3:TrackPointExtension>
            <ns3:atemp>24.0</ns3:atemp>
          </ns3:TrackPointExtension>
        </extensions>
      </trkpt>
      <trkpt lat="42.537567503750324249267578125" lon="20.162708647549152374267578125">
        <ele>1959</ele>
        <time>2026-06-20T08:36:22.000Z</time>
        <extensions>
          <ns3:TrackPointExtension>
            <ns3:atemp>25.0</ns3:atemp>
          </ns3:TrackPointExtension>
        </extensions>
      </trkpt>
      <trkpt lat="42.53756741993129253387451171875" lon="20.1627083122730255126953125">
        <ele>1959</ele>
        <time>2026-06-20T08:36:23.000Z</time>
        <extensions>
          <ns3:TrackPointExtension>
            <ns3:atemp>25.0</ns3:atemp>
          </ns3:TrackPointExtension>
        </extensions>
      </trkpt>
      <trkpt lat="42.53755442798137664794921875" lon="20.1627178676426410675048828125">
        <ele>1959.199951171875</ele>
        <time>2026-06-20T08:36:24.000Z</time>
        <extensions>
          <ns3:TrackPointExtension>
            <ns3:atemp>25.0</ns3:atemp>
          </ns3:TrackPointExtension>
        </extensions>
      </trkpt>
      <trkpt lat="42.5375358201563358306884765625" lon="20.16273337416350841522216796875">
        <ele>1959.199951171875</ele>
        <time>2026-06-20T08:36:25.000Z</time>
        <extensions>
          <ns3:TrackPointExtension>
            <ns3:atemp>25.0</ns3:atemp>
          </ns3:TrackPointExtension>
        </extensions>
      </trkpt>
      <trkpt lat="42.5375170446932315826416015625" lon="20.1627537421882152557373046875">
        <ele>1959</ele>
        <time>2026-06-20T08:36:26.000Z</time>
        <extensions>
          <ns3:TrackPointExtension>
            <ns3:atemp>25.0</ns3:atemp>
          </ns3:TrackPointExtension>
        </extensions>
      </trkpt>
      <trkpt lat="42.53750120289623737335205078125" lon="20.16277872025966644287109375">
        <ele>1959</ele>
        <time>2026-06-20T08:36:27.000Z</time>
        <extensions>
          <ns3:TrackPointExtension>
            <ns3:atemp>25.0</ns3:atemp>
          </ns3:TrackPointExtension>
        </extensions>
      </trkpt>
      <trkpt lat="42.53747806884348392486572265625" lon="20.16280696727335453033447265625">
        <ele>1958.5999755859375</ele>
        <time>2026-06-20T08:36:28.000Z</time>
        <extensions>
          <ns3:TrackPointExtension>
            <ns3:atemp>25.0</ns3:atemp>
          </ns3:TrackPointExtension>
        </extensions>
      </trkpt>
      <trkpt lat="42.53744973801076412200927734375" lon="20.16283228062093257904052734375">
        <ele>1958.199951171875</ele>
        <time>2026-06-20T08:36:29.000Z</time>
        <extensions>
          <ns3:TrackPointExtension>
            <ns3:atemp>25.0</ns3:atemp>
          </ns3:TrackPointExtension>
        </extensions>
      </trkpt>
      <trkpt lat="42.53741805441677570343017578125" lon="20.16284937970340251922607421875">
        <ele>1958</ele>
        <time>2026-06-20T08:36:30.000Z</time>
        <extensions>
          <ns3:TrackPointExtension>
            <ns3:atemp>25.0</ns3:atemp>
          </ns3:TrackPointExtension>
        </extensions>
      </trkpt>
      <trkpt lat="42.5373839400708675384521484375" lon="20.16285943798720836639404296875">
        <ele>1957.800048828125</ele>
        <time>2026-06-20T08:36:31.000Z</time>
        <extensions>
          <ns3:TrackPointExtension>
            <ns3:atemp>25.0</ns3:atemp>
          </ns3:TrackPointExtension>
        </extensions>
      </trkpt>
      <trkpt lat="42.53734848462045192718505859375" lon="20.16287066973745822906494140625">
        <ele>1957.800048828125</ele>
        <time>2026-06-20T08:36:32.000Z</time>
        <extensions>
          <ns3:TrackPointExtension>
            <ns3:atemp>25.0</ns3:atemp>
          </ns3:TrackPointExtension>
        </extensions>
      </trkpt>
      <trkpt lat="42.5373096764087677001953125" lon="20.162896402180194854736328125">
        <ele>1957.4000244140625</ele>
        <time>2026-06-20T08:36:33.000Z</time>
        <extensions>
          <ns3:TrackPointExtension>
            <ns3:atemp>25.0</ns3:atemp>
          </ns3:TrackPointExtension>
        </extensions>
      </trkpt>
      <trkpt lat="42.53726684488356113433837890625" lon="20.1629290916025638580322265625">
        <ele>1957.199951171875</ele>
        <time>2026-06-20T08:36:34.000Z</time>
        <extensions>
          <ns3:TrackPointExtension>
            <ns3:atemp>25.0</ns3:atemp>
          </ns3:TrackPointExtension>
        </extensions>
      </trkpt>
      <trkpt lat="42.53721504472196102142333984375" lon="20.16295499168336391448974609375">
        <ele>1957</ele>
        <time>2026-06-20T08:36:35.000Z</time>
        <extensions>
          <ns3:TrackPointExtension>
            <ns3:atemp>25.0</ns3:atemp>
          </ns3:TrackPointExtension>
        </extensions>
      </trkpt>
      <trkpt lat="42.53716626204550266265869140625" lon="20.16298147849738597869873046875">
        <ele>1956.5999755859375</ele>
        <time>2026-06-20T08:36:36.000Z</time>
        <extensions>
          <ns3:TrackPointExtension>
            <ns3:atemp>25.0</ns3:atemp>
          </ns3:TrackPointExtension>
        </extensions>
      </trkpt>
      <trkpt lat="42.53712267614901065826416015625" lon="20.1629813946783542633056640625">
        <ele>1956</ele>
        <time>2026-06-20T08:36:37.000Z</time>
        <extensions>
          <ns3:TrackPointExtension>
            <ns3:atemp>25.0</ns3:atemp>
          </ns3:TrackPointExtension>
        </extensions>
      </trkpt>
      <trkpt lat="42.53708261065185070037841796875" lon="20.16296722926199436187744140625">
        <ele>1955.800048828125</ele>
        <time>2026-06-20T08:36:38.000Z</time>
        <extensions>
          <ns3:TrackPointExtension>
            <ns3:atemp>25.0</ns3:atemp>
          </ns3:TrackPointExtension>
        </extensions>
      </trkpt>
      <trkpt lat="42.5370456464588642120361328125" lon="20.16296722926199436187744140625">
        <ele>1955.4000244140625</ele>
        <time>2026-06-20T08:36:39.000Z</time>
        <extensions>
          <ns3:TrackPointExtension>
            <ns3:atemp>25.0</ns3:atemp>
          </ns3:TrackPointExtension>
        </extensions>
      </trkpt>
      <trkpt lat="42.53700725734233856201171875" lon="20.16296446323394775390625">
        <ele>1955</ele>
        <time>2026-06-20T08:36:40.000Z</time>
        <extensions>
          <ns3:TrackPointExtension>
            <ns3:atemp>25.0</ns3:atemp>
          </ns3:TrackPointExtension>
        </extensions>
      </trkpt>
      <trkpt lat="42.536967359483242034912109375" lon="20.16296035610139369964599609375">
        <ele>1954.4000244140625</ele>
        <time>2026-06-20T08:36:41.000Z</time>
        <extensions>
          <ns3:TrackPointExtension>
            <ns3:atemp>25.0</ns3:atemp>
          </ns3:TrackPointExtension>
        </extensions>
      </trkpt>
      <trkpt lat="42.5369282998144626617431640625" lon="20.162950046360492706298828125">
        <ele>1954</ele>
        <time>2026-06-20T08:36:42.000Z</time>
        <extensions>
          <ns3:TrackPointExtension>
            <ns3:atemp>25.0</ns3:atemp>
          </ns3:TrackPointExtension>
        </extensions>
      </trkpt>
      <trkpt lat="42.53688798286020755767822265625" lon="20.16293026506900787353515625">
        <ele>1953.4000244140625</ele>
        <time>2026-06-20T08:36:43.000Z</time>
        <extensions>
          <ns3:TrackPointExtension>
            <ns3:atemp>25.0</ns3:atemp>
          </ns3:TrackPointExtension>
        </extensions>
      </trkpt>
      <trkpt lat="42.5368498452007770538330078125" lon="20.16291878186166286468505859375">
        <ele>1952.800048828125</ele>
        <time>2026-06-20T08:36:44.000Z</time>
        <extensions>
          <ns3:TrackPointExtension>
            <ns3:atemp>25.0</ns3:atemp>
          </ns3:TrackPointExtension>
        </extensions>
      </trkpt>
      <trkpt lat="42.53681254573166370391845703125" lon="20.16289648599922657012939453125">
        <ele>1952.199951171875</ele>
        <time>2026-06-20T08:36:45.000Z</time>
        <extensions>
          <ns3:TrackPointExtension>
            <ns3:atemp>25.0</ns3:atemp>
          </ns3:TrackPointExtension>
        </extensions>
      </trkpt>
      <trkpt lat="42.53677147440612316131591796875" lon="20.16288357786834239959716796875">
        <ele>1951.5999755859375</ele>
        <time>2026-06-20T08:36:46.000Z</time>
        <extensions>
          <ns3:TrackPointExtension>
            <ns3:atemp>25.0</ns3:atemp>
          </ns3:TrackPointExtension>
        </extensions>
      </trkpt>
      <trkpt lat="42.53673040308058261871337890625" lon="20.162865556776523590087890625">
        <ele>1951</ele>
        <time>2026-06-20T08:36:47.000Z</time>
        <extensions>
          <ns3:TrackPointExtension>
            <ns3:atemp>25.0</ns3:atemp>
          </ns3:TrackPointExtension>
        </extensions>
      </trkpt>
      <trkpt lat="42.53670014441013336181640625" lon="20.16283395700156688690185546875">
        <ele>1950.199951171875</ele>
        <time>2026-06-20T08:36:48.000Z</time>
        <extensions>
          <ns3:TrackPointExtension>
            <ns3:atemp>25.0</ns3:atemp>
          </ns3:TrackPointExtension>
        </extensions>
      </trkpt>
      <trkpt lat="42.53667055629193782806396484375" lon="20.16281216405332088470458984375">
        <ele>1949.5999755859375</ele>
        <time>2026-06-20T08:36:49.000Z</time>
        <extensions>
          <ns3:TrackPointExtension>
            <ns3:atemp>25.0</ns3:atemp>
          </ns3:TrackPointExtension>
        </extensions>
      </trkpt>
      <trkpt lat="42.53664088435471057891845703125" lon="20.16280009411275386810302734375">
        <ele>1949</ele>
        <time>2026-06-20T08:36:50.000Z</time>
        <extensions>
          <ns3:TrackPointExtension>
            <ns3:atemp>25.0</ns3:atemp>
          </ns3:TrackPointExtension>
        </extensions>
      </trkpt>
      <trkpt lat="42.5366117991507053375244140625" lon="20.1627879403531551361083984375">
        <ele>1948.4000244140625</ele>
        <time>2026-06-20T08:36:51.000Z</time>
        <extensions>
          <ns3:TrackPointExtension>
            <ns3:atemp>25.0</ns3:atemp>
          </ns3:TrackPointExtension>
        </extensions>
      </trkpt>
      <trkpt lat="42.53658757545053958892822265625" lon="20.16277377493679523468017578125">
        <ele>1947.800048828125</ele>
        <time>2026-06-20T08:36:52.000Z</time>
        <extensions>
          <ns3:TrackPointExtension>
            <ns3:atemp>25.0</ns3:atemp>
          </ns3:TrackPointExtension>
        </extensions>
      </trkpt>
      <trkpt lat="42.536567710340023040771484375" lon="20.16275147907435894012451171875">
        <ele>1947.199951171875</ele>
        <time>2026-06-20T08:36:53.000Z</time>
        <extensions>
          <ns3:TrackPointExtension>
            <ns3:atemp>25.0</ns3:atemp>
          </ns3:TrackPointExtension>
        </extensions>
      </trkpt>
      <trkpt lat="42.53653862513601779937744140625" lon="20.16272868029773235321044921875">
        <ele>1946.5999755859375</ele>
        <time>2026-06-20T08:36:54.000Z</time>
        <extensions>
          <ns3:TrackPointExtension>
            <ns3:atemp>25.0</ns3:atemp>
          </ns3:TrackPointExtension>
        </extensions>
      </trkpt>
      <trkpt lat="42.53650928847491741180419921875" lon="20.1627118326723575592041015625">
        <ele>1946</ele>
        <time>2026-06-20T08:36:55.000Z</time>
        <extensions>
          <ns3:TrackPointExtension>
            <ns3:atemp>25.0</ns3:atemp>
          </ns3:TrackPointExtension>
        </extensions>
      </trkpt>
      <trkpt lat="42.5364786945283412933349609375" lon="20.162684507668018341064453125">
        <ele>1945.199951171875</ele>
        <time>2026-06-20T08:36:56.000Z</time>
        <extensions>
          <ns3:TrackPointExtension>
            <ns3:atemp>25.0</ns3:atemp>
          </ns3:TrackPointExtension>
        </extensions>
      </trkpt>
      <trkpt lat="42.5364441610872745513916015625" lon="20.16266145743429660797119140625">
        <ele>1944.4000244140625</ele>
        <time>2026-06-20T08:36:57.000Z</time>
        <extensions>
          <ns3:TrackPointExtension>
            <ns3:atemp>25.0</ns3:atemp>
          </ns3:TrackPointExtension>
        </extensions>
      </trkpt>
      <trkpt lat="42.53642077557742595672607421875" lon="20.16262189485132694244384765625">
        <ele>1943.5999755859375</ele>
        <time>2026-06-20T08:36:58.000Z</time>
        <extensions>
          <ns3:TrackPointExtension>
            <ns3:atemp>25.0</ns3:atemp>
          </ns3:TrackPointExtension>
        </extensions>
      </trkpt>
      <trkpt lat="42.53639437258243560791015625" lon="20.1625835895538330078125">
        <ele>1942.800048828125</ele>
        <time>2026-06-20T08:36:59.000Z</time>
        <extensions>
          <ns3:TrackPointExtension>
            <ns3:atemp>25.0</ns3:atemp>
          </ns3:TrackPointExtension>
        </extensions>
      </trkpt>
      <trkpt lat="42.5363626889884471893310546875" lon="20.16255701892077922821044921875">
        <ele>1942.4000244140625</ele>
        <time>2026-06-20T08:37:00.000Z</time>
        <extensions>
          <ns3:TrackPointExtension>
            <ns3:atemp>25.0</ns3:atemp>
          </ns3:TrackPointExtension>
        </extensions>
      </trkpt>
      <trkpt lat="42.53632639534771442413330078125" lon="20.16252164728939533233642578125">
        <ele>1941.5999755859375</ele>
        <time>2026-06-20T08:37:01.000Z</time>
        <extensions>
          <ns3:TrackPointExtension>
            <ns3:atemp>25.0</ns3:atemp>
          </ns3:TrackPointExtension>
        </extensions>
      </trkpt>
      <trkpt lat="42.53628565929830074310302734375" lon="20.1624804921448230743408203125">
        <ele>1940.800048828125</ele>
        <time>2026-06-20T08:37:02.000Z</time>
        <extensions>
          <ns3:TrackPointExtension>
            <ns3:atemp>25.0</ns3:atemp>
          </ns3:TrackPointExtension>
        </extensions>
      </trkpt>
      <trkpt lat="42.5362470187246799468994140625" lon="20.16245149075984954833984375">
        <ele>1940.4000244140625</ele>
        <time>2026-06-20T08:37:03.000Z</time>
        <extensions>
          <ns3:TrackPointExtension>
            <ns3:atemp>25.0</ns3:atemp>
          </ns3:TrackPointExtension>
        </extensions>
      </trkpt>
      <trkpt lat="42.53622279502451419830322265625" lon="20.16243279911577701568603515625">
        <ele>1939.800048828125</ele>
        <time>2026-06-20T08:37:04.000Z</time>
        <extensions>
          <ns3:TrackPointExtension>
            <ns3:atemp>25.0</ns3:atemp>
          </ns3:TrackPointExtension>
        </extensions>
      </trkpt>
      <trkpt lat="42.536208964884281158447265625" lon="20.162420980632305145263671875">
        <ele>1939.199951171875</ele>
        <time>2026-06-20T08:37:05.000Z</time>
        <extensions>
          <ns3:TrackPointExtension>
            <ns3:atemp>25.0</ns3:atemp>
          </ns3:TrackPointExtension>
        </extensions>
      </trkpt>
      <trkpt lat="42.53620787523686885833740234375" lon="20.16241452656686305999755859375">
        <ele>1939</ele>
        <time>2026-06-20T08:37:06.000Z</time>
        <extensions>
          <ns3:TrackPointExtension>
            <ns3:atemp>25.0</ns3:atemp>
          </ns3:TrackPointExtension>
        </extensions>
      </trkpt>
      <trkpt lat="42.5362099707126617431640625" lon="20.162411592900753021240234375">
        <ele>1938.800048828125</ele>
        <time>2026-06-20T08:37:07.000Z</time>
        <extensions>
          <ns3:TrackPointExtension>
            <ns3:atemp>25.0</ns3:atemp>
          </ns3:TrackPointExtension>
        </extensions>
      </trkpt>
      <trkpt lat="42.53620988689363002777099609375" lon="20.16241167671978473663330078125">
        <ele>1938.800048828125</ele>
        <time>2026-06-20T08:37:08.000Z</time>
        <extensions>
          <ns3:TrackPointExtension>
            <ns3:atemp>25.0</ns3:atemp>
          </ns3:TrackPointExtension>
        </extensions>
      </trkpt>
      <trkpt lat="42.53620988689363002777099609375" lon="20.16241167671978473663330078125">
        <ele>1938.800048828125</ele>
        <time>2026-06-20T08:37:09.000Z</time>
        <extensions>
          <ns3:TrackPointExtension>
            <ns3:atemp>25.0</ns3:atemp>
          </ns3:TrackPointExtension>
        </extensions>
      </trkpt>
      <trkpt lat="42.53620988689363002777099609375" lon="20.16241167671978473663330078125">
        <ele>1938.800048828125</ele>
        <time>2026-06-20T08:37:10.000Z</time>
        <extensions>
          <ns3:TrackPointExtension>
            <ns3:atemp>25.0</ns3:atemp>
          </ns3:TrackPointExtension>
        </extensions>
      </trkpt>
      <trkpt lat="42.53620988689363002777099609375" lon="20.16241167671978473663330078125">
        <ele>1938.800048828125</ele>
        <time>2026-06-20T08:37:11.000Z</time>
        <extensions>
          <ns3:TrackPointExtension>
            <ns3:atemp>25.0</ns3:atemp>
          </ns3:TrackPointExtension>
        </extensions>
      </trkpt>
      <trkpt lat="42.53620988689363002777099609375" lon="20.16241167671978473663330078125">
        <ele>1938.5999755859375</ele>
        <time>2026-06-20T08:37:12.000Z</time>
        <extensions>
          <ns3:TrackPointExtension>
            <ns3:atemp>25.0</ns3:atemp>
          </ns3:TrackPointExtension>
        </extensions>
      </trkpt>
      <trkpt lat="42.53620988689363002777099609375" lon="20.16241167671978473663330078125">
        <ele>1938.4000244140625</ele>
        <time>2026-06-20T08:37:13.000Z</time>
        <extensions>
          <ns3:TrackPointExtension>
            <ns3:atemp>25.0</ns3:atemp>
          </ns3:TrackPointExtension>
        </extensions>
      </trkpt>
      <trkpt lat="42.53620988689363002777099609375" lon="20.16241167671978473663330078125">
        <ele>1938.199951171875</ele>
        <time>2026-06-20T08:37:14.000Z</time>
        <extensions>
          <ns3:TrackPointExtension>
            <ns3:atemp>25.0</ns3:atemp>
          </ns3:TrackPointExtension>
        </extensions>
      </trkpt>
      <trkpt lat="42.53620988689363002777099609375" lon="20.16241167671978473663330078125">
        <ele>1938.199951171875</ele>
        <time>2026-06-20T08:37:15.000Z</time>
        <extensions>
          <ns3:TrackPointExtension>
            <ns3:atemp>25.0</ns3:atemp>
          </ns3:TrackPointExtension>
        </extensions>
      </trkpt>
      <trkpt lat="42.53620988689363002777099609375" lon="20.16241167671978473663330078125">
        <ele>1938.199951171875</ele>
        <time>2026-06-20T08:37:16.000Z</time>
        <extensions>
          <ns3:TrackPointExtension>
            <ns3:atemp>25.0</ns3:atemp>
          </ns3:TrackPointExtension>
        </extensions>
      </trkpt>
      <trkpt lat="42.53620854578912258148193359375" lon="20.1624117605388164520263671875">
        <ele>1938.199951171875</ele>
        <time>2026-06-20T08:37:17.000Z</time>
        <extensions>
          <ns3:TrackPointExtension>
            <ns3:atemp>25.0</ns3:atemp>
          </ns3:TrackPointExtension>
        </extensions>
      </trkpt>
      <trkpt lat="42.53619848750531673431396484375" lon="20.1624037139117717742919921875">
        <ele>1938.4000244140625</ele>
        <time>2026-06-20T08:37:18.000Z</time>
        <extensions>
          <ns3:TrackPointExtension>
            <ns3:atemp>25.0</ns3:atemp>
          </ns3:TrackPointExtension>
        </extensions>
      </trkpt>
      <trkpt lat="42.5361938774585723876953125" lon="20.16239658929407596588134765625">
        <ele>1938.4000244140625</ele>
        <time>2026-06-20T08:37:19.000Z</time>
        <extensions>
          <ns3:TrackPointExtension>
            <ns3:atemp>25.0</ns3:atemp>
          </ns3:TrackPointExtension>
        </extensions>
      </trkpt>
      <trkpt lat="42.53619094379246234893798828125" lon="20.1623899675905704498291015625">
        <ele>1938.199951171875</ele>
        <time>2026-06-20T08:37:20.000Z</time>
        <extensions>
          <ns3:TrackPointExtension>
            <ns3:atemp>25.0</ns3:atemp>
          </ns3:TrackPointExtension>
        </extensions>
      </trkpt>
      <trkpt lat="42.53619010560214519500732421875" lon="20.1623856090009212493896484375">
        <ele>1938</ele>
        <time>2026-06-20T08:37:21.000Z</time>
        <extensions>
          <ns3:TrackPointExtension>
            <ns3:atemp>25.0</ns3:atemp>
          </ns3:TrackPointExtension>
        </extensions>
      </trkpt>
      <trkpt lat="42.5361886806786060333251953125" lon="20.16237362287938594818115234375">
        <ele>1937.800048828125</ele>
        <time>2026-06-20T08:37:22.000Z</time>
        <extensions>
          <ns3:TrackPointExtension>
            <ns3:atemp>25.0</ns3:atemp>
          </ns3:TrackPointExtension>
        </extensions>
      </trkpt>
      <trkpt lat="42.53618725575506687164306640625" lon="20.16236297786235809326171875">
        <ele>1937.5999755859375</ele>
        <time>2026-06-20T08:37:23.000Z</time>
        <extensions>
          <ns3:TrackPointExtension>
            <ns3:atemp>25.0</ns3:atemp>
          </ns3:TrackPointExtension>
        </extensions>
      </trkpt>
      <trkpt lat="42.53618440590798854827880859375" lon="20.16234747134149074554443359375">
        <ele>1937.4000244140625</ele>
        <time>2026-06-20T08:37:24.000Z</time>
        <extensions>
          <ns3:TrackPointExtension>
            <ns3:atemp>25.0</ns3:atemp>
          </ns3:TrackPointExtension>
        </extensions>
      </trkpt>
      <trkpt lat="42.5361858308315277099609375" lon="20.162350572645664215087890625">
        <ele>1937.199951171875</ele>
        <time>2026-06-20T08:37:25.000Z</time>
        <extensions>
          <ns3:TrackPointExtension>
            <ns3:atemp>25.0</ns3:atemp>
          </ns3:TrackPointExtension>
        </extensions>
      </trkpt>
      <trkpt lat="42.536181472241878509521484375" lon="20.16234445385634899139404296875">
        <ele>1937</ele>
        <time>2026-06-20T08:37:26.000Z</time>
        <extensions>
          <ns3:TrackPointExtension>
            <ns3:atemp>25.0</ns3:atemp>
          </ns3:TrackPointExtension>
        </extensions>
      </trkpt>
      <trkpt lat="42.53618189133703708648681640625" lon="20.16233758069574832916259765625">
        <ele>1937</ele>
        <time>2026-06-20T08:37:27.000Z</time>
        <extensions>
          <ns3:TrackPointExtension>
            <ns3:atemp>25.0</ns3:atemp>
          </ns3:TrackPointExtension>
        </extensions>
      </trkpt>
      <trkpt lat="42.5361829809844493865966796875" lon="20.16233808360993862152099609375">
        <ele>1936.800048828125</ele>
        <time>2026-06-20T08:37:28.000Z</time>
        <extensions>
          <ns3:TrackPointExtension>
            <ns3:atemp>25.0</ns3:atemp>
          </ns3:TrackPointExtension>
        </extensions>
      </trkpt>
      <trkpt lat="42.536182813346385955810546875" lon="20.1623349823057651519775390625">
        <ele>1936.800048828125</ele>
        <time>2026-06-20T08:37:29.000Z</time>
        <extensions>
          <ns3:TrackPointExtension>
            <ns3:atemp>25.0</ns3:atemp>
          </ns3:TrackPointExtension>
        </extensions>
      </trkpt>
      <trkpt lat="42.53618323244154453277587890625" lon="20.16233104281127452850341796875">
        <ele>1936.800048828125</ele>
        <time>2026-06-20T08:37:30.000Z</time>
        <extensions>
          <ns3:TrackPointExtension>
            <ns3:atemp>25.0</ns3:atemp>
          </ns3:TrackPointExtension>
        </extensions>
      </trkpt>
      <trkpt lat="42.53617954440414905548095703125" lon="20.1623252592980861663818359375">
        <ele>1937</ele>
        <time>2026-06-20T08:37:31.000Z</time>
        <extensions>
          <ns3:TrackPointExtension>
            <ns3:atemp>25.0</ns3:atemp>
          </ns3:TrackPointExtension>
        </extensions>
      </trkpt>
      <trkpt lat="42.53617309033870697021484375" lon="20.16231603920459747314453125">
        <ele>1937</ele>
        <time>2026-06-20T08:37:32.000Z</time>
        <extensions>
          <ns3:TrackPointExtension>
            <ns3:atemp>25.0</ns3:atemp>
          </ns3:TrackPointExtension>
        </extensions>
      </trkpt>
      <trkpt lat="42.53616395406424999237060546875" lon="20.162307322025299072265625">
        <ele>1937.199951171875</ele>
        <time>2026-06-20T08:37:33.000Z</time>
        <extensions>
          <ns3:TrackPointExtension>
            <ns3:atemp>25.0</ns3:atemp>
          </ns3:TrackPointExtension>
        </extensions>
      </trkpt>
      <trkpt lat="42.53615288995206356048583984375" lon="20.1623031310737133026123046875">
        <ele>1937.199951171875</ele>
        <time>2026-06-20T08:37:34.000Z</time>
        <extensions>
          <ns3:TrackPointExtension>
            <ns3:atemp>25.0</ns3:atemp>
          </ns3:TrackPointExtension>
        </extensions>
      </trkpt>
      <trkpt lat="42.5361429154872894287109375" lon="20.1623034663498401641845703125">
        <ele>1937.199951171875</ele>
        <time>2026-06-20T08:37:35.000Z</time>
        <extensions>
          <ns3:TrackPointExtension>
            <ns3:atemp>25.0</ns3:atemp>
          </ns3:TrackPointExtension>
        </extensions>
      </trkpt>
      <trkpt lat="42.536149285733699798583984375" lon="20.16229994595050811767578125">
        <ele>1937.199951171875</ele>
        <time>2026-06-20T08:37:36.000Z</time>
        <extensions>
          <ns3:TrackPointExtension>
            <ns3:atemp>25.0</ns3:atemp>
          </ns3:TrackPointExtension>
        </extensions>
      </trkpt>
      <trkpt lat="42.536149285733699798583984375" lon="20.16229986213147640228271484375">
        <ele>1937.199951171875</ele>
        <time>2026-06-20T08:37:37.000Z</time>
        <extensions>
          <ns3:TrackPointExtension>
            <ns3:atemp>25.0</ns3:atemp>
          </ns3:TrackPointExtension>
        </extensions>
      </trkpt>
      <trkpt lat="42.53614182583987712860107421875" lon="20.1622957549989223480224609375">
        <ele>1937.199951171875</ele>
        <time>2026-06-20T08:37:38.000Z</time>
        <extensions>
          <ns3:TrackPointExtension>
            <ns3:atemp>25.0</ns3:atemp>
          </ns3:TrackPointExtension>
        </extensions>
      </trkpt>
      <trkpt lat="42.53613042645156383514404296875" lon="20.16228695400059223175048828125">
        <ele>1937</ele>
        <time>2026-06-20T08:37:39.000Z</time>
        <extensions>
          <ns3:TrackPointExtension>
            <ns3:atemp>25.0</ns3:atemp>
          </ns3:TrackPointExtension>
        </extensions>
      </trkpt>
      <trkpt lat="42.53611399792134761810302734375" lon="20.1622736267745494842529296875">
        <ele>1937</ele>
        <time>2026-06-20T08:37:40.000Z</time>
        <extensions>
          <ns3:TrackPointExtension>
            <ns3:atemp>25.0</ns3:atemp>
          </ns3:TrackPointExtension>
        </extensions>
      </trkpt>
      <trkpt lat="42.5361005030572414398193359375" lon="20.16226516105234622955322265625">
        <ele>1937</ele>
        <time>2026-06-20T08:37:41.000Z</time>
        <extensions>
          <ns3:TrackPointExtension>
            <ns3:atemp>25.0</ns3:atemp>
          </ns3:TrackPointExtension>
        </extensions>
      </trkpt>
      <trkpt lat="42.5360807217657566070556640625" lon="20.162262059748172760009765625">
        <ele>1936.800048828125</ele>
        <time>2026-06-20T08:37:42.000Z</time>
        <extensions>
          <ns3:TrackPointExtension>
            <ns3:atemp>25.0</ns3:atemp>
          </ns3:TrackPointExtension>
        </extensions>
      </trkpt>
      <trkpt lat="42.536061108112335205078125" lon="20.1622603833675384521484375">
        <ele>1936.5999755859375</ele>
        <time>2026-06-20T08:37:43.000Z</time>
        <extensions>
          <ns3:TrackPointExtension>
            <ns3:atemp>25.0</ns3:atemp>
          </ns3:TrackPointExtension>
        </extensions>
      </trkpt>
      <trkpt lat="42.53603889606893062591552734375" lon="20.16226717270910739898681640625">
        <ele>1936.5999755859375</ele>
        <time>2026-06-20T08:37:44.000Z</time>
        <extensions>
          <ns3:TrackPointExtension>
            <ns3:atemp>25.0</ns3:atemp>
          </ns3:TrackPointExtension>
        </extensions>
      </trkpt>
      <trkpt lat="42.53601341508328914642333984375" lon="20.16226348467171192169189453125">
        <ele>1936.4000244140625</ele>
        <time>2026-06-20T08:37:45.000Z</time>
        <extensions>
          <ns3:TrackPointExtension>
            <ns3:atemp>25.0</ns3:atemp>
          </ns3:TrackPointExtension>
        </extensions>
      </trkpt>
      <trkpt lat="42.53598642535507678985595703125" lon="20.1622484810650348663330078125">
        <ele>1936</ele>
        <time>2026-06-20T08:37:46.000Z</time>
        <extensions>
          <ns3:TrackPointExtension>
            <ns3:atemp>25.0</ns3:atemp>
          </ns3:TrackPointExtension>
        </extensions>
      </trkpt>
      <trkpt lat="42.53595859743654727935791015625" lon="20.16223481856286525726318359375">
        <ele>1935.5999755859375</ele>
        <time>2026-06-20T08:37:47.000Z</time>
        <extensions>
          <ns3:TrackPointExtension>
            <ns3:atemp>25.0</ns3:atemp>
          </ns3:TrackPointExtension>
        </extensions>
      </trkpt>
      <trkpt lat="42.53593311645090579986572265625" lon="20.162224508821964263916015625">
        <ele>1935.199951171875</ele>
        <time>2026-06-20T08:37:48.000Z</time>
        <extensions>
          <ns3:TrackPointExtension>
            <ns3:atemp>25.0</ns3:atemp>
          </ns3:TrackPointExtension>
        </extensions>
      </trkpt>
      <trkpt lat="42.53591769374907016754150390625" lon="20.1622121036052703857421875">
        <ele>1934.5999755859375</ele>
        <time>2026-06-20T08:37:49.000Z</time>
        <extensions>
          <ns3:TrackPointExtension>
            <ns3:atemp>25.0</ns3:atemp>
          </ns3:TrackPointExtension>
        </extensions>
      </trkpt>
      <trkpt lat="42.53589271567761898040771484375" lon="20.1622035540640354156494140625">
        <ele>1934.199951171875</ele>
        <time>2026-06-20T08:37:50.000Z</time>
        <extensions>
          <ns3:TrackPointExtension>
            <ns3:atemp>25.0</ns3:atemp>
          </ns3:TrackPointExtension>
        </extensions>
      </trkpt>
      <trkpt lat="42.53586337901651859283447265625" lon="20.162188969552516937255859375">
        <ele>1933.5999755859375</ele>
        <time>2026-06-20T08:37:51.000Z</time>
        <extensions>
          <ns3:TrackPointExtension>
            <ns3:atemp>25.0</ns3:atemp>
          </ns3:TrackPointExtension>
        </extensions>
      </trkpt>
      <trkpt lat="42.53583739511668682098388671875" lon="20.1621760614216327667236328125">
        <ele>1932.800048828125</ele>
        <time>2026-06-20T08:37:52.000Z</time>
        <extensions>
          <ns3:TrackPointExtension>
            <ns3:atemp>25.0</ns3:atemp>
          </ns3:TrackPointExtension>
        </extensions>
      </trkpt>
      <trkpt lat="42.53580889664590358734130859375" lon="20.16215837560594081878662109375">
        <ele>1932.199951171875</ele>
        <time>2026-06-20T08:37:53.000Z</time>
        <extensions>
          <ns3:TrackPointExtension>
            <ns3:atemp>25.0</ns3:atemp>
          </ns3:TrackPointExtension>
        </extensions>
      </trkpt>
      <trkpt lat="42.53577268682420253753662109375" lon="20.16213272698223590850830078125">
        <ele>1931.4000244140625</ele>
        <time>2026-06-20T08:37:54.000Z</time>
        <extensions>
          <ns3:TrackPointExtension>
            <ns3:atemp>25.0</ns3:atemp>
          </ns3:TrackPointExtension>
        </extensions>
      </trkpt>
      <trkpt lat="42.5357347168028354644775390625" lon="20.16211411915719509124755859375">
        <ele>1930.4000244140625</ele>
        <time>2026-06-20T08:37:55.000Z</time>
        <extensions>
          <ns3:TrackPointExtension>
            <ns3:atemp>25.0</ns3:atemp>
          </ns3:TrackPointExtension>
        </extensions>
      </trkpt>
      <trkpt lat="42.53569222055375576019287109375" lon="20.16210104338824748992919921875">
        <ele>1929.4000244140625</ele>
        <time>2026-06-20T08:37:56.000Z</time>
        <extensions>
          <ns3:TrackPointExtension>
            <ns3:atemp>25.0</ns3:atemp>
          </ns3:TrackPointExtension>
        </extensions>
      </trkpt>
      <trkpt lat="42.5356565974652767181396484375" lon="20.16207195818424224853515625">
        <ele>1928.800048828125</ele>
        <time>2026-06-20T08:37:57.000Z</time>
        <extensions>
          <ns3:TrackPointExtension>
            <ns3:atemp>25.0</ns3:atemp>
          </ns3:TrackPointExtension>
        </extensions>
      </trkpt>
      <trkpt lat="42.53562281839549541473388671875" lon="20.162048824131488800048828125">
        <ele>1928</ele>
        <time>2026-06-20T08:37:58.000Z</time>
        <extensions>
          <ns3:TrackPointExtension>
            <ns3:atemp>25.0</ns3:atemp>
          </ns3:TrackPointExtension>
        </extensions>
      </trkpt>
      <trkpt lat="42.535587362945079803466796875" lon="20.162021331489086151123046875">
        <ele>1927.4000244140625</ele>
        <time>2026-06-20T08:37:59.000Z</time>
        <extensions>
          <ns3:TrackPointExtension>
            <ns3:atemp>25.0</ns3:atemp>
          </ns3:TrackPointExtension>
        </extensions>
      </trkpt>
      <trkpt lat="42.535560540854930877685546875" lon="20.1620020531117916107177734375">
        <ele>1926.5999755859375</ele>
        <time>2026-06-20T08:38:00.000Z</time>
        <extensions>
          <ns3:TrackPointExtension>
            <ns3:atemp>25.0</ns3:atemp>
          </ns3:TrackPointExtension>
        </extensions>
      </trkpt>
      <trkpt lat="42.535536400973796844482421875" lon="20.1619819365441799163818359375">
        <ele>1926.199951171875</ele>
        <time>2026-06-20T08:38:01.000Z</time>
        <extensions>
          <ns3:TrackPointExtension>
            <ns3:atemp>25.0</ns3:atemp>
          </ns3:TrackPointExtension>
        </extensions>
      </trkpt>
      <trkpt lat="42.5355117581784725189208984375" lon="20.16195385716855525970458984375">
        <ele>1925.800048828125</ele>
        <time>2026-06-20T08:38:02.000Z</time>
        <extensions>
          <ns3:TrackPointExtension>
            <ns3:atemp>25.0</ns3:atemp>
          </ns3:TrackPointExtension>
        </extensions>
      </trkpt>
      <trkpt lat="42.535482756793498992919921875" lon="20.16191949136555194854736328125">
        <ele>1925.4000244140625</ele>
        <time>2026-06-20T08:38:03.000Z</time>
        <extensions>
          <ns3:TrackPointExtension>
            <ns3:atemp>25.0</ns3:atemp>
          </ns3:TrackPointExtension>
        </extensions>
      </trkpt>
      <trkpt lat="42.53545216284692287445068359375" lon="20.16188059933483600616455078125">
        <ele>1924.5999755859375</ele>
        <time>2026-06-20T08:38:04.000Z</time>
        <extensions>
          <ns3:TrackPointExtension>
            <ns3:atemp>25.0</ns3:atemp>
          </ns3:TrackPointExtension>
        </extensions>
      </trkpt>
      <trkpt lat="42.535423748195171356201171875" lon="20.16184640116989612579345703125">
        <ele>1923.800048828125</ele>
        <time>2026-06-20T08:38:05.000Z</time>
        <extensions>
          <ns3:TrackPointExtension>
            <ns3:atemp>25.0</ns3:atemp>
          </ns3:TrackPointExtension>
        </extensions>
      </trkpt>
      <trkpt lat="42.53538561053574085235595703125" lon="20.16182946972548961639404296875">
        <ele>1923.199951171875</ele>
        <time>2026-06-20T08:38:06.000Z</time>
        <extensions>
          <ns3:TrackPointExtension>
            <ns3:atemp>25.0</ns3:atemp>
          </ns3:TrackPointExtension>
        </extensions>
      </trkpt>
      <trkpt lat="42.5353478081524372100830078125" lon="20.16180935315787792205810546875">
        <ele>1922.5999755859375</ele>
        <time>2026-06-20T08:38:07.000Z</time>
        <extensions>
          <ns3:TrackPointExtension>
            <ns3:atemp>25.0</ns3:atemp>
          </ns3:TrackPointExtension>
        </extensions>
      </trkpt>
      <trkpt lat="42.53530832938849925994873046875" lon="20.16179627738893032073974609375">
        <ele>1921.800048828125</ele>
        <time>2026-06-20T08:38:08.000Z</time>
        <extensions>
          <ns3:TrackPointExtension>
            <ns3:atemp>25.0</ns3:atemp>
          </ns3:TrackPointExtension>
        </extensions>
      </trkpt>
      <trkpt lat="42.5352696888148784637451171875" lon="20.16178856603801250457763671875">
        <ele>1921.199951171875</ele>
        <time>2026-06-20T08:38:09.000Z</time>
        <extensions>
          <ns3:TrackPointExtension>
            <ns3:atemp>25.0</ns3:atemp>
          </ns3:TrackPointExtension>
        </extensions>
      </trkpt>
      <trkpt lat="42.5352351553738117218017578125" lon="20.16178370453417301177978515625">
        <ele>1920.5999755859375</ele>
        <time>2026-06-20T08:38:10.000Z</time>
        <extensions>
          <ns3:TrackPointExtension>
            <ns3:atemp>25.0</ns3:atemp>
          </ns3:TrackPointExtension>
        </extensions>
      </trkpt>
      <trkpt lat="42.53520539961755275726318359375" lon="20.161777921020984649658203125">
        <ele>1920</ele>
        <time>2026-06-20T08:38:11.000Z</time>
        <extensions>
          <ns3:TrackPointExtension>
            <ns3:atemp>25.0</ns3:atemp>
          </ns3:TrackPointExtension>
        </extensions>
      </trkpt>
      <trkpt lat="42.5351791642606258392333984375" lon="20.16177582554519176483154296875">
        <ele>1919.5999755859375</ele>
        <time>2026-06-20T08:38:12.000Z</time>
        <extensions>
          <ns3:TrackPointExtension>
            <ns3:atemp>25.0</ns3:atemp>
          </ns3:TrackPointExtension>
        </extensions>
      </trkpt>
      <trkpt lat="42.535150162875652313232421875" lon="20.16177549026906490325927734375">
        <ele>1919.4000244140625</ele>
        <time>2026-06-20T08:38:13.000Z</time>
        <extensions>
          <ns3:TrackPointExtension>
            <ns3:atemp>25.0</ns3:atemp>
          </ns3:TrackPointExtension>
        </extensions>
      </trkpt>
      <trkpt lat="42.53511898219585418701171875" lon="20.1617787592113018035888671875">
        <ele>1919.199951171875</ele>
        <time>2026-06-20T08:38:14.000Z</time>
        <extensions>
          <ns3:TrackPointExtension>
            <ns3:atemp>25.0</ns3:atemp>
          </ns3:TrackPointExtension>
        </extensions>
      </trkpt>
      <trkpt lat="42.53508386202156543731689453125" lon="20.16178186051547527313232421875">
        <ele>1918.800048828125</ele>
        <time>2026-06-20T08:38:15.000Z</time>
        <extensions>
          <ns3:TrackPointExtension>
            <ns3:atemp>25.0</ns3:atemp>
          </ns3:TrackPointExtension>
        </extensions>
      </trkpt>
      <trkpt lat="42.53504815511405467987060546875" lon="20.16178420744836330413818359375">
        <ele>1918.4000244140625</ele>
        <time>2026-06-20T08:38:16.000Z</time>
        <extensions>
          <ns3:TrackPointExtension>
            <ns3:atemp>25.0</ns3:atemp>
          </ns3:TrackPointExtension>
        </extensions>
      </trkpt>
      <trkpt lat="42.535012029111385345458984375" lon="20.1617896556854248046875">
        <ele>1918.199951171875</ele>
        <time>2026-06-20T08:38:17.000Z</time>
        <extensions>
          <ns3:TrackPointExtension>
            <ns3:atemp>25.0</ns3:atemp>
          </ns3:TrackPointExtension>
        </extensions>
      </trkpt>
      <trkpt lat="42.5349776633083820343017578125" lon="20.16179963015019893646240234375">
        <ele>1917.800048828125</ele>
        <time>2026-06-20T08:38:18.000Z</time>
        <extensions>
          <ns3:TrackPointExtension>
            <ns3:atemp>25.0</ns3:atemp>
          </ns3:TrackPointExtension>
        </extensions>
      </trkpt>
      <trkpt lat="42.5349454768002033233642578125" lon="20.16181656159460544586181640625">
        <ele>1917.4000244140625</ele>
        <time>2026-06-20T08:38:19.000Z</time>
        <extensions>
          <ns3:TrackPointExtension>
            <ns3:atemp>25.0</ns3:atemp>
          </ns3:TrackPointExtension>
        </extensions>
      </trkpt>
      <trkpt lat="42.5349109433591365814208984375" lon="20.1618334092199802398681640625">
        <ele>1917.199951171875</ele>
        <time>2026-06-20T08:38:20.000Z</time>
        <extensions>
          <ns3:TrackPointExtension>
            <ns3:atemp>25.0</ns3:atemp>
          </ns3:TrackPointExtension>
        </extensions>
      </trkpt>
      <trkpt lat="42.53487632609903812408447265625" lon="20.16184405423700809478759765625">
        <ele>1917</ele>
        <time>2026-06-20T08:38:21.000Z</time>
        <extensions>
          <ns3:TrackPointExtension>
            <ns3:atemp>25.0</ns3:atemp>
          </ns3:TrackPointExtension>
        </extensions>
      </trkpt>
      <trkpt lat="42.53484212793409824371337890625" lon="20.16185461543500423431396484375">
        <ele>1916.800048828125</ele>
        <time>2026-06-20T08:38:22.000Z</time>
        <extensions>
          <ns3:TrackPointExtension>
            <ns3:atemp>25.0</ns3:atemp>
          </ns3:TrackPointExtension>
        </extensions>
      </trkpt>
      <trkpt lat="42.53480918705463409423828125" lon="20.16185880638659000396728515625">
        <ele>1916.5999755859375</ele>
        <time>2026-06-20T08:38:23.000Z</time>
        <extensions>
          <ns3:TrackPointExtension>
            <ns3:atemp>25.0</ns3:atemp>
          </ns3:TrackPointExtension>
        </extensions>
      </trkpt>
      <trkpt lat="42.53477674908936023712158203125" lon="20.161862410604953765869140625">
        <ele>1916.4000244140625</ele>
        <time>2026-06-20T08:38:24.000Z</time>
        <extensions>
          <ns3:TrackPointExtension>
            <ns3:atemp>25.0</ns3:atemp>
          </ns3:TrackPointExtension>
        </extensions>
      </trkpt>
      <trkpt lat="42.53474414348602294921875" lon="20.16186953522264957427978515625">
        <ele>1916.4000244140625</ele>
        <time>2026-06-20T08:38:25.000Z</time>
        <extensions>
          <ns3:TrackPointExtension>
            <ns3:atemp>25.0</ns3:atemp>
          </ns3:TrackPointExtension>
        </extensions>
      </trkpt>
      <trkpt lat="42.5347117893397808074951171875" lon="20.161863081157207489013671875">
        <ele>1916.199951171875</ele>
        <time>2026-06-20T08:38:26.000Z</time>
        <extensions>
          <ns3:TrackPointExtension>
            <ns3:atemp>25.0</ns3:atemp>
          </ns3:TrackPointExtension>
        </extensions>
      </trkpt>
      <trkpt lat="42.5346785970032215118408203125" lon="20.1618511788547039031982421875">
        <ele>1916.199951171875</ele>
        <time>2026-06-20T08:38:27.000Z</time>
        <extensions>
          <ns3:TrackPointExtension>
            <ns3:atemp>25.0</ns3:atemp>
          </ns3:TrackPointExtension>
        </extensions>
      </trkpt>
      <trkpt lat="42.53465403802692890167236328125" lon="20.16183097846806049346923828125">
        <ele>1916</ele>
        <time>2026-06-20T08:38:28.000Z</time>
        <extensions>
          <ns3:TrackPointExtension>
            <ns3:atemp>25.0</ns3:atemp>
          </ns3:TrackPointExtension>
        </extensions>
      </trkpt>
      <trkpt lat="42.5346417166292667388916015625" lon="20.16180985607206821441650390625">
        <ele>1916</ele>
        <time>2026-06-20T08:38:29.000Z</time>
        <extensions>
          <ns3:TrackPointExtension>
            <ns3:atemp>25.0</ns3:atemp>
          </ns3:TrackPointExtension>
        </extensions>
      </trkpt>
      <trkpt lat="42.53463241271674633026123046875" lon="20.1617878116667270660400390625">
        <ele>1915.800048828125</ele>
        <time>2026-06-20T08:38:30.000Z</time>
        <extensions>
          <ns3:TrackPointExtension>
            <ns3:atemp>25.0</ns3:atemp>
          </ns3:TrackPointExtension>
        </extensions>
      </trkpt>
      <trkpt lat="42.534624449908733367919921875" lon="20.16176912002265453338623046875">
        <ele>1915.800048828125</ele>
        <time>2026-06-20T08:38:31.000Z</time>
        <extensions>
          <ns3:TrackPointExtension>
            <ns3:atemp>25.0</ns3:atemp>
          </ns3:TrackPointExtension>
        </extensions>
      </trkpt>
      <trkpt lat="42.53461732529103755950927734375" lon="20.1617546193301677703857421875">
        <ele>1915.800048828125</ele>
        <time>2026-06-20T08:38:32.000Z</time>
        <extensions>
          <ns3:TrackPointExtension>
            <ns3:atemp>25.0</ns3:atemp>
          </ns3:TrackPointExtension>
        </extensions>
      </trkpt>
      <trkpt lat="42.53461539745330810546875" lon="20.161733664572238922119140625">
        <ele>1915.800048828125</ele>
        <time>2026-06-20T08:38:33.000Z</time>
        <extensions>
          <ns3:TrackPointExtension>
            <ns3:atemp>25.0</ns3:atemp>
          </ns3:TrackPointExtension>
        </extensions>
      </trkpt>
      <trkpt lat="42.5346152298152446746826171875" lon="20.1617174036800861358642578125">
        <ele>1915.800048828125</ele>
        <time>2026-06-20T08:38:34.000Z</time>
        <extensions>
          <ns3:TrackPointExtension>
            <ns3:atemp>25.0</ns3:atemp>
          </ns3:TrackPointExtension>
        </extensions>
      </trkpt>
      <trkpt lat="42.534607350826263427734375" lon="20.16170139424502849578857421875">
        <ele>1915.800048828125</ele>
        <time>2026-06-20T08:38:35.000Z</time>
        <extensions>
          <ns3:TrackPointExtension>
            <ns3:atemp>25.0</ns3:atemp>
          </ns3:TrackPointExtension>
        </extensions>
      </trkpt>
      <trkpt lat="42.534590922296047210693359375" lon="20.16168965958058834075927734375">
        <ele>1915.5999755859375</ele>
        <time>2026-06-20T08:38:36.000Z</time>
        <extensions>
          <ns3:TrackPointExtension>
            <ns3:atemp>25.0</ns3:atemp>
          </ns3:TrackPointExtension>
        </extensions>
      </trkpt>
      <trkpt lat="42.534572817385196685791015625" lon="20.16166853718459606170654296875">
        <ele>1915.5999755859375</ele>
        <time>2026-06-20T08:38:37.000Z</time>
        <extensions>
          <ns3:TrackPointExtension>
            <ns3:atemp>25.0</ns3:atemp>
          </ns3:TrackPointExtension>
        </extensions>
      </trkpt>
      <trkpt lat="42.53455915488302707672119140625" lon="20.161650516092777252197265625">
        <ele>1915.5999755859375</ele>
        <time>2026-06-20T08:38:38.000Z</time>
        <extensions>
          <ns3:TrackPointExtension>
            <ns3:atemp>25.0</ns3:atemp>
          </ns3:TrackPointExtension>
        </extensions>
      </trkpt>
      <trkpt lat="42.53454364836215972900390625" lon="20.1616394519805908203125">
        <ele>1915.4000244140625</ele>
        <time>2026-06-20T08:38:39.000Z</time>
        <extensions>
          <ns3:TrackPointExtension>
            <ns3:atemp>25.0</ns3:atemp>
          </ns3:TrackPointExtension>
        </extensions>
      </trkpt>
      <trkpt lat="42.534527219831943511962890625" lon="20.16162679530680179595947265625">
        <ele>1915.4000244140625</ele>
        <time>2026-06-20T08:38:40.000Z</time>
        <extensions>
          <ns3:TrackPointExtension>
            <ns3:atemp>25.0</ns3:atemp>
          </ns3:TrackPointExtension>
        </extensions>
      </trkpt>
      <trkpt lat="42.5345079414546489715576171875" lon="20.16160869039595127105712890625">
        <ele>1915.4000244140625</ele>
        <time>2026-06-20T08:38:41.000Z</time>
        <extensions>
          <ns3:TrackPointExtension>
            <ns3:atemp>25.0</ns3:atemp>
          </ns3:TrackPointExtension>
        </extensions>
      </trkpt>
      <trkpt lat="42.53448539413511753082275390625" lon="20.16158790327608585357666015625">
        <ele>1915.4000244140625</ele>
        <time>2026-06-20T08:38:42.000Z</time>
        <extensions>
          <ns3:TrackPointExtension>
            <ns3:atemp>25.0</ns3:atemp>
          </ns3:TrackPointExtension>
        </extensions>
      </trkpt>
      <trkpt lat="42.53446360118687152862548828125" lon="20.16155990771949291229248046875">
        <ele>1915.4000244140625</ele>
        <time>2026-06-20T08:38:43.000Z</time>
        <extensions>
          <ns3:TrackPointExtension>
            <ns3:atemp>25.0</ns3:atemp>
          </ns3:TrackPointExtension>
        </extensions>
      </trkpt>
      <trkpt lat="42.53444415517151355743408203125" lon="20.1615330018103122711181640625">
        <ele>1915.199951171875</ele>
        <time>2026-06-20T08:38:44.000Z</time>
        <extensions>
          <ns3:TrackPointExtension>
            <ns3:atemp>25.0</ns3:atemp>
          </ns3:TrackPointExtension>
        </extensions>
      </trkpt>
      <trkpt lat="42.5344263017177581787109375" lon="20.1615179143846035003662109375">
        <ele>1915</ele>
        <time>2026-06-20T08:38:45.000Z</time>
        <extensions>
          <ns3:TrackPointExtension>
            <ns3:atemp>25.0</ns3:atemp>
          </ns3:TrackPointExtension>
        </extensions>
      </trkpt>
      <trkpt lat="42.534408867359161376953125" lon="20.16150827519595623016357421875">
        <ele>1914.800048828125</ele>
        <time>2026-06-20T08:38:46.000Z</time>
        <extensions>
          <ns3:TrackPointExtension>
            <ns3:atemp>25.0</ns3:atemp>
          </ns3:TrackPointExtension>
        </extensions>
      </trkpt>
      <trkpt lat="42.53439118154346942901611328125" lon="20.16150844283401966094970703125">
        <ele>1914.5999755859375</ele>
        <time>2026-06-20T08:38:47.000Z</time>
        <extensions>
          <ns3:TrackPointExtension>
            <ns3:atemp>25.0</ns3:atemp>
          </ns3:TrackPointExtension>
        </extensions>
      </trkpt>
      <trkpt lat="42.53436863422393798828125" lon="20.1615102030336856842041015625">
        <ele>1914.5999755859375</ele>
        <time>2026-06-20T08:38:48.000Z</time>
        <extensions>
          <ns3:TrackPointExtension>
            <ns3:atemp>25.0</ns3:atemp>
          </ns3:TrackPointExtension>
        </extensions>
      </trkpt>
      <trkpt lat="42.534339465200901031494140625" lon="20.16151280142366886138916015625">
        <ele>1914.5999755859375</ele>
        <time>2026-06-20T08:38:49.000Z</time>
        <extensions>
          <ns3:TrackPointExtension>
            <ns3:atemp>25.0</ns3:atemp>
          </ns3:TrackPointExtension>
        </extensions>
      </trkpt>
      <trkpt lat="42.53431071527302265167236328125" lon="20.16150441952049732208251953125">
        <ele>1914.4000244140625</ele>
        <time>2026-06-20T08:38:50.000Z</time>
        <extensions>
          <ns3:TrackPointExtension>
            <ns3:atemp>24.0</ns3:atemp>
          </ns3:TrackPointExtension>
        </extensions>
      </trkpt>
      <trkpt lat="42.53428657539188861846923828125" lon="20.161491595208644866943359375">
        <ele>1914.4000244140625</ele>
        <time>2026-06-20T08:38:51.000Z</time>
        <extensions>
          <ns3:TrackPointExtension>
            <ns3:atemp>24.0</ns3:atemp>
          </ns3:TrackPointExtension>
        </extensions>
      </trkpt>
      <trkpt lat="42.53426562063395977020263671875" lon="20.1614783518016338348388671875">
        <ele>1914.4000244140625</ele>
        <time>2026-06-20T08:38:52.000Z</time>
        <extensions>
          <ns3:TrackPointExtension>
            <ns3:atemp>24.0</ns3:atemp>
          </ns3:TrackPointExtension>
        </extensions>
      </trkpt>
      <trkpt lat="42.53424751572310924530029296875" lon="20.16146938316524028778076171875">
        <ele>1914.199951171875</ele>
        <time>2026-06-20T08:38:53.000Z</time>
        <extensions>
          <ns3:TrackPointExtension>
            <ns3:atemp>24.0</ns3:atemp>
          </ns3:TrackPointExtension>
        </extensions>
      </trkpt>
      <trkpt lat="42.5342273153364658355712890625" lon="20.16145681031048297882080078125">
        <ele>1914.199951171875</ele>
        <time>2026-06-20T08:38:54.000Z</time>
        <extensions>
          <ns3:TrackPointExtension>
            <ns3:atemp>24.0</ns3:atemp>
          </ns3:TrackPointExtension>
        </extensions>
      </trkpt>
      <trkpt lat="42.5342065282166004180908203125" lon="20.1614387892186641693115234375">
        <ele>1914.199951171875</ele>
        <time>2026-06-20T08:38:55.000Z</time>
        <extensions>
          <ns3:TrackPointExtension>
            <ns3:atemp>24.0</ns3:atemp>
          </ns3:TrackPointExtension>
        </extensions>
      </trkpt>
      <trkpt lat="42.53418750129640102386474609375" lon="20.16140920110046863555908203125">
        <ele>1914</ele>
        <time>2026-06-20T08:38:56.000Z</time>
        <extensions>
          <ns3:TrackPointExtension>
            <ns3:atemp>24.0</ns3:atemp>
          </ns3:TrackPointExtension>
        </extensions>
      </trkpt>
      <trkpt lat="42.53417056985199451446533203125" lon="20.161374919116497039794921875">
        <ele>1913.800048828125</ele>
        <time>2026-06-20T08:38:57.000Z</time>
        <extensions>
          <ns3:TrackPointExtension>
            <ns3:atemp>24.0</ns3:atemp>
          </ns3:TrackPointExtension>
        </extensions>
      </trkpt>
      <trkpt lat="42.53414802253246307373046875" lon="20.16135388053953647613525390625">
        <ele>1913.5999755859375</ele>
        <time>2026-06-20T08:38:58.000Z</time>
        <extensions>
          <ns3:TrackPointExtension>
            <ns3:atemp>24.0</ns3:atemp>
          </ns3:TrackPointExtension>
        </extensions>
      </trkpt>
      <trkpt lat="42.53412949852645397186279296875" lon="20.1613382063806056976318359375">
        <ele>1913.199951171875</ele>
        <time>2026-06-20T08:38:59.000Z</time>
        <extensions>
          <ns3:TrackPointExtension>
            <ns3:atemp>24.0</ns3:atemp>
          </ns3:TrackPointExtension>
        </extensions>
      </trkpt>
      <trkpt lat="42.53410938195884227752685546875" lon="20.16132638789713382720947265625">
        <ele>1913</ele>
        <time>2026-06-20T08:39:00.000Z</time>
        <extensions>
          <ns3:TrackPointExtension>
            <ns3:atemp>24.0</ns3:atemp>
          </ns3:TrackPointExtension>
        </extensions>
      </trkpt>
      <trkpt lat="42.5340910255908966064453125" lon="20.16131716780364513397216796875">
        <ele>1912.800048828125</ele>
        <time>2026-06-20T08:39:01.000Z</time>
        <extensions>
          <ns3:TrackPointExtension>
            <ns3:atemp>25.0</ns3:atemp>
          </ns3:TrackPointExtension>
        </extensions>
      </trkpt>
      <trkpt lat="42.5340724177658557891845703125" lon="20.1613130606710910797119140625">
        <ele>1912.800048828125</ele>
        <time>2026-06-20T08:39:02.000Z</time>
        <extensions>
          <ns3:TrackPointExtension>
            <ns3:atemp>25.0</ns3:atemp>
          </ns3:TrackPointExtension>
        </extensions>
      </trkpt>
      <trkpt lat="42.5340502895414829254150390625" lon="20.16131448559463024139404296875">
        <ele>1912.800048828125</ele>
        <time>2026-06-20T08:39:03.000Z</time>
        <extensions>
          <ns3:TrackPointExtension>
            <ns3:atemp>24.0</ns3:atemp>
          </ns3:TrackPointExtension>
        </extensions>
      </trkpt>
      <trkpt lat="42.53402472473680973052978515625" lon="20.16132228076457977294921875">
        <ele>1912.800048828125</ele>
        <time>2026-06-20T08:39:04.000Z</time>
        <extensions>
          <ns3:TrackPointExtension>
            <ns3:atemp>24.0</ns3:atemp>
          </ns3:TrackPointExtension>
        </extensions>
      </trkpt>
      <trkpt lat="42.53400511108338832855224609375" lon="20.16134080477058887481689453125">
        <ele>1912.5999755859375</ele>
        <time>2026-06-20T08:39:05.000Z</time>
        <extensions>
          <ns3:TrackPointExtension>
            <ns3:atemp>24.0</ns3:atemp>
          </ns3:TrackPointExtension>
        </extensions>
      </trkpt>
      <trkpt lat="42.53400108776986598968505859375" lon="20.161369554698467254638671875">
        <ele>1912.4000244140625</ele>
        <time>2026-06-20T08:39:06.000Z</time>
        <extensions>
          <ns3:TrackPointExtension>
            <ns3:atemp>24.0</ns3:atemp>
          </ns3:TrackPointExtension>
        </extensions>
      </trkpt>
      <trkpt lat="42.53399471752345561981201171875" lon="20.16139444895088672637939453125">
        <ele>1912.199951171875</ele>
        <time>2026-06-20T08:39:07.000Z</time>
        <extensions>
          <ns3:TrackPointExtension>
            <ns3:atemp>24.0</ns3:atemp>
          </ns3:TrackPointExtension>
        </extensions>
      </trkpt>
      <trkpt lat="42.533984743058681488037109375" lon="20.16142898239195346832275390625">
        <ele>1912</ele>
        <time>2026-06-20T08:39:08.000Z</time>
        <extensions>
          <ns3:TrackPointExtension>
            <ns3:atemp>24.0</ns3:atemp>
          </ns3:TrackPointExtension>
        </extensions>
      </trkpt>
      <trkpt lat="42.5339728407561779022216796875" lon="20.161464102566242218017578125">
        <ele>1911.5999755859375</ele>
        <time>2026-06-20T08:39:09.000Z</time>
        <extensions>
          <ns3:TrackPointExtension>
            <ns3:atemp>24.0</ns3:atemp>
          </ns3:TrackPointExtension>
        </extensions>
      </trkpt>
      <trkpt lat="42.53395515494048595428466796875" lon="20.161488242447376251220703125">
        <ele>1911.4000244140625</ele>
        <time>2026-06-20T08:39:10.000Z</time>
        <extensions>
          <ns3:TrackPointExtension>
            <ns3:atemp>24.0</ns3:atemp>
          </ns3:TrackPointExtension>
        </extensions>
      </trkpt>
      <trkpt lat="42.53393185324966907501220703125" lon="20.1615008153021335601806640625">
        <ele>1911.199951171875</ele>
        <time>2026-06-20T08:39:11.000Z</time>
        <extensions>
          <ns3:TrackPointExtension>
            <ns3:atemp>25.0</ns3:atemp>
          </ns3:TrackPointExtension>
        </extensions>
      </trkpt>
      <trkpt lat="42.53390855155885219573974609375" lon="20.16150877811014652252197265625">
        <ele>1911.199951171875</ele>
        <time>2026-06-20T08:39:12.000Z</time>
        <extensions>
          <ns3:TrackPointExtension>
            <ns3:atemp>25.0</ns3:atemp>
          </ns3:TrackPointExtension>
        </extensions>
      </trkpt>
      <trkpt lat="42.5338816456496715545654296875" lon="20.16152788884937763214111328125">
        <ele>1911</ele>
        <time>2026-06-20T08:39:13.000Z</time>
        <extensions>
          <ns3:TrackPointExtension>
            <ns3:atemp>25.0</ns3:atemp>
          </ns3:TrackPointExtension>
        </extensions>
      </trkpt>
      <trkpt lat="42.53385373391211032867431640625" lon="20.1615469157695770263671875">
        <ele>1910.800048828125</ele>
        <time>2026-06-20T08:39:14.000Z</time>
        <extensions>
          <ns3:TrackPointExtension>
            <ns3:atemp>25.0</ns3:atemp>
          </ns3:TrackPointExtension>
        </extensions>
      </trkpt>
      <trkpt lat="42.53382481634616851806640625" lon="20.16157298348844051361083984375">
        <ele>1910.5999755859375</ele>
        <time>2026-06-20T08:39:15.000Z</time>
        <extensions>
          <ns3:TrackPointExtension>
            <ns3:atemp>24.0</ns3:atemp>
          </ns3:TrackPointExtension>
        </extensions>
      </trkpt>
      <trkpt lat="42.53379271365702152252197265625" lon="20.161601565778255462646484375">
        <ele>1910.199951171875</ele>
        <time>2026-06-20T08:39:16.000Z</time>
        <extensions>
          <ns3:TrackPointExtension>
            <ns3:atemp>25.0</ns3:atemp>
          </ns3:TrackPointExtension>
        </extensions>
      </trkpt>
      <trkpt lat="42.533764131367206573486328125" lon="20.16164154745638370513916015625">
        <ele>1909.5999755859375</ele>
        <time>2026-06-20T08:39:17.000Z</time>
        <extensions>
          <ns3:TrackPointExtension>
            <ns3:atemp>24.0</ns3:atemp>
          </ns3:TrackPointExtension>
        </extensions>
      </trkpt>
      <trkpt lat="42.53373655490577220916748046875" lon="20.16167767345905303955078125">
        <ele>1909</ele>
        <time>2026-06-20T08:39:18.000Z</time>
        <extensions>
          <ns3:TrackPointExtension>
            <ns3:atemp>24.0</ns3:atemp>
          </ns3:TrackPointExtension>
        </extensions>
      </trkpt>
      <trkpt lat="42.533711828291416168212890625" lon="20.161708854138851165771484375">
        <ele>1908.4000244140625</ele>
        <time>2026-06-20T08:39:19.000Z</time>
        <extensions>
          <ns3:TrackPointExtension>
            <ns3:atemp>24.0</ns3:atemp>
          </ns3:TrackPointExtension>
        </extensions>
      </trkpt>
      <trkpt lat="42.5336994230747222900390625" lon="20.16174850054085254669189453125">
        <ele>1907.800048828125</ele>
        <time>2026-06-20T08:39:20.000Z</time>
        <extensions>
          <ns3:TrackPointExtension>
            <ns3:atemp>25.0</ns3:atemp>
          </ns3:TrackPointExtension>
        </extensions>
      </trkpt>
      <trkpt lat="42.53370252437889575958251953125" lon="20.16178630292415618896484375">
        <ele>1907.4000244140625</ele>
        <time>2026-06-20T08:39:21.000Z</time>
        <extensions>
          <ns3:TrackPointExtension>
            <ns3:atemp>24.0</ns3:atemp>
          </ns3:TrackPointExtension>
        </extensions>
      </trkpt>
      <trkpt lat="42.5337133370339870452880859375" lon="20.1618178188800811767578125">
        <ele>1907</ele>
        <time>2026-06-20T08:39:22.000Z</time>
        <extensions>
          <ns3:TrackPointExtension>
            <ns3:atemp>24.0</ns3:atemp>
          </ns3:TrackPointExtension>
        </extensions>
      </trkpt>
      <trkpt lat="42.5337378121912479400634765625" lon="20.16184288077056407928466796875">
        <ele>1906.5999755859375</ele>
        <time>2026-06-20T08:39:23.000Z</time>
        <extensions>
          <ns3:TrackPointExtension>
            <ns3:atemp>24.0</ns3:atemp>
          </ns3:TrackPointExtension>
        </extensions>
      </trkpt>
      <trkpt lat="42.53377142362296581268310546875" lon="20.161842294037342071533203125">
        <ele>1906</ele>
        <time>2026-06-20T08:39:24.000Z</time>
        <extensions>
          <ns3:TrackPointExtension>
            <ns3:atemp>24.0</ns3:atemp>
          </ns3:TrackPointExtension>
        </extensions>
      </trkpt>
      <trkpt lat="42.5338129140436649322509765625" lon="20.161835253238677978515625">
        <ele>1905.5999755859375</ele>
        <time>2026-06-20T08:39:25.000Z</time>
        <extensions>
          <ns3:TrackPointExtension>
            <ns3:atemp>24.0</ns3:atemp>
          </ns3:TrackPointExtension>
        </extensions>
      </trkpt>
      <trkpt lat="42.53385591320693492889404296875" lon="20.1618256978690624237060546875">
        <ele>1905</ele>
        <time>2026-06-20T08:39:26.000Z</time>
        <extensions>
          <ns3:TrackPointExtension>
            <ns3:atemp>24.0</ns3:atemp>
          </ns3:TrackPointExtension>
        </extensions>
      </trkpt>
      <trkpt lat="42.5338980741798877716064453125" lon="20.1618102751672267913818359375">
        <ele>1904.5999755859375</ele>
        <time>2026-06-20T08:39:27.000Z</time>
        <extensions>
          <ns3:TrackPointExtension>
            <ns3:atemp>24.0</ns3:atemp>
          </ns3:TrackPointExtension>
        </extensions>
      </trkpt>
      <trkpt lat="42.53394576720893383026123046875" lon="20.16180147416889667510986328125">
        <ele>1904.199951171875</ele>
        <time>2026-06-20T08:39:28.000Z</time>
        <extensions>
          <ns3:TrackPointExtension>
            <ns3:atemp>25.0</ns3:atemp>
          </ns3:TrackPointExtension>
        </extensions>
      </trkpt>
      <trkpt lat="42.53399119712412357330322265625" lon="20.1618126221001148223876953125">
        <ele>1903.4000244140625</ele>
        <time>2026-06-20T08:39:29.000Z</time>
        <extensions>
          <ns3:TrackPointExtension>
            <ns3:atemp>25.0</ns3:atemp>
          </ns3:TrackPointExtension>
        </extensions>
      </trkpt>
      <trkpt lat="42.534021623432636260986328125" lon="20.161846987903118133544921875">
        <ele>1902.800048828125</ele>
        <time>2026-06-20T08:39:30.000Z</time>
        <extensions>
          <ns3:TrackPointExtension>
            <ns3:atemp>24.0</ns3:atemp>
          </ns3:TrackPointExtension>
        </extensions>
      </trkpt>
      <trkpt lat="42.5340335257351398468017578125" lon="20.1618969440460205078125">
        <ele>1902.4000244140625</ele>
        <time>2026-06-20T08:39:31.000Z</time>
        <extensions>
          <ns3:TrackPointExtension>
            <ns3:atemp>24.0</ns3:atemp>
          </ns3:TrackPointExtension>
        </extensions>
      </trkpt>
      <trkpt lat="42.53403511829674243927001953125" lon="20.1619581319391727447509765625">
        <ele>1901.5999755859375</ele>
        <time>2026-06-20T08:39:32.000Z</time>
        <extensions>
          <ns3:TrackPointExtension>
            <ns3:atemp>24.0</ns3:atemp>
          </ns3:TrackPointExtension>
        </extensions>
      </trkpt>
      <trkpt lat="42.5340543128550052642822265625" lon="20.16201722435653209686279296875">
        <ele>1900.800048828125</ele>
        <time>2026-06-20T08:39:33.000Z</time>
        <extensions>
          <ns3:TrackPointExtension>
            <ns3:atemp>24.0</ns3:atemp>
          </ns3:TrackPointExtension>
        </extensions>
      </trkpt>
      <trkpt lat="42.534090690314769744873046875" lon="20.16206198371946811676025390625">
        <ele>1900</ele>
        <time>2026-06-20T08:39:34.000Z</time>
        <extensions>
          <ns3:TrackPointExtension>
            <ns3:atemp>24.0</ns3:atemp>
          </ns3:TrackPointExtension>
        </extensions>
      </trkpt>
      <trkpt lat="42.5341160036623477935791015625" lon="20.16210959292948246002197265625">
        <ele>1899</ele>
        <time>2026-06-20T08:39:35.000Z</time>
        <extensions>
          <ns3:TrackPointExtension>
            <ns3:atemp>24.0</ns3:atemp>
          </ns3:TrackPointExtension>
        </extensions>
      </trkpt>
      <trkpt lat="42.53412631340324878692626953125" lon="20.1621743850409984588623046875">
        <ele>1898.199951171875</ele>
        <time>2026-06-20T08:39:36.000Z</time>
        <extensions>
          <ns3:TrackPointExtension>
            <ns3:atemp>24.0</ns3:atemp>
          </ns3:TrackPointExtension>
        </extensions>
      </trkpt>
      <trkpt lat="42.53413016907870769500732421875" lon="20.1622474752366542816162109375">
        <ele>1897.4000244140625</ele>
        <time>2026-06-20T08:39:37.000Z</time>
        <extensions>
          <ns3:TrackPointExtension>
            <ns3:atemp>24.0</ns3:atemp>
          </ns3:TrackPointExtension>
        </extensions>
      </trkpt>
      <trkpt lat="42.534151375293731689453125" lon="20.16230874694883823394775390625">
        <ele>1896.5999755859375</ele>
        <time>2026-06-20T08:39:38.000Z</time>
        <extensions>
          <ns3:TrackPointExtension>
            <ns3:atemp>24.0</ns3:atemp>
          </ns3:TrackPointExtension>
        </extensions>
      </trkpt>
      <trkpt lat="42.53418146632611751556396484375" lon="20.16237244941294193267822265625">
        <ele>1895.4000244140625</ele>
        <time>2026-06-20T08:39:39.000Z</time>
        <extensions>
          <ns3:TrackPointExtension>
            <ns3:atemp>24.0</ns3:atemp>
          </ns3:TrackPointExtension>
        </extensions>
      </trkpt>
      <trkpt lat="42.5342159159481525421142578125" lon="20.16243481077253818511962890625">
        <ele>1894.5999755859375</ele>
        <time>2026-06-20T08:39:40.000Z</time>
        <extensions>
          <ns3:TrackPointExtension>
            <ns3:atemp>24.0</ns3:atemp>
          </ns3:TrackPointExtension>
        </extensions>
      </trkpt>
      <trkpt lat="42.534242235124111175537109375" lon="20.16250018961727619171142578125">
        <ele>1893.800048828125</ele>
        <time>2026-06-20T08:39:41.000Z</time>
        <extensions>
          <ns3:TrackPointExtension>
            <ns3:atemp>24.0</ns3:atemp>
          </ns3:TrackPointExtension>
        </extensions>
      </trkpt>
      <trkpt lat="42.53425707109272480010986328125" lon="20.16256473027169704437255859375">
        <ele>1893</ele>
        <time>2026-06-20T08:39:42.000Z</time>
        <extensions>
          <ns3:TrackPointExtension>
            <ns3:atemp>24.0</ns3:atemp>
          </ns3:TrackPointExtension>
        </extensions>
      </trkpt>
      <trkpt lat="42.53426872193813323974609375" lon="20.16264419071376323699951171875">
        <ele>1892.4000244140625</ele>
        <time>2026-06-20T08:39:43.000Z</time>
        <extensions>
          <ns3:TrackPointExtension>
            <ns3:atemp>24.0</ns3:atemp>
          </ns3:TrackPointExtension>
        </extensions>
      </trkpt>
      <trkpt lat="42.53427618183195590972900390625" lon="20.16272448934614658355712890625">
        <ele>1891.4000244140625</ele>
        <time>2026-06-20T08:39:44.000Z</time>
        <extensions>
          <ns3:TrackPointExtension>
            <ns3:atemp>24.0</ns3:atemp>
          </ns3:TrackPointExtension>
        </extensions>
      </trkpt>
      <trkpt lat="42.5342796184122562408447265625" lon="20.16279808245599269866943359375">
        <ele>1890.4000244140625</ele>
        <time>2026-06-20T08:39:45.000Z</time>
        <extensions>
          <ns3:TrackPointExtension>
            <ns3:atemp>24.0</ns3:atemp>
          </ns3:TrackPointExtension>
        </extensions>
      </trkpt>
      <trkpt lat="42.53427685238420963287353515625" lon="20.1628717593848705291748046875">
        <ele>1889.4000244140625</ele>
        <time>2026-06-20T08:39:46.000Z</time>
        <extensions>
          <ns3:TrackPointExtension>
            <ns3:atemp>24.0</ns3:atemp>
          </ns3:TrackPointExtension>
        </extensions>
      </trkpt>
      <trkpt lat="42.5342698954045772552490234375" lon="20.16293386928737163543701171875">
        <ele>1888.199951171875</ele>
        <time>2026-06-20T08:39:47.000Z</time>
        <extensions>
          <ns3:TrackPointExtension>
            <ns3:atemp>24.0</ns3:atemp>
          </ns3:TrackPointExtension>
        </extensions>
      </trkpt>
      <trkpt lat="42.53426662646234035491943359375" lon="20.1629954762756824493408203125">
        <ele>1887.4000244140625</ele>
        <time>2026-06-20T08:39:48.000Z</time>
        <extensions>
          <ns3:TrackPointExtension>
            <ns3:atemp>24.0</ns3:atemp>
          </ns3:TrackPointExtension>
        </extensions>
      </trkpt>
      <trkpt lat="42.5342667102813720703125" lon="20.163058675825595855712890625">
        <ele>1885.800048828125</ele>
        <time>2026-06-20T08:39:49.000Z</time>
        <extensions>
          <ns3:TrackPointExtension>
            <ns3:atemp>24.0</ns3:atemp>
          </ns3:TrackPointExtension>
        </extensions>
      </trkpt>
      <trkpt lat="42.5342732481658458709716796875" lon="20.1631181873381137847900390625">
        <ele>1884.5999755859375</ele>
        <time>2026-06-20T08:39:50.000Z</time>
        <extensions>
          <ns3:TrackPointExtension>
            <ns3:atemp>24.0</ns3:atemp>
          </ns3:TrackPointExtension>
        </extensions>
      </trkpt>
      <trkpt lat="42.534284479916095733642578125" lon="20.16317610628902912139892578125">
        <ele>1883.4000244140625</ele>
        <time>2026-06-20T08:39:51.000Z</time>
        <extensions>
          <ns3:TrackPointExtension>
            <ns3:atemp>24.0</ns3:atemp>
          </ns3:TrackPointExtension>
        </extensions>
      </trkpt>
      <trkpt lat="42.5342987291514873504638671875" lon="20.16323913820087909698486328125">
        <ele>1882.4000244140625</ele>
        <time>2026-06-20T08:39:52.000Z</time>
        <extensions>
          <ns3:TrackPointExtension>
            <ns3:atemp>24.0</ns3:atemp>
          </ns3:TrackPointExtension>
        </extensions>
      </trkpt>
      <trkpt lat="42.53432094119489192962646484375" lon="20.16330736689269542694091796875">
        <ele>1881.199951171875</ele>
        <time>2026-06-20T08:39:53.000Z</time>
        <extensions>
          <ns3:TrackPointExtension>
            <ns3:atemp>24.0</ns3:atemp>
          </ns3:TrackPointExtension>
        </extensions>
      </trkpt>
      <trkpt lat="42.53435212187469005584716796875" lon="20.1633713208138942718505859375">
        <ele>1879.5999755859375</ele>
        <time>2026-06-20T08:39:54.000Z</time>
        <extensions>
          <ns3:TrackPointExtension>
            <ns3:atemp>24.0</ns3:atemp>
          </ns3:TrackPointExtension>
        </extensions>
      </trkpt>
      <trkpt lat="42.5343848951160907745361328125" lon="20.1634343527257442474365234375">
        <ele>1878.4000244140625</ele>
        <time>2026-06-20T08:39:55.000Z</time>
        <extensions>
          <ns3:TrackPointExtension>
            <ns3:atemp>24.0</ns3:atemp>
          </ns3:TrackPointExtension>
        </extensions>
      </trkpt>
      <trkpt lat="42.5344224460422992706298828125" lon="20.163503251969814300537109375">
        <ele>1877</ele>
        <time>2026-06-20T08:39:56.000Z</time>
        <extensions>
          <ns3:TrackPointExtension>
            <ns3:atemp>24.0</ns3:atemp>
          </ns3:TrackPointExtension>
        </extensions>
      </trkpt>
      <trkpt lat="42.53446443937718868255615234375" lon="20.16355211846530437469482421875">
        <ele>1875.5999755859375</ele>
        <time>2026-06-20T08:39:57.000Z</time>
        <extensions>
          <ns3:TrackPointExtension>
            <ns3:atemp>24.0</ns3:atemp>
          </ns3:TrackPointExtension>
        </extensions>
      </trkpt>
      <trkpt lat="42.53450701944530010223388671875" lon="20.16359469853341579437255859375">
        <ele>1874.4000244140625</ele>
        <time>2026-06-20T08:39:58.000Z</time>
        <extensions>
          <ns3:TrackPointExtension>
            <ns3:atemp>24.0</ns3:atemp>
          </ns3:TrackPointExtension>
        </extensions>
      </trkpt>
      <trkpt lat="42.5345478393137454986572265625" lon="20.1636361889541149139404296875">
        <ele>1873.4000244140625</ele>
        <time>2026-06-20T08:39:59.000Z</time>
        <extensions>
          <ns3:TrackPointExtension>
            <ns3:atemp>24.0</ns3:atemp>
          </ns3:TrackPointExtension>
        </extensions>
      </trkpt>
      <trkpt lat="42.5345689617097377777099609375" lon="20.16367499716579914093017578125">
        <ele>1872.4000244140625</ele>
        <time>2026-06-20T08:40:00.000Z</time>
        <extensions>
          <ns3:TrackPointExtension>
            <ns3:atemp>24.0</ns3:atemp>
          </ns3:TrackPointExtension>
        </extensions>
      </trkpt>
      <trkpt lat="42.534570135176181793212890625" lon="20.1637114584445953369140625">
        <ele>1871.4000244140625</ele>
        <time>2026-06-20T08:40:01.000Z</time>
        <extensions>
          <ns3:TrackPointExtension>
            <ns3:atemp>24.0</ns3:atemp>
          </ns3:TrackPointExtension>
        </extensions>
      </trkpt>
      <trkpt lat="42.5345550477504730224609375" lon="20.16374708153307437896728515625">
        <ele>1870.800048828125</ele>
        <time>2026-06-20T08:40:02.000Z</time>
        <extensions>
          <ns3:TrackPointExtension>
            <ns3:atemp>24.0</ns3:atemp>
          </ns3:TrackPointExtension>
        </extensions>
      </trkpt>
      <trkpt lat="42.53453250043094158172607421875" lon="20.163771472871303558349609375">
        <ele>1870</ele>
        <time>2026-06-20T08:40:03.000Z</time>
        <extensions>
          <ns3:TrackPointExtension>
            <ns3:atemp>24.0</ns3:atemp>
          </ns3:TrackPointExtension>
        </extensions>
      </trkpt>
      <trkpt lat="42.53450517542660236358642578125" lon="20.16377926804125308990478515625">
        <ele>1868.800048828125</ele>
        <time>2026-06-20T08:40:04.000Z</time>
        <extensions>
          <ns3:TrackPointExtension>
            <ns3:atemp>24.0</ns3:atemp>
          </ns3:TrackPointExtension>
        </extensions>
      </trkpt>
      <trkpt lat="42.5344690494239330291748046875" lon="20.1637820340692996978759765625">
        <ele>1868.199951171875</ele>
        <time>2026-06-20T08:40:05.000Z</time>
        <extensions>
          <ns3:TrackPointExtension>
            <ns3:atemp>24.0</ns3:atemp>
          </ns3:TrackPointExtension>
        </extensions>
      </trkpt>
      <trkpt lat="42.53442554734647274017333984375" lon="20.16377809457480907440185546875">
        <ele>1867.4000244140625</ele>
        <time>2026-06-20T08:40:06.000Z</time>
        <extensions>
          <ns3:TrackPointExtension>
            <ns3:atemp>24.0</ns3:atemp>
          </ns3:TrackPointExtension>
        </extensions>
      </trkpt>
      <trkpt lat="42.53437575884163379669189453125" lon="20.1637806929647922515869140625">
        <ele>1866.5999755859375</ele>
        <time>2026-06-20T08:40:07.000Z</time>
        <extensions>
          <ns3:TrackPointExtension>
            <ns3:atemp>24.0</ns3:atemp>
          </ns3:TrackPointExtension>
        </extensions>
      </trkpt>
      <trkpt lat="42.53432630561292171478271484375" lon="20.16378044150769710540771484375">
        <ele>1865.5999755859375</ele>
        <time>2026-06-20T08:40:08.000Z</time>
        <extensions>
          <ns3:TrackPointExtension>
            <ns3:atemp>24.0</ns3:atemp>
          </ns3:TrackPointExtension>
        </extensions>
      </trkpt>
      <trkpt lat="42.534291855990886688232421875" lon="20.1637696288526058197021484375">
        <ele>1864.800048828125</ele>
        <time>2026-06-20T08:40:09.000Z</time>
        <extensions>
          <ns3:TrackPointExtension>
            <ns3:atemp>24.0</ns3:atemp>
          </ns3:TrackPointExtension>
        </extensions>
      </trkpt>
      <trkpt lat="42.53427542746067047119140625" lon="20.1637418009340763092041015625">
        <ele>1864</ele>
        <time>2026-06-20T08:40:10.000Z</time>
        <extensions>
          <ns3:TrackPointExtension>
            <ns3:atemp>24.0</ns3:atemp>
          </ns3:TrackPointExtension>
        </extensions>
      </trkpt>
      <trkpt lat="42.53426478244364261627197265625" lon="20.16369980759918689727783203125">
        <ele>1863.5999755859375</ele>
        <time>2026-06-20T08:40:11.000Z</time>
        <extensions>
          <ns3:TrackPointExtension>
            <ns3:atemp>24.0</ns3:atemp>
          </ns3:TrackPointExtension>
        </extensions>
      </trkpt>
      <trkpt lat="42.5342538021504878997802734375" lon="20.16364851035177707672119140625">
        <ele>1863.4000244140625</ele>
        <time>2026-06-20T08:40:12.000Z</time>
        <extensions>
          <ns3:TrackPointExtension>
            <ns3:atemp>24.0</ns3:atemp>
          </ns3:TrackPointExtension>
        </extensions>
      </trkpt>
      <trkpt lat="42.53423326648771762847900390625" lon="20.16361079178750514984130859375">
        <ele>1862.800048828125</ele>
        <time>2026-06-20T08:40:13.000Z</time>
        <extensions>
          <ns3:TrackPointExtension>
            <ns3:atemp>24.0</ns3:atemp>
          </ns3:TrackPointExtension>
        </extensions>
      </trkpt>
      <trkpt lat="42.53421080298721790313720703125" lon="20.16359972767531871795654296875">
        <ele>1862.199951171875</ele>
        <time>2026-06-20T08:40:14.000Z</time>
        <extensions>
          <ns3:TrackPointExtension>
            <ns3:atemp>24.0</ns3:atemp>
          </ns3:TrackPointExtension>
        </extensions>
      </trkpt>
      <trkpt lat="42.53419286571443080902099609375" lon="20.16359738074243068695068359375">
        <ele>1861.800048828125</ele>
        <time>2026-06-20T08:40:15.000Z</time>
        <extensions>
          <ns3:TrackPointExtension>
            <ns3:atemp>24.0</ns3:atemp>
          </ns3:TrackPointExtension>
        </extensions>
      </trkpt>
      <trkpt lat="42.53417978994548320770263671875" lon="20.16359771601855754852294921875">
        <ele>1861.4000244140625</ele>
        <time>2026-06-20T08:40:16.000Z</time>
        <extensions>
          <ns3:TrackPointExtension>
            <ns3:atemp>24.0</ns3:atemp>
          </ns3:TrackPointExtension>
        </extensions>
      </trkpt>
      <trkpt lat="42.5341634452342987060546875" lon="20.16360643319785594940185546875">
        <ele>1861.199951171875</ele>
        <time>2026-06-20T08:40:17.000Z</time>
        <extensions>
          <ns3:TrackPointExtension>
            <ns3:atemp>24.0</ns3:atemp>
          </ns3:TrackPointExtension>
        </extensions>
      </trkpt>
      <trkpt lat="42.5341461785137653350830078125" lon="20.1636184193193912506103515625">
        <ele>1861</ele>
        <time>2026-06-20T08:40:18.000Z</time>
        <extensions>
          <ns3:TrackPointExtension>
            <ns3:atemp>24.0</ns3:atemp>
          </ns3:TrackPointExtension>
        </extensions>
      </trkpt>
      <trkpt lat="42.53412790596485137939453125" lon="20.163631998002529144287109375">
        <ele>1861.199951171875</ele>
        <time>2026-06-20T08:40:19.000Z</time>
        <extensions>
          <ns3:TrackPointExtension>
            <ns3:atemp>24.0</ns3:atemp>
          </ns3:TrackPointExtension>
        </extensions>
      </trkpt>
      <trkpt lat="42.5341076217591762542724609375" lon="20.16364549286663532257080078125">
        <ele>1861.199951171875</ele>
        <time>2026-06-20T08:40:20.000Z</time>
        <extensions>
          <ns3:TrackPointExtension>
            <ns3:atemp>24.0</ns3:atemp>
          </ns3:TrackPointExtension>
        </extensions>
      </trkpt>
      <trkpt lat="42.53408641554415225982666015625" lon="20.163658149540424346923828125">
        <ele>1861.199951171875</ele>
        <time>2026-06-20T08:40:21.000Z</time>
        <extensions>
          <ns3:TrackPointExtension>
            <ns3:atemp>24.0</ns3:atemp>
          </ns3:TrackPointExtension>
        </extensions>
      </trkpt>
      <trkpt lat="42.5340620242059230804443359375" lon="20.16367281787097454071044921875">
        <ele>1861.4000244140625</ele>
        <time>2026-06-20T08:40:22.000Z</time>
        <extensions>
          <ns3:TrackPointExtension>
            <ns3:atemp>24.0</ns3:atemp>
          </ns3:TrackPointExtension>
        </extensions>
      </trkpt>
      <trkpt lat="42.5340352021157741546630859375" lon="20.163691341876983642578125">
        <ele>1861.4000244140625</ele>
        <time>2026-06-20T08:40:23.000Z</time>
        <extensions>
          <ns3:TrackPointExtension>
            <ns3:atemp>24.0</ns3:atemp>
          </ns3:TrackPointExtension>
        </extensions>
      </trkpt>
      <trkpt lat="42.5340070389211177825927734375" lon="20.16371774487197399139404296875">
        <ele>1861.199951171875</ele>
        <time>2026-06-20T08:40:24.000Z</time>
        <extensions>
          <ns3:TrackPointExtension>
            <ns3:atemp>24.0</ns3:atemp>
          </ns3:TrackPointExtension>
        </extensions>
      </trkpt>
      <trkpt lat="42.533980049192905426025390625" lon="20.16375311650335788726806640625">
        <ele>1860.800048828125</ele>
        <time>2026-06-20T08:40:25.000Z</time>
        <extensions>
          <ns3:TrackPointExtension>
            <ns3:atemp>24.0</ns3:atemp>
          </ns3:TrackPointExtension>
        </extensions>
      </trkpt>
      <trkpt lat="42.5339517183601856231689453125" lon="20.16378714703023433685302734375">
        <ele>1860.5999755859375</ele>
        <time>2026-06-20T08:40:26.000Z</time>
        <extensions>
          <ns3:TrackPointExtension>
            <ns3:atemp>24.0</ns3:atemp>
          </ns3:TrackPointExtension>
        </extensions>
      </trkpt>
      <trkpt lat="42.53392816521227359771728515625" lon="20.1638319902122020721435546875">
        <ele>1860.199951171875</ele>
        <time>2026-06-20T08:40:27.000Z</time>
        <extensions>
          <ns3:TrackPointExtension>
            <ns3:atemp>24.0</ns3:atemp>
          </ns3:TrackPointExtension>
        </extensions>
      </trkpt>
      <trkpt lat="42.5339101441204547882080078125" lon="20.16387976706027984619140625">
        <ele>1860.199951171875</ele>
        <time>2026-06-20T08:40:28.000Z</time>
        <extensions>
          <ns3:TrackPointExtension>
            <ns3:atemp>24.0</ns3:atemp>
          </ns3:TrackPointExtension>
        </extensions>
      </trkpt>
      <trkpt lat="42.5338925421237945556640625" lon="20.16392125748097896575927734375">
        <ele>1860.199951171875</ele>
        <time>2026-06-20T08:40:29.000Z</time>
        <extensions>
          <ns3:TrackPointExtension>
            <ns3:atemp>24.0</ns3:atemp>
          </ns3:TrackPointExtension>
        </extensions>
      </trkpt>
      <trkpt lat="42.53387569449841976165771484375" lon="20.16396450810134410858154296875">
        <ele>1860.199951171875</ele>
        <time>2026-06-20T08:40:30.000Z</time>
        <extensions>
          <ns3:TrackPointExtension>
            <ns3:atemp>24.0</ns3:atemp>
          </ns3:TrackPointExtension>
        </extensions>
      </trkpt>
      <trkpt lat="42.533851973712444305419921875" lon="20.1640033163130283355712890625">
        <ele>1860.199951171875</ele>
        <time>2026-06-20T08:40:31.000Z</time>
        <extensions>
          <ns3:TrackPointExtension>
            <ns3:atemp>24.0</ns3:atemp>
          </ns3:TrackPointExtension>
        </extensions>
      </trkpt>
      <trkpt lat="42.53382615745067596435546875" lon="20.16404195688664913177490234375">
        <ele>1860.4000244140625</ele>
        <time>2026-06-20T08:40:32.000Z</time>
        <extensions>
          <ns3:TrackPointExtension>
            <ns3:atemp>24.0</ns3:atemp>
          </ns3:TrackPointExtension>
        </extensions>
      </trkpt>
      <trkpt lat="42.53379338420927524566650390625" lon="20.16407749615609645843505859375">
        <ele>1860.4000244140625</ele>
        <time>2026-06-20T08:40:33.000Z</time>
        <extensions>
          <ns3:TrackPointExtension>
            <ns3:atemp>24.0</ns3:atemp>
          </ns3:TrackPointExtension>
        </extensions>
      </trkpt>
      <trkpt lat="42.53375499509274959564208984375" lon="20.16411043703556060791015625">
        <ele>1860.199951171875</ele>
        <time>2026-06-20T08:40:34.000Z</time>
        <extensions>
          <ns3:TrackPointExtension>
            <ns3:atemp>24.0</ns3:atemp>
          </ns3:TrackPointExtension>
        </extensions>
      </trkpt>
      <trkpt lat="42.533715181052684783935546875" lon="20.1641347445547580718994140625">
        <ele>1860</ele>
        <time>2026-06-20T08:40:35.000Z</time>
        <extensions>
          <ns3:TrackPointExtension>
            <ns3:atemp>24.0</ns3:atemp>
          </ns3:TrackPointExtension>
        </extensions>
      </trkpt>
      <trkpt lat="42.53368140198290348052978515625" lon="20.164155028760433197021484375">
        <ele>1859.800048828125</ele>
        <time>2026-06-20T08:40:36.000Z</time>
        <extensions>
          <ns3:TrackPointExtension>
            <ns3:atemp>24.0</ns3:atemp>
          </ns3:TrackPointExtension>
        </extensions>
      </trkpt>
      <trkpt lat="42.5336523167788982391357421875" lon="20.1641696132719516754150390625">
        <ele>1859.4000244140625</ele>
        <time>2026-06-20T08:40:37.000Z</time>
        <extensions>
          <ns3:TrackPointExtension>
            <ns3:atemp>24.0</ns3:atemp>
          </ns3:TrackPointExtension>
        </extensions>
      </trkpt>
      <trkpt lat="42.53362641669809818267822265625" lon="20.16418092884123325347900390625">
        <ele>1859</ele>
        <time>2026-06-20T08:40:38.000Z</time>
        <extensions>
          <ns3:TrackPointExtension>
            <ns3:atemp>24.0</ns3:atemp>
          </ns3:TrackPointExtension>
        </extensions>
      </trkpt>
      <trkpt lat="42.5336010195314884185791015625" lon="20.1641924120485782623291015625">
        <ele>1858.800048828125</ele>
        <time>2026-06-20T08:40:39.000Z</time>
        <extensions>
          <ns3:TrackPointExtension>
            <ns3:atemp>24.0</ns3:atemp>
          </ns3:TrackPointExtension>
        </extensions>
      </trkpt>
      <trkpt lat="42.53357176668941974639892578125" lon="20.16421194188296794891357421875">
        <ele>1858.5999755859375</ele>
        <time>2026-06-20T08:40:40.000Z</time>
        <extensions>
          <ns3:TrackPointExtension>
            <ns3:atemp>24.0</ns3:atemp>
          </ns3:TrackPointExtension>
        </extensions>
      </trkpt>
      <trkpt lat="42.53355483524501323699951171875" lon="20.16423256136476993560791015625">
        <ele>1858.199951171875</ele>
        <time>2026-06-20T08:40:41.000Z</time>
        <extensions>
          <ns3:TrackPointExtension>
            <ns3:atemp>24.0</ns3:atemp>
          </ns3:TrackPointExtension>
        </extensions>
      </trkpt>
      <trkpt lat="42.53354628570377826690673828125" lon="20.16425653360784053802490234375">
        <ele>1858</ele>
        <time>2026-06-20T08:40:42.000Z</time>
        <extensions>
          <ns3:TrackPointExtension>
            <ns3:atemp>24.0</ns3:atemp>
          </ns3:TrackPointExtension>
        </extensions>
      </trkpt>
      <trkpt lat="42.5335383228957653045654296875" lon="20.16428184695541858673095703125">
        <ele>1857.800048828125</ele>
        <time>2026-06-20T08:40:43.000Z</time>
        <extensions>
          <ns3:TrackPointExtension>
            <ns3:atemp>24.0</ns3:atemp>
          </ns3:TrackPointExtension>
        </extensions>
      </trkpt>
      <trkpt lat="42.533528767526149749755859375" lon="20.16429953277111053466796875">
        <ele>1857.800048828125</ele>
        <time>2026-06-20T08:40:44.000Z</time>
        <extensions>
          <ns3:TrackPointExtension>
            <ns3:atemp>24.0</ns3:atemp>
          </ns3:TrackPointExtension>
        </extensions>
      </trkpt>
      <trkpt lat="42.53351929597556591033935546875" lon="20.16431855969130992889404296875">
        <ele>1857.800048828125</ele>
        <time>2026-06-20T08:40:45.000Z</time>
        <extensions>
          <ns3:TrackPointExtension>
            <ns3:atemp>24.0</ns3:atemp>
          </ns3:TrackPointExtension>
        </extensions>
      </trkpt>
      <trkpt lat="42.5335135124623775482177734375" lon="20.16433716751635074615478515625">
        <ele>1858</ele>
        <time>2026-06-20T08:40:46.000Z</time>
        <extensions>
          <ns3:TrackPointExtension>
            <ns3:atemp>24.0</ns3:atemp>
          </ns3:TrackPointExtension>
        </extensions>
      </trkpt>
      <trkpt lat="42.5335074774920940399169921875" lon="20.164361894130706787109375">
        <ele>1858</ele>
        <time>2026-06-20T08:40:47.000Z</time>
        <extensions>
          <ns3:TrackPointExtension>
            <ns3:atemp>24.0</ns3:atemp>
          </ns3:TrackPointExtension>
        </extensions>
      </trkpt>
      <trkpt lat="42.5334982573986053466796875" lon="20.16438670456409454345703125">
        <ele>1858</ele>
        <time>2026-06-20T08:40:48.000Z</time>
        <extensions>
          <ns3:TrackPointExtension>
            <ns3:atemp>24.0</ns3:atemp>
          </ns3:TrackPointExtension>
        </extensions>
      </trkpt>
      <trkpt lat="42.53349029459059238433837890625" lon="20.16441461630165576934814453125">
        <ele>1857.800048828125</ele>
        <time>2026-06-20T08:40:49.000Z</time>
        <extensions>
          <ns3:TrackPointExtension>
            <ns3:atemp>24.0</ns3:atemp>
          </ns3:TrackPointExtension>
        </extensions>
      </trkpt>
      <trkpt lat="42.53347747027873992919921875" lon="20.164443366229534149169921875">
        <ele>1857.800048828125</ele>
        <time>2026-06-20T08:40:50.000Z</time>
        <extensions>
          <ns3:TrackPointExtension>
            <ns3:atemp>24.0</ns3:atemp>
          </ns3:TrackPointExtension>
        </extensions>
      </trkpt>
      <trkpt lat="42.53346581943333148956298828125" lon="20.16447379253804683685302734375">
        <ele>1857.5999755859375</ele>
        <time>2026-06-20T08:40:51.000Z</time>
        <extensions>
          <ns3:TrackPointExtension>
            <ns3:atemp>24.0</ns3:atemp>
          </ns3:TrackPointExtension>
        </extensions>
      </trkpt>
      <trkpt lat="42.53344570286571979522705078125" lon="20.1645045541226863861083984375">
        <ele>1857.4000244140625</ele>
        <time>2026-06-20T08:40:52.000Z</time>
        <extensions>
          <ns3:TrackPointExtension>
            <ns3:atemp>24.0</ns3:atemp>
          </ns3:TrackPointExtension>
        </extensions>
      </trkpt>
      <trkpt lat="42.53342424519360065460205078125" lon="20.16453648917376995086669921875">
        <ele>1857.199951171875</ele>
        <time>2026-06-20T08:40:53.000Z</time>
        <extensions>
          <ns3:TrackPointExtension>
            <ns3:atemp>24.0</ns3:atemp>
          </ns3:TrackPointExtension>
        </extensions>
      </trkpt>
      <trkpt lat="42.5333971716463565826416015625" lon="20.164565406739711761474609375">
        <ele>1857</ele>
        <time>2026-06-20T08:40:54.000Z</time>
        <extensions>
          <ns3:TrackPointExtension>
            <ns3:atemp>24.0</ns3:atemp>
          </ns3:TrackPointExtension>
        </extensions>
      </trkpt>
      <trkpt lat="42.53336255438625812530517578125" lon="20.16459080390632152557373046875">
        <ele>1857</ele>
        <time>2026-06-20T08:40:55.000Z</time>
        <extensions>
          <ns3:TrackPointExtension>
            <ns3:atemp>24.0</ns3:atemp>
          </ns3:TrackPointExtension>
        </extensions>
      </trkpt>
      <trkpt lat="42.53332315944135189056396484375" lon="20.16460991464555263519287109375">
        <ele>1857</ele>
        <time>2026-06-20T08:40:56.000Z</time>
        <extensions>
          <ns3:TrackPointExtension>
            <ns3:atemp>24.0</ns3:atemp>
          </ns3:TrackPointExtension>
        </extensions>
      </trkpt>
      <trkpt lat="42.533277310431003570556640625" lon="20.1646336354315280914306640625">
        <ele>1856.800048828125</ele>
        <time>2026-06-20T08:40:57.000Z</time>
        <extensions>
          <ns3:TrackPointExtension>
            <ns3:atemp>24.0</ns3:atemp>
          </ns3:TrackPointExtension>
        </extensions>
      </trkpt>
      <trkpt lat="42.53322643227875232696533203125" lon="20.1646554283797740936279296875">
        <ele>1856.4000244140625</ele>
        <time>2026-06-20T08:40:58.000Z</time>
        <extensions>
          <ns3:TrackPointExtension>
            <ns3:atemp>24.0</ns3:atemp>
          </ns3:TrackPointExtension>
        </extensions>
      </trkpt>
      <trkpt lat="42.53316993825137615203857421875" lon="20.16467311419546604156494140625">
        <ele>1856</ele>
        <time>2026-06-20T08:40:59.000Z</time>
        <extensions>
          <ns3:TrackPointExtension>
            <ns3:atemp>24.0</ns3:atemp>
          </ns3:TrackPointExtension>
        </extensions>
      </trkpt>
      <trkpt lat="42.53311310894787311553955078125" lon="20.1646835915744304656982421875">
        <ele>1855.5999755859375</ele>
        <time>2026-06-20T08:41:00.000Z</time>
        <extensions>
          <ns3:TrackPointExtension>
            <ns3:atemp>24.0</ns3:atemp>
          </ns3:TrackPointExtension>
        </extensions>
      </trkpt>
      <trkpt lat="42.53305342979729175567626953125" lon="20.1646936498582363128662109375">
        <ele>1855.199951171875</ele>
        <time>2026-06-20T08:41:01.000Z</time>
        <extensions>
          <ns3:TrackPointExtension>
            <ns3:atemp>24.0</ns3:atemp>
          </ns3:TrackPointExtension>
        </extensions>
      </trkpt>
      <trkpt lat="42.5329911522567272186279296875" lon="20.16470395959913730621337890625">
        <ele>1854.800048828125</ele>
        <time>2026-06-20T08:41:02.000Z</time>
        <extensions>
          <ns3:TrackPointExtension>
            <ns3:atemp>24.0</ns3:atemp>
          </ns3:TrackPointExtension>
        </extensions>
      </trkpt>
      <trkpt lat="42.53292552195489406585693359375" lon="20.16472357325255870819091796875">
        <ele>1854.4000244140625</ele>
        <time>2026-06-20T08:41:03.000Z</time>
        <extensions>
          <ns3:TrackPointExtension>
            <ns3:atemp>24.0</ns3:atemp>
          </ns3:TrackPointExtension>
        </extensions>
      </trkpt>
      <trkpt lat="42.53286047838628292083740234375" lon="20.16472734510898590087890625">
        <ele>1853.800048828125</ele>
        <time>2026-06-20T08:41:04.000Z</time>
        <extensions>
          <ns3:TrackPointExtension>
            <ns3:atemp>24.0</ns3:atemp>
          </ns3:TrackPointExtension>
        </extensions>
      </trkpt>
      <trkpt lat="42.53279945813119411468505859375" lon="20.164729021489620208740234375">
        <ele>1853.4000244140625</ele>
        <time>2026-06-20T08:41:05.000Z</time>
        <extensions>
          <ns3:TrackPointExtension>
            <ns3:atemp>24.0</ns3:atemp>
          </ns3:TrackPointExtension>
        </extensions>
      </trkpt>
      <trkpt lat="42.53274120390415191650390625" lon="20.16472089104354381561279296875">
        <ele>1852.800048828125</ele>
        <time>2026-06-20T08:41:06.000Z</time>
        <extensions>
          <ns3:TrackPointExtension>
            <ns3:atemp>24.0</ns3:atemp>
          </ns3:TrackPointExtension>
        </extensions>
      </trkpt>
      <trkpt lat="42.53268755972385406494140625" lon="20.16470395959913730621337890625">
        <ele>1852.4000244140625</ele>
        <time>2026-06-20T08:41:07.000Z</time>
        <extensions>
          <ns3:TrackPointExtension>
            <ns3:atemp>24.0</ns3:atemp>
          </ns3:TrackPointExtension>
        </extensions>
      </trkpt>
      <trkpt lat="42.5326345860958099365234375" lon="20.16468954272568225860595703125">
        <ele>1852</ele>
        <time>2026-06-20T08:41:08.000Z</time>
        <extensions>
          <ns3:TrackPointExtension>
            <ns3:atemp>24.0</ns3:atemp>
          </ns3:TrackPointExtension>
        </extensions>
      </trkpt>
      <trkpt lat="42.53258429467678070068359375" lon="20.16469825990498065948486328125">
        <ele>1851.4000244140625</ele>
        <time>2026-06-20T08:41:09.000Z</time>
        <extensions>
          <ns3:TrackPointExtension>
            <ns3:atemp>24.0</ns3:atemp>
          </ns3:TrackPointExtension>
        </extensions>
      </trkpt>
      <trkpt lat="42.5325445644557476043701171875" lon="20.1647171191871166229248046875">
        <ele>1851</ele>
        <time>2026-06-20T08:41:10.000Z</time>
        <extensions>
          <ns3:TrackPointExtension>
            <ns3:atemp>24.0</ns3:atemp>
          </ns3:TrackPointExtension>
        </extensions>
      </trkpt>
      <trkpt lat="42.53250760026276111602783203125" lon="20.164731703698635101318359375">
        <ele>1851</ele>
        <time>2026-06-20T08:41:11.000Z</time>
        <extensions>
          <ns3:TrackPointExtension>
            <ns3:atemp>24.0</ns3:atemp>
          </ns3:TrackPointExtension>
        </extensions>
      </trkpt>
      <trkpt lat="42.53247105516493320465087890625" lon="20.1647360622882843017578125">
        <ele>1850.800048828125</ele>
        <time>2026-06-20T08:41:12.000Z</time>
        <extensions>
          <ns3:TrackPointExtension>
            <ns3:atemp>24.0</ns3:atemp>
          </ns3:TrackPointExtension>
        </extensions>
      </trkpt>
      <trkpt lat="42.53243551589548587799072265625" lon="20.16473631374537944793701171875">
        <ele>1850.5999755859375</ele>
        <time>2026-06-20T08:41:13.000Z</time>
        <extensions>
          <ns3:TrackPointExtension>
            <ns3:atemp>24.0</ns3:atemp>
          </ns3:TrackPointExtension>
        </extensions>
      </trkpt>
      <trkpt lat="42.53239830024540424346923828125" lon="20.164739750325679779052734375">
        <ele>1850.800048828125</ele>
        <time>2026-06-20T08:41:14.000Z</time>
        <extensions>
          <ns3:TrackPointExtension>
            <ns3:atemp>24.0</ns3:atemp>
          </ns3:TrackPointExtension>
        </extensions>
      </trkpt>
      <trkpt lat="42.53235857002437114715576171875" lon="20.16474721021950244903564453125">
        <ele>1850.800048828125</ele>
        <time>2026-06-20T08:41:15.000Z</time>
        <extensions>
          <ns3:TrackPointExtension>
            <ns3:atemp>24.0</ns3:atemp>
          </ns3:TrackPointExtension>
        </extensions>
      </trkpt>
      <trkpt lat="42.53231900744140148162841796875" lon="20.16475391574203968048095703125">
        <ele>1850.800048828125</ele>
        <time>2026-06-20T08:41:16.000Z</time>
        <extensions>
          <ns3:TrackPointExtension>
            <ns3:atemp>24.0</ns3:atemp>
          </ns3:TrackPointExtension>
        </extensions>
      </trkpt>
      <trkpt lat="42.5322880782186985015869140625" lon="20.16476179473102092742919921875">
        <ele>1850.800048828125</ele>
        <time>2026-06-20T08:41:17.000Z</time>
        <extensions>
          <ns3:TrackPointExtension>
            <ns3:atemp>24.0</ns3:atemp>
          </ns3:TrackPointExtension>
        </extensions>
      </trkpt>
      <trkpt lat="42.5322625972330570220947265625" lon="20.16476665623486042022705078125">
        <ele>1850.5999755859375</ele>
        <time>2026-06-20T08:41:18.000Z</time>
        <extensions>
          <ns3:TrackPointExtension>
            <ns3:atemp>24.0</ns3:atemp>
          </ns3:TrackPointExtension>
        </extensions>
      </trkpt>
      <trkpt lat="42.5322418101131916046142578125" lon="20.16476850025355815887451171875">
        <ele>1850.800048828125</ele>
        <time>2026-06-20T08:41:19.000Z</time>
        <extensions>
          <ns3:TrackPointExtension>
            <ns3:atemp>24.0</ns3:atemp>
          </ns3:TrackPointExtension>
        </extensions>
      </trkpt>
      <trkpt lat="42.5322233699262142181396484375" lon="20.16477704979479312896728515625">
        <ele>1850.800048828125</ele>
        <time>2026-06-20T08:41:20.000Z</time>
        <extensions>
          <ns3:TrackPointExtension>
            <ns3:atemp>24.0</ns3:atemp>
          </ns3:TrackPointExtension>
        </extensions>
      </trkpt>
      <trkpt lat="42.53220300190150737762451171875" lon="20.16478794626891613006591796875">
        <ele>1851</ele>
        <time>2026-06-20T08:41:21.000Z</time>
        <extensions>
          <ns3:TrackPointExtension>
            <ns3:atemp>24.0</ns3:atemp>
          </ns3:TrackPointExtension>
        </extensions>
      </trkpt>
      <trkpt lat="42.532181628048419952392578125" lon="20.16480336897075176239013671875">
        <ele>1851</ele>
        <time>2026-06-20T08:41:22.000Z</time>
        <extensions>
          <ns3:TrackPointExtension>
            <ns3:atemp>24.0</ns3:atemp>
          </ns3:TrackPointExtension>
        </extensions>
      </trkpt>
      <trkpt lat="42.53215824253857135772705078125" lon="20.16481258906424045562744140625">
        <ele>1851</ele>
        <time>2026-06-20T08:41:23.000Z</time>
        <extensions>
          <ns3:TrackPointExtension>
            <ns3:atemp>24.0</ns3:atemp>
          </ns3:TrackPointExtension>
        </extensions>
      </trkpt>
      <trkpt lat="42.53213225863873958587646484375" lon="20.16482348553836345672607421875">
        <ele>1851</ele>
        <time>2026-06-20T08:41:24.000Z</time>
        <extensions>
          <ns3:TrackPointExtension>
            <ns3:atemp>24.0</ns3:atemp>
          </ns3:TrackPointExtension>
        </extensions>
      </trkpt>
      <trkpt lat="42.5321102142333984375" lon="20.16482985578477382659912109375">
        <ele>1850.800048828125</ele>
        <time>2026-06-20T08:41:25.000Z</time>
        <extensions>
          <ns3:TrackPointExtension>
            <ns3:atemp>24.0</ns3:atemp>
          </ns3:TrackPointExtension>
        </extensions>
      </trkpt>
      <trkpt lat="42.53208649344742298126220703125" lon="20.16483907587826251983642578125">
        <ele>1850.800048828125</ele>
        <time>2026-06-20T08:41:26.000Z</time>
        <extensions>
          <ns3:TrackPointExtension>
            <ns3:atemp>24.0</ns3:atemp>
          </ns3:TrackPointExtension>
        </extensions>
      </trkpt>
      <trkpt lat="42.53206218592822551727294921875" lon="20.16484091989696025848388671875">
        <ele>1850.800048828125</ele>
        <time>2026-06-20T08:41:27.000Z</time>
        <extensions>
          <ns3:TrackPointExtension>
            <ns3:atemp>24.0</ns3:atemp>
          </ns3:TrackPointExtension>
        </extensions>
      </trkpt>
      <trkpt lat="42.5320386327803134918212890625" lon="20.1648391596972942352294921875">
        <ele>1850.5999755859375</ele>
        <time>2026-06-20T08:41:28.000Z</time>
        <extensions>
          <ns3:TrackPointExtension>
            <ns3:atemp>24.0</ns3:atemp>
          </ns3:TrackPointExtension>
        </extensions>
      </trkpt>
      <trkpt lat="42.53201256506145000457763671875" lon="20.16484494321048259735107421875">
        <ele>1850.4000244140625</ele>
        <time>2026-06-20T08:41:29.000Z</time>
        <extensions>
          <ns3:TrackPointExtension>
            <ns3:atemp>24.0</ns3:atemp>
          </ns3:TrackPointExtension>
        </extensions>
      </trkpt>
      <trkpt lat="42.5319890119135379791259765625" lon="20.1648549176752567291259765625">
        <ele>1850.4000244140625</ele>
        <time>2026-06-20T08:41:30.000Z</time>
        <extensions>
          <ns3:TrackPointExtension>
            <ns3:atemp>24.0</ns3:atemp>
          </ns3:TrackPointExtension>
        </extensions>
      </trkpt>
      <trkpt lat="42.5319712422788143157958984375" lon="20.16486690379679203033447265625">
        <ele>1850.199951171875</ele>
        <time>2026-06-20T08:41:31.000Z</time>
        <extensions>
          <ns3:TrackPointExtension>
            <ns3:atemp>24.0</ns3:atemp>
          </ns3:TrackPointExtension>
        </extensions>
      </trkpt>
      <trkpt lat="42.531954310834407806396484375" lon="20.16487930901348590850830078125">
        <ele>1850.199951171875</ele>
        <time>2026-06-20T08:41:32.000Z</time>
        <extensions>
          <ns3:TrackPointExtension>
            <ns3:atemp>24.0</ns3:atemp>
          </ns3:TrackPointExtension>
        </extensions>
      </trkpt>
      <trkpt lat="42.53193729557096958160400390625" lon="20.1648887805640697479248046875">
        <ele>1850.199951171875</ele>
        <time>2026-06-20T08:41:33.000Z</time>
        <extensions>
          <ns3:TrackPointExtension>
            <ns3:atemp>24.0</ns3:atemp>
          </ns3:TrackPointExtension>
        </extensions>
      </trkpt>
      <trkpt lat="42.53191784955561161041259765625" lon="20.16489741392433643341064453125">
        <ele>1850.199951171875</ele>
        <time>2026-06-20T08:41:34.000Z</time>
        <extensions>
          <ns3:TrackPointExtension>
            <ns3:atemp>24.0</ns3:atemp>
          </ns3:TrackPointExtension>
        </extensions>
      </trkpt>
      <trkpt lat="42.53189991228282451629638671875" lon="20.16490629874169826507568359375">
        <ele>1850.199951171875</ele>
        <time>2026-06-20T08:41:35.000Z</time>
        <extensions>
          <ns3:TrackPointExtension>
            <ns3:atemp>24.0</ns3:atemp>
          </ns3:TrackPointExtension>
        </extensions>
      </trkpt>
      <trkpt lat="42.53187912516295909881591796875" lon="20.1649162732064723968505859375">
        <ele>1850.4000244140625</ele>
        <time>2026-06-20T08:41:36.000Z</time>
        <extensions>
          <ns3:TrackPointExtension>
            <ns3:atemp>24.0</ns3:atemp>
          </ns3:TrackPointExtension>
        </extensions>
      </trkpt>
      <trkpt lat="42.531859092414379119873046875" lon="20.16492574475705623626708984375">
        <ele>1850.4000244140625</ele>
        <time>2026-06-20T08:41:37.000Z</time>
        <extensions>
          <ns3:TrackPointExtension>
            <ns3:atemp>24.0</ns3:atemp>
          </ns3:TrackPointExtension>
        </extensions>
      </trkpt>
      <trkpt lat="42.5318391434848308563232421875" lon="20.16493446193635463714599609375">
        <ele>1850.4000244140625</ele>
        <time>2026-06-20T08:41:38.000Z</time>
        <extensions>
          <ns3:TrackPointExtension>
            <ns3:atemp>24.0</ns3:atemp>
          </ns3:TrackPointExtension>
        </extensions>
      </trkpt>
      <trkpt lat="42.531822212040424346923828125" lon="20.16494653187692165374755859375">
        <ele>1850.4000244140625</ele>
        <time>2026-06-20T08:41:39.000Z</time>
        <extensions>
          <ns3:TrackPointExtension>
            <ns3:atemp>24.0</ns3:atemp>
          </ns3:TrackPointExtension>
        </extensions>
      </trkpt>
      <trkpt lat="42.53180452622473239898681640625" lon="20.16495742835104465484619140625">
        <ele>1850.5999755859375</ele>
        <time>2026-06-20T08:41:40.000Z</time>
        <extensions>
          <ns3:TrackPointExtension>
            <ns3:atemp>24.0</ns3:atemp>
          </ns3:TrackPointExtension>
        </extensions>
      </trkpt>
      <trkpt lat="42.53178901970386505126953125" lon="20.16496413387358188629150390625">
        <ele>1850.5999755859375</ele>
        <time>2026-06-20T08:41:41.000Z</time>
        <extensions>
          <ns3:TrackPointExtension>
            <ns3:atemp>24.0</ns3:atemp>
          </ns3:TrackPointExtension>
        </extensions>
      </trkpt>
      <trkpt lat="42.5317730940878391265869140625" lon="20.164969079196453094482421875">
        <ele>1850.5999755859375</ele>
        <time>2026-06-20T08:41:42.000Z</time>
        <extensions>
          <ns3:TrackPointExtension>
            <ns3:atemp>24.0</ns3:atemp>
          </ns3:TrackPointExtension>
        </extensions>
      </trkpt>
      <trkpt lat="42.53175809048116207122802734375" lon="20.164979808032512664794921875">
        <ele>1850.800048828125</ele>
        <time>2026-06-20T08:41:43.000Z</time>
        <extensions>
          <ns3:TrackPointExtension>
            <ns3:atemp>24.0</ns3:atemp>
          </ns3:TrackPointExtension>
        </extensions>
      </trkpt>
      <trkpt lat="42.5317419134080410003662109375" lon="20.16498726792633533477783203125">
        <ele>1850.800048828125</ele>
        <time>2026-06-20T08:41:44.000Z</time>
        <extensions>
          <ns3:TrackPointExtension>
            <ns3:atemp>24.0</ns3:atemp>
          </ns3:TrackPointExtension>
        </extensions>
      </trkpt>
      <trkpt lat="42.5317241437733173370361328125" lon="20.16499548219144344329833984375">
        <ele>1850.800048828125</ele>
        <time>2026-06-20T08:41:45.000Z</time>
        <extensions>
          <ns3:TrackPointExtension>
            <ns3:atemp>24.0</ns3:atemp>
          </ns3:TrackPointExtension>
        </extensions>
      </trkpt>
      <trkpt lat="42.53171014599502086639404296875" lon="20.16500637866556644439697265625">
        <ele>1851</ele>
        <time>2026-06-20T08:41:46.000Z</time>
        <extensions>
          <ns3:TrackPointExtension>
            <ns3:atemp>24.0</ns3:atemp>
          </ns3:TrackPointExtension>
        </extensions>
      </trkpt>
      <trkpt lat="42.5316996686160564422607421875" lon="20.16501710750162601470947265625">
        <ele>1851.199951171875</ele>
        <time>2026-06-20T08:41:47.000Z</time>
        <extensions>
          <ns3:TrackPointExtension>
            <ns3:atemp>24.0</ns3:atemp>
          </ns3:TrackPointExtension>
        </extensions>
      </trkpt>
      <trkpt lat="42.5316912867128849029541015625" lon="20.1650302670896053314208984375">
        <ele>1851.199951171875</ele>
        <time>2026-06-20T08:41:48.000Z</time>
        <extensions>
          <ns3:TrackPointExtension>
            <ns3:atemp>24.0</ns3:atemp>
          </ns3:TrackPointExtension>
        </extensions>
      </trkpt>
      <trkpt lat="42.5316788814961910247802734375" lon="20.1650433428585529327392578125">
        <ele>1851.4000244140625</ele>
        <time>2026-06-20T08:41:49.000Z</time>
        <extensions>
          <ns3:TrackPointExtension>
            <ns3:atemp>24.0</ns3:atemp>
          </ns3:TrackPointExtension>
        </extensions>
      </trkpt>
      <trkpt lat="42.53166521899402141571044921875" lon="20.16505214385688304901123046875">
        <ele>1851.5999755859375</ele>
        <time>2026-06-20T08:41:50.000Z</time>
        <extensions>
          <ns3:TrackPointExtension>
            <ns3:atemp>24.0</ns3:atemp>
          </ns3:TrackPointExtension>
        </extensions>
      </trkpt>
      <trkpt lat="42.5316528975963592529296875" lon="20.165063627064228057861328125">
        <ele>1851.800048828125</ele>
        <time>2026-06-20T08:41:51.000Z</time>
        <extensions>
          <ns3:TrackPointExtension>
            <ns3:atemp>24.0</ns3:atemp>
          </ns3:TrackPointExtension>
        </extensions>
      </trkpt>
      <trkpt lat="42.53163873217999935150146484375" lon="20.16507427208125591278076171875">
        <ele>1851.800048828125</ele>
        <time>2026-06-20T08:41:52.000Z</time>
        <extensions>
          <ns3:TrackPointExtension>
            <ns3:atemp>24.0</ns3:atemp>
          </ns3:TrackPointExtension>
        </extensions>
      </trkpt>
      <trkpt lat="42.531628422439098358154296875" lon="20.16508952714502811431884765625">
        <ele>1852</ele>
        <time>2026-06-20T08:41:53.000Z</time>
        <extensions>
          <ns3:TrackPointExtension>
            <ns3:atemp>24.0</ns3:atemp>
          </ns3:TrackPointExtension>
        </extensions>
      </trkpt>
      <trkpt lat="42.53161643631756305694580078125" lon="20.16510243527591228485107421875">
        <ele>1852</ele>
        <time>2026-06-20T08:41:54.000Z</time>
        <extensions>
          <ns3:TrackPointExtension>
            <ns3:atemp>24.0</ns3:atemp>
          </ns3:TrackPointExtension>
        </extensions>
      </trkpt>
      <trkpt lat="42.5316037796437740325927734375" lon="20.16510763205587863922119140625">
        <ele>1852.199951171875</ele>
        <time>2026-06-20T08:41:55.000Z</time>
        <extensions>
          <ns3:TrackPointExtension>
            <ns3:atemp>24.0</ns3:atemp>
          </ns3:TrackPointExtension>
        </extensions>
      </trkpt>
      <trkpt lat="42.53158961422741413116455078125" lon="20.16511668451130390167236328125">
        <ele>1852.199951171875</ele>
        <time>2026-06-20T08:41:56.000Z</time>
        <extensions>
          <ns3:TrackPointExtension>
            <ns3:atemp>24.0</ns3:atemp>
          </ns3:TrackPointExtension>
        </extensions>
      </trkpt>
      <trkpt lat="42.5315762870013713836669921875" lon="20.16512104310095310211181640625">
        <ele>1852.4000244140625</ele>
        <time>2026-06-20T08:41:57.000Z</time>
        <extensions>
          <ns3:TrackPointExtension>
            <ns3:atemp>24.0</ns3:atemp>
          </ns3:TrackPointExtension>
        </extensions>
      </trkpt>
      <trkpt lat="42.5315638817846775054931640625" lon="20.1651268266141414642333984375">
        <ele>1852.5999755859375</ele>
        <time>2026-06-20T08:41:58.000Z</time>
        <extensions>
          <ns3:TrackPointExtension>
            <ns3:atemp>24.0</ns3:atemp>
          </ns3:TrackPointExtension>
        </extensions>
      </trkpt>
      <trkpt lat="42.5315509736537933349609375" lon="20.16513638198375701904296875">
        <ele>1852.800048828125</ele>
        <time>2026-06-20T08:41:59.000Z</time>
        <extensions>
          <ns3:TrackPointExtension>
            <ns3:atemp>24.0</ns3:atemp>
          </ns3:TrackPointExtension>
        </extensions>
      </trkpt>
      <trkpt lat="42.53153622150421142578125" lon="20.165139399468898773193359375">
        <ele>1852.800048828125</ele>
        <time>2026-06-20T08:42:00.000Z</time>
        <extensions>
          <ns3:TrackPointExtension>
            <ns3:atemp>24.0</ns3:atemp>
          </ns3:TrackPointExtension>
        </extensions>
      </trkpt>
      <trkpt lat="42.53152037970721721649169921875" lon="20.165150128304958343505859375">
        <ele>1853</ele>
        <time>2026-06-20T08:42:01.000Z</time>
        <extensions>
          <ns3:TrackPointExtension>
            <ns3:atemp>24.0</ns3:atemp>
          </ns3:TrackPointExtension>
        </extensions>
      </trkpt>
      <trkpt lat="42.531503029167652130126953125" lon="20.1651590131223201751708984375">
        <ele>1853.199951171875</ele>
        <time>2026-06-20T08:42:02.000Z</time>
        <extensions>
          <ns3:TrackPointExtension>
            <ns3:atemp>24.0</ns3:atemp>
          </ns3:TrackPointExtension>
        </extensions>
      </trkpt>
      <trkpt lat="42.531488277018070220947265625" lon="20.16517200507223606109619140625">
        <ele>1853.199951171875</ele>
        <time>2026-06-20T08:42:03.000Z</time>
        <extensions>
          <ns3:TrackPointExtension>
            <ns3:atemp>24.0</ns3:atemp>
          </ns3:TrackPointExtension>
        </extensions>
      </trkpt>
      <trkpt lat="42.5314733572304248809814453125" lon="20.16518390737473964691162109375">
        <ele>1853.4000244140625</ele>
        <time>2026-06-20T08:42:04.000Z</time>
        <extensions>
          <ns3:TrackPointExtension>
            <ns3:atemp>24.0</ns3:atemp>
          </ns3:TrackPointExtension>
        </extensions>
      </trkpt>
      <trkpt lat="42.53145667724311351776123046875" lon="20.1651958934962749481201171875">
        <ele>1853.4000244140625</ele>
        <time>2026-06-20T08:42:05.000Z</time>
        <extensions>
          <ns3:TrackPointExtension>
            <ns3:atemp>24.0</ns3:atemp>
          </ns3:TrackPointExtension>
        </extensions>
      </trkpt>
      <trkpt lat="42.53144091926515102386474609375" lon="20.16520989127457141876220703125">
        <ele>1853.5999755859375</ele>
        <time>2026-06-20T08:42:06.000Z</time>
        <extensions>
          <ns3:TrackPointExtension>
            <ns3:atemp>24.0</ns3:atemp>
          </ns3:TrackPointExtension>
        </extensions>
      </trkpt>
      <trkpt lat="42.5314247421920299530029296875" lon="20.1652314327657222747802734375">
        <ele>1853.800048828125</ele>
        <time>2026-06-20T08:42:07.000Z</time>
        <extensions>
          <ns3:TrackPointExtension>
            <ns3:atemp>24.0</ns3:atemp>
          </ns3:TrackPointExtension>
        </extensions>
      </trkpt>
      <trkpt lat="42.53141040913760662078857421875" lon="20.1652537286281585693359375">
        <ele>1853.800048828125</ele>
        <time>2026-06-20T08:42:08.000Z</time>
        <extensions>
          <ns3:TrackPointExtension>
            <ns3:atemp>24.0</ns3:atemp>
          </ns3:TrackPointExtension>
        </extensions>
      </trkpt>
      <trkpt lat="42.5313992612063884735107421875" lon="20.16527761705219745635986328125">
        <ele>1853.800048828125</ele>
        <time>2026-06-20T08:42:09.000Z</time>
        <extensions>
          <ns3:TrackPointExtension>
            <ns3:atemp>24.0</ns3:atemp>
          </ns3:TrackPointExtension>
        </extensions>
      </trkpt>
      <trkpt lat="42.53138744272291660308837890625" lon="20.16530804336071014404296875">
        <ele>1854</ele>
        <time>2026-06-20T08:42:10.000Z</time>
        <extensions>
          <ns3:TrackPointExtension>
            <ns3:atemp>24.0</ns3:atemp>
          </ns3:TrackPointExtension>
        </extensions>
      </trkpt>
      <trkpt lat="42.5313690863549709320068359375" lon="20.16534232534468173980712890625">
        <ele>1854</ele>
        <time>2026-06-20T08:42:11.000Z</time>
        <extensions>
          <ns3:TrackPointExtension>
            <ns3:atemp>24.0</ns3:atemp>
          </ns3:TrackPointExtension>
        </extensions>
      </trkpt>
      <trkpt lat="42.5313519872725009918212890625" lon="20.16538314521312713623046875">
        <ele>1854</ele>
        <time>2026-06-20T08:42:12.000Z</time>
        <extensions>
          <ns3:TrackPointExtension>
            <ns3:atemp>24.0</ns3:atemp>
          </ns3:TrackPointExtension>
        </extensions>
      </trkpt>
      <trkpt lat="42.53134184516966342926025390625" lon="20.1654218696057796478271484375">
        <ele>1854</ele>
        <time>2026-06-20T08:42:13.000Z</time>
        <extensions>
          <ns3:TrackPointExtension>
            <ns3:atemp>24.0</ns3:atemp>
          </ns3:TrackPointExtension>
        </extensions>
      </trkpt>
      <trkpt lat="42.531340420246124267578125" lon="20.16545833088457584381103515625">
        <ele>1854.199951171875</ele>
        <time>2026-06-20T08:42:14.000Z</time>
        <extensions>
          <ns3:TrackPointExtension>
            <ns3:atemp>24.0</ns3:atemp>
          </ns3:TrackPointExtension>
        </extensions>
      </trkpt>
      <trkpt lat="42.5313392467796802520751953125" lon="20.16549638472497463226318359375">
        <ele>1854.199951171875</ele>
        <time>2026-06-20T08:42:15.000Z</time>
        <extensions>
          <ns3:TrackPointExtension>
            <ns3:atemp>24.0</ns3:atemp>
          </ns3:TrackPointExtension>
        </extensions>
      </trkpt>
      <trkpt lat="42.531336732208728790283203125" lon="20.16553829424083232879638671875">
        <ele>1854.199951171875</ele>
        <time>2026-06-20T08:42:16.000Z</time>
        <extensions>
          <ns3:TrackPointExtension>
            <ns3:atemp>24.0</ns3:atemp>
          </ns3:TrackPointExtension>
        </extensions>
      </trkpt>
      <trkpt lat="42.531335391104221343994140625" lon="20.1655861549079418182373046875">
        <ele>1854.199951171875</ele>
        <time>2026-06-20T08:42:17.000Z</time>
        <extensions>
          <ns3:TrackPointExtension>
            <ns3:atemp>24.0</ns3:atemp>
          </ns3:TrackPointExtension>
        </extensions>
      </trkpt>
      <trkpt lat="42.53132843412458896636962890625" lon="20.16564197838306427001953125">
        <ele>1854</ele>
        <time>2026-06-20T08:42:18.000Z</time>
        <extensions>
          <ns3:TrackPointExtension>
            <ns3:atemp>24.0</ns3:atemp>
          </ns3:TrackPointExtension>
        </extensions>
      </trkpt>
      <trkpt lat="42.53131653182208538055419921875" lon="20.165692269802093505859375">
        <ele>1854</ele>
        <time>2026-06-20T08:42:19.000Z</time>
        <extensions>
          <ns3:TrackPointExtension>
            <ns3:atemp>24.0</ns3:atemp>
          </ns3:TrackPointExtension>
        </extensions>
      </trkpt>
      <trkpt lat="42.5312953256070613861083984375" lon="20.1657497696578502655029296875">
        <ele>1853.5999755859375</ele>
        <time>2026-06-20T08:42:20.000Z</time>
        <extensions>
          <ns3:TrackPointExtension>
            <ns3:atemp>24.0</ns3:atemp>
          </ns3:TrackPointExtension>
        </extensions>
      </trkpt>
      <trkpt lat="42.53126171417534351348876953125" lon="20.1658074371516704559326171875">
        <ele>1853.199951171875</ele>
        <time>2026-06-20T08:42:21.000Z</time>
        <extensions>
          <ns3:TrackPointExtension>
            <ns3:atemp>24.0</ns3:atemp>
          </ns3:TrackPointExtension>
        </extensions>
      </trkpt>
      <trkpt lat="42.53122097812592983245849609375" lon="20.1658624224364757537841796875">
        <ele>1852.800048828125</ele>
        <time>2026-06-20T08:42:22.000Z</time>
        <extensions>
          <ns3:TrackPointExtension>
            <ns3:atemp>24.0</ns3:atemp>
          </ns3:TrackPointExtension>
        </extensions>
      </trkpt>
      <trkpt lat="42.5311722792685031890869140625" lon="20.16591765917837619781494140625">
        <ele>1852.4000244140625</ele>
        <time>2026-06-20T08:42:23.000Z</time>
        <extensions>
          <ns3:TrackPointExtension>
            <ns3:atemp>24.0</ns3:atemp>
          </ns3:TrackPointExtension>
        </extensions>
      </trkpt>
      <trkpt lat="42.53112726844847202301025390625" lon="20.1659707166254520416259765625">
        <ele>1852</ele>
        <time>2026-06-20T08:42:24.000Z</time>
        <extensions>
          <ns3:TrackPointExtension>
            <ns3:atemp>24.0</ns3:atemp>
          </ns3:TrackPointExtension>
        </extensions>
      </trkpt>
      <trkpt lat="42.53108837641775608062744140625" lon="20.166030228137969970703125">
        <ele>1851.5999755859375</ele>
        <time>2026-06-20T08:42:25.000Z</time>
        <extensions>
          <ns3:TrackPointExtension>
            <ns3:atemp>24.0</ns3:atemp>
          </ns3:TrackPointExtension>
        </extensions>
      </trkpt>
      <trkpt lat="42.53106423653662204742431640625" lon="20.16609719954431056976318359375">
        <ele>1851.4000244140625</ele>
        <time>2026-06-20T08:42:26.000Z</time>
        <extensions>
          <ns3:TrackPointExtension>
            <ns3:atemp>24.0</ns3:atemp>
          </ns3:TrackPointExtension>
        </extensions>
      </trkpt>
      <trkpt lat="42.53105501644313335418701171875" lon="20.1661628298461437225341796875">
        <ele>1851.199951171875</ele>
        <time>2026-06-20T08:42:27.000Z</time>
        <extensions>
          <ns3:TrackPointExtension>
            <ns3:atemp>24.0</ns3:atemp>
          </ns3:TrackPointExtension>
        </extensions>
      </trkpt>
      <trkpt lat="42.5310478918254375457763671875" lon="20.1662261970341205596923828125">
        <ele>1851</ele>
        <time>2026-06-20T08:42:28.000Z</time>
        <extensions>
          <ns3:TrackPointExtension>
            <ns3:atemp>24.0</ns3:atemp>
          </ns3:TrackPointExtension>
        </extensions>
      </trkpt>
      <trkpt lat="42.53104747273027896881103515625" lon="20.166288726031780242919921875">
        <ele>1851</ele>
        <time>2026-06-20T08:42:29.000Z</time>
        <extensions>
          <ns3:TrackPointExtension>
            <ns3:atemp>24.0</ns3:atemp>
          </ns3:TrackPointExtension>
        </extensions>
      </trkpt>
      <trkpt lat="42.5310462154448032379150390625" lon="20.1663512550294399261474609375">
        <ele>1851</ele>
        <time>2026-06-20T08:42:30.000Z</time>
        <extensions>
          <ns3:TrackPointExtension>
            <ns3:atemp>24.0</ns3:atemp>
          </ns3:TrackPointExtension>
        </extensions>
      </trkpt>
      <trkpt lat="42.53104696981608867645263671875" lon="20.1664124429225921630859375">
        <ele>1850.800048828125</ele>
        <time>2026-06-20T08:42:31.000Z</time>
        <extensions>
          <ns3:TrackPointExtension>
            <ns3:atemp>24.0</ns3:atemp>
          </ns3:TrackPointExtension>
        </extensions>
      </trkpt>
      <trkpt lat="42.53103557042777538299560546875" lon="20.16647153533995151519775390625">
        <ele>1850.800048828125</ele>
        <time>2026-06-20T08:42:32.000Z</time>
        <extensions>
          <ns3:TrackPointExtension>
            <ns3:atemp>24.0</ns3:atemp>
          </ns3:TrackPointExtension>
        </extensions>
      </trkpt>
      <trkpt lat="42.53102190792560577392578125" lon="20.16653121449053287506103515625">
        <ele>1850.5999755859375</ele>
        <time>2026-06-20T08:42:33.000Z</time>
        <extensions>
          <ns3:TrackPointExtension>
            <ns3:atemp>24.0</ns3:atemp>
          </ns3:TrackPointExtension>
        </extensions>
      </trkpt>
      <trkpt lat="42.5310043059289455413818359375" lon="20.166592486202716827392578125">
        <ele>1850.5999755859375</ele>
        <time>2026-06-20T08:42:34.000Z</time>
        <extensions>
          <ns3:TrackPointExtension>
            <ns3:atemp>24.0</ns3:atemp>
          </ns3:TrackPointExtension>
        </extensions>
      </trkpt>
      <trkpt lat="42.53099114634096622467041015625" lon="20.16665157862007617950439453125">
        <ele>1850.4000244140625</ele>
        <time>2026-06-20T08:42:35.000Z</time>
        <extensions>
          <ns3:TrackPointExtension>
            <ns3:atemp>24.0</ns3:atemp>
          </ns3:TrackPointExtension>
        </extensions>
      </trkpt>
      <trkpt lat="42.53099097870290279388427734375" lon="20.16670949757099151611328125">
        <ele>1850.4000244140625</ele>
        <time>2026-06-20T08:42:36.000Z</time>
        <extensions>
          <ns3:TrackPointExtension>
            <ns3:atemp>24.0</ns3:atemp>
          </ns3:TrackPointExtension>
        </extensions>
      </trkpt>
      <trkpt lat="42.53099768422544002532958984375" lon="20.1667602919042110443115234375">
        <ele>1850.4000244140625</ele>
        <time>2026-06-20T08:42:37.000Z</time>
        <extensions>
          <ns3:TrackPointExtension>
            <ns3:atemp>24.0</ns3:atemp>
          </ns3:TrackPointExtension>
        </extensions>
      </trkpt>
      <trkpt lat="42.53100438974797725677490234375" lon="20.16680337488651275634765625">
        <ele>1850.4000244140625</ele>
        <time>2026-06-20T08:42:38.000Z</time>
        <extensions>
          <ns3:TrackPointExtension>
            <ns3:atemp>24.0</ns3:atemp>
          </ns3:TrackPointExtension>
        </extensions>
      </trkpt>
      <trkpt lat="42.5310110114514827728271484375" lon="20.16685140319168567657470703125">
        <ele>1850.4000244140625</ele>
        <time>2026-06-20T08:42:39.000Z</time>
        <extensions>
          <ns3:TrackPointExtension>
            <ns3:atemp>24.0</ns3:atemp>
          </ns3:TrackPointExtension>
        </extensions>
      </trkpt>
      <trkpt lat="42.531020231544971466064453125" lon="20.16689599491655826568603515625">
        <ele>1850.5999755859375</ele>
        <time>2026-06-20T08:42:40.000Z</time>
        <extensions>
          <ns3:TrackPointExtension>
            <ns3:atemp>24.0</ns3:atemp>
          </ns3:TrackPointExtension>
        </extensions>
      </trkpt>
      <trkpt lat="42.53102115355432033538818359375" lon="20.16693606041371822357177734375">
        <ele>1850.5999755859375</ele>
        <time>2026-06-20T08:42:41.000Z</time>
        <extensions>
          <ns3:TrackPointExtension>
            <ns3:atemp>24.0</ns3:atemp>
          </ns3:TrackPointExtension>
        </extensions>
      </trkpt>
      <trkpt lat="42.531027607619762420654296875" lon="20.166971683502197265625">
        <ele>1850.800048828125</ele>
        <time>2026-06-20T08:42:42.000Z</time>
        <extensions>
          <ns3:TrackPointExtension>
            <ns3:atemp>24.0</ns3:atemp>
          </ns3:TrackPointExtension>
        </extensions>
      </trkpt>
      <trkpt lat="42.531034313142299652099609375" lon="20.1670137606561183929443359375">
        <ele>1850.800048828125</ele>
        <time>2026-06-20T08:42:43.000Z</time>
        <extensions>
          <ns3:TrackPointExtension>
            <ns3:atemp>24.0</ns3:atemp>
          </ns3:TrackPointExtension>
        </extensions>
      </trkpt>
      <trkpt lat="42.5310428626835346221923828125" lon="20.1670583523809909820556640625">
        <ele>1850.800048828125</ele>
        <time>2026-06-20T08:42:44.000Z</time>
        <extensions>
          <ns3:TrackPointExtension>
            <ns3:atemp>24.0</ns3:atemp>
          </ns3:TrackPointExtension>
        </extensions>
      </trkpt>
      <trkpt lat="42.53105082549154758453369140625" lon="20.16710654832422733306884765625">
        <ele>1850.800048828125</ele>
        <time>2026-06-20T08:42:45.000Z</time>
        <extensions>
          <ns3:TrackPointExtension>
            <ns3:atemp>24.0</ns3:atemp>
          </ns3:TrackPointExtension>
        </extensions>
      </trkpt>
      <trkpt lat="42.53105971030890941619873046875" lon="20.16715466044843196868896484375">
        <ele>1850.800048828125</ele>
        <time>2026-06-20T08:42:46.000Z</time>
        <extensions>
          <ns3:TrackPointExtension>
            <ns3:atemp>24.0</ns3:atemp>
          </ns3:TrackPointExtension>
        </extensions>
      </trkpt>
      <trkpt lat="42.5310653261840343475341796875" lon="20.167203359305858612060546875">
        <ele>1850.800048828125</ele>
        <time>2026-06-20T08:42:47.000Z</time>
        <extensions>
          <ns3:TrackPointExtension>
            <ns3:atemp>24.0</ns3:atemp>
          </ns3:TrackPointExtension>
        </extensions>
      </trkpt>
      <trkpt lat="42.531071864068508148193359375" lon="20.16724769957363605499267578125">
        <ele>1850.800048828125</ele>
        <time>2026-06-20T08:42:48.000Z</time>
        <extensions>
          <ns3:TrackPointExtension>
            <ns3:atemp>24.0</ns3:atemp>
          </ns3:TrackPointExtension>
        </extensions>
      </trkpt>
      <trkpt lat="42.531079240143299102783203125" lon="20.16729329712688922882080078125">
        <ele>1850.800048828125</ele>
        <time>2026-06-20T08:42:49.000Z</time>
        <extensions>
          <ns3:TrackPointExtension>
            <ns3:atemp>24.0</ns3:atemp>
          </ns3:TrackPointExtension>
        </extensions>
      </trkpt>
      <trkpt lat="42.531085945665836334228515625" lon="20.1673346199095249176025390625">
        <ele>1851</ele>
        <time>2026-06-20T08:42:50.000Z</time>
        <extensions>
          <ns3:TrackPointExtension>
            <ns3:atemp>24.0</ns3:atemp>
          </ns3:TrackPointExtension>
        </extensions>
      </trkpt>
      <trkpt lat="42.53108971752226352691650390625" lon="20.16737602651119232177734375">
        <ele>1851.199951171875</ele>
        <time>2026-06-20T08:42:51.000Z</time>
        <extensions>
          <ns3:TrackPointExtension>
            <ns3:atemp>24.0</ns3:atemp>
          </ns3:TrackPointExtension>
        </extensions>
      </trkpt>
      <trkpt lat="42.53109005279839038848876953125" lon="20.1674182713031768798828125">
        <ele>1851.199951171875</ele>
        <time>2026-06-20T08:42:52.000Z</time>
        <extensions>
          <ns3:TrackPointExtension>
            <ns3:atemp>24.0</ns3:atemp>
          </ns3:TrackPointExtension>
        </extensions>
      </trkpt>
      <trkpt lat="42.5310884602367877960205078125" lon="20.1674596779048442840576171875">
        <ele>1851.4000244140625</ele>
        <time>2026-06-20T08:42:53.000Z</time>
        <extensions>
          <ns3:TrackPointExtension>
            <ns3:atemp>24.0</ns3:atemp>
          </ns3:TrackPointExtension>
        </extensions>
      </trkpt>
      <trkpt lat="42.5310881249606609344482421875" lon="20.1674987375736236572265625">
        <ele>1851.5999755859375</ele>
        <time>2026-06-20T08:42:54.000Z</time>
        <extensions>
          <ns3:TrackPointExtension>
            <ns3:atemp>24.0</ns3:atemp>
          </ns3:TrackPointExtension>
        </extensions>
      </trkpt>
      <trkpt lat="42.53108493983745574951171875" lon="20.1675381325185298919677734375">
        <ele>1851.800048828125</ele>
        <time>2026-06-20T08:42:55.000Z</time>
        <extensions>
          <ns3:TrackPointExtension>
            <ns3:atemp>24.0</ns3:atemp>
          </ns3:TrackPointExtension>
        </extensions>
      </trkpt>
      <trkpt lat="42.53108091652393341064453125" lon="20.167578198015689849853515625">
        <ele>1851.800048828125</ele>
        <time>2026-06-20T08:42:56.000Z</time>
        <extensions>
          <ns3:TrackPointExtension>
            <ns3:atemp>24.0</ns3:atemp>
          </ns3:TrackPointExtension>
        </extensions>
      </trkpt>
      <trkpt lat="42.5310767255723476409912109375" lon="20.16761717386543750762939453125">
        <ele>1852</ele>
        <time>2026-06-20T08:42:57.000Z</time>
        <extensions>
          <ns3:TrackPointExtension>
            <ns3:atemp>24.0</ns3:atemp>
          </ns3:TrackPointExtension>
        </extensions>
      </trkpt>
      <trkpt lat="42.5310743786394596099853515625" lon="20.1676574908196926116943359375">
        <ele>1852</ele>
        <time>2026-06-20T08:42:58.000Z</time>
        <extensions>
          <ns3:TrackPointExtension>
            <ns3:atemp>24.0</ns3:atemp>
          </ns3:TrackPointExtension>
        </extensions>
      </trkpt>
      <trkpt lat="42.53107664175331592559814453125" lon="20.16769386827945709228515625">
        <ele>1852.199951171875</ele>
        <time>2026-06-20T08:42:59.000Z</time>
        <extensions>
          <ns3:TrackPointExtension>
            <ns3:atemp>24.0</ns3:atemp>
          </ns3:TrackPointExtension>
        </extensions>
      </trkpt>
      <trkpt lat="42.53107379190623760223388671875" lon="20.16772898845374584197998046875">
        <ele>1852.4000244140625</ele>
        <time>2026-06-20T08:43:00.000Z</time>
        <extensions>
          <ns3:TrackPointExtension>
            <ns3:atemp>24.0</ns3:atemp>
          </ns3:TrackPointExtension>
        </extensions>
      </trkpt>
      <trkpt lat="42.5310767255723476409912109375" lon="20.1677657850086688995361328125">
        <ele>1852.4000244140625</ele>
        <time>2026-06-20T08:43:01.000Z</time>
        <extensions>
          <ns3:TrackPointExtension>
            <ns3:atemp>24.0</ns3:atemp>
          </ns3:TrackPointExtension>
        </extensions>
      </trkpt>
      <trkpt lat="42.53108317963778972625732421875" lon="20.16780694015324115753173828125">
        <ele>1852.5999755859375</ele>
        <time>2026-06-20T08:43:02.000Z</time>
        <extensions>
          <ns3:TrackPointExtension>
            <ns3:atemp>24.0</ns3:atemp>
          </ns3:TrackPointExtension>
        </extensions>
      </trkpt>
      <trkpt lat="42.531085945665836334228515625" lon="20.16784868203103542327880859375">
        <ele>1852.5999755859375</ele>
        <time>2026-06-20T08:43:03.000Z</time>
        <extensions>
          <ns3:TrackPointExtension>
            <ns3:atemp>24.0</ns3:atemp>
          </ns3:TrackPointExtension>
        </extensions>
      </trkpt>
      <trkpt lat="42.53109072335064411163330078125" lon="20.16789243556559085845947265625">
        <ele>1852.800048828125</ele>
        <time>2026-06-20T08:43:04.000Z</time>
        <extensions>
          <ns3:TrackPointExtension>
            <ns3:atemp>24.0</ns3:atemp>
          </ns3:TrackPointExtension>
        </extensions>
      </trkpt>
      <trkpt lat="42.53110011108219623565673828125" lon="20.1679357700049877166748046875">
        <ele>1852.800048828125</ele>
        <time>2026-06-20T08:43:05.000Z</time>
        <extensions>
          <ns3:TrackPointExtension>
            <ns3:atemp>24.0</ns3:atemp>
          </ns3:TrackPointExtension>
        </extensions>
      </trkpt>
      <trkpt lat="42.53110547550022602081298828125" lon="20.167978517711162567138671875">
        <ele>1853</ele>
        <time>2026-06-20T08:43:06.000Z</time>
        <extensions>
          <ns3:TrackPointExtension>
            <ns3:atemp>24.0</ns3:atemp>
          </ns3:TrackPointExtension>
        </extensions>
      </trkpt>
      <trkpt lat="42.53111151047050952911376953125" lon="20.16802000813186168670654296875">
        <ele>1853.199951171875</ele>
        <time>2026-06-20T08:43:07.000Z</time>
        <extensions>
          <ns3:TrackPointExtension>
            <ns3:atemp>24.0</ns3:atemp>
          </ns3:TrackPointExtension>
        </extensions>
      </trkpt>
      <trkpt lat="42.53111570142209529876708984375" lon="20.1680561341345310211181640625">
        <ele>1853.4000244140625</ele>
        <time>2026-06-20T08:43:08.000Z</time>
        <extensions>
          <ns3:TrackPointExtension>
            <ns3:atemp>24.0</ns3:atemp>
          </ns3:TrackPointExtension>
        </extensions>
      </trkpt>
      <trkpt lat="42.53112240694463253021240234375" lon="20.16809510998427867889404296875">
        <ele>1853.5999755859375</ele>
        <time>2026-06-20T08:43:09.000Z</time>
        <extensions>
          <ns3:TrackPointExtension>
            <ns3:atemp>24.0</ns3:atemp>
          </ns3:TrackPointExtension>
        </extensions>
      </trkpt>
      <trkpt lat="42.5311250053346157073974609375" lon="20.16813366673886775970458984375">
        <ele>1854</ele>
        <time>2026-06-20T08:43:10.000Z</time>
        <extensions>
          <ns3:TrackPointExtension>
            <ns3:atemp>24.0</ns3:atemp>
          </ns3:TrackPointExtension>
        </extensions>
      </trkpt>
      <trkpt lat="42.53112928010523319244384765625" lon="20.168175660073757171630859375">
        <ele>1854.199951171875</ele>
        <time>2026-06-20T08:43:11.000Z</time>
        <extensions>
          <ns3:TrackPointExtension>
            <ns3:atemp>24.0</ns3:atemp>
          </ns3:TrackPointExtension>
        </extensions>
      </trkpt>
      <trkpt lat="42.5311352312564849853515625" lon="20.16821262426674365997314453125">
        <ele>1854.5999755859375</ele>
        <time>2026-06-20T08:43:12.000Z</time>
        <extensions>
          <ns3:TrackPointExtension>
            <ns3:atemp>24.0</ns3:atemp>
          </ns3:TrackPointExtension>
        </extensions>
      </trkpt>
      <trkpt lat="42.53114386461675167083740234375" lon="20.1682499237358570098876953125">
        <ele>1854.800048828125</ele>
        <time>2026-06-20T08:43:13.000Z</time>
        <extensions>
          <ns3:TrackPointExtension>
            <ns3:atemp>24.0</ns3:atemp>
          </ns3:TrackPointExtension>
        </extensions>
      </trkpt>
      <trkpt lat="42.5311514921486377716064453125" lon="20.168290995061397552490234375">
        <ele>1855.199951171875</ele>
        <time>2026-06-20T08:43:14.000Z</time>
        <extensions>
          <ns3:TrackPointExtension>
            <ns3:atemp>24.0</ns3:atemp>
          </ns3:TrackPointExtension>
        </extensions>
      </trkpt>
      <trkpt lat="42.53115677274763584136962890625" lon="20.1683300547301769256591796875">
        <ele>1855.4000244140625</ele>
        <time>2026-06-20T08:43:15.000Z</time>
        <extensions>
          <ns3:TrackPointExtension>
            <ns3:atemp>24.0</ns3:atemp>
          </ns3:TrackPointExtension>
        </extensions>
      </trkpt>
      <trkpt lat="42.5311618857085704803466796875" lon="20.1683739759027957916259765625">
        <ele>1855.5999755859375</ele>
        <time>2026-06-20T08:43:16.000Z</time>
        <extensions>
          <ns3:TrackPointExtension>
            <ns3:atemp>24.0</ns3:atemp>
          </ns3:TrackPointExtension>
        </extensions>
      </trkpt>
      <trkpt lat="42.5311672501266002655029296875" lon="20.1684192381799221038818359375">
        <ele>1855.800048828125</ele>
        <time>2026-06-20T08:43:17.000Z</time>
        <extensions>
          <ns3:TrackPointExtension>
            <ns3:atemp>24.0</ns3:atemp>
          </ns3:TrackPointExtension>
        </extensions>
      </trkpt>
      <trkpt lat="42.53116942942142486572265625" lon="20.16845938749611377716064453125">
        <ele>1856</ele>
        <time>2026-06-20T08:43:18.000Z</time>
        <extensions>
          <ns3:TrackPointExtension>
            <ns3:atemp>24.0</ns3:atemp>
          </ns3:TrackPointExtension>
        </extensions>
      </trkpt>
      <trkpt lat="42.5311729498207569122314453125" lon="20.16850121319293975830078125">
        <ele>1856.199951171875</ele>
        <time>2026-06-20T08:43:19.000Z</time>
        <extensions>
          <ns3:TrackPointExtension>
            <ns3:atemp>24.0</ns3:atemp>
          </ns3:TrackPointExtension>
        </extensions>
      </trkpt>
      <trkpt lat="42.53117219544947147369384765625" lon="20.16854153014719486236572265625">
        <ele>1856.4000244140625</ele>
        <time>2026-06-20T08:43:20.000Z</time>
        <extensions>
          <ns3:TrackPointExtension>
            <ns3:atemp>24.0</ns3:atemp>
          </ns3:TrackPointExtension>
        </extensions>
      </trkpt>
      <trkpt lat="42.53117236308753490447998046875" lon="20.16857857815921306610107421875">
        <ele>1856.5999755859375</ele>
        <time>2026-06-20T08:43:21.000Z</time>
        <extensions>
          <ns3:TrackPointExtension>
            <ns3:atemp>24.0</ns3:atemp>
          </ns3:TrackPointExtension>
        </extensions>
      </trkpt>
      <trkpt lat="42.5311769731342792510986328125" lon="20.168615877628326416015625">
        <ele>1856.800048828125</ele>
        <time>2026-06-20T08:43:22.000Z</time>
        <extensions>
          <ns3:TrackPointExtension>
            <ns3:atemp>24.0</ns3:atemp>
          </ns3:TrackPointExtension>
        </extensions>
      </trkpt>
      <trkpt lat="42.53118460066616535186767578125" lon="20.16865988261997699737548828125">
        <ele>1857</ele>
        <time>2026-06-20T08:43:23.000Z</time>
        <extensions>
          <ns3:TrackPointExtension>
            <ns3:atemp>24.0</ns3:atemp>
          </ns3:TrackPointExtension>
        </extensions>
      </trkpt>
      <trkpt lat="42.53118954598903656005859375" lon="20.1687129400670528411865234375">
        <ele>1857</ele>
        <time>2026-06-20T08:43:24.000Z</time>
        <extensions>
          <ns3:TrackPointExtension>
            <ns3:atemp>24.0</ns3:atemp>
          </ns3:TrackPointExtension>
        </extensions>
      </trkpt>
      <trkpt lat="42.53119750879704952239990234375" lon="20.16877337358891963958740234375">
        <ele>1856.800048828125</ele>
        <time>2026-06-20T08:43:25.000Z</time>
        <extensions>
          <ns3:TrackPointExtension>
            <ns3:atemp>23.0</ns3:atemp>
          </ns3:TrackPointExtension>
        </extensions>
      </trkpt>
      <trkpt lat="42.53120672889053821563720703125" lon="20.16884445212781429290771484375">
        <ele>1856.4000244140625</ele>
        <time>2026-06-20T08:43:26.000Z</time>
        <extensions>
          <ns3:TrackPointExtension>
            <ns3:atemp>24.0</ns3:atemp>
          </ns3:TrackPointExtension>
        </extensions>
      </trkpt>
      <trkpt lat="42.5312131829559803009033203125" lon="20.1689204759895801544189453125">
        <ele>1855.800048828125</ele>
        <time>2026-06-20T08:43:27.000Z</time>
        <extensions>
          <ns3:TrackPointExtension>
            <ns3:atemp>23.0</ns3:atemp>
          </ns3:TrackPointExtension>
        </extensions>
      </trkpt>
      <trkpt lat="42.5312210619449615478515625" lon="20.168991051614284515380859375">
        <ele>1855.199951171875</ele>
        <time>2026-06-20T08:43:28.000Z</time>
        <extensions>
          <ns3:TrackPointExtension>
            <ns3:atemp>23.0</ns3:atemp>
          </ns3:TrackPointExtension>
        </extensions>
      </trkpt>
      <trkpt lat="42.5312225706875324249267578125" lon="20.169053412973880767822265625">
        <ele>1854.5999755859375</ele>
        <time>2026-06-20T08:43:29.000Z</time>
        <extensions>
          <ns3:TrackPointExtension>
            <ns3:atemp>23.0</ns3:atemp>
          </ns3:TrackPointExtension>
        </extensions>
      </trkpt>
      <trkpt lat="42.53122064284980297088623046875" lon="20.16910747624933719635009765625">
        <ele>1854</ele>
        <time>2026-06-20T08:43:30.000Z</time>
        <extensions>
          <ns3:TrackPointExtension>
            <ns3:atemp>23.0</ns3:atemp>
          </ns3:TrackPointExtension>
        </extensions>
      </trkpt>
      <trkpt lat="42.531218715012073516845703125" lon="20.16916916705667972564697265625">
        <ele>1853.4000244140625</ele>
        <time>2026-06-20T08:43:31.000Z</time>
        <extensions>
          <ns3:TrackPointExtension>
            <ns3:atemp>23.0</ns3:atemp>
          </ns3:TrackPointExtension>
        </extensions>
      </trkpt>
      <trkpt lat="42.53121561370790004730224609375" lon="20.16922918148338794708251953125">
        <ele>1853</ele>
        <time>2026-06-20T08:43:32.000Z</time>
        <extensions>
          <ns3:TrackPointExtension>
            <ns3:atemp>23.0</ns3:atemp>
          </ns3:TrackPointExtension>
        </extensions>
      </trkpt>
      <trkpt lat="42.53121159039437770843505859375" lon="20.16929036937654018402099609375">
        <ele>1852.800048828125</ele>
        <time>2026-06-20T08:43:33.000Z</time>
        <extensions>
          <ns3:TrackPointExtension>
            <ns3:atemp>23.0</ns3:atemp>
          </ns3:TrackPointExtension>
        </extensions>
      </trkpt>
      <trkpt lat="42.531209997832775115966796875" lon="20.16934585757553577423095703125">
        <ele>1852.4000244140625</ele>
        <time>2026-06-20T08:43:34.000Z</time>
        <extensions>
          <ns3:TrackPointExtension>
            <ns3:atemp>23.0</ns3:atemp>
          </ns3:TrackPointExtension>
        </extensions>
      </trkpt>
      <trkpt lat="42.531212680041790008544921875" lon="20.16939304769039154052734375">
        <ele>1852</ele>
        <time>2026-06-20T08:43:35.000Z</time>
        <extensions>
          <ns3:TrackPointExtension>
            <ns3:atemp>23.0</ns3:atemp>
          </ns3:TrackPointExtension>
        </extensions>
      </trkpt>
      <trkpt lat="42.53121863119304180145263671875" lon="20.1694347895681858062744140625">
        <ele>1851.5999755859375</ele>
        <time>2026-06-20T08:43:36.000Z</time>
        <extensions>
          <ns3:TrackPointExtension>
            <ns3:atemp>23.0</ns3:atemp>
          </ns3:TrackPointExtension>
        </extensions>
      </trkpt>
      <trkpt lat="42.53122382797300815582275390625" lon="20.16947644762694835662841796875">
        <ele>1851.5999755859375</ele>
        <time>2026-06-20T08:43:37.000Z</time>
        <extensions>
          <ns3:TrackPointExtension>
            <ns3:atemp>23.0</ns3:atemp>
          </ns3:TrackPointExtension>
        </extensions>
      </trkpt>
      <trkpt lat="42.53123103640973567962646484375" lon="20.16951911151409149169921875">
        <ele>1851.199951171875</ele>
        <time>2026-06-20T08:43:38.000Z</time>
        <extensions>
          <ns3:TrackPointExtension>
            <ns3:atemp>23.0</ns3:atemp>
          </ns3:TrackPointExtension>
        </extensions>
      </trkpt>
      <trkpt lat="42.53124126233160495758056640625" lon="20.169564373791217803955078125">
        <ele>1851</ele>
        <time>2026-06-20T08:43:39.000Z</time>
        <extensions>
          <ns3:TrackPointExtension>
            <ns3:atemp>23.0</ns3:atemp>
          </ns3:TrackPointExtension>
        </extensions>
      </trkpt>
      <trkpt lat="42.5312540866434574127197265625" lon="20.1696087978780269622802734375">
        <ele>1851</ele>
        <time>2026-06-20T08:43:40.000Z</time>
        <extensions>
          <ns3:TrackPointExtension>
            <ns3:atemp>23.0</ns3:atemp>
          </ns3:TrackPointExtension>
        </extensions>
      </trkpt>
      <trkpt lat="42.53127026371657848358154296875" lon="20.16965246759355068206787109375">
        <ele>1850.5999755859375</ele>
        <time>2026-06-20T08:43:41.000Z</time>
        <extensions>
          <ns3:TrackPointExtension>
            <ns3:atemp>23.0</ns3:atemp>
          </ns3:TrackPointExtension>
        </extensions>
      </trkpt>
      <trkpt lat="42.53129004500806331634521484375" lon="20.16969856806099414825439453125">
        <ele>1850.5999755859375</ele>
        <time>2026-06-20T08:43:42.000Z</time>
        <extensions>
          <ns3:TrackPointExtension>
            <ns3:atemp>23.0</ns3:atemp>
          </ns3:TrackPointExtension>
        </extensions>
      </trkpt>
      <trkpt lat="42.53131200559437274932861328125" lon="20.1697464287281036376953125">
        <ele>1850.5999755859375</ele>
        <time>2026-06-20T08:43:43.000Z</time>
        <extensions>
          <ns3:TrackPointExtension>
            <ns3:atemp>23.0</ns3:atemp>
          </ns3:TrackPointExtension>
        </extensions>
      </trkpt>
      <trkpt lat="42.531334720551967620849609375" lon="20.16979931853711605072021484375">
        <ele>1850.5999755859375</ele>
        <time>2026-06-20T08:43:44.000Z</time>
        <extensions>
          <ns3:TrackPointExtension>
            <ns3:atemp>23.0</ns3:atemp>
          </ns3:TrackPointExtension>
        </extensions>
      </trkpt>
      <trkpt lat="42.5313580222427845001220703125" lon="20.16985396854579448699951171875">
        <ele>1850.4000244140625</ele>
        <time>2026-06-20T08:43:45.000Z</time>
        <extensions>
          <ns3:TrackPointExtension>
            <ns3:atemp>23.0</ns3:atemp>
          </ns3:TrackPointExtension>
        </extensions>
      </trkpt>
      <trkpt lat="42.53137788735330104827880859375" lon="20.16990979202091693878173828125">
        <ele>1850.4000244140625</ele>
        <time>2026-06-20T08:43:46.000Z</time>
        <extensions>
          <ns3:TrackPointExtension>
            <ns3:atemp>23.0</ns3:atemp>
          </ns3:TrackPointExtension>
        </extensions>
      </trkpt>
      <trkpt lat="42.53139716573059558868408203125" lon="20.16995538957417011260986328125">
        <ele>1850.199951171875</ele>
        <time>2026-06-20T08:43:47.000Z</time>
        <extensions>
          <ns3:TrackPointExtension>
            <ns3:atemp>23.0</ns3:atemp>
          </ns3:TrackPointExtension>
        </extensions>
      </trkpt>
      <trkpt lat="42.53141946159303188323974609375" lon="20.16999495215713977813720703125">
        <ele>1850.199951171875</ele>
        <time>2026-06-20T08:43:48.000Z</time>
        <extensions>
          <ns3:TrackPointExtension>
            <ns3:atemp>23.0</ns3:atemp>
          </ns3:TrackPointExtension>
        </extensions>
      </trkpt>
      <trkpt lat="42.53144511021673679351806640625" lon="20.1700292341411113739013671875">
        <ele>1850</ele>
        <time>2026-06-20T08:43:49.000Z</time>
        <extensions>
          <ns3:TrackPointExtension>
            <ns3:atemp>23.0</ns3:atemp>
          </ns3:TrackPointExtension>
        </extensions>
      </trkpt>
      <trkpt lat="42.53146908245980739593505859375" lon="20.17006854526698589324951171875">
        <ele>1849.800048828125</ele>
        <time>2026-06-20T08:43:50.000Z</time>
        <extensions>
          <ns3:TrackPointExtension>
            <ns3:atemp>23.0</ns3:atemp>
          </ns3:TrackPointExtension>
        </extensions>
      </trkpt>
      <trkpt lat="42.53149523399770259857177734375" lon="20.17010039649903774261474609375">
        <ele>1849.800048828125</ele>
        <time>2026-06-20T08:43:51.000Z</time>
        <extensions>
          <ns3:TrackPointExtension>
            <ns3:atemp>23.0</ns3:atemp>
          </ns3:TrackPointExtension>
        </extensions>
      </trkpt>
      <trkpt lat="42.5315196253359317779541015625" lon="20.17013526521623134613037109375">
        <ele>1849.5999755859375</ele>
        <time>2026-06-20T08:43:52.000Z</time>
        <extensions>
          <ns3:TrackPointExtension>
            <ns3:atemp>23.0</ns3:atemp>
          </ns3:TrackPointExtension>
        </extensions>
      </trkpt>
      <trkpt lat="42.5315491296350955963134765625" lon="20.17016954720020294189453125">
        <ele>1849.4000244140625</ele>
        <time>2026-06-20T08:43:53.000Z</time>
        <extensions>
          <ns3:TrackPointExtension>
            <ns3:atemp>23.0</ns3:atemp>
          </ns3:TrackPointExtension>
        </extensions>
      </trkpt>
      <trkpt lat="42.53157838247716426849365234375" lon="20.1702082715928554534912109375">
        <ele>1849.199951171875</ele>
        <time>2026-06-20T08:43:54.000Z</time>
        <extensions>
          <ns3:TrackPointExtension>
            <ns3:atemp>23.0</ns3:atemp>
          </ns3:TrackPointExtension>
        </extensions>
      </trkpt>
      <trkpt lat="42.53160369582474231719970703125" lon="20.170251019299030303955078125">
        <ele>1849.199951171875</ele>
        <time>2026-06-20T08:43:55.000Z</time>
        <extensions>
          <ns3:TrackPointExtension>
            <ns3:atemp>23.0</ns3:atemp>
          </ns3:TrackPointExtension>
        </extensions>
      </trkpt>
      <trkpt lat="42.531624734401702880859375" lon="20.17029401846230030059814453125">
        <ele>1849.199951171875</ele>
        <time>2026-06-20T08:43:56.000Z</time>
        <extensions>
          <ns3:TrackPointExtension>
            <ns3:atemp>23.0</ns3:atemp>
          </ns3:TrackPointExtension>
        </extensions>
      </trkpt>
      <trkpt lat="42.53163822926580905914306640625" lon="20.17033341340720653533935546875">
        <ele>1849.199951171875</ele>
        <time>2026-06-20T08:43:57.000Z</time>
        <extensions>
          <ns3:TrackPointExtension>
            <ns3:atemp>23.0</ns3:atemp>
          </ns3:TrackPointExtension>
        </extensions>
      </trkpt>
      <trkpt lat="42.5316483713686466217041015625" lon="20.17037079669535160064697265625">
        <ele>1849.199951171875</ele>
        <time>2026-06-20T08:43:58.000Z</time>
        <extensions>
          <ns3:TrackPointExtension>
            <ns3:atemp>23.0</ns3:atemp>
          </ns3:TrackPointExtension>
        </extensions>
      </trkpt>
      <trkpt lat="42.53165683709084987640380859375" lon="20.17039828933775424957275390625">
        <ele>1849.4000244140625</ele>
        <time>2026-06-20T08:43:59.000Z</time>
        <extensions>
          <ns3:TrackPointExtension>
            <ns3:atemp>23.0</ns3:atemp>
          </ns3:TrackPointExtension>
        </extensions>
      </trkpt>
      <trkpt lat="42.53166974522173404693603515625" lon="20.1704272069036960601806640625">
        <ele>1849.4000244140625</ele>
        <time>2026-06-20T08:44:00.000Z</time>
        <extensions>
          <ns3:TrackPointExtension>
            <ns3:atemp>23.0</ns3:atemp>
          </ns3:TrackPointExtension>
        </extensions>
      </trkpt>
      <trkpt lat="42.53168231807649135589599609375" lon="20.170450843870639801025390625">
        <ele>1849.5999755859375</ele>
        <time>2026-06-20T08:44:01.000Z</time>
        <extensions>
          <ns3:TrackPointExtension>
            <ns3:atemp>23.0</ns3:atemp>
          </ns3:TrackPointExtension>
        </extensions>
      </trkpt>
      <trkpt lat="42.53169304691255092620849609375" lon="20.17047104425728321075439453125">
        <ele>1849.5999755859375</ele>
        <time>2026-06-20T08:44:02.000Z</time>
        <extensions>
          <ns3:TrackPointExtension>
            <ns3:atemp>23.0</ns3:atemp>
          </ns3:TrackPointExtension>
        </extensions>
      </trkpt>
      <trkpt lat="42.53170243464410305023193359375" lon="20.17049183137714862823486328125">
        <ele>1849.5999755859375</ele>
        <time>2026-06-20T08:44:03.000Z</time>
        <extensions>
          <ns3:TrackPointExtension>
            <ns3:atemp>23.0</ns3:atemp>
          </ns3:TrackPointExtension>
        </extensions>
      </trkpt>
      <trkpt lat="42.53171098418533802032470703125" lon="20.170510523021221160888671875">
        <ele>1849.5999755859375</ele>
        <time>2026-06-20T08:44:04.000Z</time>
        <extensions>
          <ns3:TrackPointExtension>
            <ns3:atemp>23.0</ns3:atemp>
          </ns3:TrackPointExtension>
        </extensions>
      </trkpt>
      <trkpt lat="42.53171953372657299041748046875" lon="20.17052435316145420074462890625">
        <ele>1849.5999755859375</ele>
        <time>2026-06-20T08:44:05.000Z</time>
        <extensions>
          <ns3:TrackPointExtension>
            <ns3:atemp>23.0</ns3:atemp>
          </ns3:TrackPointExtension>
        </extensions>
      </trkpt>
      <trkpt lat="42.53173076547682285308837890625" lon="20.17053877003490924835205078125">
        <ele>1849.5999755859375</ele>
        <time>2026-06-20T08:44:06.000Z</time>
        <extensions>
          <ns3:TrackPointExtension>
            <ns3:atemp>23.0</ns3:atemp>
          </ns3:TrackPointExtension>
        </extensions>
      </trkpt>
      <trkpt lat="42.531742751598358154296875" lon="20.1705690287053585052490234375">
        <ele>1849.4000244140625</ele>
        <time>2026-06-20T08:44:07.000Z</time>
        <extensions>
          <ns3:TrackPointExtension>
            <ns3:atemp>23.0</ns3:atemp>
          </ns3:TrackPointExtension>
        </extensions>
      </trkpt>
      <trkpt lat="42.53175172023475170135498046875" lon="20.17060666345059871673583984375">
        <ele>1849.199951171875</ele>
        <time>2026-06-20T08:44:08.000Z</time>
        <extensions>
          <ns3:TrackPointExtension>
            <ns3:atemp>23.0</ns3:atemp>
          </ns3:TrackPointExtension>
        </extensions>
      </trkpt>
      <trkpt lat="42.53175892867147922515869140625" lon="20.1706498302519321441650390625">
        <ele>1849</ele>
        <time>2026-06-20T08:44:09.000Z</time>
        <extensions>
          <ns3:TrackPointExtension>
            <ns3:atemp>23.0</ns3:atemp>
          </ns3:TrackPointExtension>
        </extensions>
      </trkpt>
      <trkpt lat="42.53176412545144557952880859375" lon="20.17069333232939243316650390625">
        <ele>1848.800048828125</ele>
        <time>2026-06-20T08:44:10.000Z</time>
        <extensions>
          <ns3:TrackPointExtension>
            <ns3:atemp>23.0</ns3:atemp>
          </ns3:TrackPointExtension>
        </extensions>
      </trkpt>
      <trkpt lat="42.53177166916429996490478515625" lon="20.17073356546461582183837890625">
        <ele>1848.5999755859375</ele>
        <time>2026-06-20T08:44:11.000Z</time>
        <extensions>
          <ns3:TrackPointExtension>
            <ns3:atemp>23.0</ns3:atemp>
          </ns3:TrackPointExtension>
        </extensions>
      </trkpt>
      <trkpt lat="42.53178256563842296600341796875" lon="20.1707614772021770477294921875">
        <ele>1848.5999755859375</ele>
        <time>2026-06-20T08:44:12.000Z</time>
        <extensions>
          <ns3:TrackPointExtension>
            <ns3:atemp>23.0</ns3:atemp>
          </ns3:TrackPointExtension>
        </extensions>
      </trkpt>
      <trkpt lat="42.53179061226546764373779296875" lon="20.17078109085559844970703125">
        <ele>1848.4000244140625</ele>
        <time>2026-06-20T08:44:13.000Z</time>
        <extensions>
          <ns3:TrackPointExtension>
            <ns3:atemp>23.0</ns3:atemp>
          </ns3:TrackPointExtension>
        </extensions>
      </trkpt>
      <trkpt lat="42.53179849125444889068603515625" lon="20.17079693265259265899658203125">
        <ele>1848.5999755859375</ele>
        <time>2026-06-20T08:44:14.000Z</time>
        <extensions>
          <ns3:TrackPointExtension>
            <ns3:atemp>23.0</ns3:atemp>
          </ns3:TrackPointExtension>
        </extensions>
      </trkpt>
      <trkpt lat="42.5318066217005252838134765625" lon="20.17081637866795063018798828125">
        <ele>1848.5999755859375</ele>
        <time>2026-06-20T08:44:15.000Z</time>
        <extensions>
          <ns3:TrackPointExtension>
            <ns3:atemp>23.0</ns3:atemp>
          </ns3:TrackPointExtension>
        </extensions>
      </trkpt>
      <trkpt lat="42.53181676380336284637451171875" lon="20.17083934508264064788818359375">
        <ele>1848.5999755859375</ele>
        <time>2026-06-20T08:44:16.000Z</time>
        <extensions>
          <ns3:TrackPointExtension>
            <ns3:atemp>23.0</ns3:atemp>
          </ns3:TrackPointExtension>
        </extensions>
      </trkpt>
      <trkpt lat="42.5318267382681369781494140625" lon="20.1708583720028400421142578125">
        <ele>1848.5999755859375</ele>
        <time>2026-06-20T08:44:17.000Z</time>
        <extensions>
          <ns3:TrackPointExtension>
            <ns3:atemp>23.0</ns3:atemp>
          </ns3:TrackPointExtension>
        </extensions>
      </trkpt>
      <trkpt lat="42.53183729946613311767578125" lon="20.17087454907596111297607421875">
        <ele>1848.4000244140625</ele>
        <time>2026-06-20T08:44:18.000Z</time>
        <extensions>
          <ns3:TrackPointExtension>
            <ns3:atemp>23.0</ns3:atemp>
          </ns3:TrackPointExtension>
        </extensions>
      </trkpt>
      <trkpt lat="42.5318435020744800567626953125" lon="20.17089433036744594573974609375">
        <ele>1848.4000244140625</ele>
        <time>2026-06-20T08:44:19.000Z</time>
        <extensions>
          <ns3:TrackPointExtension>
            <ns3:atemp>23.0</ns3:atemp>
          </ns3:TrackPointExtension>
        </extensions>
      </trkpt>
      <trkpt lat="42.53184978850185871124267578125" lon="20.17091394402086734771728515625">
        <ele>1848.5999755859375</ele>
        <time>2026-06-20T08:44:20.000Z</time>
        <extensions>
          <ns3:TrackPointExtension>
            <ns3:atemp>23.0</ns3:atemp>
          </ns3:TrackPointExtension>
        </extensions>
      </trkpt>
      <trkpt lat="42.53185515291988849639892578125" lon="20.17092886380851268768310546875">
        <ele>1848.5999755859375</ele>
        <time>2026-06-20T08:44:21.000Z</time>
        <extensions>
          <ns3:TrackPointExtension>
            <ns3:atemp>23.0</ns3:atemp>
          </ns3:TrackPointExtension>
        </extensions>
      </trkpt>
      <trkpt lat="42.53186202608048915863037109375" lon="20.17094529233872890472412109375">
        <ele>1848.800048828125</ele>
        <time>2026-06-20T08:44:22.000Z</time>
        <extensions>
          <ns3:TrackPointExtension>
            <ns3:atemp>23.0</ns3:atemp>
          </ns3:TrackPointExtension>
        </extensions>
      </trkpt>
      <trkpt lat="42.5318706594407558441162109375" lon="20.17096943221986293792724609375">
        <ele>1848.800048828125</ele>
        <time>2026-06-20T08:44:23.000Z</time>
        <extensions>
          <ns3:TrackPointExtension>
            <ns3:atemp>23.0</ns3:atemp>
          </ns3:TrackPointExtension>
        </extensions>
      </trkpt>
      <trkpt lat="42.53187912516295909881591796875" lon="20.17099700868129730224609375">
        <ele>1848.5999755859375</ele>
        <time>2026-06-20T08:44:24.000Z</time>
        <extensions>
          <ns3:TrackPointExtension>
            <ns3:atemp>23.0</ns3:atemp>
          </ns3:TrackPointExtension>
        </extensions>
      </trkpt>
      <trkpt lat="42.53188750706613063812255859375" lon="20.17102676443755626678466796875">
        <ele>1848.5999755859375</ele>
        <time>2026-06-20T08:44:25.000Z</time>
        <extensions>
          <ns3:TrackPointExtension>
            <ns3:atemp>23.0</ns3:atemp>
          </ns3:TrackPointExtension>
        </extensions>
      </trkpt>
      <trkpt lat="42.531897984445095062255859375" lon="20.17106138169765472412109375">
        <ele>1848.4000244140625</ele>
        <time>2026-06-20T08:44:26.000Z</time>
        <extensions>
          <ns3:TrackPointExtension>
            <ns3:atemp>23.0</ns3:atemp>
          </ns3:TrackPointExtension>
        </extensions>
      </trkpt>
      <trkpt lat="42.53190997056663036346435546875" lon="20.1711011119186878204345703125">
        <ele>1848.199951171875</ele>
        <time>2026-06-20T08:44:27.000Z</time>
        <extensions>
          <ns3:TrackPointExtension>
            <ns3:atemp>23.0</ns3:atemp>
          </ns3:TrackPointExtension>
        </extensions>
      </trkpt>
      <trkpt lat="42.53192086704075336456298828125" lon="20.17114612273871898651123046875">
        <ele>1848</ele>
        <time>2026-06-20T08:44:28.000Z</time>
        <extensions>
          <ns3:TrackPointExtension>
            <ns3:atemp>23.0</ns3:atemp>
          </ns3:TrackPointExtension>
        </extensions>
      </trkpt>
      <trkpt lat="42.53193595446646213531494140625" lon="20.17119138501584529876708984375">
        <ele>1848</ele>
        <time>2026-06-20T08:44:29.000Z</time>
        <extensions>
          <ns3:TrackPointExtension>
            <ns3:atemp>23.0</ns3:atemp>
          </ns3:TrackPointExtension>
        </extensions>
      </trkpt>
      <trkpt lat="42.53195355646312236785888671875" lon="20.17123480327427387237548828125">
        <ele>1848.199951171875</ele>
        <time>2026-06-20T08:44:30.000Z</time>
        <extensions>
          <ns3:TrackPointExtension>
            <ns3:atemp>23.0</ns3:atemp>
          </ns3:TrackPointExtension>
        </extensions>
      </trkpt>
      <trkpt lat="42.53197601996362209320068359375" lon="20.17127193510532379150390625">
        <ele>1848.4000244140625</ele>
        <time>2026-06-20T08:44:31.000Z</time>
        <extensions>
          <ns3:TrackPointExtension>
            <ns3:atemp>23.0</ns3:atemp>
          </ns3:TrackPointExtension>
        </extensions>
      </trkpt>
      <trkpt lat="42.531990520656108856201171875" lon="20.17129749990999698638916015625">
        <ele>1848.5999755859375</ele>
        <time>2026-06-20T08:44:32.000Z</time>
        <extensions>
          <ns3:TrackPointExtension>
            <ns3:atemp>23.0</ns3:atemp>
          </ns3:TrackPointExtension>
        </extensions>
      </trkpt>
      <trkpt lat="42.5319987349212169647216796875" lon="20.17132013104856014251708984375">
        <ele>1849</ele>
        <time>2026-06-20T08:44:33.000Z</time>
        <extensions>
          <ns3:TrackPointExtension>
            <ns3:atemp>23.0</ns3:atemp>
          </ns3:TrackPointExtension>
        </extensions>
      </trkpt>
      <trkpt lat="42.53200887702405452728271484375" lon="20.1713396608829498291015625">
        <ele>1849.199951171875</ele>
        <time>2026-06-20T08:44:34.000Z</time>
        <extensions>
          <ns3:TrackPointExtension>
            <ns3:atemp>23.0</ns3:atemp>
          </ns3:TrackPointExtension>
        </extensions>
      </trkpt>
      <trkpt lat="42.5320215336978435516357421875" lon="20.171357095241546630859375">
        <ele>1849.4000244140625</ele>
        <time>2026-06-20T08:44:35.000Z</time>
        <extensions>
          <ns3:TrackPointExtension>
            <ns3:atemp>23.0</ns3:atemp>
          </ns3:TrackPointExtension>
        </extensions>
      </trkpt>
      <trkpt lat="42.53203335218131542205810546875" lon="20.17138458788394927978515625">
        <ele>1849.5999755859375</ele>
        <time>2026-06-20T08:44:36.000Z</time>
        <extensions>
          <ns3:TrackPointExtension>
            <ns3:atemp>23.0</ns3:atemp>
          </ns3:TrackPointExtension>
        </extensions>
      </trkpt>
      <trkpt lat="42.53203846514225006103515625" lon="20.17142339609563350677490234375">
        <ele>1849.5999755859375</ele>
        <time>2026-06-20T08:44:37.000Z</time>
        <extensions>
          <ns3:TrackPointExtension>
            <ns3:atemp>23.0</ns3:atemp>
          </ns3:TrackPointExtension>
        </extensions>
      </trkpt>
      <trkpt lat="42.5320379622280597686767578125" lon="20.1714632101356983184814453125">
        <ele>1849.800048828125</ele>
        <time>2026-06-20T08:44:38.000Z</time>
        <extensions>
          <ns3:TrackPointExtension>
            <ns3:atemp>23.0</ns3:atemp>
          </ns3:TrackPointExtension>
        </extensions>
      </trkpt>
      <trkpt lat="42.5320429913699626922607421875" lon="20.17150855623185634613037109375">
        <ele>1849.5999755859375</ele>
        <time>2026-06-20T08:44:39.000Z</time>
        <extensions>
          <ns3:TrackPointExtension>
            <ns3:atemp>23.0</ns3:atemp>
          </ns3:TrackPointExtension>
        </extensions>
      </trkpt>
      <trkpt lat="42.53204860724508762359619140625" lon="20.1715574227273464202880859375">
        <ele>1849.5999755859375</ele>
        <time>2026-06-20T08:44:40.000Z</time>
        <extensions>
          <ns3:TrackPointExtension>
            <ns3:atemp>23.0</ns3:atemp>
          </ns3:TrackPointExtension>
        </extensions>
      </trkpt>
      <trkpt lat="42.5320530496537685394287109375" lon="20.17161182127892971038818359375">
        <ele>1849.4000244140625</ele>
        <time>2026-06-20T08:44:41.000Z</time>
        <extensions>
          <ns3:TrackPointExtension>
            <ns3:atemp>23.0</ns3:atemp>
          </ns3:TrackPointExtension>
        </extensions>
      </trkpt>
      <trkpt lat="42.53205732442438602447509765625" lon="20.17167015932500362396240234375">
        <ele>1849</ele>
        <time>2026-06-20T08:44:42.000Z</time>
        <extensions>
          <ns3:TrackPointExtension>
            <ns3:atemp>23.0</ns3:atemp>
          </ns3:TrackPointExtension>
        </extensions>
      </trkpt>
      <trkpt lat="42.5320661254227161407470703125" lon="20.17173201777040958404541015625">
        <ele>1848.800048828125</ele>
        <time>2026-06-20T08:44:43.000Z</time>
        <extensions>
          <ns3:TrackPointExtension>
            <ns3:atemp>23.0</ns3:atemp>
          </ns3:TrackPointExtension>
        </extensions>
      </trkpt>
      <trkpt lat="42.5320775248110294342041015625" lon="20.171780548989772796630859375">
        <ele>1848.5999755859375</ele>
        <time>2026-06-20T08:44:44.000Z</time>
        <extensions>
          <ns3:TrackPointExtension>
            <ns3:atemp>23.0</ns3:atemp>
          </ns3:TrackPointExtension>
        </extensions>
      </trkpt>
      <trkpt lat="42.53208230249583721160888671875" lon="20.171828828752040863037109375">
        <ele>1848.5999755859375</ele>
        <time>2026-06-20T08:44:45.000Z</time>
        <extensions>
          <ns3:TrackPointExtension>
            <ns3:atemp>23.0</ns3:atemp>
          </ns3:TrackPointExtension>
        </extensions>
      </trkpt>
      <trkpt lat="42.532089091837406158447265625" lon="20.171872414648532867431640625">
        <ele>1848.5999755859375</ele>
        <time>2026-06-20T08:44:46.000Z</time>
        <extensions>
          <ns3:TrackPointExtension>
            <ns3:atemp>23.0</ns3:atemp>
          </ns3:TrackPointExtension>
        </extensions>
      </trkpt>
      <trkpt lat="42.53209470771253108978271484375" lon="20.171911977231502532958984375">
        <ele>1848.800048828125</ele>
        <time>2026-06-20T08:44:47.000Z</time>
        <extensions>
          <ns3:TrackPointExtension>
            <ns3:atemp>23.0</ns3:atemp>
          </ns3:TrackPointExtension>
        </extensions>
      </trkpt>
      <trkpt lat="42.5320989824831485748291015625" lon="20.1719513721764087677001953125">
        <ele>1849</ele>
        <time>2026-06-20T08:44:48.000Z</time>
        <extensions>
          <ns3:TrackPointExtension>
            <ns3:atemp>23.0</ns3:atemp>
          </ns3:TrackPointExtension>
        </extensions>
      </trkpt>
      <trkpt lat="42.53210728056728839874267578125" lon="20.1719887554645538330078125">
        <ele>1849.199951171875</ele>
        <time>2026-06-20T08:44:49.000Z</time>
        <extensions>
          <ns3:TrackPointExtension>
            <ns3:atemp>23.0</ns3:atemp>
          </ns3:TrackPointExtension>
        </extensions>
      </trkpt>
      <trkpt lat="42.532114572823047637939453125" lon="20.1720241270959377288818359375">
        <ele>1849.4000244140625</ele>
        <time>2026-06-20T08:44:50.000Z</time>
        <extensions>
          <ns3:TrackPointExtension>
            <ns3:atemp>23.0</ns3:atemp>
          </ns3:TrackPointExtension>
        </extensions>
      </trkpt>
      <trkpt lat="42.5321204401552677154541015625" lon="20.17206377349793910980224609375">
        <ele>1849.5999755859375</ele>
        <time>2026-06-20T08:44:51.000Z</time>
        <extensions>
          <ns3:TrackPointExtension>
            <ns3:atemp>23.0</ns3:atemp>
          </ns3:TrackPointExtension>
        </extensions>
      </trkpt>
      <trkpt lat="42.53212966024875640869140625" lon="20.1720962114632129669189453125">
        <ele>1849.800048828125</ele>
        <time>2026-06-20T08:44:52.000Z</time>
        <extensions>
          <ns3:TrackPointExtension>
            <ns3:atemp>23.0</ns3:atemp>
          </ns3:TrackPointExtension>
        </extensions>
      </trkpt>
      <trkpt lat="42.5321330130100250244140625" lon="20.17213066108524799346923828125">
        <ele>1850</ele>
        <time>2026-06-20T08:44:53.000Z</time>
        <extensions>
          <ns3:TrackPointExtension>
            <ns3:atemp>23.0</ns3:atemp>
          </ns3:TrackPointExtension>
        </extensions>
      </trkpt>
      <trkpt lat="42.53213376738131046295166015625" lon="20.1721666194498538970947265625">
        <ele>1850.199951171875</ele>
        <time>2026-06-20T08:44:54.000Z</time>
        <extensions>
          <ns3:TrackPointExtension>
            <ns3:atemp>23.0</ns3:atemp>
          </ns3:TrackPointExtension>
        </extensions>
      </trkpt>
      <trkpt lat="42.53213326446712017059326171875" lon="20.17220056615769863128662109375">
        <ele>1850.4000244140625</ele>
        <time>2026-06-20T08:44:55.000Z</time>
        <extensions>
          <ns3:TrackPointExtension>
            <ns3:atemp>23.0</ns3:atemp>
          </ns3:TrackPointExtension>
        </extensions>
      </trkpt>
      <trkpt lat="42.532130666077136993408203125" lon="20.172236524522304534912109375">
        <ele>1850.5999755859375</ele>
        <time>2026-06-20T08:44:56.000Z</time>
        <extensions>
          <ns3:TrackPointExtension>
            <ns3:atemp>23.0</ns3:atemp>
          </ns3:TrackPointExtension>
        </extensions>
      </trkpt>
      <trkpt lat="42.53213712014257907867431640625" lon="20.1722682081162929534912109375">
        <ele>1851</ele>
        <time>2026-06-20T08:44:57.000Z</time>
        <extensions>
          <ns3:TrackPointExtension>
            <ns3:atemp>23.0</ns3:atemp>
          </ns3:TrackPointExtension>
        </extensions>
      </trkpt>
      <trkpt lat="42.532134018838405609130859375" lon="20.1722987182438373565673828125">
        <ele>1851.199951171875</ele>
        <time>2026-06-20T08:44:58.000Z</time>
        <extensions>
          <ns3:TrackPointExtension>
            <ns3:atemp>23.0</ns3:atemp>
          </ns3:TrackPointExtension>
        </extensions>
      </trkpt>
      <trkpt lat="42.53213058225810527801513671875" lon="20.17233132384717464447021484375">
        <ele>1851.4000244140625</ele>
        <time>2026-06-20T08:44:59.000Z</time>
        <extensions>
          <ns3:TrackPointExtension>
            <ns3:atemp>23.0</ns3:atemp>
          </ns3:TrackPointExtension>
        </extensions>
      </trkpt>
      <trkpt lat="42.53212739713490009307861328125" lon="20.1723597384989261627197265625">
        <ele>1851.800048828125</ele>
        <time>2026-06-20T08:45:00.000Z</time>
        <extensions>
          <ns3:TrackPointExtension>
            <ns3:atemp>23.0</ns3:atemp>
          </ns3:TrackPointExtension>
        </extensions>
      </trkpt>
      <trkpt lat="42.5321251340210437774658203125" lon="20.1723910868167877197265625">
        <ele>1852</ele>
        <time>2026-06-20T08:45:01.000Z</time>
        <extensions>
          <ns3:TrackPointExtension>
            <ns3:atemp>23.0</ns3:atemp>
          </ns3:TrackPointExtension>
        </extensions>
      </trkpt>
      <trkpt lat="42.5321222841739654541015625" lon="20.17242603935301303863525390625">
        <ele>1852.199951171875</ele>
        <time>2026-06-20T08:45:02.000Z</time>
        <extensions>
          <ns3:TrackPointExtension>
            <ns3:atemp>23.0</ns3:atemp>
          </ns3:TrackPointExtension>
        </extensions>
      </trkpt>
      <trkpt lat="42.532117925584316253662109375" lon="20.17245872877538204193115234375">
        <ele>1852.4000244140625</ele>
        <time>2026-06-20T08:45:03.000Z</time>
        <extensions>
          <ns3:TrackPointExtension>
            <ns3:atemp>23.0</ns3:atemp>
          </ns3:TrackPointExtension>
        </extensions>
      </trkpt>
      <trkpt lat="42.5321115553379058837890625" lon="20.1724884845316410064697265625">
        <ele>1852.5999755859375</ele>
        <time>2026-06-20T08:45:04.000Z</time>
        <extensions>
          <ns3:TrackPointExtension>
            <ns3:atemp>23.0</ns3:atemp>
          </ns3:TrackPointExtension>
        </extensions>
      </trkpt>
      <trkpt lat="42.53210484981536865234375" lon="20.1725193299353122711181640625">
        <ele>1852.800048828125</ele>
        <time>2026-06-20T08:45:05.000Z</time>
        <extensions>
          <ns3:TrackPointExtension>
            <ns3:atemp>23.0</ns3:atemp>
          </ns3:TrackPointExtension>
        </extensions>
      </trkpt>
      <trkpt lat="42.53209822811186313629150390625" lon="20.17255059443414211273193359375">
        <ele>1853</ele>
        <time>2026-06-20T08:45:06.000Z</time>
        <extensions>
          <ns3:TrackPointExtension>
            <ns3:atemp>23.0</ns3:atemp>
          </ns3:TrackPointExtension>
        </extensions>
      </trkpt>
      <trkpt lat="42.5320946238934993743896484375" lon="20.1725840382277965545654296875">
        <ele>1853.4000244140625</ele>
        <time>2026-06-20T08:45:07.000Z</time>
        <extensions>
          <ns3:TrackPointExtension>
            <ns3:atemp>23.0</ns3:atemp>
          </ns3:TrackPointExtension>
        </extensions>
      </trkpt>
      <trkpt lat="42.5320874154567718505859375" lon="20.17261915840208530426025390625">
        <ele>1853.5999755859375</ele>
        <time>2026-06-20T08:45:08.000Z</time>
        <extensions>
          <ns3:TrackPointExtension>
            <ns3:atemp>23.0</ns3:atemp>
          </ns3:TrackPointExtension>
        </extensions>
      </trkpt>
      <trkpt lat="42.5320788659155368804931640625" lon="20.1726537756621837615966796875">
        <ele>1853.800048828125</ele>
        <time>2026-06-20T08:45:09.000Z</time>
        <extensions>
          <ns3:TrackPointExtension>
            <ns3:atemp>23.0</ns3:atemp>
          </ns3:TrackPointExtension>
        </extensions>
      </trkpt>
      <trkpt lat="42.53206637687981128692626953125" lon="20.17268755473196506500244140625">
        <ele>1854</ele>
        <time>2026-06-20T08:45:10.000Z</time>
        <extensions>
          <ns3:TrackPointExtension>
            <ns3:atemp>23.0</ns3:atemp>
          </ns3:TrackPointExtension>
        </extensions>
      </trkpt>
      <trkpt lat="42.5320560671389102935791015625" lon="20.17271739430725574493408203125">
        <ele>1854.199951171875</ele>
        <time>2026-06-20T08:45:11.000Z</time>
        <extensions>
          <ns3:TrackPointExtension>
            <ns3:atemp>23.0</ns3:atemp>
          </ns3:TrackPointExtension>
        </extensions>
      </trkpt>
      <trkpt lat="42.5320496968924999237060546875" lon="20.1727520115673542022705078125">
        <ele>1854.4000244140625</ele>
        <time>2026-06-20T08:45:12.000Z</time>
        <extensions>
          <ns3:TrackPointExtension>
            <ns3:atemp>23.0</ns3:atemp>
          </ns3:TrackPointExtension>
        </extensions>
      </trkpt>
      <trkpt lat="42.5320396386086940765380859375" lon="20.172785706818103790283203125">
        <ele>1854.5999755859375</ele>
        <time>2026-06-20T08:45:13.000Z</time>
        <extensions>
          <ns3:TrackPointExtension>
            <ns3:atemp>23.0</ns3:atemp>
          </ns3:TrackPointExtension>
        </extensions>
      </trkpt>
      <trkpt lat="42.53202664665877819061279296875" lon="20.1728204078972339630126953125">
        <ele>1855</ele>
        <time>2026-06-20T08:45:14.000Z</time>
        <extensions>
          <ns3:TrackPointExtension>
            <ns3:atemp>23.0</ns3:atemp>
          </ns3:TrackPointExtension>
        </extensions>
      </trkpt>
      <trkpt lat="42.53200954757630825042724609375" lon="20.1728512533009052276611328125">
        <ele>1855.199951171875</ele>
        <time>2026-06-20T08:45:15.000Z</time>
        <extensions>
          <ns3:TrackPointExtension>
            <ns3:atemp>23.0</ns3:atemp>
          </ns3:TrackPointExtension>
        </extensions>
      </trkpt>
      <trkpt lat="42.531996555626392364501953125" lon="20.17288285307586193084716796875">
        <ele>1855.4000244140625</ele>
        <time>2026-06-20T08:45:16.000Z</time>
        <extensions>
          <ns3:TrackPointExtension>
            <ns3:atemp>23.0</ns3:atemp>
          </ns3:TrackPointExtension>
        </extensions>
      </trkpt>
      <trkpt lat="42.53198146820068359375" lon="20.17290674149990081787109375">
        <ele>1855.5999755859375</ele>
        <time>2026-06-20T08:45:17.000Z</time>
        <extensions>
          <ns3:TrackPointExtension>
            <ns3:atemp>23.0</ns3:atemp>
          </ns3:TrackPointExtension>
        </extensions>
      </trkpt>
      <trkpt lat="42.53196411766111850738525390625" lon="20.172931216657161712646484375">
        <ele>1855.800048828125</ele>
        <time>2026-06-20T08:45:18.000Z</time>
        <extensions>
          <ns3:TrackPointExtension>
            <ns3:atemp>23.0</ns3:atemp>
          </ns3:TrackPointExtension>
        </extensions>
      </trkpt>
      <trkpt lat="42.53193997777998447418212890625" lon="20.1729508303105831146240234375">
        <ele>1856.199951171875</ele>
        <time>2026-06-20T08:45:19.000Z</time>
        <extensions>
          <ns3:TrackPointExtension>
            <ns3:atemp>23.0</ns3:atemp>
          </ns3:TrackPointExtension>
        </extensions>
      </trkpt>
      <trkpt lat="42.53191550262272357940673828125" lon="20.172972790896892547607421875">
        <ele>1856.4000244140625</ele>
        <time>2026-06-20T08:45:20.000Z</time>
        <extensions>
          <ns3:TrackPointExtension>
            <ns3:atemp>23.0</ns3:atemp>
          </ns3:TrackPointExtension>
        </extensions>
      </trkpt>
      <trkpt lat="42.53189605660736560821533203125" lon="20.1729945838451385498046875">
        <ele>1856.5999755859375</ele>
        <time>2026-06-20T08:45:21.000Z</time>
        <extensions>
          <ns3:TrackPointExtension>
            <ns3:atemp>23.0</ns3:atemp>
          </ns3:TrackPointExtension>
        </extensions>
      </trkpt>
      <trkpt lat="42.53187476657330989837646484375" lon="20.17301159910857677459716796875">
        <ele>1856.800048828125</ele>
        <time>2026-06-20T08:45:22.000Z</time>
        <extensions>
          <ns3:TrackPointExtension>
            <ns3:atemp>23.0</ns3:atemp>
          </ns3:TrackPointExtension>
        </extensions>
      </trkpt>
      <trkpt lat="42.5318540632724761962890625" lon="20.1730333082377910614013671875">
        <ele>1857.199951171875</ele>
        <time>2026-06-20T08:45:23.000Z</time>
        <extensions>
          <ns3:TrackPointExtension>
            <ns3:atemp>23.0</ns3:atemp>
          </ns3:TrackPointExtension>
        </extensions>
      </trkpt>
      <trkpt lat="42.5318344496190547943115234375" lon="20.17305065877735614776611328125">
        <ele>1857.4000244140625</ele>
        <time>2026-06-20T08:45:24.000Z</time>
        <extensions>
          <ns3:TrackPointExtension>
            <ns3:atemp>23.0</ns3:atemp>
          </ns3:TrackPointExtension>
        </extensions>
      </trkpt>
      <trkpt lat="42.5318123213946819305419921875" lon="20.17306826077401638031005859375">
        <ele>1857.800048828125</ele>
        <time>2026-06-20T08:45:25.000Z</time>
        <extensions>
          <ns3:TrackPointExtension>
            <ns3:atemp>23.0</ns3:atemp>
          </ns3:TrackPointExtension>
        </extensions>
      </trkpt>
      <trkpt lat="42.53179145045578479766845703125" lon="20.17308737151324748992919921875">
        <ele>1858</ele>
        <time>2026-06-20T08:45:26.000Z</time>
        <extensions>
          <ns3:TrackPointExtension>
            <ns3:atemp>23.0</ns3:atemp>
          </ns3:TrackPointExtension>
        </extensions>
      </trkpt>
      <trkpt lat="42.53177016042172908782958984375" lon="20.1731063984334468841552734375">
        <ele>1858.199951171875</ele>
        <time>2026-06-20T08:45:27.000Z</time>
        <extensions>
          <ns3:TrackPointExtension>
            <ns3:atemp>23.0</ns3:atemp>
          </ns3:TrackPointExtension>
        </extensions>
      </trkpt>
      <trkpt lat="42.53174836747348308563232421875" lon="20.173125676810741424560546875">
        <ele>1858.4000244140625</ele>
        <time>2026-06-20T08:45:28.000Z</time>
        <extensions>
          <ns3:TrackPointExtension>
            <ns3:atemp>23.0</ns3:atemp>
          </ns3:TrackPointExtension>
        </extensions>
      </trkpt>
      <trkpt lat="42.531726993620395660400390625" lon="20.1731436140835285186767578125">
        <ele>1858.4000244140625</ele>
        <time>2026-06-20T08:45:29.000Z</time>
        <extensions>
          <ns3:TrackPointExtension>
            <ns3:atemp>23.0</ns3:atemp>
          </ns3:TrackPointExtension>
        </extensions>
      </trkpt>
      <trkpt lat="42.5317040272057056427001953125" lon="20.17315677367150783538818359375">
        <ele>1858.5999755859375</ele>
        <time>2026-06-20T08:45:30.000Z</time>
        <extensions>
          <ns3:TrackPointExtension>
            <ns3:atemp>23.0</ns3:atemp>
          </ns3:TrackPointExtension>
        </extensions>
      </trkpt>
      <trkpt lat="42.5316822342574596405029296875" lon="20.17316817305982112884521484375">
        <ele>1858.800048828125</ele>
        <time>2026-06-20T08:45:31.000Z</time>
        <extensions>
          <ns3:TrackPointExtension>
            <ns3:atemp>23.0</ns3:atemp>
          </ns3:TrackPointExtension>
        </extensions>
      </trkpt>
      <trkpt lat="42.53166153095662593841552734375" lon="20.1731774769723415374755859375">
        <ele>1859.199951171875</ele>
        <time>2026-06-20T08:45:32.000Z</time>
        <extensions>
          <ns3:TrackPointExtension>
            <ns3:atemp>23.0</ns3:atemp>
          </ns3:TrackPointExtension>
        </extensions>
      </trkpt>
      <trkpt lat="42.53163881599903106689453125" lon="20.17317974008619785308837890625">
        <ele>1859.4000244140625</ele>
        <time>2026-06-20T08:45:33.000Z</time>
        <extensions>
          <ns3:TrackPointExtension>
            <ns3:atemp>23.0</ns3:atemp>
          </ns3:TrackPointExtension>
        </extensions>
      </trkpt>
      <trkpt lat="42.531616687774658203125" lon="20.173181332647800445556640625">
        <ele>1859.5999755859375</ele>
        <time>2026-06-20T08:45:34.000Z</time>
        <extensions>
          <ns3:TrackPointExtension>
            <ns3:atemp>23.0</ns3:atemp>
          </ns3:TrackPointExtension>
        </extensions>
      </trkpt>
      <trkpt lat="42.5315933860838413238525390625" lon="20.17318032681941986083984375">
        <ele>1859.800048828125</ele>
        <time>2026-06-20T08:45:35.000Z</time>
        <extensions>
          <ns3:TrackPointExtension>
            <ns3:atemp>23.0</ns3:atemp>
          </ns3:TrackPointExtension>
        </extensions>
      </trkpt>
      <trkpt lat="42.531570084393024444580078125" lon="20.17317621968686580657958984375">
        <ele>1859.800048828125</ele>
        <time>2026-06-20T08:45:36.000Z</time>
        <extensions>
          <ns3:TrackPointExtension>
            <ns3:atemp>23.0</ns3:atemp>
          </ns3:TrackPointExtension>
        </extensions>
      </trkpt>
      <trkpt lat="42.531544603407382965087890625" lon="20.17317370511591434478759765625">
        <ele>1860</ele>
        <time>2026-06-20T08:45:37.000Z</time>
        <extensions>
          <ns3:TrackPointExtension>
            <ns3:atemp>23.0</ns3:atemp>
          </ns3:TrackPointExtension>
        </extensions>
      </trkpt>
      <trkpt lat="42.53152222372591495513916015625" lon="20.1731721125543117523193359375">
        <ele>1860</ele>
        <time>2026-06-20T08:45:38.000Z</time>
        <extensions>
          <ns3:TrackPointExtension>
            <ns3:atemp>23.0</ns3:atemp>
          </ns3:TrackPointExtension>
        </extensions>
      </trkpt>
      <trkpt lat="42.53149976022541522979736328125" lon="20.17317169345915317535400390625">
        <ele>1860.199951171875</ele>
        <time>2026-06-20T08:45:39.000Z</time>
        <extensions>
          <ns3:TrackPointExtension>
            <ns3:atemp>23.0</ns3:atemp>
          </ns3:TrackPointExtension>
        </extensions>
      </trkpt>
      <trkpt lat="42.531476877629756927490234375" lon="20.17316800542175769805908203125">
        <ele>1860.4000244140625</ele>
        <time>2026-06-20T08:45:40.000Z</time>
        <extensions>
          <ns3:TrackPointExtension>
            <ns3:atemp>23.0</ns3:atemp>
          </ns3:TrackPointExtension>
        </extensions>
      </trkpt>
      <trkpt lat="42.5314559228718280792236328125" lon="20.17316230572760105133056640625">
        <ele>1860.5999755859375</ele>
        <time>2026-06-20T08:45:41.000Z</time>
        <extensions>
          <ns3:TrackPointExtension>
            <ns3:atemp>23.0</ns3:atemp>
          </ns3:TrackPointExtension>
        </extensions>
      </trkpt>
      <trkpt lat="42.53143354319036006927490234375" lon="20.173160545527935028076171875">
        <ele>1861</ele>
        <time>2026-06-20T08:45:42.000Z</time>
        <extensions>
          <ns3:TrackPointExtension>
            <ns3:atemp>23.0</ns3:atemp>
          </ns3:TrackPointExtension>
        </extensions>
      </trkpt>
      <trkpt lat="42.53141057677567005157470703125" lon="20.1731536723673343658447265625">
        <ele>1861.199951171875</ele>
        <time>2026-06-20T08:45:43.000Z</time>
        <extensions>
          <ns3:TrackPointExtension>
            <ns3:atemp>23.0</ns3:atemp>
          </ns3:TrackPointExtension>
        </extensions>
      </trkpt>
      <trkpt lat="42.531385011970996856689453125" lon="20.17314956523478031158447265625">
        <ele>1861.5999755859375</ele>
        <time>2026-06-20T08:45:44.000Z</time>
        <extensions>
          <ns3:TrackPointExtension>
            <ns3:atemp>23.0</ns3:atemp>
          </ns3:TrackPointExtension>
        </extensions>
      </trkpt>
      <trkpt lat="42.531359195709228515625" lon="20.17314906232059001922607421875">
        <ele>1861.5999755859375</ele>
        <time>2026-06-20T08:45:45.000Z</time>
        <extensions>
          <ns3:TrackPointExtension>
            <ns3:atemp>23.0</ns3:atemp>
          </ns3:TrackPointExtension>
        </extensions>
      </trkpt>
      <trkpt lat="42.53133195452392101287841796875" lon="20.1731459610164165496826171875">
        <ele>1862</ele>
        <time>2026-06-20T08:45:46.000Z</time>
        <extensions>
          <ns3:TrackPointExtension>
            <ns3:atemp>23.0</ns3:atemp>
          </ns3:TrackPointExtension>
        </extensions>
      </trkpt>
      <trkpt lat="42.53130395896732807159423828125" lon="20.173141770064830780029296875">
        <ele>1862</ele>
        <time>2026-06-20T08:45:47.000Z</time>
        <extensions>
          <ns3:TrackPointExtension>
            <ns3:atemp>23.0</ns3:atemp>
          </ns3:TrackPointExtension>
        </extensions>
      </trkpt>
      <trkpt lat="42.531279064714908599853515625" lon="20.17313783057034015655517578125">
        <ele>1862.199951171875</ele>
        <time>2026-06-20T08:45:48.000Z</time>
        <extensions>
          <ns3:TrackPointExtension>
            <ns3:atemp>23.0</ns3:atemp>
          </ns3:TrackPointExtension>
        </extensions>
      </trkpt>
      <trkpt lat="42.531252913177013397216796875" lon="20.17313112504780292510986328125">
        <ele>1862.4000244140625</ele>
        <time>2026-06-20T08:45:49.000Z</time>
        <extensions>
          <ns3:TrackPointExtension>
            <ns3:atemp>23.0</ns3:atemp>
          </ns3:TrackPointExtension>
        </extensions>
      </trkpt>
      <trkpt lat="42.531224749982357025146484375" lon="20.17312509007751941680908203125">
        <ele>1862.4000244140625</ele>
        <time>2026-06-20T08:45:50.000Z</time>
        <extensions>
          <ns3:TrackPointExtension>
            <ns3:atemp>23.0</ns3:atemp>
          </ns3:TrackPointExtension>
        </extensions>
      </trkpt>
      <trkpt lat="42.5311927311122417449951171875" lon="20.17311821691691875457763671875">
        <ele>1862.4000244140625</ele>
        <time>2026-06-20T08:45:51.000Z</time>
        <extensions>
          <ns3:TrackPointExtension>
            <ns3:atemp>23.0</ns3:atemp>
          </ns3:TrackPointExtension>
        </extensions>
      </trkpt>
      <trkpt lat="42.53115895204246044158935546875" lon="20.1731114275753498077392578125">
        <ele>1862.5999755859375</ele>
        <time>2026-06-20T08:45:52.000Z</time>
        <extensions>
          <ns3:TrackPointExtension>
            <ns3:atemp>23.0</ns3:atemp>
          </ns3:TrackPointExtension>
        </extensions>
      </trkpt>
      <trkpt lat="42.5311239995062351226806640625" lon="20.17310078255832195281982421875">
        <ele>1862.4000244140625</ele>
        <time>2026-06-20T08:45:53.000Z</time>
        <extensions>
          <ns3:TrackPointExtension>
            <ns3:atemp>23.0</ns3:atemp>
          </ns3:TrackPointExtension>
        </extensions>
      </trkpt>
      <trkpt lat="42.53108820877969264984130859375" lon="20.1730889640748500823974609375">
        <ele>1862.199951171875</ele>
        <time>2026-06-20T08:45:54.000Z</time>
        <extensions>
          <ns3:TrackPointExtension>
            <ns3:atemp>23.0</ns3:atemp>
          </ns3:TrackPointExtension>
        </extensions>
      </trkpt>
      <trkpt lat="42.53104780800640583038330078125" lon="20.17307731322944164276123046875">
        <ele>1862</ele>
        <time>2026-06-20T08:45:55.000Z</time>
        <extensions>
          <ns3:TrackPointExtension>
            <ns3:atemp>23.0</ns3:atemp>
          </ns3:TrackPointExtension>
        </extensions>
      </trkpt>
      <trkpt lat="42.53100422210991382598876953125" lon="20.17307211644947528839111328125">
        <ele>1861.800048828125</ele>
        <time>2026-06-20T08:45:56.000Z</time>
        <extensions>
          <ns3:TrackPointExtension>
            <ns3:atemp>23.0</ns3:atemp>
          </ns3:TrackPointExtension>
        </extensions>
      </trkpt>
      <trkpt lat="42.53095862455666065216064453125" lon="20.17306842841207981109619140625">
        <ele>1861.5999755859375</ele>
        <time>2026-06-20T08:45:57.000Z</time>
        <extensions>
          <ns3:TrackPointExtension>
            <ns3:atemp>23.0</ns3:atemp>
          </ns3:TrackPointExtension>
        </extensions>
      </trkpt>
      <trkpt lat="42.53091654740273952484130859375" lon="20.1730628125369548797607421875">
        <ele>1861.4000244140625</ele>
        <time>2026-06-20T08:45:58.000Z</time>
        <extensions>
          <ns3:TrackPointExtension>
            <ns3:atemp>23.0</ns3:atemp>
          </ns3:TrackPointExtension>
        </extensions>
      </trkpt>
      <trkpt lat="42.53087631426751613616943359375" lon="20.17305602319538593292236328125">
        <ele>1861.199951171875</ele>
        <time>2026-06-20T08:45:59.000Z</time>
        <extensions>
          <ns3:TrackPointExtension>
            <ns3:atemp>23.0</ns3:atemp>
          </ns3:TrackPointExtension>
        </extensions>
      </trkpt>
      <trkpt lat="42.53083976916968822479248046875" lon="20.17305199988186359405517578125">
        <ele>1861.199951171875</ele>
        <time>2026-06-20T08:46:00.000Z</time>
        <extensions>
          <ns3:TrackPointExtension>
            <ns3:atemp>23.0</ns3:atemp>
          </ns3:TrackPointExtension>
        </extensions>
      </trkpt>
      <trkpt lat="42.5308061577379703521728515625" lon="20.17304462380707263946533203125">
        <ele>1861.199951171875</ele>
        <time>2026-06-20T08:46:01.000Z</time>
        <extensions>
          <ns3:TrackPointExtension>
            <ns3:atemp>23.0</ns3:atemp>
          </ns3:TrackPointExtension>
        </extensions>
      </trkpt>
      <trkpt lat="42.53077288158237934112548828125" lon="20.17303674481809139251708984375">
        <ele>1861.199951171875</ele>
        <time>2026-06-20T08:46:02.000Z</time>
        <extensions>
          <ns3:TrackPointExtension>
            <ns3:atemp>23.0</ns3:atemp>
          </ns3:TrackPointExtension>
        </extensions>
      </trkpt>
      <trkpt lat="42.53073985688388347625732421875" lon="20.1730323024094104766845703125">
        <ele>1861.4000244140625</ele>
        <time>2026-06-20T08:46:03.000Z</time>
        <extensions>
          <ns3:TrackPointExtension>
            <ns3:atemp>23.0</ns3:atemp>
          </ns3:TrackPointExtension>
        </extensions>
      </trkpt>
      <trkpt lat="42.5307079218327999114990234375" lon="20.1730205677449703216552734375">
        <ele>1861.4000244140625</ele>
        <time>2026-06-20T08:46:04.000Z</time>
        <extensions>
          <ns3:TrackPointExtension>
            <ns3:atemp>23.0</ns3:atemp>
          </ns3:TrackPointExtension>
        </extensions>
      </trkpt>
      <trkpt lat="42.53067799843847751617431640625" lon="20.17300489358603954315185546875">
        <ele>1861.5999755859375</ele>
        <time>2026-06-20T08:46:05.000Z</time>
        <extensions>
          <ns3:TrackPointExtension>
            <ns3:atemp>23.0</ns3:atemp>
          </ns3:TrackPointExtension>
        </extensions>
      </trkpt>
      <trkpt lat="42.5306499190628528594970703125" lon="20.17298595048487186431884765625">
        <ele>1861.800048828125</ele>
        <time>2026-06-20T08:46:06.000Z</time>
        <extensions>
          <ns3:TrackPointExtension>
            <ns3:atemp>23.0</ns3:atemp>
          </ns3:TrackPointExtension>
        </extensions>
      </trkpt>
      <trkpt lat="42.5306229293346405029296875" lon="20.17296709120273590087890625">
        <ele>1862</ele>
        <time>2026-06-20T08:46:07.000Z</time>
        <extensions>
          <ns3:TrackPointExtension>
            <ns3:atemp>23.0</ns3:atemp>
          </ns3:TrackPointExtension>
        </extensions>
      </trkpt>
      <trkpt lat="42.53059853799641132354736328125" lon="20.1729431189596652984619140625">
        <ele>1862</ele>
        <time>2026-06-20T08:46:08.000Z</time>
        <extensions>
          <ns3:TrackPointExtension>
            <ns3:atemp>23.0</ns3:atemp>
          </ns3:TrackPointExtension>
        </extensions>
      </trkpt>
      <trkpt lat="42.53057557158172130584716796875" lon="20.1729105971753597259521484375">
        <ele>1862.199951171875</ele>
        <time>2026-06-20T08:46:09.000Z</time>
        <extensions>
          <ns3:TrackPointExtension>
            <ns3:atemp>23.0</ns3:atemp>
          </ns3:TrackPointExtension>
        </extensions>
      </trkpt>
      <trkpt lat="42.5305453129112720489501953125" lon="20.172888971865177154541015625">
        <ele>1862.199951171875</ele>
        <time>2026-06-20T08:46:10.000Z</time>
        <extensions>
          <ns3:TrackPointExtension>
            <ns3:atemp>23.0</ns3:atemp>
          </ns3:TrackPointExtension>
        </extensions>
      </trkpt>
      <trkpt lat="42.53051094710826873779296875" lon="20.1728794164955615997314453125">
        <ele>1862.4000244140625</ele>
        <time>2026-06-20T08:46:11.000Z</time>
        <extensions>
          <ns3:TrackPointExtension>
            <ns3:atemp>23.0</ns3:atemp>
          </ns3:TrackPointExtension>
        </extensions>
      </trkpt>
      <trkpt lat="42.5304769165813922882080078125" lon="20.1728844456374645233154296875">
        <ele>1862.4000244140625</ele>
        <time>2026-06-20T08:46:12.000Z</time>
        <extensions>
          <ns3:TrackPointExtension>
            <ns3:atemp>23.0</ns3:atemp>
          </ns3:TrackPointExtension>
        </extensions>
      </trkpt>
      <trkpt lat="42.5304504297673702239990234375" lon="20.1729047298431396484375">
        <ele>1862.5999755859375</ele>
        <time>2026-06-20T08:46:13.000Z</time>
        <extensions>
          <ns3:TrackPointExtension>
            <ns3:atemp>23.0</ns3:atemp>
          </ns3:TrackPointExtension>
        </extensions>
      </trkpt>
      <trkpt lat="42.53043693490326404571533203125" lon="20.17292811535298824310302734375">
        <ele>1863</ele>
        <time>2026-06-20T08:46:14.000Z</time>
        <extensions>
          <ns3:TrackPointExtension>
            <ns3:atemp>23.0</ns3:atemp>
          </ns3:TrackPointExtension>
        </extensions>
      </trkpt>
      <trkpt lat="42.530424110591411590576171875" lon="20.1729531772434711456298828125">
        <ele>1863.199951171875</ele>
        <time>2026-06-20T08:46:15.000Z</time>
        <extensions>
          <ns3:TrackPointExtension>
            <ns3:atemp>23.0</ns3:atemp>
          </ns3:TrackPointExtension>
        </extensions>
      </trkpt>
      <trkpt lat="42.53041178919374942779541015625" lon="20.172978825867176055908203125">
        <ele>1863.5999755859375</ele>
        <time>2026-06-20T08:46:16.000Z</time>
        <extensions>
          <ns3:TrackPointExtension>
            <ns3:atemp>23.0</ns3:atemp>
          </ns3:TrackPointExtension>
        </extensions>
      </trkpt>
      <trkpt lat="42.53040575422346591949462890625" lon="20.1730108447372913360595703125">
        <ele>1864</ele>
        <time>2026-06-20T08:46:17.000Z</time>
        <extensions>
          <ns3:TrackPointExtension>
            <ns3:atemp>23.0</ns3:atemp>
          </ns3:TrackPointExtension>
        </extensions>
      </trkpt>
      <trkpt lat="42.53039485774934291839599609375" lon="20.17304730601608753204345703125">
        <ele>1864.199951171875</ele>
        <time>2026-06-20T08:46:18.000Z</time>
        <extensions>
          <ns3:TrackPointExtension>
            <ns3:atemp>23.0</ns3:atemp>
          </ns3:TrackPointExtension>
        </extensions>
      </trkpt>
      <trkpt lat="42.53038278780877590179443359375" lon="20.17308468930423259735107421875">
        <ele>1864.4000244140625</ele>
        <time>2026-06-20T08:46:19.000Z</time>
        <extensions>
          <ns3:TrackPointExtension>
            <ns3:atemp>23.0</ns3:atemp>
          </ns3:TrackPointExtension>
        </extensions>
      </trkpt>
      <trkpt lat="42.5303682871162891387939453125" lon="20.17312056384980678558349609375">
        <ele>1864.5999755859375</ele>
        <time>2026-06-20T08:46:20.000Z</time>
        <extensions>
          <ns3:TrackPointExtension>
            <ns3:atemp>23.0</ns3:atemp>
          </ns3:TrackPointExtension>
        </extensions>
      </trkpt>
      <trkpt lat="42.5303466618061065673828125" lon="20.17316146753728389739990234375">
        <ele>1864.800048828125</ele>
        <time>2026-06-20T08:46:21.000Z</time>
        <extensions>
          <ns3:TrackPointExtension>
            <ns3:atemp>23.0</ns3:atemp>
          </ns3:TrackPointExtension>
        </extensions>
      </trkpt>
      <trkpt lat="42.53033568151295185089111328125" lon="20.17320941202342510223388671875">
        <ele>1865</ele>
        <time>2026-06-20T08:46:22.000Z</time>
        <extensions>
          <ns3:TrackPointExtension>
            <ns3:atemp>23.0</ns3:atemp>
          </ns3:TrackPointExtension>
        </extensions>
      </trkpt>
      <trkpt lat="42.530326209962368011474609375" lon="20.173255763947963714599609375">
        <ele>1865.199951171875</ele>
        <time>2026-06-20T08:46:23.000Z</time>
        <extensions>
          <ns3:TrackPointExtension>
            <ns3:atemp>23.0</ns3:atemp>
          </ns3:TrackPointExtension>
        </extensions>
      </trkpt>
      <trkpt lat="42.53032092936336994171142578125" lon="20.173305384814739227294921875">
        <ele>1865.4000244140625</ele>
        <time>2026-06-20T08:46:24.000Z</time>
        <extensions>
          <ns3:TrackPointExtension>
            <ns3:atemp>23.0</ns3:atemp>
          </ns3:TrackPointExtension>
        </extensions>
      </trkpt>
      <trkpt lat="42.53031321801245212554931640625" lon="20.17334955744445323944091796875">
        <ele>1865.5999755859375</ele>
        <time>2026-06-20T08:46:25.000Z</time>
        <extensions>
          <ns3:TrackPointExtension>
            <ns3:atemp>23.0</ns3:atemp>
          </ns3:TrackPointExtension>
        </extensions>
      </trkpt>
      <trkpt lat="42.530304752290248870849609375" lon="20.173396579921245574951171875">
        <ele>1865.5999755859375</ele>
        <time>2026-06-20T08:46:26.000Z</time>
        <extensions>
          <ns3:TrackPointExtension>
            <ns3:atemp>23.0</ns3:atemp>
          </ns3:TrackPointExtension>
        </extensions>
      </trkpt>
      <trkpt lat="42.53028572537004947662353515625" lon="20.17344008199870586395263671875">
        <ele>1865.800048828125</ele>
        <time>2026-06-20T08:46:27.000Z</time>
        <extensions>
          <ns3:TrackPointExtension>
            <ns3:atemp>23.0</ns3:atemp>
          </ns3:TrackPointExtension>
        </extensions>
      </trkpt>
      <trkpt lat="42.5302636809647083282470703125" lon="20.17347863875329494476318359375">
        <ele>1865.800048828125</ele>
        <time>2026-06-20T08:46:28.000Z</time>
        <extensions>
          <ns3:TrackPointExtension>
            <ns3:atemp>23.0</ns3:atemp>
          </ns3:TrackPointExtension>
        </extensions>
      </trkpt>
      <trkpt lat="42.53023878671228885650634765625" lon="20.17350831069052219390869140625">
        <ele>1866</ele>
        <time>2026-06-20T08:46:29.000Z</time>
        <extensions>
          <ns3:TrackPointExtension>
            <ns3:atemp>23.0</ns3:atemp>
          </ns3:TrackPointExtension>
        </extensions>
      </trkpt>
      <trkpt lat="42.53020517528057098388671875" lon="20.17353161238133907318115234375">
        <ele>1866.199951171875</ele>
        <time>2026-06-20T08:46:30.000Z</time>
        <extensions>
          <ns3:TrackPointExtension>
            <ns3:atemp>23.0</ns3:atemp>
          </ns3:TrackPointExtension>
        </extensions>
      </trkpt>
      <trkpt lat="42.5301714800298213958740234375" lon="20.17353630624711513519287109375">
        <ele>1866.199951171875</ele>
        <time>2026-06-20T08:46:31.000Z</time>
        <extensions>
          <ns3:TrackPointExtension>
            <ns3:atemp>23.0</ns3:atemp>
          </ns3:TrackPointExtension>
        </extensions>
      </trkpt>
      <trkpt lat="42.530138455331325531005859375" lon="20.17352356575429439544677734375">
        <ele>1866.4000244140625</ele>
        <time>2026-06-20T08:46:32.000Z</time>
        <extensions>
          <ns3:TrackPointExtension>
            <ns3:atemp>23.0</ns3:atemp>
          </ns3:TrackPointExtension>
        </extensions>
      </trkpt>
      <trkpt lat="42.53011339344084262847900390625" lon="20.1734990067780017852783203125">
        <ele>1866.4000244140625</ele>
        <time>2026-06-20T08:46:33.000Z</time>
        <extensions>
          <ns3:TrackPointExtension>
            <ns3:atemp>23.0</ns3:atemp>
          </ns3:TrackPointExtension>
        </extensions>
      </trkpt>
      <trkpt lat="42.53008757717907428741455078125" lon="20.1734664849936962127685546875">
        <ele>1866.5999755859375</ele>
        <time>2026-06-20T08:46:34.000Z</time>
        <extensions>
          <ns3:TrackPointExtension>
            <ns3:atemp>23.0</ns3:atemp>
          </ns3:TrackPointExtension>
        </extensions>
      </trkpt>
      <trkpt lat="42.530068047344684600830078125" lon="20.1734264194965362548828125">
        <ele>1866.5999755859375</ele>
        <time>2026-06-20T08:46:35.000Z</time>
        <extensions>
          <ns3:TrackPointExtension>
            <ns3:atemp>23.0</ns3:atemp>
          </ns3:TrackPointExtension>
        </extensions>
      </trkpt>
      <trkpt lat="42.53005019389092922210693359375" lon="20.17338509671390056610107421875">
        <ele>1866.800048828125</ele>
        <time>2026-06-20T08:46:36.000Z</time>
        <extensions>
          <ns3:TrackPointExtension>
            <ns3:atemp>23.0</ns3:atemp>
          </ns3:TrackPointExtension>
        </extensions>
      </trkpt>
      <trkpt lat="42.5300316698849201202392578125" lon="20.17334301955997943878173828125">
        <ele>1867</ele>
        <time>2026-06-20T08:46:37.000Z</time>
        <extensions>
          <ns3:TrackPointExtension>
            <ns3:atemp>23.0</ns3:atemp>
          </ns3:TrackPointExtension>
        </extensions>
      </trkpt>
      <trkpt lat="42.530008368194103240966796875" lon="20.17329834401607513427734375">
        <ele>1867</ele>
        <time>2026-06-20T08:46:38.000Z</time>
        <extensions>
          <ns3:TrackPointExtension>
            <ns3:atemp>23.0</ns3:atemp>
          </ns3:TrackPointExtension>
        </extensions>
      </trkpt>
      <trkpt lat="42.52997986972332000732421875" lon="20.1732552610337734222412109375">
        <ele>1867</ele>
        <time>2026-06-20T08:46:39.000Z</time>
        <extensions>
          <ns3:TrackPointExtension>
            <ns3:atemp>23.0</ns3:atemp>
          </ns3:TrackPointExtension>
        </extensions>
      </trkpt>
      <trkpt lat="42.529953382909297943115234375" lon="20.17321310006082057952880859375">
        <ele>1867.199951171875</ele>
        <time>2026-06-20T08:46:40.000Z</time>
        <extensions>
          <ns3:TrackPointExtension>
            <ns3:atemp>23.0</ns3:atemp>
          </ns3:TrackPointExtension>
        </extensions>
      </trkpt>
      <trkpt lat="42.52992731519043445587158203125" lon="20.17316582612693309783935546875">
        <ele>1867.199951171875</ele>
        <time>2026-06-20T08:46:41.000Z</time>
        <extensions>
          <ns3:TrackPointExtension>
            <ns3:atemp>23.0</ns3:atemp>
          </ns3:TrackPointExtension>
        </extensions>
      </trkpt>
      <trkpt lat="42.529907785356044769287109375" lon="20.173120982944965362548828125">
        <ele>1867.199951171875</ele>
        <time>2026-06-20T08:46:42.000Z</time>
        <extensions>
          <ns3:TrackPointExtension>
            <ns3:atemp>23.0</ns3:atemp>
          </ns3:TrackPointExtension>
        </extensions>
      </trkpt>
      <trkpt lat="42.5298880040645599365234375" lon="20.173073373734951019287109375">
        <ele>1867.199951171875</ele>
        <time>2026-06-20T08:46:43.000Z</time>
        <extensions>
          <ns3:TrackPointExtension>
            <ns3:atemp>23.0</ns3:atemp>
          </ns3:TrackPointExtension>
        </extensions>
      </trkpt>
      <trkpt lat="42.52986981533467769622802734375" lon="20.17302786000072956085205078125">
        <ele>1867.199951171875</ele>
        <time>2026-06-20T08:46:44.000Z</time>
        <extensions>
          <ns3:TrackPointExtension>
            <ns3:atemp>23.0</ns3:atemp>
          </ns3:TrackPointExtension>
        </extensions>
      </trkpt>
      <trkpt lat="42.52985020168125629425048828125" lon="20.1729900576174259185791015625">
        <ele>1867.4000244140625</ele>
        <time>2026-06-20T08:46:45.000Z</time>
        <extensions>
          <ns3:TrackPointExtension>
            <ns3:atemp>23.0</ns3:atemp>
          </ns3:TrackPointExtension>
        </extensions>
      </trkpt>
      <trkpt lat="42.52982840873301029205322265625" lon="20.17295057885348796844482421875">
        <ele>1867.5999755859375</ele>
        <time>2026-06-20T08:46:46.000Z</time>
        <extensions>
          <ns3:TrackPointExtension>
            <ns3:atemp>23.0</ns3:atemp>
          </ns3:TrackPointExtension>
        </extensions>
      </trkpt>
      <trkpt lat="42.5298093818128108978271484375" lon="20.1729141175746917724609375">
        <ele>1867.5999755859375</ele>
        <time>2026-06-20T08:46:47.000Z</time>
        <extensions>
          <ns3:TrackPointExtension>
            <ns3:atemp>23.0</ns3:atemp>
          </ns3:TrackPointExtension>
        </extensions>
      </trkpt>
      <trkpt lat="42.5297882594168186187744140625" lon="20.1728690229356288909912109375">
        <ele>1867.800048828125</ele>
        <time>2026-06-20T08:46:48.000Z</time>
        <extensions>
          <ns3:TrackPointExtension>
            <ns3:atemp>23.0</ns3:atemp>
          </ns3:TrackPointExtension>
        </extensions>
      </trkpt>
      <trkpt lat="42.52976596355438232421875" lon="20.1728229224681854248046875">
        <ele>1868</ele>
        <time>2026-06-20T08:46:49.000Z</time>
        <extensions>
          <ns3:TrackPointExtension>
            <ns3:atemp>23.0</ns3:atemp>
          </ns3:TrackPointExtension>
        </extensions>
      </trkpt>
      <trkpt lat="42.52974358387291431427001953125" lon="20.17277405597269535064697265625">
        <ele>1868</ele>
        <time>2026-06-20T08:46:50.000Z</time>
        <extensions>
          <ns3:TrackPointExtension>
            <ns3:atemp>23.0</ns3:atemp>
          </ns3:TrackPointExtension>
        </extensions>
      </trkpt>
      <trkpt lat="42.529715336859226226806640625" lon="20.1727221719920635223388671875">
        <ele>1867.5999755859375</ele>
        <time>2026-06-20T08:46:51.000Z</time>
        <extensions>
          <ns3:TrackPointExtension>
            <ns3:atemp>23.0</ns3:atemp>
          </ns3:TrackPointExtension>
        </extensions>
      </trkpt>
      <trkpt lat="42.52968206070363521575927734375" lon="20.1726698689162731170654296875">
        <ele>1867.4000244140625</ele>
        <time>2026-06-20T08:46:52.000Z</time>
        <extensions>
          <ns3:TrackPointExtension>
            <ns3:atemp>23.0</ns3:atemp>
          </ns3:TrackPointExtension>
        </extensions>
      </trkpt>
      <trkpt lat="42.52964450977742671966552734375" lon="20.1726148836314678192138671875">
        <ele>1867.199951171875</ele>
        <time>2026-06-20T08:46:53.000Z</time>
        <extensions>
          <ns3:TrackPointExtension>
            <ns3:atemp>23.0</ns3:atemp>
          </ns3:TrackPointExtension>
        </extensions>
      </trkpt>
      <trkpt lat="42.52960461191833019256591796875" lon="20.1725555397570133209228515625">
        <ele>1866.5999755859375</ele>
        <time>2026-06-20T08:46:54.000Z</time>
        <extensions>
          <ns3:TrackPointExtension>
            <ns3:atemp>23.0</ns3:atemp>
          </ns3:TrackPointExtension>
        </extensions>
      </trkpt>
      <trkpt lat="42.52956957556307315826416015625" lon="20.172488652169704437255859375">
        <ele>1866</ele>
        <time>2026-06-20T08:46:55.000Z</time>
        <extensions>
          <ns3:TrackPointExtension>
            <ns3:atemp>23.0</ns3:atemp>
          </ns3:TrackPointExtension>
        </extensions>
      </trkpt>
      <trkpt lat="42.52953990362584590911865234375" lon="20.17241816036403179168701171875">
        <ele>1865.5999755859375</ele>
        <time>2026-06-20T08:46:56.000Z</time>
        <extensions>
          <ns3:TrackPointExtension>
            <ns3:atemp>23.0</ns3:atemp>
          </ns3:TrackPointExtension>
        </extensions>
      </trkpt>
      <trkpt lat="42.529512159526348114013671875" lon="20.172345824539661407470703125">
        <ele>1865.4000244140625</ele>
        <time>2026-06-20T08:46:57.000Z</time>
        <extensions>
          <ns3:TrackPointExtension>
            <ns3:atemp>23.0</ns3:atemp>
          </ns3:TrackPointExtension>
        </extensions>
      </trkpt>
      <trkpt lat="42.529484666883945465087890625" lon="20.172274746000766754150390625">
        <ele>1865.199951171875</ele>
        <time>2026-06-20T08:46:58.000Z</time>
        <extensions>
          <ns3:TrackPointExtension>
            <ns3:atemp>23.0</ns3:atemp>
          </ns3:TrackPointExtension>
        </extensions>
      </trkpt>
      <trkpt lat="42.52945524640381336212158203125" lon="20.1722033321857452392578125">
        <ele>1864.800048828125</ele>
        <time>2026-06-20T08:46:59.000Z</time>
        <extensions>
          <ns3:TrackPointExtension>
            <ns3:atemp>23.0</ns3:atemp>
          </ns3:TrackPointExtension>
        </extensions>
      </trkpt>
      <trkpt lat="42.52942507155239582061767578125" lon="20.172129236161708831787109375">
        <ele>1864.5999755859375</ele>
        <time>2026-06-20T08:47:00.000Z</time>
        <extensions>
          <ns3:TrackPointExtension>
            <ns3:atemp>23.0</ns3:atemp>
          </ns3:TrackPointExtension>
        </extensions>
      </trkpt>
      <trkpt lat="42.5294010154902935028076171875" lon="20.17204432748258113861083984375">
        <ele>1864.4000244140625</ele>
        <time>2026-06-20T08:47:01.000Z</time>
        <extensions>
          <ns3:TrackPointExtension>
            <ns3:atemp>23.0</ns3:atemp>
          </ns3:TrackPointExtension>
        </extensions>
      </trkpt>
      <trkpt lat="42.52937327139079570770263671875" lon="20.17195028252899646759033203125">
        <ele>1863.800048828125</ele>
        <time>2026-06-20T08:47:02.000Z</time>
        <extensions>
          <ns3:TrackPointExtension>
            <ns3:atemp>23.0</ns3:atemp>
          </ns3:TrackPointExtension>
        </extensions>
      </trkpt>
      <trkpt lat="42.529338486492633819580078125" lon="20.1718517951667308807373046875">
        <ele>1863</ele>
        <time>2026-06-20T08:47:03.000Z</time>
        <extensions>
          <ns3:TrackPointExtension>
            <ns3:atemp>23.0</ns3:atemp>
          </ns3:TrackPointExtension>
        </extensions>
      </trkpt>
      <trkpt lat="42.529291212558746337890625" lon="20.17175397835671901702880859375">
        <ele>1861.5999755859375</ele>
        <time>2026-06-20T08:47:04.000Z</time>
        <extensions>
          <ns3:TrackPointExtension>
            <ns3:atemp>23.0</ns3:atemp>
          </ns3:TrackPointExtension>
        </extensions>
      </trkpt>
      <trkpt lat="42.52923329360783100128173828125" lon="20.17166697420179843902587890625">
        <ele>1860.4000244140625</ele>
        <time>2026-06-20T08:47:05.000Z</time>
        <extensions>
          <ns3:TrackPointExtension>
            <ns3:atemp>23.0</ns3:atemp>
          </ns3:TrackPointExtension>
        </extensions>
      </trkpt>
      <trkpt lat="42.52916908822953701019287109375" lon="20.1715864241123199462890625">
        <ele>1859.5999755859375</ele>
        <time>2026-06-20T08:47:06.000Z</time>
        <extensions>
          <ns3:TrackPointExtension>
            <ns3:atemp>23.0</ns3:atemp>
          </ns3:TrackPointExtension>
        </extensions>
      </trkpt>
      <trkpt lat="42.5291126780211925506591796875" lon="20.17150419764220714569091796875">
        <ele>1859</ele>
        <time>2026-06-20T08:47:07.000Z</time>
        <extensions>
          <ns3:TrackPointExtension>
            <ns3:atemp>23.0</ns3:atemp>
          </ns3:TrackPointExtension>
        </extensions>
      </trkpt>
      <trkpt lat="42.5290613807737827301025390625" lon="20.1714313589036464691162109375">
        <ele>1858.199951171875</ele>
        <time>2026-06-20T08:47:08.000Z</time>
        <extensions>
          <ns3:TrackPointExtension>
            <ns3:atemp>23.0</ns3:atemp>
          </ns3:TrackPointExtension>
        </extensions>
      </trkpt>
      <trkpt lat="42.52901536412537097930908203125" lon="20.17135784961283206939697265625">
        <ele>1857.5999755859375</ele>
        <time>2026-06-20T08:47:09.000Z</time>
        <extensions>
          <ns3:TrackPointExtension>
            <ns3:atemp>23.0</ns3:atemp>
          </ns3:TrackPointExtension>
        </extensions>
      </trkpt>
      <trkpt lat="42.52897043712437152862548828125" lon="20.17129112966358661651611328125">
        <ele>1857</ele>
        <time>2026-06-20T08:47:10.000Z</time>
        <extensions>
          <ns3:TrackPointExtension>
            <ns3:atemp>23.0</ns3:atemp>
          </ns3:TrackPointExtension>
        </extensions>
      </trkpt>
      <trkpt lat="42.52893070690333843231201171875" lon="20.17122365534305572509765625">
        <ele>1856.800048828125</ele>
        <time>2026-06-20T08:47:11.000Z</time>
        <extensions>
          <ns3:TrackPointExtension>
            <ns3:atemp>23.0</ns3:atemp>
          </ns3:TrackPointExtension>
        </extensions>
      </trkpt>
      <trkpt lat="42.52888913266360759735107421875" lon="20.17116322182118892669677734375">
        <ele>1856.5999755859375</ele>
        <time>2026-06-20T08:47:12.000Z</time>
        <extensions>
          <ns3:TrackPointExtension>
            <ns3:atemp>23.0</ns3:atemp>
          </ns3:TrackPointExtension>
        </extensions>
      </trkpt>
      <trkpt lat="42.528844960033893585205078125" lon="20.1711165346205234527587890625">
        <ele>1856.5999755859375</ele>
        <time>2026-06-20T08:47:13.000Z</time>
        <extensions>
          <ns3:TrackPointExtension>
            <ns3:atemp>23.0</ns3:atemp>
          </ns3:TrackPointExtension>
        </extensions>
      </trkpt>
      <trkpt lat="42.52880028448998928070068359375" lon="20.17108828760683536529541015625">
        <ele>1856.800048828125</ele>
        <time>2026-06-20T08:47:14.000Z</time>
        <extensions>
          <ns3:TrackPointExtension>
            <ns3:atemp>23.0</ns3:atemp>
          </ns3:TrackPointExtension>
        </extensions>
      </trkpt>
      <trkpt lat="42.52875535748898983001708984375" lon="20.17107353545725345611572265625">
        <ele>1857.199951171875</ele>
        <time>2026-06-20T08:47:15.000Z</time>
        <extensions>
          <ns3:TrackPointExtension>
            <ns3:atemp>23.0</ns3:atemp>
          </ns3:TrackPointExtension>
        </extensions>
      </trkpt>
      <trkpt lat="42.52871680073440074920654296875" lon="20.17106297425925731658935546875">
        <ele>1857.5999755859375</ele>
        <time>2026-06-20T08:47:16.000Z</time>
        <extensions>
          <ns3:TrackPointExtension>
            <ns3:atemp>23.0</ns3:atemp>
          </ns3:TrackPointExtension>
        </extensions>
      </trkpt>
      <trkpt lat="42.5286845304071903228759765625" lon="20.171046294271945953369140625">
        <ele>1857.800048828125</ele>
        <time>2026-06-20T08:47:17.000Z</time>
        <extensions>
          <ns3:TrackPointExtension>
            <ns3:atemp>23.0</ns3:atemp>
          </ns3:TrackPointExtension>
        </extensions>
      </trkpt>
      <trkpt lat="42.52864907495677471160888671875" lon="20.17102793790400028228759765625">
        <ele>1858.199951171875</ele>
        <time>2026-06-20T08:47:18.000Z</time>
        <extensions>
          <ns3:TrackPointExtension>
            <ns3:atemp>23.0</ns3:atemp>
          </ns3:TrackPointExtension>
        </extensions>
      </trkpt>
      <trkpt lat="42.52861596643924713134765625" lon="20.17100748606026172637939453125">
        <ele>1858.5999755859375</ele>
        <time>2026-06-20T08:47:19.000Z</time>
        <extensions>
          <ns3:TrackPointExtension>
            <ns3:atemp>23.0</ns3:atemp>
          </ns3:TrackPointExtension>
        </extensions>
      </trkpt>
      <trkpt lat="42.5285839475691318511962890625" lon="20.17098887823522090911865234375">
        <ele>1859</ele>
        <time>2026-06-20T08:47:20.000Z</time>
        <extensions>
          <ns3:TrackPointExtension>
            <ns3:atemp>23.0</ns3:atemp>
          </ns3:TrackPointExtension>
        </extensions>
      </trkpt>
      <trkpt lat="42.52855184487998485565185546875" lon="20.17096390016376972198486328125">
        <ele>1859.4000244140625</ele>
        <time>2026-06-20T08:47:21.000Z</time>
        <extensions>
          <ns3:TrackPointExtension>
            <ns3:atemp>23.0</ns3:atemp>
          </ns3:TrackPointExtension>
        </extensions>
      </trkpt>
      <trkpt lat="42.528521753847599029541015625" lon="20.1709421910345554351806640625">
        <ele>1859.5999755859375</ele>
        <time>2026-06-20T08:47:22.000Z</time>
        <extensions>
          <ns3:TrackPointExtension>
            <ns3:atemp>23.0</ns3:atemp>
          </ns3:TrackPointExtension>
        </extensions>
      </trkpt>
      <trkpt lat="42.52849199809134006500244140625" lon="20.1709153689444065093994140625">
        <ele>1859.800048828125</ele>
        <time>2026-06-20T08:47:23.000Z</time>
        <extensions>
          <ns3:TrackPointExtension>
            <ns3:atemp>23.0</ns3:atemp>
          </ns3:TrackPointExtension>
        </extensions>
      </trkpt>
      <trkpt lat="42.52846450544893741607666015625" lon="20.1708935759961605072021484375">
        <ele>1860.199951171875</ele>
        <time>2026-06-20T08:47:24.000Z</time>
        <extensions>
          <ns3:TrackPointExtension>
            <ns3:atemp>23.0</ns3:atemp>
          </ns3:TrackPointExtension>
        </extensions>
      </trkpt>
      <trkpt lat="42.52843667753040790557861328125" lon="20.17086734063923358917236328125">
        <ele>1860.4000244140625</ele>
        <time>2026-06-20T08:47:25.000Z</time>
        <extensions>
          <ns3:TrackPointExtension>
            <ns3:atemp>23.0</ns3:atemp>
          </ns3:TrackPointExtension>
        </extensions>
      </trkpt>
      <trkpt lat="42.5284072570502758026123046875" lon="20.17084144055843353271484375">
        <ele>1860.5999755859375</ele>
        <time>2026-06-20T08:47:26.000Z</time>
        <extensions>
          <ns3:TrackPointExtension>
            <ns3:atemp>23.0</ns3:atemp>
          </ns3:TrackPointExtension>
        </extensions>
      </trkpt>
      <trkpt lat="42.5283821113407611846923828125" lon="20.17081319354474544525146484375">
        <ele>1860.800048828125</ele>
        <time>2026-06-20T08:47:27.000Z</time>
        <extensions>
          <ns3:TrackPointExtension>
            <ns3:atemp>23.0</ns3:atemp>
          </ns3:TrackPointExtension>
        </extensions>
      </trkpt>
      <trkpt lat="42.5283566303551197052001953125" lon="20.1707817614078521728515625">
        <ele>1861</ele>
        <time>2026-06-20T08:47:28.000Z</time>
        <extensions>
          <ns3:TrackPointExtension>
            <ns3:atemp>23.0</ns3:atemp>
          </ns3:TrackPointExtension>
        </extensions>
      </trkpt>
      <trkpt lat="42.52832855097949504852294921875" lon="20.1707500778138637542724609375">
        <ele>1861</ele>
        <time>2026-06-20T08:47:29.000Z</time>
        <extensions>
          <ns3:TrackPointExtension>
            <ns3:atemp>23.0</ns3:atemp>
          </ns3:TrackPointExtension>
        </extensions>
      </trkpt>
      <trkpt lat="42.52830206416547298431396484375" lon="20.170725099742412567138671875">
        <ele>1861.199951171875</ele>
        <time>2026-06-20T08:47:30.000Z</time>
        <extensions>
          <ns3:TrackPointExtension>
            <ns3:atemp>23.0</ns3:atemp>
          </ns3:TrackPointExtension>
        </extensions>
      </trkpt>
      <trkpt lat="42.52828203141689300537109375" lon="20.1707031391561031341552734375">
        <ele>1861.4000244140625</ele>
        <time>2026-06-20T08:47:31.000Z</time>
        <extensions>
          <ns3:TrackPointExtension>
            <ns3:atemp>23.0</ns3:atemp>
          </ns3:TrackPointExtension>
        </extensions>
      </trkpt>
      <trkpt lat="42.52826501615345478057861328125" lon="20.1706800051033496856689453125">
        <ele>1861.5999755859375</ele>
        <time>2026-06-20T08:47:32.000Z</time>
        <extensions>
          <ns3:TrackPointExtension>
            <ns3:atemp>23.0</ns3:atemp>
          </ns3:TrackPointExtension>
        </extensions>
      </trkpt>
      <trkpt lat="42.528248168528079986572265625" lon="20.17065636813640594482421875">
        <ele>1861.800048828125</ele>
        <time>2026-06-20T08:47:33.000Z</time>
        <extensions>
          <ns3:TrackPointExtension>
            <ns3:atemp>23.0</ns3:atemp>
          </ns3:TrackPointExtension>
        </extensions>
      </trkpt>
      <trkpt lat="42.5282325781881809234619140625" lon="20.170637257397174835205078125">
        <ele>1862</ele>
        <time>2026-06-20T08:47:34.000Z</time>
        <extensions>
          <ns3:TrackPointExtension>
            <ns3:atemp>23.0</ns3:atemp>
          </ns3:TrackPointExtension>
        </extensions>
      </trkpt>
      <trkpt lat="42.52821673639118671417236328125" lon="20.17061906866729259490966796875">
        <ele>1862</ele>
        <time>2026-06-20T08:47:35.000Z</time>
        <extensions>
          <ns3:TrackPointExtension>
            <ns3:atemp>23.0</ns3:atemp>
          </ns3:TrackPointExtension>
        </extensions>
      </trkpt>
      <trkpt lat="42.52820299006998538970947265625" lon="20.17059803009033203125">
        <ele>1862.199951171875</ele>
        <time>2026-06-20T08:47:36.000Z</time>
        <extensions>
          <ns3:TrackPointExtension>
            <ns3:atemp>23.0</ns3:atemp>
          </ns3:TrackPointExtension>
        </extensions>
      </trkpt>
      <trkpt lat="42.52819024957716464996337890625" lon="20.17058126628398895263671875">
        <ele>1862.199951171875</ele>
        <time>2026-06-20T08:47:37.000Z</time>
        <extensions>
          <ns3:TrackPointExtension>
            <ns3:atemp>23.0</ns3:atemp>
          </ns3:TrackPointExtension>
        </extensions>
      </trkpt>
      <trkpt lat="42.52817600034177303314208984375" lon="20.1705593056976795196533203125">
        <ele>1862.199951171875</ele>
        <time>2026-06-20T08:47:38.000Z</time>
        <extensions>
          <ns3:TrackPointExtension>
            <ns3:atemp>22.0</ns3:atemp>
          </ns3:TrackPointExtension>
        </extensions>
      </trkpt>
      <trkpt lat="42.5281621702015399932861328125" lon="20.17053172923624515533447265625">
        <ele>1862</ele>
        <time>2026-06-20T08:47:39.000Z</time>
        <extensions>
          <ns3:TrackPointExtension>
            <ns3:atemp>22.0</ns3:atemp>
          </ns3:TrackPointExtension>
        </extensions>
      </trkpt>
      <trkpt lat="42.528145574033260345458984375" lon="20.17050021328032016754150390625">
        <ele>1862.199951171875</ele>
        <time>2026-06-20T08:47:40.000Z</time>
        <extensions>
          <ns3:TrackPointExtension>
            <ns3:atemp>22.0</ns3:atemp>
          </ns3:TrackPointExtension>
        </extensions>
      </trkpt>
      <trkpt lat="42.52812570892274379730224609375" lon="20.17046433873474597930908203125">
        <ele>1861.800048828125</ele>
        <time>2026-06-20T08:47:41.000Z</time>
        <extensions>
          <ns3:TrackPointExtension>
            <ns3:atemp>22.0</ns3:atemp>
          </ns3:TrackPointExtension>
        </extensions>
      </trkpt>
      <trkpt lat="42.52809855155646800994873046875" lon="20.170432738959789276123046875">
        <ele>1861.5999755859375</ele>
        <time>2026-06-20T08:47:42.000Z</time>
        <extensions>
          <ns3:TrackPointExtension>
            <ns3:atemp>23.0</ns3:atemp>
          </ns3:TrackPointExtension>
        </extensions>
      </trkpt>
      <trkpt lat="42.52806401811540126800537109375" lon="20.1704010553658008575439453125">
        <ele>1861.199951171875</ele>
        <time>2026-06-20T08:47:43.000Z</time>
        <extensions>
          <ns3:TrackPointExtension>
            <ns3:atemp>23.0</ns3:atemp>
          </ns3:TrackPointExtension>
        </extensions>
      </trkpt>
      <trkpt lat="42.5280294008553028106689453125" lon="20.17037230543792247772216796875">
        <ele>1860.800048828125</ele>
        <time>2026-06-20T08:47:44.000Z</time>
        <extensions>
          <ns3:TrackPointExtension>
            <ns3:atemp>23.0</ns3:atemp>
          </ns3:TrackPointExtension>
        </extensions>
      </trkpt>
      <trkpt lat="42.52798791043460369110107421875" lon="20.17035302706062793731689453125">
        <ele>1860.4000244140625</ele>
        <time>2026-06-20T08:47:45.000Z</time>
        <extensions>
          <ns3:TrackPointExtension>
            <ns3:atemp>23.0</ns3:atemp>
          </ns3:TrackPointExtension>
        </extensions>
      </trkpt>
      <trkpt lat="42.52795170061290264129638671875" lon="20.17034447751939296722412109375">
        <ele>1860.199951171875</ele>
        <time>2026-06-20T08:47:46.000Z</time>
        <extensions>
          <ns3:TrackPointExtension>
            <ns3:atemp>23.0</ns3:atemp>
          </ns3:TrackPointExtension>
        </extensions>
      </trkpt>
      <trkpt lat="42.5279211066663265228271484375" lon="20.17033928073942661285400390625">
        <ele>1860</ele>
        <time>2026-06-20T08:47:47.000Z</time>
        <extensions>
          <ns3:TrackPointExtension>
            <ns3:atemp>22.0</ns3:atemp>
          </ns3:TrackPointExtension>
        </extensions>
      </trkpt>
      <trkpt lat="42.52789034508168697357177734375" lon="20.170326121151447296142578125">
        <ele>1860.199951171875</ele>
        <time>2026-06-20T08:47:48.000Z</time>
        <extensions>
          <ns3:TrackPointExtension>
            <ns3:atemp>23.0</ns3:atemp>
          </ns3:TrackPointExtension>
        </extensions>
      </trkpt>
      <trkpt lat="42.5278587453067302703857421875" lon="20.1703070104122161865234375">
        <ele>1860.4000244140625</ele>
        <time>2026-06-20T08:47:49.000Z</time>
        <extensions>
          <ns3:TrackPointExtension>
            <ns3:atemp>22.0</ns3:atemp>
          </ns3:TrackPointExtension>
        </extensions>
      </trkpt>
      <trkpt lat="42.527832090854644775390625" lon="20.170278511941432952880859375">
        <ele>1860.5999755859375</ele>
        <time>2026-06-20T08:47:50.000Z</time>
        <extensions>
          <ns3:TrackPointExtension>
            <ns3:atemp>22.0</ns3:atemp>
          </ns3:TrackPointExtension>
        </extensions>
      </trkpt>
      <trkpt lat="42.52780702896416187286376953125" lon="20.1702407933771610260009765625">
        <ele>1860.800048828125</ele>
        <time>2026-06-20T08:47:51.000Z</time>
        <extensions>
          <ns3:TrackPointExtension>
            <ns3:atemp>22.0</ns3:atemp>
          </ns3:TrackPointExtension>
        </extensions>
      </trkpt>
      <trkpt lat="42.527778781950473785400390625" lon="20.17019947059452533721923828125">
        <ele>1860.800048828125</ele>
        <time>2026-06-20T08:47:52.000Z</time>
        <extensions>
          <ns3:TrackPointExtension>
            <ns3:atemp>23.0</ns3:atemp>
          </ns3:TrackPointExtension>
        </extensions>
      </trkpt>
      <trkpt lat="42.52776126377284526824951171875" lon="20.170146413147449493408203125">
        <ele>1861</ele>
        <time>2026-06-20T08:47:53.000Z</time>
        <extensions>
          <ns3:TrackPointExtension>
            <ns3:atemp>22.0</ns3:atemp>
          </ns3:TrackPointExtension>
        </extensions>
      </trkpt>
      <trkpt lat="42.52774835564196109771728515625" lon="20.17009385861456394195556640625">
        <ele>1860.800048828125</ele>
        <time>2026-06-20T08:47:54.000Z</time>
        <extensions>
          <ns3:TrackPointExtension>
            <ns3:atemp>22.0</ns3:atemp>
          </ns3:TrackPointExtension>
        </extensions>
      </trkpt>
      <trkpt lat="42.52772815525531768798828125" lon="20.17004826106131076812744140625">
        <ele>1860.800048828125</ele>
        <time>2026-06-20T08:47:55.000Z</time>
        <extensions>
          <ns3:TrackPointExtension>
            <ns3:atemp>22.0</ns3:atemp>
          </ns3:TrackPointExtension>
        </extensions>
      </trkpt>
      <trkpt lat="42.52770376391708850860595703125" lon="20.17001272179186344146728515625">
        <ele>1860.800048828125</ele>
        <time>2026-06-20T08:47:56.000Z</time>
        <extensions>
          <ns3:TrackPointExtension>
            <ns3:atemp>22.0</ns3:atemp>
          </ns3:TrackPointExtension>
        </extensions>
      </trkpt>
      <trkpt lat="42.52767342142760753631591796875" lon="20.16997776925563812255859375">
        <ele>1860.800048828125</ele>
        <time>2026-06-20T08:47:57.000Z</time>
        <extensions>
          <ns3:TrackPointExtension>
            <ns3:atemp>22.0</ns3:atemp>
          </ns3:TrackPointExtension>
        </extensions>
      </trkpt>
      <trkpt lat="42.52764894627034664154052734375" lon="20.16993141733109951019287109375">
        <ele>1860.800048828125</ele>
        <time>2026-06-20T08:47:58.000Z</time>
        <extensions>
          <ns3:TrackPointExtension>
            <ns3:atemp>22.0</ns3:atemp>
          </ns3:TrackPointExtension>
        </extensions>
      </trkpt>
      <trkpt lat="42.52762597985565662384033203125" lon="20.1698805391788482666015625">
        <ele>1860.800048828125</ele>
        <time>2026-06-20T08:47:59.000Z</time>
        <extensions>
          <ns3:TrackPointExtension>
            <ns3:atemp>22.0</ns3:atemp>
          </ns3:TrackPointExtension>
        </extensions>
      </trkpt>
      <trkpt lat="42.52760209143161773681640625" lon="20.16983385197818279266357421875">
        <ele>1860.5999755859375</ele>
        <time>2026-06-20T08:48:00.000Z</time>
        <extensions>
          <ns3:TrackPointExtension>
            <ns3:atemp>22.0</ns3:atemp>
          </ns3:TrackPointExtension>
        </extensions>
      </trkpt>
      <trkpt lat="42.5275828130543231964111328125" lon="20.16978867352008819580078125">
        <ele>1860.5999755859375</ele>
        <time>2026-06-20T08:48:01.000Z</time>
        <extensions>
          <ns3:TrackPointExtension>
            <ns3:atemp>22.0</ns3:atemp>
          </ns3:TrackPointExtension>
        </extensions>
      </trkpt>
      <trkpt lat="42.527568228542804718017578125" lon="20.169742405414581298828125">
        <ele>1860.5999755859375</ele>
        <time>2026-06-20T08:48:02.000Z</time>
        <extensions>
          <ns3:TrackPointExtension>
            <ns3:atemp>22.0</ns3:atemp>
          </ns3:TrackPointExtension>
        </extensions>
      </trkpt>
      <trkpt lat="42.52755925990641117095947265625" lon="20.16970016062259674072265625">
        <ele>1860.800048828125</ele>
        <time>2026-06-20T08:48:03.000Z</time>
        <extensions>
          <ns3:TrackPointExtension>
            <ns3:atemp>22.0</ns3:atemp>
          </ns3:TrackPointExtension>
        </extensions>
      </trkpt>
      <trkpt lat="42.52755003981292247772216796875" lon="20.16965313814580440521240234375">
        <ele>1861</ele>
        <time>2026-06-20T08:48:04.000Z</time>
        <extensions>
          <ns3:TrackPointExtension>
            <ns3:atemp>22.0</ns3:atemp>
          </ns3:TrackPointExtension>
        </extensions>
      </trkpt>
      <trkpt lat="42.5275409035384654998779296875" lon="20.1696109771728515625">
        <ele>1861</ele>
        <time>2026-06-20T08:48:05.000Z</time>
        <extensions>
          <ns3:TrackPointExtension>
            <ns3:atemp>22.0</ns3:atemp>
          </ns3:TrackPointExtension>
        </extensions>
      </trkpt>
      <trkpt lat="42.5275291688740253448486328125" lon="20.1695640385150909423828125">
        <ele>1861.199951171875</ele>
        <time>2026-06-20T08:48:06.000Z</time>
        <extensions>
          <ns3:TrackPointExtension>
            <ns3:atemp>22.0</ns3:atemp>
          </ns3:TrackPointExtension>
        </extensions>
      </trkpt>
      <trkpt lat="42.5275174342095851898193359375" lon="20.16951835714280605316162109375">
        <ele>1861.4000244140625</ele>
        <time>2026-06-20T08:48:07.000Z</time>
        <extensions>
          <ns3:TrackPointExtension>
            <ns3:atemp>22.0</ns3:atemp>
          </ns3:TrackPointExtension>
        </extensions>
      </trkpt>
      <trkpt lat="42.5275067053735256195068359375" lon="20.16947753727436065673828125">
        <ele>1861.4000244140625</ele>
        <time>2026-06-20T08:48:08.000Z</time>
        <extensions>
          <ns3:TrackPointExtension>
            <ns3:atemp>22.0</ns3:atemp>
          </ns3:TrackPointExtension>
        </extensions>
      </trkpt>
      <trkpt lat="42.52749077975749969482421875" lon="20.16943822614848613739013671875">
        <ele>1861.5999755859375</ele>
        <time>2026-06-20T08:48:09.000Z</time>
        <extensions>
          <ns3:TrackPointExtension>
            <ns3:atemp>22.0</ns3:atemp>
          </ns3:TrackPointExtension>
        </extensions>
      </trkpt>
      <trkpt lat="42.52747309394180774688720703125" lon="20.16939916647970676422119140625">
        <ele>1861.5999755859375</ele>
        <time>2026-06-20T08:48:10.000Z</time>
        <extensions>
          <ns3:TrackPointExtension>
            <ns3:atemp>22.0</ns3:atemp>
          </ns3:TrackPointExtension>
        </extensions>
      </trkpt>
      <trkpt lat="42.52745750360190868377685546875" lon="20.16936111263930797576904296875">
        <ele>1861.800048828125</ele>
        <time>2026-06-20T08:48:11.000Z</time>
        <extensions>
          <ns3:TrackPointExtension>
            <ns3:atemp>22.0</ns3:atemp>
          </ns3:TrackPointExtension>
        </extensions>
      </trkpt>
      <trkpt lat="42.52744258381426334381103515625" lon="20.16932004131376743316650390625">
        <ele>1862</ele>
        <time>2026-06-20T08:48:12.000Z</time>
        <extensions>
          <ns3:TrackPointExtension>
            <ns3:atemp>22.0</ns3:atemp>
          </ns3:TrackPointExtension>
        </extensions>
      </trkpt>
      <trkpt lat="42.52742397598922252655029296875" lon="20.16928584314882755279541015625">
        <ele>1862.199951171875</ele>
        <time>2026-06-20T08:48:13.000Z</time>
        <extensions>
          <ns3:TrackPointExtension>
            <ns3:atemp>22.0</ns3:atemp>
          </ns3:TrackPointExtension>
        </extensions>
      </trkpt>
      <trkpt lat="42.5274031050503253936767578125" lon="20.16924845986068248748779296875">
        <ele>1862.4000244140625</ele>
        <time>2026-06-20T08:48:14.000Z</time>
        <extensions>
          <ns3:TrackPointExtension>
            <ns3:atemp>22.0</ns3:atemp>
          </ns3:TrackPointExtension>
        </extensions>
      </trkpt>
      <trkpt lat="42.5273816473782062530517578125" lon="20.16921292059123516082763671875">
        <ele>1862.5999755859375</ele>
        <time>2026-06-20T08:48:15.000Z</time>
        <extensions>
          <ns3:TrackPointExtension>
            <ns3:atemp>22.0</ns3:atemp>
          </ns3:TrackPointExtension>
        </extensions>
      </trkpt>
      <trkpt lat="42.52735708840191364288330078125" lon="20.16918291337788105010986328125">
        <ele>1862.5999755859375</ele>
        <time>2026-06-20T08:48:16.000Z</time>
        <extensions>
          <ns3:TrackPointExtension>
            <ns3:atemp>22.0</ns3:atemp>
          </ns3:TrackPointExtension>
        </extensions>
      </trkpt>
      <trkpt lat="42.52733428962528705596923828125" lon="20.1691518165171146392822265625">
        <ele>1862.800048828125</ele>
        <time>2026-06-20T08:48:17.000Z</time>
        <extensions>
          <ns3:TrackPointExtension>
            <ns3:atemp>22.0</ns3:atemp>
          </ns3:TrackPointExtension>
        </extensions>
      </trkpt>
      <trkpt lat="42.527312748134136199951171875" lon="20.16912214457988739013671875">
        <ele>1863</ele>
        <time>2026-06-20T08:48:18.000Z</time>
        <extensions>
          <ns3:TrackPointExtension>
            <ns3:atemp>22.0</ns3:atemp>
          </ns3:TrackPointExtension>
        </extensions>
      </trkpt>
      <trkpt lat="42.52728961408138275146484375" lon="20.16908937133848667144775390625">
        <ele>1863.199951171875</ele>
        <time>2026-06-20T08:48:19.000Z</time>
        <extensions>
          <ns3:TrackPointExtension>
            <ns3:atemp>22.0</ns3:atemp>
          </ns3:TrackPointExtension>
        </extensions>
      </trkpt>
      <trkpt lat="42.52726522274315357208251953125" lon="20.169055759906768798828125">
        <ele>1863.4000244140625</ele>
        <time>2026-06-20T08:48:20.000Z</time>
        <extensions>
          <ns3:TrackPointExtension>
            <ns3:atemp>22.0</ns3:atemp>
          </ns3:TrackPointExtension>
        </extensions>
      </trkpt>
      <trkpt lat="42.5272431783378124237060546875" lon="20.16902248375117778778076171875">
        <ele>1863.5999755859375</ele>
        <time>2026-06-20T08:48:21.000Z</time>
        <extensions>
          <ns3:TrackPointExtension>
            <ns3:atemp>22.0</ns3:atemp>
          </ns3:TrackPointExtension>
        </extensions>
      </trkpt>
      <trkpt lat="42.52722113393247127532958984375" lon="20.168985687196254730224609375">
        <ele>1863.800048828125</ele>
        <time>2026-06-20T08:48:22.000Z</time>
        <extensions>
          <ns3:TrackPointExtension>
            <ns3:atemp>22.0</ns3:atemp>
          </ns3:TrackPointExtension>
        </extensions>
      </trkpt>
      <trkpt lat="42.52719766460359096527099609375" lon="20.168954841792583465576171875">
        <ele>1864</ele>
        <time>2026-06-20T08:48:23.000Z</time>
        <extensions>
          <ns3:TrackPointExtension>
            <ns3:atemp>22.0</ns3:atemp>
          </ns3:TrackPointExtension>
        </extensions>
      </trkpt>
      <trkpt lat="42.52716849558055400848388671875" lon="20.16892592422664165496826171875">
        <ele>1864</ele>
        <time>2026-06-20T08:48:24.000Z</time>
        <extensions>
          <ns3:TrackPointExtension>
            <ns3:atemp>22.0</ns3:atemp>
          </ns3:TrackPointExtension>
        </extensions>
      </trkpt>
      <trkpt lat="42.5271459482610225677490234375" lon="20.168889798223972320556640625">
        <ele>1864</ele>
        <time>2026-06-20T08:48:25.000Z</time>
        <extensions>
          <ns3:TrackPointExtension>
            <ns3:atemp>22.0</ns3:atemp>
          </ns3:TrackPointExtension>
        </extensions>
      </trkpt>
      <trkpt lat="42.5271251611411571502685546875" lon="20.1688544265925884246826171875">
        <ele>1864.199951171875</ele>
        <time>2026-06-20T08:48:26.000Z</time>
        <extensions>
          <ns3:TrackPointExtension>
            <ns3:atemp>22.0</ns3:atemp>
          </ns3:TrackPointExtension>
        </extensions>
      </trkpt>
      <trkpt lat="42.52710521221160888671875" lon="20.16882047988474369049072265625">
        <ele>1864.199951171875</ele>
        <time>2026-06-20T08:48:27.000Z</time>
        <extensions>
          <ns3:TrackPointExtension>
            <ns3:atemp>22.0</ns3:atemp>
          </ns3:TrackPointExtension>
        </extensions>
      </trkpt>
      <trkpt lat="42.52708300016820430755615234375" lon="20.16878812573850154876708984375">
        <ele>1864.4000244140625</ele>
        <time>2026-06-20T08:48:28.000Z</time>
        <extensions>
          <ns3:TrackPointExtension>
            <ns3:atemp>22.0</ns3:atemp>
          </ns3:TrackPointExtension>
        </extensions>
      </trkpt>
      <trkpt lat="42.52706103958189487457275390625" lon="20.16875560395419597625732421875">
        <ele>1864.5999755859375</ele>
        <time>2026-06-20T08:48:29.000Z</time>
        <extensions>
          <ns3:TrackPointExtension>
            <ns3:atemp>22.0</ns3:atemp>
          </ns3:TrackPointExtension>
        </extensions>
      </trkpt>
      <trkpt lat="42.52703748643398284912109375" lon="20.16872274689376354217529296875">
        <ele>1864.800048828125</ele>
        <time>2026-06-20T08:48:30.000Z</time>
        <extensions>
          <ns3:TrackPointExtension>
            <ns3:atemp>22.0</ns3:atemp>
          </ns3:TrackPointExtension>
        </extensions>
      </trkpt>
      <trkpt lat="42.52701611258089542388916015625" lon="20.16869139857590198516845703125">
        <ele>1864.800048828125</ele>
        <time>2026-06-20T08:48:31.000Z</time>
        <extensions>
          <ns3:TrackPointExtension>
            <ns3:atemp>22.0</ns3:atemp>
          </ns3:TrackPointExtension>
        </extensions>
      </trkpt>
      <trkpt lat="42.5269927270710468292236328125" lon="20.1686601340770721435546875">
        <ele>1865</ele>
        <time>2026-06-20T08:48:32.000Z</time>
        <extensions>
          <ns3:TrackPointExtension>
            <ns3:atemp>22.0</ns3:atemp>
          </ns3:TrackPointExtension>
        </extensions>
      </trkpt>
      <trkpt lat="42.52697001211345195770263671875" lon="20.16862769611179828643798828125">
        <ele>1865.199951171875</ele>
        <time>2026-06-20T08:48:33.000Z</time>
        <extensions>
          <ns3:TrackPointExtension>
            <ns3:atemp>22.0</ns3:atemp>
          </ns3:TrackPointExtension>
        </extensions>
      </trkpt>
      <trkpt lat="42.526951320469379425048828125" lon="20.168598778545856475830078125">
        <ele>1865.4000244140625</ele>
        <time>2026-06-20T08:48:34.000Z</time>
        <extensions>
          <ns3:TrackPointExtension>
            <ns3:atemp>22.0</ns3:atemp>
          </ns3:TrackPointExtension>
        </extensions>
      </trkpt>
      <trkpt lat="42.526937909424304962158203125" lon="20.16857363283634185791015625">
        <ele>1865.5999755859375</ele>
        <time>2026-06-20T08:48:35.000Z</time>
        <extensions>
          <ns3:TrackPointExtension>
            <ns3:atemp>22.0</ns3:atemp>
          </ns3:TrackPointExtension>
        </extensions>
      </trkpt>
      <trkpt lat="42.52692072652280330657958984375" lon="20.1685479842126369476318359375">
        <ele>1865.800048828125</ele>
        <time>2026-06-20T08:48:36.000Z</time>
        <extensions>
          <ns3:TrackPointExtension>
            <ns3:atemp>22.0</ns3:atemp>
          </ns3:TrackPointExtension>
        </extensions>
      </trkpt>
      <trkpt lat="42.52690161578357219696044921875" lon="20.16851856373250484466552734375">
        <ele>1866.199951171875</ele>
        <time>2026-06-20T08:48:37.000Z</time>
        <extensions>
          <ns3:TrackPointExtension>
            <ns3:atemp>22.0</ns3:atemp>
          </ns3:TrackPointExtension>
        </extensions>
      </trkpt>
      <trkpt lat="42.52687864936888217926025390625" lon="20.168492160737514495849609375">
        <ele>1866.4000244140625</ele>
        <time>2026-06-20T08:48:38.000Z</time>
        <extensions>
          <ns3:TrackPointExtension>
            <ns3:atemp>22.0</ns3:atemp>
          </ns3:TrackPointExtension>
        </extensions>
      </trkpt>
      <trkpt lat="42.52685568295419216156005859375" lon="20.16847078688442707061767578125">
        <ele>1866.4000244140625</ele>
        <time>2026-06-20T08:48:39.000Z</time>
        <extensions>
          <ns3:TrackPointExtension>
            <ns3:atemp>22.0</ns3:atemp>
          </ns3:TrackPointExtension>
        </extensions>
      </trkpt>
      <trkpt lat="42.52683506347239017486572265625" lon="20.16844530589878559112548828125">
        <ele>1866.5999755859375</ele>
        <time>2026-06-20T08:48:40.000Z</time>
        <extensions>
          <ns3:TrackPointExtension>
            <ns3:atemp>22.0</ns3:atemp>
          </ns3:TrackPointExtension>
        </extensions>
      </trkpt>
      <trkpt lat="42.52681209705770015716552734375" lon="20.168419070541858673095703125">
        <ele>1866.800048828125</ele>
        <time>2026-06-20T08:48:41.000Z</time>
        <extensions>
          <ns3:TrackPointExtension>
            <ns3:atemp>22.0</ns3:atemp>
          </ns3:TrackPointExtension>
        </extensions>
      </trkpt>
      <trkpt lat="42.52678996883332729339599609375" lon="20.1683914102613925933837890625">
        <ele>1866.800048828125</ele>
        <time>2026-06-20T08:48:42.000Z</time>
        <extensions>
          <ns3:TrackPointExtension>
            <ns3:atemp>22.0</ns3:atemp>
          </ns3:TrackPointExtension>
        </extensions>
      </trkpt>
      <trkpt lat="42.52676792442798614501953125" lon="20.16836836002767086029052734375">
        <ele>1867</ele>
        <time>2026-06-20T08:48:43.000Z</time>
        <extensions>
          <ns3:TrackPointExtension>
            <ns3:atemp>22.0</ns3:atemp>
          </ns3:TrackPointExtension>
        </extensions>
      </trkpt>
      <trkpt lat="42.52674286253750324249267578125" lon="20.168350674211978912353515625">
        <ele>1867.199951171875</ele>
        <time>2026-06-20T08:48:44.000Z</time>
        <extensions>
          <ns3:TrackPointExtension>
            <ns3:atemp>22.0</ns3:atemp>
          </ns3:TrackPointExtension>
        </extensions>
      </trkpt>
      <trkpt lat="42.5267224945127964019775390625" lon="20.16832946799695491790771484375">
        <ele>1867.4000244140625</ele>
        <time>2026-06-20T08:48:45.000Z</time>
        <extensions>
          <ns3:TrackPointExtension>
            <ns3:atemp>22.0</ns3:atemp>
          </ns3:TrackPointExtension>
        </extensions>
      </trkpt>
      <trkpt lat="42.52670179121196269989013671875" lon="20.16830650158226490020751953125">
        <ele>1867.5999755859375</ele>
        <time>2026-06-20T08:48:46.000Z</time>
        <extensions>
          <ns3:TrackPointExtension>
            <ns3:atemp>22.0</ns3:atemp>
          </ns3:TrackPointExtension>
        </extensions>
      </trkpt>
      <trkpt lat="42.526683099567890167236328125" lon="20.16828185878694057464599609375">
        <ele>1867.800048828125</ele>
        <time>2026-06-20T08:48:47.000Z</time>
        <extensions>
          <ns3:TrackPointExtension>
            <ns3:atemp>22.0</ns3:atemp>
          </ns3:TrackPointExtension>
        </extensions>
      </trkpt>
      <trkpt lat="42.5266688503324985504150390625" lon="20.1682589761912822723388671875">
        <ele>1867.800048828125</ele>
        <time>2026-06-20T08:48:48.000Z</time>
        <extensions>
          <ns3:TrackPointExtension>
            <ns3:atemp>22.0</ns3:atemp>
          </ns3:TrackPointExtension>
        </extensions>
      </trkpt>
      <trkpt lat="42.52665753476321697235107421875" lon="20.16823374666273593902587890625">
        <ele>1868</ele>
        <time>2026-06-20T08:48:49.000Z</time>
        <extensions>
          <ns3:TrackPointExtension>
            <ns3:atemp>22.0</ns3:atemp>
          </ns3:TrackPointExtension>
        </extensions>
      </trkpt>
      <trkpt lat="42.52664412371814250946044921875" lon="20.16821463592350482940673828125">
        <ele>1868.199951171875</ele>
        <time>2026-06-20T08:48:50.000Z</time>
        <extensions>
          <ns3:TrackPointExtension>
            <ns3:atemp>22.0</ns3:atemp>
          </ns3:TrackPointExtension>
        </extensions>
      </trkpt>
      <trkpt lat="42.526623420417308807373046875" lon="20.16819736920297145843505859375">
        <ele>1868.199951171875</ele>
        <time>2026-06-20T08:48:51.000Z</time>
        <extensions>
          <ns3:TrackPointExtension>
            <ns3:atemp>23.0</ns3:atemp>
          </ns3:TrackPointExtension>
        </extensions>
      </trkpt>
      <trkpt lat="42.52660120837390422821044921875" lon="20.16818337142467498779296875">
        <ele>1868.4000244140625</ele>
        <time>2026-06-20T08:48:52.000Z</time>
        <extensions>
          <ns3:TrackPointExtension>
            <ns3:atemp>23.0</ns3:atemp>
          </ns3:TrackPointExtension>
        </extensions>
      </trkpt>
      <trkpt lat="42.52657656557857990264892578125" lon="20.16816250048577785491943359375">
        <ele>1868.5999755859375</ele>
        <time>2026-06-20T08:48:53.000Z</time>
        <extensions>
          <ns3:TrackPointExtension>
            <ns3:atemp>23.0</ns3:atemp>
          </ns3:TrackPointExtension>
        </extensions>
      </trkpt>
      <trkpt lat="42.5265464745461940765380859375" lon="20.16814422793686389923095703125">
        <ele>1868.5999755859375</ele>
        <time>2026-06-20T08:48:54.000Z</time>
        <extensions>
          <ns3:TrackPointExtension>
            <ns3:atemp>23.0</ns3:atemp>
          </ns3:TrackPointExtension>
        </extensions>
      </trkpt>
      <trkpt lat="42.52651789225637912750244140625" lon="20.16812327317893505096435546875">
        <ele>1868.800048828125</ele>
        <time>2026-06-20T08:48:55.000Z</time>
        <extensions>
          <ns3:TrackPointExtension>
            <ns3:atemp>23.0</ns3:atemp>
          </ns3:TrackPointExtension>
        </extensions>
      </trkpt>
      <trkpt lat="42.52648754976689815521240234375" lon="20.1681044138967990875244140625">
        <ele>1868.800048828125</ele>
        <time>2026-06-20T08:48:56.000Z</time>
        <extensions>
          <ns3:TrackPointExtension>
            <ns3:atemp>23.0</ns3:atemp>
          </ns3:TrackPointExtension>
        </extensions>
      </trkpt>
      <trkpt lat="42.5264589674770832061767578125" lon="20.16808588989078998565673828125">
        <ele>1868.800048828125</ele>
        <time>2026-06-20T08:48:57.000Z</time>
        <extensions>
          <ns3:TrackPointExtension>
            <ns3:atemp>23.0</ns3:atemp>
          </ns3:TrackPointExtension>
        </extensions>
      </trkpt>
      <trkpt lat="42.526431977748870849609375" lon="20.16806795261800289154052734375">
        <ele>1868.800048828125</ele>
        <time>2026-06-20T08:48:58.000Z</time>
        <extensions>
          <ns3:TrackPointExtension>
            <ns3:atemp>23.0</ns3:atemp>
          </ns3:TrackPointExtension>
        </extensions>
      </trkpt>
      <trkpt lat="42.52640607766807079315185546875" lon="20.16805118881165981292724609375">
        <ele>1868.800048828125</ele>
        <time>2026-06-20T08:48:59.000Z</time>
        <extensions>
          <ns3:TrackPointExtension>
            <ns3:atemp>23.0</ns3:atemp>
          </ns3:TrackPointExtension>
        </extensions>
      </trkpt>
      <trkpt lat="42.52637674100697040557861328125" lon="20.16803626902401447296142578125">
        <ele>1869</ele>
        <time>2026-06-20T08:49:00.000Z</time>
        <extensions>
          <ns3:TrackPointExtension>
            <ns3:atemp>22.0</ns3:atemp>
          </ns3:TrackPointExtension>
        </extensions>
      </trkpt>
      <trkpt lat="42.52634949982166290283203125" lon="20.16802336089313030242919921875">
        <ele>1869</ele>
        <time>2026-06-20T08:49:01.000Z</time>
        <extensions>
          <ns3:TrackPointExtension>
            <ns3:atemp>22.0</ns3:atemp>
          </ns3:TrackPointExtension>
        </extensions>
      </trkpt>
      <trkpt lat="42.526324689388275146484375" lon="20.1680095307528972625732421875">
        <ele>1869.199951171875</ele>
        <time>2026-06-20T08:49:02.000Z</time>
        <extensions>
          <ns3:TrackPointExtension>
            <ns3:atemp>22.0</ns3:atemp>
          </ns3:TrackPointExtension>
        </extensions>
      </trkpt>
      <trkpt lat="42.5262990407645702362060546875" lon="20.16799628734588623046875">
        <ele>1869.4000244140625</ele>
        <time>2026-06-20T08:49:03.000Z</time>
        <extensions>
          <ns3:TrackPointExtension>
            <ns3:atemp>23.0</ns3:atemp>
          </ns3:TrackPointExtension>
        </extensions>
      </trkpt>
      <trkpt lat="42.52627305686473846435546875" lon="20.16798262484371662139892578125">
        <ele>1869.800048828125</ele>
        <time>2026-06-20T08:49:04.000Z</time>
        <extensions>
          <ns3:TrackPointExtension>
            <ns3:atemp>23.0</ns3:atemp>
          </ns3:TrackPointExtension>
        </extensions>
      </trkpt>
      <trkpt lat="42.52624497748911380767822265625" lon="20.16796879470348358154296875">
        <ele>1870</ele>
        <time>2026-06-20T08:49:05.000Z</time>
        <extensions>
          <ns3:TrackPointExtension>
            <ns3:atemp>23.0</ns3:atemp>
          </ns3:TrackPointExtension>
        </extensions>
      </trkpt>
      <trkpt lat="42.5262155570089817047119140625" lon="20.1679599098861217498779296875">
        <ele>1870.4000244140625</ele>
        <time>2026-06-20T08:49:06.000Z</time>
        <extensions>
          <ns3:TrackPointExtension>
            <ns3:atemp>23.0</ns3:atemp>
          </ns3:TrackPointExtension>
        </extensions>
      </trkpt>
      <trkpt lat="42.52618630416691303253173828125" lon="20.16794440336525440216064453125">
        <ele>1870.5999755859375</ele>
        <time>2026-06-20T08:49:07.000Z</time>
        <extensions>
          <ns3:TrackPointExtension>
            <ns3:atemp>23.0</ns3:atemp>
          </ns3:TrackPointExtension>
        </extensions>
      </trkpt>
      <trkpt lat="42.5261570513248443603515625" lon="20.16792864538729190826416015625">
        <ele>1870.800048828125</ele>
        <time>2026-06-20T08:49:08.000Z</time>
        <extensions>
          <ns3:TrackPointExtension>
            <ns3:atemp>23.0</ns3:atemp>
          </ns3:TrackPointExtension>
        </extensions>
      </trkpt>
      <trkpt lat="42.52612897194921970367431640625" lon="20.1679144799709320068359375">
        <ele>1871.199951171875</ele>
        <time>2026-06-20T08:49:09.000Z</time>
        <extensions>
          <ns3:TrackPointExtension>
            <ns3:atemp>23.0</ns3:atemp>
          </ns3:TrackPointExtension>
        </extensions>
      </trkpt>
      <trkpt lat="42.5261055864393711090087890625" lon="20.16790215857326984405517578125">
        <ele>1871.4000244140625</ele>
        <time>2026-06-20T08:49:10.000Z</time>
        <extensions>
          <ns3:TrackPointExtension>
            <ns3:atemp>23.0</ns3:atemp>
          </ns3:TrackPointExtension>
        </extensions>
      </trkpt>
      <trkpt lat="42.52608438022434711456298828125" lon="20.16789126209914684295654296875">
        <ele>1871.5999755859375</ele>
        <time>2026-06-20T08:49:11.000Z</time>
        <extensions>
          <ns3:TrackPointExtension>
            <ns3:atemp>23.0</ns3:atemp>
          </ns3:TrackPointExtension>
        </extensions>
      </trkpt>
      <trkpt lat="42.52606074325740337371826171875" lon="20.16788162291049957275390625">
        <ele>1872</ele>
        <time>2026-06-20T08:49:12.000Z</time>
        <extensions>
          <ns3:TrackPointExtension>
            <ns3:atemp>23.0</ns3:atemp>
          </ns3:TrackPointExtension>
        </extensions>
      </trkpt>
      <trkpt lat="42.5260402075946331024169921875" lon="20.16786661930382251739501953125">
        <ele>1872.199951171875</ele>
        <time>2026-06-20T08:49:13.000Z</time>
        <extensions>
          <ns3:TrackPointExtension>
            <ns3:atemp>23.0</ns3:atemp>
          </ns3:TrackPointExtension>
        </extensions>
      </trkpt>
      <trkpt lat="42.52601799555122852325439453125" lon="20.16785345971584320068359375">
        <ele>1872.4000244140625</ele>
        <time>2026-06-20T08:49:14.000Z</time>
        <extensions>
          <ns3:TrackPointExtension>
            <ns3:atemp>23.0</ns3:atemp>
          </ns3:TrackPointExtension>
        </extensions>
      </trkpt>
      <trkpt lat="42.525995783507823944091796875" lon="20.16783828847110271453857421875">
        <ele>1872.4000244140625</ele>
        <time>2026-06-20T08:49:15.000Z</time>
        <extensions>
          <ns3:TrackPointExtension>
            <ns3:atemp>23.0</ns3:atemp>
          </ns3:TrackPointExtension>
        </extensions>
      </trkpt>
      <trkpt lat="42.52597667276859283447265625" lon="20.1678264699876308441162109375">
        <ele>1872.4000244140625</ele>
        <time>2026-06-20T08:49:16.000Z</time>
        <extensions>
          <ns3:TrackPointExtension>
            <ns3:atemp>23.0</ns3:atemp>
          </ns3:TrackPointExtension>
        </extensions>
      </trkpt>
      <trkpt lat="42.52595881931483745574951171875" lon="20.1678234525024890899658203125">
        <ele>1872.5999755859375</ele>
        <time>2026-06-20T08:49:17.000Z</time>
        <extensions>
          <ns3:TrackPointExtension>
            <ns3:atemp>23.0</ns3:atemp>
          </ns3:TrackPointExtension>
        </extensions>
      </trkpt>
      <trkpt lat="42.52594356425106525421142578125" lon="20.16782068647444248199462890625">
        <ele>1872.5999755859375</ele>
        <time>2026-06-20T08:49:18.000Z</time>
        <extensions>
          <ns3:TrackPointExtension>
            <ns3:atemp>23.0</ns3:atemp>
          </ns3:TrackPointExtension>
        </extensions>
      </trkpt>
      <trkpt lat="42.525933422148227691650390625" lon="20.1678070239722728729248046875">
        <ele>1872.5999755859375</ele>
        <time>2026-06-20T08:49:19.000Z</time>
        <extensions>
          <ns3:TrackPointExtension>
            <ns3:atemp>23.0</ns3:atemp>
          </ns3:TrackPointExtension>
        </extensions>
      </trkpt>
      <trkpt lat="42.525922358036041259765625" lon="20.167787410318851470947265625">
        <ele>1872.5999755859375</ele>
        <time>2026-06-20T08:49:20.000Z</time>
        <extensions>
          <ns3:TrackPointExtension>
            <ns3:atemp>23.0</ns3:atemp>
          </ns3:TrackPointExtension>
        </extensions>
      </trkpt>
      <trkpt lat="42.52591271884739398956298828125" lon="20.16776762902736663818359375">
        <ele>1872.5999755859375</ele>
        <time>2026-06-20T08:49:21.000Z</time>
        <extensions>
          <ns3:TrackPointExtension>
            <ns3:atemp>23.0</ns3:atemp>
          </ns3:TrackPointExtension>
        </extensions>
      </trkpt>
      <trkpt lat="42.5259076058864593505859375" lon="20.1677530445158481597900390625">
        <ele>1872.5999755859375</ele>
        <time>2026-06-20T08:49:22.000Z</time>
        <extensions>
          <ns3:TrackPointExtension>
            <ns3:atemp>23.0</ns3:atemp>
          </ns3:TrackPointExtension>
        </extensions>
      </trkpt>
      <trkpt lat="42.52590349875390529632568359375" lon="20.16774508170783519744873046875">
        <ele>1872.5999755859375</ele>
        <time>2026-06-20T08:49:23.000Z</time>
        <extensions>
          <ns3:TrackPointExtension>
            <ns3:atemp>23.0</ns3:atemp>
          </ns3:TrackPointExtension>
        </extensions>
      </trkpt>
      <trkpt lat="42.5258993916213512420654296875" lon="20.16774659045040607452392578125">
        <ele>1872.5999755859375</ele>
        <time>2026-06-20T08:49:24.000Z</time>
        <extensions>
          <ns3:TrackPointExtension>
            <ns3:atemp>23.0</ns3:atemp>
          </ns3:TrackPointExtension>
        </extensions>
      </trkpt>
      <trkpt lat="42.5258993916213512420654296875" lon="20.16774659045040607452392578125">
        <ele>1872.5999755859375</ele>
        <time>2026-06-20T08:49:25.000Z</time>
        <extensions>
          <ns3:TrackPointExtension>
            <ns3:atemp>23.0</ns3:atemp>
          </ns3:TrackPointExtension>
        </extensions>
      </trkpt>
      <trkpt lat="42.5258993916213512420654296875" lon="20.16774659045040607452392578125">
        <ele>1872.800048828125</ele>
        <time>2026-06-20T08:49:26.000Z</time>
        <extensions>
          <ns3:TrackPointExtension>
            <ns3:atemp>23.0</ns3:atemp>
          </ns3:TrackPointExtension>
        </extensions>
      </trkpt>
      <trkpt lat="42.5258993916213512420654296875" lon="20.16774659045040607452392578125">
        <ele>1872.800048828125</ele>
        <time>2026-06-20T08:49:27.000Z</time>
        <extensions>
          <ns3:TrackPointExtension>
            <ns3:atemp>23.0</ns3:atemp>
          </ns3:TrackPointExtension>
        </extensions>
      </trkpt>
      <trkpt lat="42.5258993916213512420654296875" lon="20.16774659045040607452392578125">
        <ele>1873</ele>
        <time>2026-06-20T08:49:28.000Z</time>
        <extensions>
          <ns3:TrackPointExtension>
            <ns3:atemp>23.0</ns3:atemp>
          </ns3:TrackPointExtension>
        </extensions>
      </trkpt>
      <trkpt lat="42.5258993916213512420654296875" lon="20.16774659045040607452392578125">
        <ele>1873</ele>
        <time>2026-06-20T08:49:29.000Z</time>
        <extensions>
          <ns3:TrackPointExtension>
            <ns3:atemp>23.0</ns3:atemp>
          </ns3:TrackPointExtension>
        </extensions>
      </trkpt>
      <trkpt lat="42.5258993916213512420654296875" lon="20.16774659045040607452392578125">
        <ele>1873</ele>
        <time>2026-06-20T08:49:30.000Z</time>
        <extensions>
          <ns3:TrackPointExtension>
            <ns3:atemp>23.0</ns3:atemp>
          </ns3:TrackPointExtension>
        </extensions>
      </trkpt>
      <trkpt lat="42.5258993916213512420654296875" lon="20.16774659045040607452392578125">
        <ele>1872.800048828125</ele>
        <time>2026-06-20T08:49:31.000Z</time>
        <extensions>
          <ns3:TrackPointExtension>
            <ns3:atemp>23.0</ns3:atemp>
          </ns3:TrackPointExtension>
        </extensions>
      </trkpt>
      <trkpt lat="42.5258993916213512420654296875" lon="20.16774659045040607452392578125">
        <ele>1872.800048828125</ele>
        <time>2026-06-20T08:49:32.000Z</time>
        <extensions>
          <ns3:TrackPointExtension>
            <ns3:atemp>23.0</ns3:atemp>
          </ns3:TrackPointExtension>
        </extensions>
      </trkpt>
      <trkpt lat="42.5258993916213512420654296875" lon="20.16774659045040607452392578125">
        <ele>1872.5999755859375</ele>
        <time>2026-06-20T08:49:33.000Z</time>
        <extensions>
          <ns3:TrackPointExtension>
            <ns3:atemp>23.0</ns3:atemp>
          </ns3:TrackPointExtension>
        </extensions>
      </trkpt>
      <trkpt lat="42.5258993916213512420654296875" lon="20.16774659045040607452392578125">
        <ele>1872.5999755859375</ele>
        <time>2026-06-20T08:49:34.000Z</time>
        <extensions>
          <ns3:TrackPointExtension>
            <ns3:atemp>23.0</ns3:atemp>
          </ns3:TrackPointExtension>
        </extensions>
      </trkpt>
      <trkpt lat="42.5258993916213512420654296875" lon="20.16774659045040607452392578125">
        <ele>1872.5999755859375</ele>
        <time>2026-06-20T08:49:35.000Z</time>
        <extensions>
          <ns3:TrackPointExtension>
            <ns3:atemp>23.0</ns3:atemp>
          </ns3:TrackPointExtension>
        </extensions>
      </trkpt>
      <trkpt lat="42.5258993916213512420654296875" lon="20.16774659045040607452392578125">
        <ele>1872.5999755859375</ele>
        <time>2026-06-20T08:49:36.000Z</time>
        <extensions>
          <ns3:TrackPointExtension>
            <ns3:atemp>23.0</ns3:atemp>
          </ns3:TrackPointExtension>
        </extensions>
      </trkpt>
      <trkpt lat="42.5258993916213512420654296875" lon="20.16774659045040607452392578125">
        <ele>1872.5999755859375</ele>
        <time>2026-06-20T08:49:37.000Z</time>
        <extensions>
          <ns3:TrackPointExtension>
            <ns3:atemp>23.0</ns3:atemp>
          </ns3:TrackPointExtension>
        </extensions>
      </trkpt>
      <trkpt lat="42.5258993916213512420654296875" lon="20.16774659045040607452392578125">
        <ele>1872.5999755859375</ele>
        <time>2026-06-20T08:49:38.000Z</time>
        <extensions>
          <ns3:TrackPointExtension>
            <ns3:atemp>23.0</ns3:atemp>
          </ns3:TrackPointExtension>
        </extensions>
      </trkpt>
      <trkpt lat="42.5258993916213512420654296875" lon="20.16774659045040607452392578125">
        <ele>1872.5999755859375</ele>
        <time>2026-06-20T08:49:39.000Z</time>
        <extensions>
          <ns3:TrackPointExtension>
            <ns3:atemp>23.0</ns3:atemp>
          </ns3:TrackPointExtension>
        </extensions>
      </trkpt>
      <trkpt lat="42.5258993916213512420654296875" lon="20.16774659045040607452392578125">
        <ele>1872.4000244140625</ele>
        <time>2026-06-20T08:49:40.000Z</time>
        <extensions>
          <ns3:TrackPointExtension>
            <ns3:atemp>23.0</ns3:atemp>
          </ns3:TrackPointExtension>
        </extensions>
      </trkpt>
      <trkpt lat="42.5258993916213512420654296875" lon="20.16774659045040607452392578125">
        <ele>1872.4000244140625</ele>
        <time>2026-06-20T08:49:41.000Z</time>
        <extensions>
          <ns3:TrackPointExtension>
            <ns3:atemp>23.0</ns3:atemp>
          </ns3:TrackPointExtension>
        </extensions>
      </trkpt>
      <trkpt lat="42.5258993916213512420654296875" lon="20.16774659045040607452392578125">
        <ele>1872.4000244140625</ele>
        <time>2026-06-20T08:49:42.000Z</time>
        <extensions>
          <ns3:TrackPointExtension>
            <ns3:atemp>23.0</ns3:atemp>
          </ns3:TrackPointExtension>
        </extensions>
      </trkpt>
      <trkpt lat="42.5258993916213512420654296875" lon="20.16774659045040607452392578125">
        <ele>1872.4000244140625</ele>
        <time>2026-06-20T08:49:43.000Z</time>
        <extensions>
          <ns3:TrackPointExtension>
            <ns3:atemp>23.0</ns3:atemp>
          </ns3:TrackPointExtension>
        </extensions>
      </trkpt>
      <trkpt lat="42.5258993916213512420654296875" lon="20.16774659045040607452392578125">
        <ele>1872.4000244140625</ele>
        <time>2026-06-20T08:49:44.000Z</time>
        <extensions>
          <ns3:TrackPointExtension>
            <ns3:atemp>23.0</ns3:atemp>
          </ns3:TrackPointExtension>
        </extensions>
      </trkpt>
      <trkpt lat="42.5258993916213512420654296875" lon="20.16774659045040607452392578125">
        <ele>1872.4000244140625</ele>
        <time>2026-06-20T08:49:45.000Z</time>
        <extensions>
          <ns3:TrackPointExtension>
            <ns3:atemp>23.0</ns3:atemp>
          </ns3:TrackPointExtension>
        </extensions>
      </trkpt>
      <trkpt lat="42.5258993916213512420654296875" lon="20.16774659045040607452392578125">
        <ele>1872.4000244140625</ele>
        <time>2026-06-20T08:49:46.000Z</time>
        <extensions>
          <ns3:TrackPointExtension>
            <ns3:atemp>23.0</ns3:atemp>
          </ns3:TrackPointExtension>
        </extensions>
      </trkpt>
      <trkpt lat="42.5258993916213512420654296875" lon="20.16774659045040607452392578125">
        <ele>1872.4000244140625</ele>
        <time>2026-06-20T08:49:47.000Z</time>
        <extensions>
          <ns3:TrackPointExtension>
            <ns3:atemp>23.0</ns3:atemp>
          </ns3:TrackPointExtension>
        </extensions>
      </trkpt>
      <trkpt lat="42.5258993916213512420654296875" lon="20.16774659045040607452392578125">
        <ele>1872.4000244140625</ele>
        <time>2026-06-20T08:49:48.000Z</time>
        <extensions>
          <ns3:TrackPointExtension>
            <ns3:atemp>23.0</ns3:atemp>
          </ns3:TrackPointExtension>
        </extensions>
      </trkpt>
      <trkpt lat="42.5258993916213512420654296875" lon="20.16774659045040607452392578125">
        <ele>1872.5999755859375</ele>
        <time>2026-06-20T08:49:49.000Z</time>
        <extensions>
          <ns3:TrackPointExtension>
            <ns3:atemp>23.0</ns3:atemp>
          </ns3:TrackPointExtension>
        </extensions>
      </trkpt>
      <trkpt lat="42.5258993916213512420654296875" lon="20.16774659045040607452392578125">
        <ele>1872.5999755859375</ele>
        <time>2026-06-20T08:49:50.000Z</time>
        <extensions>
          <ns3:TrackPointExtension>
            <ns3:atemp>23.0</ns3:atemp>
          </ns3:TrackPointExtension>
        </extensions>
      </trkpt>
      <trkpt lat="42.5258993916213512420654296875" lon="20.16774659045040607452392578125">
        <ele>1872.5999755859375</ele>
        <time>2026-06-20T08:49:51.000Z</time>
        <extensions>
          <ns3:TrackPointExtension>
            <ns3:atemp>23.0</ns3:atemp>
          </ns3:TrackPointExtension>
        </extensions>
      </trkpt>
      <trkpt lat="42.5258993916213512420654296875" lon="20.16774659045040607452392578125">
        <ele>1872.4000244140625</ele>
        <time>2026-06-20T08:49:52.000Z</time>
        <extensions>
          <ns3:TrackPointExtension>
            <ns3:atemp>23.0</ns3:atemp>
          </ns3:TrackPointExtension>
        </extensions>
      </trkpt>
      <trkpt lat="42.5258993916213512420654296875" lon="20.16774659045040607452392578125">
        <ele>1872.4000244140625</ele>
        <time>2026-06-20T08:49:53.000Z</time>
        <extensions>
          <ns3:TrackPointExtension>
            <ns3:atemp>23.0</ns3:atemp>
          </ns3:TrackPointExtension>
        </extensions>
      </trkpt>
      <trkpt lat="42.5258993916213512420654296875" lon="20.16774659045040607452392578125">
        <ele>1872.4000244140625</ele>
        <time>2026-06-20T08:49:54.000Z</time>
        <extensions>
          <ns3:TrackPointExtension>
            <ns3:atemp>23.0</ns3:atemp>
          </ns3:TrackPointExtension>
        </extensions>
      </trkpt>
      <trkpt lat="42.5258993916213512420654296875" lon="20.16774659045040607452392578125">
        <ele>1872.4000244140625</ele>
        <time>2026-06-20T08:49:55.000Z</time>
        <extensions>
          <ns3:TrackPointExtension>
            <ns3:atemp>23.0</ns3:atemp>
          </ns3:TrackPointExtension>
        </extensions>
      </trkpt>
      <trkpt lat="42.5258993916213512420654296875" lon="20.16774659045040607452392578125">
        <ele>1872.4000244140625</ele>
        <time>2026-06-20T08:49:56.000Z</time>
        <extensions>
          <ns3:TrackPointExtension>
            <ns3:atemp>23.0</ns3:atemp>
          </ns3:TrackPointExtension>
        </extensions>
      </trkpt>
      <trkpt lat="42.5258993916213512420654296875" lon="20.16774659045040607452392578125">
        <ele>1872.4000244140625</ele>
        <time>2026-06-20T08:49:57.000Z</time>
        <extensions>
          <ns3:TrackPointExtension>
            <ns3:atemp>23.0</ns3:atemp>
          </ns3:TrackPointExtension>
        </extensions>
      </trkpt>
      <trkpt lat="42.5258993916213512420654296875" lon="20.16774659045040607452392578125">
        <ele>1872.4000244140625</ele>
        <time>2026-06-20T08:49:58.000Z</time>
        <extensions>
          <ns3:TrackPointExtension>
            <ns3:atemp>23.0</ns3:atemp>
          </ns3:TrackPointExtension>
        </extensions>
      </trkpt>
      <trkpt lat="42.5258993916213512420654296875" lon="20.16774659045040607452392578125">
        <ele>1872.199951171875</ele>
        <time>2026-06-20T08:49:59.000Z</time>
        <extensions>
          <ns3:TrackPointExtension>
            <ns3:atemp>23.0</ns3:atemp>
          </ns3:TrackPointExtension>
        </extensions>
      </trkpt>
      <trkpt lat="42.5258993916213512420654296875" lon="20.16774659045040607452392578125">
        <ele>1872.199951171875</ele>
        <time>2026-06-20T08:50:00.000Z</time>
        <extensions>
          <ns3:TrackPointExtension>
            <ns3:atemp>23.0</ns3:atemp>
          </ns3:TrackPointExtension>
        </extensions>
      </trkpt>
      <trkpt lat="42.5258993916213512420654296875" lon="20.16774659045040607452392578125">
        <ele>1872.199951171875</ele>
        <time>2026-06-20T08:50:01.000Z</time>
        <extensions>
          <ns3:TrackPointExtension>
            <ns3:atemp>23.0</ns3:atemp>
          </ns3:TrackPointExtension>
        </extensions>
      </trkpt>
      <trkpt lat="42.5258993916213512420654296875" lon="20.16774659045040607452392578125">
        <ele>1872.4000244140625</ele>
        <time>2026-06-20T08:50:02.000Z</time>
        <extensions>
          <ns3:TrackPointExtension>
            <ns3:atemp>23.0</ns3:atemp>
          </ns3:TrackPointExtension>
        </extensions>
      </trkpt>
      <trkpt lat="42.5258993916213512420654296875" lon="20.16774659045040607452392578125">
        <ele>1872.4000244140625</ele>
        <time>2026-06-20T08:50:03.000Z</time>
        <extensions>
          <ns3:TrackPointExtension>
            <ns3:atemp>23.0</ns3:atemp>
          </ns3:TrackPointExtension>
        </extensions>
      </trkpt>
      <trkpt lat="42.5258993916213512420654296875" lon="20.16774659045040607452392578125">
        <ele>1872.4000244140625</ele>
        <time>2026-06-20T08:50:04.000Z</time>
        <extensions>
          <ns3:TrackPointExtension>
            <ns3:atemp>23.0</ns3:atemp>
          </ns3:TrackPointExtension>
        </extensions>
      </trkpt>
      <trkpt lat="42.5258993916213512420654296875" lon="20.16774659045040607452392578125">
        <ele>1872.4000244140625</ele>
        <time>2026-06-20T08:50:05.000Z</time>
        <extensions>
          <ns3:TrackPointExtension>
            <ns3:atemp>23.0</ns3:atemp>
          </ns3:TrackPointExtension>
        </extensions>
      </trkpt>
      <trkpt lat="42.5258993916213512420654296875" lon="20.16774659045040607452392578125">
        <ele>1872.4000244140625</ele>
        <time>2026-06-20T08:50:06.000Z</time>
        <extensions>
          <ns3:TrackPointExtension>
            <ns3:atemp>23.0</ns3:atemp>
          </ns3:TrackPointExtension>
        </extensions>
      </trkpt>
      <trkpt lat="42.5258993916213512420654296875" lon="20.16774659045040607452392578125">
        <ele>1872.4000244140625</ele>
        <time>2026-06-20T08:50:07.000Z</time>
        <extensions>
          <ns3:TrackPointExtension>
            <ns3:atemp>23.0</ns3:atemp>
          </ns3:TrackPointExtension>
        </extensions>
      </trkpt>
      <trkpt lat="42.5258993916213512420654296875" lon="20.16774659045040607452392578125">
        <ele>1872.4000244140625</ele>
        <time>2026-06-20T08:50:08.000Z</time>
        <extensions>
          <ns3:TrackPointExtension>
            <ns3:atemp>23.0</ns3:atemp>
          </ns3:TrackPointExtension>
        </extensions>
      </trkpt>
      <trkpt lat="42.5258993916213512420654296875" lon="20.16774659045040607452392578125">
        <ele>1872.4000244140625</ele>
        <time>2026-06-20T08:50:09.000Z</time>
        <extensions>
          <ns3:TrackPointExtension>
            <ns3:atemp>23.0</ns3:atemp>
          </ns3:TrackPointExtension>
        </extensions>
      </trkpt>
      <trkpt lat="42.5258993916213512420654296875" lon="20.16774659045040607452392578125">
        <ele>1872.199951171875</ele>
        <time>2026-06-20T08:50:10.000Z</time>
        <extensions>
          <ns3:TrackPointExtension>
            <ns3:atemp>23.0</ns3:atemp>
          </ns3:TrackPointExtension>
        </extensions>
      </trkpt>
      <trkpt lat="42.5258993916213512420654296875" lon="20.16774659045040607452392578125">
        <ele>1872.199951171875</ele>
        <time>2026-06-20T08:50:11.000Z</time>
        <extensions>
          <ns3:TrackPointExtension>
            <ns3:atemp>23.0</ns3:atemp>
          </ns3:TrackPointExtension>
        </extensions>
      </trkpt>
      <trkpt lat="42.5258993916213512420654296875" lon="20.16774659045040607452392578125">
        <ele>1872.199951171875</ele>
        <time>2026-06-20T08:50:12.000Z</time>
        <extensions>
          <ns3:TrackPointExtension>
            <ns3:atemp>23.0</ns3:atemp>
          </ns3:TrackPointExtension>
        </extensions>
      </trkpt>
      <trkpt lat="42.5258993916213512420654296875" lon="20.16774659045040607452392578125">
        <ele>1872</ele>
        <time>2026-06-20T08:50:13.000Z</time>
        <extensions>
          <ns3:TrackPointExtension>
            <ns3:atemp>23.0</ns3:atemp>
          </ns3:TrackPointExtension>
        </extensions>
      </trkpt>
      <trkpt lat="42.5258993916213512420654296875" lon="20.16774659045040607452392578125">
        <ele>1872</ele>
        <time>2026-06-20T08:50:14.000Z</time>
        <extensions>
          <ns3:TrackPointExtension>
            <ns3:atemp>23.0</ns3:atemp>
          </ns3:TrackPointExtension>
        </extensions>
      </trkpt>
      <trkpt lat="42.5258993916213512420654296875" lon="20.16774659045040607452392578125">
        <ele>1872</ele>
        <time>2026-06-20T08:50:15.000Z</time>
        <extensions>
          <ns3:TrackPointExtension>
            <ns3:atemp>23.0</ns3:atemp>
          </ns3:TrackPointExtension>
        </extensions>
      </trkpt>
      <trkpt lat="42.5258993916213512420654296875" lon="20.16774659045040607452392578125">
        <ele>1872</ele>
        <time>2026-06-20T08:50:16.000Z</time>
        <extensions>
          <ns3:TrackPointExtension>
            <ns3:atemp>23.0</ns3:atemp>
          </ns3:TrackPointExtension>
        </extensions>
      </trkpt>
      <trkpt lat="42.5258993916213512420654296875" lon="20.16774659045040607452392578125">
        <ele>1872.199951171875</ele>
        <time>2026-06-20T08:50:17.000Z</time>
        <extensions>
          <ns3:TrackPointExtension>
            <ns3:atemp>23.0</ns3:atemp>
          </ns3:TrackPointExtension>
        </extensions>
      </trkpt>
      <trkpt lat="42.5258993916213512420654296875" lon="20.16774659045040607452392578125">
        <ele>1872.199951171875</ele>
        <time>2026-06-20T08:50:18.000Z</time>
        <extensions>
          <ns3:TrackPointExtension>
            <ns3:atemp>23.0</ns3:atemp>
          </ns3:TrackPointExtension>
        </extensions>
      </trkpt>
      <trkpt lat="42.5258993916213512420654296875" lon="20.16774659045040607452392578125">
        <ele>1872.4000244140625</ele>
        <time>2026-06-20T08:50:19.000Z</time>
        <extensions>
          <ns3:TrackPointExtension>
            <ns3:atemp>23.0</ns3:atemp>
          </ns3:TrackPointExtension>
        </extensions>
      </trkpt>
      <trkpt lat="42.5258993916213512420654296875" lon="20.16774659045040607452392578125">
        <ele>1872.4000244140625</ele>
        <time>2026-06-20T08:50:20.000Z</time>
        <extensions>
          <ns3:TrackPointExtension>
            <ns3:atemp>23.0</ns3:atemp>
          </ns3:TrackPointExtension>
        </extensions>
      </trkpt>
      <trkpt lat="42.5258993916213512420654296875" lon="20.16774659045040607452392578125">
        <ele>1872.4000244140625</ele>
        <time>2026-06-20T08:50:21.000Z</time>
        <extensions>
          <ns3:TrackPointExtension>
            <ns3:atemp>23.0</ns3:atemp>
          </ns3:TrackPointExtension>
        </extensions>
      </trkpt>
      <trkpt lat="42.5258993916213512420654296875" lon="20.16774659045040607452392578125">
        <ele>1872.4000244140625</ele>
        <time>2026-06-20T08:50:22.000Z</time>
        <extensions>
          <ns3:TrackPointExtension>
            <ns3:atemp>23.0</ns3:atemp>
          </ns3:TrackPointExtension>
        </extensions>
      </trkpt>
      <trkpt lat="42.5258993916213512420654296875" lon="20.16774659045040607452392578125">
        <ele>1872.4000244140625</ele>
        <time>2026-06-20T08:50:23.000Z</time>
        <extensions>
          <ns3:TrackPointExtension>
            <ns3:atemp>23.0</ns3:atemp>
          </ns3:TrackPointExtension>
        </extensions>
      </trkpt>
      <trkpt lat="42.5258993916213512420654296875" lon="20.16774659045040607452392578125">
        <ele>1872.4000244140625</ele>
        <time>2026-06-20T08:50:24.000Z</time>
        <extensions>
          <ns3:TrackPointExtension>
            <ns3:atemp>23.0</ns3:atemp>
          </ns3:TrackPointExtension>
        </extensions>
      </trkpt>
      <trkpt lat="42.5258993916213512420654296875" lon="20.16774659045040607452392578125">
        <ele>1872.4000244140625</ele>
        <time>2026-06-20T08:50:25.000Z</time>
        <extensions>
          <ns3:TrackPointExtension>
            <ns3:atemp>23.0</ns3:atemp>
          </ns3:TrackPointExtension>
        </extensions>
      </trkpt>
      <trkpt lat="42.5258993916213512420654296875" lon="20.16774659045040607452392578125">
        <ele>1872.199951171875</ele>
        <time>2026-06-20T08:50:26.000Z</time>
        <extensions>
          <ns3:TrackPointExtension>
            <ns3:atemp>23.0</ns3:atemp>
          </ns3:TrackPointExtension>
        </extensions>
      </trkpt>
      <trkpt lat="42.5258993916213512420654296875" lon="20.16774659045040607452392578125">
        <ele>1872.199951171875</ele>
        <time>2026-06-20T08:50:27.000Z</time>
        <extensions>
          <ns3:TrackPointExtension>
            <ns3:atemp>23.0</ns3:atemp>
          </ns3:TrackPointExtension>
        </extensions>
      </trkpt>
      <trkpt lat="42.5258993916213512420654296875" lon="20.16774659045040607452392578125">
        <ele>1872.199951171875</ele>
        <time>2026-06-20T08:50:28.000Z</time>
        <extensions>
          <ns3:TrackPointExtension>
            <ns3:atemp>23.0</ns3:atemp>
          </ns3:TrackPointExtension>
        </extensions>
      </trkpt>
      <trkpt lat="42.5258993916213512420654296875" lon="20.16774659045040607452392578125">
        <ele>1872.4000244140625</ele>
        <time>2026-06-20T08:50:29.000Z</time>
        <extensions>
          <ns3:TrackPointExtension>
            <ns3:atemp>23.0</ns3:atemp>
          </ns3:TrackPointExtension>
        </extensions>
      </trkpt>
      <trkpt lat="42.5258993916213512420654296875" lon="20.16774659045040607452392578125">
        <ele>1872.4000244140625</ele>
        <time>2026-06-20T08:50:30.000Z</time>
        <extensions>
          <ns3:TrackPointExtension>
            <ns3:atemp>23.0</ns3:atemp>
          </ns3:TrackPointExtension>
        </extensions>
      </trkpt>
      <trkpt lat="42.5258993916213512420654296875" lon="20.16774659045040607452392578125">
        <ele>1872.4000244140625</ele>
        <time>2026-06-20T08:50:31.000Z</time>
        <extensions>
          <ns3:TrackPointExtension>
            <ns3:atemp>23.0</ns3:atemp>
          </ns3:TrackPointExtension>
        </extensions>
      </trkpt>
      <trkpt lat="42.5258993916213512420654296875" lon="20.16774659045040607452392578125">
        <ele>1872.4000244140625</ele>
        <time>2026-06-20T08:50:32.000Z</time>
        <extensions>
          <ns3:TrackPointExtension>
            <ns3:atemp>23.0</ns3:atemp>
          </ns3:TrackPointExtension>
        </extensions>
      </trkpt>
      <trkpt lat="42.5258993916213512420654296875" lon="20.16774659045040607452392578125">
        <ele>1872.4000244140625</ele>
        <time>2026-06-20T08:50:33.000Z</time>
        <extensions>
          <ns3:TrackPointExtension>
            <ns3:atemp>23.0</ns3:atemp>
          </ns3:TrackPointExtension>
        </extensions>
      </trkpt>
      <trkpt lat="42.5258993916213512420654296875" lon="20.16774659045040607452392578125">
        <ele>1872.199951171875</ele>
        <time>2026-06-20T08:50:34.000Z</time>
        <extensions>
          <ns3:TrackPointExtension>
            <ns3:atemp>23.0</ns3:atemp>
          </ns3:TrackPointExtension>
        </extensions>
      </trkpt>
      <trkpt lat="42.5258993916213512420654296875" lon="20.16774659045040607452392578125">
        <ele>1872.4000244140625</ele>
        <time>2026-06-20T08:50:35.000Z</time>
        <extensions>
          <ns3:TrackPointExtension>
            <ns3:atemp>23.0</ns3:atemp>
          </ns3:TrackPointExtension>
        </extensions>
      </trkpt>
      <trkpt lat="42.5258993916213512420654296875" lon="20.16774659045040607452392578125">
        <ele>1872.199951171875</ele>
        <time>2026-06-20T08:50:36.000Z</time>
        <extensions>
          <ns3:TrackPointExtension>
            <ns3:atemp>23.0</ns3:atemp>
          </ns3:TrackPointExtension>
        </extensions>
      </trkpt>
      <trkpt lat="42.5258993916213512420654296875" lon="20.16774659045040607452392578125">
        <ele>1872.199951171875</ele>
        <time>2026-06-20T08:50:37.000Z</time>
        <extensions>
          <ns3:TrackPointExtension>
            <ns3:atemp>23.0</ns3:atemp>
          </ns3:TrackPointExtension>
        </extensions>
      </trkpt>
      <trkpt lat="42.5258993916213512420654296875" lon="20.16774659045040607452392578125">
        <ele>1872.199951171875</ele>
        <time>2026-06-20T08:50:38.000Z</time>
        <extensions>
          <ns3:TrackPointExtension>
            <ns3:atemp>23.0</ns3:atemp>
          </ns3:TrackPointExtension>
        </extensions>
      </trkpt>
      <trkpt lat="42.5258993916213512420654296875" lon="20.16774659045040607452392578125">
        <ele>1872.199951171875</ele>
        <time>2026-06-20T08:50:39.000Z</time>
        <extensions>
          <ns3:TrackPointExtension>
            <ns3:atemp>23.0</ns3:atemp>
          </ns3:TrackPointExtension>
        </extensions>
      </trkpt>
      <trkpt lat="42.5258993916213512420654296875" lon="20.16774659045040607452392578125">
        <ele>1872.199951171875</ele>
        <time>2026-06-20T08:50:40.000Z</time>
        <extensions>
          <ns3:TrackPointExtension>
            <ns3:atemp>23.0</ns3:atemp>
          </ns3:TrackPointExtension>
        </extensions>
      </trkpt>
      <trkpt lat="42.5258993916213512420654296875" lon="20.16774659045040607452392578125">
        <ele>1872.199951171875</ele>
        <time>2026-06-20T08:50:41.000Z</time>
        <extensions>
          <ns3:TrackPointExtension>
            <ns3:atemp>23.0</ns3:atemp>
          </ns3:TrackPointExtension>
        </extensions>
      </trkpt>
      <trkpt lat="42.5258993916213512420654296875" lon="20.16774659045040607452392578125">
        <ele>1872.199951171875</ele>
        <time>2026-06-20T08:50:42.000Z</time>
        <extensions>
          <ns3:TrackPointExtension>
            <ns3:atemp>23.0</ns3:atemp>
          </ns3:TrackPointExtension>
        </extensions>
      </trkpt>
      <trkpt lat="42.5258993916213512420654296875" lon="20.16774659045040607452392578125">
        <ele>1872</ele>
        <time>2026-06-20T08:50:43.000Z</time>
        <extensions>
          <ns3:TrackPointExtension>
            <ns3:atemp>23.0</ns3:atemp>
          </ns3:TrackPointExtension>
        </extensions>
      </trkpt>
      <trkpt lat="42.5258993916213512420654296875" lon="20.16774659045040607452392578125">
        <ele>1872</ele>
        <time>2026-06-20T08:50:44.000Z</time>
        <extensions>
          <ns3:TrackPointExtension>
            <ns3:atemp>23.0</ns3:atemp>
          </ns3:TrackPointExtension>
        </extensions>
      </trkpt>
      <trkpt lat="42.5258993916213512420654296875" lon="20.16774659045040607452392578125">
        <ele>1871.800048828125</ele>
        <time>2026-06-20T08:50:45.000Z</time>
        <extensions>
          <ns3:TrackPointExtension>
            <ns3:atemp>23.0</ns3:atemp>
          </ns3:TrackPointExtension>
        </extensions>
      </trkpt>
      <trkpt lat="42.5258993916213512420654296875" lon="20.16774659045040607452392578125">
        <ele>1871.800048828125</ele>
        <time>2026-06-20T08:50:46.000Z</time>
        <extensions>
          <ns3:TrackPointExtension>
            <ns3:atemp>23.0</ns3:atemp>
          </ns3:TrackPointExtension>
        </extensions>
      </trkpt>
      <trkpt lat="42.5258993916213512420654296875" lon="20.16774659045040607452392578125">
        <ele>1871.800048828125</ele>
        <time>2026-06-20T08:50:47.000Z</time>
        <extensions>
          <ns3:TrackPointExtension>
            <ns3:atemp>23.0</ns3:atemp>
          </ns3:TrackPointExtension>
        </extensions>
      </trkpt>
      <trkpt lat="42.5258993916213512420654296875" lon="20.16774659045040607452392578125">
        <ele>1871.800048828125</ele>
        <time>2026-06-20T08:50:48.000Z</time>
        <extensions>
          <ns3:TrackPointExtension>
            <ns3:atemp>23.0</ns3:atemp>
          </ns3:TrackPointExtension>
        </extensions>
      </trkpt>
      <trkpt lat="42.5258993916213512420654296875" lon="20.16774659045040607452392578125">
        <ele>1871.800048828125</ele>
        <time>2026-06-20T08:50:49.000Z</time>
        <extensions>
          <ns3:TrackPointExtension>
            <ns3:atemp>23.0</ns3:atemp>
          </ns3:TrackPointExtension>
        </extensions>
      </trkpt>
      <trkpt lat="42.5258993916213512420654296875" lon="20.16774659045040607452392578125">
        <ele>1872</ele>
        <time>2026-06-20T08:50:50.000Z</time>
        <extensions>
          <ns3:TrackPointExtension>
            <ns3:atemp>23.0</ns3:atemp>
          </ns3:TrackPointExtension>
        </extensions>
      </trkpt>
      <trkpt lat="42.5258993916213512420654296875" lon="20.16774659045040607452392578125">
        <ele>1872</ele>
        <time>2026-06-20T08:50:51.000Z</time>
        <extensions>
          <ns3:TrackPointExtension>
            <ns3:atemp>23.0</ns3:atemp>
          </ns3:TrackPointExtension>
        </extensions>
      </trkpt>
      <trkpt lat="42.5258993916213512420654296875" lon="20.16774659045040607452392578125">
        <ele>1872</ele>
        <time>2026-06-20T08:50:52.000Z</time>
        <extensions>
          <ns3:TrackPointExtension>
            <ns3:atemp>23.0</ns3:atemp>
          </ns3:TrackPointExtension>
        </extensions>
      </trkpt>
      <trkpt lat="42.5258993916213512420654296875" lon="20.16774659045040607452392578125">
        <ele>1872.199951171875</ele>
        <time>2026-06-20T08:50:53.000Z</time>
        <extensions>
          <ns3:TrackPointExtension>
            <ns3:atemp>23.0</ns3:atemp>
          </ns3:TrackPointExtension>
        </extensions>
      </trkpt>
      <trkpt lat="42.5258993916213512420654296875" lon="20.16774659045040607452392578125">
        <ele>1872.4000244140625</ele>
        <time>2026-06-20T08:50:54.000Z</time>
        <extensions>
          <ns3:TrackPointExtension>
            <ns3:atemp>23.0</ns3:atemp>
          </ns3:TrackPointExtension>
        </extensions>
      </trkpt>
      <trkpt lat="42.5258993916213512420654296875" lon="20.16774659045040607452392578125">
        <ele>1872.5999755859375</ele>
        <time>2026-06-20T08:50:55.000Z</time>
        <extensions>
          <ns3:TrackPointExtension>
            <ns3:atemp>23.0</ns3:atemp>
          </ns3:TrackPointExtension>
        </extensions>
      </trkpt>
      <trkpt lat="42.5258993916213512420654296875" lon="20.16774659045040607452392578125">
        <ele>1872.800048828125</ele>
        <time>2026-06-20T08:50:56.000Z</time>
        <extensions>
          <ns3:TrackPointExtension>
            <ns3:atemp>23.0</ns3:atemp>
          </ns3:TrackPointExtension>
        </extensions>
      </trkpt>
      <trkpt lat="42.5258993916213512420654296875" lon="20.16774659045040607452392578125">
        <ele>1873.199951171875</ele>
        <time>2026-06-20T08:50:57.000Z</time>
        <extensions>
          <ns3:TrackPointExtension>
            <ns3:atemp>23.0</ns3:atemp>
          </ns3:TrackPointExtension>
        </extensions>
      </trkpt>
      <trkpt lat="42.5258993916213512420654296875" lon="20.16774659045040607452392578125">
        <ele>1873.199951171875</ele>
        <time>2026-06-20T08:50:58.000Z</time>
        <extensions>
          <ns3:TrackPointExtension>
            <ns3:atemp>23.0</ns3:atemp>
          </ns3:TrackPointExtension>
        </extensions>
      </trkpt>
      <trkpt lat="42.5258993916213512420654296875" lon="20.16774659045040607452392578125">
        <ele>1873.4000244140625</ele>
        <time>2026-06-20T08:50:59.000Z</time>
        <extensions>
          <ns3:TrackPointExtension>
            <ns3:atemp>23.0</ns3:atemp>
          </ns3:TrackPointExtension>
        </extensions>
      </trkpt>
      <trkpt lat="42.5258993916213512420654296875" lon="20.16774659045040607452392578125">
        <ele>1873.4000244140625</ele>
        <time>2026-06-20T08:51:00.000Z</time>
        <extensions>
          <ns3:TrackPointExtension>
            <ns3:atemp>23.0</ns3:atemp>
          </ns3:TrackPointExtension>
        </extensions>
      </trkpt>
      <trkpt lat="42.52590131945908069610595703125" lon="20.16774290241301059722900390625">
        <ele>1873.4000244140625</ele>
        <time>2026-06-20T08:51:01.000Z</time>
        <extensions>
          <ns3:TrackPointExtension>
            <ns3:atemp>23.0</ns3:atemp>
          </ns3:TrackPointExtension>
        </extensions>
      </trkpt>
      <trkpt lat="42.52590165473520755767822265625" lon="20.16772747971117496490478515625">
        <ele>1873.199951171875</ele>
        <time>2026-06-20T08:51:02.000Z</time>
        <extensions>
          <ns3:TrackPointExtension>
            <ns3:atemp>23.0</ns3:atemp>
          </ns3:TrackPointExtension>
        </extensions>
      </trkpt>
      <trkpt lat="42.52589243464171886444091796875" lon="20.16771339811384677886962890625">
        <ele>1873</ele>
        <time>2026-06-20T08:51:03.000Z</time>
        <extensions>
          <ns3:TrackPointExtension>
            <ns3:atemp>23.0</ns3:atemp>
          </ns3:TrackPointExtension>
        </extensions>
      </trkpt>
      <trkpt lat="42.52589059062302112579345703125" lon="20.1676859892904758453369140625">
        <ele>1872.800048828125</ele>
        <time>2026-06-20T08:51:04.000Z</time>
        <extensions>
          <ns3:TrackPointExtension>
            <ns3:atemp>23.0</ns3:atemp>
          </ns3:TrackPointExtension>
        </extensions>
      </trkpt>
      <trkpt lat="42.5258789397776126861572265625" lon="20.16765908338129520416259765625">
        <ele>1872.4000244140625</ele>
        <time>2026-06-20T08:51:05.000Z</time>
        <extensions>
          <ns3:TrackPointExtension>
            <ns3:atemp>23.0</ns3:atemp>
          </ns3:TrackPointExtension>
        </extensions>
      </trkpt>
      <trkpt lat="42.52586309798061847686767578125" lon="20.16763812862336635589599609375">
        <ele>1872.199951171875</ele>
        <time>2026-06-20T08:51:06.000Z</time>
        <extensions>
          <ns3:TrackPointExtension>
            <ns3:atemp>23.0</ns3:atemp>
          </ns3:TrackPointExtension>
        </extensions>
      </trkpt>
      <trkpt lat="42.52584499306976795196533203125" lon="20.16760527156293392181396484375">
        <ele>1872</ele>
        <time>2026-06-20T08:51:07.000Z</time>
        <extensions>
          <ns3:TrackPointExtension>
            <ns3:atemp>23.0</ns3:atemp>
          </ns3:TrackPointExtension>
        </extensions>
      </trkpt>
      <trkpt lat="42.52581682987511157989501953125" lon="20.16756973229348659515380859375">
        <ele>1871.800048828125</ele>
        <time>2026-06-20T08:51:08.000Z</time>
        <extensions>
          <ns3:TrackPointExtension>
            <ns3:atemp>23.0</ns3:atemp>
          </ns3:TrackPointExtension>
        </extensions>
      </trkpt>
      <trkpt lat="42.52577978186309337615966796875" lon="20.16753234900534152984619140625">
        <ele>1871.4000244140625</ele>
        <time>2026-06-20T08:51:09.000Z</time>
        <extensions>
          <ns3:TrackPointExtension>
            <ns3:atemp>23.0</ns3:atemp>
          </ns3:TrackPointExtension>
        </extensions>
      </trkpt>
      <trkpt lat="42.52573954872786998748779296875" lon="20.16750066541135311126708984375">
        <ele>1871</ele>
        <time>2026-06-20T08:51:10.000Z</time>
        <extensions>
          <ns3:TrackPointExtension>
            <ns3:atemp>23.0</ns3:atemp>
          </ns3:TrackPointExtension>
        </extensions>
      </trkpt>
      <trkpt lat="42.52569797448813915252685546875" lon="20.1674673892557621002197265625">
        <ele>1870.800048828125</ele>
        <time>2026-06-20T08:51:11.000Z</time>
        <extensions>
          <ns3:TrackPointExtension>
            <ns3:atemp>23.0</ns3:atemp>
          </ns3:TrackPointExtension>
        </extensions>
      </trkpt>
      <trkpt lat="42.52565824426710605621337890625" lon="20.16743126325309276580810546875">
        <ele>1870.199951171875</ele>
        <time>2026-06-20T08:51:12.000Z</time>
        <extensions>
          <ns3:TrackPointExtension>
            <ns3:atemp>23.0</ns3:atemp>
          </ns3:TrackPointExtension>
        </extensions>
      </trkpt>
      <trkpt lat="42.52561918459832668304443359375" lon="20.1673936285078525543212890625">
        <ele>1869.800048828125</ele>
        <time>2026-06-20T08:51:13.000Z</time>
        <extensions>
          <ns3:TrackPointExtension>
            <ns3:atemp>23.0</ns3:atemp>
          </ns3:TrackPointExtension>
        </extensions>
      </trkpt>
      <trkpt lat="42.5255758501589298248291015625" lon="20.16735113225877285003662109375">
        <ele>1869.5999755859375</ele>
        <time>2026-06-20T08:51:14.000Z</time>
        <extensions>
          <ns3:TrackPointExtension>
            <ns3:atemp>23.0</ns3:atemp>
          </ns3:TrackPointExtension>
        </extensions>
      </trkpt>
      <trkpt lat="42.52553536556661128997802734375" lon="20.1673054508864879608154296875">
        <ele>1869.4000244140625</ele>
        <time>2026-06-20T08:51:15.000Z</time>
        <extensions>
          <ns3:TrackPointExtension>
            <ns3:atemp>23.0</ns3:atemp>
          </ns3:TrackPointExtension>
        </extensions>
      </trkpt>
      <trkpt lat="42.52550016157329082489013671875" lon="20.1672546565532684326171875">
        <ele>1869.199951171875</ele>
        <time>2026-06-20T08:51:16.000Z</time>
        <extensions>
          <ns3:TrackPointExtension>
            <ns3:atemp>23.0</ns3:atemp>
          </ns3:TrackPointExtension>
        </extensions>
      </trkpt>
      <trkpt lat="42.5254685617983341217041015625" lon="20.16719439066946506500244140625">
        <ele>1869</ele>
        <time>2026-06-20T08:51:17.000Z</time>
        <extensions>
          <ns3:TrackPointExtension>
            <ns3:atemp>23.0</ns3:atemp>
          </ns3:TrackPointExtension>
        </extensions>
      </trkpt>
      <trkpt lat="42.52543914131820201873779296875" lon="20.1671233959496021270751953125">
        <ele>1868.5999755859375</ele>
        <time>2026-06-20T08:51:18.000Z</time>
        <extensions>
          <ns3:TrackPointExtension>
            <ns3:atemp>23.0</ns3:atemp>
          </ns3:TrackPointExtension>
        </extensions>
      </trkpt>
      <trkpt lat="42.52540913410484790802001953125" lon="20.1670492999255657196044921875">
        <ele>1868.199951171875</ele>
        <time>2026-06-20T08:51:19.000Z</time>
        <extensions>
          <ns3:TrackPointExtension>
            <ns3:atemp>23.0</ns3:atemp>
          </ns3:TrackPointExtension>
        </extensions>
      </trkpt>
      <trkpt lat="42.52538432367146015167236328125" lon="20.16697260551154613494873046875">
        <ele>1868</ele>
        <time>2026-06-20T08:51:20.000Z</time>
        <extensions>
          <ns3:TrackPointExtension>
            <ns3:atemp>23.0</ns3:atemp>
          </ns3:TrackPointExtension>
        </extensions>
      </trkpt>
      <trkpt lat="42.5253683142364025115966796875" lon="20.1668923906981945037841796875">
        <ele>1867.5999755859375</ele>
        <time>2026-06-20T08:51:21.000Z</time>
        <extensions>
          <ns3:TrackPointExtension>
            <ns3:atemp>23.0</ns3:atemp>
          </ns3:TrackPointExtension>
        </extensions>
      </trkpt>
      <trkpt lat="42.52534710802137851715087890625" lon="20.166801027953624725341796875">
        <ele>1867.199951171875</ele>
        <time>2026-06-20T08:51:22.000Z</time>
        <extensions>
          <ns3:TrackPointExtension>
            <ns3:atemp>23.0</ns3:atemp>
          </ns3:TrackPointExtension>
        </extensions>
      </trkpt>
      <trkpt lat="42.5253220461308956146240234375" lon="20.16670756973326206207275390625">
        <ele>1866.5999755859375</ele>
        <time>2026-06-20T08:51:23.000Z</time>
        <extensions>
          <ns3:TrackPointExtension>
            <ns3:atemp>23.0</ns3:atemp>
          </ns3:TrackPointExtension>
        </extensions>
      </trkpt>
      <trkpt lat="42.52529027871787548065185546875" lon="20.16661226749420166015625">
        <ele>1866.199951171875</ele>
        <time>2026-06-20T08:51:24.000Z</time>
        <extensions>
          <ns3:TrackPointExtension>
            <ns3:atemp>23.0</ns3:atemp>
          </ns3:TrackPointExtension>
        </extensions>
      </trkpt>
      <trkpt lat="42.525252811610698699951171875" lon="20.166520737111568450927734375">
        <ele>1865.5999755859375</ele>
        <time>2026-06-20T08:51:25.000Z</time>
        <extensions>
          <ns3:TrackPointExtension>
            <ns3:atemp>23.0</ns3:atemp>
          </ns3:TrackPointExtension>
        </extensions>
      </trkpt>
      <trkpt lat="42.525213249027729034423828125" lon="20.166436918079853057861328125">
        <ele>1865</ele>
        <time>2026-06-20T08:51:26.000Z</time>
        <extensions>
          <ns3:TrackPointExtension>
            <ns3:atemp>23.0</ns3:atemp>
          </ns3:TrackPointExtension>
        </extensions>
      </trkpt>
      <trkpt lat="42.5251688249409198760986328125" lon="20.16636458225548267364501953125">
        <ele>1864.4000244140625</ele>
        <time>2026-06-20T08:51:27.000Z</time>
        <extensions>
          <ns3:TrackPointExtension>
            <ns3:atemp>23.0</ns3:atemp>
          </ns3:TrackPointExtension>
        </extensions>
      </trkpt>
      <trkpt lat="42.52511568367481231689453125" lon="20.1663116924464702606201171875">
        <ele>1863.5999755859375</ele>
        <time>2026-06-20T08:51:28.000Z</time>
        <extensions>
          <ns3:TrackPointExtension>
            <ns3:atemp>23.0</ns3:atemp>
          </ns3:TrackPointExtension>
        </extensions>
      </trkpt>
      <trkpt lat="42.52507167868316173553466796875" lon="20.1662620715796947479248046875">
        <ele>1863.199951171875</ele>
        <time>2026-06-20T08:51:29.000Z</time>
        <extensions>
          <ns3:TrackPointExtension>
            <ns3:atemp>23.0</ns3:atemp>
          </ns3:TrackPointExtension>
        </extensions>
      </trkpt>
      <trkpt lat="42.5250276736915111541748046875" lon="20.16621387563645839691162109375">
        <ele>1862.800048828125</ele>
        <time>2026-06-20T08:51:30.000Z</time>
        <extensions>
          <ns3:TrackPointExtension>
            <ns3:atemp>23.0</ns3:atemp>
          </ns3:TrackPointExtension>
        </extensions>
      </trkpt>
      <trkpt lat="42.524984590709209442138671875" lon="20.1661705411970615386962890625">
        <ele>1862.4000244140625</ele>
        <time>2026-06-20T08:51:31.000Z</time>
        <extensions>
          <ns3:TrackPointExtension>
            <ns3:atemp>23.0</ns3:atemp>
          </ns3:TrackPointExtension>
        </extensions>
      </trkpt>
      <trkpt lat="42.5249371491372585296630859375" lon="20.16614732332527637481689453125">
        <ele>1862</ele>
        <time>2026-06-20T08:51:32.000Z</time>
        <extensions>
          <ns3:TrackPointExtension>
            <ns3:atemp>23.0</ns3:atemp>
          </ns3:TrackPointExtension>
        </extensions>
      </trkpt>
      <trkpt lat="42.524892054498195648193359375" lon="20.16615092754364013671875">
        <ele>1861.5999755859375</ele>
        <time>2026-06-20T08:51:33.000Z</time>
        <extensions>
          <ns3:TrackPointExtension>
            <ns3:atemp>23.0</ns3:atemp>
          </ns3:TrackPointExtension>
        </extensions>
      </trkpt>
      <trkpt lat="42.524855844676494598388671875" lon="20.1661829464137554168701171875">
        <ele>1861</ele>
        <time>2026-06-20T08:51:34.000Z</time>
        <extensions>
          <ns3:TrackPointExtension>
            <ns3:atemp>23.0</ns3:atemp>
          </ns3:TrackPointExtension>
        </extensions>
      </trkpt>
      <trkpt lat="42.52484075725078582763671875" lon="20.1662292145192623138427734375">
        <ele>1860.5999755859375</ele>
        <time>2026-06-20T08:51:35.000Z</time>
        <extensions>
          <ns3:TrackPointExtension>
            <ns3:atemp>23.0</ns3:atemp>
          </ns3:TrackPointExtension>
        </extensions>
      </trkpt>
      <trkpt lat="42.52484343945980072021484375" lon="20.16628126613795757293701171875">
        <ele>1859.800048828125</ele>
        <time>2026-06-20T08:51:36.000Z</time>
        <extensions>
          <ns3:TrackPointExtension>
            <ns3:atemp>23.0</ns3:atemp>
          </ns3:TrackPointExtension>
        </extensions>
      </trkpt>
      <trkpt lat="42.5248640589416027069091796875" lon="20.166337005794048309326171875">
        <ele>1859.199951171875</ele>
        <time>2026-06-20T08:51:37.000Z</time>
        <extensions>
          <ns3:TrackPointExtension>
            <ns3:atemp>23.0</ns3:atemp>
          </ns3:TrackPointExtension>
        </extensions>
      </trkpt>
      <trkpt lat="42.5248851813375949859619140625" lon="20.16639928333461284637451171875">
        <ele>1858.4000244140625</ele>
        <time>2026-06-20T08:51:38.000Z</time>
        <extensions>
          <ns3:TrackPointExtension>
            <ns3:atemp>23.0</ns3:atemp>
          </ns3:TrackPointExtension>
        </extensions>
      </trkpt>
      <trkpt lat="42.5248992629349231719970703125" lon="20.16646985895931720733642578125">
        <ele>1857.800048828125</ele>
        <time>2026-06-20T08:51:39.000Z</time>
        <extensions>
          <ns3:TrackPointExtension>
            <ns3:atemp>23.0</ns3:atemp>
          </ns3:TrackPointExtension>
        </extensions>
      </trkpt>
      <trkpt lat="42.52490437589585781097412109375" lon="20.1665527559816837310791015625">
        <ele>1857.4000244140625</ele>
        <time>2026-06-20T08:51:40.000Z</time>
        <extensions>
          <ns3:TrackPointExtension>
            <ns3:atemp>23.0</ns3:atemp>
          </ns3:TrackPointExtension>
        </extensions>
      </trkpt>
      <trkpt lat="42.5249049626290798187255859375" lon="20.16664571128785610198974609375">
        <ele>1857</ele>
        <time>2026-06-20T08:51:41.000Z</time>
        <extensions>
          <ns3:TrackPointExtension>
            <ns3:atemp>23.0</ns3:atemp>
          </ns3:TrackPointExtension>
        </extensions>
      </trkpt>
      <trkpt lat="42.52489599399268627166748046875" lon="20.16673975624144077301025390625">
        <ele>1856.5999755859375</ele>
        <time>2026-06-20T08:51:42.000Z</time>
        <extensions>
          <ns3:TrackPointExtension>
            <ns3:atemp>23.0</ns3:atemp>
          </ns3:TrackPointExtension>
        </extensions>
      </trkpt>
      <trkpt lat="42.52488509751856327056884765625" lon="20.1668357290327548980712890625">
        <ele>1856</ele>
        <time>2026-06-20T08:51:43.000Z</time>
        <extensions>
          <ns3:TrackPointExtension>
            <ns3:atemp>23.0</ns3:atemp>
          </ns3:TrackPointExtension>
        </extensions>
      </trkpt>
      <trkpt lat="42.5248761288821697235107421875" lon="20.1669289357960224151611328125">
        <ele>1855.4000244140625</ele>
        <time>2026-06-20T08:51:44.000Z</time>
        <extensions>
          <ns3:TrackPointExtension>
            <ns3:atemp>23.0</ns3:atemp>
          </ns3:TrackPointExtension>
        </extensions>
      </trkpt>
      <trkpt lat="42.5248657353222370147705078125" lon="20.167020298540592193603515625">
        <ele>1854.800048828125</ele>
        <time>2026-06-20T08:51:45.000Z</time>
        <extensions>
          <ns3:TrackPointExtension>
            <ns3:atemp>23.0</ns3:atemp>
          </ns3:TrackPointExtension>
        </extensions>
      </trkpt>
      <trkpt lat="42.5248534977436065673828125" lon="20.16711090691387653350830078125">
        <ele>1854.199951171875</ele>
        <time>2026-06-20T08:51:46.000Z</time>
        <extensions>
          <ns3:TrackPointExtension>
            <ns3:atemp>23.0</ns3:atemp>
          </ns3:TrackPointExtension>
        </extensions>
      </trkpt>
      <trkpt lat="42.5248315371572971343994140625" lon="20.1671941392123699188232421875">
        <ele>1853.4000244140625</ele>
        <time>2026-06-20T08:51:47.000Z</time>
        <extensions>
          <ns3:TrackPointExtension>
            <ns3:atemp>23.0</ns3:atemp>
          </ns3:TrackPointExtension>
        </extensions>
      </trkpt>
      <trkpt lat="42.52479381859302520751953125" lon="20.16726513393223285675048828125">
        <ele>1852.800048828125</ele>
        <time>2026-06-20T08:51:48.000Z</time>
        <extensions>
          <ns3:TrackPointExtension>
            <ns3:atemp>23.0</ns3:atemp>
          </ns3:TrackPointExtension>
        </extensions>
      </trkpt>
      <trkpt lat="42.52474478445947170257568359375" lon="20.1673067919909954071044921875">
        <ele>1852</ele>
        <time>2026-06-20T08:51:49.000Z</time>
        <extensions>
          <ns3:TrackPointExtension>
            <ns3:atemp>23.0</ns3:atemp>
          </ns3:TrackPointExtension>
        </extensions>
      </trkpt>
      <trkpt lat="42.5246816687285900115966796875" lon="20.16731374897062778472900390625">
        <ele>1851.5999755859375</ele>
        <time>2026-06-20T08:51:50.000Z</time>
        <extensions>
          <ns3:TrackPointExtension>
            <ns3:atemp>23.0</ns3:atemp>
          </ns3:TrackPointExtension>
        </extensions>
      </trkpt>
      <trkpt lat="42.5246313773095607757568359375" lon="20.1672833226621150970458984375">
        <ele>1850.800048828125</ele>
        <time>2026-06-20T08:51:51.000Z</time>
        <extensions>
          <ns3:TrackPointExtension>
            <ns3:atemp>23.0</ns3:atemp>
          </ns3:TrackPointExtension>
        </extensions>
      </trkpt>
      <trkpt lat="42.52461654134094715118408203125" lon="20.16724602319300174713134765625">
        <ele>1850.4000244140625</ele>
        <time>2026-06-20T08:51:52.000Z</time>
        <extensions>
          <ns3:TrackPointExtension>
            <ns3:atemp>23.0</ns3:atemp>
          </ns3:TrackPointExtension>
        </extensions>
      </trkpt>
      <trkpt lat="42.52461184747517108917236328125" lon="20.1671904511749744415283203125">
        <ele>1849.800048828125</ele>
        <time>2026-06-20T08:51:53.000Z</time>
        <extensions>
          <ns3:TrackPointExtension>
            <ns3:atemp>23.0</ns3:atemp>
          </ns3:TrackPointExtension>
        </extensions>
      </trkpt>
      <trkpt lat="42.52460899762809276580810546875" lon="20.16714267432689666748046875">
        <ele>1849</ele>
        <time>2026-06-20T08:51:54.000Z</time>
        <extensions>
          <ns3:TrackPointExtension>
            <ns3:atemp>23.0</ns3:atemp>
          </ns3:TrackPointExtension>
        </extensions>
      </trkpt>
      <trkpt lat="42.52460338175296783447265625" lon="20.16708844341337680816650390625">
        <ele>1848.5999755859375</ele>
        <time>2026-06-20T08:51:55.000Z</time>
        <extensions>
          <ns3:TrackPointExtension>
            <ns3:atemp>23.0</ns3:atemp>
          </ns3:TrackPointExtension>
        </extensions>
      </trkpt>
      <trkpt lat="42.5245960056781768798828125" lon="20.167033709585666656494140625">
        <ele>1848.4000244140625</ele>
        <time>2026-06-20T08:51:56.000Z</time>
        <extensions>
          <ns3:TrackPointExtension>
            <ns3:atemp>23.0</ns3:atemp>
          </ns3:TrackPointExtension>
        </extensions>
      </trkpt>
      <trkpt lat="42.52458888106048107147216796875" lon="20.16697864048182964324951171875">
        <ele>1848.199951171875</ele>
        <time>2026-06-20T08:51:57.000Z</time>
        <extensions>
          <ns3:TrackPointExtension>
            <ns3:atemp>23.0</ns3:atemp>
          </ns3:TrackPointExtension>
        </extensions>
      </trkpt>
      <trkpt lat="42.524578236043453216552734375" lon="20.16692147590219974517822265625">
        <ele>1848</ele>
        <time>2026-06-20T08:51:58.000Z</time>
        <extensions>
          <ns3:TrackPointExtension>
            <ns3:atemp>23.0</ns3:atemp>
          </ns3:TrackPointExtension>
        </extensions>
      </trkpt>
      <trkpt lat="42.5245613045990467071533203125" lon="20.166861377656459808349609375">
        <ele>1847.800048828125</ele>
        <time>2026-06-20T08:51:59.000Z</time>
        <extensions>
          <ns3:TrackPointExtension>
            <ns3:atemp>23.0</ns3:atemp>
          </ns3:TrackPointExtension>
        </extensions>
      </trkpt>
      <trkpt lat="42.5245395116508007049560546875" lon="20.16680111177265644073486328125">
        <ele>1847.4000244140625</ele>
        <time>2026-06-20T08:52:00.000Z</time>
        <extensions>
          <ns3:TrackPointExtension>
            <ns3:atemp>23.0</ns3:atemp>
          </ns3:TrackPointExtension>
        </extensions>
      </trkpt>
      <trkpt lat="42.52450975589454174041748046875" lon="20.16673992387950420379638671875">
        <ele>1847.199951171875</ele>
        <time>2026-06-20T08:52:01.000Z</time>
        <extensions>
          <ns3:TrackPointExtension>
            <ns3:atemp>23.0</ns3:atemp>
          </ns3:TrackPointExtension>
        </extensions>
      </trkpt>
      <trkpt lat="42.524474970996379852294921875" lon="20.16668007709085941314697265625">
        <ele>1846.800048828125</ele>
        <time>2026-06-20T08:52:02.000Z</time>
        <extensions>
          <ns3:TrackPointExtension>
            <ns3:atemp>23.0</ns3:atemp>
          </ns3:TrackPointExtension>
        </extensions>
      </trkpt>
      <trkpt lat="42.5244399346411228179931640625" lon="20.16662358306348323822021484375">
        <ele>1846.199951171875</ele>
        <time>2026-06-20T08:52:03.000Z</time>
        <extensions>
          <ns3:TrackPointExtension>
            <ns3:atemp>23.0</ns3:atemp>
          </ns3:TrackPointExtension>
        </extensions>
      </trkpt>
      <trkpt lat="42.524401880800724029541015625" lon="20.1665638200938701629638671875">
        <ele>1845.800048828125</ele>
        <time>2026-06-20T08:52:04.000Z</time>
        <extensions>
          <ns3:TrackPointExtension>
            <ns3:atemp>23.0</ns3:atemp>
          </ns3:TrackPointExtension>
        </extensions>
      </trkpt>
      <trkpt lat="42.5243648327887058258056640625" lon="20.166495926678180694580078125">
        <ele>1845.4000244140625</ele>
        <time>2026-06-20T08:52:05.000Z</time>
        <extensions>
          <ns3:TrackPointExtension>
            <ns3:atemp>23.0</ns3:atemp>
          </ns3:TrackPointExtension>
        </extensions>
      </trkpt>
      <trkpt lat="42.524330802261829376220703125" lon="20.16642208211123943328857421875">
        <ele>1844.800048828125</ele>
        <time>2026-06-20T08:52:06.000Z</time>
        <extensions>
          <ns3:TrackPointExtension>
            <ns3:atemp>23.0</ns3:atemp>
          </ns3:TrackPointExtension>
        </extensions>
      </trkpt>
      <trkpt lat="42.52430808730423450469970703125" lon="20.1663425378501415252685546875">
        <ele>1844.4000244140625</ele>
        <time>2026-06-20T08:52:07.000Z</time>
        <extensions>
          <ns3:TrackPointExtension>
            <ns3:atemp>23.0</ns3:atemp>
          </ns3:TrackPointExtension>
        </extensions>
      </trkpt>
      <trkpt lat="42.524285875260829925537109375" lon="20.1662523485720157623291015625">
        <ele>1843.800048828125</ele>
        <time>2026-06-20T08:52:08.000Z</time>
        <extensions>
          <ns3:TrackPointExtension>
            <ns3:atemp>23.0</ns3:atemp>
          </ns3:TrackPointExtension>
        </extensions>
      </trkpt>
      <trkpt lat="42.52426936291158199310302734375" lon="20.166158638894557952880859375">
        <ele>1843.199951171875</ele>
        <time>2026-06-20T08:52:09.000Z</time>
        <extensions>
          <ns3:TrackPointExtension>
            <ns3:atemp>23.0</ns3:atemp>
          </ns3:TrackPointExtension>
        </extensions>
      </trkpt>
      <trkpt lat="42.524253688752651214599609375" lon="20.16605998389422893524169921875">
        <ele>1842.800048828125</ele>
        <time>2026-06-20T08:52:10.000Z</time>
        <extensions>
          <ns3:TrackPointExtension>
            <ns3:atemp>23.0</ns3:atemp>
          </ns3:TrackPointExtension>
        </extensions>
      </trkpt>
      <trkpt lat="42.52422611229121685028076171875" lon="20.165962167084217071533203125">
        <ele>1842.4000244140625</ele>
        <time>2026-06-20T08:52:11.000Z</time>
        <extensions>
          <ns3:TrackPointExtension>
            <ns3:atemp>23.0</ns3:atemp>
          </ns3:TrackPointExtension>
        </extensions>
      </trkpt>
      <trkpt lat="42.52418554387986660003662109375" lon="20.16586921177804470062255859375">
        <ele>1841.5999755859375</ele>
        <time>2026-06-20T08:52:12.000Z</time>
        <extensions>
          <ns3:TrackPointExtension>
            <ns3:atemp>23.0</ns3:atemp>
          </ns3:TrackPointExtension>
        </extensions>
      </trkpt>
      <trkpt lat="42.52413793466985225677490234375" lon="20.16578975133597850799560546875">
        <ele>1841.199951171875</ele>
        <time>2026-06-20T08:52:13.000Z</time>
        <extensions>
          <ns3:TrackPointExtension>
            <ns3:atemp>23.0</ns3:atemp>
          </ns3:TrackPointExtension>
        </extensions>
      </trkpt>
      <trkpt lat="42.52408077009022235870361328125" lon="20.1657097041606903076171875">
        <ele>1840.5999755859375</ele>
        <time>2026-06-20T08:52:14.000Z</time>
        <extensions>
          <ns3:TrackPointExtension>
            <ns3:atemp>23.0</ns3:atemp>
          </ns3:TrackPointExtension>
        </extensions>
      </trkpt>
      <trkpt lat="42.52402645535767078399658203125" lon="20.16563284210860729217529296875">
        <ele>1839.5999755859375</ele>
        <time>2026-06-20T08:52:15.000Z</time>
        <extensions>
          <ns3:TrackPointExtension>
            <ns3:atemp>23.0</ns3:atemp>
          </ns3:TrackPointExtension>
        </extensions>
      </trkpt>
      <trkpt lat="42.523976080119609832763671875" lon="20.16554835252463817596435546875">
        <ele>1838.800048828125</ele>
        <time>2026-06-20T08:52:16.000Z</time>
        <extensions>
          <ns3:TrackPointExtension>
            <ns3:atemp>23.0</ns3:atemp>
          </ns3:TrackPointExtension>
        </extensions>
      </trkpt>
      <trkpt lat="42.52392285503447055816650390625" lon="20.165465287864208221435546875">
        <ele>1838</ele>
        <time>2026-06-20T08:52:17.000Z</time>
        <extensions>
          <ns3:TrackPointExtension>
            <ns3:atemp>23.0</ns3:atemp>
          </ns3:TrackPointExtension>
        </extensions>
      </trkpt>
      <trkpt lat="42.5238691270351409912109375" lon="20.16537912189960479736328125">
        <ele>1837.5999755859375</ele>
        <time>2026-06-20T08:52:18.000Z</time>
        <extensions>
          <ns3:TrackPointExtension>
            <ns3:atemp>23.0</ns3:atemp>
          </ns3:TrackPointExtension>
        </extensions>
      </trkpt>
      <trkpt lat="42.5238122977316379547119140625" lon="20.1652988232672214508056640625">
        <ele>1836.800048828125</ele>
        <time>2026-06-20T08:52:19.000Z</time>
        <extensions>
          <ns3:TrackPointExtension>
            <ns3:atemp>23.0</ns3:atemp>
          </ns3:TrackPointExtension>
        </extensions>
      </trkpt>
      <trkpt lat="42.523752786219120025634765625" lon="20.16522799618542194366455078125">
        <ele>1836</ele>
        <time>2026-06-20T08:52:20.000Z</time>
        <extensions>
          <ns3:TrackPointExtension>
            <ns3:atemp>23.0</ns3:atemp>
          </ns3:TrackPointExtension>
        </extensions>
      </trkpt>
      <trkpt lat="42.5236936099827289581298828125" lon="20.1651774533092975616455078125">
        <ele>1835.4000244140625</ele>
        <time>2026-06-20T08:52:21.000Z</time>
        <extensions>
          <ns3:TrackPointExtension>
            <ns3:atemp>23.0</ns3:atemp>
          </ns3:TrackPointExtension>
        </extensions>
      </trkpt>
      <trkpt lat="42.52363518811762332916259765625" lon="20.165142752230167388916015625">
        <ele>1835.199951171875</ele>
        <time>2026-06-20T08:52:22.000Z</time>
        <extensions>
          <ns3:TrackPointExtension>
            <ns3:atemp>23.0</ns3:atemp>
          </ns3:TrackPointExtension>
        </extensions>
      </trkpt>
      <trkpt lat="42.5235792808234691619873046875" lon="20.16512003727257251739501953125">
        <ele>1834.800048828125</ele>
        <time>2026-06-20T08:52:23.000Z</time>
        <extensions>
          <ns3:TrackPointExtension>
            <ns3:atemp>23.0</ns3:atemp>
          </ns3:TrackPointExtension>
        </extensions>
      </trkpt>
      <trkpt lat="42.52351968549191951751708984375" lon="20.16510293819010257720947265625">
        <ele>1834.5999755859375</ele>
        <time>2026-06-20T08:52:24.000Z</time>
        <extensions>
          <ns3:TrackPointExtension>
            <ns3:atemp>23.0</ns3:atemp>
          </ns3:TrackPointExtension>
        </extensions>
      </trkpt>
      <trkpt lat="42.5234552286565303802490234375" lon="20.165091790258884429931640625">
        <ele>1834.4000244140625</ele>
        <time>2026-06-20T08:52:25.000Z</time>
        <extensions>
          <ns3:TrackPointExtension>
            <ns3:atemp>23.0</ns3:atemp>
          </ns3:TrackPointExtension>
        </extensions>
      </trkpt>
      <trkpt lat="42.52338758669793605804443359375" lon="20.1650906167924404144287109375">
        <ele>1834</ele>
        <time>2026-06-20T08:52:26.000Z</time>
        <extensions>
          <ns3:TrackPointExtension>
            <ns3:atemp>23.0</ns3:atemp>
          </ns3:TrackPointExtension>
        </extensions>
      </trkpt>
      <trkpt lat="42.52331793308258056640625" lon="20.16510193236172199249267578125">
        <ele>1833.5999755859375</ele>
        <time>2026-06-20T08:52:27.000Z</time>
        <extensions>
          <ns3:TrackPointExtension>
            <ns3:atemp>23.0</ns3:atemp>
          </ns3:TrackPointExtension>
        </extensions>
      </trkpt>
      <trkpt lat="42.523251883685588836669921875" lon="20.1651174388825893402099609375">
        <ele>1832.800048828125</ele>
        <time>2026-06-20T08:52:28.000Z</time>
        <extensions>
          <ns3:TrackPointExtension>
            <ns3:atemp>23.0</ns3:atemp>
          </ns3:TrackPointExtension>
        </extensions>
      </trkpt>
      <trkpt lat="42.52319128252565860748291015625" lon="20.16513227485120296478271484375">
        <ele>1832.199951171875</ele>
        <time>2026-06-20T08:52:29.000Z</time>
        <extensions>
          <ns3:TrackPointExtension>
            <ns3:atemp>23.0</ns3:atemp>
          </ns3:TrackPointExtension>
        </extensions>
      </trkpt>
      <trkpt lat="42.52313294447958469390869140625" lon="20.1651328615844249725341796875">
        <ele>1831.199951171875</ele>
        <time>2026-06-20T08:52:30.000Z</time>
        <extensions>
          <ns3:TrackPointExtension>
            <ns3:atemp>23.0</ns3:atemp>
          </ns3:TrackPointExtension>
        </extensions>
      </trkpt>
      <trkpt lat="42.52307586371898651123046875" lon="20.16512271948158740997314453125">
        <ele>1830.4000244140625</ele>
        <time>2026-06-20T08:52:31.000Z</time>
        <extensions>
          <ns3:TrackPointExtension>
            <ns3:atemp>23.0</ns3:atemp>
          </ns3:TrackPointExtension>
        </extensions>
      </trkpt>
      <trkpt lat="42.523023225367069244384765625" lon="20.16509505920112133026123046875">
        <ele>1829.800048828125</ele>
        <time>2026-06-20T08:52:32.000Z</time>
        <extensions>
          <ns3:TrackPointExtension>
            <ns3:atemp>23.0</ns3:atemp>
          </ns3:TrackPointExtension>
        </extensions>
      </trkpt>
      <trkpt lat="42.5229761190712451934814453125" lon="20.165049545466899871826171875">
        <ele>1829.199951171875</ele>
        <time>2026-06-20T08:52:33.000Z</time>
        <extensions>
          <ns3:TrackPointExtension>
            <ns3:atemp>23.0</ns3:atemp>
          </ns3:TrackPointExtension>
        </extensions>
      </trkpt>
      <trkpt lat="42.522933371365070343017578125" lon="20.1649913750588893890380859375">
        <ele>1828.800048828125</ele>
        <time>2026-06-20T08:52:34.000Z</time>
        <extensions>
          <ns3:TrackPointExtension>
            <ns3:atemp>23.0</ns3:atemp>
          </ns3:TrackPointExtension>
        </extensions>
      </trkpt>
      <trkpt lat="42.52289473079144954681396484375" lon="20.164919458329677581787109375">
        <ele>1828</ele>
        <time>2026-06-20T08:52:35.000Z</time>
        <extensions>
          <ns3:TrackPointExtension>
            <ns3:atemp>23.0</ns3:atemp>
          </ns3:TrackPointExtension>
        </extensions>
      </trkpt>
      <trkpt lat="42.52286170609295368194580078125" lon="20.16483555547893047332763671875">
        <ele>1827.4000244140625</ele>
        <time>2026-06-20T08:52:36.000Z</time>
        <extensions>
          <ns3:TrackPointExtension>
            <ns3:atemp>23.0</ns3:atemp>
          </ns3:TrackPointExtension>
        </extensions>
      </trkpt>
      <trkpt lat="42.52282599918544292449951171875" lon="20.16474301926791667938232421875">
        <ele>1826.800048828125</ele>
        <time>2026-06-20T08:52:37.000Z</time>
        <extensions>
          <ns3:TrackPointExtension>
            <ns3:atemp>23.0</ns3:atemp>
          </ns3:TrackPointExtension>
        </extensions>
      </trkpt>
      <trkpt lat="42.52278459258377552032470703125" lon="20.16465350054204463958740234375">
        <ele>1826</ele>
        <time>2026-06-20T08:52:38.000Z</time>
        <extensions>
          <ns3:TrackPointExtension>
            <ns3:atemp>23.0</ns3:atemp>
          </ns3:TrackPointExtension>
        </extensions>
      </trkpt>
      <trkpt lat="42.52274058759212493896484375" lon="20.1645649038255214691162109375">
        <ele>1825.4000244140625</ele>
        <time>2026-06-20T08:52:39.000Z</time>
        <extensions>
          <ns3:TrackPointExtension>
            <ns3:atemp>23.0</ns3:atemp>
          </ns3:TrackPointExtension>
        </extensions>
      </trkpt>
      <trkpt lat="42.52269993536174297332763671875" lon="20.1644753850996494293212890625">
        <ele>1824.5999755859375</ele>
        <time>2026-06-20T08:52:40.000Z</time>
        <extensions>
          <ns3:TrackPointExtension>
            <ns3:atemp>23.0</ns3:atemp>
          </ns3:TrackPointExtension>
        </extensions>
      </trkpt>
      <trkpt lat="42.52266020514070987701416015625" lon="20.16438326798379421234130859375">
        <ele>1823.4000244140625</ele>
        <time>2026-06-20T08:52:41.000Z</time>
        <extensions>
          <ns3:TrackPointExtension>
            <ns3:atemp>23.0</ns3:atemp>
          </ns3:TrackPointExtension>
        </extensions>
      </trkpt>
      <trkpt lat="42.52261829562485218048095703125" lon="20.16429240815341472625732421875">
        <ele>1822.5999755859375</ele>
        <time>2026-06-20T08:52:42.000Z</time>
        <extensions>
          <ns3:TrackPointExtension>
            <ns3:atemp>23.0</ns3:atemp>
          </ns3:TrackPointExtension>
        </extensions>
      </trkpt>
      <trkpt lat="42.5225736200809478759765625" lon="20.16420003958046436309814453125">
        <ele>1822</ele>
        <time>2026-06-20T08:52:43.000Z</time>
        <extensions>
          <ns3:TrackPointExtension>
            <ns3:atemp>23.0</ns3:atemp>
          </ns3:TrackPointExtension>
        </extensions>
      </trkpt>
      <trkpt lat="42.522532045841217041015625" lon="20.16410532407462596893310546875">
        <ele>1821.199951171875</ele>
        <time>2026-06-20T08:52:44.000Z</time>
        <extensions>
          <ns3:TrackPointExtension>
            <ns3:atemp>23.0</ns3:atemp>
          </ns3:TrackPointExtension>
        </extensions>
      </trkpt>
      <trkpt lat="42.522492818534374237060546875" lon="20.164012201130390167236328125">
        <ele>1820.4000244140625</ele>
        <time>2026-06-20T08:52:45.000Z</time>
        <extensions>
          <ns3:TrackPointExtension>
            <ns3:atemp>23.0</ns3:atemp>
          </ns3:TrackPointExtension>
        </extensions>
      </trkpt>
      <trkpt lat="42.52245266921818256378173828125" lon="20.16392561607062816619873046875">
        <ele>1819.4000244140625</ele>
        <time>2026-06-20T08:52:46.000Z</time>
        <extensions>
          <ns3:TrackPointExtension>
            <ns3:atemp>23.0</ns3:atemp>
          </ns3:TrackPointExtension>
        </extensions>
      </trkpt>
      <trkpt lat="42.52242274582386016845703125" lon="20.16384297050535678863525390625">
        <ele>1818.5999755859375</ele>
        <time>2026-06-20T08:52:47.000Z</time>
        <extensions>
          <ns3:TrackPointExtension>
            <ns3:atemp>23.0</ns3:atemp>
          </ns3:TrackPointExtension>
        </extensions>
      </trkpt>
      <trkpt lat="42.52240371890366077423095703125" lon="20.16376552172005176544189453125">
        <ele>1817.800048828125</ele>
        <time>2026-06-20T08:52:48.000Z</time>
        <extensions>
          <ns3:TrackPointExtension>
            <ns3:atemp>23.0</ns3:atemp>
          </ns3:TrackPointExtension>
        </extensions>
      </trkpt>
      <trkpt lat="42.52238653600215911865234375" lon="20.16368991695344448089599609375">
        <ele>1817.4000244140625</ele>
        <time>2026-06-20T08:52:49.000Z</time>
        <extensions>
          <ns3:TrackPointExtension>
            <ns3:atemp>23.0</ns3:atemp>
          </ns3:TrackPointExtension>
        </extensions>
      </trkpt>
      <trkpt lat="42.52236331813037395477294921875" lon="20.1636314950883388519287109375">
        <ele>1816.800048828125</ele>
        <time>2026-06-20T08:52:50.000Z</time>
        <extensions>
          <ns3:TrackPointExtension>
            <ns3:atemp>23.0</ns3:atemp>
          </ns3:TrackPointExtension>
        </extensions>
      </trkpt>
      <trkpt lat="42.5223323889076709747314453125" lon="20.1635922677814960479736328125">
        <ele>1816</ele>
        <time>2026-06-20T08:52:51.000Z</time>
        <extensions>
          <ns3:TrackPointExtension>
            <ns3:atemp>23.0</ns3:atemp>
          </ns3:TrackPointExtension>
        </extensions>
      </trkpt>
      <trkpt lat="42.52229869365692138671875" lon="20.16357592307031154632568359375">
        <ele>1815.199951171875</ele>
        <time>2026-06-20T08:52:52.000Z</time>
        <extensions>
          <ns3:TrackPointExtension>
            <ns3:atemp>23.0</ns3:atemp>
          </ns3:TrackPointExtension>
        </extensions>
      </trkpt>
      <trkpt lat="42.52226441167294979095458984375" lon="20.1635812036693096160888671875">
        <ele>1814.5999755859375</ele>
        <time>2026-06-20T08:52:53.000Z</time>
        <extensions>
          <ns3:TrackPointExtension>
            <ns3:atemp>23.0</ns3:atemp>
          </ns3:TrackPointExtension>
        </extensions>
      </trkpt>
      <trkpt lat="42.52223339863121509552001953125" lon="20.16361498273909091949462890625">
        <ele>1813.800048828125</ele>
        <time>2026-06-20T08:52:54.000Z</time>
        <extensions>
          <ns3:TrackPointExtension>
            <ns3:atemp>23.0</ns3:atemp>
          </ns3:TrackPointExtension>
        </extensions>
      </trkpt>
      <trkpt lat="42.5222142040729522705078125" lon="20.163672231137752532958984375">
        <ele>1813</ele>
        <time>2026-06-20T08:52:55.000Z</time>
        <extensions>
          <ns3:TrackPointExtension>
            <ns3:atemp>23.0</ns3:atemp>
          </ns3:TrackPointExtension>
        </extensions>
      </trkpt>
      <trkpt lat="42.52220607362687587738037109375" lon="20.1637548767030239105224609375">
        <ele>1812</ele>
        <time>2026-06-20T08:52:56.000Z</time>
        <extensions>
          <ns3:TrackPointExtension>
            <ns3:atemp>23.0</ns3:atemp>
          </ns3:TrackPointExtension>
        </extensions>
      </trkpt>
      <trkpt lat="42.52220758236944675445556640625" lon="20.16385026276111602783203125">
        <ele>1811.199951171875</ele>
        <time>2026-06-20T08:52:57.000Z</time>
        <extensions>
          <ns3:TrackPointExtension>
            <ns3:atemp>23.0</ns3:atemp>
          </ns3:TrackPointExtension>
        </extensions>
      </trkpt>
      <trkpt lat="42.52219970338046550750732421875" lon="20.16395059414207935333251953125">
        <ele>1810.4000244140625</ele>
        <time>2026-06-20T08:52:58.000Z</time>
        <extensions>
          <ns3:TrackPointExtension>
            <ns3:atemp>23.0</ns3:atemp>
          </ns3:TrackPointExtension>
        </extensions>
      </trkpt>
      <trkpt lat="42.5221912376582622528076171875" lon="20.1640539430081844329833984375">
        <ele>1809.4000244140625</ele>
        <time>2026-06-20T08:52:59.000Z</time>
        <extensions>
          <ns3:TrackPointExtension>
            <ns3:atemp>23.0</ns3:atemp>
          </ns3:TrackPointExtension>
        </extensions>
      </trkpt>
      <trkpt lat="42.52218268811702728271484375" lon="20.16416005790233612060546875">
        <ele>1808.4000244140625</ele>
        <time>2026-06-20T08:53:00.000Z</time>
        <extensions>
          <ns3:TrackPointExtension>
            <ns3:atemp>23.0</ns3:atemp>
          </ns3:TrackPointExtension>
        </extensions>
      </trkpt>
      <trkpt lat="42.52217355184257030487060546875" lon="20.1642648316919803619384765625">
        <ele>1807.4000244140625</ele>
        <time>2026-06-20T08:53:01.000Z</time>
        <extensions>
          <ns3:TrackPointExtension>
            <ns3:atemp>23.0</ns3:atemp>
          </ns3:TrackPointExtension>
        </extensions>
      </trkpt>
      <trkpt lat="42.5221607275307178497314453125" lon="20.16436030156910419464111328125">
        <ele>1806.4000244140625</ele>
        <time>2026-06-20T08:53:02.000Z</time>
        <extensions>
          <ns3:TrackPointExtension>
            <ns3:atemp>23.0</ns3:atemp>
          </ns3:TrackPointExtension>
        </extensions>
      </trkpt>
      <trkpt lat="42.52213281579315662384033203125" lon="20.16443775035440921783447265625">
        <ele>1805.4000244140625</ele>
        <time>2026-06-20T08:53:03.000Z</time>
        <extensions>
          <ns3:TrackPointExtension>
            <ns3:atemp>23.0</ns3:atemp>
          </ns3:TrackPointExtension>
        </extensions>
      </trkpt>
      <trkpt lat="42.5220903195440769195556640625" lon="20.1644948311150074005126953125">
        <ele>1804.5999755859375</ele>
        <time>2026-06-20T08:53:04.000Z</time>
        <extensions>
          <ns3:TrackPointExtension>
            <ns3:atemp>23.0</ns3:atemp>
          </ns3:TrackPointExtension>
        </extensions>
      </trkpt>
      <trkpt lat="42.522036843001842498779296875" lon="20.16452274285256862640380859375">
        <ele>1803.800048828125</ele>
        <time>2026-06-20T08:53:05.000Z</time>
        <extensions>
          <ns3:TrackPointExtension>
            <ns3:atemp>23.0</ns3:atemp>
          </ns3:TrackPointExtension>
        </extensions>
      </trkpt>
      <trkpt lat="42.5219796784222126007080078125" lon="20.16451679170131683349609375">
        <ele>1803</ele>
        <time>2026-06-20T08:53:06.000Z</time>
        <extensions>
          <ns3:TrackPointExtension>
            <ns3:atemp>23.0</ns3:atemp>
          </ns3:TrackPointExtension>
        </extensions>
      </trkpt>
      <trkpt lat="42.521934919059276580810546875" lon="20.16447178088128566741943359375">
        <ele>1801.5999755859375</ele>
        <time>2026-06-20T08:53:07.000Z</time>
        <extensions>
          <ns3:TrackPointExtension>
            <ns3:atemp>23.0</ns3:atemp>
          </ns3:TrackPointExtension>
        </extensions>
      </trkpt>
      <trkpt lat="42.5219075940549373626708984375" lon="20.16440187580883502960205078125">
        <ele>1800.5999755859375</ele>
        <time>2026-06-20T08:53:08.000Z</time>
        <extensions>
          <ns3:TrackPointExtension>
            <ns3:atemp>23.0</ns3:atemp>
          </ns3:TrackPointExtension>
        </extensions>
      </trkpt>
      <trkpt lat="42.52188890241086483001708984375" lon="20.16431403346359729766845703125">
        <ele>1799.800048828125</ele>
        <time>2026-06-20T08:53:09.000Z</time>
        <extensions>
          <ns3:TrackPointExtension>
            <ns3:atemp>23.0</ns3:atemp>
          </ns3:TrackPointExtension>
        </extensions>
      </trkpt>
      <trkpt lat="42.5218633376061916351318359375" lon="20.1642264425754547119140625">
        <ele>1799</ele>
        <time>2026-06-20T08:53:10.000Z</time>
        <extensions>
          <ns3:TrackPointExtension>
            <ns3:atemp>22.0</ns3:atemp>
          </ns3:TrackPointExtension>
        </extensions>
      </trkpt>
      <trkpt lat="42.5218395330011844635009765625" lon="20.164136253297328948974609375">
        <ele>1798.199951171875</ele>
        <time>2026-06-20T08:53:11.000Z</time>
        <extensions>
          <ns3:TrackPointExtension>
            <ns3:atemp>22.0</ns3:atemp>
          </ns3:TrackPointExtension>
        </extensions>
      </trkpt>
      <trkpt lat="42.5218130461871623992919921875" lon="20.16404346562922000885009765625">
        <ele>1797.199951171875</ele>
        <time>2026-06-20T08:53:12.000Z</time>
        <extensions>
          <ns3:TrackPointExtension>
            <ns3:atemp>22.0</ns3:atemp>
          </ns3:TrackPointExtension>
        </extensions>
      </trkpt>
      <trkpt lat="42.5217868946492671966552734375" lon="20.163954533636569976806640625">
        <ele>1796.800048828125</ele>
        <time>2026-06-20T08:53:13.000Z</time>
        <extensions>
          <ns3:TrackPointExtension>
            <ns3:atemp>23.0</ns3:atemp>
          </ns3:TrackPointExtension>
        </extensions>
      </trkpt>
      <trkpt lat="42.52176317386329174041748046875" lon="20.1638665236532688140869140625">
        <ele>1796.199951171875</ele>
        <time>2026-06-20T08:53:14.000Z</time>
        <extensions>
          <ns3:TrackPointExtension>
            <ns3:atemp>23.0</ns3:atemp>
          </ns3:TrackPointExtension>
        </extensions>
      </trkpt>
      <trkpt lat="42.52173417247831821441650390625" lon="20.16378412954509258270263671875">
        <ele>1795.4000244140625</ele>
        <time>2026-06-20T08:53:15.000Z</time>
        <extensions>
          <ns3:TrackPointExtension>
            <ns3:atemp>23.0</ns3:atemp>
          </ns3:TrackPointExtension>
        </extensions>
      </trkpt>
      <trkpt lat="42.52170114777982234954833984375" lon="20.16371489502489566802978515625">
        <ele>1794.800048828125</ele>
        <time>2026-06-20T08:53:16.000Z</time>
        <extensions>
          <ns3:TrackPointExtension>
            <ns3:atemp>23.0</ns3:atemp>
          </ns3:TrackPointExtension>
        </extensions>
      </trkpt>
      <trkpt lat="42.52167164348065853118896484375" lon="20.16365119256079196929931640625">
        <ele>1793.800048828125</ele>
        <time>2026-06-20T08:53:17.000Z</time>
        <extensions>
          <ns3:TrackPointExtension>
            <ns3:atemp>23.0</ns3:atemp>
          </ns3:TrackPointExtension>
        </extensions>
      </trkpt>
      <trkpt lat="42.52163643948733806610107421875" lon="20.163607858121395111083984375">
        <ele>1793.199951171875</ele>
        <time>2026-06-20T08:53:18.000Z</time>
        <extensions>
          <ns3:TrackPointExtension>
            <ns3:atemp>23.0</ns3:atemp>
          </ns3:TrackPointExtension>
        </extensions>
      </trkpt>
      <trkpt lat="42.5216008163988590240478515625" lon="20.163604505360126495361328125">
        <ele>1792.4000244140625</ele>
        <time>2026-06-20T08:53:19.000Z</time>
        <extensions>
          <ns3:TrackPointExtension>
            <ns3:atemp>22.0</ns3:atemp>
          </ns3:TrackPointExtension>
        </extensions>
      </trkpt>
      <trkpt lat="42.52156921662390232086181640625" lon="20.16362093389034271240234375">
        <ele>1791.800048828125</ele>
        <time>2026-06-20T08:53:20.000Z</time>
        <extensions>
          <ns3:TrackPointExtension>
            <ns3:atemp>22.0</ns3:atemp>
          </ns3:TrackPointExtension>
        </extensions>
      </trkpt>
      <trkpt lat="42.5215444900095462799072265625" lon="20.1636475883424282073974609375">
        <ele>1791.4000244140625</ele>
        <time>2026-06-20T08:53:21.000Z</time>
        <extensions>
          <ns3:TrackPointExtension>
            <ns3:atemp>22.0</ns3:atemp>
          </ns3:TrackPointExtension>
        </extensions>
      </trkpt>
      <trkpt lat="42.521523870527744293212890625" lon="20.16367801465094089508056640625">
        <ele>1790.800048828125</ele>
        <time>2026-06-20T08:53:22.000Z</time>
        <extensions>
          <ns3:TrackPointExtension>
            <ns3:atemp>22.0</ns3:atemp>
          </ns3:TrackPointExtension>
        </extensions>
      </trkpt>
      <trkpt lat="42.52150316722691059112548828125" lon="20.16371388919651508331298828125">
        <ele>1790</ele>
        <time>2026-06-20T08:53:23.000Z</time>
        <extensions>
          <ns3:TrackPointExtension>
            <ns3:atemp>22.0</ns3:atemp>
          </ns3:TrackPointExtension>
        </extensions>
      </trkpt>
      <trkpt lat="42.52148263156414031982421875" lon="20.16375848092138767242431640625">
        <ele>1789.4000244140625</ele>
        <time>2026-06-20T08:53:24.000Z</time>
        <extensions>
          <ns3:TrackPointExtension>
            <ns3:atemp>22.0</ns3:atemp>
          </ns3:TrackPointExtension>
        </extensions>
      </trkpt>
      <trkpt lat="42.52146125771105289459228515625" lon="20.16381346620619297027587890625">
        <ele>1788.800048828125</ele>
        <time>2026-06-20T08:53:25.000Z</time>
        <extensions>
          <ns3:TrackPointExtension>
            <ns3:atemp>23.0</ns3:atemp>
          </ns3:TrackPointExtension>
        </extensions>
      </trkpt>
      <trkpt lat="42.52144910395145416259765625" lon="20.1638842932879924774169921875">
        <ele>1788.199951171875</ele>
        <time>2026-06-20T08:53:26.000Z</time>
        <extensions>
          <ns3:TrackPointExtension>
            <ns3:atemp>22.0</ns3:atemp>
          </ns3:TrackPointExtension>
        </extensions>
      </trkpt>
      <trkpt lat="42.52144281752407550811767578125" lon="20.1639697887003421783447265625">
        <ele>1787.5999755859375</ele>
        <time>2026-06-20T08:53:27.000Z</time>
        <extensions>
          <ns3:TrackPointExtension>
            <ns3:atemp>22.0</ns3:atemp>
          </ns3:TrackPointExtension>
        </extensions>
      </trkpt>
      <trkpt lat="42.52143980003893375396728515625" lon="20.1640666835010051727294921875">
        <ele>1786.5999755859375</ele>
        <time>2026-06-20T08:53:28.000Z</time>
        <extensions>
          <ns3:TrackPointExtension>
            <ns3:atemp>22.0</ns3:atemp>
          </ns3:TrackPointExtension>
        </extensions>
      </trkpt>
      <trkpt lat="42.52144617028534412384033203125" lon="20.16417103819549083709716796875">
        <ele>1785.800048828125</ele>
        <time>2026-06-20T08:53:29.000Z</time>
        <extensions>
          <ns3:TrackPointExtension>
            <ns3:atemp>22.0</ns3:atemp>
          </ns3:TrackPointExtension>
        </extensions>
      </trkpt>
      <trkpt lat="42.52146226353943347930908203125" lon="20.16427765600383281707763671875">
        <ele>1785</ele>
        <time>2026-06-20T08:53:30.000Z</time>
        <extensions>
          <ns3:TrackPointExtension>
            <ns3:atemp>22.0</ns3:atemp>
          </ns3:TrackPointExtension>
        </extensions>
      </trkpt>
      <trkpt lat="42.5214821286499500274658203125" lon="20.164378993213176727294921875">
        <ele>1784</ele>
        <time>2026-06-20T08:53:31.000Z</time>
        <extensions>
          <ns3:TrackPointExtension>
            <ns3:atemp>22.0</ns3:atemp>
          </ns3:TrackPointExtension>
        </extensions>
      </trkpt>
      <trkpt lat="42.5215059332549571990966796875" lon="20.1644740439951419830322265625">
        <ele>1783</ele>
        <time>2026-06-20T08:53:32.000Z</time>
        <extensions>
          <ns3:TrackPointExtension>
            <ns3:atemp>22.0</ns3:atemp>
          </ns3:TrackPointExtension>
        </extensions>
      </trkpt>
      <trkpt lat="42.521534599363803863525390625" lon="20.16456498764455318450927734375">
        <ele>1782</ele>
        <time>2026-06-20T08:53:33.000Z</time>
        <extensions>
          <ns3:TrackPointExtension>
            <ns3:atemp>22.0</ns3:atemp>
          </ns3:TrackPointExtension>
        </extensions>
      </trkpt>
      <trkpt lat="42.5215612538158893585205078125" lon="20.16465668566524982452392578125">
        <ele>1781.199951171875</ele>
        <time>2026-06-20T08:53:34.000Z</time>
        <extensions>
          <ns3:TrackPointExtension>
            <ns3:atemp>22.0</ns3:atemp>
          </ns3:TrackPointExtension>
        </extensions>
      </trkpt>
      <trkpt lat="42.52158430404961109161376953125" lon="20.1647449471056461334228515625">
        <ele>1780.4000244140625</ele>
        <time>2026-06-20T08:53:35.000Z</time>
        <extensions>
          <ns3:TrackPointExtension>
            <ns3:atemp>22.0</ns3:atemp>
          </ns3:TrackPointExtension>
        </extensions>
      </trkpt>
      <trkpt lat="42.5216061808168888092041015625" lon="20.164839327335357666015625">
        <ele>1779.5999755859375</ele>
        <time>2026-06-20T08:53:36.000Z</time>
        <extensions>
          <ns3:TrackPointExtension>
            <ns3:atemp>22.0</ns3:atemp>
          </ns3:TrackPointExtension>
        </extensions>
      </trkpt>
      <trkpt lat="42.52162747085094451904296875" lon="20.1649420894682407379150390625">
        <ele>1778.5999755859375</ele>
        <time>2026-06-20T08:53:37.000Z</time>
        <extensions>
          <ns3:TrackPointExtension>
            <ns3:atemp>22.0</ns3:atemp>
          </ns3:TrackPointExtension>
        </extensions>
      </trkpt>
      <trkpt lat="42.521648593246936798095703125" lon="20.1650503836572170257568359375">
        <ele>1777</ele>
        <time>2026-06-20T08:53:38.000Z</time>
        <extensions>
          <ns3:TrackPointExtension>
            <ns3:atemp>22.0</ns3:atemp>
          </ns3:TrackPointExtension>
        </extensions>
      </trkpt>
      <trkpt lat="42.5216715596616268157958984375" lon="20.16516529954969882965087890625">
        <ele>1776</ele>
        <time>2026-06-20T08:53:39.000Z</time>
        <extensions>
          <ns3:TrackPointExtension>
            <ns3:atemp>22.0</ns3:atemp>
          </ns3:TrackPointExtension>
        </extensions>
      </trkpt>
      <trkpt lat="42.5216953642666339874267578125" lon="20.1652803830802440643310546875">
        <ele>1774.5999755859375</ele>
        <time>2026-06-20T08:53:40.000Z</time>
        <extensions>
          <ns3:TrackPointExtension>
            <ns3:atemp>22.0</ns3:atemp>
          </ns3:TrackPointExtension>
        </extensions>
      </trkpt>
      <trkpt lat="42.521722353994846343994140625" lon="20.16539328731596469879150390625">
        <ele>1773.800048828125</ele>
        <time>2026-06-20T08:53:41.000Z</time>
        <extensions>
          <ns3:TrackPointExtension>
            <ns3:atemp>22.0</ns3:atemp>
          </ns3:TrackPointExtension>
        </extensions>
      </trkpt>
      <trkpt lat="42.521754540503025054931640625" lon="20.165507532656192779541015625">
        <ele>1772.800048828125</ele>
        <time>2026-06-20T08:53:42.000Z</time>
        <extensions>
          <ns3:TrackPointExtension>
            <ns3:atemp>22.0</ns3:atemp>
          </ns3:TrackPointExtension>
        </extensions>
      </trkpt>
      <trkpt lat="42.52178597263991832733154296875" lon="20.16562295146286487579345703125">
        <ele>1771.800048828125</ele>
        <time>2026-06-20T08:53:43.000Z</time>
        <extensions>
          <ns3:TrackPointExtension>
            <ns3:atemp>22.0</ns3:atemp>
          </ns3:TrackPointExtension>
        </extensions>
      </trkpt>
      <trkpt lat="42.5218036584556102752685546875" lon="20.1657410524785518646240234375">
        <ele>1770.199951171875</ele>
        <time>2026-06-20T08:53:44.000Z</time>
        <extensions>
          <ns3:TrackPointExtension>
            <ns3:atemp>22.0</ns3:atemp>
          </ns3:TrackPointExtension>
        </extensions>
      </trkpt>
      <trkpt lat="42.52181530930101871490478515625" lon="20.16586057841777801513671875">
        <ele>1769.199951171875</ele>
        <time>2026-06-20T08:53:45.000Z</time>
        <extensions>
          <ns3:TrackPointExtension>
            <ns3:atemp>22.0</ns3:atemp>
          </ns3:TrackPointExtension>
        </extensions>
      </trkpt>
      <trkpt lat="42.52182302065193653106689453125" lon="20.16598303802311420440673828125">
        <ele>1768.199951171875</ele>
        <time>2026-06-20T08:53:46.000Z</time>
        <extensions>
          <ns3:TrackPointExtension>
            <ns3:atemp>22.0</ns3:atemp>
          </ns3:TrackPointExtension>
        </extensions>
      </trkpt>
      <trkpt lat="42.52182662487030029296875" lon="20.16610239632427692413330078125">
        <ele>1767.199951171875</ele>
        <time>2026-06-20T08:53:47.000Z</time>
        <extensions>
          <ns3:TrackPointExtension>
            <ns3:atemp>22.0</ns3:atemp>
          </ns3:TrackPointExtension>
        </extensions>
      </trkpt>
      <trkpt lat="42.521829307079315185546875" lon="20.16621840186417102813720703125">
        <ele>1766</ele>
        <time>2026-06-20T08:53:48.000Z</time>
        <extensions>
          <ns3:TrackPointExtension>
            <ns3:atemp>22.0</ns3:atemp>
          </ns3:TrackPointExtension>
        </extensions>
      </trkpt>
      <trkpt lat="42.5218254514038562774658203125" lon="20.16633289866149425506591796875">
        <ele>1764.800048828125</ele>
        <time>2026-06-20T08:53:49.000Z</time>
        <extensions>
          <ns3:TrackPointExtension>
            <ns3:atemp>22.0</ns3:atemp>
          </ns3:TrackPointExtension>
        </extensions>
      </trkpt>
      <trkpt lat="42.52181681804358959197998046875" lon="20.16645041294395923614501953125">
        <ele>1763.800048828125</ele>
        <time>2026-06-20T08:53:50.000Z</time>
        <extensions>
          <ns3:TrackPointExtension>
            <ns3:atemp>22.0</ns3:atemp>
          </ns3:TrackPointExtension>
        </extensions>
      </trkpt>
      <trkpt lat="42.52181028015911579132080078125" lon="20.1665680110454559326171875">
        <ele>1762.5999755859375</ele>
        <time>2026-06-20T08:53:51.000Z</time>
        <extensions>
          <ns3:TrackPointExtension>
            <ns3:atemp>22.0</ns3:atemp>
          </ns3:TrackPointExtension>
        </extensions>
      </trkpt>
      <trkpt lat="42.52180516719818115234375" lon="20.16668091528117656707763671875">
        <ele>1761.5999755859375</ele>
        <time>2026-06-20T08:53:52.000Z</time>
        <extensions>
          <ns3:TrackPointExtension>
            <ns3:atemp>22.0</ns3:atemp>
          </ns3:TrackPointExtension>
        </extensions>
      </trkpt>
      <trkpt lat="42.52179787494242191314697265625" lon="20.16678954474627971649169921875">
        <ele>1760.5999755859375</ele>
        <time>2026-06-20T08:53:53.000Z</time>
        <extensions>
          <ns3:TrackPointExtension>
            <ns3:atemp>22.0</ns3:atemp>
          </ns3:TrackPointExtension>
        </extensions>
      </trkpt>
      <trkpt lat="42.521781027317047119140625" lon="20.16689314506947994232177734375">
        <ele>1759</ele>
        <time>2026-06-20T08:53:54.000Z</time>
        <extensions>
          <ns3:TrackPointExtension>
            <ns3:atemp>22.0</ns3:atemp>
          </ns3:TrackPointExtension>
        </extensions>
      </trkpt>
      <trkpt lat="42.5217674486339092254638671875" lon="20.16699674539268016815185546875">
        <ele>1757.4000244140625</ele>
        <time>2026-06-20T08:53:55.000Z</time>
        <extensions>
          <ns3:TrackPointExtension>
            <ns3:atemp>22.0</ns3:atemp>
          </ns3:TrackPointExtension>
        </extensions>
      </trkpt>
      <trkpt lat="42.52175864763557910919189453125" lon="20.16709975898265838623046875">
        <ele>1756.199951171875</ele>
        <time>2026-06-20T08:53:56.000Z</time>
        <extensions>
          <ns3:TrackPointExtension>
            <ns3:atemp>22.0</ns3:atemp>
          </ns3:TrackPointExtension>
        </extensions>
      </trkpt>
      <trkpt lat="42.521741129457950592041015625" lon="20.16720729880034923553466796875">
        <ele>1754.800048828125</ele>
        <time>2026-06-20T08:53:57.000Z</time>
        <extensions>
          <ns3:TrackPointExtension>
            <ns3:atemp>22.0</ns3:atemp>
          </ns3:TrackPointExtension>
        </extensions>
      </trkpt>
      <trkpt lat="42.52173081971704959869384765625" lon="20.16731760464608669281005859375">
        <ele>1753.199951171875</ele>
        <time>2026-06-20T08:53:58.000Z</time>
        <extensions>
          <ns3:TrackPointExtension>
            <ns3:atemp>22.0</ns3:atemp>
          </ns3:TrackPointExtension>
        </extensions>
      </trkpt>
      <trkpt lat="42.52173735760152339935302734375" lon="20.1674284972250461578369140625">
        <ele>1751.5999755859375</ele>
        <time>2026-06-20T08:53:59.000Z</time>
        <extensions>
          <ns3:TrackPointExtension>
            <ns3:atemp>22.0</ns3:atemp>
          </ns3:TrackPointExtension>
        </extensions>
      </trkpt>
      <trkpt lat="42.52176233567297458648681640625" lon="20.1675270684063434600830078125">
        <ele>1750</ele>
        <time>2026-06-20T08:54:00.000Z</time>
        <extensions>
          <ns3:TrackPointExtension>
            <ns3:atemp>22.0</ns3:atemp>
          </ns3:TrackPointExtension>
        </extensions>
      </trkpt>
      <trkpt lat="42.5217972882091999053955078125" lon="20.1676175929605960845947265625">
        <ele>1749.199951171875</ele>
        <time>2026-06-20T08:54:01.000Z</time>
        <extensions>
          <ns3:TrackPointExtension>
            <ns3:atemp>22.0</ns3:atemp>
          </ns3:TrackPointExtension>
        </extensions>
      </trkpt>
      <trkpt lat="42.521830983459949493408203125" lon="20.16770954243838787078857421875">
        <ele>1748.4000244140625</ele>
        <time>2026-06-20T08:54:02.000Z</time>
        <extensions>
          <ns3:TrackPointExtension>
            <ns3:atemp>22.0</ns3:atemp>
          </ns3:TrackPointExtension>
        </extensions>
      </trkpt>
      <trkpt lat="42.52184028737246990203857421875" lon="20.1677993126213550567626953125">
        <ele>1747.800048828125</ele>
        <time>2026-06-20T08:54:03.000Z</time>
        <extensions>
          <ns3:TrackPointExtension>
            <ns3:atemp>22.0</ns3:atemp>
          </ns3:TrackPointExtension>
        </extensions>
      </trkpt>
      <trkpt lat="42.52182788215577602386474609375" lon="20.1678871549665927886962890625">
        <ele>1747.4000244140625</ele>
        <time>2026-06-20T08:54:04.000Z</time>
        <extensions>
          <ns3:TrackPointExtension>
            <ns3:atemp>22.0</ns3:atemp>
          </ns3:TrackPointExtension>
        </extensions>
      </trkpt>
      <trkpt lat="42.5218013115227222442626953125" lon="20.1679783500730991363525390625">
        <ele>1746.800048828125</ele>
        <time>2026-06-20T08:54:05.000Z</time>
        <extensions>
          <ns3:TrackPointExtension>
            <ns3:atemp>22.0</ns3:atemp>
          </ns3:TrackPointExtension>
        </extensions>
      </trkpt>
      <trkpt lat="42.521765939891338348388671875" lon="20.168062336742877960205078125">
        <ele>1746.4000244140625</ele>
        <time>2026-06-20T08:54:06.000Z</time>
        <extensions>
          <ns3:TrackPointExtension>
            <ns3:atemp>22.0</ns3:atemp>
          </ns3:TrackPointExtension>
        </extensions>
      </trkpt>
      <trkpt lat="42.521722353994846343994140625" lon="20.16815110109746456146240234375">
        <ele>1745.800048828125</ele>
        <time>2026-06-20T08:54:07.000Z</time>
        <extensions>
          <ns3:TrackPointExtension>
            <ns3:atemp>22.0</ns3:atemp>
          </ns3:TrackPointExtension>
        </extensions>
      </trkpt>
      <trkpt lat="42.5216836296021938323974609375" lon="20.16824933700263500213623046875">
        <ele>1745</ele>
        <time>2026-06-20T08:54:08.000Z</time>
        <extensions>
          <ns3:TrackPointExtension>
            <ns3:atemp>22.0</ns3:atemp>
          </ns3:TrackPointExtension>
        </extensions>
      </trkpt>
      <trkpt lat="42.52164817415177822113037109375" lon="20.16835662536323070526123046875">
        <ele>1744.4000244140625</ele>
        <time>2026-06-20T08:54:09.000Z</time>
        <extensions>
          <ns3:TrackPointExtension>
            <ns3:atemp>22.0</ns3:atemp>
          </ns3:TrackPointExtension>
        </extensions>
      </trkpt>
      <trkpt lat="42.5216145627200603485107421875" lon="20.16846290789544582366943359375">
        <ele>1743.199951171875</ele>
        <time>2026-06-20T08:54:10.000Z</time>
        <extensions>
          <ns3:TrackPointExtension>
            <ns3:atemp>22.0</ns3:atemp>
          </ns3:TrackPointExtension>
        </extensions>
      </trkpt>
      <trkpt lat="42.52159067429602146148681640625" lon="20.1685608923435211181640625">
        <ele>1742.4000244140625</ele>
        <time>2026-06-20T08:54:11.000Z</time>
        <extensions>
          <ns3:TrackPointExtension>
            <ns3:atemp>22.0</ns3:atemp>
          </ns3:TrackPointExtension>
        </extensions>
      </trkpt>
      <trkpt lat="42.52158346585929393768310546875" lon="20.168657787144184112548828125">
        <ele>1741.4000244140625</ele>
        <time>2026-06-20T08:54:12.000Z</time>
        <extensions>
          <ns3:TrackPointExtension>
            <ns3:atemp>22.0</ns3:atemp>
          </ns3:TrackPointExtension>
        </extensions>
      </trkpt>
      <trkpt lat="42.52158857882022857666015625" lon="20.16875468194484710693359375">
        <ele>1740.800048828125</ele>
        <time>2026-06-20T08:54:13.000Z</time>
        <extensions>
          <ns3:TrackPointExtension>
            <ns3:atemp>22.0</ns3:atemp>
          </ns3:TrackPointExtension>
        </extensions>
      </trkpt>
      <trkpt lat="42.5216021575033664703369140625" lon="20.168855600059032440185546875">
        <ele>1739.800048828125</ele>
        <time>2026-06-20T08:54:14.000Z</time>
        <extensions>
          <ns3:TrackPointExtension>
            <ns3:atemp>22.0</ns3:atemp>
          </ns3:TrackPointExtension>
        </extensions>
      </trkpt>
      <trkpt lat="42.52162822522222995758056640625" lon="20.1689543388783931732177734375">
        <ele>1739.199951171875</ele>
        <time>2026-06-20T08:54:15.000Z</time>
        <extensions>
          <ns3:TrackPointExtension>
            <ns3:atemp>22.0</ns3:atemp>
          </ns3:TrackPointExtension>
        </extensions>
      </trkpt>
      <trkpt lat="42.52167013473808765411376953125" lon="20.16905215568840503692626953125">
        <ele>1738.199951171875</ele>
        <time>2026-06-20T08:54:16.000Z</time>
        <extensions>
          <ns3:TrackPointExtension>
            <ns3:atemp>22.0</ns3:atemp>
          </ns3:TrackPointExtension>
        </extensions>
      </trkpt>
      <trkpt lat="42.5217081047594547271728515625" lon="20.16916581429541110992431640625">
        <ele>1737.4000244140625</ele>
        <time>2026-06-20T08:54:17.000Z</time>
        <extensions>
          <ns3:TrackPointExtension>
            <ns3:atemp>22.0</ns3:atemp>
          </ns3:TrackPointExtension>
        </extensions>
      </trkpt>
      <trkpt lat="42.5217443145811557769775390625" lon="20.169286429882049560546875">
        <ele>1736.199951171875</ele>
        <time>2026-06-20T08:54:18.000Z</time>
        <extensions>
          <ns3:TrackPointExtension>
            <ns3:atemp>22.0</ns3:atemp>
          </ns3:TrackPointExtension>
        </extensions>
      </trkpt>
      <trkpt lat="42.52177239395678043365478515625" lon="20.16940268687903881072998046875">
        <ele>1735.199951171875</ele>
        <time>2026-06-20T08:54:19.000Z</time>
        <extensions>
          <ns3:TrackPointExtension>
            <ns3:atemp>22.0</ns3:atemp>
          </ns3:TrackPointExtension>
        </extensions>
      </trkpt>
      <trkpt lat="42.52180558629333972930908203125" lon="20.16950394026935100555419921875">
        <ele>1734.4000244140625</ele>
        <time>2026-06-20T08:54:20.000Z</time>
        <extensions>
          <ns3:TrackPointExtension>
            <ns3:atemp>22.0</ns3:atemp>
          </ns3:TrackPointExtension>
        </extensions>
      </trkpt>
      <trkpt lat="42.52185487188398838043212890625" lon="20.16957351006567478179931640625">
        <ele>1733.4000244140625</ele>
        <time>2026-06-20T08:54:21.000Z</time>
        <extensions>
          <ns3:TrackPointExtension>
            <ns3:atemp>22.0</ns3:atemp>
          </ns3:TrackPointExtension>
        </extensions>
      </trkpt>
      <trkpt lat="42.52191522158682346343994140625" lon="20.16962614841759204864501953125">
        <ele>1732.5999755859375</ele>
        <time>2026-06-20T08:54:22.000Z</time>
        <extensions>
          <ns3:TrackPointExtension>
            <ns3:atemp>22.0</ns3:atemp>
          </ns3:TrackPointExtension>
        </extensions>
      </trkpt>
      <trkpt lat="42.52197892405092716217041015625" lon="20.169681049883365631103515625">
        <ele>1731.800048828125</ele>
        <time>2026-06-20T08:54:23.000Z</time>
        <extensions>
          <ns3:TrackPointExtension>
            <ns3:atemp>22.0</ns3:atemp>
          </ns3:TrackPointExtension>
        </extensions>
      </trkpt>
      <trkpt lat="42.522038519382476806640625" lon="20.16974232159554958343505859375">
        <ele>1731.4000244140625</ele>
        <time>2026-06-20T08:54:24.000Z</time>
        <extensions>
          <ns3:TrackPointExtension>
            <ns3:atemp>22.0</ns3:atemp>
          </ns3:TrackPointExtension>
        </extensions>
      </trkpt>
      <trkpt lat="42.5220854580402374267578125" lon="20.1698320917785167694091796875">
        <ele>1731</ele>
        <time>2026-06-20T08:54:25.000Z</time>
        <extensions>
          <ns3:TrackPointExtension>
            <ns3:atemp>22.0</ns3:atemp>
          </ns3:TrackPointExtension>
        </extensions>
      </trkpt>
      <trkpt lat="42.52210901118814945220947265625" lon="20.1699373684823513031005859375">
        <ele>1730.199951171875</ele>
        <time>2026-06-20T08:54:26.000Z</time>
        <extensions>
          <ns3:TrackPointExtension>
            <ns3:atemp>22.0</ns3:atemp>
          </ns3:TrackPointExtension>
        </extensions>
      </trkpt>
      <trkpt lat="42.5221238471567630767822265625" lon="20.17005312256515026092529296875">
        <ele>1729.5999755859375</ele>
        <time>2026-06-20T08:54:27.000Z</time>
        <extensions>
          <ns3:TrackPointExtension>
            <ns3:atemp>22.0</ns3:atemp>
          </ns3:TrackPointExtension>
        </extensions>
      </trkpt>
      <trkpt lat="42.522124014794826507568359375" lon="20.17017046920955181121826171875">
        <ele>1728.800048828125</ele>
        <time>2026-06-20T08:54:28.000Z</time>
        <extensions>
          <ns3:TrackPointExtension>
            <ns3:atemp>22.0</ns3:atemp>
          </ns3:TrackPointExtension>
        </extensions>
      </trkpt>
      <trkpt lat="42.52211001701653003692626953125" lon="20.170278511941432952880859375">
        <ele>1728</ele>
        <time>2026-06-20T08:54:29.000Z</time>
        <extensions>
          <ns3:TrackPointExtension>
            <ns3:atemp>22.0</ns3:atemp>
          </ns3:TrackPointExtension>
        </extensions>
      </trkpt>
      <trkpt lat="42.52207615412771701812744140625" lon="20.17038370482623577117919921875">
        <ele>1727.199951171875</ele>
        <time>2026-06-20T08:54:30.000Z</time>
        <extensions>
          <ns3:TrackPointExtension>
            <ns3:atemp>22.0</ns3:atemp>
          </ns3:TrackPointExtension>
        </extensions>
      </trkpt>
      <trkpt lat="42.52203575335443019866943359375" lon="20.17048127017915248870849609375">
        <ele>1726.800048828125</ele>
        <time>2026-06-20T08:54:31.000Z</time>
        <extensions>
          <ns3:TrackPointExtension>
            <ns3:atemp>22.0</ns3:atemp>
          </ns3:TrackPointExtension>
        </extensions>
      </trkpt>
      <trkpt lat="42.5219867192208766937255859375" lon="20.17056643031537532806396484375">
        <ele>1726</ele>
        <time>2026-06-20T08:54:32.000Z</time>
        <extensions>
          <ns3:TrackPointExtension>
            <ns3:atemp>22.0</ns3:atemp>
          </ns3:TrackPointExtension>
        </extensions>
      </trkpt>
      <trkpt lat="42.5219277106225490570068359375" lon="20.17064161598682403564453125">
        <ele>1725.5999755859375</ele>
        <time>2026-06-20T08:54:33.000Z</time>
        <extensions>
          <ns3:TrackPointExtension>
            <ns3:atemp>22.0</ns3:atemp>
          </ns3:TrackPointExtension>
        </extensions>
      </trkpt>
      <trkpt lat="42.52185948193073272705078125" lon="20.1706917397677898406982421875">
        <ele>1725.199951171875</ele>
        <time>2026-06-20T08:54:34.000Z</time>
        <extensions>
          <ns3:TrackPointExtension>
            <ns3:atemp>22.0</ns3:atemp>
          </ns3:TrackPointExtension>
        </extensions>
      </trkpt>
      <trkpt lat="42.52178563736379146575927734375" lon="20.170715712010860443115234375">
        <ele>1724.5999755859375</ele>
        <time>2026-06-20T08:54:35.000Z</time>
        <extensions>
          <ns3:TrackPointExtension>
            <ns3:atemp>22.0</ns3:atemp>
          </ns3:TrackPointExtension>
        </extensions>
      </trkpt>
      <trkpt lat="42.52171305008232593536376953125" lon="20.170725099742412567138671875">
        <ele>1724.199951171875</ele>
        <time>2026-06-20T08:54:36.000Z</time>
        <extensions>
          <ns3:TrackPointExtension>
            <ns3:atemp>22.0</ns3:atemp>
          </ns3:TrackPointExtension>
        </extensions>
      </trkpt>
      <trkpt lat="42.52164415083825588226318359375" lon="20.17073071561753749847412109375">
        <ele>1723.800048828125</ele>
        <time>2026-06-20T08:54:37.000Z</time>
        <extensions>
          <ns3:TrackPointExtension>
            <ns3:atemp>22.0</ns3:atemp>
          </ns3:TrackPointExtension>
        </extensions>
      </trkpt>
      <trkpt lat="42.52158313058316707611083984375" lon="20.17074982635676860809326171875">
        <ele>1723.199951171875</ele>
        <time>2026-06-20T08:54:38.000Z</time>
        <extensions>
          <ns3:TrackPointExtension>
            <ns3:atemp>22.0</ns3:atemp>
          </ns3:TrackPointExtension>
        </extensions>
      </trkpt>
      <trkpt lat="42.5215290673077106475830078125" lon="20.17079609446227550506591796875">
        <ele>1722.800048828125</ele>
        <time>2026-06-20T08:54:39.000Z</time>
        <extensions>
          <ns3:TrackPointExtension>
            <ns3:atemp>22.0</ns3:atemp>
          </ns3:TrackPointExtension>
        </extensions>
      </trkpt>
      <trkpt lat="42.521488331258296966552734375" lon="20.17085661180317401885986328125">
        <ele>1722.5999755859375</ele>
        <time>2026-06-20T08:54:40.000Z</time>
        <extensions>
          <ns3:TrackPointExtension>
            <ns3:atemp>22.0</ns3:atemp>
          </ns3:TrackPointExtension>
        </extensions>
      </trkpt>
      <trkpt lat="42.52143695019185543060302734375" lon="20.17088812775909900665283203125">
        <ele>1722</ele>
        <time>2026-06-20T08:54:41.000Z</time>
        <extensions>
          <ns3:TrackPointExtension>
            <ns3:atemp>22.0</ns3:atemp>
          </ns3:TrackPointExtension>
        </extensions>
      </trkpt>
      <trkpt lat="42.5213865749537944793701171875" lon="20.17087630927562713623046875">
        <ele>1721.4000244140625</ele>
        <time>2026-06-20T08:54:42.000Z</time>
        <extensions>
          <ns3:TrackPointExtension>
            <ns3:atemp>22.0</ns3:atemp>
          </ns3:TrackPointExtension>
        </extensions>
      </trkpt>
      <trkpt lat="42.521355561912059783935546875" lon="20.17082660458981990814208984375">
        <ele>1721</ele>
        <time>2026-06-20T08:54:43.000Z</time>
        <extensions>
          <ns3:TrackPointExtension>
            <ns3:atemp>22.0</ns3:atemp>
          </ns3:TrackPointExtension>
        </extensions>
      </trkpt>
      <trkpt lat="42.52135279588401317596435546875" lon="20.17076055519282817840576171875">
        <ele>1720.5999755859375</ele>
        <time>2026-06-20T08:54:44.000Z</time>
        <extensions>
          <ns3:TrackPointExtension>
            <ns3:atemp>22.0</ns3:atemp>
          </ns3:TrackPointExtension>
        </extensions>
      </trkpt>
      <trkpt lat="42.52135832794010639190673828125" lon="20.1706880517303943634033203125">
        <ele>1720</ele>
        <time>2026-06-20T08:54:45.000Z</time>
        <extensions>
          <ns3:TrackPointExtension>
            <ns3:atemp>22.0</ns3:atemp>
          </ns3:TrackPointExtension>
        </extensions>
      </trkpt>
      <trkpt lat="42.52137358300387859344482421875" lon="20.170615129172801971435546875">
        <ele>1719.5999755859375</ele>
        <time>2026-06-20T08:54:46.000Z</time>
        <extensions>
          <ns3:TrackPointExtension>
            <ns3:atemp>22.0</ns3:atemp>
          </ns3:TrackPointExtension>
        </extensions>
      </trkpt>
      <trkpt lat="42.5213892571628093719482421875" lon="20.170542038977146148681640625">
        <ele>1719</ele>
        <time>2026-06-20T08:54:47.000Z</time>
        <extensions>
          <ns3:TrackPointExtension>
            <ns3:atemp>22.0</ns3:atemp>
          </ns3:TrackPointExtension>
        </extensions>
      </trkpt>
      <trkpt lat="42.52140090800821781158447265625" lon="20.17045260407030582427978515625">
        <ele>1718.4000244140625</ele>
        <time>2026-06-20T08:54:48.000Z</time>
        <extensions>
          <ns3:TrackPointExtension>
            <ns3:atemp>22.0</ns3:atemp>
          </ns3:TrackPointExtension>
        </extensions>
      </trkpt>
      <trkpt lat="42.52141616307199001312255859375" lon="20.170363001525402069091796875">
        <ele>1718</ele>
        <time>2026-06-20T08:54:49.000Z</time>
        <extensions>
          <ns3:TrackPointExtension>
            <ns3:atemp>22.0</ns3:atemp>
          </ns3:TrackPointExtension>
        </extensions>
      </trkpt>
      <trkpt lat="42.52143762074410915374755859375" lon="20.17027272842824459075927734375">
        <ele>1717.4000244140625</ele>
        <time>2026-06-20T08:54:50.000Z</time>
        <extensions>
          <ns3:TrackPointExtension>
            <ns3:atemp>22.0</ns3:atemp>
          </ns3:TrackPointExtension>
        </extensions>
      </trkpt>
      <trkpt lat="42.52146184444427490234375" lon="20.170181281864643096923828125">
        <ele>1716.800048828125</ele>
        <time>2026-06-20T08:54:51.000Z</time>
        <extensions>
          <ns3:TrackPointExtension>
            <ns3:atemp>22.0</ns3:atemp>
          </ns3:TrackPointExtension>
        </extensions>
      </trkpt>
      <trkpt lat="42.5214841403067111968994140625" lon="20.17008916474878787994384765625">
        <ele>1716.4000244140625</ele>
        <time>2026-06-20T08:54:52.000Z</time>
        <extensions>
          <ns3:TrackPointExtension>
            <ns3:atemp>22.0</ns3:atemp>
          </ns3:TrackPointExtension>
        </extensions>
      </trkpt>
      <trkpt lat="42.52149662934243679046630859375" lon="20.1699903421103954315185546875">
        <ele>1715.800048828125</ele>
        <time>2026-06-20T08:54:53.000Z</time>
        <extensions>
          <ns3:TrackPointExtension>
            <ns3:atemp>22.0</ns3:atemp>
          </ns3:TrackPointExtension>
        </extensions>
      </trkpt>
      <trkpt lat="42.52150769345462322235107421875" lon="20.1698937825858592987060546875">
        <ele>1715.199951171875</ele>
        <time>2026-06-20T08:54:54.000Z</time>
        <extensions>
          <ns3:TrackPointExtension>
            <ns3:atemp>22.0</ns3:atemp>
          </ns3:TrackPointExtension>
        </extensions>
      </trkpt>
      <trkpt lat="42.5215173326432704925537109375" lon="20.1697945408523082733154296875">
        <ele>1714.800048828125</ele>
        <time>2026-06-20T08:54:55.000Z</time>
        <extensions>
          <ns3:TrackPointExtension>
            <ns3:atemp>22.0</ns3:atemp>
          </ns3:TrackPointExtension>
        </extensions>
      </trkpt>
      <trkpt lat="42.521525882184505462646484375" lon="20.1697063632309436798095703125">
        <ele>1714.5999755859375</ele>
        <time>2026-06-20T08:54:56.000Z</time>
        <extensions>
          <ns3:TrackPointExtension>
            <ns3:atemp>22.0</ns3:atemp>
          </ns3:TrackPointExtension>
        </extensions>
      </trkpt>
      <trkpt lat="42.52152018249034881591796875" lon="20.16961961053311824798583984375">
        <ele>1714.199951171875</ele>
        <time>2026-06-20T08:54:57.000Z</time>
        <extensions>
          <ns3:TrackPointExtension>
            <ns3:atemp>22.0</ns3:atemp>
          </ns3:TrackPointExtension>
        </extensions>
      </trkpt>
      <trkpt lat="42.52150333486497402191162109375" lon="20.16953981481492519378662109375">
        <ele>1714</ele>
        <time>2026-06-20T08:54:58.000Z</time>
        <extensions>
          <ns3:TrackPointExtension>
            <ns3:atemp>22.0</ns3:atemp>
          </ns3:TrackPointExtension>
        </extensions>
      </trkpt>
      <trkpt lat="42.52147165127098560333251953125" lon="20.1694753579795360565185546875">
        <ele>1713.800048828125</ele>
        <time>2026-06-20T08:54:59.000Z</time>
        <extensions>
          <ns3:TrackPointExtension>
            <ns3:atemp>22.0</ns3:atemp>
          </ns3:TrackPointExtension>
        </extensions>
      </trkpt>
      <trkpt lat="42.52143108285963535308837890625" lon="20.169423557817935943603515625">
        <ele>1713.4000244140625</ele>
        <time>2026-06-20T08:55:00.000Z</time>
        <extensions>
          <ns3:TrackPointExtension>
            <ns3:atemp>22.0</ns3:atemp>
          </ns3:TrackPointExtension>
        </extensions>
      </trkpt>
      <trkpt lat="42.52139411866664886474609375" lon="20.16937972046434879302978515625">
        <ele>1713.199951171875</ele>
        <time>2026-06-20T08:55:01.000Z</time>
        <extensions>
          <ns3:TrackPointExtension>
            <ns3:atemp>22.0</ns3:atemp>
          </ns3:TrackPointExtension>
        </extensions>
      </trkpt>
      <trkpt lat="42.5213631056249141693115234375" lon="20.1693405769765377044677734375">
        <ele>1713.4000244140625</ele>
        <time>2026-06-20T08:55:02.000Z</time>
        <extensions>
          <ns3:TrackPointExtension>
            <ns3:atemp>22.0</ns3:atemp>
          </ns3:TrackPointExtension>
        </extensions>
      </trkpt>
      <trkpt lat="42.521335445344448089599609375" lon="20.16930545680224895477294921875">
        <ele>1713.4000244140625</ele>
        <time>2026-06-20T08:55:03.000Z</time>
        <extensions>
          <ns3:TrackPointExtension>
            <ns3:atemp>22.0</ns3:atemp>
          </ns3:TrackPointExtension>
        </extensions>
      </trkpt>
      <trkpt lat="42.5213131494820117950439453125" lon="20.16927259974181652069091796875">
        <ele>1713.5999755859375</ele>
        <time>2026-06-20T08:55:04.000Z</time>
        <extensions>
          <ns3:TrackPointExtension>
            <ns3:atemp>22.0</ns3:atemp>
          </ns3:TrackPointExtension>
        </extensions>
      </trkpt>
      <trkpt lat="42.52129018306732177734375" lon="20.16924460418522357940673828125">
        <ele>1714</ele>
        <time>2026-06-20T08:55:05.000Z</time>
        <extensions>
          <ns3:TrackPointExtension>
            <ns3:atemp>22.0</ns3:atemp>
          </ns3:TrackPointExtension>
        </extensions>
      </trkpt>
      <trkpt lat="42.521268390119075775146484375" lon="20.1692175306379795074462890625">
        <ele>1714.4000244140625</ele>
        <time>2026-06-20T08:55:06.000Z</time>
        <extensions>
          <ns3:TrackPointExtension>
            <ns3:atemp>22.0</ns3:atemp>
          </ns3:TrackPointExtension>
        </extensions>
      </trkpt>
      <trkpt lat="42.5212403945624828338623046875" lon="20.16919263638556003570556640625">
        <ele>1714.5999755859375</ele>
        <time>2026-06-20T08:55:07.000Z</time>
        <extensions>
          <ns3:TrackPointExtension>
            <ns3:atemp>22.0</ns3:atemp>
          </ns3:TrackPointExtension>
        </extensions>
      </trkpt>
      <trkpt lat="42.52120996825397014617919921875" lon="20.169160366058349609375">
        <ele>1714.800048828125</ele>
        <time>2026-06-20T08:55:08.000Z</time>
        <extensions>
          <ns3:TrackPointExtension>
            <ns3:atemp>22.0</ns3:atemp>
          </ns3:TrackPointExtension>
        </extensions>
      </trkpt>
      <trkpt lat="42.52118348143994808197021484375" lon="20.1691229827702045440673828125">
        <ele>1715</ele>
        <time>2026-06-20T08:55:09.000Z</time>
        <extensions>
          <ns3:TrackPointExtension>
            <ns3:atemp>22.0</ns3:atemp>
          </ns3:TrackPointExtension>
        </extensions>
      </trkpt>
      <trkpt lat="42.521158754825592041015625" lon="20.1690827496349811553955078125">
        <ele>1715</ele>
        <time>2026-06-20T08:55:10.000Z</time>
        <extensions>
          <ns3:TrackPointExtension>
            <ns3:atemp>22.0</ns3:atemp>
          </ns3:TrackPointExtension>
        </extensions>
      </trkpt>
      <trkpt lat="42.52113469876348972320556640625" lon="20.16903824172914028167724609375">
        <ele>1715</ele>
        <time>2026-06-20T08:55:11.000Z</time>
        <extensions>
          <ns3:TrackPointExtension>
            <ns3:atemp>22.0</ns3:atemp>
          </ns3:TrackPointExtension>
        </extensions>
      </trkpt>
      <trkpt lat="42.521110475063323974609375" lon="20.16899742186069488525390625">
        <ele>1715</ele>
        <time>2026-06-20T08:55:12.000Z</time>
        <extensions>
          <ns3:TrackPointExtension>
            <ns3:atemp>22.0</ns3:atemp>
          </ns3:TrackPointExtension>
        </extensions>
      </trkpt>
      <trkpt lat="42.521092705428600311279296875" lon="20.16894788481295108795166015625">
        <ele>1715</ele>
        <time>2026-06-20T08:55:13.000Z</time>
        <extensions>
          <ns3:TrackPointExtension>
            <ns3:atemp>22.0</ns3:atemp>
          </ns3:TrackPointExtension>
        </extensions>
      </trkpt>
      <trkpt lat="42.5210717506706714630126953125" lon="20.16889273189008235931396484375">
        <ele>1715</ele>
        <time>2026-06-20T08:55:14.000Z</time>
        <extensions>
          <ns3:TrackPointExtension>
            <ns3:atemp>22.0</ns3:atemp>
          </ns3:TrackPointExtension>
        </extensions>
      </trkpt>
      <trkpt lat="42.52104937098920345306396484375" lon="20.16883422620594501495361328125">
        <ele>1715</ele>
        <time>2026-06-20T08:55:15.000Z</time>
        <extensions>
          <ns3:TrackPointExtension>
            <ns3:atemp>22.0</ns3:atemp>
          </ns3:TrackPointExtension>
        </extensions>
      </trkpt>
      <trkpt lat="42.52102020196616649627685546875" lon="20.1687897183001041412353515625">
        <ele>1715</ele>
        <time>2026-06-20T08:55:16.000Z</time>
        <extensions>
          <ns3:TrackPointExtension>
            <ns3:atemp>22.0</ns3:atemp>
          </ns3:TrackPointExtension>
        </extensions>
      </trkpt>
      <trkpt lat="42.52099203877151012420654296875" lon="20.16875208355486392974853515625">
        <ele>1715</ele>
        <time>2026-06-20T08:55:17.000Z</time>
        <extensions>
          <ns3:TrackPointExtension>
            <ns3:atemp>22.0</ns3:atemp>
          </ns3:TrackPointExtension>
        </extensions>
      </trkpt>
      <trkpt lat="42.5209634564816951751708984375" lon="20.168730877339839935302734375">
        <ele>1715</ele>
        <time>2026-06-20T08:55:18.000Z</time>
        <extensions>
          <ns3:TrackPointExtension>
            <ns3:atemp>22.0</ns3:atemp>
          </ns3:TrackPointExtension>
        </extensions>
      </trkpt>
      <trkpt lat="42.52093772403895854949951171875" lon="20.16871386207640171051025390625">
        <ele>1715</ele>
        <time>2026-06-20T08:55:19.000Z</time>
        <extensions>
          <ns3:TrackPointExtension>
            <ns3:atemp>22.0</ns3:atemp>
          </ns3:TrackPointExtension>
        </extensions>
      </trkpt>
      <trkpt lat="42.52090997993946075439453125" lon="20.16870112158358097076416015625">
        <ele>1715.199951171875</ele>
        <time>2026-06-20T08:55:20.000Z</time>
        <extensions>
          <ns3:TrackPointExtension>
            <ns3:atemp>22.0</ns3:atemp>
          </ns3:TrackPointExtension>
        </extensions>
      </trkpt>
      <trkpt lat="42.52088273875415325164794921875" lon="20.16868921928107738494873046875">
        <ele>1715.4000244140625</ele>
        <time>2026-06-20T08:55:21.000Z</time>
        <extensions>
          <ns3:TrackPointExtension>
            <ns3:atemp>22.0</ns3:atemp>
          </ns3:TrackPointExtension>
        </extensions>
      </trkpt>
      <trkpt lat="42.5208551622927188873291015625" lon="20.16867949627339839935302734375">
        <ele>1715.5999755859375</ele>
        <time>2026-06-20T08:55:22.000Z</time>
        <extensions>
          <ns3:TrackPointExtension>
            <ns3:atemp>22.0</ns3:atemp>
          </ns3:TrackPointExtension>
        </extensions>
      </trkpt>
      <trkpt lat="42.5208280049264430999755859375" lon="20.16867153346538543701171875">
        <ele>1715.800048828125</ele>
        <time>2026-06-20T08:55:23.000Z</time>
        <extensions>
          <ns3:TrackPointExtension>
            <ns3:atemp>22.0</ns3:atemp>
          </ns3:TrackPointExtension>
        </extensions>
      </trkpt>
      <trkpt lat="42.52079992555081844329833984375" lon="20.1686666719615459442138671875">
        <ele>1716</ele>
        <time>2026-06-20T08:55:24.000Z</time>
        <extensions>
          <ns3:TrackPointExtension>
            <ns3:atemp>22.0</ns3:atemp>
          </ns3:TrackPointExtension>
        </extensions>
      </trkpt>
      <trkpt lat="42.520772852003574371337890625" lon="20.16865753568708896636962890625">
        <ele>1716.199951171875</ele>
        <time>2026-06-20T08:55:25.000Z</time>
        <extensions>
          <ns3:TrackPointExtension>
            <ns3:atemp>22.0</ns3:atemp>
          </ns3:TrackPointExtension>
        </extensions>
      </trkpt>
      <trkpt lat="42.52074963413178920745849609375" lon="20.16864613629877567291259765625">
        <ele>1716.199951171875</ele>
        <time>2026-06-20T08:55:26.000Z</time>
        <extensions>
          <ns3:TrackPointExtension>
            <ns3:atemp>22.0</ns3:atemp>
          </ns3:TrackPointExtension>
        </extensions>
      </trkpt>
      <trkpt lat="42.52072817645967006683349609375" lon="20.16863088123500347137451171875">
        <ele>1716.199951171875</ele>
        <time>2026-06-20T08:55:27.000Z</time>
        <extensions>
          <ns3:TrackPointExtension>
            <ns3:atemp>22.0</ns3:atemp>
          </ns3:TrackPointExtension>
        </extensions>
      </trkpt>
      <trkpt lat="42.52070805989205837249755859375" lon="20.16860808245837688446044921875">
        <ele>1716.4000244140625</ele>
        <time>2026-06-20T08:55:28.000Z</time>
        <extensions>
          <ns3:TrackPointExtension>
            <ns3:atemp>22.0</ns3:atemp>
          </ns3:TrackPointExtension>
        </extensions>
      </trkpt>
      <trkpt lat="42.5206880271434783935546875" lon="20.168580003082752227783203125">
        <ele>1716.199951171875</ele>
        <time>2026-06-20T08:55:29.000Z</time>
        <extensions>
          <ns3:TrackPointExtension>
            <ns3:atemp>22.0</ns3:atemp>
          </ns3:TrackPointExtension>
        </extensions>
      </trkpt>
      <trkpt lat="42.52066581510007381439208984375" lon="20.16854949295520782470703125">
        <ele>1716.199951171875</ele>
        <time>2026-06-20T08:55:30.000Z</time>
        <extensions>
          <ns3:TrackPointExtension>
            <ns3:atemp>22.0</ns3:atemp>
          </ns3:TrackPointExtension>
        </extensions>
      </trkpt>
      <trkpt lat="42.5206496380269527435302734375" lon="20.16850850544869899749755859375">
        <ele>1716</ele>
        <time>2026-06-20T08:55:31.000Z</time>
        <extensions>
          <ns3:TrackPointExtension>
            <ns3:atemp>22.0</ns3:atemp>
          </ns3:TrackPointExtension>
        </extensions>
      </trkpt>
      <trkpt lat="42.52063513733446598052978515625" lon="20.1684681884944438934326171875">
        <ele>1715.800048828125</ele>
        <time>2026-06-20T08:55:32.000Z</time>
        <extensions>
          <ns3:TrackPointExtension>
            <ns3:atemp>22.0</ns3:atemp>
          </ns3:TrackPointExtension>
        </extensions>
      </trkpt>
      <trkpt lat="42.5206204690039157867431640625" lon="20.16842736862599849700927734375">
        <ele>1715.5999755859375</ele>
        <time>2026-06-20T08:55:33.000Z</time>
        <extensions>
          <ns3:TrackPointExtension>
            <ns3:atemp>22.0</ns3:atemp>
          </ns3:TrackPointExtension>
        </extensions>
      </trkpt>
      <trkpt lat="42.52060747705399990081787109375" lon="20.16838319599628448486328125">
        <ele>1715.4000244140625</ele>
        <time>2026-06-20T08:55:34.000Z</time>
        <extensions>
          <ns3:TrackPointExtension>
            <ns3:atemp>22.0</ns3:atemp>
          </ns3:TrackPointExtension>
        </extensions>
      </trkpt>
      <trkpt lat="42.52059507183730602264404296875" lon="20.16833801753818988800048828125">
        <ele>1715.199951171875</ele>
        <time>2026-06-20T08:55:35.000Z</time>
        <extensions>
          <ns3:TrackPointExtension>
            <ns3:atemp>22.0</ns3:atemp>
          </ns3:TrackPointExtension>
        </extensions>
      </trkpt>
      <trkpt lat="42.5205869413912296295166015625" lon="20.168295018374919891357421875">
        <ele>1714.800048828125</ele>
        <time>2026-06-20T08:55:36.000Z</time>
        <extensions>
          <ns3:TrackPointExtension>
            <ns3:atemp>22.0</ns3:atemp>
          </ns3:TrackPointExtension>
        </extensions>
      </trkpt>
      <trkpt lat="42.52058115787804126739501953125" lon="20.168246068060398101806640625">
        <ele>1714.4000244140625</ele>
        <time>2026-06-20T08:55:37.000Z</time>
        <extensions>
          <ns3:TrackPointExtension>
            <ns3:atemp>22.0</ns3:atemp>
          </ns3:TrackPointExtension>
        </extensions>
      </trkpt>
      <trkpt lat="42.52058065496385097503662109375" lon="20.16819066368043422698974609375">
        <ele>1714</ele>
        <time>2026-06-20T08:55:38.000Z</time>
        <extensions>
          <ns3:TrackPointExtension>
            <ns3:atemp>22.0</ns3:atemp>
          </ns3:TrackPointExtension>
        </extensions>
      </trkpt>
      <trkpt lat="42.52058199606835842132568359375" lon="20.1681325770914554595947265625">
        <ele>1713.5999755859375</ele>
        <time>2026-06-20T08:55:39.000Z</time>
        <extensions>
          <ns3:TrackPointExtension>
            <ns3:atemp>22.0</ns3:atemp>
          </ns3:TrackPointExtension>
        </extensions>
      </trkpt>
      <trkpt lat="42.52058937214314937591552734375" lon="20.1680646836757659912109375">
        <ele>1713</ele>
        <time>2026-06-20T08:55:40.000Z</time>
        <extensions>
          <ns3:TrackPointExtension>
            <ns3:atemp>22.0</ns3:atemp>
          </ns3:TrackPointExtension>
        </extensions>
      </trkpt>
      <trkpt lat="42.52060420811176300048828125" lon="20.16799653880298137664794921875">
        <ele>1712.4000244140625</ele>
        <time>2026-06-20T08:55:41.000Z</time>
        <extensions>
          <ns3:TrackPointExtension>
            <ns3:atemp>22.0</ns3:atemp>
          </ns3:TrackPointExtension>
        </extensions>
      </trkpt>
      <trkpt lat="42.520619966089725494384765625" lon="20.1679270528256893157958984375">
        <ele>1711.800048828125</ele>
        <time>2026-06-20T08:55:42.000Z</time>
        <extensions>
          <ns3:TrackPointExtension>
            <ns3:atemp>22.0</ns3:atemp>
          </ns3:TrackPointExtension>
        </extensions>
      </trkpt>
      <trkpt lat="42.52063907682895660400390625" lon="20.16786008141934871673583984375">
        <ele>1711.199951171875</ele>
        <time>2026-06-20T08:55:43.000Z</time>
        <extensions>
          <ns3:TrackPointExtension>
            <ns3:atemp>22.0</ns3:atemp>
          </ns3:TrackPointExtension>
        </extensions>
      </trkpt>
      <trkpt lat="42.520656846463680267333984375" lon="20.16779218800365924835205078125">
        <ele>1710.5999755859375</ele>
        <time>2026-06-20T08:55:44.000Z</time>
        <extensions>
          <ns3:TrackPointExtension>
            <ns3:atemp>22.0</ns3:atemp>
          </ns3:TrackPointExtension>
        </extensions>
      </trkpt>
      <trkpt lat="42.52067050896584987640380859375" lon="20.167720355093479156494140625">
        <ele>1709.800048828125</ele>
        <time>2026-06-20T08:55:45.000Z</time>
        <extensions>
          <ns3:TrackPointExtension>
            <ns3:atemp>22.0</ns3:atemp>
          </ns3:TrackPointExtension>
        </extensions>
      </trkpt>
      <trkpt lat="42.52068442292511463165283203125" lon="20.1676464267075061798095703125">
        <ele>1709.199951171875</ele>
        <time>2026-06-20T08:55:46.000Z</time>
        <extensions>
          <ns3:TrackPointExtension>
            <ns3:atemp>22.0</ns3:atemp>
          </ns3:TrackPointExtension>
        </extensions>
      </trkpt>
      <trkpt lat="42.52069800160825252532958984375" lon="20.1675723306834697723388671875">
        <ele>1708.199951171875</ele>
        <time>2026-06-20T08:55:47.000Z</time>
        <extensions>
          <ns3:TrackPointExtension>
            <ns3:atemp>22.0</ns3:atemp>
          </ns3:TrackPointExtension>
        </extensions>
      </trkpt>
      <trkpt lat="42.52071023918688297271728515625" lon="20.16749613918364048004150390625">
        <ele>1707.4000244140625</ele>
        <time>2026-06-20T08:55:48.000Z</time>
        <extensions>
          <ns3:TrackPointExtension>
            <ns3:atemp>22.0</ns3:atemp>
          </ns3:TrackPointExtension>
        </extensions>
      </trkpt>
      <trkpt lat="42.52071954309940338134765625" lon="20.16741600818932056427001953125">
        <ele>1706.5999755859375</ele>
        <time>2026-06-20T08:55:49.000Z</time>
        <extensions>
          <ns3:TrackPointExtension>
            <ns3:atemp>22.0</ns3:atemp>
          </ns3:TrackPointExtension>
        </extensions>
      </trkpt>
      <trkpt lat="42.52072230912744998931884765625" lon="20.16733302734792232513427734375">
        <ele>1706</ele>
        <time>2026-06-20T08:55:50.000Z</time>
        <extensions>
          <ns3:TrackPointExtension>
            <ns3:atemp>22.0</ns3:atemp>
          </ns3:TrackPointExtension>
        </extensions>
      </trkpt>
      <trkpt lat="42.5207193754613399505615234375" lon="20.16725323162972927093505859375">
        <ele>1705.199951171875</ele>
        <time>2026-06-20T08:55:51.000Z</time>
        <extensions>
          <ns3:TrackPointExtension>
            <ns3:atemp>22.0</ns3:atemp>
          </ns3:TrackPointExtension>
        </extensions>
      </trkpt>
      <trkpt lat="42.52071241848170757293701171875" lon="20.16716840676963329315185546875">
        <ele>1704.5999755859375</ele>
        <time>2026-06-20T08:55:52.000Z</time>
        <extensions>
          <ns3:TrackPointExtension>
            <ns3:atemp>22.0</ns3:atemp>
          </ns3:TrackPointExtension>
        </extensions>
      </trkpt>
      <trkpt lat="42.52069808542728424072265625" lon="20.16709464602172374725341796875">
        <ele>1704</ele>
        <time>2026-06-20T08:55:53.000Z</time>
        <extensions>
          <ns3:TrackPointExtension>
            <ns3:atemp>22.0</ns3:atemp>
          </ns3:TrackPointExtension>
        </extensions>
      </trkpt>
      <trkpt lat="42.520685009658336639404296875" lon="20.16702021472156047821044921875">
        <ele>1703.5999755859375</ele>
        <time>2026-06-20T08:55:54.000Z</time>
        <extensions>
          <ns3:TrackPointExtension>
            <ns3:atemp>22.0</ns3:atemp>
          </ns3:TrackPointExtension>
        </extensions>
      </trkpt>
      <trkpt lat="42.52067771740257740020751953125" lon="20.166945867240428924560546875">
        <ele>1703.199951171875</ele>
        <time>2026-06-20T08:55:55.000Z</time>
        <extensions>
          <ns3:TrackPointExtension>
            <ns3:atemp>22.0</ns3:atemp>
          </ns3:TrackPointExtension>
        </extensions>
      </trkpt>
      <trkpt lat="42.52066724002361297607421875" lon="20.16687587834894657135009765625">
        <ele>1703</ele>
        <time>2026-06-20T08:55:56.000Z</time>
        <extensions>
          <ns3:TrackPointExtension>
            <ns3:atemp>22.0</ns3:atemp>
          </ns3:TrackPointExtension>
        </extensions>
      </trkpt>
      <trkpt lat="42.52065424807369709014892578125" lon="20.16680982895195484161376953125">
        <ele>1703</ele>
        <time>2026-06-20T08:55:57.000Z</time>
        <extensions>
          <ns3:TrackPointExtension>
            <ns3:atemp>22.0</ns3:atemp>
          </ns3:TrackPointExtension>
        </extensions>
      </trkpt>
      <trkpt lat="42.52063999883830547332763671875" lon="20.1667438633739948272705078125">
        <ele>1703</ele>
        <time>2026-06-20T08:55:58.000Z</time>
        <extensions>
          <ns3:TrackPointExtension>
            <ns3:atemp>22.0</ns3:atemp>
          </ns3:TrackPointExtension>
        </extensions>
      </trkpt>
      <trkpt lat="42.52062373794615268707275390625" lon="20.1666811667382717132568359375">
        <ele>1702.800048828125</ele>
        <time>2026-06-20T08:55:59.000Z</time>
        <extensions>
          <ns3:TrackPointExtension>
            <ns3:atemp>22.0</ns3:atemp>
          </ns3:TrackPointExtension>
        </extensions>
      </trkpt>
      <trkpt lat="42.52060462720692157745361328125" lon="20.16662660054862499237060546875">
        <ele>1702.800048828125</ele>
        <time>2026-06-20T08:56:00.000Z</time>
        <extensions>
          <ns3:TrackPointExtension>
            <ns3:atemp>22.0</ns3:atemp>
          </ns3:TrackPointExtension>
        </extensions>
      </trkpt>
      <trkpt lat="42.520583756268024444580078125" lon="20.166583098471164703369140625">
        <ele>1702.5999755859375</ele>
        <time>2026-06-20T08:56:01.000Z</time>
        <extensions>
          <ns3:TrackPointExtension>
            <ns3:atemp>22.0</ns3:atemp>
          </ns3:TrackPointExtension>
        </extensions>
      </trkpt>
      <trkpt lat="42.52056003548204898834228515625" lon="20.1665410213172435760498046875">
        <ele>1702.4000244140625</ele>
        <time>2026-06-20T08:56:02.000Z</time>
        <extensions>
          <ns3:TrackPointExtension>
            <ns3:atemp>22.0</ns3:atemp>
          </ns3:TrackPointExtension>
        </extensions>
      </trkpt>
      <trkpt lat="42.5205336324870586395263671875" lon="20.16649098135530948638916015625">
        <ele>1702</ele>
        <time>2026-06-20T08:56:03.000Z</time>
        <extensions>
          <ns3:TrackPointExtension>
            <ns3:atemp>22.0</ns3:atemp>
          </ns3:TrackPointExtension>
        </extensions>
      </trkpt>
      <trkpt lat="42.5205081515014171600341796875" lon="20.16644404269754886627197265625">
        <ele>1701.5999755859375</ele>
        <time>2026-06-20T08:56:04.000Z</time>
        <extensions>
          <ns3:TrackPointExtension>
            <ns3:atemp>22.0</ns3:atemp>
          </ns3:TrackPointExtension>
        </extensions>
      </trkpt>
      <trkpt lat="42.5204836763441562652587890625" lon="20.1664042286574840545654296875">
        <ele>1701.199951171875</ele>
        <time>2026-06-20T08:56:05.000Z</time>
        <extensions>
          <ns3:TrackPointExtension>
            <ns3:atemp>22.0</ns3:atemp>
          </ns3:TrackPointExtension>
        </extensions>
      </trkpt>
      <trkpt lat="42.52045459114015102386474609375" lon="20.1663663424551486968994140625">
        <ele>1700.800048828125</ele>
        <time>2026-06-20T08:56:06.000Z</time>
        <extensions>
          <ns3:TrackPointExtension>
            <ns3:atemp>22.0</ns3:atemp>
          </ns3:TrackPointExtension>
        </extensions>
      </trkpt>
      <trkpt lat="42.52042709849774837493896484375" lon="20.16633474268019199371337890625">
        <ele>1700.4000244140625</ele>
        <time>2026-06-20T08:56:07.000Z</time>
        <extensions>
          <ns3:TrackPointExtension>
            <ns3:atemp>22.0</ns3:atemp>
          </ns3:TrackPointExtension>
        </extensions>
      </trkpt>
      <trkpt lat="42.52039843238890171051025390625" lon="20.1663073338568210601806640625">
        <ele>1700.199951171875</ele>
        <time>2026-06-20T08:56:08.000Z</time>
        <extensions>
          <ns3:TrackPointExtension>
            <ns3:atemp>22.0</ns3:atemp>
          </ns3:TrackPointExtension>
        </extensions>
      </trkpt>
      <trkpt lat="42.5203742086887359619140625" lon="20.166279338300228118896484375">
        <ele>1699.800048828125</ele>
        <time>2026-06-20T08:56:09.000Z</time>
        <extensions>
          <ns3:TrackPointExtension>
            <ns3:atemp>22.0</ns3:atemp>
          </ns3:TrackPointExtension>
        </extensions>
      </trkpt>
      <trkpt lat="42.52034981735050678253173828125" lon="20.16624790616333484649658203125">
        <ele>1699.5999755859375</ele>
        <time>2026-06-20T08:56:10.000Z</time>
        <extensions>
          <ns3:TrackPointExtension>
            <ns3:atemp>22.0</ns3:atemp>
          </ns3:TrackPointExtension>
        </extensions>
      </trkpt>
      <trkpt lat="42.5203207321465015411376953125" lon="20.16621940769255161285400390625">
        <ele>1699.4000244140625</ele>
        <time>2026-06-20T08:56:11.000Z</time>
        <extensions>
          <ns3:TrackPointExtension>
            <ns3:atemp>22.0</ns3:atemp>
          </ns3:TrackPointExtension>
        </extensions>
      </trkpt>
      <trkpt lat="42.52029332332313060760498046875" lon="20.1661879755556583404541015625">
        <ele>1699.4000244140625</ele>
        <time>2026-06-20T08:56:12.000Z</time>
        <extensions>
          <ns3:TrackPointExtension>
            <ns3:atemp>22.0</ns3:atemp>
          </ns3:TrackPointExtension>
        </extensions>
      </trkpt>
      <trkpt lat="42.520269937813282012939453125" lon="20.16615553759038448333740234375">
        <ele>1699.4000244140625</ele>
        <time>2026-06-20T08:56:13.000Z</time>
        <extensions>
          <ns3:TrackPointExtension>
            <ns3:atemp>22.0</ns3:atemp>
          </ns3:TrackPointExtension>
        </extensions>
      </trkpt>
      <trkpt lat="42.520250491797924041748046875" lon="20.1661179028451442718505859375">
        <ele>1699.199951171875</ele>
        <time>2026-06-20T08:56:14.000Z</time>
        <extensions>
          <ns3:TrackPointExtension>
            <ns3:atemp>22.0</ns3:atemp>
          </ns3:TrackPointExtension>
        </extensions>
      </trkpt>
      <trkpt lat="42.52023481763899326324462890625" lon="20.166078172624111175537109375">
        <ele>1699.199951171875</ele>
        <time>2026-06-20T08:56:15.000Z</time>
        <extensions>
          <ns3:TrackPointExtension>
            <ns3:atemp>22.0</ns3:atemp>
          </ns3:TrackPointExtension>
        </extensions>
      </trkpt>
      <trkpt lat="42.520221658051013946533203125" lon="20.1660357601940631866455078125">
        <ele>1699.4000244140625</ele>
        <time>2026-06-20T08:56:16.000Z</time>
        <extensions>
          <ns3:TrackPointExtension>
            <ns3:atemp>22.0</ns3:atemp>
          </ns3:TrackPointExtension>
        </extensions>
      </trkpt>
      <trkpt lat="42.52020816318690776824951171875" lon="20.16599678434431552886962890625">
        <ele>1699.4000244140625</ele>
        <time>2026-06-20T08:56:17.000Z</time>
        <extensions>
          <ns3:TrackPointExtension>
            <ns3:atemp>22.0</ns3:atemp>
          </ns3:TrackPointExtension>
        </extensions>
      </trkpt>
      <trkpt lat="42.520201206207275390625" lon="20.16595118679106235504150390625">
        <ele>1699.4000244140625</ele>
        <time>2026-06-20T08:56:18.000Z</time>
        <extensions>
          <ns3:TrackPointExtension>
            <ns3:atemp>22.0</ns3:atemp>
          </ns3:TrackPointExtension>
        </extensions>
      </trkpt>
      <trkpt lat="42.52019374631345272064208984375" lon="20.1659076847136020660400390625">
        <ele>1699.5999755859375</ele>
        <time>2026-06-20T08:56:19.000Z</time>
        <extensions>
          <ns3:TrackPointExtension>
            <ns3:atemp>22.0</ns3:atemp>
          </ns3:TrackPointExtension>
        </extensions>
      </trkpt>
      <trkpt lat="42.52018737606704235076904296875" lon="20.1658671163022518157958984375">
        <ele>1699.5999755859375</ele>
        <time>2026-06-20T08:56:20.000Z</time>
        <extensions>
          <ns3:TrackPointExtension>
            <ns3:atemp>22.0</ns3:atemp>
          </ns3:TrackPointExtension>
        </extensions>
      </trkpt>
      <trkpt lat="42.52017882652580738067626953125" lon="20.16582981683313846588134765625">
        <ele>1699.5999755859375</ele>
        <time>2026-06-20T08:56:21.000Z</time>
        <extensions>
          <ns3:TrackPointExtension>
            <ns3:atemp>22.0</ns3:atemp>
          </ns3:TrackPointExtension>
        </extensions>
      </trkpt>
      <trkpt lat="42.5201649963855743408203125" lon="20.16579687595367431640625">
        <ele>1699.800048828125</ele>
        <time>2026-06-20T08:56:22.000Z</time>
        <extensions>
          <ns3:TrackPointExtension>
            <ns3:atemp>22.0</ns3:atemp>
          </ns3:TrackPointExtension>
        </extensions>
      </trkpt>
      <trkpt lat="42.520149908959865570068359375" lon="20.1657672040164470672607421875">
        <ele>1699.800048828125</ele>
        <time>2026-06-20T08:56:23.000Z</time>
        <extensions>
          <ns3:TrackPointExtension>
            <ns3:atemp>22.0</ns3:atemp>
          </ns3:TrackPointExtension>
        </extensions>
      </trkpt>
      <trkpt lat="42.52012870274484157562255859375" lon="20.165738873183727264404296875">
        <ele>1700</ele>
        <time>2026-06-20T08:56:24.000Z</time>
        <extensions>
          <ns3:TrackPointExtension>
            <ns3:atemp>22.0</ns3:atemp>
          </ns3:TrackPointExtension>
        </extensions>
      </trkpt>
      <trkpt lat="42.5201031379401683807373046875" lon="20.16572403721511363983154296875">
        <ele>1700</ele>
        <time>2026-06-20T08:56:25.000Z</time>
        <extensions>
          <ns3:TrackPointExtension>
            <ns3:atemp>22.0</ns3:atemp>
          </ns3:TrackPointExtension>
        </extensions>
      </trkpt>
      <trkpt lat="42.52007757313549518585205078125" lon="20.16571599058806896209716796875">
        <ele>1700</ele>
        <time>2026-06-20T08:56:26.000Z</time>
        <extensions>
          <ns3:TrackPointExtension>
            <ns3:atemp>22.0</ns3:atemp>
          </ns3:TrackPointExtension>
        </extensions>
      </trkpt>
      <trkpt lat="42.520049326121807098388671875" lon="20.165716074407100677490234375">
        <ele>1699.800048828125</ele>
        <time>2026-06-20T08:56:27.000Z</time>
        <extensions>
          <ns3:TrackPointExtension>
            <ns3:atemp>22.0</ns3:atemp>
          </ns3:TrackPointExtension>
        </extensions>
      </trkpt>
      <trkpt lat="42.5200220011174678802490234375" lon="20.1657195948064327239990234375">
        <ele>1699.5999755859375</ele>
        <time>2026-06-20T08:56:28.000Z</time>
        <extensions>
          <ns3:TrackPointExtension>
            <ns3:atemp>22.0</ns3:atemp>
          </ns3:TrackPointExtension>
        </extensions>
      </trkpt>
      <trkpt lat="42.5199928320944309234619140625" lon="20.1657138951122760772705078125">
        <ele>1699.5999755859375</ele>
        <time>2026-06-20T08:56:29.000Z</time>
        <extensions>
          <ns3:TrackPointExtension>
            <ns3:atemp>22.0</ns3:atemp>
          </ns3:TrackPointExtension>
        </extensions>
      </trkpt>
      <trkpt lat="42.51997062005102634429931640625" lon="20.16569302417337894439697265625">
        <ele>1699.5999755859375</ele>
        <time>2026-06-20T08:56:30.000Z</time>
        <extensions>
          <ns3:TrackPointExtension>
            <ns3:atemp>22.0</ns3:atemp>
          </ns3:TrackPointExtension>
        </extensions>
      </trkpt>
      <trkpt lat="42.51995787955820560455322265625" lon="20.16565597616136074066162109375">
        <ele>1699.5999755859375</ele>
        <time>2026-06-20T08:56:31.000Z</time>
        <extensions>
          <ns3:TrackPointExtension>
            <ns3:atemp>22.0</ns3:atemp>
          </ns3:TrackPointExtension>
        </extensions>
      </trkpt>
      <trkpt lat="42.51994916237890720367431640625" lon="20.16561113297939300537109375">
        <ele>1699.5999755859375</ele>
        <time>2026-06-20T08:56:32.000Z</time>
        <extensions>
          <ns3:TrackPointExtension>
            <ns3:atemp>22.0</ns3:atemp>
          </ns3:TrackPointExtension>
        </extensions>
      </trkpt>
      <trkpt lat="42.51994312740862369537353515625" lon="20.1655643619596958160400390625">
        <ele>1699.5999755859375</ele>
        <time>2026-06-20T08:56:33.000Z</time>
        <extensions>
          <ns3:TrackPointExtension>
            <ns3:atemp>22.0</ns3:atemp>
          </ns3:TrackPointExtension>
        </extensions>
      </trkpt>
      <trkpt lat="42.51993499696254730224609375" lon="20.16552555374801158905029296875">
        <ele>1699.800048828125</ele>
        <time>2026-06-20T08:56:34.000Z</time>
        <extensions>
          <ns3:TrackPointExtension>
            <ns3:atemp>22.0</ns3:atemp>
          </ns3:TrackPointExtension>
        </extensions>
      </trkpt>
      <trkpt lat="42.51992502249777317047119140625" lon="20.16549252904951572418212890625">
        <ele>1699.800048828125</ele>
        <time>2026-06-20T08:56:35.000Z</time>
        <extensions>
          <ns3:TrackPointExtension>
            <ns3:atemp>22.0</ns3:atemp>
          </ns3:TrackPointExtension>
        </extensions>
      </trkpt>
      <trkpt lat="42.5199140422046184539794921875" lon="20.16546897590160369873046875">
        <ele>1699.800048828125</ele>
        <time>2026-06-20T08:56:36.000Z</time>
        <extensions>
          <ns3:TrackPointExtension>
            <ns3:atemp>22.0</ns3:atemp>
          </ns3:TrackPointExtension>
        </extensions>
      </trkpt>
      <trkpt lat="42.51990105025470256805419921875" lon="20.16543637029826641082763671875">
        <ele>1699.800048828125</ele>
        <time>2026-06-20T08:56:37.000Z</time>
        <extensions>
          <ns3:TrackPointExtension>
            <ns3:atemp>22.0</ns3:atemp>
          </ns3:TrackPointExtension>
        </extensions>
      </trkpt>
      <trkpt lat="42.519888393580913543701171875" lon="20.16540049575269222259521484375">
        <ele>1699.800048828125</ele>
        <time>2026-06-20T08:56:38.000Z</time>
        <extensions>
          <ns3:TrackPointExtension>
            <ns3:atemp>22.0</ns3:atemp>
          </ns3:TrackPointExtension>
        </extensions>
      </trkpt>
      <trkpt lat="42.51987934112548828125" lon="20.16536680050194263458251953125">
        <ele>1700</ele>
        <time>2026-06-20T08:56:39.000Z</time>
        <extensions>
          <ns3:TrackPointExtension>
            <ns3:atemp>22.0</ns3:atemp>
          </ns3:TrackPointExtension>
        </extensions>
      </trkpt>
      <trkpt lat="42.5198687799274921417236328125" lon="20.16533779911696910858154296875">
        <ele>1700</ele>
        <time>2026-06-20T08:56:40.000Z</time>
        <extensions>
          <ns3:TrackPointExtension>
            <ns3:atemp>22.0</ns3:atemp>
          </ns3:TrackPointExtension>
        </extensions>
      </trkpt>
      <trkpt lat="42.51985394395887851715087890625" lon="20.16531365923583507537841796875">
        <ele>1700.199951171875</ele>
        <time>2026-06-20T08:56:41.000Z</time>
        <extensions>
          <ns3:TrackPointExtension>
            <ns3:atemp>22.0</ns3:atemp>
          </ns3:TrackPointExtension>
        </extensions>
      </trkpt>
      <trkpt lat="42.519838102161884307861328125" lon="20.16529941000044345855712890625">
        <ele>1700.199951171875</ele>
        <time>2026-06-20T08:56:42.000Z</time>
        <extensions>
          <ns3:TrackPointExtension>
            <ns3:atemp>22.0</ns3:atemp>
          </ns3:TrackPointExtension>
        </extensions>
      </trkpt>
      <trkpt lat="42.5198161415755748748779296875" lon="20.16528046689927577972412109375">
        <ele>1700.4000244140625</ele>
        <time>2026-06-20T08:56:43.000Z</time>
        <extensions>
          <ns3:TrackPointExtension>
            <ns3:atemp>22.0</ns3:atemp>
          </ns3:TrackPointExtension>
        </extensions>
      </trkpt>
      <trkpt lat="42.51979359425604343414306640625" lon="20.1652679778635501861572265625">
        <ele>1700.4000244140625</ele>
        <time>2026-06-20T08:56:44.000Z</time>
        <extensions>
          <ns3:TrackPointExtension>
            <ns3:atemp>22.0</ns3:atemp>
          </ns3:TrackPointExtension>
        </extensions>
      </trkpt>
      <trkpt lat="42.5197712145745754241943359375" lon="20.1652589254081249237060546875">
        <ele>1700.5999755859375</ele>
        <time>2026-06-20T08:56:45.000Z</time>
        <extensions>
          <ns3:TrackPointExtension>
            <ns3:atemp>22.0</ns3:atemp>
          </ns3:TrackPointExtension>
        </extensions>
      </trkpt>
      <trkpt lat="42.51974799670279026031494140625" lon="20.1652508787810802459716796875">
        <ele>1700.5999755859375</ele>
        <time>2026-06-20T08:56:46.000Z</time>
        <extensions>
          <ns3:TrackPointExtension>
            <ns3:atemp>22.0</ns3:atemp>
          </ns3:TrackPointExtension>
        </extensions>
      </trkpt>
      <trkpt lat="42.5197269581258296966552734375" lon="20.1652438379824161529541015625">
        <ele>1700.800048828125</ele>
        <time>2026-06-20T08:56:47.000Z</time>
        <extensions>
          <ns3:TrackPointExtension>
            <ns3:atemp>22.0</ns3:atemp>
          </ns3:TrackPointExtension>
        </extensions>
      </trkpt>
      <trkpt lat="42.5197031535208225250244140625" lon="20.16523973084986209869384765625">
        <ele>1700.800048828125</ele>
        <time>2026-06-20T08:56:48.000Z</time>
        <extensions>
          <ns3:TrackPointExtension>
            <ns3:atemp>22.0</ns3:atemp>
          </ns3:TrackPointExtension>
        </extensions>
      </trkpt>
      <trkpt lat="42.51967775635421276092529296875" lon="20.16523025929927825927734375">
        <ele>1701</ele>
        <time>2026-06-20T08:56:49.000Z</time>
        <extensions>
          <ns3:TrackPointExtension>
            <ns3:atemp>22.0</ns3:atemp>
          </ns3:TrackPointExtension>
        </extensions>
      </trkpt>
      <trkpt lat="42.51965562812983989715576171875" lon="20.165214501321315765380859375">
        <ele>1701.199951171875</ele>
        <time>2026-06-20T08:56:50.000Z</time>
        <extensions>
          <ns3:TrackPointExtension>
            <ns3:atemp>22.0</ns3:atemp>
          </ns3:TrackPointExtension>
        </extensions>
      </trkpt>
      <trkpt lat="42.519638948142528533935546875" lon="20.16519430093467235565185546875">
        <ele>1701.4000244140625</ele>
        <time>2026-06-20T08:56:51.000Z</time>
        <extensions>
          <ns3:TrackPointExtension>
            <ns3:atemp>22.0</ns3:atemp>
          </ns3:TrackPointExtension>
        </extensions>
      </trkpt>
      <trkpt lat="42.5196236930787563323974609375" lon="20.16517083160579204559326171875">
        <ele>1701.5999755859375</ele>
        <time>2026-06-20T08:56:52.000Z</time>
        <extensions>
          <ns3:TrackPointExtension>
            <ns3:atemp>22.0</ns3:atemp>
          </ns3:TrackPointExtension>
        </extensions>
      </trkpt>
      <trkpt lat="42.5196102820336818695068359375" lon="20.16514300368726253509521484375">
        <ele>1701.800048828125</ele>
        <time>2026-06-20T08:56:53.000Z</time>
        <extensions>
          <ns3:TrackPointExtension>
            <ns3:atemp>22.0</ns3:atemp>
          </ns3:TrackPointExtension>
        </extensions>
      </trkpt>
      <trkpt lat="42.51959762535989284515380859375" lon="20.16511316411197185516357421875">
        <ele>1702</ele>
        <time>2026-06-20T08:56:54.000Z</time>
        <extensions>
          <ns3:TrackPointExtension>
            <ns3:atemp>22.0</ns3:atemp>
          </ns3:TrackPointExtension>
        </extensions>
      </trkpt>
      <trkpt lat="42.51958622597157955169677734375" lon="20.1650808937847614288330078125">
        <ele>1702</ele>
        <time>2026-06-20T08:56:55.000Z</time>
        <extensions>
          <ns3:TrackPointExtension>
            <ns3:atemp>22.0</ns3:atemp>
          </ns3:TrackPointExtension>
        </extensions>
      </trkpt>
      <trkpt lat="42.51957423985004425048828125" lon="20.1650512218475341796875">
        <ele>1702.199951171875</ele>
        <time>2026-06-20T08:56:56.000Z</time>
        <extensions>
          <ns3:TrackPointExtension>
            <ns3:atemp>22.0</ns3:atemp>
          </ns3:TrackPointExtension>
        </extensions>
      </trkpt>
      <trkpt lat="42.51956258900463581085205078125" lon="20.1650232262909412384033203125">
        <ele>1702.199951171875</ele>
        <time>2026-06-20T08:56:57.000Z</time>
        <extensions>
          <ns3:TrackPointExtension>
            <ns3:atemp>22.0</ns3:atemp>
          </ns3:TrackPointExtension>
        </extensions>
      </trkpt>
      <trkpt lat="42.51955135725438594818115234375" lon="20.1649989187717437744140625">
        <ele>1702.4000244140625</ele>
        <time>2026-06-20T08:56:58.000Z</time>
        <extensions>
          <ns3:TrackPointExtension>
            <ns3:atemp>22.0</ns3:atemp>
          </ns3:TrackPointExtension>
        </extensions>
      </trkpt>
      <trkpt lat="42.5195398740470409393310546875" lon="20.16497486270964145660400390625">
        <ele>1702.4000244140625</ele>
        <time>2026-06-20T08:56:59.000Z</time>
        <extensions>
          <ns3:TrackPointExtension>
            <ns3:atemp>22.0</ns3:atemp>
          </ns3:TrackPointExtension>
        </extensions>
      </trkpt>
      <trkpt lat="42.51952839083969593048095703125" lon="20.16494460403919219970703125">
        <ele>1702.4000244140625</ele>
        <time>2026-06-20T08:57:00.000Z</time>
        <extensions>
          <ns3:TrackPointExtension>
            <ns3:atemp>22.0</ns3:atemp>
          </ns3:TrackPointExtension>
        </extensions>
      </trkpt>
      <trkpt lat="42.51951992511749267578125" lon="20.1649109087884426116943359375">
        <ele>1702.5999755859375</ele>
        <time>2026-06-20T08:57:01.000Z</time>
        <extensions>
          <ns3:TrackPointExtension>
            <ns3:atemp>22.0</ns3:atemp>
          </ns3:TrackPointExtension>
        </extensions>
      </trkpt>
      <trkpt lat="42.51951548270881175994873046875" lon="20.1648753695189952850341796875">
        <ele>1702.5999755859375</ele>
        <time>2026-06-20T08:57:02.000Z</time>
        <extensions>
          <ns3:TrackPointExtension>
            <ns3:atemp>22.0</ns3:atemp>
          </ns3:TrackPointExtension>
        </extensions>
      </trkpt>
      <trkpt lat="42.5195113755762577056884765625" lon="20.16484058462083339691162109375">
        <ele>1702.5999755859375</ele>
        <time>2026-06-20T08:57:03.000Z</time>
        <extensions>
          <ns3:TrackPointExtension>
            <ns3:atemp>22.0</ns3:atemp>
          </ns3:TrackPointExtension>
        </extensions>
      </trkpt>
      <trkpt lat="42.51950961537659168243408203125" lon="20.16480672173202037811279296875">
        <ele>1702.5999755859375</ele>
        <time>2026-06-20T08:57:04.000Z</time>
        <extensions>
          <ns3:TrackPointExtension>
            <ns3:atemp>22.0</ns3:atemp>
          </ns3:TrackPointExtension>
        </extensions>
      </trkpt>
      <trkpt lat="42.51950919628143310546875" lon="20.16477419994771480560302734375">
        <ele>1702.800048828125</ele>
        <time>2026-06-20T08:57:05.000Z</time>
        <extensions>
          <ns3:TrackPointExtension>
            <ns3:atemp>22.0</ns3:atemp>
          </ns3:TrackPointExtension>
        </extensions>
      </trkpt>
      <trkpt lat="42.51950643025338649749755859375" lon="20.1647412590682506561279296875">
        <ele>1702.800048828125</ele>
        <time>2026-06-20T08:57:06.000Z</time>
        <extensions>
          <ns3:TrackPointExtension>
            <ns3:atemp>22.0</ns3:atemp>
          </ns3:TrackPointExtension>
        </extensions>
      </trkpt>
      <trkpt lat="42.51950793899595737457275390625" lon="20.16470664180815219879150390625">
        <ele>1703</ele>
        <time>2026-06-20T08:57:07.000Z</time>
        <extensions>
          <ns3:TrackPointExtension>
            <ns3:atemp>22.0</ns3:atemp>
          </ns3:TrackPointExtension>
        </extensions>
      </trkpt>
      <trkpt lat="42.51950877718627452850341796875" lon="20.164674036204814910888671875">
        <ele>1703.199951171875</ele>
        <time>2026-06-20T08:57:08.000Z</time>
        <extensions>
          <ns3:TrackPointExtension>
            <ns3:atemp>22.0</ns3:atemp>
          </ns3:TrackPointExtension>
        </extensions>
      </trkpt>
      <trkpt lat="42.51950961537659168243408203125" lon="20.16464428044855594635009765625">
        <ele>1703.199951171875</ele>
        <time>2026-06-20T08:57:09.000Z</time>
        <extensions>
          <ns3:TrackPointExtension>
            <ns3:atemp>22.0</ns3:atemp>
          </ns3:TrackPointExtension>
        </extensions>
      </trkpt>
      <trkpt lat="42.51951296813786029815673828125" lon="20.1646094955503940582275390625">
        <ele>1703.4000244140625</ele>
        <time>2026-06-20T08:57:10.000Z</time>
        <extensions>
          <ns3:TrackPointExtension>
            <ns3:atemp>22.0</ns3:atemp>
          </ns3:TrackPointExtension>
        </extensions>
      </trkpt>
      <trkpt lat="42.51951464451849460601806640625" lon="20.16456800512969493865966796875">
        <ele>1703.5999755859375</ele>
        <time>2026-06-20T08:57:11.000Z</time>
        <extensions>
          <ns3:TrackPointExtension>
            <ns3:atemp>22.0</ns3:atemp>
          </ns3:TrackPointExtension>
        </extensions>
      </trkpt>
      <trkpt lat="42.51951011829078197479248046875" lon="20.1645300351083278656005859375">
        <ele>1703.5999755859375</ele>
        <time>2026-06-20T08:57:12.000Z</time>
        <extensions>
          <ns3:TrackPointExtension>
            <ns3:atemp>22.0</ns3:atemp>
          </ns3:TrackPointExtension>
        </extensions>
      </trkpt>
      <trkpt lat="42.51950827427208423614501953125" lon="20.16449558548629283905029296875">
        <ele>1703.800048828125</ele>
        <time>2026-06-20T08:57:13.000Z</time>
        <extensions>
          <ns3:TrackPointExtension>
            <ns3:atemp>22.0</ns3:atemp>
          </ns3:TrackPointExtension>
        </extensions>
      </trkpt>
      <trkpt lat="42.51950391568243503570556640625" lon="20.1644592918455600738525390625">
        <ele>1704</ele>
        <time>2026-06-20T08:57:14.000Z</time>
        <extensions>
          <ns3:TrackPointExtension>
            <ns3:atemp>22.0</ns3:atemp>
          </ns3:TrackPointExtension>
        </extensions>
      </trkpt>
      <trkpt lat="42.5194979645311832427978515625" lon="20.164423920214176177978515625">
        <ele>1704</ele>
        <time>2026-06-20T08:57:15.000Z</time>
        <extensions>
          <ns3:TrackPointExtension>
            <ns3:atemp>22.0</ns3:atemp>
          </ns3:TrackPointExtension>
        </extensions>
      </trkpt>
      <trkpt lat="42.51948832534253597259521484375" lon="20.16439550556242465972900390625">
        <ele>1704</ele>
        <time>2026-06-20T08:57:16.000Z</time>
        <extensions>
          <ns3:TrackPointExtension>
            <ns3:atemp>22.0</ns3:atemp>
          </ns3:TrackPointExtension>
        </extensions>
      </trkpt>
      <trkpt lat="42.51947642304003238677978515625" lon="20.16436650417745113372802734375">
        <ele>1704.199951171875</ele>
        <time>2026-06-20T08:57:17.000Z</time>
        <extensions>
          <ns3:TrackPointExtension>
            <ns3:atemp>22.0</ns3:atemp>
          </ns3:TrackPointExtension>
        </extensions>
      </trkpt>
      <trkpt lat="42.51946452073752880096435546875" lon="20.1643369160592555999755859375">
        <ele>1704.199951171875</ele>
        <time>2026-06-20T08:57:18.000Z</time>
        <extensions>
          <ns3:TrackPointExtension>
            <ns3:atemp>22.0</ns3:atemp>
          </ns3:TrackPointExtension>
        </extensions>
      </trkpt>
      <trkpt lat="42.519451864063739776611328125" lon="20.16430933959782123565673828125">
        <ele>1704.4000244140625</ele>
        <time>2026-06-20T08:57:19.000Z</time>
        <extensions>
          <ns3:TrackPointExtension>
            <ns3:atemp>22.0</ns3:atemp>
          </ns3:TrackPointExtension>
        </extensions>
      </trkpt>
      <trkpt lat="42.519439123570919036865234375" lon="20.1642819307744503021240234375">
        <ele>1704.5999755859375</ele>
        <time>2026-06-20T08:57:20.000Z</time>
        <extensions>
          <ns3:TrackPointExtension>
            <ns3:atemp>22.0</ns3:atemp>
          </ns3:TrackPointExtension>
        </extensions>
      </trkpt>
      <trkpt lat="42.51942814327776432037353515625" lon="20.164254941046237945556640625">
        <ele>1704.800048828125</ele>
        <time>2026-06-20T08:57:21.000Z</time>
        <extensions>
          <ns3:TrackPointExtension>
            <ns3:atemp>22.0</ns3:atemp>
          </ns3:TrackPointExtension>
        </extensions>
      </trkpt>
      <trkpt lat="42.519416324794292449951171875" lon="20.16422937624156475067138671875">
        <ele>1705</ele>
        <time>2026-06-20T08:57:22.000Z</time>
        <extensions>
          <ns3:TrackPointExtension>
            <ns3:atemp>22.0</ns3:atemp>
          </ns3:TrackPointExtension>
        </extensions>
      </trkpt>
      <trkpt lat="42.519407607614994049072265625" lon="20.16419551335275173187255859375">
        <ele>1705.199951171875</ele>
        <time>2026-06-20T08:57:23.000Z</time>
        <extensions>
          <ns3:TrackPointExtension>
            <ns3:atemp>22.0</ns3:atemp>
          </ns3:TrackPointExtension>
        </extensions>
      </trkpt>
      <trkpt lat="42.51940433867275714874267578125" lon="20.16416634432971477508544921875">
        <ele>1705.199951171875</ele>
        <time>2026-06-20T08:57:24.000Z</time>
        <extensions>
          <ns3:TrackPointExtension>
            <ns3:atemp>22.0</ns3:atemp>
          </ns3:TrackPointExtension>
        </extensions>
      </trkpt>
      <trkpt lat="42.51940383575856685638427734375" lon="20.1641367562115192413330078125">
        <ele>1705.4000244140625</ele>
        <time>2026-06-20T08:57:25.000Z</time>
        <extensions>
          <ns3:TrackPointExtension>
            <ns3:atemp>22.0</ns3:atemp>
          </ns3:TrackPointExtension>
        </extensions>
      </trkpt>
      <trkpt lat="42.51940266229212284088134765625" lon="20.1641085930168628692626953125">
        <ele>1705.4000244140625</ele>
        <time>2026-06-20T08:57:26.000Z</time>
        <extensions>
          <ns3:TrackPointExtension>
            <ns3:atemp>22.0</ns3:atemp>
          </ns3:TrackPointExtension>
        </extensions>
      </trkpt>
      <trkpt lat="42.51940065063536167144775390625" lon="20.164085291326045989990234375">
        <ele>1705.199951171875</ele>
        <time>2026-06-20T08:57:27.000Z</time>
        <extensions>
          <ns3:TrackPointExtension>
            <ns3:atemp>22.0</ns3:atemp>
          </ns3:TrackPointExtension>
        </extensions>
      </trkpt>
      <trkpt lat="42.51939428038895130157470703125" lon="20.164057798683643341064453125">
        <ele>1705.199951171875</ele>
        <time>2026-06-20T08:57:28.000Z</time>
        <extensions>
          <ns3:TrackPointExtension>
            <ns3:atemp>22.0</ns3:atemp>
          </ns3:TrackPointExtension>
        </extensions>
      </trkpt>
      <trkpt lat="42.519390173256397247314453125" lon="20.1640225946903228759765625">
        <ele>1705.4000244140625</ele>
        <time>2026-06-20T08:57:29.000Z</time>
        <extensions>
          <ns3:TrackPointExtension>
            <ns3:atemp>22.0</ns3:atemp>
          </ns3:TrackPointExtension>
        </extensions>
      </trkpt>
      <trkpt lat="42.5193806178867816925048828125" lon="20.1639904081821441650390625">
        <ele>1705.5999755859375</ele>
        <time>2026-06-20T08:57:30.000Z</time>
        <extensions>
          <ns3:TrackPointExtension>
            <ns3:atemp>22.0</ns3:atemp>
          </ns3:TrackPointExtension>
        </extensions>
      </trkpt>
      <trkpt lat="42.5193698890507221221923828125" lon="20.16395889222621917724609375">
        <ele>1705.5999755859375</ele>
        <time>2026-06-20T08:57:31.000Z</time>
        <extensions>
          <ns3:TrackPointExtension>
            <ns3:atemp>22.0</ns3:atemp>
          </ns3:TrackPointExtension>
        </extensions>
      </trkpt>
      <trkpt lat="42.51936125569045543670654296875" lon="20.16392930410802364349365234375">
        <ele>1705.800048828125</ele>
        <time>2026-06-20T08:57:32.000Z</time>
        <extensions>
          <ns3:TrackPointExtension>
            <ns3:atemp>22.0</ns3:atemp>
          </ns3:TrackPointExtension>
        </extensions>
      </trkpt>
      <trkpt lat="42.5193522870540618896484375" lon="20.1638977043330669403076171875">
        <ele>1705.800048828125</ele>
        <time>2026-06-20T08:57:33.000Z</time>
        <extensions>
          <ns3:TrackPointExtension>
            <ns3:atemp>22.0</ns3:atemp>
          </ns3:TrackPointExtension>
        </extensions>
      </trkpt>
      <trkpt lat="42.51934700645506381988525390625" lon="20.16386291943490505218505859375">
        <ele>1706</ele>
        <time>2026-06-20T08:57:34.000Z</time>
        <extensions>
          <ns3:TrackPointExtension>
            <ns3:atemp>22.0</ns3:atemp>
          </ns3:TrackPointExtension>
        </extensions>
      </trkpt>
      <trkpt lat="42.519340217113494873046875" lon="20.16383157111704349517822265625">
        <ele>1706.199951171875</ele>
        <time>2026-06-20T08:57:35.000Z</time>
        <extensions>
          <ns3:TrackPointExtension>
            <ns3:atemp>22.0</ns3:atemp>
          </ns3:TrackPointExtension>
        </extensions>
      </trkpt>
      <trkpt lat="42.51933074556291103363037109375" lon="20.16380391083657741546630859375">
        <ele>1706.4000244140625</ele>
        <time>2026-06-20T08:57:36.000Z</time>
        <extensions>
          <ns3:TrackPointExtension>
            <ns3:atemp>22.0</ns3:atemp>
          </ns3:TrackPointExtension>
        </extensions>
      </trkpt>
      <trkpt lat="42.5193263031542301177978515625" lon="20.163772813975811004638671875">
        <ele>1706.5999755859375</ele>
        <time>2026-06-20T08:57:37.000Z</time>
        <extensions>
          <ns3:TrackPointExtension>
            <ns3:atemp>22.0</ns3:atemp>
          </ns3:TrackPointExtension>
        </extensions>
      </trkpt>
      <trkpt lat="42.5193232856690883636474609375" lon="20.1637387834489345550537109375">
        <ele>1706.800048828125</ele>
        <time>2026-06-20T08:57:38.000Z</time>
        <extensions>
          <ns3:TrackPointExtension>
            <ns3:atemp>22.0</ns3:atemp>
          </ns3:TrackPointExtension>
        </extensions>
      </trkpt>
      <trkpt lat="42.5193229503929615020751953125" lon="20.16370969824492931365966796875">
        <ele>1707</ele>
        <time>2026-06-20T08:57:39.000Z</time>
        <extensions>
          <ns3:TrackPointExtension>
            <ns3:atemp>22.0</ns3:atemp>
          </ns3:TrackPointExtension>
        </extensions>
      </trkpt>
      <trkpt lat="42.51932404004037380218505859375" lon="20.1636774279177188873291015625">
        <ele>1707.4000244140625</ele>
        <time>2026-06-20T08:57:40.000Z</time>
        <extensions>
          <ns3:TrackPointExtension>
            <ns3:atemp>22.0</ns3:atemp>
          </ns3:TrackPointExtension>
        </extensions>
      </trkpt>
      <trkpt lat="42.51932253129780292510986328125" lon="20.163648426532745361328125">
        <ele>1707.5999755859375</ele>
        <time>2026-06-20T08:57:41.000Z</time>
        <extensions>
          <ns3:TrackPointExtension>
            <ns3:atemp>22.0</ns3:atemp>
          </ns3:TrackPointExtension>
        </extensions>
      </trkpt>
      <trkpt lat="42.519324123859405517578125" lon="20.16362386755645275115966796875">
        <ele>1707.5999755859375</ele>
        <time>2026-06-20T08:57:42.000Z</time>
        <extensions>
          <ns3:TrackPointExtension>
            <ns3:atemp>22.0</ns3:atemp>
          </ns3:TrackPointExtension>
        </extensions>
      </trkpt>
      <trkpt lat="42.519325129687786102294921875" lon="20.16359411180019378662109375">
        <ele>1707.800048828125</ele>
        <time>2026-06-20T08:57:43.000Z</time>
        <extensions>
          <ns3:TrackPointExtension>
            <ns3:atemp>22.0</ns3:atemp>
          </ns3:TrackPointExtension>
        </extensions>
      </trkpt>
      <trkpt lat="42.51932454295456409454345703125" lon="20.163561590015888214111328125">
        <ele>1708</ele>
        <time>2026-06-20T08:57:44.000Z</time>
        <extensions>
          <ns3:TrackPointExtension>
            <ns3:atemp>22.0</ns3:atemp>
          </ns3:TrackPointExtension>
        </extensions>
      </trkpt>
      <trkpt lat="42.51932605169713497161865234375" lon="20.16353300772607326507568359375">
        <ele>1708.199951171875</ele>
        <time>2026-06-20T08:57:45.000Z</time>
        <extensions>
          <ns3:TrackPointExtension>
            <ns3:atemp>22.0</ns3:atemp>
          </ns3:TrackPointExtension>
        </extensions>
      </trkpt>
      <trkpt lat="42.5193263031542301177978515625" lon="20.16350350342690944671630859375">
        <ele>1708.4000244140625</ele>
        <time>2026-06-20T08:57:46.000Z</time>
        <extensions>
          <ns3:TrackPointExtension>
            <ns3:atemp>22.0</ns3:atemp>
          </ns3:TrackPointExtension>
        </extensions>
      </trkpt>
      <trkpt lat="42.5193286500871181488037109375" lon="20.163477100431919097900390625">
        <ele>1708.5999755859375</ele>
        <time>2026-06-20T08:57:47.000Z</time>
        <extensions>
          <ns3:TrackPointExtension>
            <ns3:atemp>22.0</ns3:atemp>
          </ns3:TrackPointExtension>
        </extensions>
      </trkpt>
      <trkpt lat="42.51933418214321136474609375" lon="20.1634457521140575408935546875">
        <ele>1708.800048828125</ele>
        <time>2026-06-20T08:57:48.000Z</time>
        <extensions>
          <ns3:TrackPointExtension>
            <ns3:atemp>22.0</ns3:atemp>
          </ns3:TrackPointExtension>
        </extensions>
      </trkpt>
      <trkpt lat="42.5193387083709239959716796875" lon="20.16341633163392543792724609375">
        <ele>1708.800048828125</ele>
        <time>2026-06-20T08:57:49.000Z</time>
        <extensions>
          <ns3:TrackPointExtension>
            <ns3:atemp>22.0</ns3:atemp>
          </ns3:TrackPointExtension>
        </extensions>
      </trkpt>
      <trkpt lat="42.519341893494129180908203125" lon="20.1633897610008716583251953125">
        <ele>1709.199951171875</ele>
        <time>2026-06-20T08:57:50.000Z</time>
        <extensions>
          <ns3:TrackPointExtension>
            <ns3:atemp>22.0</ns3:atemp>
          </ns3:TrackPointExtension>
        </extensions>
      </trkpt>
      <trkpt lat="42.51934533007442951202392578125" lon="20.16336067579686641693115234375">
        <ele>1709.4000244140625</ele>
        <time>2026-06-20T08:57:51.000Z</time>
        <extensions>
          <ns3:TrackPointExtension>
            <ns3:atemp>22.0</ns3:atemp>
          </ns3:TrackPointExtension>
        </extensions>
      </trkpt>
      <trkpt lat="42.5193514488637447357177734375" lon="20.16333519481122493743896484375">
        <ele>1709.5999755859375</ele>
        <time>2026-06-20T08:57:52.000Z</time>
        <extensions>
          <ns3:TrackPointExtension>
            <ns3:atemp>22.0</ns3:atemp>
          </ns3:TrackPointExtension>
        </extensions>
      </trkpt>
      <trkpt lat="42.51935890875756740570068359375" lon="20.1633091270923614501953125">
        <ele>1709.800048828125</ele>
        <time>2026-06-20T08:57:53.000Z</time>
        <extensions>
          <ns3:TrackPointExtension>
            <ns3:atemp>22.0</ns3:atemp>
          </ns3:TrackPointExtension>
        </extensions>
      </trkpt>
      <trkpt lat="42.5193638540804386138916015625" lon="20.16328121535480022430419921875">
        <ele>1710</ele>
        <time>2026-06-20T08:57:54.000Z</time>
        <extensions>
          <ns3:TrackPointExtension>
            <ns3:atemp>22.0</ns3:atemp>
          </ns3:TrackPointExtension>
        </extensions>
      </trkpt>
      <trkpt lat="42.5193665362894535064697265625" lon="20.16325347125530242919921875">
        <ele>1710.199951171875</ele>
        <time>2026-06-20T08:57:55.000Z</time>
        <extensions>
          <ns3:TrackPointExtension>
            <ns3:atemp>22.0</ns3:atemp>
          </ns3:TrackPointExtension>
        </extensions>
      </trkpt>
      <trkpt lat="42.51936980523169040679931640625" lon="20.1632331870496273040771484375">
        <ele>1710.5999755859375</ele>
        <time>2026-06-20T08:57:56.000Z</time>
        <extensions>
          <ns3:TrackPointExtension>
            <ns3:atemp>22.0</ns3:atemp>
          </ns3:TrackPointExtension>
        </extensions>
      </trkpt>
      <trkpt lat="42.5193729065358638763427734375" lon="20.16321432776749134063720703125">
        <ele>1710.800048828125</ele>
        <time>2026-06-20T08:57:57.000Z</time>
        <extensions>
          <ns3:TrackPointExtension>
            <ns3:atemp>22.0</ns3:atemp>
          </ns3:TrackPointExtension>
        </extensions>
      </trkpt>
      <trkpt lat="42.5193776004016399383544921875" lon="20.1631912775337696075439453125">
        <ele>1711</ele>
        <time>2026-06-20T08:57:58.000Z</time>
        <extensions>
          <ns3:TrackPointExtension>
            <ns3:atemp>22.0</ns3:atemp>
          </ns3:TrackPointExtension>
        </extensions>
      </trkpt>
      <trkpt lat="42.51938221044838428497314453125" lon="20.16317434608936309814453125">
        <ele>1711.4000244140625</ele>
        <time>2026-06-20T08:57:59.000Z</time>
        <extensions>
          <ns3:TrackPointExtension>
            <ns3:atemp>22.0</ns3:atemp>
          </ns3:TrackPointExtension>
        </extensions>
      </trkpt>
      <trkpt lat="42.51938891597092151641845703125" lon="20.16315330751240253448486328125">
        <ele>1711.800048828125</ele>
        <time>2026-06-20T08:58:00.000Z</time>
        <extensions>
          <ns3:TrackPointExtension>
            <ns3:atemp>22.0</ns3:atemp>
          </ns3:TrackPointExtension>
        </extensions>
      </trkpt>
      <trkpt lat="42.519393526017665863037109375" lon="20.16313151456415653228759765625">
        <ele>1712.4000244140625</ele>
        <time>2026-06-20T08:58:01.000Z</time>
        <extensions>
          <ns3:TrackPointExtension>
            <ns3:atemp>22.0</ns3:atemp>
          </ns3:TrackPointExtension>
        </extensions>
      </trkpt>
      <trkpt lat="42.51939863897860050201416015625" lon="20.16311491839587688446044921875">
        <ele>1712.800048828125</ele>
        <time>2026-06-20T08:58:02.000Z</time>
        <extensions>
          <ns3:TrackPointExtension>
            <ns3:atemp>22.0</ns3:atemp>
          </ns3:TrackPointExtension>
        </extensions>
      </trkpt>
      <trkpt lat="42.51940383575856685638427734375" lon="20.163097567856311798095703125">
        <ele>1713.199951171875</ele>
        <time>2026-06-20T08:58:03.000Z</time>
        <extensions>
          <ns3:TrackPointExtension>
            <ns3:atemp>22.0</ns3:atemp>
          </ns3:TrackPointExtension>
        </extensions>
      </trkpt>
      <trkpt lat="42.5194124691188335418701171875" lon="20.16308072023093700408935546875">
        <ele>1713.4000244140625</ele>
        <time>2026-06-20T08:58:04.000Z</time>
        <extensions>
          <ns3:TrackPointExtension>
            <ns3:atemp>22.0</ns3:atemp>
          </ns3:TrackPointExtension>
        </extensions>
      </trkpt>
      <trkpt lat="42.51942043192684650421142578125" lon="20.16306035220623016357421875">
        <ele>1713.800048828125</ele>
        <time>2026-06-20T08:58:05.000Z</time>
        <extensions>
          <ns3:TrackPointExtension>
            <ns3:atemp>22.0</ns3:atemp>
          </ns3:TrackPointExtension>
        </extensions>
      </trkpt>
      <trkpt lat="42.51942881383001804351806640625" lon="20.1630404032766819000244140625">
        <ele>1714</ele>
        <time>2026-06-20T08:58:06.000Z</time>
        <extensions>
          <ns3:TrackPointExtension>
            <ns3:atemp>22.0</ns3:atemp>
          </ns3:TrackPointExtension>
        </extensions>
      </trkpt>
      <trkpt lat="42.5194352678954601287841796875" lon="20.1630209572613239288330078125">
        <ele>1714.4000244140625</ele>
        <time>2026-06-20T08:58:07.000Z</time>
        <extensions>
          <ns3:TrackPointExtension>
            <ns3:atemp>22.0</ns3:atemp>
          </ns3:TrackPointExtension>
        </extensions>
      </trkpt>
      <trkpt lat="42.5194426439702510833740234375" lon="20.16299941577017307281494140625">
        <ele>1714.800048828125</ele>
        <time>2026-06-20T08:58:08.000Z</time>
        <extensions>
          <ns3:TrackPointExtension>
            <ns3:atemp>22.0</ns3:atemp>
          </ns3:TrackPointExtension>
        </extensions>
      </trkpt>
      <trkpt lat="42.519451193511486053466796875" lon="20.16298064030706882476806640625">
        <ele>1715</ele>
        <time>2026-06-20T08:58:09.000Z</time>
        <extensions>
          <ns3:TrackPointExtension>
            <ns3:atemp>22.0</ns3:atemp>
          </ns3:TrackPointExtension>
        </extensions>
      </trkpt>
      <trkpt lat="42.51945781521499156951904296875" lon="20.16296421177685260772705078125">
        <ele>1715.199951171875</ele>
        <time>2026-06-20T08:58:10.000Z</time>
        <extensions>
          <ns3:TrackPointExtension>
            <ns3:atemp>22.0</ns3:atemp>
          </ns3:TrackPointExtension>
        </extensions>
      </trkpt>
      <trkpt lat="42.519462592899799346923828125" lon="20.16294862143695354461669921875">
        <ele>1715.4000244140625</ele>
        <time>2026-06-20T08:58:11.000Z</time>
        <extensions>
          <ns3:TrackPointExtension>
            <ns3:atemp>22.0</ns3:atemp>
          </ns3:TrackPointExtension>
        </extensions>
      </trkpt>
      <trkpt lat="42.5194671191275119781494140625" lon="20.1629317738115787506103515625">
        <ele>1715.800048828125</ele>
        <time>2026-06-20T08:58:12.000Z</time>
        <extensions>
          <ns3:TrackPointExtension>
            <ns3:atemp>22.0</ns3:atemp>
          </ns3:TrackPointExtension>
        </extensions>
      </trkpt>
      <trkpt lat="42.5194708071649074554443359375" lon="20.162913836538791656494140625">
        <ele>1716</ele>
        <time>2026-06-20T08:58:13.000Z</time>
        <extensions>
          <ns3:TrackPointExtension>
            <ns3:atemp>22.0</ns3:atemp>
          </ns3:TrackPointExtension>
        </extensions>
      </trkpt>
      <trkpt lat="42.51947005279362201690673828125" lon="20.16289263032376766204833984375">
        <ele>1716.4000244140625</ele>
        <time>2026-06-20T08:58:14.000Z</time>
        <extensions>
          <ns3:TrackPointExtension>
            <ns3:atemp>22.0</ns3:atemp>
          </ns3:TrackPointExtension>
        </extensions>
      </trkpt>
      <trkpt lat="42.5194691307842731475830078125" lon="20.16286815516650676727294921875">
        <ele>1716.5999755859375</ele>
        <time>2026-06-20T08:58:15.000Z</time>
        <extensions>
          <ns3:TrackPointExtension>
            <ns3:atemp>22.0</ns3:atemp>
          </ns3:TrackPointExtension>
        </extensions>
      </trkpt>
      <trkpt lat="42.519469968974590301513671875" lon="20.16284904442727565765380859375">
        <ele>1716.800048828125</ele>
        <time>2026-06-20T08:58:16.000Z</time>
        <extensions>
          <ns3:TrackPointExtension>
            <ns3:atemp>22.0</ns3:atemp>
          </ns3:TrackPointExtension>
        </extensions>
      </trkpt>
      <trkpt lat="42.51946753822267055511474609375" lon="20.16282440163195133209228515625">
        <ele>1717.199951171875</ele>
        <time>2026-06-20T08:58:17.000Z</time>
        <extensions>
          <ns3:TrackPointExtension>
            <ns3:atemp>22.0</ns3:atemp>
          </ns3:TrackPointExtension>
        </extensions>
      </trkpt>
      <trkpt lat="42.519469298422336578369140625" lon="20.162803195416927337646484375">
        <ele>1717.4000244140625</ele>
        <time>2026-06-20T08:58:18.000Z</time>
        <extensions>
          <ns3:TrackPointExtension>
            <ns3:atemp>22.0</ns3:atemp>
          </ns3:TrackPointExtension>
        </extensions>
      </trkpt>
      <trkpt lat="42.51947097480297088623046875" lon="20.16278265975415706634521484375">
        <ele>1717.800048828125</ele>
        <time>2026-06-20T08:58:19.000Z</time>
        <extensions>
          <ns3:TrackPointExtension>
            <ns3:atemp>22.0</ns3:atemp>
          </ns3:TrackPointExtension>
        </extensions>
      </trkpt>
      <trkpt lat="42.51947357319295406341552734375" lon="20.1627641357481479644775390625">
        <ele>1718</ele>
        <time>2026-06-20T08:58:20.000Z</time>
        <extensions>
          <ns3:TrackPointExtension>
            <ns3:atemp>22.0</ns3:atemp>
          </ns3:TrackPointExtension>
        </extensions>
      </trkpt>
      <trkpt lat="42.51947592012584209442138671875" lon="20.16274644993245601654052734375">
        <ele>1718.4000244140625</ele>
        <time>2026-06-20T08:58:21.000Z</time>
        <extensions>
          <ns3:TrackPointExtension>
            <ns3:atemp>22.0</ns3:atemp>
          </ns3:TrackPointExtension>
        </extensions>
      </trkpt>
      <trkpt lat="42.519481368362903594970703125" lon="20.1627270877361297607421875">
        <ele>1718.5999755859375</ele>
        <time>2026-06-20T08:58:22.000Z</time>
        <extensions>
          <ns3:TrackPointExtension>
            <ns3:atemp>22.0</ns3:atemp>
          </ns3:TrackPointExtension>
        </extensions>
      </trkpt>
      <trkpt lat="42.51948648132383823394775390625" lon="20.16270856373012065887451171875">
        <ele>1719</ele>
        <time>2026-06-20T08:58:23.000Z</time>
        <extensions>
          <ns3:TrackPointExtension>
            <ns3:atemp>22.0</ns3:atemp>
          </ns3:TrackPointExtension>
        </extensions>
      </trkpt>
      <trkpt lat="42.51949243247509002685546875" lon="20.16268677078187465667724609375">
        <ele>1719.199951171875</ele>
        <time>2026-06-20T08:58:24.000Z</time>
        <extensions>
          <ns3:TrackPointExtension>
            <ns3:atemp>22.0</ns3:atemp>
          </ns3:TrackPointExtension>
        </extensions>
      </trkpt>
      <trkpt lat="42.51949788071215152740478515625" lon="20.162668414413928985595703125">
        <ele>1719.5999755859375</ele>
        <time>2026-06-20T08:58:25.000Z</time>
        <extensions>
          <ns3:TrackPointExtension>
            <ns3:atemp>22.0</ns3:atemp>
          </ns3:TrackPointExtension>
        </extensions>
      </trkpt>
      <trkpt lat="42.5195036642253398895263671875" lon="20.16264905221760272979736328125">
        <ele>1719.800048828125</ele>
        <time>2026-06-20T08:58:26.000Z</time>
        <extensions>
          <ns3:TrackPointExtension>
            <ns3:atemp>22.0</ns3:atemp>
          </ns3:TrackPointExtension>
        </extensions>
      </trkpt>
      <trkpt lat="42.51950978301465511322021484375" lon="20.162627510726451873779296875">
        <ele>1720.199951171875</ele>
        <time>2026-06-20T08:58:27.000Z</time>
        <extensions>
          <ns3:TrackPointExtension>
            <ns3:atemp>22.0</ns3:atemp>
          </ns3:TrackPointExtension>
        </extensions>
      </trkpt>
      <trkpt lat="42.51951699145138263702392578125" lon="20.16260546632111072540283203125">
        <ele>1720.5999755859375</ele>
        <time>2026-06-20T08:58:28.000Z</time>
        <extensions>
          <ns3:TrackPointExtension>
            <ns3:atemp>22.0</ns3:atemp>
          </ns3:TrackPointExtension>
        </extensions>
      </trkpt>
      <trkpt lat="42.51952327787876129150390625" lon="20.16258300282061100006103515625">
        <ele>1720.800048828125</ele>
        <time>2026-06-20T08:58:29.000Z</time>
        <extensions>
          <ns3:TrackPointExtension>
            <ns3:atemp>22.0</ns3:atemp>
          </ns3:TrackPointExtension>
        </extensions>
      </trkpt>
      <trkpt lat="42.51952939666807651519775390625" lon="20.16255953349173069000244140625">
        <ele>1721.199951171875</ele>
        <time>2026-06-20T08:58:30.000Z</time>
        <extensions>
          <ns3:TrackPointExtension>
            <ns3:atemp>22.0</ns3:atemp>
          </ns3:TrackPointExtension>
        </extensions>
      </trkpt>
      <trkpt lat="42.51953811384737491607666015625" lon="20.1625364832580089569091796875">
        <ele>1721.5999755859375</ele>
        <time>2026-06-20T08:58:31.000Z</time>
        <extensions>
          <ns3:TrackPointExtension>
            <ns3:atemp>22.0</ns3:atemp>
          </ns3:TrackPointExtension>
        </extensions>
      </trkpt>
      <trkpt lat="42.51954565756022930145263671875" lon="20.16251510940492153167724609375">
        <ele>1722</ele>
        <time>2026-06-20T08:58:32.000Z</time>
        <extensions>
          <ns3:TrackPointExtension>
            <ns3:atemp>22.0</ns3:atemp>
          </ns3:TrackPointExtension>
        </extensions>
      </trkpt>
      <trkpt lat="42.519553117454051971435546875" lon="20.16249306499958038330078125">
        <ele>1722.5999755859375</ele>
        <time>2026-06-20T08:58:33.000Z</time>
        <extensions>
          <ns3:TrackPointExtension>
            <ns3:atemp>22.0</ns3:atemp>
          </ns3:TrackPointExtension>
        </extensions>
      </trkpt>
      <trkpt lat="42.51956225372850894927978515625" lon="20.16247353516519069671630859375">
        <ele>1723</ele>
        <time>2026-06-20T08:58:34.000Z</time>
        <extensions>
          <ns3:TrackPointExtension>
            <ns3:atemp>22.0</ns3:atemp>
          </ns3:TrackPointExtension>
        </extensions>
      </trkpt>
      <trkpt lat="42.51957013271749019622802734375" lon="20.16245291568338871002197265625">
        <ele>1723.4000244140625</ele>
        <time>2026-06-20T08:58:35.000Z</time>
        <extensions>
          <ns3:TrackPointExtension>
            <ns3:atemp>22.0</ns3:atemp>
          </ns3:TrackPointExtension>
        </extensions>
      </trkpt>
      <trkpt lat="42.51957700587809085845947265625" lon="20.16243212856352329254150390625">
        <ele>1723.5999755859375</ele>
        <time>2026-06-20T08:58:36.000Z</time>
        <extensions>
          <ns3:TrackPointExtension>
            <ns3:atemp>22.0</ns3:atemp>
          </ns3:TrackPointExtension>
        </extensions>
      </trkpt>
      <trkpt lat="42.5195871479809284210205078125" lon="20.16241117380559444427490234375">
        <ele>1724</ele>
        <time>2026-06-20T08:58:37.000Z</time>
        <extensions>
          <ns3:TrackPointExtension>
            <ns3:atemp>22.0</ns3:atemp>
          </ns3:TrackPointExtension>
        </extensions>
      </trkpt>
      <trkpt lat="42.51959511078894138336181640625" lon="20.162390135228633880615234375">
        <ele>1724.199951171875</ele>
        <time>2026-06-20T08:58:38.000Z</time>
        <extensions>
          <ns3:TrackPointExtension>
            <ns3:atemp>22.0</ns3:atemp>
          </ns3:TrackPointExtension>
        </extensions>
      </trkpt>
      <trkpt lat="42.51960164867341518402099609375" lon="20.16236591152846813201904296875">
        <ele>1724.4000244140625</ele>
        <time>2026-06-20T08:58:39.000Z</time>
        <extensions>
          <ns3:TrackPointExtension>
            <ns3:atemp>22.0</ns3:atemp>
          </ns3:TrackPointExtension>
        </extensions>
      </trkpt>
      <trkpt lat="42.5196086056530475616455078125" lon="20.162344537675380706787109375">
        <ele>1724.800048828125</ele>
        <time>2026-06-20T08:58:40.000Z</time>
        <extensions>
          <ns3:TrackPointExtension>
            <ns3:atemp>22.0</ns3:atemp>
          </ns3:TrackPointExtension>
        </extensions>
      </trkpt>
      <trkpt lat="42.51961556263267993927001953125" lon="20.1623247563838958740234375">
        <ele>1725</ele>
        <time>2026-06-20T08:58:41.000Z</time>
        <extensions>
          <ns3:TrackPointExtension>
            <ns3:atemp>23.0</ns3:atemp>
          </ns3:TrackPointExtension>
        </extensions>
      </trkpt>
      <trkpt lat="42.51962092705070972442626953125" lon="20.16230137087404727935791015625">
        <ele>1725.199951171875</ele>
        <time>2026-06-20T08:58:42.000Z</time>
        <extensions>
          <ns3:TrackPointExtension>
            <ns3:atemp>23.0</ns3:atemp>
          </ns3:TrackPointExtension>
        </extensions>
      </trkpt>
      <trkpt lat="42.51962629146873950958251953125" lon="20.16228075139224529266357421875">
        <ele>1725.5999755859375</ele>
        <time>2026-06-20T08:58:43.000Z</time>
        <extensions>
          <ns3:TrackPointExtension>
            <ns3:atemp>23.0</ns3:atemp>
          </ns3:TrackPointExtension>
        </extensions>
      </trkpt>
      <trkpt lat="42.51963467337191104888916015625" lon="20.16226029954850673675537109375">
        <ele>1725.800048828125</ele>
        <time>2026-06-20T08:58:44.000Z</time>
        <extensions>
          <ns3:TrackPointExtension>
            <ns3:atemp>23.0</ns3:atemp>
          </ns3:TrackPointExtension>
        </extensions>
      </trkpt>
      <trkpt lat="42.519640624523162841796875" lon="20.1622404344379901885986328125">
        <ele>1726.199951171875</ele>
        <time>2026-06-20T08:58:45.000Z</time>
        <extensions>
          <ns3:TrackPointExtension>
            <ns3:atemp>23.0</ns3:atemp>
          </ns3:TrackPointExtension>
        </extensions>
      </trkpt>
      <trkpt lat="42.5196464918553829193115234375" lon="20.16221755184233188629150390625">
        <ele>1726.5999755859375</ele>
        <time>2026-06-20T08:58:46.000Z</time>
        <extensions>
          <ns3:TrackPointExtension>
            <ns3:atemp>23.0</ns3:atemp>
          </ns3:TrackPointExtension>
        </extensions>
      </trkpt>
      <trkpt lat="42.5196525268256664276123046875" lon="20.16219533979892730712890625">
        <ele>1726.800048828125</ele>
        <time>2026-06-20T08:58:47.000Z</time>
        <extensions>
          <ns3:TrackPointExtension>
            <ns3:atemp>23.0</ns3:atemp>
          </ns3:TrackPointExtension>
        </extensions>
      </trkpt>
      <trkpt lat="42.51965797506272792816162109375" lon="20.162171535193920135498046875">
        <ele>1727.199951171875</ele>
        <time>2026-06-20T08:58:48.000Z</time>
        <extensions>
          <ns3:TrackPointExtension>
            <ns3:atemp>23.0</ns3:atemp>
          </ns3:TrackPointExtension>
        </extensions>
      </trkpt>
      <trkpt lat="42.5196615792810916900634765625" lon="20.16215108335018157958984375">
        <ele>1727.800048828125</ele>
        <time>2026-06-20T08:58:49.000Z</time>
        <extensions>
          <ns3:TrackPointExtension>
            <ns3:atemp>23.0</ns3:atemp>
          </ns3:TrackPointExtension>
        </extensions>
      </trkpt>
      <trkpt lat="42.519662417471408843994140625" lon="20.16213499009609222412109375">
        <ele>1728</ele>
        <time>2026-06-20T08:58:50.000Z</time>
        <extensions>
          <ns3:TrackPointExtension>
            <ns3:atemp>23.0</ns3:atemp>
          </ns3:TrackPointExtension>
        </extensions>
      </trkpt>
      <trkpt lat="42.5196642614901065826416015625" lon="20.16211596317589282989501953125">
        <ele>1728.199951171875</ele>
        <time>2026-06-20T08:58:51.000Z</time>
        <extensions>
          <ns3:TrackPointExtension>
            <ns3:atemp>23.0</ns3:atemp>
          </ns3:TrackPointExtension>
        </extensions>
      </trkpt>
      <trkpt lat="42.51966652460396289825439453125" lon="20.16209417022764682769775390625">
        <ele>1728.5999755859375</ele>
        <time>2026-06-20T08:58:52.000Z</time>
        <extensions>
          <ns3:TrackPointExtension>
            <ns3:atemp>23.0</ns3:atemp>
          </ns3:TrackPointExtension>
        </extensions>
      </trkpt>
      <trkpt lat="42.51966702751815319061279296875" lon="20.16207204200327396392822265625">
        <ele>1728.800048828125</ele>
        <time>2026-06-20T08:58:53.000Z</time>
        <extensions>
          <ns3:TrackPointExtension>
            <ns3:atemp>23.0</ns3:atemp>
          </ns3:TrackPointExtension>
        </extensions>
      </trkpt>
      <trkpt lat="42.5196645967662334442138671875" lon="20.1620560325682163238525390625">
        <ele>1729.199951171875</ele>
        <time>2026-06-20T08:58:54.000Z</time>
        <extensions>
          <ns3:TrackPointExtension>
            <ns3:atemp>23.0</ns3:atemp>
          </ns3:TrackPointExtension>
        </extensions>
      </trkpt>
      <trkpt lat="42.51966518349945545196533203125" lon="20.162038095295429229736328125">
        <ele>1729.4000244140625</ele>
        <time>2026-06-20T08:58:55.000Z</time>
        <extensions>
          <ns3:TrackPointExtension>
            <ns3:atemp>23.0</ns3:atemp>
          </ns3:TrackPointExtension>
        </extensions>
      </trkpt>
      <trkpt lat="42.51966535113751888275146484375" lon="20.162018649280071258544921875">
        <ele>1729.800048828125</ele>
        <time>2026-06-20T08:58:56.000Z</time>
        <extensions>
          <ns3:TrackPointExtension>
            <ns3:atemp>23.0</ns3:atemp>
          </ns3:TrackPointExtension>
        </extensions>
      </trkpt>
      <trkpt lat="42.51965965144336223602294921875" lon="20.16199911944568157196044921875">
        <ele>1730</ele>
        <time>2026-06-20T08:58:57.000Z</time>
        <extensions>
          <ns3:TrackPointExtension>
            <ns3:atemp>23.0</ns3:atemp>
          </ns3:TrackPointExtension>
        </extensions>
      </trkpt>
      <trkpt lat="42.51965529285371303558349609375" lon="20.16197632066905498504638671875">
        <ele>1730.4000244140625</ele>
        <time>2026-06-20T08:58:58.000Z</time>
        <extensions>
          <ns3:TrackPointExtension>
            <ns3:atemp>23.0</ns3:atemp>
          </ns3:TrackPointExtension>
        </extensions>
      </trkpt>
      <trkpt lat="42.51965462230145931243896484375" lon="20.16195620410144329071044921875">
        <ele>1730.800048828125</ele>
        <time>2026-06-20T08:58:59.000Z</time>
        <extensions>
          <ns3:TrackPointExtension>
            <ns3:atemp>23.0</ns3:atemp>
          </ns3:TrackPointExtension>
        </extensions>
      </trkpt>
      <trkpt lat="42.51965445466339588165283203125" lon="20.16192954964935779571533203125">
        <ele>1731</ele>
        <time>2026-06-20T08:59:00.000Z</time>
        <extensions>
          <ns3:TrackPointExtension>
            <ns3:atemp>23.0</ns3:atemp>
          </ns3:TrackPointExtension>
        </extensions>
      </trkpt>
      <trkpt lat="42.5196485035121440887451171875" lon="20.161903984844684600830078125">
        <ele>1731.199951171875</ele>
        <time>2026-06-20T08:59:01.000Z</time>
        <extensions>
          <ns3:TrackPointExtension>
            <ns3:atemp>23.0</ns3:atemp>
          </ns3:TrackPointExtension>
        </extensions>
      </trkpt>
      <trkpt lat="42.51964397728443145751953125" lon="20.1618847064673900604248046875">
        <ele>1731.4000244140625</ele>
        <time>2026-06-20T08:59:02.000Z</time>
        <extensions>
          <ns3:TrackPointExtension>
            <ns3:atemp>23.0</ns3:atemp>
          </ns3:TrackPointExtension>
        </extensions>
      </trkpt>
      <trkpt lat="42.51964691095054149627685546875" lon="20.1618639193475246429443359375">
        <ele>1731.5999755859375</ele>
        <time>2026-06-20T08:59:03.000Z</time>
        <extensions>
          <ns3:TrackPointExtension>
            <ns3:atemp>23.0</ns3:atemp>
          </ns3:TrackPointExtension>
        </extensions>
      </trkpt>
      <trkpt lat="42.51965604722499847412109375" lon="20.16183902509510517120361328125">
        <ele>1731.5999755859375</ele>
        <time>2026-06-20T08:59:04.000Z</time>
        <extensions>
          <ns3:TrackPointExtension>
            <ns3:atemp>23.0</ns3:atemp>
          </ns3:TrackPointExtension>
        </extensions>
      </trkpt>
      <trkpt lat="42.5196619145572185516357421875" lon="20.1618189923465251922607421875">
        <ele>1732</ele>
        <time>2026-06-20T08:59:05.000Z</time>
        <extensions>
          <ns3:TrackPointExtension>
            <ns3:atemp>23.0</ns3:atemp>
          </ns3:TrackPointExtension>
        </extensions>
      </trkpt>
      <trkpt lat="42.51966920681297779083251953125" lon="20.16180247999727725982666015625">
        <ele>1732.199951171875</ele>
        <time>2026-06-20T08:59:06.000Z</time>
        <extensions>
          <ns3:TrackPointExtension>
            <ns3:atemp>23.0</ns3:atemp>
          </ns3:TrackPointExtension>
        </extensions>
      </trkpt>
      <trkpt lat="42.5196810252964496612548828125" lon="20.16178362071514129638671875">
        <ele>1732.5999755859375</ele>
        <time>2026-06-20T08:59:07.000Z</time>
        <extensions>
          <ns3:TrackPointExtension>
            <ns3:atemp>23.0</ns3:atemp>
          </ns3:TrackPointExtension>
        </extensions>
      </trkpt>
      <trkpt lat="42.51969628036022186279296875" lon="20.16176828183233737945556640625">
        <ele>1732.800048828125</ele>
        <time>2026-06-20T08:59:08.000Z</time>
        <extensions>
          <ns3:TrackPointExtension>
            <ns3:atemp>23.0</ns3:atemp>
          </ns3:TrackPointExtension>
        </extensions>
      </trkpt>
      <trkpt lat="42.5197132118046283721923828125" lon="20.16175989992916584014892578125">
        <ele>1733.199951171875</ele>
        <time>2026-06-20T08:59:09.000Z</time>
        <extensions>
          <ns3:TrackPointExtension>
            <ns3:atemp>23.0</ns3:atemp>
          </ns3:TrackPointExtension>
        </extensions>
      </trkpt>
      <trkpt lat="42.51973173581063747406005859375" lon="20.16175218857824802398681640625">
        <ele>1733.5999755859375</ele>
        <time>2026-06-20T08:59:10.000Z</time>
        <extensions>
          <ns3:TrackPointExtension>
            <ns3:atemp>23.0</ns3:atemp>
          </ns3:TrackPointExtension>
        </extensions>
      </trkpt>
      <trkpt lat="42.519746907055377960205078125" lon="20.16174263320863246917724609375">
        <ele>1733.800048828125</ele>
        <time>2026-06-20T08:59:11.000Z</time>
        <extensions>
          <ns3:TrackPointExtension>
            <ns3:atemp>23.0</ns3:atemp>
          </ns3:TrackPointExtension>
        </extensions>
      </trkpt>
      <trkpt lat="42.51976459287106990814208984375" lon="20.16173341311514377593994140625">
        <ele>1733.800048828125</ele>
        <time>2026-06-20T08:59:12.000Z</time>
        <extensions>
          <ns3:TrackPointExtension>
            <ns3:atemp>23.0</ns3:atemp>
          </ns3:TrackPointExtension>
        </extensions>
      </trkpt>
      <trkpt lat="42.51978135667741298675537109375" lon="20.161722935736179351806640625">
        <ele>1733.800048828125</ele>
        <time>2026-06-20T08:59:13.000Z</time>
        <extensions>
          <ns3:TrackPointExtension>
            <ns3:atemp>23.0</ns3:atemp>
          </ns3:TrackPointExtension>
        </extensions>
      </trkpt>
      <trkpt lat="42.51979778520762920379638671875" lon="20.1617123745381832122802734375">
        <ele>1733.800048828125</ele>
        <time>2026-06-20T08:59:14.000Z</time>
        <extensions>
          <ns3:TrackPointExtension>
            <ns3:atemp>23.0</ns3:atemp>
          </ns3:TrackPointExtension>
        </extensions>
      </trkpt>
      <trkpt lat="42.5198136270046234130859375" lon="20.16170181334018707275390625">
        <ele>1733.800048828125</ele>
        <time>2026-06-20T08:59:15.000Z</time>
        <extensions>
          <ns3:TrackPointExtension>
            <ns3:atemp>23.0</ns3:atemp>
          </ns3:TrackPointExtension>
        </extensions>
      </trkpt>
      <trkpt lat="42.51982812769711017608642578125" lon="20.161694101989269256591796875">
        <ele>1734</ele>
        <time>2026-06-20T08:59:16.000Z</time>
        <extensions>
          <ns3:TrackPointExtension>
            <ns3:atemp>23.0</ns3:atemp>
          </ns3:TrackPointExtension>
        </extensions>
      </trkpt>
      <trkpt lat="42.51983969472348690032958984375" lon="20.16168831847608089447021484375">
        <ele>1734.199951171875</ele>
        <time>2026-06-20T08:59:17.000Z</time>
        <extensions>
          <ns3:TrackPointExtension>
            <ns3:atemp>23.0</ns3:atemp>
          </ns3:TrackPointExtension>
        </extensions>
      </trkpt>
      <trkpt lat="42.519848830997943878173828125" lon="20.16168815083801746368408203125">
        <ele>1734.4000244140625</ele>
        <time>2026-06-20T08:59:18.000Z</time>
        <extensions>
          <ns3:TrackPointExtension>
            <ns3:atemp>23.0</ns3:atemp>
          </ns3:TrackPointExtension>
        </extensions>
      </trkpt>
      <trkpt lat="42.519860230386257171630859375" lon="20.1616865582764148712158203125">
        <ele>1734.5999755859375</ele>
        <time>2026-06-20T08:59:19.000Z</time>
        <extensions>
          <ns3:TrackPointExtension>
            <ns3:atemp>23.0</ns3:atemp>
          </ns3:TrackPointExtension>
        </extensions>
      </trkpt>
      <trkpt lat="42.51987255178391933441162109375" lon="20.16168043948709964752197265625">
        <ele>1735</ele>
        <time>2026-06-20T08:59:20.000Z</time>
        <extensions>
          <ns3:TrackPointExtension>
            <ns3:atemp>23.0</ns3:atemp>
          </ns3:TrackPointExtension>
        </extensions>
      </trkpt>
      <trkpt lat="42.5198831968009471893310546875" lon="20.16167323105037212371826171875">
        <ele>1735.199951171875</ele>
        <time>2026-06-20T08:59:21.000Z</time>
        <extensions>
          <ns3:TrackPointExtension>
            <ns3:atemp>23.0</ns3:atemp>
          </ns3:TrackPointExtension>
        </extensions>
      </trkpt>
      <trkpt lat="42.519895769655704498291015625" lon="20.161663256585597991943359375">
        <ele>1735.4000244140625</ele>
        <time>2026-06-20T08:59:22.000Z</time>
        <extensions>
          <ns3:TrackPointExtension>
            <ns3:atemp>23.0</ns3:atemp>
          </ns3:TrackPointExtension>
        </extensions>
      </trkpt>
      <trkpt lat="42.51990674994885921478271484375" lon="20.1616520248353481292724609375">
        <ele>1735.800048828125</ele>
        <time>2026-06-20T08:59:23.000Z</time>
        <extensions>
          <ns3:TrackPointExtension>
            <ns3:atemp>23.0</ns3:atemp>
          </ns3:TrackPointExtension>
        </extensions>
      </trkpt>
      <trkpt lat="42.51992032863199710845947265625" lon="20.16163819469511508941650390625">
        <ele>1736.199951171875</ele>
        <time>2026-06-20T08:59:24.000Z</time>
        <extensions>
          <ns3:TrackPointExtension>
            <ns3:atemp>23.0</ns3:atemp>
          </ns3:TrackPointExtension>
        </extensions>
      </trkpt>
      <trkpt lat="42.51993097364902496337890625" lon="20.16162729822099208831787109375">
        <ele>1736.5999755859375</ele>
        <time>2026-06-20T08:59:25.000Z</time>
        <extensions>
          <ns3:TrackPointExtension>
            <ns3:atemp>23.0</ns3:atemp>
          </ns3:TrackPointExtension>
        </extensions>
      </trkpt>
      <trkpt lat="42.5199428759515285491943359375" lon="20.1616151444613933563232421875">
        <ele>1736.800048828125</ele>
        <time>2026-06-20T08:59:26.000Z</time>
        <extensions>
          <ns3:TrackPointExtension>
            <ns3:atemp>23.0</ns3:atemp>
          </ns3:TrackPointExtension>
        </extensions>
      </trkpt>
      <trkpt lat="42.51995150931179523468017578125" lon="20.16160701401531696319580078125">
        <ele>1737.199951171875</ele>
        <time>2026-06-20T08:59:27.000Z</time>
        <extensions>
          <ns3:TrackPointExtension>
            <ns3:atemp>23.0</ns3:atemp>
          </ns3:TrackPointExtension>
        </extensions>
      </trkpt>
      <trkpt lat="42.519962154328823089599609375" lon="20.16159712336957454681396484375">
        <ele>1737.4000244140625</ele>
        <time>2026-06-20T08:59:28.000Z</time>
        <extensions>
          <ns3:TrackPointExtension>
            <ns3:atemp>23.0</ns3:atemp>
          </ns3:TrackPointExtension>
        </extensions>
      </trkpt>
      <trkpt lat="42.51997447572648525238037109375" lon="20.1615879870951175689697265625">
        <ele>1737.800048828125</ele>
        <time>2026-06-20T08:59:29.000Z</time>
        <extensions>
          <ns3:TrackPointExtension>
            <ns3:atemp>23.0</ns3:atemp>
          </ns3:TrackPointExtension>
        </extensions>
      </trkpt>
      <trkpt lat="42.51998822204768657684326171875" lon="20.1615775935351848602294921875">
        <ele>1738</ele>
        <time>2026-06-20T08:59:30.000Z</time>
        <extensions>
          <ns3:TrackPointExtension>
            <ns3:atemp>23.0</ns3:atemp>
          </ns3:TrackPointExtension>
        </extensions>
      </trkpt>
      <trkpt lat="42.5200038962066173553466796875" lon="20.1615698821842670440673828125">
        <ele>1738.199951171875</ele>
        <time>2026-06-20T08:59:31.000Z</time>
        <extensions>
          <ns3:TrackPointExtension>
            <ns3:atemp>23.0</ns3:atemp>
          </ns3:TrackPointExtension>
        </extensions>
      </trkpt>
      <trkpt lat="42.520020492374897003173828125" lon="20.1615591533482074737548828125">
        <ele>1738.4000244140625</ele>
        <time>2026-06-20T08:59:32.000Z</time>
        <extensions>
          <ns3:TrackPointExtension>
            <ns3:atemp>23.0</ns3:atemp>
          </ns3:TrackPointExtension>
        </extensions>
      </trkpt>
      <trkpt lat="42.5200387649238109588623046875" lon="20.16155219636857509613037109375">
        <ele>1738.5999755859375</ele>
        <time>2026-06-20T08:59:33.000Z</time>
        <extensions>
          <ns3:TrackPointExtension>
            <ns3:atemp>23.0</ns3:atemp>
          </ns3:TrackPointExtension>
        </extensions>
      </trkpt>
      <trkpt lat="42.52005410380661487579345703125" lon="20.16155705787241458892822265625">
        <ele>1738.5999755859375</ele>
        <time>2026-06-20T08:59:34.000Z</time>
        <extensions>
          <ns3:TrackPointExtension>
            <ns3:atemp>23.0</ns3:atemp>
          </ns3:TrackPointExtension>
        </extensions>
      </trkpt>
      <trkpt lat="42.52006885595619678497314453125" lon="20.161559991538524627685546875">
        <ele>1738.800048828125</ele>
        <time>2026-06-20T08:59:35.000Z</time>
        <extensions>
          <ns3:TrackPointExtension>
            <ns3:atemp>23.0</ns3:atemp>
          </ns3:TrackPointExtension>
        </extensions>
      </trkpt>
      <trkpt lat="42.52008528448641300201416015625" lon="20.1615564711391925811767578125">
        <ele>1739.199951171875</ele>
        <time>2026-06-20T08:59:36.000Z</time>
        <extensions>
          <ns3:TrackPointExtension>
            <ns3:atemp>23.0</ns3:atemp>
          </ns3:TrackPointExtension>
        </extensions>
      </trkpt>
      <trkpt lat="42.52009852789342403411865234375" lon="20.1615581475198268890380859375">
        <ele>1739.5999755859375</ele>
        <time>2026-06-20T08:59:37.000Z</time>
        <extensions>
          <ns3:TrackPointExtension>
            <ns3:atemp>23.0</ns3:atemp>
          </ns3:TrackPointExtension>
        </extensions>
      </trkpt>
      <trkpt lat="42.5201118551194667816162109375" lon="20.1615648530423641204833984375">
        <ele>1739.800048828125</ele>
        <time>2026-06-20T08:59:38.000Z</time>
        <extensions>
          <ns3:TrackPointExtension>
            <ns3:atemp>23.0</ns3:atemp>
          </ns3:TrackPointExtension>
        </extensions>
      </trkpt>
      <trkpt lat="42.520127780735492706298828125" lon="20.16157315112650394439697265625">
        <ele>1740.199951171875</ele>
        <time>2026-06-20T08:59:39.000Z</time>
        <extensions>
          <ns3:TrackPointExtension>
            <ns3:atemp>23.0</ns3:atemp>
          </ns3:TrackPointExtension>
        </extensions>
      </trkpt>
      <trkpt lat="42.52014446072280406951904296875" lon="20.161578096449375152587890625">
        <ele>1740.4000244140625</ele>
        <time>2026-06-20T08:59:40.000Z</time>
        <extensions>
          <ns3:TrackPointExtension>
            <ns3:atemp>23.0</ns3:atemp>
          </ns3:TrackPointExtension>
        </extensions>
      </trkpt>
      <trkpt lat="42.52015954814851284027099609375" lon="20.16157616861164569854736328125">
        <ele>1740.800048828125</ele>
        <time>2026-06-20T08:59:41.000Z</time>
        <extensions>
          <ns3:TrackPointExtension>
            <ns3:atemp>23.0</ns3:atemp>
          </ns3:TrackPointExtension>
        </extensions>
      </trkpt>
      <trkpt lat="42.52017446793615818023681640625" lon="20.16156996600329875946044921875">
        <ele>1741</ele>
        <time>2026-06-20T08:59:42.000Z</time>
        <extensions>
          <ns3:TrackPointExtension>
            <ns3:atemp>23.0</ns3:atemp>
          </ns3:TrackPointExtension>
        </extensions>
      </trkpt>
      <trkpt lat="42.52019039355218410491943359375" lon="20.16156074590981006622314453125">
        <ele>1741.199951171875</ele>
        <time>2026-06-20T08:59:43.000Z</time>
        <extensions>
          <ns3:TrackPointExtension>
            <ns3:atemp>23.0</ns3:atemp>
          </ns3:TrackPointExtension>
        </extensions>
      </trkpt>
      <trkpt lat="42.520207576453685760498046875" lon="20.16154465265572071075439453125">
        <ele>1741.5999755859375</ele>
        <time>2026-06-20T08:59:44.000Z</time>
        <extensions>
          <ns3:TrackPointExtension>
            <ns3:atemp>23.0</ns3:atemp>
          </ns3:TrackPointExtension>
        </extensions>
      </trkpt>
      <trkpt lat="42.52022241242229938507080078125" lon="20.1615319959819316864013671875">
        <ele>1741.800048828125</ele>
        <time>2026-06-20T08:59:45.000Z</time>
        <extensions>
          <ns3:TrackPointExtension>
            <ns3:atemp>23.0</ns3:atemp>
          </ns3:TrackPointExtension>
        </extensions>
      </trkpt>
      <trkpt lat="42.52023498527705669403076171875" lon="20.161523781716823577880859375">
        <ele>1742.4000244140625</ele>
        <time>2026-06-20T08:59:46.000Z</time>
        <extensions>
          <ns3:TrackPointExtension>
            <ns3:atemp>23.0</ns3:atemp>
          </ns3:TrackPointExtension>
        </extensions>
      </trkpt>
      <trkpt lat="42.520250491797924041748046875" lon="20.1615172438323497772216796875">
        <ele>1742.800048828125</ele>
        <time>2026-06-20T08:59:47.000Z</time>
        <extensions>
          <ns3:TrackPointExtension>
            <ns3:atemp>23.0</ns3:atemp>
          </ns3:TrackPointExtension>
        </extensions>
      </trkpt>
      <trkpt lat="42.52026499249041080474853515625" lon="20.16150525771081447601318359375">
        <ele>1743.199951171875</ele>
        <time>2026-06-20T08:59:48.000Z</time>
        <extensions>
          <ns3:TrackPointExtension>
            <ns3:atemp>23.0</ns3:atemp>
          </ns3:TrackPointExtension>
        </extensions>
      </trkpt>
      <trkpt lat="42.5202804990112781524658203125" lon="20.16148916445672512054443359375">
        <ele>1743.5999755859375</ele>
        <time>2026-06-20T08:59:49.000Z</time>
        <extensions>
          <ns3:TrackPointExtension>
            <ns3:atemp>23.0</ns3:atemp>
          </ns3:TrackPointExtension>
        </extensions>
      </trkpt>
      <trkpt lat="42.52029567025601863861083984375" lon="20.16147918999195098876953125">
        <ele>1744.199951171875</ele>
        <time>2026-06-20T08:59:50.000Z</time>
        <extensions>
          <ns3:TrackPointExtension>
            <ns3:atemp>23.0</ns3:atemp>
          </ns3:TrackPointExtension>
        </extensions>
      </trkpt>
      <trkpt lat="42.52030916512012481689453125" lon="20.1614662818610668182373046875">
        <ele>1744.5999755859375</ele>
        <time>2026-06-20T08:59:51.000Z</time>
        <extensions>
          <ns3:TrackPointExtension>
            <ns3:atemp>23.0</ns3:atemp>
          </ns3:TrackPointExtension>
        </extensions>
      </trkpt>
      <trkpt lat="42.520321570336818695068359375" lon="20.161446668207645416259765625">
        <ele>1745</ele>
        <time>2026-06-20T08:59:52.000Z</time>
        <extensions>
          <ns3:TrackPointExtension>
            <ns3:atemp>23.0</ns3:atemp>
          </ns3:TrackPointExtension>
        </extensions>
      </trkpt>
      <trkpt lat="42.5203321315348148345947265625" lon="20.16142831183969974517822265625">
        <ele>1745.4000244140625</ele>
        <time>2026-06-20T08:59:53.000Z</time>
        <extensions>
          <ns3:TrackPointExtension>
            <ns3:atemp>23.0</ns3:atemp>
          </ns3:TrackPointExtension>
        </extensions>
      </trkpt>
      <trkpt lat="42.52034696750342845916748046875" lon="20.1614112965762615203857421875">
        <ele>1746</ele>
        <time>2026-06-20T08:59:54.000Z</time>
        <extensions>
          <ns3:TrackPointExtension>
            <ns3:atemp>23.0</ns3:atemp>
          </ns3:TrackPointExtension>
        </extensions>
      </trkpt>
      <trkpt lat="42.52036222256720066070556640625" lon="20.16139763407409191131591796875">
        <ele>1746.5999755859375</ele>
        <time>2026-06-20T08:59:55.000Z</time>
        <extensions>
          <ns3:TrackPointExtension>
            <ns3:atemp>23.0</ns3:atemp>
          </ns3:TrackPointExtension>
        </extensions>
      </trkpt>
      <trkpt lat="42.52037311904132366180419921875" lon="20.161380283534526824951171875">
        <ele>1747.4000244140625</ele>
        <time>2026-06-20T08:59:56.000Z</time>
        <extensions>
          <ns3:TrackPointExtension>
            <ns3:atemp>23.0</ns3:atemp>
          </ns3:TrackPointExtension>
        </extensions>
      </trkpt>
      <trkpt lat="42.52038535661995410919189453125" lon="20.16136343590915203094482421875">
        <ele>1748</ele>
        <time>2026-06-20T08:59:57.000Z</time>
        <extensions>
          <ns3:TrackPointExtension>
            <ns3:atemp>23.0</ns3:atemp>
          </ns3:TrackPointExtension>
        </extensions>
      </trkpt>
      <trkpt lat="42.5203985162079334259033203125" lon="20.1613472588360309600830078125">
        <ele>1748.4000244140625</ele>
        <time>2026-06-20T08:59:58.000Z</time>
        <extensions>
          <ns3:TrackPointExtension>
            <ns3:atemp>23.0</ns3:atemp>
          </ns3:TrackPointExtension>
        </extensions>
      </trkpt>
      <trkpt lat="42.52041234634816646575927734375" lon="20.161336362361907958984375">
        <ele>1748.800048828125</ele>
        <time>2026-06-20T08:59:59.000Z</time>
        <extensions>
          <ns3:TrackPointExtension>
            <ns3:atemp>23.0</ns3:atemp>
          </ns3:TrackPointExtension>
        </extensions>
      </trkpt>
      <trkpt lat="42.52042676322162151336669921875" lon="20.16132152639329433441162109375">
        <ele>1749</ele>
        <time>2026-06-20T09:00:00.000Z</time>
        <extensions>
          <ns3:TrackPointExtension>
            <ns3:atemp>23.0</ns3:atemp>
          </ns3:TrackPointExtension>
        </extensions>
      </trkpt>
      <trkpt lat="42.52043648622930049896240234375" lon="20.1613046787679195404052734375">
        <ele>1749.5999755859375</ele>
        <time>2026-06-20T09:00:01.000Z</time>
        <extensions>
          <ns3:TrackPointExtension>
            <ns3:atemp>23.0</ns3:atemp>
          </ns3:TrackPointExtension>
        </extensions>
      </trkpt>
      <trkpt lat="42.52044939436018466949462890625" lon="20.16128472983837127685546875">
        <ele>1750</ele>
        <time>2026-06-20T09:00:02.000Z</time>
        <extensions>
          <ns3:TrackPointExtension>
            <ns3:atemp>23.0</ns3:atemp>
          </ns3:TrackPointExtension>
        </extensions>
      </trkpt>
      <trkpt lat="42.52046314068138599395751953125" lon="20.16126318834722042083740234375">
        <ele>1750.4000244140625</ele>
        <time>2026-06-20T09:00:03.000Z</time>
        <extensions>
          <ns3:TrackPointExtension>
            <ns3:atemp>23.0</ns3:atemp>
          </ns3:TrackPointExtension>
        </extensions>
      </trkpt>
      <trkpt lat="42.52047403715550899505615234375" lon="20.16124340705573558807373046875">
        <ele>1750.800048828125</ele>
        <time>2026-06-20T09:00:04.000Z</time>
        <extensions>
          <ns3:TrackPointExtension>
            <ns3:atemp>23.0</ns3:atemp>
          </ns3:TrackPointExtension>
        </extensions>
      </trkpt>
      <trkpt lat="42.52048443071544170379638671875" lon="20.16122664324939250946044921875">
        <ele>1751.199951171875</ele>
        <time>2026-06-20T09:00:05.000Z</time>
        <extensions>
          <ns3:TrackPointExtension>
            <ns3:atemp>23.0</ns3:atemp>
          </ns3:TrackPointExtension>
        </extensions>
      </trkpt>
      <trkpt lat="42.52049624919891357421875" lon="20.16121096909046173095703125">
        <ele>1751.800048828125</ele>
        <time>2026-06-20T09:00:06.000Z</time>
        <extensions>
          <ns3:TrackPointExtension>
            <ns3:atemp>23.0</ns3:atemp>
          </ns3:TrackPointExtension>
        </extensions>
      </trkpt>
      <trkpt lat="42.5205104984343051910400390625" lon="20.16119160689413547515869140625">
        <ele>1752.199951171875</ele>
        <time>2026-06-20T09:00:07.000Z</time>
        <extensions>
          <ns3:TrackPointExtension>
            <ns3:atemp>23.0</ns3:atemp>
          </ns3:TrackPointExtension>
        </extensions>
      </trkpt>
      <trkpt lat="42.52052281983196735382080078125" lon="20.16117333434522151947021484375">
        <ele>1752.5999755859375</ele>
        <time>2026-06-20T09:00:08.000Z</time>
        <extensions>
          <ns3:TrackPointExtension>
            <ns3:atemp>23.0</ns3:atemp>
          </ns3:TrackPointExtension>
        </extensions>
      </trkpt>
      <trkpt lat="42.52053690142929553985595703125" lon="20.1611538045108318328857421875">
        <ele>1753.199951171875</ele>
        <time>2026-06-20T09:00:09.000Z</time>
        <extensions>
          <ns3:TrackPointExtension>
            <ns3:atemp>23.0</ns3:atemp>
          </ns3:TrackPointExtension>
        </extensions>
      </trkpt>
      <trkpt lat="42.52055056393146514892578125" lon="20.16113528050482273101806640625">
        <ele>1753.800048828125</ele>
        <time>2026-06-20T09:00:10.000Z</time>
        <extensions>
          <ns3:TrackPointExtension>
            <ns3:atemp>23.0</ns3:atemp>
          </ns3:TrackPointExtension>
        </extensions>
      </trkpt>
      <trkpt lat="42.52056271769106388092041015625" lon="20.16111885197460651397705078125">
        <ele>1754.199951171875</ele>
        <time>2026-06-20T09:00:11.000Z</time>
        <extensions>
          <ns3:TrackPointExtension>
            <ns3:atemp>23.0</ns3:atemp>
          </ns3:TrackPointExtension>
        </extensions>
      </trkpt>
      <trkpt lat="42.52057076431810855865478515625" lon="20.1610951311886310577392578125">
        <ele>1754.5999755859375</ele>
        <time>2026-06-20T09:00:12.000Z</time>
        <extensions>
          <ns3:TrackPointExtension>
            <ns3:atemp>23.0</ns3:atemp>
          </ns3:TrackPointExtension>
        </extensions>
      </trkpt>
      <trkpt lat="42.52057562582194805145263671875" lon="20.16107283532619476318359375">
        <ele>1755</ele>
        <time>2026-06-20T09:00:13.000Z</time>
        <extensions>
          <ns3:TrackPointExtension>
            <ns3:atemp>23.0</ns3:atemp>
          </ns3:TrackPointExtension>
        </extensions>
      </trkpt>
      <trkpt lat="42.52058233134448528289794921875" lon="20.1610507071018218994140625">
        <ele>1755.4000244140625</ele>
        <time>2026-06-20T09:00:14.000Z</time>
        <extensions>
          <ns3:TrackPointExtension>
            <ns3:atemp>23.0</ns3:atemp>
          </ns3:TrackPointExtension>
        </extensions>
      </trkpt>
      <trkpt lat="42.52059171907603740692138671875" lon="20.1610284112393856048583984375">
        <ele>1755.800048828125</ele>
        <time>2026-06-20T09:00:15.000Z</time>
        <extensions>
          <ns3:TrackPointExtension>
            <ns3:atemp>23.0</ns3:atemp>
          </ns3:TrackPointExtension>
        </extensions>
      </trkpt>
      <trkpt lat="42.52060127444565296173095703125" lon="20.16100837849080562591552734375">
        <ele>1756.199951171875</ele>
        <time>2026-06-20T09:00:16.000Z</time>
        <extensions>
          <ns3:TrackPointExtension>
            <ns3:atemp>23.0</ns3:atemp>
          </ns3:TrackPointExtension>
        </extensions>
      </trkpt>
      <trkpt lat="42.52060730941593647003173828125" lon="20.16098809428513050079345703125">
        <ele>1756.800048828125</ele>
        <time>2026-06-20T09:00:17.000Z</time>
        <extensions>
          <ns3:TrackPointExtension>
            <ns3:atemp>23.0</ns3:atemp>
          </ns3:TrackPointExtension>
        </extensions>
      </trkpt>
      <trkpt lat="42.52060898579657077789306640625" lon="20.16096420586109161376953125">
        <ele>1757</ele>
        <time>2026-06-20T09:00:18.000Z</time>
        <extensions>
          <ns3:TrackPointExtension>
            <ns3:atemp>23.0</ns3:atemp>
          </ns3:TrackPointExtension>
        </extensions>
      </trkpt>
      <trkpt lat="42.52061225473880767822265625" lon="20.1609439216554164886474609375">
        <ele>1757.4000244140625</ele>
        <time>2026-06-20T09:00:19.000Z</time>
        <extensions>
          <ns3:TrackPointExtension>
            <ns3:atemp>23.0</ns3:atemp>
          </ns3:TrackPointExtension>
        </extensions>
      </trkpt>
      <trkpt lat="42.52061887644231319427490234375" lon="20.1609181053936481475830078125">
        <ele>1757.800048828125</ele>
        <time>2026-06-20T09:00:20.000Z</time>
        <extensions>
          <ns3:TrackPointExtension>
            <ns3:atemp>23.0</ns3:atemp>
          </ns3:TrackPointExtension>
        </extensions>
      </trkpt>
      <trkpt lat="42.52062776125967502593994140625" lon="20.1608979888260364532470703125">
        <ele>1758</ele>
        <time>2026-06-20T09:00:21.000Z</time>
        <extensions>
          <ns3:TrackPointExtension>
            <ns3:atemp>23.0</ns3:atemp>
          </ns3:TrackPointExtension>
        </extensions>
      </trkpt>
      <trkpt lat="42.52063714899122714996337890625" lon="20.16087879426777362823486328125">
        <ele>1758.4000244140625</ele>
        <time>2026-06-20T09:00:22.000Z</time>
        <extensions>
          <ns3:TrackPointExtension>
            <ns3:atemp>23.0</ns3:atemp>
          </ns3:TrackPointExtension>
        </extensions>
      </trkpt>
      <trkpt lat="42.5206456147134304046630859375" lon="20.16085750423371791839599609375">
        <ele>1759</ele>
        <time>2026-06-20T09:00:23.000Z</time>
        <extensions>
          <ns3:TrackPointExtension>
            <ns3:atemp>23.0</ns3:atemp>
          </ns3:TrackPointExtension>
        </extensions>
      </trkpt>
      <trkpt lat="42.5206531584262847900390625" lon="20.16083587892353534698486328125">
        <ele>1759.4000244140625</ele>
        <time>2026-06-20T09:00:24.000Z</time>
        <extensions>
          <ns3:TrackPointExtension>
            <ns3:atemp>23.0</ns3:atemp>
          </ns3:TrackPointExtension>
        </extensions>
      </trkpt>
      <trkpt lat="42.5206600315868854522705078125" lon="20.16081257723271846771240234375">
        <ele>1760</ele>
        <time>2026-06-20T09:00:25.000Z</time>
        <extensions>
          <ns3:TrackPointExtension>
            <ns3:atemp>23.0</ns3:atemp>
          </ns3:TrackPointExtension>
        </extensions>
      </trkpt>
      <trkpt lat="42.52066682092845439910888671875" lon="20.16079128719866275787353515625">
        <ele>1760.4000244140625</ele>
        <time>2026-06-20T09:00:26.000Z</time>
        <extensions>
          <ns3:TrackPointExtension>
            <ns3:atemp>23.0</ns3:atemp>
          </ns3:TrackPointExtension>
        </extensions>
      </trkpt>
      <trkpt lat="42.52067822031676769256591796875" lon="20.1607759483158588409423828125">
        <ele>1760.800048828125</ele>
        <time>2026-06-20T09:00:27.000Z</time>
        <extensions>
          <ns3:TrackPointExtension>
            <ns3:atemp>23.0</ns3:atemp>
          </ns3:TrackPointExtension>
        </extensions>
      </trkpt>
      <trkpt lat="42.52069029025733470916748046875" lon="20.16075633466243743896484375">
        <ele>1761.199951171875</ele>
        <time>2026-06-20T09:00:28.000Z</time>
        <extensions>
          <ns3:TrackPointExtension>
            <ns3:atemp>23.0</ns3:atemp>
          </ns3:TrackPointExtension>
        </extensions>
      </trkpt>
      <trkpt lat="42.520697414875030517578125" lon="20.16073286533355712890625">
        <ele>1761.5999755859375</ele>
        <time>2026-06-20T09:00:29.000Z</time>
        <extensions>
          <ns3:TrackPointExtension>
            <ns3:atemp>23.0</ns3:atemp>
          </ns3:TrackPointExtension>
        </extensions>
      </trkpt>
      <trkpt lat="42.5207029469311237335205078125" lon="20.16070914454758167266845703125">
        <ele>1762</ele>
        <time>2026-06-20T09:00:30.000Z</time>
        <extensions>
          <ns3:TrackPointExtension>
            <ns3:atemp>23.0</ns3:atemp>
          </ns3:TrackPointExtension>
        </extensions>
      </trkpt>
      <trkpt lat="42.5207049585878849029541015625" lon="20.1606844179332256317138671875">
        <ele>1762.5999755859375</ele>
        <time>2026-06-20T09:00:31.000Z</time>
        <extensions>
          <ns3:TrackPointExtension>
            <ns3:atemp>23.0</ns3:atemp>
          </ns3:TrackPointExtension>
        </extensions>
      </trkpt>
      <trkpt lat="42.520708478987216949462890625" lon="20.16065868549048900604248046875">
        <ele>1763</ele>
        <time>2026-06-20T09:00:32.000Z</time>
        <extensions>
          <ns3:TrackPointExtension>
            <ns3:atemp>23.0</ns3:atemp>
          </ns3:TrackPointExtension>
        </extensions>
      </trkpt>
      <trkpt lat="42.52071325667202472686767578125" lon="20.16063337214291095733642578125">
        <ele>1763.199951171875</ele>
        <time>2026-06-20T09:00:33.000Z</time>
        <extensions>
          <ns3:TrackPointExtension>
            <ns3:atemp>23.0</ns3:atemp>
          </ns3:TrackPointExtension>
        </extensions>
      </trkpt>
      <trkpt lat="42.52071023918688297271728515625" lon="20.16060805879533290863037109375">
        <ele>1763.5999755859375</ele>
        <time>2026-06-20T09:00:34.000Z</time>
        <extensions>
          <ns3:TrackPointExtension>
            <ns3:atemp>23.0</ns3:atemp>
          </ns3:TrackPointExtension>
        </extensions>
      </trkpt>
      <trkpt lat="42.520707137882709503173828125" lon="20.16058358363807201385498046875">
        <ele>1764</ele>
        <time>2026-06-20T09:00:35.000Z</time>
        <extensions>
          <ns3:TrackPointExtension>
            <ns3:atemp>23.0</ns3:atemp>
          </ns3:TrackPointExtension>
        </extensions>
      </trkpt>
      <trkpt lat="42.52070344984531402587890625" lon="20.1605610363185405731201171875">
        <ele>1764.4000244140625</ele>
        <time>2026-06-20T09:00:36.000Z</time>
        <extensions>
          <ns3:TrackPointExtension>
            <ns3:atemp>23.0</ns3:atemp>
          </ns3:TrackPointExtension>
        </extensions>
      </trkpt>
      <trkpt lat="42.5206960737705230712890625" lon="20.16053698025643825531005859375">
        <ele>1765</ele>
        <time>2026-06-20T09:00:37.000Z</time>
        <extensions>
          <ns3:TrackPointExtension>
            <ns3:atemp>23.0</ns3:atemp>
          </ns3:TrackPointExtension>
        </extensions>
      </trkpt>
      <trkpt lat="42.5206848420202732086181640625" lon="20.16051971353590488433837890625">
        <ele>1765.4000244140625</ele>
        <time>2026-06-20T09:00:38.000Z</time>
        <extensions>
          <ns3:TrackPointExtension>
            <ns3:atemp>23.0</ns3:atemp>
          </ns3:TrackPointExtension>
        </extensions>
      </trkpt>
      <trkpt lat="42.52067503519356250762939453125" lon="20.160495825111865997314453125">
        <ele>1765.800048828125</ele>
        <time>2026-06-20T09:00:39.000Z</time>
        <extensions>
          <ns3:TrackPointExtension>
            <ns3:atemp>23.0</ns3:atemp>
          </ns3:TrackPointExtension>
        </extensions>
      </trkpt>
      <trkpt lat="42.5206643901765346527099609375" lon="20.1604755409061908721923828125">
        <ele>1766.4000244140625</ele>
        <time>2026-06-20T09:00:40.000Z</time>
        <extensions>
          <ns3:TrackPointExtension>
            <ns3:atemp>23.0</ns3:atemp>
          </ns3:TrackPointExtension>
        </extensions>
      </trkpt>
      <trkpt lat="42.52065693028271198272705078125" lon="20.16045098192989826202392578125">
        <ele>1766.800048828125</ele>
        <time>2026-06-20T09:00:41.000Z</time>
        <extensions>
          <ns3:TrackPointExtension>
            <ns3:atemp>23.0</ns3:atemp>
          </ns3:TrackPointExtension>
        </extensions>
      </trkpt>
      <trkpt lat="42.520647458732128143310546875" lon="20.16043036244809627532958984375">
        <ele>1767.4000244140625</ele>
        <time>2026-06-20T09:00:42.000Z</time>
        <extensions>
          <ns3:TrackPointExtension>
            <ns3:atemp>23.0</ns3:atemp>
          </ns3:TrackPointExtension>
        </extensions>
      </trkpt>
      <trkpt lat="42.52063647843897342681884765625" lon="20.16040890477597713470458984375">
        <ele>1767.800048828125</ele>
        <time>2026-06-20T09:00:43.000Z</time>
        <extensions>
          <ns3:TrackPointExtension>
            <ns3:atemp>23.0</ns3:atemp>
          </ns3:TrackPointExtension>
        </extensions>
      </trkpt>
      <trkpt lat="42.52062759362161159515380859375" lon="20.16038610599935054779052734375">
        <ele>1768.199951171875</ele>
        <time>2026-06-20T09:00:44.000Z</time>
        <extensions>
          <ns3:TrackPointExtension>
            <ns3:atemp>23.0</ns3:atemp>
          </ns3:TrackPointExtension>
        </extensions>
      </trkpt>
      <trkpt lat="42.520621307194232940673828125" lon="20.1603618822991847991943359375">
        <ele>1768.5999755859375</ele>
        <time>2026-06-20T09:00:45.000Z</time>
        <extensions>
          <ns3:TrackPointExtension>
            <ns3:atemp>23.0</ns3:atemp>
          </ns3:TrackPointExtension>
        </extensions>
      </trkpt>
      <trkpt lat="42.52061854116618633270263671875" lon="20.16033631749451160430908203125">
        <ele>1769</ele>
        <time>2026-06-20T09:00:46.000Z</time>
        <extensions>
          <ns3:TrackPointExtension>
            <ns3:atemp>23.0</ns3:atemp>
          </ns3:TrackPointExtension>
        </extensions>
      </trkpt>
      <trkpt lat="42.5206181220710277557373046875" lon="20.16031251288950443267822265625">
        <ele>1769.4000244140625</ele>
        <time>2026-06-20T09:00:47.000Z</time>
        <extensions>
          <ns3:TrackPointExtension>
            <ns3:atemp>23.0</ns3:atemp>
          </ns3:TrackPointExtension>
        </extensions>
      </trkpt>
      <trkpt lat="42.520617283880710601806640625" lon="20.1602908037602901458740234375">
        <ele>1770</ele>
        <time>2026-06-20T09:00:48.000Z</time>
        <extensions>
          <ns3:TrackPointExtension>
            <ns3:atemp>23.0</ns3:atemp>
          </ns3:TrackPointExtension>
        </extensions>
      </trkpt>
      <trkpt lat="42.52061921171844005584716796875" lon="20.16026993282139301300048828125">
        <ele>1770.4000244140625</ele>
        <time>2026-06-20T09:00:49.000Z</time>
        <extensions>
          <ns3:TrackPointExtension>
            <ns3:atemp>23.0</ns3:atemp>
          </ns3:TrackPointExtension>
        </extensions>
      </trkpt>
      <trkpt lat="42.52062457613646984100341796875" lon="20.16024780459702014923095703125">
        <ele>1770.800048828125</ele>
        <time>2026-06-20T09:00:50.000Z</time>
        <extensions>
          <ns3:TrackPointExtension>
            <ns3:atemp>23.0</ns3:atemp>
          </ns3:TrackPointExtension>
        </extensions>
      </trkpt>
      <trkpt lat="42.5206301920115947723388671875" lon="20.16022953204810619354248046875">
        <ele>1771.199951171875</ele>
        <time>2026-06-20T09:00:51.000Z</time>
        <extensions>
          <ns3:TrackPointExtension>
            <ns3:atemp>23.0</ns3:atemp>
          </ns3:TrackPointExtension>
        </extensions>
      </trkpt>
      <trkpt lat="42.52063530497252941131591796875" lon="20.1602073200047016143798828125">
        <ele>1771.800048828125</ele>
        <time>2026-06-20T09:00:52.000Z</time>
        <extensions>
          <ns3:TrackPointExtension>
            <ns3:atemp>23.0</ns3:atemp>
          </ns3:TrackPointExtension>
        </extensions>
      </trkpt>
      <trkpt lat="42.52064234577119350433349609375" lon="20.16018661670386791229248046875">
        <ele>1772.4000244140625</ele>
        <time>2026-06-20T09:00:53.000Z</time>
        <extensions>
          <ns3:TrackPointExtension>
            <ns3:atemp>23.0</ns3:atemp>
          </ns3:TrackPointExtension>
        </extensions>
      </trkpt>
      <trkpt lat="42.5206503085792064666748046875" lon="20.16016499139368534088134765625">
        <ele>1773</ele>
        <time>2026-06-20T09:00:54.000Z</time>
        <extensions>
          <ns3:TrackPointExtension>
            <ns3:atemp>23.0</ns3:atemp>
          </ns3:TrackPointExtension>
        </extensions>
      </trkpt>
      <trkpt lat="42.52065760083496570587158203125" lon="20.16014001332223415374755859375">
        <ele>1773.4000244140625</ele>
        <time>2026-06-20T09:00:55.000Z</time>
        <extensions>
          <ns3:TrackPointExtension>
            <ns3:atemp>23.0</ns3:atemp>
          </ns3:TrackPointExtension>
        </extensions>
      </trkpt>
      <trkpt lat="42.52066464163362979888916015625" lon="20.16011654399335384368896484375">
        <ele>1774</ele>
        <time>2026-06-20T09:00:56.000Z</time>
        <extensions>
          <ns3:TrackPointExtension>
            <ns3:atemp>23.0</ns3:atemp>
          </ns3:TrackPointExtension>
        </extensions>
      </trkpt>
      <trkpt lat="42.52067654393613338470458984375" lon="20.16009542159736156463623046875">
        <ele>1774.5999755859375</ele>
        <time>2026-06-20T09:00:57.000Z</time>
        <extensions>
          <ns3:TrackPointExtension>
            <ns3:atemp>23.0</ns3:atemp>
          </ns3:TrackPointExtension>
        </extensions>
      </trkpt>
      <trkpt lat="42.5206912122666835784912109375" lon="20.16007010824978351593017578125">
        <ele>1775.199951171875</ele>
        <time>2026-06-20T09:00:58.000Z</time>
        <extensions>
          <ns3:TrackPointExtension>
            <ns3:atemp>23.0</ns3:atemp>
          </ns3:TrackPointExtension>
        </extensions>
      </trkpt>
      <trkpt lat="42.520703785121440887451171875" lon="20.16004362143576145172119140625">
        <ele>1775.800048828125</ele>
        <time>2026-06-20T09:00:59.000Z</time>
        <extensions>
          <ns3:TrackPointExtension>
            <ns3:atemp>23.0</ns3:atemp>
          </ns3:TrackPointExtension>
        </extensions>
      </trkpt>
      <trkpt lat="42.52071292139589786529541015625" lon="20.16001872718334197998046875">
        <ele>1776.199951171875</ele>
        <time>2026-06-20T09:01:00.000Z</time>
        <extensions>
          <ns3:TrackPointExtension>
            <ns3:atemp>23.0</ns3:atemp>
          </ns3:TrackPointExtension>
        </extensions>
      </trkpt>
      <trkpt lat="42.52072130329906940460205078125" lon="20.15999416820704936981201171875">
        <ele>1776.800048828125</ele>
        <time>2026-06-20T09:01:01.000Z</time>
        <extensions>
          <ns3:TrackPointExtension>
            <ns3:atemp>23.0</ns3:atemp>
          </ns3:TrackPointExtension>
        </extensions>
      </trkpt>
      <trkpt lat="42.52072951756417751312255859375" lon="20.15996600501239299774169921875">
        <ele>1777.4000244140625</ele>
        <time>2026-06-20T09:01:02.000Z</time>
        <extensions>
          <ns3:TrackPointExtension>
            <ns3:atemp>23.0</ns3:atemp>
          </ns3:TrackPointExtension>
        </extensions>
      </trkpt>
      <trkpt lat="42.5207378156483173370361328125" lon="20.15993733890354633331298828125">
        <ele>1777.800048828125</ele>
        <time>2026-06-20T09:01:03.000Z</time>
        <extensions>
          <ns3:TrackPointExtension>
            <ns3:atemp>23.0</ns3:atemp>
          </ns3:TrackPointExtension>
        </extensions>
      </trkpt>
      <trkpt lat="42.52074779011309146881103515625" lon="20.15991386957466602325439453125">
        <ele>1778.199951171875</ele>
        <time>2026-06-20T09:01:04.000Z</time>
        <extensions>
          <ns3:TrackPointExtension>
            <ns3:atemp>23.0</ns3:atemp>
          </ns3:TrackPointExtension>
        </extensions>
      </trkpt>
      <trkpt lat="42.5207577645778656005859375" lon="20.15988972969353199005126953125">
        <ele>1778.800048828125</ele>
        <time>2026-06-20T09:01:05.000Z</time>
        <extensions>
          <ns3:TrackPointExtension>
            <ns3:atemp>23.0</ns3:atemp>
          </ns3:TrackPointExtension>
        </extensions>
      </trkpt>
      <trkpt lat="42.52076706849038600921630859375" lon="20.15986626036465167999267578125">
        <ele>1779.199951171875</ele>
        <time>2026-06-20T09:01:06.000Z</time>
        <extensions>
          <ns3:TrackPointExtension>
            <ns3:atemp>23.0</ns3:atemp>
          </ns3:TrackPointExtension>
        </extensions>
      </trkpt>
      <trkpt lat="42.520775534212589263916015625" lon="20.15983709134161472320556640625">
        <ele>1779.800048828125</ele>
        <time>2026-06-20T09:01:07.000Z</time>
        <extensions>
          <ns3:TrackPointExtension>
            <ns3:atemp>23.0</ns3:atemp>
          </ns3:TrackPointExtension>
        </extensions>
      </trkpt>
      <trkpt lat="42.5207820720970630645751953125" lon="20.1598103530704975128173828125">
        <ele>1780.199951171875</ele>
        <time>2026-06-20T09:01:08.000Z</time>
        <extensions>
          <ns3:TrackPointExtension>
            <ns3:atemp>23.0</ns3:atemp>
          </ns3:TrackPointExtension>
        </extensions>
      </trkpt>
      <trkpt lat="42.52078928053379058837890625" lon="20.15978093259036540985107421875">
        <ele>1780.5999755859375</ele>
        <time>2026-06-20T09:01:09.000Z</time>
        <extensions>
          <ns3:TrackPointExtension>
            <ns3:atemp>23.0</ns3:atemp>
          </ns3:TrackPointExtension>
        </extensions>
      </trkpt>
      <trkpt lat="42.520796991884708404541015625" lon="20.15975578688085079193115234375">
        <ele>1781</ele>
        <time>2026-06-20T09:01:10.000Z</time>
        <extensions>
          <ns3:TrackPointExtension>
            <ns3:atemp>23.0</ns3:atemp>
          </ns3:TrackPointExtension>
        </extensions>
      </trkpt>
      <trkpt lat="42.520804367959499359130859375" lon="20.15973147936165332794189453125">
        <ele>1781.199951171875</ele>
        <time>2026-06-20T09:01:11.000Z</time>
        <extensions>
          <ns3:TrackPointExtension>
            <ns3:atemp>23.0</ns3:atemp>
          </ns3:TrackPointExtension>
        </extensions>
      </trkpt>
      <trkpt lat="42.52081048674881458282470703125" lon="20.15970650129020214080810546875">
        <ele>1781.5999755859375</ele>
        <time>2026-06-20T09:01:12.000Z</time>
        <extensions>
          <ns3:TrackPointExtension>
            <ns3:atemp>23.0</ns3:atemp>
          </ns3:TrackPointExtension>
        </extensions>
      </trkpt>
      <trkpt lat="42.52081635408103466033935546875" lon="20.159679763019084930419921875">
        <ele>1782.199951171875</ele>
        <time>2026-06-20T09:01:13.000Z</time>
        <extensions>
          <ns3:TrackPointExtension>
            <ns3:atemp>23.0</ns3:atemp>
          </ns3:TrackPointExtension>
        </extensions>
      </trkpt>
      <trkpt lat="42.520823143422603607177734375" lon="20.15965688042342662811279296875">
        <ele>1782.800048828125</ele>
        <time>2026-06-20T09:01:14.000Z</time>
        <extensions>
          <ns3:TrackPointExtension>
            <ns3:atemp>23.0</ns3:atemp>
          </ns3:TrackPointExtension>
        </extensions>
      </trkpt>
      <trkpt lat="42.5208273343741893768310546875" lon="20.15963206999003887176513671875">
        <ele>1783.199951171875</ele>
        <time>2026-06-20T09:01:15.000Z</time>
        <extensions>
          <ns3:TrackPointExtension>
            <ns3:atemp>24.0</ns3:atemp>
          </ns3:TrackPointExtension>
        </extensions>
      </trkpt>
      <trkpt lat="42.52083144150674343109130859375" lon="20.1596068404614925384521484375">
        <ele>1783.800048828125</ele>
        <time>2026-06-20T09:01:16.000Z</time>
        <extensions>
          <ns3:TrackPointExtension>
            <ns3:atemp>23.0</ns3:atemp>
          </ns3:TrackPointExtension>
        </extensions>
      </trkpt>
      <trkpt lat="42.5208326987922191619873046875" lon="20.15958043746650218963623046875">
        <ele>1784.199951171875</ele>
        <time>2026-06-20T09:01:17.000Z</time>
        <extensions>
          <ns3:TrackPointExtension>
            <ns3:atemp>23.0</ns3:atemp>
          </ns3:TrackPointExtension>
        </extensions>
      </trkpt>
      <trkpt lat="42.5208273343741893768310546875" lon="20.15954992733895778656005859375">
        <ele>1784.5999755859375</ele>
        <time>2026-06-20T09:01:18.000Z</time>
        <extensions>
          <ns3:TrackPointExtension>
            <ns3:atemp>24.0</ns3:atemp>
          </ns3:TrackPointExtension>
        </extensions>
      </trkpt>
      <trkpt lat="42.52082188613712787628173828125" lon="20.15951908193528652191162109375">
        <ele>1785</ele>
        <time>2026-06-20T09:01:19.000Z</time>
        <extensions>
          <ns3:TrackPointExtension>
            <ns3:atemp>24.0</ns3:atemp>
          </ns3:TrackPointExtension>
        </extensions>
      </trkpt>
      <trkpt lat="42.52081685699522495269775390625" lon="20.15949041582643985748291015625">
        <ele>1785.4000244140625</ele>
        <time>2026-06-20T09:01:20.000Z</time>
        <extensions>
          <ns3:TrackPointExtension>
            <ns3:atemp>24.0</ns3:atemp>
          </ns3:TrackPointExtension>
        </extensions>
      </trkpt>
      <trkpt lat="42.52081702463328838348388671875" lon="20.15945940278470516204833984375">
        <ele>1785.800048828125</ele>
        <time>2026-06-20T09:01:21.000Z</time>
        <extensions>
          <ns3:TrackPointExtension>
            <ns3:atemp>24.0</ns3:atemp>
          </ns3:TrackPointExtension>
        </extensions>
      </trkpt>
      <trkpt lat="42.5208169408142566680908203125" lon="20.15942855738103389739990234375">
        <ele>1786.199951171875</ele>
        <time>2026-06-20T09:01:22.000Z</time>
        <extensions>
          <ns3:TrackPointExtension>
            <ns3:atemp>24.0</ns3:atemp>
          </ns3:TrackPointExtension>
        </extensions>
      </trkpt>
      <trkpt lat="42.52081819809973239898681640625" lon="20.15940047800540924072265625">
        <ele>1787</ele>
        <time>2026-06-20T09:01:23.000Z</time>
        <extensions>
          <ns3:TrackPointExtension>
            <ns3:atemp>24.0</ns3:atemp>
          </ns3:TrackPointExtension>
        </extensions>
      </trkpt>
      <trkpt lat="42.52081878483295440673828125" lon="20.1593701355159282684326171875">
        <ele>1787.5999755859375</ele>
        <time>2026-06-20T09:01:24.000Z</time>
        <extensions>
          <ns3:TrackPointExtension>
            <ns3:atemp>24.0</ns3:atemp>
          </ns3:TrackPointExtension>
        </extensions>
      </trkpt>
      <trkpt lat="42.52082088030874729156494140625" lon="20.1593434810638427734375">
        <ele>1788</ele>
        <time>2026-06-20T09:01:25.000Z</time>
        <extensions>
          <ns3:TrackPointExtension>
            <ns3:atemp>24.0</ns3:atemp>
          </ns3:TrackPointExtension>
        </extensions>
      </trkpt>
      <trkpt lat="42.52082020975649356842041015625" lon="20.15931657515466213226318359375">
        <ele>1788.5999755859375</ele>
        <time>2026-06-20T09:01:26.000Z</time>
        <extensions>
          <ns3:TrackPointExtension>
            <ns3:atemp>24.0</ns3:atemp>
          </ns3:TrackPointExtension>
        </extensions>
      </trkpt>
      <trkpt lat="42.5208196230232715606689453125" lon="20.15929092653095722198486328125">
        <ele>1789.199951171875</ele>
        <time>2026-06-20T09:01:27.000Z</time>
        <extensions>
          <ns3:TrackPointExtension>
            <ns3:atemp>24.0</ns3:atemp>
          </ns3:TrackPointExtension>
        </extensions>
      </trkpt>
      <trkpt lat="42.520819790661334991455078125" lon="20.15926578082144260406494140625">
        <ele>1789.800048828125</ele>
        <time>2026-06-20T09:01:28.000Z</time>
        <extensions>
          <ns3:TrackPointExtension>
            <ns3:atemp>24.0</ns3:atemp>
          </ns3:TrackPointExtension>
        </extensions>
      </trkpt>
      <trkpt lat="42.520820796489715576171875" lon="20.15923744998872280120849609375">
        <ele>1790.4000244140625</ele>
        <time>2026-06-20T09:01:29.000Z</time>
        <extensions>
          <ns3:TrackPointExtension>
            <ns3:atemp>24.0</ns3:atemp>
          </ns3:TrackPointExtension>
        </extensions>
      </trkpt>
      <trkpt lat="42.520822472870349884033203125" lon="20.159212052822113037109375">
        <ele>1790.800048828125</ele>
        <time>2026-06-20T09:01:30.000Z</time>
        <extensions>
          <ns3:TrackPointExtension>
            <ns3:atemp>24.0</ns3:atemp>
          </ns3:TrackPointExtension>
        </extensions>
      </trkpt>
      <trkpt lat="42.5208216346800327301025390625" lon="20.15918196178972721099853515625">
        <ele>1791.199951171875</ele>
        <time>2026-06-20T09:01:31.000Z</time>
        <extensions>
          <ns3:TrackPointExtension>
            <ns3:atemp>24.0</ns3:atemp>
          </ns3:TrackPointExtension>
        </extensions>
      </trkpt>
      <trkpt lat="42.520819120109081268310546875" lon="20.1591543853282928466796875">
        <ele>1791.5999755859375</ele>
        <time>2026-06-20T09:01:32.000Z</time>
        <extensions>
          <ns3:TrackPointExtension>
            <ns3:atemp>24.0</ns3:atemp>
          </ns3:TrackPointExtension>
        </extensions>
      </trkpt>
      <trkpt lat="42.520818449556827545166015625" lon="20.159123875200748443603515625">
        <ele>1792</ele>
        <time>2026-06-20T09:01:33.000Z</time>
        <extensions>
          <ns3:TrackPointExtension>
            <ns3:atemp>24.0</ns3:atemp>
          </ns3:TrackPointExtension>
        </extensions>
      </trkpt>
      <trkpt lat="42.5208152644336223602294921875" lon="20.15909713692963123321533203125">
        <ele>1792.5999755859375</ele>
        <time>2026-06-20T09:01:34.000Z</time>
        <extensions>
          <ns3:TrackPointExtension>
            <ns3:atemp>24.0</ns3:atemp>
          </ns3:TrackPointExtension>
        </extensions>
      </trkpt>
      <trkpt lat="42.52081207931041717529296875" lon="20.1590710692107677459716796875">
        <ele>1793</ele>
        <time>2026-06-20T09:01:35.000Z</time>
        <extensions>
          <ns3:TrackPointExtension>
            <ns3:atemp>24.0</ns3:atemp>
          </ns3:TrackPointExtension>
        </extensions>
      </trkpt>
      <trkpt lat="42.52081342041492462158203125" lon="20.15904885716736316680908203125">
        <ele>1793.4000244140625</ele>
        <time>2026-06-20T09:01:36.000Z</time>
        <extensions>
          <ns3:TrackPointExtension>
            <ns3:atemp>24.0</ns3:atemp>
          </ns3:TrackPointExtension>
        </extensions>
      </trkpt>
      <trkpt lat="42.520817779004573822021484375" lon="20.15902119688689708709716796875">
        <ele>1793.800048828125</ele>
        <time>2026-06-20T09:01:37.000Z</time>
        <extensions>
          <ns3:TrackPointExtension>
            <ns3:atemp>24.0</ns3:atemp>
          </ns3:TrackPointExtension>
        </extensions>
      </trkpt>
      <trkpt lat="42.52082280814647674560546875" lon="20.15899521298706531524658203125">
        <ele>1794.4000244140625</ele>
        <time>2026-06-20T09:01:38.000Z</time>
        <extensions>
          <ns3:TrackPointExtension>
            <ns3:atemp>24.0</ns3:atemp>
          </ns3:TrackPointExtension>
        </extensions>
      </trkpt>
      <trkpt lat="42.520826496183872222900390625" lon="20.1589718274772167205810546875">
        <ele>1794.800048828125</ele>
        <time>2026-06-20T09:01:39.000Z</time>
        <extensions>
          <ns3:TrackPointExtension>
            <ns3:atemp>24.0</ns3:atemp>
          </ns3:TrackPointExtension>
        </extensions>
      </trkpt>
      <trkpt lat="42.52082875929772853851318359375" lon="20.158944837749004364013671875">
        <ele>1795.4000244140625</ele>
        <time>2026-06-20T09:01:40.000Z</time>
        <extensions>
          <ns3:TrackPointExtension>
            <ns3:atemp>24.0</ns3:atemp>
          </ns3:TrackPointExtension>
        </extensions>
      </trkpt>
      <trkpt lat="42.520827837288379669189453125" lon="20.1589156687259674072265625">
        <ele>1795.800048828125</ele>
        <time>2026-06-20T09:01:41.000Z</time>
        <extensions>
          <ns3:TrackPointExtension>
            <ns3:atemp>24.0</ns3:atemp>
          </ns3:TrackPointExtension>
        </extensions>
      </trkpt>
      <trkpt lat="42.52082741819322109222412109375" lon="20.1588928699493408203125">
        <ele>1796.199951171875</ele>
        <time>2026-06-20T09:01:42.000Z</time>
        <extensions>
          <ns3:TrackPointExtension>
            <ns3:atemp>24.0</ns3:atemp>
          </ns3:TrackPointExtension>
        </extensions>
      </trkpt>
      <trkpt lat="42.52082825638353824615478515625" lon="20.1588672213256359100341796875">
        <ele>1796.5999755859375</ele>
        <time>2026-06-20T09:01:43.000Z</time>
        <extensions>
          <ns3:TrackPointExtension>
            <ns3:atemp>24.0</ns3:atemp>
          </ns3:TrackPointExtension>
        </extensions>
      </trkpt>
      <trkpt lat="42.5208293460309505462646484375" lon="20.15884685330092906951904296875">
        <ele>1797</ele>
        <time>2026-06-20T09:01:44.000Z</time>
        <extensions>
          <ns3:TrackPointExtension>
            <ns3:atemp>24.0</ns3:atemp>
          </ns3:TrackPointExtension>
        </extensions>
      </trkpt>
      <trkpt lat="42.520826496183872222900390625" lon="20.1588256470859050750732421875">
        <ele>1797.199951171875</ele>
        <time>2026-06-20T09:01:45.000Z</time>
        <extensions>
          <ns3:TrackPointExtension>
            <ns3:atemp>24.0</ns3:atemp>
          </ns3:TrackPointExtension>
        </extensions>
      </trkpt>
      <trkpt lat="42.5208233110606670379638671875" lon="20.15881315805017948150634765625">
        <ele>1797.5999755859375</ele>
        <time>2026-06-20T09:01:46.000Z</time>
        <extensions>
          <ns3:TrackPointExtension>
            <ns3:atemp>24.0</ns3:atemp>
          </ns3:TrackPointExtension>
        </extensions>
      </trkpt>
      <trkpt lat="42.52082758583128452301025390625" lon="20.15880427323281764984130859375">
        <ele>1798.199951171875</ele>
        <time>2026-06-20T09:01:47.000Z</time>
        <extensions>
          <ns3:TrackPointExtension>
            <ns3:atemp>24.0</ns3:atemp>
          </ns3:TrackPointExtension>
        </extensions>
      </trkpt>
      <trkpt lat="42.52083345316350460052490234375" lon="20.15878901816904544830322265625">
        <ele>1798.800048828125</ele>
        <time>2026-06-20T09:01:48.000Z</time>
        <extensions>
          <ns3:TrackPointExtension>
            <ns3:atemp>24.0</ns3:atemp>
          </ns3:TrackPointExtension>
        </extensions>
      </trkpt>
      <trkpt lat="42.52084049396216869354248046875" lon="20.1587788760662078857421875">
        <ele>1799.4000244140625</ele>
        <time>2026-06-20T09:01:49.000Z</time>
        <extensions>
          <ns3:TrackPointExtension>
            <ns3:atemp>24.0</ns3:atemp>
          </ns3:TrackPointExtension>
        </extensions>
      </trkpt>
      <trkpt lat="42.5208454392850399017333984375" lon="20.1587679795920848846435546875">
        <ele>1800</ele>
        <time>2026-06-20T09:01:50.000Z</time>
        <extensions>
          <ns3:TrackPointExtension>
            <ns3:atemp>24.0</ns3:atemp>
          </ns3:TrackPointExtension>
        </extensions>
      </trkpt>
      <trkpt lat="42.52085256390273571014404296875" lon="20.1587520539760589599609375">
        <ele>1800.4000244140625</ele>
        <time>2026-06-20T09:01:51.000Z</time>
        <extensions>
          <ns3:TrackPointExtension>
            <ns3:atemp>24.0</ns3:atemp>
          </ns3:TrackPointExtension>
        </extensions>
      </trkpt>
      <trkpt lat="42.52085809595882892608642578125" lon="20.15873394906520843505859375">
        <ele>1800.800048828125</ele>
        <time>2026-06-20T09:01:52.000Z</time>
        <extensions>
          <ns3:TrackPointExtension>
            <ns3:atemp>24.0</ns3:atemp>
          </ns3:TrackPointExtension>
        </extensions>
      </trkpt>
      <trkpt lat="42.5208598561584949493408203125" lon="20.15871592797338962554931640625">
        <ele>1801</ele>
        <time>2026-06-20T09:01:53.000Z</time>
        <extensions>
          <ns3:TrackPointExtension>
            <ns3:atemp>24.0</ns3:atemp>
          </ns3:TrackPointExtension>
        </extensions>
      </trkpt>
      <trkpt lat="42.52084937877953052520751953125" lon="20.15870033763349056243896484375">
        <ele>1801</ele>
        <time>2026-06-20T09:01:54.000Z</time>
        <extensions>
          <ns3:TrackPointExtension>
            <ns3:atemp>24.0</ns3:atemp>
          </ns3:TrackPointExtension>
        </extensions>
      </trkpt>
      <trkpt lat="42.520835213363170623779296875" lon="20.15868122689425945281982421875">
        <ele>1801</ele>
        <time>2026-06-20T09:01:55.000Z</time>
        <extensions>
          <ns3:TrackPointExtension>
            <ns3:atemp>24.0</ns3:atemp>
          </ns3:TrackPointExtension>
        </extensions>
      </trkpt>
      <trkpt lat="42.52082951366901397705078125" lon="20.15865758992731571197509765625">
        <ele>1801</ele>
        <time>2026-06-20T09:01:56.000Z</time>
        <extensions>
          <ns3:TrackPointExtension>
            <ns3:atemp>24.0</ns3:atemp>
          </ns3:TrackPointExtension>
        </extensions>
      </trkpt>
      <trkpt lat="42.520824484527111053466796875" lon="20.15863177366554737091064453125">
        <ele>1801</ele>
        <time>2026-06-20T09:01:57.000Z</time>
        <extensions>
          <ns3:TrackPointExtension>
            <ns3:atemp>24.0</ns3:atemp>
          </ns3:TrackPointExtension>
        </extensions>
      </trkpt>
      <trkpt lat="42.520817779004573822021484375" lon="20.1586080528795719146728515625">
        <ele>1801</ele>
        <time>2026-06-20T09:01:58.000Z</time>
        <extensions>
          <ns3:TrackPointExtension>
            <ns3:atemp>24.0</ns3:atemp>
          </ns3:TrackPointExtension>
        </extensions>
      </trkpt>
      <trkpt lat="42.5208132527768611907958984375" lon="20.15858776867389678955078125">
        <ele>1801.199951171875</ele>
        <time>2026-06-20T09:01:59.000Z</time>
        <extensions>
          <ns3:TrackPointExtension>
            <ns3:atemp>24.0</ns3:atemp>
          </ns3:TrackPointExtension>
        </extensions>
      </trkpt>
      <trkpt lat="42.52080596052110195159912109375" lon="20.15857025049626827239990234375">
        <ele>1801.5999755859375</ele>
        <time>2026-06-20T09:02:00.000Z</time>
        <extensions>
          <ns3:TrackPointExtension>
            <ns3:atemp>24.0</ns3:atemp>
          </ns3:TrackPointExtension>
        </extensions>
      </trkpt>
      <trkpt lat="42.5208018533885478973388671875" lon="20.15855097211897373199462890625">
        <ele>1802</ele>
        <time>2026-06-20T09:02:01.000Z</time>
        <extensions>
          <ns3:TrackPointExtension>
            <ns3:atemp>24.0</ns3:atemp>
          </ns3:TrackPointExtension>
        </extensions>
      </trkpt>
      <trkpt lat="42.52080143429338932037353515625" lon="20.1585306040942668914794921875">
        <ele>1802.4000244140625</ele>
        <time>2026-06-20T09:02:02.000Z</time>
        <extensions>
          <ns3:TrackPointExtension>
            <ns3:atemp>24.0</ns3:atemp>
          </ns3:TrackPointExtension>
        </extensions>
      </trkpt>
      <trkpt lat="42.52080277539789676666259765625" lon="20.158506967127323150634765625">
        <ele>1803</ele>
        <time>2026-06-20T09:02:03.000Z</time>
        <extensions>
          <ns3:TrackPointExtension>
            <ns3:atemp>24.0</ns3:atemp>
          </ns3:TrackPointExtension>
        </extensions>
      </trkpt>
      <trkpt lat="42.52079975791275501251220703125" lon="20.15848316252231597900390625">
        <ele>1803.4000244140625</ele>
        <time>2026-06-20T09:02:04.000Z</time>
        <extensions>
          <ns3:TrackPointExtension>
            <ns3:atemp>24.0</ns3:atemp>
          </ns3:TrackPointExtension>
        </extensions>
      </trkpt>
      <trkpt lat="42.52079020254313945770263671875" lon="20.1584638841450214385986328125">
        <ele>1803.800048828125</ele>
        <time>2026-06-20T09:02:05.000Z</time>
        <extensions>
          <ns3:TrackPointExtension>
            <ns3:atemp>24.0</ns3:atemp>
          </ns3:TrackPointExtension>
        </extensions>
      </trkpt>
      <trkpt lat="42.52077880315482616424560546875" lon="20.1584400795400142669677734375">
        <ele>1804.199951171875</ele>
        <time>2026-06-20T09:02:06.000Z</time>
        <extensions>
          <ns3:TrackPointExtension>
            <ns3:atemp>24.0</ns3:atemp>
          </ns3:TrackPointExtension>
        </extensions>
      </trkpt>
      <trkpt lat="42.5207631289958953857421875" lon="20.15842339955270290374755859375">
        <ele>1804.5999755859375</ele>
        <time>2026-06-20T09:02:07.000Z</time>
        <extensions>
          <ns3:TrackPointExtension>
            <ns3:atemp>24.0</ns3:atemp>
          </ns3:TrackPointExtension>
        </extensions>
      </trkpt>
      <trkpt lat="42.5207461975514888763427734375" lon="20.158421806991100311279296875">
        <ele>1805.4000244140625</ele>
        <time>2026-06-20T09:02:08.000Z</time>
        <extensions>
          <ns3:TrackPointExtension>
            <ns3:atemp>24.0</ns3:atemp>
          </ns3:TrackPointExtension>
        </extensions>
      </trkpt>
      <trkpt lat="42.52073186449706554412841796875" lon="20.15843144617974758148193359375">
        <ele>1806</ele>
        <time>2026-06-20T09:02:09.000Z</time>
        <extensions>
          <ns3:TrackPointExtension>
            <ns3:atemp>24.0</ns3:atemp>
          </ns3:TrackPointExtension>
        </extensions>
      </trkpt>
      <trkpt lat="42.520720548927783966064453125" lon="20.15844653360545635223388671875">
        <ele>1806.800048828125</ele>
        <time>2026-06-20T09:02:10.000Z</time>
        <extensions>
          <ns3:TrackPointExtension>
            <ns3:atemp>24.0</ns3:atemp>
          </ns3:TrackPointExtension>
        </extensions>
      </trkpt>
      <trkpt lat="42.52070747315883636474609375" lon="20.1584632135927677154541015625">
        <ele>1807.5999755859375</ele>
        <time>2026-06-20T09:02:11.000Z</time>
        <extensions>
          <ns3:TrackPointExtension>
            <ns3:atemp>24.0</ns3:atemp>
          </ns3:TrackPointExtension>
        </extensions>
      </trkpt>
      <trkpt lat="42.52069540321826934814453125" lon="20.15847402624785900115966796875">
        <ele>1808.199951171875</ele>
        <time>2026-06-20T09:02:12.000Z</time>
        <extensions>
          <ns3:TrackPointExtension>
            <ns3:atemp>24.0</ns3:atemp>
          </ns3:TrackPointExtension>
        </extensions>
      </trkpt>
      <trkpt lat="42.52068107016384601593017578125" lon="20.1584860123693943023681640625">
        <ele>1808.800048828125</ele>
        <time>2026-06-20T09:02:13.000Z</time>
        <extensions>
          <ns3:TrackPointExtension>
            <ns3:atemp>24.0</ns3:atemp>
          </ns3:TrackPointExtension>
        </extensions>
      </trkpt>
      <trkpt lat="42.52066715620458126068115234375" lon="20.1585061289370059967041015625">
        <ele>1809.199951171875</ele>
        <time>2026-06-20T09:02:14.000Z</time>
        <extensions>
          <ns3:TrackPointExtension>
            <ns3:atemp>24.0</ns3:atemp>
          </ns3:TrackPointExtension>
        </extensions>
      </trkpt>
      <trkpt lat="42.5206550024449825286865234375" lon="20.158525072038173675537109375">
        <ele>1809.5999755859375</ele>
        <time>2026-06-20T09:02:15.000Z</time>
        <extensions>
          <ns3:TrackPointExtension>
            <ns3:atemp>24.0</ns3:atemp>
          </ns3:TrackPointExtension>
        </extensions>
      </trkpt>
      <trkpt lat="42.52064318396151065826416015625" lon="20.15854141674935817718505859375">
        <ele>1810</ele>
        <time>2026-06-20T09:02:16.000Z</time>
        <extensions>
          <ns3:TrackPointExtension>
            <ns3:atemp>24.0</ns3:atemp>
          </ns3:TrackPointExtension>
        </extensions>
      </trkpt>
      <trkpt lat="42.52063027583062648773193359375" lon="20.15855466015636920928955078125">
        <ele>1810.199951171875</ele>
        <time>2026-06-20T09:02:17.000Z</time>
        <extensions>
          <ns3:TrackPointExtension>
            <ns3:atemp>24.0</ns3:atemp>
          </ns3:TrackPointExtension>
        </extensions>
      </trkpt>
      <trkpt lat="42.5206251628696918487548828125" lon="20.158553905785083770751953125">
        <ele>1810.4000244140625</ele>
        <time>2026-06-20T09:02:18.000Z</time>
        <extensions>
          <ns3:TrackPointExtension>
            <ns3:atemp>24.0</ns3:atemp>
          </ns3:TrackPointExtension>
        </extensions>
      </trkpt>
      <trkpt lat="42.52062239684164524078369140625" lon="20.15855516307055950164794921875">
        <ele>1810.5999755859375</ele>
        <time>2026-06-20T09:02:19.000Z</time>
        <extensions>
          <ns3:TrackPointExtension>
            <ns3:atemp>24.0</ns3:atemp>
          </ns3:TrackPointExtension>
        </extensions>
      </trkpt>
      <trkpt lat="42.52062239684164524078369140625" lon="20.15855533070862293243408203125">
        <ele>1810.800048828125</ele>
        <time>2026-06-20T09:02:20.000Z</time>
        <extensions>
          <ns3:TrackPointExtension>
            <ns3:atemp>24.0</ns3:atemp>
          </ns3:TrackPointExtension>
        </extensions>
      </trkpt>
      <trkpt lat="42.520622313022613525390625" lon="20.15855549834668636322021484375">
        <ele>1811</ele>
        <time>2026-06-20T09:02:21.000Z</time>
        <extensions>
          <ns3:TrackPointExtension>
            <ns3:atemp>24.0</ns3:atemp>
          </ns3:TrackPointExtension>
        </extensions>
      </trkpt>
      <trkpt lat="42.5206151045858860015869140625" lon="20.1585637964308261871337890625">
        <ele>1811.199951171875</ele>
        <time>2026-06-20T09:02:22.000Z</time>
        <extensions>
          <ns3:TrackPointExtension>
            <ns3:atemp>24.0</ns3:atemp>
          </ns3:TrackPointExtension>
        </extensions>
      </trkpt>
      <trkpt lat="42.5206097401678562164306640625" lon="20.15856924466788768768310546875">
        <ele>1811.199951171875</ele>
        <time>2026-06-20T09:02:23.000Z</time>
        <extensions>
          <ns3:TrackPointExtension>
            <ns3:atemp>24.0</ns3:atemp>
          </ns3:TrackPointExtension>
        </extensions>
      </trkpt>
      <trkpt lat="42.5206026993691921234130859375" lon="20.15857259742915630340576171875">
        <ele>1811.4000244140625</ele>
        <time>2026-06-20T09:02:24.000Z</time>
        <extensions>
          <ns3:TrackPointExtension>
            <ns3:atemp>24.0</ns3:atemp>
          </ns3:TrackPointExtension>
        </extensions>
      </trkpt>
      <trkpt lat="42.5205986760556697845458984375" lon="20.158573351800441741943359375">
        <ele>1811.4000244140625</ele>
        <time>2026-06-20T09:02:25.000Z</time>
        <extensions>
          <ns3:TrackPointExtension>
            <ns3:atemp>24.0</ns3:atemp>
          </ns3:TrackPointExtension>
        </extensions>
      </trkpt>
      <trkpt lat="42.52059347927570343017578125" lon="20.1585725136101245880126953125">
        <ele>1811.5999755859375</ele>
        <time>2026-06-20T09:02:26.000Z</time>
        <extensions>
          <ns3:TrackPointExtension>
            <ns3:atemp>24.0</ns3:atemp>
          </ns3:TrackPointExtension>
        </extensions>
      </trkpt>
      <trkpt lat="42.52059121616184711456298828125" lon="20.15857033431529998779296875">
        <ele>1811.5999755859375</ele>
        <time>2026-06-20T09:02:27.000Z</time>
        <extensions>
          <ns3:TrackPointExtension>
            <ns3:atemp>24.0</ns3:atemp>
          </ns3:TrackPointExtension>
        </extensions>
      </trkpt>
      <trkpt lat="42.52059121616184711456298828125" lon="20.15857033431529998779296875">
        <ele>1811.800048828125</ele>
        <time>2026-06-20T09:02:28.000Z</time>
        <extensions>
          <ns3:TrackPointExtension>
            <ns3:atemp>24.0</ns3:atemp>
          </ns3:TrackPointExtension>
        </extensions>
      </trkpt>
      <trkpt lat="42.52059121616184711456298828125" lon="20.15857033431529998779296875">
        <ele>1812</ele>
        <time>2026-06-20T09:02:29.000Z</time>
        <extensions>
          <ns3:TrackPointExtension>
            <ns3:atemp>24.0</ns3:atemp>
          </ns3:TrackPointExtension>
        </extensions>
      </trkpt>
      <trkpt lat="42.52059121616184711456298828125" lon="20.15857033431529998779296875">
        <ele>1812</ele>
        <time>2026-06-20T09:02:30.000Z</time>
        <extensions>
          <ns3:TrackPointExtension>
            <ns3:atemp>24.0</ns3:atemp>
          </ns3:TrackPointExtension>
        </extensions>
      </trkpt>
      <trkpt lat="42.52059121616184711456298828125" lon="20.15857033431529998779296875">
        <ele>1812</ele>
        <time>2026-06-20T09:02:31.000Z</time>
        <extensions>
          <ns3:TrackPointExtension>
            <ns3:atemp>24.0</ns3:atemp>
          </ns3:TrackPointExtension>
        </extensions>
      </trkpt>
      <trkpt lat="42.52059121616184711456298828125" lon="20.15857033431529998779296875">
        <ele>1812.199951171875</ele>
        <time>2026-06-20T09:02:32.000Z</time>
        <extensions>
          <ns3:TrackPointExtension>
            <ns3:atemp>24.0</ns3:atemp>
          </ns3:TrackPointExtension>
        </extensions>
      </trkpt>
      <trkpt lat="42.52059121616184711456298828125" lon="20.15857033431529998779296875">
        <ele>1812.199951171875</ele>
        <time>2026-06-20T09:02:33.000Z</time>
        <extensions>
          <ns3:TrackPointExtension>
            <ns3:atemp>24.0</ns3:atemp>
          </ns3:TrackPointExtension>
        </extensions>
      </trkpt>
      <trkpt lat="42.52059121616184711456298828125" lon="20.15857033431529998779296875">
        <ele>1812.199951171875</ele>
        <time>2026-06-20T09:02:34.000Z</time>
        <extensions>
          <ns3:TrackPointExtension>
            <ns3:atemp>24.0</ns3:atemp>
          </ns3:TrackPointExtension>
        </extensions>
      </trkpt>
      <trkpt lat="42.52059121616184711456298828125" lon="20.15857033431529998779296875">
        <ele>1812.4000244140625</ele>
        <time>2026-06-20T09:02:35.000Z</time>
        <extensions>
          <ns3:TrackPointExtension>
            <ns3:atemp>24.0</ns3:atemp>
          </ns3:TrackPointExtension>
        </extensions>
      </trkpt>
      <trkpt lat="42.52059121616184711456298828125" lon="20.15857033431529998779296875">
        <ele>1812.4000244140625</ele>
        <time>2026-06-20T09:02:36.000Z</time>
        <extensions>
          <ns3:TrackPointExtension>
            <ns3:atemp>24.0</ns3:atemp>
          </ns3:TrackPointExtension>
        </extensions>
      </trkpt>
      <trkpt lat="42.52059121616184711456298828125" lon="20.15857033431529998779296875">
        <ele>1812.199951171875</ele>
        <time>2026-06-20T09:02:37.000Z</time>
        <extensions>
          <ns3:TrackPointExtension>
            <ns3:atemp>24.0</ns3:atemp>
          </ns3:TrackPointExtension>
        </extensions>
      </trkpt>
      <trkpt lat="42.52059121616184711456298828125" lon="20.15857033431529998779296875">
        <ele>1812.199951171875</ele>
        <time>2026-06-20T09:02:38.000Z</time>
        <extensions>
          <ns3:TrackPointExtension>
            <ns3:atemp>24.0</ns3:atemp>
          </ns3:TrackPointExtension>
        </extensions>
      </trkpt>
      <trkpt lat="42.52059121616184711456298828125" lon="20.15857033431529998779296875">
        <ele>1812</ele>
        <time>2026-06-20T09:02:39.000Z</time>
        <extensions>
          <ns3:TrackPointExtension>
            <ns3:atemp>24.0</ns3:atemp>
          </ns3:TrackPointExtension>
        </extensions>
      </trkpt>
      <trkpt lat="42.52059121616184711456298828125" lon="20.15857033431529998779296875">
        <ele>1812</ele>
        <time>2026-06-20T09:02:40.000Z</time>
        <extensions>
          <ns3:TrackPointExtension>
            <ns3:atemp>24.0</ns3:atemp>
          </ns3:TrackPointExtension>
        </extensions>
      </trkpt>
      <trkpt lat="42.52059121616184711456298828125" lon="20.15857033431529998779296875">
        <ele>1811.800048828125</ele>
        <time>2026-06-20T09:02:41.000Z</time>
        <extensions>
          <ns3:TrackPointExtension>
            <ns3:atemp>24.0</ns3:atemp>
          </ns3:TrackPointExtension>
        </extensions>
      </trkpt>
      <trkpt lat="42.52059121616184711456298828125" lon="20.15857033431529998779296875">
        <ele>1811.800048828125</ele>
        <time>2026-06-20T09:02:42.000Z</time>
        <extensions>
          <ns3:TrackPointExtension>
            <ns3:atemp>24.0</ns3:atemp>
          </ns3:TrackPointExtension>
        </extensions>
      </trkpt>
      <trkpt lat="42.52059121616184711456298828125" lon="20.15857033431529998779296875">
        <ele>1811.800048828125</ele>
        <time>2026-06-20T09:02:43.000Z</time>
        <extensions>
          <ns3:TrackPointExtension>
            <ns3:atemp>24.0</ns3:atemp>
          </ns3:TrackPointExtension>
        </extensions>
      </trkpt>
      <trkpt lat="42.52059121616184711456298828125" lon="20.15857033431529998779296875">
        <ele>1811.5999755859375</ele>
        <time>2026-06-20T09:02:44.000Z</time>
        <extensions>
          <ns3:TrackPointExtension>
            <ns3:atemp>24.0</ns3:atemp>
          </ns3:TrackPointExtension>
        </extensions>
      </trkpt>
      <trkpt lat="42.52059121616184711456298828125" lon="20.15857033431529998779296875">
        <ele>1811.5999755859375</ele>
        <time>2026-06-20T09:02:45.000Z</time>
        <extensions>
          <ns3:TrackPointExtension>
            <ns3:atemp>24.0</ns3:atemp>
          </ns3:TrackPointExtension>
        </extensions>
      </trkpt>
      <trkpt lat="42.52059121616184711456298828125" lon="20.15857033431529998779296875">
        <ele>1811.5999755859375</ele>
        <time>2026-06-20T09:02:46.000Z</time>
        <extensions>
          <ns3:TrackPointExtension>
            <ns3:atemp>24.0</ns3:atemp>
          </ns3:TrackPointExtension>
        </extensions>
      </trkpt>
      <trkpt lat="42.52059121616184711456298828125" lon="20.15857033431529998779296875">
        <ele>1811.5999755859375</ele>
        <time>2026-06-20T09:02:47.000Z</time>
        <extensions>
          <ns3:TrackPointExtension>
            <ns3:atemp>24.0</ns3:atemp>
          </ns3:TrackPointExtension>
        </extensions>
      </trkpt>
      <trkpt lat="42.52059121616184711456298828125" lon="20.15857033431529998779296875">
        <ele>1811.4000244140625</ele>
        <time>2026-06-20T09:02:48.000Z</time>
        <extensions>
          <ns3:TrackPointExtension>
            <ns3:atemp>24.0</ns3:atemp>
          </ns3:TrackPointExtension>
        </extensions>
      </trkpt>
      <trkpt lat="42.52059121616184711456298828125" lon="20.15857033431529998779296875">
        <ele>1811.5999755859375</ele>
        <time>2026-06-20T09:02:49.000Z</time>
        <extensions>
          <ns3:TrackPointExtension>
            <ns3:atemp>24.0</ns3:atemp>
          </ns3:TrackPointExtension>
        </extensions>
      </trkpt>
      <trkpt lat="42.52059121616184711456298828125" lon="20.15857033431529998779296875">
        <ele>1811.5999755859375</ele>
        <time>2026-06-20T09:02:50.000Z</time>
        <extensions>
          <ns3:TrackPointExtension>
            <ns3:atemp>24.0</ns3:atemp>
          </ns3:TrackPointExtension>
        </extensions>
      </trkpt>
      <trkpt lat="42.52059121616184711456298828125" lon="20.15857033431529998779296875">
        <ele>1811.5999755859375</ele>
        <time>2026-06-20T09:02:51.000Z</time>
        <extensions>
          <ns3:TrackPointExtension>
            <ns3:atemp>24.0</ns3:atemp>
          </ns3:TrackPointExtension>
        </extensions>
      </trkpt>
      <trkpt lat="42.52059121616184711456298828125" lon="20.15857033431529998779296875">
        <ele>1811.5999755859375</ele>
        <time>2026-06-20T09:02:52.000Z</time>
        <extensions>
          <ns3:TrackPointExtension>
            <ns3:atemp>24.0</ns3:atemp>
          </ns3:TrackPointExtension>
        </extensions>
      </trkpt>
      <trkpt lat="42.52059121616184711456298828125" lon="20.15857033431529998779296875">
        <ele>1811.5999755859375</ele>
        <time>2026-06-20T09:02:53.000Z</time>
        <extensions>
          <ns3:TrackPointExtension>
            <ns3:atemp>24.0</ns3:atemp>
          </ns3:TrackPointExtension>
        </extensions>
      </trkpt>
      <trkpt lat="42.52059121616184711456298828125" lon="20.15857033431529998779296875">
        <ele>1811.5999755859375</ele>
        <time>2026-06-20T09:02:54.000Z</time>
        <extensions>
          <ns3:TrackPointExtension>
            <ns3:atemp>24.0</ns3:atemp>
          </ns3:TrackPointExtension>
        </extensions>
      </trkpt>
      <trkpt lat="42.52059121616184711456298828125" lon="20.15857033431529998779296875">
        <ele>1811.5999755859375</ele>
        <time>2026-06-20T09:02:55.000Z</time>
        <extensions>
          <ns3:TrackPointExtension>
            <ns3:atemp>24.0</ns3:atemp>
          </ns3:TrackPointExtension>
        </extensions>
      </trkpt>
      <trkpt lat="42.52059121616184711456298828125" lon="20.15857033431529998779296875">
        <ele>1811.4000244140625</ele>
        <time>2026-06-20T09:02:56.000Z</time>
        <extensions>
          <ns3:TrackPointExtension>
            <ns3:atemp>24.0</ns3:atemp>
          </ns3:TrackPointExtension>
        </extensions>
      </trkpt>
      <trkpt lat="42.52059121616184711456298828125" lon="20.15857033431529998779296875">
        <ele>1811.4000244140625</ele>
        <time>2026-06-20T09:02:57.000Z</time>
        <extensions>
          <ns3:TrackPointExtension>
            <ns3:atemp>24.0</ns3:atemp>
          </ns3:TrackPointExtension>
        </extensions>
      </trkpt>
      <trkpt lat="42.52059121616184711456298828125" lon="20.15857033431529998779296875">
        <ele>1811.4000244140625</ele>
        <time>2026-06-20T09:02:58.000Z</time>
        <extensions>
          <ns3:TrackPointExtension>
            <ns3:atemp>24.0</ns3:atemp>
          </ns3:TrackPointExtension>
        </extensions>
      </trkpt>
      <trkpt lat="42.52059121616184711456298828125" lon="20.15857033431529998779296875">
        <ele>1811.4000244140625</ele>
        <time>2026-06-20T09:02:59.000Z</time>
        <extensions>
          <ns3:TrackPointExtension>
            <ns3:atemp>24.0</ns3:atemp>
          </ns3:TrackPointExtension>
        </extensions>
      </trkpt>
      <trkpt lat="42.52059121616184711456298828125" lon="20.15857033431529998779296875">
        <ele>1811.4000244140625</ele>
        <time>2026-06-20T09:03:00.000Z</time>
        <extensions>
          <ns3:TrackPointExtension>
            <ns3:atemp>24.0</ns3:atemp>
          </ns3:TrackPointExtension>
        </extensions>
      </trkpt>
      <trkpt lat="42.52059121616184711456298828125" lon="20.15857033431529998779296875">
        <ele>1811.4000244140625</ele>
        <time>2026-06-20T09:03:01.000Z</time>
        <extensions>
          <ns3:TrackPointExtension>
            <ns3:atemp>24.0</ns3:atemp>
          </ns3:TrackPointExtension>
        </extensions>
      </trkpt>
      <trkpt lat="42.52059121616184711456298828125" lon="20.15857033431529998779296875">
        <ele>1811.4000244140625</ele>
        <time>2026-06-20T09:03:02.000Z</time>
        <extensions>
          <ns3:TrackPointExtension>
            <ns3:atemp>24.0</ns3:atemp>
          </ns3:TrackPointExtension>
        </extensions>
      </trkpt>
      <trkpt lat="42.52059121616184711456298828125" lon="20.15857033431529998779296875">
        <ele>1811.199951171875</ele>
        <time>2026-06-20T09:03:03.000Z</time>
        <extensions>
          <ns3:TrackPointExtension>
            <ns3:atemp>24.0</ns3:atemp>
          </ns3:TrackPointExtension>
        </extensions>
      </trkpt>
      <trkpt lat="42.5205896236002445220947265625" lon="20.15857209451496601104736328125">
        <ele>1811.199951171875</ele>
        <time>2026-06-20T09:03:04.000Z</time>
        <extensions>
          <ns3:TrackPointExtension>
            <ns3:atemp>24.0</ns3:atemp>
          </ns3:TrackPointExtension>
        </extensions>
      </trkpt>
      <trkpt lat="42.5205788947641849517822265625" lon="20.1585772074759006500244140625">
        <ele>1811.199951171875</ele>
        <time>2026-06-20T09:03:05.000Z</time>
        <extensions>
          <ns3:TrackPointExtension>
            <ns3:atemp>24.0</ns3:atemp>
          </ns3:TrackPointExtension>
        </extensions>
      </trkpt>
      <trkpt lat="42.5205726921558380126953125" lon="20.1585798896849155426025390625">
        <ele>1811.199951171875</ele>
        <time>2026-06-20T09:03:06.000Z</time>
        <extensions>
          <ns3:TrackPointExtension>
            <ns3:atemp>24.0</ns3:atemp>
          </ns3:TrackPointExtension>
        </extensions>
      </trkpt>
      <trkpt lat="42.52057361416518688201904296875" lon="20.15858030878007411956787109375">
        <ele>1811.199951171875</ele>
        <time>2026-06-20T09:03:07.000Z</time>
        <extensions>
          <ns3:TrackPointExtension>
            <ns3:atemp>24.0</ns3:atemp>
          </ns3:TrackPointExtension>
        </extensions>
      </trkpt>
      <trkpt lat="42.52057361416518688201904296875" lon="20.15858030878007411956787109375">
        <ele>1811</ele>
        <time>2026-06-20T09:03:08.000Z</time>
        <extensions>
          <ns3:TrackPointExtension>
            <ns3:atemp>24.0</ns3:atemp>
          </ns3:TrackPointExtension>
        </extensions>
      </trkpt>
      <trkpt lat="42.52057361416518688201904296875" lon="20.15858030878007411956787109375">
        <ele>1811</ele>
        <time>2026-06-20T09:03:09.000Z</time>
        <extensions>
          <ns3:TrackPointExtension>
            <ns3:atemp>24.0</ns3:atemp>
          </ns3:TrackPointExtension>
        </extensions>
      </trkpt>
      <trkpt lat="42.52057361416518688201904296875" lon="20.15858030878007411956787109375">
        <ele>1811</ele>
        <time>2026-06-20T09:03:10.000Z</time>
        <extensions>
          <ns3:TrackPointExtension>
            <ns3:atemp>24.0</ns3:atemp>
          </ns3:TrackPointExtension>
        </extensions>
      </trkpt>
      <trkpt lat="42.52057361416518688201904296875" lon="20.15858030878007411956787109375">
        <ele>1811</ele>
        <time>2026-06-20T09:03:11.000Z</time>
        <extensions>
          <ns3:TrackPointExtension>
            <ns3:atemp>24.0</ns3:atemp>
          </ns3:TrackPointExtension>
        </extensions>
      </trkpt>
      <trkpt lat="42.52057361416518688201904296875" lon="20.15858030878007411956787109375">
        <ele>1811</ele>
        <time>2026-06-20T09:03:12.000Z</time>
        <extensions>
          <ns3:TrackPointExtension>
            <ns3:atemp>24.0</ns3:atemp>
          </ns3:TrackPointExtension>
        </extensions>
      </trkpt>
      <trkpt lat="42.52057361416518688201904296875" lon="20.15858030878007411956787109375">
        <ele>1811.199951171875</ele>
        <time>2026-06-20T09:03:13.000Z</time>
        <extensions>
          <ns3:TrackPointExtension>
            <ns3:atemp>24.0</ns3:atemp>
          </ns3:TrackPointExtension>
        </extensions>
      </trkpt>
      <trkpt lat="42.52057361416518688201904296875" lon="20.15858030878007411956787109375">
        <ele>1811.199951171875</ele>
        <time>2026-06-20T09:03:14.000Z</time>
        <extensions>
          <ns3:TrackPointExtension>
            <ns3:atemp>24.0</ns3:atemp>
          </ns3:TrackPointExtension>
        </extensions>
      </trkpt>
      <trkpt lat="42.52057361416518688201904296875" lon="20.15858030878007411956787109375">
        <ele>1811</ele>
        <time>2026-06-20T09:03:15.000Z</time>
        <extensions>
          <ns3:TrackPointExtension>
            <ns3:atemp>24.0</ns3:atemp>
          </ns3:TrackPointExtension>
        </extensions>
      </trkpt>
      <trkpt lat="42.52057361416518688201904296875" lon="20.15858030878007411956787109375">
        <ele>1811.199951171875</ele>
        <time>2026-06-20T09:03:16.000Z</time>
        <extensions>
          <ns3:TrackPointExtension>
            <ns3:atemp>24.0</ns3:atemp>
          </ns3:TrackPointExtension>
        </extensions>
      </trkpt>
      <trkpt lat="42.52057361416518688201904296875" lon="20.15858030878007411956787109375">
        <ele>1811</ele>
        <time>2026-06-20T09:03:17.000Z</time>
        <extensions>
          <ns3:TrackPointExtension>
            <ns3:atemp>24.0</ns3:atemp>
          </ns3:TrackPointExtension>
        </extensions>
      </trkpt>
      <trkpt lat="42.52057361416518688201904296875" lon="20.15858030878007411956787109375">
        <ele>1811</ele>
        <time>2026-06-20T09:03:18.000Z</time>
        <extensions>
          <ns3:TrackPointExtension>
            <ns3:atemp>24.0</ns3:atemp>
          </ns3:TrackPointExtension>
        </extensions>
      </trkpt>
      <trkpt lat="42.52057361416518688201904296875" lon="20.15858030878007411956787109375">
        <ele>1811</ele>
        <time>2026-06-20T09:03:19.000Z</time>
        <extensions>
          <ns3:TrackPointExtension>
            <ns3:atemp>24.0</ns3:atemp>
          </ns3:TrackPointExtension>
        </extensions>
      </trkpt>
      <trkpt lat="42.52057361416518688201904296875" lon="20.15858030878007411956787109375">
        <ele>1811</ele>
        <time>2026-06-20T09:03:20.000Z</time>
        <extensions>
          <ns3:TrackPointExtension>
            <ns3:atemp>24.0</ns3:atemp>
          </ns3:TrackPointExtension>
        </extensions>
      </trkpt>
      <trkpt lat="42.52057361416518688201904296875" lon="20.15858030878007411956787109375">
        <ele>1811</ele>
        <time>2026-06-20T09:03:21.000Z</time>
        <extensions>
          <ns3:TrackPointExtension>
            <ns3:atemp>24.0</ns3:atemp>
          </ns3:TrackPointExtension>
        </extensions>
      </trkpt>
      <trkpt lat="42.52057361416518688201904296875" lon="20.15858030878007411956787109375">
        <ele>1811</ele>
        <time>2026-06-20T09:03:22.000Z</time>
        <extensions>
          <ns3:TrackPointExtension>
            <ns3:atemp>24.0</ns3:atemp>
          </ns3:TrackPointExtension>
        </extensions>
      </trkpt>
      <trkpt lat="42.52057361416518688201904296875" lon="20.15858030878007411956787109375">
        <ele>1811</ele>
        <time>2026-06-20T09:03:23.000Z</time>
        <extensions>
          <ns3:TrackPointExtension>
            <ns3:atemp>24.0</ns3:atemp>
          </ns3:TrackPointExtension>
        </extensions>
      </trkpt>
      <trkpt lat="42.52057361416518688201904296875" lon="20.15858030878007411956787109375">
        <ele>1811</ele>
        <time>2026-06-20T09:03:24.000Z</time>
        <extensions>
          <ns3:TrackPointExtension>
            <ns3:atemp>24.0</ns3:atemp>
          </ns3:TrackPointExtension>
        </extensions>
      </trkpt>
      <trkpt lat="42.52057361416518688201904296875" lon="20.15858030878007411956787109375">
        <ele>1811</ele>
        <time>2026-06-20T09:03:25.000Z</time>
        <extensions>
          <ns3:TrackPointExtension>
            <ns3:atemp>24.0</ns3:atemp>
          </ns3:TrackPointExtension>
        </extensions>
      </trkpt>
      <trkpt lat="42.52057361416518688201904296875" lon="20.15858030878007411956787109375">
        <ele>1811</ele>
        <time>2026-06-20T09:03:26.000Z</time>
        <extensions>
          <ns3:TrackPointExtension>
            <ns3:atemp>24.0</ns3:atemp>
          </ns3:TrackPointExtension>
        </extensions>
      </trkpt>
      <trkpt lat="42.52057361416518688201904296875" lon="20.15858030878007411956787109375">
        <ele>1811</ele>
        <time>2026-06-20T09:03:27.000Z</time>
        <extensions>
          <ns3:TrackPointExtension>
            <ns3:atemp>24.0</ns3:atemp>
          </ns3:TrackPointExtension>
        </extensions>
      </trkpt>
      <trkpt lat="42.52057361416518688201904296875" lon="20.15858030878007411956787109375">
        <ele>1811</ele>
        <time>2026-06-20T09:03:28.000Z</time>
        <extensions>
          <ns3:TrackPointExtension>
            <ns3:atemp>24.0</ns3:atemp>
          </ns3:TrackPointExtension>
        </extensions>
      </trkpt>
      <trkpt lat="42.52056992612779140472412109375" lon="20.15857896767556667327880859375">
        <ele>1811</ele>
        <time>2026-06-20T09:03:29.000Z</time>
        <extensions>
          <ns3:TrackPointExtension>
            <ns3:atemp>24.0</ns3:atemp>
          </ns3:TrackPointExtension>
        </extensions>
      </trkpt>
      <trkpt lat="42.520557940006256103515625" lon="20.15857301652431488037109375">
        <ele>1811</ele>
        <time>2026-06-20T09:03:30.000Z</time>
        <extensions>
          <ns3:TrackPointExtension>
            <ns3:atemp>24.0</ns3:atemp>
          </ns3:TrackPointExtension>
        </extensions>
      </trkpt>
      <trkpt lat="42.5205577723681926727294921875" lon="20.15857301652431488037109375">
        <ele>1811</ele>
        <time>2026-06-20T09:03:31.000Z</time>
        <extensions>
          <ns3:TrackPointExtension>
            <ns3:atemp>24.0</ns3:atemp>
          </ns3:TrackPointExtension>
        </extensions>
      </trkpt>
      <trkpt lat="42.5205577723681926727294921875" lon="20.15857301652431488037109375">
        <ele>1811</ele>
        <time>2026-06-20T09:03:32.000Z</time>
        <extensions>
          <ns3:TrackPointExtension>
            <ns3:atemp>24.0</ns3:atemp>
          </ns3:TrackPointExtension>
        </extensions>
      </trkpt>
      <trkpt lat="42.5205577723681926727294921875" lon="20.15857301652431488037109375">
        <ele>1811</ele>
        <time>2026-06-20T09:03:33.000Z</time>
        <extensions>
          <ns3:TrackPointExtension>
            <ns3:atemp>24.0</ns3:atemp>
          </ns3:TrackPointExtension>
        </extensions>
      </trkpt>
      <trkpt lat="42.52055685035884380340576171875" lon="20.1585728488862514495849609375">
        <ele>1811</ele>
        <time>2026-06-20T09:03:34.000Z</time>
        <extensions>
          <ns3:TrackPointExtension>
            <ns3:atemp>24.0</ns3:atemp>
          </ns3:TrackPointExtension>
        </extensions>
      </trkpt>
      <trkpt lat="42.520539499819278717041015625" lon="20.1585731841623783111572265625">
        <ele>1811</ele>
        <time>2026-06-20T09:03:35.000Z</time>
        <extensions>
          <ns3:TrackPointExtension>
            <ns3:atemp>24.0</ns3:atemp>
          </ns3:TrackPointExtension>
        </extensions>
      </trkpt>
      <trkpt lat="42.52053539268672466278076171875" lon="20.1585741899907588958740234375">
        <ele>1811</ele>
        <time>2026-06-20T09:03:36.000Z</time>
        <extensions>
          <ns3:TrackPointExtension>
            <ns3:atemp>24.0</ns3:atemp>
          </ns3:TrackPointExtension>
        </extensions>
      </trkpt>
      <trkpt lat="42.520532123744487762451171875" lon="20.15857343561947345733642578125">
        <ele>1811</ele>
        <time>2026-06-20T09:03:37.000Z</time>
        <extensions>
          <ns3:TrackPointExtension>
            <ns3:atemp>24.0</ns3:atemp>
          </ns3:TrackPointExtension>
        </extensions>
      </trkpt>
      <trkpt lat="42.520525418221950531005859375" lon="20.158575363457202911376953125">
        <ele>1811</ele>
        <time>2026-06-20T09:03:38.000Z</time>
        <extensions>
          <ns3:TrackPointExtension>
            <ns3:atemp>24.0</ns3:atemp>
          </ns3:TrackPointExtension>
        </extensions>
      </trkpt>
      <trkpt lat="42.520517371594905853271484375" lon="20.1585803925991058349609375">
        <ele>1811</ele>
        <time>2026-06-20T09:03:39.000Z</time>
        <extensions>
          <ns3:TrackPointExtension>
            <ns3:atemp>24.0</ns3:atemp>
          </ns3:TrackPointExtension>
        </extensions>
      </trkpt>
      <trkpt lat="42.5205088220536708831787109375" lon="20.15858642756938934326171875">
        <ele>1811</ele>
        <time>2026-06-20T09:03:40.000Z</time>
        <extensions>
          <ns3:TrackPointExtension>
            <ns3:atemp>24.0</ns3:atemp>
          </ns3:TrackPointExtension>
        </extensions>
      </trkpt>
      <trkpt lat="42.52050270326435565948486328125" lon="20.15858584083616733551025390625">
        <ele>1811</ele>
        <time>2026-06-20T09:03:41.000Z</time>
        <extensions>
          <ns3:TrackPointExtension>
            <ns3:atemp>24.0</ns3:atemp>
          </ns3:TrackPointExtension>
        </extensions>
      </trkpt>
      <trkpt lat="42.52049423754215240478515625" lon="20.1585909537971019744873046875">
        <ele>1811</ele>
        <time>2026-06-20T09:03:42.000Z</time>
        <extensions>
          <ns3:TrackPointExtension>
            <ns3:atemp>24.0</ns3:atemp>
          </ns3:TrackPointExtension>
        </extensions>
      </trkpt>
      <trkpt lat="42.52048476599156856536865234375" lon="20.1585976593196392059326171875">
        <ele>1811.199951171875</ele>
        <time>2026-06-20T09:03:43.000Z</time>
        <extensions>
          <ns3:TrackPointExtension>
            <ns3:atemp>24.0</ns3:atemp>
          </ns3:TrackPointExtension>
        </extensions>
      </trkpt>
      <trkpt lat="42.520477809011936187744140625" lon="20.15860813669860363006591796875">
        <ele>1811.199951171875</ele>
        <time>2026-06-20T09:03:44.000Z</time>
        <extensions>
          <ns3:TrackPointExtension>
            <ns3:atemp>24.0</ns3:atemp>
          </ns3:TrackPointExtension>
        </extensions>
      </trkpt>
      <trkpt lat="42.52046515233814716339111328125" lon="20.15861635096371173858642578125">
        <ele>1811.4000244140625</ele>
        <time>2026-06-20T09:03:45.000Z</time>
        <extensions>
          <ns3:TrackPointExtension>
            <ns3:atemp>24.0</ns3:atemp>
          </ns3:TrackPointExtension>
        </extensions>
      </trkpt>
      <trkpt lat="42.52045760862529277801513671875" lon="20.15861735679209232330322265625">
        <ele>1811.5999755859375</ele>
        <time>2026-06-20T09:03:46.000Z</time>
        <extensions>
          <ns3:TrackPointExtension>
            <ns3:atemp>24.0</ns3:atemp>
          </ns3:TrackPointExtension>
        </extensions>
      </trkpt>
      <trkpt lat="42.52045224420726299285888671875" lon="20.15862255357205867767333984375">
        <ele>1811.800048828125</ele>
        <time>2026-06-20T09:03:47.000Z</time>
        <extensions>
          <ns3:TrackPointExtension>
            <ns3:atemp>24.0</ns3:atemp>
          </ns3:TrackPointExtension>
        </extensions>
      </trkpt>
      <trkpt lat="42.5204466283321380615234375" lon="20.15862666070461273193359375">
        <ele>1812.199951171875</ele>
        <time>2026-06-20T09:03:48.000Z</time>
        <extensions>
          <ns3:TrackPointExtension>
            <ns3:atemp>24.0</ns3:atemp>
          </ns3:TrackPointExtension>
        </extensions>
      </trkpt>
      <trkpt lat="42.52043715678155422210693359375" lon="20.158628337085247039794921875">
        <ele>1812.4000244140625</ele>
        <time>2026-06-20T09:03:49.000Z</time>
        <extensions>
          <ns3:TrackPointExtension>
            <ns3:atemp>24.0</ns3:atemp>
          </ns3:TrackPointExtension>
        </extensions>
      </trkpt>
      <trkpt lat="42.5204276852309703826904296875" lon="20.15863294713199138641357421875">
        <ele>1812.5999755859375</ele>
        <time>2026-06-20T09:03:50.000Z</time>
        <extensions>
          <ns3:TrackPointExtension>
            <ns3:atemp>24.0</ns3:atemp>
          </ns3:TrackPointExtension>
        </extensions>
      </trkpt>
      <trkpt lat="42.520420812070369720458984375" lon="20.15863831155002117156982421875">
        <ele>1812.800048828125</ele>
        <time>2026-06-20T09:03:51.000Z</time>
        <extensions>
          <ns3:TrackPointExtension>
            <ns3:atemp>24.0</ns3:atemp>
          </ns3:TrackPointExtension>
        </extensions>
      </trkpt>
      <trkpt lat="42.52041704021394252777099609375" lon="20.15864401124417781829833984375">
        <ele>1813</ele>
        <time>2026-06-20T09:03:52.000Z</time>
        <extensions>
          <ns3:TrackPointExtension>
            <ns3:atemp>24.0</ns3:atemp>
          </ns3:TrackPointExtension>
        </extensions>
      </trkpt>
      <trkpt lat="42.52041117288172245025634765625" lon="20.1586501300334930419921875">
        <ele>1813.199951171875</ele>
        <time>2026-06-20T09:03:53.000Z</time>
        <extensions>
          <ns3:TrackPointExtension>
            <ns3:atemp>24.0</ns3:atemp>
          </ns3:TrackPointExtension>
        </extensions>
      </trkpt>
      <trkpt lat="42.52040463499724864959716796875" lon="20.15866010449826717376708984375">
        <ele>1813.4000244140625</ele>
        <time>2026-06-20T09:03:54.000Z</time>
        <extensions>
          <ns3:TrackPointExtension>
            <ns3:atemp>24.0</ns3:atemp>
          </ns3:TrackPointExtension>
        </extensions>
      </trkpt>
      <trkpt lat="42.5203991867601871490478515625" lon="20.15866295434534549713134765625">
        <ele>1813.5999755859375</ele>
        <time>2026-06-20T09:03:55.000Z</time>
        <extensions>
          <ns3:TrackPointExtension>
            <ns3:atemp>24.0</ns3:atemp>
          </ns3:TrackPointExtension>
        </extensions>
      </trkpt>
      <trkpt lat="42.52038686536252498626708984375" lon="20.158674605190753936767578125">
        <ele>1813.800048828125</ele>
        <time>2026-06-20T09:03:56.000Z</time>
        <extensions>
          <ns3:TrackPointExtension>
            <ns3:atemp>24.0</ns3:atemp>
          </ns3:TrackPointExtension>
        </extensions>
      </trkpt>
      <trkpt lat="42.520382590591907501220703125" lon="20.1586804725229740142822265625">
        <ele>1813.800048828125</ele>
        <time>2026-06-20T09:03:57.000Z</time>
        <extensions>
          <ns3:TrackPointExtension>
            <ns3:atemp>24.0</ns3:atemp>
          </ns3:TrackPointExtension>
        </extensions>
      </trkpt>
      <trkpt lat="42.52037697471678256988525390625" lon="20.15868365764617919921875">
        <ele>1814</ele>
        <time>2026-06-20T09:03:58.000Z</time>
        <extensions>
          <ns3:TrackPointExtension>
            <ns3:atemp>24.0</ns3:atemp>
          </ns3:TrackPointExtension>
        </extensions>
      </trkpt>
      <trkpt lat="42.52037043683230876922607421875" lon="20.15868441201746463775634765625">
        <ele>1814</ele>
        <time>2026-06-20T09:03:59.000Z</time>
        <extensions>
          <ns3:TrackPointExtension>
            <ns3:atemp>24.0</ns3:atemp>
          </ns3:TrackPointExtension>
        </extensions>
      </trkpt>
      <trkpt lat="42.52036524005234241485595703125" lon="20.15868893824517726898193359375">
        <ele>1814.199951171875</ele>
        <time>2026-06-20T09:04:00.000Z</time>
        <extensions>
          <ns3:TrackPointExtension>
            <ns3:atemp>24.0</ns3:atemp>
          </ns3:TrackPointExtension>
        </extensions>
      </trkpt>
      <trkpt lat="42.5203633122146129608154296875" lon="20.15869581140577793121337890625">
        <ele>1814.4000244140625</ele>
        <time>2026-06-20T09:04:01.000Z</time>
        <extensions>
          <ns3:TrackPointExtension>
            <ns3:atemp>24.0</ns3:atemp>
          </ns3:TrackPointExtension>
        </extensions>
      </trkpt>
      <trkpt lat="42.5203621387481689453125" lon="20.15870033763349056243896484375">
        <ele>1814.4000244140625</ele>
        <time>2026-06-20T09:04:02.000Z</time>
        <extensions>
          <ns3:TrackPointExtension>
            <ns3:atemp>24.0</ns3:atemp>
          </ns3:TrackPointExtension>
        </extensions>
      </trkpt>
      <trkpt lat="42.52035702578723430633544921875" lon="20.1587072946131229400634765625">
        <ele>1814.4000244140625</ele>
        <time>2026-06-20T09:04:03.000Z</time>
        <extensions>
          <ns3:TrackPointExtension>
            <ns3:atemp>24.0</ns3:atemp>
          </ns3:TrackPointExtension>
        </extensions>
      </trkpt>
      <trkpt lat="42.520352415740489959716796875" lon="20.158714838325977325439453125">
        <ele>1814.5999755859375</ele>
        <time>2026-06-20T09:04:04.000Z</time>
        <extensions>
          <ns3:TrackPointExtension>
            <ns3:atemp>24.0</ns3:atemp>
          </ns3:TrackPointExtension>
        </extensions>
      </trkpt>
      <trkpt lat="42.5203468836843967437744140625" lon="20.15872179530560970306396484375">
        <ele>1814.5999755859375</ele>
        <time>2026-06-20T09:04:05.000Z</time>
        <extensions>
          <ns3:TrackPointExtension>
            <ns3:atemp>24.0</ns3:atemp>
          </ns3:TrackPointExtension>
        </extensions>
      </trkpt>
      <trkpt lat="42.5203428603708744049072265625" lon="20.15872590243816375732421875">
        <ele>1814.800048828125</ele>
        <time>2026-06-20T09:04:06.000Z</time>
        <extensions>
          <ns3:TrackPointExtension>
            <ns3:atemp>24.0</ns3:atemp>
          </ns3:TrackPointExtension>
        </extensions>
      </trkpt>
      <trkpt lat="42.5203366577625274658203125" lon="20.15873118303716182708740234375">
        <ele>1814.800048828125</ele>
        <time>2026-06-20T09:04:07.000Z</time>
        <extensions>
          <ns3:TrackPointExtension>
            <ns3:atemp>24.0</ns3:atemp>
          </ns3:TrackPointExtension>
        </extensions>
      </trkpt>
      <trkpt lat="42.52033238299190998077392578125" lon="20.1587381400167942047119140625">
        <ele>1815</ele>
        <time>2026-06-20T09:04:08.000Z</time>
        <extensions>
          <ns3:TrackPointExtension>
            <ns3:atemp>24.0</ns3:atemp>
          </ns3:TrackPointExtension>
        </extensions>
      </trkpt>
      <trkpt lat="42.52032534219324588775634765625" lon="20.158745013177394866943359375">
        <ele>1815.199951171875</ele>
        <time>2026-06-20T09:04:09.000Z</time>
        <extensions>
          <ns3:TrackPointExtension>
            <ns3:atemp>24.0</ns3:atemp>
          </ns3:TrackPointExtension>
        </extensions>
      </trkpt>
      <trkpt lat="42.52032014541327953338623046875" lon="20.15874736011028289794921875">
        <ele>1815.4000244140625</ele>
        <time>2026-06-20T09:04:10.000Z</time>
        <extensions>
          <ns3:TrackPointExtension>
            <ns3:atemp>24.0</ns3:atemp>
          </ns3:TrackPointExtension>
        </extensions>
      </trkpt>
      <trkpt lat="42.52031243406236171722412109375" lon="20.15875314362347126007080078125">
        <ele>1815.5999755859375</ele>
        <time>2026-06-20T09:04:11.000Z</time>
        <extensions>
          <ns3:TrackPointExtension>
            <ns3:atemp>24.0</ns3:atemp>
          </ns3:TrackPointExtension>
        </extensions>
      </trkpt>
      <trkpt lat="42.52030589617788791656494140625" lon="20.15875381417572498321533203125">
        <ele>1815.800048828125</ele>
        <time>2026-06-20T09:04:12.000Z</time>
        <extensions>
          <ns3:TrackPointExtension>
            <ns3:atemp>24.0</ns3:atemp>
          </ns3:TrackPointExtension>
        </extensions>
      </trkpt>
      <trkpt lat="42.52029835246503353118896484375" lon="20.1587495394051074981689453125">
        <ele>1816.199951171875</ele>
        <time>2026-06-20T09:04:13.000Z</time>
        <extensions>
          <ns3:TrackPointExtension>
            <ns3:atemp>24.0</ns3:atemp>
          </ns3:TrackPointExtension>
        </extensions>
      </trkpt>
      <trkpt lat="42.52029097639024257659912109375" lon="20.15875129960477352142333984375">
        <ele>1816.4000244140625</ele>
        <time>2026-06-20T09:04:14.000Z</time>
        <extensions>
          <ns3:TrackPointExtension>
            <ns3:atemp>24.0</ns3:atemp>
          </ns3:TrackPointExtension>
        </extensions>
      </trkpt>
      <trkpt lat="42.5202848576009273529052734375" lon="20.15875079669058322906494140625">
        <ele>1816.4000244140625</ele>
        <time>2026-06-20T09:04:15.000Z</time>
        <extensions>
          <ns3:TrackPointExtension>
            <ns3:atemp>24.0</ns3:atemp>
          </ns3:TrackPointExtension>
        </extensions>
      </trkpt>
      <trkpt lat="42.52028058283030986785888671875" lon="20.1587528921663761138916015625">
        <ele>1816.5999755859375</ele>
        <time>2026-06-20T09:04:16.000Z</time>
        <extensions>
          <ns3:TrackPointExtension>
            <ns3:atemp>24.0</ns3:atemp>
          </ns3:TrackPointExtension>
        </extensions>
      </trkpt>
      <trkpt lat="42.5202804990112781524658203125" lon="20.15875297598540782928466796875">
        <ele>1817</ele>
        <time>2026-06-20T09:04:17.000Z</time>
        <extensions>
          <ns3:TrackPointExtension>
            <ns3:atemp>24.0</ns3:atemp>
          </ns3:TrackPointExtension>
        </extensions>
      </trkpt>
      <trkpt lat="42.52027370966970920562744140625" lon="20.15875406563282012939453125">
        <ele>1817.199951171875</ele>
        <time>2026-06-20T09:04:18.000Z</time>
        <extensions>
          <ns3:TrackPointExtension>
            <ns3:atemp>24.0</ns3:atemp>
          </ns3:TrackPointExtension>
        </extensions>
      </trkpt>
      <trkpt lat="42.5202690996229648590087890625" lon="20.15875540673732757568359375">
        <ele>1817.4000244140625</ele>
        <time>2026-06-20T09:04:19.000Z</time>
        <extensions>
          <ns3:TrackPointExtension>
            <ns3:atemp>24.0</ns3:atemp>
          </ns3:TrackPointExtension>
        </extensions>
      </trkpt>
      <trkpt lat="42.5202640704810619354248046875" lon="20.1587579213082790374755859375">
        <ele>1817.4000244140625</ele>
        <time>2026-06-20T09:04:20.000Z</time>
        <extensions>
          <ns3:TrackPointExtension>
            <ns3:atemp>24.0</ns3:atemp>
          </ns3:TrackPointExtension>
        </extensions>
      </trkpt>
      <trkpt lat="42.5202597118914127349853515625" lon="20.15876001678407192230224609375">
        <ele>1817.5999755859375</ele>
        <time>2026-06-20T09:04:21.000Z</time>
        <extensions>
          <ns3:TrackPointExtension>
            <ns3:atemp>24.0</ns3:atemp>
          </ns3:TrackPointExtension>
        </extensions>
      </trkpt>
      <trkpt lat="42.52025594003498554229736328125" lon="20.1587636210024356842041015625">
        <ele>1817.5999755859375</ele>
        <time>2026-06-20T09:04:22.000Z</time>
        <extensions>
          <ns3:TrackPointExtension>
            <ns3:atemp>24.0</ns3:atemp>
          </ns3:TrackPointExtension>
        </extensions>
      </trkpt>
      <trkpt lat="42.52025141380727291107177734375" lon="20.158765129745006561279296875">
        <ele>1817.5999755859375</ele>
        <time>2026-06-20T09:04:23.000Z</time>
        <extensions>
          <ns3:TrackPointExtension>
            <ns3:atemp>24.0</ns3:atemp>
          </ns3:TrackPointExtension>
        </extensions>
      </trkpt>
      <trkpt lat="42.52024705521762371063232421875" lon="20.158766470849514007568359375">
        <ele>1817.800048828125</ele>
        <time>2026-06-20T09:04:24.000Z</time>
        <extensions>
          <ns3:TrackPointExtension>
            <ns3:atemp>24.0</ns3:atemp>
          </ns3:TrackPointExtension>
        </extensions>
      </trkpt>
      <trkpt lat="42.520243115723133087158203125" lon="20.1587666384875774383544921875">
        <ele>1818</ele>
        <time>2026-06-20T09:04:25.000Z</time>
        <extensions>
          <ns3:TrackPointExtension>
            <ns3:atemp>24.0</ns3:atemp>
          </ns3:TrackPointExtension>
        </extensions>
      </trkpt>
      <trkpt lat="42.52023540437221527099609375" lon="20.158768482506275177001953125">
        <ele>1818</ele>
        <time>2026-06-20T09:04:26.000Z</time>
        <extensions>
          <ns3:TrackPointExtension>
            <ns3:atemp>24.0</ns3:atemp>
          </ns3:TrackPointExtension>
        </extensions>
      </trkpt>
      <trkpt lat="42.52023062668740749359130859375" lon="20.1587696559727191925048828125">
        <ele>1818.199951171875</ele>
        <time>2026-06-20T09:04:27.000Z</time>
        <extensions>
          <ns3:TrackPointExtension>
            <ns3:atemp>24.0</ns3:atemp>
          </ns3:TrackPointExtension>
        </extensions>
      </trkpt>
      <trkpt lat="42.52022509463131427764892578125" lon="20.158772170543670654296875">
        <ele>1818.4000244140625</ele>
        <time>2026-06-20T09:04:28.000Z</time>
        <extensions>
          <ns3:TrackPointExtension>
            <ns3:atemp>24.0</ns3:atemp>
          </ns3:TrackPointExtension>
        </extensions>
      </trkpt>
      <trkpt lat="42.52022475935518741607666015625" lon="20.158773176372051239013671875">
        <ele>1818.5999755859375</ele>
        <time>2026-06-20T09:04:29.000Z</time>
        <extensions>
          <ns3:TrackPointExtension>
            <ns3:atemp>24.0</ns3:atemp>
          </ns3:TrackPointExtension>
        </extensions>
      </trkpt>
      <trkpt lat="42.5202240049839019775390625" lon="20.1587761938571929931640625">
        <ele>1818.800048828125</ele>
        <time>2026-06-20T09:04:30.000Z</time>
        <extensions>
          <ns3:TrackPointExtension>
            <ns3:atemp>24.0</ns3:atemp>
          </ns3:TrackPointExtension>
        </extensions>
      </trkpt>
      <trkpt lat="42.52021528780460357666015625" lon="20.15877879224717617034912109375">
        <ele>1818.800048828125</ele>
        <time>2026-06-20T09:04:31.000Z</time>
        <extensions>
          <ns3:TrackPointExtension>
            <ns3:atemp>24.0</ns3:atemp>
          </ns3:TrackPointExtension>
        </extensions>
      </trkpt>
      <trkpt lat="42.52020766027271747589111328125" lon="20.15877862460911273956298828125">
        <ele>1818.800048828125</ele>
        <time>2026-06-20T09:04:32.000Z</time>
        <extensions>
          <ns3:TrackPointExtension>
            <ns3:atemp>24.0</ns3:atemp>
          </ns3:TrackPointExtension>
        </extensions>
      </trkpt>
      <trkpt lat="42.52019676379859447479248046875" lon="20.158782564103603363037109375">
        <ele>1819</ele>
        <time>2026-06-20T09:04:33.000Z</time>
        <extensions>
          <ns3:TrackPointExtension>
            <ns3:atemp>24.0</ns3:atemp>
          </ns3:TrackPointExtension>
        </extensions>
      </trkpt>
      <trkpt lat="42.5201896391808986663818359375" lon="20.15879186801612377166748046875">
        <ele>1819</ele>
        <time>2026-06-20T09:04:34.000Z</time>
        <extensions>
          <ns3:TrackPointExtension>
            <ns3:atemp>24.0</ns3:atemp>
          </ns3:TrackPointExtension>
        </extensions>
      </trkpt>
      <trkpt lat="42.52018335275352001190185546875" lon="20.1587963104248046875">
        <ele>1819.199951171875</ele>
        <time>2026-06-20T09:04:35.000Z</time>
        <extensions>
          <ns3:TrackPointExtension>
            <ns3:atemp>25.0</ns3:atemp>
          </ns3:TrackPointExtension>
        </extensions>
      </trkpt>
      <trkpt lat="42.5201757252216339111328125" lon="20.15880167484283447265625">
        <ele>1819.199951171875</ele>
        <time>2026-06-20T09:04:36.000Z</time>
        <extensions>
          <ns3:TrackPointExtension>
            <ns3:atemp>24.0</ns3:atemp>
          </ns3:TrackPointExtension>
        </extensions>
      </trkpt>
      <trkpt lat="42.52016960643231868743896484375" lon="20.15880561433732509613037109375">
        <ele>1819.5999755859375</ele>
        <time>2026-06-20T09:04:37.000Z</time>
        <extensions>
          <ns3:TrackPointExtension>
            <ns3:atemp>25.0</ns3:atemp>
          </ns3:TrackPointExtension>
        </extensions>
      </trkpt>
      <trkpt lat="42.5201621465384960174560546875" lon="20.15880980528891086578369140625">
        <ele>1819.800048828125</ele>
        <time>2026-06-20T09:04:38.000Z</time>
        <extensions>
          <ns3:TrackPointExtension>
            <ns3:atemp>25.0</ns3:atemp>
          </ns3:TrackPointExtension>
        </extensions>
      </trkpt>
      <trkpt lat="42.5201527588069438934326171875" lon="20.1588164269924163818359375">
        <ele>1820.199951171875</ele>
        <time>2026-06-20T09:04:39.000Z</time>
        <extensions>
          <ns3:TrackPointExtension>
            <ns3:atemp>25.0</ns3:atemp>
          </ns3:TrackPointExtension>
        </extensions>
      </trkpt>
      <trkpt lat="42.520144544541835784912109375" lon="20.15882271341979503631591796875">
        <ele>1820.4000244140625</ele>
        <time>2026-06-20T09:04:40.000Z</time>
        <extensions>
          <ns3:TrackPointExtension>
            <ns3:atemp>24.0</ns3:atemp>
          </ns3:TrackPointExtension>
        </extensions>
      </trkpt>
      <trkpt lat="42.520134486258029937744140625" lon="20.15883059240877628326416015625">
        <ele>1820.800048828125</ele>
        <time>2026-06-20T09:04:41.000Z</time>
        <extensions>
          <ns3:TrackPointExtension>
            <ns3:atemp>24.0</ns3:atemp>
          </ns3:TrackPointExtension>
        </extensions>
      </trkpt>
      <trkpt lat="42.52012602053582668304443359375" lon="20.158835537731647491455078125">
        <ele>1821</ele>
        <time>2026-06-20T09:04:42.000Z</time>
        <extensions>
          <ns3:TrackPointExtension>
            <ns3:atemp>24.0</ns3:atemp>
          </ns3:TrackPointExtension>
        </extensions>
      </trkpt>
      <trkpt lat="42.52011847682297229766845703125" lon="20.15884316526353359222412109375">
        <ele>1821.4000244140625</ele>
        <time>2026-06-20T09:04:43.000Z</time>
        <extensions>
          <ns3:TrackPointExtension>
            <ns3:atemp>25.0</ns3:atemp>
          </ns3:TrackPointExtension>
        </extensions>
      </trkpt>
      <trkpt lat="42.5201121903955936431884765625" lon="20.158851630985736846923828125">
        <ele>1821.5999755859375</ele>
        <time>2026-06-20T09:04:44.000Z</time>
        <extensions>
          <ns3:TrackPointExtension>
            <ns3:atemp>25.0</ns3:atemp>
          </ns3:TrackPointExtension>
        </extensions>
      </trkpt>
      <trkpt lat="42.5201059877872467041015625" lon="20.15886059962213039398193359375">
        <ele>1821.800048828125</ele>
        <time>2026-06-20T09:04:45.000Z</time>
        <extensions>
          <ns3:TrackPointExtension>
            <ns3:atemp>24.0</ns3:atemp>
          </ns3:TrackPointExtension>
        </extensions>
      </trkpt>
      <trkpt lat="42.5200997851788997650146484375" lon="20.1588615216314792633056640625">
        <ele>1822</ele>
        <time>2026-06-20T09:04:46.000Z</time>
        <extensions>
          <ns3:TrackPointExtension>
            <ns3:atemp>25.0</ns3:atemp>
          </ns3:TrackPointExtension>
        </extensions>
      </trkpt>
      <trkpt lat="42.52009299583733081817626953125" lon="20.15886177308857440948486328125">
        <ele>1822</ele>
        <time>2026-06-20T09:04:47.000Z</time>
        <extensions>
          <ns3:TrackPointExtension>
            <ns3:atemp>25.0</ns3:atemp>
          </ns3:TrackPointExtension>
        </extensions>
      </trkpt>
      <trkpt lat="42.52008595503866672515869140625" lon="20.15886696986854076385498046875">
        <ele>1822.4000244140625</ele>
        <time>2026-06-20T09:04:48.000Z</time>
        <extensions>
          <ns3:TrackPointExtension>
            <ns3:atemp>25.0</ns3:atemp>
          </ns3:TrackPointExtension>
        </extensions>
      </trkpt>
      <trkpt lat="42.520075142383575439453125" lon="20.15887484885752201080322265625">
        <ele>1822.5999755859375</ele>
        <time>2026-06-20T09:04:49.000Z</time>
        <extensions>
          <ns3:TrackPointExtension>
            <ns3:atemp>25.0</ns3:atemp>
          </ns3:TrackPointExtension>
        </extensions>
      </trkpt>
      <trkpt lat="42.52006801776587963104248046875" lon="20.15888071618974208831787109375">
        <ele>1822.5999755859375</ele>
        <time>2026-06-20T09:04:50.000Z</time>
        <extensions>
          <ns3:TrackPointExtension>
            <ns3:atemp>25.0</ns3:atemp>
          </ns3:TrackPointExtension>
        </extensions>
      </trkpt>
      <trkpt lat="42.520065419375896453857421875" lon="20.15887736342847347259521484375">
        <ele>1822.800048828125</ele>
        <time>2026-06-20T09:04:51.000Z</time>
        <extensions>
          <ns3:TrackPointExtension>
            <ns3:atemp>25.0</ns3:atemp>
          </ns3:TrackPointExtension>
        </extensions>
      </trkpt>
      <trkpt lat="42.520065419375896453857421875" lon="20.15887736342847347259521484375">
        <ele>1823</ele>
        <time>2026-06-20T09:04:52.000Z</time>
        <extensions>
          <ns3:TrackPointExtension>
            <ns3:atemp>25.0</ns3:atemp>
          </ns3:TrackPointExtension>
        </extensions>
      </trkpt>
      <trkpt lat="42.52006533555686473846435546875" lon="20.15887769870460033416748046875">
        <ele>1823.199951171875</ele>
        <time>2026-06-20T09:04:53.000Z</time>
        <extensions>
          <ns3:TrackPointExtension>
            <ns3:atemp>25.0</ns3:atemp>
          </ns3:TrackPointExtension>
        </extensions>
      </trkpt>
      <trkpt lat="42.52005829475820064544677734375" lon="20.15889178030192852020263671875">
        <ele>1823.199951171875</ele>
        <time>2026-06-20T09:04:54.000Z</time>
        <extensions>
          <ns3:TrackPointExtension>
            <ns3:atemp>25.0</ns3:atemp>
          </ns3:TrackPointExtension>
        </extensions>
      </trkpt>
      <trkpt lat="42.52004907466471195220947265625" lon="20.1589044369757175445556640625">
        <ele>1823.4000244140625</ele>
        <time>2026-06-20T09:04:55.000Z</time>
        <extensions>
          <ns3:TrackPointExtension>
            <ns3:atemp>25.0</ns3:atemp>
          </ns3:TrackPointExtension>
        </extensions>
      </trkpt>
      <trkpt lat="42.520037591457366943359375" lon="20.15891139395534992218017578125">
        <ele>1823.5999755859375</ele>
        <time>2026-06-20T09:04:56.000Z</time>
        <extensions>
          <ns3:TrackPointExtension>
            <ns3:atemp>25.0</ns3:atemp>
          </ns3:TrackPointExtension>
        </extensions>
      </trkpt>
      <trkpt lat="42.5200263597071170806884765625" lon="20.15891944058239459991455078125">
        <ele>1823.800048828125</ele>
        <time>2026-06-20T09:04:57.000Z</time>
        <extensions>
          <ns3:TrackPointExtension>
            <ns3:atemp>25.0</ns3:atemp>
          </ns3:TrackPointExtension>
        </extensions>
      </trkpt>
      <trkpt lat="42.52001546323299407958984375" lon="20.1589258946478366851806640625">
        <ele>1824</ele>
        <time>2026-06-20T09:04:58.000Z</time>
        <extensions>
          <ns3:TrackPointExtension>
            <ns3:atemp>25.0</ns3:atemp>
          </ns3:TrackPointExtension>
        </extensions>
      </trkpt>
      <trkpt lat="42.520007751882076263427734375" lon="20.1589362882077693939208984375">
        <ele>1824.199951171875</ele>
        <time>2026-06-20T09:04:59.000Z</time>
        <extensions>
          <ns3:TrackPointExtension>
            <ns3:atemp>25.0</ns3:atemp>
          </ns3:TrackPointExtension>
        </extensions>
      </trkpt>
      <trkpt lat="42.51999660395085811614990234375" lon="20.158950202167034149169921875">
        <ele>1824.5999755859375</ele>
        <time>2026-06-20T09:05:00.000Z</time>
        <extensions>
          <ns3:TrackPointExtension>
            <ns3:atemp>25.0</ns3:atemp>
          </ns3:TrackPointExtension>
        </extensions>
      </trkpt>
      <trkpt lat="42.519986294209957122802734375" lon="20.1589719951152801513671875">
        <ele>1824.800048828125</ele>
        <time>2026-06-20T09:05:01.000Z</time>
        <extensions>
          <ns3:TrackPointExtension>
            <ns3:atemp>25.0</ns3:atemp>
          </ns3:TrackPointExtension>
        </extensions>
      </trkpt>
      <trkpt lat="42.51997648738324642181396484375" lon="20.15898548997938632965087890625">
        <ele>1825</ele>
        <time>2026-06-20T09:05:02.000Z</time>
        <extensions>
          <ns3:TrackPointExtension>
            <ns3:atemp>25.0</ns3:atemp>
          </ns3:TrackPointExtension>
        </extensions>
      </trkpt>
      <trkpt lat="42.5199616514146327972412109375" lon="20.1589932851493358612060546875">
        <ele>1825.4000244140625</ele>
        <time>2026-06-20T09:05:03.000Z</time>
        <extensions>
          <ns3:TrackPointExtension>
            <ns3:atemp>25.0</ns3:atemp>
          </ns3:TrackPointExtension>
        </extensions>
      </trkpt>
      <trkpt lat="42.51995469443500041961669921875" lon="20.159003846347332000732421875">
        <ele>1825.5999755859375</ele>
        <time>2026-06-20T09:05:04.000Z</time>
        <extensions>
          <ns3:TrackPointExtension>
            <ns3:atemp>25.0</ns3:atemp>
          </ns3:TrackPointExtension>
        </extensions>
      </trkpt>
      <trkpt lat="42.51994430087506771087646484375" lon="20.15900619328022003173828125">
        <ele>1825.800048828125</ele>
        <time>2026-06-20T09:05:05.000Z</time>
        <extensions>
          <ns3:TrackPointExtension>
            <ns3:atemp>25.0</ns3:atemp>
          </ns3:TrackPointExtension>
        </extensions>
      </trkpt>
      <trkpt lat="42.51993340440094470977783203125" lon="20.1590070314705371856689453125">
        <ele>1826</ele>
        <time>2026-06-20T09:05:06.000Z</time>
        <extensions>
          <ns3:TrackPointExtension>
            <ns3:atemp>25.0</ns3:atemp>
          </ns3:TrackPointExtension>
        </extensions>
      </trkpt>
      <trkpt lat="42.519923262298107147216796875" lon="20.15901088714599609375">
        <ele>1826.4000244140625</ele>
        <time>2026-06-20T09:05:07.000Z</time>
        <extensions>
          <ns3:TrackPointExtension>
            <ns3:atemp>25.0</ns3:atemp>
          </ns3:TrackPointExtension>
        </extensions>
      </trkpt>
      <trkpt lat="42.51991513185203075408935546875" lon="20.1590090431272983551025390625">
        <ele>1826.5999755859375</ele>
        <time>2026-06-20T09:05:08.000Z</time>
        <extensions>
          <ns3:TrackPointExtension>
            <ns3:atemp>25.0</ns3:atemp>
          </ns3:TrackPointExtension>
        </extensions>
      </trkpt>
      <trkpt lat="42.51990574412047863006591796875" lon="20.15900619328022003173828125">
        <ele>1826.800048828125</ele>
        <time>2026-06-20T09:05:09.000Z</time>
        <extensions>
          <ns3:TrackPointExtension>
            <ns3:atemp>25.0</ns3:atemp>
          </ns3:TrackPointExtension>
        </extensions>
      </trkpt>
      <trkpt lat="42.51989468000829219818115234375" lon="20.1590077020227909088134765625">
        <ele>1827</ele>
        <time>2026-06-20T09:05:10.000Z</time>
        <extensions>
          <ns3:TrackPointExtension>
            <ns3:atemp>25.0</ns3:atemp>
          </ns3:TrackPointExtension>
        </extensions>
      </trkpt>
      <trkpt lat="42.5198815204203128814697265625" lon="20.15900828875601291656494140625">
        <ele>1827.4000244140625</ele>
        <time>2026-06-20T09:05:11.000Z</time>
        <extensions>
          <ns3:TrackPointExtension>
            <ns3:atemp>25.0</ns3:atemp>
          </ns3:TrackPointExtension>
        </extensions>
      </trkpt>
      <trkpt lat="42.51985847018659114837646484375" lon="20.15901164151728153228759765625">
        <ele>1827.5999755859375</ele>
        <time>2026-06-20T09:05:12.000Z</time>
        <extensions>
          <ns3:TrackPointExtension>
            <ns3:atemp>25.0</ns3:atemp>
          </ns3:TrackPointExtension>
        </extensions>
      </trkpt>
      <trkpt lat="42.51983785070478916168212890625" lon="20.1590150780975818634033203125">
        <ele>1827.800048828125</ele>
        <time>2026-06-20T09:05:13.000Z</time>
        <extensions>
          <ns3:TrackPointExtension>
            <ns3:atemp>25.0</ns3:atemp>
          </ns3:TrackPointExtension>
        </extensions>
      </trkpt>
      <trkpt lat="42.51981806941330432891845703125" lon="20.1590184308588504791259765625">
        <ele>1828</ele>
        <time>2026-06-20T09:05:14.000Z</time>
        <extensions>
          <ns3:TrackPointExtension>
            <ns3:atemp>25.0</ns3:atemp>
          </ns3:TrackPointExtension>
        </extensions>
      </trkpt>
      <trkpt lat="42.51980415545403957366943359375" lon="20.1590197719633579254150390625">
        <ele>1828.4000244140625</ele>
        <time>2026-06-20T09:05:15.000Z</time>
        <extensions>
          <ns3:TrackPointExtension>
            <ns3:atemp>25.0</ns3:atemp>
          </ns3:TrackPointExtension>
        </extensions>
      </trkpt>
      <trkpt lat="42.51978705637156963348388671875" lon="20.15902756713330745697021484375">
        <ele>1828.4000244140625</ele>
        <time>2026-06-20T09:05:16.000Z</time>
        <extensions>
          <ns3:TrackPointExtension>
            <ns3:atemp>25.0</ns3:atemp>
          </ns3:TrackPointExtension>
        </extensions>
      </trkpt>
      <trkpt lat="42.51977398060262203216552734375" lon="20.159024298191070556640625">
        <ele>1828.800048828125</ele>
        <time>2026-06-20T09:05:17.000Z</time>
        <extensions>
          <ns3:TrackPointExtension>
            <ns3:atemp>25.0</ns3:atemp>
          </ns3:TrackPointExtension>
        </extensions>
      </trkpt>
      <trkpt lat="42.5197614915668964385986328125" lon="20.1590202748775482177734375">
        <ele>1829.4000244140625</ele>
        <time>2026-06-20T09:05:18.000Z</time>
        <extensions>
          <ns3:TrackPointExtension>
            <ns3:atemp>25.0</ns3:atemp>
          </ns3:TrackPointExtension>
        </extensions>
      </trkpt>
      <trkpt lat="42.51975000835955142974853515625" lon="20.15902220271527767181396484375">
        <ele>1829.800048828125</ele>
        <time>2026-06-20T09:05:19.000Z</time>
        <extensions>
          <ns3:TrackPointExtension>
            <ns3:atemp>25.0</ns3:atemp>
          </ns3:TrackPointExtension>
        </extensions>
      </trkpt>
      <trkpt lat="42.51973676495254039764404296875" lon="20.15902387909591197967529296875">
        <ele>1830.4000244140625</ele>
        <time>2026-06-20T09:05:20.000Z</time>
        <extensions>
          <ns3:TrackPointExtension>
            <ns3:atemp>25.0</ns3:atemp>
          </ns3:TrackPointExtension>
        </extensions>
      </trkpt>
      <trkpt lat="42.51972687430679798126220703125" lon="20.15902052633464336395263671875">
        <ele>1830.800048828125</ele>
        <time>2026-06-20T09:05:21.000Z</time>
        <extensions>
          <ns3:TrackPointExtension>
            <ns3:atemp>25.0</ns3:atemp>
          </ns3:TrackPointExtension>
        </extensions>
      </trkpt>
      <trkpt lat="42.519714049994945526123046875" lon="20.15901784412562847137451171875">
        <ele>1831.4000244140625</ele>
        <time>2026-06-20T09:05:22.000Z</time>
        <extensions>
          <ns3:TrackPointExtension>
            <ns3:atemp>25.0</ns3:atemp>
          </ns3:TrackPointExtension>
        </extensions>
      </trkpt>
      <trkpt lat="42.519714049994945526123046875" lon="20.15901784412562847137451171875">
        <ele>1831.800048828125</ele>
        <time>2026-06-20T09:05:23.000Z</time>
        <extensions>
          <ns3:TrackPointExtension>
            <ns3:atemp>25.0</ns3:atemp>
          </ns3:TrackPointExtension>
        </extensions>
      </trkpt>
      <trkpt lat="42.51968915574252605438232421875" lon="20.159029327332973480224609375">
        <ele>1832</ele>
        <time>2026-06-20T09:05:24.000Z</time>
        <extensions>
          <ns3:TrackPointExtension>
            <ns3:atemp>25.0</ns3:atemp>
          </ns3:TrackPointExtension>
        </extensions>
      </trkpt>
      <trkpt lat="42.51967272721230983734130859375" lon="20.15904047526419162750244140625">
        <ele>1832.4000244140625</ele>
        <time>2026-06-20T09:05:25.000Z</time>
        <extensions>
          <ns3:TrackPointExtension>
            <ns3:atemp>25.0</ns3:atemp>
          </ns3:TrackPointExtension>
        </extensions>
      </trkpt>
      <trkpt lat="42.51965478993952274322509765625" lon="20.15905137173831462860107421875">
        <ele>1832.5999755859375</ele>
        <time>2026-06-20T09:05:26.000Z</time>
        <extensions>
          <ns3:TrackPointExtension>
            <ns3:atemp>25.0</ns3:atemp>
          </ns3:TrackPointExtension>
        </extensions>
      </trkpt>
      <trkpt lat="42.519634924829006195068359375" lon="20.15906008891761302947998046875">
        <ele>1832.800048828125</ele>
        <time>2026-06-20T09:05:27.000Z</time>
        <extensions>
          <ns3:TrackPointExtension>
            <ns3:atemp>25.0</ns3:atemp>
          </ns3:TrackPointExtension>
        </extensions>
      </trkpt>
      <trkpt lat="42.51961740665137767791748046875" lon="20.15906629152595996856689453125">
        <ele>1833.199951171875</ele>
        <time>2026-06-20T09:05:28.000Z</time>
        <extensions>
          <ns3:TrackPointExtension>
            <ns3:atemp>25.0</ns3:atemp>
          </ns3:TrackPointExtension>
        </extensions>
      </trkpt>
      <trkpt lat="42.51960198394954204559326171875" lon="20.15907668508589267730712890625">
        <ele>1833.5999755859375</ele>
        <time>2026-06-20T09:05:29.000Z</time>
        <extensions>
          <ns3:TrackPointExtension>
            <ns3:atemp>25.0</ns3:atemp>
          </ns3:TrackPointExtension>
        </extensions>
      </trkpt>
      <trkpt lat="42.51958706416189670562744140625" lon="20.15908255241811275482177734375">
        <ele>1834</ele>
        <time>2026-06-20T09:05:30.000Z</time>
        <extensions>
          <ns3:TrackPointExtension>
            <ns3:atemp>25.0</ns3:atemp>
          </ns3:TrackPointExtension>
        </extensions>
      </trkpt>
      <trkpt lat="42.51956845633685588836669921875" lon="20.15908841975033283233642578125">
        <ele>1834.4000244140625</ele>
        <time>2026-06-20T09:05:31.000Z</time>
        <extensions>
          <ns3:TrackPointExtension>
            <ns3:atemp>25.0</ns3:atemp>
          </ns3:TrackPointExtension>
        </extensions>
      </trkpt>
      <trkpt lat="42.5195502676069736480712890625" lon="20.15909529291093349456787109375">
        <ele>1834.800048828125</ele>
        <time>2026-06-20T09:05:32.000Z</time>
        <extensions>
          <ns3:TrackPointExtension>
            <ns3:atemp>25.0</ns3:atemp>
          </ns3:TrackPointExtension>
        </extensions>
      </trkpt>
      <trkpt lat="42.51953400671482086181640625" lon="20.159104764461517333984375">
        <ele>1835.4000244140625</ele>
        <time>2026-06-20T09:05:33.000Z</time>
        <extensions>
          <ns3:TrackPointExtension>
            <ns3:atemp>25.0</ns3:atemp>
          </ns3:TrackPointExtension>
        </extensions>
      </trkpt>
      <trkpt lat="42.519515566527843475341796875" lon="20.15911138616502285003662109375">
        <ele>1835.800048828125</ele>
        <time>2026-06-20T09:05:34.000Z</time>
        <extensions>
          <ns3:TrackPointExtension>
            <ns3:atemp>25.0</ns3:atemp>
          </ns3:TrackPointExtension>
        </extensions>
      </trkpt>
      <trkpt lat="42.5194986350834369659423828125" lon="20.1591143198311328887939453125">
        <ele>1836.199951171875</ele>
        <time>2026-06-20T09:05:35.000Z</time>
        <extensions>
          <ns3:TrackPointExtension>
            <ns3:atemp>25.0</ns3:atemp>
          </ns3:TrackPointExtension>
        </extensions>
      </trkpt>
      <trkpt lat="42.51947977580130100250244140625" lon="20.15911825932562351226806640625">
        <ele>1836.5999755859375</ele>
        <time>2026-06-20T09:05:36.000Z</time>
        <extensions>
          <ns3:TrackPointExtension>
            <ns3:atemp>25.0</ns3:atemp>
          </ns3:TrackPointExtension>
        </extensions>
      </trkpt>
      <trkpt lat="42.519461251795291900634765625" lon="20.1591196842491626739501953125">
        <ele>1836.800048828125</ele>
        <time>2026-06-20T09:05:37.000Z</time>
        <extensions>
          <ns3:TrackPointExtension>
            <ns3:atemp>25.0</ns3:atemp>
          </ns3:TrackPointExtension>
        </extensions>
      </trkpt>
      <trkpt lat="42.51944473944604396820068359375" lon="20.15911490656435489654541015625">
        <ele>1837.4000244140625</ele>
        <time>2026-06-20T09:05:38.000Z</time>
        <extensions>
          <ns3:TrackPointExtension>
            <ns3:atemp>25.0</ns3:atemp>
          </ns3:TrackPointExtension>
        </extensions>
      </trkpt>
      <trkpt lat="42.51942914910614490509033203125" lon="20.15910401009023189544677734375">
        <ele>1837.800048828125</ele>
        <time>2026-06-20T09:05:39.000Z</time>
        <extensions>
          <ns3:TrackPointExtension>
            <ns3:atemp>25.0</ns3:atemp>
          </ns3:TrackPointExtension>
        </extensions>
      </trkpt>
      <trkpt lat="42.5194218568503856658935546875" lon="20.159084312617778778076171875">
        <ele>1838.199951171875</ele>
        <time>2026-06-20T09:05:40.000Z</time>
        <extensions>
          <ns3:TrackPointExtension>
            <ns3:atemp>25.0</ns3:atemp>
          </ns3:TrackPointExtension>
        </extensions>
      </trkpt>
      <trkpt lat="42.51942428760230541229248046875" lon="20.15906386077404022216796875">
        <ele>1838.4000244140625</ele>
        <time>2026-06-20T09:05:41.000Z</time>
        <extensions>
          <ns3:TrackPointExtension>
            <ns3:atemp>25.0</ns3:atemp>
          </ns3:TrackPointExtension>
        </extensions>
      </trkpt>
      <trkpt lat="42.51943568699061870574951171875" lon="20.1590432412922382354736328125">
        <ele>1838.800048828125</ele>
        <time>2026-06-20T09:05:42.000Z</time>
        <extensions>
          <ns3:TrackPointExtension>
            <ns3:atemp>25.0</ns3:atemp>
          </ns3:TrackPointExtension>
        </extensions>
      </trkpt>
      <trkpt lat="42.51944675110280513763427734375" lon="20.1590271480381488800048828125">
        <ele>1839.199951171875</ele>
        <time>2026-06-20T09:05:43.000Z</time>
        <extensions>
          <ns3:TrackPointExtension>
            <ns3:atemp>25.0</ns3:atemp>
          </ns3:TrackPointExtension>
        </extensions>
      </trkpt>
      <trkpt lat="42.51945680938661098480224609375" lon="20.1590123958885669708251953125">
        <ele>1839.5999755859375</ele>
        <time>2026-06-20T09:05:44.000Z</time>
        <extensions>
          <ns3:TrackPointExtension>
            <ns3:atemp>25.0</ns3:atemp>
          </ns3:TrackPointExtension>
        </extensions>
      </trkpt>
      <trkpt lat="42.519463934004306793212890625" lon="20.1589934527873992919921875">
        <ele>1840</ele>
        <time>2026-06-20T09:05:45.000Z</time>
        <extensions>
          <ns3:TrackPointExtension>
            <ns3:atemp>25.0</ns3:atemp>
          </ns3:TrackPointExtension>
        </extensions>
      </trkpt>
      <trkpt lat="42.51946561038494110107421875" lon="20.15897660516202449798583984375">
        <ele>1840.4000244140625</ele>
        <time>2026-06-20T09:05:46.000Z</time>
        <extensions>
          <ns3:TrackPointExtension>
            <ns3:atemp>25.0</ns3:atemp>
          </ns3:TrackPointExtension>
        </extensions>
      </trkpt>
      <trkpt lat="42.5194711424410343170166015625" lon="20.158960931003093719482421875">
        <ele>1840.5999755859375</ele>
        <time>2026-06-20T09:05:47.000Z</time>
        <extensions>
          <ns3:TrackPointExtension>
            <ns3:atemp>25.0</ns3:atemp>
          </ns3:TrackPointExtension>
        </extensions>
      </trkpt>
      <trkpt lat="42.519476003944873809814453125" lon="20.1589443348348140716552734375">
        <ele>1841.199951171875</ele>
        <time>2026-06-20T09:05:48.000Z</time>
        <extensions>
          <ns3:TrackPointExtension>
            <ns3:atemp>25.0</ns3:atemp>
          </ns3:TrackPointExtension>
        </extensions>
      </trkpt>
      <trkpt lat="42.519478686153888702392578125" lon="20.15892262570559978485107421875">
        <ele>1841.4000244140625</ele>
        <time>2026-06-20T09:05:49.000Z</time>
        <extensions>
          <ns3:TrackPointExtension>
            <ns3:atemp>25.0</ns3:atemp>
          </ns3:TrackPointExtension>
        </extensions>
      </trkpt>
      <trkpt lat="42.519482038915157318115234375" lon="20.15890284441411495208740234375">
        <ele>1841.800048828125</ele>
        <time>2026-06-20T09:05:50.000Z</time>
        <extensions>
          <ns3:TrackPointExtension>
            <ns3:atemp>25.0</ns3:atemp>
          </ns3:TrackPointExtension>
        </extensions>
      </trkpt>
      <trkpt lat="42.51949184574186801910400390625" lon="20.15888323076069355010986328125">
        <ele>1842</ele>
        <time>2026-06-20T09:05:51.000Z</time>
        <extensions>
          <ns3:TrackPointExtension>
            <ns3:atemp>25.0</ns3:atemp>
          </ns3:TrackPointExtension>
        </extensions>
      </trkpt>
      <trkpt lat="42.519501149654388427734375" lon="20.15886537730693817138671875">
        <ele>1842.4000244140625</ele>
        <time>2026-06-20T09:05:52.000Z</time>
        <extensions>
          <ns3:TrackPointExtension>
            <ns3:atemp>25.0</ns3:atemp>
          </ns3:TrackPointExtension>
        </extensions>
      </trkpt>
      <trkpt lat="42.5195060111582279205322265625" lon="20.1588487811386585235595703125">
        <ele>1842.800048828125</ele>
        <time>2026-06-20T09:05:53.000Z</time>
        <extensions>
          <ns3:TrackPointExtension>
            <ns3:atemp>25.0</ns3:atemp>
          </ns3:TrackPointExtension>
        </extensions>
      </trkpt>
      <trkpt lat="42.5195143930613994598388671875" lon="20.1588336937129497528076171875">
        <ele>1843.199951171875</ele>
        <time>2026-06-20T09:05:54.000Z</time>
        <extensions>
          <ns3:TrackPointExtension>
            <ns3:atemp>25.0</ns3:atemp>
          </ns3:TrackPointExtension>
        </extensions>
      </trkpt>
      <trkpt lat="42.51952403225004673004150390625" lon="20.15881332568824291229248046875">
        <ele>1843.5999755859375</ele>
        <time>2026-06-20T09:05:55.000Z</time>
        <extensions>
          <ns3:TrackPointExtension>
            <ns3:atemp>25.0</ns3:atemp>
          </ns3:TrackPointExtension>
        </extensions>
      </trkpt>
      <trkpt lat="42.51953476108610630035400390625" lon="20.15879035927355289459228515625">
        <ele>1844</ele>
        <time>2026-06-20T09:05:56.000Z</time>
        <extensions>
          <ns3:TrackPointExtension>
            <ns3:atemp>25.0</ns3:atemp>
          </ns3:TrackPointExtension>
        </extensions>
      </trkpt>
      <trkpt lat="42.5195427238941192626953125" lon="20.15877443365752696990966796875">
        <ele>1844.4000244140625</ele>
        <time>2026-06-20T09:05:57.000Z</time>
        <extensions>
          <ns3:TrackPointExtension>
            <ns3:atemp>25.0</ns3:atemp>
          </ns3:TrackPointExtension>
        </extensions>
      </trkpt>
      <trkpt lat="42.519547082483768463134765625" lon="20.1587528921663761138916015625">
        <ele>1845.199951171875</ele>
        <time>2026-06-20T09:05:58.000Z</time>
        <extensions>
          <ns3:TrackPointExtension>
            <ns3:atemp>25.0</ns3:atemp>
          </ns3:TrackPointExtension>
        </extensions>
      </trkpt>
      <trkpt lat="42.5195479206740856170654296875" lon="20.15872657299041748046875">
        <ele>1845.800048828125</ele>
        <time>2026-06-20T09:05:59.000Z</time>
        <extensions>
          <ns3:TrackPointExtension>
            <ns3:atemp>25.0</ns3:atemp>
          </ns3:TrackPointExtension>
        </extensions>
      </trkpt>
      <trkpt lat="42.5195509381592273712158203125" lon="20.15870117582380771636962890625">
        <ele>1846.4000244140625</ele>
        <time>2026-06-20T09:06:00.000Z</time>
        <extensions>
          <ns3:TrackPointExtension>
            <ns3:atemp>25.0</ns3:atemp>
          </ns3:TrackPointExtension>
        </extensions>
      </trkpt>
      <trkpt lat="42.51954884268343448638916015625" lon="20.15868877060711383819580078125">
        <ele>1846.800048828125</ele>
        <time>2026-06-20T09:06:01.000Z</time>
        <extensions>
          <ns3:TrackPointExtension>
            <ns3:atemp>25.0</ns3:atemp>
          </ns3:TrackPointExtension>
        </extensions>
      </trkpt>
      <trkpt lat="42.51954833976924419403076171875" lon="20.15866898931562900543212890625">
        <ele>1847.199951171875</ele>
        <time>2026-06-20T09:06:02.000Z</time>
        <extensions>
          <ns3:TrackPointExtension>
            <ns3:atemp>25.0</ns3:atemp>
          </ns3:TrackPointExtension>
        </extensions>
      </trkpt>
      <trkpt lat="42.51954917795956134796142578125" lon="20.1586439274251461029052734375">
        <ele>1847.5999755859375</ele>
        <time>2026-06-20T09:06:03.000Z</time>
        <extensions>
          <ns3:TrackPointExtension>
            <ns3:atemp>25.0</ns3:atemp>
          </ns3:TrackPointExtension>
        </extensions>
      </trkpt>
      <trkpt lat="42.5195502676069736480712890625" lon="20.158619619905948638916015625">
        <ele>1847.800048828125</ele>
        <time>2026-06-20T09:06:04.000Z</time>
        <extensions>
          <ns3:TrackPointExtension>
            <ns3:atemp>25.0</ns3:atemp>
          </ns3:TrackPointExtension>
        </extensions>
      </trkpt>
      <trkpt lat="42.51955035142600536346435546875" lon="20.1585966534912586212158203125">
        <ele>1848.199951171875</ele>
        <time>2026-06-20T09:06:05.000Z</time>
        <extensions>
          <ns3:TrackPointExtension>
            <ns3:atemp>25.0</ns3:atemp>
          </ns3:TrackPointExtension>
        </extensions>
      </trkpt>
      <trkpt lat="42.5195469148457050323486328125" lon="20.15857963822782039642333984375">
        <ele>1848.4000244140625</ele>
        <time>2026-06-20T09:06:06.000Z</time>
        <extensions>
          <ns3:TrackPointExtension>
            <ns3:atemp>25.0</ns3:atemp>
          </ns3:TrackPointExtension>
        </extensions>
      </trkpt>
      <trkpt lat="42.5195509381592273712158203125" lon="20.1585634611546993255615234375">
        <ele>1848.800048828125</ele>
        <time>2026-06-20T09:06:07.000Z</time>
        <extensions>
          <ns3:TrackPointExtension>
            <ns3:atemp>25.0</ns3:atemp>
          </ns3:TrackPointExtension>
        </extensions>
      </trkpt>
      <trkpt lat="42.51955236308276653289794921875" lon="20.1585416682064533233642578125">
        <ele>1849.199951171875</ele>
        <time>2026-06-20T09:06:08.000Z</time>
        <extensions>
          <ns3:TrackPointExtension>
            <ns3:atemp>25.0</ns3:atemp>
          </ns3:TrackPointExtension>
        </extensions>
      </trkpt>
      <trkpt lat="42.5195549614727497100830078125" lon="20.158520378172397613525390625">
        <ele>1849.5999755859375</ele>
        <time>2026-06-20T09:06:09.000Z</time>
        <extensions>
          <ns3:TrackPointExtension>
            <ns3:atemp>25.0</ns3:atemp>
          </ns3:TrackPointExtension>
        </extensions>
      </trkpt>
      <trkpt lat="42.51955546438694000244140625" lon="20.15849615447223186492919921875">
        <ele>1850</ele>
        <time>2026-06-20T09:06:10.000Z</time>
        <extensions>
          <ns3:TrackPointExtension>
            <ns3:atemp>25.0</ns3:atemp>
          </ns3:TrackPointExtension>
        </extensions>
      </trkpt>
      <trkpt lat="42.519554793834686279296875" lon="20.15847318805754184722900390625">
        <ele>1850.4000244140625</ele>
        <time>2026-06-20T09:06:11.000Z</time>
        <extensions>
          <ns3:TrackPointExtension>
            <ns3:atemp>25.0</ns3:atemp>
          </ns3:TrackPointExtension>
        </extensions>
      </trkpt>
      <trkpt lat="42.5195546261966228485107421875" lon="20.15845273621380329132080078125">
        <ele>1850.800048828125</ele>
        <time>2026-06-20T09:06:12.000Z</time>
        <extensions>
          <ns3:TrackPointExtension>
            <ns3:atemp>25.0</ns3:atemp>
          </ns3:TrackPointExtension>
        </extensions>
      </trkpt>
      <trkpt lat="42.51955546438694000244140625" lon="20.15843144617974758148193359375">
        <ele>1851.199951171875</ele>
        <time>2026-06-20T09:06:13.000Z</time>
        <extensions>
          <ns3:TrackPointExtension>
            <ns3:atemp>25.0</ns3:atemp>
          </ns3:TrackPointExtension>
        </extensions>
      </trkpt>
      <trkpt lat="42.51955320127308368682861328125" lon="20.15840847976505756378173828125">
        <ele>1851.5999755859375</ele>
        <time>2026-06-20T09:06:14.000Z</time>
        <extensions>
          <ns3:TrackPointExtension>
            <ns3:atemp>25.0</ns3:atemp>
          </ns3:TrackPointExtension>
        </extensions>
      </trkpt>
      <trkpt lat="42.519554458558559417724609375" lon="20.1583864353597164154052734375">
        <ele>1852</ele>
        <time>2026-06-20T09:06:15.000Z</time>
        <extensions>
          <ns3:TrackPointExtension>
            <ns3:atemp>25.0</ns3:atemp>
          </ns3:TrackPointExtension>
        </extensions>
      </trkpt>
      <trkpt lat="42.51955420710146427154541015625" lon="20.15836573205888271331787109375">
        <ele>1852.199951171875</ele>
        <time>2026-06-20T09:06:16.000Z</time>
        <extensions>
          <ns3:TrackPointExtension>
            <ns3:atemp>25.0</ns3:atemp>
          </ns3:TrackPointExtension>
        </extensions>
      </trkpt>
      <trkpt lat="42.51955839805305004119873046875" lon="20.15834477730095386505126953125">
        <ele>1852.5999755859375</ele>
        <time>2026-06-20T09:06:17.000Z</time>
        <extensions>
          <ns3:TrackPointExtension>
            <ns3:atemp>25.0</ns3:atemp>
          </ns3:TrackPointExtension>
        </extensions>
      </trkpt>
      <trkpt lat="42.519567869603633880615234375" lon="20.1583207212388515472412109375">
        <ele>1853</ele>
        <time>2026-06-20T09:06:18.000Z</time>
        <extensions>
          <ns3:TrackPointExtension>
            <ns3:atemp>25.0</ns3:atemp>
          </ns3:TrackPointExtension>
        </extensions>
      </trkpt>
      <trkpt lat="42.51957549713551998138427734375" lon="20.15829951502382755279541015625">
        <ele>1853.4000244140625</ele>
        <time>2026-06-20T09:06:19.000Z</time>
        <extensions>
          <ns3:TrackPointExtension>
            <ns3:atemp>25.0</ns3:atemp>
          </ns3:TrackPointExtension>
        </extensions>
      </trkpt>
      <trkpt lat="42.5195794366300106048583984375" lon="20.158274956047534942626953125">
        <ele>1853.800048828125</ele>
        <time>2026-06-20T09:06:20.000Z</time>
        <extensions>
          <ns3:TrackPointExtension>
            <ns3:atemp>25.0</ns3:atemp>
          </ns3:TrackPointExtension>
        </extensions>
      </trkpt>
      <trkpt lat="42.51957884989678859710693359375" lon="20.15825291164219379425048828125">
        <ele>1854.199951171875</ele>
        <time>2026-06-20T09:06:21.000Z</time>
        <extensions>
          <ns3:TrackPointExtension>
            <ns3:atemp>25.0</ns3:atemp>
          </ns3:TrackPointExtension>
        </extensions>
      </trkpt>
      <trkpt lat="42.51957465894520282745361328125" lon="20.158236064016819000244140625">
        <ele>1854.5999755859375</ele>
        <time>2026-06-20T09:06:22.000Z</time>
        <extensions>
          <ns3:TrackPointExtension>
            <ns3:atemp>25.0</ns3:atemp>
          </ns3:TrackPointExtension>
        </extensions>
      </trkpt>
      <trkpt lat="42.51956216990947723388671875" lon="20.158217288553714752197265625">
        <ele>1855</ele>
        <time>2026-06-20T09:06:23.000Z</time>
        <extensions>
          <ns3:TrackPointExtension>
            <ns3:atemp>25.0</ns3:atemp>
          </ns3:TrackPointExtension>
        </extensions>
      </trkpt>
      <trkpt lat="42.5195502676069736480712890625" lon="20.15820018947124481201171875">
        <ele>1855.4000244140625</ele>
        <time>2026-06-20T09:06:24.000Z</time>
        <extensions>
          <ns3:TrackPointExtension>
            <ns3:atemp>25.0</ns3:atemp>
          </ns3:TrackPointExtension>
        </extensions>
      </trkpt>
      <trkpt lat="42.5195388682186603546142578125" lon="20.15817739069461822509765625">
        <ele>1855.5999755859375</ele>
        <time>2026-06-20T09:06:25.000Z</time>
        <extensions>
          <ns3:TrackPointExtension>
            <ns3:atemp>25.0</ns3:atemp>
          </ns3:TrackPointExtension>
        </extensions>
      </trkpt>
      <trkpt lat="42.51953442580997943878173828125" lon="20.15815752558410167694091796875">
        <ele>1856</ele>
        <time>2026-06-20T09:06:26.000Z</time>
        <extensions>
          <ns3:TrackPointExtension>
            <ns3:atemp>25.0</ns3:atemp>
          </ns3:TrackPointExtension>
        </extensions>
      </trkpt>
      <trkpt lat="42.5195314921438694000244140625" lon="20.15813288278877735137939453125">
        <ele>1856.4000244140625</ele>
        <time>2026-06-20T09:06:27.000Z</time>
        <extensions>
          <ns3:TrackPointExtension>
            <ns3:atemp>25.0</ns3:atemp>
          </ns3:TrackPointExtension>
        </extensions>
      </trkpt>
      <trkpt lat="42.519532330334186553955078125" lon="20.1581105031073093414306640625">
        <ele>1857</ele>
        <time>2026-06-20T09:06:28.000Z</time>
        <extensions>
          <ns3:TrackPointExtension>
            <ns3:atemp>25.0</ns3:atemp>
          </ns3:TrackPointExtension>
        </extensions>
      </trkpt>
      <trkpt lat="42.5195338390767574310302734375" lon="20.1580866985023021697998046875">
        <ele>1857.199951171875</ele>
        <time>2026-06-20T09:06:29.000Z</time>
        <extensions>
          <ns3:TrackPointExtension>
            <ns3:atemp>25.0</ns3:atemp>
          </ns3:TrackPointExtension>
        </extensions>
      </trkpt>
      <trkpt lat="42.519535012543201446533203125" lon="20.158067755401134490966796875">
        <ele>1857.5999755859375</ele>
        <time>2026-06-20T09:06:30.000Z</time>
        <extensions>
          <ns3:TrackPointExtension>
            <ns3:atemp>25.0</ns3:atemp>
          </ns3:TrackPointExtension>
        </extensions>
      </trkpt>
      <trkpt lat="42.51953308470547199249267578125" lon="20.15805258415639400482177734375">
        <ele>1857.800048828125</ele>
        <time>2026-06-20T09:06:31.000Z</time>
        <extensions>
          <ns3:TrackPointExtension>
            <ns3:atemp>25.0</ns3:atemp>
          </ns3:TrackPointExtension>
        </extensions>
      </trkpt>
      <trkpt lat="42.519532330334186553955078125" lon="20.158031880855560302734375">
        <ele>1858.199951171875</ele>
        <time>2026-06-20T09:06:32.000Z</time>
        <extensions>
          <ns3:TrackPointExtension>
            <ns3:atemp>25.0</ns3:atemp>
          </ns3:TrackPointExtension>
        </extensions>
      </trkpt>
      <trkpt lat="42.51952604390680789947509765625" lon="20.15801821835339069366455078125">
        <ele>1858.5999755859375</ele>
        <time>2026-06-20T09:06:33.000Z</time>
        <extensions>
          <ns3:TrackPointExtension>
            <ns3:atemp>25.0</ns3:atemp>
          </ns3:TrackPointExtension>
        </extensions>
      </trkpt>
      <trkpt lat="42.51952721737325191497802734375" lon="20.15800631605088710784912109375">
        <ele>1859</ele>
        <time>2026-06-20T09:06:34.000Z</time>
        <extensions>
          <ns3:TrackPointExtension>
            <ns3:atemp>25.0</ns3:atemp>
          </ns3:TrackPointExtension>
        </extensions>
      </trkpt>
      <trkpt lat="42.5195308215916156768798828125" lon="20.1580045558512210845947265625">
        <ele>1859.4000244140625</ele>
        <time>2026-06-20T09:06:35.000Z</time>
        <extensions>
          <ns3:TrackPointExtension>
            <ns3:atemp>25.0</ns3:atemp>
          </ns3:TrackPointExtension>
        </extensions>
      </trkpt>
      <trkpt lat="42.5195308215916156768798828125" lon="20.1580045558512210845947265625">
        <ele>1859.800048828125</ele>
        <time>2026-06-20T09:06:36.000Z</time>
        <extensions>
          <ns3:TrackPointExtension>
            <ns3:atemp>25.0</ns3:atemp>
          </ns3:TrackPointExtension>
        </extensions>
      </trkpt>
      <trkpt lat="42.5195308215916156768798828125" lon="20.1580045558512210845947265625">
        <ele>1860.199951171875</ele>
        <time>2026-06-20T09:06:37.000Z</time>
        <extensions>
          <ns3:TrackPointExtension>
            <ns3:atemp>25.0</ns3:atemp>
          </ns3:TrackPointExtension>
        </extensions>
      </trkpt>
      <trkpt lat="42.5195308215916156768798828125" lon="20.1580045558512210845947265625">
        <ele>1860.5999755859375</ele>
        <time>2026-06-20T09:06:38.000Z</time>
        <extensions>
          <ns3:TrackPointExtension>
            <ns3:atemp>25.0</ns3:atemp>
          </ns3:TrackPointExtension>
        </extensions>
      </trkpt>
      <trkpt lat="42.5195308215916156768798828125" lon="20.1580045558512210845947265625">
        <ele>1860.800048828125</ele>
        <time>2026-06-20T09:06:39.000Z</time>
        <extensions>
          <ns3:TrackPointExtension>
            <ns3:atemp>25.0</ns3:atemp>
          </ns3:TrackPointExtension>
        </extensions>
      </trkpt>
      <trkpt lat="42.5195308215916156768798828125" lon="20.1580045558512210845947265625">
        <ele>1861</ele>
        <time>2026-06-20T09:06:40.000Z</time>
        <extensions>
          <ns3:TrackPointExtension>
            <ns3:atemp>25.0</ns3:atemp>
          </ns3:TrackPointExtension>
        </extensions>
      </trkpt>
      <trkpt lat="42.5195308215916156768798828125" lon="20.1580045558512210845947265625">
        <ele>1861</ele>
        <time>2026-06-20T09:06:41.000Z</time>
        <extensions>
          <ns3:TrackPointExtension>
            <ns3:atemp>25.0</ns3:atemp>
          </ns3:TrackPointExtension>
        </extensions>
      </trkpt>
      <trkpt lat="42.5195308215916156768798828125" lon="20.1580045558512210845947265625">
        <ele>1861</ele>
        <time>2026-06-20T09:06:42.000Z</time>
        <extensions>
          <ns3:TrackPointExtension>
            <ns3:atemp>25.0</ns3:atemp>
          </ns3:TrackPointExtension>
        </extensions>
      </trkpt>
      <trkpt lat="42.5195308215916156768798828125" lon="20.1580045558512210845947265625">
        <ele>1860.800048828125</ele>
        <time>2026-06-20T09:06:43.000Z</time>
        <extensions>
          <ns3:TrackPointExtension>
            <ns3:atemp>25.0</ns3:atemp>
          </ns3:TrackPointExtension>
        </extensions>
      </trkpt>
      <trkpt lat="42.5195308215916156768798828125" lon="20.1580045558512210845947265625">
        <ele>1860.800048828125</ele>
        <time>2026-06-20T09:06:44.000Z</time>
        <extensions>
          <ns3:TrackPointExtension>
            <ns3:atemp>25.0</ns3:atemp>
          </ns3:TrackPointExtension>
        </extensions>
      </trkpt>
      <trkpt lat="42.5195308215916156768798828125" lon="20.1580045558512210845947265625">
        <ele>1860.800048828125</ele>
        <time>2026-06-20T09:06:45.000Z</time>
        <extensions>
          <ns3:TrackPointExtension>
            <ns3:atemp>25.0</ns3:atemp>
          </ns3:TrackPointExtension>
        </extensions>
      </trkpt>
      <trkpt lat="42.5195308215916156768798828125" lon="20.1580045558512210845947265625">
        <ele>1860.800048828125</ele>
        <time>2026-06-20T09:06:46.000Z</time>
        <extensions>
          <ns3:TrackPointExtension>
            <ns3:atemp>25.0</ns3:atemp>
          </ns3:TrackPointExtension>
        </extensions>
      </trkpt>
      <trkpt lat="42.5195308215916156768798828125" lon="20.1580045558512210845947265625">
        <ele>1860.800048828125</ele>
        <time>2026-06-20T09:06:47.000Z</time>
        <extensions>
          <ns3:TrackPointExtension>
            <ns3:atemp>25.0</ns3:atemp>
          </ns3:TrackPointExtension>
        </extensions>
      </trkpt>
      <trkpt lat="42.5195308215916156768798828125" lon="20.1580045558512210845947265625">
        <ele>1860.800048828125</ele>
        <time>2026-06-20T09:06:48.000Z</time>
        <extensions>
          <ns3:TrackPointExtension>
            <ns3:atemp>25.0</ns3:atemp>
          </ns3:TrackPointExtension>
        </extensions>
      </trkpt>
      <trkpt lat="42.5195308215916156768798828125" lon="20.1580045558512210845947265625">
        <ele>1861</ele>
        <time>2026-06-20T09:06:49.000Z</time>
        <extensions>
          <ns3:TrackPointExtension>
            <ns3:atemp>25.0</ns3:atemp>
          </ns3:TrackPointExtension>
        </extensions>
      </trkpt>
      <trkpt lat="42.5195308215916156768798828125" lon="20.1580045558512210845947265625">
        <ele>1861</ele>
        <time>2026-06-20T09:06:50.000Z</time>
        <extensions>
          <ns3:TrackPointExtension>
            <ns3:atemp>25.0</ns3:atemp>
          </ns3:TrackPointExtension>
        </extensions>
      </trkpt>
      <trkpt lat="42.5195308215916156768798828125" lon="20.1580045558512210845947265625">
        <ele>1861</ele>
        <time>2026-06-20T09:06:51.000Z</time>
        <extensions>
          <ns3:TrackPointExtension>
            <ns3:atemp>25.0</ns3:atemp>
          </ns3:TrackPointExtension>
        </extensions>
      </trkpt>
      <trkpt lat="42.5195308215916156768798828125" lon="20.1580045558512210845947265625">
        <ele>1861</ele>
        <time>2026-06-20T09:06:52.000Z</time>
        <extensions>
          <ns3:TrackPointExtension>
            <ns3:atemp>25.0</ns3:atemp>
          </ns3:TrackPointExtension>
        </extensions>
      </trkpt>
      <trkpt lat="42.5195308215916156768798828125" lon="20.1580045558512210845947265625">
        <ele>1861</ele>
        <time>2026-06-20T09:06:53.000Z</time>
        <extensions>
          <ns3:TrackPointExtension>
            <ns3:atemp>25.0</ns3:atemp>
          </ns3:TrackPointExtension>
        </extensions>
      </trkpt>
      <trkpt lat="42.5195308215916156768798828125" lon="20.1580045558512210845947265625">
        <ele>1861</ele>
        <time>2026-06-20T09:06:54.000Z</time>
        <extensions>
          <ns3:TrackPointExtension>
            <ns3:atemp>25.0</ns3:atemp>
          </ns3:TrackPointExtension>
        </extensions>
      </trkpt>
      <trkpt lat="42.5195308215916156768798828125" lon="20.1580045558512210845947265625">
        <ele>1861</ele>
        <time>2026-06-20T09:06:55.000Z</time>
        <extensions>
          <ns3:TrackPointExtension>
            <ns3:atemp>25.0</ns3:atemp>
          </ns3:TrackPointExtension>
        </extensions>
      </trkpt>
      <trkpt lat="42.5195308215916156768798828125" lon="20.1580045558512210845947265625">
        <ele>1861</ele>
        <time>2026-06-20T09:06:56.000Z</time>
        <extensions>
          <ns3:TrackPointExtension>
            <ns3:atemp>25.0</ns3:atemp>
          </ns3:TrackPointExtension>
        </extensions>
      </trkpt>
      <trkpt lat="42.5195308215916156768798828125" lon="20.1580045558512210845947265625">
        <ele>1861</ele>
        <time>2026-06-20T09:06:57.000Z</time>
        <extensions>
          <ns3:TrackPointExtension>
            <ns3:atemp>25.0</ns3:atemp>
          </ns3:TrackPointExtension>
        </extensions>
      </trkpt>
      <trkpt lat="42.5195308215916156768798828125" lon="20.1580045558512210845947265625">
        <ele>1861</ele>
        <time>2026-06-20T09:06:58.000Z</time>
        <extensions>
          <ns3:TrackPointExtension>
            <ns3:atemp>25.0</ns3:atemp>
          </ns3:TrackPointExtension>
        </extensions>
      </trkpt>
      <trkpt lat="42.5195308215916156768798828125" lon="20.1580045558512210845947265625">
        <ele>1861</ele>
        <time>2026-06-20T09:06:59.000Z</time>
        <extensions>
          <ns3:TrackPointExtension>
            <ns3:atemp>25.0</ns3:atemp>
          </ns3:TrackPointExtension>
        </extensions>
      </trkpt>
      <trkpt lat="42.5195308215916156768798828125" lon="20.1580045558512210845947265625">
        <ele>1861</ele>
        <time>2026-06-20T09:07:00.000Z</time>
        <extensions>
          <ns3:TrackPointExtension>
            <ns3:atemp>25.0</ns3:atemp>
          </ns3:TrackPointExtension>
        </extensions>
      </trkpt>
      <trkpt lat="42.5195308215916156768798828125" lon="20.1580045558512210845947265625">
        <ele>1861</ele>
        <time>2026-06-20T09:07:01.000Z</time>
        <extensions>
          <ns3:TrackPointExtension>
            <ns3:atemp>25.0</ns3:atemp>
          </ns3:TrackPointExtension>
        </extensions>
      </trkpt>
      <trkpt lat="42.5195308215916156768798828125" lon="20.1580045558512210845947265625">
        <ele>1861</ele>
        <time>2026-06-20T09:07:02.000Z</time>
        <extensions>
          <ns3:TrackPointExtension>
            <ns3:atemp>25.0</ns3:atemp>
          </ns3:TrackPointExtension>
        </extensions>
      </trkpt>
      <trkpt lat="42.5195308215916156768798828125" lon="20.1580045558512210845947265625">
        <ele>1861</ele>
        <time>2026-06-20T09:07:03.000Z</time>
        <extensions>
          <ns3:TrackPointExtension>
            <ns3:atemp>25.0</ns3:atemp>
          </ns3:TrackPointExtension>
        </extensions>
      </trkpt>
      <trkpt lat="42.5195308215916156768798828125" lon="20.1580045558512210845947265625">
        <ele>1861.199951171875</ele>
        <time>2026-06-20T09:07:04.000Z</time>
        <extensions>
          <ns3:TrackPointExtension>
            <ns3:atemp>25.0</ns3:atemp>
          </ns3:TrackPointExtension>
        </extensions>
      </trkpt>
      <trkpt lat="42.5195308215916156768798828125" lon="20.1580045558512210845947265625">
        <ele>1861.199951171875</ele>
        <time>2026-06-20T09:07:05.000Z</time>
        <extensions>
          <ns3:TrackPointExtension>
            <ns3:atemp>25.0</ns3:atemp>
          </ns3:TrackPointExtension>
        </extensions>
      </trkpt>
      <trkpt lat="42.5195308215916156768798828125" lon="20.1580045558512210845947265625">
        <ele>1861.199951171875</ele>
        <time>2026-06-20T09:07:06.000Z</time>
        <extensions>
          <ns3:TrackPointExtension>
            <ns3:atemp>25.0</ns3:atemp>
          </ns3:TrackPointExtension>
        </extensions>
      </trkpt>
      <trkpt lat="42.5195308215916156768798828125" lon="20.1580045558512210845947265625">
        <ele>1861.199951171875</ele>
        <time>2026-06-20T09:07:07.000Z</time>
        <extensions>
          <ns3:TrackPointExtension>
            <ns3:atemp>25.0</ns3:atemp>
          </ns3:TrackPointExtension>
        </extensions>
      </trkpt>
      <trkpt lat="42.5195308215916156768798828125" lon="20.1580045558512210845947265625">
        <ele>1861</ele>
        <time>2026-06-20T09:07:08.000Z</time>
        <extensions>
          <ns3:TrackPointExtension>
            <ns3:atemp>25.0</ns3:atemp>
          </ns3:TrackPointExtension>
        </extensions>
      </trkpt>
      <trkpt lat="42.5195308215916156768798828125" lon="20.1580045558512210845947265625">
        <ele>1861</ele>
        <time>2026-06-20T09:07:09.000Z</time>
        <extensions>
          <ns3:TrackPointExtension>
            <ns3:atemp>25.0</ns3:atemp>
          </ns3:TrackPointExtension>
        </extensions>
      </trkpt>
      <trkpt lat="42.5195308215916156768798828125" lon="20.1580045558512210845947265625">
        <ele>1861</ele>
        <time>2026-06-20T09:07:10.000Z</time>
        <extensions>
          <ns3:TrackPointExtension>
            <ns3:atemp>25.0</ns3:atemp>
          </ns3:TrackPointExtension>
        </extensions>
      </trkpt>
      <trkpt lat="42.5195308215916156768798828125" lon="20.1580045558512210845947265625">
        <ele>1861</ele>
        <time>2026-06-20T09:07:11.000Z</time>
        <extensions>
          <ns3:TrackPointExtension>
            <ns3:atemp>25.0</ns3:atemp>
          </ns3:TrackPointExtension>
        </extensions>
      </trkpt>
      <trkpt lat="42.5195308215916156768798828125" lon="20.1580045558512210845947265625">
        <ele>1861</ele>
        <time>2026-06-20T09:07:12.000Z</time>
        <extensions>
          <ns3:TrackPointExtension>
            <ns3:atemp>25.0</ns3:atemp>
          </ns3:TrackPointExtension>
        </extensions>
      </trkpt>
      <trkpt lat="42.5195308215916156768798828125" lon="20.1580045558512210845947265625">
        <ele>1861</ele>
        <time>2026-06-20T09:07:13.000Z</time>
        <extensions>
          <ns3:TrackPointExtension>
            <ns3:atemp>25.0</ns3:atemp>
          </ns3:TrackPointExtension>
        </extensions>
      </trkpt>
      <trkpt lat="42.5195308215916156768798828125" lon="20.1580045558512210845947265625">
        <ele>1861</ele>
        <time>2026-06-20T09:07:14.000Z</time>
        <extensions>
          <ns3:TrackPointExtension>
            <ns3:atemp>25.0</ns3:atemp>
          </ns3:TrackPointExtension>
        </extensions>
      </trkpt>
      <trkpt lat="42.5195308215916156768798828125" lon="20.1580045558512210845947265625">
        <ele>1861</ele>
        <time>2026-06-20T09:07:15.000Z</time>
        <extensions>
          <ns3:TrackPointExtension>
            <ns3:atemp>25.0</ns3:atemp>
          </ns3:TrackPointExtension>
        </extensions>
      </trkpt>
      <trkpt lat="42.5195308215916156768798828125" lon="20.1580045558512210845947265625">
        <ele>1861</ele>
        <time>2026-06-20T09:07:16.000Z</time>
        <extensions>
          <ns3:TrackPointExtension>
            <ns3:atemp>25.0</ns3:atemp>
          </ns3:TrackPointExtension>
        </extensions>
      </trkpt>
      <trkpt lat="42.5195308215916156768798828125" lon="20.1580045558512210845947265625">
        <ele>1861</ele>
        <time>2026-06-20T09:07:17.000Z</time>
        <extensions>
          <ns3:TrackPointExtension>
            <ns3:atemp>25.0</ns3:atemp>
          </ns3:TrackPointExtension>
        </extensions>
      </trkpt>
      <trkpt lat="42.5195308215916156768798828125" lon="20.1580045558512210845947265625">
        <ele>1861</ele>
        <time>2026-06-20T09:07:18.000Z</time>
        <extensions>
          <ns3:TrackPointExtension>
            <ns3:atemp>25.0</ns3:atemp>
          </ns3:TrackPointExtension>
        </extensions>
      </trkpt>
      <trkpt lat="42.5195308215916156768798828125" lon="20.1580045558512210845947265625">
        <ele>1861</ele>
        <time>2026-06-20T09:07:19.000Z</time>
        <extensions>
          <ns3:TrackPointExtension>
            <ns3:atemp>25.0</ns3:atemp>
          </ns3:TrackPointExtension>
        </extensions>
      </trkpt>
      <trkpt lat="42.5195308215916156768798828125" lon="20.1580045558512210845947265625">
        <ele>1861</ele>
        <time>2026-06-20T09:07:20.000Z</time>
        <extensions>
          <ns3:TrackPointExtension>
            <ns3:atemp>25.0</ns3:atemp>
          </ns3:TrackPointExtension>
        </extensions>
      </trkpt>
      <trkpt lat="42.5195308215916156768798828125" lon="20.1580045558512210845947265625">
        <ele>1861</ele>
        <time>2026-06-20T09:07:21.000Z</time>
        <extensions>
          <ns3:TrackPointExtension>
            <ns3:atemp>25.0</ns3:atemp>
          </ns3:TrackPointExtension>
        </extensions>
      </trkpt>
      <trkpt lat="42.5195308215916156768798828125" lon="20.1580045558512210845947265625">
        <ele>1860.800048828125</ele>
        <time>2026-06-20T09:07:22.000Z</time>
        <extensions>
          <ns3:TrackPointExtension>
            <ns3:atemp>25.0</ns3:atemp>
          </ns3:TrackPointExtension>
        </extensions>
      </trkpt>
      <trkpt lat="42.5195308215916156768798828125" lon="20.1580045558512210845947265625">
        <ele>1860.800048828125</ele>
        <time>2026-06-20T09:07:23.000Z</time>
        <extensions>
          <ns3:TrackPointExtension>
            <ns3:atemp>25.0</ns3:atemp>
          </ns3:TrackPointExtension>
        </extensions>
      </trkpt>
      <trkpt lat="42.5195308215916156768798828125" lon="20.1580045558512210845947265625">
        <ele>1860.800048828125</ele>
        <time>2026-06-20T09:07:24.000Z</time>
        <extensions>
          <ns3:TrackPointExtension>
            <ns3:atemp>25.0</ns3:atemp>
          </ns3:TrackPointExtension>
        </extensions>
      </trkpt>
      <trkpt lat="42.5195308215916156768798828125" lon="20.1580045558512210845947265625">
        <ele>1860.800048828125</ele>
        <time>2026-06-20T09:07:25.000Z</time>
        <extensions>
          <ns3:TrackPointExtension>
            <ns3:atemp>25.0</ns3:atemp>
          </ns3:TrackPointExtension>
        </extensions>
      </trkpt>
      <trkpt lat="42.5195308215916156768798828125" lon="20.1580045558512210845947265625">
        <ele>1860.800048828125</ele>
        <time>2026-06-20T09:07:26.000Z</time>
        <extensions>
          <ns3:TrackPointExtension>
            <ns3:atemp>25.0</ns3:atemp>
          </ns3:TrackPointExtension>
        </extensions>
      </trkpt>
      <trkpt lat="42.5195308215916156768798828125" lon="20.1580045558512210845947265625">
        <ele>1860.800048828125</ele>
        <time>2026-06-20T09:07:27.000Z</time>
        <extensions>
          <ns3:TrackPointExtension>
            <ns3:atemp>25.0</ns3:atemp>
          </ns3:TrackPointExtension>
        </extensions>
      </trkpt>
      <trkpt lat="42.5195308215916156768798828125" lon="20.1580045558512210845947265625">
        <ele>1860.5999755859375</ele>
        <time>2026-06-20T09:07:28.000Z</time>
        <extensions>
          <ns3:TrackPointExtension>
            <ns3:atemp>25.0</ns3:atemp>
          </ns3:TrackPointExtension>
        </extensions>
      </trkpt>
      <trkpt lat="42.5195308215916156768798828125" lon="20.1580045558512210845947265625">
        <ele>1860.5999755859375</ele>
        <time>2026-06-20T09:07:29.000Z</time>
        <extensions>
          <ns3:TrackPointExtension>
            <ns3:atemp>25.0</ns3:atemp>
          </ns3:TrackPointExtension>
        </extensions>
      </trkpt>
      <trkpt lat="42.5195308215916156768798828125" lon="20.1580045558512210845947265625">
        <ele>1860.5999755859375</ele>
        <time>2026-06-20T09:07:30.000Z</time>
        <extensions>
          <ns3:TrackPointExtension>
            <ns3:atemp>25.0</ns3:atemp>
          </ns3:TrackPointExtension>
        </extensions>
      </trkpt>
      <trkpt lat="42.5195308215916156768798828125" lon="20.1580045558512210845947265625">
        <ele>1860.5999755859375</ele>
        <time>2026-06-20T09:07:31.000Z</time>
        <extensions>
          <ns3:TrackPointExtension>
            <ns3:atemp>25.0</ns3:atemp>
          </ns3:TrackPointExtension>
        </extensions>
      </trkpt>
      <trkpt lat="42.5195308215916156768798828125" lon="20.1580045558512210845947265625">
        <ele>1860.5999755859375</ele>
        <time>2026-06-20T09:07:32.000Z</time>
        <extensions>
          <ns3:TrackPointExtension>
            <ns3:atemp>25.0</ns3:atemp>
          </ns3:TrackPointExtension>
        </extensions>
      </trkpt>
      <trkpt lat="42.5195308215916156768798828125" lon="20.1580045558512210845947265625">
        <ele>1860.5999755859375</ele>
        <time>2026-06-20T09:07:33.000Z</time>
        <extensions>
          <ns3:TrackPointExtension>
            <ns3:atemp>25.0</ns3:atemp>
          </ns3:TrackPointExtension>
        </extensions>
      </trkpt>
      <trkpt lat="42.5195308215916156768798828125" lon="20.1580045558512210845947265625">
        <ele>1860.5999755859375</ele>
        <time>2026-06-20T09:07:34.000Z</time>
        <extensions>
          <ns3:TrackPointExtension>
            <ns3:atemp>25.0</ns3:atemp>
          </ns3:TrackPointExtension>
        </extensions>
      </trkpt>
      <trkpt lat="42.5195308215916156768798828125" lon="20.1580045558512210845947265625">
        <ele>1860.5999755859375</ele>
        <time>2026-06-20T09:07:35.000Z</time>
        <extensions>
          <ns3:TrackPointExtension>
            <ns3:atemp>25.0</ns3:atemp>
          </ns3:TrackPointExtension>
        </extensions>
      </trkpt>
      <trkpt lat="42.5195308215916156768798828125" lon="20.1580045558512210845947265625">
        <ele>1860.5999755859375</ele>
        <time>2026-06-20T09:07:36.000Z</time>
        <extensions>
          <ns3:TrackPointExtension>
            <ns3:atemp>25.0</ns3:atemp>
          </ns3:TrackPointExtension>
        </extensions>
      </trkpt>
      <trkpt lat="42.5195308215916156768798828125" lon="20.1580045558512210845947265625">
        <ele>1860.5999755859375</ele>
        <time>2026-06-20T09:07:37.000Z</time>
        <extensions>
          <ns3:TrackPointExtension>
            <ns3:atemp>25.0</ns3:atemp>
          </ns3:TrackPointExtension>
        </extensions>
      </trkpt>
      <trkpt lat="42.5195308215916156768798828125" lon="20.1580045558512210845947265625">
        <ele>1860.5999755859375</ele>
        <time>2026-06-20T09:07:38.000Z</time>
        <extensions>
          <ns3:TrackPointExtension>
            <ns3:atemp>25.0</ns3:atemp>
          </ns3:TrackPointExtension>
        </extensions>
      </trkpt>
      <trkpt lat="42.5195308215916156768798828125" lon="20.1580045558512210845947265625">
        <ele>1860.4000244140625</ele>
        <time>2026-06-20T09:07:39.000Z</time>
        <extensions>
          <ns3:TrackPointExtension>
            <ns3:atemp>25.0</ns3:atemp>
          </ns3:TrackPointExtension>
        </extensions>
      </trkpt>
      <trkpt lat="42.5195308215916156768798828125" lon="20.1580045558512210845947265625">
        <ele>1860.4000244140625</ele>
        <time>2026-06-20T09:07:40.000Z</time>
        <extensions>
          <ns3:TrackPointExtension>
            <ns3:atemp>25.0</ns3:atemp>
          </ns3:TrackPointExtension>
        </extensions>
      </trkpt>
      <trkpt lat="42.5195308215916156768798828125" lon="20.1580045558512210845947265625">
        <ele>1860.4000244140625</ele>
        <time>2026-06-20T09:07:41.000Z</time>
        <extensions>
          <ns3:TrackPointExtension>
            <ns3:atemp>25.0</ns3:atemp>
          </ns3:TrackPointExtension>
        </extensions>
      </trkpt>
      <trkpt lat="42.5195308215916156768798828125" lon="20.1580045558512210845947265625">
        <ele>1860.4000244140625</ele>
        <time>2026-06-20T09:07:42.000Z</time>
        <extensions>
          <ns3:TrackPointExtension>
            <ns3:atemp>25.0</ns3:atemp>
          </ns3:TrackPointExtension>
        </extensions>
      </trkpt>
      <trkpt lat="42.5195308215916156768798828125" lon="20.1580045558512210845947265625">
        <ele>1860.4000244140625</ele>
        <time>2026-06-20T09:07:43.000Z</time>
        <extensions>
          <ns3:TrackPointExtension>
            <ns3:atemp>25.0</ns3:atemp>
          </ns3:TrackPointExtension>
        </extensions>
      </trkpt>
      <trkpt lat="42.5195308215916156768798828125" lon="20.1580045558512210845947265625">
        <ele>1860.4000244140625</ele>
        <time>2026-06-20T09:07:44.000Z</time>
        <extensions>
          <ns3:TrackPointExtension>
            <ns3:atemp>25.0</ns3:atemp>
          </ns3:TrackPointExtension>
        </extensions>
      </trkpt>
      <trkpt lat="42.5195308215916156768798828125" lon="20.1580045558512210845947265625">
        <ele>1860.4000244140625</ele>
        <time>2026-06-20T09:07:45.000Z</time>
        <extensions>
          <ns3:TrackPointExtension>
            <ns3:atemp>25.0</ns3:atemp>
          </ns3:TrackPointExtension>
        </extensions>
      </trkpt>
      <trkpt lat="42.5195308215916156768798828125" lon="20.1580045558512210845947265625">
        <ele>1860.5999755859375</ele>
        <time>2026-06-20T09:07:46.000Z</time>
        <extensions>
          <ns3:TrackPointExtension>
            <ns3:atemp>25.0</ns3:atemp>
          </ns3:TrackPointExtension>
        </extensions>
      </trkpt>
      <trkpt lat="42.5195308215916156768798828125" lon="20.1580045558512210845947265625">
        <ele>1860.5999755859375</ele>
        <time>2026-06-20T09:07:47.000Z</time>
        <extensions>
          <ns3:TrackPointExtension>
            <ns3:atemp>25.0</ns3:atemp>
          </ns3:TrackPointExtension>
        </extensions>
      </trkpt>
      <trkpt lat="42.5195308215916156768798828125" lon="20.1580045558512210845947265625">
        <ele>1860.5999755859375</ele>
        <time>2026-06-20T09:07:48.000Z</time>
        <extensions>
          <ns3:TrackPointExtension>
            <ns3:atemp>25.0</ns3:atemp>
          </ns3:TrackPointExtension>
        </extensions>
      </trkpt>
      <trkpt lat="42.5195308215916156768798828125" lon="20.1580045558512210845947265625">
        <ele>1860.4000244140625</ele>
        <time>2026-06-20T09:07:49.000Z</time>
        <extensions>
          <ns3:TrackPointExtension>
            <ns3:atemp>25.0</ns3:atemp>
          </ns3:TrackPointExtension>
        </extensions>
      </trkpt>
      <trkpt lat="42.5195308215916156768798828125" lon="20.1580045558512210845947265625">
        <ele>1860.4000244140625</ele>
        <time>2026-06-20T09:07:50.000Z</time>
        <extensions>
          <ns3:TrackPointExtension>
            <ns3:atemp>25.0</ns3:atemp>
          </ns3:TrackPointExtension>
        </extensions>
      </trkpt>
      <trkpt lat="42.5195308215916156768798828125" lon="20.1580045558512210845947265625">
        <ele>1860.4000244140625</ele>
        <time>2026-06-20T09:07:51.000Z</time>
        <extensions>
          <ns3:TrackPointExtension>
            <ns3:atemp>25.0</ns3:atemp>
          </ns3:TrackPointExtension>
        </extensions>
      </trkpt>
      <trkpt lat="42.5195308215916156768798828125" lon="20.1580045558512210845947265625">
        <ele>1860.4000244140625</ele>
        <time>2026-06-20T09:07:52.000Z</time>
        <extensions>
          <ns3:TrackPointExtension>
            <ns3:atemp>25.0</ns3:atemp>
          </ns3:TrackPointExtension>
        </extensions>
      </trkpt>
      <trkpt lat="42.5195308215916156768798828125" lon="20.1580045558512210845947265625">
        <ele>1860.4000244140625</ele>
        <time>2026-06-20T09:07:53.000Z</time>
        <extensions>
          <ns3:TrackPointExtension>
            <ns3:atemp>25.0</ns3:atemp>
          </ns3:TrackPointExtension>
        </extensions>
      </trkpt>
      <trkpt lat="42.5195308215916156768798828125" lon="20.1580045558512210845947265625">
        <ele>1860.4000244140625</ele>
        <time>2026-06-20T09:07:54.000Z</time>
        <extensions>
          <ns3:TrackPointExtension>
            <ns3:atemp>25.0</ns3:atemp>
          </ns3:TrackPointExtension>
        </extensions>
      </trkpt>
      <trkpt lat="42.5195308215916156768798828125" lon="20.1580045558512210845947265625">
        <ele>1860.4000244140625</ele>
        <time>2026-06-20T09:07:55.000Z</time>
        <extensions>
          <ns3:TrackPointExtension>
            <ns3:atemp>25.0</ns3:atemp>
          </ns3:TrackPointExtension>
        </extensions>
      </trkpt>
      <trkpt lat="42.5195308215916156768798828125" lon="20.1580045558512210845947265625">
        <ele>1860.4000244140625</ele>
        <time>2026-06-20T09:07:56.000Z</time>
        <extensions>
          <ns3:TrackPointExtension>
            <ns3:atemp>25.0</ns3:atemp>
          </ns3:TrackPointExtension>
        </extensions>
      </trkpt>
      <trkpt lat="42.5195308215916156768798828125" lon="20.1580045558512210845947265625">
        <ele>1860.4000244140625</ele>
        <time>2026-06-20T09:07:57.000Z</time>
        <extensions>
          <ns3:TrackPointExtension>
            <ns3:atemp>25.0</ns3:atemp>
          </ns3:TrackPointExtension>
        </extensions>
      </trkpt>
      <trkpt lat="42.5195308215916156768798828125" lon="20.1580045558512210845947265625">
        <ele>1860.4000244140625</ele>
        <time>2026-06-20T09:07:58.000Z</time>
        <extensions>
          <ns3:TrackPointExtension>
            <ns3:atemp>25.0</ns3:atemp>
          </ns3:TrackPointExtension>
        </extensions>
      </trkpt>
      <trkpt lat="42.5195308215916156768798828125" lon="20.1580045558512210845947265625">
        <ele>1860.4000244140625</ele>
        <time>2026-06-20T09:07:59.000Z</time>
        <extensions>
          <ns3:TrackPointExtension>
            <ns3:atemp>25.0</ns3:atemp>
          </ns3:TrackPointExtension>
        </extensions>
      </trkpt>
      <trkpt lat="42.5195308215916156768798828125" lon="20.1580045558512210845947265625">
        <ele>1860.4000244140625</ele>
        <time>2026-06-20T09:08:00.000Z</time>
        <extensions>
          <ns3:TrackPointExtension>
            <ns3:atemp>25.0</ns3:atemp>
          </ns3:TrackPointExtension>
        </extensions>
      </trkpt>
      <trkpt lat="42.5195308215916156768798828125" lon="20.1580045558512210845947265625">
        <ele>1860.4000244140625</ele>
        <time>2026-06-20T09:08:01.000Z</time>
        <extensions>
          <ns3:TrackPointExtension>
            <ns3:atemp>25.0</ns3:atemp>
          </ns3:TrackPointExtension>
        </extensions>
      </trkpt>
      <trkpt lat="42.5195308215916156768798828125" lon="20.1580045558512210845947265625">
        <ele>1860.4000244140625</ele>
        <time>2026-06-20T09:08:02.000Z</time>
        <extensions>
          <ns3:TrackPointExtension>
            <ns3:atemp>25.0</ns3:atemp>
          </ns3:TrackPointExtension>
        </extensions>
      </trkpt>
      <trkpt lat="42.5195308215916156768798828125" lon="20.1580045558512210845947265625">
        <ele>1860.4000244140625</ele>
        <time>2026-06-20T09:08:03.000Z</time>
        <extensions>
          <ns3:TrackPointExtension>
            <ns3:atemp>25.0</ns3:atemp>
          </ns3:TrackPointExtension>
        </extensions>
      </trkpt>
      <trkpt lat="42.5195308215916156768798828125" lon="20.1580045558512210845947265625">
        <ele>1860.4000244140625</ele>
        <time>2026-06-20T09:08:04.000Z</time>
        <extensions>
          <ns3:TrackPointExtension>
            <ns3:atemp>25.0</ns3:atemp>
          </ns3:TrackPointExtension>
        </extensions>
      </trkpt>
      <trkpt lat="42.5195308215916156768798828125" lon="20.1580045558512210845947265625">
        <ele>1860.4000244140625</ele>
        <time>2026-06-20T09:08:05.000Z</time>
        <extensions>
          <ns3:TrackPointExtension>
            <ns3:atemp>25.0</ns3:atemp>
          </ns3:TrackPointExtension>
        </extensions>
      </trkpt>
      <trkpt lat="42.5195308215916156768798828125" lon="20.1580045558512210845947265625">
        <ele>1860.4000244140625</ele>
        <time>2026-06-20T09:08:06.000Z</time>
        <extensions>
          <ns3:TrackPointExtension>
            <ns3:atemp>25.0</ns3:atemp>
          </ns3:TrackPointExtension>
        </extensions>
      </trkpt>
      <trkpt lat="42.5195308215916156768798828125" lon="20.1580045558512210845947265625">
        <ele>1860.4000244140625</ele>
        <time>2026-06-20T09:08:07.000Z</time>
        <extensions>
          <ns3:TrackPointExtension>
            <ns3:atemp>25.0</ns3:atemp>
          </ns3:TrackPointExtension>
        </extensions>
      </trkpt>
      <trkpt lat="42.5195308215916156768798828125" lon="20.1580045558512210845947265625">
        <ele>1860.4000244140625</ele>
        <time>2026-06-20T09:08:08.000Z</time>
        <extensions>
          <ns3:TrackPointExtension>
            <ns3:atemp>25.0</ns3:atemp>
          </ns3:TrackPointExtension>
        </extensions>
      </trkpt>
      <trkpt lat="42.5195308215916156768798828125" lon="20.1580045558512210845947265625">
        <ele>1860.4000244140625</ele>
        <time>2026-06-20T09:08:09.000Z</time>
        <extensions>
          <ns3:TrackPointExtension>
            <ns3:atemp>25.0</ns3:atemp>
          </ns3:TrackPointExtension>
        </extensions>
      </trkpt>
      <trkpt lat="42.5195308215916156768798828125" lon="20.1580045558512210845947265625">
        <ele>1860.199951171875</ele>
        <time>2026-06-20T09:08:10.000Z</time>
        <extensions>
          <ns3:TrackPointExtension>
            <ns3:atemp>25.0</ns3:atemp>
          </ns3:TrackPointExtension>
        </extensions>
      </trkpt>
      <trkpt lat="42.5195308215916156768798828125" lon="20.1580045558512210845947265625">
        <ele>1860.199951171875</ele>
        <time>2026-06-20T09:08:11.000Z</time>
        <extensions>
          <ns3:TrackPointExtension>
            <ns3:atemp>25.0</ns3:atemp>
          </ns3:TrackPointExtension>
        </extensions>
      </trkpt>
      <trkpt lat="42.5195308215916156768798828125" lon="20.1580045558512210845947265625">
        <ele>1860.199951171875</ele>
        <time>2026-06-20T09:08:12.000Z</time>
        <extensions>
          <ns3:TrackPointExtension>
            <ns3:atemp>25.0</ns3:atemp>
          </ns3:TrackPointExtension>
        </extensions>
      </trkpt>
      <trkpt lat="42.5195308215916156768798828125" lon="20.1580045558512210845947265625">
        <ele>1860.199951171875</ele>
        <time>2026-06-20T09:08:13.000Z</time>
        <extensions>
          <ns3:TrackPointExtension>
            <ns3:atemp>25.0</ns3:atemp>
          </ns3:TrackPointExtension>
        </extensions>
      </trkpt>
      <trkpt lat="42.5195308215916156768798828125" lon="20.1580045558512210845947265625">
        <ele>1860.4000244140625</ele>
        <time>2026-06-20T09:08:14.000Z</time>
        <extensions>
          <ns3:TrackPointExtension>
            <ns3:atemp>25.0</ns3:atemp>
          </ns3:TrackPointExtension>
        </extensions>
      </trkpt>
      <trkpt lat="42.5195308215916156768798828125" lon="20.1580045558512210845947265625">
        <ele>1860.4000244140625</ele>
        <time>2026-06-20T09:08:15.000Z</time>
        <extensions>
          <ns3:TrackPointExtension>
            <ns3:atemp>25.0</ns3:atemp>
          </ns3:TrackPointExtension>
        </extensions>
      </trkpt>
      <trkpt lat="42.5195308215916156768798828125" lon="20.1580045558512210845947265625">
        <ele>1860.4000244140625</ele>
        <time>2026-06-20T09:08:16.000Z</time>
        <extensions>
          <ns3:TrackPointExtension>
            <ns3:atemp>25.0</ns3:atemp>
          </ns3:TrackPointExtension>
        </extensions>
      </trkpt>
      <trkpt lat="42.5195308215916156768798828125" lon="20.1580045558512210845947265625">
        <ele>1860.4000244140625</ele>
        <time>2026-06-20T09:08:17.000Z</time>
        <extensions>
          <ns3:TrackPointExtension>
            <ns3:atemp>25.0</ns3:atemp>
          </ns3:TrackPointExtension>
        </extensions>
      </trkpt>
      <trkpt lat="42.5195308215916156768798828125" lon="20.1580045558512210845947265625">
        <ele>1860.4000244140625</ele>
        <time>2026-06-20T09:08:18.000Z</time>
        <extensions>
          <ns3:TrackPointExtension>
            <ns3:atemp>26.0</ns3:atemp>
          </ns3:TrackPointExtension>
        </extensions>
      </trkpt>
      <trkpt lat="42.5195308215916156768798828125" lon="20.1580045558512210845947265625">
        <ele>1860.199951171875</ele>
        <time>2026-06-20T09:08:19.000Z</time>
        <extensions>
          <ns3:TrackPointExtension>
            <ns3:atemp>25.0</ns3:atemp>
          </ns3:TrackPointExtension>
        </extensions>
      </trkpt>
      <trkpt lat="42.5195308215916156768798828125" lon="20.1580045558512210845947265625">
        <ele>1860.199951171875</ele>
        <time>2026-06-20T09:08:20.000Z</time>
        <extensions>
          <ns3:TrackPointExtension>
            <ns3:atemp>26.0</ns3:atemp>
          </ns3:TrackPointExtension>
        </extensions>
      </trkpt>
      <trkpt lat="42.5195308215916156768798828125" lon="20.1580045558512210845947265625">
        <ele>1860.199951171875</ele>
        <time>2026-06-20T09:08:21.000Z</time>
        <extensions>
          <ns3:TrackPointExtension>
            <ns3:atemp>26.0</ns3:atemp>
          </ns3:TrackPointExtension>
        </extensions>
      </trkpt>
      <trkpt lat="42.5195308215916156768798828125" lon="20.1580045558512210845947265625">
        <ele>1860.199951171875</ele>
        <time>2026-06-20T09:08:22.000Z</time>
        <extensions>
          <ns3:TrackPointExtension>
            <ns3:atemp>26.0</ns3:atemp>
          </ns3:TrackPointExtension>
        </extensions>
      </trkpt>
      <trkpt lat="42.5195308215916156768798828125" lon="20.1580045558512210845947265625">
        <ele>1860.199951171875</ele>
        <time>2026-06-20T09:08:23.000Z</time>
        <extensions>
          <ns3:TrackPointExtension>
            <ns3:atemp>26.0</ns3:atemp>
          </ns3:TrackPointExtension>
        </extensions>
      </trkpt>
      <trkpt lat="42.5195308215916156768798828125" lon="20.1580045558512210845947265625">
        <ele>1860.199951171875</ele>
        <time>2026-06-20T09:08:24.000Z</time>
        <extensions>
          <ns3:TrackPointExtension>
            <ns3:atemp>26.0</ns3:atemp>
          </ns3:TrackPointExtension>
        </extensions>
      </trkpt>
      <trkpt lat="42.5195308215916156768798828125" lon="20.1580045558512210845947265625">
        <ele>1860.199951171875</ele>
        <time>2026-06-20T09:08:25.000Z</time>
        <extensions>
          <ns3:TrackPointExtension>
            <ns3:atemp>26.0</ns3:atemp>
          </ns3:TrackPointExtension>
        </extensions>
      </trkpt>
      <trkpt lat="42.5195308215916156768798828125" lon="20.1580045558512210845947265625">
        <ele>1860.199951171875</ele>
        <time>2026-06-20T09:08:26.000Z</time>
        <extensions>
          <ns3:TrackPointExtension>
            <ns3:atemp>26.0</ns3:atemp>
          </ns3:TrackPointExtension>
        </extensions>
      </trkpt>
      <trkpt lat="42.5195308215916156768798828125" lon="20.1580045558512210845947265625">
        <ele>1860.199951171875</ele>
        <time>2026-06-20T09:08:27.000Z</time>
        <extensions>
          <ns3:TrackPointExtension>
            <ns3:atemp>26.0</ns3:atemp>
          </ns3:TrackPointExtension>
        </extensions>
      </trkpt>
      <trkpt lat="42.5195308215916156768798828125" lon="20.1580045558512210845947265625">
        <ele>1860.199951171875</ele>
        <time>2026-06-20T09:08:28.000Z</time>
        <extensions>
          <ns3:TrackPointExtension>
            <ns3:atemp>26.0</ns3:atemp>
          </ns3:TrackPointExtension>
        </extensions>
      </trkpt>
      <trkpt lat="42.5195308215916156768798828125" lon="20.1580045558512210845947265625">
        <ele>1860.199951171875</ele>
        <time>2026-06-20T09:08:29.000Z</time>
        <extensions>
          <ns3:TrackPointExtension>
            <ns3:atemp>26.0</ns3:atemp>
          </ns3:TrackPointExtension>
        </extensions>
      </trkpt>
      <trkpt lat="42.5195308215916156768798828125" lon="20.1580045558512210845947265625">
        <ele>1860.199951171875</ele>
        <time>2026-06-20T09:08:30.000Z</time>
        <extensions>
          <ns3:TrackPointExtension>
            <ns3:atemp>26.0</ns3:atemp>
          </ns3:TrackPointExtension>
        </extensions>
      </trkpt>
      <trkpt lat="42.5195308215916156768798828125" lon="20.1580045558512210845947265625">
        <ele>1860.199951171875</ele>
        <time>2026-06-20T09:08:31.000Z</time>
        <extensions>
          <ns3:TrackPointExtension>
            <ns3:atemp>26.0</ns3:atemp>
          </ns3:TrackPointExtension>
        </extensions>
      </trkpt>
      <trkpt lat="42.5195308215916156768798828125" lon="20.1580045558512210845947265625">
        <ele>1860.199951171875</ele>
        <time>2026-06-20T09:08:32.000Z</time>
        <extensions>
          <ns3:TrackPointExtension>
            <ns3:atemp>26.0</ns3:atemp>
          </ns3:TrackPointExtension>
        </extensions>
      </trkpt>
      <trkpt lat="42.5195308215916156768798828125" lon="20.1580045558512210845947265625">
        <ele>1860.199951171875</ele>
        <time>2026-06-20T09:08:33.000Z</time>
        <extensions>
          <ns3:TrackPointExtension>
            <ns3:atemp>26.0</ns3:atemp>
          </ns3:TrackPointExtension>
        </extensions>
      </trkpt>
      <trkpt lat="42.5195308215916156768798828125" lon="20.1580045558512210845947265625">
        <ele>1860.199951171875</ele>
        <time>2026-06-20T09:08:34.000Z</time>
        <extensions>
          <ns3:TrackPointExtension>
            <ns3:atemp>26.0</ns3:atemp>
          </ns3:TrackPointExtension>
        </extensions>
      </trkpt>
      <trkpt lat="42.5195308215916156768798828125" lon="20.1580045558512210845947265625">
        <ele>1860.199951171875</ele>
        <time>2026-06-20T09:08:35.000Z</time>
        <extensions>
          <ns3:TrackPointExtension>
            <ns3:atemp>26.0</ns3:atemp>
          </ns3:TrackPointExtension>
        </extensions>
      </trkpt>
      <trkpt lat="42.5195308215916156768798828125" lon="20.1580045558512210845947265625">
        <ele>1860.199951171875</ele>
        <time>2026-06-20T09:08:36.000Z</time>
        <extensions>
          <ns3:TrackPointExtension>
            <ns3:atemp>26.0</ns3:atemp>
          </ns3:TrackPointExtension>
        </extensions>
      </trkpt>
      <trkpt lat="42.5195308215916156768798828125" lon="20.1580045558512210845947265625">
        <ele>1860</ele>
        <time>2026-06-20T09:08:37.000Z</time>
        <extensions>
          <ns3:TrackPointExtension>
            <ns3:atemp>26.0</ns3:atemp>
          </ns3:TrackPointExtension>
        </extensions>
      </trkpt>
      <trkpt lat="42.5195308215916156768798828125" lon="20.1580045558512210845947265625">
        <ele>1860</ele>
        <time>2026-06-20T09:08:38.000Z</time>
        <extensions>
          <ns3:TrackPointExtension>
            <ns3:atemp>26.0</ns3:atemp>
          </ns3:TrackPointExtension>
        </extensions>
      </trkpt>
      <trkpt lat="42.5195308215916156768798828125" lon="20.1580045558512210845947265625">
        <ele>1860</ele>
        <time>2026-06-20T09:08:39.000Z</time>
        <extensions>
          <ns3:TrackPointExtension>
            <ns3:atemp>26.0</ns3:atemp>
          </ns3:TrackPointExtension>
        </extensions>
      </trkpt>
      <trkpt lat="42.5195308215916156768798828125" lon="20.1580045558512210845947265625">
        <ele>1860</ele>
        <time>2026-06-20T09:08:40.000Z</time>
        <extensions>
          <ns3:TrackPointExtension>
            <ns3:atemp>26.0</ns3:atemp>
          </ns3:TrackPointExtension>
        </extensions>
      </trkpt>
      <trkpt lat="42.5195308215916156768798828125" lon="20.1580045558512210845947265625">
        <ele>1860</ele>
        <time>2026-06-20T09:08:41.000Z</time>
        <extensions>
          <ns3:TrackPointExtension>
            <ns3:atemp>26.0</ns3:atemp>
          </ns3:TrackPointExtension>
        </extensions>
      </trkpt>
      <trkpt lat="42.5195308215916156768798828125" lon="20.1580045558512210845947265625">
        <ele>1860</ele>
        <time>2026-06-20T09:08:42.000Z</time>
        <extensions>
          <ns3:TrackPointExtension>
            <ns3:atemp>26.0</ns3:atemp>
          </ns3:TrackPointExtension>
        </extensions>
      </trkpt>
      <trkpt lat="42.5195308215916156768798828125" lon="20.1580045558512210845947265625">
        <ele>1860</ele>
        <time>2026-06-20T09:08:43.000Z</time>
        <extensions>
          <ns3:TrackPointExtension>
            <ns3:atemp>26.0</ns3:atemp>
          </ns3:TrackPointExtension>
        </extensions>
      </trkpt>
      <trkpt lat="42.5195308215916156768798828125" lon="20.1580045558512210845947265625">
        <ele>1860</ele>
        <time>2026-06-20T09:08:44.000Z</time>
        <extensions>
          <ns3:TrackPointExtension>
            <ns3:atemp>26.0</ns3:atemp>
          </ns3:TrackPointExtension>
        </extensions>
      </trkpt>
      <trkpt lat="42.5195308215916156768798828125" lon="20.1580045558512210845947265625">
        <ele>1860</ele>
        <time>2026-06-20T09:08:45.000Z</time>
        <extensions>
          <ns3:TrackPointExtension>
            <ns3:atemp>26.0</ns3:atemp>
          </ns3:TrackPointExtension>
        </extensions>
      </trkpt>
      <trkpt lat="42.5195308215916156768798828125" lon="20.1580045558512210845947265625">
        <ele>1860</ele>
        <time>2026-06-20T09:08:46.000Z</time>
        <extensions>
          <ns3:TrackPointExtension>
            <ns3:atemp>26.0</ns3:atemp>
          </ns3:TrackPointExtension>
        </extensions>
      </trkpt>
      <trkpt lat="42.5195308215916156768798828125" lon="20.1580045558512210845947265625">
        <ele>1860</ele>
        <time>2026-06-20T09:08:47.000Z</time>
        <extensions>
          <ns3:TrackPointExtension>
            <ns3:atemp>26.0</ns3:atemp>
          </ns3:TrackPointExtension>
        </extensions>
      </trkpt>
      <trkpt lat="42.5195308215916156768798828125" lon="20.1580045558512210845947265625">
        <ele>1860</ele>
        <time>2026-06-20T09:08:48.000Z</time>
        <extensions>
          <ns3:TrackPointExtension>
            <ns3:atemp>26.0</ns3:atemp>
          </ns3:TrackPointExtension>
        </extensions>
      </trkpt>
      <trkpt lat="42.5195308215916156768798828125" lon="20.1580045558512210845947265625">
        <ele>1860</ele>
        <time>2026-06-20T09:08:49.000Z</time>
        <extensions>
          <ns3:TrackPointExtension>
            <ns3:atemp>26.0</ns3:atemp>
          </ns3:TrackPointExtension>
        </extensions>
      </trkpt>
      <trkpt lat="42.5195308215916156768798828125" lon="20.1580045558512210845947265625">
        <ele>1860</ele>
        <time>2026-06-20T09:08:50.000Z</time>
        <extensions>
          <ns3:TrackPointExtension>
            <ns3:atemp>26.0</ns3:atemp>
          </ns3:TrackPointExtension>
        </extensions>
      </trkpt>
      <trkpt lat="42.5195308215916156768798828125" lon="20.1580045558512210845947265625">
        <ele>1860</ele>
        <time>2026-06-20T09:08:51.000Z</time>
        <extensions>
          <ns3:TrackPointExtension>
            <ns3:atemp>26.0</ns3:atemp>
          </ns3:TrackPointExtension>
        </extensions>
      </trkpt>
      <trkpt lat="42.5195308215916156768798828125" lon="20.1580045558512210845947265625">
        <ele>1860</ele>
        <time>2026-06-20T09:08:52.000Z</time>
        <extensions>
          <ns3:TrackPointExtension>
            <ns3:atemp>26.0</ns3:atemp>
          </ns3:TrackPointExtension>
        </extensions>
      </trkpt>
      <trkpt lat="42.5195308215916156768798828125" lon="20.1580045558512210845947265625">
        <ele>1860</ele>
        <time>2026-06-20T09:08:53.000Z</time>
        <extensions>
          <ns3:TrackPointExtension>
            <ns3:atemp>26.0</ns3:atemp>
          </ns3:TrackPointExtension>
        </extensions>
      </trkpt>
      <trkpt lat="42.5195308215916156768798828125" lon="20.1580045558512210845947265625">
        <ele>1860</ele>
        <time>2026-06-20T09:08:54.000Z</time>
        <extensions>
          <ns3:TrackPointExtension>
            <ns3:atemp>26.0</ns3:atemp>
          </ns3:TrackPointExtension>
        </extensions>
      </trkpt>
      <trkpt lat="42.5195308215916156768798828125" lon="20.1580045558512210845947265625">
        <ele>1860</ele>
        <time>2026-06-20T09:08:55.000Z</time>
        <extensions>
          <ns3:TrackPointExtension>
            <ns3:atemp>26.0</ns3:atemp>
          </ns3:TrackPointExtension>
        </extensions>
      </trkpt>
      <trkpt lat="42.5195308215916156768798828125" lon="20.1580045558512210845947265625">
        <ele>1860</ele>
        <time>2026-06-20T09:08:56.000Z</time>
        <extensions>
          <ns3:TrackPointExtension>
            <ns3:atemp>26.0</ns3:atemp>
          </ns3:TrackPointExtension>
        </extensions>
      </trkpt>
      <trkpt lat="42.5195308215916156768798828125" lon="20.1580045558512210845947265625">
        <ele>1860</ele>
        <time>2026-06-20T09:08:57.000Z</time>
        <extensions>
          <ns3:TrackPointExtension>
            <ns3:atemp>26.0</ns3:atemp>
          </ns3:TrackPointExtension>
        </extensions>
      </trkpt>
      <trkpt lat="42.5195308215916156768798828125" lon="20.1580045558512210845947265625">
        <ele>1860</ele>
        <time>2026-06-20T09:08:58.000Z</time>
        <extensions>
          <ns3:TrackPointExtension>
            <ns3:atemp>26.0</ns3:atemp>
          </ns3:TrackPointExtension>
        </extensions>
      </trkpt>
      <trkpt lat="42.5195308215916156768798828125" lon="20.1580045558512210845947265625">
        <ele>1860</ele>
        <time>2026-06-20T09:08:59.000Z</time>
        <extensions>
          <ns3:TrackPointExtension>
            <ns3:atemp>26.0</ns3:atemp>
          </ns3:TrackPointExtension>
        </extensions>
      </trkpt>
      <trkpt lat="42.5195308215916156768798828125" lon="20.1580045558512210845947265625">
        <ele>1860</ele>
        <time>2026-06-20T09:09:00.000Z</time>
        <extensions>
          <ns3:TrackPointExtension>
            <ns3:atemp>26.0</ns3:atemp>
          </ns3:TrackPointExtension>
        </extensions>
      </trkpt>
      <trkpt lat="42.5195308215916156768798828125" lon="20.1580045558512210845947265625">
        <ele>1860</ele>
        <time>2026-06-20T09:09:01.000Z</time>
        <extensions>
          <ns3:TrackPointExtension>
            <ns3:atemp>26.0</ns3:atemp>
          </ns3:TrackPointExtension>
        </extensions>
      </trkpt>
      <trkpt lat="42.5195308215916156768798828125" lon="20.1580045558512210845947265625">
        <ele>1860</ele>
        <time>2026-06-20T09:09:02.000Z</time>
        <extensions>
          <ns3:TrackPointExtension>
            <ns3:atemp>26.0</ns3:atemp>
          </ns3:TrackPointExtension>
        </extensions>
      </trkpt>
      <trkpt lat="42.5195308215916156768798828125" lon="20.1580045558512210845947265625">
        <ele>1860</ele>
        <time>2026-06-20T09:09:03.000Z</time>
        <extensions>
          <ns3:TrackPointExtension>
            <ns3:atemp>26.0</ns3:atemp>
          </ns3:TrackPointExtension>
        </extensions>
      </trkpt>
      <trkpt lat="42.5195308215916156768798828125" lon="20.1580045558512210845947265625">
        <ele>1860</ele>
        <time>2026-06-20T09:09:04.000Z</time>
        <extensions>
          <ns3:TrackPointExtension>
            <ns3:atemp>26.0</ns3:atemp>
          </ns3:TrackPointExtension>
        </extensions>
      </trkpt>
      <trkpt lat="42.5195308215916156768798828125" lon="20.1580045558512210845947265625">
        <ele>1860</ele>
        <time>2026-06-20T09:09:05.000Z</time>
        <extensions>
          <ns3:TrackPointExtension>
            <ns3:atemp>26.0</ns3:atemp>
          </ns3:TrackPointExtension>
        </extensions>
      </trkpt>
      <trkpt lat="42.5195308215916156768798828125" lon="20.1580045558512210845947265625">
        <ele>1860</ele>
        <time>2026-06-20T09:09:06.000Z</time>
        <extensions>
          <ns3:TrackPointExtension>
            <ns3:atemp>26.0</ns3:atemp>
          </ns3:TrackPointExtension>
        </extensions>
      </trkpt>
      <trkpt lat="42.5195308215916156768798828125" lon="20.1580045558512210845947265625">
        <ele>1860</ele>
        <time>2026-06-20T09:09:07.000Z</time>
        <extensions>
          <ns3:TrackPointExtension>
            <ns3:atemp>26.0</ns3:atemp>
          </ns3:TrackPointExtension>
        </extensions>
      </trkpt>
      <trkpt lat="42.5195308215916156768798828125" lon="20.1580045558512210845947265625">
        <ele>1860</ele>
        <time>2026-06-20T09:09:08.000Z</time>
        <extensions>
          <ns3:TrackPointExtension>
            <ns3:atemp>26.0</ns3:atemp>
          </ns3:TrackPointExtension>
        </extensions>
      </trkpt>
      <trkpt lat="42.5195308215916156768798828125" lon="20.1580045558512210845947265625">
        <ele>1860</ele>
        <time>2026-06-20T09:09:09.000Z</time>
        <extensions>
          <ns3:TrackPointExtension>
            <ns3:atemp>26.0</ns3:atemp>
          </ns3:TrackPointExtension>
        </extensions>
      </trkpt>
      <trkpt lat="42.5195308215916156768798828125" lon="20.1580045558512210845947265625">
        <ele>1860</ele>
        <time>2026-06-20T09:09:10.000Z</time>
        <extensions>
          <ns3:TrackPointExtension>
            <ns3:atemp>26.0</ns3:atemp>
          </ns3:TrackPointExtension>
        </extensions>
      </trkpt>
      <trkpt lat="42.5195308215916156768798828125" lon="20.1580045558512210845947265625">
        <ele>1860</ele>
        <time>2026-06-20T09:09:11.000Z</time>
        <extensions>
          <ns3:TrackPointExtension>
            <ns3:atemp>26.0</ns3:atemp>
          </ns3:TrackPointExtension>
        </extensions>
      </trkpt>
      <trkpt lat="42.5195308215916156768798828125" lon="20.1580045558512210845947265625">
        <ele>1860</ele>
        <time>2026-06-20T09:09:12.000Z</time>
        <extensions>
          <ns3:TrackPointExtension>
            <ns3:atemp>26.0</ns3:atemp>
          </ns3:TrackPointExtension>
        </extensions>
      </trkpt>
      <trkpt lat="42.5195308215916156768798828125" lon="20.1580045558512210845947265625">
        <ele>1860</ele>
        <time>2026-06-20T09:09:13.000Z</time>
        <extensions>
          <ns3:TrackPointExtension>
            <ns3:atemp>26.0</ns3:atemp>
          </ns3:TrackPointExtension>
        </extensions>
      </trkpt>
      <trkpt lat="42.5195308215916156768798828125" lon="20.1580045558512210845947265625">
        <ele>1860</ele>
        <time>2026-06-20T09:09:14.000Z</time>
        <extensions>
          <ns3:TrackPointExtension>
            <ns3:atemp>26.0</ns3:atemp>
          </ns3:TrackPointExtension>
        </extensions>
      </trkpt>
      <trkpt lat="42.5195308215916156768798828125" lon="20.1580045558512210845947265625">
        <ele>1860</ele>
        <time>2026-06-20T09:09:15.000Z</time>
        <extensions>
          <ns3:TrackPointExtension>
            <ns3:atemp>26.0</ns3:atemp>
          </ns3:TrackPointExtension>
        </extensions>
      </trkpt>
      <trkpt lat="42.5195308215916156768798828125" lon="20.1580045558512210845947265625">
        <ele>1860</ele>
        <time>2026-06-20T09:09:16.000Z</time>
        <extensions>
          <ns3:TrackPointExtension>
            <ns3:atemp>26.0</ns3:atemp>
          </ns3:TrackPointExtension>
        </extensions>
      </trkpt>
      <trkpt lat="42.5195308215916156768798828125" lon="20.1580045558512210845947265625">
        <ele>1860</ele>
        <time>2026-06-20T09:09:17.000Z</time>
        <extensions>
          <ns3:TrackPointExtension>
            <ns3:atemp>26.0</ns3:atemp>
          </ns3:TrackPointExtension>
        </extensions>
      </trkpt>
      <trkpt lat="42.5195308215916156768798828125" lon="20.1580045558512210845947265625">
        <ele>1860</ele>
        <time>2026-06-20T09:09:18.000Z</time>
        <extensions>
          <ns3:TrackPointExtension>
            <ns3:atemp>26.0</ns3:atemp>
          </ns3:TrackPointExtension>
        </extensions>
      </trkpt>
      <trkpt lat="42.5195308215916156768798828125" lon="20.1580045558512210845947265625">
        <ele>1860</ele>
        <time>2026-06-20T09:09:19.000Z</time>
        <extensions>
          <ns3:TrackPointExtension>
            <ns3:atemp>26.0</ns3:atemp>
          </ns3:TrackPointExtension>
        </extensions>
      </trkpt>
      <trkpt lat="42.5195308215916156768798828125" lon="20.1580045558512210845947265625">
        <ele>1860</ele>
        <time>2026-06-20T09:09:20.000Z</time>
        <extensions>
          <ns3:TrackPointExtension>
            <ns3:atemp>26.0</ns3:atemp>
          </ns3:TrackPointExtension>
        </extensions>
      </trkpt>
      <trkpt lat="42.5195308215916156768798828125" lon="20.1580045558512210845947265625">
        <ele>1860</ele>
        <time>2026-06-20T09:09:21.000Z</time>
        <extensions>
          <ns3:TrackPointExtension>
            <ns3:atemp>26.0</ns3:atemp>
          </ns3:TrackPointExtension>
        </extensions>
      </trkpt>
      <trkpt lat="42.5195308215916156768798828125" lon="20.1580045558512210845947265625">
        <ele>1860</ele>
        <time>2026-06-20T09:09:22.000Z</time>
        <extensions>
          <ns3:TrackPointExtension>
            <ns3:atemp>26.0</ns3:atemp>
          </ns3:TrackPointExtension>
        </extensions>
      </trkpt>
      <trkpt lat="42.5195308215916156768798828125" lon="20.1580045558512210845947265625">
        <ele>1860</ele>
        <time>2026-06-20T09:09:23.000Z</time>
        <extensions>
          <ns3:TrackPointExtension>
            <ns3:atemp>26.0</ns3:atemp>
          </ns3:TrackPointExtension>
        </extensions>
      </trkpt>
      <trkpt lat="42.5195308215916156768798828125" lon="20.1580045558512210845947265625">
        <ele>1860</ele>
        <time>2026-06-20T09:09:24.000Z</time>
        <extensions>
          <ns3:TrackPointExtension>
            <ns3:atemp>26.0</ns3:atemp>
          </ns3:TrackPointExtension>
        </extensions>
      </trkpt>
      <trkpt lat="42.5195308215916156768798828125" lon="20.1580045558512210845947265625">
        <ele>1860</ele>
        <time>2026-06-20T09:09:25.000Z</time>
        <extensions>
          <ns3:TrackPointExtension>
            <ns3:atemp>26.0</ns3:atemp>
          </ns3:TrackPointExtension>
        </extensions>
      </trkpt>
      <trkpt lat="42.5195308215916156768798828125" lon="20.1580045558512210845947265625">
        <ele>1860</ele>
        <time>2026-06-20T09:09:26.000Z</time>
        <extensions>
          <ns3:TrackPointExtension>
            <ns3:atemp>26.0</ns3:atemp>
          </ns3:TrackPointExtension>
        </extensions>
      </trkpt>
      <trkpt lat="42.5195308215916156768798828125" lon="20.1580045558512210845947265625">
        <ele>1860</ele>
        <time>2026-06-20T09:09:27.000Z</time>
        <extensions>
          <ns3:TrackPointExtension>
            <ns3:atemp>26.0</ns3:atemp>
          </ns3:TrackPointExtension>
        </extensions>
      </trkpt>
      <trkpt lat="42.5195308215916156768798828125" lon="20.1580045558512210845947265625">
        <ele>1860</ele>
        <time>2026-06-20T09:09:28.000Z</time>
        <extensions>
          <ns3:TrackPointExtension>
            <ns3:atemp>26.0</ns3:atemp>
          </ns3:TrackPointExtension>
        </extensions>
      </trkpt>
      <trkpt lat="42.5195308215916156768798828125" lon="20.1580045558512210845947265625">
        <ele>1860</ele>
        <time>2026-06-20T09:09:29.000Z</time>
        <extensions>
          <ns3:TrackPointExtension>
            <ns3:atemp>26.0</ns3:atemp>
          </ns3:TrackPointExtension>
        </extensions>
      </trkpt>
      <trkpt lat="42.5195308215916156768798828125" lon="20.1580045558512210845947265625">
        <ele>1860</ele>
        <time>2026-06-20T09:09:30.000Z</time>
        <extensions>
          <ns3:TrackPointExtension>
            <ns3:atemp>26.0</ns3:atemp>
          </ns3:TrackPointExtension>
        </extensions>
      </trkpt>
      <trkpt lat="42.5195308215916156768798828125" lon="20.1580045558512210845947265625">
        <ele>1860</ele>
        <time>2026-06-20T09:09:31.000Z</time>
        <extensions>
          <ns3:TrackPointExtension>
            <ns3:atemp>26.0</ns3:atemp>
          </ns3:TrackPointExtension>
        </extensions>
      </trkpt>
      <trkpt lat="42.5195308215916156768798828125" lon="20.1580045558512210845947265625">
        <ele>1860</ele>
        <time>2026-06-20T09:09:32.000Z</time>
        <extensions>
          <ns3:TrackPointExtension>
            <ns3:atemp>26.0</ns3:atemp>
          </ns3:TrackPointExtension>
        </extensions>
      </trkpt>
      <trkpt lat="42.5195308215916156768798828125" lon="20.1580045558512210845947265625">
        <ele>1860</ele>
        <time>2026-06-20T09:09:33.000Z</time>
        <extensions>
          <ns3:TrackPointExtension>
            <ns3:atemp>26.0</ns3:atemp>
          </ns3:TrackPointExtension>
        </extensions>
      </trkpt>
      <trkpt lat="42.5195308215916156768798828125" lon="20.1580045558512210845947265625">
        <ele>1860</ele>
        <time>2026-06-20T09:09:34.000Z</time>
        <extensions>
          <ns3:TrackPointExtension>
            <ns3:atemp>26.0</ns3:atemp>
          </ns3:TrackPointExtension>
        </extensions>
      </trkpt>
      <trkpt lat="42.5195308215916156768798828125" lon="20.1580045558512210845947265625">
        <ele>1860</ele>
        <time>2026-06-20T09:09:35.000Z</time>
        <extensions>
          <ns3:TrackPointExtension>
            <ns3:atemp>26.0</ns3:atemp>
          </ns3:TrackPointExtension>
        </extensions>
      </trkpt>
      <trkpt lat="42.5195308215916156768798828125" lon="20.1580045558512210845947265625">
        <ele>1860</ele>
        <time>2026-06-20T09:09:36.000Z</time>
        <extensions>
          <ns3:TrackPointExtension>
            <ns3:atemp>26.0</ns3:atemp>
          </ns3:TrackPointExtension>
        </extensions>
      </trkpt>
      <trkpt lat="42.5195308215916156768798828125" lon="20.1580045558512210845947265625">
        <ele>1860</ele>
        <time>2026-06-20T09:09:37.000Z</time>
        <extensions>
          <ns3:TrackPointExtension>
            <ns3:atemp>26.0</ns3:atemp>
          </ns3:TrackPointExtension>
        </extensions>
      </trkpt>
      <trkpt lat="42.5195308215916156768798828125" lon="20.1580045558512210845947265625">
        <ele>1860</ele>
        <time>2026-06-20T09:09:38.000Z</time>
        <extensions>
          <ns3:TrackPointExtension>
            <ns3:atemp>26.0</ns3:atemp>
          </ns3:TrackPointExtension>
        </extensions>
      </trkpt>
      <trkpt lat="42.5195308215916156768798828125" lon="20.1580045558512210845947265625">
        <ele>1860</ele>
        <time>2026-06-20T09:09:39.000Z</time>
        <extensions>
          <ns3:TrackPointExtension>
            <ns3:atemp>26.0</ns3:atemp>
          </ns3:TrackPointExtension>
        </extensions>
      </trkpt>
      <trkpt lat="42.5195308215916156768798828125" lon="20.1580045558512210845947265625">
        <ele>1860</ele>
        <time>2026-06-20T09:09:40.000Z</time>
        <extensions>
          <ns3:TrackPointExtension>
            <ns3:atemp>26.0</ns3:atemp>
          </ns3:TrackPointExtension>
        </extensions>
      </trkpt>
      <trkpt lat="42.5195308215916156768798828125" lon="20.1580045558512210845947265625">
        <ele>1860</ele>
        <time>2026-06-20T09:09:41.000Z</time>
        <extensions>
          <ns3:TrackPointExtension>
            <ns3:atemp>26.0</ns3:atemp>
          </ns3:TrackPointExtension>
        </extensions>
      </trkpt>
      <trkpt lat="42.5195308215916156768798828125" lon="20.1580045558512210845947265625">
        <ele>1860</ele>
        <time>2026-06-20T09:09:42.000Z</time>
        <extensions>
          <ns3:TrackPointExtension>
            <ns3:atemp>26.0</ns3:atemp>
          </ns3:TrackPointExtension>
        </extensions>
      </trkpt>
      <trkpt lat="42.5195308215916156768798828125" lon="20.1580045558512210845947265625">
        <ele>1860</ele>
        <time>2026-06-20T09:09:43.000Z</time>
        <extensions>
          <ns3:TrackPointExtension>
            <ns3:atemp>26.0</ns3:atemp>
          </ns3:TrackPointExtension>
        </extensions>
      </trkpt>
      <trkpt lat="42.5195308215916156768798828125" lon="20.1580045558512210845947265625">
        <ele>1860</ele>
        <time>2026-06-20T09:09:44.000Z</time>
        <extensions>
          <ns3:TrackPointExtension>
            <ns3:atemp>26.0</ns3:atemp>
          </ns3:TrackPointExtension>
        </extensions>
      </trkpt>
      <trkpt lat="42.5195308215916156768798828125" lon="20.1580045558512210845947265625">
        <ele>1860</ele>
        <time>2026-06-20T09:09:45.000Z</time>
        <extensions>
          <ns3:TrackPointExtension>
            <ns3:atemp>26.0</ns3:atemp>
          </ns3:TrackPointExtension>
        </extensions>
      </trkpt>
      <trkpt lat="42.5195308215916156768798828125" lon="20.1580045558512210845947265625">
        <ele>1860</ele>
        <time>2026-06-20T09:09:46.000Z</time>
        <extensions>
          <ns3:TrackPointExtension>
            <ns3:atemp>26.0</ns3:atemp>
          </ns3:TrackPointExtension>
        </extensions>
      </trkpt>
      <trkpt lat="42.5195308215916156768798828125" lon="20.1580045558512210845947265625">
        <ele>1860</ele>
        <time>2026-06-20T09:09:47.000Z</time>
        <extensions>
          <ns3:TrackPointExtension>
            <ns3:atemp>26.0</ns3:atemp>
          </ns3:TrackPointExtension>
        </extensions>
      </trkpt>
      <trkpt lat="42.5195308215916156768798828125" lon="20.1580045558512210845947265625">
        <ele>1860</ele>
        <time>2026-06-20T09:09:48.000Z</time>
        <extensions>
          <ns3:TrackPointExtension>
            <ns3:atemp>26.0</ns3:atemp>
          </ns3:TrackPointExtension>
        </extensions>
      </trkpt>
      <trkpt lat="42.5195308215916156768798828125" lon="20.1580045558512210845947265625">
        <ele>1860</ele>
        <time>2026-06-20T09:09:49.000Z</time>
        <extensions>
          <ns3:TrackPointExtension>
            <ns3:atemp>26.0</ns3:atemp>
          </ns3:TrackPointExtension>
        </extensions>
      </trkpt>
      <trkpt lat="42.5195308215916156768798828125" lon="20.1580045558512210845947265625">
        <ele>1860</ele>
        <time>2026-06-20T09:09:50.000Z</time>
        <extensions>
          <ns3:TrackPointExtension>
            <ns3:atemp>26.0</ns3:atemp>
          </ns3:TrackPointExtension>
        </extensions>
      </trkpt>
      <trkpt lat="42.5195308215916156768798828125" lon="20.1580045558512210845947265625">
        <ele>1860</ele>
        <time>2026-06-20T09:09:51.000Z</time>
        <extensions>
          <ns3:TrackPointExtension>
            <ns3:atemp>26.0</ns3:atemp>
          </ns3:TrackPointExtension>
        </extensions>
      </trkpt>
      <trkpt lat="42.5195308215916156768798828125" lon="20.1580045558512210845947265625">
        <ele>1860</ele>
        <time>2026-06-20T09:09:52.000Z</time>
        <extensions>
          <ns3:TrackPointExtension>
            <ns3:atemp>26.0</ns3:atemp>
          </ns3:TrackPointExtension>
        </extensions>
      </trkpt>
      <trkpt lat="42.5195308215916156768798828125" lon="20.1580045558512210845947265625">
        <ele>1860</ele>
        <time>2026-06-20T09:09:53.000Z</time>
        <extensions>
          <ns3:TrackPointExtension>
            <ns3:atemp>26.0</ns3:atemp>
          </ns3:TrackPointExtension>
        </extensions>
      </trkpt>
      <trkpt lat="42.5195308215916156768798828125" lon="20.1580045558512210845947265625">
        <ele>1860</ele>
        <time>2026-06-20T09:09:54.000Z</time>
        <extensions>
          <ns3:TrackPointExtension>
            <ns3:atemp>26.0</ns3:atemp>
          </ns3:TrackPointExtension>
        </extensions>
      </trkpt>
      <trkpt lat="42.5195308215916156768798828125" lon="20.1580045558512210845947265625">
        <ele>1860</ele>
        <time>2026-06-20T09:09:55.000Z</time>
        <extensions>
          <ns3:TrackPointExtension>
            <ns3:atemp>26.0</ns3:atemp>
          </ns3:TrackPointExtension>
        </extensions>
      </trkpt>
      <trkpt lat="42.5195308215916156768798828125" lon="20.1580045558512210845947265625">
        <ele>1860</ele>
        <time>2026-06-20T09:09:56.000Z</time>
        <extensions>
          <ns3:TrackPointExtension>
            <ns3:atemp>26.0</ns3:atemp>
          </ns3:TrackPointExtension>
        </extensions>
      </trkpt>
      <trkpt lat="42.5195308215916156768798828125" lon="20.1580045558512210845947265625">
        <ele>1860</ele>
        <time>2026-06-20T09:09:57.000Z</time>
        <extensions>
          <ns3:TrackPointExtension>
            <ns3:atemp>26.0</ns3:atemp>
          </ns3:TrackPointExtension>
        </extensions>
      </trkpt>
      <trkpt lat="42.5195308215916156768798828125" lon="20.1580045558512210845947265625">
        <ele>1860</ele>
        <time>2026-06-20T09:09:58.000Z</time>
        <extensions>
          <ns3:TrackPointExtension>
            <ns3:atemp>26.0</ns3:atemp>
          </ns3:TrackPointExtension>
        </extensions>
      </trkpt>
      <trkpt lat="42.5195308215916156768798828125" lon="20.1580045558512210845947265625">
        <ele>1860</ele>
        <time>2026-06-20T09:09:59.000Z</time>
        <extensions>
          <ns3:TrackPointExtension>
            <ns3:atemp>26.0</ns3:atemp>
          </ns3:TrackPointExtension>
        </extensions>
      </trkpt>
      <trkpt lat="42.5195308215916156768798828125" lon="20.1580045558512210845947265625">
        <ele>1860</ele>
        <time>2026-06-20T09:10:00.000Z</time>
        <extensions>
          <ns3:TrackPointExtension>
            <ns3:atemp>26.0</ns3:atemp>
          </ns3:TrackPointExtension>
        </extensions>
      </trkpt>
      <trkpt lat="42.5195308215916156768798828125" lon="20.1580045558512210845947265625">
        <ele>1860</ele>
        <time>2026-06-20T09:10:01.000Z</time>
        <extensions>
          <ns3:TrackPointExtension>
            <ns3:atemp>26.0</ns3:atemp>
          </ns3:TrackPointExtension>
        </extensions>
      </trkpt>
      <trkpt lat="42.5195308215916156768798828125" lon="20.1580045558512210845947265625">
        <ele>1860</ele>
        <time>2026-06-20T09:10:02.000Z</time>
        <extensions>
          <ns3:TrackPointExtension>
            <ns3:atemp>26.0</ns3:atemp>
          </ns3:TrackPointExtension>
        </extensions>
      </trkpt>
      <trkpt lat="42.5195308215916156768798828125" lon="20.1580045558512210845947265625">
        <ele>1860</ele>
        <time>2026-06-20T09:10:03.000Z</time>
        <extensions>
          <ns3:TrackPointExtension>
            <ns3:atemp>26.0</ns3:atemp>
          </ns3:TrackPointExtension>
        </extensions>
      </trkpt>
      <trkpt lat="42.5195308215916156768798828125" lon="20.1580045558512210845947265625">
        <ele>1860</ele>
        <time>2026-06-20T09:10:04.000Z</time>
        <extensions>
          <ns3:TrackPointExtension>
            <ns3:atemp>26.0</ns3:atemp>
          </ns3:TrackPointExtension>
        </extensions>
      </trkpt>
      <trkpt lat="42.5195308215916156768798828125" lon="20.1580045558512210845947265625">
        <ele>1860</ele>
        <time>2026-06-20T09:10:05.000Z</time>
        <extensions>
          <ns3:TrackPointExtension>
            <ns3:atemp>26.0</ns3:atemp>
          </ns3:TrackPointExtension>
        </extensions>
      </trkpt>
      <trkpt lat="42.5195308215916156768798828125" lon="20.1580045558512210845947265625">
        <ele>1860</ele>
        <time>2026-06-20T09:10:06.000Z</time>
        <extensions>
          <ns3:TrackPointExtension>
            <ns3:atemp>26.0</ns3:atemp>
          </ns3:TrackPointExtension>
        </extensions>
      </trkpt>
      <trkpt lat="42.5195308215916156768798828125" lon="20.1580045558512210845947265625">
        <ele>1860</ele>
        <time>2026-06-20T09:10:07.000Z</time>
        <extensions>
          <ns3:TrackPointExtension>
            <ns3:atemp>26.0</ns3:atemp>
          </ns3:TrackPointExtension>
        </extensions>
      </trkpt>
      <trkpt lat="42.5195308215916156768798828125" lon="20.1580045558512210845947265625">
        <ele>1860</ele>
        <time>2026-06-20T09:10:08.000Z</time>
        <extensions>
          <ns3:TrackPointExtension>
            <ns3:atemp>26.0</ns3:atemp>
          </ns3:TrackPointExtension>
        </extensions>
      </trkpt>
      <trkpt lat="42.5195308215916156768798828125" lon="20.1580045558512210845947265625">
        <ele>1860</ele>
        <time>2026-06-20T09:10:09.000Z</time>
        <extensions>
          <ns3:TrackPointExtension>
            <ns3:atemp>26.0</ns3:atemp>
          </ns3:TrackPointExtension>
        </extensions>
      </trkpt>
      <trkpt lat="42.5195308215916156768798828125" lon="20.1580045558512210845947265625">
        <ele>1860</ele>
        <time>2026-06-20T09:10:10.000Z</time>
        <extensions>
          <ns3:TrackPointExtension>
            <ns3:atemp>26.0</ns3:atemp>
          </ns3:TrackPointExtension>
        </extensions>
      </trkpt>
      <trkpt lat="42.5195308215916156768798828125" lon="20.1580045558512210845947265625">
        <ele>1860</ele>
        <time>2026-06-20T09:10:11.000Z</time>
        <extensions>
          <ns3:TrackPointExtension>
            <ns3:atemp>26.0</ns3:atemp>
          </ns3:TrackPointExtension>
        </extensions>
      </trkpt>
      <trkpt lat="42.5195308215916156768798828125" lon="20.1580045558512210845947265625">
        <ele>1860</ele>
        <time>2026-06-20T09:10:12.000Z</time>
        <extensions>
          <ns3:TrackPointExtension>
            <ns3:atemp>26.0</ns3:atemp>
          </ns3:TrackPointExtension>
        </extensions>
      </trkpt>
      <trkpt lat="42.5195308215916156768798828125" lon="20.1580045558512210845947265625">
        <ele>1860</ele>
        <time>2026-06-20T09:10:13.000Z</time>
        <extensions>
          <ns3:TrackPointExtension>
            <ns3:atemp>26.0</ns3:atemp>
          </ns3:TrackPointExtension>
        </extensions>
      </trkpt>
      <trkpt lat="42.5195308215916156768798828125" lon="20.1580045558512210845947265625">
        <ele>1860</ele>
        <time>2026-06-20T09:10:14.000Z</time>
        <extensions>
          <ns3:TrackPointExtension>
            <ns3:atemp>26.0</ns3:atemp>
          </ns3:TrackPointExtension>
        </extensions>
      </trkpt>
      <trkpt lat="42.5195308215916156768798828125" lon="20.1580045558512210845947265625">
        <ele>1860</ele>
        <time>2026-06-20T09:10:15.000Z</time>
        <extensions>
          <ns3:TrackPointExtension>
            <ns3:atemp>26.0</ns3:atemp>
          </ns3:TrackPointExtension>
        </extensions>
      </trkpt>
      <trkpt lat="42.5195308215916156768798828125" lon="20.1580045558512210845947265625">
        <ele>1860</ele>
        <time>2026-06-20T09:10:16.000Z</time>
        <extensions>
          <ns3:TrackPointExtension>
            <ns3:atemp>26.0</ns3:atemp>
          </ns3:TrackPointExtension>
        </extensions>
      </trkpt>
      <trkpt lat="42.5195308215916156768798828125" lon="20.1580045558512210845947265625">
        <ele>1860</ele>
        <time>2026-06-20T09:10:17.000Z</time>
        <extensions>
          <ns3:TrackPointExtension>
            <ns3:atemp>26.0</ns3:atemp>
          </ns3:TrackPointExtension>
        </extensions>
      </trkpt>
      <trkpt lat="42.5195308215916156768798828125" lon="20.1580045558512210845947265625">
        <ele>1860</ele>
        <time>2026-06-20T09:10:18.000Z</time>
        <extensions>
          <ns3:TrackPointExtension>
            <ns3:atemp>26.0</ns3:atemp>
          </ns3:TrackPointExtension>
        </extensions>
      </trkpt>
      <trkpt lat="42.5195308215916156768798828125" lon="20.1580045558512210845947265625">
        <ele>1860</ele>
        <time>2026-06-20T09:10:19.000Z</time>
        <extensions>
          <ns3:TrackPointExtension>
            <ns3:atemp>26.0</ns3:atemp>
          </ns3:TrackPointExtension>
        </extensions>
      </trkpt>
      <trkpt lat="42.5195308215916156768798828125" lon="20.1580045558512210845947265625">
        <ele>1860</ele>
        <time>2026-06-20T09:10:20.000Z</time>
        <extensions>
          <ns3:TrackPointExtension>
            <ns3:atemp>26.0</ns3:atemp>
          </ns3:TrackPointExtension>
        </extensions>
      </trkpt>
      <trkpt lat="42.5195308215916156768798828125" lon="20.1580045558512210845947265625">
        <ele>1860</ele>
        <time>2026-06-20T09:10:21.000Z</time>
        <extensions>
          <ns3:TrackPointExtension>
            <ns3:atemp>26.0</ns3:atemp>
          </ns3:TrackPointExtension>
        </extensions>
      </trkpt>
      <trkpt lat="42.5195308215916156768798828125" lon="20.1580045558512210845947265625">
        <ele>1860</ele>
        <time>2026-06-20T09:10:22.000Z</time>
        <extensions>
          <ns3:TrackPointExtension>
            <ns3:atemp>26.0</ns3:atemp>
          </ns3:TrackPointExtension>
        </extensions>
      </trkpt>
      <trkpt lat="42.5195308215916156768798828125" lon="20.1580045558512210845947265625">
        <ele>1860</ele>
        <time>2026-06-20T09:10:23.000Z</time>
        <extensions>
          <ns3:TrackPointExtension>
            <ns3:atemp>26.0</ns3:atemp>
          </ns3:TrackPointExtension>
        </extensions>
      </trkpt>
      <trkpt lat="42.5195308215916156768798828125" lon="20.1580045558512210845947265625">
        <ele>1860</ele>
        <time>2026-06-20T09:10:24.000Z</time>
        <extensions>
          <ns3:TrackPointExtension>
            <ns3:atemp>26.0</ns3:atemp>
          </ns3:TrackPointExtension>
        </extensions>
      </trkpt>
      <trkpt lat="42.5195308215916156768798828125" lon="20.1580045558512210845947265625">
        <ele>1860</ele>
        <time>2026-06-20T09:10:25.000Z</time>
        <extensions>
          <ns3:TrackPointExtension>
            <ns3:atemp>26.0</ns3:atemp>
          </ns3:TrackPointExtension>
        </extensions>
      </trkpt>
      <trkpt lat="42.5195308215916156768798828125" lon="20.1580045558512210845947265625">
        <ele>1860</ele>
        <time>2026-06-20T09:10:26.000Z</time>
        <extensions>
          <ns3:TrackPointExtension>
            <ns3:atemp>26.0</ns3:atemp>
          </ns3:TrackPointExtension>
        </extensions>
      </trkpt>
      <trkpt lat="42.5195308215916156768798828125" lon="20.1580045558512210845947265625">
        <ele>1860</ele>
        <time>2026-06-20T09:10:27.000Z</time>
        <extensions>
          <ns3:TrackPointExtension>
            <ns3:atemp>26.0</ns3:atemp>
          </ns3:TrackPointExtension>
        </extensions>
      </trkpt>
      <trkpt lat="42.5195308215916156768798828125" lon="20.1580045558512210845947265625">
        <ele>1860</ele>
        <time>2026-06-20T09:10:28.000Z</time>
        <extensions>
          <ns3:TrackPointExtension>
            <ns3:atemp>26.0</ns3:atemp>
          </ns3:TrackPointExtension>
        </extensions>
      </trkpt>
      <trkpt lat="42.5195308215916156768798828125" lon="20.1580045558512210845947265625">
        <ele>1860</ele>
        <time>2026-06-20T09:10:29.000Z</time>
        <extensions>
          <ns3:TrackPointExtension>
            <ns3:atemp>26.0</ns3:atemp>
          </ns3:TrackPointExtension>
        </extensions>
      </trkpt>
      <trkpt lat="42.5195308215916156768798828125" lon="20.1580045558512210845947265625">
        <ele>1860</ele>
        <time>2026-06-20T09:10:30.000Z</time>
        <extensions>
          <ns3:TrackPointExtension>
            <ns3:atemp>26.0</ns3:atemp>
          </ns3:TrackPointExtension>
        </extensions>
      </trkpt>
      <trkpt lat="42.5195308215916156768798828125" lon="20.1580045558512210845947265625">
        <ele>1860</ele>
        <time>2026-06-20T09:10:31.000Z</time>
        <extensions>
          <ns3:TrackPointExtension>
            <ns3:atemp>26.0</ns3:atemp>
          </ns3:TrackPointExtension>
        </extensions>
      </trkpt>
      <trkpt lat="42.5195308215916156768798828125" lon="20.1580045558512210845947265625">
        <ele>1860</ele>
        <time>2026-06-20T09:10:32.000Z</time>
        <extensions>
          <ns3:TrackPointExtension>
            <ns3:atemp>26.0</ns3:atemp>
          </ns3:TrackPointExtension>
        </extensions>
      </trkpt>
      <trkpt lat="42.5195308215916156768798828125" lon="20.1580045558512210845947265625">
        <ele>1860</ele>
        <time>2026-06-20T09:10:33.000Z</time>
        <extensions>
          <ns3:TrackPointExtension>
            <ns3:atemp>26.0</ns3:atemp>
          </ns3:TrackPointExtension>
        </extensions>
      </trkpt>
      <trkpt lat="42.5195308215916156768798828125" lon="20.1580045558512210845947265625">
        <ele>1860</ele>
        <time>2026-06-20T09:10:34.000Z</time>
        <extensions>
          <ns3:TrackPointExtension>
            <ns3:atemp>26.0</ns3:atemp>
          </ns3:TrackPointExtension>
        </extensions>
      </trkpt>
      <trkpt lat="42.5195308215916156768798828125" lon="20.1580045558512210845947265625">
        <ele>1860</ele>
        <time>2026-06-20T09:10:35.000Z</time>
        <extensions>
          <ns3:TrackPointExtension>
            <ns3:atemp>26.0</ns3:atemp>
          </ns3:TrackPointExtension>
        </extensions>
      </trkpt>
      <trkpt lat="42.5195308215916156768798828125" lon="20.1580045558512210845947265625">
        <ele>1860</ele>
        <time>2026-06-20T09:10:36.000Z</time>
        <extensions>
          <ns3:TrackPointExtension>
            <ns3:atemp>26.0</ns3:atemp>
          </ns3:TrackPointExtension>
        </extensions>
      </trkpt>
      <trkpt lat="42.5195308215916156768798828125" lon="20.1580045558512210845947265625">
        <ele>1860</ele>
        <time>2026-06-20T09:10:37.000Z</time>
        <extensions>
          <ns3:TrackPointExtension>
            <ns3:atemp>26.0</ns3:atemp>
          </ns3:TrackPointExtension>
        </extensions>
      </trkpt>
      <trkpt lat="42.5195308215916156768798828125" lon="20.1580045558512210845947265625">
        <ele>1860</ele>
        <time>2026-06-20T09:10:38.000Z</time>
        <extensions>
          <ns3:TrackPointExtension>
            <ns3:atemp>26.0</ns3:atemp>
          </ns3:TrackPointExtension>
        </extensions>
      </trkpt>
      <trkpt lat="42.5195308215916156768798828125" lon="20.1580045558512210845947265625">
        <ele>1860</ele>
        <time>2026-06-20T09:10:39.000Z</time>
        <extensions>
          <ns3:TrackPointExtension>
            <ns3:atemp>26.0</ns3:atemp>
          </ns3:TrackPointExtension>
        </extensions>
      </trkpt>
      <trkpt lat="42.5195308215916156768798828125" lon="20.1580045558512210845947265625">
        <ele>1860</ele>
        <time>2026-06-20T09:10:40.000Z</time>
        <extensions>
          <ns3:TrackPointExtension>
            <ns3:atemp>26.0</ns3:atemp>
          </ns3:TrackPointExtension>
        </extensions>
      </trkpt>
      <trkpt lat="42.5195308215916156768798828125" lon="20.1580045558512210845947265625">
        <ele>1860</ele>
        <time>2026-06-20T09:10:41.000Z</time>
        <extensions>
          <ns3:TrackPointExtension>
            <ns3:atemp>26.0</ns3:atemp>
          </ns3:TrackPointExtension>
        </extensions>
      </trkpt>
      <trkpt lat="42.5195308215916156768798828125" lon="20.1580045558512210845947265625">
        <ele>1860</ele>
        <time>2026-06-20T09:10:42.000Z</time>
        <extensions>
          <ns3:TrackPointExtension>
            <ns3:atemp>26.0</ns3:atemp>
          </ns3:TrackPointExtension>
        </extensions>
      </trkpt>
      <trkpt lat="42.5195308215916156768798828125" lon="20.1580045558512210845947265625">
        <ele>1860</ele>
        <time>2026-06-20T09:10:43.000Z</time>
        <extensions>
          <ns3:TrackPointExtension>
            <ns3:atemp>26.0</ns3:atemp>
          </ns3:TrackPointExtension>
        </extensions>
      </trkpt>
      <trkpt lat="42.5195308215916156768798828125" lon="20.1580045558512210845947265625">
        <ele>1860</ele>
        <time>2026-06-20T09:10:44.000Z</time>
        <extensions>
          <ns3:TrackPointExtension>
            <ns3:atemp>26.0</ns3:atemp>
          </ns3:TrackPointExtension>
        </extensions>
      </trkpt>
      <trkpt lat="42.5195308215916156768798828125" lon="20.1580045558512210845947265625">
        <ele>1860</ele>
        <time>2026-06-20T09:10:45.000Z</time>
        <extensions>
          <ns3:TrackPointExtension>
            <ns3:atemp>26.0</ns3:atemp>
          </ns3:TrackPointExtension>
        </extensions>
      </trkpt>
      <trkpt lat="42.5195308215916156768798828125" lon="20.1580045558512210845947265625">
        <ele>1860</ele>
        <time>2026-06-20T09:10:46.000Z</time>
        <extensions>
          <ns3:TrackPointExtension>
            <ns3:atemp>26.0</ns3:atemp>
          </ns3:TrackPointExtension>
        </extensions>
      </trkpt>
      <trkpt lat="42.5195308215916156768798828125" lon="20.1580045558512210845947265625">
        <ele>1860</ele>
        <time>2026-06-20T09:10:47.000Z</time>
        <extensions>
          <ns3:TrackPointExtension>
            <ns3:atemp>26.0</ns3:atemp>
          </ns3:TrackPointExtension>
        </extensions>
      </trkpt>
      <trkpt lat="42.5195308215916156768798828125" lon="20.1580045558512210845947265625">
        <ele>1860</ele>
        <time>2026-06-20T09:10:48.000Z</time>
        <extensions>
          <ns3:TrackPointExtension>
            <ns3:atemp>26.0</ns3:atemp>
          </ns3:TrackPointExtension>
        </extensions>
      </trkpt>
      <trkpt lat="42.5195308215916156768798828125" lon="20.1580045558512210845947265625">
        <ele>1860</ele>
        <time>2026-06-20T09:10:49.000Z</time>
        <extensions>
          <ns3:TrackPointExtension>
            <ns3:atemp>26.0</ns3:atemp>
          </ns3:TrackPointExtension>
        </extensions>
      </trkpt>
      <trkpt lat="42.5195308215916156768798828125" lon="20.1580045558512210845947265625">
        <ele>1860</ele>
        <time>2026-06-20T09:10:50.000Z</time>
        <extensions>
          <ns3:TrackPointExtension>
            <ns3:atemp>26.0</ns3:atemp>
          </ns3:TrackPointExtension>
        </extensions>
      </trkpt>
      <trkpt lat="42.5195308215916156768798828125" lon="20.1580045558512210845947265625">
        <ele>1860</ele>
        <time>2026-06-20T09:10:51.000Z</time>
        <extensions>
          <ns3:TrackPointExtension>
            <ns3:atemp>26.0</ns3:atemp>
          </ns3:TrackPointExtension>
        </extensions>
      </trkpt>
      <trkpt lat="42.5195308215916156768798828125" lon="20.1580045558512210845947265625">
        <ele>1860</ele>
        <time>2026-06-20T09:10:52.000Z</time>
        <extensions>
          <ns3:TrackPointExtension>
            <ns3:atemp>26.0</ns3:atemp>
          </ns3:TrackPointExtension>
        </extensions>
      </trkpt>
      <trkpt lat="42.5195308215916156768798828125" lon="20.1580045558512210845947265625">
        <ele>1860</ele>
        <time>2026-06-20T09:10:53.000Z</time>
        <extensions>
          <ns3:TrackPointExtension>
            <ns3:atemp>26.0</ns3:atemp>
          </ns3:TrackPointExtension>
        </extensions>
      </trkpt>
      <trkpt lat="42.5195308215916156768798828125" lon="20.1580045558512210845947265625">
        <ele>1860</ele>
        <time>2026-06-20T09:10:54.000Z</time>
        <extensions>
          <ns3:TrackPointExtension>
            <ns3:atemp>26.0</ns3:atemp>
          </ns3:TrackPointExtension>
        </extensions>
      </trkpt>
      <trkpt lat="42.5195308215916156768798828125" lon="20.1580045558512210845947265625">
        <ele>1860</ele>
        <time>2026-06-20T09:10:55.000Z</time>
        <extensions>
          <ns3:TrackPointExtension>
            <ns3:atemp>26.0</ns3:atemp>
          </ns3:TrackPointExtension>
        </extensions>
      </trkpt>
      <trkpt lat="42.5195308215916156768798828125" lon="20.1580045558512210845947265625">
        <ele>1860</ele>
        <time>2026-06-20T09:10:56.000Z</time>
        <extensions>
          <ns3:TrackPointExtension>
            <ns3:atemp>26.0</ns3:atemp>
          </ns3:TrackPointExtension>
        </extensions>
      </trkpt>
      <trkpt lat="42.5195308215916156768798828125" lon="20.1580045558512210845947265625">
        <ele>1860</ele>
        <time>2026-06-20T09:10:57.000Z</time>
        <extensions>
          <ns3:TrackPointExtension>
            <ns3:atemp>26.0</ns3:atemp>
          </ns3:TrackPointExtension>
        </extensions>
      </trkpt>
      <trkpt lat="42.5195308215916156768798828125" lon="20.1580045558512210845947265625">
        <ele>1860</ele>
        <time>2026-06-20T09:10:58.000Z</time>
        <extensions>
          <ns3:TrackPointExtension>
            <ns3:atemp>26.0</ns3:atemp>
          </ns3:TrackPointExtension>
        </extensions>
      </trkpt>
      <trkpt lat="42.5195308215916156768798828125" lon="20.1580045558512210845947265625">
        <ele>1860</ele>
        <time>2026-06-20T09:10:59.000Z</time>
        <extensions>
          <ns3:TrackPointExtension>
            <ns3:atemp>26.0</ns3:atemp>
          </ns3:TrackPointExtension>
        </extensions>
      </trkpt>
      <trkpt lat="42.5195308215916156768798828125" lon="20.1580045558512210845947265625">
        <ele>1860</ele>
        <time>2026-06-20T09:11:00.000Z</time>
        <extensions>
          <ns3:TrackPointExtension>
            <ns3:atemp>26.0</ns3:atemp>
          </ns3:TrackPointExtension>
        </extensions>
      </trkpt>
      <trkpt lat="42.5195308215916156768798828125" lon="20.1580045558512210845947265625">
        <ele>1860</ele>
        <time>2026-06-20T09:11:01.000Z</time>
        <extensions>
          <ns3:TrackPointExtension>
            <ns3:atemp>26.0</ns3:atemp>
          </ns3:TrackPointExtension>
        </extensions>
      </trkpt>
      <trkpt lat="42.5195308215916156768798828125" lon="20.1580045558512210845947265625">
        <ele>1860</ele>
        <time>2026-06-20T09:11:02.000Z</time>
        <extensions>
          <ns3:TrackPointExtension>
            <ns3:atemp>26.0</ns3:atemp>
          </ns3:TrackPointExtension>
        </extensions>
      </trkpt>
      <trkpt lat="42.5195308215916156768798828125" lon="20.1580045558512210845947265625">
        <ele>1860</ele>
        <time>2026-06-20T09:11:03.000Z</time>
        <extensions>
          <ns3:TrackPointExtension>
            <ns3:atemp>26.0</ns3:atemp>
          </ns3:TrackPointExtension>
        </extensions>
      </trkpt>
      <trkpt lat="42.5195308215916156768798828125" lon="20.1580045558512210845947265625">
        <ele>1860</ele>
        <time>2026-06-20T09:11:04.000Z</time>
        <extensions>
          <ns3:TrackPointExtension>
            <ns3:atemp>26.0</ns3:atemp>
          </ns3:TrackPointExtension>
        </extensions>
      </trkpt>
      <trkpt lat="42.5195308215916156768798828125" lon="20.1580045558512210845947265625">
        <ele>1860</ele>
        <time>2026-06-20T09:11:05.000Z</time>
        <extensions>
          <ns3:TrackPointExtension>
            <ns3:atemp>26.0</ns3:atemp>
          </ns3:TrackPointExtension>
        </extensions>
      </trkpt>
      <trkpt lat="42.5195308215916156768798828125" lon="20.1580045558512210845947265625">
        <ele>1860</ele>
        <time>2026-06-20T09:11:06.000Z</time>
        <extensions>
          <ns3:TrackPointExtension>
            <ns3:atemp>26.0</ns3:atemp>
          </ns3:TrackPointExtension>
        </extensions>
      </trkpt>
      <trkpt lat="42.5195308215916156768798828125" lon="20.1580045558512210845947265625">
        <ele>1860</ele>
        <time>2026-06-20T09:11:07.000Z</time>
        <extensions>
          <ns3:TrackPointExtension>
            <ns3:atemp>26.0</ns3:atemp>
          </ns3:TrackPointExtension>
        </extensions>
      </trkpt>
      <trkpt lat="42.5195308215916156768798828125" lon="20.1580045558512210845947265625">
        <ele>1860</ele>
        <time>2026-06-20T09:11:08.000Z</time>
        <extensions>
          <ns3:TrackPointExtension>
            <ns3:atemp>26.0</ns3:atemp>
          </ns3:TrackPointExtension>
        </extensions>
      </trkpt>
      <trkpt lat="42.5195308215916156768798828125" lon="20.1580045558512210845947265625">
        <ele>1860</ele>
        <time>2026-06-20T09:11:09.000Z</time>
        <extensions>
          <ns3:TrackPointExtension>
            <ns3:atemp>26.0</ns3:atemp>
          </ns3:TrackPointExtension>
        </extensions>
      </trkpt>
      <trkpt lat="42.5195308215916156768798828125" lon="20.1580045558512210845947265625">
        <ele>1860</ele>
        <time>2026-06-20T09:11:10.000Z</time>
        <extensions>
          <ns3:TrackPointExtension>
            <ns3:atemp>26.0</ns3:atemp>
          </ns3:TrackPointExtension>
        </extensions>
      </trkpt>
      <trkpt lat="42.5195308215916156768798828125" lon="20.1580045558512210845947265625">
        <ele>1860</ele>
        <time>2026-06-20T09:11:11.000Z</time>
        <extensions>
          <ns3:TrackPointExtension>
            <ns3:atemp>26.0</ns3:atemp>
          </ns3:TrackPointExtension>
        </extensions>
      </trkpt>
      <trkpt lat="42.5195308215916156768798828125" lon="20.1580045558512210845947265625">
        <ele>1860</ele>
        <time>2026-06-20T09:11:12.000Z</time>
        <extensions>
          <ns3:TrackPointExtension>
            <ns3:atemp>26.0</ns3:atemp>
          </ns3:TrackPointExtension>
        </extensions>
      </trkpt>
      <trkpt lat="42.5195308215916156768798828125" lon="20.1580045558512210845947265625">
        <ele>1860</ele>
        <time>2026-06-20T09:11:13.000Z</time>
        <extensions>
          <ns3:TrackPointExtension>
            <ns3:atemp>26.0</ns3:atemp>
          </ns3:TrackPointExtension>
        </extensions>
      </trkpt>
      <trkpt lat="42.5195308215916156768798828125" lon="20.1580045558512210845947265625">
        <ele>1860</ele>
        <time>2026-06-20T09:11:14.000Z</time>
        <extensions>
          <ns3:TrackPointExtension>
            <ns3:atemp>26.0</ns3:atemp>
          </ns3:TrackPointExtension>
        </extensions>
      </trkpt>
      <trkpt lat="42.5195308215916156768798828125" lon="20.1580045558512210845947265625">
        <ele>1860</ele>
        <time>2026-06-20T09:11:15.000Z</time>
        <extensions>
          <ns3:TrackPointExtension>
            <ns3:atemp>26.0</ns3:atemp>
          </ns3:TrackPointExtension>
        </extensions>
      </trkpt>
      <trkpt lat="42.5195308215916156768798828125" lon="20.1580045558512210845947265625">
        <ele>1860</ele>
        <time>2026-06-20T09:11:16.000Z</time>
        <extensions>
          <ns3:TrackPointExtension>
            <ns3:atemp>26.0</ns3:atemp>
          </ns3:TrackPointExtension>
        </extensions>
      </trkpt>
      <trkpt lat="42.5195308215916156768798828125" lon="20.1580045558512210845947265625">
        <ele>1860</ele>
        <time>2026-06-20T09:11:17.000Z</time>
        <extensions>
          <ns3:TrackPointExtension>
            <ns3:atemp>26.0</ns3:atemp>
          </ns3:TrackPointExtension>
        </extensions>
      </trkpt>
      <trkpt lat="42.5195308215916156768798828125" lon="20.1580045558512210845947265625">
        <ele>1860</ele>
        <time>2026-06-20T09:11:18.000Z</time>
        <extensions>
          <ns3:TrackPointExtension>
            <ns3:atemp>26.0</ns3:atemp>
          </ns3:TrackPointExtension>
        </extensions>
      </trkpt>
      <trkpt lat="42.5195308215916156768798828125" lon="20.1580045558512210845947265625">
        <ele>1860</ele>
        <time>2026-06-20T09:11:19.000Z</time>
        <extensions>
          <ns3:TrackPointExtension>
            <ns3:atemp>26.0</ns3:atemp>
          </ns3:TrackPointExtension>
        </extensions>
      </trkpt>
      <trkpt lat="42.5195308215916156768798828125" lon="20.1580045558512210845947265625">
        <ele>1860</ele>
        <time>2026-06-20T09:11:20.000Z</time>
        <extensions>
          <ns3:TrackPointExtension>
            <ns3:atemp>26.0</ns3:atemp>
          </ns3:TrackPointExtension>
        </extensions>
      </trkpt>
      <trkpt lat="42.5195308215916156768798828125" lon="20.1580045558512210845947265625">
        <ele>1860</ele>
        <time>2026-06-20T09:11:21.000Z</time>
        <extensions>
          <ns3:TrackPointExtension>
            <ns3:atemp>26.0</ns3:atemp>
          </ns3:TrackPointExtension>
        </extensions>
      </trkpt>
      <trkpt lat="42.5195308215916156768798828125" lon="20.1580045558512210845947265625">
        <ele>1860</ele>
        <time>2026-06-20T09:11:22.000Z</time>
        <extensions>
          <ns3:TrackPointExtension>
            <ns3:atemp>26.0</ns3:atemp>
          </ns3:TrackPointExtension>
        </extensions>
      </trkpt>
      <trkpt lat="42.5195308215916156768798828125" lon="20.1580045558512210845947265625">
        <ele>1860</ele>
        <time>2026-06-20T09:11:23.000Z</time>
        <extensions>
          <ns3:TrackPointExtension>
            <ns3:atemp>26.0</ns3:atemp>
          </ns3:TrackPointExtension>
        </extensions>
      </trkpt>
      <trkpt lat="42.5195308215916156768798828125" lon="20.1580045558512210845947265625">
        <ele>1860</ele>
        <time>2026-06-20T09:11:24.000Z</time>
        <extensions>
          <ns3:TrackPointExtension>
            <ns3:atemp>26.0</ns3:atemp>
          </ns3:TrackPointExtension>
        </extensions>
      </trkpt>
      <trkpt lat="42.5195308215916156768798828125" lon="20.1580045558512210845947265625">
        <ele>1860</ele>
        <time>2026-06-20T09:11:25.000Z</time>
        <extensions>
          <ns3:TrackPointExtension>
            <ns3:atemp>26.0</ns3:atemp>
          </ns3:TrackPointExtension>
        </extensions>
      </trkpt>
      <trkpt lat="42.5195308215916156768798828125" lon="20.1580045558512210845947265625">
        <ele>1860</ele>
        <time>2026-06-20T09:11:26.000Z</time>
        <extensions>
          <ns3:TrackPointExtension>
            <ns3:atemp>26.0</ns3:atemp>
          </ns3:TrackPointExtension>
        </extensions>
      </trkpt>
      <trkpt lat="42.5195308215916156768798828125" lon="20.1580045558512210845947265625">
        <ele>1860</ele>
        <time>2026-06-20T09:11:27.000Z</time>
        <extensions>
          <ns3:TrackPointExtension>
            <ns3:atemp>26.0</ns3:atemp>
          </ns3:TrackPointExtension>
        </extensions>
      </trkpt>
      <trkpt lat="42.5195308215916156768798828125" lon="20.1580045558512210845947265625">
        <ele>1860</ele>
        <time>2026-06-20T09:11:28.000Z</time>
        <extensions>
          <ns3:TrackPointExtension>
            <ns3:atemp>26.0</ns3:atemp>
          </ns3:TrackPointExtension>
        </extensions>
      </trkpt>
      <trkpt lat="42.5195308215916156768798828125" lon="20.1580045558512210845947265625">
        <ele>1860</ele>
        <time>2026-06-20T09:11:29.000Z</time>
        <extensions>
          <ns3:TrackPointExtension>
            <ns3:atemp>26.0</ns3:atemp>
          </ns3:TrackPointExtension>
        </extensions>
      </trkpt>
      <trkpt lat="42.5195308215916156768798828125" lon="20.1580045558512210845947265625">
        <ele>1860</ele>
        <time>2026-06-20T09:11:30.000Z</time>
        <extensions>
          <ns3:TrackPointExtension>
            <ns3:atemp>26.0</ns3:atemp>
          </ns3:TrackPointExtension>
        </extensions>
      </trkpt>
      <trkpt lat="42.5195308215916156768798828125" lon="20.1580045558512210845947265625">
        <ele>1860</ele>
        <time>2026-06-20T09:11:31.000Z</time>
        <extensions>
          <ns3:TrackPointExtension>
            <ns3:atemp>26.0</ns3:atemp>
          </ns3:TrackPointExtension>
        </extensions>
      </trkpt>
      <trkpt lat="42.5195308215916156768798828125" lon="20.1580045558512210845947265625">
        <ele>1860</ele>
        <time>2026-06-20T09:11:32.000Z</time>
        <extensions>
          <ns3:TrackPointExtension>
            <ns3:atemp>26.0</ns3:atemp>
          </ns3:TrackPointExtension>
        </extensions>
      </trkpt>
      <trkpt lat="42.5195308215916156768798828125" lon="20.1580045558512210845947265625">
        <ele>1860</ele>
        <time>2026-06-20T09:11:33.000Z</time>
        <extensions>
          <ns3:TrackPointExtension>
            <ns3:atemp>26.0</ns3:atemp>
          </ns3:TrackPointExtension>
        </extensions>
      </trkpt>
      <trkpt lat="42.5195308215916156768798828125" lon="20.1580045558512210845947265625">
        <ele>1860</ele>
        <time>2026-06-20T09:11:34.000Z</time>
        <extensions>
          <ns3:TrackPointExtension>
            <ns3:atemp>26.0</ns3:atemp>
          </ns3:TrackPointExtension>
        </extensions>
      </trkpt>
      <trkpt lat="42.5195308215916156768798828125" lon="20.1580045558512210845947265625">
        <ele>1860</ele>
        <time>2026-06-20T09:11:35.000Z</time>
        <extensions>
          <ns3:TrackPointExtension>
            <ns3:atemp>26.0</ns3:atemp>
          </ns3:TrackPointExtension>
        </extensions>
      </trkpt>
      <trkpt lat="42.5195308215916156768798828125" lon="20.1580045558512210845947265625">
        <ele>1860</ele>
        <time>2026-06-20T09:11:36.000Z</time>
        <extensions>
          <ns3:TrackPointExtension>
            <ns3:atemp>26.0</ns3:atemp>
          </ns3:TrackPointExtension>
        </extensions>
      </trkpt>
      <trkpt lat="42.5195308215916156768798828125" lon="20.1580045558512210845947265625">
        <ele>1860</ele>
        <time>2026-06-20T09:11:37.000Z</time>
        <extensions>
          <ns3:TrackPointExtension>
            <ns3:atemp>26.0</ns3:atemp>
          </ns3:TrackPointExtension>
        </extensions>
      </trkpt>
      <trkpt lat="42.5195308215916156768798828125" lon="20.1580045558512210845947265625">
        <ele>1860</ele>
        <time>2026-06-20T09:11:38.000Z</time>
        <extensions>
          <ns3:TrackPointExtension>
            <ns3:atemp>26.0</ns3:atemp>
          </ns3:TrackPointExtension>
        </extensions>
      </trkpt>
      <trkpt lat="42.5195308215916156768798828125" lon="20.1580045558512210845947265625">
        <ele>1860</ele>
        <time>2026-06-20T09:11:39.000Z</time>
        <extensions>
          <ns3:TrackPointExtension>
            <ns3:atemp>26.0</ns3:atemp>
          </ns3:TrackPointExtension>
        </extensions>
      </trkpt>
      <trkpt lat="42.5195308215916156768798828125" lon="20.1580045558512210845947265625">
        <ele>1860</ele>
        <time>2026-06-20T09:11:40.000Z</time>
        <extensions>
          <ns3:TrackPointExtension>
            <ns3:atemp>26.0</ns3:atemp>
          </ns3:TrackPointExtension>
        </extensions>
      </trkpt>
      <trkpt lat="42.5195308215916156768798828125" lon="20.1580045558512210845947265625">
        <ele>1860</ele>
        <time>2026-06-20T09:11:41.000Z</time>
        <extensions>
          <ns3:TrackPointExtension>
            <ns3:atemp>26.0</ns3:atemp>
          </ns3:TrackPointExtension>
        </extensions>
      </trkpt>
      <trkpt lat="42.5195308215916156768798828125" lon="20.1580045558512210845947265625">
        <ele>1860</ele>
        <time>2026-06-20T09:11:42.000Z</time>
        <extensions>
          <ns3:TrackPointExtension>
            <ns3:atemp>26.0</ns3:atemp>
          </ns3:TrackPointExtension>
        </extensions>
      </trkpt>
      <trkpt lat="42.5195308215916156768798828125" lon="20.1580045558512210845947265625">
        <ele>1860</ele>
        <time>2026-06-20T09:11:43.000Z</time>
        <extensions>
          <ns3:TrackPointExtension>
            <ns3:atemp>26.0</ns3:atemp>
          </ns3:TrackPointExtension>
        </extensions>
      </trkpt>
      <trkpt lat="42.5195308215916156768798828125" lon="20.1580045558512210845947265625">
        <ele>1860</ele>
        <time>2026-06-20T09:11:44.000Z</time>
        <extensions>
          <ns3:TrackPointExtension>
            <ns3:atemp>26.0</ns3:atemp>
          </ns3:TrackPointExtension>
        </extensions>
      </trkpt>
      <trkpt lat="42.5195308215916156768798828125" lon="20.1580045558512210845947265625">
        <ele>1860</ele>
        <time>2026-06-20T09:11:45.000Z</time>
        <extensions>
          <ns3:TrackPointExtension>
            <ns3:atemp>26.0</ns3:atemp>
          </ns3:TrackPointExtension>
        </extensions>
      </trkpt>
      <trkpt lat="42.5195308215916156768798828125" lon="20.1580045558512210845947265625">
        <ele>1860</ele>
        <time>2026-06-20T09:11:46.000Z</time>
        <extensions>
          <ns3:TrackPointExtension>
            <ns3:atemp>26.0</ns3:atemp>
          </ns3:TrackPointExtension>
        </extensions>
      </trkpt>
      <trkpt lat="42.5195308215916156768798828125" lon="20.1580045558512210845947265625">
        <ele>1860</ele>
        <time>2026-06-20T09:11:47.000Z</time>
        <extensions>
          <ns3:TrackPointExtension>
            <ns3:atemp>26.0</ns3:atemp>
          </ns3:TrackPointExtension>
        </extensions>
      </trkpt>
      <trkpt lat="42.5195308215916156768798828125" lon="20.1580045558512210845947265625">
        <ele>1860</ele>
        <time>2026-06-20T09:11:48.000Z</time>
        <extensions>
          <ns3:TrackPointExtension>
            <ns3:atemp>26.0</ns3:atemp>
          </ns3:TrackPointExtension>
        </extensions>
      </trkpt>
      <trkpt lat="42.5195308215916156768798828125" lon="20.1580045558512210845947265625">
        <ele>1860</ele>
        <time>2026-06-20T09:11:49.000Z</time>
        <extensions>
          <ns3:TrackPointExtension>
            <ns3:atemp>26.0</ns3:atemp>
          </ns3:TrackPointExtension>
        </extensions>
      </trkpt>
      <trkpt lat="42.5195308215916156768798828125" lon="20.1580045558512210845947265625">
        <ele>1860</ele>
        <time>2026-06-20T09:11:50.000Z</time>
        <extensions>
          <ns3:TrackPointExtension>
            <ns3:atemp>26.0</ns3:atemp>
          </ns3:TrackPointExtension>
        </extensions>
      </trkpt>
      <trkpt lat="42.5195308215916156768798828125" lon="20.1580045558512210845947265625">
        <ele>1860</ele>
        <time>2026-06-20T09:11:51.000Z</time>
        <extensions>
          <ns3:TrackPointExtension>
            <ns3:atemp>26.0</ns3:atemp>
          </ns3:TrackPointExtension>
        </extensions>
      </trkpt>
      <trkpt lat="42.5195308215916156768798828125" lon="20.1580045558512210845947265625">
        <ele>1860</ele>
        <time>2026-06-20T09:11:52.000Z</time>
        <extensions>
          <ns3:TrackPointExtension>
            <ns3:atemp>26.0</ns3:atemp>
          </ns3:TrackPointExtension>
        </extensions>
      </trkpt>
      <trkpt lat="42.5195308215916156768798828125" lon="20.1580045558512210845947265625">
        <ele>1860</ele>
        <time>2026-06-20T09:11:53.000Z</time>
        <extensions>
          <ns3:TrackPointExtension>
            <ns3:atemp>26.0</ns3:atemp>
          </ns3:TrackPointExtension>
        </extensions>
      </trkpt>
      <trkpt lat="42.5195308215916156768798828125" lon="20.1580045558512210845947265625">
        <ele>1860</ele>
        <time>2026-06-20T09:11:54.000Z</time>
        <extensions>
          <ns3:TrackPointExtension>
            <ns3:atemp>26.0</ns3:atemp>
          </ns3:TrackPointExtension>
        </extensions>
      </trkpt>
      <trkpt lat="42.5195308215916156768798828125" lon="20.1580045558512210845947265625">
        <ele>1860</ele>
        <time>2026-06-20T09:11:55.000Z</time>
        <extensions>
          <ns3:TrackPointExtension>
            <ns3:atemp>26.0</ns3:atemp>
          </ns3:TrackPointExtension>
        </extensions>
      </trkpt>
      <trkpt lat="42.5195308215916156768798828125" lon="20.1580045558512210845947265625">
        <ele>1860</ele>
        <time>2026-06-20T09:11:56.000Z</time>
        <extensions>
          <ns3:TrackPointExtension>
            <ns3:atemp>26.0</ns3:atemp>
          </ns3:TrackPointExtension>
        </extensions>
      </trkpt>
      <trkpt lat="42.5195308215916156768798828125" lon="20.1580045558512210845947265625">
        <ele>1860</ele>
        <time>2026-06-20T09:11:57.000Z</time>
        <extensions>
          <ns3:TrackPointExtension>
            <ns3:atemp>26.0</ns3:atemp>
          </ns3:TrackPointExtension>
        </extensions>
      </trkpt>
      <trkpt lat="42.5195308215916156768798828125" lon="20.1580045558512210845947265625">
        <ele>1860</ele>
        <time>2026-06-20T09:11:58.000Z</time>
        <extensions>
          <ns3:TrackPointExtension>
            <ns3:atemp>26.0</ns3:atemp>
          </ns3:TrackPointExtension>
        </extensions>
      </trkpt>
      <trkpt lat="42.5195308215916156768798828125" lon="20.1580045558512210845947265625">
        <ele>1860</ele>
        <time>2026-06-20T09:11:59.000Z</time>
        <extensions>
          <ns3:TrackPointExtension>
            <ns3:atemp>26.0</ns3:atemp>
          </ns3:TrackPointExtension>
        </extensions>
      </trkpt>
      <trkpt lat="42.5195308215916156768798828125" lon="20.1580045558512210845947265625">
        <ele>1860</ele>
        <time>2026-06-20T09:12:00.000Z</time>
        <extensions>
          <ns3:TrackPointExtension>
            <ns3:atemp>26.0</ns3:atemp>
          </ns3:TrackPointExtension>
        </extensions>
      </trkpt>
      <trkpt lat="42.5195308215916156768798828125" lon="20.1580045558512210845947265625">
        <ele>1860</ele>
        <time>2026-06-20T09:12:01.000Z</time>
        <extensions>
          <ns3:TrackPointExtension>
            <ns3:atemp>26.0</ns3:atemp>
          </ns3:TrackPointExtension>
        </extensions>
      </trkpt>
      <trkpt lat="42.5195308215916156768798828125" lon="20.1580045558512210845947265625">
        <ele>1860</ele>
        <time>2026-06-20T09:12:02.000Z</time>
        <extensions>
          <ns3:TrackPointExtension>
            <ns3:atemp>26.0</ns3:atemp>
          </ns3:TrackPointExtension>
        </extensions>
      </trkpt>
      <trkpt lat="42.5195308215916156768798828125" lon="20.1580045558512210845947265625">
        <ele>1860</ele>
        <time>2026-06-20T09:12:03.000Z</time>
        <extensions>
          <ns3:TrackPointExtension>
            <ns3:atemp>26.0</ns3:atemp>
          </ns3:TrackPointExtension>
        </extensions>
      </trkpt>
      <trkpt lat="42.5195308215916156768798828125" lon="20.1580045558512210845947265625">
        <ele>1860</ele>
        <time>2026-06-20T09:12:04.000Z</time>
        <extensions>
          <ns3:TrackPointExtension>
            <ns3:atemp>26.0</ns3:atemp>
          </ns3:TrackPointExtension>
        </extensions>
      </trkpt>
      <trkpt lat="42.5195308215916156768798828125" lon="20.1580045558512210845947265625">
        <ele>1860</ele>
        <time>2026-06-20T09:12:05.000Z</time>
        <extensions>
          <ns3:TrackPointExtension>
            <ns3:atemp>26.0</ns3:atemp>
          </ns3:TrackPointExtension>
        </extensions>
      </trkpt>
      <trkpt lat="42.5195308215916156768798828125" lon="20.1580045558512210845947265625">
        <ele>1860</ele>
        <time>2026-06-20T09:12:06.000Z</time>
        <extensions>
          <ns3:TrackPointExtension>
            <ns3:atemp>26.0</ns3:atemp>
          </ns3:TrackPointExtension>
        </extensions>
      </trkpt>
      <trkpt lat="42.5195308215916156768798828125" lon="20.1580045558512210845947265625">
        <ele>1860</ele>
        <time>2026-06-20T09:12:07.000Z</time>
        <extensions>
          <ns3:TrackPointExtension>
            <ns3:atemp>26.0</ns3:atemp>
          </ns3:TrackPointExtension>
        </extensions>
      </trkpt>
      <trkpt lat="42.5195308215916156768798828125" lon="20.1580045558512210845947265625">
        <ele>1860</ele>
        <time>2026-06-20T09:12:08.000Z</time>
        <extensions>
          <ns3:TrackPointExtension>
            <ns3:atemp>26.0</ns3:atemp>
          </ns3:TrackPointExtension>
        </extensions>
      </trkpt>
      <trkpt lat="42.5195308215916156768798828125" lon="20.1580045558512210845947265625">
        <ele>1860</ele>
        <time>2026-06-20T09:12:09.000Z</time>
        <extensions>
          <ns3:TrackPointExtension>
            <ns3:atemp>26.0</ns3:atemp>
          </ns3:TrackPointExtension>
        </extensions>
      </trkpt>
      <trkpt lat="42.5195308215916156768798828125" lon="20.1580045558512210845947265625">
        <ele>1860</ele>
        <time>2026-06-20T09:12:10.000Z</time>
        <extensions>
          <ns3:TrackPointExtension>
            <ns3:atemp>26.0</ns3:atemp>
          </ns3:TrackPointExtension>
        </extensions>
      </trkpt>
      <trkpt lat="42.5195308215916156768798828125" lon="20.1580045558512210845947265625">
        <ele>1860</ele>
        <time>2026-06-20T09:12:11.000Z</time>
        <extensions>
          <ns3:TrackPointExtension>
            <ns3:atemp>26.0</ns3:atemp>
          </ns3:TrackPointExtension>
        </extensions>
      </trkpt>
      <trkpt lat="42.5195308215916156768798828125" lon="20.1580045558512210845947265625">
        <ele>1860</ele>
        <time>2026-06-20T09:12:12.000Z</time>
        <extensions>
          <ns3:TrackPointExtension>
            <ns3:atemp>26.0</ns3:atemp>
          </ns3:TrackPointExtension>
        </extensions>
      </trkpt>
      <trkpt lat="42.5195308215916156768798828125" lon="20.1580045558512210845947265625">
        <ele>1860</ele>
        <time>2026-06-20T09:12:13.000Z</time>
        <extensions>
          <ns3:TrackPointExtension>
            <ns3:atemp>26.0</ns3:atemp>
          </ns3:TrackPointExtension>
        </extensions>
      </trkpt>
      <trkpt lat="42.5195308215916156768798828125" lon="20.1580045558512210845947265625">
        <ele>1860</ele>
        <time>2026-06-20T09:12:14.000Z</time>
        <extensions>
          <ns3:TrackPointExtension>
            <ns3:atemp>26.0</ns3:atemp>
          </ns3:TrackPointExtension>
        </extensions>
      </trkpt>
      <trkpt lat="42.5195308215916156768798828125" lon="20.1580045558512210845947265625">
        <ele>1860</ele>
        <time>2026-06-20T09:12:15.000Z</time>
        <extensions>
          <ns3:TrackPointExtension>
            <ns3:atemp>26.0</ns3:atemp>
          </ns3:TrackPointExtension>
        </extensions>
      </trkpt>
      <trkpt lat="42.5195308215916156768798828125" lon="20.1580045558512210845947265625">
        <ele>1860</ele>
        <time>2026-06-20T09:12:16.000Z</time>
        <extensions>
          <ns3:TrackPointExtension>
            <ns3:atemp>26.0</ns3:atemp>
          </ns3:TrackPointExtension>
        </extensions>
      </trkpt>
      <trkpt lat="42.5195308215916156768798828125" lon="20.1580045558512210845947265625">
        <ele>1860</ele>
        <time>2026-06-20T09:12:17.000Z</time>
        <extensions>
          <ns3:TrackPointExtension>
            <ns3:atemp>26.0</ns3:atemp>
          </ns3:TrackPointExtension>
        </extensions>
      </trkpt>
      <trkpt lat="42.5195308215916156768798828125" lon="20.1580045558512210845947265625">
        <ele>1860</ele>
        <time>2026-06-20T09:12:18.000Z</time>
        <extensions>
          <ns3:TrackPointExtension>
            <ns3:atemp>26.0</ns3:atemp>
          </ns3:TrackPointExtension>
        </extensions>
      </trkpt>
      <trkpt lat="42.5195308215916156768798828125" lon="20.1580045558512210845947265625">
        <ele>1860</ele>
        <time>2026-06-20T09:12:19.000Z</time>
        <extensions>
          <ns3:TrackPointExtension>
            <ns3:atemp>26.0</ns3:atemp>
          </ns3:TrackPointExtension>
        </extensions>
      </trkpt>
      <trkpt lat="42.5195308215916156768798828125" lon="20.1580045558512210845947265625">
        <ele>1860</ele>
        <time>2026-06-20T09:12:20.000Z</time>
        <extensions>
          <ns3:TrackPointExtension>
            <ns3:atemp>26.0</ns3:atemp>
          </ns3:TrackPointExtension>
        </extensions>
      </trkpt>
      <trkpt lat="42.5195308215916156768798828125" lon="20.1580045558512210845947265625">
        <ele>1860</ele>
        <time>2026-06-20T09:12:21.000Z</time>
        <extensions>
          <ns3:TrackPointExtension>
            <ns3:atemp>26.0</ns3:atemp>
          </ns3:TrackPointExtension>
        </extensions>
      </trkpt>
      <trkpt lat="42.5195308215916156768798828125" lon="20.1580045558512210845947265625">
        <ele>1860</ele>
        <time>2026-06-20T09:12:22.000Z</time>
        <extensions>
          <ns3:TrackPointExtension>
            <ns3:atemp>26.0</ns3:atemp>
          </ns3:TrackPointExtension>
        </extensions>
      </trkpt>
      <trkpt lat="42.5195308215916156768798828125" lon="20.1580045558512210845947265625">
        <ele>1860</ele>
        <time>2026-06-20T09:12:23.000Z</time>
        <extensions>
          <ns3:TrackPointExtension>
            <ns3:atemp>26.0</ns3:atemp>
          </ns3:TrackPointExtension>
        </extensions>
      </trkpt>
      <trkpt lat="42.5195308215916156768798828125" lon="20.1580045558512210845947265625">
        <ele>1860</ele>
        <time>2026-06-20T09:12:24.000Z</time>
        <extensions>
          <ns3:TrackPointExtension>
            <ns3:atemp>26.0</ns3:atemp>
          </ns3:TrackPointExtension>
        </extensions>
      </trkpt>
      <trkpt lat="42.5195308215916156768798828125" lon="20.1580045558512210845947265625">
        <ele>1860</ele>
        <time>2026-06-20T09:12:25.000Z</time>
        <extensions>
          <ns3:TrackPointExtension>
            <ns3:atemp>26.0</ns3:atemp>
          </ns3:TrackPointExtension>
        </extensions>
      </trkpt>
      <trkpt lat="42.5195308215916156768798828125" lon="20.1580045558512210845947265625">
        <ele>1860</ele>
        <time>2026-06-20T09:12:26.000Z</time>
        <extensions>
          <ns3:TrackPointExtension>
            <ns3:atemp>26.0</ns3:atemp>
          </ns3:TrackPointExtension>
        </extensions>
      </trkpt>
      <trkpt lat="42.5195308215916156768798828125" lon="20.1580045558512210845947265625">
        <ele>1860</ele>
        <time>2026-06-20T09:12:27.000Z</time>
        <extensions>
          <ns3:TrackPointExtension>
            <ns3:atemp>26.0</ns3:atemp>
          </ns3:TrackPointExtension>
        </extensions>
      </trkpt>
      <trkpt lat="42.5195308215916156768798828125" lon="20.1580045558512210845947265625">
        <ele>1860</ele>
        <time>2026-06-20T09:12:28.000Z</time>
        <extensions>
          <ns3:TrackPointExtension>
            <ns3:atemp>26.0</ns3:atemp>
          </ns3:TrackPointExtension>
        </extensions>
      </trkpt>
      <trkpt lat="42.5195308215916156768798828125" lon="20.1580045558512210845947265625">
        <ele>1860</ele>
        <time>2026-06-20T09:12:29.000Z</time>
        <extensions>
          <ns3:TrackPointExtension>
            <ns3:atemp>26.0</ns3:atemp>
          </ns3:TrackPointExtension>
        </extensions>
      </trkpt>
      <trkpt lat="42.5195308215916156768798828125" lon="20.1580045558512210845947265625">
        <ele>1860</ele>
        <time>2026-06-20T09:12:30.000Z</time>
        <extensions>
          <ns3:TrackPointExtension>
            <ns3:atemp>26.0</ns3:atemp>
          </ns3:TrackPointExtension>
        </extensions>
      </trkpt>
      <trkpt lat="42.5195308215916156768798828125" lon="20.1580045558512210845947265625">
        <ele>1860</ele>
        <time>2026-06-20T09:12:31.000Z</time>
        <extensions>
          <ns3:TrackPointExtension>
            <ns3:atemp>26.0</ns3:atemp>
          </ns3:TrackPointExtension>
        </extensions>
      </trkpt>
      <trkpt lat="42.5195308215916156768798828125" lon="20.1580045558512210845947265625">
        <ele>1860</ele>
        <time>2026-06-20T09:12:32.000Z</time>
        <extensions>
          <ns3:TrackPointExtension>
            <ns3:atemp>26.0</ns3:atemp>
          </ns3:TrackPointExtension>
        </extensions>
      </trkpt>
      <trkpt lat="42.5195308215916156768798828125" lon="20.1580045558512210845947265625">
        <ele>1860</ele>
        <time>2026-06-20T09:12:33.000Z</time>
        <extensions>
          <ns3:TrackPointExtension>
            <ns3:atemp>26.0</ns3:atemp>
          </ns3:TrackPointExtension>
        </extensions>
      </trkpt>
      <trkpt lat="42.5195308215916156768798828125" lon="20.1580045558512210845947265625">
        <ele>1860</ele>
        <time>2026-06-20T09:12:34.000Z</time>
        <extensions>
          <ns3:TrackPointExtension>
            <ns3:atemp>26.0</ns3:atemp>
          </ns3:TrackPointExtension>
        </extensions>
      </trkpt>
      <trkpt lat="42.5195308215916156768798828125" lon="20.1580045558512210845947265625">
        <ele>1860</ele>
        <time>2026-06-20T09:12:35.000Z</time>
        <extensions>
          <ns3:TrackPointExtension>
            <ns3:atemp>26.0</ns3:atemp>
          </ns3:TrackPointExtension>
        </extensions>
      </trkpt>
      <trkpt lat="42.5195308215916156768798828125" lon="20.1580045558512210845947265625">
        <ele>1860</ele>
        <time>2026-06-20T09:12:36.000Z</time>
        <extensions>
          <ns3:TrackPointExtension>
            <ns3:atemp>26.0</ns3:atemp>
          </ns3:TrackPointExtension>
        </extensions>
      </trkpt>
      <trkpt lat="42.5195308215916156768798828125" lon="20.1580045558512210845947265625">
        <ele>1860</ele>
        <time>2026-06-20T09:12:37.000Z</time>
        <extensions>
          <ns3:TrackPointExtension>
            <ns3:atemp>26.0</ns3:atemp>
          </ns3:TrackPointExtension>
        </extensions>
      </trkpt>
      <trkpt lat="42.5195308215916156768798828125" lon="20.1580045558512210845947265625">
        <ele>1860</ele>
        <time>2026-06-20T09:12:38.000Z</time>
        <extensions>
          <ns3:TrackPointExtension>
            <ns3:atemp>26.0</ns3:atemp>
          </ns3:TrackPointExtension>
        </extensions>
      </trkpt>
      <trkpt lat="42.5195308215916156768798828125" lon="20.1580045558512210845947265625">
        <ele>1860</ele>
        <time>2026-06-20T09:12:39.000Z</time>
        <extensions>
          <ns3:TrackPointExtension>
            <ns3:atemp>26.0</ns3:atemp>
          </ns3:TrackPointExtension>
        </extensions>
      </trkpt>
      <trkpt lat="42.5195308215916156768798828125" lon="20.1580045558512210845947265625">
        <ele>1860</ele>
        <time>2026-06-20T09:12:40.000Z</time>
        <extensions>
          <ns3:TrackPointExtension>
            <ns3:atemp>26.0</ns3:atemp>
          </ns3:TrackPointExtension>
        </extensions>
      </trkpt>
      <trkpt lat="42.5195308215916156768798828125" lon="20.1580045558512210845947265625">
        <ele>1860</ele>
        <time>2026-06-20T09:12:41.000Z</time>
        <extensions>
          <ns3:TrackPointExtension>
            <ns3:atemp>26.0</ns3:atemp>
          </ns3:TrackPointExtension>
        </extensions>
      </trkpt>
      <trkpt lat="42.5195308215916156768798828125" lon="20.1580045558512210845947265625">
        <ele>1860</ele>
        <time>2026-06-20T09:12:42.000Z</time>
        <extensions>
          <ns3:TrackPointExtension>
            <ns3:atemp>26.0</ns3:atemp>
          </ns3:TrackPointExtension>
        </extensions>
      </trkpt>
      <trkpt lat="42.5195308215916156768798828125" lon="20.1580045558512210845947265625">
        <ele>1860</ele>
        <time>2026-06-20T09:12:43.000Z</time>
        <extensions>
          <ns3:TrackPointExtension>
            <ns3:atemp>26.0</ns3:atemp>
          </ns3:TrackPointExtension>
        </extensions>
      </trkpt>
      <trkpt lat="42.5195308215916156768798828125" lon="20.1580045558512210845947265625">
        <ele>1860</ele>
        <time>2026-06-20T09:12:44.000Z</time>
        <extensions>
          <ns3:TrackPointExtension>
            <ns3:atemp>26.0</ns3:atemp>
          </ns3:TrackPointExtension>
        </extensions>
      </trkpt>
      <trkpt lat="42.5195308215916156768798828125" lon="20.1580045558512210845947265625">
        <ele>1860</ele>
        <time>2026-06-20T09:12:45.000Z</time>
        <extensions>
          <ns3:TrackPointExtension>
            <ns3:atemp>26.0</ns3:atemp>
          </ns3:TrackPointExtension>
        </extensions>
      </trkpt>
      <trkpt lat="42.5195308215916156768798828125" lon="20.1580045558512210845947265625">
        <ele>1860</ele>
        <time>2026-06-20T09:12:46.000Z</time>
        <extensions>
          <ns3:TrackPointExtension>
            <ns3:atemp>26.0</ns3:atemp>
          </ns3:TrackPointExtension>
        </extensions>
      </trkpt>
      <trkpt lat="42.5195308215916156768798828125" lon="20.1580045558512210845947265625">
        <ele>1860</ele>
        <time>2026-06-20T09:12:47.000Z</time>
        <extensions>
          <ns3:TrackPointExtension>
            <ns3:atemp>26.0</ns3:atemp>
          </ns3:TrackPointExtension>
        </extensions>
      </trkpt>
      <trkpt lat="42.5195308215916156768798828125" lon="20.1580045558512210845947265625">
        <ele>1860</ele>
        <time>2026-06-20T09:12:48.000Z</time>
        <extensions>
          <ns3:TrackPointExtension>
            <ns3:atemp>26.0</ns3:atemp>
          </ns3:TrackPointExtension>
        </extensions>
      </trkpt>
      <trkpt lat="42.5195308215916156768798828125" lon="20.1580045558512210845947265625">
        <ele>1860</ele>
        <time>2026-06-20T09:12:49.000Z</time>
        <extensions>
          <ns3:TrackPointExtension>
            <ns3:atemp>26.0</ns3:atemp>
          </ns3:TrackPointExtension>
        </extensions>
      </trkpt>
      <trkpt lat="42.5195308215916156768798828125" lon="20.1580045558512210845947265625">
        <ele>1860</ele>
        <time>2026-06-20T09:12:50.000Z</time>
        <extensions>
          <ns3:TrackPointExtension>
            <ns3:atemp>26.0</ns3:atemp>
          </ns3:TrackPointExtension>
        </extensions>
      </trkpt>
      <trkpt lat="42.5195308215916156768798828125" lon="20.1580045558512210845947265625">
        <ele>1860</ele>
        <time>2026-06-20T09:12:51.000Z</time>
        <extensions>
          <ns3:TrackPointExtension>
            <ns3:atemp>26.0</ns3:atemp>
          </ns3:TrackPointExtension>
        </extensions>
      </trkpt>
      <trkpt lat="42.5195308215916156768798828125" lon="20.1580045558512210845947265625">
        <ele>1860</ele>
        <time>2026-06-20T09:12:52.000Z</time>
        <extensions>
          <ns3:TrackPointExtension>
            <ns3:atemp>26.0</ns3:atemp>
          </ns3:TrackPointExtension>
        </extensions>
      </trkpt>
      <trkpt lat="42.5195308215916156768798828125" lon="20.1580045558512210845947265625">
        <ele>1860</ele>
        <time>2026-06-20T09:12:53.000Z</time>
        <extensions>
          <ns3:TrackPointExtension>
            <ns3:atemp>26.0</ns3:atemp>
          </ns3:TrackPointExtension>
        </extensions>
      </trkpt>
      <trkpt lat="42.5195308215916156768798828125" lon="20.1580045558512210845947265625">
        <ele>1860</ele>
        <time>2026-06-20T09:12:54.000Z</time>
        <extensions>
          <ns3:TrackPointExtension>
            <ns3:atemp>26.0</ns3:atemp>
          </ns3:TrackPointExtension>
        </extensions>
      </trkpt>
      <trkpt lat="42.5195308215916156768798828125" lon="20.1580045558512210845947265625">
        <ele>1860</ele>
        <time>2026-06-20T09:12:55.000Z</time>
        <extensions>
          <ns3:TrackPointExtension>
            <ns3:atemp>26.0</ns3:atemp>
          </ns3:TrackPointExtension>
        </extensions>
      </trkpt>
      <trkpt lat="42.5195308215916156768798828125" lon="20.1580045558512210845947265625">
        <ele>1860</ele>
        <time>2026-06-20T09:12:56.000Z</time>
        <extensions>
          <ns3:TrackPointExtension>
            <ns3:atemp>26.0</ns3:atemp>
          </ns3:TrackPointExtension>
        </extensions>
      </trkpt>
      <trkpt lat="42.5195308215916156768798828125" lon="20.1580045558512210845947265625">
        <ele>1860</ele>
        <time>2026-06-20T09:12:57.000Z</time>
        <extensions>
          <ns3:TrackPointExtension>
            <ns3:atemp>26.0</ns3:atemp>
          </ns3:TrackPointExtension>
        </extensions>
      </trkpt>
      <trkpt lat="42.5195308215916156768798828125" lon="20.1580045558512210845947265625">
        <ele>1860</ele>
        <time>2026-06-20T09:12:58.000Z</time>
        <extensions>
          <ns3:TrackPointExtension>
            <ns3:atemp>26.0</ns3:atemp>
          </ns3:TrackPointExtension>
        </extensions>
      </trkpt>
      <trkpt lat="42.5195308215916156768798828125" lon="20.1580045558512210845947265625">
        <ele>1860</ele>
        <time>2026-06-20T09:12:59.000Z</time>
        <extensions>
          <ns3:TrackPointExtension>
            <ns3:atemp>26.0</ns3:atemp>
          </ns3:TrackPointExtension>
        </extensions>
      </trkpt>
      <trkpt lat="42.5195308215916156768798828125" lon="20.1580045558512210845947265625">
        <ele>1860</ele>
        <time>2026-06-20T09:13:00.000Z</time>
        <extensions>
          <ns3:TrackPointExtension>
            <ns3:atemp>26.0</ns3:atemp>
          </ns3:TrackPointExtension>
        </extensions>
      </trkpt>
      <trkpt lat="42.5195308215916156768798828125" lon="20.1580045558512210845947265625">
        <ele>1860</ele>
        <time>2026-06-20T09:13:01.000Z</time>
        <extensions>
          <ns3:TrackPointExtension>
            <ns3:atemp>26.0</ns3:atemp>
          </ns3:TrackPointExtension>
        </extensions>
      </trkpt>
      <trkpt lat="42.5195308215916156768798828125" lon="20.1580045558512210845947265625">
        <ele>1860</ele>
        <time>2026-06-20T09:13:02.000Z</time>
        <extensions>
          <ns3:TrackPointExtension>
            <ns3:atemp>26.0</ns3:atemp>
          </ns3:TrackPointExtension>
        </extensions>
      </trkpt>
      <trkpt lat="42.5195308215916156768798828125" lon="20.1580045558512210845947265625">
        <ele>1860</ele>
        <time>2026-06-20T09:13:03.000Z</time>
        <extensions>
          <ns3:TrackPointExtension>
            <ns3:atemp>26.0</ns3:atemp>
          </ns3:TrackPointExtension>
        </extensions>
      </trkpt>
      <trkpt lat="42.5195308215916156768798828125" lon="20.1580045558512210845947265625">
        <ele>1860</ele>
        <time>2026-06-20T09:13:04.000Z</time>
        <extensions>
          <ns3:TrackPointExtension>
            <ns3:atemp>26.0</ns3:atemp>
          </ns3:TrackPointExtension>
        </extensions>
      </trkpt>
      <trkpt lat="42.5195308215916156768798828125" lon="20.1580045558512210845947265625">
        <ele>1860</ele>
        <time>2026-06-20T09:13:05.000Z</time>
        <extensions>
          <ns3:TrackPointExtension>
            <ns3:atemp>26.0</ns3:atemp>
          </ns3:TrackPointExtension>
        </extensions>
      </trkpt>
      <trkpt lat="42.5195308215916156768798828125" lon="20.1580045558512210845947265625">
        <ele>1860</ele>
        <time>2026-06-20T09:13:06.000Z</time>
        <extensions>
          <ns3:TrackPointExtension>
            <ns3:atemp>27.0</ns3:atemp>
          </ns3:TrackPointExtension>
        </extensions>
      </trkpt>
      <trkpt lat="42.5195308215916156768798828125" lon="20.1580045558512210845947265625">
        <ele>1860</ele>
        <time>2026-06-20T09:13:07.000Z</time>
        <extensions>
          <ns3:TrackPointExtension>
            <ns3:atemp>27.0</ns3:atemp>
          </ns3:TrackPointExtension>
        </extensions>
      </trkpt>
      <trkpt lat="42.5195308215916156768798828125" lon="20.1580045558512210845947265625">
        <ele>1860</ele>
        <time>2026-06-20T09:13:08.000Z</time>
        <extensions>
          <ns3:TrackPointExtension>
            <ns3:atemp>27.0</ns3:atemp>
          </ns3:TrackPointExtension>
        </extensions>
      </trkpt>
      <trkpt lat="42.5195308215916156768798828125" lon="20.1580045558512210845947265625">
        <ele>1860</ele>
        <time>2026-06-20T09:13:09.000Z</time>
        <extensions>
          <ns3:TrackPointExtension>
            <ns3:atemp>26.0</ns3:atemp>
          </ns3:TrackPointExtension>
        </extensions>
      </trkpt>
      <trkpt lat="42.5195308215916156768798828125" lon="20.1580045558512210845947265625">
        <ele>1860</ele>
        <time>2026-06-20T09:13:10.000Z</time>
        <extensions>
          <ns3:TrackPointExtension>
            <ns3:atemp>26.0</ns3:atemp>
          </ns3:TrackPointExtension>
        </extensions>
      </trkpt>
      <trkpt lat="42.5195308215916156768798828125" lon="20.1580045558512210845947265625">
        <ele>1860</ele>
        <time>2026-06-20T09:13:11.000Z</time>
        <extensions>
          <ns3:TrackPointExtension>
            <ns3:atemp>26.0</ns3:atemp>
          </ns3:TrackPointExtension>
        </extensions>
      </trkpt>
      <trkpt lat="42.5195308215916156768798828125" lon="20.1580045558512210845947265625">
        <ele>1860</ele>
        <time>2026-06-20T09:13:12.000Z</time>
        <extensions>
          <ns3:TrackPointExtension>
            <ns3:atemp>27.0</ns3:atemp>
          </ns3:TrackPointExtension>
        </extensions>
      </trkpt>
      <trkpt lat="42.5195308215916156768798828125" lon="20.1580045558512210845947265625">
        <ele>1860</ele>
        <time>2026-06-20T09:13:13.000Z</time>
        <extensions>
          <ns3:TrackPointExtension>
            <ns3:atemp>27.0</ns3:atemp>
          </ns3:TrackPointExtension>
        </extensions>
      </trkpt>
      <trkpt lat="42.5195308215916156768798828125" lon="20.1580045558512210845947265625">
        <ele>1860</ele>
        <time>2026-06-20T09:13:14.000Z</time>
        <extensions>
          <ns3:TrackPointExtension>
            <ns3:atemp>27.0</ns3:atemp>
          </ns3:TrackPointExtension>
        </extensions>
      </trkpt>
      <trkpt lat="42.5195308215916156768798828125" lon="20.1580045558512210845947265625">
        <ele>1860</ele>
        <time>2026-06-20T09:13:15.000Z</time>
        <extensions>
          <ns3:TrackPointExtension>
            <ns3:atemp>27.0</ns3:atemp>
          </ns3:TrackPointExtension>
        </extensions>
      </trkpt>
      <trkpt lat="42.5195308215916156768798828125" lon="20.1580045558512210845947265625">
        <ele>1860</ele>
        <time>2026-06-20T09:13:16.000Z</time>
        <extensions>
          <ns3:TrackPointExtension>
            <ns3:atemp>27.0</ns3:atemp>
          </ns3:TrackPointExtension>
        </extensions>
      </trkpt>
      <trkpt lat="42.5195308215916156768798828125" lon="20.1580045558512210845947265625">
        <ele>1860</ele>
        <time>2026-06-20T09:13:17.000Z</time>
        <extensions>
          <ns3:TrackPointExtension>
            <ns3:atemp>26.0</ns3:atemp>
          </ns3:TrackPointExtension>
        </extensions>
      </trkpt>
      <trkpt lat="42.5195308215916156768798828125" lon="20.1580045558512210845947265625">
        <ele>1860</ele>
        <time>2026-06-20T09:13:18.000Z</time>
        <extensions>
          <ns3:TrackPointExtension>
            <ns3:atemp>26.0</ns3:atemp>
          </ns3:TrackPointExtension>
        </extensions>
      </trkpt>
      <trkpt lat="42.5195308215916156768798828125" lon="20.1580045558512210845947265625">
        <ele>1860</ele>
        <time>2026-06-20T09:13:19.000Z</time>
        <extensions>
          <ns3:TrackPointExtension>
            <ns3:atemp>27.0</ns3:atemp>
          </ns3:TrackPointExtension>
        </extensions>
      </trkpt>
      <trkpt lat="42.5195308215916156768798828125" lon="20.1580045558512210845947265625">
        <ele>1860</ele>
        <time>2026-06-20T09:13:20.000Z</time>
        <extensions>
          <ns3:TrackPointExtension>
            <ns3:atemp>27.0</ns3:atemp>
          </ns3:TrackPointExtension>
        </extensions>
      </trkpt>
      <trkpt lat="42.5195308215916156768798828125" lon="20.1580045558512210845947265625">
        <ele>1860</ele>
        <time>2026-06-20T09:13:21.000Z</time>
        <extensions>
          <ns3:TrackPointExtension>
            <ns3:atemp>27.0</ns3:atemp>
          </ns3:TrackPointExtension>
        </extensions>
      </trkpt>
      <trkpt lat="42.5195308215916156768798828125" lon="20.1580045558512210845947265625">
        <ele>1860</ele>
        <time>2026-06-20T09:13:22.000Z</time>
        <extensions>
          <ns3:TrackPointExtension>
            <ns3:atemp>27.0</ns3:atemp>
          </ns3:TrackPointExtension>
        </extensions>
      </trkpt>
      <trkpt lat="42.5195308215916156768798828125" lon="20.1580045558512210845947265625">
        <ele>1860</ele>
        <time>2026-06-20T09:13:23.000Z</time>
        <extensions>
          <ns3:TrackPointExtension>
            <ns3:atemp>27.0</ns3:atemp>
          </ns3:TrackPointExtension>
        </extensions>
      </trkpt>
      <trkpt lat="42.5195308215916156768798828125" lon="20.1580045558512210845947265625">
        <ele>1860</ele>
        <time>2026-06-20T09:13:24.000Z</time>
        <extensions>
          <ns3:TrackPointExtension>
            <ns3:atemp>26.0</ns3:atemp>
          </ns3:TrackPointExtension>
        </extensions>
      </trkpt>
      <trkpt lat="42.5195308215916156768798828125" lon="20.1580045558512210845947265625">
        <ele>1860</ele>
        <time>2026-06-20T09:13:25.000Z</time>
        <extensions>
          <ns3:TrackPointExtension>
            <ns3:atemp>26.0</ns3:atemp>
          </ns3:TrackPointExtension>
        </extensions>
      </trkpt>
      <trkpt lat="42.5195308215916156768798828125" lon="20.1580045558512210845947265625">
        <ele>1860</ele>
        <time>2026-06-20T09:13:26.000Z</time>
        <extensions>
          <ns3:TrackPointExtension>
            <ns3:atemp>27.0</ns3:atemp>
          </ns3:TrackPointExtension>
        </extensions>
      </trkpt>
      <trkpt lat="42.5195308215916156768798828125" lon="20.1580045558512210845947265625">
        <ele>1860</ele>
        <time>2026-06-20T09:13:27.000Z</time>
        <extensions>
          <ns3:TrackPointExtension>
            <ns3:atemp>26.0</ns3:atemp>
          </ns3:TrackPointExtension>
        </extensions>
      </trkpt>
      <trkpt lat="42.5195308215916156768798828125" lon="20.1580045558512210845947265625">
        <ele>1860</ele>
        <time>2026-06-20T09:13:28.000Z</time>
        <extensions>
          <ns3:TrackPointExtension>
            <ns3:atemp>26.0</ns3:atemp>
          </ns3:TrackPointExtension>
        </extensions>
      </trkpt>
      <trkpt lat="42.5195308215916156768798828125" lon="20.1580045558512210845947265625">
        <ele>1860</ele>
        <time>2026-06-20T09:13:29.000Z</time>
        <extensions>
          <ns3:TrackPointExtension>
            <ns3:atemp>26.0</ns3:atemp>
          </ns3:TrackPointExtension>
        </extensions>
      </trkpt>
      <trkpt lat="42.5195308215916156768798828125" lon="20.1580045558512210845947265625">
        <ele>1860</ele>
        <time>2026-06-20T09:13:30.000Z</time>
        <extensions>
          <ns3:TrackPointExtension>
            <ns3:atemp>26.0</ns3:atemp>
          </ns3:TrackPointExtension>
        </extensions>
      </trkpt>
      <trkpt lat="42.5195308215916156768798828125" lon="20.1580045558512210845947265625">
        <ele>1860</ele>
        <time>2026-06-20T09:13:31.000Z</time>
        <extensions>
          <ns3:TrackPointExtension>
            <ns3:atemp>26.0</ns3:atemp>
          </ns3:TrackPointExtension>
        </extensions>
      </trkpt>
      <trkpt lat="42.5195308215916156768798828125" lon="20.1580045558512210845947265625">
        <ele>1860</ele>
        <time>2026-06-20T09:13:32.000Z</time>
        <extensions>
          <ns3:TrackPointExtension>
            <ns3:atemp>26.0</ns3:atemp>
          </ns3:TrackPointExtension>
        </extensions>
      </trkpt>
      <trkpt lat="42.5195308215916156768798828125" lon="20.1580045558512210845947265625">
        <ele>1860</ele>
        <time>2026-06-20T09:13:33.000Z</time>
        <extensions>
          <ns3:TrackPointExtension>
            <ns3:atemp>26.0</ns3:atemp>
          </ns3:TrackPointExtension>
        </extensions>
      </trkpt>
      <trkpt lat="42.5195308215916156768798828125" lon="20.1580045558512210845947265625">
        <ele>1860</ele>
        <time>2026-06-20T09:13:34.000Z</time>
        <extensions>
          <ns3:TrackPointExtension>
            <ns3:atemp>26.0</ns3:atemp>
          </ns3:TrackPointExtension>
        </extensions>
      </trkpt>
      <trkpt lat="42.5195308215916156768798828125" lon="20.1580045558512210845947265625">
        <ele>1860</ele>
        <time>2026-06-20T09:13:35.000Z</time>
        <extensions>
          <ns3:TrackPointExtension>
            <ns3:atemp>26.0</ns3:atemp>
          </ns3:TrackPointExtension>
        </extensions>
      </trkpt>
      <trkpt lat="42.5195308215916156768798828125" lon="20.1580045558512210845947265625">
        <ele>1860</ele>
        <time>2026-06-20T09:13:36.000Z</time>
        <extensions>
          <ns3:TrackPointExtension>
            <ns3:atemp>26.0</ns3:atemp>
          </ns3:TrackPointExtension>
        </extensions>
      </trkpt>
      <trkpt lat="42.5195308215916156768798828125" lon="20.1580045558512210845947265625">
        <ele>1860</ele>
        <time>2026-06-20T09:13:37.000Z</time>
        <extensions>
          <ns3:TrackPointExtension>
            <ns3:atemp>27.0</ns3:atemp>
          </ns3:TrackPointExtension>
        </extensions>
      </trkpt>
      <trkpt lat="42.5195308215916156768798828125" lon="20.1580045558512210845947265625">
        <ele>1860</ele>
        <time>2026-06-20T09:13:38.000Z</time>
        <extensions>
          <ns3:TrackPointExtension>
            <ns3:atemp>27.0</ns3:atemp>
          </ns3:TrackPointExtension>
        </extensions>
      </trkpt>
      <trkpt lat="42.5195308215916156768798828125" lon="20.1580045558512210845947265625">
        <ele>1860</ele>
        <time>2026-06-20T09:13:39.000Z</time>
        <extensions>
          <ns3:TrackPointExtension>
            <ns3:atemp>27.0</ns3:atemp>
          </ns3:TrackPointExtension>
        </extensions>
      </trkpt>
      <trkpt lat="42.5195308215916156768798828125" lon="20.1580045558512210845947265625">
        <ele>1860</ele>
        <time>2026-06-20T09:13:40.000Z</time>
        <extensions>
          <ns3:TrackPointExtension>
            <ns3:atemp>27.0</ns3:atemp>
          </ns3:TrackPointExtension>
        </extensions>
      </trkpt>
      <trkpt lat="42.5195308215916156768798828125" lon="20.1580045558512210845947265625">
        <ele>1860</ele>
        <time>2026-06-20T09:13:41.000Z</time>
        <extensions>
          <ns3:TrackPointExtension>
            <ns3:atemp>27.0</ns3:atemp>
          </ns3:TrackPointExtension>
        </extensions>
      </trkpt>
      <trkpt lat="42.5195308215916156768798828125" lon="20.1580045558512210845947265625">
        <ele>1860</ele>
        <time>2026-06-20T09:13:42.000Z</time>
        <extensions>
          <ns3:TrackPointExtension>
            <ns3:atemp>27.0</ns3:atemp>
          </ns3:TrackPointExtension>
        </extensions>
      </trkpt>
      <trkpt lat="42.5195308215916156768798828125" lon="20.1580045558512210845947265625">
        <ele>1860</ele>
        <time>2026-06-20T09:13:43.000Z</time>
        <extensions>
          <ns3:TrackPointExtension>
            <ns3:atemp>27.0</ns3:atemp>
          </ns3:TrackPointExtension>
        </extensions>
      </trkpt>
      <trkpt lat="42.5195308215916156768798828125" lon="20.1580045558512210845947265625">
        <ele>1860</ele>
        <time>2026-06-20T09:13:44.000Z</time>
        <extensions>
          <ns3:TrackPointExtension>
            <ns3:atemp>26.0</ns3:atemp>
          </ns3:TrackPointExtension>
        </extensions>
      </trkpt>
      <trkpt lat="42.5195308215916156768798828125" lon="20.1580045558512210845947265625">
        <ele>1860</ele>
        <time>2026-06-20T09:13:45.000Z</time>
        <extensions>
          <ns3:TrackPointExtension>
            <ns3:atemp>26.0</ns3:atemp>
          </ns3:TrackPointExtension>
        </extensions>
      </trkpt>
      <trkpt lat="42.5195308215916156768798828125" lon="20.1580045558512210845947265625">
        <ele>1860</ele>
        <time>2026-06-20T09:13:46.000Z</time>
        <extensions>
          <ns3:TrackPointExtension>
            <ns3:atemp>26.0</ns3:atemp>
          </ns3:TrackPointExtension>
        </extensions>
      </trkpt>
      <trkpt lat="42.5195308215916156768798828125" lon="20.1580045558512210845947265625">
        <ele>1860</ele>
        <time>2026-06-20T09:13:47.000Z</time>
        <extensions>
          <ns3:TrackPointExtension>
            <ns3:atemp>26.0</ns3:atemp>
          </ns3:TrackPointExtension>
        </extensions>
      </trkpt>
      <trkpt lat="42.5195308215916156768798828125" lon="20.1580045558512210845947265625">
        <ele>1860</ele>
        <time>2026-06-20T09:13:48.000Z</time>
        <extensions>
          <ns3:TrackPointExtension>
            <ns3:atemp>26.0</ns3:atemp>
          </ns3:TrackPointExtension>
        </extensions>
      </trkpt>
      <trkpt lat="42.5195308215916156768798828125" lon="20.1580045558512210845947265625">
        <ele>1860</ele>
        <time>2026-06-20T09:13:49.000Z</time>
        <extensions>
          <ns3:TrackPointExtension>
            <ns3:atemp>26.0</ns3:atemp>
          </ns3:TrackPointExtension>
        </extensions>
      </trkpt>
      <trkpt lat="42.5195308215916156768798828125" lon="20.1580045558512210845947265625">
        <ele>1860</ele>
        <time>2026-06-20T09:13:50.000Z</time>
        <extensions>
          <ns3:TrackPointExtension>
            <ns3:atemp>26.0</ns3:atemp>
          </ns3:TrackPointExtension>
        </extensions>
      </trkpt>
      <trkpt lat="42.5195308215916156768798828125" lon="20.1580045558512210845947265625">
        <ele>1860</ele>
        <time>2026-06-20T09:13:51.000Z</time>
        <extensions>
          <ns3:TrackPointExtension>
            <ns3:atemp>26.0</ns3:atemp>
          </ns3:TrackPointExtension>
        </extensions>
      </trkpt>
      <trkpt lat="42.5195308215916156768798828125" lon="20.1580045558512210845947265625">
        <ele>1860</ele>
        <time>2026-06-20T09:13:52.000Z</time>
        <extensions>
          <ns3:TrackPointExtension>
            <ns3:atemp>26.0</ns3:atemp>
          </ns3:TrackPointExtension>
        </extensions>
      </trkpt>
      <trkpt lat="42.5195308215916156768798828125" lon="20.1580045558512210845947265625">
        <ele>1860</ele>
        <time>2026-06-20T09:13:53.000Z</time>
        <extensions>
          <ns3:TrackPointExtension>
            <ns3:atemp>26.0</ns3:atemp>
          </ns3:TrackPointExtension>
        </extensions>
      </trkpt>
      <trkpt lat="42.5195308215916156768798828125" lon="20.1580045558512210845947265625">
        <ele>1860</ele>
        <time>2026-06-20T09:13:54.000Z</time>
        <extensions>
          <ns3:TrackPointExtension>
            <ns3:atemp>26.0</ns3:atemp>
          </ns3:TrackPointExtension>
        </extensions>
      </trkpt>
      <trkpt lat="42.5195308215916156768798828125" lon="20.1580045558512210845947265625">
        <ele>1860</ele>
        <time>2026-06-20T09:13:55.000Z</time>
        <extensions>
          <ns3:TrackPointExtension>
            <ns3:atemp>26.0</ns3:atemp>
          </ns3:TrackPointExtension>
        </extensions>
      </trkpt>
      <trkpt lat="42.5195308215916156768798828125" lon="20.1580045558512210845947265625">
        <ele>1860</ele>
        <time>2026-06-20T09:13:56.000Z</time>
        <extensions>
          <ns3:TrackPointExtension>
            <ns3:atemp>26.0</ns3:atemp>
          </ns3:TrackPointExtension>
        </extensions>
      </trkpt>
      <trkpt lat="42.5195308215916156768798828125" lon="20.1580045558512210845947265625">
        <ele>1860</ele>
        <time>2026-06-20T09:13:57.000Z</time>
        <extensions>
          <ns3:TrackPointExtension>
            <ns3:atemp>26.0</ns3:atemp>
          </ns3:TrackPointExtension>
        </extensions>
      </trkpt>
      <trkpt lat="42.5195308215916156768798828125" lon="20.1580045558512210845947265625">
        <ele>1860</ele>
        <time>2026-06-20T09:13:58.000Z</time>
        <extensions>
          <ns3:TrackPointExtension>
            <ns3:atemp>26.0</ns3:atemp>
          </ns3:TrackPointExtension>
        </extensions>
      </trkpt>
      <trkpt lat="42.5195308215916156768798828125" lon="20.1580045558512210845947265625">
        <ele>1860</ele>
        <time>2026-06-20T09:13:59.000Z</time>
        <extensions>
          <ns3:TrackPointExtension>
            <ns3:atemp>26.0</ns3:atemp>
          </ns3:TrackPointExtension>
        </extensions>
      </trkpt>
      <trkpt lat="42.5195308215916156768798828125" lon="20.1580045558512210845947265625">
        <ele>1860</ele>
        <time>2026-06-20T09:14:00.000Z</time>
        <extensions>
          <ns3:TrackPointExtension>
            <ns3:atemp>26.0</ns3:atemp>
          </ns3:TrackPointExtension>
        </extensions>
      </trkpt>
      <trkpt lat="42.5195308215916156768798828125" lon="20.1580045558512210845947265625">
        <ele>1860</ele>
        <time>2026-06-20T09:14:01.000Z</time>
        <extensions>
          <ns3:TrackPointExtension>
            <ns3:atemp>26.0</ns3:atemp>
          </ns3:TrackPointExtension>
        </extensions>
      </trkpt>
      <trkpt lat="42.5195308215916156768798828125" lon="20.1580045558512210845947265625">
        <ele>1860</ele>
        <time>2026-06-20T09:14:02.000Z</time>
        <extensions>
          <ns3:TrackPointExtension>
            <ns3:atemp>26.0</ns3:atemp>
          </ns3:TrackPointExtension>
        </extensions>
      </trkpt>
      <trkpt lat="42.5195308215916156768798828125" lon="20.1580045558512210845947265625">
        <ele>1860</ele>
        <time>2026-06-20T09:14:03.000Z</time>
        <extensions>
          <ns3:TrackPointExtension>
            <ns3:atemp>26.0</ns3:atemp>
          </ns3:TrackPointExtension>
        </extensions>
      </trkpt>
      <trkpt lat="42.5195308215916156768798828125" lon="20.1580045558512210845947265625">
        <ele>1860</ele>
        <time>2026-06-20T09:14:04.000Z</time>
        <extensions>
          <ns3:TrackPointExtension>
            <ns3:atemp>26.0</ns3:atemp>
          </ns3:TrackPointExtension>
        </extensions>
      </trkpt>
      <trkpt lat="42.5195308215916156768798828125" lon="20.1580045558512210845947265625">
        <ele>1860</ele>
        <time>2026-06-20T09:14:05.000Z</time>
        <extensions>
          <ns3:TrackPointExtension>
            <ns3:atemp>26.0</ns3:atemp>
          </ns3:TrackPointExtension>
        </extensions>
      </trkpt>
      <trkpt lat="42.5195308215916156768798828125" lon="20.1580045558512210845947265625">
        <ele>1860</ele>
        <time>2026-06-20T09:14:06.000Z</time>
        <extensions>
          <ns3:TrackPointExtension>
            <ns3:atemp>26.0</ns3:atemp>
          </ns3:TrackPointExtension>
        </extensions>
      </trkpt>
      <trkpt lat="42.5195308215916156768798828125" lon="20.1580045558512210845947265625">
        <ele>1860</ele>
        <time>2026-06-20T09:14:07.000Z</time>
        <extensions>
          <ns3:TrackPointExtension>
            <ns3:atemp>26.0</ns3:atemp>
          </ns3:TrackPointExtension>
        </extensions>
      </trkpt>
      <trkpt lat="42.5195308215916156768798828125" lon="20.1580045558512210845947265625">
        <ele>1860</ele>
        <time>2026-06-20T09:14:08.000Z</time>
        <extensions>
          <ns3:TrackPointExtension>
            <ns3:atemp>26.0</ns3:atemp>
          </ns3:TrackPointExtension>
        </extensions>
      </trkpt>
      <trkpt lat="42.5195308215916156768798828125" lon="20.1580045558512210845947265625">
        <ele>1860</ele>
        <time>2026-06-20T09:14:09.000Z</time>
        <extensions>
          <ns3:TrackPointExtension>
            <ns3:atemp>26.0</ns3:atemp>
          </ns3:TrackPointExtension>
        </extensions>
      </trkpt>
      <trkpt lat="42.5195308215916156768798828125" lon="20.1580045558512210845947265625">
        <ele>1860</ele>
        <time>2026-06-20T09:14:10.000Z</time>
        <extensions>
          <ns3:TrackPointExtension>
            <ns3:atemp>26.0</ns3:atemp>
          </ns3:TrackPointExtension>
        </extensions>
      </trkpt>
      <trkpt lat="42.5195308215916156768798828125" lon="20.1580045558512210845947265625">
        <ele>1860</ele>
        <time>2026-06-20T09:14:11.000Z</time>
        <extensions>
          <ns3:TrackPointExtension>
            <ns3:atemp>26.0</ns3:atemp>
          </ns3:TrackPointExtension>
        </extensions>
      </trkpt>
      <trkpt lat="42.5195308215916156768798828125" lon="20.1580045558512210845947265625">
        <ele>1860</ele>
        <time>2026-06-20T09:14:12.000Z</time>
        <extensions>
          <ns3:TrackPointExtension>
            <ns3:atemp>26.0</ns3:atemp>
          </ns3:TrackPointExtension>
        </extensions>
      </trkpt>
      <trkpt lat="42.5195308215916156768798828125" lon="20.1580045558512210845947265625">
        <ele>1860</ele>
        <time>2026-06-20T09:14:13.000Z</time>
        <extensions>
          <ns3:TrackPointExtension>
            <ns3:atemp>26.0</ns3:atemp>
          </ns3:TrackPointExtension>
        </extensions>
      </trkpt>
      <trkpt lat="42.5195308215916156768798828125" lon="20.1580045558512210845947265625">
        <ele>1860</ele>
        <time>2026-06-20T09:14:14.000Z</time>
        <extensions>
          <ns3:TrackPointExtension>
            <ns3:atemp>26.0</ns3:atemp>
          </ns3:TrackPointExtension>
        </extensions>
      </trkpt>
      <trkpt lat="42.5195308215916156768798828125" lon="20.1580045558512210845947265625">
        <ele>1860</ele>
        <time>2026-06-20T09:14:15.000Z</time>
        <extensions>
          <ns3:TrackPointExtension>
            <ns3:atemp>26.0</ns3:atemp>
          </ns3:TrackPointExtension>
        </extensions>
      </trkpt>
      <trkpt lat="42.5195308215916156768798828125" lon="20.1580045558512210845947265625">
        <ele>1860</ele>
        <time>2026-06-20T09:14:16.000Z</time>
        <extensions>
          <ns3:TrackPointExtension>
            <ns3:atemp>26.0</ns3:atemp>
          </ns3:TrackPointExtension>
        </extensions>
      </trkpt>
      <trkpt lat="42.5195308215916156768798828125" lon="20.1580045558512210845947265625">
        <ele>1860</ele>
        <time>2026-06-20T09:14:17.000Z</time>
        <extensions>
          <ns3:TrackPointExtension>
            <ns3:atemp>26.0</ns3:atemp>
          </ns3:TrackPointExtension>
        </extensions>
      </trkpt>
      <trkpt lat="42.5195308215916156768798828125" lon="20.1580045558512210845947265625">
        <ele>1860</ele>
        <time>2026-06-20T09:14:18.000Z</time>
        <extensions>
          <ns3:TrackPointExtension>
            <ns3:atemp>26.0</ns3:atemp>
          </ns3:TrackPointExtension>
        </extensions>
      </trkpt>
      <trkpt lat="42.5195308215916156768798828125" lon="20.1580045558512210845947265625">
        <ele>1860</ele>
        <time>2026-06-20T09:14:19.000Z</time>
        <extensions>
          <ns3:TrackPointExtension>
            <ns3:atemp>26.0</ns3:atemp>
          </ns3:TrackPointExtension>
        </extensions>
      </trkpt>
      <trkpt lat="42.5195308215916156768798828125" lon="20.1580045558512210845947265625">
        <ele>1860</ele>
        <time>2026-06-20T09:14:20.000Z</time>
        <extensions>
          <ns3:TrackPointExtension>
            <ns3:atemp>26.0</ns3:atemp>
          </ns3:TrackPointExtension>
        </extensions>
      </trkpt>
      <trkpt lat="42.5195308215916156768798828125" lon="20.1580045558512210845947265625">
        <ele>1860</ele>
        <time>2026-06-20T09:14:21.000Z</time>
        <extensions>
          <ns3:TrackPointExtension>
            <ns3:atemp>26.0</ns3:atemp>
          </ns3:TrackPointExtension>
        </extensions>
      </trkpt>
      <trkpt lat="42.5195308215916156768798828125" lon="20.1580045558512210845947265625">
        <ele>1860</ele>
        <time>2026-06-20T09:14:22.000Z</time>
        <extensions>
          <ns3:TrackPointExtension>
            <ns3:atemp>26.0</ns3:atemp>
          </ns3:TrackPointExtension>
        </extensions>
      </trkpt>
      <trkpt lat="42.5195308215916156768798828125" lon="20.1580045558512210845947265625">
        <ele>1860</ele>
        <time>2026-06-20T09:14:23.000Z</time>
        <extensions>
          <ns3:TrackPointExtension>
            <ns3:atemp>26.0</ns3:atemp>
          </ns3:TrackPointExtension>
        </extensions>
      </trkpt>
      <trkpt lat="42.5195308215916156768798828125" lon="20.1580045558512210845947265625">
        <ele>1860</ele>
        <time>2026-06-20T09:14:24.000Z</time>
        <extensions>
          <ns3:TrackPointExtension>
            <ns3:atemp>26.0</ns3:atemp>
          </ns3:TrackPointExtension>
        </extensions>
      </trkpt>
      <trkpt lat="42.5195308215916156768798828125" lon="20.1580045558512210845947265625">
        <ele>1860</ele>
        <time>2026-06-20T09:14:25.000Z</time>
        <extensions>
          <ns3:TrackPointExtension>
            <ns3:atemp>26.0</ns3:atemp>
          </ns3:TrackPointExtension>
        </extensions>
      </trkpt>
      <trkpt lat="42.5195308215916156768798828125" lon="20.1580045558512210845947265625">
        <ele>1860</ele>
        <time>2026-06-20T09:14:26.000Z</time>
        <extensions>
          <ns3:TrackPointExtension>
            <ns3:atemp>26.0</ns3:atemp>
          </ns3:TrackPointExtension>
        </extensions>
      </trkpt>
      <trkpt lat="42.5195308215916156768798828125" lon="20.1580045558512210845947265625">
        <ele>1860</ele>
        <time>2026-06-20T09:14:27.000Z</time>
        <extensions>
          <ns3:TrackPointExtension>
            <ns3:atemp>26.0</ns3:atemp>
          </ns3:TrackPointExtension>
        </extensions>
      </trkpt>
      <trkpt lat="42.5195308215916156768798828125" lon="20.1580045558512210845947265625">
        <ele>1860</ele>
        <time>2026-06-20T09:14:28.000Z</time>
        <extensions>
          <ns3:TrackPointExtension>
            <ns3:atemp>26.0</ns3:atemp>
          </ns3:TrackPointExtension>
        </extensions>
      </trkpt>
      <trkpt lat="42.5195308215916156768798828125" lon="20.1580045558512210845947265625">
        <ele>1860</ele>
        <time>2026-06-20T09:14:29.000Z</time>
        <extensions>
          <ns3:TrackPointExtension>
            <ns3:atemp>26.0</ns3:atemp>
          </ns3:TrackPointExtension>
        </extensions>
      </trkpt>
      <trkpt lat="42.5195308215916156768798828125" lon="20.1580045558512210845947265625">
        <ele>1860</ele>
        <time>2026-06-20T09:14:30.000Z</time>
        <extensions>
          <ns3:TrackPointExtension>
            <ns3:atemp>26.0</ns3:atemp>
          </ns3:TrackPointExtension>
        </extensions>
      </trkpt>
      <trkpt lat="42.5195308215916156768798828125" lon="20.1580045558512210845947265625">
        <ele>1860</ele>
        <time>2026-06-20T09:14:31.000Z</time>
        <extensions>
          <ns3:TrackPointExtension>
            <ns3:atemp>26.0</ns3:atemp>
          </ns3:TrackPointExtension>
        </extensions>
      </trkpt>
      <trkpt lat="42.5195308215916156768798828125" lon="20.1580045558512210845947265625">
        <ele>1860</ele>
        <time>2026-06-20T09:14:32.000Z</time>
        <extensions>
          <ns3:TrackPointExtension>
            <ns3:atemp>26.0</ns3:atemp>
          </ns3:TrackPointExtension>
        </extensions>
      </trkpt>
      <trkpt lat="42.5195308215916156768798828125" lon="20.1580045558512210845947265625">
        <ele>1860</ele>
        <time>2026-06-20T09:14:33.000Z</time>
        <extensions>
          <ns3:TrackPointExtension>
            <ns3:atemp>26.0</ns3:atemp>
          </ns3:TrackPointExtension>
        </extensions>
      </trkpt>
      <trkpt lat="42.5195308215916156768798828125" lon="20.1580045558512210845947265625">
        <ele>1860</ele>
        <time>2026-06-20T09:14:34.000Z</time>
        <extensions>
          <ns3:TrackPointExtension>
            <ns3:atemp>26.0</ns3:atemp>
          </ns3:TrackPointExtension>
        </extensions>
      </trkpt>
      <trkpt lat="42.5195308215916156768798828125" lon="20.1580045558512210845947265625">
        <ele>1860</ele>
        <time>2026-06-20T09:14:35.000Z</time>
        <extensions>
          <ns3:TrackPointExtension>
            <ns3:atemp>26.0</ns3:atemp>
          </ns3:TrackPointExtension>
        </extensions>
      </trkpt>
      <trkpt lat="42.5195308215916156768798828125" lon="20.1580045558512210845947265625">
        <ele>1860</ele>
        <time>2026-06-20T09:14:36.000Z</time>
        <extensions>
          <ns3:TrackPointExtension>
            <ns3:atemp>26.0</ns3:atemp>
          </ns3:TrackPointExtension>
        </extensions>
      </trkpt>
      <trkpt lat="42.5195308215916156768798828125" lon="20.1580045558512210845947265625">
        <ele>1860</ele>
        <time>2026-06-20T09:14:37.000Z</time>
        <extensions>
          <ns3:TrackPointExtension>
            <ns3:atemp>26.0</ns3:atemp>
          </ns3:TrackPointExtension>
        </extensions>
      </trkpt>
      <trkpt lat="42.5195308215916156768798828125" lon="20.1580045558512210845947265625">
        <ele>1860</ele>
        <time>2026-06-20T09:14:38.000Z</time>
        <extensions>
          <ns3:TrackPointExtension>
            <ns3:atemp>26.0</ns3:atemp>
          </ns3:TrackPointExtension>
        </extensions>
      </trkpt>
      <trkpt lat="42.5195308215916156768798828125" lon="20.1580045558512210845947265625">
        <ele>1860</ele>
        <time>2026-06-20T09:14:39.000Z</time>
        <extensions>
          <ns3:TrackPointExtension>
            <ns3:atemp>26.0</ns3:atemp>
          </ns3:TrackPointExtension>
        </extensions>
      </trkpt>
      <trkpt lat="42.5195308215916156768798828125" lon="20.1580045558512210845947265625">
        <ele>1860</ele>
        <time>2026-06-20T09:14:40.000Z</time>
        <extensions>
          <ns3:TrackPointExtension>
            <ns3:atemp>26.0</ns3:atemp>
          </ns3:TrackPointExtension>
        </extensions>
      </trkpt>
      <trkpt lat="42.5195308215916156768798828125" lon="20.1580045558512210845947265625">
        <ele>1860</ele>
        <time>2026-06-20T09:14:41.000Z</time>
        <extensions>
          <ns3:TrackPointExtension>
            <ns3:atemp>26.0</ns3:atemp>
          </ns3:TrackPointExtension>
        </extensions>
      </trkpt>
      <trkpt lat="42.5195308215916156768798828125" lon="20.1580045558512210845947265625">
        <ele>1860</ele>
        <time>2026-06-20T09:14:42.000Z</time>
        <extensions>
          <ns3:TrackPointExtension>
            <ns3:atemp>26.0</ns3:atemp>
          </ns3:TrackPointExtension>
        </extensions>
      </trkpt>
      <trkpt lat="42.5195308215916156768798828125" lon="20.1580045558512210845947265625">
        <ele>1860</ele>
        <time>2026-06-20T09:14:43.000Z</time>
        <extensions>
          <ns3:TrackPointExtension>
            <ns3:atemp>26.0</ns3:atemp>
          </ns3:TrackPointExtension>
        </extensions>
      </trkpt>
      <trkpt lat="42.5195308215916156768798828125" lon="20.1580045558512210845947265625">
        <ele>1860</ele>
        <time>2026-06-20T09:14:44.000Z</time>
        <extensions>
          <ns3:TrackPointExtension>
            <ns3:atemp>26.0</ns3:atemp>
          </ns3:TrackPointExtension>
        </extensions>
      </trkpt>
      <trkpt lat="42.5195308215916156768798828125" lon="20.1580045558512210845947265625">
        <ele>1860</ele>
        <time>2026-06-20T09:14:45.000Z</time>
        <extensions>
          <ns3:TrackPointExtension>
            <ns3:atemp>26.0</ns3:atemp>
          </ns3:TrackPointExtension>
        </extensions>
      </trkpt>
      <trkpt lat="42.5195308215916156768798828125" lon="20.1580045558512210845947265625">
        <ele>1860</ele>
        <time>2026-06-20T09:14:46.000Z</time>
        <extensions>
          <ns3:TrackPointExtension>
            <ns3:atemp>26.0</ns3:atemp>
          </ns3:TrackPointExtension>
        </extensions>
      </trkpt>
      <trkpt lat="42.5195308215916156768798828125" lon="20.1580045558512210845947265625">
        <ele>1860</ele>
        <time>2026-06-20T09:14:47.000Z</time>
        <extensions>
          <ns3:TrackPointExtension>
            <ns3:atemp>26.0</ns3:atemp>
          </ns3:TrackPointExtension>
        </extensions>
      </trkpt>
      <trkpt lat="42.5195308215916156768798828125" lon="20.1580045558512210845947265625">
        <ele>1860</ele>
        <time>2026-06-20T09:14:48.000Z</time>
        <extensions>
          <ns3:TrackPointExtension>
            <ns3:atemp>26.0</ns3:atemp>
          </ns3:TrackPointExtension>
        </extensions>
      </trkpt>
      <trkpt lat="42.5195308215916156768798828125" lon="20.1580045558512210845947265625">
        <ele>1860</ele>
        <time>2026-06-20T09:14:49.000Z</time>
        <extensions>
          <ns3:TrackPointExtension>
            <ns3:atemp>26.0</ns3:atemp>
          </ns3:TrackPointExtension>
        </extensions>
      </trkpt>
      <trkpt lat="42.5195308215916156768798828125" lon="20.1580045558512210845947265625">
        <ele>1860</ele>
        <time>2026-06-20T09:14:50.000Z</time>
        <extensions>
          <ns3:TrackPointExtension>
            <ns3:atemp>26.0</ns3:atemp>
          </ns3:TrackPointExtension>
        </extensions>
      </trkpt>
      <trkpt lat="42.5195308215916156768798828125" lon="20.1580045558512210845947265625">
        <ele>1860</ele>
        <time>2026-06-20T09:14:51.000Z</time>
        <extensions>
          <ns3:TrackPointExtension>
            <ns3:atemp>26.0</ns3:atemp>
          </ns3:TrackPointExtension>
        </extensions>
      </trkpt>
      <trkpt lat="42.5195308215916156768798828125" lon="20.1580045558512210845947265625">
        <ele>1860</ele>
        <time>2026-06-20T09:14:52.000Z</time>
        <extensions>
          <ns3:TrackPointExtension>
            <ns3:atemp>26.0</ns3:atemp>
          </ns3:TrackPointExtension>
        </extensions>
      </trkpt>
      <trkpt lat="42.5195308215916156768798828125" lon="20.1580045558512210845947265625">
        <ele>1860</ele>
        <time>2026-06-20T09:14:53.000Z</time>
        <extensions>
          <ns3:TrackPointExtension>
            <ns3:atemp>26.0</ns3:atemp>
          </ns3:TrackPointExtension>
        </extensions>
      </trkpt>
      <trkpt lat="42.5195308215916156768798828125" lon="20.1580045558512210845947265625">
        <ele>1860</ele>
        <time>2026-06-20T09:14:54.000Z</time>
        <extensions>
          <ns3:TrackPointExtension>
            <ns3:atemp>26.0</ns3:atemp>
          </ns3:TrackPointExtension>
        </extensions>
      </trkpt>
      <trkpt lat="42.5195308215916156768798828125" lon="20.1580045558512210845947265625">
        <ele>1860</ele>
        <time>2026-06-20T09:14:55.000Z</time>
        <extensions>
          <ns3:TrackPointExtension>
            <ns3:atemp>26.0</ns3:atemp>
          </ns3:TrackPointExtension>
        </extensions>
      </trkpt>
      <trkpt lat="42.5195308215916156768798828125" lon="20.1580045558512210845947265625">
        <ele>1860</ele>
        <time>2026-06-20T09:14:56.000Z</time>
        <extensions>
          <ns3:TrackPointExtension>
            <ns3:atemp>26.0</ns3:atemp>
          </ns3:TrackPointExtension>
        </extensions>
      </trkpt>
      <trkpt lat="42.5195308215916156768798828125" lon="20.1580045558512210845947265625">
        <ele>1860</ele>
        <time>2026-06-20T09:14:57.000Z</time>
        <extensions>
          <ns3:TrackPointExtension>
            <ns3:atemp>26.0</ns3:atemp>
          </ns3:TrackPointExtension>
        </extensions>
      </trkpt>
      <trkpt lat="42.5195308215916156768798828125" lon="20.1580045558512210845947265625">
        <ele>1860</ele>
        <time>2026-06-20T09:14:58.000Z</time>
        <extensions>
          <ns3:TrackPointExtension>
            <ns3:atemp>26.0</ns3:atemp>
          </ns3:TrackPointExtension>
        </extensions>
      </trkpt>
      <trkpt lat="42.5195308215916156768798828125" lon="20.1580045558512210845947265625">
        <ele>1860</ele>
        <time>2026-06-20T09:14:59.000Z</time>
        <extensions>
          <ns3:TrackPointExtension>
            <ns3:atemp>26.0</ns3:atemp>
          </ns3:TrackPointExtension>
        </extensions>
      </trkpt>
      <trkpt lat="42.5195308215916156768798828125" lon="20.1580045558512210845947265625">
        <ele>1860</ele>
        <time>2026-06-20T09:15:00.000Z</time>
        <extensions>
          <ns3:TrackPointExtension>
            <ns3:atemp>26.0</ns3:atemp>
          </ns3:TrackPointExtension>
        </extensions>
      </trkpt>
      <trkpt lat="42.5195308215916156768798828125" lon="20.1580045558512210845947265625">
        <ele>1860</ele>
        <time>2026-06-20T09:15:01.000Z</time>
        <extensions>
          <ns3:TrackPointExtension>
            <ns3:atemp>26.0</ns3:atemp>
          </ns3:TrackPointExtension>
        </extensions>
      </trkpt>
      <trkpt lat="42.5195308215916156768798828125" lon="20.1580045558512210845947265625">
        <ele>1860</ele>
        <time>2026-06-20T09:15:02.000Z</time>
        <extensions>
          <ns3:TrackPointExtension>
            <ns3:atemp>26.0</ns3:atemp>
          </ns3:TrackPointExtension>
        </extensions>
      </trkpt>
      <trkpt lat="42.5195308215916156768798828125" lon="20.1580045558512210845947265625">
        <ele>1860</ele>
        <time>2026-06-20T09:15:03.000Z</time>
        <extensions>
          <ns3:TrackPointExtension>
            <ns3:atemp>26.0</ns3:atemp>
          </ns3:TrackPointExtension>
        </extensions>
      </trkpt>
      <trkpt lat="42.5195308215916156768798828125" lon="20.1580045558512210845947265625">
        <ele>1860</ele>
        <time>2026-06-20T09:15:04.000Z</time>
        <extensions>
          <ns3:TrackPointExtension>
            <ns3:atemp>26.0</ns3:atemp>
          </ns3:TrackPointExtension>
        </extensions>
      </trkpt>
      <trkpt lat="42.5195308215916156768798828125" lon="20.1580045558512210845947265625">
        <ele>1860</ele>
        <time>2026-06-20T09:15:05.000Z</time>
        <extensions>
          <ns3:TrackPointExtension>
            <ns3:atemp>26.0</ns3:atemp>
          </ns3:TrackPointExtension>
        </extensions>
      </trkpt>
      <trkpt lat="42.5195308215916156768798828125" lon="20.1580045558512210845947265625">
        <ele>1860</ele>
        <time>2026-06-20T09:15:06.000Z</time>
        <extensions>
          <ns3:TrackPointExtension>
            <ns3:atemp>26.0</ns3:atemp>
          </ns3:TrackPointExtension>
        </extensions>
      </trkpt>
      <trkpt lat="42.5195308215916156768798828125" lon="20.1580045558512210845947265625">
        <ele>1860</ele>
        <time>2026-06-20T09:15:07.000Z</time>
        <extensions>
          <ns3:TrackPointExtension>
            <ns3:atemp>26.0</ns3:atemp>
          </ns3:TrackPointExtension>
        </extensions>
      </trkpt>
      <trkpt lat="42.5195308215916156768798828125" lon="20.1580045558512210845947265625">
        <ele>1860</ele>
        <time>2026-06-20T09:15:08.000Z</time>
        <extensions>
          <ns3:TrackPointExtension>
            <ns3:atemp>26.0</ns3:atemp>
          </ns3:TrackPointExtension>
        </extensions>
      </trkpt>
      <trkpt lat="42.5195308215916156768798828125" lon="20.1580045558512210845947265625">
        <ele>1860</ele>
        <time>2026-06-20T09:15:09.000Z</time>
        <extensions>
          <ns3:TrackPointExtension>
            <ns3:atemp>26.0</ns3:atemp>
          </ns3:TrackPointExtension>
        </extensions>
      </trkpt>
      <trkpt lat="42.5195308215916156768798828125" lon="20.1580045558512210845947265625">
        <ele>1860</ele>
        <time>2026-06-20T09:15:10.000Z</time>
        <extensions>
          <ns3:TrackPointExtension>
            <ns3:atemp>26.0</ns3:atemp>
          </ns3:TrackPointExtension>
        </extensions>
      </trkpt>
      <trkpt lat="42.5195308215916156768798828125" lon="20.1580045558512210845947265625">
        <ele>1860</ele>
        <time>2026-06-20T09:15:11.000Z</time>
        <extensions>
          <ns3:TrackPointExtension>
            <ns3:atemp>26.0</ns3:atemp>
          </ns3:TrackPointExtension>
        </extensions>
      </trkpt>
      <trkpt lat="42.5195308215916156768798828125" lon="20.1580045558512210845947265625">
        <ele>1860</ele>
        <time>2026-06-20T09:15:12.000Z</time>
        <extensions>
          <ns3:TrackPointExtension>
            <ns3:atemp>26.0</ns3:atemp>
          </ns3:TrackPointExtension>
        </extensions>
      </trkpt>
      <trkpt lat="42.5195308215916156768798828125" lon="20.1580045558512210845947265625">
        <ele>1860</ele>
        <time>2026-06-20T09:15:13.000Z</time>
        <extensions>
          <ns3:TrackPointExtension>
            <ns3:atemp>26.0</ns3:atemp>
          </ns3:TrackPointExtension>
        </extensions>
      </trkpt>
      <trkpt lat="42.5195308215916156768798828125" lon="20.1580045558512210845947265625">
        <ele>1860</ele>
        <time>2026-06-20T09:15:14.000Z</time>
        <extensions>
          <ns3:TrackPointExtension>
            <ns3:atemp>26.0</ns3:atemp>
          </ns3:TrackPointExtension>
        </extensions>
      </trkpt>
      <trkpt lat="42.5195308215916156768798828125" lon="20.1580045558512210845947265625">
        <ele>1860</ele>
        <time>2026-06-20T09:15:15.000Z</time>
        <extensions>
          <ns3:TrackPointExtension>
            <ns3:atemp>26.0</ns3:atemp>
          </ns3:TrackPointExtension>
        </extensions>
      </trkpt>
      <trkpt lat="42.5195308215916156768798828125" lon="20.1580045558512210845947265625">
        <ele>1860</ele>
        <time>2026-06-20T09:15:16.000Z</time>
        <extensions>
          <ns3:TrackPointExtension>
            <ns3:atemp>26.0</ns3:atemp>
          </ns3:TrackPointExtension>
        </extensions>
      </trkpt>
      <trkpt lat="42.5195308215916156768798828125" lon="20.1580045558512210845947265625">
        <ele>1860</ele>
        <time>2026-06-20T09:15:17.000Z</time>
        <extensions>
          <ns3:TrackPointExtension>
            <ns3:atemp>26.0</ns3:atemp>
          </ns3:TrackPointExtension>
        </extensions>
      </trkpt>
      <trkpt lat="42.5195308215916156768798828125" lon="20.1580045558512210845947265625">
        <ele>1860</ele>
        <time>2026-06-20T09:15:18.000Z</time>
        <extensions>
          <ns3:TrackPointExtension>
            <ns3:atemp>26.0</ns3:atemp>
          </ns3:TrackPointExtension>
        </extensions>
      </trkpt>
      <trkpt lat="42.5195308215916156768798828125" lon="20.1580045558512210845947265625">
        <ele>1860</ele>
        <time>2026-06-20T09:15:19.000Z</time>
        <extensions>
          <ns3:TrackPointExtension>
            <ns3:atemp>26.0</ns3:atemp>
          </ns3:TrackPointExtension>
        </extensions>
      </trkpt>
      <trkpt lat="42.5195308215916156768798828125" lon="20.1580045558512210845947265625">
        <ele>1860</ele>
        <time>2026-06-20T09:15:20.000Z</time>
        <extensions>
          <ns3:TrackPointExtension>
            <ns3:atemp>26.0</ns3:atemp>
          </ns3:TrackPointExtension>
        </extensions>
      </trkpt>
      <trkpt lat="42.5195308215916156768798828125" lon="20.1580045558512210845947265625">
        <ele>1860</ele>
        <time>2026-06-20T09:15:21.000Z</time>
        <extensions>
          <ns3:TrackPointExtension>
            <ns3:atemp>26.0</ns3:atemp>
          </ns3:TrackPointExtension>
        </extensions>
      </trkpt>
      <trkpt lat="42.5195308215916156768798828125" lon="20.1580045558512210845947265625">
        <ele>1860</ele>
        <time>2026-06-20T09:15:22.000Z</time>
        <extensions>
          <ns3:TrackPointExtension>
            <ns3:atemp>26.0</ns3:atemp>
          </ns3:TrackPointExtension>
        </extensions>
      </trkpt>
      <trkpt lat="42.5195308215916156768798828125" lon="20.1580045558512210845947265625">
        <ele>1860</ele>
        <time>2026-06-20T09:15:23.000Z</time>
        <extensions>
          <ns3:TrackPointExtension>
            <ns3:atemp>26.0</ns3:atemp>
          </ns3:TrackPointExtension>
        </extensions>
      </trkpt>
      <trkpt lat="42.5195308215916156768798828125" lon="20.1580045558512210845947265625">
        <ele>1860</ele>
        <time>2026-06-20T09:15:24.000Z</time>
        <extensions>
          <ns3:TrackPointExtension>
            <ns3:atemp>26.0</ns3:atemp>
          </ns3:TrackPointExtension>
        </extensions>
      </trkpt>
      <trkpt lat="42.5195308215916156768798828125" lon="20.1580045558512210845947265625">
        <ele>1860</ele>
        <time>2026-06-20T09:15:25.000Z</time>
        <extensions>
          <ns3:TrackPointExtension>
            <ns3:atemp>26.0</ns3:atemp>
          </ns3:TrackPointExtension>
        </extensions>
      </trkpt>
      <trkpt lat="42.5195308215916156768798828125" lon="20.1580045558512210845947265625">
        <ele>1860</ele>
        <time>2026-06-20T09:15:26.000Z</time>
        <extensions>
          <ns3:TrackPointExtension>
            <ns3:atemp>26.0</ns3:atemp>
          </ns3:TrackPointExtension>
        </extensions>
      </trkpt>
      <trkpt lat="42.5195308215916156768798828125" lon="20.1580045558512210845947265625">
        <ele>1860</ele>
        <time>2026-06-20T09:15:27.000Z</time>
        <extensions>
          <ns3:TrackPointExtension>
            <ns3:atemp>26.0</ns3:atemp>
          </ns3:TrackPointExtension>
        </extensions>
      </trkpt>
      <trkpt lat="42.5195308215916156768798828125" lon="20.1580045558512210845947265625">
        <ele>1860</ele>
        <time>2026-06-20T09:15:28.000Z</time>
        <extensions>
          <ns3:TrackPointExtension>
            <ns3:atemp>26.0</ns3:atemp>
          </ns3:TrackPointExtension>
        </extensions>
      </trkpt>
      <trkpt lat="42.5195308215916156768798828125" lon="20.1580045558512210845947265625">
        <ele>1860</ele>
        <time>2026-06-20T09:15:29.000Z</time>
        <extensions>
          <ns3:TrackPointExtension>
            <ns3:atemp>26.0</ns3:atemp>
          </ns3:TrackPointExtension>
        </extensions>
      </trkpt>
      <trkpt lat="42.5195308215916156768798828125" lon="20.1580045558512210845947265625">
        <ele>1860</ele>
        <time>2026-06-20T09:15:30.000Z</time>
        <extensions>
          <ns3:TrackPointExtension>
            <ns3:atemp>26.0</ns3:atemp>
          </ns3:TrackPointExtension>
        </extensions>
      </trkpt>
      <trkpt lat="42.5195308215916156768798828125" lon="20.1580045558512210845947265625">
        <ele>1860</ele>
        <time>2026-06-20T09:15:31.000Z</time>
        <extensions>
          <ns3:TrackPointExtension>
            <ns3:atemp>26.0</ns3:atemp>
          </ns3:TrackPointExtension>
        </extensions>
      </trkpt>
      <trkpt lat="42.5195308215916156768798828125" lon="20.1580045558512210845947265625">
        <ele>1860</ele>
        <time>2026-06-20T09:15:32.000Z</time>
        <extensions>
          <ns3:TrackPointExtension>
            <ns3:atemp>26.0</ns3:atemp>
          </ns3:TrackPointExtension>
        </extensions>
      </trkpt>
      <trkpt lat="42.5195308215916156768798828125" lon="20.1580045558512210845947265625">
        <ele>1860</ele>
        <time>2026-06-20T09:15:33.000Z</time>
        <extensions>
          <ns3:TrackPointExtension>
            <ns3:atemp>26.0</ns3:atemp>
          </ns3:TrackPointExtension>
        </extensions>
      </trkpt>
      <trkpt lat="42.5195308215916156768798828125" lon="20.1580045558512210845947265625">
        <ele>1860</ele>
        <time>2026-06-20T09:15:34.000Z</time>
        <extensions>
          <ns3:TrackPointExtension>
            <ns3:atemp>26.0</ns3:atemp>
          </ns3:TrackPointExtension>
        </extensions>
      </trkpt>
      <trkpt lat="42.5195308215916156768798828125" lon="20.1580045558512210845947265625">
        <ele>1860</ele>
        <time>2026-06-20T09:15:35.000Z</time>
        <extensions>
          <ns3:TrackPointExtension>
            <ns3:atemp>26.0</ns3:atemp>
          </ns3:TrackPointExtension>
        </extensions>
      </trkpt>
      <trkpt lat="42.5195308215916156768798828125" lon="20.1580045558512210845947265625">
        <ele>1860</ele>
        <time>2026-06-20T09:15:36.000Z</time>
        <extensions>
          <ns3:TrackPointExtension>
            <ns3:atemp>26.0</ns3:atemp>
          </ns3:TrackPointExtension>
        </extensions>
      </trkpt>
      <trkpt lat="42.5195308215916156768798828125" lon="20.1580045558512210845947265625">
        <ele>1860</ele>
        <time>2026-06-20T09:15:37.000Z</time>
        <extensions>
          <ns3:TrackPointExtension>
            <ns3:atemp>26.0</ns3:atemp>
          </ns3:TrackPointExtension>
        </extensions>
      </trkpt>
      <trkpt lat="42.5195308215916156768798828125" lon="20.1580045558512210845947265625">
        <ele>1860</ele>
        <time>2026-06-20T09:15:38.000Z</time>
        <extensions>
          <ns3:TrackPointExtension>
            <ns3:atemp>26.0</ns3:atemp>
          </ns3:TrackPointExtension>
        </extensions>
      </trkpt>
      <trkpt lat="42.5195308215916156768798828125" lon="20.1580045558512210845947265625">
        <ele>1860</ele>
        <time>2026-06-20T09:15:39.000Z</time>
        <extensions>
          <ns3:TrackPointExtension>
            <ns3:atemp>26.0</ns3:atemp>
          </ns3:TrackPointExtension>
        </extensions>
      </trkpt>
      <trkpt lat="42.5195308215916156768798828125" lon="20.1580045558512210845947265625">
        <ele>1860</ele>
        <time>2026-06-20T09:15:40.000Z</time>
        <extensions>
          <ns3:TrackPointExtension>
            <ns3:atemp>26.0</ns3:atemp>
          </ns3:TrackPointExtension>
        </extensions>
      </trkpt>
      <trkpt lat="42.5195308215916156768798828125" lon="20.1580045558512210845947265625">
        <ele>1860</ele>
        <time>2026-06-20T09:15:41.000Z</time>
        <extensions>
          <ns3:TrackPointExtension>
            <ns3:atemp>26.0</ns3:atemp>
          </ns3:TrackPointExtension>
        </extensions>
      </trkpt>
      <trkpt lat="42.5195308215916156768798828125" lon="20.1580045558512210845947265625">
        <ele>1860</ele>
        <time>2026-06-20T09:15:42.000Z</time>
        <extensions>
          <ns3:TrackPointExtension>
            <ns3:atemp>26.0</ns3:atemp>
          </ns3:TrackPointExtension>
        </extensions>
      </trkpt>
      <trkpt lat="42.5195308215916156768798828125" lon="20.1580045558512210845947265625">
        <ele>1860</ele>
        <time>2026-06-20T09:15:43.000Z</time>
        <extensions>
          <ns3:TrackPointExtension>
            <ns3:atemp>26.0</ns3:atemp>
          </ns3:TrackPointExtension>
        </extensions>
      </trkpt>
      <trkpt lat="42.5195308215916156768798828125" lon="20.1580045558512210845947265625">
        <ele>1860</ele>
        <time>2026-06-20T09:15:44.000Z</time>
        <extensions>
          <ns3:TrackPointExtension>
            <ns3:atemp>26.0</ns3:atemp>
          </ns3:TrackPointExtension>
        </extensions>
      </trkpt>
      <trkpt lat="42.5195308215916156768798828125" lon="20.1580045558512210845947265625">
        <ele>1860</ele>
        <time>2026-06-20T09:15:45.000Z</time>
        <extensions>
          <ns3:TrackPointExtension>
            <ns3:atemp>26.0</ns3:atemp>
          </ns3:TrackPointExtension>
        </extensions>
      </trkpt>
      <trkpt lat="42.5195308215916156768798828125" lon="20.1580045558512210845947265625">
        <ele>1860</ele>
        <time>2026-06-20T09:15:46.000Z</time>
        <extensions>
          <ns3:TrackPointExtension>
            <ns3:atemp>26.0</ns3:atemp>
          </ns3:TrackPointExtension>
        </extensions>
      </trkpt>
      <trkpt lat="42.5195308215916156768798828125" lon="20.1580045558512210845947265625">
        <ele>1860</ele>
        <time>2026-06-20T09:15:47.000Z</time>
        <extensions>
          <ns3:TrackPointExtension>
            <ns3:atemp>26.0</ns3:atemp>
          </ns3:TrackPointExtension>
        </extensions>
      </trkpt>
      <trkpt lat="42.5195308215916156768798828125" lon="20.1580045558512210845947265625">
        <ele>1860</ele>
        <time>2026-06-20T09:15:48.000Z</time>
        <extensions>
          <ns3:TrackPointExtension>
            <ns3:atemp>26.0</ns3:atemp>
          </ns3:TrackPointExtension>
        </extensions>
      </trkpt>
      <trkpt lat="42.5195308215916156768798828125" lon="20.1580045558512210845947265625">
        <ele>1860</ele>
        <time>2026-06-20T09:15:49.000Z</time>
        <extensions>
          <ns3:TrackPointExtension>
            <ns3:atemp>26.0</ns3:atemp>
          </ns3:TrackPointExtension>
        </extensions>
      </trkpt>
      <trkpt lat="42.5195308215916156768798828125" lon="20.1580045558512210845947265625">
        <ele>1860</ele>
        <time>2026-06-20T09:15:50.000Z</time>
        <extensions>
          <ns3:TrackPointExtension>
            <ns3:atemp>26.0</ns3:atemp>
          </ns3:TrackPointExtension>
        </extensions>
      </trkpt>
      <trkpt lat="42.5195308215916156768798828125" lon="20.1580045558512210845947265625">
        <ele>1860</ele>
        <time>2026-06-20T09:15:51.000Z</time>
        <extensions>
          <ns3:TrackPointExtension>
            <ns3:atemp>26.0</ns3:atemp>
          </ns3:TrackPointExtension>
        </extensions>
      </trkpt>
      <trkpt lat="42.5195308215916156768798828125" lon="20.1580045558512210845947265625">
        <ele>1860</ele>
        <time>2026-06-20T09:15:52.000Z</time>
        <extensions>
          <ns3:TrackPointExtension>
            <ns3:atemp>26.0</ns3:atemp>
          </ns3:TrackPointExtension>
        </extensions>
      </trkpt>
      <trkpt lat="42.5195308215916156768798828125" lon="20.1580045558512210845947265625">
        <ele>1860</ele>
        <time>2026-06-20T09:15:53.000Z</time>
        <extensions>
          <ns3:TrackPointExtension>
            <ns3:atemp>26.0</ns3:atemp>
          </ns3:TrackPointExtension>
        </extensions>
      </trkpt>
      <trkpt lat="42.5195308215916156768798828125" lon="20.1580045558512210845947265625">
        <ele>1860</ele>
        <time>2026-06-20T09:15:54.000Z</time>
        <extensions>
          <ns3:TrackPointExtension>
            <ns3:atemp>26.0</ns3:atemp>
          </ns3:TrackPointExtension>
        </extensions>
      </trkpt>
      <trkpt lat="42.5195308215916156768798828125" lon="20.1580045558512210845947265625">
        <ele>1860</ele>
        <time>2026-06-20T09:15:55.000Z</time>
        <extensions>
          <ns3:TrackPointExtension>
            <ns3:atemp>26.0</ns3:atemp>
          </ns3:TrackPointExtension>
        </extensions>
      </trkpt>
      <trkpt lat="42.5195308215916156768798828125" lon="20.1580045558512210845947265625">
        <ele>1860</ele>
        <time>2026-06-20T09:15:56.000Z</time>
        <extensions>
          <ns3:TrackPointExtension>
            <ns3:atemp>26.0</ns3:atemp>
          </ns3:TrackPointExtension>
        </extensions>
      </trkpt>
      <trkpt lat="42.5195308215916156768798828125" lon="20.1580045558512210845947265625">
        <ele>1860</ele>
        <time>2026-06-20T09:15:57.000Z</time>
        <extensions>
          <ns3:TrackPointExtension>
            <ns3:atemp>26.0</ns3:atemp>
          </ns3:TrackPointExtension>
        </extensions>
      </trkpt>
      <trkpt lat="42.5195308215916156768798828125" lon="20.1580045558512210845947265625">
        <ele>1860</ele>
        <time>2026-06-20T09:15:58.000Z</time>
        <extensions>
          <ns3:TrackPointExtension>
            <ns3:atemp>26.0</ns3:atemp>
          </ns3:TrackPointExtension>
        </extensions>
      </trkpt>
      <trkpt lat="42.5195308215916156768798828125" lon="20.1580045558512210845947265625">
        <ele>1860</ele>
        <time>2026-06-20T09:15:59.000Z</time>
        <extensions>
          <ns3:TrackPointExtension>
            <ns3:atemp>26.0</ns3:atemp>
          </ns3:TrackPointExtension>
        </extensions>
      </trkpt>
      <trkpt lat="42.5195308215916156768798828125" lon="20.1580045558512210845947265625">
        <ele>1860</ele>
        <time>2026-06-20T09:16:00.000Z</time>
        <extensions>
          <ns3:TrackPointExtension>
            <ns3:atemp>26.0</ns3:atemp>
          </ns3:TrackPointExtension>
        </extensions>
      </trkpt>
      <trkpt lat="42.5195308215916156768798828125" lon="20.1580045558512210845947265625">
        <ele>1860</ele>
        <time>2026-06-20T09:16:01.000Z</time>
        <extensions>
          <ns3:TrackPointExtension>
            <ns3:atemp>26.0</ns3:atemp>
          </ns3:TrackPointExtension>
        </extensions>
      </trkpt>
      <trkpt lat="42.5195308215916156768798828125" lon="20.1580045558512210845947265625">
        <ele>1860</ele>
        <time>2026-06-20T09:16:02.000Z</time>
        <extensions>
          <ns3:TrackPointExtension>
            <ns3:atemp>26.0</ns3:atemp>
          </ns3:TrackPointExtension>
        </extensions>
      </trkpt>
      <trkpt lat="42.5195308215916156768798828125" lon="20.1580045558512210845947265625">
        <ele>1860</ele>
        <time>2026-06-20T09:16:03.000Z</time>
        <extensions>
          <ns3:TrackPointExtension>
            <ns3:atemp>26.0</ns3:atemp>
          </ns3:TrackPointExtension>
        </extensions>
      </trkpt>
      <trkpt lat="42.5195308215916156768798828125" lon="20.1580045558512210845947265625">
        <ele>1860</ele>
        <time>2026-06-20T09:16:04.000Z</time>
        <extensions>
          <ns3:TrackPointExtension>
            <ns3:atemp>26.0</ns3:atemp>
          </ns3:TrackPointExtension>
        </extensions>
      </trkpt>
      <trkpt lat="42.5195308215916156768798828125" lon="20.1580045558512210845947265625">
        <ele>1860</ele>
        <time>2026-06-20T09:16:05.000Z</time>
        <extensions>
          <ns3:TrackPointExtension>
            <ns3:atemp>26.0</ns3:atemp>
          </ns3:TrackPointExtension>
        </extensions>
      </trkpt>
      <trkpt lat="42.5195308215916156768798828125" lon="20.1580045558512210845947265625">
        <ele>1860</ele>
        <time>2026-06-20T09:16:06.000Z</time>
        <extensions>
          <ns3:TrackPointExtension>
            <ns3:atemp>26.0</ns3:atemp>
          </ns3:TrackPointExtension>
        </extensions>
      </trkpt>
      <trkpt lat="42.5195308215916156768798828125" lon="20.1580045558512210845947265625">
        <ele>1860</ele>
        <time>2026-06-20T09:16:07.000Z</time>
        <extensions>
          <ns3:TrackPointExtension>
            <ns3:atemp>26.0</ns3:atemp>
          </ns3:TrackPointExtension>
        </extensions>
      </trkpt>
      <trkpt lat="42.5195308215916156768798828125" lon="20.1580045558512210845947265625">
        <ele>1860</ele>
        <time>2026-06-20T09:16:08.000Z</time>
        <extensions>
          <ns3:TrackPointExtension>
            <ns3:atemp>26.0</ns3:atemp>
          </ns3:TrackPointExtension>
        </extensions>
      </trkpt>
      <trkpt lat="42.5195308215916156768798828125" lon="20.1580045558512210845947265625">
        <ele>1860</ele>
        <time>2026-06-20T09:16:09.000Z</time>
        <extensions>
          <ns3:TrackPointExtension>
            <ns3:atemp>26.0</ns3:atemp>
          </ns3:TrackPointExtension>
        </extensions>
      </trkpt>
      <trkpt lat="42.5195308215916156768798828125" lon="20.1580045558512210845947265625">
        <ele>1860</ele>
        <time>2026-06-20T09:16:10.000Z</time>
        <extensions>
          <ns3:TrackPointExtension>
            <ns3:atemp>26.0</ns3:atemp>
          </ns3:TrackPointExtension>
        </extensions>
      </trkpt>
      <trkpt lat="42.5195308215916156768798828125" lon="20.1580045558512210845947265625">
        <ele>1860</ele>
        <time>2026-06-20T09:16:11.000Z</time>
        <extensions>
          <ns3:TrackPointExtension>
            <ns3:atemp>26.0</ns3:atemp>
          </ns3:TrackPointExtension>
        </extensions>
      </trkpt>
      <trkpt lat="42.5195308215916156768798828125" lon="20.1580045558512210845947265625">
        <ele>1860</ele>
        <time>2026-06-20T09:16:12.000Z</time>
        <extensions>
          <ns3:TrackPointExtension>
            <ns3:atemp>26.0</ns3:atemp>
          </ns3:TrackPointExtension>
        </extensions>
      </trkpt>
      <trkpt lat="42.5195308215916156768798828125" lon="20.1580045558512210845947265625">
        <ele>1860</ele>
        <time>2026-06-20T09:16:13.000Z</time>
        <extensions>
          <ns3:TrackPointExtension>
            <ns3:atemp>26.0</ns3:atemp>
          </ns3:TrackPointExtension>
        </extensions>
      </trkpt>
      <trkpt lat="42.5195308215916156768798828125" lon="20.1580045558512210845947265625">
        <ele>1860</ele>
        <time>2026-06-20T09:16:14.000Z</time>
        <extensions>
          <ns3:TrackPointExtension>
            <ns3:atemp>26.0</ns3:atemp>
          </ns3:TrackPointExtension>
        </extensions>
      </trkpt>
      <trkpt lat="42.5195308215916156768798828125" lon="20.1580045558512210845947265625">
        <ele>1860</ele>
        <time>2026-06-20T09:16:15.000Z</time>
        <extensions>
          <ns3:TrackPointExtension>
            <ns3:atemp>26.0</ns3:atemp>
          </ns3:TrackPointExtension>
        </extensions>
      </trkpt>
      <trkpt lat="42.5195308215916156768798828125" lon="20.1580045558512210845947265625">
        <ele>1860</ele>
        <time>2026-06-20T09:16:16.000Z</time>
        <extensions>
          <ns3:TrackPointExtension>
            <ns3:atemp>26.0</ns3:atemp>
          </ns3:TrackPointExtension>
        </extensions>
      </trkpt>
      <trkpt lat="42.5195308215916156768798828125" lon="20.1580045558512210845947265625">
        <ele>1860</ele>
        <time>2026-06-20T09:16:17.000Z</time>
        <extensions>
          <ns3:TrackPointExtension>
            <ns3:atemp>26.0</ns3:atemp>
          </ns3:TrackPointExtension>
        </extensions>
      </trkpt>
      <trkpt lat="42.5195308215916156768798828125" lon="20.1580045558512210845947265625">
        <ele>1860</ele>
        <time>2026-06-20T09:16:18.000Z</time>
        <extensions>
          <ns3:TrackPointExtension>
            <ns3:atemp>26.0</ns3:atemp>
          </ns3:TrackPointExtension>
        </extensions>
      </trkpt>
      <trkpt lat="42.5195308215916156768798828125" lon="20.1580045558512210845947265625">
        <ele>1860</ele>
        <time>2026-06-20T09:16:19.000Z</time>
        <extensions>
          <ns3:TrackPointExtension>
            <ns3:atemp>26.0</ns3:atemp>
          </ns3:TrackPointExtension>
        </extensions>
      </trkpt>
      <trkpt lat="42.5195308215916156768798828125" lon="20.1580045558512210845947265625">
        <ele>1860</ele>
        <time>2026-06-20T09:16:20.000Z</time>
        <extensions>
          <ns3:TrackPointExtension>
            <ns3:atemp>26.0</ns3:atemp>
          </ns3:TrackPointExtension>
        </extensions>
      </trkpt>
      <trkpt lat="42.5195308215916156768798828125" lon="20.1580045558512210845947265625">
        <ele>1860</ele>
        <time>2026-06-20T09:16:21.000Z</time>
        <extensions>
          <ns3:TrackPointExtension>
            <ns3:atemp>26.0</ns3:atemp>
          </ns3:TrackPointExtension>
        </extensions>
      </trkpt>
      <trkpt lat="42.5195308215916156768798828125" lon="20.1580045558512210845947265625">
        <ele>1860</ele>
        <time>2026-06-20T09:16:22.000Z</time>
        <extensions>
          <ns3:TrackPointExtension>
            <ns3:atemp>26.0</ns3:atemp>
          </ns3:TrackPointExtension>
        </extensions>
      </trkpt>
      <trkpt lat="42.5195308215916156768798828125" lon="20.1580045558512210845947265625">
        <ele>1860</ele>
        <time>2026-06-20T09:16:23.000Z</time>
        <extensions>
          <ns3:TrackPointExtension>
            <ns3:atemp>26.0</ns3:atemp>
          </ns3:TrackPointExtension>
        </extensions>
      </trkpt>
      <trkpt lat="42.5195308215916156768798828125" lon="20.1580045558512210845947265625">
        <ele>1860</ele>
        <time>2026-06-20T09:16:24.000Z</time>
        <extensions>
          <ns3:TrackPointExtension>
            <ns3:atemp>26.0</ns3:atemp>
          </ns3:TrackPointExtension>
        </extensions>
      </trkpt>
      <trkpt lat="42.5195308215916156768798828125" lon="20.1580045558512210845947265625">
        <ele>1860</ele>
        <time>2026-06-20T09:16:25.000Z</time>
        <extensions>
          <ns3:TrackPointExtension>
            <ns3:atemp>26.0</ns3:atemp>
          </ns3:TrackPointExtension>
        </extensions>
      </trkpt>
      <trkpt lat="42.5195308215916156768798828125" lon="20.1580045558512210845947265625">
        <ele>1860</ele>
        <time>2026-06-20T09:16:26.000Z</time>
        <extensions>
          <ns3:TrackPointExtension>
            <ns3:atemp>26.0</ns3:atemp>
          </ns3:TrackPointExtension>
        </extensions>
      </trkpt>
      <trkpt lat="42.5195308215916156768798828125" lon="20.1580045558512210845947265625">
        <ele>1860</ele>
        <time>2026-06-20T09:16:27.000Z</time>
        <extensions>
          <ns3:TrackPointExtension>
            <ns3:atemp>26.0</ns3:atemp>
          </ns3:TrackPointExtension>
        </extensions>
      </trkpt>
      <trkpt lat="42.5195308215916156768798828125" lon="20.1580045558512210845947265625">
        <ele>1860</ele>
        <time>2026-06-20T09:16:28.000Z</time>
        <extensions>
          <ns3:TrackPointExtension>
            <ns3:atemp>26.0</ns3:atemp>
          </ns3:TrackPointExtension>
        </extensions>
      </trkpt>
      <trkpt lat="42.5195308215916156768798828125" lon="20.1580045558512210845947265625">
        <ele>1860</ele>
        <time>2026-06-20T09:16:29.000Z</time>
        <extensions>
          <ns3:TrackPointExtension>
            <ns3:atemp>26.0</ns3:atemp>
          </ns3:TrackPointExtension>
        </extensions>
      </trkpt>
      <trkpt lat="42.5195308215916156768798828125" lon="20.1580045558512210845947265625">
        <ele>1860</ele>
        <time>2026-06-20T09:16:30.000Z</time>
        <extensions>
          <ns3:TrackPointExtension>
            <ns3:atemp>26.0</ns3:atemp>
          </ns3:TrackPointExtension>
        </extensions>
      </trkpt>
      <trkpt lat="42.5195308215916156768798828125" lon="20.1580045558512210845947265625">
        <ele>1860</ele>
        <time>2026-06-20T09:16:31.000Z</time>
        <extensions>
          <ns3:TrackPointExtension>
            <ns3:atemp>26.0</ns3:atemp>
          </ns3:TrackPointExtension>
        </extensions>
      </trkpt>
      <trkpt lat="42.5195308215916156768798828125" lon="20.1580045558512210845947265625">
        <ele>1860</ele>
        <time>2026-06-20T09:16:32.000Z</time>
        <extensions>
          <ns3:TrackPointExtension>
            <ns3:atemp>26.0</ns3:atemp>
          </ns3:TrackPointExtension>
        </extensions>
      </trkpt>
      <trkpt lat="42.5195308215916156768798828125" lon="20.1580045558512210845947265625">
        <ele>1860</ele>
        <time>2026-06-20T09:16:33.000Z</time>
        <extensions>
          <ns3:TrackPointExtension>
            <ns3:atemp>26.0</ns3:atemp>
          </ns3:TrackPointExtension>
        </extensions>
      </trkpt>
      <trkpt lat="42.5195308215916156768798828125" lon="20.1580045558512210845947265625">
        <ele>1860</ele>
        <time>2026-06-20T09:16:34.000Z</time>
        <extensions>
          <ns3:TrackPointExtension>
            <ns3:atemp>26.0</ns3:atemp>
          </ns3:TrackPointExtension>
        </extensions>
      </trkpt>
      <trkpt lat="42.5195308215916156768798828125" lon="20.1580045558512210845947265625">
        <ele>1860</ele>
        <time>2026-06-20T09:16:35.000Z</time>
        <extensions>
          <ns3:TrackPointExtension>
            <ns3:atemp>26.0</ns3:atemp>
          </ns3:TrackPointExtension>
        </extensions>
      </trkpt>
      <trkpt lat="42.5195308215916156768798828125" lon="20.1580045558512210845947265625">
        <ele>1860</ele>
        <time>2026-06-20T09:16:36.000Z</time>
        <extensions>
          <ns3:TrackPointExtension>
            <ns3:atemp>26.0</ns3:atemp>
          </ns3:TrackPointExtension>
        </extensions>
      </trkpt>
      <trkpt lat="42.5195308215916156768798828125" lon="20.1580045558512210845947265625">
        <ele>1860</ele>
        <time>2026-06-20T09:16:37.000Z</time>
        <extensions>
          <ns3:TrackPointExtension>
            <ns3:atemp>26.0</ns3:atemp>
          </ns3:TrackPointExtension>
        </extensions>
      </trkpt>
      <trkpt lat="42.5195308215916156768798828125" lon="20.1580045558512210845947265625">
        <ele>1860</ele>
        <time>2026-06-20T09:16:38.000Z</time>
        <extensions>
          <ns3:TrackPointExtension>
            <ns3:atemp>26.0</ns3:atemp>
          </ns3:TrackPointExtension>
        </extensions>
      </trkpt>
      <trkpt lat="42.5195308215916156768798828125" lon="20.1580045558512210845947265625">
        <ele>1860</ele>
        <time>2026-06-20T09:16:39.000Z</time>
        <extensions>
          <ns3:TrackPointExtension>
            <ns3:atemp>26.0</ns3:atemp>
          </ns3:TrackPointExtension>
        </extensions>
      </trkpt>
      <trkpt lat="42.5195308215916156768798828125" lon="20.1580045558512210845947265625">
        <ele>1860</ele>
        <time>2026-06-20T09:16:40.000Z</time>
        <extensions>
          <ns3:TrackPointExtension>
            <ns3:atemp>26.0</ns3:atemp>
          </ns3:TrackPointExtension>
        </extensions>
      </trkpt>
      <trkpt lat="42.5195308215916156768798828125" lon="20.1580045558512210845947265625">
        <ele>1860</ele>
        <time>2026-06-20T09:16:41.000Z</time>
        <extensions>
          <ns3:TrackPointExtension>
            <ns3:atemp>26.0</ns3:atemp>
          </ns3:TrackPointExtension>
        </extensions>
      </trkpt>
      <trkpt lat="42.5195308215916156768798828125" lon="20.1580045558512210845947265625">
        <ele>1860</ele>
        <time>2026-06-20T09:16:42.000Z</time>
        <extensions>
          <ns3:TrackPointExtension>
            <ns3:atemp>26.0</ns3:atemp>
          </ns3:TrackPointExtension>
        </extensions>
      </trkpt>
      <trkpt lat="42.5195308215916156768798828125" lon="20.1580045558512210845947265625">
        <ele>1860</ele>
        <time>2026-06-20T09:16:43.000Z</time>
        <extensions>
          <ns3:TrackPointExtension>
            <ns3:atemp>26.0</ns3:atemp>
          </ns3:TrackPointExtension>
        </extensions>
      </trkpt>
      <trkpt lat="42.5195308215916156768798828125" lon="20.1580045558512210845947265625">
        <ele>1860</ele>
        <time>2026-06-20T09:16:44.000Z</time>
        <extensions>
          <ns3:TrackPointExtension>
            <ns3:atemp>26.0</ns3:atemp>
          </ns3:TrackPointExtension>
        </extensions>
      </trkpt>
      <trkpt lat="42.5195308215916156768798828125" lon="20.1580045558512210845947265625">
        <ele>1860</ele>
        <time>2026-06-20T09:16:45.000Z</time>
        <extensions>
          <ns3:TrackPointExtension>
            <ns3:atemp>26.0</ns3:atemp>
          </ns3:TrackPointExtension>
        </extensions>
      </trkpt>
      <trkpt lat="42.5195308215916156768798828125" lon="20.1580045558512210845947265625">
        <ele>1860</ele>
        <time>2026-06-20T09:16:46.000Z</time>
        <extensions>
          <ns3:TrackPointExtension>
            <ns3:atemp>26.0</ns3:atemp>
          </ns3:TrackPointExtension>
        </extensions>
      </trkpt>
      <trkpt lat="42.5195308215916156768798828125" lon="20.1580045558512210845947265625">
        <ele>1860</ele>
        <time>2026-06-20T09:16:47.000Z</time>
        <extensions>
          <ns3:TrackPointExtension>
            <ns3:atemp>26.0</ns3:atemp>
          </ns3:TrackPointExtension>
        </extensions>
      </trkpt>
      <trkpt lat="42.5195308215916156768798828125" lon="20.1580045558512210845947265625">
        <ele>1860</ele>
        <time>2026-06-20T09:16:48.000Z</time>
        <extensions>
          <ns3:TrackPointExtension>
            <ns3:atemp>26.0</ns3:atemp>
          </ns3:TrackPointExtension>
        </extensions>
      </trkpt>
      <trkpt lat="42.5195308215916156768798828125" lon="20.1580045558512210845947265625">
        <ele>1860</ele>
        <time>2026-06-20T09:16:49.000Z</time>
        <extensions>
          <ns3:TrackPointExtension>
            <ns3:atemp>26.0</ns3:atemp>
          </ns3:TrackPointExtension>
        </extensions>
      </trkpt>
      <trkpt lat="42.5195308215916156768798828125" lon="20.1580045558512210845947265625">
        <ele>1860</ele>
        <time>2026-06-20T09:16:50.000Z</time>
        <extensions>
          <ns3:TrackPointExtension>
            <ns3:atemp>26.0</ns3:atemp>
          </ns3:TrackPointExtension>
        </extensions>
      </trkpt>
      <trkpt lat="42.5195308215916156768798828125" lon="20.1580045558512210845947265625">
        <ele>1860</ele>
        <time>2026-06-20T09:16:51.000Z</time>
        <extensions>
          <ns3:TrackPointExtension>
            <ns3:atemp>26.0</ns3:atemp>
          </ns3:TrackPointExtension>
        </extensions>
      </trkpt>
      <trkpt lat="42.5195308215916156768798828125" lon="20.1580045558512210845947265625">
        <ele>1860</ele>
        <time>2026-06-20T09:16:52.000Z</time>
        <extensions>
          <ns3:TrackPointExtension>
            <ns3:atemp>26.0</ns3:atemp>
          </ns3:TrackPointExtension>
        </extensions>
      </trkpt>
      <trkpt lat="42.5195308215916156768798828125" lon="20.1580045558512210845947265625">
        <ele>1860</ele>
        <time>2026-06-20T09:16:53.000Z</time>
        <extensions>
          <ns3:TrackPointExtension>
            <ns3:atemp>26.0</ns3:atemp>
          </ns3:TrackPointExtension>
        </extensions>
      </trkpt>
      <trkpt lat="42.5195308215916156768798828125" lon="20.1580045558512210845947265625">
        <ele>1860</ele>
        <time>2026-06-20T09:16:54.000Z</time>
        <extensions>
          <ns3:TrackPointExtension>
            <ns3:atemp>26.0</ns3:atemp>
          </ns3:TrackPointExtension>
        </extensions>
      </trkpt>
      <trkpt lat="42.5195308215916156768798828125" lon="20.1580045558512210845947265625">
        <ele>1860</ele>
        <time>2026-06-20T09:16:55.000Z</time>
        <extensions>
          <ns3:TrackPointExtension>
            <ns3:atemp>26.0</ns3:atemp>
          </ns3:TrackPointExtension>
        </extensions>
      </trkpt>
      <trkpt lat="42.5195308215916156768798828125" lon="20.1580045558512210845947265625">
        <ele>1860</ele>
        <time>2026-06-20T09:16:56.000Z</time>
        <extensions>
          <ns3:TrackPointExtension>
            <ns3:atemp>26.0</ns3:atemp>
          </ns3:TrackPointExtension>
        </extensions>
      </trkpt>
      <trkpt lat="42.5195308215916156768798828125" lon="20.1580045558512210845947265625">
        <ele>1860</ele>
        <time>2026-06-20T09:16:57.000Z</time>
        <extensions>
          <ns3:TrackPointExtension>
            <ns3:atemp>26.0</ns3:atemp>
          </ns3:TrackPointExtension>
        </extensions>
      </trkpt>
      <trkpt lat="42.5195308215916156768798828125" lon="20.1580045558512210845947265625">
        <ele>1860</ele>
        <time>2026-06-20T09:16:58.000Z</time>
        <extensions>
          <ns3:TrackPointExtension>
            <ns3:atemp>26.0</ns3:atemp>
          </ns3:TrackPointExtension>
        </extensions>
      </trkpt>
      <trkpt lat="42.5195308215916156768798828125" lon="20.1580045558512210845947265625">
        <ele>1860</ele>
        <time>2026-06-20T09:16:59.000Z</time>
        <extensions>
          <ns3:TrackPointExtension>
            <ns3:atemp>26.0</ns3:atemp>
          </ns3:TrackPointExtension>
        </extensions>
      </trkpt>
      <trkpt lat="42.5195308215916156768798828125" lon="20.1580045558512210845947265625">
        <ele>1860</ele>
        <time>2026-06-20T09:17:00.000Z</time>
        <extensions>
          <ns3:TrackPointExtension>
            <ns3:atemp>26.0</ns3:atemp>
          </ns3:TrackPointExtension>
        </extensions>
      </trkpt>
      <trkpt lat="42.5195308215916156768798828125" lon="20.1580045558512210845947265625">
        <ele>1860</ele>
        <time>2026-06-20T09:17:01.000Z</time>
        <extensions>
          <ns3:TrackPointExtension>
            <ns3:atemp>26.0</ns3:atemp>
          </ns3:TrackPointExtension>
        </extensions>
      </trkpt>
      <trkpt lat="42.5195308215916156768798828125" lon="20.1580045558512210845947265625">
        <ele>1860</ele>
        <time>2026-06-20T09:17:02.000Z</time>
        <extensions>
          <ns3:TrackPointExtension>
            <ns3:atemp>26.0</ns3:atemp>
          </ns3:TrackPointExtension>
        </extensions>
      </trkpt>
      <trkpt lat="42.5195308215916156768798828125" lon="20.1580045558512210845947265625">
        <ele>1860</ele>
        <time>2026-06-20T09:17:03.000Z</time>
        <extensions>
          <ns3:TrackPointExtension>
            <ns3:atemp>26.0</ns3:atemp>
          </ns3:TrackPointExtension>
        </extensions>
      </trkpt>
      <trkpt lat="42.5195308215916156768798828125" lon="20.1580045558512210845947265625">
        <ele>1860</ele>
        <time>2026-06-20T09:17:04.000Z</time>
        <extensions>
          <ns3:TrackPointExtension>
            <ns3:atemp>26.0</ns3:atemp>
          </ns3:TrackPointExtension>
        </extensions>
      </trkpt>
      <trkpt lat="42.5195308215916156768798828125" lon="20.1580045558512210845947265625">
        <ele>1860</ele>
        <time>2026-06-20T09:17:05.000Z</time>
        <extensions>
          <ns3:TrackPointExtension>
            <ns3:atemp>26.0</ns3:atemp>
          </ns3:TrackPointExtension>
        </extensions>
      </trkpt>
      <trkpt lat="42.5195308215916156768798828125" lon="20.1580045558512210845947265625">
        <ele>1860</ele>
        <time>2026-06-20T09:17:06.000Z</time>
        <extensions>
          <ns3:TrackPointExtension>
            <ns3:atemp>26.0</ns3:atemp>
          </ns3:TrackPointExtension>
        </extensions>
      </trkpt>
      <trkpt lat="42.5195308215916156768798828125" lon="20.1580045558512210845947265625">
        <ele>1860</ele>
        <time>2026-06-20T09:17:07.000Z</time>
        <extensions>
          <ns3:TrackPointExtension>
            <ns3:atemp>26.0</ns3:atemp>
          </ns3:TrackPointExtension>
        </extensions>
      </trkpt>
      <trkpt lat="42.5195308215916156768798828125" lon="20.1580045558512210845947265625">
        <ele>1860</ele>
        <time>2026-06-20T09:17:08.000Z</time>
        <extensions>
          <ns3:TrackPointExtension>
            <ns3:atemp>26.0</ns3:atemp>
          </ns3:TrackPointExtension>
        </extensions>
      </trkpt>
      <trkpt lat="42.5195308215916156768798828125" lon="20.1580045558512210845947265625">
        <ele>1860</ele>
        <time>2026-06-20T09:17:09.000Z</time>
        <extensions>
          <ns3:TrackPointExtension>
            <ns3:atemp>26.0</ns3:atemp>
          </ns3:TrackPointExtension>
        </extensions>
      </trkpt>
      <trkpt lat="42.5195308215916156768798828125" lon="20.1580045558512210845947265625">
        <ele>1860</ele>
        <time>2026-06-20T09:17:10.000Z</time>
        <extensions>
          <ns3:TrackPointExtension>
            <ns3:atemp>26.0</ns3:atemp>
          </ns3:TrackPointExtension>
        </extensions>
      </trkpt>
      <trkpt lat="42.5195308215916156768798828125" lon="20.1580045558512210845947265625">
        <ele>1860</ele>
        <time>2026-06-20T09:17:11.000Z</time>
        <extensions>
          <ns3:TrackPointExtension>
            <ns3:atemp>26.0</ns3:atemp>
          </ns3:TrackPointExtension>
        </extensions>
      </trkpt>
      <trkpt lat="42.5195308215916156768798828125" lon="20.1580045558512210845947265625">
        <ele>1860</ele>
        <time>2026-06-20T09:17:12.000Z</time>
        <extensions>
          <ns3:TrackPointExtension>
            <ns3:atemp>26.0</ns3:atemp>
          </ns3:TrackPointExtension>
        </extensions>
      </trkpt>
      <trkpt lat="42.5195308215916156768798828125" lon="20.1580045558512210845947265625">
        <ele>1860</ele>
        <time>2026-06-20T09:17:13.000Z</time>
        <extensions>
          <ns3:TrackPointExtension>
            <ns3:atemp>26.0</ns3:atemp>
          </ns3:TrackPointExtension>
        </extensions>
      </trkpt>
      <trkpt lat="42.5195308215916156768798828125" lon="20.1580045558512210845947265625">
        <ele>1860</ele>
        <time>2026-06-20T09:17:14.000Z</time>
        <extensions>
          <ns3:TrackPointExtension>
            <ns3:atemp>26.0</ns3:atemp>
          </ns3:TrackPointExtension>
        </extensions>
      </trkpt>
      <trkpt lat="42.5195308215916156768798828125" lon="20.1580045558512210845947265625">
        <ele>1860</ele>
        <time>2026-06-20T09:17:15.000Z</time>
        <extensions>
          <ns3:TrackPointExtension>
            <ns3:atemp>26.0</ns3:atemp>
          </ns3:TrackPointExtension>
        </extensions>
      </trkpt>
      <trkpt lat="42.5195308215916156768798828125" lon="20.1580045558512210845947265625">
        <ele>1860</ele>
        <time>2026-06-20T09:17:16.000Z</time>
        <extensions>
          <ns3:TrackPointExtension>
            <ns3:atemp>26.0</ns3:atemp>
          </ns3:TrackPointExtension>
        </extensions>
      </trkpt>
      <trkpt lat="42.5195308215916156768798828125" lon="20.1580045558512210845947265625">
        <ele>1860</ele>
        <time>2026-06-20T09:17:17.000Z</time>
        <extensions>
          <ns3:TrackPointExtension>
            <ns3:atemp>26.0</ns3:atemp>
          </ns3:TrackPointExtension>
        </extensions>
      </trkpt>
      <trkpt lat="42.5195308215916156768798828125" lon="20.1580045558512210845947265625">
        <ele>1860</ele>
        <time>2026-06-20T09:17:18.000Z</time>
        <extensions>
          <ns3:TrackPointExtension>
            <ns3:atemp>26.0</ns3:atemp>
          </ns3:TrackPointExtension>
        </extensions>
      </trkpt>
      <trkpt lat="42.5195308215916156768798828125" lon="20.1580045558512210845947265625">
        <ele>1860</ele>
        <time>2026-06-20T09:17:19.000Z</time>
        <extensions>
          <ns3:TrackPointExtension>
            <ns3:atemp>26.0</ns3:atemp>
          </ns3:TrackPointExtension>
        </extensions>
      </trkpt>
      <trkpt lat="42.5195308215916156768798828125" lon="20.1580045558512210845947265625">
        <ele>1860</ele>
        <time>2026-06-20T09:17:20.000Z</time>
        <extensions>
          <ns3:TrackPointExtension>
            <ns3:atemp>26.0</ns3:atemp>
          </ns3:TrackPointExtension>
        </extensions>
      </trkpt>
      <trkpt lat="42.5195308215916156768798828125" lon="20.1580045558512210845947265625">
        <ele>1860</ele>
        <time>2026-06-20T09:17:21.000Z</time>
        <extensions>
          <ns3:TrackPointExtension>
            <ns3:atemp>26.0</ns3:atemp>
          </ns3:TrackPointExtension>
        </extensions>
      </trkpt>
      <trkpt lat="42.5195308215916156768798828125" lon="20.1580045558512210845947265625">
        <ele>1860</ele>
        <time>2026-06-20T09:17:22.000Z</time>
        <extensions>
          <ns3:TrackPointExtension>
            <ns3:atemp>26.0</ns3:atemp>
          </ns3:TrackPointExtension>
        </extensions>
      </trkpt>
      <trkpt lat="42.5195308215916156768798828125" lon="20.1580045558512210845947265625">
        <ele>1860</ele>
        <time>2026-06-20T09:17:23.000Z</time>
        <extensions>
          <ns3:TrackPointExtension>
            <ns3:atemp>26.0</ns3:atemp>
          </ns3:TrackPointExtension>
        </extensions>
      </trkpt>
      <trkpt lat="42.5195308215916156768798828125" lon="20.1580045558512210845947265625">
        <ele>1860</ele>
        <time>2026-06-20T09:17:24.000Z</time>
        <extensions>
          <ns3:TrackPointExtension>
            <ns3:atemp>26.0</ns3:atemp>
          </ns3:TrackPointExtension>
        </extensions>
      </trkpt>
      <trkpt lat="42.5195308215916156768798828125" lon="20.1580045558512210845947265625">
        <ele>1860</ele>
        <time>2026-06-20T09:17:25.000Z</time>
        <extensions>
          <ns3:TrackPointExtension>
            <ns3:atemp>26.0</ns3:atemp>
          </ns3:TrackPointExtension>
        </extensions>
      </trkpt>
      <trkpt lat="42.5195308215916156768798828125" lon="20.1580045558512210845947265625">
        <ele>1860</ele>
        <time>2026-06-20T09:17:26.000Z</time>
        <extensions>
          <ns3:TrackPointExtension>
            <ns3:atemp>26.0</ns3:atemp>
          </ns3:TrackPointExtension>
        </extensions>
      </trkpt>
      <trkpt lat="42.5195308215916156768798828125" lon="20.1580045558512210845947265625">
        <ele>1860</ele>
        <time>2026-06-20T09:17:27.000Z</time>
        <extensions>
          <ns3:TrackPointExtension>
            <ns3:atemp>26.0</ns3:atemp>
          </ns3:TrackPointExtension>
        </extensions>
      </trkpt>
      <trkpt lat="42.5195308215916156768798828125" lon="20.1580045558512210845947265625">
        <ele>1860</ele>
        <time>2026-06-20T09:17:28.000Z</time>
        <extensions>
          <ns3:TrackPointExtension>
            <ns3:atemp>26.0</ns3:atemp>
          </ns3:TrackPointExtension>
        </extensions>
      </trkpt>
      <trkpt lat="42.5195308215916156768798828125" lon="20.1580045558512210845947265625">
        <ele>1860</ele>
        <time>2026-06-20T09:17:29.000Z</time>
        <extensions>
          <ns3:TrackPointExtension>
            <ns3:atemp>26.0</ns3:atemp>
          </ns3:TrackPointExtension>
        </extensions>
      </trkpt>
      <trkpt lat="42.5195308215916156768798828125" lon="20.1580045558512210845947265625">
        <ele>1860</ele>
        <time>2026-06-20T09:17:30.000Z</time>
        <extensions>
          <ns3:TrackPointExtension>
            <ns3:atemp>26.0</ns3:atemp>
          </ns3:TrackPointExtension>
        </extensions>
      </trkpt>
      <trkpt lat="42.5195308215916156768798828125" lon="20.1580045558512210845947265625">
        <ele>1860</ele>
        <time>2026-06-20T09:17:31.000Z</time>
        <extensions>
          <ns3:TrackPointExtension>
            <ns3:atemp>26.0</ns3:atemp>
          </ns3:TrackPointExtension>
        </extensions>
      </trkpt>
      <trkpt lat="42.5195308215916156768798828125" lon="20.1580045558512210845947265625">
        <ele>1860</ele>
        <time>2026-06-20T09:17:32.000Z</time>
        <extensions>
          <ns3:TrackPointExtension>
            <ns3:atemp>26.0</ns3:atemp>
          </ns3:TrackPointExtension>
        </extensions>
      </trkpt>
      <trkpt lat="42.5195308215916156768798828125" lon="20.1580045558512210845947265625">
        <ele>1860</ele>
        <time>2026-06-20T09:17:33.000Z</time>
        <extensions>
          <ns3:TrackPointExtension>
            <ns3:atemp>26.0</ns3:atemp>
          </ns3:TrackPointExtension>
        </extensions>
      </trkpt>
      <trkpt lat="42.5195308215916156768798828125" lon="20.1580045558512210845947265625">
        <ele>1860</ele>
        <time>2026-06-20T09:17:34.000Z</time>
        <extensions>
          <ns3:TrackPointExtension>
            <ns3:atemp>26.0</ns3:atemp>
          </ns3:TrackPointExtension>
        </extensions>
      </trkpt>
      <trkpt lat="42.5195308215916156768798828125" lon="20.1580045558512210845947265625">
        <ele>1860</ele>
        <time>2026-06-20T09:17:35.000Z</time>
        <extensions>
          <ns3:TrackPointExtension>
            <ns3:atemp>26.0</ns3:atemp>
          </ns3:TrackPointExtension>
        </extensions>
      </trkpt>
      <trkpt lat="42.5195308215916156768798828125" lon="20.1580045558512210845947265625">
        <ele>1860</ele>
        <time>2026-06-20T09:17:36.000Z</time>
        <extensions>
          <ns3:TrackPointExtension>
            <ns3:atemp>26.0</ns3:atemp>
          </ns3:TrackPointExtension>
        </extensions>
      </trkpt>
      <trkpt lat="42.5195308215916156768798828125" lon="20.1580045558512210845947265625">
        <ele>1860</ele>
        <time>2026-06-20T09:17:37.000Z</time>
        <extensions>
          <ns3:TrackPointExtension>
            <ns3:atemp>26.0</ns3:atemp>
          </ns3:TrackPointExtension>
        </extensions>
      </trkpt>
      <trkpt lat="42.5195308215916156768798828125" lon="20.1580045558512210845947265625">
        <ele>1860</ele>
        <time>2026-06-20T09:17:38.000Z</time>
        <extensions>
          <ns3:TrackPointExtension>
            <ns3:atemp>26.0</ns3:atemp>
          </ns3:TrackPointExtension>
        </extensions>
      </trkpt>
      <trkpt lat="42.5195308215916156768798828125" lon="20.1580045558512210845947265625">
        <ele>1860</ele>
        <time>2026-06-20T09:17:39.000Z</time>
        <extensions>
          <ns3:TrackPointExtension>
            <ns3:atemp>26.0</ns3:atemp>
          </ns3:TrackPointExtension>
        </extensions>
      </trkpt>
      <trkpt lat="42.5195308215916156768798828125" lon="20.1580045558512210845947265625">
        <ele>1860</ele>
        <time>2026-06-20T09:17:40.000Z</time>
        <extensions>
          <ns3:TrackPointExtension>
            <ns3:atemp>26.0</ns3:atemp>
          </ns3:TrackPointExtension>
        </extensions>
      </trkpt>
      <trkpt lat="42.5195308215916156768798828125" lon="20.1580045558512210845947265625">
        <ele>1860</ele>
        <time>2026-06-20T09:17:41.000Z</time>
        <extensions>
          <ns3:TrackPointExtension>
            <ns3:atemp>26.0</ns3:atemp>
          </ns3:TrackPointExtension>
        </extensions>
      </trkpt>
      <trkpt lat="42.5195308215916156768798828125" lon="20.1580045558512210845947265625">
        <ele>1860</ele>
        <time>2026-06-20T09:17:42.000Z</time>
        <extensions>
          <ns3:TrackPointExtension>
            <ns3:atemp>26.0</ns3:atemp>
          </ns3:TrackPointExtension>
        </extensions>
      </trkpt>
      <trkpt lat="42.5195308215916156768798828125" lon="20.1580045558512210845947265625">
        <ele>1860</ele>
        <time>2026-06-20T09:17:43.000Z</time>
        <extensions>
          <ns3:TrackPointExtension>
            <ns3:atemp>26.0</ns3:atemp>
          </ns3:TrackPointExtension>
        </extensions>
      </trkpt>
      <trkpt lat="42.5195308215916156768798828125" lon="20.1580045558512210845947265625">
        <ele>1860</ele>
        <time>2026-06-20T09:17:44.000Z</time>
        <extensions>
          <ns3:TrackPointExtension>
            <ns3:atemp>26.0</ns3:atemp>
          </ns3:TrackPointExtension>
        </extensions>
      </trkpt>
      <trkpt lat="42.5195308215916156768798828125" lon="20.1580045558512210845947265625">
        <ele>1860</ele>
        <time>2026-06-20T09:17:45.000Z</time>
        <extensions>
          <ns3:TrackPointExtension>
            <ns3:atemp>26.0</ns3:atemp>
          </ns3:TrackPointExtension>
        </extensions>
      </trkpt>
      <trkpt lat="42.5195308215916156768798828125" lon="20.1580045558512210845947265625">
        <ele>1860</ele>
        <time>2026-06-20T09:17:46.000Z</time>
        <extensions>
          <ns3:TrackPointExtension>
            <ns3:atemp>26.0</ns3:atemp>
          </ns3:TrackPointExtension>
        </extensions>
      </trkpt>
      <trkpt lat="42.5195308215916156768798828125" lon="20.1580045558512210845947265625">
        <ele>1860</ele>
        <time>2026-06-20T09:17:47.000Z</time>
        <extensions>
          <ns3:TrackPointExtension>
            <ns3:atemp>26.0</ns3:atemp>
          </ns3:TrackPointExtension>
        </extensions>
      </trkpt>
      <trkpt lat="42.5195308215916156768798828125" lon="20.1580045558512210845947265625">
        <ele>1860</ele>
        <time>2026-06-20T09:17:48.000Z</time>
        <extensions>
          <ns3:TrackPointExtension>
            <ns3:atemp>26.0</ns3:atemp>
          </ns3:TrackPointExtension>
        </extensions>
      </trkpt>
      <trkpt lat="42.5195308215916156768798828125" lon="20.1580045558512210845947265625">
        <ele>1860</ele>
        <time>2026-06-20T09:17:49.000Z</time>
        <extensions>
          <ns3:TrackPointExtension>
            <ns3:atemp>26.0</ns3:atemp>
          </ns3:TrackPointExtension>
        </extensions>
      </trkpt>
      <trkpt lat="42.5195308215916156768798828125" lon="20.1580045558512210845947265625">
        <ele>1860</ele>
        <time>2026-06-20T09:17:50.000Z</time>
        <extensions>
          <ns3:TrackPointExtension>
            <ns3:atemp>26.0</ns3:atemp>
          </ns3:TrackPointExtension>
        </extensions>
      </trkpt>
      <trkpt lat="42.5195308215916156768798828125" lon="20.1580045558512210845947265625">
        <ele>1860</ele>
        <time>2026-06-20T09:17:51.000Z</time>
        <extensions>
          <ns3:TrackPointExtension>
            <ns3:atemp>26.0</ns3:atemp>
          </ns3:TrackPointExtension>
        </extensions>
      </trkpt>
      <trkpt lat="42.5195308215916156768798828125" lon="20.1580045558512210845947265625">
        <ele>1860</ele>
        <time>2026-06-20T09:17:52.000Z</time>
        <extensions>
          <ns3:TrackPointExtension>
            <ns3:atemp>26.0</ns3:atemp>
          </ns3:TrackPointExtension>
        </extensions>
      </trkpt>
      <trkpt lat="42.5195308215916156768798828125" lon="20.1580045558512210845947265625">
        <ele>1860</ele>
        <time>2026-06-20T09:17:53.000Z</time>
        <extensions>
          <ns3:TrackPointExtension>
            <ns3:atemp>26.0</ns3:atemp>
          </ns3:TrackPointExtension>
        </extensions>
      </trkpt>
      <trkpt lat="42.5195308215916156768798828125" lon="20.1580045558512210845947265625">
        <ele>1860</ele>
        <time>2026-06-20T09:17:54.000Z</time>
        <extensions>
          <ns3:TrackPointExtension>
            <ns3:atemp>26.0</ns3:atemp>
          </ns3:TrackPointExtension>
        </extensions>
      </trkpt>
      <trkpt lat="42.5195308215916156768798828125" lon="20.1580045558512210845947265625">
        <ele>1860</ele>
        <time>2026-06-20T09:17:55.000Z</time>
        <extensions>
          <ns3:TrackPointExtension>
            <ns3:atemp>26.0</ns3:atemp>
          </ns3:TrackPointExtension>
        </extensions>
      </trkpt>
      <trkpt lat="42.5195308215916156768798828125" lon="20.1580045558512210845947265625">
        <ele>1860</ele>
        <time>2026-06-20T09:17:56.000Z</time>
        <extensions>
          <ns3:TrackPointExtension>
            <ns3:atemp>26.0</ns3:atemp>
          </ns3:TrackPointExtension>
        </extensions>
      </trkpt>
      <trkpt lat="42.5195308215916156768798828125" lon="20.1580045558512210845947265625">
        <ele>1860</ele>
        <time>2026-06-20T09:17:57.000Z</time>
        <extensions>
          <ns3:TrackPointExtension>
            <ns3:atemp>26.0</ns3:atemp>
          </ns3:TrackPointExtension>
        </extensions>
      </trkpt>
      <trkpt lat="42.5195308215916156768798828125" lon="20.1580045558512210845947265625">
        <ele>1860</ele>
        <time>2026-06-20T09:17:58.000Z</time>
        <extensions>
          <ns3:TrackPointExtension>
            <ns3:atemp>26.0</ns3:atemp>
          </ns3:TrackPointExtension>
        </extensions>
      </trkpt>
      <trkpt lat="42.5195308215916156768798828125" lon="20.1580045558512210845947265625">
        <ele>1860</ele>
        <time>2026-06-20T09:17:59.000Z</time>
        <extensions>
          <ns3:TrackPointExtension>
            <ns3:atemp>26.0</ns3:atemp>
          </ns3:TrackPointExtension>
        </extensions>
      </trkpt>
      <trkpt lat="42.5195308215916156768798828125" lon="20.1580045558512210845947265625">
        <ele>1860</ele>
        <time>2026-06-20T09:18:00.000Z</time>
        <extensions>
          <ns3:TrackPointExtension>
            <ns3:atemp>26.0</ns3:atemp>
          </ns3:TrackPointExtension>
        </extensions>
      </trkpt>
      <trkpt lat="42.5195308215916156768798828125" lon="20.1580045558512210845947265625">
        <ele>1860</ele>
        <time>2026-06-20T09:18:01.000Z</time>
        <extensions>
          <ns3:TrackPointExtension>
            <ns3:atemp>26.0</ns3:atemp>
          </ns3:TrackPointExtension>
        </extensions>
      </trkpt>
      <trkpt lat="42.5195308215916156768798828125" lon="20.1580045558512210845947265625">
        <ele>1860</ele>
        <time>2026-06-20T09:18:02.000Z</time>
        <extensions>
          <ns3:TrackPointExtension>
            <ns3:atemp>26.0</ns3:atemp>
          </ns3:TrackPointExtension>
        </extensions>
      </trkpt>
      <trkpt lat="42.5195308215916156768798828125" lon="20.1580045558512210845947265625">
        <ele>1860</ele>
        <time>2026-06-20T09:18:03.000Z</time>
        <extensions>
          <ns3:TrackPointExtension>
            <ns3:atemp>27.0</ns3:atemp>
          </ns3:TrackPointExtension>
        </extensions>
      </trkpt>
      <trkpt lat="42.5195308215916156768798828125" lon="20.1580045558512210845947265625">
        <ele>1860</ele>
        <time>2026-06-20T09:18:04.000Z</time>
        <extensions>
          <ns3:TrackPointExtension>
            <ns3:atemp>27.0</ns3:atemp>
          </ns3:TrackPointExtension>
        </extensions>
      </trkpt>
      <trkpt lat="42.5195308215916156768798828125" lon="20.1580045558512210845947265625">
        <ele>1860</ele>
        <time>2026-06-20T09:18:05.000Z</time>
        <extensions>
          <ns3:TrackPointExtension>
            <ns3:atemp>27.0</ns3:atemp>
          </ns3:TrackPointExtension>
        </extensions>
      </trkpt>
      <trkpt lat="42.5195308215916156768798828125" lon="20.1580045558512210845947265625">
        <ele>1860</ele>
        <time>2026-06-20T09:18:06.000Z</time>
        <extensions>
          <ns3:TrackPointExtension>
            <ns3:atemp>27.0</ns3:atemp>
          </ns3:TrackPointExtension>
        </extensions>
      </trkpt>
      <trkpt lat="42.5195308215916156768798828125" lon="20.1580045558512210845947265625">
        <ele>1860</ele>
        <time>2026-06-20T09:18:07.000Z</time>
        <extensions>
          <ns3:TrackPointExtension>
            <ns3:atemp>26.0</ns3:atemp>
          </ns3:TrackPointExtension>
        </extensions>
      </trkpt>
      <trkpt lat="42.5195308215916156768798828125" lon="20.1580045558512210845947265625">
        <ele>1860</ele>
        <time>2026-06-20T09:18:08.000Z</time>
        <extensions>
          <ns3:TrackPointExtension>
            <ns3:atemp>27.0</ns3:atemp>
          </ns3:TrackPointExtension>
        </extensions>
      </trkpt>
      <trkpt lat="42.5195308215916156768798828125" lon="20.1580045558512210845947265625">
        <ele>1860</ele>
        <time>2026-06-20T09:18:09.000Z</time>
        <extensions>
          <ns3:TrackPointExtension>
            <ns3:atemp>27.0</ns3:atemp>
          </ns3:TrackPointExtension>
        </extensions>
      </trkpt>
      <trkpt lat="42.5195308215916156768798828125" lon="20.1580045558512210845947265625">
        <ele>1860</ele>
        <time>2026-06-20T09:18:10.000Z</time>
        <extensions>
          <ns3:TrackPointExtension>
            <ns3:atemp>26.0</ns3:atemp>
          </ns3:TrackPointExtension>
        </extensions>
      </trkpt>
      <trkpt lat="42.5195308215916156768798828125" lon="20.1580045558512210845947265625">
        <ele>1860</ele>
        <time>2026-06-20T09:18:11.000Z</time>
        <extensions>
          <ns3:TrackPointExtension>
            <ns3:atemp>26.0</ns3:atemp>
          </ns3:TrackPointExtension>
        </extensions>
      </trkpt>
      <trkpt lat="42.5195308215916156768798828125" lon="20.1580045558512210845947265625">
        <ele>1860</ele>
        <time>2026-06-20T09:18:12.000Z</time>
        <extensions>
          <ns3:TrackPointExtension>
            <ns3:atemp>27.0</ns3:atemp>
          </ns3:TrackPointExtension>
        </extensions>
      </trkpt>
      <trkpt lat="42.5195308215916156768798828125" lon="20.1580045558512210845947265625">
        <ele>1860</ele>
        <time>2026-06-20T09:18:13.000Z</time>
        <extensions>
          <ns3:TrackPointExtension>
            <ns3:atemp>27.0</ns3:atemp>
          </ns3:TrackPointExtension>
        </extensions>
      </trkpt>
      <trkpt lat="42.5195308215916156768798828125" lon="20.1580045558512210845947265625">
        <ele>1860</ele>
        <time>2026-06-20T09:18:14.000Z</time>
        <extensions>
          <ns3:TrackPointExtension>
            <ns3:atemp>26.0</ns3:atemp>
          </ns3:TrackPointExtension>
        </extensions>
      </trkpt>
      <trkpt lat="42.5195308215916156768798828125" lon="20.1580045558512210845947265625">
        <ele>1860</ele>
        <time>2026-06-20T09:18:15.000Z</time>
        <extensions>
          <ns3:TrackPointExtension>
            <ns3:atemp>26.0</ns3:atemp>
          </ns3:TrackPointExtension>
        </extensions>
      </trkpt>
      <trkpt lat="42.5195308215916156768798828125" lon="20.1580045558512210845947265625">
        <ele>1860</ele>
        <time>2026-06-20T09:18:16.000Z</time>
        <extensions>
          <ns3:TrackPointExtension>
            <ns3:atemp>26.0</ns3:atemp>
          </ns3:TrackPointExtension>
        </extensions>
      </trkpt>
      <trkpt lat="42.5195308215916156768798828125" lon="20.1580045558512210845947265625">
        <ele>1860</ele>
        <time>2026-06-20T09:18:17.000Z</time>
        <extensions>
          <ns3:TrackPointExtension>
            <ns3:atemp>27.0</ns3:atemp>
          </ns3:TrackPointExtension>
        </extensions>
      </trkpt>
      <trkpt lat="42.5195308215916156768798828125" lon="20.1580045558512210845947265625">
        <ele>1860</ele>
        <time>2026-06-20T09:18:18.000Z</time>
        <extensions>
          <ns3:TrackPointExtension>
            <ns3:atemp>27.0</ns3:atemp>
          </ns3:TrackPointExtension>
        </extensions>
      </trkpt>
      <trkpt lat="42.5195308215916156768798828125" lon="20.1580045558512210845947265625">
        <ele>1860</ele>
        <time>2026-06-20T09:18:19.000Z</time>
        <extensions>
          <ns3:TrackPointExtension>
            <ns3:atemp>27.0</ns3:atemp>
          </ns3:TrackPointExtension>
        </extensions>
      </trkpt>
      <trkpt lat="42.5195308215916156768798828125" lon="20.1580045558512210845947265625">
        <ele>1860</ele>
        <time>2026-06-20T09:18:20.000Z</time>
        <extensions>
          <ns3:TrackPointExtension>
            <ns3:atemp>27.0</ns3:atemp>
          </ns3:TrackPointExtension>
        </extensions>
      </trkpt>
      <trkpt lat="42.5195308215916156768798828125" lon="20.1580045558512210845947265625">
        <ele>1860</ele>
        <time>2026-06-20T09:18:21.000Z</time>
        <extensions>
          <ns3:TrackPointExtension>
            <ns3:atemp>27.0</ns3:atemp>
          </ns3:TrackPointExtension>
        </extensions>
      </trkpt>
      <trkpt lat="42.5195308215916156768798828125" lon="20.1580045558512210845947265625">
        <ele>1860</ele>
        <time>2026-06-20T09:18:22.000Z</time>
        <extensions>
          <ns3:TrackPointExtension>
            <ns3:atemp>26.0</ns3:atemp>
          </ns3:TrackPointExtension>
        </extensions>
      </trkpt>
      <trkpt lat="42.5195308215916156768798828125" lon="20.1580045558512210845947265625">
        <ele>1860</ele>
        <time>2026-06-20T09:18:23.000Z</time>
        <extensions>
          <ns3:TrackPointExtension>
            <ns3:atemp>26.0</ns3:atemp>
          </ns3:TrackPointExtension>
        </extensions>
      </trkpt>
      <trkpt lat="42.5195308215916156768798828125" lon="20.1580045558512210845947265625">
        <ele>1860</ele>
        <time>2026-06-20T09:18:24.000Z</time>
        <extensions>
          <ns3:TrackPointExtension>
            <ns3:atemp>27.0</ns3:atemp>
          </ns3:TrackPointExtension>
        </extensions>
      </trkpt>
      <trkpt lat="42.5195308215916156768798828125" lon="20.1580045558512210845947265625">
        <ele>1860</ele>
        <time>2026-06-20T09:18:25.000Z</time>
        <extensions>
          <ns3:TrackPointExtension>
            <ns3:atemp>27.0</ns3:atemp>
          </ns3:TrackPointExtension>
        </extensions>
      </trkpt>
      <trkpt lat="42.5195308215916156768798828125" lon="20.1580045558512210845947265625">
        <ele>1860</ele>
        <time>2026-06-20T09:18:26.000Z</time>
        <extensions>
          <ns3:TrackPointExtension>
            <ns3:atemp>27.0</ns3:atemp>
          </ns3:TrackPointExtension>
        </extensions>
      </trkpt>
      <trkpt lat="42.5195308215916156768798828125" lon="20.1580045558512210845947265625">
        <ele>1860</ele>
        <time>2026-06-20T09:18:27.000Z</time>
        <extensions>
          <ns3:TrackPointExtension>
            <ns3:atemp>27.0</ns3:atemp>
          </ns3:TrackPointExtension>
        </extensions>
      </trkpt>
      <trkpt lat="42.5195308215916156768798828125" lon="20.1580045558512210845947265625">
        <ele>1860</ele>
        <time>2026-06-20T09:18:28.000Z</time>
        <extensions>
          <ns3:TrackPointExtension>
            <ns3:atemp>27.0</ns3:atemp>
          </ns3:TrackPointExtension>
        </extensions>
      </trkpt>
      <trkpt lat="42.5195308215916156768798828125" lon="20.1580045558512210845947265625">
        <ele>1860</ele>
        <time>2026-06-20T09:18:29.000Z</time>
        <extensions>
          <ns3:TrackPointExtension>
            <ns3:atemp>27.0</ns3:atemp>
          </ns3:TrackPointExtension>
        </extensions>
      </trkpt>
      <trkpt lat="42.5195308215916156768798828125" lon="20.1580045558512210845947265625">
        <ele>1860</ele>
        <time>2026-06-20T09:18:30.000Z</time>
        <extensions>
          <ns3:TrackPointExtension>
            <ns3:atemp>27.0</ns3:atemp>
          </ns3:TrackPointExtension>
        </extensions>
      </trkpt>
      <trkpt lat="42.5195308215916156768798828125" lon="20.1580045558512210845947265625">
        <ele>1860</ele>
        <time>2026-06-20T09:18:31.000Z</time>
        <extensions>
          <ns3:TrackPointExtension>
            <ns3:atemp>27.0</ns3:atemp>
          </ns3:TrackPointExtension>
        </extensions>
      </trkpt>
      <trkpt lat="42.5195308215916156768798828125" lon="20.1580045558512210845947265625">
        <ele>1860</ele>
        <time>2026-06-20T09:18:32.000Z</time>
        <extensions>
          <ns3:TrackPointExtension>
            <ns3:atemp>27.0</ns3:atemp>
          </ns3:TrackPointExtension>
        </extensions>
      </trkpt>
      <trkpt lat="42.5195308215916156768798828125" lon="20.1580045558512210845947265625">
        <ele>1860</ele>
        <time>2026-06-20T09:18:33.000Z</time>
        <extensions>
          <ns3:TrackPointExtension>
            <ns3:atemp>27.0</ns3:atemp>
          </ns3:TrackPointExtension>
        </extensions>
      </trkpt>
      <trkpt lat="42.5195308215916156768798828125" lon="20.1580045558512210845947265625">
        <ele>1860</ele>
        <time>2026-06-20T09:18:34.000Z</time>
        <extensions>
          <ns3:TrackPointExtension>
            <ns3:atemp>27.0</ns3:atemp>
          </ns3:TrackPointExtension>
        </extensions>
      </trkpt>
      <trkpt lat="42.5195308215916156768798828125" lon="20.1580045558512210845947265625">
        <ele>1860</ele>
        <time>2026-06-20T09:18:35.000Z</time>
        <extensions>
          <ns3:TrackPointExtension>
            <ns3:atemp>27.0</ns3:atemp>
          </ns3:TrackPointExtension>
        </extensions>
      </trkpt>
      <trkpt lat="42.5195308215916156768798828125" lon="20.1580045558512210845947265625">
        <ele>1860</ele>
        <time>2026-06-20T09:18:36.000Z</time>
        <extensions>
          <ns3:TrackPointExtension>
            <ns3:atemp>27.0</ns3:atemp>
          </ns3:TrackPointExtension>
        </extensions>
      </trkpt>
      <trkpt lat="42.5195308215916156768798828125" lon="20.1580045558512210845947265625">
        <ele>1860</ele>
        <time>2026-06-20T09:18:37.000Z</time>
        <extensions>
          <ns3:TrackPointExtension>
            <ns3:atemp>27.0</ns3:atemp>
          </ns3:TrackPointExtension>
        </extensions>
      </trkpt>
      <trkpt lat="42.5195308215916156768798828125" lon="20.1580045558512210845947265625">
        <ele>1860</ele>
        <time>2026-06-20T09:18:38.000Z</time>
        <extensions>
          <ns3:TrackPointExtension>
            <ns3:atemp>27.0</ns3:atemp>
          </ns3:TrackPointExtension>
        </extensions>
      </trkpt>
      <trkpt lat="42.5195308215916156768798828125" lon="20.1580045558512210845947265625">
        <ele>1860</ele>
        <time>2026-06-20T09:18:39.000Z</time>
        <extensions>
          <ns3:TrackPointExtension>
            <ns3:atemp>27.0</ns3:atemp>
          </ns3:TrackPointExtension>
        </extensions>
      </trkpt>
      <trkpt lat="42.5195308215916156768798828125" lon="20.1580045558512210845947265625">
        <ele>1860</ele>
        <time>2026-06-20T09:18:40.000Z</time>
        <extensions>
          <ns3:TrackPointExtension>
            <ns3:atemp>27.0</ns3:atemp>
          </ns3:TrackPointExtension>
        </extensions>
      </trkpt>
      <trkpt lat="42.5195308215916156768798828125" lon="20.1580045558512210845947265625">
        <ele>1860</ele>
        <time>2026-06-20T09:18:41.000Z</time>
        <extensions>
          <ns3:TrackPointExtension>
            <ns3:atemp>27.0</ns3:atemp>
          </ns3:TrackPointExtension>
        </extensions>
      </trkpt>
      <trkpt lat="42.5195308215916156768798828125" lon="20.1580045558512210845947265625">
        <ele>1860</ele>
        <time>2026-06-20T09:18:42.000Z</time>
        <extensions>
          <ns3:TrackPointExtension>
            <ns3:atemp>27.0</ns3:atemp>
          </ns3:TrackPointExtension>
        </extensions>
      </trkpt>
      <trkpt lat="42.5195308215916156768798828125" lon="20.1580045558512210845947265625">
        <ele>1860</ele>
        <time>2026-06-20T09:18:43.000Z</time>
        <extensions>
          <ns3:TrackPointExtension>
            <ns3:atemp>27.0</ns3:atemp>
          </ns3:TrackPointExtension>
        </extensions>
      </trkpt>
      <trkpt lat="42.5195308215916156768798828125" lon="20.1580045558512210845947265625">
        <ele>1860</ele>
        <time>2026-06-20T09:18:44.000Z</time>
        <extensions>
          <ns3:TrackPointExtension>
            <ns3:atemp>27.0</ns3:atemp>
          </ns3:TrackPointExtension>
        </extensions>
      </trkpt>
      <trkpt lat="42.5195308215916156768798828125" lon="20.1580045558512210845947265625">
        <ele>1860</ele>
        <time>2026-06-20T09:18:45.000Z</time>
        <extensions>
          <ns3:TrackPointExtension>
            <ns3:atemp>27.0</ns3:atemp>
          </ns3:TrackPointExtension>
        </extensions>
      </trkpt>
      <trkpt lat="42.5195308215916156768798828125" lon="20.1580045558512210845947265625">
        <ele>1860</ele>
        <time>2026-06-20T09:18:46.000Z</time>
        <extensions>
          <ns3:TrackPointExtension>
            <ns3:atemp>27.0</ns3:atemp>
          </ns3:TrackPointExtension>
        </extensions>
      </trkpt>
      <trkpt lat="42.5195308215916156768798828125" lon="20.1580045558512210845947265625">
        <ele>1860</ele>
        <time>2026-06-20T09:18:47.000Z</time>
        <extensions>
          <ns3:TrackPointExtension>
            <ns3:atemp>27.0</ns3:atemp>
          </ns3:TrackPointExtension>
        </extensions>
      </trkpt>
      <trkpt lat="42.5195308215916156768798828125" lon="20.1580045558512210845947265625">
        <ele>1860</ele>
        <time>2026-06-20T09:18:48.000Z</time>
        <extensions>
          <ns3:TrackPointExtension>
            <ns3:atemp>27.0</ns3:atemp>
          </ns3:TrackPointExtension>
        </extensions>
      </trkpt>
      <trkpt lat="42.5195308215916156768798828125" lon="20.1580045558512210845947265625">
        <ele>1860</ele>
        <time>2026-06-20T09:18:49.000Z</time>
        <extensions>
          <ns3:TrackPointExtension>
            <ns3:atemp>27.0</ns3:atemp>
          </ns3:TrackPointExtension>
        </extensions>
      </trkpt>
      <trkpt lat="42.5195308215916156768798828125" lon="20.1580045558512210845947265625">
        <ele>1860</ele>
        <time>2026-06-20T09:18:50.000Z</time>
        <extensions>
          <ns3:TrackPointExtension>
            <ns3:atemp>27.0</ns3:atemp>
          </ns3:TrackPointExtension>
        </extensions>
      </trkpt>
      <trkpt lat="42.5195308215916156768798828125" lon="20.1580045558512210845947265625">
        <ele>1860</ele>
        <time>2026-06-20T09:18:51.000Z</time>
        <extensions>
          <ns3:TrackPointExtension>
            <ns3:atemp>27.0</ns3:atemp>
          </ns3:TrackPointExtension>
        </extensions>
      </trkpt>
      <trkpt lat="42.5195308215916156768798828125" lon="20.1580045558512210845947265625">
        <ele>1860</ele>
        <time>2026-06-20T09:18:52.000Z</time>
        <extensions>
          <ns3:TrackPointExtension>
            <ns3:atemp>27.0</ns3:atemp>
          </ns3:TrackPointExtension>
        </extensions>
      </trkpt>
      <trkpt lat="42.5195308215916156768798828125" lon="20.1580045558512210845947265625">
        <ele>1860</ele>
        <time>2026-06-20T09:18:53.000Z</time>
        <extensions>
          <ns3:TrackPointExtension>
            <ns3:atemp>27.0</ns3:atemp>
          </ns3:TrackPointExtension>
        </extensions>
      </trkpt>
      <trkpt lat="42.5195308215916156768798828125" lon="20.1580045558512210845947265625">
        <ele>1860</ele>
        <time>2026-06-20T09:18:54.000Z</time>
        <extensions>
          <ns3:TrackPointExtension>
            <ns3:atemp>27.0</ns3:atemp>
          </ns3:TrackPointExtension>
        </extensions>
      </trkpt>
      <trkpt lat="42.5195308215916156768798828125" lon="20.1580045558512210845947265625">
        <ele>1860</ele>
        <time>2026-06-20T09:18:55.000Z</time>
        <extensions>
          <ns3:TrackPointExtension>
            <ns3:atemp>27.0</ns3:atemp>
          </ns3:TrackPointExtension>
        </extensions>
      </trkpt>
      <trkpt lat="42.5195308215916156768798828125" lon="20.1580045558512210845947265625">
        <ele>1860</ele>
        <time>2026-06-20T09:18:56.000Z</time>
        <extensions>
          <ns3:TrackPointExtension>
            <ns3:atemp>27.0</ns3:atemp>
          </ns3:TrackPointExtension>
        </extensions>
      </trkpt>
      <trkpt lat="42.5195308215916156768798828125" lon="20.1580045558512210845947265625">
        <ele>1860</ele>
        <time>2026-06-20T09:18:57.000Z</time>
        <extensions>
          <ns3:TrackPointExtension>
            <ns3:atemp>27.0</ns3:atemp>
          </ns3:TrackPointExtension>
        </extensions>
      </trkpt>
      <trkpt lat="42.5195308215916156768798828125" lon="20.1580045558512210845947265625">
        <ele>1860</ele>
        <time>2026-06-20T09:18:58.000Z</time>
        <extensions>
          <ns3:TrackPointExtension>
            <ns3:atemp>27.0</ns3:atemp>
          </ns3:TrackPointExtension>
        </extensions>
      </trkpt>
      <trkpt lat="42.5195308215916156768798828125" lon="20.1580045558512210845947265625">
        <ele>1860</ele>
        <time>2026-06-20T09:18:59.000Z</time>
        <extensions>
          <ns3:TrackPointExtension>
            <ns3:atemp>27.0</ns3:atemp>
          </ns3:TrackPointExtension>
        </extensions>
      </trkpt>
      <trkpt lat="42.5195308215916156768798828125" lon="20.1580045558512210845947265625">
        <ele>1860</ele>
        <time>2026-06-20T09:19:00.000Z</time>
        <extensions>
          <ns3:TrackPointExtension>
            <ns3:atemp>27.0</ns3:atemp>
          </ns3:TrackPointExtension>
        </extensions>
      </trkpt>
      <trkpt lat="42.5195308215916156768798828125" lon="20.1580045558512210845947265625">
        <ele>1860</ele>
        <time>2026-06-20T09:19:01.000Z</time>
        <extensions>
          <ns3:TrackPointExtension>
            <ns3:atemp>27.0</ns3:atemp>
          </ns3:TrackPointExtension>
        </extensions>
      </trkpt>
      <trkpt lat="42.5195308215916156768798828125" lon="20.1580045558512210845947265625">
        <ele>1860</ele>
        <time>2026-06-20T09:19:02.000Z</time>
        <extensions>
          <ns3:TrackPointExtension>
            <ns3:atemp>27.0</ns3:atemp>
          </ns3:TrackPointExtension>
        </extensions>
      </trkpt>
      <trkpt lat="42.5195308215916156768798828125" lon="20.1580045558512210845947265625">
        <ele>1860</ele>
        <time>2026-06-20T09:19:03.000Z</time>
        <extensions>
          <ns3:TrackPointExtension>
            <ns3:atemp>27.0</ns3:atemp>
          </ns3:TrackPointExtension>
        </extensions>
      </trkpt>
      <trkpt lat="42.5195308215916156768798828125" lon="20.1580045558512210845947265625">
        <ele>1860</ele>
        <time>2026-06-20T09:19:04.000Z</time>
        <extensions>
          <ns3:TrackPointExtension>
            <ns3:atemp>27.0</ns3:atemp>
          </ns3:TrackPointExtension>
        </extensions>
      </trkpt>
      <trkpt lat="42.5195308215916156768798828125" lon="20.1580045558512210845947265625">
        <ele>1860</ele>
        <time>2026-06-20T09:19:05.000Z</time>
        <extensions>
          <ns3:TrackPointExtension>
            <ns3:atemp>27.0</ns3:atemp>
          </ns3:TrackPointExtension>
        </extensions>
      </trkpt>
      <trkpt lat="42.5195308215916156768798828125" lon="20.1580045558512210845947265625">
        <ele>1860</ele>
        <time>2026-06-20T09:19:06.000Z</time>
        <extensions>
          <ns3:TrackPointExtension>
            <ns3:atemp>27.0</ns3:atemp>
          </ns3:TrackPointExtension>
        </extensions>
      </trkpt>
      <trkpt lat="42.5195308215916156768798828125" lon="20.1580045558512210845947265625">
        <ele>1860</ele>
        <time>2026-06-20T09:19:07.000Z</time>
        <extensions>
          <ns3:TrackPointExtension>
            <ns3:atemp>27.0</ns3:atemp>
          </ns3:TrackPointExtension>
        </extensions>
      </trkpt>
      <trkpt lat="42.5195308215916156768798828125" lon="20.1580045558512210845947265625">
        <ele>1860</ele>
        <time>2026-06-20T09:19:08.000Z</time>
        <extensions>
          <ns3:TrackPointExtension>
            <ns3:atemp>27.0</ns3:atemp>
          </ns3:TrackPointExtension>
        </extensions>
      </trkpt>
      <trkpt lat="42.5195308215916156768798828125" lon="20.1580045558512210845947265625">
        <ele>1860</ele>
        <time>2026-06-20T09:19:09.000Z</time>
        <extensions>
          <ns3:TrackPointExtension>
            <ns3:atemp>27.0</ns3:atemp>
          </ns3:TrackPointExtension>
        </extensions>
      </trkpt>
      <trkpt lat="42.5195308215916156768798828125" lon="20.1580045558512210845947265625">
        <ele>1860</ele>
        <time>2026-06-20T09:19:10.000Z</time>
        <extensions>
          <ns3:TrackPointExtension>
            <ns3:atemp>27.0</ns3:atemp>
          </ns3:TrackPointExtension>
        </extensions>
      </trkpt>
      <trkpt lat="42.5195308215916156768798828125" lon="20.1580045558512210845947265625">
        <ele>1860</ele>
        <time>2026-06-20T09:19:11.000Z</time>
        <extensions>
          <ns3:TrackPointExtension>
            <ns3:atemp>27.0</ns3:atemp>
          </ns3:TrackPointExtension>
        </extensions>
      </trkpt>
      <trkpt lat="42.5195308215916156768798828125" lon="20.1580045558512210845947265625">
        <ele>1860</ele>
        <time>2026-06-20T09:19:12.000Z</time>
        <extensions>
          <ns3:TrackPointExtension>
            <ns3:atemp>27.0</ns3:atemp>
          </ns3:TrackPointExtension>
        </extensions>
      </trkpt>
      <trkpt lat="42.5195308215916156768798828125" lon="20.1580045558512210845947265625">
        <ele>1860</ele>
        <time>2026-06-20T09:19:13.000Z</time>
        <extensions>
          <ns3:TrackPointExtension>
            <ns3:atemp>27.0</ns3:atemp>
          </ns3:TrackPointExtension>
        </extensions>
      </trkpt>
      <trkpt lat="42.5195308215916156768798828125" lon="20.1580045558512210845947265625">
        <ele>1860</ele>
        <time>2026-06-20T09:19:14.000Z</time>
        <extensions>
          <ns3:TrackPointExtension>
            <ns3:atemp>27.0</ns3:atemp>
          </ns3:TrackPointExtension>
        </extensions>
      </trkpt>
      <trkpt lat="42.5195308215916156768798828125" lon="20.1580045558512210845947265625">
        <ele>1860</ele>
        <time>2026-06-20T09:19:15.000Z</time>
        <extensions>
          <ns3:TrackPointExtension>
            <ns3:atemp>27.0</ns3:atemp>
          </ns3:TrackPointExtension>
        </extensions>
      </trkpt>
      <trkpt lat="42.5195308215916156768798828125" lon="20.1580045558512210845947265625">
        <ele>1860</ele>
        <time>2026-06-20T09:19:16.000Z</time>
        <extensions>
          <ns3:TrackPointExtension>
            <ns3:atemp>27.0</ns3:atemp>
          </ns3:TrackPointExtension>
        </extensions>
      </trkpt>
      <trkpt lat="42.5195308215916156768798828125" lon="20.1580045558512210845947265625">
        <ele>1860</ele>
        <time>2026-06-20T09:19:17.000Z</time>
        <extensions>
          <ns3:TrackPointExtension>
            <ns3:atemp>27.0</ns3:atemp>
          </ns3:TrackPointExtension>
        </extensions>
      </trkpt>
      <trkpt lat="42.5195308215916156768798828125" lon="20.1580045558512210845947265625">
        <ele>1860</ele>
        <time>2026-06-20T09:19:18.000Z</time>
        <extensions>
          <ns3:TrackPointExtension>
            <ns3:atemp>27.0</ns3:atemp>
          </ns3:TrackPointExtension>
        </extensions>
      </trkpt>
      <trkpt lat="42.5195308215916156768798828125" lon="20.1580045558512210845947265625">
        <ele>1860</ele>
        <time>2026-06-20T09:19:19.000Z</time>
        <extensions>
          <ns3:TrackPointExtension>
            <ns3:atemp>27.0</ns3:atemp>
          </ns3:TrackPointExtension>
        </extensions>
      </trkpt>
      <trkpt lat="42.5195308215916156768798828125" lon="20.1580045558512210845947265625">
        <ele>1860</ele>
        <time>2026-06-20T09:19:20.000Z</time>
        <extensions>
          <ns3:TrackPointExtension>
            <ns3:atemp>27.0</ns3:atemp>
          </ns3:TrackPointExtension>
        </extensions>
      </trkpt>
      <trkpt lat="42.5195308215916156768798828125" lon="20.1580045558512210845947265625">
        <ele>1860</ele>
        <time>2026-06-20T09:19:21.000Z</time>
        <extensions>
          <ns3:TrackPointExtension>
            <ns3:atemp>27.0</ns3:atemp>
          </ns3:TrackPointExtension>
        </extensions>
      </trkpt>
      <trkpt lat="42.5195308215916156768798828125" lon="20.1580045558512210845947265625">
        <ele>1860</ele>
        <time>2026-06-20T09:19:22.000Z</time>
        <extensions>
          <ns3:TrackPointExtension>
            <ns3:atemp>27.0</ns3:atemp>
          </ns3:TrackPointExtension>
        </extensions>
      </trkpt>
      <trkpt lat="42.5195308215916156768798828125" lon="20.1580045558512210845947265625">
        <ele>1860</ele>
        <time>2026-06-20T09:19:23.000Z</time>
        <extensions>
          <ns3:TrackPointExtension>
            <ns3:atemp>27.0</ns3:atemp>
          </ns3:TrackPointExtension>
        </extensions>
      </trkpt>
      <trkpt lat="42.5195308215916156768798828125" lon="20.1580045558512210845947265625">
        <ele>1860</ele>
        <time>2026-06-20T09:19:24.000Z</time>
        <extensions>
          <ns3:TrackPointExtension>
            <ns3:atemp>27.0</ns3:atemp>
          </ns3:TrackPointExtension>
        </extensions>
      </trkpt>
      <trkpt lat="42.5195308215916156768798828125" lon="20.1580045558512210845947265625">
        <ele>1860</ele>
        <time>2026-06-20T09:19:25.000Z</time>
        <extensions>
          <ns3:TrackPointExtension>
            <ns3:atemp>27.0</ns3:atemp>
          </ns3:TrackPointExtension>
        </extensions>
      </trkpt>
      <trkpt lat="42.5195308215916156768798828125" lon="20.1580045558512210845947265625">
        <ele>1860</ele>
        <time>2026-06-20T09:19:26.000Z</time>
        <extensions>
          <ns3:TrackPointExtension>
            <ns3:atemp>27.0</ns3:atemp>
          </ns3:TrackPointExtension>
        </extensions>
      </trkpt>
      <trkpt lat="42.5195308215916156768798828125" lon="20.1580045558512210845947265625">
        <ele>1860</ele>
        <time>2026-06-20T09:19:27.000Z</time>
        <extensions>
          <ns3:TrackPointExtension>
            <ns3:atemp>27.0</ns3:atemp>
          </ns3:TrackPointExtension>
        </extensions>
      </trkpt>
      <trkpt lat="42.5195308215916156768798828125" lon="20.1580045558512210845947265625">
        <ele>1860</ele>
        <time>2026-06-20T09:19:28.000Z</time>
        <extensions>
          <ns3:TrackPointExtension>
            <ns3:atemp>27.0</ns3:atemp>
          </ns3:TrackPointExtension>
        </extensions>
      </trkpt>
      <trkpt lat="42.5195308215916156768798828125" lon="20.1580045558512210845947265625">
        <ele>1860</ele>
        <time>2026-06-20T09:19:29.000Z</time>
        <extensions>
          <ns3:TrackPointExtension>
            <ns3:atemp>27.0</ns3:atemp>
          </ns3:TrackPointExtension>
        </extensions>
      </trkpt>
      <trkpt lat="42.5195308215916156768798828125" lon="20.1580045558512210845947265625">
        <ele>1860</ele>
        <time>2026-06-20T09:19:30.000Z</time>
        <extensions>
          <ns3:TrackPointExtension>
            <ns3:atemp>27.0</ns3:atemp>
          </ns3:TrackPointExtension>
        </extensions>
      </trkpt>
      <trkpt lat="42.5195308215916156768798828125" lon="20.1580045558512210845947265625">
        <ele>1860</ele>
        <time>2026-06-20T09:19:31.000Z</time>
        <extensions>
          <ns3:TrackPointExtension>
            <ns3:atemp>27.0</ns3:atemp>
          </ns3:TrackPointExtension>
        </extensions>
      </trkpt>
      <trkpt lat="42.5195308215916156768798828125" lon="20.1580045558512210845947265625">
        <ele>1860</ele>
        <time>2026-06-20T09:19:32.000Z</time>
        <extensions>
          <ns3:TrackPointExtension>
            <ns3:atemp>27.0</ns3:atemp>
          </ns3:TrackPointExtension>
        </extensions>
      </trkpt>
      <trkpt lat="42.5195308215916156768798828125" lon="20.1580045558512210845947265625">
        <ele>1860</ele>
        <time>2026-06-20T09:19:33.000Z</time>
        <extensions>
          <ns3:TrackPointExtension>
            <ns3:atemp>27.0</ns3:atemp>
          </ns3:TrackPointExtension>
        </extensions>
      </trkpt>
      <trkpt lat="42.5195308215916156768798828125" lon="20.1580045558512210845947265625">
        <ele>1860</ele>
        <time>2026-06-20T09:19:34.000Z</time>
        <extensions>
          <ns3:TrackPointExtension>
            <ns3:atemp>27.0</ns3:atemp>
          </ns3:TrackPointExtension>
        </extensions>
      </trkpt>
      <trkpt lat="42.5195308215916156768798828125" lon="20.1580045558512210845947265625">
        <ele>1860</ele>
        <time>2026-06-20T09:19:35.000Z</time>
        <extensions>
          <ns3:TrackPointExtension>
            <ns3:atemp>27.0</ns3:atemp>
          </ns3:TrackPointExtension>
        </extensions>
      </trkpt>
      <trkpt lat="42.5195308215916156768798828125" lon="20.1580045558512210845947265625">
        <ele>1860</ele>
        <time>2026-06-20T09:19:36.000Z</time>
        <extensions>
          <ns3:TrackPointExtension>
            <ns3:atemp>27.0</ns3:atemp>
          </ns3:TrackPointExtension>
        </extensions>
      </trkpt>
      <trkpt lat="42.5195308215916156768798828125" lon="20.1580045558512210845947265625">
        <ele>1860</ele>
        <time>2026-06-20T09:19:37.000Z</time>
        <extensions>
          <ns3:TrackPointExtension>
            <ns3:atemp>27.0</ns3:atemp>
          </ns3:TrackPointExtension>
        </extensions>
      </trkpt>
      <trkpt lat="42.5195308215916156768798828125" lon="20.1580045558512210845947265625">
        <ele>1860</ele>
        <time>2026-06-20T09:19:38.000Z</time>
        <extensions>
          <ns3:TrackPointExtension>
            <ns3:atemp>27.0</ns3:atemp>
          </ns3:TrackPointExtension>
        </extensions>
      </trkpt>
      <trkpt lat="42.5195308215916156768798828125" lon="20.1580045558512210845947265625">
        <ele>1860</ele>
        <time>2026-06-20T09:19:39.000Z</time>
        <extensions>
          <ns3:TrackPointExtension>
            <ns3:atemp>27.0</ns3:atemp>
          </ns3:TrackPointExtension>
        </extensions>
      </trkpt>
      <trkpt lat="42.5195308215916156768798828125" lon="20.1580045558512210845947265625">
        <ele>1860</ele>
        <time>2026-06-20T09:19:40.000Z</time>
        <extensions>
          <ns3:TrackPointExtension>
            <ns3:atemp>27.0</ns3:atemp>
          </ns3:TrackPointExtension>
        </extensions>
      </trkpt>
      <trkpt lat="42.5195308215916156768798828125" lon="20.1580045558512210845947265625">
        <ele>1860</ele>
        <time>2026-06-20T09:19:41.000Z</time>
        <extensions>
          <ns3:TrackPointExtension>
            <ns3:atemp>27.0</ns3:atemp>
          </ns3:TrackPointExtension>
        </extensions>
      </trkpt>
      <trkpt lat="42.5195308215916156768798828125" lon="20.1580045558512210845947265625">
        <ele>1860</ele>
        <time>2026-06-20T09:19:42.000Z</time>
        <extensions>
          <ns3:TrackPointExtension>
            <ns3:atemp>27.0</ns3:atemp>
          </ns3:TrackPointExtension>
        </extensions>
      </trkpt>
      <trkpt lat="42.5195308215916156768798828125" lon="20.1580045558512210845947265625">
        <ele>1860</ele>
        <time>2026-06-20T09:19:43.000Z</time>
        <extensions>
          <ns3:TrackPointExtension>
            <ns3:atemp>27.0</ns3:atemp>
          </ns3:TrackPointExtension>
        </extensions>
      </trkpt>
      <trkpt lat="42.5195308215916156768798828125" lon="20.1580045558512210845947265625">
        <ele>1860</ele>
        <time>2026-06-20T09:19:44.000Z</time>
        <extensions>
          <ns3:TrackPointExtension>
            <ns3:atemp>27.0</ns3:atemp>
          </ns3:TrackPointExtension>
        </extensions>
      </trkpt>
      <trkpt lat="42.5195308215916156768798828125" lon="20.1580045558512210845947265625">
        <ele>1860</ele>
        <time>2026-06-20T09:19:45.000Z</time>
        <extensions>
          <ns3:TrackPointExtension>
            <ns3:atemp>27.0</ns3:atemp>
          </ns3:TrackPointExtension>
        </extensions>
      </trkpt>
      <trkpt lat="42.5195308215916156768798828125" lon="20.1580045558512210845947265625">
        <ele>1860</ele>
        <time>2026-06-20T09:19:46.000Z</time>
        <extensions>
          <ns3:TrackPointExtension>
            <ns3:atemp>27.0</ns3:atemp>
          </ns3:TrackPointExtension>
        </extensions>
      </trkpt>
      <trkpt lat="42.5195308215916156768798828125" lon="20.1580045558512210845947265625">
        <ele>1860</ele>
        <time>2026-06-20T09:19:47.000Z</time>
        <extensions>
          <ns3:TrackPointExtension>
            <ns3:atemp>27.0</ns3:atemp>
          </ns3:TrackPointExtension>
        </extensions>
      </trkpt>
      <trkpt lat="42.5195308215916156768798828125" lon="20.1580045558512210845947265625">
        <ele>1860</ele>
        <time>2026-06-20T09:19:48.000Z</time>
        <extensions>
          <ns3:TrackPointExtension>
            <ns3:atemp>27.0</ns3:atemp>
          </ns3:TrackPointExtension>
        </extensions>
      </trkpt>
      <trkpt lat="42.5195308215916156768798828125" lon="20.1580045558512210845947265625">
        <ele>1860</ele>
        <time>2026-06-20T09:19:49.000Z</time>
        <extensions>
          <ns3:TrackPointExtension>
            <ns3:atemp>27.0</ns3:atemp>
          </ns3:TrackPointExtension>
        </extensions>
      </trkpt>
      <trkpt lat="42.5195308215916156768798828125" lon="20.1580045558512210845947265625">
        <ele>1860</ele>
        <time>2026-06-20T09:19:50.000Z</time>
        <extensions>
          <ns3:TrackPointExtension>
            <ns3:atemp>27.0</ns3:atemp>
          </ns3:TrackPointExtension>
        </extensions>
      </trkpt>
      <trkpt lat="42.5195308215916156768798828125" lon="20.1580045558512210845947265625">
        <ele>1860</ele>
        <time>2026-06-20T09:19:51.000Z</time>
        <extensions>
          <ns3:TrackPointExtension>
            <ns3:atemp>27.0</ns3:atemp>
          </ns3:TrackPointExtension>
        </extensions>
      </trkpt>
      <trkpt lat="42.5195308215916156768798828125" lon="20.1580045558512210845947265625">
        <ele>1860</ele>
        <time>2026-06-20T09:19:52.000Z</time>
        <extensions>
          <ns3:TrackPointExtension>
            <ns3:atemp>27.0</ns3:atemp>
          </ns3:TrackPointExtension>
        </extensions>
      </trkpt>
      <trkpt lat="42.5195308215916156768798828125" lon="20.1580045558512210845947265625">
        <ele>1860</ele>
        <time>2026-06-20T09:19:53.000Z</time>
        <extensions>
          <ns3:TrackPointExtension>
            <ns3:atemp>27.0</ns3:atemp>
          </ns3:TrackPointExtension>
        </extensions>
      </trkpt>
      <trkpt lat="42.5195308215916156768798828125" lon="20.1580045558512210845947265625">
        <ele>1860</ele>
        <time>2026-06-20T09:19:54.000Z</time>
        <extensions>
          <ns3:TrackPointExtension>
            <ns3:atemp>27.0</ns3:atemp>
          </ns3:TrackPointExtension>
        </extensions>
      </trkpt>
      <trkpt lat="42.5195308215916156768798828125" lon="20.1580045558512210845947265625">
        <ele>1860</ele>
        <time>2026-06-20T09:19:55.000Z</time>
        <extensions>
          <ns3:TrackPointExtension>
            <ns3:atemp>27.0</ns3:atemp>
          </ns3:TrackPointExtension>
        </extensions>
      </trkpt>
      <trkpt lat="42.5195308215916156768798828125" lon="20.1580045558512210845947265625">
        <ele>1860</ele>
        <time>2026-06-20T09:19:56.000Z</time>
        <extensions>
          <ns3:TrackPointExtension>
            <ns3:atemp>27.0</ns3:atemp>
          </ns3:TrackPointExtension>
        </extensions>
      </trkpt>
      <trkpt lat="42.5195308215916156768798828125" lon="20.1580045558512210845947265625">
        <ele>1860</ele>
        <time>2026-06-20T09:19:57.000Z</time>
        <extensions>
          <ns3:TrackPointExtension>
            <ns3:atemp>27.0</ns3:atemp>
          </ns3:TrackPointExtension>
        </extensions>
      </trkpt>
      <trkpt lat="42.5195308215916156768798828125" lon="20.1580045558512210845947265625">
        <ele>1860</ele>
        <time>2026-06-20T09:19:58.000Z</time>
        <extensions>
          <ns3:TrackPointExtension>
            <ns3:atemp>27.0</ns3:atemp>
          </ns3:TrackPointExtension>
        </extensions>
      </trkpt>
      <trkpt lat="42.5195308215916156768798828125" lon="20.1580045558512210845947265625">
        <ele>1860</ele>
        <time>2026-06-20T09:19:59.000Z</time>
        <extensions>
          <ns3:TrackPointExtension>
            <ns3:atemp>27.0</ns3:atemp>
          </ns3:TrackPointExtension>
        </extensions>
      </trkpt>
      <trkpt lat="42.5195308215916156768798828125" lon="20.1580045558512210845947265625">
        <ele>1860</ele>
        <time>2026-06-20T09:20:00.000Z</time>
        <extensions>
          <ns3:TrackPointExtension>
            <ns3:atemp>27.0</ns3:atemp>
          </ns3:TrackPointExtension>
        </extensions>
      </trkpt>
      <trkpt lat="42.5195308215916156768798828125" lon="20.1580045558512210845947265625">
        <ele>1860</ele>
        <time>2026-06-20T09:20:01.000Z</time>
        <extensions>
          <ns3:TrackPointExtension>
            <ns3:atemp>27.0</ns3:atemp>
          </ns3:TrackPointExtension>
        </extensions>
      </trkpt>
      <trkpt lat="42.5195308215916156768798828125" lon="20.1580045558512210845947265625">
        <ele>1860</ele>
        <time>2026-06-20T09:20:02.000Z</time>
        <extensions>
          <ns3:TrackPointExtension>
            <ns3:atemp>27.0</ns3:atemp>
          </ns3:TrackPointExtension>
        </extensions>
      </trkpt>
      <trkpt lat="42.5195308215916156768798828125" lon="20.1580045558512210845947265625">
        <ele>1860</ele>
        <time>2026-06-20T09:20:03.000Z</time>
        <extensions>
          <ns3:TrackPointExtension>
            <ns3:atemp>27.0</ns3:atemp>
          </ns3:TrackPointExtension>
        </extensions>
      </trkpt>
      <trkpt lat="42.5195308215916156768798828125" lon="20.1580045558512210845947265625">
        <ele>1860</ele>
        <time>2026-06-20T09:20:04.000Z</time>
        <extensions>
          <ns3:TrackPointExtension>
            <ns3:atemp>27.0</ns3:atemp>
          </ns3:TrackPointExtension>
        </extensions>
      </trkpt>
      <trkpt lat="42.5195308215916156768798828125" lon="20.1580045558512210845947265625">
        <ele>1860</ele>
        <time>2026-06-20T09:20:05.000Z</time>
        <extensions>
          <ns3:TrackPointExtension>
            <ns3:atemp>27.0</ns3:atemp>
          </ns3:TrackPointExtension>
        </extensions>
      </trkpt>
      <trkpt lat="42.5195308215916156768798828125" lon="20.1580045558512210845947265625">
        <ele>1860</ele>
        <time>2026-06-20T09:20:06.000Z</time>
        <extensions>
          <ns3:TrackPointExtension>
            <ns3:atemp>27.0</ns3:atemp>
          </ns3:TrackPointExtension>
        </extensions>
      </trkpt>
      <trkpt lat="42.5195308215916156768798828125" lon="20.1580045558512210845947265625">
        <ele>1860</ele>
        <time>2026-06-20T09:20:07.000Z</time>
        <extensions>
          <ns3:TrackPointExtension>
            <ns3:atemp>27.0</ns3:atemp>
          </ns3:TrackPointExtension>
        </extensions>
      </trkpt>
      <trkpt lat="42.5195308215916156768798828125" lon="20.1580045558512210845947265625">
        <ele>1860</ele>
        <time>2026-06-20T09:20:08.000Z</time>
        <extensions>
          <ns3:TrackPointExtension>
            <ns3:atemp>27.0</ns3:atemp>
          </ns3:TrackPointExtension>
        </extensions>
      </trkpt>
      <trkpt lat="42.5195308215916156768798828125" lon="20.1580045558512210845947265625">
        <ele>1860</ele>
        <time>2026-06-20T09:20:09.000Z</time>
        <extensions>
          <ns3:TrackPointExtension>
            <ns3:atemp>27.0</ns3:atemp>
          </ns3:TrackPointExtension>
        </extensions>
      </trkpt>
      <trkpt lat="42.5195308215916156768798828125" lon="20.1580045558512210845947265625">
        <ele>1860</ele>
        <time>2026-06-20T09:20:10.000Z</time>
        <extensions>
          <ns3:TrackPointExtension>
            <ns3:atemp>27.0</ns3:atemp>
          </ns3:TrackPointExtension>
        </extensions>
      </trkpt>
      <trkpt lat="42.5195308215916156768798828125" lon="20.1580045558512210845947265625">
        <ele>1860</ele>
        <time>2026-06-20T09:20:11.000Z</time>
        <extensions>
          <ns3:TrackPointExtension>
            <ns3:atemp>27.0</ns3:atemp>
          </ns3:TrackPointExtension>
        </extensions>
      </trkpt>
      <trkpt lat="42.5195308215916156768798828125" lon="20.1580045558512210845947265625">
        <ele>1860</ele>
        <time>2026-06-20T09:20:12.000Z</time>
        <extensions>
          <ns3:TrackPointExtension>
            <ns3:atemp>27.0</ns3:atemp>
          </ns3:TrackPointExtension>
        </extensions>
      </trkpt>
      <trkpt lat="42.5195308215916156768798828125" lon="20.1580045558512210845947265625">
        <ele>1860</ele>
        <time>2026-06-20T09:20:13.000Z</time>
        <extensions>
          <ns3:TrackPointExtension>
            <ns3:atemp>27.0</ns3:atemp>
          </ns3:TrackPointExtension>
        </extensions>
      </trkpt>
      <trkpt lat="42.5195308215916156768798828125" lon="20.1580045558512210845947265625">
        <ele>1860</ele>
        <time>2026-06-20T09:20:14.000Z</time>
        <extensions>
          <ns3:TrackPointExtension>
            <ns3:atemp>27.0</ns3:atemp>
          </ns3:TrackPointExtension>
        </extensions>
      </trkpt>
      <trkpt lat="42.5195308215916156768798828125" lon="20.1580045558512210845947265625">
        <ele>1860</ele>
        <time>2026-06-20T09:20:15.000Z</time>
        <extensions>
          <ns3:TrackPointExtension>
            <ns3:atemp>27.0</ns3:atemp>
          </ns3:TrackPointExtension>
        </extensions>
      </trkpt>
      <trkpt lat="42.5195308215916156768798828125" lon="20.1580045558512210845947265625">
        <ele>1860</ele>
        <time>2026-06-20T09:20:16.000Z</time>
        <extensions>
          <ns3:TrackPointExtension>
            <ns3:atemp>27.0</ns3:atemp>
          </ns3:TrackPointExtension>
        </extensions>
      </trkpt>
      <trkpt lat="42.5195308215916156768798828125" lon="20.1580045558512210845947265625">
        <ele>1860</ele>
        <time>2026-06-20T09:20:17.000Z</time>
        <extensions>
          <ns3:TrackPointExtension>
            <ns3:atemp>27.0</ns3:atemp>
          </ns3:TrackPointExtension>
        </extensions>
      </trkpt>
      <trkpt lat="42.5195308215916156768798828125" lon="20.1580045558512210845947265625">
        <ele>1860</ele>
        <time>2026-06-20T09:20:18.000Z</time>
        <extensions>
          <ns3:TrackPointExtension>
            <ns3:atemp>27.0</ns3:atemp>
          </ns3:TrackPointExtension>
        </extensions>
      </trkpt>
      <trkpt lat="42.5195308215916156768798828125" lon="20.1580045558512210845947265625">
        <ele>1860</ele>
        <time>2026-06-20T09:20:19.000Z</time>
        <extensions>
          <ns3:TrackPointExtension>
            <ns3:atemp>27.0</ns3:atemp>
          </ns3:TrackPointExtension>
        </extensions>
      </trkpt>
      <trkpt lat="42.5195308215916156768798828125" lon="20.1580045558512210845947265625">
        <ele>1860</ele>
        <time>2026-06-20T09:20:20.000Z</time>
        <extensions>
          <ns3:TrackPointExtension>
            <ns3:atemp>27.0</ns3:atemp>
          </ns3:TrackPointExtension>
        </extensions>
      </trkpt>
      <trkpt lat="42.5195308215916156768798828125" lon="20.1580045558512210845947265625">
        <ele>1860</ele>
        <time>2026-06-20T09:20:21.000Z</time>
        <extensions>
          <ns3:TrackPointExtension>
            <ns3:atemp>27.0</ns3:atemp>
          </ns3:TrackPointExtension>
        </extensions>
      </trkpt>
      <trkpt lat="42.5195308215916156768798828125" lon="20.1580045558512210845947265625">
        <ele>1860</ele>
        <time>2026-06-20T09:20:22.000Z</time>
        <extensions>
          <ns3:TrackPointExtension>
            <ns3:atemp>27.0</ns3:atemp>
          </ns3:TrackPointExtension>
        </extensions>
      </trkpt>
      <trkpt lat="42.5195308215916156768798828125" lon="20.1580045558512210845947265625">
        <ele>1860</ele>
        <time>2026-06-20T09:20:23.000Z</time>
        <extensions>
          <ns3:TrackPointExtension>
            <ns3:atemp>27.0</ns3:atemp>
          </ns3:TrackPointExtension>
        </extensions>
      </trkpt>
      <trkpt lat="42.5195308215916156768798828125" lon="20.1580045558512210845947265625">
        <ele>1860</ele>
        <time>2026-06-20T09:20:24.000Z</time>
        <extensions>
          <ns3:TrackPointExtension>
            <ns3:atemp>27.0</ns3:atemp>
          </ns3:TrackPointExtension>
        </extensions>
      </trkpt>
      <trkpt lat="42.5195308215916156768798828125" lon="20.1580045558512210845947265625">
        <ele>1860</ele>
        <time>2026-06-20T09:20:25.000Z</time>
        <extensions>
          <ns3:TrackPointExtension>
            <ns3:atemp>27.0</ns3:atemp>
          </ns3:TrackPointExtension>
        </extensions>
      </trkpt>
      <trkpt lat="42.5195308215916156768798828125" lon="20.1580045558512210845947265625">
        <ele>1860</ele>
        <time>2026-06-20T09:20:26.000Z</time>
        <extensions>
          <ns3:TrackPointExtension>
            <ns3:atemp>27.0</ns3:atemp>
          </ns3:TrackPointExtension>
        </extensions>
      </trkpt>
      <trkpt lat="42.5195308215916156768798828125" lon="20.1580045558512210845947265625">
        <ele>1860</ele>
        <time>2026-06-20T09:20:27.000Z</time>
        <extensions>
          <ns3:TrackPointExtension>
            <ns3:atemp>27.0</ns3:atemp>
          </ns3:TrackPointExtension>
        </extensions>
      </trkpt>
      <trkpt lat="42.5195308215916156768798828125" lon="20.1580045558512210845947265625">
        <ele>1860</ele>
        <time>2026-06-20T09:20:28.000Z</time>
        <extensions>
          <ns3:TrackPointExtension>
            <ns3:atemp>27.0</ns3:atemp>
          </ns3:TrackPointExtension>
        </extensions>
      </trkpt>
      <trkpt lat="42.5195308215916156768798828125" lon="20.1580045558512210845947265625">
        <ele>1860</ele>
        <time>2026-06-20T09:20:29.000Z</time>
        <extensions>
          <ns3:TrackPointExtension>
            <ns3:atemp>27.0</ns3:atemp>
          </ns3:TrackPointExtension>
        </extensions>
      </trkpt>
      <trkpt lat="42.5195308215916156768798828125" lon="20.1580045558512210845947265625">
        <ele>1860</ele>
        <time>2026-06-20T09:20:30.000Z</time>
        <extensions>
          <ns3:TrackPointExtension>
            <ns3:atemp>27.0</ns3:atemp>
          </ns3:TrackPointExtension>
        </extensions>
      </trkpt>
      <trkpt lat="42.5195308215916156768798828125" lon="20.1580045558512210845947265625">
        <ele>1860</ele>
        <time>2026-06-20T09:20:31.000Z</time>
        <extensions>
          <ns3:TrackPointExtension>
            <ns3:atemp>27.0</ns3:atemp>
          </ns3:TrackPointExtension>
        </extensions>
      </trkpt>
      <trkpt lat="42.5195308215916156768798828125" lon="20.1580045558512210845947265625">
        <ele>1860</ele>
        <time>2026-06-20T09:20:32.000Z</time>
        <extensions>
          <ns3:TrackPointExtension>
            <ns3:atemp>27.0</ns3:atemp>
          </ns3:TrackPointExtension>
        </extensions>
      </trkpt>
      <trkpt lat="42.5195308215916156768798828125" lon="20.1580045558512210845947265625">
        <ele>1860</ele>
        <time>2026-06-20T09:20:33.000Z</time>
        <extensions>
          <ns3:TrackPointExtension>
            <ns3:atemp>27.0</ns3:atemp>
          </ns3:TrackPointExtension>
        </extensions>
      </trkpt>
      <trkpt lat="42.5195308215916156768798828125" lon="20.1580045558512210845947265625">
        <ele>1860</ele>
        <time>2026-06-20T09:20:34.000Z</time>
        <extensions>
          <ns3:TrackPointExtension>
            <ns3:atemp>27.0</ns3:atemp>
          </ns3:TrackPointExtension>
        </extensions>
      </trkpt>
      <trkpt lat="42.5195308215916156768798828125" lon="20.1580045558512210845947265625">
        <ele>1860</ele>
        <time>2026-06-20T09:20:35.000Z</time>
        <extensions>
          <ns3:TrackPointExtension>
            <ns3:atemp>27.0</ns3:atemp>
          </ns3:TrackPointExtension>
        </extensions>
      </trkpt>
      <trkpt lat="42.5195308215916156768798828125" lon="20.1580045558512210845947265625">
        <ele>1860</ele>
        <time>2026-06-20T09:20:36.000Z</time>
        <extensions>
          <ns3:TrackPointExtension>
            <ns3:atemp>27.0</ns3:atemp>
          </ns3:TrackPointExtension>
        </extensions>
      </trkpt>
      <trkpt lat="42.5195308215916156768798828125" lon="20.1580045558512210845947265625">
        <ele>1860</ele>
        <time>2026-06-20T09:20:37.000Z</time>
        <extensions>
          <ns3:TrackPointExtension>
            <ns3:atemp>27.0</ns3:atemp>
          </ns3:TrackPointExtension>
        </extensions>
      </trkpt>
      <trkpt lat="42.5195308215916156768798828125" lon="20.1580045558512210845947265625">
        <ele>1860</ele>
        <time>2026-06-20T09:20:38.000Z</time>
        <extensions>
          <ns3:TrackPointExtension>
            <ns3:atemp>27.0</ns3:atemp>
          </ns3:TrackPointExtension>
        </extensions>
      </trkpt>
      <trkpt lat="42.5195308215916156768798828125" lon="20.1580045558512210845947265625">
        <ele>1860</ele>
        <time>2026-06-20T09:20:39.000Z</time>
        <extensions>
          <ns3:TrackPointExtension>
            <ns3:atemp>27.0</ns3:atemp>
          </ns3:TrackPointExtension>
        </extensions>
      </trkpt>
      <trkpt lat="42.5195308215916156768798828125" lon="20.1580045558512210845947265625">
        <ele>1860</ele>
        <time>2026-06-20T09:20:40.000Z</time>
        <extensions>
          <ns3:TrackPointExtension>
            <ns3:atemp>27.0</ns3:atemp>
          </ns3:TrackPointExtension>
        </extensions>
      </trkpt>
      <trkpt lat="42.5195308215916156768798828125" lon="20.1580045558512210845947265625">
        <ele>1860</ele>
        <time>2026-06-20T09:20:41.000Z</time>
        <extensions>
          <ns3:TrackPointExtension>
            <ns3:atemp>27.0</ns3:atemp>
          </ns3:TrackPointExtension>
        </extensions>
      </trkpt>
      <trkpt lat="42.5195308215916156768798828125" lon="20.1580045558512210845947265625">
        <ele>1860</ele>
        <time>2026-06-20T09:20:42.000Z</time>
        <extensions>
          <ns3:TrackPointExtension>
            <ns3:atemp>27.0</ns3:atemp>
          </ns3:TrackPointExtension>
        </extensions>
      </trkpt>
      <trkpt lat="42.5195308215916156768798828125" lon="20.1580045558512210845947265625">
        <ele>1860</ele>
        <time>2026-06-20T09:20:43.000Z</time>
        <extensions>
          <ns3:TrackPointExtension>
            <ns3:atemp>27.0</ns3:atemp>
          </ns3:TrackPointExtension>
        </extensions>
      </trkpt>
      <trkpt lat="42.5195308215916156768798828125" lon="20.1580045558512210845947265625">
        <ele>1860</ele>
        <time>2026-06-20T09:20:44.000Z</time>
        <extensions>
          <ns3:TrackPointExtension>
            <ns3:atemp>27.0</ns3:atemp>
          </ns3:TrackPointExtension>
        </extensions>
      </trkpt>
      <trkpt lat="42.5195308215916156768798828125" lon="20.1580045558512210845947265625">
        <ele>1860</ele>
        <time>2026-06-20T09:20:45.000Z</time>
        <extensions>
          <ns3:TrackPointExtension>
            <ns3:atemp>27.0</ns3:atemp>
          </ns3:TrackPointExtension>
        </extensions>
      </trkpt>
      <trkpt lat="42.5195308215916156768798828125" lon="20.1580045558512210845947265625">
        <ele>1860</ele>
        <time>2026-06-20T09:20:46.000Z</time>
        <extensions>
          <ns3:TrackPointExtension>
            <ns3:atemp>27.0</ns3:atemp>
          </ns3:TrackPointExtension>
        </extensions>
      </trkpt>
      <trkpt lat="42.5195308215916156768798828125" lon="20.1580045558512210845947265625">
        <ele>1860</ele>
        <time>2026-06-20T09:20:47.000Z</time>
        <extensions>
          <ns3:TrackPointExtension>
            <ns3:atemp>27.0</ns3:atemp>
          </ns3:TrackPointExtension>
        </extensions>
      </trkpt>
      <trkpt lat="42.5195308215916156768798828125" lon="20.1580045558512210845947265625">
        <ele>1860</ele>
        <time>2026-06-20T09:20:48.000Z</time>
        <extensions>
          <ns3:TrackPointExtension>
            <ns3:atemp>27.0</ns3:atemp>
          </ns3:TrackPointExtension>
        </extensions>
      </trkpt>
      <trkpt lat="42.5195308215916156768798828125" lon="20.1580045558512210845947265625">
        <ele>1860</ele>
        <time>2026-06-20T09:20:49.000Z</time>
        <extensions>
          <ns3:TrackPointExtension>
            <ns3:atemp>27.0</ns3:atemp>
          </ns3:TrackPointExtension>
        </extensions>
      </trkpt>
      <trkpt lat="42.5195308215916156768798828125" lon="20.1580045558512210845947265625">
        <ele>1860</ele>
        <time>2026-06-20T09:20:50.000Z</time>
        <extensions>
          <ns3:TrackPointExtension>
            <ns3:atemp>27.0</ns3:atemp>
          </ns3:TrackPointExtension>
        </extensions>
      </trkpt>
      <trkpt lat="42.5195308215916156768798828125" lon="20.1580045558512210845947265625">
        <ele>1860</ele>
        <time>2026-06-20T09:20:51.000Z</time>
        <extensions>
          <ns3:TrackPointExtension>
            <ns3:atemp>27.0</ns3:atemp>
          </ns3:TrackPointExtension>
        </extensions>
      </trkpt>
      <trkpt lat="42.5195308215916156768798828125" lon="20.1580045558512210845947265625">
        <ele>1860</ele>
        <time>2026-06-20T09:20:52.000Z</time>
        <extensions>
          <ns3:TrackPointExtension>
            <ns3:atemp>27.0</ns3:atemp>
          </ns3:TrackPointExtension>
        </extensions>
      </trkpt>
      <trkpt lat="42.5195308215916156768798828125" lon="20.1580045558512210845947265625">
        <ele>1860</ele>
        <time>2026-06-20T09:20:53.000Z</time>
        <extensions>
          <ns3:TrackPointExtension>
            <ns3:atemp>27.0</ns3:atemp>
          </ns3:TrackPointExtension>
        </extensions>
      </trkpt>
      <trkpt lat="42.5195308215916156768798828125" lon="20.1580045558512210845947265625">
        <ele>1860</ele>
        <time>2026-06-20T09:20:54.000Z</time>
        <extensions>
          <ns3:TrackPointExtension>
            <ns3:atemp>27.0</ns3:atemp>
          </ns3:TrackPointExtension>
        </extensions>
      </trkpt>
      <trkpt lat="42.5195308215916156768798828125" lon="20.1580045558512210845947265625">
        <ele>1860</ele>
        <time>2026-06-20T09:20:55.000Z</time>
        <extensions>
          <ns3:TrackPointExtension>
            <ns3:atemp>27.0</ns3:atemp>
          </ns3:TrackPointExtension>
        </extensions>
      </trkpt>
      <trkpt lat="42.5195308215916156768798828125" lon="20.1580045558512210845947265625">
        <ele>1860</ele>
        <time>2026-06-20T09:20:56.000Z</time>
        <extensions>
          <ns3:TrackPointExtension>
            <ns3:atemp>27.0</ns3:atemp>
          </ns3:TrackPointExtension>
        </extensions>
      </trkpt>
      <trkpt lat="42.5195308215916156768798828125" lon="20.1580045558512210845947265625">
        <ele>1860</ele>
        <time>2026-06-20T09:20:57.000Z</time>
        <extensions>
          <ns3:TrackPointExtension>
            <ns3:atemp>27.0</ns3:atemp>
          </ns3:TrackPointExtension>
        </extensions>
      </trkpt>
      <trkpt lat="42.5195308215916156768798828125" lon="20.1580045558512210845947265625">
        <ele>1860</ele>
        <time>2026-06-20T09:20:58.000Z</time>
        <extensions>
          <ns3:TrackPointExtension>
            <ns3:atemp>27.0</ns3:atemp>
          </ns3:TrackPointExtension>
        </extensions>
      </trkpt>
      <trkpt lat="42.5195308215916156768798828125" lon="20.1580045558512210845947265625">
        <ele>1860</ele>
        <time>2026-06-20T09:20:59.000Z</time>
        <extensions>
          <ns3:TrackPointExtension>
            <ns3:atemp>27.0</ns3:atemp>
          </ns3:TrackPointExtension>
        </extensions>
      </trkpt>
      <trkpt lat="42.5195308215916156768798828125" lon="20.1580045558512210845947265625">
        <ele>1860</ele>
        <time>2026-06-20T09:21:00.000Z</time>
        <extensions>
          <ns3:TrackPointExtension>
            <ns3:atemp>27.0</ns3:atemp>
          </ns3:TrackPointExtension>
        </extensions>
      </trkpt>
      <trkpt lat="42.5195308215916156768798828125" lon="20.1580045558512210845947265625">
        <ele>1860</ele>
        <time>2026-06-20T09:21:01.000Z</time>
        <extensions>
          <ns3:TrackPointExtension>
            <ns3:atemp>27.0</ns3:atemp>
          </ns3:TrackPointExtension>
        </extensions>
      </trkpt>
      <trkpt lat="42.5195308215916156768798828125" lon="20.1580045558512210845947265625">
        <ele>1860</ele>
        <time>2026-06-20T09:21:02.000Z</time>
        <extensions>
          <ns3:TrackPointExtension>
            <ns3:atemp>27.0</ns3:atemp>
          </ns3:TrackPointExtension>
        </extensions>
      </trkpt>
      <trkpt lat="42.5195308215916156768798828125" lon="20.1580045558512210845947265625">
        <ele>1860</ele>
        <time>2026-06-20T09:21:03.000Z</time>
        <extensions>
          <ns3:TrackPointExtension>
            <ns3:atemp>27.0</ns3:atemp>
          </ns3:TrackPointExtension>
        </extensions>
      </trkpt>
      <trkpt lat="42.5195308215916156768798828125" lon="20.1580045558512210845947265625">
        <ele>1860</ele>
        <time>2026-06-20T09:21:04.000Z</time>
        <extensions>
          <ns3:TrackPointExtension>
            <ns3:atemp>27.0</ns3:atemp>
          </ns3:TrackPointExtension>
        </extensions>
      </trkpt>
      <trkpt lat="42.5195308215916156768798828125" lon="20.1580045558512210845947265625">
        <ele>1860</ele>
        <time>2026-06-20T09:21:05.000Z</time>
        <extensions>
          <ns3:TrackPointExtension>
            <ns3:atemp>27.0</ns3:atemp>
          </ns3:TrackPointExtension>
        </extensions>
      </trkpt>
      <trkpt lat="42.5195308215916156768798828125" lon="20.1580045558512210845947265625">
        <ele>1860</ele>
        <time>2026-06-20T09:21:06.000Z</time>
        <extensions>
          <ns3:TrackPointExtension>
            <ns3:atemp>27.0</ns3:atemp>
          </ns3:TrackPointExtension>
        </extensions>
      </trkpt>
      <trkpt lat="42.5195308215916156768798828125" lon="20.1580045558512210845947265625">
        <ele>1860</ele>
        <time>2026-06-20T09:21:07.000Z</time>
        <extensions>
          <ns3:TrackPointExtension>
            <ns3:atemp>27.0</ns3:atemp>
          </ns3:TrackPointExtension>
        </extensions>
      </trkpt>
      <trkpt lat="42.5195308215916156768798828125" lon="20.1580045558512210845947265625">
        <ele>1860</ele>
        <time>2026-06-20T09:21:08.000Z</time>
        <extensions>
          <ns3:TrackPointExtension>
            <ns3:atemp>27.0</ns3:atemp>
          </ns3:TrackPointExtension>
        </extensions>
      </trkpt>
      <trkpt lat="42.5195308215916156768798828125" lon="20.1580045558512210845947265625">
        <ele>1860</ele>
        <time>2026-06-20T09:21:09.000Z</time>
        <extensions>
          <ns3:TrackPointExtension>
            <ns3:atemp>27.0</ns3:atemp>
          </ns3:TrackPointExtension>
        </extensions>
      </trkpt>
      <trkpt lat="42.5195308215916156768798828125" lon="20.1580045558512210845947265625">
        <ele>1860</ele>
        <time>2026-06-20T09:21:10.000Z</time>
        <extensions>
          <ns3:TrackPointExtension>
            <ns3:atemp>27.0</ns3:atemp>
          </ns3:TrackPointExtension>
        </extensions>
      </trkpt>
      <trkpt lat="42.5195308215916156768798828125" lon="20.1580045558512210845947265625">
        <ele>1860</ele>
        <time>2026-06-20T09:21:11.000Z</time>
        <extensions>
          <ns3:TrackPointExtension>
            <ns3:atemp>27.0</ns3:atemp>
          </ns3:TrackPointExtension>
        </extensions>
      </trkpt>
      <trkpt lat="42.5195308215916156768798828125" lon="20.1580045558512210845947265625">
        <ele>1860</ele>
        <time>2026-06-20T09:21:12.000Z</time>
        <extensions>
          <ns3:TrackPointExtension>
            <ns3:atemp>27.0</ns3:atemp>
          </ns3:TrackPointExtension>
        </extensions>
      </trkpt>
      <trkpt lat="42.5195308215916156768798828125" lon="20.1580045558512210845947265625">
        <ele>1860</ele>
        <time>2026-06-20T09:21:13.000Z</time>
        <extensions>
          <ns3:TrackPointExtension>
            <ns3:atemp>27.0</ns3:atemp>
          </ns3:TrackPointExtension>
        </extensions>
      </trkpt>
      <trkpt lat="42.5195308215916156768798828125" lon="20.1580045558512210845947265625">
        <ele>1860</ele>
        <time>2026-06-20T09:21:14.000Z</time>
        <extensions>
          <ns3:TrackPointExtension>
            <ns3:atemp>27.0</ns3:atemp>
          </ns3:TrackPointExtension>
        </extensions>
      </trkpt>
      <trkpt lat="42.5195308215916156768798828125" lon="20.1580045558512210845947265625">
        <ele>1860</ele>
        <time>2026-06-20T09:21:15.000Z</time>
        <extensions>
          <ns3:TrackPointExtension>
            <ns3:atemp>27.0</ns3:atemp>
          </ns3:TrackPointExtension>
        </extensions>
      </trkpt>
      <trkpt lat="42.5195308215916156768798828125" lon="20.1580045558512210845947265625">
        <ele>1860</ele>
        <time>2026-06-20T09:21:16.000Z</time>
        <extensions>
          <ns3:TrackPointExtension>
            <ns3:atemp>27.0</ns3:atemp>
          </ns3:TrackPointExtension>
        </extensions>
      </trkpt>
      <trkpt lat="42.5195308215916156768798828125" lon="20.1580045558512210845947265625">
        <ele>1860</ele>
        <time>2026-06-20T09:21:17.000Z</time>
        <extensions>
          <ns3:TrackPointExtension>
            <ns3:atemp>27.0</ns3:atemp>
          </ns3:TrackPointExtension>
        </extensions>
      </trkpt>
      <trkpt lat="42.5195308215916156768798828125" lon="20.1580045558512210845947265625">
        <ele>1860</ele>
        <time>2026-06-20T09:21:18.000Z</time>
        <extensions>
          <ns3:TrackPointExtension>
            <ns3:atemp>27.0</ns3:atemp>
          </ns3:TrackPointExtension>
        </extensions>
      </trkpt>
      <trkpt lat="42.5195308215916156768798828125" lon="20.1580045558512210845947265625">
        <ele>1860</ele>
        <time>2026-06-20T09:21:19.000Z</time>
        <extensions>
          <ns3:TrackPointExtension>
            <ns3:atemp>27.0</ns3:atemp>
          </ns3:TrackPointExtension>
        </extensions>
      </trkpt>
      <trkpt lat="42.5195308215916156768798828125" lon="20.1580045558512210845947265625">
        <ele>1860</ele>
        <time>2026-06-20T09:21:20.000Z</time>
        <extensions>
          <ns3:TrackPointExtension>
            <ns3:atemp>27.0</ns3:atemp>
          </ns3:TrackPointExtension>
        </extensions>
      </trkpt>
      <trkpt lat="42.5195308215916156768798828125" lon="20.1580045558512210845947265625">
        <ele>1860</ele>
        <time>2026-06-20T09:21:21.000Z</time>
        <extensions>
          <ns3:TrackPointExtension>
            <ns3:atemp>27.0</ns3:atemp>
          </ns3:TrackPointExtension>
        </extensions>
      </trkpt>
      <trkpt lat="42.5195308215916156768798828125" lon="20.1580045558512210845947265625">
        <ele>1860</ele>
        <time>2026-06-20T09:21:22.000Z</time>
        <extensions>
          <ns3:TrackPointExtension>
            <ns3:atemp>27.0</ns3:atemp>
          </ns3:TrackPointExtension>
        </extensions>
      </trkpt>
      <trkpt lat="42.5195308215916156768798828125" lon="20.1580045558512210845947265625">
        <ele>1860</ele>
        <time>2026-06-20T09:21:23.000Z</time>
        <extensions>
          <ns3:TrackPointExtension>
            <ns3:atemp>27.0</ns3:atemp>
          </ns3:TrackPointExtension>
        </extensions>
      </trkpt>
      <trkpt lat="42.5195308215916156768798828125" lon="20.1580045558512210845947265625">
        <ele>1860</ele>
        <time>2026-06-20T09:21:24.000Z</time>
        <extensions>
          <ns3:TrackPointExtension>
            <ns3:atemp>27.0</ns3:atemp>
          </ns3:TrackPointExtension>
        </extensions>
      </trkpt>
      <trkpt lat="42.5195308215916156768798828125" lon="20.1580045558512210845947265625">
        <ele>1860</ele>
        <time>2026-06-20T09:21:25.000Z</time>
        <extensions>
          <ns3:TrackPointExtension>
            <ns3:atemp>27.0</ns3:atemp>
          </ns3:TrackPointExtension>
        </extensions>
      </trkpt>
      <trkpt lat="42.5195308215916156768798828125" lon="20.1580045558512210845947265625">
        <ele>1860</ele>
        <time>2026-06-20T09:21:26.000Z</time>
        <extensions>
          <ns3:TrackPointExtension>
            <ns3:atemp>27.0</ns3:atemp>
          </ns3:TrackPointExtension>
        </extensions>
      </trkpt>
      <trkpt lat="42.5195308215916156768798828125" lon="20.1580045558512210845947265625">
        <ele>1860</ele>
        <time>2026-06-20T09:21:27.000Z</time>
        <extensions>
          <ns3:TrackPointExtension>
            <ns3:atemp>27.0</ns3:atemp>
          </ns3:TrackPointExtension>
        </extensions>
      </trkpt>
      <trkpt lat="42.5195308215916156768798828125" lon="20.1580045558512210845947265625">
        <ele>1860</ele>
        <time>2026-06-20T09:21:28.000Z</time>
        <extensions>
          <ns3:TrackPointExtension>
            <ns3:atemp>27.0</ns3:atemp>
          </ns3:TrackPointExtension>
        </extensions>
      </trkpt>
      <trkpt lat="42.5195308215916156768798828125" lon="20.1580045558512210845947265625">
        <ele>1860</ele>
        <time>2026-06-20T09:21:29.000Z</time>
        <extensions>
          <ns3:TrackPointExtension>
            <ns3:atemp>27.0</ns3:atemp>
          </ns3:TrackPointExtension>
        </extensions>
      </trkpt>
      <trkpt lat="42.5195308215916156768798828125" lon="20.1580045558512210845947265625">
        <ele>1860</ele>
        <time>2026-06-20T09:21:30.000Z</time>
        <extensions>
          <ns3:TrackPointExtension>
            <ns3:atemp>27.0</ns3:atemp>
          </ns3:TrackPointExtension>
        </extensions>
      </trkpt>
      <trkpt lat="42.5195308215916156768798828125" lon="20.1580045558512210845947265625">
        <ele>1860</ele>
        <time>2026-06-20T09:21:31.000Z</time>
        <extensions>
          <ns3:TrackPointExtension>
            <ns3:atemp>27.0</ns3:atemp>
          </ns3:TrackPointExtension>
        </extensions>
      </trkpt>
      <trkpt lat="42.5195308215916156768798828125" lon="20.1580045558512210845947265625">
        <ele>1860</ele>
        <time>2026-06-20T09:21:32.000Z</time>
        <extensions>
          <ns3:TrackPointExtension>
            <ns3:atemp>27.0</ns3:atemp>
          </ns3:TrackPointExtension>
        </extensions>
      </trkpt>
      <trkpt lat="42.5195308215916156768798828125" lon="20.1580045558512210845947265625">
        <ele>1860</ele>
        <time>2026-06-20T09:21:33.000Z</time>
        <extensions>
          <ns3:TrackPointExtension>
            <ns3:atemp>27.0</ns3:atemp>
          </ns3:TrackPointExtension>
        </extensions>
      </trkpt>
      <trkpt lat="42.5195308215916156768798828125" lon="20.1580045558512210845947265625">
        <ele>1860</ele>
        <time>2026-06-20T09:21:34.000Z</time>
        <extensions>
          <ns3:TrackPointExtension>
            <ns3:atemp>27.0</ns3:atemp>
          </ns3:TrackPointExtension>
        </extensions>
      </trkpt>
      <trkpt lat="42.5195308215916156768798828125" lon="20.1580045558512210845947265625">
        <ele>1860</ele>
        <time>2026-06-20T09:21:35.000Z</time>
        <extensions>
          <ns3:TrackPointExtension>
            <ns3:atemp>27.0</ns3:atemp>
          </ns3:TrackPointExtension>
        </extensions>
      </trkpt>
      <trkpt lat="42.5195308215916156768798828125" lon="20.1580045558512210845947265625">
        <ele>1860</ele>
        <time>2026-06-20T09:21:36.000Z</time>
        <extensions>
          <ns3:TrackPointExtension>
            <ns3:atemp>27.0</ns3:atemp>
          </ns3:TrackPointExtension>
        </extensions>
      </trkpt>
      <trkpt lat="42.5195308215916156768798828125" lon="20.1580045558512210845947265625">
        <ele>1860</ele>
        <time>2026-06-20T09:21:37.000Z</time>
        <extensions>
          <ns3:TrackPointExtension>
            <ns3:atemp>27.0</ns3:atemp>
          </ns3:TrackPointExtension>
        </extensions>
      </trkpt>
      <trkpt lat="42.5195308215916156768798828125" lon="20.1580045558512210845947265625">
        <ele>1860</ele>
        <time>2026-06-20T09:21:38.000Z</time>
        <extensions>
          <ns3:TrackPointExtension>
            <ns3:atemp>27.0</ns3:atemp>
          </ns3:TrackPointExtension>
        </extensions>
      </trkpt>
      <trkpt lat="42.5195308215916156768798828125" lon="20.1580045558512210845947265625">
        <ele>1860</ele>
        <time>2026-06-20T09:21:39.000Z</time>
        <extensions>
          <ns3:TrackPointExtension>
            <ns3:atemp>27.0</ns3:atemp>
          </ns3:TrackPointExtension>
        </extensions>
      </trkpt>
      <trkpt lat="42.5195308215916156768798828125" lon="20.1580045558512210845947265625">
        <ele>1860</ele>
        <time>2026-06-20T09:21:40.000Z</time>
        <extensions>
          <ns3:TrackPointExtension>
            <ns3:atemp>27.0</ns3:atemp>
          </ns3:TrackPointExtension>
        </extensions>
      </trkpt>
      <trkpt lat="42.5195308215916156768798828125" lon="20.1580045558512210845947265625">
        <ele>1860</ele>
        <time>2026-06-20T09:21:41.000Z</time>
        <extensions>
          <ns3:TrackPointExtension>
            <ns3:atemp>27.0</ns3:atemp>
          </ns3:TrackPointExtension>
        </extensions>
      </trkpt>
      <trkpt lat="42.5195308215916156768798828125" lon="20.1580045558512210845947265625">
        <ele>1860</ele>
        <time>2026-06-20T09:21:42.000Z</time>
        <extensions>
          <ns3:TrackPointExtension>
            <ns3:atemp>27.0</ns3:atemp>
          </ns3:TrackPointExtension>
        </extensions>
      </trkpt>
      <trkpt lat="42.5195308215916156768798828125" lon="20.1580045558512210845947265625">
        <ele>1860</ele>
        <time>2026-06-20T09:21:43.000Z</time>
        <extensions>
          <ns3:TrackPointExtension>
            <ns3:atemp>27.0</ns3:atemp>
          </ns3:TrackPointExtension>
        </extensions>
      </trkpt>
      <trkpt lat="42.5195308215916156768798828125" lon="20.1580045558512210845947265625">
        <ele>1860</ele>
        <time>2026-06-20T09:21:44.000Z</time>
        <extensions>
          <ns3:TrackPointExtension>
            <ns3:atemp>27.0</ns3:atemp>
          </ns3:TrackPointExtension>
        </extensions>
      </trkpt>
      <trkpt lat="42.5195308215916156768798828125" lon="20.1580045558512210845947265625">
        <ele>1860</ele>
        <time>2026-06-20T09:21:45.000Z</time>
        <extensions>
          <ns3:TrackPointExtension>
            <ns3:atemp>27.0</ns3:atemp>
          </ns3:TrackPointExtension>
        </extensions>
      </trkpt>
      <trkpt lat="42.5195308215916156768798828125" lon="20.1580045558512210845947265625">
        <ele>1860</ele>
        <time>2026-06-20T09:21:46.000Z</time>
        <extensions>
          <ns3:TrackPointExtension>
            <ns3:atemp>27.0</ns3:atemp>
          </ns3:TrackPointExtension>
        </extensions>
      </trkpt>
      <trkpt lat="42.5195308215916156768798828125" lon="20.1580045558512210845947265625">
        <ele>1860</ele>
        <time>2026-06-20T09:21:47.000Z</time>
        <extensions>
          <ns3:TrackPointExtension>
            <ns3:atemp>27.0</ns3:atemp>
          </ns3:TrackPointExtension>
        </extensions>
      </trkpt>
      <trkpt lat="42.5195308215916156768798828125" lon="20.1580045558512210845947265625">
        <ele>1860</ele>
        <time>2026-06-20T09:21:48.000Z</time>
        <extensions>
          <ns3:TrackPointExtension>
            <ns3:atemp>27.0</ns3:atemp>
          </ns3:TrackPointExtension>
        </extensions>
      </trkpt>
      <trkpt lat="42.5195308215916156768798828125" lon="20.1580045558512210845947265625">
        <ele>1860</ele>
        <time>2026-06-20T09:21:49.000Z</time>
        <extensions>
          <ns3:TrackPointExtension>
            <ns3:atemp>27.0</ns3:atemp>
          </ns3:TrackPointExtension>
        </extensions>
      </trkpt>
      <trkpt lat="42.5195308215916156768798828125" lon="20.1580045558512210845947265625">
        <ele>1860</ele>
        <time>2026-06-20T09:21:50.000Z</time>
        <extensions>
          <ns3:TrackPointExtension>
            <ns3:atemp>27.0</ns3:atemp>
          </ns3:TrackPointExtension>
        </extensions>
      </trkpt>
      <trkpt lat="42.5195308215916156768798828125" lon="20.1580045558512210845947265625">
        <ele>1860</ele>
        <time>2026-06-20T09:21:51.000Z</time>
        <extensions>
          <ns3:TrackPointExtension>
            <ns3:atemp>27.0</ns3:atemp>
          </ns3:TrackPointExtension>
        </extensions>
      </trkpt>
      <trkpt lat="42.5195308215916156768798828125" lon="20.1580045558512210845947265625">
        <ele>1860</ele>
        <time>2026-06-20T09:21:52.000Z</time>
        <extensions>
          <ns3:TrackPointExtension>
            <ns3:atemp>27.0</ns3:atemp>
          </ns3:TrackPointExtension>
        </extensions>
      </trkpt>
      <trkpt lat="42.5195308215916156768798828125" lon="20.1580045558512210845947265625">
        <ele>1860</ele>
        <time>2026-06-20T09:21:53.000Z</time>
        <extensions>
          <ns3:TrackPointExtension>
            <ns3:atemp>27.0</ns3:atemp>
          </ns3:TrackPointExtension>
        </extensions>
      </trkpt>
      <trkpt lat="42.5195308215916156768798828125" lon="20.1580045558512210845947265625">
        <ele>1860</ele>
        <time>2026-06-20T09:21:54.000Z</time>
        <extensions>
          <ns3:TrackPointExtension>
            <ns3:atemp>27.0</ns3:atemp>
          </ns3:TrackPointExtension>
        </extensions>
      </trkpt>
      <trkpt lat="42.5195308215916156768798828125" lon="20.1580045558512210845947265625">
        <ele>1860</ele>
        <time>2026-06-20T09:21:55.000Z</time>
        <extensions>
          <ns3:TrackPointExtension>
            <ns3:atemp>27.0</ns3:atemp>
          </ns3:TrackPointExtension>
        </extensions>
      </trkpt>
      <trkpt lat="42.5195308215916156768798828125" lon="20.1580045558512210845947265625">
        <ele>1860</ele>
        <time>2026-06-20T09:21:56.000Z</time>
        <extensions>
          <ns3:TrackPointExtension>
            <ns3:atemp>27.0</ns3:atemp>
          </ns3:TrackPointExtension>
        </extensions>
      </trkpt>
      <trkpt lat="42.5195308215916156768798828125" lon="20.1580045558512210845947265625">
        <ele>1860</ele>
        <time>2026-06-20T09:21:57.000Z</time>
        <extensions>
          <ns3:TrackPointExtension>
            <ns3:atemp>27.0</ns3:atemp>
          </ns3:TrackPointExtension>
        </extensions>
      </trkpt>
      <trkpt lat="42.5195308215916156768798828125" lon="20.1580045558512210845947265625">
        <ele>1860</ele>
        <time>2026-06-20T09:21:58.000Z</time>
        <extensions>
          <ns3:TrackPointExtension>
            <ns3:atemp>27.0</ns3:atemp>
          </ns3:TrackPointExtension>
        </extensions>
      </trkpt>
      <trkpt lat="42.5195308215916156768798828125" lon="20.1580045558512210845947265625">
        <ele>1860</ele>
        <time>2026-06-20T09:21:59.000Z</time>
        <extensions>
          <ns3:TrackPointExtension>
            <ns3:atemp>27.0</ns3:atemp>
          </ns3:TrackPointExtension>
        </extensions>
      </trkpt>
      <trkpt lat="42.5195308215916156768798828125" lon="20.1580045558512210845947265625">
        <ele>1860</ele>
        <time>2026-06-20T09:22:00.000Z</time>
        <extensions>
          <ns3:TrackPointExtension>
            <ns3:atemp>27.0</ns3:atemp>
          </ns3:TrackPointExtension>
        </extensions>
      </trkpt>
      <trkpt lat="42.5195308215916156768798828125" lon="20.1580045558512210845947265625">
        <ele>1860</ele>
        <time>2026-06-20T09:22:01.000Z</time>
        <extensions>
          <ns3:TrackPointExtension>
            <ns3:atemp>27.0</ns3:atemp>
          </ns3:TrackPointExtension>
        </extensions>
      </trkpt>
      <trkpt lat="42.5195308215916156768798828125" lon="20.1580045558512210845947265625">
        <ele>1860</ele>
        <time>2026-06-20T09:22:02.000Z</time>
        <extensions>
          <ns3:TrackPointExtension>
            <ns3:atemp>27.0</ns3:atemp>
          </ns3:TrackPointExtension>
        </extensions>
      </trkpt>
      <trkpt lat="42.5195308215916156768798828125" lon="20.1580045558512210845947265625">
        <ele>1860</ele>
        <time>2026-06-20T09:22:03.000Z</time>
        <extensions>
          <ns3:TrackPointExtension>
            <ns3:atemp>27.0</ns3:atemp>
          </ns3:TrackPointExtension>
        </extensions>
      </trkpt>
      <trkpt lat="42.5195308215916156768798828125" lon="20.1580045558512210845947265625">
        <ele>1860</ele>
        <time>2026-06-20T09:22:04.000Z</time>
        <extensions>
          <ns3:TrackPointExtension>
            <ns3:atemp>27.0</ns3:atemp>
          </ns3:TrackPointExtension>
        </extensions>
      </trkpt>
      <trkpt lat="42.5195308215916156768798828125" lon="20.1580045558512210845947265625">
        <ele>1860</ele>
        <time>2026-06-20T09:22:05.000Z</time>
        <extensions>
          <ns3:TrackPointExtension>
            <ns3:atemp>27.0</ns3:atemp>
          </ns3:TrackPointExtension>
        </extensions>
      </trkpt>
      <trkpt lat="42.5195308215916156768798828125" lon="20.1580045558512210845947265625">
        <ele>1860</ele>
        <time>2026-06-20T09:22:06.000Z</time>
        <extensions>
          <ns3:TrackPointExtension>
            <ns3:atemp>27.0</ns3:atemp>
          </ns3:TrackPointExtension>
        </extensions>
      </trkpt>
      <trkpt lat="42.5195308215916156768798828125" lon="20.1580045558512210845947265625">
        <ele>1860</ele>
        <time>2026-06-20T09:22:07.000Z</time>
        <extensions>
          <ns3:TrackPointExtension>
            <ns3:atemp>27.0</ns3:atemp>
          </ns3:TrackPointExtension>
        </extensions>
      </trkpt>
      <trkpt lat="42.5195308215916156768798828125" lon="20.1580045558512210845947265625">
        <ele>1860</ele>
        <time>2026-06-20T09:22:08.000Z</time>
        <extensions>
          <ns3:TrackPointExtension>
            <ns3:atemp>27.0</ns3:atemp>
          </ns3:TrackPointExtension>
        </extensions>
      </trkpt>
      <trkpt lat="42.5195308215916156768798828125" lon="20.1580045558512210845947265625">
        <ele>1860</ele>
        <time>2026-06-20T09:22:09.000Z</time>
        <extensions>
          <ns3:TrackPointExtension>
            <ns3:atemp>27.0</ns3:atemp>
          </ns3:TrackPointExtension>
        </extensions>
      </trkpt>
      <trkpt lat="42.5195308215916156768798828125" lon="20.1580045558512210845947265625">
        <ele>1860</ele>
        <time>2026-06-20T09:22:10.000Z</time>
        <extensions>
          <ns3:TrackPointExtension>
            <ns3:atemp>27.0</ns3:atemp>
          </ns3:TrackPointExtension>
        </extensions>
      </trkpt>
      <trkpt lat="42.5195308215916156768798828125" lon="20.1580045558512210845947265625">
        <ele>1860</ele>
        <time>2026-06-20T09:22:11.000Z</time>
        <extensions>
          <ns3:TrackPointExtension>
            <ns3:atemp>27.0</ns3:atemp>
          </ns3:TrackPointExtension>
        </extensions>
      </trkpt>
      <trkpt lat="42.5195308215916156768798828125" lon="20.1580045558512210845947265625">
        <ele>1860</ele>
        <time>2026-06-20T09:22:12.000Z</time>
        <extensions>
          <ns3:TrackPointExtension>
            <ns3:atemp>27.0</ns3:atemp>
          </ns3:TrackPointExtension>
        </extensions>
      </trkpt>
      <trkpt lat="42.5195308215916156768798828125" lon="20.1580045558512210845947265625">
        <ele>1860</ele>
        <time>2026-06-20T09:22:13.000Z</time>
        <extensions>
          <ns3:TrackPointExtension>
            <ns3:atemp>27.0</ns3:atemp>
          </ns3:TrackPointExtension>
        </extensions>
      </trkpt>
      <trkpt lat="42.5195308215916156768798828125" lon="20.1580045558512210845947265625">
        <ele>1860</ele>
        <time>2026-06-20T09:22:14.000Z</time>
        <extensions>
          <ns3:TrackPointExtension>
            <ns3:atemp>27.0</ns3:atemp>
          </ns3:TrackPointExtension>
        </extensions>
      </trkpt>
      <trkpt lat="42.5195308215916156768798828125" lon="20.1580045558512210845947265625">
        <ele>1860</ele>
        <time>2026-06-20T09:22:15.000Z</time>
        <extensions>
          <ns3:TrackPointExtension>
            <ns3:atemp>27.0</ns3:atemp>
          </ns3:TrackPointExtension>
        </extensions>
      </trkpt>
      <trkpt lat="42.5195308215916156768798828125" lon="20.1580045558512210845947265625">
        <ele>1860</ele>
        <time>2026-06-20T09:22:16.000Z</time>
        <extensions>
          <ns3:TrackPointExtension>
            <ns3:atemp>27.0</ns3:atemp>
          </ns3:TrackPointExtension>
        </extensions>
      </trkpt>
      <trkpt lat="42.5195308215916156768798828125" lon="20.1580045558512210845947265625">
        <ele>1860</ele>
        <time>2026-06-20T09:22:17.000Z</time>
        <extensions>
          <ns3:TrackPointExtension>
            <ns3:atemp>27.0</ns3:atemp>
          </ns3:TrackPointExtension>
        </extensions>
      </trkpt>
      <trkpt lat="42.5195308215916156768798828125" lon="20.1580045558512210845947265625">
        <ele>1860</ele>
        <time>2026-06-20T09:22:18.000Z</time>
        <extensions>
          <ns3:TrackPointExtension>
            <ns3:atemp>27.0</ns3:atemp>
          </ns3:TrackPointExtension>
        </extensions>
      </trkpt>
      <trkpt lat="42.5195308215916156768798828125" lon="20.1580045558512210845947265625">
        <ele>1860</ele>
        <time>2026-06-20T09:22:19.000Z</time>
        <extensions>
          <ns3:TrackPointExtension>
            <ns3:atemp>27.0</ns3:atemp>
          </ns3:TrackPointExtension>
        </extensions>
      </trkpt>
      <trkpt lat="42.5195308215916156768798828125" lon="20.1580045558512210845947265625">
        <ele>1860</ele>
        <time>2026-06-20T09:22:20.000Z</time>
        <extensions>
          <ns3:TrackPointExtension>
            <ns3:atemp>27.0</ns3:atemp>
          </ns3:TrackPointExtension>
        </extensions>
      </trkpt>
      <trkpt lat="42.5195308215916156768798828125" lon="20.1580045558512210845947265625">
        <ele>1860</ele>
        <time>2026-06-20T09:22:21.000Z</time>
        <extensions>
          <ns3:TrackPointExtension>
            <ns3:atemp>27.0</ns3:atemp>
          </ns3:TrackPointExtension>
        </extensions>
      </trkpt>
      <trkpt lat="42.5195308215916156768798828125" lon="20.1580045558512210845947265625">
        <ele>1860</ele>
        <time>2026-06-20T09:22:22.000Z</time>
        <extensions>
          <ns3:TrackPointExtension>
            <ns3:atemp>27.0</ns3:atemp>
          </ns3:TrackPointExtension>
        </extensions>
      </trkpt>
      <trkpt lat="42.5195308215916156768798828125" lon="20.1580045558512210845947265625">
        <ele>1860</ele>
        <time>2026-06-20T09:22:23.000Z</time>
        <extensions>
          <ns3:TrackPointExtension>
            <ns3:atemp>27.0</ns3:atemp>
          </ns3:TrackPointExtension>
        </extensions>
      </trkpt>
      <trkpt lat="42.5195308215916156768798828125" lon="20.1580045558512210845947265625">
        <ele>1860</ele>
        <time>2026-06-20T09:22:24.000Z</time>
        <extensions>
          <ns3:TrackPointExtension>
            <ns3:atemp>27.0</ns3:atemp>
          </ns3:TrackPointExtension>
        </extensions>
      </trkpt>
      <trkpt lat="42.5195308215916156768798828125" lon="20.1580045558512210845947265625">
        <ele>1860</ele>
        <time>2026-06-20T09:22:25.000Z</time>
        <extensions>
          <ns3:TrackPointExtension>
            <ns3:atemp>27.0</ns3:atemp>
          </ns3:TrackPointExtension>
        </extensions>
      </trkpt>
      <trkpt lat="42.5195308215916156768798828125" lon="20.1580045558512210845947265625">
        <ele>1860</ele>
        <time>2026-06-20T09:22:26.000Z</time>
        <extensions>
          <ns3:TrackPointExtension>
            <ns3:atemp>27.0</ns3:atemp>
          </ns3:TrackPointExtension>
        </extensions>
      </trkpt>
      <trkpt lat="42.5195308215916156768798828125" lon="20.1580045558512210845947265625">
        <ele>1860</ele>
        <time>2026-06-20T09:22:27.000Z</time>
        <extensions>
          <ns3:TrackPointExtension>
            <ns3:atemp>27.0</ns3:atemp>
          </ns3:TrackPointExtension>
        </extensions>
      </trkpt>
      <trkpt lat="42.5195308215916156768798828125" lon="20.1580045558512210845947265625">
        <ele>1860</ele>
        <time>2026-06-20T09:22:28.000Z</time>
        <extensions>
          <ns3:TrackPointExtension>
            <ns3:atemp>27.0</ns3:atemp>
          </ns3:TrackPointExtension>
        </extensions>
      </trkpt>
      <trkpt lat="42.5195308215916156768798828125" lon="20.1580045558512210845947265625">
        <ele>1860</ele>
        <time>2026-06-20T09:22:29.000Z</time>
        <extensions>
          <ns3:TrackPointExtension>
            <ns3:atemp>27.0</ns3:atemp>
          </ns3:TrackPointExtension>
        </extensions>
      </trkpt>
      <trkpt lat="42.5195308215916156768798828125" lon="20.1580045558512210845947265625">
        <ele>1860</ele>
        <time>2026-06-20T09:22:30.000Z</time>
        <extensions>
          <ns3:TrackPointExtension>
            <ns3:atemp>27.0</ns3:atemp>
          </ns3:TrackPointExtension>
        </extensions>
      </trkpt>
      <trkpt lat="42.5195308215916156768798828125" lon="20.1580045558512210845947265625">
        <ele>1860</ele>
        <time>2026-06-20T09:22:31.000Z</time>
        <extensions>
          <ns3:TrackPointExtension>
            <ns3:atemp>27.0</ns3:atemp>
          </ns3:TrackPointExtension>
        </extensions>
      </trkpt>
      <trkpt lat="42.5195308215916156768798828125" lon="20.1580045558512210845947265625">
        <ele>1860</ele>
        <time>2026-06-20T09:22:32.000Z</time>
        <extensions>
          <ns3:TrackPointExtension>
            <ns3:atemp>27.0</ns3:atemp>
          </ns3:TrackPointExtension>
        </extensions>
      </trkpt>
      <trkpt lat="42.5195308215916156768798828125" lon="20.1580045558512210845947265625">
        <ele>1860</ele>
        <time>2026-06-20T09:22:33.000Z</time>
        <extensions>
          <ns3:TrackPointExtension>
            <ns3:atemp>27.0</ns3:atemp>
          </ns3:TrackPointExtension>
        </extensions>
      </trkpt>
      <trkpt lat="42.5195308215916156768798828125" lon="20.1580045558512210845947265625">
        <ele>1860</ele>
        <time>2026-06-20T09:22:34.000Z</time>
        <extensions>
          <ns3:TrackPointExtension>
            <ns3:atemp>27.0</ns3:atemp>
          </ns3:TrackPointExtension>
        </extensions>
      </trkpt>
      <trkpt lat="42.5195308215916156768798828125" lon="20.1580045558512210845947265625">
        <ele>1860</ele>
        <time>2026-06-20T09:22:35.000Z</time>
        <extensions>
          <ns3:TrackPointExtension>
            <ns3:atemp>27.0</ns3:atemp>
          </ns3:TrackPointExtension>
        </extensions>
      </trkpt>
      <trkpt lat="42.5195308215916156768798828125" lon="20.1580045558512210845947265625">
        <ele>1860</ele>
        <time>2026-06-20T09:22:36.000Z</time>
        <extensions>
          <ns3:TrackPointExtension>
            <ns3:atemp>27.0</ns3:atemp>
          </ns3:TrackPointExtension>
        </extensions>
      </trkpt>
      <trkpt lat="42.5195308215916156768798828125" lon="20.1580045558512210845947265625">
        <ele>1860</ele>
        <time>2026-06-20T09:22:37.000Z</time>
        <extensions>
          <ns3:TrackPointExtension>
            <ns3:atemp>27.0</ns3:atemp>
          </ns3:TrackPointExtension>
        </extensions>
      </trkpt>
      <trkpt lat="42.5195308215916156768798828125" lon="20.1580045558512210845947265625">
        <ele>1860</ele>
        <time>2026-06-20T09:22:38.000Z</time>
        <extensions>
          <ns3:TrackPointExtension>
            <ns3:atemp>27.0</ns3:atemp>
          </ns3:TrackPointExtension>
        </extensions>
      </trkpt>
      <trkpt lat="42.5195308215916156768798828125" lon="20.1580045558512210845947265625">
        <ele>1860</ele>
        <time>2026-06-20T09:22:39.000Z</time>
        <extensions>
          <ns3:TrackPointExtension>
            <ns3:atemp>27.0</ns3:atemp>
          </ns3:TrackPointExtension>
        </extensions>
      </trkpt>
      <trkpt lat="42.5195308215916156768798828125" lon="20.1580045558512210845947265625">
        <ele>1860</ele>
        <time>2026-06-20T09:22:40.000Z</time>
        <extensions>
          <ns3:TrackPointExtension>
            <ns3:atemp>27.0</ns3:atemp>
          </ns3:TrackPointExtension>
        </extensions>
      </trkpt>
      <trkpt lat="42.5195308215916156768798828125" lon="20.1580045558512210845947265625">
        <ele>1860</ele>
        <time>2026-06-20T09:22:41.000Z</time>
        <extensions>
          <ns3:TrackPointExtension>
            <ns3:atemp>27.0</ns3:atemp>
          </ns3:TrackPointExtension>
        </extensions>
      </trkpt>
      <trkpt lat="42.5195308215916156768798828125" lon="20.1580045558512210845947265625">
        <ele>1860</ele>
        <time>2026-06-20T09:22:42.000Z</time>
        <extensions>
          <ns3:TrackPointExtension>
            <ns3:atemp>27.0</ns3:atemp>
          </ns3:TrackPointExtension>
        </extensions>
      </trkpt>
      <trkpt lat="42.5195308215916156768798828125" lon="20.1580045558512210845947265625">
        <ele>1860</ele>
        <time>2026-06-20T09:22:43.000Z</time>
        <extensions>
          <ns3:TrackPointExtension>
            <ns3:atemp>27.0</ns3:atemp>
          </ns3:TrackPointExtension>
        </extensions>
      </trkpt>
      <trkpt lat="42.5195308215916156768798828125" lon="20.1580045558512210845947265625">
        <ele>1860</ele>
        <time>2026-06-20T09:22:44.000Z</time>
        <extensions>
          <ns3:TrackPointExtension>
            <ns3:atemp>27.0</ns3:atemp>
          </ns3:TrackPointExtension>
        </extensions>
      </trkpt>
      <trkpt lat="42.5195308215916156768798828125" lon="20.1580045558512210845947265625">
        <ele>1860</ele>
        <time>2026-06-20T09:22:45.000Z</time>
        <extensions>
          <ns3:TrackPointExtension>
            <ns3:atemp>27.0</ns3:atemp>
          </ns3:TrackPointExtension>
        </extensions>
      </trkpt>
      <trkpt lat="42.5195308215916156768798828125" lon="20.1580045558512210845947265625">
        <ele>1860</ele>
        <time>2026-06-20T09:22:46.000Z</time>
        <extensions>
          <ns3:TrackPointExtension>
            <ns3:atemp>27.0</ns3:atemp>
          </ns3:TrackPointExtension>
        </extensions>
      </trkpt>
      <trkpt lat="42.5195308215916156768798828125" lon="20.1580045558512210845947265625">
        <ele>1860</ele>
        <time>2026-06-20T09:22:47.000Z</time>
        <extensions>
          <ns3:TrackPointExtension>
            <ns3:atemp>27.0</ns3:atemp>
          </ns3:TrackPointExtension>
        </extensions>
      </trkpt>
      <trkpt lat="42.5195308215916156768798828125" lon="20.1580045558512210845947265625">
        <ele>1860</ele>
        <time>2026-06-20T09:22:48.000Z</time>
        <extensions>
          <ns3:TrackPointExtension>
            <ns3:atemp>27.0</ns3:atemp>
          </ns3:TrackPointExtension>
        </extensions>
      </trkpt>
      <trkpt lat="42.5195308215916156768798828125" lon="20.1580045558512210845947265625">
        <ele>1860</ele>
        <time>2026-06-20T09:22:49.000Z</time>
        <extensions>
          <ns3:TrackPointExtension>
            <ns3:atemp>27.0</ns3:atemp>
          </ns3:TrackPointExtension>
        </extensions>
      </trkpt>
      <trkpt lat="42.5195308215916156768798828125" lon="20.1580045558512210845947265625">
        <ele>1860</ele>
        <time>2026-06-20T09:22:50.000Z</time>
        <extensions>
          <ns3:TrackPointExtension>
            <ns3:atemp>27.0</ns3:atemp>
          </ns3:TrackPointExtension>
        </extensions>
      </trkpt>
      <trkpt lat="42.5195308215916156768798828125" lon="20.1580045558512210845947265625">
        <ele>1860</ele>
        <time>2026-06-20T09:22:51.000Z</time>
        <extensions>
          <ns3:TrackPointExtension>
            <ns3:atemp>27.0</ns3:atemp>
          </ns3:TrackPointExtension>
        </extensions>
      </trkpt>
      <trkpt lat="42.5195308215916156768798828125" lon="20.1580045558512210845947265625">
        <ele>1860</ele>
        <time>2026-06-20T09:22:52.000Z</time>
        <extensions>
          <ns3:TrackPointExtension>
            <ns3:atemp>27.0</ns3:atemp>
          </ns3:TrackPointExtension>
        </extensions>
      </trkpt>
      <trkpt lat="42.5195308215916156768798828125" lon="20.1580045558512210845947265625">
        <ele>1860</ele>
        <time>2026-06-20T09:22:53.000Z</time>
        <extensions>
          <ns3:TrackPointExtension>
            <ns3:atemp>27.0</ns3:atemp>
          </ns3:TrackPointExtension>
        </extensions>
      </trkpt>
      <trkpt lat="42.5195308215916156768798828125" lon="20.1580045558512210845947265625">
        <ele>1860</ele>
        <time>2026-06-20T09:22:54.000Z</time>
        <extensions>
          <ns3:TrackPointExtension>
            <ns3:atemp>27.0</ns3:atemp>
          </ns3:TrackPointExtension>
        </extensions>
      </trkpt>
      <trkpt lat="42.5195308215916156768798828125" lon="20.1580045558512210845947265625">
        <ele>1860</ele>
        <time>2026-06-20T09:22:55.000Z</time>
        <extensions>
          <ns3:TrackPointExtension>
            <ns3:atemp>27.0</ns3:atemp>
          </ns3:TrackPointExtension>
        </extensions>
      </trkpt>
      <trkpt lat="42.5195308215916156768798828125" lon="20.1580045558512210845947265625">
        <ele>1860</ele>
        <time>2026-06-20T09:22:56.000Z</time>
        <extensions>
          <ns3:TrackPointExtension>
            <ns3:atemp>27.0</ns3:atemp>
          </ns3:TrackPointExtension>
        </extensions>
      </trkpt>
      <trkpt lat="42.5195308215916156768798828125" lon="20.1580045558512210845947265625">
        <ele>1860</ele>
        <time>2026-06-20T09:22:57.000Z</time>
        <extensions>
          <ns3:TrackPointExtension>
            <ns3:atemp>27.0</ns3:atemp>
          </ns3:TrackPointExtension>
        </extensions>
      </trkpt>
      <trkpt lat="42.5195308215916156768798828125" lon="20.1580045558512210845947265625">
        <ele>1860</ele>
        <time>2026-06-20T09:22:58.000Z</time>
        <extensions>
          <ns3:TrackPointExtension>
            <ns3:atemp>27.0</ns3:atemp>
          </ns3:TrackPointExtension>
        </extensions>
      </trkpt>
      <trkpt lat="42.5195308215916156768798828125" lon="20.1580045558512210845947265625">
        <ele>1860</ele>
        <time>2026-06-20T09:22:59.000Z</time>
        <extensions>
          <ns3:TrackPointExtension>
            <ns3:atemp>27.0</ns3:atemp>
          </ns3:TrackPointExtension>
        </extensions>
      </trkpt>
      <trkpt lat="42.5195308215916156768798828125" lon="20.1580045558512210845947265625">
        <ele>1860</ele>
        <time>2026-06-20T09:23:00.000Z</time>
        <extensions>
          <ns3:TrackPointExtension>
            <ns3:atemp>27.0</ns3:atemp>
          </ns3:TrackPointExtension>
        </extensions>
      </trkpt>
      <trkpt lat="42.5195308215916156768798828125" lon="20.1580045558512210845947265625">
        <ele>1860</ele>
        <time>2026-06-20T09:23:01.000Z</time>
        <extensions>
          <ns3:TrackPointExtension>
            <ns3:atemp>27.0</ns3:atemp>
          </ns3:TrackPointExtension>
        </extensions>
      </trkpt>
      <trkpt lat="42.5195308215916156768798828125" lon="20.1580045558512210845947265625">
        <ele>1860</ele>
        <time>2026-06-20T09:23:02.000Z</time>
        <extensions>
          <ns3:TrackPointExtension>
            <ns3:atemp>27.0</ns3:atemp>
          </ns3:TrackPointExtension>
        </extensions>
      </trkpt>
      <trkpt lat="42.5195308215916156768798828125" lon="20.1580045558512210845947265625">
        <ele>1860</ele>
        <time>2026-06-20T09:23:03.000Z</time>
        <extensions>
          <ns3:TrackPointExtension>
            <ns3:atemp>27.0</ns3:atemp>
          </ns3:TrackPointExtension>
        </extensions>
      </trkpt>
      <trkpt lat="42.5195308215916156768798828125" lon="20.1580045558512210845947265625">
        <ele>1860</ele>
        <time>2026-06-20T09:23:04.000Z</time>
        <extensions>
          <ns3:TrackPointExtension>
            <ns3:atemp>27.0</ns3:atemp>
          </ns3:TrackPointExtension>
        </extensions>
      </trkpt>
      <trkpt lat="42.5195308215916156768798828125" lon="20.1580045558512210845947265625">
        <ele>1860</ele>
        <time>2026-06-20T09:23:05.000Z</time>
        <extensions>
          <ns3:TrackPointExtension>
            <ns3:atemp>27.0</ns3:atemp>
          </ns3:TrackPointExtension>
        </extensions>
      </trkpt>
      <trkpt lat="42.5195308215916156768798828125" lon="20.1580045558512210845947265625">
        <ele>1860</ele>
        <time>2026-06-20T09:23:06.000Z</time>
        <extensions>
          <ns3:TrackPointExtension>
            <ns3:atemp>27.0</ns3:atemp>
          </ns3:TrackPointExtension>
        </extensions>
      </trkpt>
      <trkpt lat="42.5195308215916156768798828125" lon="20.1580045558512210845947265625">
        <ele>1860</ele>
        <time>2026-06-20T09:23:07.000Z</time>
        <extensions>
          <ns3:TrackPointExtension>
            <ns3:atemp>27.0</ns3:atemp>
          </ns3:TrackPointExtension>
        </extensions>
      </trkpt>
      <trkpt lat="42.5195308215916156768798828125" lon="20.1580045558512210845947265625">
        <ele>1860</ele>
        <time>2026-06-20T09:23:08.000Z</time>
        <extensions>
          <ns3:TrackPointExtension>
            <ns3:atemp>27.0</ns3:atemp>
          </ns3:TrackPointExtension>
        </extensions>
      </trkpt>
      <trkpt lat="42.5195308215916156768798828125" lon="20.1580045558512210845947265625">
        <ele>1860</ele>
        <time>2026-06-20T09:23:09.000Z</time>
        <extensions>
          <ns3:TrackPointExtension>
            <ns3:atemp>27.0</ns3:atemp>
          </ns3:TrackPointExtension>
        </extensions>
      </trkpt>
      <trkpt lat="42.5195308215916156768798828125" lon="20.1580045558512210845947265625">
        <ele>1860</ele>
        <time>2026-06-20T09:23:10.000Z</time>
        <extensions>
          <ns3:TrackPointExtension>
            <ns3:atemp>27.0</ns3:atemp>
          </ns3:TrackPointExtension>
        </extensions>
      </trkpt>
      <trkpt lat="42.5195308215916156768798828125" lon="20.1580045558512210845947265625">
        <ele>1860</ele>
        <time>2026-06-20T09:23:11.000Z</time>
        <extensions>
          <ns3:TrackPointExtension>
            <ns3:atemp>27.0</ns3:atemp>
          </ns3:TrackPointExtension>
        </extensions>
      </trkpt>
      <trkpt lat="42.5195308215916156768798828125" lon="20.1580045558512210845947265625">
        <ele>1860</ele>
        <time>2026-06-20T09:23:12.000Z</time>
        <extensions>
          <ns3:TrackPointExtension>
            <ns3:atemp>27.0</ns3:atemp>
          </ns3:TrackPointExtension>
        </extensions>
      </trkpt>
      <trkpt lat="42.5195308215916156768798828125" lon="20.1580045558512210845947265625">
        <ele>1860</ele>
        <time>2026-06-20T09:23:13.000Z</time>
        <extensions>
          <ns3:TrackPointExtension>
            <ns3:atemp>27.0</ns3:atemp>
          </ns3:TrackPointExtension>
        </extensions>
      </trkpt>
      <trkpt lat="42.5195308215916156768798828125" lon="20.1580045558512210845947265625">
        <ele>1860</ele>
        <time>2026-06-20T09:23:14.000Z</time>
        <extensions>
          <ns3:TrackPointExtension>
            <ns3:atemp>27.0</ns3:atemp>
          </ns3:TrackPointExtension>
        </extensions>
      </trkpt>
      <trkpt lat="42.5195308215916156768798828125" lon="20.1580045558512210845947265625">
        <ele>1860</ele>
        <time>2026-06-20T09:23:15.000Z</time>
        <extensions>
          <ns3:TrackPointExtension>
            <ns3:atemp>27.0</ns3:atemp>
          </ns3:TrackPointExtension>
        </extensions>
      </trkpt>
      <trkpt lat="42.5195308215916156768798828125" lon="20.1580045558512210845947265625">
        <ele>1860</ele>
        <time>2026-06-20T09:23:16.000Z</time>
        <extensions>
          <ns3:TrackPointExtension>
            <ns3:atemp>27.0</ns3:atemp>
          </ns3:TrackPointExtension>
        </extensions>
      </trkpt>
      <trkpt lat="42.5195308215916156768798828125" lon="20.1580045558512210845947265625">
        <ele>1860</ele>
        <time>2026-06-20T09:23:17.000Z</time>
        <extensions>
          <ns3:TrackPointExtension>
            <ns3:atemp>27.0</ns3:atemp>
          </ns3:TrackPointExtension>
        </extensions>
      </trkpt>
      <trkpt lat="42.5195308215916156768798828125" lon="20.1580045558512210845947265625">
        <ele>1860</ele>
        <time>2026-06-20T09:23:18.000Z</time>
        <extensions>
          <ns3:TrackPointExtension>
            <ns3:atemp>27.0</ns3:atemp>
          </ns3:TrackPointExtension>
        </extensions>
      </trkpt>
      <trkpt lat="42.5195308215916156768798828125" lon="20.1580045558512210845947265625">
        <ele>1860</ele>
        <time>2026-06-20T09:23:19.000Z</time>
        <extensions>
          <ns3:TrackPointExtension>
            <ns3:atemp>27.0</ns3:atemp>
          </ns3:TrackPointExtension>
        </extensions>
      </trkpt>
      <trkpt lat="42.5195308215916156768798828125" lon="20.1580045558512210845947265625">
        <ele>1860</ele>
        <time>2026-06-20T09:23:20.000Z</time>
        <extensions>
          <ns3:TrackPointExtension>
            <ns3:atemp>27.0</ns3:atemp>
          </ns3:TrackPointExtension>
        </extensions>
      </trkpt>
      <trkpt lat="42.5195308215916156768798828125" lon="20.1580045558512210845947265625">
        <ele>1860</ele>
        <time>2026-06-20T09:23:21.000Z</time>
        <extensions>
          <ns3:TrackPointExtension>
            <ns3:atemp>27.0</ns3:atemp>
          </ns3:TrackPointExtension>
        </extensions>
      </trkpt>
      <trkpt lat="42.5195308215916156768798828125" lon="20.1580045558512210845947265625">
        <ele>1860</ele>
        <time>2026-06-20T09:23:22.000Z</time>
        <extensions>
          <ns3:TrackPointExtension>
            <ns3:atemp>27.0</ns3:atemp>
          </ns3:TrackPointExtension>
        </extensions>
      </trkpt>
      <trkpt lat="42.5195308215916156768798828125" lon="20.1580045558512210845947265625">
        <ele>1860</ele>
        <time>2026-06-20T09:23:23.000Z</time>
        <extensions>
          <ns3:TrackPointExtension>
            <ns3:atemp>27.0</ns3:atemp>
          </ns3:TrackPointExtension>
        </extensions>
      </trkpt>
      <trkpt lat="42.5195308215916156768798828125" lon="20.1580045558512210845947265625">
        <ele>1860</ele>
        <time>2026-06-20T09:23:24.000Z</time>
        <extensions>
          <ns3:TrackPointExtension>
            <ns3:atemp>27.0</ns3:atemp>
          </ns3:TrackPointExtension>
        </extensions>
      </trkpt>
      <trkpt lat="42.5195308215916156768798828125" lon="20.1580045558512210845947265625">
        <ele>1860</ele>
        <time>2026-06-20T09:23:25.000Z</time>
        <extensions>
          <ns3:TrackPointExtension>
            <ns3:atemp>27.0</ns3:atemp>
          </ns3:TrackPointExtension>
        </extensions>
      </trkpt>
      <trkpt lat="42.5195308215916156768798828125" lon="20.1580045558512210845947265625">
        <ele>1860</ele>
        <time>2026-06-20T09:23:26.000Z</time>
        <extensions>
          <ns3:TrackPointExtension>
            <ns3:atemp>27.0</ns3:atemp>
          </ns3:TrackPointExtension>
        </extensions>
      </trkpt>
      <trkpt lat="42.5195308215916156768798828125" lon="20.1580045558512210845947265625">
        <ele>1860</ele>
        <time>2026-06-20T09:23:27.000Z</time>
        <extensions>
          <ns3:TrackPointExtension>
            <ns3:atemp>27.0</ns3:atemp>
          </ns3:TrackPointExtension>
        </extensions>
      </trkpt>
      <trkpt lat="42.5195308215916156768798828125" lon="20.1580045558512210845947265625">
        <ele>1860</ele>
        <time>2026-06-20T09:23:28.000Z</time>
        <extensions>
          <ns3:TrackPointExtension>
            <ns3:atemp>27.0</ns3:atemp>
          </ns3:TrackPointExtension>
        </extensions>
      </trkpt>
      <trkpt lat="42.5195308215916156768798828125" lon="20.1580045558512210845947265625">
        <ele>1860</ele>
        <time>2026-06-20T09:23:29.000Z</time>
        <extensions>
          <ns3:TrackPointExtension>
            <ns3:atemp>27.0</ns3:atemp>
          </ns3:TrackPointExtension>
        </extensions>
      </trkpt>
      <trkpt lat="42.5195308215916156768798828125" lon="20.1580045558512210845947265625">
        <ele>1860</ele>
        <time>2026-06-20T09:23:30.000Z</time>
        <extensions>
          <ns3:TrackPointExtension>
            <ns3:atemp>27.0</ns3:atemp>
          </ns3:TrackPointExtension>
        </extensions>
      </trkpt>
      <trkpt lat="42.5195308215916156768798828125" lon="20.1580045558512210845947265625">
        <ele>1860</ele>
        <time>2026-06-20T09:23:31.000Z</time>
        <extensions>
          <ns3:TrackPointExtension>
            <ns3:atemp>27.0</ns3:atemp>
          </ns3:TrackPointExtension>
        </extensions>
      </trkpt>
      <trkpt lat="42.5195308215916156768798828125" lon="20.1580045558512210845947265625">
        <ele>1860</ele>
        <time>2026-06-20T09:23:32.000Z</time>
        <extensions>
          <ns3:TrackPointExtension>
            <ns3:atemp>27.0</ns3:atemp>
          </ns3:TrackPointExtension>
        </extensions>
      </trkpt>
      <trkpt lat="42.5195308215916156768798828125" lon="20.1580045558512210845947265625">
        <ele>1860</ele>
        <time>2026-06-20T09:23:33.000Z</time>
        <extensions>
          <ns3:TrackPointExtension>
            <ns3:atemp>27.0</ns3:atemp>
          </ns3:TrackPointExtension>
        </extensions>
      </trkpt>
      <trkpt lat="42.5195308215916156768798828125" lon="20.1580045558512210845947265625">
        <ele>1860</ele>
        <time>2026-06-20T09:23:34.000Z</time>
        <extensions>
          <ns3:TrackPointExtension>
            <ns3:atemp>27.0</ns3:atemp>
          </ns3:TrackPointExtension>
        </extensions>
      </trkpt>
      <trkpt lat="42.5195308215916156768798828125" lon="20.1580045558512210845947265625">
        <ele>1860</ele>
        <time>2026-06-20T09:23:35.000Z</time>
        <extensions>
          <ns3:TrackPointExtension>
            <ns3:atemp>27.0</ns3:atemp>
          </ns3:TrackPointExtension>
        </extensions>
      </trkpt>
      <trkpt lat="42.5195308215916156768798828125" lon="20.1580045558512210845947265625">
        <ele>1860</ele>
        <time>2026-06-20T09:23:36.000Z</time>
        <extensions>
          <ns3:TrackPointExtension>
            <ns3:atemp>27.0</ns3:atemp>
          </ns3:TrackPointExtension>
        </extensions>
      </trkpt>
      <trkpt lat="42.5195308215916156768798828125" lon="20.1580045558512210845947265625">
        <ele>1860</ele>
        <time>2026-06-20T09:23:37.000Z</time>
        <extensions>
          <ns3:TrackPointExtension>
            <ns3:atemp>27.0</ns3:atemp>
          </ns3:TrackPointExtension>
        </extensions>
      </trkpt>
      <trkpt lat="42.5195308215916156768798828125" lon="20.1580045558512210845947265625">
        <ele>1860</ele>
        <time>2026-06-20T09:23:38.000Z</time>
        <extensions>
          <ns3:TrackPointExtension>
            <ns3:atemp>27.0</ns3:atemp>
          </ns3:TrackPointExtension>
        </extensions>
      </trkpt>
      <trkpt lat="42.5195308215916156768798828125" lon="20.1580045558512210845947265625">
        <ele>1860</ele>
        <time>2026-06-20T09:23:39.000Z</time>
        <extensions>
          <ns3:TrackPointExtension>
            <ns3:atemp>27.0</ns3:atemp>
          </ns3:TrackPointExtension>
        </extensions>
      </trkpt>
      <trkpt lat="42.5195308215916156768798828125" lon="20.1580045558512210845947265625">
        <ele>1860</ele>
        <time>2026-06-20T09:23:40.000Z</time>
        <extensions>
          <ns3:TrackPointExtension>
            <ns3:atemp>27.0</ns3:atemp>
          </ns3:TrackPointExtension>
        </extensions>
      </trkpt>
      <trkpt lat="42.5195308215916156768798828125" lon="20.1580045558512210845947265625">
        <ele>1860</ele>
        <time>2026-06-20T09:23:41.000Z</time>
        <extensions>
          <ns3:TrackPointExtension>
            <ns3:atemp>27.0</ns3:atemp>
          </ns3:TrackPointExtension>
        </extensions>
      </trkpt>
      <trkpt lat="42.5195308215916156768798828125" lon="20.1580045558512210845947265625">
        <ele>1860</ele>
        <time>2026-06-20T09:23:42.000Z</time>
        <extensions>
          <ns3:TrackPointExtension>
            <ns3:atemp>27.0</ns3:atemp>
          </ns3:TrackPointExtension>
        </extensions>
      </trkpt>
      <trkpt lat="42.5195308215916156768798828125" lon="20.1580045558512210845947265625">
        <ele>1860</ele>
        <time>2026-06-20T09:23:43.000Z</time>
        <extensions>
          <ns3:TrackPointExtension>
            <ns3:atemp>27.0</ns3:atemp>
          </ns3:TrackPointExtension>
        </extensions>
      </trkpt>
      <trkpt lat="42.5195308215916156768798828125" lon="20.1580045558512210845947265625">
        <ele>1860</ele>
        <time>2026-06-20T09:23:44.000Z</time>
        <extensions>
          <ns3:TrackPointExtension>
            <ns3:atemp>27.0</ns3:atemp>
          </ns3:TrackPointExtension>
        </extensions>
      </trkpt>
      <trkpt lat="42.5195308215916156768798828125" lon="20.1580045558512210845947265625">
        <ele>1860</ele>
        <time>2026-06-20T09:23:45.000Z</time>
        <extensions>
          <ns3:TrackPointExtension>
            <ns3:atemp>27.0</ns3:atemp>
          </ns3:TrackPointExtension>
        </extensions>
      </trkpt>
      <trkpt lat="42.5195308215916156768798828125" lon="20.1580045558512210845947265625">
        <ele>1860</ele>
        <time>2026-06-20T09:23:46.000Z</time>
        <extensions>
          <ns3:TrackPointExtension>
            <ns3:atemp>27.0</ns3:atemp>
          </ns3:TrackPointExtension>
        </extensions>
      </trkpt>
      <trkpt lat="42.5195308215916156768798828125" lon="20.1580045558512210845947265625">
        <ele>1860</ele>
        <time>2026-06-20T09:23:47.000Z</time>
        <extensions>
          <ns3:TrackPointExtension>
            <ns3:atemp>27.0</ns3:atemp>
          </ns3:TrackPointExtension>
        </extensions>
      </trkpt>
      <trkpt lat="42.5195308215916156768798828125" lon="20.1580045558512210845947265625">
        <ele>1860</ele>
        <time>2026-06-20T09:23:48.000Z</time>
        <extensions>
          <ns3:TrackPointExtension>
            <ns3:atemp>27.0</ns3:atemp>
          </ns3:TrackPointExtension>
        </extensions>
      </trkpt>
      <trkpt lat="42.5195308215916156768798828125" lon="20.1580045558512210845947265625">
        <ele>1860</ele>
        <time>2026-06-20T09:23:49.000Z</time>
        <extensions>
          <ns3:TrackPointExtension>
            <ns3:atemp>27.0</ns3:atemp>
          </ns3:TrackPointExtension>
        </extensions>
      </trkpt>
      <trkpt lat="42.5195308215916156768798828125" lon="20.1580045558512210845947265625">
        <ele>1860</ele>
        <time>2026-06-20T09:23:50.000Z</time>
        <extensions>
          <ns3:TrackPointExtension>
            <ns3:atemp>27.0</ns3:atemp>
          </ns3:TrackPointExtension>
        </extensions>
      </trkpt>
      <trkpt lat="42.5195308215916156768798828125" lon="20.1580045558512210845947265625">
        <ele>1860</ele>
        <time>2026-06-20T09:23:51.000Z</time>
        <extensions>
          <ns3:TrackPointExtension>
            <ns3:atemp>27.0</ns3:atemp>
          </ns3:TrackPointExtension>
        </extensions>
      </trkpt>
      <trkpt lat="42.5195308215916156768798828125" lon="20.1580045558512210845947265625">
        <ele>1860</ele>
        <time>2026-06-20T09:23:52.000Z</time>
        <extensions>
          <ns3:TrackPointExtension>
            <ns3:atemp>27.0</ns3:atemp>
          </ns3:TrackPointExtension>
        </extensions>
      </trkpt>
      <trkpt lat="42.5195308215916156768798828125" lon="20.1580045558512210845947265625">
        <ele>1860</ele>
        <time>2026-06-20T09:23:53.000Z</time>
        <extensions>
          <ns3:TrackPointExtension>
            <ns3:atemp>27.0</ns3:atemp>
          </ns3:TrackPointExtension>
        </extensions>
      </trkpt>
      <trkpt lat="42.5195308215916156768798828125" lon="20.1580045558512210845947265625">
        <ele>1860</ele>
        <time>2026-06-20T09:23:54.000Z</time>
        <extensions>
          <ns3:TrackPointExtension>
            <ns3:atemp>27.0</ns3:atemp>
          </ns3:TrackPointExtension>
        </extensions>
      </trkpt>
      <trkpt lat="42.5195308215916156768798828125" lon="20.1580045558512210845947265625">
        <ele>1860</ele>
        <time>2026-06-20T09:23:55.000Z</time>
        <extensions>
          <ns3:TrackPointExtension>
            <ns3:atemp>27.0</ns3:atemp>
          </ns3:TrackPointExtension>
        </extensions>
      </trkpt>
      <trkpt lat="42.5195308215916156768798828125" lon="20.1580045558512210845947265625">
        <ele>1860</ele>
        <time>2026-06-20T09:23:56.000Z</time>
        <extensions>
          <ns3:TrackPointExtension>
            <ns3:atemp>27.0</ns3:atemp>
          </ns3:TrackPointExtension>
        </extensions>
      </trkpt>
      <trkpt lat="42.5195308215916156768798828125" lon="20.1580045558512210845947265625">
        <ele>1860</ele>
        <time>2026-06-20T09:23:57.000Z</time>
        <extensions>
          <ns3:TrackPointExtension>
            <ns3:atemp>27.0</ns3:atemp>
          </ns3:TrackPointExtension>
        </extensions>
      </trkpt>
      <trkpt lat="42.5195308215916156768798828125" lon="20.1580045558512210845947265625">
        <ele>1860</ele>
        <time>2026-06-20T09:23:58.000Z</time>
        <extensions>
          <ns3:TrackPointExtension>
            <ns3:atemp>27.0</ns3:atemp>
          </ns3:TrackPointExtension>
        </extensions>
      </trkpt>
      <trkpt lat="42.5195308215916156768798828125" lon="20.1580045558512210845947265625">
        <ele>1860</ele>
        <time>2026-06-20T09:23:59.000Z</time>
        <extensions>
          <ns3:TrackPointExtension>
            <ns3:atemp>27.0</ns3:atemp>
          </ns3:TrackPointExtension>
        </extensions>
      </trkpt>
      <trkpt lat="42.5195308215916156768798828125" lon="20.1580045558512210845947265625">
        <ele>1860</ele>
        <time>2026-06-20T09:24:00.000Z</time>
        <extensions>
          <ns3:TrackPointExtension>
            <ns3:atemp>27.0</ns3:atemp>
          </ns3:TrackPointExtension>
        </extensions>
      </trkpt>
      <trkpt lat="42.5195308215916156768798828125" lon="20.1580045558512210845947265625">
        <ele>1860</ele>
        <time>2026-06-20T09:24:01.000Z</time>
        <extensions>
          <ns3:TrackPointExtension>
            <ns3:atemp>27.0</ns3:atemp>
          </ns3:TrackPointExtension>
        </extensions>
      </trkpt>
      <trkpt lat="42.5195308215916156768798828125" lon="20.1580045558512210845947265625">
        <ele>1860</ele>
        <time>2026-06-20T09:24:02.000Z</time>
        <extensions>
          <ns3:TrackPointExtension>
            <ns3:atemp>27.0</ns3:atemp>
          </ns3:TrackPointExtension>
        </extensions>
      </trkpt>
      <trkpt lat="42.5195308215916156768798828125" lon="20.1580045558512210845947265625">
        <ele>1860</ele>
        <time>2026-06-20T09:24:03.000Z</time>
        <extensions>
          <ns3:TrackPointExtension>
            <ns3:atemp>27.0</ns3:atemp>
          </ns3:TrackPointExtension>
        </extensions>
      </trkpt>
      <trkpt lat="42.5195308215916156768798828125" lon="20.1580045558512210845947265625">
        <ele>1860</ele>
        <time>2026-06-20T09:24:04.000Z</time>
        <extensions>
          <ns3:TrackPointExtension>
            <ns3:atemp>27.0</ns3:atemp>
          </ns3:TrackPointExtension>
        </extensions>
      </trkpt>
      <trkpt lat="42.5195308215916156768798828125" lon="20.1580045558512210845947265625">
        <ele>1860</ele>
        <time>2026-06-20T09:24:05.000Z</time>
        <extensions>
          <ns3:TrackPointExtension>
            <ns3:atemp>27.0</ns3:atemp>
          </ns3:TrackPointExtension>
        </extensions>
      </trkpt>
      <trkpt lat="42.5195308215916156768798828125" lon="20.1580045558512210845947265625">
        <ele>1860</ele>
        <time>2026-06-20T09:24:06.000Z</time>
        <extensions>
          <ns3:TrackPointExtension>
            <ns3:atemp>27.0</ns3:atemp>
          </ns3:TrackPointExtension>
        </extensions>
      </trkpt>
      <trkpt lat="42.5195308215916156768798828125" lon="20.1580045558512210845947265625">
        <ele>1860</ele>
        <time>2026-06-20T09:24:07.000Z</time>
        <extensions>
          <ns3:TrackPointExtension>
            <ns3:atemp>27.0</ns3:atemp>
          </ns3:TrackPointExtension>
        </extensions>
      </trkpt>
      <trkpt lat="42.5195308215916156768798828125" lon="20.1580045558512210845947265625">
        <ele>1860</ele>
        <time>2026-06-20T09:24:08.000Z</time>
        <extensions>
          <ns3:TrackPointExtension>
            <ns3:atemp>27.0</ns3:atemp>
          </ns3:TrackPointExtension>
        </extensions>
      </trkpt>
      <trkpt lat="42.5195308215916156768798828125" lon="20.1580045558512210845947265625">
        <ele>1860</ele>
        <time>2026-06-20T09:24:09.000Z</time>
        <extensions>
          <ns3:TrackPointExtension>
            <ns3:atemp>27.0</ns3:atemp>
          </ns3:TrackPointExtension>
        </extensions>
      </trkpt>
      <trkpt lat="42.5195308215916156768798828125" lon="20.1580045558512210845947265625">
        <ele>1860</ele>
        <time>2026-06-20T09:24:10.000Z</time>
        <extensions>
          <ns3:TrackPointExtension>
            <ns3:atemp>27.0</ns3:atemp>
          </ns3:TrackPointExtension>
        </extensions>
      </trkpt>
      <trkpt lat="42.5195308215916156768798828125" lon="20.1580045558512210845947265625">
        <ele>1860</ele>
        <time>2026-06-20T09:24:11.000Z</time>
        <extensions>
          <ns3:TrackPointExtension>
            <ns3:atemp>27.0</ns3:atemp>
          </ns3:TrackPointExtension>
        </extensions>
      </trkpt>
      <trkpt lat="42.5195308215916156768798828125" lon="20.1580045558512210845947265625">
        <ele>1860</ele>
        <time>2026-06-20T09:24:12.000Z</time>
        <extensions>
          <ns3:TrackPointExtension>
            <ns3:atemp>27.0</ns3:atemp>
          </ns3:TrackPointExtension>
        </extensions>
      </trkpt>
      <trkpt lat="42.5195308215916156768798828125" lon="20.1580045558512210845947265625">
        <ele>1860</ele>
        <time>2026-06-20T09:24:13.000Z</time>
        <extensions>
          <ns3:TrackPointExtension>
            <ns3:atemp>27.0</ns3:atemp>
          </ns3:TrackPointExtension>
        </extensions>
      </trkpt>
      <trkpt lat="42.5195308215916156768798828125" lon="20.1580045558512210845947265625">
        <ele>1860</ele>
        <time>2026-06-20T09:24:14.000Z</time>
        <extensions>
          <ns3:TrackPointExtension>
            <ns3:atemp>27.0</ns3:atemp>
          </ns3:TrackPointExtension>
        </extensions>
      </trkpt>
      <trkpt lat="42.5195308215916156768798828125" lon="20.1580045558512210845947265625">
        <ele>1860</ele>
        <time>2026-06-20T09:24:15.000Z</time>
        <extensions>
          <ns3:TrackPointExtension>
            <ns3:atemp>27.0</ns3:atemp>
          </ns3:TrackPointExtension>
        </extensions>
      </trkpt>
      <trkpt lat="42.5195308215916156768798828125" lon="20.1580045558512210845947265625">
        <ele>1860</ele>
        <time>2026-06-20T09:24:16.000Z</time>
        <extensions>
          <ns3:TrackPointExtension>
            <ns3:atemp>27.0</ns3:atemp>
          </ns3:TrackPointExtension>
        </extensions>
      </trkpt>
      <trkpt lat="42.5195308215916156768798828125" lon="20.1580045558512210845947265625">
        <ele>1860</ele>
        <time>2026-06-20T09:24:17.000Z</time>
        <extensions>
          <ns3:TrackPointExtension>
            <ns3:atemp>27.0</ns3:atemp>
          </ns3:TrackPointExtension>
        </extensions>
      </trkpt>
      <trkpt lat="42.5195308215916156768798828125" lon="20.1580045558512210845947265625">
        <ele>1860</ele>
        <time>2026-06-20T09:24:18.000Z</time>
        <extensions>
          <ns3:TrackPointExtension>
            <ns3:atemp>27.0</ns3:atemp>
          </ns3:TrackPointExtension>
        </extensions>
      </trkpt>
      <trkpt lat="42.5195308215916156768798828125" lon="20.1580045558512210845947265625">
        <ele>1860</ele>
        <time>2026-06-20T09:24:19.000Z</time>
        <extensions>
          <ns3:TrackPointExtension>
            <ns3:atemp>27.0</ns3:atemp>
          </ns3:TrackPointExtension>
        </extensions>
      </trkpt>
      <trkpt lat="42.5195308215916156768798828125" lon="20.1580045558512210845947265625">
        <ele>1860</ele>
        <time>2026-06-20T09:24:20.000Z</time>
        <extensions>
          <ns3:TrackPointExtension>
            <ns3:atemp>27.0</ns3:atemp>
          </ns3:TrackPointExtension>
        </extensions>
      </trkpt>
      <trkpt lat="42.5195308215916156768798828125" lon="20.1580045558512210845947265625">
        <ele>1860</ele>
        <time>2026-06-20T09:24:21.000Z</time>
        <extensions>
          <ns3:TrackPointExtension>
            <ns3:atemp>27.0</ns3:atemp>
          </ns3:TrackPointExtension>
        </extensions>
      </trkpt>
      <trkpt lat="42.5195308215916156768798828125" lon="20.1580045558512210845947265625">
        <ele>1860</ele>
        <time>2026-06-20T09:24:22.000Z</time>
        <extensions>
          <ns3:TrackPointExtension>
            <ns3:atemp>27.0</ns3:atemp>
          </ns3:TrackPointExtension>
        </extensions>
      </trkpt>
      <trkpt lat="42.5195308215916156768798828125" lon="20.1580045558512210845947265625">
        <ele>1860</ele>
        <time>2026-06-20T09:24:23.000Z</time>
        <extensions>
          <ns3:TrackPointExtension>
            <ns3:atemp>27.0</ns3:atemp>
          </ns3:TrackPointExtension>
        </extensions>
      </trkpt>
      <trkpt lat="42.5195308215916156768798828125" lon="20.1580045558512210845947265625">
        <ele>1860</ele>
        <time>2026-06-20T09:24:24.000Z</time>
        <extensions>
          <ns3:TrackPointExtension>
            <ns3:atemp>27.0</ns3:atemp>
          </ns3:TrackPointExtension>
        </extensions>
      </trkpt>
      <trkpt lat="42.5195308215916156768798828125" lon="20.1580045558512210845947265625">
        <ele>1860</ele>
        <time>2026-06-20T09:24:25.000Z</time>
        <extensions>
          <ns3:TrackPointExtension>
            <ns3:atemp>27.0</ns3:atemp>
          </ns3:TrackPointExtension>
        </extensions>
      </trkpt>
      <trkpt lat="42.5195308215916156768798828125" lon="20.1580045558512210845947265625">
        <ele>1860</ele>
        <time>2026-06-20T09:24:26.000Z</time>
        <extensions>
          <ns3:TrackPointExtension>
            <ns3:atemp>27.0</ns3:atemp>
          </ns3:TrackPointExtension>
        </extensions>
      </trkpt>
      <trkpt lat="42.5195308215916156768798828125" lon="20.1580045558512210845947265625">
        <ele>1860</ele>
        <time>2026-06-20T09:24:27.000Z</time>
        <extensions>
          <ns3:TrackPointExtension>
            <ns3:atemp>27.0</ns3:atemp>
          </ns3:TrackPointExtension>
        </extensions>
      </trkpt>
      <trkpt lat="42.5195308215916156768798828125" lon="20.1580045558512210845947265625">
        <ele>1860</ele>
        <time>2026-06-20T09:24:28.000Z</time>
        <extensions>
          <ns3:TrackPointExtension>
            <ns3:atemp>27.0</ns3:atemp>
          </ns3:TrackPointExtension>
        </extensions>
      </trkpt>
      <trkpt lat="42.5195308215916156768798828125" lon="20.1580045558512210845947265625">
        <ele>1860</ele>
        <time>2026-06-20T09:24:29.000Z</time>
        <extensions>
          <ns3:TrackPointExtension>
            <ns3:atemp>27.0</ns3:atemp>
          </ns3:TrackPointExtension>
        </extensions>
      </trkpt>
      <trkpt lat="42.5195308215916156768798828125" lon="20.1580045558512210845947265625">
        <ele>1860</ele>
        <time>2026-06-20T09:24:30.000Z</time>
        <extensions>
          <ns3:TrackPointExtension>
            <ns3:atemp>27.0</ns3:atemp>
          </ns3:TrackPointExtension>
        </extensions>
      </trkpt>
      <trkpt lat="42.5195308215916156768798828125" lon="20.1580045558512210845947265625">
        <ele>1860</ele>
        <time>2026-06-20T09:24:31.000Z</time>
        <extensions>
          <ns3:TrackPointExtension>
            <ns3:atemp>27.0</ns3:atemp>
          </ns3:TrackPointExtension>
        </extensions>
      </trkpt>
      <trkpt lat="42.5195308215916156768798828125" lon="20.1580045558512210845947265625">
        <ele>1860</ele>
        <time>2026-06-20T09:24:32.000Z</time>
        <extensions>
          <ns3:TrackPointExtension>
            <ns3:atemp>27.0</ns3:atemp>
          </ns3:TrackPointExtension>
        </extensions>
      </trkpt>
      <trkpt lat="42.5195308215916156768798828125" lon="20.1580045558512210845947265625">
        <ele>1860</ele>
        <time>2026-06-20T09:24:33.000Z</time>
        <extensions>
          <ns3:TrackPointExtension>
            <ns3:atemp>27.0</ns3:atemp>
          </ns3:TrackPointExtension>
        </extensions>
      </trkpt>
      <trkpt lat="42.5195308215916156768798828125" lon="20.1580045558512210845947265625">
        <ele>1860</ele>
        <time>2026-06-20T09:24:34.000Z</time>
        <extensions>
          <ns3:TrackPointExtension>
            <ns3:atemp>27.0</ns3:atemp>
          </ns3:TrackPointExtension>
        </extensions>
      </trkpt>
      <trkpt lat="42.5195308215916156768798828125" lon="20.1580045558512210845947265625">
        <ele>1860</ele>
        <time>2026-06-20T09:24:35.000Z</time>
        <extensions>
          <ns3:TrackPointExtension>
            <ns3:atemp>27.0</ns3:atemp>
          </ns3:TrackPointExtension>
        </extensions>
      </trkpt>
      <trkpt lat="42.5195308215916156768798828125" lon="20.1580045558512210845947265625">
        <ele>1860</ele>
        <time>2026-06-20T09:24:36.000Z</time>
        <extensions>
          <ns3:TrackPointExtension>
            <ns3:atemp>27.0</ns3:atemp>
          </ns3:TrackPointExtension>
        </extensions>
      </trkpt>
      <trkpt lat="42.5195308215916156768798828125" lon="20.1580045558512210845947265625">
        <ele>1860</ele>
        <time>2026-06-20T09:24:37.000Z</time>
        <extensions>
          <ns3:TrackPointExtension>
            <ns3:atemp>27.0</ns3:atemp>
          </ns3:TrackPointExtension>
        </extensions>
      </trkpt>
      <trkpt lat="42.5195308215916156768798828125" lon="20.1580045558512210845947265625">
        <ele>1860</ele>
        <time>2026-06-20T09:24:38.000Z</time>
        <extensions>
          <ns3:TrackPointExtension>
            <ns3:atemp>27.0</ns3:atemp>
          </ns3:TrackPointExtension>
        </extensions>
      </trkpt>
      <trkpt lat="42.5195308215916156768798828125" lon="20.1580045558512210845947265625">
        <ele>1860</ele>
        <time>2026-06-20T09:24:39.000Z</time>
        <extensions>
          <ns3:TrackPointExtension>
            <ns3:atemp>27.0</ns3:atemp>
          </ns3:TrackPointExtension>
        </extensions>
      </trkpt>
      <trkpt lat="42.5195308215916156768798828125" lon="20.1580045558512210845947265625">
        <ele>1860</ele>
        <time>2026-06-20T09:24:40.000Z</time>
        <extensions>
          <ns3:TrackPointExtension>
            <ns3:atemp>27.0</ns3:atemp>
          </ns3:TrackPointExtension>
        </extensions>
      </trkpt>
      <trkpt lat="42.5195308215916156768798828125" lon="20.1580045558512210845947265625">
        <ele>1860</ele>
        <time>2026-06-20T09:24:41.000Z</time>
        <extensions>
          <ns3:TrackPointExtension>
            <ns3:atemp>27.0</ns3:atemp>
          </ns3:TrackPointExtension>
        </extensions>
      </trkpt>
      <trkpt lat="42.5195308215916156768798828125" lon="20.1580045558512210845947265625">
        <ele>1860</ele>
        <time>2026-06-20T09:24:42.000Z</time>
        <extensions>
          <ns3:TrackPointExtension>
            <ns3:atemp>27.0</ns3:atemp>
          </ns3:TrackPointExtension>
        </extensions>
      </trkpt>
      <trkpt lat="42.5195308215916156768798828125" lon="20.1580045558512210845947265625">
        <ele>1860</ele>
        <time>2026-06-20T09:24:43.000Z</time>
        <extensions>
          <ns3:TrackPointExtension>
            <ns3:atemp>27.0</ns3:atemp>
          </ns3:TrackPointExtension>
        </extensions>
      </trkpt>
      <trkpt lat="42.5195308215916156768798828125" lon="20.1580045558512210845947265625">
        <ele>1860</ele>
        <time>2026-06-20T09:24:44.000Z</time>
        <extensions>
          <ns3:TrackPointExtension>
            <ns3:atemp>27.0</ns3:atemp>
          </ns3:TrackPointExtension>
        </extensions>
      </trkpt>
      <trkpt lat="42.5195308215916156768798828125" lon="20.1580045558512210845947265625">
        <ele>1860</ele>
        <time>2026-06-20T09:24:45.000Z</time>
        <extensions>
          <ns3:TrackPointExtension>
            <ns3:atemp>27.0</ns3:atemp>
          </ns3:TrackPointExtension>
        </extensions>
      </trkpt>
      <trkpt lat="42.5195308215916156768798828125" lon="20.1580045558512210845947265625">
        <ele>1860</ele>
        <time>2026-06-20T09:24:46.000Z</time>
        <extensions>
          <ns3:TrackPointExtension>
            <ns3:atemp>27.0</ns3:atemp>
          </ns3:TrackPointExtension>
        </extensions>
      </trkpt>
      <trkpt lat="42.5195308215916156768798828125" lon="20.1580045558512210845947265625">
        <ele>1860</ele>
        <time>2026-06-20T09:24:47.000Z</time>
        <extensions>
          <ns3:TrackPointExtension>
            <ns3:atemp>27.0</ns3:atemp>
          </ns3:TrackPointExtension>
        </extensions>
      </trkpt>
      <trkpt lat="42.5195308215916156768798828125" lon="20.1580045558512210845947265625">
        <ele>1860</ele>
        <time>2026-06-20T09:24:48.000Z</time>
        <extensions>
          <ns3:TrackPointExtension>
            <ns3:atemp>27.0</ns3:atemp>
          </ns3:TrackPointExtension>
        </extensions>
      </trkpt>
      <trkpt lat="42.5195308215916156768798828125" lon="20.1580045558512210845947265625">
        <ele>1860</ele>
        <time>2026-06-20T09:24:49.000Z</time>
        <extensions>
          <ns3:TrackPointExtension>
            <ns3:atemp>27.0</ns3:atemp>
          </ns3:TrackPointExtension>
        </extensions>
      </trkpt>
      <trkpt lat="42.5195308215916156768798828125" lon="20.1580045558512210845947265625">
        <ele>1860</ele>
        <time>2026-06-20T09:24:50.000Z</time>
        <extensions>
          <ns3:TrackPointExtension>
            <ns3:atemp>27.0</ns3:atemp>
          </ns3:TrackPointExtension>
        </extensions>
      </trkpt>
      <trkpt lat="42.5195308215916156768798828125" lon="20.1580045558512210845947265625">
        <ele>1860</ele>
        <time>2026-06-20T09:24:51.000Z</time>
        <extensions>
          <ns3:TrackPointExtension>
            <ns3:atemp>27.0</ns3:atemp>
          </ns3:TrackPointExtension>
        </extensions>
      </trkpt>
      <trkpt lat="42.5195308215916156768798828125" lon="20.1580045558512210845947265625">
        <ele>1860</ele>
        <time>2026-06-20T09:24:52.000Z</time>
        <extensions>
          <ns3:TrackPointExtension>
            <ns3:atemp>27.0</ns3:atemp>
          </ns3:TrackPointExtension>
        </extensions>
      </trkpt>
      <trkpt lat="42.5195308215916156768798828125" lon="20.1580045558512210845947265625">
        <ele>1860</ele>
        <time>2026-06-20T09:24:53.000Z</time>
        <extensions>
          <ns3:TrackPointExtension>
            <ns3:atemp>27.0</ns3:atemp>
          </ns3:TrackPointExtension>
        </extensions>
      </trkpt>
      <trkpt lat="42.5195308215916156768798828125" lon="20.1580045558512210845947265625">
        <ele>1860</ele>
        <time>2026-06-20T09:24:54.000Z</time>
        <extensions>
          <ns3:TrackPointExtension>
            <ns3:atemp>27.0</ns3:atemp>
          </ns3:TrackPointExtension>
        </extensions>
      </trkpt>
      <trkpt lat="42.5195308215916156768798828125" lon="20.1580045558512210845947265625">
        <ele>1860</ele>
        <time>2026-06-20T09:24:55.000Z</time>
        <extensions>
          <ns3:TrackPointExtension>
            <ns3:atemp>27.0</ns3:atemp>
          </ns3:TrackPointExtension>
        </extensions>
      </trkpt>
      <trkpt lat="42.5195308215916156768798828125" lon="20.1580045558512210845947265625">
        <ele>1860</ele>
        <time>2026-06-20T09:24:56.000Z</time>
        <extensions>
          <ns3:TrackPointExtension>
            <ns3:atemp>27.0</ns3:atemp>
          </ns3:TrackPointExtension>
        </extensions>
      </trkpt>
      <trkpt lat="42.5195308215916156768798828125" lon="20.1580045558512210845947265625">
        <ele>1860</ele>
        <time>2026-06-20T09:24:57.000Z</time>
        <extensions>
          <ns3:TrackPointExtension>
            <ns3:atemp>27.0</ns3:atemp>
          </ns3:TrackPointExtension>
        </extensions>
      </trkpt>
      <trkpt lat="42.5195308215916156768798828125" lon="20.1580045558512210845947265625">
        <ele>1860</ele>
        <time>2026-06-20T09:24:58.000Z</time>
        <extensions>
          <ns3:TrackPointExtension>
            <ns3:atemp>27.0</ns3:atemp>
          </ns3:TrackPointExtension>
        </extensions>
      </trkpt>
      <trkpt lat="42.5195308215916156768798828125" lon="20.1580045558512210845947265625">
        <ele>1860</ele>
        <time>2026-06-20T09:24:59.000Z</time>
        <extensions>
          <ns3:TrackPointExtension>
            <ns3:atemp>27.0</ns3:atemp>
          </ns3:TrackPointExtension>
        </extensions>
      </trkpt>
      <trkpt lat="42.5195308215916156768798828125" lon="20.1580045558512210845947265625">
        <ele>1860</ele>
        <time>2026-06-20T09:25:00.000Z</time>
        <extensions>
          <ns3:TrackPointExtension>
            <ns3:atemp>27.0</ns3:atemp>
          </ns3:TrackPointExtension>
        </extensions>
      </trkpt>
      <trkpt lat="42.5195308215916156768798828125" lon="20.1580045558512210845947265625">
        <ele>1860</ele>
        <time>2026-06-20T09:25:01.000Z</time>
        <extensions>
          <ns3:TrackPointExtension>
            <ns3:atemp>27.0</ns3:atemp>
          </ns3:TrackPointExtension>
        </extensions>
      </trkpt>
      <trkpt lat="42.5195308215916156768798828125" lon="20.1580045558512210845947265625">
        <ele>1860</ele>
        <time>2026-06-20T09:25:02.000Z</time>
        <extensions>
          <ns3:TrackPointExtension>
            <ns3:atemp>27.0</ns3:atemp>
          </ns3:TrackPointExtension>
        </extensions>
      </trkpt>
      <trkpt lat="42.5195308215916156768798828125" lon="20.1580045558512210845947265625">
        <ele>1860</ele>
        <time>2026-06-20T09:25:03.000Z</time>
        <extensions>
          <ns3:TrackPointExtension>
            <ns3:atemp>27.0</ns3:atemp>
          </ns3:TrackPointExtension>
        </extensions>
      </trkpt>
      <trkpt lat="42.5195308215916156768798828125" lon="20.1580045558512210845947265625">
        <ele>1860</ele>
        <time>2026-06-20T09:25:04.000Z</time>
        <extensions>
          <ns3:TrackPointExtension>
            <ns3:atemp>27.0</ns3:atemp>
          </ns3:TrackPointExtension>
        </extensions>
      </trkpt>
      <trkpt lat="42.5195308215916156768798828125" lon="20.1580045558512210845947265625">
        <ele>1860</ele>
        <time>2026-06-20T09:25:05.000Z</time>
        <extensions>
          <ns3:TrackPointExtension>
            <ns3:atemp>27.0</ns3:atemp>
          </ns3:TrackPointExtension>
        </extensions>
      </trkpt>
      <trkpt lat="42.5195308215916156768798828125" lon="20.1580045558512210845947265625">
        <ele>1860</ele>
        <time>2026-06-20T09:25:06.000Z</time>
        <extensions>
          <ns3:TrackPointExtension>
            <ns3:atemp>27.0</ns3:atemp>
          </ns3:TrackPointExtension>
        </extensions>
      </trkpt>
      <trkpt lat="42.5195308215916156768798828125" lon="20.1580045558512210845947265625">
        <ele>1860</ele>
        <time>2026-06-20T09:25:07.000Z</time>
        <extensions>
          <ns3:TrackPointExtension>
            <ns3:atemp>27.0</ns3:atemp>
          </ns3:TrackPointExtension>
        </extensions>
      </trkpt>
      <trkpt lat="42.5195308215916156768798828125" lon="20.1580045558512210845947265625">
        <ele>1860</ele>
        <time>2026-06-20T09:25:08.000Z</time>
        <extensions>
          <ns3:TrackPointExtension>
            <ns3:atemp>27.0</ns3:atemp>
          </ns3:TrackPointExtension>
        </extensions>
      </trkpt>
      <trkpt lat="42.5195308215916156768798828125" lon="20.1580045558512210845947265625">
        <ele>1860</ele>
        <time>2026-06-20T09:25:09.000Z</time>
        <extensions>
          <ns3:TrackPointExtension>
            <ns3:atemp>27.0</ns3:atemp>
          </ns3:TrackPointExtension>
        </extensions>
      </trkpt>
      <trkpt lat="42.5195308215916156768798828125" lon="20.1580045558512210845947265625">
        <ele>1860</ele>
        <time>2026-06-20T09:25:10.000Z</time>
        <extensions>
          <ns3:TrackPointExtension>
            <ns3:atemp>27.0</ns3:atemp>
          </ns3:TrackPointExtension>
        </extensions>
      </trkpt>
      <trkpt lat="42.5195308215916156768798828125" lon="20.1580045558512210845947265625">
        <ele>1860</ele>
        <time>2026-06-20T09:25:11.000Z</time>
        <extensions>
          <ns3:TrackPointExtension>
            <ns3:atemp>27.0</ns3:atemp>
          </ns3:TrackPointExtension>
        </extensions>
      </trkpt>
      <trkpt lat="42.5195308215916156768798828125" lon="20.1580045558512210845947265625">
        <ele>1860</ele>
        <time>2026-06-20T09:25:12.000Z</time>
        <extensions>
          <ns3:TrackPointExtension>
            <ns3:atemp>27.0</ns3:atemp>
          </ns3:TrackPointExtension>
        </extensions>
      </trkpt>
      <trkpt lat="42.5195308215916156768798828125" lon="20.1580045558512210845947265625">
        <ele>1860</ele>
        <time>2026-06-20T09:25:13.000Z</time>
        <extensions>
          <ns3:TrackPointExtension>
            <ns3:atemp>27.0</ns3:atemp>
          </ns3:TrackPointExtension>
        </extensions>
      </trkpt>
      <trkpt lat="42.5195308215916156768798828125" lon="20.1580045558512210845947265625">
        <ele>1860</ele>
        <time>2026-06-20T09:25:14.000Z</time>
        <extensions>
          <ns3:TrackPointExtension>
            <ns3:atemp>27.0</ns3:atemp>
          </ns3:TrackPointExtension>
        </extensions>
      </trkpt>
      <trkpt lat="42.5195308215916156768798828125" lon="20.1580045558512210845947265625">
        <ele>1860</ele>
        <time>2026-06-20T09:25:15.000Z</time>
        <extensions>
          <ns3:TrackPointExtension>
            <ns3:atemp>27.0</ns3:atemp>
          </ns3:TrackPointExtension>
        </extensions>
      </trkpt>
      <trkpt lat="42.5195308215916156768798828125" lon="20.1580045558512210845947265625">
        <ele>1860</ele>
        <time>2026-06-20T09:25:16.000Z</time>
        <extensions>
          <ns3:TrackPointExtension>
            <ns3:atemp>27.0</ns3:atemp>
          </ns3:TrackPointExtension>
        </extensions>
      </trkpt>
      <trkpt lat="42.5195308215916156768798828125" lon="20.1580045558512210845947265625">
        <ele>1860</ele>
        <time>2026-06-20T09:25:17.000Z</time>
        <extensions>
          <ns3:TrackPointExtension>
            <ns3:atemp>27.0</ns3:atemp>
          </ns3:TrackPointExtension>
        </extensions>
      </trkpt>
      <trkpt lat="42.5195308215916156768798828125" lon="20.1580045558512210845947265625">
        <ele>1860</ele>
        <time>2026-06-20T09:25:18.000Z</time>
        <extensions>
          <ns3:TrackPointExtension>
            <ns3:atemp>27.0</ns3:atemp>
          </ns3:TrackPointExtension>
        </extensions>
      </trkpt>
      <trkpt lat="42.5195308215916156768798828125" lon="20.1580045558512210845947265625">
        <ele>1860</ele>
        <time>2026-06-20T09:25:19.000Z</time>
        <extensions>
          <ns3:TrackPointExtension>
            <ns3:atemp>27.0</ns3:atemp>
          </ns3:TrackPointExtension>
        </extensions>
      </trkpt>
      <trkpt lat="42.5195308215916156768798828125" lon="20.1580045558512210845947265625">
        <ele>1860</ele>
        <time>2026-06-20T09:25:20.000Z</time>
        <extensions>
          <ns3:TrackPointExtension>
            <ns3:atemp>27.0</ns3:atemp>
          </ns3:TrackPointExtension>
        </extensions>
      </trkpt>
      <trkpt lat="42.5195308215916156768798828125" lon="20.1580045558512210845947265625">
        <ele>1860</ele>
        <time>2026-06-20T09:25:21.000Z</time>
        <extensions>
          <ns3:TrackPointExtension>
            <ns3:atemp>27.0</ns3:atemp>
          </ns3:TrackPointExtension>
        </extensions>
      </trkpt>
      <trkpt lat="42.5195308215916156768798828125" lon="20.1580045558512210845947265625">
        <ele>1860</ele>
        <time>2026-06-20T09:25:22.000Z</time>
        <extensions>
          <ns3:TrackPointExtension>
            <ns3:atemp>27.0</ns3:atemp>
          </ns3:TrackPointExtension>
        </extensions>
      </trkpt>
      <trkpt lat="42.5195308215916156768798828125" lon="20.1580045558512210845947265625">
        <ele>1860</ele>
        <time>2026-06-20T09:25:23.000Z</time>
        <extensions>
          <ns3:TrackPointExtension>
            <ns3:atemp>27.0</ns3:atemp>
          </ns3:TrackPointExtension>
        </extensions>
      </trkpt>
      <trkpt lat="42.5195308215916156768798828125" lon="20.1580045558512210845947265625">
        <ele>1860</ele>
        <time>2026-06-20T09:25:24.000Z</time>
        <extensions>
          <ns3:TrackPointExtension>
            <ns3:atemp>27.0</ns3:atemp>
          </ns3:TrackPointExtension>
        </extensions>
      </trkpt>
      <trkpt lat="42.5195308215916156768798828125" lon="20.1580045558512210845947265625">
        <ele>1860</ele>
        <time>2026-06-20T09:25:25.000Z</time>
        <extensions>
          <ns3:TrackPointExtension>
            <ns3:atemp>27.0</ns3:atemp>
          </ns3:TrackPointExtension>
        </extensions>
      </trkpt>
      <trkpt lat="42.5195308215916156768798828125" lon="20.1580045558512210845947265625">
        <ele>1860</ele>
        <time>2026-06-20T09:25:26.000Z</time>
        <extensions>
          <ns3:TrackPointExtension>
            <ns3:atemp>27.0</ns3:atemp>
          </ns3:TrackPointExtension>
        </extensions>
      </trkpt>
      <trkpt lat="42.5195308215916156768798828125" lon="20.1580045558512210845947265625">
        <ele>1860</ele>
        <time>2026-06-20T09:25:27.000Z</time>
        <extensions>
          <ns3:TrackPointExtension>
            <ns3:atemp>27.0</ns3:atemp>
          </ns3:TrackPointExtension>
        </extensions>
      </trkpt>
      <trkpt lat="42.5195308215916156768798828125" lon="20.1580045558512210845947265625">
        <ele>1860</ele>
        <time>2026-06-20T09:25:28.000Z</time>
        <extensions>
          <ns3:TrackPointExtension>
            <ns3:atemp>27.0</ns3:atemp>
          </ns3:TrackPointExtension>
        </extensions>
      </trkpt>
      <trkpt lat="42.5195308215916156768798828125" lon="20.1580045558512210845947265625">
        <ele>1860</ele>
        <time>2026-06-20T09:25:29.000Z</time>
        <extensions>
          <ns3:TrackPointExtension>
            <ns3:atemp>27.0</ns3:atemp>
          </ns3:TrackPointExtension>
        </extensions>
      </trkpt>
      <trkpt lat="42.5195308215916156768798828125" lon="20.1580045558512210845947265625">
        <ele>1860</ele>
        <time>2026-06-20T09:25:30.000Z</time>
        <extensions>
          <ns3:TrackPointExtension>
            <ns3:atemp>27.0</ns3:atemp>
          </ns3:TrackPointExtension>
        </extensions>
      </trkpt>
      <trkpt lat="42.5195308215916156768798828125" lon="20.1580045558512210845947265625">
        <ele>1860</ele>
        <time>2026-06-20T09:25:31.000Z</time>
        <extensions>
          <ns3:TrackPointExtension>
            <ns3:atemp>27.0</ns3:atemp>
          </ns3:TrackPointExtension>
        </extensions>
      </trkpt>
      <trkpt lat="42.5195308215916156768798828125" lon="20.1580045558512210845947265625">
        <ele>1860</ele>
        <time>2026-06-20T09:25:32.000Z</time>
        <extensions>
          <ns3:TrackPointExtension>
            <ns3:atemp>27.0</ns3:atemp>
          </ns3:TrackPointExtension>
        </extensions>
      </trkpt>
      <trkpt lat="42.5195308215916156768798828125" lon="20.1580045558512210845947265625">
        <ele>1860</ele>
        <time>2026-06-20T09:25:33.000Z</time>
        <extensions>
          <ns3:TrackPointExtension>
            <ns3:atemp>27.0</ns3:atemp>
          </ns3:TrackPointExtension>
        </extensions>
      </trkpt>
      <trkpt lat="42.5195308215916156768798828125" lon="20.1580045558512210845947265625">
        <ele>1860</ele>
        <time>2026-06-20T09:25:34.000Z</time>
        <extensions>
          <ns3:TrackPointExtension>
            <ns3:atemp>27.0</ns3:atemp>
          </ns3:TrackPointExtension>
        </extensions>
      </trkpt>
      <trkpt lat="42.5195308215916156768798828125" lon="20.1580045558512210845947265625">
        <ele>1860</ele>
        <time>2026-06-20T09:25:35.000Z</time>
        <extensions>
          <ns3:TrackPointExtension>
            <ns3:atemp>27.0</ns3:atemp>
          </ns3:TrackPointExtension>
        </extensions>
      </trkpt>
      <trkpt lat="42.5195308215916156768798828125" lon="20.1580045558512210845947265625">
        <ele>1860</ele>
        <time>2026-06-20T09:25:36.000Z</time>
        <extensions>
          <ns3:TrackPointExtension>
            <ns3:atemp>27.0</ns3:atemp>
          </ns3:TrackPointExtension>
        </extensions>
      </trkpt>
      <trkpt lat="42.5195308215916156768798828125" lon="20.1580045558512210845947265625">
        <ele>1860</ele>
        <time>2026-06-20T09:25:37.000Z</time>
        <extensions>
          <ns3:TrackPointExtension>
            <ns3:atemp>27.0</ns3:atemp>
          </ns3:TrackPointExtension>
        </extensions>
      </trkpt>
      <trkpt lat="42.5195308215916156768798828125" lon="20.1580045558512210845947265625">
        <ele>1860</ele>
        <time>2026-06-20T09:25:38.000Z</time>
        <extensions>
          <ns3:TrackPointExtension>
            <ns3:atemp>27.0</ns3:atemp>
          </ns3:TrackPointExtension>
        </extensions>
      </trkpt>
      <trkpt lat="42.5195308215916156768798828125" lon="20.1580045558512210845947265625">
        <ele>1860</ele>
        <time>2026-06-20T09:25:39.000Z</time>
        <extensions>
          <ns3:TrackPointExtension>
            <ns3:atemp>27.0</ns3:atemp>
          </ns3:TrackPointExtension>
        </extensions>
      </trkpt>
      <trkpt lat="42.5195308215916156768798828125" lon="20.1580045558512210845947265625">
        <ele>1860</ele>
        <time>2026-06-20T09:25:40.000Z</time>
        <extensions>
          <ns3:TrackPointExtension>
            <ns3:atemp>27.0</ns3:atemp>
          </ns3:TrackPointExtension>
        </extensions>
      </trkpt>
      <trkpt lat="42.5195308215916156768798828125" lon="20.1580045558512210845947265625">
        <ele>1860</ele>
        <time>2026-06-20T09:25:41.000Z</time>
        <extensions>
          <ns3:TrackPointExtension>
            <ns3:atemp>27.0</ns3:atemp>
          </ns3:TrackPointExtension>
        </extensions>
      </trkpt>
      <trkpt lat="42.5195308215916156768798828125" lon="20.1580045558512210845947265625">
        <ele>1860</ele>
        <time>2026-06-20T09:25:42.000Z</time>
        <extensions>
          <ns3:TrackPointExtension>
            <ns3:atemp>27.0</ns3:atemp>
          </ns3:TrackPointExtension>
        </extensions>
      </trkpt>
      <trkpt lat="42.5195308215916156768798828125" lon="20.1580045558512210845947265625">
        <ele>1860</ele>
        <time>2026-06-20T09:25:43.000Z</time>
        <extensions>
          <ns3:TrackPointExtension>
            <ns3:atemp>27.0</ns3:atemp>
          </ns3:TrackPointExtension>
        </extensions>
      </trkpt>
      <trkpt lat="42.5195308215916156768798828125" lon="20.1580045558512210845947265625">
        <ele>1860</ele>
        <time>2026-06-20T09:25:44.000Z</time>
        <extensions>
          <ns3:TrackPointExtension>
            <ns3:atemp>27.0</ns3:atemp>
          </ns3:TrackPointExtension>
        </extensions>
      </trkpt>
      <trkpt lat="42.5195308215916156768798828125" lon="20.1580045558512210845947265625">
        <ele>1860</ele>
        <time>2026-06-20T09:25:45.000Z</time>
        <extensions>
          <ns3:TrackPointExtension>
            <ns3:atemp>27.0</ns3:atemp>
          </ns3:TrackPointExtension>
        </extensions>
      </trkpt>
      <trkpt lat="42.5195308215916156768798828125" lon="20.1580045558512210845947265625">
        <ele>1860</ele>
        <time>2026-06-20T09:25:46.000Z</time>
        <extensions>
          <ns3:TrackPointExtension>
            <ns3:atemp>27.0</ns3:atemp>
          </ns3:TrackPointExtension>
        </extensions>
      </trkpt>
      <trkpt lat="42.5195308215916156768798828125" lon="20.1580045558512210845947265625">
        <ele>1860</ele>
        <time>2026-06-20T09:25:47.000Z</time>
        <extensions>
          <ns3:TrackPointExtension>
            <ns3:atemp>27.0</ns3:atemp>
          </ns3:TrackPointExtension>
        </extensions>
      </trkpt>
      <trkpt lat="42.5195308215916156768798828125" lon="20.1580045558512210845947265625">
        <ele>1860</ele>
        <time>2026-06-20T09:25:48.000Z</time>
        <extensions>
          <ns3:TrackPointExtension>
            <ns3:atemp>27.0</ns3:atemp>
          </ns3:TrackPointExtension>
        </extensions>
      </trkpt>
      <trkpt lat="42.5195308215916156768798828125" lon="20.1580045558512210845947265625">
        <ele>1860</ele>
        <time>2026-06-20T09:25:49.000Z</time>
        <extensions>
          <ns3:TrackPointExtension>
            <ns3:atemp>27.0</ns3:atemp>
          </ns3:TrackPointExtension>
        </extensions>
      </trkpt>
      <trkpt lat="42.5195308215916156768798828125" lon="20.1580045558512210845947265625">
        <ele>1860</ele>
        <time>2026-06-20T09:25:50.000Z</time>
        <extensions>
          <ns3:TrackPointExtension>
            <ns3:atemp>27.0</ns3:atemp>
          </ns3:TrackPointExtension>
        </extensions>
      </trkpt>
      <trkpt lat="42.5195308215916156768798828125" lon="20.1580045558512210845947265625">
        <ele>1860</ele>
        <time>2026-06-20T09:25:51.000Z</time>
        <extensions>
          <ns3:TrackPointExtension>
            <ns3:atemp>27.0</ns3:atemp>
          </ns3:TrackPointExtension>
        </extensions>
      </trkpt>
      <trkpt lat="42.5195308215916156768798828125" lon="20.1580045558512210845947265625">
        <ele>1860</ele>
        <time>2026-06-20T09:25:52.000Z</time>
        <extensions>
          <ns3:TrackPointExtension>
            <ns3:atemp>27.0</ns3:atemp>
          </ns3:TrackPointExtension>
        </extensions>
      </trkpt>
      <trkpt lat="42.5195308215916156768798828125" lon="20.1580045558512210845947265625">
        <ele>1860</ele>
        <time>2026-06-20T09:25:53.000Z</time>
        <extensions>
          <ns3:TrackPointExtension>
            <ns3:atemp>27.0</ns3:atemp>
          </ns3:TrackPointExtension>
        </extensions>
      </trkpt>
      <trkpt lat="42.5195308215916156768798828125" lon="20.1580045558512210845947265625">
        <ele>1860</ele>
        <time>2026-06-20T09:25:54.000Z</time>
        <extensions>
          <ns3:TrackPointExtension>
            <ns3:atemp>27.0</ns3:atemp>
          </ns3:TrackPointExtension>
        </extensions>
      </trkpt>
      <trkpt lat="42.5195308215916156768798828125" lon="20.1580045558512210845947265625">
        <ele>1860</ele>
        <time>2026-06-20T09:25:55.000Z</time>
        <extensions>
          <ns3:TrackPointExtension>
            <ns3:atemp>27.0</ns3:atemp>
          </ns3:TrackPointExtension>
        </extensions>
      </trkpt>
      <trkpt lat="42.5195308215916156768798828125" lon="20.1580045558512210845947265625">
        <ele>1860</ele>
        <time>2026-06-20T09:25:56.000Z</time>
        <extensions>
          <ns3:TrackPointExtension>
            <ns3:atemp>27.0</ns3:atemp>
          </ns3:TrackPointExtension>
        </extensions>
      </trkpt>
      <trkpt lat="42.5195308215916156768798828125" lon="20.1580045558512210845947265625">
        <ele>1860</ele>
        <time>2026-06-20T09:25:57.000Z</time>
        <extensions>
          <ns3:TrackPointExtension>
            <ns3:atemp>27.0</ns3:atemp>
          </ns3:TrackPointExtension>
        </extensions>
      </trkpt>
      <trkpt lat="42.5195308215916156768798828125" lon="20.1580045558512210845947265625">
        <ele>1860</ele>
        <time>2026-06-20T09:25:58.000Z</time>
        <extensions>
          <ns3:TrackPointExtension>
            <ns3:atemp>27.0</ns3:atemp>
          </ns3:TrackPointExtension>
        </extensions>
      </trkpt>
      <trkpt lat="42.5195308215916156768798828125" lon="20.1580045558512210845947265625">
        <ele>1860</ele>
        <time>2026-06-20T09:25:59.000Z</time>
        <extensions>
          <ns3:TrackPointExtension>
            <ns3:atemp>27.0</ns3:atemp>
          </ns3:TrackPointExtension>
        </extensions>
      </trkpt>
      <trkpt lat="42.5195308215916156768798828125" lon="20.1580045558512210845947265625">
        <ele>1860</ele>
        <time>2026-06-20T09:26:00.000Z</time>
        <extensions>
          <ns3:TrackPointExtension>
            <ns3:atemp>27.0</ns3:atemp>
          </ns3:TrackPointExtension>
        </extensions>
      </trkpt>
      <trkpt lat="42.5195308215916156768798828125" lon="20.1580045558512210845947265625">
        <ele>1860</ele>
        <time>2026-06-20T09:26:01.000Z</time>
        <extensions>
          <ns3:TrackPointExtension>
            <ns3:atemp>27.0</ns3:atemp>
          </ns3:TrackPointExtension>
        </extensions>
      </trkpt>
      <trkpt lat="42.51952906139194965362548828125" lon="20.15800111927092075347900390625">
        <ele>1860</ele>
        <time>2026-06-20T09:26:02.000Z</time>
        <extensions>
          <ns3:TrackPointExtension>
            <ns3:atemp>27.0</ns3:atemp>
          </ns3:TrackPointExtension>
        </extensions>
      </trkpt>
      <trkpt lat="42.5195227749645709991455078125" lon="20.15800170600414276123046875">
        <ele>1860</ele>
        <time>2026-06-20T09:26:03.000Z</time>
        <extensions>
          <ns3:TrackPointExtension>
            <ns3:atemp>27.0</ns3:atemp>
          </ns3:TrackPointExtension>
        </extensions>
      </trkpt>
      <trkpt lat="42.5195308215916156768798828125" lon="20.1580045558512210845947265625">
        <ele>1860</ele>
        <time>2026-06-20T09:26:04.000Z</time>
        <extensions>
          <ns3:TrackPointExtension>
            <ns3:atemp>27.0</ns3:atemp>
          </ns3:TrackPointExtension>
        </extensions>
      </trkpt>
      <trkpt lat="42.5195308215916156768798828125" lon="20.1580045558512210845947265625">
        <ele>1860</ele>
        <time>2026-06-20T09:26:05.000Z</time>
        <extensions>
          <ns3:TrackPointExtension>
            <ns3:atemp>27.0</ns3:atemp>
          </ns3:TrackPointExtension>
        </extensions>
      </trkpt>
      <trkpt lat="42.5195308215916156768798828125" lon="20.1580045558512210845947265625">
        <ele>1860</ele>
        <time>2026-06-20T09:26:06.000Z</time>
        <extensions>
          <ns3:TrackPointExtension>
            <ns3:atemp>27.0</ns3:atemp>
          </ns3:TrackPointExtension>
        </extensions>
      </trkpt>
      <trkpt lat="42.5195308215916156768798828125" lon="20.1580045558512210845947265625">
        <ele>1860</ele>
        <time>2026-06-20T09:26:07.000Z</time>
        <extensions>
          <ns3:TrackPointExtension>
            <ns3:atemp>27.0</ns3:atemp>
          </ns3:TrackPointExtension>
        </extensions>
      </trkpt>
      <trkpt lat="42.5195308215916156768798828125" lon="20.1580045558512210845947265625">
        <ele>1860</ele>
        <time>2026-06-20T09:26:08.000Z</time>
        <extensions>
          <ns3:TrackPointExtension>
            <ns3:atemp>27.0</ns3:atemp>
          </ns3:TrackPointExtension>
        </extensions>
      </trkpt>
      <trkpt lat="42.5195308215916156768798828125" lon="20.1580045558512210845947265625">
        <ele>1860</ele>
        <time>2026-06-20T09:26:09.000Z</time>
        <extensions>
          <ns3:TrackPointExtension>
            <ns3:atemp>27.0</ns3:atemp>
          </ns3:TrackPointExtension>
        </extensions>
      </trkpt>
      <trkpt lat="42.5195308215916156768798828125" lon="20.1580045558512210845947265625">
        <ele>1860</ele>
        <time>2026-06-20T09:26:10.000Z</time>
        <extensions>
          <ns3:TrackPointExtension>
            <ns3:atemp>27.0</ns3:atemp>
          </ns3:TrackPointExtension>
        </extensions>
      </trkpt>
      <trkpt lat="42.5195308215916156768798828125" lon="20.1580045558512210845947265625">
        <ele>1860</ele>
        <time>2026-06-20T09:26:11.000Z</time>
        <extensions>
          <ns3:TrackPointExtension>
            <ns3:atemp>27.0</ns3:atemp>
          </ns3:TrackPointExtension>
        </extensions>
      </trkpt>
      <trkpt lat="42.5195308215916156768798828125" lon="20.1580045558512210845947265625">
        <ele>1860</ele>
        <time>2026-06-20T09:26:12.000Z</time>
        <extensions>
          <ns3:TrackPointExtension>
            <ns3:atemp>27.0</ns3:atemp>
          </ns3:TrackPointExtension>
        </extensions>
      </trkpt>
      <trkpt lat="42.5195308215916156768798828125" lon="20.1580045558512210845947265625">
        <ele>1860</ele>
        <time>2026-06-20T09:26:13.000Z</time>
        <extensions>
          <ns3:TrackPointExtension>
            <ns3:atemp>27.0</ns3:atemp>
          </ns3:TrackPointExtension>
        </extensions>
      </trkpt>
      <trkpt lat="42.5195308215916156768798828125" lon="20.1580045558512210845947265625">
        <ele>1860</ele>
        <time>2026-06-20T09:26:14.000Z</time>
        <extensions>
          <ns3:TrackPointExtension>
            <ns3:atemp>27.0</ns3:atemp>
          </ns3:TrackPointExtension>
        </extensions>
      </trkpt>
      <trkpt lat="42.5195308215916156768798828125" lon="20.1580045558512210845947265625">
        <ele>1860</ele>
        <time>2026-06-20T09:26:15.000Z</time>
        <extensions>
          <ns3:TrackPointExtension>
            <ns3:atemp>27.0</ns3:atemp>
          </ns3:TrackPointExtension>
        </extensions>
      </trkpt>
      <trkpt lat="42.5195308215916156768798828125" lon="20.1580045558512210845947265625">
        <ele>1860</ele>
        <time>2026-06-20T09:26:16.000Z</time>
        <extensions>
          <ns3:TrackPointExtension>
            <ns3:atemp>27.0</ns3:atemp>
          </ns3:TrackPointExtension>
        </extensions>
      </trkpt>
      <trkpt lat="42.5195308215916156768798828125" lon="20.1580045558512210845947265625">
        <ele>1860</ele>
        <time>2026-06-20T09:26:17.000Z</time>
        <extensions>
          <ns3:TrackPointExtension>
            <ns3:atemp>27.0</ns3:atemp>
          </ns3:TrackPointExtension>
        </extensions>
      </trkpt>
      <trkpt lat="42.5195308215916156768798828125" lon="20.1580045558512210845947265625">
        <ele>1860</ele>
        <time>2026-06-20T09:26:18.000Z</time>
        <extensions>
          <ns3:TrackPointExtension>
            <ns3:atemp>27.0</ns3:atemp>
          </ns3:TrackPointExtension>
        </extensions>
      </trkpt>
      <trkpt lat="42.5195308215916156768798828125" lon="20.1580045558512210845947265625">
        <ele>1860</ele>
        <time>2026-06-20T09:26:19.000Z</time>
        <extensions>
          <ns3:TrackPointExtension>
            <ns3:atemp>27.0</ns3:atemp>
          </ns3:TrackPointExtension>
        </extensions>
      </trkpt>
      <trkpt lat="42.5195308215916156768798828125" lon="20.1580045558512210845947265625">
        <ele>1860</ele>
        <time>2026-06-20T09:26:20.000Z</time>
        <extensions>
          <ns3:TrackPointExtension>
            <ns3:atemp>27.0</ns3:atemp>
          </ns3:TrackPointExtension>
        </extensions>
      </trkpt>
      <trkpt lat="42.5195308215916156768798828125" lon="20.1580045558512210845947265625">
        <ele>1860</ele>
        <time>2026-06-20T09:26:21.000Z</time>
        <extensions>
          <ns3:TrackPointExtension>
            <ns3:atemp>27.0</ns3:atemp>
          </ns3:TrackPointExtension>
        </extensions>
      </trkpt>
      <trkpt lat="42.5195308215916156768798828125" lon="20.1580045558512210845947265625">
        <ele>1860</ele>
        <time>2026-06-20T09:26:22.000Z</time>
        <extensions>
          <ns3:TrackPointExtension>
            <ns3:atemp>27.0</ns3:atemp>
          </ns3:TrackPointExtension>
        </extensions>
      </trkpt>
      <trkpt lat="42.5195308215916156768798828125" lon="20.1580045558512210845947265625">
        <ele>1860</ele>
        <time>2026-06-20T09:26:23.000Z</time>
        <extensions>
          <ns3:TrackPointExtension>
            <ns3:atemp>27.0</ns3:atemp>
          </ns3:TrackPointExtension>
        </extensions>
      </trkpt>
      <trkpt lat="42.5195308215916156768798828125" lon="20.1580045558512210845947265625">
        <ele>1860</ele>
        <time>2026-06-20T09:26:24.000Z</time>
        <extensions>
          <ns3:TrackPointExtension>
            <ns3:atemp>27.0</ns3:atemp>
          </ns3:TrackPointExtension>
        </extensions>
      </trkpt>
      <trkpt lat="42.5195308215916156768798828125" lon="20.1580045558512210845947265625">
        <ele>1860</ele>
        <time>2026-06-20T09:26:25.000Z</time>
        <extensions>
          <ns3:TrackPointExtension>
            <ns3:atemp>27.0</ns3:atemp>
          </ns3:TrackPointExtension>
        </extensions>
      </trkpt>
      <trkpt lat="42.5195308215916156768798828125" lon="20.1580045558512210845947265625">
        <ele>1860</ele>
        <time>2026-06-20T09:26:26.000Z</time>
        <extensions>
          <ns3:TrackPointExtension>
            <ns3:atemp>27.0</ns3:atemp>
          </ns3:TrackPointExtension>
        </extensions>
      </trkpt>
      <trkpt lat="42.5195308215916156768798828125" lon="20.1580045558512210845947265625">
        <ele>1860</ele>
        <time>2026-06-20T09:26:27.000Z</time>
        <extensions>
          <ns3:TrackPointExtension>
            <ns3:atemp>27.0</ns3:atemp>
          </ns3:TrackPointExtension>
        </extensions>
      </trkpt>
      <trkpt lat="42.5195308215916156768798828125" lon="20.1580045558512210845947265625">
        <ele>1860</ele>
        <time>2026-06-20T09:26:28.000Z</time>
        <extensions>
          <ns3:TrackPointExtension>
            <ns3:atemp>26.0</ns3:atemp>
          </ns3:TrackPointExtension>
        </extensions>
      </trkpt>
      <trkpt lat="42.5195308215916156768798828125" lon="20.1580045558512210845947265625">
        <ele>1860</ele>
        <time>2026-06-20T09:26:29.000Z</time>
        <extensions>
          <ns3:TrackPointExtension>
            <ns3:atemp>26.0</ns3:atemp>
          </ns3:TrackPointExtension>
        </extensions>
      </trkpt>
      <trkpt lat="42.5195308215916156768798828125" lon="20.1580045558512210845947265625">
        <ele>1860</ele>
        <time>2026-06-20T09:26:30.000Z</time>
        <extensions>
          <ns3:TrackPointExtension>
            <ns3:atemp>26.0</ns3:atemp>
          </ns3:TrackPointExtension>
        </extensions>
      </trkpt>
      <trkpt lat="42.5195308215916156768798828125" lon="20.1580045558512210845947265625">
        <ele>1860</ele>
        <time>2026-06-20T09:26:31.000Z</time>
        <extensions>
          <ns3:TrackPointExtension>
            <ns3:atemp>26.0</ns3:atemp>
          </ns3:TrackPointExtension>
        </extensions>
      </trkpt>
      <trkpt lat="42.5195308215916156768798828125" lon="20.1580045558512210845947265625">
        <ele>1860</ele>
        <time>2026-06-20T09:26:32.000Z</time>
        <extensions>
          <ns3:TrackPointExtension>
            <ns3:atemp>26.0</ns3:atemp>
          </ns3:TrackPointExtension>
        </extensions>
      </trkpt>
      <trkpt lat="42.5195308215916156768798828125" lon="20.1580045558512210845947265625">
        <ele>1860</ele>
        <time>2026-06-20T09:26:33.000Z</time>
        <extensions>
          <ns3:TrackPointExtension>
            <ns3:atemp>26.0</ns3:atemp>
          </ns3:TrackPointExtension>
        </extensions>
      </trkpt>
      <trkpt lat="42.5195308215916156768798828125" lon="20.1580045558512210845947265625">
        <ele>1860</ele>
        <time>2026-06-20T09:26:34.000Z</time>
        <extensions>
          <ns3:TrackPointExtension>
            <ns3:atemp>26.0</ns3:atemp>
          </ns3:TrackPointExtension>
        </extensions>
      </trkpt>
      <trkpt lat="42.5195308215916156768798828125" lon="20.1580045558512210845947265625">
        <ele>1860</ele>
        <time>2026-06-20T09:26:35.000Z</time>
        <extensions>
          <ns3:TrackPointExtension>
            <ns3:atemp>26.0</ns3:atemp>
          </ns3:TrackPointExtension>
        </extensions>
      </trkpt>
      <trkpt lat="42.5195308215916156768798828125" lon="20.1580045558512210845947265625">
        <ele>1860</ele>
        <time>2026-06-20T09:26:36.000Z</time>
        <extensions>
          <ns3:TrackPointExtension>
            <ns3:atemp>26.0</ns3:atemp>
          </ns3:TrackPointExtension>
        </extensions>
      </trkpt>
      <trkpt lat="42.5195308215916156768798828125" lon="20.1580045558512210845947265625">
        <ele>1860</ele>
        <time>2026-06-20T09:26:37.000Z</time>
        <extensions>
          <ns3:TrackPointExtension>
            <ns3:atemp>26.0</ns3:atemp>
          </ns3:TrackPointExtension>
        </extensions>
      </trkpt>
      <trkpt lat="42.5195308215916156768798828125" lon="20.1580045558512210845947265625">
        <ele>1860</ele>
        <time>2026-06-20T09:26:38.000Z</time>
        <extensions>
          <ns3:TrackPointExtension>
            <ns3:atemp>26.0</ns3:atemp>
          </ns3:TrackPointExtension>
        </extensions>
      </trkpt>
      <trkpt lat="42.5195308215916156768798828125" lon="20.1580045558512210845947265625">
        <ele>1860</ele>
        <time>2026-06-20T09:26:39.000Z</time>
        <extensions>
          <ns3:TrackPointExtension>
            <ns3:atemp>26.0</ns3:atemp>
          </ns3:TrackPointExtension>
        </extensions>
      </trkpt>
      <trkpt lat="42.5195308215916156768798828125" lon="20.1580045558512210845947265625">
        <ele>1860</ele>
        <time>2026-06-20T09:26:40.000Z</time>
        <extensions>
          <ns3:TrackPointExtension>
            <ns3:atemp>26.0</ns3:atemp>
          </ns3:TrackPointExtension>
        </extensions>
      </trkpt>
      <trkpt lat="42.5195308215916156768798828125" lon="20.1580045558512210845947265625">
        <ele>1860</ele>
        <time>2026-06-20T09:26:41.000Z</time>
        <extensions>
          <ns3:TrackPointExtension>
            <ns3:atemp>26.0</ns3:atemp>
          </ns3:TrackPointExtension>
        </extensions>
      </trkpt>
      <trkpt lat="42.5195308215916156768798828125" lon="20.1580045558512210845947265625">
        <ele>1860</ele>
        <time>2026-06-20T09:26:42.000Z</time>
        <extensions>
          <ns3:TrackPointExtension>
            <ns3:atemp>26.0</ns3:atemp>
          </ns3:TrackPointExtension>
        </extensions>
      </trkpt>
      <trkpt lat="42.5195308215916156768798828125" lon="20.1580045558512210845947265625">
        <ele>1860</ele>
        <time>2026-06-20T09:26:43.000Z</time>
        <extensions>
          <ns3:TrackPointExtension>
            <ns3:atemp>26.0</ns3:atemp>
          </ns3:TrackPointExtension>
        </extensions>
      </trkpt>
      <trkpt lat="42.5195308215916156768798828125" lon="20.1580045558512210845947265625">
        <ele>1860</ele>
        <time>2026-06-20T09:26:44.000Z</time>
        <extensions>
          <ns3:TrackPointExtension>
            <ns3:atemp>26.0</ns3:atemp>
          </ns3:TrackPointExtension>
        </extensions>
      </trkpt>
      <trkpt lat="42.5195308215916156768798828125" lon="20.1580045558512210845947265625">
        <ele>1860</ele>
        <time>2026-06-20T09:26:45.000Z</time>
        <extensions>
          <ns3:TrackPointExtension>
            <ns3:atemp>26.0</ns3:atemp>
          </ns3:TrackPointExtension>
        </extensions>
      </trkpt>
      <trkpt lat="42.5195308215916156768798828125" lon="20.1580045558512210845947265625">
        <ele>1860</ele>
        <time>2026-06-20T09:26:46.000Z</time>
        <extensions>
          <ns3:TrackPointExtension>
            <ns3:atemp>26.0</ns3:atemp>
          </ns3:TrackPointExtension>
        </extensions>
      </trkpt>
      <trkpt lat="42.5195308215916156768798828125" lon="20.1580045558512210845947265625">
        <ele>1860</ele>
        <time>2026-06-20T09:26:47.000Z</time>
        <extensions>
          <ns3:TrackPointExtension>
            <ns3:atemp>26.0</ns3:atemp>
          </ns3:TrackPointExtension>
        </extensions>
      </trkpt>
      <trkpt lat="42.5195308215916156768798828125" lon="20.1580045558512210845947265625">
        <ele>1860</ele>
        <time>2026-06-20T09:26:48.000Z</time>
        <extensions>
          <ns3:TrackPointExtension>
            <ns3:atemp>26.0</ns3:atemp>
          </ns3:TrackPointExtension>
        </extensions>
      </trkpt>
      <trkpt lat="42.5195308215916156768798828125" lon="20.1580045558512210845947265625">
        <ele>1860</ele>
        <time>2026-06-20T09:26:49.000Z</time>
        <extensions>
          <ns3:TrackPointExtension>
            <ns3:atemp>26.0</ns3:atemp>
          </ns3:TrackPointExtension>
        </extensions>
      </trkpt>
      <trkpt lat="42.5195308215916156768798828125" lon="20.1580045558512210845947265625">
        <ele>1860</ele>
        <time>2026-06-20T09:26:50.000Z</time>
        <extensions>
          <ns3:TrackPointExtension>
            <ns3:atemp>26.0</ns3:atemp>
          </ns3:TrackPointExtension>
        </extensions>
      </trkpt>
      <trkpt lat="42.5195308215916156768798828125" lon="20.1580045558512210845947265625">
        <ele>1860</ele>
        <time>2026-06-20T09:26:51.000Z</time>
        <extensions>
          <ns3:TrackPointExtension>
            <ns3:atemp>26.0</ns3:atemp>
          </ns3:TrackPointExtension>
        </extensions>
      </trkpt>
      <trkpt lat="42.5195308215916156768798828125" lon="20.1580045558512210845947265625">
        <ele>1860</ele>
        <time>2026-06-20T09:26:52.000Z</time>
        <extensions>
          <ns3:TrackPointExtension>
            <ns3:atemp>26.0</ns3:atemp>
          </ns3:TrackPointExtension>
        </extensions>
      </trkpt>
      <trkpt lat="42.5195308215916156768798828125" lon="20.1580045558512210845947265625">
        <ele>1860</ele>
        <time>2026-06-20T09:26:53.000Z</time>
        <extensions>
          <ns3:TrackPointExtension>
            <ns3:atemp>26.0</ns3:atemp>
          </ns3:TrackPointExtension>
        </extensions>
      </trkpt>
      <trkpt lat="42.5195308215916156768798828125" lon="20.1580045558512210845947265625">
        <ele>1860</ele>
        <time>2026-06-20T09:26:54.000Z</time>
        <extensions>
          <ns3:TrackPointExtension>
            <ns3:atemp>26.0</ns3:atemp>
          </ns3:TrackPointExtension>
        </extensions>
      </trkpt>
      <trkpt lat="42.5195308215916156768798828125" lon="20.1580045558512210845947265625">
        <ele>1860</ele>
        <time>2026-06-20T09:26:55.000Z</time>
        <extensions>
          <ns3:TrackPointExtension>
            <ns3:atemp>26.0</ns3:atemp>
          </ns3:TrackPointExtension>
        </extensions>
      </trkpt>
      <trkpt lat="42.5195308215916156768798828125" lon="20.1580045558512210845947265625">
        <ele>1860</ele>
        <time>2026-06-20T09:26:56.000Z</time>
        <extensions>
          <ns3:TrackPointExtension>
            <ns3:atemp>26.0</ns3:atemp>
          </ns3:TrackPointExtension>
        </extensions>
      </trkpt>
      <trkpt lat="42.5195308215916156768798828125" lon="20.1580045558512210845947265625">
        <ele>1860</ele>
        <time>2026-06-20T09:26:57.000Z</time>
        <extensions>
          <ns3:TrackPointExtension>
            <ns3:atemp>26.0</ns3:atemp>
          </ns3:TrackPointExtension>
        </extensions>
      </trkpt>
      <trkpt lat="42.5195308215916156768798828125" lon="20.1580045558512210845947265625">
        <ele>1860</ele>
        <time>2026-06-20T09:26:58.000Z</time>
        <extensions>
          <ns3:TrackPointExtension>
            <ns3:atemp>26.0</ns3:atemp>
          </ns3:TrackPointExtension>
        </extensions>
      </trkpt>
      <trkpt lat="42.5195308215916156768798828125" lon="20.1580045558512210845947265625">
        <ele>1860</ele>
        <time>2026-06-20T09:26:59.000Z</time>
        <extensions>
          <ns3:TrackPointExtension>
            <ns3:atemp>26.0</ns3:atemp>
          </ns3:TrackPointExtension>
        </extensions>
      </trkpt>
      <trkpt lat="42.5195308215916156768798828125" lon="20.1580045558512210845947265625">
        <ele>1860</ele>
        <time>2026-06-20T09:27:00.000Z</time>
        <extensions>
          <ns3:TrackPointExtension>
            <ns3:atemp>26.0</ns3:atemp>
          </ns3:TrackPointExtension>
        </extensions>
      </trkpt>
      <trkpt lat="42.5195308215916156768798828125" lon="20.1580045558512210845947265625">
        <ele>1860</ele>
        <time>2026-06-20T09:27:01.000Z</time>
        <extensions>
          <ns3:TrackPointExtension>
            <ns3:atemp>26.0</ns3:atemp>
          </ns3:TrackPointExtension>
        </extensions>
      </trkpt>
      <trkpt lat="42.5195308215916156768798828125" lon="20.1580045558512210845947265625">
        <ele>1860</ele>
        <time>2026-06-20T09:27:02.000Z</time>
        <extensions>
          <ns3:TrackPointExtension>
            <ns3:atemp>26.0</ns3:atemp>
          </ns3:TrackPointExtension>
        </extensions>
      </trkpt>
      <trkpt lat="42.5195308215916156768798828125" lon="20.1580045558512210845947265625">
        <ele>1860</ele>
        <time>2026-06-20T09:27:03.000Z</time>
        <extensions>
          <ns3:TrackPointExtension>
            <ns3:atemp>26.0</ns3:atemp>
          </ns3:TrackPointExtension>
        </extensions>
      </trkpt>
      <trkpt lat="42.5195308215916156768798828125" lon="20.1580045558512210845947265625">
        <ele>1860</ele>
        <time>2026-06-20T09:27:04.000Z</time>
        <extensions>
          <ns3:TrackPointExtension>
            <ns3:atemp>26.0</ns3:atemp>
          </ns3:TrackPointExtension>
        </extensions>
      </trkpt>
      <trkpt lat="42.5195308215916156768798828125" lon="20.1580045558512210845947265625">
        <ele>1860</ele>
        <time>2026-06-20T09:27:05.000Z</time>
        <extensions>
          <ns3:TrackPointExtension>
            <ns3:atemp>26.0</ns3:atemp>
          </ns3:TrackPointExtension>
        </extensions>
      </trkpt>
      <trkpt lat="42.5195308215916156768798828125" lon="20.1580045558512210845947265625">
        <ele>1860</ele>
        <time>2026-06-20T09:27:06.000Z</time>
        <extensions>
          <ns3:TrackPointExtension>
            <ns3:atemp>26.0</ns3:atemp>
          </ns3:TrackPointExtension>
        </extensions>
      </trkpt>
      <trkpt lat="42.5195308215916156768798828125" lon="20.1580045558512210845947265625">
        <ele>1860</ele>
        <time>2026-06-20T09:27:07.000Z</time>
        <extensions>
          <ns3:TrackPointExtension>
            <ns3:atemp>26.0</ns3:atemp>
          </ns3:TrackPointExtension>
        </extensions>
      </trkpt>
      <trkpt lat="42.5195308215916156768798828125" lon="20.1580045558512210845947265625">
        <ele>1860</ele>
        <time>2026-06-20T09:27:08.000Z</time>
        <extensions>
          <ns3:TrackPointExtension>
            <ns3:atemp>26.0</ns3:atemp>
          </ns3:TrackPointExtension>
        </extensions>
      </trkpt>
      <trkpt lat="42.5195308215916156768798828125" lon="20.1580045558512210845947265625">
        <ele>1860</ele>
        <time>2026-06-20T09:27:09.000Z</time>
        <extensions>
          <ns3:TrackPointExtension>
            <ns3:atemp>26.0</ns3:atemp>
          </ns3:TrackPointExtension>
        </extensions>
      </trkpt>
      <trkpt lat="42.5195308215916156768798828125" lon="20.1580045558512210845947265625">
        <ele>1860</ele>
        <time>2026-06-20T09:27:10.000Z</time>
        <extensions>
          <ns3:TrackPointExtension>
            <ns3:atemp>26.0</ns3:atemp>
          </ns3:TrackPointExtension>
        </extensions>
      </trkpt>
      <trkpt lat="42.5195308215916156768798828125" lon="20.1580045558512210845947265625">
        <ele>1860</ele>
        <time>2026-06-20T09:27:11.000Z</time>
        <extensions>
          <ns3:TrackPointExtension>
            <ns3:atemp>26.0</ns3:atemp>
          </ns3:TrackPointExtension>
        </extensions>
      </trkpt>
      <trkpt lat="42.5195308215916156768798828125" lon="20.1580045558512210845947265625">
        <ele>1860</ele>
        <time>2026-06-20T09:27:12.000Z</time>
        <extensions>
          <ns3:TrackPointExtension>
            <ns3:atemp>26.0</ns3:atemp>
          </ns3:TrackPointExtension>
        </extensions>
      </trkpt>
      <trkpt lat="42.5195308215916156768798828125" lon="20.1580045558512210845947265625">
        <ele>1860</ele>
        <time>2026-06-20T09:27:13.000Z</time>
        <extensions>
          <ns3:TrackPointExtension>
            <ns3:atemp>26.0</ns3:atemp>
          </ns3:TrackPointExtension>
        </extensions>
      </trkpt>
      <trkpt lat="42.5195308215916156768798828125" lon="20.1580045558512210845947265625">
        <ele>1860</ele>
        <time>2026-06-20T09:27:14.000Z</time>
        <extensions>
          <ns3:TrackPointExtension>
            <ns3:atemp>26.0</ns3:atemp>
          </ns3:TrackPointExtension>
        </extensions>
      </trkpt>
      <trkpt lat="42.5195308215916156768798828125" lon="20.1580045558512210845947265625">
        <ele>1860</ele>
        <time>2026-06-20T09:27:15.000Z</time>
        <extensions>
          <ns3:TrackPointExtension>
            <ns3:atemp>26.0</ns3:atemp>
          </ns3:TrackPointExtension>
        </extensions>
      </trkpt>
      <trkpt lat="42.5195308215916156768798828125" lon="20.1580045558512210845947265625">
        <ele>1860</ele>
        <time>2026-06-20T09:27:16.000Z</time>
        <extensions>
          <ns3:TrackPointExtension>
            <ns3:atemp>26.0</ns3:atemp>
          </ns3:TrackPointExtension>
        </extensions>
      </trkpt>
      <trkpt lat="42.5195308215916156768798828125" lon="20.1580045558512210845947265625">
        <ele>1860</ele>
        <time>2026-06-20T09:27:17.000Z</time>
        <extensions>
          <ns3:TrackPointExtension>
            <ns3:atemp>26.0</ns3:atemp>
          </ns3:TrackPointExtension>
        </extensions>
      </trkpt>
      <trkpt lat="42.5195308215916156768798828125" lon="20.1580045558512210845947265625">
        <ele>1860</ele>
        <time>2026-06-20T09:27:18.000Z</time>
        <extensions>
          <ns3:TrackPointExtension>
            <ns3:atemp>26.0</ns3:atemp>
          </ns3:TrackPointExtension>
        </extensions>
      </trkpt>
      <trkpt lat="42.5195308215916156768798828125" lon="20.1580045558512210845947265625">
        <ele>1860</ele>
        <time>2026-06-20T09:27:19.000Z</time>
        <extensions>
          <ns3:TrackPointExtension>
            <ns3:atemp>26.0</ns3:atemp>
          </ns3:TrackPointExtension>
        </extensions>
      </trkpt>
      <trkpt lat="42.5195308215916156768798828125" lon="20.1580045558512210845947265625">
        <ele>1860</ele>
        <time>2026-06-20T09:27:20.000Z</time>
        <extensions>
          <ns3:TrackPointExtension>
            <ns3:atemp>26.0</ns3:atemp>
          </ns3:TrackPointExtension>
        </extensions>
      </trkpt>
      <trkpt lat="42.5195308215916156768798828125" lon="20.1580045558512210845947265625">
        <ele>1860</ele>
        <time>2026-06-20T09:27:21.000Z</time>
        <extensions>
          <ns3:TrackPointExtension>
            <ns3:atemp>26.0</ns3:atemp>
          </ns3:TrackPointExtension>
        </extensions>
      </trkpt>
      <trkpt lat="42.5195308215916156768798828125" lon="20.1580045558512210845947265625">
        <ele>1860</ele>
        <time>2026-06-20T09:27:22.000Z</time>
        <extensions>
          <ns3:TrackPointExtension>
            <ns3:atemp>26.0</ns3:atemp>
          </ns3:TrackPointExtension>
        </extensions>
      </trkpt>
      <trkpt lat="42.5195308215916156768798828125" lon="20.1580045558512210845947265625">
        <ele>1860</ele>
        <time>2026-06-20T09:27:23.000Z</time>
        <extensions>
          <ns3:TrackPointExtension>
            <ns3:atemp>26.0</ns3:atemp>
          </ns3:TrackPointExtension>
        </extensions>
      </trkpt>
      <trkpt lat="42.5195308215916156768798828125" lon="20.1580045558512210845947265625">
        <ele>1860</ele>
        <time>2026-06-20T09:27:24.000Z</time>
        <extensions>
          <ns3:TrackPointExtension>
            <ns3:atemp>26.0</ns3:atemp>
          </ns3:TrackPointExtension>
        </extensions>
      </trkpt>
      <trkpt lat="42.5195308215916156768798828125" lon="20.1580045558512210845947265625">
        <ele>1860</ele>
        <time>2026-06-20T09:27:25.000Z</time>
        <extensions>
          <ns3:TrackPointExtension>
            <ns3:atemp>26.0</ns3:atemp>
          </ns3:TrackPointExtension>
        </extensions>
      </trkpt>
      <trkpt lat="42.5195308215916156768798828125" lon="20.1580045558512210845947265625">
        <ele>1860</ele>
        <time>2026-06-20T09:27:26.000Z</time>
        <extensions>
          <ns3:TrackPointExtension>
            <ns3:atemp>26.0</ns3:atemp>
          </ns3:TrackPointExtension>
        </extensions>
      </trkpt>
      <trkpt lat="42.5195308215916156768798828125" lon="20.1580045558512210845947265625">
        <ele>1860</ele>
        <time>2026-06-20T09:27:27.000Z</time>
        <extensions>
          <ns3:TrackPointExtension>
            <ns3:atemp>26.0</ns3:atemp>
          </ns3:TrackPointExtension>
        </extensions>
      </trkpt>
      <trkpt lat="42.5195308215916156768798828125" lon="20.1580045558512210845947265625">
        <ele>1860</ele>
        <time>2026-06-20T09:27:28.000Z</time>
        <extensions>
          <ns3:TrackPointExtension>
            <ns3:atemp>26.0</ns3:atemp>
          </ns3:TrackPointExtension>
        </extensions>
      </trkpt>
      <trkpt lat="42.5195308215916156768798828125" lon="20.1580045558512210845947265625">
        <ele>1860</ele>
        <time>2026-06-20T09:27:29.000Z</time>
        <extensions>
          <ns3:TrackPointExtension>
            <ns3:atemp>26.0</ns3:atemp>
          </ns3:TrackPointExtension>
        </extensions>
      </trkpt>
      <trkpt lat="42.5195308215916156768798828125" lon="20.1580045558512210845947265625">
        <ele>1860</ele>
        <time>2026-06-20T09:27:30.000Z</time>
        <extensions>
          <ns3:TrackPointExtension>
            <ns3:atemp>26.0</ns3:atemp>
          </ns3:TrackPointExtension>
        </extensions>
      </trkpt>
      <trkpt lat="42.5195308215916156768798828125" lon="20.1580045558512210845947265625">
        <ele>1860</ele>
        <time>2026-06-20T09:27:31.000Z</time>
        <extensions>
          <ns3:TrackPointExtension>
            <ns3:atemp>26.0</ns3:atemp>
          </ns3:TrackPointExtension>
        </extensions>
      </trkpt>
      <trkpt lat="42.5195308215916156768798828125" lon="20.1580045558512210845947265625">
        <ele>1860</ele>
        <time>2026-06-20T09:27:32.000Z</time>
        <extensions>
          <ns3:TrackPointExtension>
            <ns3:atemp>26.0</ns3:atemp>
          </ns3:TrackPointExtension>
        </extensions>
      </trkpt>
      <trkpt lat="42.5195308215916156768798828125" lon="20.1580045558512210845947265625">
        <ele>1860</ele>
        <time>2026-06-20T09:27:33.000Z</time>
        <extensions>
          <ns3:TrackPointExtension>
            <ns3:atemp>26.0</ns3:atemp>
          </ns3:TrackPointExtension>
        </extensions>
      </trkpt>
      <trkpt lat="42.5195308215916156768798828125" lon="20.1580045558512210845947265625">
        <ele>1860</ele>
        <time>2026-06-20T09:27:34.000Z</time>
        <extensions>
          <ns3:TrackPointExtension>
            <ns3:atemp>26.0</ns3:atemp>
          </ns3:TrackPointExtension>
        </extensions>
      </trkpt>
      <trkpt lat="42.5195308215916156768798828125" lon="20.1580045558512210845947265625">
        <ele>1860</ele>
        <time>2026-06-20T09:27:35.000Z</time>
        <extensions>
          <ns3:TrackPointExtension>
            <ns3:atemp>26.0</ns3:atemp>
          </ns3:TrackPointExtension>
        </extensions>
      </trkpt>
      <trkpt lat="42.5195308215916156768798828125" lon="20.1580045558512210845947265625">
        <ele>1860</ele>
        <time>2026-06-20T09:27:36.000Z</time>
        <extensions>
          <ns3:TrackPointExtension>
            <ns3:atemp>26.0</ns3:atemp>
          </ns3:TrackPointExtension>
        </extensions>
      </trkpt>
      <trkpt lat="42.5195308215916156768798828125" lon="20.1580045558512210845947265625">
        <ele>1860</ele>
        <time>2026-06-20T09:27:37.000Z</time>
        <extensions>
          <ns3:TrackPointExtension>
            <ns3:atemp>26.0</ns3:atemp>
          </ns3:TrackPointExtension>
        </extensions>
      </trkpt>
      <trkpt lat="42.5195308215916156768798828125" lon="20.1580045558512210845947265625">
        <ele>1860</ele>
        <time>2026-06-20T09:27:38.000Z</time>
        <extensions>
          <ns3:TrackPointExtension>
            <ns3:atemp>26.0</ns3:atemp>
          </ns3:TrackPointExtension>
        </extensions>
      </trkpt>
      <trkpt lat="42.5195308215916156768798828125" lon="20.1580045558512210845947265625">
        <ele>1860</ele>
        <time>2026-06-20T09:27:39.000Z</time>
        <extensions>
          <ns3:TrackPointExtension>
            <ns3:atemp>26.0</ns3:atemp>
          </ns3:TrackPointExtension>
        </extensions>
      </trkpt>
      <trkpt lat="42.5195308215916156768798828125" lon="20.1580045558512210845947265625">
        <ele>1860</ele>
        <time>2026-06-20T09:27:40.000Z</time>
        <extensions>
          <ns3:TrackPointExtension>
            <ns3:atemp>26.0</ns3:atemp>
          </ns3:TrackPointExtension>
        </extensions>
      </trkpt>
      <trkpt lat="42.5195308215916156768798828125" lon="20.1580045558512210845947265625">
        <ele>1860</ele>
        <time>2026-06-20T09:27:41.000Z</time>
        <extensions>
          <ns3:TrackPointExtension>
            <ns3:atemp>26.0</ns3:atemp>
          </ns3:TrackPointExtension>
        </extensions>
      </trkpt>
      <trkpt lat="42.5195308215916156768798828125" lon="20.1580045558512210845947265625">
        <ele>1860</ele>
        <time>2026-06-20T09:27:42.000Z</time>
        <extensions>
          <ns3:TrackPointExtension>
            <ns3:atemp>26.0</ns3:atemp>
          </ns3:TrackPointExtension>
        </extensions>
      </trkpt>
      <trkpt lat="42.5195308215916156768798828125" lon="20.1580045558512210845947265625">
        <ele>1860</ele>
        <time>2026-06-20T09:27:43.000Z</time>
        <extensions>
          <ns3:TrackPointExtension>
            <ns3:atemp>26.0</ns3:atemp>
          </ns3:TrackPointExtension>
        </extensions>
      </trkpt>
      <trkpt lat="42.5195308215916156768798828125" lon="20.1580045558512210845947265625">
        <ele>1860</ele>
        <time>2026-06-20T09:27:44.000Z</time>
        <extensions>
          <ns3:TrackPointExtension>
            <ns3:atemp>26.0</ns3:atemp>
          </ns3:TrackPointExtension>
        </extensions>
      </trkpt>
      <trkpt lat="42.5195308215916156768798828125" lon="20.1580045558512210845947265625">
        <ele>1860</ele>
        <time>2026-06-20T09:27:45.000Z</time>
        <extensions>
          <ns3:TrackPointExtension>
            <ns3:atemp>26.0</ns3:atemp>
          </ns3:TrackPointExtension>
        </extensions>
      </trkpt>
      <trkpt lat="42.5195308215916156768798828125" lon="20.1580045558512210845947265625">
        <ele>1860</ele>
        <time>2026-06-20T09:27:46.000Z</time>
        <extensions>
          <ns3:TrackPointExtension>
            <ns3:atemp>26.0</ns3:atemp>
          </ns3:TrackPointExtension>
        </extensions>
      </trkpt>
      <trkpt lat="42.5195308215916156768798828125" lon="20.1580045558512210845947265625">
        <ele>1860</ele>
        <time>2026-06-20T09:27:47.000Z</time>
        <extensions>
          <ns3:TrackPointExtension>
            <ns3:atemp>26.0</ns3:atemp>
          </ns3:TrackPointExtension>
        </extensions>
      </trkpt>
      <trkpt lat="42.5195308215916156768798828125" lon="20.1580045558512210845947265625">
        <ele>1860</ele>
        <time>2026-06-20T09:27:48.000Z</time>
        <extensions>
          <ns3:TrackPointExtension>
            <ns3:atemp>26.0</ns3:atemp>
          </ns3:TrackPointExtension>
        </extensions>
      </trkpt>
      <trkpt lat="42.5195308215916156768798828125" lon="20.1580045558512210845947265625">
        <ele>1860</ele>
        <time>2026-06-20T09:27:49.000Z</time>
        <extensions>
          <ns3:TrackPointExtension>
            <ns3:atemp>26.0</ns3:atemp>
          </ns3:TrackPointExtension>
        </extensions>
      </trkpt>
      <trkpt lat="42.5195308215916156768798828125" lon="20.1580045558512210845947265625">
        <ele>1860</ele>
        <time>2026-06-20T09:27:50.000Z</time>
        <extensions>
          <ns3:TrackPointExtension>
            <ns3:atemp>26.0</ns3:atemp>
          </ns3:TrackPointExtension>
        </extensions>
      </trkpt>
      <trkpt lat="42.5195308215916156768798828125" lon="20.1580045558512210845947265625">
        <ele>1860</ele>
        <time>2026-06-20T09:27:51.000Z</time>
        <extensions>
          <ns3:TrackPointExtension>
            <ns3:atemp>26.0</ns3:atemp>
          </ns3:TrackPointExtension>
        </extensions>
      </trkpt>
      <trkpt lat="42.5195308215916156768798828125" lon="20.1580045558512210845947265625">
        <ele>1860</ele>
        <time>2026-06-20T09:27:52.000Z</time>
        <extensions>
          <ns3:TrackPointExtension>
            <ns3:atemp>26.0</ns3:atemp>
          </ns3:TrackPointExtension>
        </extensions>
      </trkpt>
      <trkpt lat="42.5195308215916156768798828125" lon="20.1580045558512210845947265625">
        <ele>1860</ele>
        <time>2026-06-20T09:27:53.000Z</time>
        <extensions>
          <ns3:TrackPointExtension>
            <ns3:atemp>26.0</ns3:atemp>
          </ns3:TrackPointExtension>
        </extensions>
      </trkpt>
      <trkpt lat="42.5195308215916156768798828125" lon="20.1580045558512210845947265625">
        <ele>1860</ele>
        <time>2026-06-20T09:27:54.000Z</time>
        <extensions>
          <ns3:TrackPointExtension>
            <ns3:atemp>26.0</ns3:atemp>
          </ns3:TrackPointExtension>
        </extensions>
      </trkpt>
      <trkpt lat="42.5195308215916156768798828125" lon="20.1580045558512210845947265625">
        <ele>1860</ele>
        <time>2026-06-20T09:27:55.000Z</time>
        <extensions>
          <ns3:TrackPointExtension>
            <ns3:atemp>26.0</ns3:atemp>
          </ns3:TrackPointExtension>
        </extensions>
      </trkpt>
      <trkpt lat="42.5195308215916156768798828125" lon="20.1580045558512210845947265625">
        <ele>1860</ele>
        <time>2026-06-20T09:27:56.000Z</time>
        <extensions>
          <ns3:TrackPointExtension>
            <ns3:atemp>26.0</ns3:atemp>
          </ns3:TrackPointExtension>
        </extensions>
      </trkpt>
      <trkpt lat="42.5195308215916156768798828125" lon="20.1580045558512210845947265625">
        <ele>1860</ele>
        <time>2026-06-20T09:27:57.000Z</time>
        <extensions>
          <ns3:TrackPointExtension>
            <ns3:atemp>26.0</ns3:atemp>
          </ns3:TrackPointExtension>
        </extensions>
      </trkpt>
      <trkpt lat="42.5195308215916156768798828125" lon="20.1580045558512210845947265625">
        <ele>1860</ele>
        <time>2026-06-20T09:27:58.000Z</time>
        <extensions>
          <ns3:TrackPointExtension>
            <ns3:atemp>26.0</ns3:atemp>
          </ns3:TrackPointExtension>
        </extensions>
      </trkpt>
      <trkpt lat="42.5195308215916156768798828125" lon="20.1580045558512210845947265625">
        <ele>1860</ele>
        <time>2026-06-20T09:27:59.000Z</time>
        <extensions>
          <ns3:TrackPointExtension>
            <ns3:atemp>26.0</ns3:atemp>
          </ns3:TrackPointExtension>
        </extensions>
      </trkpt>
      <trkpt lat="42.5195308215916156768798828125" lon="20.1580045558512210845947265625">
        <ele>1860</ele>
        <time>2026-06-20T09:28:00.000Z</time>
        <extensions>
          <ns3:TrackPointExtension>
            <ns3:atemp>26.0</ns3:atemp>
          </ns3:TrackPointExtension>
        </extensions>
      </trkpt>
      <trkpt lat="42.5195308215916156768798828125" lon="20.1580045558512210845947265625">
        <ele>1860</ele>
        <time>2026-06-20T09:28:01.000Z</time>
        <extensions>
          <ns3:TrackPointExtension>
            <ns3:atemp>26.0</ns3:atemp>
          </ns3:TrackPointExtension>
        </extensions>
      </trkpt>
      <trkpt lat="42.5195308215916156768798828125" lon="20.1580045558512210845947265625">
        <ele>1860</ele>
        <time>2026-06-20T09:28:02.000Z</time>
        <extensions>
          <ns3:TrackPointExtension>
            <ns3:atemp>26.0</ns3:atemp>
          </ns3:TrackPointExtension>
        </extensions>
      </trkpt>
      <trkpt lat="42.5195308215916156768798828125" lon="20.1580045558512210845947265625">
        <ele>1860</ele>
        <time>2026-06-20T09:28:03.000Z</time>
        <extensions>
          <ns3:TrackPointExtension>
            <ns3:atemp>26.0</ns3:atemp>
          </ns3:TrackPointExtension>
        </extensions>
      </trkpt>
      <trkpt lat="42.5195308215916156768798828125" lon="20.1580045558512210845947265625">
        <ele>1860</ele>
        <time>2026-06-20T09:28:04.000Z</time>
        <extensions>
          <ns3:TrackPointExtension>
            <ns3:atemp>26.0</ns3:atemp>
          </ns3:TrackPointExtension>
        </extensions>
      </trkpt>
      <trkpt lat="42.5195308215916156768798828125" lon="20.1580045558512210845947265625">
        <ele>1860</ele>
        <time>2026-06-20T09:28:05.000Z</time>
        <extensions>
          <ns3:TrackPointExtension>
            <ns3:atemp>26.0</ns3:atemp>
          </ns3:TrackPointExtension>
        </extensions>
      </trkpt>
      <trkpt lat="42.5195308215916156768798828125" lon="20.1580045558512210845947265625">
        <ele>1860</ele>
        <time>2026-06-20T09:28:06.000Z</time>
        <extensions>
          <ns3:TrackPointExtension>
            <ns3:atemp>26.0</ns3:atemp>
          </ns3:TrackPointExtension>
        </extensions>
      </trkpt>
      <trkpt lat="42.5195308215916156768798828125" lon="20.1580045558512210845947265625">
        <ele>1860</ele>
        <time>2026-06-20T09:28:07.000Z</time>
        <extensions>
          <ns3:TrackPointExtension>
            <ns3:atemp>26.0</ns3:atemp>
          </ns3:TrackPointExtension>
        </extensions>
      </trkpt>
      <trkpt lat="42.5195308215916156768798828125" lon="20.1580045558512210845947265625">
        <ele>1860</ele>
        <time>2026-06-20T09:28:08.000Z</time>
        <extensions>
          <ns3:TrackPointExtension>
            <ns3:atemp>26.0</ns3:atemp>
          </ns3:TrackPointExtension>
        </extensions>
      </trkpt>
      <trkpt lat="42.5195308215916156768798828125" lon="20.1580045558512210845947265625">
        <ele>1860</ele>
        <time>2026-06-20T09:28:09.000Z</time>
        <extensions>
          <ns3:TrackPointExtension>
            <ns3:atemp>26.0</ns3:atemp>
          </ns3:TrackPointExtension>
        </extensions>
      </trkpt>
      <trkpt lat="42.5195308215916156768798828125" lon="20.1580045558512210845947265625">
        <ele>1860</ele>
        <time>2026-06-20T09:28:10.000Z</time>
        <extensions>
          <ns3:TrackPointExtension>
            <ns3:atemp>26.0</ns3:atemp>
          </ns3:TrackPointExtension>
        </extensions>
      </trkpt>
      <trkpt lat="42.5195308215916156768798828125" lon="20.1580045558512210845947265625">
        <ele>1860</ele>
        <time>2026-06-20T09:28:11.000Z</time>
        <extensions>
          <ns3:TrackPointExtension>
            <ns3:atemp>26.0</ns3:atemp>
          </ns3:TrackPointExtension>
        </extensions>
      </trkpt>
      <trkpt lat="42.5195308215916156768798828125" lon="20.1580045558512210845947265625">
        <ele>1860</ele>
        <time>2026-06-20T09:28:12.000Z</time>
        <extensions>
          <ns3:TrackPointExtension>
            <ns3:atemp>26.0</ns3:atemp>
          </ns3:TrackPointExtension>
        </extensions>
      </trkpt>
      <trkpt lat="42.5195308215916156768798828125" lon="20.1580045558512210845947265625">
        <ele>1860</ele>
        <time>2026-06-20T09:28:13.000Z</time>
        <extensions>
          <ns3:TrackPointExtension>
            <ns3:atemp>26.0</ns3:atemp>
          </ns3:TrackPointExtension>
        </extensions>
      </trkpt>
      <trkpt lat="42.5195308215916156768798828125" lon="20.1580045558512210845947265625">
        <ele>1860</ele>
        <time>2026-06-20T09:28:14.000Z</time>
        <extensions>
          <ns3:TrackPointExtension>
            <ns3:atemp>26.0</ns3:atemp>
          </ns3:TrackPointExtension>
        </extensions>
      </trkpt>
      <trkpt lat="42.5195308215916156768798828125" lon="20.1580045558512210845947265625">
        <ele>1860</ele>
        <time>2026-06-20T09:28:15.000Z</time>
        <extensions>
          <ns3:TrackPointExtension>
            <ns3:atemp>26.0</ns3:atemp>
          </ns3:TrackPointExtension>
        </extensions>
      </trkpt>
      <trkpt lat="42.51952151767909526824951171875" lon="20.158004723489284515380859375">
        <ele>1860</ele>
        <time>2026-06-20T09:28:16.000Z</time>
        <extensions>
          <ns3:TrackPointExtension>
            <ns3:atemp>26.0</ns3:atemp>
          </ns3:TrackPointExtension>
        </extensions>
      </trkpt>
      <trkpt lat="42.51951900310814380645751953125" lon="20.15800782479345798492431640625">
        <ele>1860</ele>
        <time>2026-06-20T09:28:17.000Z</time>
        <extensions>
          <ns3:TrackPointExtension>
            <ns3:atemp>26.0</ns3:atemp>
          </ns3:TrackPointExtension>
        </extensions>
      </trkpt>
      <trkpt lat="42.5195308215916156768798828125" lon="20.1580045558512210845947265625">
        <ele>1860</ele>
        <time>2026-06-20T09:28:18.000Z</time>
        <extensions>
          <ns3:TrackPointExtension>
            <ns3:atemp>26.0</ns3:atemp>
          </ns3:TrackPointExtension>
        </extensions>
      </trkpt>
      <trkpt lat="42.5195308215916156768798828125" lon="20.1580045558512210845947265625">
        <ele>1860</ele>
        <time>2026-06-20T09:28:19.000Z</time>
        <extensions>
          <ns3:TrackPointExtension>
            <ns3:atemp>26.0</ns3:atemp>
          </ns3:TrackPointExtension>
        </extensions>
      </trkpt>
      <trkpt lat="42.5195308215916156768798828125" lon="20.1580045558512210845947265625">
        <ele>1860</ele>
        <time>2026-06-20T09:28:20.000Z</time>
        <extensions>
          <ns3:TrackPointExtension>
            <ns3:atemp>26.0</ns3:atemp>
          </ns3:TrackPointExtension>
        </extensions>
      </trkpt>
      <trkpt lat="42.5195308215916156768798828125" lon="20.1580045558512210845947265625">
        <ele>1860</ele>
        <time>2026-06-20T09:28:21.000Z</time>
        <extensions>
          <ns3:TrackPointExtension>
            <ns3:atemp>26.0</ns3:atemp>
          </ns3:TrackPointExtension>
        </extensions>
      </trkpt>
      <trkpt lat="42.5195308215916156768798828125" lon="20.1580045558512210845947265625">
        <ele>1860</ele>
        <time>2026-06-20T09:28:22.000Z</time>
        <extensions>
          <ns3:TrackPointExtension>
            <ns3:atemp>26.0</ns3:atemp>
          </ns3:TrackPointExtension>
        </extensions>
      </trkpt>
      <trkpt lat="42.519519589841365814208984375" lon="20.15800631605088710784912109375">
        <ele>1860</ele>
        <time>2026-06-20T09:28:23.000Z</time>
        <extensions>
          <ns3:TrackPointExtension>
            <ns3:atemp>26.0</ns3:atemp>
          </ns3:TrackPointExtension>
        </extensions>
      </trkpt>
      <trkpt lat="42.5195308215916156768798828125" lon="20.1580045558512210845947265625">
        <ele>1860</ele>
        <time>2026-06-20T09:28:24.000Z</time>
        <extensions>
          <ns3:TrackPointExtension>
            <ns3:atemp>26.0</ns3:atemp>
          </ns3:TrackPointExtension>
        </extensions>
      </trkpt>
      <trkpt lat="42.5195308215916156768798828125" lon="20.1580045558512210845947265625">
        <ele>1860</ele>
        <time>2026-06-20T09:28:25.000Z</time>
        <extensions>
          <ns3:TrackPointExtension>
            <ns3:atemp>26.0</ns3:atemp>
          </ns3:TrackPointExtension>
        </extensions>
      </trkpt>
      <trkpt lat="42.5195308215916156768798828125" lon="20.1580045558512210845947265625">
        <ele>1860</ele>
        <time>2026-06-20T09:28:26.000Z</time>
        <extensions>
          <ns3:TrackPointExtension>
            <ns3:atemp>26.0</ns3:atemp>
          </ns3:TrackPointExtension>
        </extensions>
      </trkpt>
      <trkpt lat="42.5195308215916156768798828125" lon="20.1580045558512210845947265625">
        <ele>1860</ele>
        <time>2026-06-20T09:28:27.000Z</time>
        <extensions>
          <ns3:TrackPointExtension>
            <ns3:atemp>26.0</ns3:atemp>
          </ns3:TrackPointExtension>
        </extensions>
      </trkpt>
      <trkpt lat="42.5195308215916156768798828125" lon="20.1580045558512210845947265625">
        <ele>1860</ele>
        <time>2026-06-20T09:28:28.000Z</time>
        <extensions>
          <ns3:TrackPointExtension>
            <ns3:atemp>26.0</ns3:atemp>
          </ns3:TrackPointExtension>
        </extensions>
      </trkpt>
      <trkpt lat="42.5195308215916156768798828125" lon="20.1580045558512210845947265625">
        <ele>1860</ele>
        <time>2026-06-20T09:28:29.000Z</time>
        <extensions>
          <ns3:TrackPointExtension>
            <ns3:atemp>26.0</ns3:atemp>
          </ns3:TrackPointExtension>
        </extensions>
      </trkpt>
      <trkpt lat="42.5195308215916156768798828125" lon="20.1580045558512210845947265625">
        <ele>1860</ele>
        <time>2026-06-20T09:28:30.000Z</time>
        <extensions>
          <ns3:TrackPointExtension>
            <ns3:atemp>26.0</ns3:atemp>
          </ns3:TrackPointExtension>
        </extensions>
      </trkpt>
      <trkpt lat="42.5195308215916156768798828125" lon="20.1580045558512210845947265625">
        <ele>1860</ele>
        <time>2026-06-20T09:28:31.000Z</time>
        <extensions>
          <ns3:TrackPointExtension>
            <ns3:atemp>26.0</ns3:atemp>
          </ns3:TrackPointExtension>
        </extensions>
      </trkpt>
      <trkpt lat="42.5195308215916156768798828125" lon="20.1580045558512210845947265625">
        <ele>1860</ele>
        <time>2026-06-20T09:28:32.000Z</time>
        <extensions>
          <ns3:TrackPointExtension>
            <ns3:atemp>26.0</ns3:atemp>
          </ns3:TrackPointExtension>
        </extensions>
      </trkpt>
      <trkpt lat="42.5195308215916156768798828125" lon="20.1580045558512210845947265625">
        <ele>1860</ele>
        <time>2026-06-20T09:28:33.000Z</time>
        <extensions>
          <ns3:TrackPointExtension>
            <ns3:atemp>26.0</ns3:atemp>
          </ns3:TrackPointExtension>
        </extensions>
      </trkpt>
      <trkpt lat="42.5195308215916156768798828125" lon="20.1580045558512210845947265625">
        <ele>1860</ele>
        <time>2026-06-20T09:28:34.000Z</time>
        <extensions>
          <ns3:TrackPointExtension>
            <ns3:atemp>26.0</ns3:atemp>
          </ns3:TrackPointExtension>
        </extensions>
      </trkpt>
      <trkpt lat="42.5195308215916156768798828125" lon="20.1580045558512210845947265625">
        <ele>1860</ele>
        <time>2026-06-20T09:28:35.000Z</time>
        <extensions>
          <ns3:TrackPointExtension>
            <ns3:atemp>26.0</ns3:atemp>
          </ns3:TrackPointExtension>
        </extensions>
      </trkpt>
      <trkpt lat="42.5195308215916156768798828125" lon="20.1580045558512210845947265625">
        <ele>1860</ele>
        <time>2026-06-20T09:28:36.000Z</time>
        <extensions>
          <ns3:TrackPointExtension>
            <ns3:atemp>26.0</ns3:atemp>
          </ns3:TrackPointExtension>
        </extensions>
      </trkpt>
      <trkpt lat="42.5195308215916156768798828125" lon="20.1580045558512210845947265625">
        <ele>1860</ele>
        <time>2026-06-20T09:28:37.000Z</time>
        <extensions>
          <ns3:TrackPointExtension>
            <ns3:atemp>26.0</ns3:atemp>
          </ns3:TrackPointExtension>
        </extensions>
      </trkpt>
      <trkpt lat="42.5195308215916156768798828125" lon="20.1580045558512210845947265625">
        <ele>1860</ele>
        <time>2026-06-20T09:28:38.000Z</time>
        <extensions>
          <ns3:TrackPointExtension>
            <ns3:atemp>26.0</ns3:atemp>
          </ns3:TrackPointExtension>
        </extensions>
      </trkpt>
      <trkpt lat="42.5195308215916156768798828125" lon="20.1580045558512210845947265625">
        <ele>1860</ele>
        <time>2026-06-20T09:28:39.000Z</time>
        <extensions>
          <ns3:TrackPointExtension>
            <ns3:atemp>26.0</ns3:atemp>
          </ns3:TrackPointExtension>
        </extensions>
      </trkpt>
      <trkpt lat="42.5195308215916156768798828125" lon="20.1580045558512210845947265625">
        <ele>1860</ele>
        <time>2026-06-20T09:28:40.000Z</time>
        <extensions>
          <ns3:TrackPointExtension>
            <ns3:atemp>26.0</ns3:atemp>
          </ns3:TrackPointExtension>
        </extensions>
      </trkpt>
      <trkpt lat="42.5195308215916156768798828125" lon="20.1580045558512210845947265625">
        <ele>1860</ele>
        <time>2026-06-20T09:28:41.000Z</time>
        <extensions>
          <ns3:TrackPointExtension>
            <ns3:atemp>26.0</ns3:atemp>
          </ns3:TrackPointExtension>
        </extensions>
      </trkpt>
      <trkpt lat="42.5195308215916156768798828125" lon="20.1580045558512210845947265625">
        <ele>1860</ele>
        <time>2026-06-20T09:28:42.000Z</time>
        <extensions>
          <ns3:TrackPointExtension>
            <ns3:atemp>26.0</ns3:atemp>
          </ns3:TrackPointExtension>
        </extensions>
      </trkpt>
      <trkpt lat="42.5195308215916156768798828125" lon="20.1580045558512210845947265625">
        <ele>1860</ele>
        <time>2026-06-20T09:28:43.000Z</time>
        <extensions>
          <ns3:TrackPointExtension>
            <ns3:atemp>26.0</ns3:atemp>
          </ns3:TrackPointExtension>
        </extensions>
      </trkpt>
      <trkpt lat="42.51952051185071468353271484375" lon="20.1579956710338592529296875">
        <ele>1860</ele>
        <time>2026-06-20T09:28:44.000Z</time>
        <extensions>
          <ns3:TrackPointExtension>
            <ns3:atemp>26.0</ns3:atemp>
          </ns3:TrackPointExtension>
        </extensions>
      </trkpt>
      <trkpt lat="42.51952319405972957611083984375" lon="20.15797882340848445892333984375">
        <ele>1860</ele>
        <time>2026-06-20T09:28:45.000Z</time>
        <extensions>
          <ns3:TrackPointExtension>
            <ns3:atemp>26.0</ns3:atemp>
          </ns3:TrackPointExtension>
        </extensions>
      </trkpt>
      <trkpt lat="42.5195294804871082305908203125" lon="20.1579649932682514190673828125">
        <ele>1860</ele>
        <time>2026-06-20T09:28:46.000Z</time>
        <extensions>
          <ns3:TrackPointExtension>
            <ns3:atemp>26.0</ns3:atemp>
          </ns3:TrackPointExtension>
        </extensions>
      </trkpt>
      <trkpt lat="42.5195321626961231231689453125" lon="20.15794378705322742462158203125">
        <ele>1860</ele>
        <time>2026-06-20T09:28:47.000Z</time>
        <extensions>
          <ns3:TrackPointExtension>
            <ns3:atemp>26.0</ns3:atemp>
          </ns3:TrackPointExtension>
        </extensions>
      </trkpt>
      <trkpt lat="42.51953492872416973114013671875" lon="20.1579193957149982452392578125">
        <ele>1860</ele>
        <time>2026-06-20T09:28:48.000Z</time>
        <extensions>
          <ns3:TrackPointExtension>
            <ns3:atemp>26.0</ns3:atemp>
          </ns3:TrackPointExtension>
        </extensions>
      </trkpt>
      <trkpt lat="42.51953241415321826934814453125" lon="20.15790036879479885101318359375">
        <ele>1860</ele>
        <time>2026-06-20T09:28:49.000Z</time>
        <extensions>
          <ns3:TrackPointExtension>
            <ns3:atemp>26.0</ns3:atemp>
          </ns3:TrackPointExtension>
        </extensions>
      </trkpt>
      <trkpt lat="42.51952436752617359161376953125" lon="20.1578848622739315032958984375">
        <ele>1860.199951171875</ele>
        <time>2026-06-20T09:28:50.000Z</time>
        <extensions>
          <ns3:TrackPointExtension>
            <ns3:atemp>26.0</ns3:atemp>
          </ns3:TrackPointExtension>
        </extensions>
      </trkpt>
      <trkpt lat="42.5195140577852725982666015625" lon="20.157873630523681640625">
        <ele>1860.4000244140625</ele>
        <time>2026-06-20T09:28:51.000Z</time>
        <extensions>
          <ns3:TrackPointExtension>
            <ns3:atemp>26.0</ns3:atemp>
          </ns3:TrackPointExtension>
        </extensions>
      </trkpt>
      <trkpt lat="42.51951129175722599029541015625" lon="20.157856531441211700439453125">
        <ele>1860.5999755859375</ele>
        <time>2026-06-20T09:28:52.000Z</time>
        <extensions>
          <ns3:TrackPointExtension>
            <ns3:atemp>26.0</ns3:atemp>
          </ns3:TrackPointExtension>
        </extensions>
      </trkpt>
      <trkpt lat="42.5195110403001308441162109375" lon="20.1578395999968051910400390625">
        <ele>1860.800048828125</ele>
        <time>2026-06-20T09:28:53.000Z</time>
        <extensions>
          <ns3:TrackPointExtension>
            <ns3:atemp>26.0</ns3:atemp>
          </ns3:TrackPointExtension>
        </extensions>
      </trkpt>
      <trkpt lat="42.51951363869011402130126953125" lon="20.15782660804688930511474609375">
        <ele>1861</ele>
        <time>2026-06-20T09:28:54.000Z</time>
        <extensions>
          <ns3:TrackPointExtension>
            <ns3:atemp>26.0</ns3:atemp>
          </ns3:TrackPointExtension>
        </extensions>
      </trkpt>
      <trkpt lat="42.519514895975589752197265625" lon="20.15781017951667308807373046875">
        <ele>1861.199951171875</ele>
        <time>2026-06-20T09:28:55.000Z</time>
        <extensions>
          <ns3:TrackPointExtension>
            <ns3:atemp>26.0</ns3:atemp>
          </ns3:TrackPointExtension>
        </extensions>
      </trkpt>
      <trkpt lat="42.51951749436557292938232421875" lon="20.15779626555740833282470703125">
        <ele>1861.4000244140625</ele>
        <time>2026-06-20T09:28:56.000Z</time>
        <extensions>
          <ns3:TrackPointExtension>
            <ns3:atemp>26.0</ns3:atemp>
          </ns3:TrackPointExtension>
        </extensions>
      </trkpt>
      <trkpt lat="42.5195190869271755218505859375" lon="20.157782770693302154541015625">
        <ele>1861.5999755859375</ele>
        <time>2026-06-20T09:28:57.000Z</time>
        <extensions>
          <ns3:TrackPointExtension>
            <ns3:atemp>26.0</ns3:atemp>
          </ns3:TrackPointExtension>
        </extensions>
      </trkpt>
      <trkpt lat="42.51951917074620723724365234375" lon="20.1577663421630859375">
        <ele>1861.5999755859375</ele>
        <time>2026-06-20T09:28:58.000Z</time>
        <extensions>
          <ns3:TrackPointExtension>
            <ns3:atemp>26.0</ns3:atemp>
          </ns3:TrackPointExtension>
        </extensions>
      </trkpt>
      <trkpt lat="42.5195187516510486602783203125" lon="20.15774966217577457427978515625">
        <ele>1861.800048828125</ele>
        <time>2026-06-20T09:28:59.000Z</time>
        <extensions>
          <ns3:TrackPointExtension>
            <ns3:atemp>26.0</ns3:atemp>
          </ns3:TrackPointExtension>
        </extensions>
      </trkpt>
      <trkpt lat="42.5195140577852725982666015625" lon="20.15774245373904705047607421875">
        <ele>1862</ele>
        <time>2026-06-20T09:29:00.000Z</time>
        <extensions>
          <ns3:TrackPointExtension>
            <ns3:atemp>26.0</ns3:atemp>
          </ns3:TrackPointExtension>
        </extensions>
      </trkpt>
      <trkpt lat="42.5195039995014667510986328125" lon="20.15773457475006580352783203125">
        <ele>1862.199951171875</ele>
        <time>2026-06-20T09:29:01.000Z</time>
        <extensions>
          <ns3:TrackPointExtension>
            <ns3:atemp>26.0</ns3:atemp>
          </ns3:TrackPointExtension>
        </extensions>
      </trkpt>
      <trkpt lat="42.5195024907588958740234375" lon="20.15772686339914798736572265625">
        <ele>1862.199951171875</ele>
        <time>2026-06-20T09:29:02.000Z</time>
        <extensions>
          <ns3:TrackPointExtension>
            <ns3:atemp>26.0</ns3:atemp>
          </ns3:TrackPointExtension>
        </extensions>
      </trkpt>
      <trkpt lat="42.5194989703595638275146484375" lon="20.15772351063787937164306640625">
        <ele>1862.4000244140625</ele>
        <time>2026-06-20T09:29:03.000Z</time>
        <extensions>
          <ns3:TrackPointExtension>
            <ns3:atemp>26.0</ns3:atemp>
          </ns3:TrackPointExtension>
        </extensions>
      </trkpt>
      <trkpt lat="42.519498802721500396728515625" lon="20.15772351063787937164306640625">
        <ele>1862.800048828125</ele>
        <time>2026-06-20T09:29:04.000Z</time>
        <extensions>
          <ns3:TrackPointExtension>
            <ns3:atemp>26.0</ns3:atemp>
          </ns3:TrackPointExtension>
        </extensions>
      </trkpt>
      <trkpt lat="42.519498802721500396728515625" lon="20.15772351063787937164306640625">
        <ele>1863</ele>
        <time>2026-06-20T09:29:05.000Z</time>
        <extensions>
          <ns3:TrackPointExtension>
            <ns3:atemp>26.0</ns3:atemp>
          </ns3:TrackPointExtension>
        </extensions>
      </trkpt>
      <trkpt lat="42.519498802721500396728515625" lon="20.15772351063787937164306640625">
        <ele>1863.4000244140625</ele>
        <time>2026-06-20T09:29:06.000Z</time>
        <extensions>
          <ns3:TrackPointExtension>
            <ns3:atemp>26.0</ns3:atemp>
          </ns3:TrackPointExtension>
        </extensions>
      </trkpt>
      <trkpt lat="42.519498802721500396728515625" lon="20.15772351063787937164306640625">
        <ele>1863.5999755859375</ele>
        <time>2026-06-20T09:29:07.000Z</time>
        <extensions>
          <ns3:TrackPointExtension>
            <ns3:atemp>26.0</ns3:atemp>
          </ns3:TrackPointExtension>
        </extensions>
      </trkpt>
      <trkpt lat="42.51949804835021495819091796875" lon="20.15772334299981594085693359375">
        <ele>1863.800048828125</ele>
        <time>2026-06-20T09:29:08.000Z</time>
        <extensions>
          <ns3:TrackPointExtension>
            <ns3:atemp>26.0</ns3:atemp>
          </ns3:TrackPointExtension>
        </extensions>
      </trkpt>
      <trkpt lat="42.519498802721500396728515625" lon="20.15772351063787937164306640625">
        <ele>1863.800048828125</ele>
        <time>2026-06-20T09:29:09.000Z</time>
        <extensions>
          <ns3:TrackPointExtension>
            <ns3:atemp>26.0</ns3:atemp>
          </ns3:TrackPointExtension>
        </extensions>
      </trkpt>
      <trkpt lat="42.519498802721500396728515625" lon="20.15772351063787937164306640625">
        <ele>1863.800048828125</ele>
        <time>2026-06-20T09:29:10.000Z</time>
        <extensions>
          <ns3:TrackPointExtension>
            <ns3:atemp>26.0</ns3:atemp>
          </ns3:TrackPointExtension>
        </extensions>
      </trkpt>
      <trkpt lat="42.519498802721500396728515625" lon="20.15772351063787937164306640625">
        <ele>1863.800048828125</ele>
        <time>2026-06-20T09:29:11.000Z</time>
        <extensions>
          <ns3:TrackPointExtension>
            <ns3:atemp>26.0</ns3:atemp>
          </ns3:TrackPointExtension>
        </extensions>
      </trkpt>
      <trkpt lat="42.519498802721500396728515625" lon="20.15772351063787937164306640625">
        <ele>1863.800048828125</ele>
        <time>2026-06-20T09:29:12.000Z</time>
        <extensions>
          <ns3:TrackPointExtension>
            <ns3:atemp>26.0</ns3:atemp>
          </ns3:TrackPointExtension>
        </extensions>
      </trkpt>
      <trkpt lat="42.519498802721500396728515625" lon="20.15772351063787937164306640625">
        <ele>1863.800048828125</ele>
        <time>2026-06-20T09:29:13.000Z</time>
        <extensions>
          <ns3:TrackPointExtension>
            <ns3:atemp>26.0</ns3:atemp>
          </ns3:TrackPointExtension>
        </extensions>
      </trkpt>
      <trkpt lat="42.519498802721500396728515625" lon="20.15772351063787937164306640625">
        <ele>1863.800048828125</ele>
        <time>2026-06-20T09:29:14.000Z</time>
        <extensions>
          <ns3:TrackPointExtension>
            <ns3:atemp>26.0</ns3:atemp>
          </ns3:TrackPointExtension>
        </extensions>
      </trkpt>
      <trkpt lat="42.519498802721500396728515625" lon="20.15772351063787937164306640625">
        <ele>1863.800048828125</ele>
        <time>2026-06-20T09:29:15.000Z</time>
        <extensions>
          <ns3:TrackPointExtension>
            <ns3:atemp>26.0</ns3:atemp>
          </ns3:TrackPointExtension>
        </extensions>
      </trkpt>
      <trkpt lat="42.519490420818328857421875" lon="20.15772485174238681793212890625">
        <ele>1863.800048828125</ele>
        <time>2026-06-20T09:29:16.000Z</time>
        <extensions>
          <ns3:TrackPointExtension>
            <ns3:atemp>26.0</ns3:atemp>
          </ns3:TrackPointExtension>
        </extensions>
      </trkpt>
      <trkpt lat="42.5194765068590641021728515625" lon="20.15773625113070011138916015625">
        <ele>1864</ele>
        <time>2026-06-20T09:29:17.000Z</time>
        <extensions>
          <ns3:TrackPointExtension>
            <ns3:atemp>26.0</ns3:atemp>
          </ns3:TrackPointExtension>
        </extensions>
      </trkpt>
      <trkpt lat="42.5194761715829372406005859375" lon="20.15774178318679332733154296875">
        <ele>1864</ele>
        <time>2026-06-20T09:29:18.000Z</time>
        <extensions>
          <ns3:TrackPointExtension>
            <ns3:atemp>26.0</ns3:atemp>
          </ns3:TrackPointExtension>
        </extensions>
      </trkpt>
      <trkpt lat="42.51946686767041683197021484375" lon="20.157755278050899505615234375">
        <ele>1864</ele>
        <time>2026-06-20T09:29:19.000Z</time>
        <extensions>
          <ns3:TrackPointExtension>
            <ns3:atemp>26.0</ns3:atemp>
          </ns3:TrackPointExtension>
        </extensions>
      </trkpt>
      <trkpt lat="42.51945245079696178436279296875" lon="20.15776324085891246795654296875">
        <ele>1864</ele>
        <time>2026-06-20T09:29:20.000Z</time>
        <extensions>
          <ns3:TrackPointExtension>
            <ns3:atemp>26.0</ns3:atemp>
          </ns3:TrackPointExtension>
        </extensions>
      </trkpt>
      <trkpt lat="42.51944138668477535247802734375" lon="20.15776206739246845245361328125">
        <ele>1864</ele>
        <time>2026-06-20T09:29:21.000Z</time>
        <extensions>
          <ns3:TrackPointExtension>
            <ns3:atemp>26.0</ns3:atemp>
          </ns3:TrackPointExtension>
        </extensions>
      </trkpt>
      <trkpt lat="42.5194329209625720977783203125" lon="20.1577489078044891357421875">
        <ele>1864</ele>
        <time>2026-06-20T09:29:22.000Z</time>
        <extensions>
          <ns3:TrackPointExtension>
            <ns3:atemp>25.0</ns3:atemp>
          </ns3:TrackPointExtension>
        </extensions>
      </trkpt>
      <trkpt lat="42.519428394734859466552734375" lon="20.1577380113303661346435546875">
        <ele>1864.199951171875</ele>
        <time>2026-06-20T09:29:23.000Z</time>
        <extensions>
          <ns3:TrackPointExtension>
            <ns3:atemp>26.0</ns3:atemp>
          </ns3:TrackPointExtension>
        </extensions>
      </trkpt>
      <trkpt lat="42.5194288976490497589111328125" lon="20.15772703103721141815185546875">
        <ele>1864.5999755859375</ele>
        <time>2026-06-20T09:29:24.000Z</time>
        <extensions>
          <ns3:TrackPointExtension>
            <ns3:atemp>26.0</ns3:atemp>
          </ns3:TrackPointExtension>
        </extensions>
      </trkpt>
      <trkpt lat="42.51943049021065235137939453125" lon="20.15771512873470783233642578125">
        <ele>1864.800048828125</ele>
        <time>2026-06-20T09:29:25.000Z</time>
        <extensions>
          <ns3:TrackPointExtension>
            <ns3:atemp>25.0</ns3:atemp>
          </ns3:TrackPointExtension>
        </extensions>
      </trkpt>
      <trkpt lat="42.51943183131515979766845703125" lon="20.15769551508128643035888671875">
        <ele>1865.199951171875</ele>
        <time>2026-06-20T09:29:26.000Z</time>
        <extensions>
          <ns3:TrackPointExtension>
            <ns3:atemp>25.0</ns3:atemp>
          </ns3:TrackPointExtension>
        </extensions>
      </trkpt>
      <trkpt lat="42.5194305740296840667724609375" lon="20.15767506323754787445068359375">
        <ele>1865.4000244140625</ele>
        <time>2026-06-20T09:29:27.000Z</time>
        <extensions>
          <ns3:TrackPointExtension>
            <ns3:atemp>25.0</ns3:atemp>
          </ns3:TrackPointExtension>
        </extensions>
      </trkpt>
      <trkpt lat="42.5194285623729228973388671875" lon="20.15765544958412647247314453125">
        <ele>1865.5999755859375</ele>
        <time>2026-06-20T09:29:28.000Z</time>
        <extensions>
          <ns3:TrackPointExtension>
            <ns3:atemp>25.0</ns3:atemp>
          </ns3:TrackPointExtension>
        </extensions>
      </trkpt>
      <trkpt lat="42.519427053630352020263671875" lon="20.15763281844556331634521484375">
        <ele>1865.5999755859375</ele>
        <time>2026-06-20T09:29:29.000Z</time>
        <extensions>
          <ns3:TrackPointExtension>
            <ns3:atemp>25.0</ns3:atemp>
          </ns3:TrackPointExtension>
        </extensions>
      </trkpt>
      <trkpt lat="42.5194252096116542816162109375" lon="20.15761069022119045257568359375">
        <ele>1865.800048828125</ele>
        <time>2026-06-20T09:29:30.000Z</time>
        <extensions>
          <ns3:TrackPointExtension>
            <ns3:atemp>25.0</ns3:atemp>
          </ns3:TrackPointExtension>
        </extensions>
      </trkpt>
      <trkpt lat="42.5194221921265125274658203125" lon="20.15758990310132503509521484375">
        <ele>1865.800048828125</ele>
        <time>2026-06-20T09:29:31.000Z</time>
        <extensions>
          <ns3:TrackPointExtension>
            <ns3:atemp>25.0</ns3:atemp>
          </ns3:TrackPointExtension>
        </extensions>
      </trkpt>
      <trkpt lat="42.51941598951816558837890625" lon="20.1575713790953159332275390625">
        <ele>1866</ele>
        <time>2026-06-20T09:29:32.000Z</time>
        <extensions>
          <ns3:TrackPointExtension>
            <ns3:atemp>25.0</ns3:atemp>
          </ns3:TrackPointExtension>
        </extensions>
      </trkpt>
      <trkpt lat="42.5194121338427066802978515625" lon="20.1575556211173534393310546875">
        <ele>1866.199951171875</ele>
        <time>2026-06-20T09:29:33.000Z</time>
        <extensions>
          <ns3:TrackPointExtension>
            <ns3:atemp>25.0</ns3:atemp>
          </ns3:TrackPointExtension>
        </extensions>
      </trkpt>
      <trkpt lat="42.5194094516336917877197265625" lon="20.1575395278632640838623046875">
        <ele>1866.4000244140625</ele>
        <time>2026-06-20T09:29:34.000Z</time>
        <extensions>
          <ns3:TrackPointExtension>
            <ns3:atemp>25.0</ns3:atemp>
          </ns3:TrackPointExtension>
        </extensions>
      </trkpt>
      <trkpt lat="42.51940484158694744110107421875" lon="20.15752385370433330535888671875">
        <ele>1866.5999755859375</ele>
        <time>2026-06-20T09:29:35.000Z</time>
        <extensions>
          <ns3:TrackPointExtension>
            <ns3:atemp>25.0</ns3:atemp>
          </ns3:TrackPointExtension>
        </extensions>
      </trkpt>
      <trkpt lat="42.51940115354955196380615234375" lon="20.1575063355267047882080078125">
        <ele>1866.800048828125</ele>
        <time>2026-06-20T09:29:36.000Z</time>
        <extensions>
          <ns3:TrackPointExtension>
            <ns3:atemp>25.0</ns3:atemp>
          </ns3:TrackPointExtension>
        </extensions>
      </trkpt>
      <trkpt lat="42.51939897425472736358642578125" lon="20.15748999081552028656005859375">
        <ele>1867</ele>
        <time>2026-06-20T09:29:37.000Z</time>
        <extensions>
          <ns3:TrackPointExtension>
            <ns3:atemp>25.0</ns3:atemp>
          </ns3:TrackPointExtension>
        </extensions>
      </trkpt>
      <trkpt lat="42.51939729787409305572509765625" lon="20.15747171826660633087158203125">
        <ele>1867.199951171875</ele>
        <time>2026-06-20T09:29:38.000Z</time>
        <extensions>
          <ns3:TrackPointExtension>
            <ns3:atemp>25.0</ns3:atemp>
          </ns3:TrackPointExtension>
        </extensions>
      </trkpt>
      <trkpt lat="42.51939310692250728607177734375" lon="20.15745830722153186798095703125">
        <ele>1867.4000244140625</ele>
        <time>2026-06-20T09:29:39.000Z</time>
        <extensions>
          <ns3:TrackPointExtension>
            <ns3:atemp>25.0</ns3:atemp>
          </ns3:TrackPointExtension>
        </extensions>
      </trkpt>
      <trkpt lat="42.51939050853252410888671875" lon="20.1574365980923175811767578125">
        <ele>1867.5999755859375</ele>
        <time>2026-06-20T09:29:40.000Z</time>
        <extensions>
          <ns3:TrackPointExtension>
            <ns3:atemp>25.0</ns3:atemp>
          </ns3:TrackPointExtension>
        </extensions>
      </trkpt>
      <trkpt lat="42.51938606612384319305419921875" lon="20.15741002745926380157470703125">
        <ele>1867.800048828125</ele>
        <time>2026-06-20T09:29:41.000Z</time>
        <extensions>
          <ns3:TrackPointExtension>
            <ns3:atemp>25.0</ns3:atemp>
          </ns3:TrackPointExtension>
        </extensions>
      </trkpt>
      <trkpt lat="42.5193764269351959228515625" lon="20.15739141963422298431396484375">
        <ele>1868</ele>
        <time>2026-06-20T09:29:42.000Z</time>
        <extensions>
          <ns3:TrackPointExtension>
            <ns3:atemp>25.0</ns3:atemp>
          </ns3:TrackPointExtension>
        </extensions>
      </trkpt>
      <trkpt lat="42.51936879940330982208251953125" lon="20.1573707163333892822265625">
        <ele>1868.199951171875</ele>
        <time>2026-06-20T09:29:43.000Z</time>
        <extensions>
          <ns3:TrackPointExtension>
            <ns3:atemp>25.0</ns3:atemp>
          </ns3:TrackPointExtension>
        </extensions>
      </trkpt>
      <trkpt lat="42.519360668957233428955078125" lon="20.1573480851948261260986328125">
        <ele>1868.4000244140625</ele>
        <time>2026-06-20T09:29:44.000Z</time>
        <extensions>
          <ns3:TrackPointExtension>
            <ns3:atemp>25.0</ns3:atemp>
          </ns3:TrackPointExtension>
        </extensions>
      </trkpt>
      <trkpt lat="42.5193517841398715972900390625" lon="20.157326795160770416259765625">
        <ele>1868.800048828125</ele>
        <time>2026-06-20T09:29:45.000Z</time>
        <extensions>
          <ns3:TrackPointExtension>
            <ns3:atemp>25.0</ns3:atemp>
          </ns3:TrackPointExtension>
        </extensions>
      </trkpt>
      <trkpt lat="42.5193454138934612274169921875" lon="20.15730625949800014495849609375">
        <ele>1869</ele>
        <time>2026-06-20T09:29:46.000Z</time>
        <extensions>
          <ns3:TrackPointExtension>
            <ns3:atemp>25.0</ns3:atemp>
          </ns3:TrackPointExtension>
        </extensions>
      </trkpt>
      <trkpt lat="42.519341222941875457763671875" lon="20.15728631056845188140869140625">
        <ele>1869.4000244140625</ele>
        <time>2026-06-20T09:29:47.000Z</time>
        <extensions>
          <ns3:TrackPointExtension>
            <ns3:atemp>25.0</ns3:atemp>
          </ns3:TrackPointExtension>
        </extensions>
      </trkpt>
      <trkpt lat="42.51933326013386249542236328125" lon="20.1572635956108570098876953125">
        <ele>1869.5999755859375</ele>
        <time>2026-06-20T09:29:48.000Z</time>
        <extensions>
          <ns3:TrackPointExtension>
            <ns3:atemp>25.0</ns3:atemp>
          </ns3:TrackPointExtension>
        </extensions>
      </trkpt>
      <trkpt lat="42.51932420767843723297119140625" lon="20.157244317233562469482421875">
        <ele>1870</ele>
        <time>2026-06-20T09:29:49.000Z</time>
        <extensions>
          <ns3:TrackPointExtension>
            <ns3:atemp>25.0</ns3:atemp>
          </ns3:TrackPointExtension>
        </extensions>
      </trkpt>
      <trkpt lat="42.5193162448704242706298828125" lon="20.15722529031336307525634765625">
        <ele>1870.199951171875</ele>
        <time>2026-06-20T09:29:50.000Z</time>
        <extensions>
          <ns3:TrackPointExtension>
            <ns3:atemp>25.0</ns3:atemp>
          </ns3:TrackPointExtension>
        </extensions>
      </trkpt>
      <trkpt lat="42.5193065218627452850341796875" lon="20.157207436859607696533203125">
        <ele>1870.5999755859375</ele>
        <time>2026-06-20T09:29:51.000Z</time>
        <extensions>
          <ns3:TrackPointExtension>
            <ns3:atemp>25.0</ns3:atemp>
          </ns3:TrackPointExtension>
        </extensions>
      </trkpt>
      <trkpt lat="42.51930107362568378448486328125" lon="20.15718522481620311737060546875">
        <ele>1870.800048828125</ele>
        <time>2026-06-20T09:29:52.000Z</time>
        <extensions>
          <ns3:TrackPointExtension>
            <ns3:atemp>25.0</ns3:atemp>
          </ns3:TrackPointExtension>
        </extensions>
      </trkpt>
      <trkpt lat="42.5192957930266857147216796875" lon="20.1571610011160373687744140625">
        <ele>1871</ele>
        <time>2026-06-20T09:29:53.000Z</time>
        <extensions>
          <ns3:TrackPointExtension>
            <ns3:atemp>25.0</ns3:atemp>
          </ns3:TrackPointExtension>
        </extensions>
      </trkpt>
      <trkpt lat="42.519288919866085052490234375" lon="20.15713870525360107421875">
        <ele>1871.4000244140625</ele>
        <time>2026-06-20T09:29:54.000Z</time>
        <extensions>
          <ns3:TrackPointExtension>
            <ns3:atemp>25.0</ns3:atemp>
          </ns3:TrackPointExtension>
        </extensions>
      </trkpt>
      <trkpt lat="42.519282214343547821044921875" lon="20.15711816959083080291748046875">
        <ele>1871.5999755859375</ele>
        <time>2026-06-20T09:29:55.000Z</time>
        <extensions>
          <ns3:TrackPointExtension>
            <ns3:atemp>25.0</ns3:atemp>
          </ns3:TrackPointExtension>
        </extensions>
      </trkpt>
      <trkpt lat="42.51927274279296398162841796875" lon="20.15710023231804370880126953125">
        <ele>1871.800048828125</ele>
        <time>2026-06-20T09:29:56.000Z</time>
        <extensions>
          <ns3:TrackPointExtension>
            <ns3:atemp>25.0</ns3:atemp>
          </ns3:TrackPointExtension>
        </extensions>
      </trkpt>
      <trkpt lat="42.51926519908010959625244140625" lon="20.1570778526365756988525390625">
        <ele>1872.199951171875</ele>
        <time>2026-06-20T09:29:57.000Z</time>
        <extensions>
          <ns3:TrackPointExtension>
            <ns3:atemp>25.0</ns3:atemp>
          </ns3:TrackPointExtension>
        </extensions>
      </trkpt>
      <trkpt lat="42.5192557275295257568359375" lon="20.157055556774139404296875">
        <ele>1872.4000244140625</ele>
        <time>2026-06-20T09:29:58.000Z</time>
        <extensions>
          <ns3:TrackPointExtension>
            <ns3:atemp>25.0</ns3:atemp>
          </ns3:TrackPointExtension>
        </extensions>
      </trkpt>
      <trkpt lat="42.5192449986934661865234375" lon="20.157034099102020263671875">
        <ele>1872.5999755859375</ele>
        <time>2026-06-20T09:29:59.000Z</time>
        <extensions>
          <ns3:TrackPointExtension>
            <ns3:atemp>25.0</ns3:atemp>
          </ns3:TrackPointExtension>
        </extensions>
      </trkpt>
      <trkpt lat="42.51923217438161373138427734375" lon="20.15701272524893283843994140625">
        <ele>1872.800048828125</ele>
        <time>2026-06-20T09:30:00.000Z</time>
        <extensions>
          <ns3:TrackPointExtension>
            <ns3:atemp>25.0</ns3:atemp>
          </ns3:TrackPointExtension>
        </extensions>
      </trkpt>
      <trkpt lat="42.51921658404171466827392578125" lon="20.15700182877480983734130859375">
        <ele>1873</ele>
        <time>2026-06-20T09:30:01.000Z</time>
        <extensions>
          <ns3:TrackPointExtension>
            <ns3:atemp>25.0</ns3:atemp>
          </ns3:TrackPointExtension>
        </extensions>
      </trkpt>
      <trkpt lat="42.5191978923976421356201171875" lon="20.15699059702455997467041015625">
        <ele>1873.4000244140625</ele>
        <time>2026-06-20T09:30:02.000Z</time>
        <extensions>
          <ns3:TrackPointExtension>
            <ns3:atemp>25.0</ns3:atemp>
          </ns3:TrackPointExtension>
        </extensions>
      </trkpt>
      <trkpt lat="42.5191787816584110260009765625" lon="20.15698187984526157379150390625">
        <ele>1873.5999755859375</ele>
        <time>2026-06-20T09:30:03.000Z</time>
        <extensions>
          <ns3:TrackPointExtension>
            <ns3:atemp>25.0</ns3:atemp>
          </ns3:TrackPointExtension>
        </extensions>
      </trkpt>
      <trkpt lat="42.519158832728862762451171875" lon="20.15697366558015346527099609375">
        <ele>1874</ele>
        <time>2026-06-20T09:30:04.000Z</time>
        <extensions>
          <ns3:TrackPointExtension>
            <ns3:atemp>25.0</ns3:atemp>
          </ns3:TrackPointExtension>
        </extensions>
      </trkpt>
      <trkpt lat="42.519138045608997344970703125" lon="20.1569682173430919647216796875">
        <ele>1874.4000244140625</ele>
        <time>2026-06-20T09:30:05.000Z</time>
        <extensions>
          <ns3:TrackPointExtension>
            <ns3:atemp>25.0</ns3:atemp>
          </ns3:TrackPointExtension>
        </extensions>
      </trkpt>
      <trkpt lat="42.5191170908510684967041015625" lon="20.1569638587534427642822265625">
        <ele>1874.5999755859375</ele>
        <time>2026-06-20T09:30:06.000Z</time>
        <extensions>
          <ns3:TrackPointExtension>
            <ns3:atemp>25.0</ns3:atemp>
          </ns3:TrackPointExtension>
        </extensions>
      </trkpt>
      <trkpt lat="42.51909638755023479461669921875" lon="20.15696075744926929473876953125">
        <ele>1875.199951171875</ele>
        <time>2026-06-20T09:30:07.000Z</time>
        <extensions>
          <ns3:TrackPointExtension>
            <ns3:atemp>25.0</ns3:atemp>
          </ns3:TrackPointExtension>
        </extensions>
      </trkpt>
      <trkpt lat="42.51907643862068653106689453125" lon="20.15695924870669841766357421875">
        <ele>1875.5999755859375</ele>
        <time>2026-06-20T09:30:08.000Z</time>
        <extensions>
          <ns3:TrackPointExtension>
            <ns3:atemp>25.0</ns3:atemp>
          </ns3:TrackPointExtension>
        </extensions>
      </trkpt>
      <trkpt lat="42.51905498094856739044189453125" lon="20.156953297555446624755859375">
        <ele>1875.800048828125</ele>
        <time>2026-06-20T09:30:09.000Z</time>
        <extensions>
          <ns3:TrackPointExtension>
            <ns3:atemp>25.0</ns3:atemp>
          </ns3:TrackPointExtension>
        </extensions>
      </trkpt>
      <trkpt lat="42.51903511583805084228515625" lon="20.1569450832903385162353515625">
        <ele>1876.199951171875</ele>
        <time>2026-06-20T09:30:10.000Z</time>
        <extensions>
          <ns3:TrackPointExtension>
            <ns3:atemp>25.0</ns3:atemp>
          </ns3:TrackPointExtension>
        </extensions>
      </trkpt>
      <trkpt lat="42.51902078278362751007080078125" lon="20.15692806802690029144287109375">
        <ele>1876.800048828125</ele>
        <time>2026-06-20T09:30:11.000Z</time>
        <extensions>
          <ns3:TrackPointExtension>
            <ns3:atemp>25.0</ns3:atemp>
          </ns3:TrackPointExtension>
        </extensions>
      </trkpt>
      <trkpt lat="42.51900561153888702392578125" lon="20.15691138803958892822265625">
        <ele>1877.199951171875</ele>
        <time>2026-06-20T09:30:12.000Z</time>
        <extensions>
          <ns3:TrackPointExtension>
            <ns3:atemp>25.0</ns3:atemp>
          </ns3:TrackPointExtension>
        </extensions>
      </trkpt>
      <trkpt lat="42.518989853560924530029296875" lon="20.15689504332840442657470703125">
        <ele>1877.800048828125</ele>
        <time>2026-06-20T09:30:13.000Z</time>
        <extensions>
          <ns3:TrackPointExtension>
            <ns3:atemp>25.0</ns3:atemp>
          </ns3:TrackPointExtension>
        </extensions>
      </trkpt>
      <trkpt lat="42.5189739279448986053466796875" lon="20.15687895007431507110595703125">
        <ele>1878.199951171875</ele>
        <time>2026-06-20T09:30:14.000Z</time>
        <extensions>
          <ns3:TrackPointExtension>
            <ns3:atemp>25.0</ns3:atemp>
          </ns3:TrackPointExtension>
        </extensions>
      </trkpt>
      <trkpt lat="42.5189580023288726806640625" lon="20.15686704777181148529052734375">
        <ele>1878.5999755859375</ele>
        <time>2026-06-20T09:30:15.000Z</time>
        <extensions>
          <ns3:TrackPointExtension>
            <ns3:atemp>25.0</ns3:atemp>
          </ns3:TrackPointExtension>
        </extensions>
      </trkpt>
      <trkpt lat="42.51894836314022541046142578125" lon="20.156849361956119537353515625">
        <ele>1879</ele>
        <time>2026-06-20T09:30:16.000Z</time>
        <extensions>
          <ns3:TrackPointExtension>
            <ns3:atemp>25.0</ns3:atemp>
          </ns3:TrackPointExtension>
        </extensions>
      </trkpt>
      <trkpt lat="42.51893830485641956329345703125" lon="20.15682932920753955841064453125">
        <ele>1879.5999755859375</ele>
        <time>2026-06-20T09:30:17.000Z</time>
        <extensions>
          <ns3:TrackPointExtension>
            <ns3:atemp>25.0</ns3:atemp>
          </ns3:TrackPointExtension>
        </extensions>
      </trkpt>
      <trkpt lat="42.5189276598393917083740234375" lon="20.1568059436976909637451171875">
        <ele>1879.800048828125</ele>
        <time>2026-06-20T09:30:18.000Z</time>
        <extensions>
          <ns3:TrackPointExtension>
            <ns3:atemp>25.0</ns3:atemp>
          </ns3:TrackPointExtension>
        </extensions>
      </trkpt>
      <trkpt lat="42.518918104469776153564453125" lon="20.15678490512073040008544921875">
        <ele>1880.199951171875</ele>
        <time>2026-06-20T09:30:19.000Z</time>
        <extensions>
          <ns3:TrackPointExtension>
            <ns3:atemp>25.0</ns3:atemp>
          </ns3:TrackPointExtension>
        </extensions>
      </trkpt>
      <trkpt lat="42.51890578307211399078369140625" lon="20.1567657105624675750732421875">
        <ele>1880.5999755859375</ele>
        <time>2026-06-20T09:30:20.000Z</time>
        <extensions>
          <ns3:TrackPointExtension>
            <ns3:atemp>25.0</ns3:atemp>
          </ns3:TrackPointExtension>
        </extensions>
      </trkpt>
      <trkpt lat="42.5188924558460712432861328125" lon="20.1567457616329193115234375">
        <ele>1881</ele>
        <time>2026-06-20T09:30:21.000Z</time>
        <extensions>
          <ns3:TrackPointExtension>
            <ns3:atemp>25.0</ns3:atemp>
          </ns3:TrackPointExtension>
        </extensions>
      </trkpt>
      <trkpt lat="42.518877200782299041748046875" lon="20.156730003654956817626953125">
        <ele>1881.4000244140625</ele>
        <time>2026-06-20T09:30:22.000Z</time>
        <extensions>
          <ns3:TrackPointExtension>
            <ns3:atemp>25.0</ns3:atemp>
          </ns3:TrackPointExtension>
        </extensions>
      </trkpt>
      <trkpt lat="42.518864460289478302001953125" lon="20.15671080909669399261474609375">
        <ele>1881.800048828125</ele>
        <time>2026-06-20T09:30:23.000Z</time>
        <extensions>
          <ns3:TrackPointExtension>
            <ns3:atemp>25.0</ns3:atemp>
          </ns3:TrackPointExtension>
        </extensions>
      </trkpt>
      <trkpt lat="42.51885029487311840057373046875" lon="20.15670225955545902252197265625">
        <ele>1882.199951171875</ele>
        <time>2026-06-20T09:30:24.000Z</time>
        <extensions>
          <ns3:TrackPointExtension>
            <ns3:atemp>25.0</ns3:atemp>
          </ns3:TrackPointExtension>
        </extensions>
      </trkpt>
      <trkpt lat="42.5188321061432361602783203125" lon="20.15670058317482471466064453125">
        <ele>1882.5999755859375</ele>
        <time>2026-06-20T09:30:25.000Z</time>
        <extensions>
          <ns3:TrackPointExtension>
            <ns3:atemp>25.0</ns3:atemp>
          </ns3:TrackPointExtension>
        </extensions>
      </trkpt>
      <trkpt lat="42.5188133306801319122314453125" lon="20.1567067019641399383544921875">
        <ele>1883</ele>
        <time>2026-06-20T09:30:26.000Z</time>
        <extensions>
          <ns3:TrackPointExtension>
            <ns3:atemp>25.0</ns3:atemp>
          </ns3:TrackPointExtension>
        </extensions>
      </trkpt>
      <trkpt lat="42.518792711198329925537109375" lon="20.15671290457248687744140625">
        <ele>1883.199951171875</ele>
        <time>2026-06-20T09:30:27.000Z</time>
        <extensions>
          <ns3:TrackPointExtension>
            <ns3:atemp>25.0</ns3:atemp>
          </ns3:TrackPointExtension>
        </extensions>
      </trkpt>
      <trkpt lat="42.5187724269926548004150390625" lon="20.1567187719047069549560546875">
        <ele>1883.5999755859375</ele>
        <time>2026-06-20T09:30:28.000Z</time>
        <extensions>
          <ns3:TrackPointExtension>
            <ns3:atemp>25.0</ns3:atemp>
          </ns3:TrackPointExtension>
        </extensions>
      </trkpt>
      <trkpt lat="42.5187528133392333984375" lon="20.15672941692173480987548828125">
        <ele>1884</ele>
        <time>2026-06-20T09:30:29.000Z</time>
        <extensions>
          <ns3:TrackPointExtension>
            <ns3:atemp>25.0</ns3:atemp>
          </ns3:TrackPointExtension>
        </extensions>
      </trkpt>
      <trkpt lat="42.51873680390417575836181640625" lon="20.156741403043270111083984375">
        <ele>1884.4000244140625</ele>
        <time>2026-06-20T09:30:30.000Z</time>
        <extensions>
          <ns3:TrackPointExtension>
            <ns3:atemp>25.0</ns3:atemp>
          </ns3:TrackPointExtension>
        </extensions>
      </trkpt>
      <trkpt lat="42.51871903426945209503173828125" lon="20.15675179660320281982421875">
        <ele>1884.800048828125</ele>
        <time>2026-06-20T09:30:31.000Z</time>
        <extensions>
          <ns3:TrackPointExtension>
            <ns3:atemp>25.0</ns3:atemp>
          </ns3:TrackPointExtension>
        </extensions>
      </trkpt>
      <trkpt lat="42.518701516091823577880859375" lon="20.1567502878606319427490234375">
        <ele>1885</ele>
        <time>2026-06-20T09:30:32.000Z</time>
        <extensions>
          <ns3:TrackPointExtension>
            <ns3:atemp>25.0</ns3:atemp>
          </ns3:TrackPointExtension>
        </extensions>
      </trkpt>
      <trkpt lat="42.51868617720901966094970703125" lon="20.1567362062633037567138671875">
        <ele>1885.4000244140625</ele>
        <time>2026-06-20T09:30:33.000Z</time>
        <extensions>
          <ns3:TrackPointExtension>
            <ns3:atemp>25.0</ns3:atemp>
          </ns3:TrackPointExtension>
        </extensions>
      </trkpt>
      <trkpt lat="42.51866773702204227447509765625" lon="20.15672472305595874786376953125">
        <ele>1885.800048828125</ele>
        <time>2026-06-20T09:30:34.000Z</time>
        <extensions>
          <ns3:TrackPointExtension>
            <ns3:atemp>25.0</ns3:atemp>
          </ns3:TrackPointExtension>
        </extensions>
      </trkpt>
      <trkpt lat="42.51864896155893802642822265625" lon="20.1567134074866771697998046875">
        <ele>1886.199951171875</ele>
        <time>2026-06-20T09:30:35.000Z</time>
        <extensions>
          <ns3:TrackPointExtension>
            <ns3:atemp>25.0</ns3:atemp>
          </ns3:TrackPointExtension>
        </extensions>
      </trkpt>
      <trkpt lat="42.51863001845777034759521484375" lon="20.15670091845095157623291015625">
        <ele>1886.4000244140625</ele>
        <time>2026-06-20T09:30:36.000Z</time>
        <extensions>
          <ns3:TrackPointExtension>
            <ns3:atemp>25.0</ns3:atemp>
          </ns3:TrackPointExtension>
        </extensions>
      </trkpt>
      <trkpt lat="42.51861224882304668426513671875" lon="20.156691111624240875244140625">
        <ele>1886.800048828125</ele>
        <time>2026-06-20T09:30:37.000Z</time>
        <extensions>
          <ns3:TrackPointExtension>
            <ns3:atemp>25.0</ns3:atemp>
          </ns3:TrackPointExtension>
        </extensions>
      </trkpt>
      <trkpt lat="42.51859498210251331329345703125" lon="20.156690441071987152099609375">
        <ele>1887.199951171875</ele>
        <time>2026-06-20T09:30:38.000Z</time>
        <extensions>
          <ns3:TrackPointExtension>
            <ns3:atemp>25.0</ns3:atemp>
          </ns3:TrackPointExtension>
        </extensions>
      </trkpt>
      <trkpt lat="42.5185776315629482269287109375" lon="20.156689770519733428955078125">
        <ele>1887.5999755859375</ele>
        <time>2026-06-20T09:30:39.000Z</time>
        <extensions>
          <ns3:TrackPointExtension>
            <ns3:atemp>25.0</ns3:atemp>
          </ns3:TrackPointExtension>
        </extensions>
      </trkpt>
      <trkpt lat="42.518559359014034271240234375" lon="20.156682394444942474365234375">
        <ele>1887.800048828125</ele>
        <time>2026-06-20T09:30:40.000Z</time>
        <extensions>
          <ns3:TrackPointExtension>
            <ns3:atemp>25.0</ns3:atemp>
          </ns3:TrackPointExtension>
        </extensions>
      </trkpt>
      <trkpt lat="42.518542595207691192626953125" lon="20.15667627565562725067138671875">
        <ele>1888.199951171875</ele>
        <time>2026-06-20T09:30:41.000Z</time>
        <extensions>
          <ns3:TrackPointExtension>
            <ns3:atemp>25.0</ns3:atemp>
          </ns3:TrackPointExtension>
        </extensions>
      </trkpt>
      <trkpt lat="42.51852549612522125244140625" lon="20.15666571445763111114501953125">
        <ele>1888.4000244140625</ele>
        <time>2026-06-20T09:30:42.000Z</time>
        <extensions>
          <ns3:TrackPointExtension>
            <ns3:atemp>25.0</ns3:atemp>
          </ns3:TrackPointExtension>
        </extensions>
      </trkpt>
      <trkpt lat="42.5185085646808147430419921875" lon="20.156654231250286102294921875">
        <ele>1888.800048828125</ele>
        <time>2026-06-20T09:30:43.000Z</time>
        <extensions>
          <ns3:TrackPointExtension>
            <ns3:atemp>25.0</ns3:atemp>
          </ns3:TrackPointExtension>
        </extensions>
      </trkpt>
      <trkpt lat="42.51848853193223476409912109375" lon="20.15664978884160518646240234375">
        <ele>1889.199951171875</ele>
        <time>2026-06-20T09:30:44.000Z</time>
        <extensions>
          <ns3:TrackPointExtension>
            <ns3:atemp>25.0</ns3:atemp>
          </ns3:TrackPointExtension>
        </extensions>
      </trkpt>
      <trkpt lat="42.51847059465944766998291015625" lon="20.15664442442357540130615234375">
        <ele>1889.4000244140625</ele>
        <time>2026-06-20T09:30:45.000Z</time>
        <extensions>
          <ns3:TrackPointExtension>
            <ns3:atemp>25.0</ns3:atemp>
          </ns3:TrackPointExtension>
        </extensions>
      </trkpt>
      <trkpt lat="42.51845441758632659912109375" lon="20.156638808548450469970703125">
        <ele>1889.5999755859375</ele>
        <time>2026-06-20T09:30:46.000Z</time>
        <extensions>
          <ns3:TrackPointExtension>
            <ns3:atemp>25.0</ns3:atemp>
          </ns3:TrackPointExtension>
        </extensions>
      </trkpt>
      <trkpt lat="42.5184364803135395050048828125" lon="20.15663621015846729278564453125">
        <ele>1890</ele>
        <time>2026-06-20T09:30:47.000Z</time>
        <extensions>
          <ns3:TrackPointExtension>
            <ns3:atemp>25.0</ns3:atemp>
          </ns3:TrackPointExtension>
        </extensions>
      </trkpt>
      <trkpt lat="42.5184190459549427032470703125" lon="20.1566282473504543304443359375">
        <ele>1890.4000244140625</ele>
        <time>2026-06-20T09:30:48.000Z</time>
        <extensions>
          <ns3:TrackPointExtension>
            <ns3:atemp>25.0</ns3:atemp>
          </ns3:TrackPointExtension>
        </extensions>
      </trkpt>
      <trkpt lat="42.518408484756946563720703125" lon="20.156617350876331329345703125">
        <ele>1891</ele>
        <time>2026-06-20T09:30:49.000Z</time>
        <extensions>
          <ns3:TrackPointExtension>
            <ns3:atemp>25.0</ns3:atemp>
          </ns3:TrackPointExtension>
        </extensions>
      </trkpt>
      <trkpt lat="42.51839934848248958587646484375" lon="20.15660159289836883544921875">
        <ele>1891.4000244140625</ele>
        <time>2026-06-20T09:30:50.000Z</time>
        <extensions>
          <ns3:TrackPointExtension>
            <ns3:atemp>25.0</ns3:atemp>
          </ns3:TrackPointExtension>
        </extensions>
      </trkpt>
      <trkpt lat="42.51839096657931804656982421875" lon="20.1565890200436115264892578125">
        <ele>1891.800048828125</ele>
        <time>2026-06-20T09:30:51.000Z</time>
        <extensions>
          <ns3:TrackPointExtension>
            <ns3:atemp>25.0</ns3:atemp>
          </ns3:TrackPointExtension>
        </extensions>
      </trkpt>
      <trkpt lat="42.51839113421738147735595703125" lon="20.1565714180469512939453125">
        <ele>1892.199951171875</ele>
        <time>2026-06-20T09:30:52.000Z</time>
        <extensions>
          <ns3:TrackPointExtension>
            <ns3:atemp>25.0</ns3:atemp>
          </ns3:TrackPointExtension>
        </extensions>
      </trkpt>
      <trkpt lat="42.5183928944170475006103515625" lon="20.1565524749457836151123046875">
        <ele>1892.800048828125</ele>
        <time>2026-06-20T09:30:53.000Z</time>
        <extensions>
          <ns3:TrackPointExtension>
            <ns3:atemp>25.0</ns3:atemp>
          </ns3:TrackPointExtension>
        </extensions>
      </trkpt>
      <trkpt lat="42.51839540898799896240234375" lon="20.15653378330171108245849609375">
        <ele>1893</ele>
        <time>2026-06-20T09:30:54.000Z</time>
        <extensions>
          <ns3:TrackPointExtension>
            <ns3:atemp>25.0</ns3:atemp>
          </ns3:TrackPointExtension>
        </extensions>
      </trkpt>
      <trkpt lat="42.5183965824544429779052734375" lon="20.156517438590526580810546875">
        <ele>1893.199951171875</ele>
        <time>2026-06-20T09:30:55.000Z</time>
        <extensions>
          <ns3:TrackPointExtension>
            <ns3:atemp>25.0</ns3:atemp>
          </ns3:TrackPointExtension>
        </extensions>
      </trkpt>
      <trkpt lat="42.51839666627347469329833984375" lon="20.156497992575168609619140625">
        <ele>1893.4000244140625</ele>
        <time>2026-06-20T09:30:56.000Z</time>
        <extensions>
          <ns3:TrackPointExtension>
            <ns3:atemp>25.0</ns3:atemp>
          </ns3:TrackPointExtension>
        </extensions>
      </trkpt>
      <trkpt lat="42.51839515753090381622314453125" lon="20.15647779218852519989013671875">
        <ele>1893.4000244140625</ele>
        <time>2026-06-20T09:30:57.000Z</time>
        <extensions>
          <ns3:TrackPointExtension>
            <ns3:atemp>25.0</ns3:atemp>
          </ns3:TrackPointExtension>
        </extensions>
      </trkpt>
      <trkpt lat="42.5183965824544429779052734375" lon="20.15645541250705718994140625">
        <ele>1893.5999755859375</ele>
        <time>2026-06-20T09:30:58.000Z</time>
        <extensions>
          <ns3:TrackPointExtension>
            <ns3:atemp>25.0</ns3:atemp>
          </ns3:TrackPointExtension>
        </extensions>
      </trkpt>
      <trkpt lat="42.51840211451053619384765625" lon="20.15643571503460407257080078125">
        <ele>1893.800048828125</ele>
        <time>2026-06-20T09:30:59.000Z</time>
        <extensions>
          <ns3:TrackPointExtension>
            <ns3:atemp>25.0</ns3:atemp>
          </ns3:TrackPointExtension>
        </extensions>
      </trkpt>
      <trkpt lat="42.51840773038566112518310546875" lon="20.15641509555280208587646484375">
        <ele>1894</ele>
        <time>2026-06-20T09:31:00.000Z</time>
        <extensions>
          <ns3:TrackPointExtension>
            <ns3:atemp>25.0</ns3:atemp>
          </ns3:TrackPointExtension>
        </extensions>
      </trkpt>
      <trkpt lat="42.51841292716562747955322265625" lon="20.15639095567166805267333984375">
        <ele>1894.199951171875</ele>
        <time>2026-06-20T09:31:01.000Z</time>
        <extensions>
          <ns3:TrackPointExtension>
            <ns3:atemp>25.0</ns3:atemp>
          </ns3:TrackPointExtension>
        </extensions>
      </trkpt>
      <trkpt lat="42.5184161961078643798828125" lon="20.1563675701618194580078125">
        <ele>1894.199951171875</ele>
        <time>2026-06-20T09:31:02.000Z</time>
        <extensions>
          <ns3:TrackPointExtension>
            <ns3:atemp>25.0</ns3:atemp>
          </ns3:TrackPointExtension>
        </extensions>
      </trkpt>
      <trkpt lat="42.51841980032622814178466796875" lon="20.156344436109066009521484375">
        <ele>1894.4000244140625</ele>
        <time>2026-06-20T09:31:03.000Z</time>
        <extensions>
          <ns3:TrackPointExtension>
            <ns3:atemp>25.0</ns3:atemp>
          </ns3:TrackPointExtension>
        </extensions>
      </trkpt>
      <trkpt lat="42.51842332072556018829345703125" lon="20.156322978436946868896484375">
        <ele>1894.5999755859375</ele>
        <time>2026-06-20T09:31:04.000Z</time>
        <extensions>
          <ns3:TrackPointExtension>
            <ns3:atemp>25.0</ns3:atemp>
          </ns3:TrackPointExtension>
        </extensions>
      </trkpt>
      <trkpt lat="42.51842633821070194244384765625" lon="20.1562993414700031280517578125">
        <ele>1894.800048828125</ele>
        <time>2026-06-20T09:31:05.000Z</time>
        <extensions>
          <ns3:TrackPointExtension>
            <ns3:atemp>25.0</ns3:atemp>
          </ns3:TrackPointExtension>
        </extensions>
      </trkpt>
      <trkpt lat="42.51842667348682880401611328125" lon="20.1562758721411228179931640625">
        <ele>1895</ele>
        <time>2026-06-20T09:31:06.000Z</time>
        <extensions>
          <ns3:TrackPointExtension>
            <ns3:atemp>25.0</ns3:atemp>
          </ns3:TrackPointExtension>
        </extensions>
      </trkpt>
      <trkpt lat="42.518430612981319427490234375" lon="20.156252570450305938720703125">
        <ele>1895.4000244140625</ele>
        <time>2026-06-20T09:31:07.000Z</time>
        <extensions>
          <ns3:TrackPointExtension>
            <ns3:atemp>25.0</ns3:atemp>
          </ns3:TrackPointExtension>
        </extensions>
      </trkpt>
      <trkpt lat="42.5184376537799835205078125" lon="20.15623438172042369842529296875">
        <ele>1895.800048828125</ele>
        <time>2026-06-20T09:31:08.000Z</time>
        <extensions>
          <ns3:TrackPointExtension>
            <ns3:atemp>25.0</ns3:atemp>
          </ns3:TrackPointExtension>
        </extensions>
      </trkpt>
      <trkpt lat="42.51844159327447414398193359375" lon="20.15621292404830455780029296875">
        <ele>1896.199951171875</ele>
        <time>2026-06-20T09:31:09.000Z</time>
        <extensions>
          <ns3:TrackPointExtension>
            <ns3:atemp>25.0</ns3:atemp>
          </ns3:TrackPointExtension>
        </extensions>
      </trkpt>
      <trkpt lat="42.5184441916644573211669921875" lon="20.15618928708136081695556640625">
        <ele>1896.5999755859375</ele>
        <time>2026-06-20T09:31:10.000Z</time>
        <extensions>
          <ns3:TrackPointExtension>
            <ns3:atemp>25.0</ns3:atemp>
          </ns3:TrackPointExtension>
        </extensions>
      </trkpt>
      <trkpt lat="42.51844704151153564453125" lon="20.15617378056049346923828125">
        <ele>1896.800048828125</ele>
        <time>2026-06-20T09:31:11.000Z</time>
        <extensions>
          <ns3:TrackPointExtension>
            <ns3:atemp>25.0</ns3:atemp>
          </ns3:TrackPointExtension>
        </extensions>
      </trkpt>
      <trkpt lat="42.51845416612923145294189453125" lon="20.1561561785638332366943359375">
        <ele>1897.199951171875</ele>
        <time>2026-06-20T09:31:12.000Z</time>
        <extensions>
          <ns3:TrackPointExtension>
            <ns3:atemp>25.0</ns3:atemp>
          </ns3:TrackPointExtension>
        </extensions>
      </trkpt>
      <trkpt lat="42.51845953054726123809814453125" lon="20.15613513998687267303466796875">
        <ele>1897.4000244140625</ele>
        <time>2026-06-20T09:31:13.000Z</time>
        <extensions>
          <ns3:TrackPointExtension>
            <ns3:atemp>25.0</ns3:atemp>
          </ns3:TrackPointExtension>
        </extensions>
      </trkpt>
      <trkpt lat="42.51845986582338809967041015625" lon="20.15611452050507068634033203125">
        <ele>1897.800048828125</ele>
        <time>2026-06-20T09:31:14.000Z</time>
        <extensions>
          <ns3:TrackPointExtension>
            <ns3:atemp>25.0</ns3:atemp>
          </ns3:TrackPointExtension>
        </extensions>
      </trkpt>
      <trkpt lat="42.51846170984208583831787109375" lon="20.1560931466519832611083984375">
        <ele>1898.199951171875</ele>
        <time>2026-06-20T09:31:15.000Z</time>
        <extensions>
          <ns3:TrackPointExtension>
            <ns3:atemp>25.0</ns3:atemp>
          </ns3:TrackPointExtension>
        </extensions>
      </trkpt>
      <trkpt lat="42.51846305094659328460693359375" lon="20.15606741420924663543701171875">
        <ele>1898.4000244140625</ele>
        <time>2026-06-20T09:31:16.000Z</time>
        <extensions>
          <ns3:TrackPointExtension>
            <ns3:atemp>25.0</ns3:atemp>
          </ns3:TrackPointExtension>
        </extensions>
      </trkpt>
      <trkpt lat="42.5184633024036884307861328125" lon="20.15604176558554172515869140625">
        <ele>1898.5999755859375</ele>
        <time>2026-06-20T09:31:17.000Z</time>
        <extensions>
          <ns3:TrackPointExtension>
            <ns3:atemp>25.0</ns3:atemp>
          </ns3:TrackPointExtension>
        </extensions>
      </trkpt>
      <trkpt lat="42.5184599496424198150634765625" lon="20.15602089464664459228515625">
        <ele>1898.800048828125</ele>
        <time>2026-06-20T09:31:18.000Z</time>
        <extensions>
          <ns3:TrackPointExtension>
            <ns3:atemp>25.0</ns3:atemp>
          </ns3:TrackPointExtension>
        </extensions>
      </trkpt>
      <trkpt lat="42.51845416612923145294189453125" lon="20.1559979282319545745849609375">
        <ele>1899.199951171875</ele>
        <time>2026-06-20T09:31:19.000Z</time>
        <extensions>
          <ns3:TrackPointExtension>
            <ns3:atemp>25.0</ns3:atemp>
          </ns3:TrackPointExtension>
        </extensions>
      </trkpt>
      <trkpt lat="42.51845081336796283721923828125" lon="20.15597353689372539520263671875">
        <ele>1899.4000244140625</ele>
        <time>2026-06-20T09:31:20.000Z</time>
        <extensions>
          <ns3:TrackPointExtension>
            <ns3:atemp>25.0</ns3:atemp>
          </ns3:TrackPointExtension>
        </extensions>
      </trkpt>
      <trkpt lat="42.51844578422605991363525390625" lon="20.15594939701259136199951171875">
        <ele>1899.800048828125</ele>
        <time>2026-06-20T09:31:21.000Z</time>
        <extensions>
          <ns3:TrackPointExtension>
            <ns3:atemp>25.0</ns3:atemp>
          </ns3:TrackPointExtension>
        </extensions>
      </trkpt>
      <trkpt lat="42.518438659608364105224609375" lon="20.1559278555214405059814453125">
        <ele>1900</ele>
        <time>2026-06-20T09:31:22.000Z</time>
        <extensions>
          <ns3:TrackPointExtension>
            <ns3:atemp>25.0</ns3:atemp>
          </ns3:TrackPointExtension>
        </extensions>
      </trkpt>
      <trkpt lat="42.51843337900936603546142578125" lon="20.15590346418321132659912109375">
        <ele>1900.199951171875</ele>
        <time>2026-06-20T09:31:23.000Z</time>
        <extensions>
          <ns3:TrackPointExtension>
            <ns3:atemp>25.0</ns3:atemp>
          </ns3:TrackPointExtension>
        </extensions>
      </trkpt>
      <trkpt lat="42.518430612981319427490234375" lon="20.1558820903301239013671875">
        <ele>1900.5999755859375</ele>
        <time>2026-06-20T09:31:24.000Z</time>
        <extensions>
          <ns3:TrackPointExtension>
            <ns3:atemp>25.0</ns3:atemp>
          </ns3:TrackPointExtension>
        </extensions>
      </trkpt>
      <trkpt lat="42.518430612981319427490234375" lon="20.15586289577186107635498046875">
        <ele>1901</ele>
        <time>2026-06-20T09:31:25.000Z</time>
        <extensions>
          <ns3:TrackPointExtension>
            <ns3:atemp>25.0</ns3:atemp>
          </ns3:TrackPointExtension>
        </extensions>
      </trkpt>
      <trkpt lat="42.51843027770519256591796875" lon="20.15584386885166168212890625">
        <ele>1901.4000244140625</ele>
        <time>2026-06-20T09:31:26.000Z</time>
        <extensions>
          <ns3:TrackPointExtension>
            <ns3:atemp>25.0</ns3:atemp>
          </ns3:TrackPointExtension>
        </extensions>
      </trkpt>
      <trkpt lat="42.51842935569584369659423828125" lon="20.1558266021311283111572265625">
        <ele>1901.800048828125</ele>
        <time>2026-06-20T09:31:27.000Z</time>
        <extensions>
          <ns3:TrackPointExtension>
            <ns3:atemp>25.0</ns3:atemp>
          </ns3:TrackPointExtension>
        </extensions>
      </trkpt>
      <trkpt lat="42.51842885278165340423583984375" lon="20.15580589883029460906982421875">
        <ele>1902</ele>
        <time>2026-06-20T09:31:28.000Z</time>
        <extensions>
          <ns3:TrackPointExtension>
            <ns3:atemp>25.0</ns3:atemp>
          </ns3:TrackPointExtension>
        </extensions>
      </trkpt>
      <trkpt lat="42.51842332072556018829345703125" lon="20.155785866081714630126953125">
        <ele>1902.4000244140625</ele>
        <time>2026-06-20T09:31:29.000Z</time>
        <extensions>
          <ns3:TrackPointExtension>
            <ns3:atemp>25.0</ns3:atemp>
          </ns3:TrackPointExtension>
        </extensions>
      </trkpt>
      <trkpt lat="42.51841862685978412628173828125" lon="20.1557649113237857818603515625">
        <ele>1902.800048828125</ele>
        <time>2026-06-20T09:31:30.000Z</time>
        <extensions>
          <ns3:TrackPointExtension>
            <ns3:atemp>25.0</ns3:atemp>
          </ns3:TrackPointExtension>
        </extensions>
      </trkpt>
      <trkpt lat="42.5184156931936740875244140625" lon="20.15574538148939609527587890625">
        <ele>1903.199951171875</ele>
        <time>2026-06-20T09:31:31.000Z</time>
        <extensions>
          <ns3:TrackPointExtension>
            <ns3:atemp>25.0</ns3:atemp>
          </ns3:TrackPointExtension>
        </extensions>
      </trkpt>
      <trkpt lat="42.5184113346040248870849609375" lon="20.15572342090308666229248046875">
        <ele>1903.4000244140625</ele>
        <time>2026-06-20T09:31:32.000Z</time>
        <extensions>
          <ns3:TrackPointExtension>
            <ns3:atemp>25.0</ns3:atemp>
          </ns3:TrackPointExtension>
        </extensions>
      </trkpt>
      <trkpt lat="42.5184109993278980255126953125" lon="20.15569710172712802886962890625">
        <ele>1903.800048828125</ele>
        <time>2026-06-20T09:31:33.000Z</time>
        <extensions>
          <ns3:TrackPointExtension>
            <ns3:atemp>25.0</ns3:atemp>
          </ns3:TrackPointExtension>
        </extensions>
      </trkpt>
      <trkpt lat="42.5184140168130397796630859375" lon="20.1556728780269622802734375">
        <ele>1904.199951171875</ele>
        <time>2026-06-20T09:31:34.000Z</time>
        <extensions>
          <ns3:TrackPointExtension>
            <ns3:atemp>25.0</ns3:atemp>
          </ns3:TrackPointExtension>
        </extensions>
      </trkpt>
      <trkpt lat="42.5184133462607860565185546875" lon="20.155644714832305908203125">
        <ele>1904.5999755859375</ele>
        <time>2026-06-20T09:31:35.000Z</time>
        <extensions>
          <ns3:TrackPointExtension>
            <ns3:atemp>25.0</ns3:atemp>
          </ns3:TrackPointExtension>
        </extensions>
      </trkpt>
      <trkpt lat="42.51840890385210514068603515625" lon="20.15561998821794986724853515625">
        <ele>1904.800048828125</ele>
        <time>2026-06-20T09:31:36.000Z</time>
        <extensions>
          <ns3:TrackPointExtension>
            <ns3:atemp>25.0</ns3:atemp>
          </ns3:TrackPointExtension>
        </extensions>
      </trkpt>
      <trkpt lat="42.518403790891170501708984375" lon="20.155600123107433319091796875">
        <ele>1905</ele>
        <time>2026-06-20T09:31:37.000Z</time>
        <extensions>
          <ns3:TrackPointExtension>
            <ns3:atemp>25.0</ns3:atemp>
          </ns3:TrackPointExtension>
        </extensions>
      </trkpt>
      <trkpt lat="42.51840219832956790924072265625" lon="20.1555768214166164398193359375">
        <ele>1905.4000244140625</ele>
        <time>2026-06-20T09:31:38.000Z</time>
        <extensions>
          <ns3:TrackPointExtension>
            <ns3:atemp>25.0</ns3:atemp>
          </ns3:TrackPointExtension>
        </extensions>
      </trkpt>
      <trkpt lat="42.51839968375861644744873046875" lon="20.155557207763195037841796875">
        <ele>1905.800048828125</ele>
        <time>2026-06-20T09:31:39.000Z</time>
        <extensions>
          <ns3:TrackPointExtension>
            <ns3:atemp>25.0</ns3:atemp>
          </ns3:TrackPointExtension>
        </extensions>
      </trkpt>
      <trkpt lat="42.51839700154960155487060546875" lon="20.15553868375718593597412109375">
        <ele>1906.199951171875</ele>
        <time>2026-06-20T09:31:40.000Z</time>
        <extensions>
          <ns3:TrackPointExtension>
            <ns3:atemp>25.0</ns3:atemp>
          </ns3:TrackPointExtension>
        </extensions>
      </trkpt>
      <trkpt lat="42.51839163713157176971435546875" lon="20.1555198244750499725341796875">
        <ele>1906.5999755859375</ele>
        <time>2026-06-20T09:31:41.000Z</time>
        <extensions>
          <ns3:TrackPointExtension>
            <ns3:atemp>25.0</ns3:atemp>
          </ns3:TrackPointExtension>
        </extensions>
      </trkpt>
      <trkpt lat="42.51838627271354198455810546875" lon="20.15549778006970882415771484375">
        <ele>1906.800048828125</ele>
        <time>2026-06-20T09:31:42.000Z</time>
        <extensions>
          <ns3:TrackPointExtension>
            <ns3:atemp>25.0</ns3:atemp>
          </ns3:TrackPointExtension>
        </extensions>
      </trkpt>
      <trkpt lat="42.51838426105678081512451171875" lon="20.1554769091308116912841796875">
        <ele>1907.199951171875</ele>
        <time>2026-06-20T09:31:43.000Z</time>
        <extensions>
          <ns3:TrackPointExtension>
            <ns3:atemp>25.0</ns3:atemp>
          </ns3:TrackPointExtension>
        </extensions>
      </trkpt>
      <trkpt lat="42.51838359050452709197998046875" lon="20.15545687638223171234130859375">
        <ele>1907.5999755859375</ele>
        <time>2026-06-20T09:31:44.000Z</time>
        <extensions>
          <ns3:TrackPointExtension>
            <ns3:atemp>25.0</ns3:atemp>
          </ns3:TrackPointExtension>
        </extensions>
      </trkpt>
      <trkpt lat="42.51837797462940216064453125" lon="20.15543843619525432586669921875">
        <ele>1908</ele>
        <time>2026-06-20T09:31:45.000Z</time>
        <extensions>
          <ns3:TrackPointExtension>
            <ns3:atemp>25.0</ns3:atemp>
          </ns3:TrackPointExtension>
        </extensions>
      </trkpt>
      <trkpt lat="42.5183757953345775604248046875" lon="20.1554185710847377777099609375">
        <ele>1908.199951171875</ele>
        <time>2026-06-20T09:31:46.000Z</time>
        <extensions>
          <ns3:TrackPointExtension>
            <ns3:atemp>25.0</ns3:atemp>
          </ns3:TrackPointExtension>
        </extensions>
      </trkpt>
      <trkpt lat="42.5183761306107044219970703125" lon="20.15539987944066524505615234375">
        <ele>1908.5999755859375</ele>
        <time>2026-06-20T09:31:47.000Z</time>
        <extensions>
          <ns3:TrackPointExtension>
            <ns3:atemp>25.0</ns3:atemp>
          </ns3:TrackPointExtension>
        </extensions>
      </trkpt>
      <trkpt lat="42.51837923191487789154052734375" lon="20.15537984669208526611328125">
        <ele>1909</ele>
        <time>2026-06-20T09:31:48.000Z</time>
        <extensions>
          <ns3:TrackPointExtension>
            <ns3:atemp>25.0</ns3:atemp>
          </ns3:TrackPointExtension>
        </extensions>
      </trkpt>
      <trkpt lat="42.5183808244764804840087890625" lon="20.1553585566580295562744140625">
        <ele>1909.4000244140625</ele>
        <time>2026-06-20T09:31:49.000Z</time>
        <extensions>
          <ns3:TrackPointExtension>
            <ns3:atemp>25.0</ns3:atemp>
          </ns3:TrackPointExtension>
        </extensions>
      </trkpt>
      <trkpt lat="42.51837889663875102996826171875" lon="20.15534137375652790069580078125">
        <ele>1909.800048828125</ele>
        <time>2026-06-20T09:31:50.000Z</time>
        <extensions>
          <ns3:TrackPointExtension>
            <ns3:atemp>25.0</ns3:atemp>
          </ns3:TrackPointExtension>
        </extensions>
      </trkpt>
      <trkpt lat="42.51837395131587982177734375" lon="20.155322849750518798828125">
        <ele>1910</ele>
        <time>2026-06-20T09:31:51.000Z</time>
        <extensions>
          <ns3:TrackPointExtension>
            <ns3:atemp>25.0</ns3:atemp>
          </ns3:TrackPointExtension>
        </extensions>
      </trkpt>
      <trkpt lat="42.51836699433624744415283203125" lon="20.15529795549809932708740234375">
        <ele>1910.4000244140625</ele>
        <time>2026-06-20T09:31:52.000Z</time>
        <extensions>
          <ns3:TrackPointExtension>
            <ns3:atemp>25.0</ns3:atemp>
          </ns3:TrackPointExtension>
        </extensions>
      </trkpt>
      <trkpt lat="42.51836112700402736663818359375" lon="20.15527850948274135589599609375">
        <ele>1910.800048828125</ele>
        <time>2026-06-20T09:31:53.000Z</time>
        <extensions>
          <ns3:TrackPointExtension>
            <ns3:atemp>25.0</ns3:atemp>
          </ns3:TrackPointExtension>
        </extensions>
      </trkpt>
      <trkpt lat="42.5183546729385852813720703125" lon="20.15526073984801769256591796875">
        <ele>1911.4000244140625</ele>
        <time>2026-06-20T09:31:54.000Z</time>
        <extensions>
          <ns3:TrackPointExtension>
            <ns3:atemp>25.0</ns3:atemp>
          </ns3:TrackPointExtension>
        </extensions>
      </trkpt>
      <trkpt lat="42.51834268681704998016357421875" lon="20.1552489213645458221435546875">
        <ele>1911.800048828125</ele>
        <time>2026-06-20T09:31:55.000Z</time>
        <extensions>
          <ns3:TrackPointExtension>
            <ns3:atemp>25.0</ns3:atemp>
          </ns3:TrackPointExtension>
        </extensions>
      </trkpt>
      <trkpt lat="42.51833162270486354827880859375" lon="20.155231319367885589599609375">
        <ele>1912.199951171875</ele>
        <time>2026-06-20T09:31:56.000Z</time>
        <extensions>
          <ns3:TrackPointExtension>
            <ns3:atemp>25.0</ns3:atemp>
          </ns3:TrackPointExtension>
        </extensions>
      </trkpt>
      <trkpt lat="42.51832139678299427032470703125" lon="20.1552163995802402496337890625">
        <ele>1912.4000244140625</ele>
        <time>2026-06-20T09:31:57.000Z</time>
        <extensions>
          <ns3:TrackPointExtension>
            <ns3:atemp>25.0</ns3:atemp>
          </ns3:TrackPointExtension>
        </extensions>
      </trkpt>
      <trkpt lat="42.5183107517659664154052734375" lon="20.1552008092403411865234375">
        <ele>1912.4000244140625</ele>
        <time>2026-06-20T09:31:58.000Z</time>
        <extensions>
          <ns3:TrackPointExtension>
            <ns3:atemp>25.0</ns3:atemp>
          </ns3:TrackPointExtension>
        </extensions>
      </trkpt>
      <trkpt lat="42.5182993523776531219482421875" lon="20.155183039605617523193359375">
        <ele>1912.5999755859375</ele>
        <time>2026-06-20T09:31:59.000Z</time>
        <extensions>
          <ns3:TrackPointExtension>
            <ns3:atemp>25.0</ns3:atemp>
          </ns3:TrackPointExtension>
        </extensions>
      </trkpt>
      <trkpt lat="42.51828568987548351287841796875" lon="20.1551654376089572906494140625">
        <ele>1912.5999755859375</ele>
        <time>2026-06-20T09:32:00.000Z</time>
        <extensions>
          <ns3:TrackPointExtension>
            <ns3:atemp>25.0</ns3:atemp>
          </ns3:TrackPointExtension>
        </extensions>
      </trkpt>
      <trkpt lat="42.518271021544933319091796875" lon="20.15515177510678768157958984375">
        <ele>1912.5999755859375</ele>
        <time>2026-06-20T09:32:01.000Z</time>
        <extensions>
          <ns3:TrackPointExtension>
            <ns3:atemp>25.0</ns3:atemp>
          </ns3:TrackPointExtension>
        </extensions>
      </trkpt>
      <trkpt lat="42.5182592868804931640625" lon="20.15513618476688861846923828125">
        <ele>1912.800048828125</ele>
        <time>2026-06-20T09:32:02.000Z</time>
        <extensions>
          <ns3:TrackPointExtension>
            <ns3:atemp>25.0</ns3:atemp>
          </ns3:TrackPointExtension>
        </extensions>
      </trkpt>
      <trkpt lat="42.51824579201638698577880859375" lon="20.15512260608375072479248046875">
        <ele>1912.800048828125</ele>
        <time>2026-06-20T09:32:03.000Z</time>
        <extensions>
          <ns3:TrackPointExtension>
            <ns3:atemp>25.0</ns3:atemp>
          </ns3:TrackPointExtension>
        </extensions>
      </trkpt>
      <trkpt lat="42.51823984086513519287109375" lon="20.15510282479226589202880859375">
        <ele>1913</ele>
        <time>2026-06-20T09:32:04.000Z</time>
        <extensions>
          <ns3:TrackPointExtension>
            <ns3:atemp>25.0</ns3:atemp>
          </ns3:TrackPointExtension>
        </extensions>
      </trkpt>
      <trkpt lat="42.51823137514293193817138671875" lon="20.15508807264268398284912109375">
        <ele>1913.4000244140625</ele>
        <time>2026-06-20T09:32:05.000Z</time>
        <extensions>
          <ns3:TrackPointExtension>
            <ns3:atemp>25.0</ns3:atemp>
          </ns3:TrackPointExtension>
        </extensions>
      </trkpt>
      <trkpt lat="42.51822483725845813751220703125" lon="20.15507114119827747344970703125">
        <ele>1913.800048828125</ele>
        <time>2026-06-20T09:32:06.000Z</time>
        <extensions>
          <ns3:TrackPointExtension>
            <ns3:atemp>25.0</ns3:atemp>
          </ns3:TrackPointExtension>
        </extensions>
      </trkpt>
      <trkpt lat="42.518221400678157806396484375" lon="20.155053623020648956298828125">
        <ele>1914</ele>
        <time>2026-06-20T09:32:07.000Z</time>
        <extensions>
          <ns3:TrackPointExtension>
            <ns3:atemp>25.0</ns3:atemp>
          </ns3:TrackPointExtension>
        </extensions>
      </trkpt>
      <trkpt lat="42.51821796409785747528076171875" lon="20.15503543429076671600341796875">
        <ele>1914.4000244140625</ele>
        <time>2026-06-20T09:32:08.000Z</time>
        <extensions>
          <ns3:TrackPointExtension>
            <ns3:atemp>25.0</ns3:atemp>
          </ns3:TrackPointExtension>
        </extensions>
      </trkpt>
      <trkpt lat="42.51821025274693965911865234375" lon="20.15501774847507476806640625">
        <ele>1914.5999755859375</ele>
        <time>2026-06-20T09:32:09.000Z</time>
        <extensions>
          <ns3:TrackPointExtension>
            <ns3:atemp>25.0</ns3:atemp>
          </ns3:TrackPointExtension>
        </extensions>
      </trkpt>
      <trkpt lat="42.51820237375795841217041015625" lon="20.15499352477490901947021484375">
        <ele>1914.800048828125</ele>
        <time>2026-06-20T09:32:10.000Z</time>
        <extensions>
          <ns3:TrackPointExtension>
            <ns3:atemp>25.0</ns3:atemp>
          </ns3:TrackPointExtension>
        </extensions>
      </trkpt>
      <trkpt lat="42.51819600351154804229736328125" lon="20.15497349202632904052734375">
        <ele>1915.199951171875</ele>
        <time>2026-06-20T09:32:11.000Z</time>
        <extensions>
          <ns3:TrackPointExtension>
            <ns3:atemp>25.0</ns3:atemp>
          </ns3:TrackPointExtension>
        </extensions>
      </trkpt>
      <trkpt lat="42.518194578588008880615234375" lon="20.154953710734844207763671875">
        <ele>1915.5999755859375</ele>
        <time>2026-06-20T09:32:12.000Z</time>
        <extensions>
          <ns3:TrackPointExtension>
            <ns3:atemp>25.0</ns3:atemp>
          </ns3:TrackPointExtension>
        </extensions>
      </trkpt>
      <trkpt lat="42.5181970931589603424072265625" lon="20.15493191778659820556640625">
        <ele>1915.800048828125</ele>
        <time>2026-06-20T09:32:13.000Z</time>
        <extensions>
          <ns3:TrackPointExtension>
            <ns3:atemp>25.0</ns3:atemp>
          </ns3:TrackPointExtension>
        </extensions>
      </trkpt>
      <trkpt lat="42.51820237375795841217041015625" lon="20.1549096219241619110107421875">
        <ele>1916.199951171875</ele>
        <time>2026-06-20T09:32:14.000Z</time>
        <extensions>
          <ns3:TrackPointExtension>
            <ns3:atemp>25.0</ns3:atemp>
          </ns3:TrackPointExtension>
        </extensions>
      </trkpt>
      <trkpt lat="42.51820337958633899688720703125" lon="20.1548861525952816009521484375">
        <ele>1916.5999755859375</ele>
        <time>2026-06-20T09:32:15.000Z</time>
        <extensions>
          <ns3:TrackPointExtension>
            <ns3:atemp>25.0</ns3:atemp>
          </ns3:TrackPointExtension>
        </extensions>
      </trkpt>
      <trkpt lat="42.51820472069084644317626953125" lon="20.15486226417124271392822265625">
        <ele>1917</ele>
        <time>2026-06-20T09:32:16.000Z</time>
        <extensions>
          <ns3:TrackPointExtension>
            <ns3:atemp>25.0</ns3:atemp>
          </ns3:TrackPointExtension>
        </extensions>
      </trkpt>
      <trkpt lat="42.51820840872824192047119140625" lon="20.15484273433685302734375">
        <ele>1917.199951171875</ele>
        <time>2026-06-20T09:32:17.000Z</time>
        <extensions>
          <ns3:TrackPointExtension>
            <ns3:atemp>25.0</ns3:atemp>
          </ns3:TrackPointExtension>
        </extensions>
      </trkpt>
      <trkpt lat="42.5182118453085422515869140625" lon="20.15482102520763874053955078125">
        <ele>1917.5999755859375</ele>
        <time>2026-06-20T09:32:18.000Z</time>
        <extensions>
          <ns3:TrackPointExtension>
            <ns3:atemp>25.0</ns3:atemp>
          </ns3:TrackPointExtension>
        </extensions>
      </trkpt>
      <trkpt lat="42.5182096660137176513671875" lon="20.1548011600971221923828125">
        <ele>1918</ele>
        <time>2026-06-20T09:32:19.000Z</time>
        <extensions>
          <ns3:TrackPointExtension>
            <ns3:atemp>25.0</ns3:atemp>
          </ns3:TrackPointExtension>
        </extensions>
      </trkpt>
      <trkpt lat="42.5182054750621318817138671875" lon="20.15478699468076229095458984375">
        <ele>1918.199951171875</ele>
        <time>2026-06-20T09:32:20.000Z</time>
        <extensions>
          <ns3:TrackPointExtension>
            <ns3:atemp>25.0</ns3:atemp>
          </ns3:TrackPointExtension>
        </extensions>
      </trkpt>
      <trkpt lat="42.518197596073150634765625" lon="20.15476469881832599639892578125">
        <ele>1918.5999755859375</ele>
        <time>2026-06-20T09:32:21.000Z</time>
        <extensions>
          <ns3:TrackPointExtension>
            <ns3:atemp>25.0</ns3:atemp>
          </ns3:TrackPointExtension>
        </extensions>
      </trkpt>
      <trkpt lat="42.5181954167783260345458984375" lon="20.1547446660697460174560546875">
        <ele>1919</ele>
        <time>2026-06-20T09:32:22.000Z</time>
        <extensions>
          <ns3:TrackPointExtension>
            <ns3:atemp>25.0</ns3:atemp>
          </ns3:TrackPointExtension>
        </extensions>
      </trkpt>
      <trkpt lat="42.5181964226067066192626953125" lon="20.15472480095922946929931640625">
        <ele>1919.4000244140625</ele>
        <time>2026-06-20T09:32:23.000Z</time>
        <extensions>
          <ns3:TrackPointExtension>
            <ns3:atemp>25.0</ns3:atemp>
          </ns3:TrackPointExtension>
        </extensions>
      </trkpt>
      <trkpt lat="42.51819449476897716522216796875" lon="20.154705941677093505859375">
        <ele>1919.5999755859375</ele>
        <time>2026-06-20T09:32:24.000Z</time>
        <extensions>
          <ns3:TrackPointExtension>
            <ns3:atemp>25.0</ns3:atemp>
          </ns3:TrackPointExtension>
        </extensions>
      </trkpt>
      <trkpt lat="42.51820136792957782745361328125" lon="20.15468825586140155792236328125">
        <ele>1920</ele>
        <time>2026-06-20T09:32:25.000Z</time>
        <extensions>
          <ns3:TrackPointExtension>
            <ns3:atemp>25.0</ns3:atemp>
          </ns3:TrackPointExtension>
        </extensions>
      </trkpt>
      <trkpt lat="42.5182088278234004974365234375" lon="20.1546702347695827484130859375">
        <ele>1920.199951171875</ele>
        <time>2026-06-20T09:32:26.000Z</time>
        <extensions>
          <ns3:TrackPointExtension>
            <ns3:atemp>25.0</ns3:atemp>
          </ns3:TrackPointExtension>
        </extensions>
      </trkpt>
      <trkpt lat="42.51821679063141345977783203125" lon="20.15464819036424160003662109375">
        <ele>1920.4000244140625</ele>
        <time>2026-06-20T09:32:27.000Z</time>
        <extensions>
          <ns3:TrackPointExtension>
            <ns3:atemp>25.0</ns3:atemp>
          </ns3:TrackPointExtension>
        </extensions>
      </trkpt>
      <trkpt lat="42.518225423991680145263671875" lon="20.1546300016343593597412109375">
        <ele>1920.800048828125</ele>
        <time>2026-06-20T09:32:28.000Z</time>
        <extensions>
          <ns3:TrackPointExtension>
            <ns3:atemp>25.0</ns3:atemp>
          </ns3:TrackPointExtension>
        </extensions>
      </trkpt>
      <trkpt lat="42.518232800066471099853515625" lon="20.154612399637699127197265625">
        <ele>1921.199951171875</ele>
        <time>2026-06-20T09:32:29.000Z</time>
        <extensions>
          <ns3:TrackPointExtension>
            <ns3:atemp>25.0</ns3:atemp>
          </ns3:TrackPointExtension>
        </extensions>
      </trkpt>
      <trkpt lat="42.5182378292083740234375" lon="20.15459253452718257904052734375">
        <ele>1921.4000244140625</ele>
        <time>2026-06-20T09:32:30.000Z</time>
        <extensions>
          <ns3:TrackPointExtension>
            <ns3:atemp>25.0</ns3:atemp>
          </ns3:TrackPointExtension>
        </extensions>
      </trkpt>
      <trkpt lat="42.5182420201599597930908203125" lon="20.15456940047442913055419921875">
        <ele>1921.800048828125</ele>
        <time>2026-06-20T09:32:31.000Z</time>
        <extensions>
          <ns3:TrackPointExtension>
            <ns3:atemp>25.0</ns3:atemp>
          </ns3:TrackPointExtension>
        </extensions>
      </trkpt>
      <trkpt lat="42.51824260689318180084228515625" lon="20.1545515470206737518310546875">
        <ele>1922</ele>
        <time>2026-06-20T09:32:32.000Z</time>
        <extensions>
          <ns3:TrackPointExtension>
            <ns3:atemp>25.0</ns3:atemp>
          </ns3:TrackPointExtension>
        </extensions>
      </trkpt>
      <trkpt lat="42.518243528902530670166015625" lon="20.154530592262744903564453125">
        <ele>1922.4000244140625</ele>
        <time>2026-06-20T09:32:33.000Z</time>
        <extensions>
          <ns3:TrackPointExtension>
            <ns3:atemp>25.0</ns3:atemp>
          </ns3:TrackPointExtension>
        </extensions>
      </trkpt>
      <trkpt lat="42.51824344508349895477294921875" lon="20.1545079611241817474365234375">
        <ele>1922.800048828125</ele>
        <time>2026-06-20T09:32:34.000Z</time>
        <extensions>
          <ns3:TrackPointExtension>
            <ns3:atemp>25.0</ns3:atemp>
          </ns3:TrackPointExtension>
        </extensions>
      </trkpt>
      <trkpt lat="42.518243528902530670166015625" lon="20.15448608435690402984619140625">
        <ele>1923</ele>
        <time>2026-06-20T09:32:35.000Z</time>
        <extensions>
          <ns3:TrackPointExtension>
            <ns3:atemp>25.0</ns3:atemp>
          </ns3:TrackPointExtension>
        </extensions>
      </trkpt>
      <trkpt lat="42.51824528910219669342041015625" lon="20.15446160919964313507080078125">
        <ele>1923.199951171875</ele>
        <time>2026-06-20T09:32:36.000Z</time>
        <extensions>
          <ns3:TrackPointExtension>
            <ns3:atemp>25.0</ns3:atemp>
          </ns3:TrackPointExtension>
        </extensions>
      </trkpt>
      <trkpt lat="42.51824713312089443206787109375" lon="20.15443797223269939422607421875">
        <ele>1923.4000244140625</ele>
        <time>2026-06-20T09:32:37.000Z</time>
        <extensions>
          <ns3:TrackPointExtension>
            <ns3:atemp>25.0</ns3:atemp>
          </ns3:TrackPointExtension>
        </extensions>
      </trkpt>
      <trkpt lat="42.518246211111545562744140625" lon="20.15441634692251682281494140625">
        <ele>1923.5999755859375</ele>
        <time>2026-06-20T09:32:38.000Z</time>
        <extensions>
          <ns3:TrackPointExtension>
            <ns3:atemp>25.0</ns3:atemp>
          </ns3:TrackPointExtension>
        </extensions>
      </trkpt>
      <trkpt lat="42.51824310980737209320068359375" lon="20.15439740382134914398193359375">
        <ele>1924</ele>
        <time>2026-06-20T09:32:39.000Z</time>
        <extensions>
          <ns3:TrackPointExtension>
            <ns3:atemp>25.0</ns3:atemp>
          </ns3:TrackPointExtension>
        </extensions>
      </trkpt>
      <trkpt lat="42.51824411563575267791748046875" lon="20.15437946654856204986572265625">
        <ele>1924.199951171875</ele>
        <time>2026-06-20T09:32:40.000Z</time>
        <extensions>
          <ns3:TrackPointExtension>
            <ns3:atemp>25.0</ns3:atemp>
          </ns3:TrackPointExtension>
        </extensions>
      </trkpt>
      <trkpt lat="42.51824948005378246307373046875" lon="20.1543627865612506866455078125">
        <ele>1924.5999755859375</ele>
        <time>2026-06-20T09:32:41.000Z</time>
        <extensions>
          <ns3:TrackPointExtension>
            <ns3:atemp>25.0</ns3:atemp>
          </ns3:TrackPointExtension>
        </extensions>
      </trkpt>
      <trkpt lat="42.51825467683374881744384765625" lon="20.15434258617460727691650390625">
        <ele>1924.800048828125</ele>
        <time>2026-06-20T09:32:42.000Z</time>
        <extensions>
          <ns3:TrackPointExtension>
            <ns3:atemp>25.0</ns3:atemp>
          </ns3:TrackPointExtension>
        </extensions>
      </trkpt>
      <trkpt lat="42.5182628072798252105712890625" lon="20.154324732720851898193359375">
        <ele>1925.199951171875</ele>
        <time>2026-06-20T09:32:43.000Z</time>
        <extensions>
          <ns3:TrackPointExtension>
            <ns3:atemp>25.0</ns3:atemp>
          </ns3:TrackPointExtension>
        </extensions>
      </trkpt>
      <trkpt lat="42.51826909370720386505126953125" lon="20.1543031074106693267822265625">
        <ele>1925.4000244140625</ele>
        <time>2026-06-20T09:32:44.000Z</time>
        <extensions>
          <ns3:TrackPointExtension>
            <ns3:atemp>25.0</ns3:atemp>
          </ns3:TrackPointExtension>
        </extensions>
      </trkpt>
      <trkpt lat="42.51827177591621875762939453125" lon="20.154279805719852447509765625">
        <ele>1925.800048828125</ele>
        <time>2026-06-20T09:32:45.000Z</time>
        <extensions>
          <ns3:TrackPointExtension>
            <ns3:atemp>25.0</ns3:atemp>
          </ns3:TrackPointExtension>
        </extensions>
      </trkpt>
      <trkpt lat="42.51826959662139415740966796875" lon="20.1542578451335430145263671875">
        <ele>1926</ele>
        <time>2026-06-20T09:32:46.000Z</time>
        <extensions>
          <ns3:TrackPointExtension>
            <ns3:atemp>25.0</ns3:atemp>
          </ns3:TrackPointExtension>
        </extensions>
      </trkpt>
      <trkpt lat="42.518267668783664703369140625" lon="20.15423915348947048187255859375">
        <ele>1926.199951171875</ele>
        <time>2026-06-20T09:32:47.000Z</time>
        <extensions>
          <ns3:TrackPointExtension>
            <ns3:atemp>25.0</ns3:atemp>
          </ns3:TrackPointExtension>
        </extensions>
      </trkpt>
      <trkpt lat="42.51826465129852294921875" lon="20.15422037802636623382568359375">
        <ele>1926.4000244140625</ele>
        <time>2026-06-20T09:32:48.000Z</time>
        <extensions>
          <ns3:TrackPointExtension>
            <ns3:atemp>25.0</ns3:atemp>
          </ns3:TrackPointExtension>
        </extensions>
      </trkpt>
      <trkpt lat="42.518265657126903533935546875" lon="20.15419472940266132354736328125">
        <ele>1926.800048828125</ele>
        <time>2026-06-20T09:32:49.000Z</time>
        <extensions>
          <ns3:TrackPointExtension>
            <ns3:atemp>25.0</ns3:atemp>
          </ns3:TrackPointExtension>
        </extensions>
      </trkpt>
      <trkpt lat="42.51827345229685306549072265625" lon="20.1541753672063350677490234375">
        <ele>1927.199951171875</ele>
        <time>2026-06-20T09:32:50.000Z</time>
        <extensions>
          <ns3:TrackPointExtension>
            <ns3:atemp>25.0</ns3:atemp>
          </ns3:TrackPointExtension>
        </extensions>
      </trkpt>
      <trkpt lat="42.5182856060564517974853515625" lon="20.15416036359965801239013671875">
        <ele>1927.5999755859375</ele>
        <time>2026-06-20T09:32:51.000Z</time>
        <extensions>
          <ns3:TrackPointExtension>
            <ns3:atemp>25.0</ns3:atemp>
          </ns3:TrackPointExtension>
        </extensions>
      </trkpt>
      <trkpt lat="42.51829675398766994476318359375" lon="20.15414209105074405670166015625">
        <ele>1927.800048828125</ele>
        <time>2026-06-20T09:32:52.000Z</time>
        <extensions>
          <ns3:TrackPointExtension>
            <ns3:atemp>25.0</ns3:atemp>
          </ns3:TrackPointExtension>
        </extensions>
      </trkpt>
      <trkpt lat="42.51830899156630039215087890625" lon="20.15412499196827411651611328125">
        <ele>1928.199951171875</ele>
        <time>2026-06-20T09:32:53.000Z</time>
        <extensions>
          <ns3:TrackPointExtension>
            <ns3:atemp>25.0</ns3:atemp>
          </ns3:TrackPointExtension>
        </extensions>
      </trkpt>
      <trkpt lat="42.5183181278407573699951171875" lon="20.1541083119809627532958984375">
        <ele>1928.5999755859375</ele>
        <time>2026-06-20T09:32:54.000Z</time>
        <extensions>
          <ns3:TrackPointExtension>
            <ns3:atemp>25.0</ns3:atemp>
          </ns3:TrackPointExtension>
        </extensions>
      </trkpt>
      <trkpt lat="42.51832701265811920166015625" lon="20.1540875248610973358154296875">
        <ele>1929</ele>
        <time>2026-06-20T09:32:55.000Z</time>
        <extensions>
          <ns3:TrackPointExtension>
            <ns3:atemp>25.0</ns3:atemp>
          </ns3:TrackPointExtension>
        </extensions>
      </trkpt>
      <trkpt lat="42.518338076770305633544921875" lon="20.1540680788457393646240234375">
        <ele>1929.199951171875</ele>
        <time>2026-06-20T09:32:56.000Z</time>
        <extensions>
          <ns3:TrackPointExtension>
            <ns3:atemp>25.0</ns3:atemp>
          </ns3:TrackPointExtension>
        </extensions>
      </trkpt>
      <trkpt lat="42.5183469615876674652099609375" lon="20.15405215322971343994140625">
        <ele>1929.5999755859375</ele>
        <time>2026-06-20T09:32:57.000Z</time>
        <extensions>
          <ns3:TrackPointExtension>
            <ns3:atemp>25.0</ns3:atemp>
          </ns3:TrackPointExtension>
        </extensions>
      </trkpt>
      <trkpt lat="42.5183570198714733123779296875" lon="20.15403044410049915313720703125">
        <ele>1930</ele>
        <time>2026-06-20T09:32:58.000Z</time>
        <extensions>
          <ns3:TrackPointExtension>
            <ns3:atemp>25.0</ns3:atemp>
          </ns3:TrackPointExtension>
        </extensions>
      </trkpt>
      <trkpt lat="42.5183637253940105438232421875" lon="20.15401661396026611328125">
        <ele>1930.4000244140625</ele>
        <time>2026-06-20T09:32:59.000Z</time>
        <extensions>
          <ns3:TrackPointExtension>
            <ns3:atemp>25.0</ns3:atemp>
          </ns3:TrackPointExtension>
        </extensions>
      </trkpt>
      <trkpt lat="42.51837437041103839874267578125" lon="20.1540013588964939117431640625">
        <ele>1931</ele>
        <time>2026-06-20T09:33:00.000Z</time>
        <extensions>
          <ns3:TrackPointExtension>
            <ns3:atemp>25.0</ns3:atemp>
          </ns3:TrackPointExtension>
        </extensions>
      </trkpt>
      <trkpt lat="42.51838576979935169219970703125" lon="20.15398233197629451751708984375">
        <ele>1931.4000244140625</ele>
        <time>2026-06-20T09:33:01.000Z</time>
        <extensions>
          <ns3:TrackPointExtension>
            <ns3:atemp>25.0</ns3:atemp>
          </ns3:TrackPointExtension>
        </extensions>
      </trkpt>
      <trkpt lat="42.51839482225477695465087890625" lon="20.15396707691252231597900390625">
        <ele>1931.800048828125</ele>
        <time>2026-06-20T09:33:02.000Z</time>
        <extensions>
          <ns3:TrackPointExtension>
            <ns3:atemp>25.0</ns3:atemp>
          </ns3:TrackPointExtension>
        </extensions>
      </trkpt>
      <trkpt lat="42.51840169541537761688232421875" lon="20.15394964255392551422119140625">
        <ele>1932.4000244140625</ele>
        <time>2026-06-20T09:33:03.000Z</time>
        <extensions>
          <ns3:TrackPointExtension>
            <ns3:atemp>25.0</ns3:atemp>
          </ns3:TrackPointExtension>
        </extensions>
      </trkpt>
      <trkpt lat="42.51840345561504364013671875" lon="20.15392969362437725067138671875">
        <ele>1932.800048828125</ele>
        <time>2026-06-20T09:33:04.000Z</time>
        <extensions>
          <ns3:TrackPointExtension>
            <ns3:atemp>25.0</ns3:atemp>
          </ns3:TrackPointExtension>
        </extensions>
      </trkpt>
      <trkpt lat="42.51840538345277309417724609375" lon="20.15391142107546329498291015625">
        <ele>1933.199951171875</ele>
        <time>2026-06-20T09:33:05.000Z</time>
        <extensions>
          <ns3:TrackPointExtension>
            <ns3:atemp>25.0</ns3:atemp>
          </ns3:TrackPointExtension>
        </extensions>
      </trkpt>
      <trkpt lat="42.5184076465666294097900390625" lon="20.15388962812721729278564453125">
        <ele>1933.5999755859375</ele>
        <time>2026-06-20T09:33:06.000Z</time>
        <extensions>
          <ns3:TrackPointExtension>
            <ns3:atemp>25.0</ns3:atemp>
          </ns3:TrackPointExtension>
        </extensions>
      </trkpt>
      <trkpt lat="42.51840990968048572540283203125" lon="20.1538699306547641754150390625">
        <ele>1933.800048828125</ele>
        <time>2026-06-20T09:33:07.000Z</time>
        <extensions>
          <ns3:TrackPointExtension>
            <ns3:atemp>25.0</ns3:atemp>
          </ns3:TrackPointExtension>
        </extensions>
      </trkpt>
      <trkpt lat="42.5184136815369129180908203125" lon="20.15384654514491558074951171875">
        <ele>1934</ele>
        <time>2026-06-20T09:33:08.000Z</time>
        <extensions>
          <ns3:TrackPointExtension>
            <ns3:atemp>25.0</ns3:atemp>
          </ns3:TrackPointExtension>
        </extensions>
      </trkpt>
      <trkpt lat="42.518418543040752410888671875" lon="20.15382760204374790191650390625">
        <ele>1934.199951171875</ele>
        <time>2026-06-20T09:33:09.000Z</time>
        <extensions>
          <ns3:TrackPointExtension>
            <ns3:atemp>25.0</ns3:atemp>
          </ns3:TrackPointExtension>
        </extensions>
      </trkpt>
      <trkpt lat="42.51842181198298931121826171875" lon="20.15381368808448314666748046875">
        <ele>1934.4000244140625</ele>
        <time>2026-06-20T09:33:10.000Z</time>
        <extensions>
          <ns3:TrackPointExtension>
            <ns3:atemp>25.0</ns3:atemp>
          </ns3:TrackPointExtension>
        </extensions>
      </trkpt>
      <trkpt lat="42.5184230692684650421142578125" lon="20.15379876829683780670166015625">
        <ele>1934.5999755859375</ele>
        <time>2026-06-20T09:33:11.000Z</time>
        <extensions>
          <ns3:TrackPointExtension>
            <ns3:atemp>25.0</ns3:atemp>
          </ns3:TrackPointExtension>
        </extensions>
      </trkpt>
      <trkpt lat="42.5184270925819873809814453125" lon="20.1537794061005115509033203125">
        <ele>1935</ele>
        <time>2026-06-20T09:33:12.000Z</time>
        <extensions>
          <ns3:TrackPointExtension>
            <ns3:atemp>25.0</ns3:atemp>
          </ns3:TrackPointExtension>
        </extensions>
      </trkpt>
      <trkpt lat="42.51843589358031749725341796875" lon="20.15376272611320018768310546875">
        <ele>1935.199951171875</ele>
        <time>2026-06-20T09:33:13.000Z</time>
        <extensions>
          <ns3:TrackPointExtension>
            <ns3:atemp>25.0</ns3:atemp>
          </ns3:TrackPointExtension>
        </extensions>
      </trkpt>
      <trkpt lat="42.5184384919703006744384765625" lon="20.1537472195923328399658203125">
        <ele>1935.5999755859375</ele>
        <time>2026-06-20T09:33:14.000Z</time>
        <extensions>
          <ns3:TrackPointExtension>
            <ns3:atemp>25.0</ns3:atemp>
          </ns3:TrackPointExtension>
        </extensions>
      </trkpt>
      <trkpt lat="42.5184408389031887054443359375" lon="20.1537250913679599761962890625">
        <ele>1936</ele>
        <time>2026-06-20T09:33:15.000Z</time>
        <extensions>
          <ns3:TrackPointExtension>
            <ns3:atemp>25.0</ns3:atemp>
          </ns3:TrackPointExtension>
        </extensions>
      </trkpt>
      <trkpt lat="42.51844226382672786712646484375" lon="20.15370757319033145904541015625">
        <ele>1936.199951171875</ele>
        <time>2026-06-20T09:33:16.000Z</time>
        <extensions>
          <ns3:TrackPointExtension>
            <ns3:atemp>25.0</ns3:atemp>
          </ns3:TrackPointExtension>
        </extensions>
      </trkpt>
      <trkpt lat="42.518445365130901336669921875" lon="20.15369634144008159637451171875">
        <ele>1936.5999755859375</ele>
        <time>2026-06-20T09:33:17.000Z</time>
        <extensions>
          <ns3:TrackPointExtension>
            <ns3:atemp>25.0</ns3:atemp>
          </ns3:TrackPointExtension>
        </extensions>
      </trkpt>
      <trkpt lat="42.5184478797018527984619140625" lon="20.1536811701953411102294921875">
        <ele>1936.800048828125</ele>
        <time>2026-06-20T09:33:18.000Z</time>
        <extensions>
          <ns3:TrackPointExtension>
            <ns3:atemp>25.0</ns3:atemp>
          </ns3:TrackPointExtension>
        </extensions>
      </trkpt>
      <trkpt lat="42.51844762824475765228271484375" lon="20.15366884879767894744873046875">
        <ele>1937.199951171875</ele>
        <time>2026-06-20T09:33:19.000Z</time>
        <extensions>
          <ns3:TrackPointExtension>
            <ns3:atemp>25.0</ns3:atemp>
          </ns3:TrackPointExtension>
        </extensions>
      </trkpt>
      <trkpt lat="42.51844326965510845184326171875" lon="20.1536558568477630615234375">
        <ele>1937.4000244140625</ele>
        <time>2026-06-20T09:33:20.000Z</time>
        <extensions>
          <ns3:TrackPointExtension>
            <ns3:atemp>25.0</ns3:atemp>
          </ns3:TrackPointExtension>
        </extensions>
      </trkpt>
      <trkpt lat="42.5184398330748081207275390625" lon="20.1536409370601177215576171875">
        <ele>1937.5999755859375</ele>
        <time>2026-06-20T09:33:21.000Z</time>
        <extensions>
          <ns3:TrackPointExtension>
            <ns3:atemp>25.0</ns3:atemp>
          </ns3:TrackPointExtension>
        </extensions>
      </trkpt>
      <trkpt lat="42.5184344686567783355712890625" lon="20.153627358376979827880859375">
        <ele>1937.800048828125</ele>
        <time>2026-06-20T09:33:22.000Z</time>
        <extensions>
          <ns3:TrackPointExtension>
            <ns3:atemp>25.0</ns3:atemp>
          </ns3:TrackPointExtension>
        </extensions>
      </trkpt>
      <trkpt lat="42.51842700876295566558837890625" lon="20.153610594570636749267578125">
        <ele>1938</ele>
        <time>2026-06-20T09:33:23.000Z</time>
        <extensions>
          <ns3:TrackPointExtension>
            <ns3:atemp>25.0</ns3:atemp>
          </ns3:TrackPointExtension>
        </extensions>
      </trkpt>
      <trkpt lat="42.51842114143073558807373046875" lon="20.15358905307948589324951171875">
        <ele>1938.4000244140625</ele>
        <time>2026-06-20T09:33:24.000Z</time>
        <extensions>
          <ns3:TrackPointExtension>
            <ns3:atemp>25.0</ns3:atemp>
          </ns3:TrackPointExtension>
        </extensions>
      </trkpt>
      <trkpt lat="42.51841845922172069549560546875" lon="20.15356977470219135284423828125">
        <ele>1938.800048828125</ele>
        <time>2026-06-20T09:33:25.000Z</time>
        <extensions>
          <ns3:TrackPointExtension>
            <ns3:atemp>25.0</ns3:atemp>
          </ns3:TrackPointExtension>
        </extensions>
      </trkpt>
      <trkpt lat="42.51841510646045207977294921875" lon="20.15355032868683338165283203125">
        <ele>1939.199951171875</ele>
        <time>2026-06-20T09:33:26.000Z</time>
        <extensions>
          <ns3:TrackPointExtension>
            <ns3:atemp>25.0</ns3:atemp>
          </ns3:TrackPointExtension>
        </extensions>
      </trkpt>
      <trkpt lat="42.5184133462607860565185546875" lon="20.1535297930240631103515625">
        <ele>1939.4000244140625</ele>
        <time>2026-06-20T09:33:27.000Z</time>
        <extensions>
          <ns3:TrackPointExtension>
            <ns3:atemp>25.0</ns3:atemp>
          </ns3:TrackPointExtension>
        </extensions>
      </trkpt>
      <trkpt lat="42.51841208897531032562255859375" lon="20.15350741334259510040283203125">
        <ele>1939.800048828125</ele>
        <time>2026-06-20T09:33:28.000Z</time>
        <extensions>
          <ns3:TrackPointExtension>
            <ns3:atemp>25.0</ns3:atemp>
          </ns3:TrackPointExtension>
        </extensions>
      </trkpt>
      <trkpt lat="42.5184076465666294097900390625" lon="20.1534910686314105987548828125">
        <ele>1940.199951171875</ele>
        <time>2026-06-20T09:33:29.000Z</time>
        <extensions>
          <ns3:TrackPointExtension>
            <ns3:atemp>25.0</ns3:atemp>
          </ns3:TrackPointExtension>
        </extensions>
      </trkpt>
      <trkpt lat="42.51840479671955108642578125" lon="20.153479836881160736083984375">
        <ele>1940.4000244140625</ele>
        <time>2026-06-20T09:33:30.000Z</time>
        <extensions>
          <ns3:TrackPointExtension>
            <ns3:atemp>25.0</ns3:atemp>
          </ns3:TrackPointExtension>
        </extensions>
      </trkpt>
      <trkpt lat="42.51839498989284038543701171875" lon="20.1534608937799930572509765625">
        <ele>1940.800048828125</ele>
        <time>2026-06-20T09:33:31.000Z</time>
        <extensions>
          <ns3:TrackPointExtension>
            <ns3:atemp>25.0</ns3:atemp>
          </ns3:TrackPointExtension>
        </extensions>
      </trkpt>
      <trkpt lat="42.518388368189334869384765625" lon="20.153445303440093994140625">
        <ele>1941</ele>
        <time>2026-06-20T09:33:32.000Z</time>
        <extensions>
          <ns3:TrackPointExtension>
            <ns3:atemp>25.0</ns3:atemp>
          </ns3:TrackPointExtension>
        </extensions>
      </trkpt>
      <trkpt lat="42.51838375814259052276611328125" lon="20.1534320600330829620361328125">
        <ele>1941.4000244140625</ele>
        <time>2026-06-20T09:33:33.000Z</time>
        <extensions>
          <ns3:TrackPointExtension>
            <ns3:atemp>25.0</ns3:atemp>
          </ns3:TrackPointExtension>
        </extensions>
      </trkpt>
      <trkpt lat="42.51837738789618015289306640625" lon="20.15342242084443569183349609375">
        <ele>1941.5999755859375</ele>
        <time>2026-06-20T09:33:34.000Z</time>
        <extensions>
          <ns3:TrackPointExtension>
            <ns3:atemp>25.0</ns3:atemp>
          </ns3:TrackPointExtension>
        </extensions>
      </trkpt>
      <trkpt lat="42.51836833544075489044189453125" lon="20.1534052379429340362548828125">
        <ele>1941.800048828125</ele>
        <time>2026-06-20T09:33:35.000Z</time>
        <extensions>
          <ns3:TrackPointExtension>
            <ns3:atemp>25.0</ns3:atemp>
          </ns3:TrackPointExtension>
        </extensions>
      </trkpt>
      <trkpt lat="42.51835794188082218170166015625" lon="20.15338294208049774169921875">
        <ele>1941.800048828125</ele>
        <time>2026-06-20T09:33:36.000Z</time>
        <extensions>
          <ns3:TrackPointExtension>
            <ns3:atemp>25.0</ns3:atemp>
          </ns3:TrackPointExtension>
        </extensions>
      </trkpt>
      <trkpt lat="42.51834738068282604217529296875" lon="20.15336408279836177825927734375">
        <ele>1942</ele>
        <time>2026-06-20T09:33:37.000Z</time>
        <extensions>
          <ns3:TrackPointExtension>
            <ns3:atemp>25.0</ns3:atemp>
          </ns3:TrackPointExtension>
        </extensions>
      </trkpt>
      <trkpt lat="42.5183379091322422027587890625" lon="20.15334631316363811492919921875">
        <ele>1942</ele>
        <time>2026-06-20T09:33:38.000Z</time>
        <extensions>
          <ns3:TrackPointExtension>
            <ns3:atemp>25.0</ns3:atemp>
          </ns3:TrackPointExtension>
        </extensions>
      </trkpt>
      <trkpt lat="42.51832776702940464019775390625" lon="20.15332795679569244384765625">
        <ele>1942</ele>
        <time>2026-06-20T09:33:39.000Z</time>
        <extensions>
          <ns3:TrackPointExtension>
            <ns3:atemp>25.0</ns3:atemp>
          </ns3:TrackPointExtension>
        </extensions>
      </trkpt>
      <trkpt lat="42.51831435598433017730712890625" lon="20.15330859459936618804931640625">
        <ele>1941.800048828125</ele>
        <time>2026-06-20T09:33:40.000Z</time>
        <extensions>
          <ns3:TrackPointExtension>
            <ns3:atemp>25.0</ns3:atemp>
          </ns3:TrackPointExtension>
        </extensions>
      </trkpt>
      <trkpt lat="42.51829977147281169891357421875" lon="20.1532942615449428558349609375">
        <ele>1941.800048828125</ele>
        <time>2026-06-20T09:33:41.000Z</time>
        <extensions>
          <ns3:TrackPointExtension>
            <ns3:atemp>25.0</ns3:atemp>
          </ns3:TrackPointExtension>
        </extensions>
      </trkpt>
      <trkpt lat="42.51828585751354694366455078125" lon="20.15327992849051952362060546875">
        <ele>1941.800048828125</ele>
        <time>2026-06-20T09:33:42.000Z</time>
        <extensions>
          <ns3:TrackPointExtension>
            <ns3:atemp>25.0</ns3:atemp>
          </ns3:TrackPointExtension>
        </extensions>
      </trkpt>
      <trkpt lat="42.5182732008397579193115234375" lon="20.1532603986561298370361328125">
        <ele>1941.800048828125</ele>
        <time>2026-06-20T09:33:43.000Z</time>
        <extensions>
          <ns3:TrackPointExtension>
            <ns3:atemp>25.0</ns3:atemp>
          </ns3:TrackPointExtension>
        </extensions>
      </trkpt>
      <trkpt lat="42.51826004125177860260009765625" lon="20.15324220992624759674072265625">
        <ele>1942</ele>
        <time>2026-06-20T09:33:44.000Z</time>
        <extensions>
          <ns3:TrackPointExtension>
            <ns3:atemp>25.0</ns3:atemp>
          </ns3:TrackPointExtension>
        </extensions>
      </trkpt>
      <trkpt lat="42.518246211111545562744140625" lon="20.1532240211963653564453125">
        <ele>1942</ele>
        <time>2026-06-20T09:33:45.000Z</time>
        <extensions>
          <ns3:TrackPointExtension>
            <ns3:atemp>25.0</ns3:atemp>
          </ns3:TrackPointExtension>
        </extensions>
      </trkpt>
      <trkpt lat="42.51822969876229763031005859375" lon="20.15320616774260997772216796875">
        <ele>1942.199951171875</ele>
        <time>2026-06-20T09:33:46.000Z</time>
        <extensions>
          <ns3:TrackPointExtension>
            <ns3:atemp>25.0</ns3:atemp>
          </ns3:TrackPointExtension>
        </extensions>
      </trkpt>
      <trkpt lat="42.5182158686220645904541015625" lon="20.153186134994029998779296875">
        <ele>1942.199951171875</ele>
        <time>2026-06-20T09:33:47.000Z</time>
        <extensions>
          <ns3:TrackPointExtension>
            <ns3:atemp>25.0</ns3:atemp>
          </ns3:TrackPointExtension>
        </extensions>
      </trkpt>
      <trkpt lat="42.51820036210119724273681640625" lon="20.15317146666347980499267578125">
        <ele>1942.4000244140625</ele>
        <time>2026-06-20T09:33:48.000Z</time>
        <extensions>
          <ns3:TrackPointExtension>
            <ns3:atemp>25.0</ns3:atemp>
          </ns3:TrackPointExtension>
        </extensions>
      </trkpt>
      <trkpt lat="42.51818443648517131805419921875" lon="20.1531516015529632568359375">
        <ele>1942.4000244140625</ele>
        <time>2026-06-20T09:33:49.000Z</time>
        <extensions>
          <ns3:TrackPointExtension>
            <ns3:atemp>25.0</ns3:atemp>
          </ns3:TrackPointExtension>
        </extensions>
      </trkpt>
      <trkpt lat="42.51817144453525543212890625" lon="20.15312888659536838531494140625">
        <ele>1942.4000244140625</ele>
        <time>2026-06-20T09:33:50.000Z</time>
        <extensions>
          <ns3:TrackPointExtension>
            <ns3:atemp>25.0</ns3:atemp>
          </ns3:TrackPointExtension>
        </extensions>
      </trkpt>
      <trkpt lat="42.51815803349018096923828125" lon="20.15310290269553661346435546875">
        <ele>1942.4000244140625</ele>
        <time>2026-06-20T09:33:51.000Z</time>
        <extensions>
          <ns3:TrackPointExtension>
            <ns3:atemp>25.0</ns3:atemp>
          </ns3:TrackPointExtension>
        </extensions>
      </trkpt>
      <trkpt lat="42.5181451253592967987060546875" lon="20.15307691879570484161376953125">
        <ele>1942.4000244140625</ele>
        <time>2026-06-20T09:33:52.000Z</time>
        <extensions>
          <ns3:TrackPointExtension>
            <ns3:atemp>25.0</ns3:atemp>
          </ns3:TrackPointExtension>
        </extensions>
      </trkpt>
      <trkpt lat="42.5181333906948566436767578125" lon="20.1530525274574756622314453125">
        <ele>1942.4000244140625</ele>
        <time>2026-06-20T09:33:53.000Z</time>
        <extensions>
          <ns3:TrackPointExtension>
            <ns3:atemp>25.0</ns3:atemp>
          </ns3:TrackPointExtension>
        </extensions>
      </trkpt>
      <trkpt lat="42.518118806183338165283203125" lon="20.15302930958569049835205078125">
        <ele>1942.4000244140625</ele>
        <time>2026-06-20T09:33:54.000Z</time>
        <extensions>
          <ns3:TrackPointExtension>
            <ns3:atemp>25.0</ns3:atemp>
          </ns3:TrackPointExtension>
        </extensions>
      </trkpt>
      <trkpt lat="42.5181065686047077178955078125" lon="20.15300600789487361907958984375">
        <ele>1942.5999755859375</ele>
        <time>2026-06-20T09:33:55.000Z</time>
        <extensions>
          <ns3:TrackPointExtension>
            <ns3:atemp>25.0</ns3:atemp>
          </ns3:TrackPointExtension>
        </extensions>
      </trkpt>
      <trkpt lat="42.518091313540935516357421875" lon="20.15298186801373958587646484375">
        <ele>1942.5999755859375</ele>
        <time>2026-06-20T09:33:56.000Z</time>
        <extensions>
          <ns3:TrackPointExtension>
            <ns3:atemp>25.0</ns3:atemp>
          </ns3:TrackPointExtension>
        </extensions>
      </trkpt>
      <trkpt lat="42.51807681284844875335693359375" lon="20.1529593206942081451416015625">
        <ele>1942.800048828125</ele>
        <time>2026-06-20T09:33:57.000Z</time>
        <extensions>
          <ns3:TrackPointExtension>
            <ns3:atemp>25.0</ns3:atemp>
          </ns3:TrackPointExtension>
        </extensions>
      </trkpt>
      <trkpt lat="42.5180603004992008209228515625" lon="20.15294113196432590484619140625">
        <ele>1942.800048828125</ele>
        <time>2026-06-20T09:33:58.000Z</time>
        <extensions>
          <ns3:TrackPointExtension>
            <ns3:atemp>25.0</ns3:atemp>
          </ns3:TrackPointExtension>
        </extensions>
      </trkpt>
      <trkpt lat="42.51804579980671405792236328125" lon="20.15291967429220676422119140625">
        <ele>1943.199951171875</ele>
        <time>2026-06-20T09:33:59.000Z</time>
        <extensions>
          <ns3:TrackPointExtension>
            <ns3:atemp>25.0</ns3:atemp>
          </ns3:TrackPointExtension>
        </extensions>
      </trkpt>
      <trkpt lat="42.51803289167582988739013671875" lon="20.15289721079170703887939453125">
        <ele>1943.4000244140625</ele>
        <time>2026-06-20T09:34:00.000Z</time>
        <extensions>
          <ns3:TrackPointExtension>
            <ns3:atemp>25.0</ns3:atemp>
          </ns3:TrackPointExtension>
        </extensions>
      </trkpt>
      <trkpt lat="42.518015205860137939453125" lon="20.15287675894796848297119140625">
        <ele>1943.4000244140625</ele>
        <time>2026-06-20T09:34:01.000Z</time>
        <extensions>
          <ns3:TrackPointExtension>
            <ns3:atemp>25.0</ns3:atemp>
          </ns3:TrackPointExtension>
        </extensions>
      </trkpt>
      <trkpt lat="42.51799986697733402252197265625" lon="20.15285479836165904998779296875">
        <ele>1943.5999755859375</ele>
        <time>2026-06-20T09:34:02.000Z</time>
        <extensions>
          <ns3:TrackPointExtension>
            <ns3:atemp>25.0</ns3:atemp>
          </ns3:TrackPointExtension>
        </extensions>
      </trkpt>
      <trkpt lat="42.5179848633706569671630859375" lon="20.1528324186801910400390625">
        <ele>1943.800048828125</ele>
        <time>2026-06-20T09:34:03.000Z</time>
        <extensions>
          <ns3:TrackPointExtension>
            <ns3:atemp>25.0</ns3:atemp>
          </ns3:TrackPointExtension>
        </extensions>
      </trkpt>
      <trkpt lat="42.51797438599169254302978515625" lon="20.152812637388706207275390625">
        <ele>1944</ele>
        <time>2026-06-20T09:34:04.000Z</time>
        <extensions>
          <ns3:TrackPointExtension>
            <ns3:atemp>25.0</ns3:atemp>
          </ns3:TrackPointExtension>
        </extensions>
      </trkpt>
      <trkpt lat="42.5179620645940303802490234375" lon="20.15279126353561878204345703125">
        <ele>1944</ele>
        <time>2026-06-20T09:34:05.000Z</time>
        <extensions>
          <ns3:TrackPointExtension>
            <ns3:atemp>25.0</ns3:atemp>
          </ns3:TrackPointExtension>
        </extensions>
      </trkpt>
      <trkpt lat="42.51795527525246143341064453125" lon="20.1527675427496433258056640625">
        <ele>1944.199951171875</ele>
        <time>2026-06-20T09:34:06.000Z</time>
        <extensions>
          <ns3:TrackPointExtension>
            <ns3:atemp>25.0</ns3:atemp>
          </ns3:TrackPointExtension>
        </extensions>
      </trkpt>
      <trkpt lat="42.517946474254131317138671875" lon="20.15274398960173130035400390625">
        <ele>1944.4000244140625</ele>
        <time>2026-06-20T09:34:07.000Z</time>
        <extensions>
          <ns3:TrackPointExtension>
            <ns3:atemp>25.0</ns3:atemp>
          </ns3:TrackPointExtension>
        </extensions>
      </trkpt>
      <trkpt lat="42.51793683506548404693603515625" lon="20.15271817333996295928955078125">
        <ele>1944.5999755859375</ele>
        <time>2026-06-20T09:34:08.000Z</time>
        <extensions>
          <ns3:TrackPointExtension>
            <ns3:atemp>25.0</ns3:atemp>
          </ns3:TrackPointExtension>
        </extensions>
      </trkpt>
      <trkpt lat="42.51792543567717075347900390625" lon="20.152693949639797210693359375">
        <ele>1944.800048828125</ele>
        <time>2026-06-20T09:34:09.000Z</time>
        <extensions>
          <ns3:TrackPointExtension>
            <ns3:atemp>25.0</ns3:atemp>
          </ns3:TrackPointExtension>
        </extensions>
      </trkpt>
      <trkpt lat="42.5179151259362697601318359375" lon="20.15266989357769489288330078125">
        <ele>1945</ele>
        <time>2026-06-20T09:34:10.000Z</time>
        <extensions>
          <ns3:TrackPointExtension>
            <ns3:atemp>25.0</ns3:atemp>
          </ns3:TrackPointExtension>
        </extensions>
      </trkpt>
      <trkpt lat="42.51790179871022701263427734375" lon="20.15264801681041717529296875">
        <ele>1945.199951171875</ele>
        <time>2026-06-20T09:34:11.000Z</time>
        <extensions>
          <ns3:TrackPointExtension>
            <ns3:atemp>25.0</ns3:atemp>
          </ns3:TrackPointExtension>
        </extensions>
      </trkpt>
      <trkpt lat="42.5178896449506282806396484375" lon="20.1526258885860443115234375">
        <ele>1945.199951171875</ele>
        <time>2026-06-20T09:34:12.000Z</time>
        <extensions>
          <ns3:TrackPointExtension>
            <ns3:atemp>25.0</ns3:atemp>
          </ns3:TrackPointExtension>
        </extensions>
      </trkpt>
      <trkpt lat="42.5178772397339344024658203125" lon="20.15261122025549411773681640625">
        <ele>1945.5999755859375</ele>
        <time>2026-06-20T09:34:13.000Z</time>
        <extensions>
          <ns3:TrackPointExtension>
            <ns3:atemp>25.0</ns3:atemp>
          </ns3:TrackPointExtension>
        </extensions>
      </trkpt>
      <trkpt lat="42.51786357723176479339599609375" lon="20.1526015810668468475341796875">
        <ele>1945.800048828125</ele>
        <time>2026-06-20T09:34:14.000Z</time>
        <extensions>
          <ns3:TrackPointExtension>
            <ns3:atemp>25.0</ns3:atemp>
          </ns3:TrackPointExtension>
        </extensions>
      </trkpt>
      <trkpt lat="42.517856620252132415771484375" lon="20.15258557163178920745849609375">
        <ele>1946</ele>
        <time>2026-06-20T09:34:15.000Z</time>
        <extensions>
          <ns3:TrackPointExtension>
            <ns3:atemp>25.0</ns3:atemp>
          </ns3:TrackPointExtension>
        </extensions>
      </trkpt>
      <trkpt lat="42.51785133965313434600830078125" lon="20.15256495214998722076416015625">
        <ele>1946.199951171875</ele>
        <time>2026-06-20T09:34:16.000Z</time>
        <extensions>
          <ns3:TrackPointExtension>
            <ns3:atemp>25.0</ns3:atemp>
          </ns3:TrackPointExtension>
        </extensions>
      </trkpt>
      <trkpt lat="42.51784287393093109130859375" lon="20.15254617668688297271728515625">
        <ele>1946.4000244140625</ele>
        <time>2026-06-20T09:34:17.000Z</time>
        <extensions>
          <ns3:TrackPointExtension>
            <ns3:atemp>25.0</ns3:atemp>
          </ns3:TrackPointExtension>
        </extensions>
      </trkpt>
      <trkpt lat="42.5178303010761737823486328125" lon="20.1525274850428104400634765625">
        <ele>1946.800048828125</ele>
        <time>2026-06-20T09:34:18.000Z</time>
        <extensions>
          <ns3:TrackPointExtension>
            <ns3:atemp>25.0</ns3:atemp>
          </ns3:TrackPointExtension>
        </extensions>
      </trkpt>
      <trkpt lat="42.517821080982685089111328125" lon="20.1525120623409748077392578125">
        <ele>1947</ele>
        <time>2026-06-20T09:34:19.000Z</time>
        <extensions>
          <ns3:TrackPointExtension>
            <ns3:atemp>25.0</ns3:atemp>
          </ns3:TrackPointExtension>
        </extensions>
      </trkpt>
      <trkpt lat="42.51781412400305271148681640625" lon="20.1524984836578369140625">
        <ele>1947.4000244140625</ele>
        <time>2026-06-20T09:34:20.000Z</time>
        <extensions>
          <ns3:TrackPointExtension>
            <ns3:atemp>25.0</ns3:atemp>
          </ns3:TrackPointExtension>
        </extensions>
      </trkpt>
      <trkpt lat="42.51780666410923004150390625" lon="20.15248364768922328948974609375">
        <ele>1947.5999755859375</ele>
        <time>2026-06-20T09:34:21.000Z</time>
        <extensions>
          <ns3:TrackPointExtension>
            <ns3:atemp>25.0</ns3:atemp>
          </ns3:TrackPointExtension>
        </extensions>
      </trkpt>
      <trkpt lat="42.51780054531991481781005859375" lon="20.15246587805449962615966796875">
        <ele>1947.800048828125</ele>
        <time>2026-06-20T09:34:22.000Z</time>
        <extensions>
          <ns3:TrackPointExtension>
            <ns3:atemp>25.0</ns3:atemp>
          </ns3:TrackPointExtension>
        </extensions>
      </trkpt>
      <trkpt lat="42.51779861748218536376953125" lon="20.15244760550558567047119140625">
        <ele>1948.199951171875</ele>
        <time>2026-06-20T09:34:23.000Z</time>
        <extensions>
          <ns3:TrackPointExtension>
            <ns3:atemp>25.0</ns3:atemp>
          </ns3:TrackPointExtension>
        </extensions>
      </trkpt>
      <trkpt lat="42.5177991203963756561279296875" lon="20.15243117697536945343017578125">
        <ele>1948.4000244140625</ele>
        <time>2026-06-20T09:34:24.000Z</time>
        <extensions>
          <ns3:TrackPointExtension>
            <ns3:atemp>25.0</ns3:atemp>
          </ns3:TrackPointExtension>
        </extensions>
      </trkpt>
      <trkpt lat="42.51780255697667598724365234375" lon="20.1524139940738677978515625">
        <ele>1948.5999755859375</ele>
        <time>2026-06-20T09:34:25.000Z</time>
        <extensions>
          <ns3:TrackPointExtension>
            <ns3:atemp>25.0</ns3:atemp>
          </ns3:TrackPointExtension>
        </extensions>
      </trkpt>
      <trkpt lat="42.51779886893928050994873046875" lon="20.1523940451443195343017578125">
        <ele>1948.800048828125</ele>
        <time>2026-06-20T09:34:26.000Z</time>
        <extensions>
          <ns3:TrackPointExtension>
            <ns3:atemp>25.0</ns3:atemp>
          </ns3:TrackPointExtension>
        </extensions>
      </trkpt>
      <trkpt lat="42.5177950970828533172607421875" lon="20.15237401239573955535888671875">
        <ele>1949</ele>
        <time>2026-06-20T09:34:27.000Z</time>
        <extensions>
          <ns3:TrackPointExtension>
            <ns3:atemp>25.0</ns3:atemp>
          </ns3:TrackPointExtension>
        </extensions>
      </trkpt>
      <trkpt lat="42.51779300160706043243408203125" lon="20.1523541472852230072021484375">
        <ele>1949.4000244140625</ele>
        <time>2026-06-20T09:34:28.000Z</time>
        <extensions>
          <ns3:TrackPointExtension>
            <ns3:atemp>25.0</ns3:atemp>
          </ns3:TrackPointExtension>
        </extensions>
      </trkpt>
      <trkpt lat="42.51779652200639247894287109375" lon="20.15232925303280353546142578125">
        <ele>1949.5999755859375</ele>
        <time>2026-06-20T09:34:29.000Z</time>
        <extensions>
          <ns3:TrackPointExtension>
            <ns3:atemp>25.0</ns3:atemp>
          </ns3:TrackPointExtension>
        </extensions>
      </trkpt>
      <trkpt lat="42.5178018026053905487060546875" lon="20.1523058675229549407958984375">
        <ele>1950</ele>
        <time>2026-06-20T09:34:30.000Z</time>
        <extensions>
          <ns3:TrackPointExtension>
            <ns3:atemp>25.0</ns3:atemp>
          </ns3:TrackPointExtension>
        </extensions>
      </trkpt>
      <trkpt lat="42.5178019702434539794921875" lon="20.15228365547955036163330078125">
        <ele>1950.199951171875</ele>
        <time>2026-06-20T09:34:31.000Z</time>
        <extensions>
          <ns3:TrackPointExtension>
            <ns3:atemp>25.0</ns3:atemp>
          </ns3:TrackPointExtension>
        </extensions>
      </trkpt>
      <trkpt lat="42.51779618673026561737060546875" lon="20.152266137301921844482421875">
        <ele>1950.4000244140625</ele>
        <time>2026-06-20T09:34:32.000Z</time>
        <extensions>
          <ns3:TrackPointExtension>
            <ns3:atemp>25.0</ns3:atemp>
          </ns3:TrackPointExtension>
        </extensions>
      </trkpt>
      <trkpt lat="42.51779233105480670928955078125" lon="20.152243338525295257568359375">
        <ele>1950.5999755859375</ele>
        <time>2026-06-20T09:34:33.000Z</time>
        <extensions>
          <ns3:TrackPointExtension>
            <ns3:atemp>25.0</ns3:atemp>
          </ns3:TrackPointExtension>
        </extensions>
      </trkpt>
      <trkpt lat="42.5177883915603160858154296875" lon="20.15222129411995410919189453125">
        <ele>1951</ele>
        <time>2026-06-20T09:34:34.000Z</time>
        <extensions>
          <ns3:TrackPointExtension>
            <ns3:atemp>25.0</ns3:atemp>
          </ns3:TrackPointExtension>
        </extensions>
      </trkpt>
      <trkpt lat="42.517788894474506378173828125" lon="20.1522002555429935455322265625">
        <ele>1951.199951171875</ele>
        <time>2026-06-20T09:34:35.000Z</time>
        <extensions>
          <ns3:TrackPointExtension>
            <ns3:atemp>25.0</ns3:atemp>
          </ns3:TrackPointExtension>
        </extensions>
      </trkpt>
      <trkpt lat="42.51778788864612579345703125" lon="20.15218290500342845916748046875">
        <ele>1951.5999755859375</ele>
        <time>2026-06-20T09:34:36.000Z</time>
        <extensions>
          <ns3:TrackPointExtension>
            <ns3:atemp>25.0</ns3:atemp>
          </ns3:TrackPointExtension>
        </extensions>
      </trkpt>
      <trkpt lat="42.517786212265491485595703125" lon="20.1521610282361507415771484375">
        <ele>1952</ele>
        <time>2026-06-20T09:34:37.000Z</time>
        <extensions>
          <ns3:TrackPointExtension>
            <ns3:atemp>25.0</ns3:atemp>
          </ns3:TrackPointExtension>
        </extensions>
      </trkpt>
      <trkpt lat="42.51779048703610897064208984375" lon="20.15214166603982448577880859375">
        <ele>1952.5999755859375</ele>
        <time>2026-06-20T09:34:38.000Z</time>
        <extensions>
          <ns3:TrackPointExtension>
            <ns3:atemp>25.0</ns3:atemp>
          </ns3:TrackPointExtension>
        </extensions>
      </trkpt>
      <trkpt lat="42.51779568381607532501220703125" lon="20.1521224714815616607666015625">
        <ele>1953</ele>
        <time>2026-06-20T09:34:39.000Z</time>
        <extensions>
          <ns3:TrackPointExtension>
            <ns3:atemp>25.0</ns3:atemp>
          </ns3:TrackPointExtension>
        </extensions>
      </trkpt>
      <trkpt lat="42.51779752783477306365966796875" lon="20.15209942124783992767333984375">
        <ele>1953.4000244140625</ele>
        <time>2026-06-20T09:34:40.000Z</time>
        <extensions>
          <ns3:TrackPointExtension>
            <ns3:atemp>25.0</ns3:atemp>
          </ns3:TrackPointExtension>
        </extensions>
      </trkpt>
      <trkpt lat="42.51779736019670963287353515625" lon="20.15207477845251560211181640625">
        <ele>1953.800048828125</ele>
        <time>2026-06-20T09:34:41.000Z</time>
        <extensions>
          <ns3:TrackPointExtension>
            <ns3:atemp>25.0</ns3:atemp>
          </ns3:TrackPointExtension>
        </extensions>
      </trkpt>
      <trkpt lat="42.51780331134796142578125" lon="20.15205834992229938507080078125">
        <ele>1954.199951171875</ele>
        <time>2026-06-20T09:34:42.000Z</time>
        <extensions>
          <ns3:TrackPointExtension>
            <ns3:atemp>25.0</ns3:atemp>
          </ns3:TrackPointExtension>
        </extensions>
      </trkpt>
      <trkpt lat="42.51781043596565723419189453125" lon="20.152038820087909698486328125">
        <ele>1954.5999755859375</ele>
        <time>2026-06-20T09:34:43.000Z</time>
        <extensions>
          <ns3:TrackPointExtension>
            <ns3:atemp>25.0</ns3:atemp>
          </ns3:TrackPointExtension>
        </extensions>
      </trkpt>
      <trkpt lat="42.51781940460205078125" lon="20.15201895497739315032958984375">
        <ele>1955</ele>
        <time>2026-06-20T09:34:44.000Z</time>
        <extensions>
          <ns3:TrackPointExtension>
            <ns3:atemp>25.0</ns3:atemp>
          </ns3:TrackPointExtension>
        </extensions>
      </trkpt>
      <trkpt lat="42.51783189363777637481689453125" lon="20.15200168825685977935791015625">
        <ele>1955.4000244140625</ele>
        <time>2026-06-20T09:34:45.000Z</time>
        <extensions>
          <ns3:TrackPointExtension>
            <ns3:atemp>25.0</ns3:atemp>
          </ns3:TrackPointExtension>
        </extensions>
      </trkpt>
      <trkpt lat="42.5178463943302631378173828125" lon="20.1519836671650409698486328125">
        <ele>1955.5999755859375</ele>
        <time>2026-06-20T09:34:46.000Z</time>
        <extensions>
          <ns3:TrackPointExtension>
            <ns3:atemp>25.0</ns3:atemp>
          </ns3:TrackPointExtension>
        </extensions>
      </trkpt>
      <trkpt lat="42.51785628497600555419921875" lon="20.15196631662547588348388671875">
        <ele>1956</ele>
        <time>2026-06-20T09:34:47.000Z</time>
        <extensions>
          <ns3:TrackPointExtension>
            <ns3:atemp>25.0</ns3:atemp>
          </ns3:TrackPointExtension>
        </extensions>
      </trkpt>
      <trkpt lat="42.517863996326923370361328125" lon="20.15195206739008426666259765625">
        <ele>1956.4000244140625</ele>
        <time>2026-06-20T09:34:48.000Z</time>
        <extensions>
          <ns3:TrackPointExtension>
            <ns3:atemp>25.0</ns3:atemp>
          </ns3:TrackPointExtension>
        </extensions>
      </trkpt>
      <trkpt lat="42.51786927692592144012451171875" lon="20.1519343815743923187255859375">
        <ele>1956.800048828125</ele>
        <time>2026-06-20T09:34:49.000Z</time>
        <extensions>
          <ns3:TrackPointExtension>
            <ns3:atemp>25.0</ns3:atemp>
          </ns3:TrackPointExtension>
        </extensions>
      </trkpt>
      <trkpt lat="42.5178685225546360015869140625" lon="20.1519199647009372711181640625">
        <ele>1957.199951171875</ele>
        <time>2026-06-20T09:34:50.000Z</time>
        <extensions>
          <ns3:TrackPointExtension>
            <ns3:atemp>25.0</ns3:atemp>
          </ns3:TrackPointExtension>
        </extensions>
      </trkpt>
      <trkpt lat="42.51786290667951107025146484375" lon="20.15190680511295795440673828125">
        <ele>1957.5999755859375</ele>
        <time>2026-06-20T09:34:51.000Z</time>
        <extensions>
          <ns3:TrackPointExtension>
            <ns3:atemp>25.0</ns3:atemp>
          </ns3:TrackPointExtension>
        </extensions>
      </trkpt>
      <trkpt lat="42.5178544409573078155517578125" lon="20.1518891192972660064697265625">
        <ele>1958</ele>
        <time>2026-06-20T09:34:52.000Z</time>
        <extensions>
          <ns3:TrackPointExtension>
            <ns3:atemp>25.0</ns3:atemp>
          </ns3:TrackPointExtension>
        </extensions>
      </trkpt>
      <trkpt lat="42.517844550311565399169921875" lon="20.15187084674835205078125">
        <ele>1958.5999755859375</ele>
        <time>2026-06-20T09:34:53.000Z</time>
        <extensions>
          <ns3:TrackPointExtension>
            <ns3:atemp>25.0</ns3:atemp>
          </ns3:TrackPointExtension>
        </extensions>
      </trkpt>
      <trkpt lat="42.51783776096999645233154296875" lon="20.1518492214381694793701171875">
        <ele>1958.800048828125</ele>
        <time>2026-06-20T09:34:54.000Z</time>
        <extensions>
          <ns3:TrackPointExtension>
            <ns3:atemp>25.0</ns3:atemp>
          </ns3:TrackPointExtension>
        </extensions>
      </trkpt>
      <trkpt lat="42.517838515341281890869140625" lon="20.1518277637660503387451171875">
        <ele>1959.199951171875</ele>
        <time>2026-06-20T09:34:55.000Z</time>
        <extensions>
          <ns3:TrackPointExtension>
            <ns3:atemp>25.0</ns3:atemp>
          </ns3:TrackPointExtension>
        </extensions>
      </trkpt>
      <trkpt lat="42.51783608458936214447021484375" lon="20.15181259252130985260009765625">
        <ele>1959.4000244140625</ele>
        <time>2026-06-20T09:34:56.000Z</time>
        <extensions>
          <ns3:TrackPointExtension>
            <ns3:atemp>25.0</ns3:atemp>
          </ns3:TrackPointExtension>
        </extensions>
      </trkpt>
      <trkpt lat="42.5178386829793453216552734375" lon="20.1517982594668865203857421875">
        <ele>1959.5999755859375</ele>
        <time>2026-06-20T09:34:57.000Z</time>
        <extensions>
          <ns3:TrackPointExtension>
            <ns3:atemp>25.0</ns3:atemp>
          </ns3:TrackPointExtension>
        </extensions>
      </trkpt>
      <trkpt lat="42.5178396888077259063720703125" lon="20.1517845131456851959228515625">
        <ele>1959.800048828125</ele>
        <time>2026-06-20T09:34:58.000Z</time>
        <extensions>
          <ns3:TrackPointExtension>
            <ns3:atemp>25.0</ns3:atemp>
          </ns3:TrackPointExtension>
        </extensions>
      </trkpt>
      <trkpt lat="42.51783994026482105255126953125" lon="20.15177085064351558685302734375">
        <ele>1960</ele>
        <time>2026-06-20T09:34:59.000Z</time>
        <extensions>
          <ns3:TrackPointExtension>
            <ns3:atemp>25.0</ns3:atemp>
          </ns3:TrackPointExtension>
        </extensions>
      </trkpt>
      <trkpt lat="42.5178390182554721832275390625" lon="20.1517586968839168548583984375">
        <ele>1960.199951171875</ele>
        <time>2026-06-20T09:35:00.000Z</time>
        <extensions>
          <ns3:TrackPointExtension>
            <ns3:atemp>25.0</ns3:atemp>
          </ns3:TrackPointExtension>
        </extensions>
      </trkpt>
      <trkpt lat="42.517837174236774444580078125" lon="20.15174536965787410736083984375">
        <ele>1960.4000244140625</ele>
        <time>2026-06-20T09:35:01.000Z</time>
        <extensions>
          <ns3:TrackPointExtension>
            <ns3:atemp>25.0</ns3:atemp>
          </ns3:TrackPointExtension>
        </extensions>
      </trkpt>
      <trkpt lat="42.51783541403710842132568359375" lon="20.1517301984131336212158203125">
        <ele>1960.800048828125</ele>
        <time>2026-06-20T09:35:02.000Z</time>
        <extensions>
          <ns3:TrackPointExtension>
            <ns3:atemp>25.0</ns3:atemp>
          </ns3:TrackPointExtension>
        </extensions>
      </trkpt>
      <trkpt lat="42.51783189363777637481689453125" lon="20.15171636827290058135986328125">
        <ele>1961</ele>
        <time>2026-06-20T09:35:03.000Z</time>
        <extensions>
          <ns3:TrackPointExtension>
            <ns3:atemp>25.0</ns3:atemp>
          </ns3:TrackPointExtension>
        </extensions>
      </trkpt>
      <trkpt lat="42.51782820560038089752197265625" lon="20.15169893391430377960205078125">
        <ele>1961.199951171875</ele>
        <time>2026-06-20T09:35:04.000Z</time>
        <extensions>
          <ns3:TrackPointExtension>
            <ns3:atemp>25.0</ns3:atemp>
          </ns3:TrackPointExtension>
        </extensions>
      </trkpt>
      <trkpt lat="42.51782166771590709686279296875" lon="20.15168200246989727020263671875">
        <ele>1961.4000244140625</ele>
        <time>2026-06-20T09:35:05.000Z</time>
        <extensions>
          <ns3:TrackPointExtension>
            <ns3:atemp>25.0</ns3:atemp>
          </ns3:TrackPointExtension>
        </extensions>
      </trkpt>
      <trkpt lat="42.51782049424946308135986328125" lon="20.15165870077908039093017578125">
        <ele>1961.5999755859375</ele>
        <time>2026-06-20T09:35:06.000Z</time>
        <extensions>
          <ns3:TrackPointExtension>
            <ns3:atemp>25.0</ns3:atemp>
          </ns3:TrackPointExtension>
        </extensions>
      </trkpt>
      <trkpt lat="42.5178229250013828277587890625" lon="20.151643864810466766357421875">
        <ele>1961.800048828125</ele>
        <time>2026-06-20T09:35:07.000Z</time>
        <extensions>
          <ns3:TrackPointExtension>
            <ns3:atemp>25.0</ns3:atemp>
          </ns3:TrackPointExtension>
        </extensions>
      </trkpt>
      <trkpt lat="42.51782317645847797393798828125" lon="20.15163137577474117279052734375">
        <ele>1962</ele>
        <time>2026-06-20T09:35:08.000Z</time>
        <extensions>
          <ns3:TrackPointExtension>
            <ns3:atemp>25.0</ns3:atemp>
          </ns3:TrackPointExtension>
        </extensions>
      </trkpt>
      <trkpt lat="42.51781948842108249664306640625" lon="20.15161695890128612518310546875">
        <ele>1962.199951171875</ele>
        <time>2026-06-20T09:35:09.000Z</time>
        <extensions>
          <ns3:TrackPointExtension>
            <ns3:atemp>25.0</ns3:atemp>
          </ns3:TrackPointExtension>
        </extensions>
      </trkpt>
      <trkpt lat="42.5178158842027187347412109375" lon="20.1515970937907695770263671875">
        <ele>1962.5999755859375</ele>
        <time>2026-06-20T09:35:10.000Z</time>
        <extensions>
          <ns3:TrackPointExtension>
            <ns3:atemp>25.0</ns3:atemp>
          </ns3:TrackPointExtension>
        </extensions>
      </trkpt>
      <trkpt lat="42.51781429164111614227294921875" lon="20.15157647430896759033203125">
        <ele>1962.800048828125</ele>
        <time>2026-06-20T09:35:11.000Z</time>
        <extensions>
          <ns3:TrackPointExtension>
            <ns3:atemp>25.0</ns3:atemp>
          </ns3:TrackPointExtension>
        </extensions>
      </trkpt>
      <trkpt lat="42.5178081728518009185791015625" lon="20.15156197361648082733154296875">
        <ele>1963.199951171875</ele>
        <time>2026-06-20T09:35:12.000Z</time>
        <extensions>
          <ns3:TrackPointExtension>
            <ns3:atemp>25.0</ns3:atemp>
          </ns3:TrackPointExtension>
        </extensions>
      </trkpt>
      <trkpt lat="42.5178024731576442718505859375" lon="20.151547975838184356689453125">
        <ele>1963.4000244140625</ele>
        <time>2026-06-20T09:35:13.000Z</time>
        <extensions>
          <ns3:TrackPointExtension>
            <ns3:atemp>25.0</ns3:atemp>
          </ns3:TrackPointExtension>
        </extensions>
      </trkpt>
      <trkpt lat="42.517799623310565948486328125" lon="20.15153012238442897796630859375">
        <ele>1963.5999755859375</ele>
        <time>2026-06-20T09:35:14.000Z</time>
        <extensions>
          <ns3:TrackPointExtension>
            <ns3:atemp>25.0</ns3:atemp>
          </ns3:TrackPointExtension>
        </extensions>
      </trkpt>
      <trkpt lat="42.51779861748218536376953125" lon="20.151516459882259368896484375">
        <ele>1964</ele>
        <time>2026-06-20T09:35:15.000Z</time>
        <extensions>
          <ns3:TrackPointExtension>
            <ns3:atemp>25.0</ns3:atemp>
          </ns3:TrackPointExtension>
        </extensions>
      </trkpt>
      <trkpt lat="42.51780121587216854095458984375" lon="20.15150380320847034454345703125">
        <ele>1964.199951171875</ele>
        <time>2026-06-20T09:35:16.000Z</time>
        <extensions>
          <ns3:TrackPointExtension>
            <ns3:atemp>25.0</ns3:atemp>
          </ns3:TrackPointExtension>
        </extensions>
      </trkpt>
      <trkpt lat="42.5178031437098979949951171875" lon="20.151486285030841827392578125">
        <ele>1964.199951171875</ele>
        <time>2026-06-20T09:35:17.000Z</time>
        <extensions>
          <ns3:TrackPointExtension>
            <ns3:atemp>25.0</ns3:atemp>
          </ns3:TrackPointExtension>
        </extensions>
      </trkpt>
      <trkpt lat="42.51780423335731029510498046875" lon="20.15146675519645214080810546875">
        <ele>1964.5999755859375</ele>
        <time>2026-06-20T09:35:18.000Z</time>
        <extensions>
          <ns3:TrackPointExtension>
            <ns3:atemp>25.0</ns3:atemp>
          </ns3:TrackPointExtension>
        </extensions>
      </trkpt>
      <trkpt lat="42.5178058259189128875732421875" lon="20.15144848264753818511962890625">
        <ele>1964.800048828125</ele>
        <time>2026-06-20T09:35:19.000Z</time>
        <extensions>
          <ns3:TrackPointExtension>
            <ns3:atemp>25.0</ns3:atemp>
          </ns3:TrackPointExtension>
        </extensions>
      </trkpt>
      <trkpt lat="42.51780624501407146453857421875" lon="20.1514328084886074066162109375">
        <ele>1965</ele>
        <time>2026-06-20T09:35:20.000Z</time>
        <extensions>
          <ns3:TrackPointExtension>
            <ns3:atemp>25.0</ns3:atemp>
          </ns3:TrackPointExtension>
        </extensions>
      </trkpt>
      <trkpt lat="42.51780959777534008026123046875" lon="20.15141428448259830474853515625">
        <ele>1965</ele>
        <time>2026-06-20T09:35:21.000Z</time>
        <extensions>
          <ns3:TrackPointExtension>
            <ns3:atemp>25.0</ns3:atemp>
          </ns3:TrackPointExtension>
        </extensions>
      </trkpt>
      <trkpt lat="42.51781605184078216552734375" lon="20.15139349736273288726806640625">
        <ele>1965.4000244140625</ele>
        <time>2026-06-20T09:35:22.000Z</time>
        <extensions>
          <ns3:TrackPointExtension>
            <ns3:atemp>25.0</ns3:atemp>
          </ns3:TrackPointExtension>
        </extensions>
      </trkpt>
      <trkpt lat="42.51781605184078216552734375" lon="20.1513704471290111541748046875">
        <ele>1965.5999755859375</ele>
        <time>2026-06-20T09:35:23.000Z</time>
        <extensions>
          <ns3:TrackPointExtension>
            <ns3:atemp>25.0</ns3:atemp>
          </ns3:TrackPointExtension>
        </extensions>
      </trkpt>
      <trkpt lat="42.5178126990795135498046875" lon="20.15135427005589008331298828125">
        <ele>1965.800048828125</ele>
        <time>2026-06-20T09:35:24.000Z</time>
        <extensions>
          <ns3:TrackPointExtension>
            <ns3:atemp>25.0</ns3:atemp>
          </ns3:TrackPointExtension>
        </extensions>
      </trkpt>
      <trkpt lat="42.517806999385356903076171875" lon="20.151337087154388427734375">
        <ele>1966</ele>
        <time>2026-06-20T09:35:25.000Z</time>
        <extensions>
          <ns3:TrackPointExtension>
            <ns3:atemp>25.0</ns3:atemp>
          </ns3:TrackPointExtension>
        </extensions>
      </trkpt>
      <trkpt lat="42.51780272461473941802978515625" lon="20.15131839551031589508056640625">
        <ele>1966.199951171875</ele>
        <time>2026-06-20T09:35:26.000Z</time>
        <extensions>
          <ns3:TrackPointExtension>
            <ns3:atemp>25.0</ns3:atemp>
          </ns3:TrackPointExtension>
        </extensions>
      </trkpt>
      <trkpt lat="42.5177961029112339019775390625" lon="20.15130096115171909332275390625">
        <ele>1966.4000244140625</ele>
        <time>2026-06-20T09:35:27.000Z</time>
        <extensions>
          <ns3:TrackPointExtension>
            <ns3:atemp>25.0</ns3:atemp>
          </ns3:TrackPointExtension>
        </extensions>
      </trkpt>
      <trkpt lat="42.51778881065547466278076171875" lon="20.15128335915505886077880859375">
        <ele>1966.800048828125</ele>
        <time>2026-06-20T09:35:28.000Z</time>
        <extensions>
          <ns3:TrackPointExtension>
            <ns3:atemp>25.0</ns3:atemp>
          </ns3:TrackPointExtension>
        </extensions>
      </trkpt>
      <trkpt lat="42.51778118312358856201171875" lon="20.15126408077776432037353515625">
        <ele>1967</ele>
        <time>2026-06-20T09:35:29.000Z</time>
        <extensions>
          <ns3:TrackPointExtension>
            <ns3:atemp>25.0</ns3:atemp>
          </ns3:TrackPointExtension>
        </extensions>
      </trkpt>
      <trkpt lat="42.5177686102688312530517578125" lon="20.15124983154237270355224609375">
        <ele>1967.199951171875</ele>
        <time>2026-06-20T09:35:30.000Z</time>
        <extensions>
          <ns3:TrackPointExtension>
            <ns3:atemp>25.0</ns3:atemp>
          </ns3:TrackPointExtension>
        </extensions>
      </trkpt>
      <trkpt lat="42.51774958334863185882568359375" lon="20.15124329365789890289306640625">
        <ele>1967.4000244140625</ele>
        <time>2026-06-20T09:35:31.000Z</time>
        <extensions>
          <ns3:TrackPointExtension>
            <ns3:atemp>25.0</ns3:atemp>
          </ns3:TrackPointExtension>
        </extensions>
      </trkpt>
      <trkpt lat="42.51773181371390819549560546875" lon="20.1512269489467144012451171875">
        <ele>1967.5999755859375</ele>
        <time>2026-06-20T09:35:32.000Z</time>
        <extensions>
          <ns3:TrackPointExtension>
            <ns3:atemp>25.0</ns3:atemp>
          </ns3:TrackPointExtension>
        </extensions>
      </trkpt>
      <trkpt lat="42.51772820949554443359375" lon="20.1512071676552295684814453125">
        <ele>1968</ele>
        <time>2026-06-20T09:35:33.000Z</time>
        <extensions>
          <ns3:TrackPointExtension>
            <ns3:atemp>25.0</ns3:atemp>
          </ns3:TrackPointExtension>
        </extensions>
      </trkpt>
      <trkpt lat="42.5177293829619884490966796875" lon="20.15118059702217578887939453125">
        <ele>1968.199951171875</ele>
        <time>2026-06-20T09:35:34.000Z</time>
        <extensions>
          <ns3:TrackPointExtension>
            <ns3:atemp>25.0</ns3:atemp>
          </ns3:TrackPointExtension>
        </extensions>
      </trkpt>
      <trkpt lat="42.51773231662809848785400390625" lon="20.1511587202548980712890625">
        <ele>1968.5999755859375</ele>
        <time>2026-06-20T09:35:35.000Z</time>
        <extensions>
          <ns3:TrackPointExtension>
            <ns3:atemp>25.0</ns3:atemp>
          </ns3:TrackPointExtension>
        </extensions>
      </trkpt>
      <trkpt lat="42.51773349009454250335693359375" lon="20.151140950620174407958984375">
        <ele>1968.800048828125</ele>
        <time>2026-06-20T09:35:36.000Z</time>
        <extensions>
          <ns3:TrackPointExtension>
            <ns3:atemp>25.0</ns3:atemp>
          </ns3:TrackPointExtension>
        </extensions>
      </trkpt>
      <trkpt lat="42.517736591398715972900390625" lon="20.15112586319446563720703125">
        <ele>1969.199951171875</ele>
        <time>2026-06-20T09:35:37.000Z</time>
        <extensions>
          <ns3:TrackPointExtension>
            <ns3:atemp>25.0</ns3:atemp>
          </ns3:TrackPointExtension>
        </extensions>
      </trkpt>
      <trkpt lat="42.517741955816745758056640625" lon="20.1511050760746002197265625">
        <ele>1969.4000244140625</ele>
        <time>2026-06-20T09:35:38.000Z</time>
        <extensions>
          <ns3:TrackPointExtension>
            <ns3:atemp>25.0</ns3:atemp>
          </ns3:TrackPointExtension>
        </extensions>
      </trkpt>
      <trkpt lat="42.51774673350155353546142578125" lon="20.1510884799063205718994140625">
        <ele>1969.5999755859375</ele>
        <time>2026-06-20T09:35:39.000Z</time>
        <extensions>
          <ns3:TrackPointExtension>
            <ns3:atemp>25.0</ns3:atemp>
          </ns3:TrackPointExtension>
        </extensions>
      </trkpt>
      <trkpt lat="42.5177498348057270050048828125" lon="20.15106643550097942352294921875">
        <ele>1970</ele>
        <time>2026-06-20T09:35:40.000Z</time>
        <extensions>
          <ns3:TrackPointExtension>
            <ns3:atemp>25.0</ns3:atemp>
          </ns3:TrackPointExtension>
        </extensions>
      </trkpt>
      <trkpt lat="42.51775461249053478240966796875" lon="20.15104413963854312896728515625">
        <ele>1970.199951171875</ele>
        <time>2026-06-20T09:35:41.000Z</time>
        <extensions>
          <ns3:TrackPointExtension>
            <ns3:atemp>25.0</ns3:atemp>
          </ns3:TrackPointExtension>
        </extensions>
      </trkpt>
      <trkpt lat="42.51775628887116909027099609375" lon="20.15101983211934566497802734375">
        <ele>1970.4000244140625</ele>
        <time>2026-06-20T09:35:42.000Z</time>
        <extensions>
          <ns3:TrackPointExtension>
            <ns3:atemp>25.0</ns3:atemp>
          </ns3:TrackPointExtension>
        </extensions>
      </trkpt>
      <trkpt lat="42.5177605636417865753173828125" lon="20.15099736861884593963623046875">
        <ele>1970.800048828125</ele>
        <time>2026-06-20T09:35:43.000Z</time>
        <extensions>
          <ns3:TrackPointExtension>
            <ns3:atemp>25.0</ns3:atemp>
          </ns3:TrackPointExtension>
        </extensions>
      </trkpt>
      <trkpt lat="42.517768107354640960693359375" lon="20.15097892843186855316162109375">
        <ele>1971</ele>
        <time>2026-06-20T09:35:44.000Z</time>
        <extensions>
          <ns3:TrackPointExtension>
            <ns3:atemp>25.0</ns3:atemp>
          </ns3:TrackPointExtension>
        </extensions>
      </trkpt>
      <trkpt lat="42.51777171157300472259521484375" lon="20.1509557105600833892822265625">
        <ele>1971.199951171875</ele>
        <time>2026-06-20T09:35:45.000Z</time>
        <extensions>
          <ns3:TrackPointExtension>
            <ns3:atemp>25.0</ns3:atemp>
          </ns3:TrackPointExtension>
        </extensions>
      </trkpt>
      <trkpt lat="42.51777154393494129180908203125" lon="20.1509334146976470947265625">
        <ele>1971.4000244140625</ele>
        <time>2026-06-20T09:35:46.000Z</time>
        <extensions>
          <ns3:TrackPointExtension>
            <ns3:atemp>25.0</ns3:atemp>
          </ns3:TrackPointExtension>
        </extensions>
      </trkpt>
      <trkpt lat="42.517768777906894683837890625" lon="20.15091287903487682342529296875">
        <ele>1971.4000244140625</ele>
        <time>2026-06-20T09:35:47.000Z</time>
        <extensions>
          <ns3:TrackPointExtension>
            <ns3:atemp>25.0</ns3:atemp>
          </ns3:TrackPointExtension>
        </extensions>
      </trkpt>
      <trkpt lat="42.5177696160972118377685546875" lon="20.150891840457916259765625">
        <ele>1971.800048828125</ele>
        <time>2026-06-20T09:35:48.000Z</time>
        <extensions>
          <ns3:TrackPointExtension>
            <ns3:atemp>25.0</ns3:atemp>
          </ns3:TrackPointExtension>
        </extensions>
      </trkpt>
      <trkpt lat="42.5177644193172454833984375" lon="20.1508705504238605499267578125">
        <ele>1972</ele>
        <time>2026-06-20T09:35:49.000Z</time>
        <extensions>
          <ns3:TrackPointExtension>
            <ns3:atemp>25.0</ns3:atemp>
          </ns3:TrackPointExtension>
        </extensions>
      </trkpt>
      <trkpt lat="42.5177659280598163604736328125" lon="20.15084314160048961639404296875">
        <ele>1972.199951171875</ele>
        <time>2026-06-20T09:35:50.000Z</time>
        <extensions>
          <ns3:TrackPointExtension>
            <ns3:atemp>25.0</ns3:atemp>
          </ns3:TrackPointExtension>
        </extensions>
      </trkpt>
      <trkpt lat="42.517768107354640960693359375" lon="20.15081849880516529083251953125">
        <ele>1972.4000244140625</ele>
        <time>2026-06-20T09:35:51.000Z</time>
        <extensions>
          <ns3:TrackPointExtension>
            <ns3:atemp>25.0</ns3:atemp>
          </ns3:TrackPointExtension>
        </extensions>
      </trkpt>
      <trkpt lat="42.51776936464011669158935546875" lon="20.1507974602282047271728515625">
        <ele>1972.5999755859375</ele>
        <time>2026-06-20T09:35:52.000Z</time>
        <extensions>
          <ns3:TrackPointExtension>
            <ns3:atemp>25.0</ns3:atemp>
          </ns3:TrackPointExtension>
        </extensions>
      </trkpt>
      <trkpt lat="42.5177689455449581146240234375" lon="20.15077206306159496307373046875">
        <ele>1973</ele>
        <time>2026-06-20T09:35:53.000Z</time>
        <extensions>
          <ns3:TrackPointExtension>
            <ns3:atemp>25.0</ns3:atemp>
          </ns3:TrackPointExtension>
        </extensions>
      </trkpt>
      <trkpt lat="42.51777020283043384552001953125" lon="20.1507464982569217681884765625">
        <ele>1973.199951171875</ele>
        <time>2026-06-20T09:35:54.000Z</time>
        <extensions>
          <ns3:TrackPointExtension>
            <ns3:atemp>25.0</ns3:atemp>
          </ns3:TrackPointExtension>
        </extensions>
      </trkpt>
      <trkpt lat="42.51777489669620990753173828125" lon="20.15072361566126346588134765625">
        <ele>1973.4000244140625</ele>
        <time>2026-06-20T09:35:55.000Z</time>
        <extensions>
          <ns3:TrackPointExtension>
            <ns3:atemp>25.0</ns3:atemp>
          </ns3:TrackPointExtension>
        </extensions>
      </trkpt>
      <trkpt lat="42.5177779980003833770751953125" lon="20.15070215798914432525634765625">
        <ele>1973.5999755859375</ele>
        <time>2026-06-20T09:35:56.000Z</time>
        <extensions>
          <ns3:TrackPointExtension>
            <ns3:atemp>25.0</ns3:atemp>
          </ns3:TrackPointExtension>
        </extensions>
      </trkpt>
      <trkpt lat="42.51777975820004940032958984375" lon="20.1506787724792957305908203125">
        <ele>1973.800048828125</ele>
        <time>2026-06-20T09:35:57.000Z</time>
        <extensions>
          <ns3:TrackPointExtension>
            <ns3:atemp>25.0</ns3:atemp>
          </ns3:TrackPointExtension>
        </extensions>
      </trkpt>
      <trkpt lat="42.51777925528585910797119140625" lon="20.1506599970161914825439453125">
        <ele>1974</ele>
        <time>2026-06-20T09:35:58.000Z</time>
        <extensions>
          <ns3:TrackPointExtension>
            <ns3:atemp>25.0</ns3:atemp>
          </ns3:TrackPointExtension>
        </extensions>
      </trkpt>
      <trkpt lat="42.51777908764779567718505859375" lon="20.15064306557178497314453125">
        <ele>1974.4000244140625</ele>
        <time>2026-06-20T09:35:59.000Z</time>
        <extensions>
          <ns3:TrackPointExtension>
            <ns3:atemp>25.0</ns3:atemp>
          </ns3:TrackPointExtension>
        </extensions>
      </trkpt>
      <trkpt lat="42.5177810154855251312255859375" lon="20.15062336809933185577392578125">
        <ele>1974.5999755859375</ele>
        <time>2026-06-20T09:36:00.000Z</time>
        <extensions>
          <ns3:TrackPointExtension>
            <ns3:atemp>25.0</ns3:atemp>
          </ns3:TrackPointExtension>
        </extensions>
      </trkpt>
      <trkpt lat="42.517777495086193084716796875" lon="20.15060341916978359222412109375">
        <ele>1975</ele>
        <time>2026-06-20T09:36:01.000Z</time>
        <extensions>
          <ns3:TrackPointExtension>
            <ns3:atemp>25.0</ns3:atemp>
          </ns3:TrackPointExtension>
        </extensions>
      </trkpt>
      <trkpt lat="42.51777657307684421539306640625" lon="20.150581039488315582275390625">
        <ele>1975.5999755859375</ele>
        <time>2026-06-20T09:36:02.000Z</time>
        <extensions>
          <ns3:TrackPointExtension>
            <ns3:atemp>25.0</ns3:atemp>
          </ns3:TrackPointExtension>
        </extensions>
      </trkpt>
      <trkpt lat="42.5177783332765102386474609375" lon="20.15055991709232330322265625">
        <ele>1975.800048828125</ele>
        <time>2026-06-20T09:36:03.000Z</time>
        <extensions>
          <ns3:TrackPointExtension>
            <ns3:atemp>25.0</ns3:atemp>
          </ns3:TrackPointExtension>
        </extensions>
      </trkpt>
      <trkpt lat="42.5177766568958759307861328125" lon="20.15053577721118927001953125">
        <ele>1976.199951171875</ele>
        <time>2026-06-20T09:36:04.000Z</time>
        <extensions>
          <ns3:TrackPointExtension>
            <ns3:atemp>25.0</ns3:atemp>
          </ns3:TrackPointExtension>
        </extensions>
      </trkpt>
      <trkpt lat="42.5177729688584804534912109375" lon="20.1505164988338947296142578125">
        <ele>1976.4000244140625</ele>
        <time>2026-06-20T09:36:05.000Z</time>
        <extensions>
          <ns3:TrackPointExtension>
            <ns3:atemp>25.0</ns3:atemp>
          </ns3:TrackPointExtension>
        </extensions>
      </trkpt>
      <trkpt lat="42.51776852644979953765869140625" lon="20.150494538247585296630859375">
        <ele>1976.800048828125</ele>
        <time>2026-06-20T09:36:06.000Z</time>
        <extensions>
          <ns3:TrackPointExtension>
            <ns3:atemp>25.0</ns3:atemp>
          </ns3:TrackPointExtension>
        </extensions>
      </trkpt>
      <trkpt lat="42.51776366494596004486083984375" lon="20.1504759304225444793701171875">
        <ele>1977.199951171875</ele>
        <time>2026-06-20T09:36:07.000Z</time>
        <extensions>
          <ns3:TrackPointExtension>
            <ns3:atemp>25.0</ns3:atemp>
          </ns3:TrackPointExtension>
        </extensions>
      </trkpt>
      <trkpt lat="42.51775897108018398284912109375" lon="20.150455646216869354248046875">
        <ele>1977.5999755859375</ele>
        <time>2026-06-20T09:36:08.000Z</time>
        <extensions>
          <ns3:TrackPointExtension>
            <ns3:atemp>25.0</ns3:atemp>
          </ns3:TrackPointExtension>
        </extensions>
      </trkpt>
      <trkpt lat="42.51775260083377361297607421875" lon="20.15044215135276317596435546875">
        <ele>1978</ele>
        <time>2026-06-20T09:36:09.000Z</time>
        <extensions>
          <ns3:TrackPointExtension>
            <ns3:atemp>25.0</ns3:atemp>
          </ns3:TrackPointExtension>
        </extensions>
      </trkpt>
      <trkpt lat="42.51774941571056842803955078125" lon="20.15042169950902462005615234375">
        <ele>1978.5999755859375</ele>
        <time>2026-06-20T09:36:10.000Z</time>
        <extensions>
          <ns3:TrackPointExtension>
            <ns3:atemp>25.0</ns3:atemp>
          </ns3:TrackPointExtension>
        </extensions>
      </trkpt>
      <trkpt lat="42.51774807460606098175048828125" lon="20.15041080303490161895751953125">
        <ele>1979</ele>
        <time>2026-06-20T09:36:11.000Z</time>
        <extensions>
          <ns3:TrackPointExtension>
            <ns3:atemp>25.0</ns3:atemp>
          </ns3:TrackPointExtension>
        </extensions>
      </trkpt>
      <trkpt lat="42.51774053089320659637451171875" lon="20.1503954641520977020263671875">
        <ele>1979.5999755859375</ele>
        <time>2026-06-20T09:36:12.000Z</time>
        <extensions>
          <ns3:TrackPointExtension>
            <ns3:atemp>25.0</ns3:atemp>
          </ns3:TrackPointExtension>
        </extensions>
      </trkpt>
      <trkpt lat="42.51773298718035221099853515625" lon="20.15037744306027889251708984375">
        <ele>1980</ele>
        <time>2026-06-20T09:36:13.000Z</time>
        <extensions>
          <ns3:TrackPointExtension>
            <ns3:atemp>25.0</ns3:atemp>
          </ns3:TrackPointExtension>
        </extensions>
      </trkpt>
      <trkpt lat="42.5177283771336078643798828125" lon="20.1503548957407474517822265625">
        <ele>1980.4000244140625</ele>
        <time>2026-06-20T09:36:14.000Z</time>
        <extensions>
          <ns3:TrackPointExtension>
            <ns3:atemp>25.0</ns3:atemp>
          </ns3:TrackPointExtension>
        </extensions>
      </trkpt>
      <trkpt lat="42.5177230127155780792236328125" lon="20.150329582393169403076171875">
        <ele>1980.800048828125</ele>
        <time>2026-06-20T09:36:15.000Z</time>
        <extensions>
          <ns3:TrackPointExtension>
            <ns3:atemp>25.0</ns3:atemp>
          </ns3:TrackPointExtension>
        </extensions>
      </trkpt>
      <trkpt lat="42.51772393472492694854736328125" lon="20.15030854381620883941650390625">
        <ele>1981.199951171875</ele>
        <time>2026-06-20T09:36:16.000Z</time>
        <extensions>
          <ns3:TrackPointExtension>
            <ns3:atemp>25.0</ns3:atemp>
          </ns3:TrackPointExtension>
        </extensions>
      </trkpt>
      <trkpt lat="42.5177233479917049407958984375" lon="20.15028440393507480621337890625">
        <ele>1981.5999755859375</ele>
        <time>2026-06-20T09:36:17.000Z</time>
        <extensions>
          <ns3:TrackPointExtension>
            <ns3:atemp>25.0</ns3:atemp>
          </ns3:TrackPointExtension>
        </extensions>
      </trkpt>
      <trkpt lat="42.51771907322108745574951171875" lon="20.150263868272304534912109375">
        <ele>1982</ele>
        <time>2026-06-20T09:36:18.000Z</time>
        <extensions>
          <ns3:TrackPointExtension>
            <ns3:atemp>25.0</ns3:atemp>
          </ns3:TrackPointExtension>
        </extensions>
      </trkpt>
      <trkpt lat="42.5177163071930408477783203125" lon="20.150241740047931671142578125">
        <ele>1982.199951171875</ele>
        <time>2026-06-20T09:36:19.000Z</time>
        <extensions>
          <ns3:TrackPointExtension>
            <ns3:atemp>25.0</ns3:atemp>
          </ns3:TrackPointExtension>
        </extensions>
      </trkpt>
      <trkpt lat="42.51771572045981884002685546875" lon="20.15022204257547855377197265625">
        <ele>1982.5999755859375</ele>
        <time>2026-06-20T09:36:20.000Z</time>
        <extensions>
          <ns3:TrackPointExtension>
            <ns3:atemp>25.0</ns3:atemp>
          </ns3:TrackPointExtension>
        </extensions>
      </trkpt>
      <trkpt lat="42.51771437935531139373779296875" lon="20.15019991435110569000244140625">
        <ele>1983</ele>
        <time>2026-06-20T09:36:21.000Z</time>
        <extensions>
          <ns3:TrackPointExtension>
            <ns3:atemp>25.0</ns3:atemp>
          </ns3:TrackPointExtension>
        </extensions>
      </trkpt>
      <trkpt lat="42.51771404407918453216552734375" lon="20.1501823961734771728515625">
        <ele>1983.4000244140625</ele>
        <time>2026-06-20T09:36:22.000Z</time>
        <extensions>
          <ns3:TrackPointExtension>
            <ns3:atemp>25.0</ns3:atemp>
          </ns3:TrackPointExtension>
        </extensions>
      </trkpt>
      <trkpt lat="42.51770985312759876251220703125" lon="20.15016957186162471771240234375">
        <ele>1983.800048828125</ele>
        <time>2026-06-20T09:36:23.000Z</time>
        <extensions>
          <ns3:TrackPointExtension>
            <ns3:atemp>25.0</ns3:atemp>
          </ns3:TrackPointExtension>
        </extensions>
      </trkpt>
      <trkpt lat="42.517701722681522369384765625" lon="20.15015314333140850067138671875">
        <ele>1984.4000244140625</ele>
        <time>2026-06-20T09:36:24.000Z</time>
        <extensions>
          <ns3:TrackPointExtension>
            <ns3:atemp>25.0</ns3:atemp>
          </ns3:TrackPointExtension>
        </extensions>
      </trkpt>
      <trkpt lat="42.51769375987350940704345703125" lon="20.15013554133474826812744140625">
        <ele>1984.5999755859375</ele>
        <time>2026-06-20T09:36:25.000Z</time>
        <extensions>
          <ns3:TrackPointExtension>
            <ns3:atemp>25.0</ns3:atemp>
          </ns3:TrackPointExtension>
        </extensions>
      </trkpt>
      <trkpt lat="42.517687641084194183349609375" lon="20.1501208730041980743408203125">
        <ele>1985</ele>
        <time>2026-06-20T09:36:26.000Z</time>
        <extensions>
          <ns3:TrackPointExtension>
            <ns3:atemp>25.0</ns3:atemp>
          </ns3:TrackPointExtension>
        </extensions>
      </trkpt>
      <trkpt lat="42.51768018119037151336669921875" lon="20.1501020975410938262939453125">
        <ele>1985.4000244140625</ele>
        <time>2026-06-20T09:36:27.000Z</time>
        <extensions>
          <ns3:TrackPointExtension>
            <ns3:atemp>25.0</ns3:atemp>
          </ns3:TrackPointExtension>
        </extensions>
      </trkpt>
      <trkpt lat="42.51767666079103946685791015625" lon="20.1500799693167209625244140625">
        <ele>1985.5999755859375</ele>
        <time>2026-06-20T09:36:28.000Z</time>
        <extensions>
          <ns3:TrackPointExtension>
            <ns3:atemp>25.0</ns3:atemp>
          </ns3:TrackPointExtension>
        </extensions>
      </trkpt>
      <trkpt lat="42.517672218382358551025390625" lon="20.15005658380687236785888671875">
        <ele>1985.800048828125</ele>
        <time>2026-06-20T09:36:29.000Z</time>
        <extensions>
          <ns3:TrackPointExtension>
            <ns3:atemp>25.0</ns3:atemp>
          </ns3:TrackPointExtension>
        </extensions>
      </trkpt>
      <trkpt lat="42.51766677014529705047607421875" lon="20.15003420412540435791015625">
        <ele>1986</ele>
        <time>2026-06-20T09:36:30.000Z</time>
        <extensions>
          <ns3:TrackPointExtension>
            <ns3:atemp>25.0</ns3:atemp>
          </ns3:TrackPointExtension>
        </extensions>
      </trkpt>
      <trkpt lat="42.517660818994045257568359375" lon="20.15000930987298488616943359375">
        <ele>1986.199951171875</ele>
        <time>2026-06-20T09:36:31.000Z</time>
        <extensions>
          <ns3:TrackPointExtension>
            <ns3:atemp>26.0</ns3:atemp>
          </ns3:TrackPointExtension>
        </extensions>
      </trkpt>
      <trkpt lat="42.517657466232776641845703125" lon="20.14998667873442173004150390625">
        <ele>1986.199951171875</ele>
        <time>2026-06-20T09:36:32.000Z</time>
        <extensions>
          <ns3:TrackPointExtension>
            <ns3:atemp>26.0</ns3:atemp>
          </ns3:TrackPointExtension>
        </extensions>
      </trkpt>
      <trkpt lat="42.517656795680522918701171875" lon="20.14996605925261974334716796875">
        <ele>1986.4000244140625</ele>
        <time>2026-06-20T09:36:33.000Z</time>
        <extensions>
          <ns3:TrackPointExtension>
            <ns3:atemp>26.0</ns3:atemp>
          </ns3:TrackPointExtension>
        </extensions>
      </trkpt>
      <trkpt lat="42.51765436492860317230224609375" lon="20.149946697056293487548828125">
        <ele>1986.5999755859375</ele>
        <time>2026-06-20T09:36:34.000Z</time>
        <extensions>
          <ns3:TrackPointExtension>
            <ns3:atemp>26.0</ns3:atemp>
          </ns3:TrackPointExtension>
        </extensions>
      </trkpt>
      <trkpt lat="42.51765067689120769500732421875" lon="20.1499274186789989471435546875">
        <ele>1986.800048828125</ele>
        <time>2026-06-20T09:36:35.000Z</time>
        <extensions>
          <ns3:TrackPointExtension>
            <ns3:atemp>26.0</ns3:atemp>
          </ns3:TrackPointExtension>
        </extensions>
      </trkpt>
      <trkpt lat="42.51764967106282711029052734375" lon="20.14990453608334064483642578125">
        <ele>1987</ele>
        <time>2026-06-20T09:36:36.000Z</time>
        <extensions>
          <ns3:TrackPointExtension>
            <ns3:atemp>25.0</ns3:atemp>
          </ns3:TrackPointExtension>
        </extensions>
      </trkpt>
      <trkpt lat="42.517648078501224517822265625" lon="20.1498846709728240966796875">
        <ele>1987.199951171875</ele>
        <time>2026-06-20T09:36:37.000Z</time>
        <extensions>
          <ns3:TrackPointExtension>
            <ns3:atemp>26.0</ns3:atemp>
          </ns3:TrackPointExtension>
        </extensions>
      </trkpt>
      <trkpt lat="42.51764615066349506378173828125" lon="20.14986480586230754852294921875">
        <ele>1987.4000244140625</ele>
        <time>2026-06-20T09:36:38.000Z</time>
        <extensions>
          <ns3:TrackPointExtension>
            <ns3:atemp>26.0</ns3:atemp>
          </ns3:TrackPointExtension>
        </extensions>
      </trkpt>
      <trkpt lat="42.51764330081641674041748046875" lon="20.14984703622758388519287109375">
        <ele>1987.5999755859375</ele>
        <time>2026-06-20T09:36:39.000Z</time>
        <extensions>
          <ns3:TrackPointExtension>
            <ns3:atemp>26.0</ns3:atemp>
          </ns3:TrackPointExtension>
        </extensions>
      </trkpt>
      <trkpt lat="42.517644725739955902099609375" lon="20.14982859604060649871826171875">
        <ele>1987.5999755859375</ele>
        <time>2026-06-20T09:36:40.000Z</time>
        <extensions>
          <ns3:TrackPointExtension>
            <ns3:atemp>26.0</ns3:atemp>
          </ns3:TrackPointExtension>
        </extensions>
      </trkpt>
      <trkpt lat="42.51764397136867046356201171875" lon="20.1498097367584705352783203125">
        <ele>1988</ele>
        <time>2026-06-20T09:36:41.000Z</time>
        <extensions>
          <ns3:TrackPointExtension>
            <ns3:atemp>26.0</ns3:atemp>
          </ns3:TrackPointExtension>
        </extensions>
      </trkpt>
      <trkpt lat="42.5176455639302730560302734375" lon="20.14978568069636821746826171875">
        <ele>1988.199951171875</ele>
        <time>2026-06-20T09:36:42.000Z</time>
        <extensions>
          <ns3:TrackPointExtension>
            <ns3:atemp>26.0</ns3:atemp>
          </ns3:TrackPointExtension>
        </extensions>
      </trkpt>
      <trkpt lat="42.51764975488185882568359375" lon="20.14976732432842254638671875">
        <ele>1988.5999755859375</ele>
        <time>2026-06-20T09:36:43.000Z</time>
        <extensions>
          <ns3:TrackPointExtension>
            <ns3:atemp>26.0</ns3:atemp>
          </ns3:TrackPointExtension>
        </extensions>
      </trkpt>
      <trkpt lat="42.5176536105573177337646484375" lon="20.14974863268435001373291015625">
        <ele>1988.800048828125</ele>
        <time>2026-06-20T09:36:44.000Z</time>
        <extensions>
          <ns3:TrackPointExtension>
            <ns3:atemp>26.0</ns3:atemp>
          </ns3:TrackPointExtension>
        </extensions>
      </trkpt>
      <trkpt lat="42.51765604130923748016357421875" lon="20.149727426469326019287109375">
        <ele>1989.199951171875</ele>
        <time>2026-06-20T09:36:45.000Z</time>
        <extensions>
          <ns3:TrackPointExtension>
            <ns3:atemp>26.0</ns3:atemp>
          </ns3:TrackPointExtension>
        </extensions>
      </trkpt>
      <trkpt lat="42.5176549516618251800537109375" lon="20.14970672316849231719970703125">
        <ele>1989.5999755859375</ele>
        <time>2026-06-20T09:36:46.000Z</time>
        <extensions>
          <ns3:TrackPointExtension>
            <ns3:atemp>25.0</ns3:atemp>
          </ns3:TrackPointExtension>
        </extensions>
      </trkpt>
      <trkpt lat="42.51765855588018894195556640625" lon="20.1496803201735019683837890625">
        <ele>1990</ele>
        <time>2026-06-20T09:36:47.000Z</time>
        <extensions>
          <ns3:TrackPointExtension>
            <ns3:atemp>26.0</ns3:atemp>
          </ns3:TrackPointExtension>
        </extensions>
      </trkpt>
      <trkpt lat="42.5176598131656646728515625" lon="20.14965844340622425079345703125">
        <ele>1990.4000244140625</ele>
        <time>2026-06-20T09:36:48.000Z</time>
        <extensions>
          <ns3:TrackPointExtension>
            <ns3:atemp>26.0</ns3:atemp>
          </ns3:TrackPointExtension>
        </extensions>
      </trkpt>
      <trkpt lat="42.5176556222140789031982421875" lon="20.14964017085731029510498046875">
        <ele>1990.5999755859375</ele>
        <time>2026-06-20T09:36:49.000Z</time>
        <extensions>
          <ns3:TrackPointExtension>
            <ns3:atemp>26.0</ns3:atemp>
          </ns3:TrackPointExtension>
        </extensions>
      </trkpt>
      <trkpt lat="42.51765520311892032623291015625" lon="20.14961569570004940032958984375">
        <ele>1990.800048828125</ele>
        <time>2026-06-20T09:36:50.000Z</time>
        <extensions>
          <ns3:TrackPointExtension>
            <ns3:atemp>26.0</ns3:atemp>
          </ns3:TrackPointExtension>
        </extensions>
      </trkpt>
      <trkpt lat="42.5176542811095714569091796875" lon="20.149595327675342559814453125">
        <ele>1991.4000244140625</ele>
        <time>2026-06-20T09:36:51.000Z</time>
        <extensions>
          <ns3:TrackPointExtension>
            <ns3:atemp>26.0</ns3:atemp>
          </ns3:TrackPointExtension>
        </extensions>
      </trkpt>
      <trkpt lat="42.517652101814746856689453125" lon="20.1495767198503017425537109375">
        <ele>1991.5999755859375</ele>
        <time>2026-06-20T09:36:52.000Z</time>
        <extensions>
          <ns3:TrackPointExtension>
            <ns3:atemp>26.0</ns3:atemp>
          </ns3:TrackPointExtension>
        </extensions>
      </trkpt>
      <trkpt lat="42.51764598302543163299560546875" lon="20.14955953694880008697509765625">
        <ele>1992</ele>
        <time>2026-06-20T09:36:53.000Z</time>
        <extensions>
          <ns3:TrackPointExtension>
            <ns3:atemp>26.0</ns3:atemp>
          </ns3:TrackPointExtension>
        </extensions>
      </trkpt>
      <trkpt lat="42.517646066844463348388671875" lon="20.14954126439988613128662109375">
        <ele>1992.4000244140625</ele>
        <time>2026-06-20T09:36:54.000Z</time>
        <extensions>
          <ns3:TrackPointExtension>
            <ns3:atemp>26.0</ns3:atemp>
          </ns3:TrackPointExtension>
        </extensions>
      </trkpt>
      <trkpt lat="42.5176499225199222564697265625" lon="20.14952416531741619110107421875">
        <ele>1992.800048828125</ele>
        <time>2026-06-20T09:36:55.000Z</time>
        <extensions>
          <ns3:TrackPointExtension>
            <ns3:atemp>26.0</ns3:atemp>
          </ns3:TrackPointExtension>
        </extensions>
      </trkpt>
      <trkpt lat="42.517650760710239410400390625" lon="20.14950857497751712799072265625">
        <ele>1993.199951171875</ele>
        <time>2026-06-20T09:36:56.000Z</time>
        <extensions>
          <ns3:TrackPointExtension>
            <ns3:atemp>26.0</ns3:atemp>
          </ns3:TrackPointExtension>
        </extensions>
      </trkpt>
      <trkpt lat="42.51764983870089054107666015625" lon="20.14949516393244266510009765625">
        <ele>1993.5999755859375</ele>
        <time>2026-06-20T09:36:57.000Z</time>
        <extensions>
          <ns3:TrackPointExtension>
            <ns3:atemp>26.0</ns3:atemp>
          </ns3:TrackPointExtension>
        </extensions>
      </trkpt>
      <trkpt lat="42.51764548011124134063720703125" lon="20.1494823396205902099609375">
        <ele>1994</ele>
        <time>2026-06-20T09:36:58.000Z</time>
        <extensions>
          <ns3:TrackPointExtension>
            <ns3:atemp>26.0</ns3:atemp>
          </ns3:TrackPointExtension>
        </extensions>
      </trkpt>
      <trkpt lat="42.5176428817212581634521484375" lon="20.1494654081761837005615234375">
        <ele>1994.199951171875</ele>
        <time>2026-06-20T09:36:59.000Z</time>
        <extensions>
          <ns3:TrackPointExtension>
            <ns3:atemp>26.0</ns3:atemp>
          </ns3:TrackPointExtension>
        </extensions>
      </trkpt>
      <trkpt lat="42.517640702426433563232421875" lon="20.14944814145565032958984375">
        <ele>1994.5999755859375</ele>
        <time>2026-06-20T09:37:00.000Z</time>
        <extensions>
          <ns3:TrackPointExtension>
            <ns3:atemp>26.0</ns3:atemp>
          </ns3:TrackPointExtension>
        </extensions>
      </trkpt>
      <trkpt lat="42.51764011569321155548095703125" lon="20.14942140318453311920166015625">
        <ele>1995.199951171875</ele>
        <time>2026-06-20T09:37:01.000Z</time>
        <extensions>
          <ns3:TrackPointExtension>
            <ns3:atemp>26.0</ns3:atemp>
          </ns3:TrackPointExtension>
        </extensions>
      </trkpt>
      <trkpt lat="42.51764380373060703277587890625" lon="20.1494037173688411712646484375">
        <ele>1995.5999755859375</ele>
        <time>2026-06-20T09:37:02.000Z</time>
        <extensions>
          <ns3:TrackPointExtension>
            <ns3:atemp>26.0</ns3:atemp>
          </ns3:TrackPointExtension>
        </extensions>
      </trkpt>
      <trkpt lat="42.51764212734997272491455078125" lon="20.149386785924434661865234375">
        <ele>1996</ele>
        <time>2026-06-20T09:37:03.000Z</time>
        <extensions>
          <ns3:TrackPointExtension>
            <ns3:atemp>26.0</ns3:atemp>
          </ns3:TrackPointExtension>
        </extensions>
      </trkpt>
      <trkpt lat="42.51763793639838695526123046875" lon="20.1493691839277744293212890625">
        <ele>1996.199951171875</ele>
        <time>2026-06-20T09:37:04.000Z</time>
        <extensions>
          <ns3:TrackPointExtension>
            <ns3:atemp>26.0</ns3:atemp>
          </ns3:TrackPointExtension>
        </extensions>
      </trkpt>
      <trkpt lat="42.517633326351642608642578125" lon="20.149348564445972442626953125">
        <ele>1996.4000244140625</ele>
        <time>2026-06-20T09:37:05.000Z</time>
        <extensions>
          <ns3:TrackPointExtension>
            <ns3:atemp>26.0</ns3:atemp>
          </ns3:TrackPointExtension>
        </extensions>
      </trkpt>
      <trkpt lat="42.51762972213327884674072265625" lon="20.14933004043996334075927734375">
        <ele>1996.800048828125</ele>
        <time>2026-06-20T09:37:06.000Z</time>
        <extensions>
          <ns3:TrackPointExtension>
            <ns3:atemp>26.0</ns3:atemp>
          </ns3:TrackPointExtension>
        </extensions>
      </trkpt>
      <trkpt lat="42.5176222622394561767578125" lon="20.1493111811578273773193359375">
        <ele>1997.199951171875</ele>
        <time>2026-06-20T09:37:07.000Z</time>
        <extensions>
          <ns3:TrackPointExtension>
            <ns3:atemp>26.0</ns3:atemp>
          </ns3:TrackPointExtension>
        </extensions>
      </trkpt>
      <trkpt lat="42.51761413179337978363037109375" lon="20.14929735101759433746337890625">
        <ele>1997.5999755859375</ele>
        <time>2026-06-20T09:37:08.000Z</time>
        <extensions>
          <ns3:TrackPointExtension>
            <ns3:atemp>26.0</ns3:atemp>
          </ns3:TrackPointExtension>
        </extensions>
      </trkpt>
      <trkpt lat="42.51760306768119335174560546875" lon="20.149278827011585235595703125">
        <ele>1998</ele>
        <time>2026-06-20T09:37:09.000Z</time>
        <extensions>
          <ns3:TrackPointExtension>
            <ns3:atemp>26.0</ns3:atemp>
          </ns3:TrackPointExtension>
        </extensions>
      </trkpt>
      <trkpt lat="42.51759099774062633514404296875" lon="20.14926466159522533416748046875">
        <ele>1998.4000244140625</ele>
        <time>2026-06-20T09:37:10.000Z</time>
        <extensions>
          <ns3:TrackPointExtension>
            <ns3:atemp>26.0</ns3:atemp>
          </ns3:TrackPointExtension>
        </extensions>
      </trkpt>
      <trkpt lat="42.5175781734287738800048828125" lon="20.1492458023130893707275390625">
        <ele>1998.800048828125</ele>
        <time>2026-06-20T09:37:11.000Z</time>
        <extensions>
          <ns3:TrackPointExtension>
            <ns3:atemp>26.0</ns3:atemp>
          </ns3:TrackPointExtension>
        </extensions>
      </trkpt>
      <trkpt lat="42.51756752841174602508544921875" lon="20.14922593720257282257080078125">
        <ele>1999.199951171875</ele>
        <time>2026-06-20T09:37:12.000Z</time>
        <extensions>
          <ns3:TrackPointExtension>
            <ns3:atemp>26.0</ns3:atemp>
          </ns3:TrackPointExtension>
        </extensions>
      </trkpt>
      <trkpt lat="42.51756233163177967071533203125" lon="20.14920582063496112823486328125">
        <ele>1999.5999755859375</ele>
        <time>2026-06-20T09:37:13.000Z</time>
        <extensions>
          <ns3:TrackPointExtension>
            <ns3:atemp>26.0</ns3:atemp>
          </ns3:TrackPointExtension>
        </extensions>
      </trkpt>
      <trkpt lat="42.5175577215850353240966796875" lon="20.14918796718120574951171875">
        <ele>1999.800048828125</ele>
        <time>2026-06-20T09:37:14.000Z</time>
        <extensions>
          <ns3:TrackPointExtension>
            <ns3:atemp>26.0</ns3:atemp>
          </ns3:TrackPointExtension>
        </extensions>
      </trkpt>
      <trkpt lat="42.51755629666149616241455078125" lon="20.1491696946322917938232421875">
        <ele>2000</ele>
        <time>2026-06-20T09:37:15.000Z</time>
        <extensions>
          <ns3:TrackPointExtension>
            <ns3:atemp>26.0</ns3:atemp>
          </ns3:TrackPointExtension>
        </extensions>
      </trkpt>
      <trkpt lat="42.51755244098603725433349609375" lon="20.14914882369339466094970703125">
        <ele>2000.4000244140625</ele>
        <time>2026-06-20T09:37:16.000Z</time>
        <extensions>
          <ns3:TrackPointExtension>
            <ns3:atemp>26.0</ns3:atemp>
          </ns3:TrackPointExtension>
        </extensions>
      </trkpt>
      <trkpt lat="42.5175496749579906463623046875" lon="20.1491341553628444671630859375">
        <ele>2000.4000244140625</ele>
        <time>2026-06-20T09:37:17.000Z</time>
        <extensions>
          <ns3:TrackPointExtension>
            <ns3:atemp>26.0</ns3:atemp>
          </ns3:TrackPointExtension>
        </extensions>
      </trkpt>
      <trkpt lat="42.51754456199705600738525390625" lon="20.1491214148700237274169921875">
        <ele>2000.5999755859375</ele>
        <time>2026-06-20T09:37:18.000Z</time>
        <extensions>
          <ns3:TrackPointExtension>
            <ns3:atemp>26.0</ns3:atemp>
          </ns3:TrackPointExtension>
        </extensions>
      </trkpt>
      <trkpt lat="42.51753936521708965301513671875" lon="20.14910071156919002532958984375">
        <ele>2001</ele>
        <time>2026-06-20T09:37:19.000Z</time>
        <extensions>
          <ns3:TrackPointExtension>
            <ns3:atemp>26.0</ns3:atemp>
          </ns3:TrackPointExtension>
        </extensions>
      </trkpt>
      <trkpt lat="42.51753433607518672943115234375" lon="20.1490848697721958160400390625">
        <ele>2001.199951171875</ele>
        <time>2026-06-20T09:37:20.000Z</time>
        <extensions>
          <ns3:TrackPointExtension>
            <ns3:atemp>26.0</ns3:atemp>
          </ns3:TrackPointExtension>
        </extensions>
      </trkpt>
      <trkpt lat="42.51752662472426891326904296875" lon="20.1490674354135990142822265625">
        <ele>2001.5999755859375</ele>
        <time>2026-06-20T09:37:21.000Z</time>
        <extensions>
          <ns3:TrackPointExtension>
            <ns3:atemp>26.0</ns3:atemp>
          </ns3:TrackPointExtension>
        </extensions>
      </trkpt>
      <trkpt lat="42.5175168178975582122802734375" lon="20.14905025251209735870361328125">
        <ele>2001.800048828125</ele>
        <time>2026-06-20T09:37:22.000Z</time>
        <extensions>
          <ns3:TrackPointExtension>
            <ns3:atemp>26.0</ns3:atemp>
          </ns3:TrackPointExtension>
        </extensions>
      </trkpt>
      <trkpt lat="42.5175097770988941192626953125" lon="20.1490322314202785491943359375">
        <ele>2002.199951171875</ele>
        <time>2026-06-20T09:37:23.000Z</time>
        <extensions>
          <ns3:TrackPointExtension>
            <ns3:atemp>26.0</ns3:atemp>
          </ns3:TrackPointExtension>
        </extensions>
      </trkpt>
      <trkpt lat="42.517501227557659149169921875" lon="20.14901270158588886260986328125">
        <ele>2002.5999755859375</ele>
        <time>2026-06-20T09:37:24.000Z</time>
        <extensions>
          <ns3:TrackPointExtension>
            <ns3:atemp>26.0</ns3:atemp>
          </ns3:TrackPointExtension>
        </extensions>
      </trkpt>
      <trkpt lat="42.517491169273853302001953125" lon="20.148993171751499176025390625">
        <ele>2003</ele>
        <time>2026-06-20T09:37:25.000Z</time>
        <extensions>
          <ns3:TrackPointExtension>
            <ns3:atemp>26.0</ns3:atemp>
          </ns3:TrackPointExtension>
        </extensions>
      </trkpt>
      <trkpt lat="42.51748337410390377044677734375" lon="20.148977078497409820556640625">
        <ele>2003.4000244140625</ele>
        <time>2026-06-20T09:37:26.000Z</time>
        <extensions>
          <ns3:TrackPointExtension>
            <ns3:atemp>26.0</ns3:atemp>
          </ns3:TrackPointExtension>
        </extensions>
      </trkpt>
      <trkpt lat="42.51747599802911281585693359375" lon="20.1489624939858913421630859375">
        <ele>2003.800048828125</ele>
        <time>2026-06-20T09:37:27.000Z</time>
        <extensions>
          <ns3:TrackPointExtension>
            <ns3:atemp>26.0</ns3:atemp>
          </ns3:TrackPointExtension>
        </extensions>
      </trkpt>
      <trkpt lat="42.51746811904013156890869140625" lon="20.148949921131134033203125">
        <ele>2004.199951171875</ele>
        <time>2026-06-20T09:37:28.000Z</time>
        <extensions>
          <ns3:TrackPointExtension>
            <ns3:atemp>26.0</ns3:atemp>
          </ns3:TrackPointExtension>
        </extensions>
      </trkpt>
      <trkpt lat="42.5174584798514842987060546875" lon="20.1489336602389812469482421875">
        <ele>2004.4000244140625</ele>
        <time>2026-06-20T09:37:29.000Z</time>
        <extensions>
          <ns3:TrackPointExtension>
            <ns3:atemp>26.0</ns3:atemp>
          </ns3:TrackPointExtension>
        </extensions>
      </trkpt>
      <trkpt lat="42.51744867302477359771728515625" lon="20.14892184175550937652587890625">
        <ele>2004.800048828125</ele>
        <time>2026-06-20T09:37:30.000Z</time>
        <extensions>
          <ns3:TrackPointExtension>
            <ns3:atemp>26.0</ns3:atemp>
          </ns3:TrackPointExtension>
        </extensions>
      </trkpt>
      <trkpt lat="42.51743777655065059661865234375" lon="20.14890776015818119049072265625">
        <ele>2005.199951171875</ele>
        <time>2026-06-20T09:37:31.000Z</time>
        <extensions>
          <ns3:TrackPointExtension>
            <ns3:atemp>26.0</ns3:atemp>
          </ns3:TrackPointExtension>
        </extensions>
      </trkpt>
      <trkpt lat="42.517427466809749603271484375" lon="20.1488890685141086578369140625">
        <ele>2005.5999755859375</ele>
        <time>2026-06-20T09:37:32.000Z</time>
        <extensions>
          <ns3:TrackPointExtension>
            <ns3:atemp>26.0</ns3:atemp>
          </ns3:TrackPointExtension>
        </extensions>
      </trkpt>
      <trkpt lat="42.5174175761640071868896484375" lon="20.14887272380292415618896484375">
        <ele>2006.199951171875</ele>
        <time>2026-06-20T09:37:33.000Z</time>
        <extensions>
          <ns3:TrackPointExtension>
            <ns3:atemp>26.0</ns3:atemp>
          </ns3:TrackPointExtension>
        </extensions>
      </trkpt>
      <trkpt lat="42.5174098648130893707275390625" lon="20.148857720196247100830078125">
        <ele>2006.5999755859375</ele>
        <time>2026-06-20T09:37:34.000Z</time>
        <extensions>
          <ns3:TrackPointExtension>
            <ns3:atemp>26.0</ns3:atemp>
          </ns3:TrackPointExtension>
        </extensions>
      </trkpt>
      <trkpt lat="42.51740877516567707061767578125" lon="20.14883617870509624481201171875">
        <ele>2007</ele>
        <time>2026-06-20T09:37:35.000Z</time>
        <extensions>
          <ns3:TrackPointExtension>
            <ns3:atemp>26.0</ns3:atemp>
          </ns3:TrackPointExtension>
        </extensions>
      </trkpt>
      <trkpt lat="42.51741061918437480926513671875" lon="20.1488179899752140045166015625">
        <ele>2007.4000244140625</ele>
        <time>2026-06-20T09:37:36.000Z</time>
        <extensions>
          <ns3:TrackPointExtension>
            <ns3:atemp>26.0</ns3:atemp>
          </ns3:TrackPointExtension>
        </extensions>
      </trkpt>
      <trkpt lat="42.51740676350891590118408203125" lon="20.14879561029374599456787109375">
        <ele>2007.800048828125</ele>
        <time>2026-06-20T09:37:37.000Z</time>
        <extensions>
          <ns3:TrackPointExtension>
            <ns3:atemp>26.0</ns3:atemp>
          </ns3:TrackPointExtension>
        </extensions>
      </trkpt>
      <trkpt lat="42.5174103677272796630859375" lon="20.14878706075251102447509765625">
        <ele>2008</ele>
        <time>2026-06-20T09:37:38.000Z</time>
        <extensions>
          <ns3:TrackPointExtension>
            <ns3:atemp>26.0</ns3:atemp>
          </ns3:TrackPointExtension>
        </extensions>
      </trkpt>
      <trkpt lat="42.51740944571793079376220703125" lon="20.14877515845000743865966796875">
        <ele>2008.4000244140625</ele>
        <time>2026-06-20T09:37:39.000Z</time>
        <extensions>
          <ns3:TrackPointExtension>
            <ns3:atemp>26.0</ns3:atemp>
          </ns3:TrackPointExtension>
        </extensions>
      </trkpt>
      <trkpt lat="42.517409026622772216796875" lon="20.14875755645334720611572265625">
        <ele>2008.5999755859375</ele>
        <time>2026-06-20T09:37:40.000Z</time>
        <extensions>
          <ns3:TrackPointExtension>
            <ns3:atemp>26.0</ns3:atemp>
          </ns3:TrackPointExtension>
        </extensions>
      </trkpt>
      <trkpt lat="42.51740894280374050140380859375" lon="20.1487351767718791961669921875">
        <ele>2008.800048828125</ele>
        <time>2026-06-20T09:37:41.000Z</time>
        <extensions>
          <ns3:TrackPointExtension>
            <ns3:atemp>26.0</ns3:atemp>
          </ns3:TrackPointExtension>
        </extensions>
      </trkpt>
      <trkpt lat="42.51740642823278903961181640625" lon="20.1487150602042675018310546875">
        <ele>2009.199951171875</ele>
        <time>2026-06-20T09:37:42.000Z</time>
        <extensions>
          <ns3:TrackPointExtension>
            <ns3:atemp>26.0</ns3:atemp>
          </ns3:TrackPointExtension>
        </extensions>
      </trkpt>
      <trkpt lat="42.5174058414995670318603515625" lon="20.14869301579892635345458984375">
        <ele>2009.4000244140625</ele>
        <time>2026-06-20T09:37:43.000Z</time>
        <extensions>
          <ns3:TrackPointExtension>
            <ns3:atemp>26.0</ns3:atemp>
          </ns3:TrackPointExtension>
        </extensions>
      </trkpt>
      <trkpt lat="42.51740525476634502410888671875" lon="20.1486749947071075439453125">
        <ele>2009.800048828125</ele>
        <time>2026-06-20T09:37:44.000Z</time>
        <extensions>
          <ns3:TrackPointExtension>
            <ns3:atemp>26.0</ns3:atemp>
          </ns3:TrackPointExtension>
        </extensions>
      </trkpt>
      <trkpt lat="42.5174031592905521392822265625" lon="20.14865948818624019622802734375">
        <ele>2010</ele>
        <time>2026-06-20T09:37:45.000Z</time>
        <extensions>
          <ns3:TrackPointExtension>
            <ns3:atemp>26.0</ns3:atemp>
          </ns3:TrackPointExtension>
        </extensions>
      </trkpt>
      <trkpt lat="42.517399974167346954345703125" lon="20.148646496236324310302734375">
        <ele>2010.199951171875</ele>
        <time>2026-06-20T09:37:46.000Z</time>
        <extensions>
          <ns3:TrackPointExtension>
            <ns3:atemp>26.0</ns3:atemp>
          </ns3:TrackPointExtension>
        </extensions>
      </trkpt>
      <trkpt lat="42.51739385537803173065185546875" lon="20.14862847514450550079345703125">
        <ele>2010.5999755859375</ele>
        <time>2026-06-20T09:37:47.000Z</time>
        <extensions>
          <ns3:TrackPointExtension>
            <ns3:atemp>26.0</ns3:atemp>
          </ns3:TrackPointExtension>
        </extensions>
      </trkpt>
      <trkpt lat="42.517387904226779937744140625" lon="20.14861187897622585296630859375">
        <ele>2010.800048828125</ele>
        <time>2026-06-20T09:37:48.000Z</time>
        <extensions>
          <ns3:TrackPointExtension>
            <ns3:atemp>26.0</ns3:atemp>
          </ns3:TrackPointExtension>
        </extensions>
      </trkpt>
      <trkpt lat="42.5173810310661792755126953125" lon="20.1485910080373287200927734375">
        <ele>2011.199951171875</ele>
        <time>2026-06-20T09:37:49.000Z</time>
        <extensions>
          <ns3:TrackPointExtension>
            <ns3:atemp>26.0</ns3:atemp>
          </ns3:TrackPointExtension>
        </extensions>
      </trkpt>
      <trkpt lat="42.51738077960908412933349609375" lon="20.14856762252748012542724609375">
        <ele>2011.5999755859375</ele>
        <time>2026-06-20T09:37:50.000Z</time>
        <extensions>
          <ns3:TrackPointExtension>
            <ns3:atemp>26.0</ns3:atemp>
          </ns3:TrackPointExtension>
        </extensions>
      </trkpt>
      <trkpt lat="42.51737541519105434417724609375" lon="20.1485480926930904388427734375">
        <ele>2011.800048828125</ele>
        <time>2026-06-20T09:37:51.000Z</time>
        <extensions>
          <ns3:TrackPointExtension>
            <ns3:atemp>26.0</ns3:atemp>
          </ns3:TrackPointExtension>
        </extensions>
      </trkpt>
      <trkpt lat="42.51736787147819995880126953125" lon="20.148527137935161590576171875">
        <ele>2012</ele>
        <time>2026-06-20T09:37:52.000Z</time>
        <extensions>
          <ns3:TrackPointExtension>
            <ns3:atemp>26.0</ns3:atemp>
          </ns3:TrackPointExtension>
        </extensions>
      </trkpt>
      <trkpt lat="42.51735814847052097320556640625" lon="20.14851112850010395050048828125">
        <ele>2012.4000244140625</ele>
        <time>2026-06-20T09:37:53.000Z</time>
        <extensions>
          <ns3:TrackPointExtension>
            <ns3:atemp>26.0</ns3:atemp>
          </ns3:TrackPointExtension>
        </extensions>
      </trkpt>
      <trkpt lat="42.51735110767185688018798828125" lon="20.14849319122731685638427734375">
        <ele>2012.800048828125</ele>
        <time>2026-06-20T09:37:54.000Z</time>
        <extensions>
          <ns3:TrackPointExtension>
            <ns3:atemp>26.0</ns3:atemp>
          </ns3:TrackPointExtension>
        </extensions>
      </trkpt>
      <trkpt lat="42.51734943129122257232666015625" lon="20.1484760083258152008056640625">
        <ele>2013</ele>
        <time>2026-06-20T09:37:55.000Z</time>
        <extensions>
          <ns3:TrackPointExtension>
            <ns3:atemp>26.0</ns3:atemp>
          </ns3:TrackPointExtension>
        </extensions>
      </trkpt>
      <trkpt lat="42.51734557561576366424560546875" lon="20.14845228753983974456787109375">
        <ele>2013.199951171875</ele>
        <time>2026-06-20T09:37:56.000Z</time>
        <extensions>
          <ns3:TrackPointExtension>
            <ns3:atemp>26.0</ns3:atemp>
          </ns3:TrackPointExtension>
        </extensions>
      </trkpt>
      <trkpt lat="42.51734197139739990234375" lon="20.1484314166009426116943359375">
        <ele>2013.5999755859375</ele>
        <time>2026-06-20T09:37:57.000Z</time>
        <extensions>
          <ns3:TrackPointExtension>
            <ns3:atemp>26.0</ns3:atemp>
          </ns3:TrackPointExtension>
        </extensions>
      </trkpt>
      <trkpt lat="42.51734155230224132537841796875" lon="20.1484072767198085784912109375">
        <ele>2014</ele>
        <time>2026-06-20T09:37:58.000Z</time>
        <extensions>
          <ns3:TrackPointExtension>
            <ns3:atemp>26.0</ns3:atemp>
          </ns3:TrackPointExtension>
        </extensions>
      </trkpt>
      <trkpt lat="42.5173438154160976409912109375" lon="20.1483854837715625762939453125">
        <ele>2014.199951171875</ele>
        <time>2026-06-20T09:37:59.000Z</time>
        <extensions>
          <ns3:TrackPointExtension>
            <ns3:atemp>26.0</ns3:atemp>
          </ns3:TrackPointExtension>
        </extensions>
      </trkpt>
      <trkpt lat="42.517342977225780487060546875" lon="20.14836587011814117431640625">
        <ele>2014.5999755859375</ele>
        <time>2026-06-20T09:38:00.000Z</time>
        <extensions>
          <ns3:TrackPointExtension>
            <ns3:atemp>26.0</ns3:atemp>
          </ns3:TrackPointExtension>
        </extensions>
      </trkpt>
      <trkpt lat="42.51734239049255847930908203125" lon="20.148346759378910064697265625">
        <ele>2014.800048828125</ele>
        <time>2026-06-20T09:38:01.000Z</time>
        <extensions>
          <ns3:TrackPointExtension>
            <ns3:atemp>26.0</ns3:atemp>
          </ns3:TrackPointExtension>
        </extensions>
      </trkpt>
      <trkpt lat="42.51734322868287563323974609375" lon="20.14832940883934497833251953125">
        <ele>2015.199951171875</ele>
        <time>2026-06-20T09:38:02.000Z</time>
        <extensions>
          <ns3:TrackPointExtension>
            <ns3:atemp>26.0</ns3:atemp>
          </ns3:TrackPointExtension>
        </extensions>
      </trkpt>
      <trkpt lat="42.51734674908220767974853515625" lon="20.14830912463366985321044921875">
        <ele>2015.5999755859375</ele>
        <time>2026-06-20T09:38:03.000Z</time>
        <extensions>
          <ns3:TrackPointExtension>
            <ns3:atemp>26.0</ns3:atemp>
          </ns3:TrackPointExtension>
        </extensions>
      </trkpt>
      <trkpt lat="42.5173535384237766265869140625" lon="20.14828816987574100494384765625">
        <ele>2016</ele>
        <time>2026-06-20T09:38:04.000Z</time>
        <extensions>
          <ns3:TrackPointExtension>
            <ns3:atemp>26.0</ns3:atemp>
          </ns3:TrackPointExtension>
        </extensions>
      </trkpt>
      <trkpt lat="42.517360746860504150390625" lon="20.1482672989368438720703125">
        <ele>2016.4000244140625</ele>
        <time>2026-06-20T09:38:05.000Z</time>
        <extensions>
          <ns3:TrackPointExtension>
            <ns3:atemp>26.0</ns3:atemp>
          </ns3:TrackPointExtension>
        </extensions>
      </trkpt>
      <trkpt lat="42.5173669494688510894775390625" lon="20.14824374578893184661865234375">
        <ele>2016.5999755859375</ele>
        <time>2026-06-20T09:38:06.000Z</time>
        <extensions>
          <ns3:TrackPointExtension>
            <ns3:atemp>26.0</ns3:atemp>
          </ns3:TrackPointExtension>
        </extensions>
      </trkpt>
      <trkpt lat="42.517371140420436859130859375" lon="20.14822027646005153656005859375">
        <ele>2017</ele>
        <time>2026-06-20T09:38:07.000Z</time>
        <extensions>
          <ns3:TrackPointExtension>
            <ns3:atemp>26.0</ns3:atemp>
          </ns3:TrackPointExtension>
        </extensions>
      </trkpt>
      <trkpt lat="42.51737306825816631317138671875" lon="20.148198567330837249755859375">
        <ele>2017.4000244140625</ele>
        <time>2026-06-20T09:38:08.000Z</time>
        <extensions>
          <ns3:TrackPointExtension>
            <ns3:atemp>26.0</ns3:atemp>
          </ns3:TrackPointExtension>
        </extensions>
      </trkpt>
      <trkpt lat="42.51737189479172229766845703125" lon="20.148175768554210662841796875">
        <ele>2017.800048828125</ele>
        <time>2026-06-20T09:38:09.000Z</time>
        <extensions>
          <ns3:TrackPointExtension>
            <ns3:atemp>26.0</ns3:atemp>
          </ns3:TrackPointExtension>
        </extensions>
      </trkpt>
      <trkpt lat="42.51736401580274105072021484375" lon="20.1481524668633937835693359375">
        <ele>2018.199951171875</ele>
        <time>2026-06-20T09:38:10.000Z</time>
        <extensions>
          <ns3:TrackPointExtension>
            <ns3:atemp>26.0</ns3:atemp>
          </ns3:TrackPointExtension>
        </extensions>
      </trkpt>
      <trkpt lat="42.517356388270854949951171875" lon="20.14813126064836978912353515625">
        <ele>2018.5999755859375</ele>
        <time>2026-06-20T09:38:11.000Z</time>
        <extensions>
          <ns3:TrackPointExtension>
            <ns3:atemp>26.0</ns3:atemp>
          </ns3:TrackPointExtension>
        </extensions>
      </trkpt>
      <trkpt lat="42.51734892837703227996826171875" lon="20.148121453821659088134765625">
        <ele>2018.800048828125</ele>
        <time>2026-06-20T09:38:12.000Z</time>
        <extensions>
          <ns3:TrackPointExtension>
            <ns3:atemp>26.0</ns3:atemp>
          </ns3:TrackPointExtension>
        </extensions>
      </trkpt>
      <trkpt lat="42.5173371098935604095458984375" lon="20.14811885543167591094970703125">
        <ele>2019.199951171875</ele>
        <time>2026-06-20T09:38:13.000Z</time>
        <extensions>
          <ns3:TrackPointExtension>
            <ns3:atemp>26.0</ns3:atemp>
          </ns3:TrackPointExtension>
        </extensions>
      </trkpt>
      <trkpt lat="42.51732118427753448486328125" lon="20.14812137000262737274169921875">
        <ele>2019.5999755859375</ele>
        <time>2026-06-20T09:38:14.000Z</time>
        <extensions>
          <ns3:TrackPointExtension>
            <ns3:atemp>26.0</ns3:atemp>
          </ns3:TrackPointExtension>
        </extensions>
      </trkpt>
      <trkpt lat="42.51730316318571567535400390625" lon="20.1481209509074687957763671875">
        <ele>2020.199951171875</ele>
        <time>2026-06-20T09:38:15.000Z</time>
        <extensions>
          <ns3:TrackPointExtension>
            <ns3:atemp>26.0</ns3:atemp>
          </ns3:TrackPointExtension>
        </extensions>
      </trkpt>
      <trkpt lat="42.51728497445583343505859375" lon="20.1481135748326778411865234375">
        <ele>2020.800048828125</ele>
        <time>2026-06-20T09:38:16.000Z</time>
        <extensions>
          <ns3:TrackPointExtension>
            <ns3:atemp>26.0</ns3:atemp>
          </ns3:TrackPointExtension>
        </extensions>
      </trkpt>
      <trkpt lat="42.517270557582378387451171875" lon="20.1481072045862674713134765625">
        <ele>2021.199951171875</ele>
        <time>2026-06-20T09:38:17.000Z</time>
        <extensions>
          <ns3:TrackPointExtension>
            <ns3:atemp>26.0</ns3:atemp>
          </ns3:TrackPointExtension>
        </extensions>
      </trkpt>
      <trkpt lat="42.517258822917938232421875" lon="20.1480998285114765167236328125">
        <ele>2021.800048828125</ele>
        <time>2026-06-20T09:38:18.000Z</time>
        <extensions>
          <ns3:TrackPointExtension>
            <ns3:atemp>26.0</ns3:atemp>
          </ns3:TrackPointExtension>
        </extensions>
      </trkpt>
      <trkpt lat="42.51724398694932460784912109375" lon="20.1480921171605587005615234375">
        <ele>2022.199951171875</ele>
        <time>2026-06-20T09:38:19.000Z</time>
        <extensions>
          <ns3:TrackPointExtension>
            <ns3:atemp>26.0</ns3:atemp>
          </ns3:TrackPointExtension>
        </extensions>
      </trkpt>
      <trkpt lat="42.5172254629433155059814453125" lon="20.1480820588767528533935546875">
        <ele>2022.5999755859375</ele>
        <time>2026-06-20T09:38:20.000Z</time>
        <extensions>
          <ns3:TrackPointExtension>
            <ns3:atemp>26.0</ns3:atemp>
          </ns3:TrackPointExtension>
        </extensions>
      </trkpt>
      <trkpt lat="42.5172086991369724273681640625" lon="20.14807158149778842926025390625">
        <ele>2023</ele>
        <time>2026-06-20T09:38:21.000Z</time>
        <extensions>
          <ns3:TrackPointExtension>
            <ns3:atemp>26.0</ns3:atemp>
          </ns3:TrackPointExtension>
        </extensions>
      </trkpt>
      <trkpt lat="42.517199479043483734130859375" lon="20.14805741608142852783203125">
        <ele>2023.5999755859375</ele>
        <time>2026-06-20T09:38:22.000Z</time>
        <extensions>
          <ns3:TrackPointExtension>
            <ns3:atemp>26.0</ns3:atemp>
          </ns3:TrackPointExtension>
        </extensions>
      </trkpt>
      <trkpt lat="42.5171904265880584716796875" lon="20.148046351969242095947265625">
        <ele>2024</ele>
        <time>2026-06-20T09:38:23.000Z</time>
        <extensions>
          <ns3:TrackPointExtension>
            <ns3:atemp>26.0</ns3:atemp>
          </ns3:TrackPointExtension>
        </extensions>
      </trkpt>
      <trkpt lat="42.51718145795166492462158203125" lon="20.14803352765738964080810546875">
        <ele>2024.4000244140625</ele>
        <time>2026-06-20T09:38:24.000Z</time>
        <extensions>
          <ns3:TrackPointExtension>
            <ns3:atemp>26.0</ns3:atemp>
          </ns3:TrackPointExtension>
        </extensions>
      </trkpt>
      <trkpt lat="42.517178356647491455078125" lon="20.148022212088108062744140625">
        <ele>2024.800048828125</ele>
        <time>2026-06-20T09:38:25.000Z</time>
        <extensions>
          <ns3:TrackPointExtension>
            <ns3:atemp>26.0</ns3:atemp>
          </ns3:TrackPointExtension>
        </extensions>
      </trkpt>
      <trkpt lat="42.5171748362481594085693359375" lon="20.148009471595287322998046875">
        <ele>2025</ele>
        <time>2026-06-20T09:38:26.000Z</time>
        <extensions>
          <ns3:TrackPointExtension>
            <ns3:atemp>26.0</ns3:atemp>
          </ns3:TrackPointExtension>
        </extensions>
      </trkpt>
      <trkpt lat="42.517170645296573638916015625" lon="20.14799346216022968292236328125">
        <ele>2025.4000244140625</ele>
        <time>2026-06-20T09:38:27.000Z</time>
        <extensions>
          <ns3:TrackPointExtension>
            <ns3:atemp>26.0</ns3:atemp>
          </ns3:TrackPointExtension>
        </extensions>
      </trkpt>
      <trkpt lat="42.5171610899269580841064453125" lon="20.14797820709645748138427734375">
        <ele>2025.800048828125</ele>
        <time>2026-06-20T09:38:28.000Z</time>
        <extensions>
          <ns3:TrackPointExtension>
            <ns3:atemp>26.0</ns3:atemp>
          </ns3:TrackPointExtension>
        </extensions>
      </trkpt>
      <trkpt lat="42.5171503610908985137939453125" lon="20.147960521280765533447265625">
        <ele>2026.199951171875</ele>
        <time>2026-06-20T09:38:29.000Z</time>
        <extensions>
          <ns3:TrackPointExtension>
            <ns3:atemp>26.0</ns3:atemp>
          </ns3:TrackPointExtension>
        </extensions>
      </trkpt>
      <trkpt lat="42.5171496905386447906494140625" lon="20.1479486189782619476318359375">
        <ele>2026.4000244140625</ele>
        <time>2026-06-20T09:38:30.000Z</time>
        <extensions>
          <ns3:TrackPointExtension>
            <ns3:atemp>26.0</ns3:atemp>
          </ns3:TrackPointExtension>
        </extensions>
      </trkpt>
      <trkpt lat="42.5171483494341373443603515625" lon="20.1479295082390308380126953125">
        <ele>2026.5999755859375</ele>
        <time>2026-06-20T09:38:31.000Z</time>
        <extensions>
          <ns3:TrackPointExtension>
            <ns3:atemp>26.0</ns3:atemp>
          </ns3:TrackPointExtension>
        </extensions>
      </trkpt>
      <trkpt lat="42.51714943908154964447021484375" lon="20.14791031368076801300048828125">
        <ele>2027</ele>
        <time>2026-06-20T09:38:32.000Z</time>
        <extensions>
          <ns3:TrackPointExtension>
            <ns3:atemp>26.0</ns3:atemp>
          </ns3:TrackPointExtension>
        </extensions>
      </trkpt>
      <trkpt lat="42.51714206300675868988037109375" lon="20.1478902809321880340576171875">
        <ele>2027.199951171875</ele>
        <time>2026-06-20T09:38:33.000Z</time>
        <extensions>
          <ns3:TrackPointExtension>
            <ns3:atemp>26.0</ns3:atemp>
          </ns3:TrackPointExtension>
        </extensions>
      </trkpt>
      <trkpt lat="42.51712932251393795013427734375" lon="20.147867985069751739501953125">
        <ele>2027.4000244140625</ele>
        <time>2026-06-20T09:38:34.000Z</time>
        <extensions>
          <ns3:TrackPointExtension>
            <ns3:atemp>26.0</ns3:atemp>
          </ns3:TrackPointExtension>
        </extensions>
      </trkpt>
      <trkpt lat="42.51712027005851268768310546875" lon="20.14784493483603000640869140625">
        <ele>2027.5999755859375</ele>
        <time>2026-06-20T09:38:35.000Z</time>
        <extensions>
          <ns3:TrackPointExtension>
            <ns3:atemp>26.0</ns3:atemp>
          </ns3:TrackPointExtension>
        </extensions>
      </trkpt>
      <trkpt lat="42.51711591146886348724365234375" lon="20.14782850630581378936767578125">
        <ele>2027.800048828125</ele>
        <time>2026-06-20T09:38:36.000Z</time>
        <extensions>
          <ns3:TrackPointExtension>
            <ns3:atemp>26.0</ns3:atemp>
          </ns3:TrackPointExtension>
        </extensions>
      </trkpt>
      <trkpt lat="42.5171074457466602325439453125" lon="20.147818028926849365234375">
        <ele>2028.199951171875</ele>
        <time>2026-06-20T09:38:37.000Z</time>
        <extensions>
          <ns3:TrackPointExtension>
            <ns3:atemp>26.0</ns3:atemp>
          </ns3:TrackPointExtension>
        </extensions>
      </trkpt>
      <trkpt lat="42.51709965057671070098876953125" lon="20.14780118130147457122802734375">
        <ele>2028.4000244140625</ele>
        <time>2026-06-20T09:38:38.000Z</time>
        <extensions>
          <ns3:TrackPointExtension>
            <ns3:atemp>26.0</ns3:atemp>
          </ns3:TrackPointExtension>
        </extensions>
      </trkpt>
      <trkpt lat="42.51709319651126861572265625" lon="20.1477826572954654693603515625">
        <ele>2028.800048828125</ele>
        <time>2026-06-20T09:38:39.000Z</time>
        <extensions>
          <ns3:TrackPointExtension>
            <ns3:atemp>26.0</ns3:atemp>
          </ns3:TrackPointExtension>
        </extensions>
      </trkpt>
      <trkpt lat="42.517088837921619415283203125" lon="20.14776145108044147491455078125">
        <ele>2029.199951171875</ele>
        <time>2026-06-20T09:38:40.000Z</time>
        <extensions>
          <ns3:TrackPointExtension>
            <ns3:atemp>26.0</ns3:atemp>
          </ns3:TrackPointExtension>
        </extensions>
      </trkpt>
      <trkpt lat="42.5170819647610187530517578125" lon="20.14774468727409839630126953125">
        <ele>2029.5999755859375</ele>
        <time>2026-06-20T09:38:41.000Z</time>
        <extensions>
          <ns3:TrackPointExtension>
            <ns3:atemp>26.0</ns3:atemp>
          </ns3:TrackPointExtension>
        </extensions>
      </trkpt>
      <trkpt lat="42.5170745886862277984619140625" lon="20.1477270014584064483642578125">
        <ele>2030</ele>
        <time>2026-06-20T09:38:42.000Z</time>
        <extensions>
          <ns3:TrackPointExtension>
            <ns3:atemp>26.0</ns3:atemp>
          </ns3:TrackPointExtension>
        </extensions>
      </trkpt>
      <trkpt lat="42.51707266084849834442138671875" lon="20.14770965091884136199951171875">
        <ele>2030.5999755859375</ele>
        <time>2026-06-20T09:38:43.000Z</time>
        <extensions>
          <ns3:TrackPointExtension>
            <ns3:atemp>26.0</ns3:atemp>
          </ns3:TrackPointExtension>
        </extensions>
      </trkpt>
      <trkpt lat="42.51707039773464202880859375" lon="20.14768869616091251373291015625">
        <ele>2031</ele>
        <time>2026-06-20T09:38:44.000Z</time>
        <extensions>
          <ns3:TrackPointExtension>
            <ns3:atemp>26.0</ns3:atemp>
          </ns3:TrackPointExtension>
        </extensions>
      </trkpt>
      <trkpt lat="42.51706771552562713623046875" lon="20.1476611196994781494140625">
        <ele>2031.199951171875</ele>
        <time>2026-06-20T09:38:45.000Z</time>
        <extensions>
          <ns3:TrackPointExtension>
            <ns3:atemp>26.0</ns3:atemp>
          </ns3:TrackPointExtension>
        </extensions>
      </trkpt>
      <trkpt lat="42.517061345279216766357421875" lon="20.1476396620273590087890625">
        <ele>2031.4000244140625</ele>
        <time>2026-06-20T09:38:46.000Z</time>
        <extensions>
          <ns3:TrackPointExtension>
            <ns3:atemp>26.0</ns3:atemp>
          </ns3:TrackPointExtension>
        </extensions>
      </trkpt>
      <trkpt lat="42.517055310308933258056640625" lon="20.14762046746909618377685546875">
        <ele>2031.800048828125</ele>
        <time>2026-06-20T09:38:47.000Z</time>
        <extensions>
          <ns3:TrackPointExtension>
            <ns3:atemp>26.0</ns3:atemp>
          </ns3:TrackPointExtension>
        </extensions>
      </trkpt>
      <trkpt lat="42.51704885624349117279052734375" lon="20.1475999318063259124755859375">
        <ele>2032.199951171875</ele>
        <time>2026-06-20T09:38:48.000Z</time>
        <extensions>
          <ns3:TrackPointExtension>
            <ns3:atemp>26.0</ns3:atemp>
          </ns3:TrackPointExtension>
        </extensions>
      </trkpt>
      <trkpt lat="42.51703846268355846405029296875" lon="20.1475818268954753875732421875">
        <ele>2032.4000244140625</ele>
        <time>2026-06-20T09:38:49.000Z</time>
        <extensions>
          <ns3:TrackPointExtension>
            <ns3:atemp>26.0</ns3:atemp>
          </ns3:TrackPointExtension>
        </extensions>
      </trkpt>
      <trkpt lat="42.51703175716102123260498046875" lon="20.14756212942302227020263671875">
        <ele>2032.800048828125</ele>
        <time>2026-06-20T09:38:50.000Z</time>
        <extensions>
          <ns3:TrackPointExtension>
            <ns3:atemp>26.0</ns3:atemp>
          </ns3:TrackPointExtension>
        </extensions>
      </trkpt>
      <trkpt lat="42.51702790148556232452392578125" lon="20.14754335395991802215576171875">
        <ele>2033.199951171875</ele>
        <time>2026-06-20T09:38:51.000Z</time>
        <extensions>
          <ns3:TrackPointExtension>
            <ns3:atemp>26.0</ns3:atemp>
          </ns3:TrackPointExtension>
        </extensions>
      </trkpt>
      <trkpt lat="42.51702287234365940093994140625" lon="20.14752524904906749725341796875">
        <ele>2033.800048828125</ele>
        <time>2026-06-20T09:38:52.000Z</time>
        <extensions>
          <ns3:TrackPointExtension>
            <ns3:atemp>26.0</ns3:atemp>
          </ns3:TrackPointExtension>
        </extensions>
      </trkpt>
      <trkpt lat="42.51702505163848400115966796875" lon="20.14750144444406032562255859375">
        <ele>2034.199951171875</ele>
        <time>2026-06-20T09:38:53.000Z</time>
        <extensions>
          <ns3:TrackPointExtension>
            <ns3:atemp>26.0</ns3:atemp>
          </ns3:TrackPointExtension>
        </extensions>
      </trkpt>
      <trkpt lat="42.51702748239040374755859375" lon="20.14748116023838520050048828125">
        <ele>2034.4000244140625</ele>
        <time>2026-06-20T09:38:54.000Z</time>
        <extensions>
          <ns3:TrackPointExtension>
            <ns3:atemp>26.0</ns3:atemp>
          </ns3:TrackPointExtension>
        </extensions>
      </trkpt>
      <trkpt lat="42.5170266442000865936279296875" lon="20.147461630403995513916015625">
        <ele>2034.800048828125</ele>
        <time>2026-06-20T09:38:55.000Z</time>
        <extensions>
          <ns3:TrackPointExtension>
            <ns3:atemp>26.0</ns3:atemp>
          </ns3:TrackPointExtension>
        </extensions>
      </trkpt>
      <trkpt lat="42.51702320761978626251220703125" lon="20.14744763262569904327392578125">
        <ele>2035.199951171875</ele>
        <time>2026-06-20T09:38:56.000Z</time>
        <extensions>
          <ns3:TrackPointExtension>
            <ns3:atemp>26.0</ns3:atemp>
          </ns3:TrackPointExtension>
        </extensions>
      </trkpt>
      <trkpt lat="42.51702421344816684722900390625" lon="20.14743120409548282623291015625">
        <ele>2035.800048828125</ele>
        <time>2026-06-20T09:38:57.000Z</time>
        <extensions>
          <ns3:TrackPointExtension>
            <ns3:atemp>26.0</ns3:atemp>
          </ns3:TrackPointExtension>
        </extensions>
      </trkpt>
      <trkpt lat="42.5170286558568477630615234375" lon="20.14741502702236175537109375">
        <ele>2036.199951171875</ele>
        <time>2026-06-20T09:38:58.000Z</time>
        <extensions>
          <ns3:TrackPointExtension>
            <ns3:atemp>26.0</ns3:atemp>
          </ns3:TrackPointExtension>
        </extensions>
      </trkpt>
      <trkpt lat="42.517025806009769439697265625" lon="20.14739348553121089935302734375">
        <ele>2036.5999755859375</ele>
        <time>2026-06-20T09:38:59.000Z</time>
        <extensions>
          <ns3:TrackPointExtension>
            <ns3:atemp>26.0</ns3:atemp>
          </ns3:TrackPointExtension>
        </extensions>
      </trkpt>
      <trkpt lat="42.5170155800879001617431640625" lon="20.1473709382116794586181640625">
        <ele>2037</ele>
        <time>2026-06-20T09:39:00.000Z</time>
        <extensions>
          <ns3:TrackPointExtension>
            <ns3:atemp>26.0</ns3:atemp>
          </ns3:TrackPointExtension>
        </extensions>
      </trkpt>
      <trkpt lat="42.5170078687369823455810546875" lon="20.14734989963471889495849609375">
        <ele>2037.4000244140625</ele>
        <time>2026-06-20T09:39:01.000Z</time>
        <extensions>
          <ns3:TrackPointExtension>
            <ns3:atemp>26.0</ns3:atemp>
          </ns3:TrackPointExtension>
        </extensions>
      </trkpt>
      <trkpt lat="42.51700342632830142974853515625" lon="20.14733414165675640106201171875">
        <ele>2037.800048828125</ele>
        <time>2026-06-20T09:39:02.000Z</time>
        <extensions>
          <ns3:TrackPointExtension>
            <ns3:atemp>26.0</ns3:atemp>
          </ns3:TrackPointExtension>
        </extensions>
      </trkpt>
      <trkpt lat="42.51699873246252536773681640625" lon="20.14731452800333499908447265625">
        <ele>2038</ele>
        <time>2026-06-20T09:39:03.000Z</time>
        <extensions>
          <ns3:TrackPointExtension>
            <ns3:atemp>26.0</ns3:atemp>
          </ns3:TrackPointExtension>
        </extensions>
      </trkpt>
      <trkpt lat="42.51699261367321014404296875" lon="20.1472965069115161895751953125">
        <ele>2038.4000244140625</ele>
        <time>2026-06-20T09:39:04.000Z</time>
        <extensions>
          <ns3:TrackPointExtension>
            <ns3:atemp>26.0</ns3:atemp>
          </ns3:TrackPointExtension>
        </extensions>
      </trkpt>
      <trkpt lat="42.5169907696545124053955078125" lon="20.14727865345776081085205078125">
        <ele>2038.800048828125</ele>
        <time>2026-06-20T09:39:05.000Z</time>
        <extensions>
          <ns3:TrackPointExtension>
            <ns3:atemp>26.0</ns3:atemp>
          </ns3:TrackPointExtension>
        </extensions>
      </trkpt>
      <trkpt lat="42.51698859035968780517578125" lon="20.14725384302437305450439453125">
        <ele>2039.199951171875</ele>
        <time>2026-06-20T09:39:06.000Z</time>
        <extensions>
          <ns3:TrackPointExtension>
            <ns3:atemp>26.0</ns3:atemp>
          </ns3:TrackPointExtension>
        </extensions>
      </trkpt>
      <trkpt lat="42.5169860757887363433837890625" lon="20.14723205007612705230712890625">
        <ele>2039.5999755859375</ele>
        <time>2026-06-20T09:39:07.000Z</time>
        <extensions>
          <ns3:TrackPointExtension>
            <ns3:atemp>26.0</ns3:atemp>
          </ns3:TrackPointExtension>
        </extensions>
      </trkpt>
      <trkpt lat="42.51698012463748455047607421875" lon="20.14721495099365711212158203125">
        <ele>2040</ele>
        <time>2026-06-20T09:39:08.000Z</time>
        <extensions>
          <ns3:TrackPointExtension>
            <ns3:atemp>26.0</ns3:atemp>
          </ns3:TrackPointExtension>
        </extensions>
      </trkpt>
      <trkpt lat="42.5169726647436618804931640625" lon="20.1471922360360622406005859375">
        <ele>2040.4000244140625</ele>
        <time>2026-06-20T09:39:09.000Z</time>
        <extensions>
          <ns3:TrackPointExtension>
            <ns3:atemp>26.0</ns3:atemp>
          </ns3:TrackPointExtension>
        </extensions>
      </trkpt>
      <trkpt lat="42.5169642828404903411865234375" lon="20.14717019163072109222412109375">
        <ele>2040.5999755859375</ele>
        <time>2026-06-20T09:39:10.000Z</time>
        <extensions>
          <ns3:TrackPointExtension>
            <ns3:atemp>26.0</ns3:atemp>
          </ns3:TrackPointExtension>
        </extensions>
      </trkpt>
      <trkpt lat="42.51695916987955570220947265625" lon="20.14715015888214111328125">
        <ele>2041</ele>
        <time>2026-06-20T09:39:11.000Z</time>
        <extensions>
          <ns3:TrackPointExtension>
            <ns3:atemp>26.0</ns3:atemp>
          </ns3:TrackPointExtension>
        </extensions>
      </trkpt>
      <trkpt lat="42.51695640385150909423828125" lon="20.14712878502905368804931640625">
        <ele>2041.199951171875</ele>
        <time>2026-06-20T09:39:12.000Z</time>
        <extensions>
          <ns3:TrackPointExtension>
            <ns3:atemp>26.0</ns3:atemp>
          </ns3:TrackPointExtension>
        </extensions>
      </trkpt>
      <trkpt lat="42.5169518776237964630126953125" lon="20.1471094228327274322509765625">
        <ele>2041.5999755859375</ele>
        <time>2026-06-20T09:39:13.000Z</time>
        <extensions>
          <ns3:TrackPointExtension>
            <ns3:atemp>26.0</ns3:atemp>
          </ns3:TrackPointExtension>
        </extensions>
      </trkpt>
      <trkpt lat="42.51695447601377964019775390625" lon="20.1470886357128620147705078125">
        <ele>2041.800048828125</ele>
        <time>2026-06-20T09:39:14.000Z</time>
        <extensions>
          <ns3:TrackPointExtension>
            <ns3:atemp>26.0</ns3:atemp>
          </ns3:TrackPointExtension>
        </extensions>
      </trkpt>
      <trkpt lat="42.51695263199508190155029296875" lon="20.14706944115459918975830078125">
        <ele>2042.199951171875</ele>
        <time>2026-06-20T09:39:15.000Z</time>
        <extensions>
          <ns3:TrackPointExtension>
            <ns3:atemp>26.0</ns3:atemp>
          </ns3:TrackPointExtension>
        </extensions>
      </trkpt>
      <trkpt lat="42.51694441772997379302978515625" lon="20.1470517553389072418212890625">
        <ele>2042.4000244140625</ele>
        <time>2026-06-20T09:39:16.000Z</time>
        <extensions>
          <ns3:TrackPointExtension>
            <ns3:atemp>26.0</ns3:atemp>
          </ns3:TrackPointExtension>
        </extensions>
      </trkpt>
      <trkpt lat="42.516939304769039154052734375" lon="20.14703289605677127838134765625">
        <ele>2042.800048828125</ele>
        <time>2026-06-20T09:39:17.000Z</time>
        <extensions>
          <ns3:TrackPointExtension>
            <ns3:atemp>26.0</ns3:atemp>
          </ns3:TrackPointExtension>
        </extensions>
      </trkpt>
      <trkpt lat="42.51693637110292911529541015625" lon="20.14701194129884243011474609375">
        <ele>2043.199951171875</ele>
        <time>2026-06-20T09:39:18.000Z</time>
        <extensions>
          <ns3:TrackPointExtension>
            <ns3:atemp>26.0</ns3:atemp>
          </ns3:TrackPointExtension>
        </extensions>
      </trkpt>
      <trkpt lat="42.5169307552278041839599609375" lon="20.14699065126478672027587890625">
        <ele>2043.4000244140625</ele>
        <time>2026-06-20T09:39:19.000Z</time>
        <extensions>
          <ns3:TrackPointExtension>
            <ns3:atemp>26.0</ns3:atemp>
          </ns3:TrackPointExtension>
        </extensions>
      </trkpt>
      <trkpt lat="42.51692597754299640655517578125" lon="20.14696936123073101043701171875">
        <ele>2043.800048828125</ele>
        <time>2026-06-20T09:39:20.000Z</time>
        <extensions>
          <ns3:TrackPointExtension>
            <ns3:atemp>26.0</ns3:atemp>
          </ns3:TrackPointExtension>
        </extensions>
      </trkpt>
      <trkpt lat="42.51692078076303005218505859375" lon="20.14695092104375362396240234375">
        <ele>2044.199951171875</ele>
        <time>2026-06-20T09:39:21.000Z</time>
        <extensions>
          <ns3:TrackPointExtension>
            <ns3:atemp>26.0</ns3:atemp>
          </ns3:TrackPointExtension>
        </extensions>
      </trkpt>
      <trkpt lat="42.51692346297204494476318359375" lon="20.14693197794258594512939453125">
        <ele>2044.4000244140625</ele>
        <time>2026-06-20T09:39:22.000Z</time>
        <extensions>
          <ns3:TrackPointExtension>
            <ns3:atemp>26.0</ns3:atemp>
          </ns3:TrackPointExtension>
        </extensions>
      </trkpt>
      <trkpt lat="42.516927234828472137451171875" lon="20.14690934680402278900146484375">
        <ele>2044.800048828125</ele>
        <time>2026-06-20T09:39:23.000Z</time>
        <extensions>
          <ns3:TrackPointExtension>
            <ns3:atemp>26.0</ns3:atemp>
          </ns3:TrackPointExtension>
        </extensions>
      </trkpt>
      <trkpt lat="42.516921199858188629150390625" lon="20.1468898169696331024169921875">
        <ele>2045</ele>
        <time>2026-06-20T09:39:24.000Z</time>
        <extensions>
          <ns3:TrackPointExtension>
            <ns3:atemp>26.0</ns3:atemp>
          </ns3:TrackPointExtension>
        </extensions>
      </trkpt>
      <trkpt lat="42.51691214740276336669921875" lon="20.14687129296362400054931640625">
        <ele>2045.4000244140625</ele>
        <time>2026-06-20T09:39:25.000Z</time>
        <extensions>
          <ns3:TrackPointExtension>
            <ns3:atemp>26.0</ns3:atemp>
          </ns3:TrackPointExtension>
        </extensions>
      </trkpt>
      <trkpt lat="42.516910471022129058837890625" lon="20.14685050584375858306884765625">
        <ele>2045.800048828125</ele>
        <time>2026-06-20T09:39:26.000Z</time>
        <extensions>
          <ns3:TrackPointExtension>
            <ns3:atemp>26.0</ns3:atemp>
          </ns3:TrackPointExtension>
        </extensions>
      </trkpt>
      <trkpt lat="42.51690904609858989715576171875" lon="20.14683005400002002716064453125">
        <ele>2046.199951171875</ele>
        <time>2026-06-20T09:39:27.000Z</time>
        <extensions>
          <ns3:TrackPointExtension>
            <ns3:atemp>26.0</ns3:atemp>
          </ns3:TrackPointExtension>
        </extensions>
      </trkpt>
      <trkpt lat="42.5169066153466701507568359375" lon="20.14680893160402774810791015625">
        <ele>2046.5999755859375</ele>
        <time>2026-06-20T09:39:28.000Z</time>
        <extensions>
          <ns3:TrackPointExtension>
            <ns3:atemp>26.0</ns3:atemp>
          </ns3:TrackPointExtension>
        </extensions>
      </trkpt>
      <trkpt lat="42.51689814962446689605712890625" lon="20.1467902399599552154541015625">
        <ele>2047</ele>
        <time>2026-06-20T09:39:29.000Z</time>
        <extensions>
          <ns3:TrackPointExtension>
            <ns3:atemp>26.0</ns3:atemp>
          </ns3:TrackPointExtension>
        </extensions>
      </trkpt>
      <trkpt lat="42.51688892953097820281982421875" lon="20.146772302687168121337890625">
        <ele>2047.5999755859375</ele>
        <time>2026-06-20T09:39:30.000Z</time>
        <extensions>
          <ns3:TrackPointExtension>
            <ns3:atemp>26.0</ns3:atemp>
          </ns3:TrackPointExtension>
        </extensions>
      </trkpt>
      <trkpt lat="42.51688088290393352508544921875" lon="20.14675344340503215789794921875">
        <ele>2047.800048828125</ele>
        <time>2026-06-20T09:39:31.000Z</time>
        <extensions>
          <ns3:TrackPointExtension>
            <ns3:atemp>26.0</ns3:atemp>
          </ns3:TrackPointExtension>
        </extensions>
      </trkpt>
      <trkpt lat="42.516876272857189178466796875" lon="20.14673315919935703277587890625">
        <ele>2048.199951171875</ele>
        <time>2026-06-20T09:39:32.000Z</time>
        <extensions>
          <ns3:TrackPointExtension>
            <ns3:atemp>26.0</ns3:atemp>
          </ns3:TrackPointExtension>
        </extensions>
      </trkpt>
      <trkpt lat="42.5168720819056034088134765625" lon="20.14670684002339839935302734375">
        <ele>2048.60009765625</ele>
        <time>2026-06-20T09:39:33.000Z</time>
        <extensions>
          <ns3:TrackPointExtension>
            <ns3:atemp>26.0</ns3:atemp>
          </ns3:TrackPointExtension>
        </extensions>
      </trkpt>
      <trkpt lat="42.51686261035501956939697265625" lon="20.146685801446437835693359375">
        <ele>2049</ele>
        <time>2026-06-20T09:39:34.000Z</time>
        <extensions>
          <ns3:TrackPointExtension>
            <ns3:atemp>26.0</ns3:atemp>
          </ns3:TrackPointExtension>
        </extensions>
      </trkpt>
      <trkpt lat="42.51685640774667263031005859375" lon="20.14666643925011157989501953125">
        <ele>2049.39990234375</ele>
        <time>2026-06-20T09:39:35.000Z</time>
        <extensions>
          <ns3:TrackPointExtension>
            <ns3:atemp>26.0</ns3:atemp>
          </ns3:TrackPointExtension>
        </extensions>
      </trkpt>
      <trkpt lat="42.51684802584350109100341796875" lon="20.1466457359492778778076171875">
        <ele>2049.800048828125</ele>
        <time>2026-06-20T09:39:36.000Z</time>
        <extensions>
          <ns3:TrackPointExtension>
            <ns3:atemp>26.0</ns3:atemp>
          </ns3:TrackPointExtension>
        </extensions>
      </trkpt>
      <trkpt lat="42.51684215851128101348876953125" lon="20.14662645757198333740234375">
        <ele>2050.199951171875</ele>
        <time>2026-06-20T09:39:37.000Z</time>
        <extensions>
          <ns3:TrackPointExtension>
            <ns3:atemp>26.0</ns3:atemp>
          </ns3:TrackPointExtension>
        </extensions>
      </trkpt>
      <trkpt lat="42.5168375484645366668701171875" lon="20.14660793356597423553466796875">
        <ele>2050.60009765625</ele>
        <time>2026-06-20T09:39:38.000Z</time>
        <extensions>
          <ns3:TrackPointExtension>
            <ns3:atemp>26.0</ns3:atemp>
          </ns3:TrackPointExtension>
        </extensions>
      </trkpt>
      <trkpt lat="42.51683025620877742767333984375" lon="20.146590583026409149169921875">
        <ele>2051</ele>
        <time>2026-06-20T09:39:39.000Z</time>
        <extensions>
          <ns3:TrackPointExtension>
            <ns3:atemp>26.0</ns3:atemp>
          </ns3:TrackPointExtension>
        </extensions>
      </trkpt>
      <trkpt lat="42.51681902445852756500244140625" lon="20.14657440595328807830810546875">
        <ele>2051.39990234375</ele>
        <time>2026-06-20T09:39:40.000Z</time>
        <extensions>
          <ns3:TrackPointExtension>
            <ns3:atemp>26.0</ns3:atemp>
          </ns3:TrackPointExtension>
        </extensions>
      </trkpt>
      <trkpt lat="42.51680863089859485626220703125" lon="20.14655940234661102294921875">
        <ele>2051.60009765625</ele>
        <time>2026-06-20T09:39:41.000Z</time>
        <extensions>
          <ns3:TrackPointExtension>
            <ns3:atemp>26.0</ns3:atemp>
          </ns3:TrackPointExtension>
        </extensions>
      </trkpt>
      <trkpt lat="42.5167993269860744476318359375" lon="20.14654255472123622894287109375">
        <ele>2052</ele>
        <time>2026-06-20T09:39:42.000Z</time>
        <extensions>
          <ns3:TrackPointExtension>
            <ns3:atemp>26.0</ns3:atemp>
          </ns3:TrackPointExtension>
        </extensions>
      </trkpt>
      <trkpt lat="42.516795136034488677978515625" lon="20.14652252197265625">
        <ele>2052.39990234375</ele>
        <time>2026-06-20T09:39:43.000Z</time>
        <extensions>
          <ns3:TrackPointExtension>
            <ns3:atemp>26.0</ns3:atemp>
          </ns3:TrackPointExtension>
        </extensions>
      </trkpt>
      <trkpt lat="42.516789771616458892822265625" lon="20.1464997231960296630859375">
        <ele>2053</ele>
        <time>2026-06-20T09:39:44.000Z</time>
        <extensions>
          <ns3:TrackPointExtension>
            <ns3:atemp>26.0</ns3:atemp>
          </ns3:TrackPointExtension>
        </extensions>
      </trkpt>
      <trkpt lat="42.5167855806648731231689453125" lon="20.14647759497165679931640625">
        <ele>2053.39990234375</ele>
        <time>2026-06-20T09:39:45.000Z</time>
        <extensions>
          <ns3:TrackPointExtension>
            <ns3:atemp>26.0</ns3:atemp>
          </ns3:TrackPointExtension>
        </extensions>
      </trkpt>
      <trkpt lat="42.51677862368524074554443359375" lon="20.14645940624177455902099609375">
        <ele>2054</ele>
        <time>2026-06-20T09:39:46.000Z</time>
        <extensions>
          <ns3:TrackPointExtension>
            <ns3:atemp>26.0</ns3:atemp>
          </ns3:TrackPointExtension>
        </extensions>
      </trkpt>
      <trkpt lat="42.516779042780399322509765625" lon="20.1464398764073848724365234375">
        <ele>2054.39990234375</ele>
        <time>2026-06-20T09:39:47.000Z</time>
        <extensions>
          <ns3:TrackPointExtension>
            <ns3:atemp>26.0</ns3:atemp>
          </ns3:TrackPointExtension>
        </extensions>
      </trkpt>
      <trkpt lat="42.516783066093921661376953125" lon="20.14642051421105861663818359375">
        <ele>2054.800048828125</ele>
        <time>2026-06-20T09:39:48.000Z</time>
        <extensions>
          <ns3:TrackPointExtension>
            <ns3:atemp>26.0</ns3:atemp>
          </ns3:TrackPointExtension>
        </extensions>
      </trkpt>
      <trkpt lat="42.51678331755101680755615234375" lon="20.14640006236732006072998046875">
        <ele>2055.199951171875</ele>
        <time>2026-06-20T09:39:49.000Z</time>
        <extensions>
          <ns3:TrackPointExtension>
            <ns3:atemp>26.0</ns3:atemp>
          </ns3:TrackPointExtension>
        </extensions>
      </trkpt>
      <trkpt lat="42.51678180880844593048095703125" lon="20.1463798619806766510009765625">
        <ele>2055.60009765625</ele>
        <time>2026-06-20T09:39:50.000Z</time>
        <extensions>
          <ns3:TrackPointExtension>
            <ns3:atemp>26.0</ns3:atemp>
          </ns3:TrackPointExtension>
        </extensions>
      </trkpt>
      <trkpt lat="42.5167827308177947998046875" lon="20.1463590748608112335205078125">
        <ele>2056</ele>
        <time>2026-06-20T09:39:51.000Z</time>
        <extensions>
          <ns3:TrackPointExtension>
            <ns3:atemp>26.0</ns3:atemp>
          </ns3:TrackPointExtension>
        </extensions>
      </trkpt>
      <trkpt lat="42.516783066093921661376953125" lon="20.14633669517934322357177734375">
        <ele>2056.199951171875</ele>
        <time>2026-06-20T09:39:52.000Z</time>
        <extensions>
          <ns3:TrackPointExtension>
            <ns3:atemp>26.0</ns3:atemp>
          </ns3:TrackPointExtension>
        </extensions>
      </trkpt>
      <trkpt lat="42.51678097061812877655029296875" lon="20.1463164947926998138427734375">
        <ele>2056.60009765625</ele>
        <time>2026-06-20T09:39:53.000Z</time>
        <extensions>
          <ns3:TrackPointExtension>
            <ns3:atemp>26.0</ns3:atemp>
          </ns3:TrackPointExtension>
        </extensions>
      </trkpt>
      <trkpt lat="42.516779713332653045654296875" lon="20.1462957076728343963623046875">
        <ele>2057.199951171875</ele>
        <time>2026-06-20T09:39:54.000Z</time>
        <extensions>
          <ns3:TrackPointExtension>
            <ns3:atemp>26.0</ns3:atemp>
          </ns3:TrackPointExtension>
        </extensions>
      </trkpt>
      <trkpt lat="42.51678147353231906890869140625" lon="20.1462776027619838714599609375">
        <ele>2057.60009765625</ele>
        <time>2026-06-20T09:39:55.000Z</time>
        <extensions>
          <ns3:TrackPointExtension>
            <ns3:atemp>26.0</ns3:atemp>
          </ns3:TrackPointExtension>
        </extensions>
      </trkpt>
      <trkpt lat="42.5167822279036045074462890625" lon="20.14625656418502330780029296875">
        <ele>2058</ele>
        <time>2026-06-20T09:39:56.000Z</time>
        <extensions>
          <ns3:TrackPointExtension>
            <ns3:atemp>26.0</ns3:atemp>
          </ns3:TrackPointExtension>
        </extensions>
      </trkpt>
      <trkpt lat="42.5167828984558582305908203125" lon="20.146238543093204498291015625">
        <ele>2058.199951171875</ele>
        <time>2026-06-20T09:39:57.000Z</time>
        <extensions>
          <ns3:TrackPointExtension>
            <ns3:atemp>26.0</ns3:atemp>
          </ns3:TrackPointExtension>
        </extensions>
      </trkpt>
      <trkpt lat="42.5167849101126194000244140625" lon="20.146223120391368865966796875">
        <ele>2058.60009765625</ele>
        <time>2026-06-20T09:39:58.000Z</time>
        <extensions>
          <ns3:TrackPointExtension>
            <ns3:atemp>26.0</ns3:atemp>
          </ns3:TrackPointExtension>
        </extensions>
      </trkpt>
      <trkpt lat="42.5167896039783954620361328125" lon="20.14620912261307239532470703125">
        <ele>2059</ele>
        <time>2026-06-20T09:39:59.000Z</time>
        <extensions>
          <ns3:TrackPointExtension>
            <ns3:atemp>26.0</ns3:atemp>
          </ns3:TrackPointExtension>
        </extensions>
      </trkpt>
      <trkpt lat="42.5167942978441715240478515625" lon="20.1461944542825222015380859375">
        <ele>2059.39990234375</ele>
        <time>2026-06-20T09:40:00.000Z</time>
        <extensions>
          <ns3:TrackPointExtension>
            <ns3:atemp>26.0</ns3:atemp>
          </ns3:TrackPointExtension>
        </extensions>
      </trkpt>
      <trkpt lat="42.51679773442447185516357421875" lon="20.1461790315806865692138671875">
        <ele>2059.800048828125</ele>
        <time>2026-06-20T09:40:01.000Z</time>
        <extensions>
          <ns3:TrackPointExtension>
            <ns3:atemp>26.0</ns3:atemp>
          </ns3:TrackPointExtension>
        </extensions>
      </trkpt>
      <trkpt lat="42.51679949462413787841796875" lon="20.1461589150130748748779296875">
        <ele>2060.199951171875</ele>
        <time>2026-06-20T09:40:02.000Z</time>
        <extensions>
          <ns3:TrackPointExtension>
            <ns3:atemp>26.0</ns3:atemp>
          </ns3:TrackPointExtension>
        </extensions>
      </trkpt>
      <trkpt lat="42.51679890789091587066650390625" lon="20.14613737352192401885986328125">
        <ele>2060.60009765625</ele>
        <time>2026-06-20T09:40:03.000Z</time>
        <extensions>
          <ns3:TrackPointExtension>
            <ns3:atemp>26.0</ns3:atemp>
          </ns3:TrackPointExtension>
        </extensions>
      </trkpt>
      <trkpt lat="42.51680192537605762481689453125" lon="20.14611708931624889373779296875">
        <ele>2060.800048828125</ele>
        <time>2026-06-20T09:40:04.000Z</time>
        <extensions>
          <ns3:TrackPointExtension>
            <ns3:atemp>26.0</ns3:atemp>
          </ns3:TrackPointExtension>
        </extensions>
      </trkpt>
      <trkpt lat="42.5168083794414997100830078125" lon="20.1460955478250980377197265625">
        <ele>2061.199951171875</ele>
        <time>2026-06-20T09:40:05.000Z</time>
        <extensions>
          <ns3:TrackPointExtension>
            <ns3:atemp>26.0</ns3:atemp>
          </ns3:TrackPointExtension>
        </extensions>
      </trkpt>
      <trkpt lat="42.51681349240243434906005859375" lon="20.146074928343296051025390625">
        <ele>2061.60009765625</ele>
        <time>2026-06-20T09:40:06.000Z</time>
        <extensions>
          <ns3:TrackPointExtension>
            <ns3:atemp>26.0</ns3:atemp>
          </ns3:TrackPointExtension>
        </extensions>
      </trkpt>
      <trkpt lat="42.5168110616505146026611328125" lon="20.1460546441376209259033203125">
        <ele>2061.800048828125</ele>
        <time>2026-06-20T09:40:07.000Z</time>
        <extensions>
          <ns3:TrackPointExtension>
            <ns3:atemp>26.0</ns3:atemp>
          </ns3:TrackPointExtension>
        </extensions>
      </trkpt>
      <trkpt lat="42.51680846326053142547607421875" lon="20.1460358686745166778564453125">
        <ele>2062.199951171875</ele>
        <time>2026-06-20T09:40:08.000Z</time>
        <extensions>
          <ns3:TrackPointExtension>
            <ns3:atemp>26.0</ns3:atemp>
          </ns3:TrackPointExtension>
        </extensions>
      </trkpt>
      <trkpt lat="42.51680511049926280975341796875" lon="20.14601751230657100677490234375">
        <ele>2062.60009765625</ele>
        <time>2026-06-20T09:40:09.000Z</time>
        <extensions>
          <ns3:TrackPointExtension>
            <ns3:atemp>26.0</ns3:atemp>
          </ns3:TrackPointExtension>
        </extensions>
      </trkpt>
      <trkpt lat="42.5168016739189624786376953125" lon="20.1459983177483081817626953125">
        <ele>2062.800048828125</ele>
        <time>2026-06-20T09:40:10.000Z</time>
        <extensions>
          <ns3:TrackPointExtension>
            <ns3:atemp>26.0</ns3:atemp>
          </ns3:TrackPointExtension>
        </extensions>
      </trkpt>
      <trkpt lat="42.516798488795757293701171875" lon="20.14597929082810878753662109375">
        <ele>2063.199951171875</ele>
        <time>2026-06-20T09:40:11.000Z</time>
        <extensions>
          <ns3:TrackPointExtension>
            <ns3:atemp>26.0</ns3:atemp>
          </ns3:TrackPointExtension>
        </extensions>
      </trkpt>
      <trkpt lat="42.51679907552897930145263671875" lon="20.1459627784788608551025390625">
        <ele>2063.800048828125</ele>
        <time>2026-06-20T09:40:12.000Z</time>
        <extensions>
          <ns3:TrackPointExtension>
            <ns3:atemp>26.0</ns3:atemp>
          </ns3:TrackPointExtension>
        </extensions>
      </trkpt>
      <trkpt lat="42.51679857261478900909423828125" lon="20.14594777487218379974365234375">
        <ele>2064.199951171875</ele>
        <time>2026-06-20T09:40:13.000Z</time>
        <extensions>
          <ns3:TrackPointExtension>
            <ns3:atemp>26.0</ns3:atemp>
          </ns3:TrackPointExtension>
        </extensions>
      </trkpt>
      <trkpt lat="42.516793794929981231689453125" lon="20.1459376327693462371826171875">
        <ele>2064.60009765625</ele>
        <time>2026-06-20T09:40:14.000Z</time>
        <extensions>
          <ns3:TrackPointExtension>
            <ns3:atemp>26.0</ns3:atemp>
          </ns3:TrackPointExtension>
        </extensions>
      </trkpt>
      <trkpt lat="42.51678935252130031585693359375" lon="20.14591827057301998138427734375">
        <ele>2065</ele>
        <time>2026-06-20T09:40:15.000Z</time>
        <extensions>
          <ns3:TrackPointExtension>
            <ns3:atemp>26.0</ns3:atemp>
          </ns3:TrackPointExtension>
        </extensions>
      </trkpt>
      <trkpt lat="42.51678608357906341552734375" lon="20.14590167440474033355712890625">
        <ele>2065.39990234375</ele>
        <time>2026-06-20T09:40:16.000Z</time>
        <extensions>
          <ns3:TrackPointExtension>
            <ns3:atemp>26.0</ns3:atemp>
          </ns3:TrackPointExtension>
        </extensions>
      </trkpt>
      <trkpt lat="42.516780383884906768798828125" lon="20.145884491503238677978515625">
        <ele>2065.800048828125</ele>
        <time>2026-06-20T09:40:17.000Z</time>
        <extensions>
          <ns3:TrackPointExtension>
            <ns3:atemp>26.0</ns3:atemp>
          </ns3:TrackPointExtension>
        </extensions>
      </trkpt>
      <trkpt lat="42.5167714990675449371337890625" lon="20.14586873352527618408203125">
        <ele>2066.199951171875</ele>
        <time>2026-06-20T09:40:18.000Z</time>
        <extensions>
          <ns3:TrackPointExtension>
            <ns3:atemp>26.0</ns3:atemp>
          </ns3:TrackPointExtension>
        </extensions>
      </trkpt>
      <trkpt lat="42.51676370389759540557861328125" lon="20.145854316651821136474609375">
        <ele>2066.39990234375</ele>
        <time>2026-06-20T09:40:19.000Z</time>
        <extensions>
          <ns3:TrackPointExtension>
            <ns3:atemp>26.0</ns3:atemp>
          </ns3:TrackPointExtension>
        </extensions>
      </trkpt>
      <trkpt lat="42.51675498671829700469970703125" lon="20.1458434201776981353759765625">
        <ele>2066.800048828125</ele>
        <time>2026-06-20T09:40:20.000Z</time>
        <extensions>
          <ns3:TrackPointExtension>
            <ns3:atemp>26.0</ns3:atemp>
          </ns3:TrackPointExtension>
        </extensions>
      </trkpt>
      <trkpt lat="42.51675247214734554290771484375" lon="20.1458452641963958740234375">
        <ele>2067</ele>
        <time>2026-06-20T09:40:21.000Z</time>
        <extensions>
          <ns3:TrackPointExtension>
            <ns3:atemp>26.0</ns3:atemp>
          </ns3:TrackPointExtension>
        </extensions>
      </trkpt>
      <trkpt lat="42.5167523883283138275146484375" lon="20.1458452641963958740234375">
        <ele>2067.39990234375</ele>
        <time>2026-06-20T09:40:22.000Z</time>
        <extensions>
          <ns3:TrackPointExtension>
            <ns3:atemp>26.0</ns3:atemp>
          </ns3:TrackPointExtension>
        </extensions>
      </trkpt>
      <trkpt lat="42.5167523883283138275146484375" lon="20.1458452641963958740234375">
        <ele>2067.60009765625</ele>
        <time>2026-06-20T09:40:23.000Z</time>
        <extensions>
          <ns3:TrackPointExtension>
            <ns3:atemp>26.0</ns3:atemp>
          </ns3:TrackPointExtension>
        </extensions>
      </trkpt>
      <trkpt lat="42.5167523883283138275146484375" lon="20.1458452641963958740234375">
        <ele>2067.800048828125</ele>
        <time>2026-06-20T09:40:24.000Z</time>
        <extensions>
          <ns3:TrackPointExtension>
            <ns3:atemp>26.0</ns3:atemp>
          </ns3:TrackPointExtension>
        </extensions>
      </trkpt>
      <trkpt lat="42.5167523883283138275146484375" lon="20.1458452641963958740234375">
        <ele>2068</ele>
        <time>2026-06-20T09:40:25.000Z</time>
        <extensions>
          <ns3:TrackPointExtension>
            <ns3:atemp>26.0</ns3:atemp>
          </ns3:TrackPointExtension>
        </extensions>
      </trkpt>
      <trkpt lat="42.5167523883283138275146484375" lon="20.1458452641963958740234375">
        <ele>2068.199951171875</ele>
        <time>2026-06-20T09:40:26.000Z</time>
        <extensions>
          <ns3:TrackPointExtension>
            <ns3:atemp>26.0</ns3:atemp>
          </ns3:TrackPointExtension>
        </extensions>
      </trkpt>
      <trkpt lat="42.516752220690250396728515625" lon="20.145846270024776458740234375">
        <ele>2068.39990234375</ele>
        <time>2026-06-20T09:40:27.000Z</time>
        <extensions>
          <ns3:TrackPointExtension>
            <ns3:atemp>26.0</ns3:atemp>
          </ns3:TrackPointExtension>
        </extensions>
      </trkpt>
      <trkpt lat="42.5167523883283138275146484375" lon="20.1458452641963958740234375">
        <ele>2068.60009765625</ele>
        <time>2026-06-20T09:40:28.000Z</time>
        <extensions>
          <ns3:TrackPointExtension>
            <ns3:atemp>26.0</ns3:atemp>
          </ns3:TrackPointExtension>
        </extensions>
      </trkpt>
      <trkpt lat="42.5167523883283138275146484375" lon="20.1458452641963958740234375">
        <ele>2068.60009765625</ele>
        <time>2026-06-20T09:40:29.000Z</time>
        <extensions>
          <ns3:TrackPointExtension>
            <ns3:atemp>26.0</ns3:atemp>
          </ns3:TrackPointExtension>
        </extensions>
      </trkpt>
      <trkpt lat="42.5167523883283138275146484375" lon="20.1458452641963958740234375">
        <ele>2068.60009765625</ele>
        <time>2026-06-20T09:40:30.000Z</time>
        <extensions>
          <ns3:TrackPointExtension>
            <ns3:atemp>26.0</ns3:atemp>
          </ns3:TrackPointExtension>
        </extensions>
      </trkpt>
      <trkpt lat="42.5167523883283138275146484375" lon="20.1458452641963958740234375">
        <ele>2068.60009765625</ele>
        <time>2026-06-20T09:40:31.000Z</time>
        <extensions>
          <ns3:TrackPointExtension>
            <ns3:atemp>26.0</ns3:atemp>
          </ns3:TrackPointExtension>
        </extensions>
      </trkpt>
      <trkpt lat="42.5167523883283138275146484375" lon="20.1458452641963958740234375">
        <ele>2068.60009765625</ele>
        <time>2026-06-20T09:40:32.000Z</time>
        <extensions>
          <ns3:TrackPointExtension>
            <ns3:atemp>26.0</ns3:atemp>
          </ns3:TrackPointExtension>
        </extensions>
      </trkpt>
      <trkpt lat="42.5167523883283138275146484375" lon="20.1458452641963958740234375">
        <ele>2068.60009765625</ele>
        <time>2026-06-20T09:40:33.000Z</time>
        <extensions>
          <ns3:TrackPointExtension>
            <ns3:atemp>26.0</ns3:atemp>
          </ns3:TrackPointExtension>
        </extensions>
      </trkpt>
      <trkpt lat="42.5167523883283138275146484375" lon="20.1458452641963958740234375">
        <ele>2068.60009765625</ele>
        <time>2026-06-20T09:40:34.000Z</time>
        <extensions>
          <ns3:TrackPointExtension>
            <ns3:atemp>26.0</ns3:atemp>
          </ns3:TrackPointExtension>
        </extensions>
      </trkpt>
      <trkpt lat="42.5167523883283138275146484375" lon="20.1458452641963958740234375">
        <ele>2068.60009765625</ele>
        <time>2026-06-20T09:40:35.000Z</time>
        <extensions>
          <ns3:TrackPointExtension>
            <ns3:atemp>26.0</ns3:atemp>
          </ns3:TrackPointExtension>
        </extensions>
      </trkpt>
      <trkpt lat="42.5167523883283138275146484375" lon="20.1458452641963958740234375">
        <ele>2068.60009765625</ele>
        <time>2026-06-20T09:40:36.000Z</time>
        <extensions>
          <ns3:TrackPointExtension>
            <ns3:atemp>26.0</ns3:atemp>
          </ns3:TrackPointExtension>
        </extensions>
      </trkpt>
      <trkpt lat="42.5167523883283138275146484375" lon="20.1458452641963958740234375">
        <ele>2068.60009765625</ele>
        <time>2026-06-20T09:40:37.000Z</time>
        <extensions>
          <ns3:TrackPointExtension>
            <ns3:atemp>26.0</ns3:atemp>
          </ns3:TrackPointExtension>
        </extensions>
      </trkpt>
      <trkpt lat="42.5167523883283138275146484375" lon="20.1458452641963958740234375">
        <ele>2068.800048828125</ele>
        <time>2026-06-20T09:40:38.000Z</time>
        <extensions>
          <ns3:TrackPointExtension>
            <ns3:atemp>26.0</ns3:atemp>
          </ns3:TrackPointExtension>
        </extensions>
      </trkpt>
      <trkpt lat="42.5167523883283138275146484375" lon="20.1458452641963958740234375">
        <ele>2068.800048828125</ele>
        <time>2026-06-20T09:40:39.000Z</time>
        <extensions>
          <ns3:TrackPointExtension>
            <ns3:atemp>26.0</ns3:atemp>
          </ns3:TrackPointExtension>
        </extensions>
      </trkpt>
      <trkpt lat="42.5167523883283138275146484375" lon="20.1458452641963958740234375">
        <ele>2069</ele>
        <time>2026-06-20T09:40:40.000Z</time>
        <extensions>
          <ns3:TrackPointExtension>
            <ns3:atemp>26.0</ns3:atemp>
          </ns3:TrackPointExtension>
        </extensions>
      </trkpt>
      <trkpt lat="42.5167523883283138275146484375" lon="20.1458452641963958740234375">
        <ele>2069</ele>
        <time>2026-06-20T09:40:41.000Z</time>
        <extensions>
          <ns3:TrackPointExtension>
            <ns3:atemp>26.0</ns3:atemp>
          </ns3:TrackPointExtension>
        </extensions>
      </trkpt>
      <trkpt lat="42.5167523883283138275146484375" lon="20.1458452641963958740234375">
        <ele>2069</ele>
        <time>2026-06-20T09:40:42.000Z</time>
        <extensions>
          <ns3:TrackPointExtension>
            <ns3:atemp>26.0</ns3:atemp>
          </ns3:TrackPointExtension>
        </extensions>
      </trkpt>
      <trkpt lat="42.5167523883283138275146484375" lon="20.1458452641963958740234375">
        <ele>2069.199951171875</ele>
        <time>2026-06-20T09:40:43.000Z</time>
        <extensions>
          <ns3:TrackPointExtension>
            <ns3:atemp>26.0</ns3:atemp>
          </ns3:TrackPointExtension>
        </extensions>
      </trkpt>
      <trkpt lat="42.5167523883283138275146484375" lon="20.1458452641963958740234375">
        <ele>2069.199951171875</ele>
        <time>2026-06-20T09:40:44.000Z</time>
        <extensions>
          <ns3:TrackPointExtension>
            <ns3:atemp>26.0</ns3:atemp>
          </ns3:TrackPointExtension>
        </extensions>
      </trkpt>
      <trkpt lat="42.5167523883283138275146484375" lon="20.1458452641963958740234375">
        <ele>2069.199951171875</ele>
        <time>2026-06-20T09:40:45.000Z</time>
        <extensions>
          <ns3:TrackPointExtension>
            <ns3:atemp>26.0</ns3:atemp>
          </ns3:TrackPointExtension>
        </extensions>
      </trkpt>
      <trkpt lat="42.5167523883283138275146484375" lon="20.1458452641963958740234375">
        <ele>2069.199951171875</ele>
        <time>2026-06-20T09:40:46.000Z</time>
        <extensions>
          <ns3:TrackPointExtension>
            <ns3:atemp>26.0</ns3:atemp>
          </ns3:TrackPointExtension>
        </extensions>
      </trkpt>
      <trkpt lat="42.5167523883283138275146484375" lon="20.1458452641963958740234375">
        <ele>2069.199951171875</ele>
        <time>2026-06-20T09:40:47.000Z</time>
        <extensions>
          <ns3:TrackPointExtension>
            <ns3:atemp>26.0</ns3:atemp>
          </ns3:TrackPointExtension>
        </extensions>
      </trkpt>
      <trkpt lat="42.5167523883283138275146484375" lon="20.1458452641963958740234375">
        <ele>2069</ele>
        <time>2026-06-20T09:40:48.000Z</time>
        <extensions>
          <ns3:TrackPointExtension>
            <ns3:atemp>26.0</ns3:atemp>
          </ns3:TrackPointExtension>
        </extensions>
      </trkpt>
      <trkpt lat="42.5167523883283138275146484375" lon="20.1458452641963958740234375">
        <ele>2069</ele>
        <time>2026-06-20T09:40:49.000Z</time>
        <extensions>
          <ns3:TrackPointExtension>
            <ns3:atemp>26.0</ns3:atemp>
          </ns3:TrackPointExtension>
        </extensions>
      </trkpt>
      <trkpt lat="42.5167523883283138275146484375" lon="20.1458452641963958740234375">
        <ele>2068.800048828125</ele>
        <time>2026-06-20T09:40:50.000Z</time>
        <extensions>
          <ns3:TrackPointExtension>
            <ns3:atemp>26.0</ns3:atemp>
          </ns3:TrackPointExtension>
        </extensions>
      </trkpt>
      <trkpt lat="42.5167523883283138275146484375" lon="20.1458452641963958740234375">
        <ele>2068.800048828125</ele>
        <time>2026-06-20T09:40:51.000Z</time>
        <extensions>
          <ns3:TrackPointExtension>
            <ns3:atemp>26.0</ns3:atemp>
          </ns3:TrackPointExtension>
        </extensions>
      </trkpt>
      <trkpt lat="42.51675180159509181976318359375" lon="20.14585222117602825164794921875">
        <ele>2069</ele>
        <time>2026-06-20T09:40:52.000Z</time>
        <extensions>
          <ns3:TrackPointExtension>
            <ns3:atemp>26.0</ns3:atemp>
          </ns3:TrackPointExtension>
        </extensions>
      </trkpt>
      <trkpt lat="42.51674610190093517303466796875" lon="20.14586814679205417633056640625">
        <ele>2069.199951171875</ele>
        <time>2026-06-20T09:40:53.000Z</time>
        <extensions>
          <ns3:TrackPointExtension>
            <ns3:atemp>26.0</ns3:atemp>
          </ns3:TrackPointExtension>
        </extensions>
      </trkpt>
      <trkpt lat="42.51673512160778045654296875" lon="20.14587837271392345428466796875">
        <ele>2069.39990234375</ele>
        <time>2026-06-20T09:40:54.000Z</time>
        <extensions>
          <ns3:TrackPointExtension>
            <ns3:atemp>26.0</ns3:atemp>
          </ns3:TrackPointExtension>
        </extensions>
      </trkpt>
      <trkpt lat="42.516725063323974609375" lon="20.14588038437068462371826171875">
        <ele>2069.60009765625</ele>
        <time>2026-06-20T09:40:55.000Z</time>
        <extensions>
          <ns3:TrackPointExtension>
            <ns3:atemp>26.0</ns3:atemp>
          </ns3:TrackPointExtension>
        </extensions>
      </trkpt>
      <trkpt lat="42.51671659760177135467529296875" lon="20.14586663804948329925537109375">
        <ele>2070</ele>
        <time>2026-06-20T09:40:56.000Z</time>
        <extensions>
          <ns3:TrackPointExtension>
            <ns3:atemp>26.0</ns3:atemp>
          </ns3:TrackPointExtension>
        </extensions>
      </trkpt>
      <trkpt lat="42.5167156755924224853515625" lon="20.145851634442806243896484375">
        <ele>2070.39990234375</ele>
        <time>2026-06-20T09:40:57.000Z</time>
        <extensions>
          <ns3:TrackPointExtension>
            <ns3:atemp>26.0</ns3:atemp>
          </ns3:TrackPointExtension>
        </extensions>
      </trkpt>
      <trkpt lat="42.51671927981078624725341796875" lon="20.1458390615880489349365234375">
        <ele>2070.800048828125</ele>
        <time>2026-06-20T09:40:58.000Z</time>
        <extensions>
          <ns3:TrackPointExtension>
            <ns3:atemp>26.0</ns3:atemp>
          </ns3:TrackPointExtension>
        </extensions>
      </trkpt>
      <trkpt lat="42.516716681420803070068359375" lon="20.1458238065242767333984375">
        <ele>2071</ele>
        <time>2026-06-20T09:40:59.000Z</time>
        <extensions>
          <ns3:TrackPointExtension>
            <ns3:atemp>26.0</ns3:atemp>
          </ns3:TrackPointExtension>
        </extensions>
      </trkpt>
      <trkpt lat="42.51670385710895061492919921875" lon="20.14580561779439449310302734375">
        <ele>2071.199951171875</ele>
        <time>2026-06-20T09:41:00.000Z</time>
        <extensions>
          <ns3:TrackPointExtension>
            <ns3:atemp>26.0</ns3:atemp>
          </ns3:TrackPointExtension>
        </extensions>
      </trkpt>
      <trkpt lat="42.516687177121639251708984375" lon="20.14580360613763332366943359375">
        <ele>2071.39990234375</ele>
        <time>2026-06-20T09:41:01.000Z</time>
        <extensions>
          <ns3:TrackPointExtension>
            <ns3:atemp>26.0</ns3:atemp>
          </ns3:TrackPointExtension>
        </extensions>
      </trkpt>
      <trkpt lat="42.51668122597038745880126953125" lon="20.14582179486751556396484375">
        <ele>2071.60009765625</ele>
        <time>2026-06-20T09:41:02.000Z</time>
        <extensions>
          <ns3:TrackPointExtension>
            <ns3:atemp>26.0</ns3:atemp>
          </ns3:TrackPointExtension>
        </extensions>
      </trkpt>
      <trkpt lat="42.51667301170527935028076171875" lon="20.14584735967218875885009765625">
        <ele>2071.800048828125</ele>
        <time>2026-06-20T09:41:03.000Z</time>
        <extensions>
          <ns3:TrackPointExtension>
            <ns3:atemp>26.0</ns3:atemp>
          </ns3:TrackPointExtension>
        </extensions>
      </trkpt>
      <trkpt lat="42.51666462980210781097412109375" lon="20.1458628661930561065673828125">
        <ele>2072</ele>
        <time>2026-06-20T09:41:04.000Z</time>
        <extensions>
          <ns3:TrackPointExtension>
            <ns3:atemp>26.0</ns3:atemp>
          </ns3:TrackPointExtension>
        </extensions>
      </trkpt>
      <trkpt lat="42.51665507443249225616455078125" lon="20.14587879180908203125">
        <ele>2072.39990234375</ele>
        <time>2026-06-20T09:41:05.000Z</time>
        <extensions>
          <ns3:TrackPointExtension>
            <ns3:atemp>26.0</ns3:atemp>
          </ns3:TrackPointExtension>
        </extensions>
      </trkpt>
      <trkpt lat="42.51664660871028900146484375" lon="20.14589379541575908660888671875">
        <ele>2072.800048828125</ele>
        <time>2026-06-20T09:41:06.000Z</time>
        <extensions>
          <ns3:TrackPointExtension>
            <ns3:atemp>26.0</ns3:atemp>
          </ns3:TrackPointExtension>
        </extensions>
      </trkpt>
      <trkpt lat="42.51663453876972198486328125" lon="20.145903937518596649169921875">
        <ele>2073</ele>
        <time>2026-06-20T09:41:07.000Z</time>
        <extensions>
          <ns3:TrackPointExtension>
            <ns3:atemp>26.0</ns3:atemp>
          </ns3:TrackPointExtension>
        </extensions>
      </trkpt>
      <trkpt lat="42.5166300125420093536376953125" lon="20.1459161750972270965576171875">
        <ele>2073.39990234375</ele>
        <time>2026-06-20T09:41:08.000Z</time>
        <extensions>
          <ns3:TrackPointExtension>
            <ns3:atemp>26.0</ns3:atemp>
          </ns3:TrackPointExtension>
        </extensions>
      </trkpt>
      <trkpt lat="42.51662188209593296051025390625" lon="20.145929753780364990234375">
        <ele>2074</ele>
        <time>2026-06-20T09:41:09.000Z</time>
        <extensions>
          <ns3:TrackPointExtension>
            <ns3:atemp>26.0</ns3:atemp>
          </ns3:TrackPointExtension>
        </extensions>
      </trkpt>
      <trkpt lat="42.51661308109760284423828125" lon="20.14593335799872875213623046875">
        <ele>2074.60009765625</ele>
        <time>2026-06-20T09:41:10.000Z</time>
        <extensions>
          <ns3:TrackPointExtension>
            <ns3:atemp>26.0</ns3:atemp>
          </ns3:TrackPointExtension>
        </extensions>
      </trkpt>
      <trkpt lat="42.51660394482314586639404296875" lon="20.145924389362335205078125">
        <ele>2075</ele>
        <time>2026-06-20T09:41:11.000Z</time>
        <extensions>
          <ns3:TrackPointExtension>
            <ns3:atemp>26.0</ns3:atemp>
          </ns3:TrackPointExtension>
        </extensions>
      </trkpt>
      <trkpt lat="42.51660478301346302032470703125" lon="20.145922712981700897216796875">
        <ele>2075.800048828125</ele>
        <time>2026-06-20T09:41:12.000Z</time>
        <extensions>
          <ns3:TrackPointExtension>
            <ns3:atemp>26.0</ns3:atemp>
          </ns3:TrackPointExtension>
        </extensions>
      </trkpt>
      <trkpt lat="42.51660478301346302032470703125" lon="20.14592279680073261260986328125">
        <ele>2076.199951171875</ele>
        <time>2026-06-20T09:41:13.000Z</time>
        <extensions>
          <ns3:TrackPointExtension>
            <ns3:atemp>26.0</ns3:atemp>
          </ns3:TrackPointExtension>
        </extensions>
      </trkpt>
      <trkpt lat="42.516598999500274658203125" lon="20.1459191925823688507080078125">
        <ele>2076.800048828125</ele>
        <time>2026-06-20T09:41:14.000Z</time>
        <extensions>
          <ns3:TrackPointExtension>
            <ns3:atemp>26.0</ns3:atemp>
          </ns3:TrackPointExtension>
        </extensions>
      </trkpt>
      <trkpt lat="42.51659321598708629608154296875" lon="20.14591055922210216522216796875">
        <ele>2077.39990234375</ele>
        <time>2026-06-20T09:41:15.000Z</time>
        <extensions>
          <ns3:TrackPointExtension>
            <ns3:atemp>26.0</ns3:atemp>
          </ns3:TrackPointExtension>
        </extensions>
      </trkpt>
      <trkpt lat="42.5165881030261516571044921875" lon="20.145904608070850372314453125">
        <ele>2077.60009765625</ele>
        <time>2026-06-20T09:41:16.000Z</time>
        <extensions>
          <ns3:TrackPointExtension>
            <ns3:atemp>26.0</ns3:atemp>
          </ns3:TrackPointExtension>
        </extensions>
      </trkpt>
      <trkpt lat="42.51658449880778789520263671875" lon="20.145896561443805694580078125">
        <ele>2077.800048828125</ele>
        <time>2026-06-20T09:41:17.000Z</time>
        <extensions>
          <ns3:TrackPointExtension>
            <ns3:atemp>26.0</ns3:atemp>
          </ns3:TrackPointExtension>
        </extensions>
      </trkpt>
      <trkpt lat="42.5165867619216442108154296875" lon="20.14588993974030017852783203125">
        <ele>2078</ele>
        <time>2026-06-20T09:41:18.000Z</time>
        <extensions>
          <ns3:TrackPointExtension>
            <ns3:atemp>26.0</ns3:atemp>
          </ns3:TrackPointExtension>
        </extensions>
      </trkpt>
      <trkpt lat="42.5165891088545322418212890625" lon="20.14588616788387298583984375">
        <ele>2078</ele>
        <time>2026-06-20T09:41:19.000Z</time>
        <extensions>
          <ns3:TrackPointExtension>
            <ns3:atemp>26.0</ns3:atemp>
          </ns3:TrackPointExtension>
        </extensions>
      </trkpt>
      <trkpt lat="42.5165891088545322418212890625" lon="20.14588616788387298583984375">
        <ele>2078.199951171875</ele>
        <time>2026-06-20T09:41:20.000Z</time>
        <extensions>
          <ns3:TrackPointExtension>
            <ns3:atemp>26.0</ns3:atemp>
          </ns3:TrackPointExtension>
        </extensions>
      </trkpt>
      <trkpt lat="42.5165891088545322418212890625" lon="20.14588616788387298583984375">
        <ele>2078.39990234375</ele>
        <time>2026-06-20T09:41:21.000Z</time>
        <extensions>
          <ns3:TrackPointExtension>
            <ns3:atemp>26.0</ns3:atemp>
          </ns3:TrackPointExtension>
        </extensions>
      </trkpt>
      <trkpt lat="42.5165891088545322418212890625" lon="20.14588616788387298583984375">
        <ele>2078.60009765625</ele>
        <time>2026-06-20T09:41:22.000Z</time>
        <extensions>
          <ns3:TrackPointExtension>
            <ns3:atemp>26.0</ns3:atemp>
          </ns3:TrackPointExtension>
        </extensions>
      </trkpt>
      <trkpt lat="42.5165891088545322418212890625" lon="20.14588616788387298583984375">
        <ele>2078.60009765625</ele>
        <time>2026-06-20T09:41:23.000Z</time>
        <extensions>
          <ns3:TrackPointExtension>
            <ns3:atemp>26.0</ns3:atemp>
          </ns3:TrackPointExtension>
        </extensions>
      </trkpt>
      <trkpt lat="42.5165891088545322418212890625" lon="20.14588616788387298583984375">
        <ele>2078.60009765625</ele>
        <time>2026-06-20T09:41:24.000Z</time>
        <extensions>
          <ns3:TrackPointExtension>
            <ns3:atemp>26.0</ns3:atemp>
          </ns3:TrackPointExtension>
        </extensions>
      </trkpt>
      <trkpt lat="42.5165891088545322418212890625" lon="20.14588616788387298583984375">
        <ele>2078.60009765625</ele>
        <time>2026-06-20T09:41:25.000Z</time>
        <extensions>
          <ns3:TrackPointExtension>
            <ns3:atemp>26.0</ns3:atemp>
          </ns3:TrackPointExtension>
        </extensions>
      </trkpt>
      <trkpt lat="42.5165891088545322418212890625" lon="20.14588616788387298583984375">
        <ele>2078.39990234375</ele>
        <time>2026-06-20T09:41:26.000Z</time>
        <extensions>
          <ns3:TrackPointExtension>
            <ns3:atemp>26.0</ns3:atemp>
          </ns3:TrackPointExtension>
        </extensions>
      </trkpt>
      <trkpt lat="42.5165891088545322418212890625" lon="20.14588616788387298583984375">
        <ele>2078.199951171875</ele>
        <time>2026-06-20T09:41:27.000Z</time>
        <extensions>
          <ns3:TrackPointExtension>
            <ns3:atemp>26.0</ns3:atemp>
          </ns3:TrackPointExtension>
        </extensions>
      </trkpt>
      <trkpt lat="42.5165891088545322418212890625" lon="20.14588616788387298583984375">
        <ele>2078.199951171875</ele>
        <time>2026-06-20T09:41:28.000Z</time>
        <extensions>
          <ns3:TrackPointExtension>
            <ns3:atemp>26.0</ns3:atemp>
          </ns3:TrackPointExtension>
        </extensions>
      </trkpt>
      <trkpt lat="42.5165891088545322418212890625" lon="20.14588616788387298583984375">
        <ele>2078</ele>
        <time>2026-06-20T09:41:29.000Z</time>
        <extensions>
          <ns3:TrackPointExtension>
            <ns3:atemp>26.0</ns3:atemp>
          </ns3:TrackPointExtension>
        </extensions>
      </trkpt>
      <trkpt lat="42.51658835448324680328369140625" lon="20.145886503159999847412109375">
        <ele>2078</ele>
        <time>2026-06-20T09:41:30.000Z</time>
        <extensions>
          <ns3:TrackPointExtension>
            <ns3:atemp>26.0</ns3:atemp>
          </ns3:TrackPointExtension>
        </extensions>
      </trkpt>
      <trkpt lat="42.51658114604651927947998046875" lon="20.14587837271392345428466796875">
        <ele>2078</ele>
        <time>2026-06-20T09:41:31.000Z</time>
        <extensions>
          <ns3:TrackPointExtension>
            <ns3:atemp>26.0</ns3:atemp>
          </ns3:TrackPointExtension>
        </extensions>
      </trkpt>
      <trkpt lat="42.51657594926655292510986328125" lon="20.145864374935626983642578125">
        <ele>2078</ele>
        <time>2026-06-20T09:41:32.000Z</time>
        <extensions>
          <ns3:TrackPointExtension>
            <ns3:atemp>26.0</ns3:atemp>
          </ns3:TrackPointExtension>
        </extensions>
      </trkpt>
      <trkpt lat="42.516569830477237701416015625" lon="20.14584727585315704345703125">
        <ele>2078</ele>
        <time>2026-06-20T09:41:33.000Z</time>
        <extensions>
          <ns3:TrackPointExtension>
            <ns3:atemp>26.0</ns3:atemp>
          </ns3:TrackPointExtension>
        </extensions>
      </trkpt>
      <trkpt lat="42.51656438224017620086669921875" lon="20.14583009295165538787841796875">
        <ele>2078</ele>
        <time>2026-06-20T09:41:34.000Z</time>
        <extensions>
          <ns3:TrackPointExtension>
            <ns3:atemp>26.0</ns3:atemp>
          </ns3:TrackPointExtension>
        </extensions>
      </trkpt>
      <trkpt lat="42.5165632925927639007568359375" lon="20.1458112336695194244384765625">
        <ele>2078.199951171875</ele>
        <time>2026-06-20T09:41:35.000Z</time>
        <extensions>
          <ns3:TrackPointExtension>
            <ns3:atemp>26.0</ns3:atemp>
          </ns3:TrackPointExtension>
        </extensions>
      </trkpt>
      <trkpt lat="42.5165589340031147003173828125" lon="20.14578868634998798370361328125">
        <ele>2078.39990234375</ele>
        <time>2026-06-20T09:41:36.000Z</time>
        <extensions>
          <ns3:TrackPointExtension>
            <ns3:atemp>26.0</ns3:atemp>
          </ns3:TrackPointExtension>
        </extensions>
      </trkpt>
      <trkpt lat="42.51654963009059429168701171875" lon="20.14576471410691738128662109375">
        <ele>2078.60009765625</ele>
        <time>2026-06-20T09:41:37.000Z</time>
        <extensions>
          <ns3:TrackPointExtension>
            <ns3:atemp>26.0</ns3:atemp>
          </ns3:TrackPointExtension>
        </extensions>
      </trkpt>
      <trkpt lat="42.5165426731109619140625" lon="20.1457460224628448486328125">
        <ele>2078.800048828125</ele>
        <time>2026-06-20T09:41:38.000Z</time>
        <extensions>
          <ns3:TrackPointExtension>
            <ns3:atemp>26.0</ns3:atemp>
          </ns3:TrackPointExtension>
        </extensions>
      </trkpt>
      <trkpt lat="42.51653269864618778228759765625" lon="20.14573328197002410888671875">
        <ele>2079.199951171875</ele>
        <time>2026-06-20T09:41:39.000Z</time>
        <extensions>
          <ns3:TrackPointExtension>
            <ns3:atemp>26.0</ns3:atemp>
          </ns3:TrackPointExtension>
        </extensions>
      </trkpt>
      <trkpt lat="42.51652046106755733489990234375" lon="20.145724229514598846435546875">
        <ele>2079.800048828125</ele>
        <time>2026-06-20T09:41:40.000Z</time>
        <extensions>
          <ns3:TrackPointExtension>
            <ns3:atemp>26.0</ns3:atemp>
          </ns3:TrackPointExtension>
        </extensions>
      </trkpt>
      <trkpt lat="42.51650705002248287200927734375" lon="20.14571861363947391510009765625">
        <ele>2080.199951171875</ele>
        <time>2026-06-20T09:41:41.000Z</time>
        <extensions>
          <ns3:TrackPointExtension>
            <ns3:atemp>26.0</ns3:atemp>
          </ns3:TrackPointExtension>
        </extensions>
      </trkpt>
      <trkpt lat="42.5164969079196453094482421875" lon="20.14571861363947391510009765625">
        <ele>2080.60009765625</ele>
        <time>2026-06-20T09:41:42.000Z</time>
        <extensions>
          <ns3:TrackPointExtension>
            <ns3:atemp>26.0</ns3:atemp>
          </ns3:TrackPointExtension>
        </extensions>
      </trkpt>
      <trkpt lat="42.51648643054068088531494140625" lon="20.14572682790458202362060546875">
        <ele>2081</ele>
        <time>2026-06-20T09:41:43.000Z</time>
        <extensions>
          <ns3:TrackPointExtension>
            <ns3:atemp>26.0</ns3:atemp>
          </ns3:TrackPointExtension>
        </extensions>
      </trkpt>
      <trkpt lat="42.51647762954235076904296875" lon="20.1457394845783710479736328125">
        <ele>2081.60009765625</ele>
        <time>2026-06-20T09:41:44.000Z</time>
        <extensions>
          <ns3:TrackPointExtension>
            <ns3:atemp>26.0</ns3:atemp>
          </ns3:TrackPointExtension>
        </extensions>
      </trkpt>
      <trkpt lat="42.5164687447249889373779296875" lon="20.14575281180441379547119140625">
        <ele>2082</ele>
        <time>2026-06-20T09:41:45.000Z</time>
        <extensions>
          <ns3:TrackPointExtension>
            <ns3:atemp>26.0</ns3:atemp>
          </ns3:TrackPointExtension>
        </extensions>
      </trkpt>
      <trkpt lat="42.51646262593567371368408203125" lon="20.14576823450624942779541015625">
        <ele>2082.39990234375</ele>
        <time>2026-06-20T09:41:46.000Z</time>
        <extensions>
          <ns3:TrackPointExtension>
            <ns3:atemp>26.0</ns3:atemp>
          </ns3:TrackPointExtension>
        </extensions>
      </trkpt>
      <trkpt lat="42.51645189709961414337158203125" lon="20.14578885398805141448974609375">
        <ele>2083</ele>
        <time>2026-06-20T09:41:47.000Z</time>
        <extensions>
          <ns3:TrackPointExtension>
            <ns3:atemp>26.0</ns3:atemp>
          </ns3:TrackPointExtension>
        </extensions>
      </trkpt>
      <trkpt lat="42.51644401811063289642333984375" lon="20.14580838382244110107421875">
        <ele>2083.39990234375</ele>
        <time>2026-06-20T09:41:48.000Z</time>
        <extensions>
          <ns3:TrackPointExtension>
            <ns3:atemp>26.0</ns3:atemp>
          </ns3:TrackPointExtension>
        </extensions>
      </trkpt>
      <trkpt lat="42.51643597148358821868896484375" lon="20.14582741074264049530029296875">
        <ele>2084</ele>
        <time>2026-06-20T09:41:49.000Z</time>
        <extensions>
          <ns3:TrackPointExtension>
            <ns3:atemp>26.0</ns3:atemp>
          </ns3:TrackPointExtension>
        </extensions>
      </trkpt>
      <trkpt lat="42.51642473973333835601806640625" lon="20.1458461023867130279541015625">
        <ele>2084.39990234375</ele>
        <time>2026-06-20T09:41:50.000Z</time>
        <extensions>
          <ns3:TrackPointExtension>
            <ns3:atemp>26.0</ns3:atemp>
          </ns3:TrackPointExtension>
        </extensions>
      </trkpt>
      <trkpt lat="42.51641334034502506256103515625" lon="20.145866386592388153076171875">
        <ele>2084.800048828125</ele>
        <time>2026-06-20T09:41:51.000Z</time>
        <extensions>
          <ns3:TrackPointExtension>
            <ns3:atemp>26.0</ns3:atemp>
          </ns3:TrackPointExtension>
        </extensions>
      </trkpt>
      <trkpt lat="42.5164073891937732696533203125" lon="20.1458876766264438629150390625">
        <ele>2085.199951171875</ele>
        <time>2026-06-20T09:41:52.000Z</time>
        <extensions>
          <ns3:TrackPointExtension>
            <ns3:atemp>26.0</ns3:atemp>
          </ns3:TrackPointExtension>
        </extensions>
      </trkpt>
      <trkpt lat="42.51640127040445804595947265625" lon="20.14590905047953128814697265625">
        <ele>2085.60009765625</ele>
        <time>2026-06-20T09:41:53.000Z</time>
        <extensions>
          <ns3:TrackPointExtension>
            <ns3:atemp>26.0</ns3:atemp>
          </ns3:TrackPointExtension>
        </extensions>
      </trkpt>
      <trkpt lat="42.51638953574001789093017578125" lon="20.145929418504238128662109375">
        <ele>2086</ele>
        <time>2026-06-20T09:41:54.000Z</time>
        <extensions>
          <ns3:TrackPointExtension>
            <ns3:atemp>26.0</ns3:atemp>
          </ns3:TrackPointExtension>
        </extensions>
      </trkpt>
      <trkpt lat="42.51637838780879974365234375" lon="20.14594509266316890716552734375">
        <ele>2086.39990234375</ele>
        <time>2026-06-20T09:41:55.000Z</time>
        <extensions>
          <ns3:TrackPointExtension>
            <ns3:atemp>26.0</ns3:atemp>
          </ns3:TrackPointExtension>
        </extensions>
      </trkpt>
      <trkpt lat="42.5163661502301692962646484375" lon="20.14596487395465373992919921875">
        <ele>2086.800048828125</ele>
        <time>2026-06-20T09:41:56.000Z</time>
        <extensions>
          <ns3:TrackPointExtension>
            <ns3:atemp>26.0</ns3:atemp>
          </ns3:TrackPointExtension>
        </extensions>
      </trkpt>
      <trkpt lat="42.5163554213941097259521484375" lon="20.14598214067518711090087890625">
        <ele>2087.199951171875</ele>
        <time>2026-06-20T09:41:57.000Z</time>
        <extensions>
          <ns3:TrackPointExtension>
            <ns3:atemp>26.0</ns3:atemp>
          </ns3:TrackPointExtension>
        </extensions>
      </trkpt>
      <trkpt lat="42.5163443572819232940673828125" lon="20.14599638991057872772216796875">
        <ele>2087.800048828125</ele>
        <time>2026-06-20T09:41:58.000Z</time>
        <extensions>
          <ns3:TrackPointExtension>
            <ns3:atemp>26.0</ns3:atemp>
          </ns3:TrackPointExtension>
        </extensions>
      </trkpt>
      <trkpt lat="42.5163309462368488311767578125" lon="20.146009214222431182861328125">
        <ele>2088.199951171875</ele>
        <time>2026-06-20T09:41:59.000Z</time>
        <extensions>
          <ns3:TrackPointExtension>
            <ns3:atemp>26.0</ns3:atemp>
          </ns3:TrackPointExtension>
        </extensions>
      </trkpt>
      <trkpt lat="42.51631401479244232177734375" lon="20.14601491391658782958984375">
        <ele>2088.39990234375</ele>
        <time>2026-06-20T09:42:00.000Z</time>
        <extensions>
          <ns3:TrackPointExtension>
            <ns3:atemp>26.0</ns3:atemp>
          </ns3:TrackPointExtension>
        </extensions>
      </trkpt>
      <trkpt lat="42.51630336977541446685791015625" lon="20.14600460417568683624267578125">
        <ele>2088.60009765625</ele>
        <time>2026-06-20T09:42:01.000Z</time>
        <extensions>
          <ns3:TrackPointExtension>
            <ns3:atemp>26.0</ns3:atemp>
          </ns3:TrackPointExtension>
        </extensions>
      </trkpt>
      <trkpt lat="42.51630269922316074371337890625" lon="20.145995132625102996826171875">
        <ele>2089</ele>
        <time>2026-06-20T09:42:02.000Z</time>
        <extensions>
          <ns3:TrackPointExtension>
            <ns3:atemp>26.0</ns3:atemp>
          </ns3:TrackPointExtension>
        </extensions>
      </trkpt>
      <trkpt lat="42.51630336977541446685791015625" lon="20.1459788717329502105712890625">
        <ele>2089.39990234375</ele>
        <time>2026-06-20T09:42:03.000Z</time>
        <extensions>
          <ns3:TrackPointExtension>
            <ns3:atemp>26.0</ns3:atemp>
          </ns3:TrackPointExtension>
        </extensions>
      </trkpt>
      <trkpt lat="42.51630839891731739044189453125" lon="20.1459651254117488861083984375">
        <ele>2089.800048828125</ele>
        <time>2026-06-20T09:42:04.000Z</time>
        <extensions>
          <ns3:TrackPointExtension>
            <ns3:atemp>26.0</ns3:atemp>
          </ns3:TrackPointExtension>
        </extensions>
      </trkpt>
      <trkpt lat="42.516314685344696044921875" lon="20.1459471881389617919921875">
        <ele>2090.199951171875</ele>
        <time>2026-06-20T09:42:05.000Z</time>
        <extensions>
          <ns3:TrackPointExtension>
            <ns3:atemp>26.0</ns3:atemp>
          </ns3:TrackPointExtension>
        </extensions>
      </trkpt>
      <trkpt lat="42.51631761901080608367919921875" lon="20.145927406847476959228515625">
        <ele>2090.60009765625</ele>
        <time>2026-06-20T09:42:06.000Z</time>
        <extensions>
          <ns3:TrackPointExtension>
            <ns3:atemp>26.0</ns3:atemp>
          </ns3:TrackPointExtension>
        </extensions>
      </trkpt>
      <trkpt lat="42.5163168646395206451416015625" lon="20.14590603299438953399658203125">
        <ele>2090.800048828125</ele>
        <time>2026-06-20T09:42:07.000Z</time>
        <extensions>
          <ns3:TrackPointExtension>
            <ns3:atemp>26.0</ns3:atemp>
          </ns3:TrackPointExtension>
        </extensions>
      </trkpt>
      <trkpt lat="42.51630990765988826751708984375" lon="20.14588289894163608551025390625">
        <ele>2091</ele>
        <time>2026-06-20T09:42:08.000Z</time>
        <extensions>
          <ns3:TrackPointExtension>
            <ns3:atemp>26.0</ns3:atemp>
          </ns3:TrackPointExtension>
        </extensions>
      </trkpt>
      <trkpt lat="42.51629414968192577362060546875" lon="20.14587988145649433135986328125">
        <ele>2091.199951171875</ele>
        <time>2026-06-20T09:42:09.000Z</time>
        <extensions>
          <ns3:TrackPointExtension>
            <ns3:atemp>26.0</ns3:atemp>
          </ns3:TrackPointExtension>
        </extensions>
      </trkpt>
      <trkpt lat="42.51628928817808628082275390625" lon="20.1458933763206005096435546875">
        <ele>2091.39990234375</ele>
        <time>2026-06-20T09:42:10.000Z</time>
        <extensions>
          <ns3:TrackPointExtension>
            <ns3:atemp>26.0</ns3:atemp>
          </ns3:TrackPointExtension>
        </extensions>
      </trkpt>
      <trkpt lat="42.51627570949494838714599609375" lon="20.1459069550037384033203125">
        <ele>2091.60009765625</ele>
        <time>2026-06-20T09:42:11.000Z</time>
        <extensions>
          <ns3:TrackPointExtension>
            <ns3:atemp>26.0</ns3:atemp>
          </ns3:TrackPointExtension>
        </extensions>
      </trkpt>
      <trkpt lat="42.51626045443117618560791015625" lon="20.14590519480407238006591796875">
        <ele>2091.800048828125</ele>
        <time>2026-06-20T09:42:12.000Z</time>
        <extensions>
          <ns3:TrackPointExtension>
            <ns3:atemp>26.0</ns3:atemp>
          </ns3:TrackPointExtension>
        </extensions>
      </trkpt>
      <trkpt lat="42.516249306499958038330078125" lon="20.14588960446417331695556640625">
        <ele>2092.199951171875</ele>
        <time>2026-06-20T09:42:13.000Z</time>
        <extensions>
          <ns3:TrackPointExtension>
            <ns3:atemp>26.0</ns3:atemp>
          </ns3:TrackPointExtension>
        </extensions>
      </trkpt>
      <trkpt lat="42.51624788157641887664794921875" lon="20.145871751010417938232421875">
        <ele>2092.60009765625</ele>
        <time>2026-06-20T09:42:14.000Z</time>
        <extensions>
          <ns3:TrackPointExtension>
            <ns3:atemp>26.0</ns3:atemp>
          </ns3:TrackPointExtension>
        </extensions>
      </trkpt>
      <trkpt lat="42.516254670917987823486328125" lon="20.1458548195660114288330078125">
        <ele>2093</ele>
        <time>2026-06-20T09:42:15.000Z</time>
        <extensions>
          <ns3:TrackPointExtension>
            <ns3:atemp>26.0</ns3:atemp>
          </ns3:TrackPointExtension>
        </extensions>
      </trkpt>
      <trkpt lat="42.51626414246857166290283203125" lon="20.14583579264581203460693359375">
        <ele>2093.39990234375</ele>
        <time>2026-06-20T09:42:16.000Z</time>
        <extensions>
          <ns3:TrackPointExtension>
            <ns3:atemp>26.0</ns3:atemp>
          </ns3:TrackPointExtension>
        </extensions>
      </trkpt>
      <trkpt lat="42.51626531593501567840576171875" lon="20.145814754068851470947265625">
        <ele>2093.800048828125</ele>
        <time>2026-06-20T09:42:17.000Z</time>
        <extensions>
          <ns3:TrackPointExtension>
            <ns3:atemp>26.0</ns3:atemp>
          </ns3:TrackPointExtension>
        </extensions>
      </trkpt>
      <trkpt lat="42.51626095734536647796630859375" lon="20.14579807408154010772705078125">
        <ele>2094.199951171875</ele>
        <time>2026-06-20T09:42:18.000Z</time>
        <extensions>
          <ns3:TrackPointExtension>
            <ns3:atemp>26.0</ns3:atemp>
          </ns3:TrackPointExtension>
        </extensions>
      </trkpt>
      <trkpt lat="42.51625257544219493865966796875" lon="20.14578147791326045989990234375">
        <ele>2094.39990234375</ele>
        <time>2026-06-20T09:42:19.000Z</time>
        <extensions>
          <ns3:TrackPointExtension>
            <ns3:atemp>26.0</ns3:atemp>
          </ns3:TrackPointExtension>
        </extensions>
      </trkpt>
      <trkpt lat="42.51623949967324733734130859375" lon="20.1457756944000720977783203125">
        <ele>2094.60009765625</ele>
        <time>2026-06-20T09:42:20.000Z</time>
        <extensions>
          <ns3:TrackPointExtension>
            <ns3:atemp>26.0</ns3:atemp>
          </ns3:TrackPointExtension>
        </extensions>
      </trkpt>
      <trkpt lat="42.51622508279979228973388671875" lon="20.145778544247150421142578125">
        <ele>2095</ele>
        <time>2026-06-20T09:42:21.000Z</time>
        <extensions>
          <ns3:TrackPointExtension>
            <ns3:atemp>26.0</ns3:atemp>
          </ns3:TrackPointExtension>
        </extensions>
      </trkpt>
      <trkpt lat="42.5162132643163204193115234375" lon="20.1457884348928928375244140625">
        <ele>2095.39990234375</ele>
        <time>2026-06-20T09:42:22.000Z</time>
        <extensions>
          <ns3:TrackPointExtension>
            <ns3:atemp>26.0</ns3:atemp>
          </ns3:TrackPointExtension>
        </extensions>
      </trkpt>
      <trkpt lat="42.51619658432900905609130859375" lon="20.1457954756915569305419921875">
        <ele>2095.60009765625</ele>
        <time>2026-06-20T09:42:23.000Z</time>
        <extensions>
          <ns3:TrackPointExtension>
            <ns3:atemp>26.0</ns3:atemp>
          </ns3:TrackPointExtension>
        </extensions>
      </trkpt>
      <trkpt lat="42.51618099398910999298095703125" lon="20.14577829279005527496337890625">
        <ele>2095.800048828125</ele>
        <time>2026-06-20T09:42:24.000Z</time>
        <extensions>
          <ns3:TrackPointExtension>
            <ns3:atemp>26.0</ns3:atemp>
          </ns3:TrackPointExtension>
        </extensions>
      </trkpt>
      <trkpt lat="42.51617780886590480804443359375" lon="20.14575415290892124176025390625">
        <ele>2096</ele>
        <time>2026-06-20T09:42:25.000Z</time>
        <extensions>
          <ns3:TrackPointExtension>
            <ns3:atemp>26.0</ns3:atemp>
          </ns3:TrackPointExtension>
        </extensions>
      </trkpt>
      <trkpt lat="42.5161817483603954315185546875" lon="20.1457357965409755706787109375">
        <ele>2096.39990234375</ele>
        <time>2026-06-20T09:42:26.000Z</time>
        <extensions>
          <ns3:TrackPointExtension>
            <ns3:atemp>26.0</ns3:atemp>
          </ns3:TrackPointExtension>
        </extensions>
      </trkpt>
      <trkpt lat="42.5161887891590595245361328125" lon="20.145715177059173583984375">
        <ele>2096.60009765625</ele>
        <time>2026-06-20T09:42:27.000Z</time>
        <extensions>
          <ns3:TrackPointExtension>
            <ns3:atemp>26.0</ns3:atemp>
          </ns3:TrackPointExtension>
        </extensions>
      </trkpt>
      <trkpt lat="42.516187615692615509033203125" lon="20.14569346792995929718017578125">
        <ele>2096.800048828125</ele>
        <time>2026-06-20T09:42:28.000Z</time>
        <extensions>
          <ns3:TrackPointExtension>
            <ns3:atemp>26.0</ns3:atemp>
          </ns3:TrackPointExtension>
        </extensions>
      </trkpt>
      <trkpt lat="42.5161847658455371856689453125" lon="20.145671926438808441162109375">
        <ele>2097.199951171875</ele>
        <time>2026-06-20T09:42:29.000Z</time>
        <extensions>
          <ns3:TrackPointExtension>
            <ns3:atemp>26.0</ns3:atemp>
          </ns3:TrackPointExtension>
        </extensions>
      </trkpt>
      <trkpt lat="42.51618367619812488555908203125" lon="20.14565105549991130828857421875">
        <ele>2097.39990234375</ele>
        <time>2026-06-20T09:42:30.000Z</time>
        <extensions>
          <ns3:TrackPointExtension>
            <ns3:atemp>26.0</ns3:atemp>
          </ns3:TrackPointExtension>
        </extensions>
      </trkpt>
      <trkpt lat="42.5161763839423656463623046875" lon="20.14563043601810932159423828125">
        <ele>2097.800048828125</ele>
        <time>2026-06-20T09:42:31.000Z</time>
        <extensions>
          <ns3:TrackPointExtension>
            <ns3:atemp>26.0</ns3:atemp>
          </ns3:TrackPointExtension>
        </extensions>
      </trkpt>
      <trkpt lat="42.51616037450730800628662109375" lon="20.145618617534637451171875">
        <ele>2098.199951171875</ele>
        <time>2026-06-20T09:42:32.000Z</time>
        <extensions>
          <ns3:TrackPointExtension>
            <ns3:atemp>26.0</ns3:atemp>
          </ns3:TrackPointExtension>
        </extensions>
      </trkpt>
      <trkpt lat="42.51614369451999664306640625" lon="20.14561685733497142791748046875">
        <ele>2098.60009765625</ele>
        <time>2026-06-20T09:42:33.000Z</time>
        <extensions>
          <ns3:TrackPointExtension>
            <ns3:atemp>26.0</ns3:atemp>
          </ns3:TrackPointExtension>
        </extensions>
      </trkpt>
      <trkpt lat="42.51612936146557331085205078125" lon="20.1456218026578426361083984375">
        <ele>2099</ele>
        <time>2026-06-20T09:42:34.000Z</time>
        <extensions>
          <ns3:TrackPointExtension>
            <ns3:atemp>26.0</ns3:atemp>
          </ns3:TrackPointExtension>
        </extensions>
      </trkpt>
      <trkpt lat="42.5161173753440380096435546875" lon="20.145616270601749420166015625">
        <ele>2099.39990234375</ele>
        <time>2026-06-20T09:42:35.000Z</time>
        <extensions>
          <ns3:TrackPointExtension>
            <ns3:atemp>26.0</ns3:atemp>
          </ns3:TrackPointExtension>
        </extensions>
      </trkpt>
      <trkpt lat="42.51610924489796161651611328125" lon="20.1455958187580108642578125">
        <ele>2100</ele>
        <time>2026-06-20T09:42:36.000Z</time>
        <extensions>
          <ns3:TrackPointExtension>
            <ns3:atemp>26.0</ns3:atemp>
          </ns3:TrackPointExtension>
        </extensions>
      </trkpt>
      <trkpt lat="42.51611226238310337066650390625" lon="20.14557478018105030059814453125">
        <ele>2100.60009765625</ele>
        <time>2026-06-20T09:42:37.000Z</time>
        <extensions>
          <ns3:TrackPointExtension>
            <ns3:atemp>26.0</ns3:atemp>
          </ns3:TrackPointExtension>
        </extensions>
      </trkpt>
      <trkpt lat="42.516119219362735748291015625" lon="20.1455529034137725830078125">
        <ele>2101.199951171875</ele>
        <time>2026-06-20T09:42:38.000Z</time>
        <extensions>
          <ns3:TrackPointExtension>
            <ns3:atemp>26.0</ns3:atemp>
          </ns3:TrackPointExtension>
        </extensions>
      </trkpt>
      <trkpt lat="42.51612097956240177154541015625" lon="20.14552968554198741912841796875">
        <ele>2101.39990234375</ele>
        <time>2026-06-20T09:42:39.000Z</time>
        <extensions>
          <ns3:TrackPointExtension>
            <ns3:atemp>26.0</ns3:atemp>
          </ns3:TrackPointExtension>
        </extensions>
      </trkpt>
      <trkpt lat="42.5161213986575603485107421875" lon="20.145508311688899993896484375">
        <ele>2102</ele>
        <time>2026-06-20T09:42:40.000Z</time>
        <extensions>
          <ns3:TrackPointExtension>
            <ns3:atemp>26.0</ns3:atemp>
          </ns3:TrackPointExtension>
        </extensions>
      </trkpt>
      <trkpt lat="42.51611360348761081695556640625" lon="20.14548609964549541473388671875">
        <ele>2102.39990234375</ele>
        <time>2026-06-20T09:42:41.000Z</time>
        <extensions>
          <ns3:TrackPointExtension>
            <ns3:atemp>26.0</ns3:atemp>
          </ns3:TrackPointExtension>
        </extensions>
      </trkpt>
      <trkpt lat="42.51609868369996547698974609375" lon="20.1454806514084339141845703125">
        <ele>2102.60009765625</ele>
        <time>2026-06-20T09:42:42.000Z</time>
        <extensions>
          <ns3:TrackPointExtension>
            <ns3:atemp>26.0</ns3:atemp>
          </ns3:TrackPointExtension>
        </extensions>
      </trkpt>
      <trkpt lat="42.5160841830074787139892578125" lon="20.14549213461577892303466796875">
        <ele>2103</ele>
        <time>2026-06-20T09:42:43.000Z</time>
        <extensions>
          <ns3:TrackPointExtension>
            <ns3:atemp>26.0</ns3:atemp>
          </ns3:TrackPointExtension>
        </extensions>
      </trkpt>
      <trkpt lat="42.5160707719624042510986328125" lon="20.1455094851553440093994140625">
        <ele>2103.199951171875</ele>
        <time>2026-06-20T09:42:44.000Z</time>
        <extensions>
          <ns3:TrackPointExtension>
            <ns3:atemp>26.0</ns3:atemp>
          </ns3:TrackPointExtension>
        </extensions>
      </trkpt>
      <trkpt lat="42.51605451107025146484375" lon="20.14552214182913303375244140625">
        <ele>2103.39990234375</ele>
        <time>2026-06-20T09:42:45.000Z</time>
        <extensions>
          <ns3:TrackPointExtension>
            <ns3:atemp>26.0</ns3:atemp>
          </ns3:TrackPointExtension>
        </extensions>
      </trkpt>
      <trkpt lat="42.51603883691132068634033203125" lon="20.1455269195139408111572265625">
        <ele>2103.800048828125</ele>
        <time>2026-06-20T09:42:46.000Z</time>
        <extensions>
          <ns3:TrackPointExtension>
            <ns3:atemp>26.0</ns3:atemp>
          </ns3:TrackPointExtension>
        </extensions>
      </trkpt>
      <trkpt lat="42.51602307893335819244384765625" lon="20.14552348293364048004150390625">
        <ele>2104.199951171875</ele>
        <time>2026-06-20T09:42:47.000Z</time>
        <extensions>
          <ns3:TrackPointExtension>
            <ns3:atemp>26.0</ns3:atemp>
          </ns3:TrackPointExtension>
        </extensions>
      </trkpt>
      <trkpt lat="42.5160134397447109222412109375" lon="20.1455084793269634246826171875">
        <ele>2104.60009765625</ele>
        <time>2026-06-20T09:42:48.000Z</time>
        <extensions>
          <ns3:TrackPointExtension>
            <ns3:atemp>26.0</ns3:atemp>
          </ns3:TrackPointExtension>
        </extensions>
      </trkpt>
      <trkpt lat="42.51601838506758213043212890625" lon="20.14548651874065399169921875">
        <ele>2105.199951171875</ele>
        <time>2026-06-20T09:42:49.000Z</time>
        <extensions>
          <ns3:TrackPointExtension>
            <ns3:atemp>26.0</ns3:atemp>
          </ns3:TrackPointExtension>
        </extensions>
      </trkpt>
      <trkpt lat="42.51603104174137115478515625" lon="20.1454645581543445587158203125">
        <ele>2105.800048828125</ele>
        <time>2026-06-20T09:42:50.000Z</time>
        <extensions>
          <ns3:TrackPointExtension>
            <ns3:atemp>26.0</ns3:atemp>
          </ns3:TrackPointExtension>
        </extensions>
      </trkpt>
      <trkpt lat="42.51603615470230579376220703125" lon="20.14544226229190826416015625">
        <ele>2106.60009765625</ele>
        <time>2026-06-20T09:42:51.000Z</time>
        <extensions>
          <ns3:TrackPointExtension>
            <ns3:atemp>26.0</ns3:atemp>
          </ns3:TrackPointExtension>
        </extensions>
      </trkpt>
      <trkpt lat="42.51603028737008571624755859375" lon="20.14542927034199237823486328125">
        <ele>2107</ele>
        <time>2026-06-20T09:42:52.000Z</time>
        <extensions>
          <ns3:TrackPointExtension>
            <ns3:atemp>25.0</ns3:atemp>
          </ns3:TrackPointExtension>
        </extensions>
      </trkpt>
      <trkpt lat="42.51602190546691417694091796875" lon="20.14541619457304477691650390625">
        <ele>2107.60009765625</ele>
        <time>2026-06-20T09:42:53.000Z</time>
        <extensions>
          <ns3:TrackPointExtension>
            <ns3:atemp>25.0</ns3:atemp>
          </ns3:TrackPointExtension>
        </extensions>
      </trkpt>
      <trkpt lat="42.516015954315662384033203125" lon="20.1454028673470020294189453125">
        <ele>2108</ele>
        <time>2026-06-20T09:42:54.000Z</time>
        <extensions>
          <ns3:TrackPointExtension>
            <ns3:atemp>25.0</ns3:atemp>
          </ns3:TrackPointExtension>
        </extensions>
      </trkpt>
      <trkpt lat="42.51601318828761577606201171875" lon="20.14538937248289585113525390625">
        <ele>2108.60009765625</ele>
        <time>2026-06-20T09:42:55.000Z</time>
        <extensions>
          <ns3:TrackPointExtension>
            <ns3:atemp>25.0</ns3:atemp>
          </ns3:TrackPointExtension>
        </extensions>
      </trkpt>
      <trkpt lat="42.5160084106028079986572265625" lon="20.14537478797137737274169921875">
        <ele>2109.199951171875</ele>
        <time>2026-06-20T09:42:56.000Z</time>
        <extensions>
          <ns3:TrackPointExtension>
            <ns3:atemp>25.0</ns3:atemp>
          </ns3:TrackPointExtension>
        </extensions>
      </trkpt>
      <trkpt lat="42.5160027109086513519287109375" lon="20.14535718597471714019775390625">
        <ele>2109.60009765625</ele>
        <time>2026-06-20T09:42:57.000Z</time>
        <extensions>
          <ns3:TrackPointExtension>
            <ns3:atemp>25.0</ns3:atemp>
          </ns3:TrackPointExtension>
        </extensions>
      </trkpt>
      <trkpt lat="42.5159966759383678436279296875" lon="20.14533841051161289215087890625">
        <ele>2109.800048828125</ele>
        <time>2026-06-20T09:42:58.000Z</time>
        <extensions>
          <ns3:TrackPointExtension>
            <ns3:atemp>25.0</ns3:atemp>
          </ns3:TrackPointExtension>
        </extensions>
      </trkpt>
      <trkpt lat="42.515991814434528350830078125" lon="20.145320557057857513427734375">
        <ele>2110.199951171875</ele>
        <time>2026-06-20T09:42:59.000Z</time>
        <extensions>
          <ns3:TrackPointExtension>
            <ns3:atemp>25.0</ns3:atemp>
          </ns3:TrackPointExtension>
        </extensions>
      </trkpt>
      <trkpt lat="42.5159839354455471038818359375" lon="20.14529901556670665740966796875">
        <ele>2110.39990234375</ele>
        <time>2026-06-20T09:43:00.000Z</time>
        <extensions>
          <ns3:TrackPointExtension>
            <ns3:atemp>25.0</ns3:atemp>
          </ns3:TrackPointExtension>
        </extensions>
      </trkpt>
      <trkpt lat="42.5159675069153308868408203125" lon="20.14528644271194934844970703125">
        <ele>2110.800048828125</ele>
        <time>2026-06-20T09:43:01.000Z</time>
        <extensions>
          <ns3:TrackPointExtension>
            <ns3:atemp>25.0</ns3:atemp>
          </ns3:TrackPointExtension>
        </extensions>
      </trkpt>
      <trkpt lat="42.51595996320247650146484375" lon="20.145295746624469757080078125">
        <ele>2111</ele>
        <time>2026-06-20T09:43:02.000Z</time>
        <extensions>
          <ns3:TrackPointExtension>
            <ns3:atemp>25.0</ns3:atemp>
          </ns3:TrackPointExtension>
        </extensions>
      </trkpt>
      <trkpt lat="42.51595417968928813934326171875" lon="20.14531376771628856658935546875">
        <ele>2111.199951171875</ele>
        <time>2026-06-20T09:43:03.000Z</time>
        <extensions>
          <ns3:TrackPointExtension>
            <ns3:atemp>25.0</ns3:atemp>
          </ns3:TrackPointExtension>
        </extensions>
      </trkpt>
      <trkpt lat="42.515952251851558685302734375" lon="20.14533790759742259979248046875">
        <ele>2111.39990234375</ele>
        <time>2026-06-20T09:43:04.000Z</time>
        <extensions>
          <ns3:TrackPointExtension>
            <ns3:atemp>25.0</ns3:atemp>
          </ns3:TrackPointExtension>
        </extensions>
      </trkpt>
      <trkpt lat="42.5159443728625774383544921875" lon="20.14535148628056049346923828125">
        <ele>2111.60009765625</ele>
        <time>2026-06-20T09:43:05.000Z</time>
        <extensions>
          <ns3:TrackPointExtension>
            <ns3:atemp>25.0</ns3:atemp>
          </ns3:TrackPointExtension>
        </extensions>
      </trkpt>
      <trkpt lat="42.5159326381981372833251953125" lon="20.145350396633148193359375">
        <ele>2111.800048828125</ele>
        <time>2026-06-20T09:43:06.000Z</time>
        <extensions>
          <ns3:TrackPointExtension>
            <ns3:atemp>25.0</ns3:atemp>
          </ns3:TrackPointExtension>
        </extensions>
      </trkpt>
      <trkpt lat="42.51592216081917285919189453125" lon="20.14535299502313137054443359375">
        <ele>2112</ele>
        <time>2026-06-20T09:43:07.000Z</time>
        <extensions>
          <ns3:TrackPointExtension>
            <ns3:atemp>25.0</ns3:atemp>
          </ns3:TrackPointExtension>
        </extensions>
      </trkpt>
      <trkpt lat="42.5159121863543987274169921875" lon="20.145355425775051116943359375">
        <ele>2112.199951171875</ele>
        <time>2026-06-20T09:43:08.000Z</time>
        <extensions>
          <ns3:TrackPointExtension>
            <ns3:atemp>25.0</ns3:atemp>
          </ns3:TrackPointExtension>
        </extensions>
      </trkpt>
      <trkpt lat="42.5159190595149993896484375" lon="20.14536070637404918670654296875">
        <ele>2112.60009765625</ele>
        <time>2026-06-20T09:43:09.000Z</time>
        <extensions>
          <ns3:TrackPointExtension>
            <ns3:atemp>25.0</ns3:atemp>
          </ns3:TrackPointExtension>
        </extensions>
      </trkpt>
      <trkpt lat="42.5159212388098239898681640625" lon="20.1453596167266368865966796875">
        <ele>2112.800048828125</ele>
        <time>2026-06-20T09:43:10.000Z</time>
        <extensions>
          <ns3:TrackPointExtension>
            <ns3:atemp>25.0</ns3:atemp>
          </ns3:TrackPointExtension>
        </extensions>
      </trkpt>
      <trkpt lat="42.51592065207660198211669921875" lon="20.14536020345985889434814453125">
        <ele>2113</ele>
        <time>2026-06-20T09:43:11.000Z</time>
        <extensions>
          <ns3:TrackPointExtension>
            <ns3:atemp>25.0</ns3:atemp>
          </ns3:TrackPointExtension>
        </extensions>
      </trkpt>
      <trkpt lat="42.5159205682575702667236328125" lon="20.14536020345985889434814453125">
        <ele>2113.199951171875</ele>
        <time>2026-06-20T09:43:12.000Z</time>
        <extensions>
          <ns3:TrackPointExtension>
            <ns3:atemp>25.0</ns3:atemp>
          </ns3:TrackPointExtension>
        </extensions>
      </trkpt>
      <trkpt lat="42.5159205682575702667236328125" lon="20.14536020345985889434814453125">
        <ele>2113.199951171875</ele>
        <time>2026-06-20T09:43:13.000Z</time>
        <extensions>
          <ns3:TrackPointExtension>
            <ns3:atemp>25.0</ns3:atemp>
          </ns3:TrackPointExtension>
        </extensions>
      </trkpt>
      <trkpt lat="42.5159205682575702667236328125" lon="20.14536020345985889434814453125">
        <ele>2113.199951171875</ele>
        <time>2026-06-20T09:43:14.000Z</time>
        <extensions>
          <ns3:TrackPointExtension>
            <ns3:atemp>25.0</ns3:atemp>
          </ns3:TrackPointExtension>
        </extensions>
      </trkpt>
      <trkpt lat="42.5159205682575702667236328125" lon="20.14536020345985889434814453125">
        <ele>2113.199951171875</ele>
        <time>2026-06-20T09:43:15.000Z</time>
        <extensions>
          <ns3:TrackPointExtension>
            <ns3:atemp>25.0</ns3:atemp>
          </ns3:TrackPointExtension>
        </extensions>
      </trkpt>
      <trkpt lat="42.5159205682575702667236328125" lon="20.14536020345985889434814453125">
        <ele>2113.199951171875</ele>
        <time>2026-06-20T09:43:16.000Z</time>
        <extensions>
          <ns3:TrackPointExtension>
            <ns3:atemp>25.0</ns3:atemp>
          </ns3:TrackPointExtension>
        </extensions>
      </trkpt>
      <trkpt lat="42.5159205682575702667236328125" lon="20.14536020345985889434814453125">
        <ele>2113.199951171875</ele>
        <time>2026-06-20T09:43:17.000Z</time>
        <extensions>
          <ns3:TrackPointExtension>
            <ns3:atemp>25.0</ns3:atemp>
          </ns3:TrackPointExtension>
        </extensions>
      </trkpt>
      <trkpt lat="42.5159205682575702667236328125" lon="20.14536020345985889434814453125">
        <ele>2113.199951171875</ele>
        <time>2026-06-20T09:43:18.000Z</time>
        <extensions>
          <ns3:TrackPointExtension>
            <ns3:atemp>25.0</ns3:atemp>
          </ns3:TrackPointExtension>
        </extensions>
      </trkpt>
      <trkpt lat="42.5159205682575702667236328125" lon="20.14536020345985889434814453125">
        <ele>2113.199951171875</ele>
        <time>2026-06-20T09:43:19.000Z</time>
        <extensions>
          <ns3:TrackPointExtension>
            <ns3:atemp>25.0</ns3:atemp>
          </ns3:TrackPointExtension>
        </extensions>
      </trkpt>
      <trkpt lat="42.5159205682575702667236328125" lon="20.14536020345985889434814453125">
        <ele>2113.199951171875</ele>
        <time>2026-06-20T09:43:20.000Z</time>
        <extensions>
          <ns3:TrackPointExtension>
            <ns3:atemp>25.0</ns3:atemp>
          </ns3:TrackPointExtension>
        </extensions>
      </trkpt>
      <trkpt lat="42.5159205682575702667236328125" lon="20.14536020345985889434814453125">
        <ele>2113.199951171875</ele>
        <time>2026-06-20T09:43:21.000Z</time>
        <extensions>
          <ns3:TrackPointExtension>
            <ns3:atemp>25.0</ns3:atemp>
          </ns3:TrackPointExtension>
        </extensions>
      </trkpt>
      <trkpt lat="42.5159205682575702667236328125" lon="20.14536020345985889434814453125">
        <ele>2113.199951171875</ele>
        <time>2026-06-20T09:43:22.000Z</time>
        <extensions>
          <ns3:TrackPointExtension>
            <ns3:atemp>25.0</ns3:atemp>
          </ns3:TrackPointExtension>
        </extensions>
      </trkpt>
      <trkpt lat="42.5159205682575702667236328125" lon="20.14536020345985889434814453125">
        <ele>2113.199951171875</ele>
        <time>2026-06-20T09:43:23.000Z</time>
        <extensions>
          <ns3:TrackPointExtension>
            <ns3:atemp>25.0</ns3:atemp>
          </ns3:TrackPointExtension>
        </extensions>
      </trkpt>
      <trkpt lat="42.5159205682575702667236328125" lon="20.14536020345985889434814453125">
        <ele>2113.199951171875</ele>
        <time>2026-06-20T09:43:24.000Z</time>
        <extensions>
          <ns3:TrackPointExtension>
            <ns3:atemp>25.0</ns3:atemp>
          </ns3:TrackPointExtension>
        </extensions>
      </trkpt>
      <trkpt lat="42.5159205682575702667236328125" lon="20.14536020345985889434814453125">
        <ele>2113.199951171875</ele>
        <time>2026-06-20T09:43:25.000Z</time>
        <extensions>
          <ns3:TrackPointExtension>
            <ns3:atemp>25.0</ns3:atemp>
          </ns3:TrackPointExtension>
        </extensions>
      </trkpt>
      <trkpt lat="42.5159205682575702667236328125" lon="20.14536020345985889434814453125">
        <ele>2113.199951171875</ele>
        <time>2026-06-20T09:43:26.000Z</time>
        <extensions>
          <ns3:TrackPointExtension>
            <ns3:atemp>25.0</ns3:atemp>
          </ns3:TrackPointExtension>
        </extensions>
      </trkpt>
      <trkpt lat="42.5159205682575702667236328125" lon="20.14536020345985889434814453125">
        <ele>2113.199951171875</ele>
        <time>2026-06-20T09:43:27.000Z</time>
        <extensions>
          <ns3:TrackPointExtension>
            <ns3:atemp>25.0</ns3:atemp>
          </ns3:TrackPointExtension>
        </extensions>
      </trkpt>
      <trkpt lat="42.5159205682575702667236328125" lon="20.14536020345985889434814453125">
        <ele>2113.199951171875</ele>
        <time>2026-06-20T09:43:28.000Z</time>
        <extensions>
          <ns3:TrackPointExtension>
            <ns3:atemp>25.0</ns3:atemp>
          </ns3:TrackPointExtension>
        </extensions>
      </trkpt>
      <trkpt lat="42.5159205682575702667236328125" lon="20.14536020345985889434814453125">
        <ele>2113.199951171875</ele>
        <time>2026-06-20T09:43:29.000Z</time>
        <extensions>
          <ns3:TrackPointExtension>
            <ns3:atemp>25.0</ns3:atemp>
          </ns3:TrackPointExtension>
        </extensions>
      </trkpt>
      <trkpt lat="42.5159205682575702667236328125" lon="20.14536020345985889434814453125">
        <ele>2113.199951171875</ele>
        <time>2026-06-20T09:43:30.000Z</time>
        <extensions>
          <ns3:TrackPointExtension>
            <ns3:atemp>25.0</ns3:atemp>
          </ns3:TrackPointExtension>
        </extensions>
      </trkpt>
      <trkpt lat="42.5159205682575702667236328125" lon="20.14536020345985889434814453125">
        <ele>2113.199951171875</ele>
        <time>2026-06-20T09:43:31.000Z</time>
        <extensions>
          <ns3:TrackPointExtension>
            <ns3:atemp>25.0</ns3:atemp>
          </ns3:TrackPointExtension>
        </extensions>
      </trkpt>
      <trkpt lat="42.5159205682575702667236328125" lon="20.14536020345985889434814453125">
        <ele>2113.199951171875</ele>
        <time>2026-06-20T09:43:32.000Z</time>
        <extensions>
          <ns3:TrackPointExtension>
            <ns3:atemp>25.0</ns3:atemp>
          </ns3:TrackPointExtension>
        </extensions>
      </trkpt>
      <trkpt lat="42.5159205682575702667236328125" lon="20.14536020345985889434814453125">
        <ele>2113.199951171875</ele>
        <time>2026-06-20T09:43:33.000Z</time>
        <extensions>
          <ns3:TrackPointExtension>
            <ns3:atemp>25.0</ns3:atemp>
          </ns3:TrackPointExtension>
        </extensions>
      </trkpt>
      <trkpt lat="42.5159205682575702667236328125" lon="20.14536020345985889434814453125">
        <ele>2113.199951171875</ele>
        <time>2026-06-20T09:43:34.000Z</time>
        <extensions>
          <ns3:TrackPointExtension>
            <ns3:atemp>25.0</ns3:atemp>
          </ns3:TrackPointExtension>
        </extensions>
      </trkpt>
      <trkpt lat="42.5159205682575702667236328125" lon="20.14536020345985889434814453125">
        <ele>2113.199951171875</ele>
        <time>2026-06-20T09:43:35.000Z</time>
        <extensions>
          <ns3:TrackPointExtension>
            <ns3:atemp>25.0</ns3:atemp>
          </ns3:TrackPointExtension>
        </extensions>
      </trkpt>
      <trkpt lat="42.5159205682575702667236328125" lon="20.14536020345985889434814453125">
        <ele>2113.199951171875</ele>
        <time>2026-06-20T09:43:36.000Z</time>
        <extensions>
          <ns3:TrackPointExtension>
            <ns3:atemp>25.0</ns3:atemp>
          </ns3:TrackPointExtension>
        </extensions>
      </trkpt>
      <trkpt lat="42.5159205682575702667236328125" lon="20.14536020345985889434814453125">
        <ele>2113.199951171875</ele>
        <time>2026-06-20T09:43:37.000Z</time>
        <extensions>
          <ns3:TrackPointExtension>
            <ns3:atemp>25.0</ns3:atemp>
          </ns3:TrackPointExtension>
        </extensions>
      </trkpt>
      <trkpt lat="42.5159205682575702667236328125" lon="20.14536020345985889434814453125">
        <ele>2113.199951171875</ele>
        <time>2026-06-20T09:43:38.000Z</time>
        <extensions>
          <ns3:TrackPointExtension>
            <ns3:atemp>25.0</ns3:atemp>
          </ns3:TrackPointExtension>
        </extensions>
      </trkpt>
      <trkpt lat="42.5159205682575702667236328125" lon="20.14536020345985889434814453125">
        <ele>2113.199951171875</ele>
        <time>2026-06-20T09:43:39.000Z</time>
        <extensions>
          <ns3:TrackPointExtension>
            <ns3:atemp>25.0</ns3:atemp>
          </ns3:TrackPointExtension>
        </extensions>
      </trkpt>
      <trkpt lat="42.5159205682575702667236328125" lon="20.14536020345985889434814453125">
        <ele>2113</ele>
        <time>2026-06-20T09:43:40.000Z</time>
        <extensions>
          <ns3:TrackPointExtension>
            <ns3:atemp>25.0</ns3:atemp>
          </ns3:TrackPointExtension>
        </extensions>
      </trkpt>
      <trkpt lat="42.5159205682575702667236328125" lon="20.14536020345985889434814453125">
        <ele>2113</ele>
        <time>2026-06-20T09:43:41.000Z</time>
        <extensions>
          <ns3:TrackPointExtension>
            <ns3:atemp>25.0</ns3:atemp>
          </ns3:TrackPointExtension>
        </extensions>
      </trkpt>
      <trkpt lat="42.5159205682575702667236328125" lon="20.14536020345985889434814453125">
        <ele>2113</ele>
        <time>2026-06-20T09:43:42.000Z</time>
        <extensions>
          <ns3:TrackPointExtension>
            <ns3:atemp>25.0</ns3:atemp>
          </ns3:TrackPointExtension>
        </extensions>
      </trkpt>
      <trkpt lat="42.5159205682575702667236328125" lon="20.14536020345985889434814453125">
        <ele>2112.800048828125</ele>
        <time>2026-06-20T09:43:43.000Z</time>
        <extensions>
          <ns3:TrackPointExtension>
            <ns3:atemp>25.0</ns3:atemp>
          </ns3:TrackPointExtension>
        </extensions>
      </trkpt>
      <trkpt lat="42.5159205682575702667236328125" lon="20.14536020345985889434814453125">
        <ele>2112.800048828125</ele>
        <time>2026-06-20T09:43:44.000Z</time>
        <extensions>
          <ns3:TrackPointExtension>
            <ns3:atemp>25.0</ns3:atemp>
          </ns3:TrackPointExtension>
        </extensions>
      </trkpt>
      <trkpt lat="42.5159205682575702667236328125" lon="20.14536020345985889434814453125">
        <ele>2112.800048828125</ele>
        <time>2026-06-20T09:43:45.000Z</time>
        <extensions>
          <ns3:TrackPointExtension>
            <ns3:atemp>25.0</ns3:atemp>
          </ns3:TrackPointExtension>
        </extensions>
      </trkpt>
      <trkpt lat="42.5159205682575702667236328125" lon="20.14536020345985889434814453125">
        <ele>2112.60009765625</ele>
        <time>2026-06-20T09:43:46.000Z</time>
        <extensions>
          <ns3:TrackPointExtension>
            <ns3:atemp>25.0</ns3:atemp>
          </ns3:TrackPointExtension>
        </extensions>
      </trkpt>
      <trkpt lat="42.5159205682575702667236328125" lon="20.14536020345985889434814453125">
        <ele>2112.60009765625</ele>
        <time>2026-06-20T09:43:47.000Z</time>
        <extensions>
          <ns3:TrackPointExtension>
            <ns3:atemp>25.0</ns3:atemp>
          </ns3:TrackPointExtension>
        </extensions>
      </trkpt>
      <trkpt lat="42.5159205682575702667236328125" lon="20.14536020345985889434814453125">
        <ele>2112.60009765625</ele>
        <time>2026-06-20T09:43:48.000Z</time>
        <extensions>
          <ns3:TrackPointExtension>
            <ns3:atemp>25.0</ns3:atemp>
          </ns3:TrackPointExtension>
        </extensions>
      </trkpt>
      <trkpt lat="42.5159205682575702667236328125" lon="20.14536020345985889434814453125">
        <ele>2112.60009765625</ele>
        <time>2026-06-20T09:43:49.000Z</time>
        <extensions>
          <ns3:TrackPointExtension>
            <ns3:atemp>25.0</ns3:atemp>
          </ns3:TrackPointExtension>
        </extensions>
      </trkpt>
      <trkpt lat="42.5159205682575702667236328125" lon="20.14536020345985889434814453125">
        <ele>2112.39990234375</ele>
        <time>2026-06-20T09:43:50.000Z</time>
        <extensions>
          <ns3:TrackPointExtension>
            <ns3:atemp>25.0</ns3:atemp>
          </ns3:TrackPointExtension>
        </extensions>
      </trkpt>
      <trkpt lat="42.5159205682575702667236328125" lon="20.14536020345985889434814453125">
        <ele>2112.39990234375</ele>
        <time>2026-06-20T09:43:51.000Z</time>
        <extensions>
          <ns3:TrackPointExtension>
            <ns3:atemp>25.0</ns3:atemp>
          </ns3:TrackPointExtension>
        </extensions>
      </trkpt>
      <trkpt lat="42.5159205682575702667236328125" lon="20.14536020345985889434814453125">
        <ele>2112.39990234375</ele>
        <time>2026-06-20T09:43:52.000Z</time>
        <extensions>
          <ns3:TrackPointExtension>
            <ns3:atemp>25.0</ns3:atemp>
          </ns3:TrackPointExtension>
        </extensions>
      </trkpt>
      <trkpt lat="42.5159205682575702667236328125" lon="20.14536020345985889434814453125">
        <ele>2112.39990234375</ele>
        <time>2026-06-20T09:43:53.000Z</time>
        <extensions>
          <ns3:TrackPointExtension>
            <ns3:atemp>25.0</ns3:atemp>
          </ns3:TrackPointExtension>
        </extensions>
      </trkpt>
      <trkpt lat="42.5159205682575702667236328125" lon="20.14536020345985889434814453125">
        <ele>2112.39990234375</ele>
        <time>2026-06-20T09:43:54.000Z</time>
        <extensions>
          <ns3:TrackPointExtension>
            <ns3:atemp>25.0</ns3:atemp>
          </ns3:TrackPointExtension>
        </extensions>
      </trkpt>
      <trkpt lat="42.5159205682575702667236328125" lon="20.14536020345985889434814453125">
        <ele>2112.39990234375</ele>
        <time>2026-06-20T09:43:55.000Z</time>
        <extensions>
          <ns3:TrackPointExtension>
            <ns3:atemp>25.0</ns3:atemp>
          </ns3:TrackPointExtension>
        </extensions>
      </trkpt>
      <trkpt lat="42.5159205682575702667236328125" lon="20.14536020345985889434814453125">
        <ele>2112.39990234375</ele>
        <time>2026-06-20T09:43:56.000Z</time>
        <extensions>
          <ns3:TrackPointExtension>
            <ns3:atemp>25.0</ns3:atemp>
          </ns3:TrackPointExtension>
        </extensions>
      </trkpt>
      <trkpt lat="42.5159205682575702667236328125" lon="20.14536020345985889434814453125">
        <ele>2112.60009765625</ele>
        <time>2026-06-20T09:43:57.000Z</time>
        <extensions>
          <ns3:TrackPointExtension>
            <ns3:atemp>25.0</ns3:atemp>
          </ns3:TrackPointExtension>
        </extensions>
      </trkpt>
      <trkpt lat="42.5159205682575702667236328125" lon="20.14536020345985889434814453125">
        <ele>2112.60009765625</ele>
        <time>2026-06-20T09:43:58.000Z</time>
        <extensions>
          <ns3:TrackPointExtension>
            <ns3:atemp>25.0</ns3:atemp>
          </ns3:TrackPointExtension>
        </extensions>
      </trkpt>
      <trkpt lat="42.5159205682575702667236328125" lon="20.14536020345985889434814453125">
        <ele>2112.60009765625</ele>
        <time>2026-06-20T09:43:59.000Z</time>
        <extensions>
          <ns3:TrackPointExtension>
            <ns3:atemp>25.0</ns3:atemp>
          </ns3:TrackPointExtension>
        </extensions>
      </trkpt>
      <trkpt lat="42.5159205682575702667236328125" lon="20.14536020345985889434814453125">
        <ele>2112.60009765625</ele>
        <time>2026-06-20T09:44:00.000Z</time>
        <extensions>
          <ns3:TrackPointExtension>
            <ns3:atemp>25.0</ns3:atemp>
          </ns3:TrackPointExtension>
        </extensions>
      </trkpt>
      <trkpt lat="42.5159205682575702667236328125" lon="20.14536020345985889434814453125">
        <ele>2112.60009765625</ele>
        <time>2026-06-20T09:44:01.000Z</time>
        <extensions>
          <ns3:TrackPointExtension>
            <ns3:atemp>25.0</ns3:atemp>
          </ns3:TrackPointExtension>
        </extensions>
      </trkpt>
      <trkpt lat="42.5159205682575702667236328125" lon="20.14536020345985889434814453125">
        <ele>2112.60009765625</ele>
        <time>2026-06-20T09:44:02.000Z</time>
        <extensions>
          <ns3:TrackPointExtension>
            <ns3:atemp>25.0</ns3:atemp>
          </ns3:TrackPointExtension>
        </extensions>
      </trkpt>
      <trkpt lat="42.5159205682575702667236328125" lon="20.14536020345985889434814453125">
        <ele>2112.60009765625</ele>
        <time>2026-06-20T09:44:03.000Z</time>
        <extensions>
          <ns3:TrackPointExtension>
            <ns3:atemp>25.0</ns3:atemp>
          </ns3:TrackPointExtension>
        </extensions>
      </trkpt>
      <trkpt lat="42.5159205682575702667236328125" lon="20.14536020345985889434814453125">
        <ele>2112.60009765625</ele>
        <time>2026-06-20T09:44:04.000Z</time>
        <extensions>
          <ns3:TrackPointExtension>
            <ns3:atemp>25.0</ns3:atemp>
          </ns3:TrackPointExtension>
        </extensions>
      </trkpt>
      <trkpt lat="42.5159205682575702667236328125" lon="20.14536020345985889434814453125">
        <ele>2112.60009765625</ele>
        <time>2026-06-20T09:44:05.000Z</time>
        <extensions>
          <ns3:TrackPointExtension>
            <ns3:atemp>25.0</ns3:atemp>
          </ns3:TrackPointExtension>
        </extensions>
      </trkpt>
      <trkpt lat="42.5159205682575702667236328125" lon="20.14536020345985889434814453125">
        <ele>2112.60009765625</ele>
        <time>2026-06-20T09:44:06.000Z</time>
        <extensions>
          <ns3:TrackPointExtension>
            <ns3:atemp>25.0</ns3:atemp>
          </ns3:TrackPointExtension>
        </extensions>
      </trkpt>
      <trkpt lat="42.5159205682575702667236328125" lon="20.14536020345985889434814453125">
        <ele>2112.60009765625</ele>
        <time>2026-06-20T09:44:07.000Z</time>
        <extensions>
          <ns3:TrackPointExtension>
            <ns3:atemp>25.0</ns3:atemp>
          </ns3:TrackPointExtension>
        </extensions>
      </trkpt>
      <trkpt lat="42.5159205682575702667236328125" lon="20.14536020345985889434814453125">
        <ele>2112.60009765625</ele>
        <time>2026-06-20T09:44:08.000Z</time>
        <extensions>
          <ns3:TrackPointExtension>
            <ns3:atemp>25.0</ns3:atemp>
          </ns3:TrackPointExtension>
        </extensions>
      </trkpt>
      <trkpt lat="42.5159205682575702667236328125" lon="20.14536020345985889434814453125">
        <ele>2112.60009765625</ele>
        <time>2026-06-20T09:44:09.000Z</time>
        <extensions>
          <ns3:TrackPointExtension>
            <ns3:atemp>24.0</ns3:atemp>
          </ns3:TrackPointExtension>
        </extensions>
      </trkpt>
      <trkpt lat="42.5159205682575702667236328125" lon="20.14536020345985889434814453125">
        <ele>2112.800048828125</ele>
        <time>2026-06-20T09:44:10.000Z</time>
        <extensions>
          <ns3:TrackPointExtension>
            <ns3:atemp>25.0</ns3:atemp>
          </ns3:TrackPointExtension>
        </extensions>
      </trkpt>
      <trkpt lat="42.5159205682575702667236328125" lon="20.14536020345985889434814453125">
        <ele>2112.800048828125</ele>
        <time>2026-06-20T09:44:11.000Z</time>
        <extensions>
          <ns3:TrackPointExtension>
            <ns3:atemp>24.0</ns3:atemp>
          </ns3:TrackPointExtension>
        </extensions>
      </trkpt>
      <trkpt lat="42.515923418104648590087890625" lon="20.14536238275468349456787109375">
        <ele>2112.800048828125</ele>
        <time>2026-06-20T09:44:12.000Z</time>
        <extensions>
          <ns3:TrackPointExtension>
            <ns3:atemp>24.0</ns3:atemp>
          </ns3:TrackPointExtension>
        </extensions>
      </trkpt>
      <trkpt lat="42.5159162096679210662841796875" lon="20.14537512324750423431396484375">
        <ele>2112.800048828125</ele>
        <time>2026-06-20T09:44:13.000Z</time>
        <extensions>
          <ns3:TrackPointExtension>
            <ns3:atemp>24.0</ns3:atemp>
          </ns3:TrackPointExtension>
        </extensions>
      </trkpt>
      <trkpt lat="42.515897937119007110595703125" lon="20.14538853429257869720458984375">
        <ele>2112.800048828125</ele>
        <time>2026-06-20T09:44:14.000Z</time>
        <extensions>
          <ns3:TrackPointExtension>
            <ns3:atemp>24.0</ns3:atemp>
          </ns3:TrackPointExtension>
        </extensions>
      </trkpt>
      <trkpt lat="42.5158843584358692169189453125" lon="20.14541049487888813018798828125">
        <ele>2112.800048828125</ele>
        <time>2026-06-20T09:44:15.000Z</time>
        <extensions>
          <ns3:TrackPointExtension>
            <ns3:atemp>24.0</ns3:atemp>
          </ns3:TrackPointExtension>
        </extensions>
      </trkpt>
      <trkpt lat="42.5158709473907947540283203125" lon="20.14543463476002216339111328125">
        <ele>2113</ele>
        <time>2026-06-20T09:44:16.000Z</time>
        <extensions>
          <ns3:TrackPointExtension>
            <ns3:atemp>24.0</ns3:atemp>
          </ns3:TrackPointExtension>
        </extensions>
      </trkpt>
      <trkpt lat="42.51585829071700572967529296875" lon="20.14546028338372707366943359375">
        <ele>2113</ele>
        <time>2026-06-20T09:44:17.000Z</time>
        <extensions>
          <ns3:TrackPointExtension>
            <ns3:atemp>24.0</ns3:atemp>
          </ns3:TrackPointExtension>
        </extensions>
      </trkpt>
      <trkpt lat="42.51585024408996105194091796875" lon="20.14548651874065399169921875">
        <ele>2113.39990234375</ele>
        <time>2026-06-20T09:44:18.000Z</time>
        <extensions>
          <ns3:TrackPointExtension>
            <ns3:atemp>24.0</ns3:atemp>
          </ns3:TrackPointExtension>
        </extensions>
      </trkpt>
      <trkpt lat="42.5158474780619144439697265625" lon="20.14551426284015178680419921875">
        <ele>2113.60009765625</ele>
        <time>2026-06-20T09:44:19.000Z</time>
        <extensions>
          <ns3:TrackPointExtension>
            <ns3:atemp>24.0</ns3:atemp>
          </ns3:TrackPointExtension>
        </extensions>
      </trkpt>
      <trkpt lat="42.51584353856742382049560546875" lon="20.14553689397871494293212890625">
        <ele>2114.199951171875</ele>
        <time>2026-06-20T09:44:20.000Z</time>
        <extensions>
          <ns3:TrackPointExtension>
            <ns3:atemp>24.0</ns3:atemp>
          </ns3:TrackPointExtension>
        </extensions>
      </trkpt>
      <trkpt lat="42.51583750359714031219482421875" lon="20.145565308630466461181640625">
        <ele>2114.39990234375</ele>
        <time>2026-06-20T09:44:21.000Z</time>
        <extensions>
          <ns3:TrackPointExtension>
            <ns3:atemp>24.0</ns3:atemp>
          </ns3:TrackPointExtension>
        </extensions>
      </trkpt>
      <trkpt lat="42.51582442782819271087646484375" lon="20.14559171162545680999755859375">
        <ele>2114.800048828125</ele>
        <time>2026-06-20T09:44:22.000Z</time>
        <extensions>
          <ns3:TrackPointExtension>
            <ns3:atemp>24.0</ns3:atemp>
          </ns3:TrackPointExtension>
        </extensions>
      </trkpt>
      <trkpt lat="42.51581302843987941741943359375" lon="20.14561392366886138916015625">
        <ele>2115.199951171875</ele>
        <time>2026-06-20T09:44:23.000Z</time>
        <extensions>
          <ns3:TrackPointExtension>
            <ns3:atemp>24.0</ns3:atemp>
          </ns3:TrackPointExtension>
        </extensions>
      </trkpt>
      <trkpt lat="42.51579911448061466217041015625" lon="20.14563512988388538360595703125">
        <ele>2115.60009765625</ele>
        <time>2026-06-20T09:44:24.000Z</time>
        <extensions>
          <ns3:TrackPointExtension>
            <ns3:atemp>24.0</ns3:atemp>
          </ns3:TrackPointExtension>
        </extensions>
      </trkpt>
      <trkpt lat="42.51578067429363727569580078125" lon="20.14565357007086277008056640625">
        <ele>2116.199951171875</ele>
        <time>2026-06-20T09:44:25.000Z</time>
        <extensions>
          <ns3:TrackPointExtension>
            <ns3:atemp>24.0</ns3:atemp>
          </ns3:TrackPointExtension>
        </extensions>
      </trkpt>
      <trkpt lat="42.51576206646859645843505859375" lon="20.14566094614565372467041015625">
        <ele>2116.800048828125</ele>
        <time>2026-06-20T09:44:26.000Z</time>
        <extensions>
          <ns3:TrackPointExtension>
            <ns3:atemp>24.0</ns3:atemp>
          </ns3:TrackPointExtension>
        </extensions>
      </trkpt>
      <trkpt lat="42.5157479010522365570068359375" lon="20.1456586830317974090576171875">
        <ele>2117.199951171875</ele>
        <time>2026-06-20T09:44:27.000Z</time>
        <extensions>
          <ns3:TrackPointExtension>
            <ns3:atemp>24.0</ns3:atemp>
          </ns3:TrackPointExtension>
        </extensions>
      </trkpt>
      <trkpt lat="42.5157393515110015869140625" lon="20.14564351178705692291259765625">
        <ele>2117.800048828125</ele>
        <time>2026-06-20T09:44:28.000Z</time>
        <extensions>
          <ns3:TrackPointExtension>
            <ns3:atemp>24.0</ns3:atemp>
          </ns3:TrackPointExtension>
        </extensions>
      </trkpt>
      <trkpt lat="42.5157301314175128936767578125" lon="20.14562490396201610565185546875">
        <ele>2118.39990234375</ele>
        <time>2026-06-20T09:44:29.000Z</time>
        <extensions>
          <ns3:TrackPointExtension>
            <ns3:atemp>24.0</ns3:atemp>
          </ns3:TrackPointExtension>
        </extensions>
      </trkpt>
      <trkpt lat="42.51572124660015106201171875" lon="20.14560730196535587310791015625">
        <ele>2119</ele>
        <time>2026-06-20T09:44:30.000Z</time>
        <extensions>
          <ns3:TrackPointExtension>
            <ns3:atemp>24.0</ns3:atemp>
          </ns3:TrackPointExtension>
        </extensions>
      </trkpt>
      <trkpt lat="42.51571118831634521484375" lon="20.1455855928361415863037109375">
        <ele>2119.60009765625</ele>
        <time>2026-06-20T09:44:31.000Z</time>
        <extensions>
          <ns3:TrackPointExtension>
            <ns3:atemp>24.0</ns3:atemp>
          </ns3:TrackPointExtension>
        </extensions>
      </trkpt>
      <trkpt lat="42.5157039798796176910400390625" lon="20.1455609500408172607421875">
        <ele>2120</ele>
        <time>2026-06-20T09:44:32.000Z</time>
        <extensions>
          <ns3:TrackPointExtension>
            <ns3:atemp>24.0</ns3:atemp>
          </ns3:TrackPointExtension>
        </extensions>
      </trkpt>
      <trkpt lat="42.5156945921480655670166015625" lon="20.14553739689290523529052734375">
        <ele>2120.39990234375</ele>
        <time>2026-06-20T09:44:33.000Z</time>
        <extensions>
          <ns3:TrackPointExtension>
            <ns3:atemp>24.0</ns3:atemp>
          </ns3:TrackPointExtension>
        </extensions>
      </trkpt>
      <trkpt lat="42.5156855396926403045654296875" lon="20.145510323345661163330078125">
        <ele>2120.800048828125</ele>
        <time>2026-06-20T09:44:34.000Z</time>
        <extensions>
          <ns3:TrackPointExtension>
            <ns3:atemp>24.0</ns3:atemp>
          </ns3:TrackPointExtension>
        </extensions>
      </trkpt>
      <trkpt lat="42.5156754814088344573974609375" lon="20.1454843394458293914794921875">
        <ele>2121</ele>
        <time>2026-06-20T09:44:35.000Z</time>
        <extensions>
          <ns3:TrackPointExtension>
            <ns3:atemp>24.0</ns3:atemp>
          </ns3:TrackPointExtension>
        </extensions>
      </trkpt>
      <trkpt lat="42.5156681053340435028076171875" lon="20.14546112157404422760009765625">
        <ele>2121.39990234375</ele>
        <time>2026-06-20T09:44:36.000Z</time>
        <extensions>
          <ns3:TrackPointExtension>
            <ns3:atemp>24.0</ns3:atemp>
          </ns3:TrackPointExtension>
        </extensions>
      </trkpt>
      <trkpt lat="42.51566047780215740203857421875" lon="20.14543681405484676361083984375">
        <ele>2121.60009765625</ele>
        <time>2026-06-20T09:44:37.000Z</time>
        <extensions>
          <ns3:TrackPointExtension>
            <ns3:atemp>24.0</ns3:atemp>
          </ns3:TrackPointExtension>
        </extensions>
      </trkpt>
      <trkpt lat="42.51565687358379364013671875" lon="20.1454129256308078765869140625">
        <ele>2121.800048828125</ele>
        <time>2026-06-20T09:44:38.000Z</time>
        <extensions>
          <ns3:TrackPointExtension>
            <ns3:atemp>24.0</ns3:atemp>
          </ns3:TrackPointExtension>
        </extensions>
      </trkpt>
      <trkpt lat="42.51564874313771724700927734375" lon="20.14538727700710296630859375">
        <ele>2122.199951171875</ele>
        <time>2026-06-20T09:44:39.000Z</time>
        <extensions>
          <ns3:TrackPointExtension>
            <ns3:atemp>24.0</ns3:atemp>
          </ns3:TrackPointExtension>
        </extensions>
      </trkpt>
      <trkpt lat="42.51563935540616512298583984375" lon="20.1453653164207935333251953125">
        <ele>2122.60009765625</ele>
        <time>2026-06-20T09:44:40.000Z</time>
        <extensions>
          <ns3:TrackPointExtension>
            <ns3:atemp>24.0</ns3:atemp>
          </ns3:TrackPointExtension>
        </extensions>
      </trkpt>
      <trkpt lat="42.5156288780272006988525390625" lon="20.1453435234725475311279296875">
        <ele>2122.800048828125</ele>
        <time>2026-06-20T09:44:41.000Z</time>
        <extensions>
          <ns3:TrackPointExtension>
            <ns3:atemp>24.0</ns3:atemp>
          </ns3:TrackPointExtension>
        </extensions>
      </trkpt>
      <trkpt lat="42.51562074758112430572509765625" lon="20.1453180424869060516357421875">
        <ele>2123</ele>
        <time>2026-06-20T09:44:42.000Z</time>
        <extensions>
          <ns3:TrackPointExtension>
            <ns3:atemp>24.0</ns3:atemp>
          </ns3:TrackPointExtension>
        </extensions>
      </trkpt>
      <trkpt lat="42.51561387442052364349365234375" lon="20.14529348351061344146728515625">
        <ele>2123.39990234375</ele>
        <time>2026-06-20T09:44:43.000Z</time>
        <extensions>
          <ns3:TrackPointExtension>
            <ns3:atemp>24.0</ns3:atemp>
          </ns3:TrackPointExtension>
        </extensions>
      </trkpt>
      <trkpt lat="42.5156064145267009735107421875" lon="20.1452711038291454315185546875">
        <ele>2123.60009765625</ele>
        <time>2026-06-20T09:44:44.000Z</time>
        <extensions>
          <ns3:TrackPointExtension>
            <ns3:atemp>24.0</ns3:atemp>
          </ns3:TrackPointExtension>
        </extensions>
      </trkpt>
      <trkpt lat="42.5156040675938129425048828125" lon="20.14524646103382110595703125">
        <ele>2124</ele>
        <time>2026-06-20T09:44:45.000Z</time>
        <extensions>
          <ns3:TrackPointExtension>
            <ns3:atemp>24.0</ns3:atemp>
          </ns3:TrackPointExtension>
        </extensions>
      </trkpt>
      <trkpt lat="42.5156080909073352813720703125" lon="20.145221650600433349609375">
        <ele>2124.39990234375</ele>
        <time>2026-06-20T09:44:46.000Z</time>
        <extensions>
          <ns3:TrackPointExtension>
            <ns3:atemp>24.0</ns3:atemp>
          </ns3:TrackPointExtension>
        </extensions>
      </trkpt>
      <trkpt lat="42.5156027264893054962158203125" lon="20.14519910328090190887451171875">
        <ele>2124.800048828125</ele>
        <time>2026-06-20T09:44:47.000Z</time>
        <extensions>
          <ns3:TrackPointExtension>
            <ns3:atemp>24.0</ns3:atemp>
          </ns3:TrackPointExtension>
        </extensions>
      </trkpt>
      <trkpt lat="42.5155918300151824951171875" lon="20.145179070532321929931640625">
        <ele>2125.199951171875</ele>
        <time>2026-06-20T09:44:48.000Z</time>
        <extensions>
          <ns3:TrackPointExtension>
            <ns3:atemp>24.0</ns3:atemp>
          </ns3:TrackPointExtension>
        </extensions>
      </trkpt>
      <trkpt lat="42.51557799987494945526123046875" lon="20.1451639831066131591796875">
        <ele>2125.60009765625</ele>
        <time>2026-06-20T09:44:49.000Z</time>
        <extensions>
          <ns3:TrackPointExtension>
            <ns3:atemp>24.0</ns3:atemp>
          </ns3:TrackPointExtension>
        </extensions>
      </trkpt>
      <trkpt lat="42.51555905677378177642822265625" lon="20.14515618793666362762451171875">
        <ele>2126.199951171875</ele>
        <time>2026-06-20T09:44:50.000Z</time>
        <extensions>
          <ns3:TrackPointExtension>
            <ns3:atemp>24.0</ns3:atemp>
          </ns3:TrackPointExtension>
        </extensions>
      </trkpt>
      <trkpt lat="42.515539191663265228271484375" lon="20.1451537571847438812255859375">
        <ele>2126.60009765625</ele>
        <time>2026-06-20T09:44:51.000Z</time>
        <extensions>
          <ns3:TrackPointExtension>
            <ns3:atemp>24.0</ns3:atemp>
          </ns3:TrackPointExtension>
        </extensions>
      </trkpt>
      <trkpt lat="42.51551873981952667236328125" lon="20.14515652321279048919677734375">
        <ele>2127.199951171875</ele>
        <time>2026-06-20T09:44:52.000Z</time>
        <extensions>
          <ns3:TrackPointExtension>
            <ns3:atemp>24.0</ns3:atemp>
          </ns3:TrackPointExtension>
        </extensions>
      </trkpt>
      <trkpt lat="42.5155011378228664398193359375" lon="20.14515534974634647369384765625">
        <ele>2127.800048828125</ele>
        <time>2026-06-20T09:44:53.000Z</time>
        <extensions>
          <ns3:TrackPointExtension>
            <ns3:atemp>24.0</ns3:atemp>
          </ns3:TrackPointExtension>
        </extensions>
      </trkpt>
      <trkpt lat="42.5154872238636016845703125" lon="20.1451550982892513275146484375">
        <ele>2128.199951171875</ele>
        <time>2026-06-20T09:44:54.000Z</time>
        <extensions>
          <ns3:TrackPointExtension>
            <ns3:atemp>24.0</ns3:atemp>
          </ns3:TrackPointExtension>
        </extensions>
      </trkpt>
      <trkpt lat="42.51546987332403659820556640625" lon="20.14516255818307399749755859375">
        <ele>2128.800048828125</ele>
        <time>2026-06-20T09:44:55.000Z</time>
        <extensions>
          <ns3:TrackPointExtension>
            <ns3:atemp>24.0</ns3:atemp>
          </ns3:TrackPointExtension>
        </extensions>
      </trkpt>
      <trkpt lat="42.51545478589832782745361328125" lon="20.1451773941516876220703125">
        <ele>2129.39990234375</ele>
        <time>2026-06-20T09:44:56.000Z</time>
        <extensions>
          <ns3:TrackPointExtension>
            <ns3:atemp>24.0</ns3:atemp>
          </ns3:TrackPointExtension>
        </extensions>
      </trkpt>
      <trkpt lat="42.5154461525380611419677734375" lon="20.145199857652187347412109375">
        <ele>2130</ele>
        <time>2026-06-20T09:44:57.000Z</time>
        <extensions>
          <ns3:TrackPointExtension>
            <ns3:atemp>24.0</ns3:atemp>
          </ns3:TrackPointExtension>
        </extensions>
      </trkpt>
      <trkpt lat="42.51543500460684299468994140625" lon="20.14522156678140163421630859375">
        <ele>2130.39990234375</ele>
        <time>2026-06-20T09:44:58.000Z</time>
        <extensions>
          <ns3:TrackPointExtension>
            <ns3:atemp>24.0</ns3:atemp>
          </ns3:TrackPointExtension>
        </extensions>
      </trkpt>
      <trkpt lat="42.51542394049465656280517578125" lon="20.14523833058774471282958984375">
        <ele>2130.800048828125</ele>
        <time>2026-06-20T09:44:59.000Z</time>
        <extensions>
          <ns3:TrackPointExtension>
            <ns3:atemp>24.0</ns3:atemp>
          </ns3:TrackPointExtension>
        </extensions>
      </trkpt>
      <trkpt lat="42.51541815698146820068359375" lon="20.14525978825986385345458984375">
        <ele>2131.39990234375</ele>
        <time>2026-06-20T09:45:00.000Z</time>
        <extensions>
          <ns3:TrackPointExtension>
            <ns3:atemp>24.0</ns3:atemp>
          </ns3:TrackPointExtension>
        </extensions>
      </trkpt>
      <trkpt lat="42.5154096074402332305908203125" lon="20.14528107829391956329345703125">
        <ele>2132</ele>
        <time>2026-06-20T09:45:01.000Z</time>
        <extensions>
          <ns3:TrackPointExtension>
            <ns3:atemp>24.0</ns3:atemp>
          </ns3:TrackPointExtension>
        </extensions>
      </trkpt>
      <trkpt lat="42.5153995491564273834228515625" lon="20.14529683627188205718994140625">
        <ele>2132.39990234375</ele>
        <time>2026-06-20T09:45:02.000Z</time>
        <extensions>
          <ns3:TrackPointExtension>
            <ns3:atemp>24.0</ns3:atemp>
          </ns3:TrackPointExtension>
        </extensions>
      </trkpt>
      <trkpt lat="42.51538739539682865142822265625" lon="20.14531427063047885894775390625">
        <ele>2132.800048828125</ele>
        <time>2026-06-20T09:45:03.000Z</time>
        <extensions>
          <ns3:TrackPointExtension>
            <ns3:atemp>24.0</ns3:atemp>
          </ns3:TrackPointExtension>
        </extensions>
      </trkpt>
      <trkpt lat="42.515370212495326995849609375" lon="20.14532449655234813690185546875">
        <ele>2133.39990234375</ele>
        <time>2026-06-20T09:45:04.000Z</time>
        <extensions>
          <ns3:TrackPointExtension>
            <ns3:atemp>24.0</ns3:atemp>
          </ns3:TrackPointExtension>
        </extensions>
      </trkpt>
      <trkpt lat="42.5153556279838085174560546875" lon="20.14533254317939281463623046875">
        <ele>2133.800048828125</ele>
        <time>2026-06-20T09:45:05.000Z</time>
        <extensions>
          <ns3:TrackPointExtension>
            <ns3:atemp>24.0</ns3:atemp>
          </ns3:TrackPointExtension>
        </extensions>
      </trkpt>
      <trkpt lat="42.51533769071102142333984375" lon="20.14532919041812419891357421875">
        <ele>2134.39990234375</ele>
        <time>2026-06-20T09:45:06.000Z</time>
        <extensions>
          <ns3:TrackPointExtension>
            <ns3:atemp>24.0</ns3:atemp>
          </ns3:TrackPointExtension>
        </extensions>
      </trkpt>
      <trkpt lat="42.5153224356472492218017578125" lon="20.14531644992530345916748046875">
        <ele>2134.800048828125</ele>
        <time>2026-06-20T09:45:07.000Z</time>
        <extensions>
          <ns3:TrackPointExtension>
            <ns3:atemp>24.0</ns3:atemp>
          </ns3:TrackPointExtension>
        </extensions>
      </trkpt>
      <trkpt lat="42.515315227210521697998046875" lon="20.14529549516737461090087890625">
        <ele>2135.39990234375</ele>
        <time>2026-06-20T09:45:08.000Z</time>
        <extensions>
          <ns3:TrackPointExtension>
            <ns3:atemp>24.0</ns3:atemp>
          </ns3:TrackPointExtension>
        </extensions>
      </trkpt>
      <trkpt lat="42.5153107009828090667724609375" lon="20.1452766358852386474609375">
        <ele>2135.800048828125</ele>
        <time>2026-06-20T09:45:09.000Z</time>
        <extensions>
          <ns3:TrackPointExtension>
            <ns3:atemp>24.0</ns3:atemp>
          </ns3:TrackPointExtension>
        </extensions>
      </trkpt>
      <trkpt lat="42.51530357636511325836181640625" lon="20.14525526203215122222900390625">
        <ele>2136.199951171875</ele>
        <time>2026-06-20T09:45:10.000Z</time>
        <extensions>
          <ns3:TrackPointExtension>
            <ns3:atemp>24.0</ns3:atemp>
          </ns3:TrackPointExtension>
        </extensions>
      </trkpt>
      <trkpt lat="42.51529552973806858062744140625" lon="20.14523799531161785125732421875">
        <ele>2136.60009765625</ele>
        <time>2026-06-20T09:45:11.000Z</time>
        <extensions>
          <ns3:TrackPointExtension>
            <ns3:atemp>24.0</ns3:atemp>
          </ns3:TrackPointExtension>
        </extensions>
      </trkpt>
      <trkpt lat="42.5152879022061824798583984375" lon="20.14522274024784564971923828125">
        <ele>2137</ele>
        <time>2026-06-20T09:45:12.000Z</time>
        <extensions>
          <ns3:TrackPointExtension>
            <ns3:atemp>24.0</ns3:atemp>
          </ns3:TrackPointExtension>
        </extensions>
      </trkpt>
      <trkpt lat="42.51527859829366207122802734375" lon="20.1452084071934223175048828125">
        <ele>2137.199951171875</ele>
        <time>2026-06-20T09:45:13.000Z</time>
        <extensions>
          <ns3:TrackPointExtension>
            <ns3:atemp>24.0</ns3:atemp>
          </ns3:TrackPointExtension>
        </extensions>
      </trkpt>
      <trkpt lat="42.51526988111436367034912109375" lon="20.14519214630126953125">
        <ele>2137.60009765625</ele>
        <time>2026-06-20T09:45:14.000Z</time>
        <extensions>
          <ns3:TrackPointExtension>
            <ns3:atemp>24.0</ns3:atemp>
          </ns3:TrackPointExtension>
        </extensions>
      </trkpt>
      <trkpt lat="42.51526518724858760833740234375" lon="20.14518099837005138397216796875">
        <ele>2138.199951171875</ele>
        <time>2026-06-20T09:45:15.000Z</time>
        <extensions>
          <ns3:TrackPointExtension>
            <ns3:atemp>24.0</ns3:atemp>
          </ns3:TrackPointExtension>
        </extensions>
      </trkpt>
      <trkpt lat="42.51525630243122577667236328125" lon="20.145163647830486297607421875">
        <ele>2138.60009765625</ele>
        <time>2026-06-20T09:45:16.000Z</time>
        <extensions>
          <ns3:TrackPointExtension>
            <ns3:atemp>24.0</ns3:atemp>
          </ns3:TrackPointExtension>
        </extensions>
      </trkpt>
      <trkpt lat="42.5152619183063507080078125" lon="20.14515928924083709716796875">
        <ele>2139.199951171875</ele>
        <time>2026-06-20T09:45:17.000Z</time>
        <extensions>
          <ns3:TrackPointExtension>
            <ns3:atemp>24.0</ns3:atemp>
          </ns3:TrackPointExtension>
        </extensions>
      </trkpt>
      <trkpt lat="42.51525931991636753082275390625" lon="20.14515870250761508941650390625">
        <ele>2139.60009765625</ele>
        <time>2026-06-20T09:45:18.000Z</time>
        <extensions>
          <ns3:TrackPointExtension>
            <ns3:atemp>24.0</ns3:atemp>
          </ns3:TrackPointExtension>
        </extensions>
      </trkpt>
      <trkpt lat="42.5152565538883209228515625" lon="20.14516138471662998199462890625">
        <ele>2140</ele>
        <time>2026-06-20T09:45:19.000Z</time>
        <extensions>
          <ns3:TrackPointExtension>
            <ns3:atemp>24.0</ns3:atemp>
          </ns3:TrackPointExtension>
        </extensions>
      </trkpt>
      <trkpt lat="42.5152565538883209228515625" lon="20.14516138471662998199462890625">
        <ele>2140.39990234375</ele>
        <time>2026-06-20T09:45:20.000Z</time>
        <extensions>
          <ns3:TrackPointExtension>
            <ns3:atemp>24.0</ns3:atemp>
          </ns3:TrackPointExtension>
        </extensions>
      </trkpt>
      <trkpt lat="42.5152565538883209228515625" lon="20.14516138471662998199462890625">
        <ele>2140.60009765625</ele>
        <time>2026-06-20T09:45:21.000Z</time>
        <extensions>
          <ns3:TrackPointExtension>
            <ns3:atemp>24.0</ns3:atemp>
          </ns3:TrackPointExtension>
        </extensions>
      </trkpt>
      <trkpt lat="42.5152565538883209228515625" lon="20.14516138471662998199462890625">
        <ele>2140.800048828125</ele>
        <time>2026-06-20T09:45:22.000Z</time>
        <extensions>
          <ns3:TrackPointExtension>
            <ns3:atemp>24.0</ns3:atemp>
          </ns3:TrackPointExtension>
        </extensions>
      </trkpt>
      <trkpt lat="42.5152565538883209228515625" lon="20.14516138471662998199462890625">
        <ele>2140.800048828125</ele>
        <time>2026-06-20T09:45:23.000Z</time>
        <extensions>
          <ns3:TrackPointExtension>
            <ns3:atemp>24.0</ns3:atemp>
          </ns3:TrackPointExtension>
        </extensions>
      </trkpt>
      <trkpt lat="42.5152565538883209228515625" lon="20.14516138471662998199462890625">
        <ele>2140.800048828125</ele>
        <time>2026-06-20T09:45:24.000Z</time>
        <extensions>
          <ns3:TrackPointExtension>
            <ns3:atemp>24.0</ns3:atemp>
          </ns3:TrackPointExtension>
        </extensions>
      </trkpt>
      <trkpt lat="42.5152565538883209228515625" lon="20.14516138471662998199462890625">
        <ele>2140.60009765625</ele>
        <time>2026-06-20T09:45:25.000Z</time>
        <extensions>
          <ns3:TrackPointExtension>
            <ns3:atemp>24.0</ns3:atemp>
          </ns3:TrackPointExtension>
        </extensions>
      </trkpt>
      <trkpt lat="42.5152565538883209228515625" lon="20.14516138471662998199462890625">
        <ele>2140.60009765625</ele>
        <time>2026-06-20T09:45:26.000Z</time>
        <extensions>
          <ns3:TrackPointExtension>
            <ns3:atemp>24.0</ns3:atemp>
          </ns3:TrackPointExtension>
        </extensions>
      </trkpt>
      <trkpt lat="42.5152565538883209228515625" lon="20.14516138471662998199462890625">
        <ele>2140.60009765625</ele>
        <time>2026-06-20T09:45:27.000Z</time>
        <extensions>
          <ns3:TrackPointExtension>
            <ns3:atemp>24.0</ns3:atemp>
          </ns3:TrackPointExtension>
        </extensions>
      </trkpt>
      <trkpt lat="42.5152565538883209228515625" lon="20.14516138471662998199462890625">
        <ele>2140.39990234375</ele>
        <time>2026-06-20T09:45:28.000Z</time>
        <extensions>
          <ns3:TrackPointExtension>
            <ns3:atemp>24.0</ns3:atemp>
          </ns3:TrackPointExtension>
        </extensions>
      </trkpt>
      <trkpt lat="42.5152565538883209228515625" lon="20.14516138471662998199462890625">
        <ele>2140.39990234375</ele>
        <time>2026-06-20T09:45:29.000Z</time>
        <extensions>
          <ns3:TrackPointExtension>
            <ns3:atemp>24.0</ns3:atemp>
          </ns3:TrackPointExtension>
        </extensions>
      </trkpt>
      <trkpt lat="42.5152565538883209228515625" lon="20.14516138471662998199462890625">
        <ele>2140.199951171875</ele>
        <time>2026-06-20T09:45:30.000Z</time>
        <extensions>
          <ns3:TrackPointExtension>
            <ns3:atemp>24.0</ns3:atemp>
          </ns3:TrackPointExtension>
        </extensions>
      </trkpt>
      <trkpt lat="42.5152565538883209228515625" lon="20.14516138471662998199462890625">
        <ele>2140</ele>
        <time>2026-06-20T09:45:31.000Z</time>
        <extensions>
          <ns3:TrackPointExtension>
            <ns3:atemp>24.0</ns3:atemp>
          </ns3:TrackPointExtension>
        </extensions>
      </trkpt>
      <trkpt lat="42.5152565538883209228515625" lon="20.14516138471662998199462890625">
        <ele>2140</ele>
        <time>2026-06-20T09:45:32.000Z</time>
        <extensions>
          <ns3:TrackPointExtension>
            <ns3:atemp>24.0</ns3:atemp>
          </ns3:TrackPointExtension>
        </extensions>
      </trkpt>
      <trkpt lat="42.5152565538883209228515625" lon="20.14516138471662998199462890625">
        <ele>2140</ele>
        <time>2026-06-20T09:45:33.000Z</time>
        <extensions>
          <ns3:TrackPointExtension>
            <ns3:atemp>24.0</ns3:atemp>
          </ns3:TrackPointExtension>
        </extensions>
      </trkpt>
      <trkpt lat="42.5152565538883209228515625" lon="20.14516138471662998199462890625">
        <ele>2140</ele>
        <time>2026-06-20T09:45:34.000Z</time>
        <extensions>
          <ns3:TrackPointExtension>
            <ns3:atemp>23.0</ns3:atemp>
          </ns3:TrackPointExtension>
        </extensions>
      </trkpt>
      <trkpt lat="42.5152565538883209228515625" lon="20.14516138471662998199462890625">
        <ele>2140.199951171875</ele>
        <time>2026-06-20T09:45:35.000Z</time>
        <extensions>
          <ns3:TrackPointExtension>
            <ns3:atemp>23.0</ns3:atemp>
          </ns3:TrackPointExtension>
        </extensions>
      </trkpt>
      <trkpt lat="42.5152565538883209228515625" lon="20.14516138471662998199462890625">
        <ele>2140.199951171875</ele>
        <time>2026-06-20T09:45:36.000Z</time>
        <extensions>
          <ns3:TrackPointExtension>
            <ns3:atemp>23.0</ns3:atemp>
          </ns3:TrackPointExtension>
        </extensions>
      </trkpt>
      <trkpt lat="42.5152565538883209228515625" lon="20.14516138471662998199462890625">
        <ele>2140.199951171875</ele>
        <time>2026-06-20T09:45:37.000Z</time>
        <extensions>
          <ns3:TrackPointExtension>
            <ns3:atemp>23.0</ns3:atemp>
          </ns3:TrackPointExtension>
        </extensions>
      </trkpt>
      <trkpt lat="42.5152565538883209228515625" lon="20.14516138471662998199462890625">
        <ele>2140.199951171875</ele>
        <time>2026-06-20T09:45:38.000Z</time>
        <extensions>
          <ns3:TrackPointExtension>
            <ns3:atemp>23.0</ns3:atemp>
          </ns3:TrackPointExtension>
        </extensions>
      </trkpt>
      <trkpt lat="42.5152565538883209228515625" lon="20.14516138471662998199462890625">
        <ele>2140.199951171875</ele>
        <time>2026-06-20T09:45:39.000Z</time>
        <extensions>
          <ns3:TrackPointExtension>
            <ns3:atemp>23.0</ns3:atemp>
          </ns3:TrackPointExtension>
        </extensions>
      </trkpt>
      <trkpt lat="42.5152565538883209228515625" lon="20.14516138471662998199462890625">
        <ele>2140</ele>
        <time>2026-06-20T09:45:40.000Z</time>
        <extensions>
          <ns3:TrackPointExtension>
            <ns3:atemp>23.0</ns3:atemp>
          </ns3:TrackPointExtension>
        </extensions>
      </trkpt>
      <trkpt lat="42.5152565538883209228515625" lon="20.14516138471662998199462890625">
        <ele>2140</ele>
        <time>2026-06-20T09:45:41.000Z</time>
        <extensions>
          <ns3:TrackPointExtension>
            <ns3:atemp>23.0</ns3:atemp>
          </ns3:TrackPointExtension>
        </extensions>
      </trkpt>
      <trkpt lat="42.5152565538883209228515625" lon="20.14516138471662998199462890625">
        <ele>2140</ele>
        <time>2026-06-20T09:45:42.000Z</time>
        <extensions>
          <ns3:TrackPointExtension>
            <ns3:atemp>23.0</ns3:atemp>
          </ns3:TrackPointExtension>
        </extensions>
      </trkpt>
      <trkpt lat="42.5152565538883209228515625" lon="20.14516138471662998199462890625">
        <ele>2140</ele>
        <time>2026-06-20T09:45:43.000Z</time>
        <extensions>
          <ns3:TrackPointExtension>
            <ns3:atemp>23.0</ns3:atemp>
          </ns3:TrackPointExtension>
        </extensions>
      </trkpt>
      <trkpt lat="42.5152565538883209228515625" lon="20.14516138471662998199462890625">
        <ele>2140</ele>
        <time>2026-06-20T09:45:44.000Z</time>
        <extensions>
          <ns3:TrackPointExtension>
            <ns3:atemp>23.0</ns3:atemp>
          </ns3:TrackPointExtension>
        </extensions>
      </trkpt>
      <trkpt lat="42.5152565538883209228515625" lon="20.14516138471662998199462890625">
        <ele>2139.800048828125</ele>
        <time>2026-06-20T09:45:45.000Z</time>
        <extensions>
          <ns3:TrackPointExtension>
            <ns3:atemp>23.0</ns3:atemp>
          </ns3:TrackPointExtension>
        </extensions>
      </trkpt>
      <trkpt lat="42.5152565538883209228515625" lon="20.14516138471662998199462890625">
        <ele>2139.800048828125</ele>
        <time>2026-06-20T09:45:46.000Z</time>
        <extensions>
          <ns3:TrackPointExtension>
            <ns3:atemp>23.0</ns3:atemp>
          </ns3:TrackPointExtension>
        </extensions>
      </trkpt>
      <trkpt lat="42.5152565538883209228515625" lon="20.14516138471662998199462890625">
        <ele>2139.800048828125</ele>
        <time>2026-06-20T09:45:47.000Z</time>
        <extensions>
          <ns3:TrackPointExtension>
            <ns3:atemp>23.0</ns3:atemp>
          </ns3:TrackPointExtension>
        </extensions>
      </trkpt>
      <trkpt lat="42.5152565538883209228515625" lon="20.14516138471662998199462890625">
        <ele>2139.800048828125</ele>
        <time>2026-06-20T09:45:48.000Z</time>
        <extensions>
          <ns3:TrackPointExtension>
            <ns3:atemp>23.0</ns3:atemp>
          </ns3:TrackPointExtension>
        </extensions>
      </trkpt>
      <trkpt lat="42.5152565538883209228515625" lon="20.14516138471662998199462890625">
        <ele>2139.800048828125</ele>
        <time>2026-06-20T09:45:49.000Z</time>
        <extensions>
          <ns3:TrackPointExtension>
            <ns3:atemp>23.0</ns3:atemp>
          </ns3:TrackPointExtension>
        </extensions>
      </trkpt>
      <trkpt lat="42.5152565538883209228515625" lon="20.14516138471662998199462890625">
        <ele>2139.800048828125</ele>
        <time>2026-06-20T09:45:50.000Z</time>
        <extensions>
          <ns3:TrackPointExtension>
            <ns3:atemp>23.0</ns3:atemp>
          </ns3:TrackPointExtension>
        </extensions>
      </trkpt>
      <trkpt lat="42.5152565538883209228515625" lon="20.14516138471662998199462890625">
        <ele>2139.800048828125</ele>
        <time>2026-06-20T09:45:51.000Z</time>
        <extensions>
          <ns3:TrackPointExtension>
            <ns3:atemp>23.0</ns3:atemp>
          </ns3:TrackPointExtension>
        </extensions>
      </trkpt>
      <trkpt lat="42.5152565538883209228515625" lon="20.14516138471662998199462890625">
        <ele>2139.800048828125</ele>
        <time>2026-06-20T09:45:52.000Z</time>
        <extensions>
          <ns3:TrackPointExtension>
            <ns3:atemp>23.0</ns3:atemp>
          </ns3:TrackPointExtension>
        </extensions>
      </trkpt>
      <trkpt lat="42.5152565538883209228515625" lon="20.14516138471662998199462890625">
        <ele>2139.60009765625</ele>
        <time>2026-06-20T09:45:53.000Z</time>
        <extensions>
          <ns3:TrackPointExtension>
            <ns3:atemp>23.0</ns3:atemp>
          </ns3:TrackPointExtension>
        </extensions>
      </trkpt>
      <trkpt lat="42.5152565538883209228515625" lon="20.14516138471662998199462890625">
        <ele>2139.60009765625</ele>
        <time>2026-06-20T09:45:54.000Z</time>
        <extensions>
          <ns3:TrackPointExtension>
            <ns3:atemp>23.0</ns3:atemp>
          </ns3:TrackPointExtension>
        </extensions>
      </trkpt>
      <trkpt lat="42.5152565538883209228515625" lon="20.14516138471662998199462890625">
        <ele>2139.60009765625</ele>
        <time>2026-06-20T09:45:55.000Z</time>
        <extensions>
          <ns3:TrackPointExtension>
            <ns3:atemp>23.0</ns3:atemp>
          </ns3:TrackPointExtension>
        </extensions>
      </trkpt>
      <trkpt lat="42.5152565538883209228515625" lon="20.14516138471662998199462890625">
        <ele>2139.39990234375</ele>
        <time>2026-06-20T09:45:56.000Z</time>
        <extensions>
          <ns3:TrackPointExtension>
            <ns3:atemp>23.0</ns3:atemp>
          </ns3:TrackPointExtension>
        </extensions>
      </trkpt>
      <trkpt lat="42.5152565538883209228515625" lon="20.14516138471662998199462890625">
        <ele>2139.39990234375</ele>
        <time>2026-06-20T09:45:57.000Z</time>
        <extensions>
          <ns3:TrackPointExtension>
            <ns3:atemp>23.0</ns3:atemp>
          </ns3:TrackPointExtension>
        </extensions>
      </trkpt>
      <trkpt lat="42.5152565538883209228515625" lon="20.14516138471662998199462890625">
        <ele>2139.39990234375</ele>
        <time>2026-06-20T09:45:58.000Z</time>
        <extensions>
          <ns3:TrackPointExtension>
            <ns3:atemp>23.0</ns3:atemp>
          </ns3:TrackPointExtension>
        </extensions>
      </trkpt>
      <trkpt lat="42.5152565538883209228515625" lon="20.14516138471662998199462890625">
        <ele>2139.39990234375</ele>
        <time>2026-06-20T09:45:59.000Z</time>
        <extensions>
          <ns3:TrackPointExtension>
            <ns3:atemp>23.0</ns3:atemp>
          </ns3:TrackPointExtension>
        </extensions>
      </trkpt>
      <trkpt lat="42.5152565538883209228515625" lon="20.14516138471662998199462890625">
        <ele>2139.39990234375</ele>
        <time>2026-06-20T09:46:00.000Z</time>
        <extensions>
          <ns3:TrackPointExtension>
            <ns3:atemp>23.0</ns3:atemp>
          </ns3:TrackPointExtension>
        </extensions>
      </trkpt>
      <trkpt lat="42.5152565538883209228515625" lon="20.14516138471662998199462890625">
        <ele>2139.199951171875</ele>
        <time>2026-06-20T09:46:01.000Z</time>
        <extensions>
          <ns3:TrackPointExtension>
            <ns3:atemp>23.0</ns3:atemp>
          </ns3:TrackPointExtension>
        </extensions>
      </trkpt>
      <trkpt lat="42.5152565538883209228515625" lon="20.14516138471662998199462890625">
        <ele>2139.199951171875</ele>
        <time>2026-06-20T09:46:02.000Z</time>
        <extensions>
          <ns3:TrackPointExtension>
            <ns3:atemp>23.0</ns3:atemp>
          </ns3:TrackPointExtension>
        </extensions>
      </trkpt>
      <trkpt lat="42.5152565538883209228515625" lon="20.14516138471662998199462890625">
        <ele>2139.199951171875</ele>
        <time>2026-06-20T09:46:03.000Z</time>
        <extensions>
          <ns3:TrackPointExtension>
            <ns3:atemp>23.0</ns3:atemp>
          </ns3:TrackPointExtension>
        </extensions>
      </trkpt>
      <trkpt lat="42.5152565538883209228515625" lon="20.14516138471662998199462890625">
        <ele>2139.199951171875</ele>
        <time>2026-06-20T09:46:04.000Z</time>
        <extensions>
          <ns3:TrackPointExtension>
            <ns3:atemp>23.0</ns3:atemp>
          </ns3:TrackPointExtension>
        </extensions>
      </trkpt>
      <trkpt lat="42.5152565538883209228515625" lon="20.14516138471662998199462890625">
        <ele>2139.199951171875</ele>
        <time>2026-06-20T09:46:05.000Z</time>
        <extensions>
          <ns3:TrackPointExtension>
            <ns3:atemp>23.0</ns3:atemp>
          </ns3:TrackPointExtension>
        </extensions>
      </trkpt>
      <trkpt lat="42.5152565538883209228515625" lon="20.14516138471662998199462890625">
        <ele>2139.199951171875</ele>
        <time>2026-06-20T09:46:06.000Z</time>
        <extensions>
          <ns3:TrackPointExtension>
            <ns3:atemp>23.0</ns3:atemp>
          </ns3:TrackPointExtension>
        </extensions>
      </trkpt>
      <trkpt lat="42.5152565538883209228515625" lon="20.14516138471662998199462890625">
        <ele>2139.199951171875</ele>
        <time>2026-06-20T09:46:07.000Z</time>
        <extensions>
          <ns3:TrackPointExtension>
            <ns3:atemp>23.0</ns3:atemp>
          </ns3:TrackPointExtension>
        </extensions>
      </trkpt>
      <trkpt lat="42.5152565538883209228515625" lon="20.14516138471662998199462890625">
        <ele>2139.199951171875</ele>
        <time>2026-06-20T09:46:08.000Z</time>
        <extensions>
          <ns3:TrackPointExtension>
            <ns3:atemp>23.0</ns3:atemp>
          </ns3:TrackPointExtension>
        </extensions>
      </trkpt>
      <trkpt lat="42.5152565538883209228515625" lon="20.14516138471662998199462890625">
        <ele>2139.39990234375</ele>
        <time>2026-06-20T09:46:09.000Z</time>
        <extensions>
          <ns3:TrackPointExtension>
            <ns3:atemp>23.0</ns3:atemp>
          </ns3:TrackPointExtension>
        </extensions>
      </trkpt>
      <trkpt lat="42.5152565538883209228515625" lon="20.14516138471662998199462890625">
        <ele>2139.39990234375</ele>
        <time>2026-06-20T09:46:10.000Z</time>
        <extensions>
          <ns3:TrackPointExtension>
            <ns3:atemp>23.0</ns3:atemp>
          </ns3:TrackPointExtension>
        </extensions>
      </trkpt>
      <trkpt lat="42.5152565538883209228515625" lon="20.14516138471662998199462890625">
        <ele>2139.39990234375</ele>
        <time>2026-06-20T09:46:11.000Z</time>
        <extensions>
          <ns3:TrackPointExtension>
            <ns3:atemp>23.0</ns3:atemp>
          </ns3:TrackPointExtension>
        </extensions>
      </trkpt>
      <trkpt lat="42.5152565538883209228515625" lon="20.14516138471662998199462890625">
        <ele>2139.39990234375</ele>
        <time>2026-06-20T09:46:12.000Z</time>
        <extensions>
          <ns3:TrackPointExtension>
            <ns3:atemp>23.0</ns3:atemp>
          </ns3:TrackPointExtension>
        </extensions>
      </trkpt>
      <trkpt lat="42.5152565538883209228515625" lon="20.14516138471662998199462890625">
        <ele>2139.39990234375</ele>
        <time>2026-06-20T09:46:13.000Z</time>
        <extensions>
          <ns3:TrackPointExtension>
            <ns3:atemp>23.0</ns3:atemp>
          </ns3:TrackPointExtension>
        </extensions>
      </trkpt>
      <trkpt lat="42.5152565538883209228515625" lon="20.14516138471662998199462890625">
        <ele>2139.39990234375</ele>
        <time>2026-06-20T09:46:14.000Z</time>
        <extensions>
          <ns3:TrackPointExtension>
            <ns3:atemp>23.0</ns3:atemp>
          </ns3:TrackPointExtension>
        </extensions>
      </trkpt>
      <trkpt lat="42.5152565538883209228515625" lon="20.14516138471662998199462890625">
        <ele>2139.39990234375</ele>
        <time>2026-06-20T09:46:15.000Z</time>
        <extensions>
          <ns3:TrackPointExtension>
            <ns3:atemp>23.0</ns3:atemp>
          </ns3:TrackPointExtension>
        </extensions>
      </trkpt>
      <trkpt lat="42.5152565538883209228515625" lon="20.14516138471662998199462890625">
        <ele>2139.39990234375</ele>
        <time>2026-06-20T09:46:16.000Z</time>
        <extensions>
          <ns3:TrackPointExtension>
            <ns3:atemp>23.0</ns3:atemp>
          </ns3:TrackPointExtension>
        </extensions>
      </trkpt>
      <trkpt lat="42.5152565538883209228515625" lon="20.14516138471662998199462890625">
        <ele>2139.60009765625</ele>
        <time>2026-06-20T09:46:17.000Z</time>
        <extensions>
          <ns3:TrackPointExtension>
            <ns3:atemp>23.0</ns3:atemp>
          </ns3:TrackPointExtension>
        </extensions>
      </trkpt>
      <trkpt lat="42.5152565538883209228515625" lon="20.14516138471662998199462890625">
        <ele>2139.60009765625</ele>
        <time>2026-06-20T09:46:18.000Z</time>
        <extensions>
          <ns3:TrackPointExtension>
            <ns3:atemp>23.0</ns3:atemp>
          </ns3:TrackPointExtension>
        </extensions>
      </trkpt>
      <trkpt lat="42.5152565538883209228515625" lon="20.14516138471662998199462890625">
        <ele>2139.60009765625</ele>
        <time>2026-06-20T09:46:19.000Z</time>
        <extensions>
          <ns3:TrackPointExtension>
            <ns3:atemp>23.0</ns3:atemp>
          </ns3:TrackPointExtension>
        </extensions>
      </trkpt>
      <trkpt lat="42.5152565538883209228515625" lon="20.14516138471662998199462890625">
        <ele>2139.60009765625</ele>
        <time>2026-06-20T09:46:20.000Z</time>
        <extensions>
          <ns3:TrackPointExtension>
            <ns3:atemp>23.0</ns3:atemp>
          </ns3:TrackPointExtension>
        </extensions>
      </trkpt>
      <trkpt lat="42.5152565538883209228515625" lon="20.14516138471662998199462890625">
        <ele>2139.60009765625</ele>
        <time>2026-06-20T09:46:21.000Z</time>
        <extensions>
          <ns3:TrackPointExtension>
            <ns3:atemp>23.0</ns3:atemp>
          </ns3:TrackPointExtension>
        </extensions>
      </trkpt>
      <trkpt lat="42.5152565538883209228515625" lon="20.14516138471662998199462890625">
        <ele>2139.60009765625</ele>
        <time>2026-06-20T09:46:22.000Z</time>
        <extensions>
          <ns3:TrackPointExtension>
            <ns3:atemp>23.0</ns3:atemp>
          </ns3:TrackPointExtension>
        </extensions>
      </trkpt>
      <trkpt lat="42.5152565538883209228515625" lon="20.14516138471662998199462890625">
        <ele>2139.60009765625</ele>
        <time>2026-06-20T09:46:23.000Z</time>
        <extensions>
          <ns3:TrackPointExtension>
            <ns3:atemp>23.0</ns3:atemp>
          </ns3:TrackPointExtension>
        </extensions>
      </trkpt>
      <trkpt lat="42.5152565538883209228515625" lon="20.14516138471662998199462890625">
        <ele>2139.60009765625</ele>
        <time>2026-06-20T09:46:24.000Z</time>
        <extensions>
          <ns3:TrackPointExtension>
            <ns3:atemp>23.0</ns3:atemp>
          </ns3:TrackPointExtension>
        </extensions>
      </trkpt>
      <trkpt lat="42.5152565538883209228515625" lon="20.14516138471662998199462890625">
        <ele>2139.60009765625</ele>
        <time>2026-06-20T09:46:25.000Z</time>
        <extensions>
          <ns3:TrackPointExtension>
            <ns3:atemp>23.0</ns3:atemp>
          </ns3:TrackPointExtension>
        </extensions>
      </trkpt>
      <trkpt lat="42.5152565538883209228515625" lon="20.14516138471662998199462890625">
        <ele>2139.60009765625</ele>
        <time>2026-06-20T09:46:26.000Z</time>
        <extensions>
          <ns3:TrackPointExtension>
            <ns3:atemp>23.0</ns3:atemp>
          </ns3:TrackPointExtension>
        </extensions>
      </trkpt>
      <trkpt lat="42.5152565538883209228515625" lon="20.14516138471662998199462890625">
        <ele>2139.39990234375</ele>
        <time>2026-06-20T09:46:27.000Z</time>
        <extensions>
          <ns3:TrackPointExtension>
            <ns3:atemp>23.0</ns3:atemp>
          </ns3:TrackPointExtension>
        </extensions>
      </trkpt>
      <trkpt lat="42.5152565538883209228515625" lon="20.14516138471662998199462890625">
        <ele>2139.39990234375</ele>
        <time>2026-06-20T09:46:28.000Z</time>
        <extensions>
          <ns3:TrackPointExtension>
            <ns3:atemp>23.0</ns3:atemp>
          </ns3:TrackPointExtension>
        </extensions>
      </trkpt>
      <trkpt lat="42.5152565538883209228515625" lon="20.14516138471662998199462890625">
        <ele>2139.39990234375</ele>
        <time>2026-06-20T09:46:29.000Z</time>
        <extensions>
          <ns3:TrackPointExtension>
            <ns3:atemp>23.0</ns3:atemp>
          </ns3:TrackPointExtension>
        </extensions>
      </trkpt>
      <trkpt lat="42.5152565538883209228515625" lon="20.14516138471662998199462890625">
        <ele>2139.39990234375</ele>
        <time>2026-06-20T09:46:30.000Z</time>
        <extensions>
          <ns3:TrackPointExtension>
            <ns3:atemp>23.0</ns3:atemp>
          </ns3:TrackPointExtension>
        </extensions>
      </trkpt>
      <trkpt lat="42.5152565538883209228515625" lon="20.14516138471662998199462890625">
        <ele>2139.39990234375</ele>
        <time>2026-06-20T09:46:31.000Z</time>
        <extensions>
          <ns3:TrackPointExtension>
            <ns3:atemp>23.0</ns3:atemp>
          </ns3:TrackPointExtension>
        </extensions>
      </trkpt>
      <trkpt lat="42.5152565538883209228515625" lon="20.14516138471662998199462890625">
        <ele>2139.39990234375</ele>
        <time>2026-06-20T09:46:32.000Z</time>
        <extensions>
          <ns3:TrackPointExtension>
            <ns3:atemp>23.0</ns3:atemp>
          </ns3:TrackPointExtension>
        </extensions>
      </trkpt>
      <trkpt lat="42.5152565538883209228515625" lon="20.14516138471662998199462890625">
        <ele>2139.39990234375</ele>
        <time>2026-06-20T09:46:33.000Z</time>
        <extensions>
          <ns3:TrackPointExtension>
            <ns3:atemp>23.0</ns3:atemp>
          </ns3:TrackPointExtension>
        </extensions>
      </trkpt>
      <trkpt lat="42.5152565538883209228515625" lon="20.14516138471662998199462890625">
        <ele>2139.60009765625</ele>
        <time>2026-06-20T09:46:34.000Z</time>
        <extensions>
          <ns3:TrackPointExtension>
            <ns3:atemp>23.0</ns3:atemp>
          </ns3:TrackPointExtension>
        </extensions>
      </trkpt>
      <trkpt lat="42.5152565538883209228515625" lon="20.14516138471662998199462890625">
        <ele>2139.60009765625</ele>
        <time>2026-06-20T09:46:35.000Z</time>
        <extensions>
          <ns3:TrackPointExtension>
            <ns3:atemp>23.0</ns3:atemp>
          </ns3:TrackPointExtension>
        </extensions>
      </trkpt>
      <trkpt lat="42.5152565538883209228515625" lon="20.14516138471662998199462890625">
        <ele>2139.60009765625</ele>
        <time>2026-06-20T09:46:36.000Z</time>
        <extensions>
          <ns3:TrackPointExtension>
            <ns3:atemp>23.0</ns3:atemp>
          </ns3:TrackPointExtension>
        </extensions>
      </trkpt>
      <trkpt lat="42.5152565538883209228515625" lon="20.14516138471662998199462890625">
        <ele>2139.60009765625</ele>
        <time>2026-06-20T09:46:37.000Z</time>
        <extensions>
          <ns3:TrackPointExtension>
            <ns3:atemp>23.0</ns3:atemp>
          </ns3:TrackPointExtension>
        </extensions>
      </trkpt>
      <trkpt lat="42.5152565538883209228515625" lon="20.14516138471662998199462890625">
        <ele>2139.60009765625</ele>
        <time>2026-06-20T09:46:38.000Z</time>
        <extensions>
          <ns3:TrackPointExtension>
            <ns3:atemp>23.0</ns3:atemp>
          </ns3:TrackPointExtension>
        </extensions>
      </trkpt>
      <trkpt lat="42.5152565538883209228515625" lon="20.14516138471662998199462890625">
        <ele>2139.60009765625</ele>
        <time>2026-06-20T09:46:39.000Z</time>
        <extensions>
          <ns3:TrackPointExtension>
            <ns3:atemp>23.0</ns3:atemp>
          </ns3:TrackPointExtension>
        </extensions>
      </trkpt>
      <trkpt lat="42.5152565538883209228515625" lon="20.14516138471662998199462890625">
        <ele>2139.800048828125</ele>
        <time>2026-06-20T09:46:40.000Z</time>
        <extensions>
          <ns3:TrackPointExtension>
            <ns3:atemp>23.0</ns3:atemp>
          </ns3:TrackPointExtension>
        </extensions>
      </trkpt>
      <trkpt lat="42.5152565538883209228515625" lon="20.14516138471662998199462890625">
        <ele>2140</ele>
        <time>2026-06-20T09:46:41.000Z</time>
        <extensions>
          <ns3:TrackPointExtension>
            <ns3:atemp>23.0</ns3:atemp>
          </ns3:TrackPointExtension>
        </extensions>
      </trkpt>
      <trkpt lat="42.5152565538883209228515625" lon="20.14516138471662998199462890625">
        <ele>2140</ele>
        <time>2026-06-20T09:46:42.000Z</time>
        <extensions>
          <ns3:TrackPointExtension>
            <ns3:atemp>23.0</ns3:atemp>
          </ns3:TrackPointExtension>
        </extensions>
      </trkpt>
      <trkpt lat="42.5152565538883209228515625" lon="20.14516138471662998199462890625">
        <ele>2140.199951171875</ele>
        <time>2026-06-20T09:46:43.000Z</time>
        <extensions>
          <ns3:TrackPointExtension>
            <ns3:atemp>23.0</ns3:atemp>
          </ns3:TrackPointExtension>
        </extensions>
      </trkpt>
      <trkpt lat="42.5152565538883209228515625" lon="20.14516138471662998199462890625">
        <ele>2140.199951171875</ele>
        <time>2026-06-20T09:46:44.000Z</time>
        <extensions>
          <ns3:TrackPointExtension>
            <ns3:atemp>23.0</ns3:atemp>
          </ns3:TrackPointExtension>
        </extensions>
      </trkpt>
      <trkpt lat="42.5152565538883209228515625" lon="20.14516138471662998199462890625">
        <ele>2140.39990234375</ele>
        <time>2026-06-20T09:46:45.000Z</time>
        <extensions>
          <ns3:TrackPointExtension>
            <ns3:atemp>23.0</ns3:atemp>
          </ns3:TrackPointExtension>
        </extensions>
      </trkpt>
      <trkpt lat="42.5152565538883209228515625" lon="20.14516138471662998199462890625">
        <ele>2140.60009765625</ele>
        <time>2026-06-20T09:46:46.000Z</time>
        <extensions>
          <ns3:TrackPointExtension>
            <ns3:atemp>23.0</ns3:atemp>
          </ns3:TrackPointExtension>
        </extensions>
      </trkpt>
      <trkpt lat="42.5152565538883209228515625" lon="20.14516138471662998199462890625">
        <ele>2140.800048828125</ele>
        <time>2026-06-20T09:46:47.000Z</time>
        <extensions>
          <ns3:TrackPointExtension>
            <ns3:atemp>23.0</ns3:atemp>
          </ns3:TrackPointExtension>
        </extensions>
      </trkpt>
      <trkpt lat="42.5152565538883209228515625" lon="20.14516138471662998199462890625">
        <ele>2141</ele>
        <time>2026-06-20T09:46:48.000Z</time>
        <extensions>
          <ns3:TrackPointExtension>
            <ns3:atemp>23.0</ns3:atemp>
          </ns3:TrackPointExtension>
        </extensions>
      </trkpt>
      <trkpt lat="42.5152565538883209228515625" lon="20.14516138471662998199462890625">
        <ele>2141</ele>
        <time>2026-06-20T09:46:49.000Z</time>
        <extensions>
          <ns3:TrackPointExtension>
            <ns3:atemp>23.0</ns3:atemp>
          </ns3:TrackPointExtension>
        </extensions>
      </trkpt>
      <trkpt lat="42.5152565538883209228515625" lon="20.14516138471662998199462890625">
        <ele>2141.199951171875</ele>
        <time>2026-06-20T09:46:50.000Z</time>
        <extensions>
          <ns3:TrackPointExtension>
            <ns3:atemp>23.0</ns3:atemp>
          </ns3:TrackPointExtension>
        </extensions>
      </trkpt>
      <trkpt lat="42.51525781117379665374755859375" lon="20.1451614685356616973876953125">
        <ele>2141.39990234375</ele>
        <time>2026-06-20T09:46:51.000Z</time>
        <extensions>
          <ns3:TrackPointExtension>
            <ns3:atemp>23.0</ns3:atemp>
          </ns3:TrackPointExtension>
        </extensions>
      </trkpt>
      <trkpt lat="42.5152565538883209228515625" lon="20.14516138471662998199462890625">
        <ele>2141.60009765625</ele>
        <time>2026-06-20T09:46:52.000Z</time>
        <extensions>
          <ns3:TrackPointExtension>
            <ns3:atemp>23.0</ns3:atemp>
          </ns3:TrackPointExtension>
        </extensions>
      </trkpt>
      <trkpt lat="42.5152565538883209228515625" lon="20.14516138471662998199462890625">
        <ele>2141.60009765625</ele>
        <time>2026-06-20T09:46:53.000Z</time>
        <extensions>
          <ns3:TrackPointExtension>
            <ns3:atemp>23.0</ns3:atemp>
          </ns3:TrackPointExtension>
        </extensions>
      </trkpt>
      <trkpt lat="42.5152565538883209228515625" lon="20.14516138471662998199462890625">
        <ele>2141.60009765625</ele>
        <time>2026-06-20T09:46:54.000Z</time>
        <extensions>
          <ns3:TrackPointExtension>
            <ns3:atemp>23.0</ns3:atemp>
          </ns3:TrackPointExtension>
        </extensions>
      </trkpt>
      <trkpt lat="42.5152565538883209228515625" lon="20.14516138471662998199462890625">
        <ele>2141.60009765625</ele>
        <time>2026-06-20T09:46:55.000Z</time>
        <extensions>
          <ns3:TrackPointExtension>
            <ns3:atemp>23.0</ns3:atemp>
          </ns3:TrackPointExtension>
        </extensions>
      </trkpt>
      <trkpt lat="42.5152565538883209228515625" lon="20.14516138471662998199462890625">
        <ele>2141.199951171875</ele>
        <time>2026-06-20T09:46:56.000Z</time>
        <extensions>
          <ns3:TrackPointExtension>
            <ns3:atemp>23.0</ns3:atemp>
          </ns3:TrackPointExtension>
        </extensions>
      </trkpt>
      <trkpt lat="42.5152565538883209228515625" lon="20.14516138471662998199462890625">
        <ele>2140.800048828125</ele>
        <time>2026-06-20T09:46:57.000Z</time>
        <extensions>
          <ns3:TrackPointExtension>
            <ns3:atemp>23.0</ns3:atemp>
          </ns3:TrackPointExtension>
        </extensions>
      </trkpt>
      <trkpt lat="42.5152565538883209228515625" lon="20.14516138471662998199462890625">
        <ele>2140.60009765625</ele>
        <time>2026-06-20T09:46:58.000Z</time>
        <extensions>
          <ns3:TrackPointExtension>
            <ns3:atemp>23.0</ns3:atemp>
          </ns3:TrackPointExtension>
        </extensions>
      </trkpt>
      <trkpt lat="42.5152565538883209228515625" lon="20.14516138471662998199462890625">
        <ele>2140.199951171875</ele>
        <time>2026-06-20T09:46:59.000Z</time>
        <extensions>
          <ns3:TrackPointExtension>
            <ns3:atemp>23.0</ns3:atemp>
          </ns3:TrackPointExtension>
        </extensions>
      </trkpt>
      <trkpt lat="42.5152565538883209228515625" lon="20.14516138471662998199462890625">
        <ele>2140</ele>
        <time>2026-06-20T09:47:00.000Z</time>
        <extensions>
          <ns3:TrackPointExtension>
            <ns3:atemp>23.0</ns3:atemp>
          </ns3:TrackPointExtension>
        </extensions>
      </trkpt>
      <trkpt lat="42.5152565538883209228515625" lon="20.14516138471662998199462890625">
        <ele>2140</ele>
        <time>2026-06-20T09:47:01.000Z</time>
        <extensions>
          <ns3:TrackPointExtension>
            <ns3:atemp>23.0</ns3:atemp>
          </ns3:TrackPointExtension>
        </extensions>
      </trkpt>
      <trkpt lat="42.5152565538883209228515625" lon="20.14516138471662998199462890625">
        <ele>2139.800048828125</ele>
        <time>2026-06-20T09:47:02.000Z</time>
        <extensions>
          <ns3:TrackPointExtension>
            <ns3:atemp>23.0</ns3:atemp>
          </ns3:TrackPointExtension>
        </extensions>
      </trkpt>
      <trkpt lat="42.5152565538883209228515625" lon="20.14516138471662998199462890625">
        <ele>2139.800048828125</ele>
        <time>2026-06-20T09:47:03.000Z</time>
        <extensions>
          <ns3:TrackPointExtension>
            <ns3:atemp>23.0</ns3:atemp>
          </ns3:TrackPointExtension>
        </extensions>
      </trkpt>
      <trkpt lat="42.5152565538883209228515625" lon="20.14516138471662998199462890625">
        <ele>2139.800048828125</ele>
        <time>2026-06-20T09:47:04.000Z</time>
        <extensions>
          <ns3:TrackPointExtension>
            <ns3:atemp>23.0</ns3:atemp>
          </ns3:TrackPointExtension>
        </extensions>
      </trkpt>
      <trkpt lat="42.5152565538883209228515625" lon="20.14516138471662998199462890625">
        <ele>2139.800048828125</ele>
        <time>2026-06-20T09:47:05.000Z</time>
        <extensions>
          <ns3:TrackPointExtension>
            <ns3:atemp>23.0</ns3:atemp>
          </ns3:TrackPointExtension>
        </extensions>
      </trkpt>
      <trkpt lat="42.5152565538883209228515625" lon="20.14516138471662998199462890625">
        <ele>2139.60009765625</ele>
        <time>2026-06-20T09:47:06.000Z</time>
        <extensions>
          <ns3:TrackPointExtension>
            <ns3:atemp>23.0</ns3:atemp>
          </ns3:TrackPointExtension>
        </extensions>
      </trkpt>
      <trkpt lat="42.5152565538883209228515625" lon="20.14516138471662998199462890625">
        <ele>2139.60009765625</ele>
        <time>2026-06-20T09:47:07.000Z</time>
        <extensions>
          <ns3:TrackPointExtension>
            <ns3:atemp>23.0</ns3:atemp>
          </ns3:TrackPointExtension>
        </extensions>
      </trkpt>
      <trkpt lat="42.5152565538883209228515625" lon="20.14516138471662998199462890625">
        <ele>2139.39990234375</ele>
        <time>2026-06-20T09:47:08.000Z</time>
        <extensions>
          <ns3:TrackPointExtension>
            <ns3:atemp>23.0</ns3:atemp>
          </ns3:TrackPointExtension>
        </extensions>
      </trkpt>
      <trkpt lat="42.5152565538883209228515625" lon="20.14516138471662998199462890625">
        <ele>2139.39990234375</ele>
        <time>2026-06-20T09:47:09.000Z</time>
        <extensions>
          <ns3:TrackPointExtension>
            <ns3:atemp>23.0</ns3:atemp>
          </ns3:TrackPointExtension>
        </extensions>
      </trkpt>
      <trkpt lat="42.5152565538883209228515625" lon="20.14516138471662998199462890625">
        <ele>2139.39990234375</ele>
        <time>2026-06-20T09:47:10.000Z</time>
        <extensions>
          <ns3:TrackPointExtension>
            <ns3:atemp>23.0</ns3:atemp>
          </ns3:TrackPointExtension>
        </extensions>
      </trkpt>
      <trkpt lat="42.5152565538883209228515625" lon="20.14516138471662998199462890625">
        <ele>2139.199951171875</ele>
        <time>2026-06-20T09:47:11.000Z</time>
        <extensions>
          <ns3:TrackPointExtension>
            <ns3:atemp>23.0</ns3:atemp>
          </ns3:TrackPointExtension>
        </extensions>
      </trkpt>
      <trkpt lat="42.5152565538883209228515625" lon="20.14516138471662998199462890625">
        <ele>2139.199951171875</ele>
        <time>2026-06-20T09:47:12.000Z</time>
        <extensions>
          <ns3:TrackPointExtension>
            <ns3:atemp>23.0</ns3:atemp>
          </ns3:TrackPointExtension>
        </extensions>
      </trkpt>
      <trkpt lat="42.5152565538883209228515625" lon="20.14516138471662998199462890625">
        <ele>2139.199951171875</ele>
        <time>2026-06-20T09:47:13.000Z</time>
        <extensions>
          <ns3:TrackPointExtension>
            <ns3:atemp>23.0</ns3:atemp>
          </ns3:TrackPointExtension>
        </extensions>
      </trkpt>
      <trkpt lat="42.5152565538883209228515625" lon="20.14516138471662998199462890625">
        <ele>2139.199951171875</ele>
        <time>2026-06-20T09:47:14.000Z</time>
        <extensions>
          <ns3:TrackPointExtension>
            <ns3:atemp>23.0</ns3:atemp>
          </ns3:TrackPointExtension>
        </extensions>
      </trkpt>
      <trkpt lat="42.5152565538883209228515625" lon="20.14516138471662998199462890625">
        <ele>2139</ele>
        <time>2026-06-20T09:47:15.000Z</time>
        <extensions>
          <ns3:TrackPointExtension>
            <ns3:atemp>23.0</ns3:atemp>
          </ns3:TrackPointExtension>
        </extensions>
      </trkpt>
      <trkpt lat="42.5152565538883209228515625" lon="20.14516138471662998199462890625">
        <ele>2139</ele>
        <time>2026-06-20T09:47:16.000Z</time>
        <extensions>
          <ns3:TrackPointExtension>
            <ns3:atemp>23.0</ns3:atemp>
          </ns3:TrackPointExtension>
        </extensions>
      </trkpt>
      <trkpt lat="42.5152565538883209228515625" lon="20.14516138471662998199462890625">
        <ele>2139</ele>
        <time>2026-06-20T09:47:17.000Z</time>
        <extensions>
          <ns3:TrackPointExtension>
            <ns3:atemp>23.0</ns3:atemp>
          </ns3:TrackPointExtension>
        </extensions>
      </trkpt>
      <trkpt lat="42.5152565538883209228515625" lon="20.14516138471662998199462890625">
        <ele>2139</ele>
        <time>2026-06-20T09:47:18.000Z</time>
        <extensions>
          <ns3:TrackPointExtension>
            <ns3:atemp>23.0</ns3:atemp>
          </ns3:TrackPointExtension>
        </extensions>
      </trkpt>
      <trkpt lat="42.5152565538883209228515625" lon="20.14516138471662998199462890625">
        <ele>2139</ele>
        <time>2026-06-20T09:47:19.000Z</time>
        <extensions>
          <ns3:TrackPointExtension>
            <ns3:atemp>23.0</ns3:atemp>
          </ns3:TrackPointExtension>
        </extensions>
      </trkpt>
      <trkpt lat="42.5152565538883209228515625" lon="20.14516138471662998199462890625">
        <ele>2139</ele>
        <time>2026-06-20T09:47:20.000Z</time>
        <extensions>
          <ns3:TrackPointExtension>
            <ns3:atemp>23.0</ns3:atemp>
          </ns3:TrackPointExtension>
        </extensions>
      </trkpt>
      <trkpt lat="42.5152565538883209228515625" lon="20.14516138471662998199462890625">
        <ele>2138.800048828125</ele>
        <time>2026-06-20T09:47:21.000Z</time>
        <extensions>
          <ns3:TrackPointExtension>
            <ns3:atemp>23.0</ns3:atemp>
          </ns3:TrackPointExtension>
        </extensions>
      </trkpt>
      <trkpt lat="42.5152565538883209228515625" lon="20.14516138471662998199462890625">
        <ele>2138.800048828125</ele>
        <time>2026-06-20T09:47:22.000Z</time>
        <extensions>
          <ns3:TrackPointExtension>
            <ns3:atemp>23.0</ns3:atemp>
          </ns3:TrackPointExtension>
        </extensions>
      </trkpt>
      <trkpt lat="42.5152565538883209228515625" lon="20.14516138471662998199462890625">
        <ele>2138.800048828125</ele>
        <time>2026-06-20T09:47:23.000Z</time>
        <extensions>
          <ns3:TrackPointExtension>
            <ns3:atemp>23.0</ns3:atemp>
          </ns3:TrackPointExtension>
        </extensions>
      </trkpt>
      <trkpt lat="42.5152565538883209228515625" lon="20.14516138471662998199462890625">
        <ele>2138.800048828125</ele>
        <time>2026-06-20T09:47:24.000Z</time>
        <extensions>
          <ns3:TrackPointExtension>
            <ns3:atemp>23.0</ns3:atemp>
          </ns3:TrackPointExtension>
        </extensions>
      </trkpt>
      <trkpt lat="42.5152565538883209228515625" lon="20.14516138471662998199462890625">
        <ele>2138.800048828125</ele>
        <time>2026-06-20T09:47:25.000Z</time>
        <extensions>
          <ns3:TrackPointExtension>
            <ns3:atemp>23.0</ns3:atemp>
          </ns3:TrackPointExtension>
        </extensions>
      </trkpt>
      <trkpt lat="42.5152565538883209228515625" lon="20.14516138471662998199462890625">
        <ele>2138.800048828125</ele>
        <time>2026-06-20T09:47:26.000Z</time>
        <extensions>
          <ns3:TrackPointExtension>
            <ns3:atemp>23.0</ns3:atemp>
          </ns3:TrackPointExtension>
        </extensions>
      </trkpt>
      <trkpt lat="42.5152565538883209228515625" lon="20.14516138471662998199462890625">
        <ele>2138.60009765625</ele>
        <time>2026-06-20T09:47:27.000Z</time>
        <extensions>
          <ns3:TrackPointExtension>
            <ns3:atemp>23.0</ns3:atemp>
          </ns3:TrackPointExtension>
        </extensions>
      </trkpt>
      <trkpt lat="42.5152565538883209228515625" lon="20.14516138471662998199462890625">
        <ele>2138.60009765625</ele>
        <time>2026-06-20T09:47:28.000Z</time>
        <extensions>
          <ns3:TrackPointExtension>
            <ns3:atemp>23.0</ns3:atemp>
          </ns3:TrackPointExtension>
        </extensions>
      </trkpt>
      <trkpt lat="42.5152565538883209228515625" lon="20.14516138471662998199462890625">
        <ele>2138.60009765625</ele>
        <time>2026-06-20T09:47:29.000Z</time>
        <extensions>
          <ns3:TrackPointExtension>
            <ns3:atemp>24.0</ns3:atemp>
          </ns3:TrackPointExtension>
        </extensions>
      </trkpt>
      <trkpt lat="42.5152565538883209228515625" lon="20.14516138471662998199462890625">
        <ele>2138.60009765625</ele>
        <time>2026-06-20T09:47:30.000Z</time>
        <extensions>
          <ns3:TrackPointExtension>
            <ns3:atemp>24.0</ns3:atemp>
          </ns3:TrackPointExtension>
        </extensions>
      </trkpt>
      <trkpt lat="42.5152565538883209228515625" lon="20.14516138471662998199462890625">
        <ele>2138.60009765625</ele>
        <time>2026-06-20T09:47:31.000Z</time>
        <extensions>
          <ns3:TrackPointExtension>
            <ns3:atemp>24.0</ns3:atemp>
          </ns3:TrackPointExtension>
        </extensions>
      </trkpt>
      <trkpt lat="42.5152565538883209228515625" lon="20.14516138471662998199462890625">
        <ele>2138.60009765625</ele>
        <time>2026-06-20T09:47:32.000Z</time>
        <extensions>
          <ns3:TrackPointExtension>
            <ns3:atemp>24.0</ns3:atemp>
          </ns3:TrackPointExtension>
        </extensions>
      </trkpt>
      <trkpt lat="42.5152565538883209228515625" lon="20.14516138471662998199462890625">
        <ele>2138.800048828125</ele>
        <time>2026-06-20T09:47:33.000Z</time>
        <extensions>
          <ns3:TrackPointExtension>
            <ns3:atemp>24.0</ns3:atemp>
          </ns3:TrackPointExtension>
        </extensions>
      </trkpt>
      <trkpt lat="42.5152565538883209228515625" lon="20.14516138471662998199462890625">
        <ele>2138.800048828125</ele>
        <time>2026-06-20T09:47:34.000Z</time>
        <extensions>
          <ns3:TrackPointExtension>
            <ns3:atemp>24.0</ns3:atemp>
          </ns3:TrackPointExtension>
        </extensions>
      </trkpt>
      <trkpt lat="42.5152565538883209228515625" lon="20.14516138471662998199462890625">
        <ele>2138.800048828125</ele>
        <time>2026-06-20T09:47:35.000Z</time>
        <extensions>
          <ns3:TrackPointExtension>
            <ns3:atemp>24.0</ns3:atemp>
          </ns3:TrackPointExtension>
        </extensions>
      </trkpt>
      <trkpt lat="42.5152565538883209228515625" lon="20.14516138471662998199462890625">
        <ele>2139</ele>
        <time>2026-06-20T09:47:36.000Z</time>
        <extensions>
          <ns3:TrackPointExtension>
            <ns3:atemp>24.0</ns3:atemp>
          </ns3:TrackPointExtension>
        </extensions>
      </trkpt>
      <trkpt lat="42.5152565538883209228515625" lon="20.14516138471662998199462890625">
        <ele>2139</ele>
        <time>2026-06-20T09:47:37.000Z</time>
        <extensions>
          <ns3:TrackPointExtension>
            <ns3:atemp>24.0</ns3:atemp>
          </ns3:TrackPointExtension>
        </extensions>
      </trkpt>
      <trkpt lat="42.5152565538883209228515625" lon="20.14516138471662998199462890625">
        <ele>2139.199951171875</ele>
        <time>2026-06-20T09:47:38.000Z</time>
        <extensions>
          <ns3:TrackPointExtension>
            <ns3:atemp>24.0</ns3:atemp>
          </ns3:TrackPointExtension>
        </extensions>
      </trkpt>
      <trkpt lat="42.5152565538883209228515625" lon="20.14516138471662998199462890625">
        <ele>2139.199951171875</ele>
        <time>2026-06-20T09:47:39.000Z</time>
        <extensions>
          <ns3:TrackPointExtension>
            <ns3:atemp>24.0</ns3:atemp>
          </ns3:TrackPointExtension>
        </extensions>
      </trkpt>
      <trkpt lat="42.5152565538883209228515625" lon="20.14516138471662998199462890625">
        <ele>2139.199951171875</ele>
        <time>2026-06-20T09:47:40.000Z</time>
        <extensions>
          <ns3:TrackPointExtension>
            <ns3:atemp>24.0</ns3:atemp>
          </ns3:TrackPointExtension>
        </extensions>
      </trkpt>
      <trkpt lat="42.5152565538883209228515625" lon="20.14516138471662998199462890625">
        <ele>2139.199951171875</ele>
        <time>2026-06-20T09:47:41.000Z</time>
        <extensions>
          <ns3:TrackPointExtension>
            <ns3:atemp>24.0</ns3:atemp>
          </ns3:TrackPointExtension>
        </extensions>
      </trkpt>
      <trkpt lat="42.5152565538883209228515625" lon="20.14516138471662998199462890625">
        <ele>2139.39990234375</ele>
        <time>2026-06-20T09:47:42.000Z</time>
        <extensions>
          <ns3:TrackPointExtension>
            <ns3:atemp>24.0</ns3:atemp>
          </ns3:TrackPointExtension>
        </extensions>
      </trkpt>
      <trkpt lat="42.5152565538883209228515625" lon="20.14516138471662998199462890625">
        <ele>2139.39990234375</ele>
        <time>2026-06-20T09:47:43.000Z</time>
        <extensions>
          <ns3:TrackPointExtension>
            <ns3:atemp>24.0</ns3:atemp>
          </ns3:TrackPointExtension>
        </extensions>
      </trkpt>
      <trkpt lat="42.5152565538883209228515625" lon="20.14516138471662998199462890625">
        <ele>2139.60009765625</ele>
        <time>2026-06-20T09:47:44.000Z</time>
        <extensions>
          <ns3:TrackPointExtension>
            <ns3:atemp>24.0</ns3:atemp>
          </ns3:TrackPointExtension>
        </extensions>
      </trkpt>
      <trkpt lat="42.5152565538883209228515625" lon="20.14516138471662998199462890625">
        <ele>2139.60009765625</ele>
        <time>2026-06-20T09:47:45.000Z</time>
        <extensions>
          <ns3:TrackPointExtension>
            <ns3:atemp>24.0</ns3:atemp>
          </ns3:TrackPointExtension>
        </extensions>
      </trkpt>
      <trkpt lat="42.5152565538883209228515625" lon="20.14516138471662998199462890625">
        <ele>2139.60009765625</ele>
        <time>2026-06-20T09:47:46.000Z</time>
        <extensions>
          <ns3:TrackPointExtension>
            <ns3:atemp>24.0</ns3:atemp>
          </ns3:TrackPointExtension>
        </extensions>
      </trkpt>
      <trkpt lat="42.5152565538883209228515625" lon="20.14516138471662998199462890625">
        <ele>2139.800048828125</ele>
        <time>2026-06-20T09:47:47.000Z</time>
        <extensions>
          <ns3:TrackPointExtension>
            <ns3:atemp>24.0</ns3:atemp>
          </ns3:TrackPointExtension>
        </extensions>
      </trkpt>
      <trkpt lat="42.5152565538883209228515625" lon="20.14516138471662998199462890625">
        <ele>2139.800048828125</ele>
        <time>2026-06-20T09:47:48.000Z</time>
        <extensions>
          <ns3:TrackPointExtension>
            <ns3:atemp>24.0</ns3:atemp>
          </ns3:TrackPointExtension>
        </extensions>
      </trkpt>
      <trkpt lat="42.5152565538883209228515625" lon="20.14516138471662998199462890625">
        <ele>2139.800048828125</ele>
        <time>2026-06-20T09:47:49.000Z</time>
        <extensions>
          <ns3:TrackPointExtension>
            <ns3:atemp>24.0</ns3:atemp>
          </ns3:TrackPointExtension>
        </extensions>
      </trkpt>
      <trkpt lat="42.5152565538883209228515625" lon="20.14516138471662998199462890625">
        <ele>2139.800048828125</ele>
        <time>2026-06-20T09:47:50.000Z</time>
        <extensions>
          <ns3:TrackPointExtension>
            <ns3:atemp>24.0</ns3:atemp>
          </ns3:TrackPointExtension>
        </extensions>
      </trkpt>
      <trkpt lat="42.5152565538883209228515625" lon="20.14516138471662998199462890625">
        <ele>2139.800048828125</ele>
        <time>2026-06-20T09:47:51.000Z</time>
        <extensions>
          <ns3:TrackPointExtension>
            <ns3:atemp>24.0</ns3:atemp>
          </ns3:TrackPointExtension>
        </extensions>
      </trkpt>
      <trkpt lat="42.5152565538883209228515625" lon="20.14516138471662998199462890625">
        <ele>2139.800048828125</ele>
        <time>2026-06-20T09:47:52.000Z</time>
        <extensions>
          <ns3:TrackPointExtension>
            <ns3:atemp>24.0</ns3:atemp>
          </ns3:TrackPointExtension>
        </extensions>
      </trkpt>
      <trkpt lat="42.5152565538883209228515625" lon="20.14516138471662998199462890625">
        <ele>2139.800048828125</ele>
        <time>2026-06-20T09:47:53.000Z</time>
        <extensions>
          <ns3:TrackPointExtension>
            <ns3:atemp>24.0</ns3:atemp>
          </ns3:TrackPointExtension>
        </extensions>
      </trkpt>
      <trkpt lat="42.5152565538883209228515625" lon="20.14516138471662998199462890625">
        <ele>2139.800048828125</ele>
        <time>2026-06-20T09:47:54.000Z</time>
        <extensions>
          <ns3:TrackPointExtension>
            <ns3:atemp>24.0</ns3:atemp>
          </ns3:TrackPointExtension>
        </extensions>
      </trkpt>
      <trkpt lat="42.5152565538883209228515625" lon="20.14516138471662998199462890625">
        <ele>2139.800048828125</ele>
        <time>2026-06-20T09:47:55.000Z</time>
        <extensions>
          <ns3:TrackPointExtension>
            <ns3:atemp>24.0</ns3:atemp>
          </ns3:TrackPointExtension>
        </extensions>
      </trkpt>
      <trkpt lat="42.5152565538883209228515625" lon="20.14516138471662998199462890625">
        <ele>2139.800048828125</ele>
        <time>2026-06-20T09:47:56.000Z</time>
        <extensions>
          <ns3:TrackPointExtension>
            <ns3:atemp>24.0</ns3:atemp>
          </ns3:TrackPointExtension>
        </extensions>
      </trkpt>
      <trkpt lat="42.5152565538883209228515625" lon="20.14516138471662998199462890625">
        <ele>2139.800048828125</ele>
        <time>2026-06-20T09:47:57.000Z</time>
        <extensions>
          <ns3:TrackPointExtension>
            <ns3:atemp>24.0</ns3:atemp>
          </ns3:TrackPointExtension>
        </extensions>
      </trkpt>
      <trkpt lat="42.5152565538883209228515625" lon="20.14516138471662998199462890625">
        <ele>2139.800048828125</ele>
        <time>2026-06-20T09:47:58.000Z</time>
        <extensions>
          <ns3:TrackPointExtension>
            <ns3:atemp>24.0</ns3:atemp>
          </ns3:TrackPointExtension>
        </extensions>
      </trkpt>
      <trkpt lat="42.5152565538883209228515625" lon="20.14516138471662998199462890625">
        <ele>2139.800048828125</ele>
        <time>2026-06-20T09:47:59.000Z</time>
        <extensions>
          <ns3:TrackPointExtension>
            <ns3:atemp>24.0</ns3:atemp>
          </ns3:TrackPointExtension>
        </extensions>
      </trkpt>
      <trkpt lat="42.5152565538883209228515625" lon="20.14516138471662998199462890625">
        <ele>2139.800048828125</ele>
        <time>2026-06-20T09:48:00.000Z</time>
        <extensions>
          <ns3:TrackPointExtension>
            <ns3:atemp>24.0</ns3:atemp>
          </ns3:TrackPointExtension>
        </extensions>
      </trkpt>
      <trkpt lat="42.5152565538883209228515625" lon="20.14516138471662998199462890625">
        <ele>2139.800048828125</ele>
        <time>2026-06-20T09:48:01.000Z</time>
        <extensions>
          <ns3:TrackPointExtension>
            <ns3:atemp>24.0</ns3:atemp>
          </ns3:TrackPointExtension>
        </extensions>
      </trkpt>
      <trkpt lat="42.5152565538883209228515625" lon="20.14516138471662998199462890625">
        <ele>2139.800048828125</ele>
        <time>2026-06-20T09:48:02.000Z</time>
        <extensions>
          <ns3:TrackPointExtension>
            <ns3:atemp>24.0</ns3:atemp>
          </ns3:TrackPointExtension>
        </extensions>
      </trkpt>
      <trkpt lat="42.5152565538883209228515625" lon="20.14516138471662998199462890625">
        <ele>2139.800048828125</ele>
        <time>2026-06-20T09:48:03.000Z</time>
        <extensions>
          <ns3:TrackPointExtension>
            <ns3:atemp>24.0</ns3:atemp>
          </ns3:TrackPointExtension>
        </extensions>
      </trkpt>
      <trkpt lat="42.5152565538883209228515625" lon="20.14516138471662998199462890625">
        <ele>2139.800048828125</ele>
        <time>2026-06-20T09:48:04.000Z</time>
        <extensions>
          <ns3:TrackPointExtension>
            <ns3:atemp>24.0</ns3:atemp>
          </ns3:TrackPointExtension>
        </extensions>
      </trkpt>
      <trkpt lat="42.5152565538883209228515625" lon="20.14516138471662998199462890625">
        <ele>2139.800048828125</ele>
        <time>2026-06-20T09:48:05.000Z</time>
        <extensions>
          <ns3:TrackPointExtension>
            <ns3:atemp>24.0</ns3:atemp>
          </ns3:TrackPointExtension>
        </extensions>
      </trkpt>
      <trkpt lat="42.5152565538883209228515625" lon="20.14516138471662998199462890625">
        <ele>2139.800048828125</ele>
        <time>2026-06-20T09:48:06.000Z</time>
        <extensions>
          <ns3:TrackPointExtension>
            <ns3:atemp>24.0</ns3:atemp>
          </ns3:TrackPointExtension>
        </extensions>
      </trkpt>
      <trkpt lat="42.5152565538883209228515625" lon="20.14516138471662998199462890625">
        <ele>2139.800048828125</ele>
        <time>2026-06-20T09:48:07.000Z</time>
        <extensions>
          <ns3:TrackPointExtension>
            <ns3:atemp>24.0</ns3:atemp>
          </ns3:TrackPointExtension>
        </extensions>
      </trkpt>
      <trkpt lat="42.5152565538883209228515625" lon="20.14516138471662998199462890625">
        <ele>2139.800048828125</ele>
        <time>2026-06-20T09:48:08.000Z</time>
        <extensions>
          <ns3:TrackPointExtension>
            <ns3:atemp>24.0</ns3:atemp>
          </ns3:TrackPointExtension>
        </extensions>
      </trkpt>
      <trkpt lat="42.5152565538883209228515625" lon="20.14516138471662998199462890625">
        <ele>2139.800048828125</ele>
        <time>2026-06-20T09:48:09.000Z</time>
        <extensions>
          <ns3:TrackPointExtension>
            <ns3:atemp>24.0</ns3:atemp>
          </ns3:TrackPointExtension>
        </extensions>
      </trkpt>
      <trkpt lat="42.5152565538883209228515625" lon="20.14516138471662998199462890625">
        <ele>2139.800048828125</ele>
        <time>2026-06-20T09:48:10.000Z</time>
        <extensions>
          <ns3:TrackPointExtension>
            <ns3:atemp>24.0</ns3:atemp>
          </ns3:TrackPointExtension>
        </extensions>
      </trkpt>
      <trkpt lat="42.5152565538883209228515625" lon="20.14516138471662998199462890625">
        <ele>2139.800048828125</ele>
        <time>2026-06-20T09:48:11.000Z</time>
        <extensions>
          <ns3:TrackPointExtension>
            <ns3:atemp>24.0</ns3:atemp>
          </ns3:TrackPointExtension>
        </extensions>
      </trkpt>
      <trkpt lat="42.5152565538883209228515625" lon="20.14516138471662998199462890625">
        <ele>2139.800048828125</ele>
        <time>2026-06-20T09:48:12.000Z</time>
        <extensions>
          <ns3:TrackPointExtension>
            <ns3:atemp>24.0</ns3:atemp>
          </ns3:TrackPointExtension>
        </extensions>
      </trkpt>
      <trkpt lat="42.5152565538883209228515625" lon="20.14516138471662998199462890625">
        <ele>2139.800048828125</ele>
        <time>2026-06-20T09:48:13.000Z</time>
        <extensions>
          <ns3:TrackPointExtension>
            <ns3:atemp>24.0</ns3:atemp>
          </ns3:TrackPointExtension>
        </extensions>
      </trkpt>
      <trkpt lat="42.5152565538883209228515625" lon="20.14516138471662998199462890625">
        <ele>2139.800048828125</ele>
        <time>2026-06-20T09:48:14.000Z</time>
        <extensions>
          <ns3:TrackPointExtension>
            <ns3:atemp>24.0</ns3:atemp>
          </ns3:TrackPointExtension>
        </extensions>
      </trkpt>
      <trkpt lat="42.5152565538883209228515625" lon="20.14516138471662998199462890625">
        <ele>2139.800048828125</ele>
        <time>2026-06-20T09:48:15.000Z</time>
        <extensions>
          <ns3:TrackPointExtension>
            <ns3:atemp>24.0</ns3:atemp>
          </ns3:TrackPointExtension>
        </extensions>
      </trkpt>
      <trkpt lat="42.515261583030223846435546875" lon="20.1451668329536914825439453125">
        <ele>2139.800048828125</ele>
        <time>2026-06-20T09:48:16.000Z</time>
        <extensions>
          <ns3:TrackPointExtension>
            <ns3:atemp>24.0</ns3:atemp>
          </ns3:TrackPointExtension>
        </extensions>
      </trkpt>
      <trkpt lat="42.51525764353573322296142578125" lon="20.14516532421112060546875">
        <ele>2139.60009765625</ele>
        <time>2026-06-20T09:48:17.000Z</time>
        <extensions>
          <ns3:TrackPointExtension>
            <ns3:atemp>24.0</ns3:atemp>
          </ns3:TrackPointExtension>
        </extensions>
      </trkpt>
      <trkpt lat="42.51525429077446460723876953125" lon="20.14517060481011867523193359375">
        <ele>2139.39990234375</ele>
        <time>2026-06-20T09:48:18.000Z</time>
        <extensions>
          <ns3:TrackPointExtension>
            <ns3:atemp>24.0</ns3:atemp>
          </ns3:TrackPointExtension>
        </extensions>
      </trkpt>
      <trkpt lat="42.5152565538883209228515625" lon="20.14516138471662998199462890625">
        <ele>2139.199951171875</ele>
        <time>2026-06-20T09:48:19.000Z</time>
        <extensions>
          <ns3:TrackPointExtension>
            <ns3:atemp>24.0</ns3:atemp>
          </ns3:TrackPointExtension>
        </extensions>
      </trkpt>
      <trkpt lat="42.5152565538883209228515625" lon="20.14516138471662998199462890625">
        <ele>2139</ele>
        <time>2026-06-20T09:48:20.000Z</time>
        <extensions>
          <ns3:TrackPointExtension>
            <ns3:atemp>24.0</ns3:atemp>
          </ns3:TrackPointExtension>
        </extensions>
      </trkpt>
      <trkpt lat="42.5152565538883209228515625" lon="20.14516138471662998199462890625">
        <ele>2139</ele>
        <time>2026-06-20T09:48:21.000Z</time>
        <extensions>
          <ns3:TrackPointExtension>
            <ns3:atemp>24.0</ns3:atemp>
          </ns3:TrackPointExtension>
        </extensions>
      </trkpt>
      <trkpt lat="42.5152565538883209228515625" lon="20.14516138471662998199462890625">
        <ele>2139</ele>
        <time>2026-06-20T09:48:22.000Z</time>
        <extensions>
          <ns3:TrackPointExtension>
            <ns3:atemp>24.0</ns3:atemp>
          </ns3:TrackPointExtension>
        </extensions>
      </trkpt>
      <trkpt lat="42.5152565538883209228515625" lon="20.14516138471662998199462890625">
        <ele>2139</ele>
        <time>2026-06-20T09:48:23.000Z</time>
        <extensions>
          <ns3:TrackPointExtension>
            <ns3:atemp>24.0</ns3:atemp>
          </ns3:TrackPointExtension>
        </extensions>
      </trkpt>
      <trkpt lat="42.5152565538883209228515625" lon="20.14516138471662998199462890625">
        <ele>2139</ele>
        <time>2026-06-20T09:48:24.000Z</time>
        <extensions>
          <ns3:TrackPointExtension>
            <ns3:atemp>24.0</ns3:atemp>
          </ns3:TrackPointExtension>
        </extensions>
      </trkpt>
      <trkpt lat="42.5152565538883209228515625" lon="20.14516138471662998199462890625">
        <ele>2139</ele>
        <time>2026-06-20T09:48:25.000Z</time>
        <extensions>
          <ns3:TrackPointExtension>
            <ns3:atemp>24.0</ns3:atemp>
          </ns3:TrackPointExtension>
        </extensions>
      </trkpt>
      <trkpt lat="42.5152565538883209228515625" lon="20.14516138471662998199462890625">
        <ele>2139</ele>
        <time>2026-06-20T09:48:26.000Z</time>
        <extensions>
          <ns3:TrackPointExtension>
            <ns3:atemp>24.0</ns3:atemp>
          </ns3:TrackPointExtension>
        </extensions>
      </trkpt>
      <trkpt lat="42.5152565538883209228515625" lon="20.14516138471662998199462890625">
        <ele>2139</ele>
        <time>2026-06-20T09:48:27.000Z</time>
        <extensions>
          <ns3:TrackPointExtension>
            <ns3:atemp>24.0</ns3:atemp>
          </ns3:TrackPointExtension>
        </extensions>
      </trkpt>
      <trkpt lat="42.5152565538883209228515625" lon="20.14516138471662998199462890625">
        <ele>2139</ele>
        <time>2026-06-20T09:48:28.000Z</time>
        <extensions>
          <ns3:TrackPointExtension>
            <ns3:atemp>24.0</ns3:atemp>
          </ns3:TrackPointExtension>
        </extensions>
      </trkpt>
      <trkpt lat="42.5152565538883209228515625" lon="20.14516138471662998199462890625">
        <ele>2139</ele>
        <time>2026-06-20T09:48:29.000Z</time>
        <extensions>
          <ns3:TrackPointExtension>
            <ns3:atemp>24.0</ns3:atemp>
          </ns3:TrackPointExtension>
        </extensions>
      </trkpt>
      <trkpt lat="42.5152565538883209228515625" lon="20.14516138471662998199462890625">
        <ele>2139</ele>
        <time>2026-06-20T09:48:30.000Z</time>
        <extensions>
          <ns3:TrackPointExtension>
            <ns3:atemp>24.0</ns3:atemp>
          </ns3:TrackPointExtension>
        </extensions>
      </trkpt>
      <trkpt lat="42.5152565538883209228515625" lon="20.14516138471662998199462890625">
        <ele>2139</ele>
        <time>2026-06-20T09:48:31.000Z</time>
        <extensions>
          <ns3:TrackPointExtension>
            <ns3:atemp>24.0</ns3:atemp>
          </ns3:TrackPointExtension>
        </extensions>
      </trkpt>
      <trkpt lat="42.5152565538883209228515625" lon="20.14516138471662998199462890625">
        <ele>2139</ele>
        <time>2026-06-20T09:48:32.000Z</time>
        <extensions>
          <ns3:TrackPointExtension>
            <ns3:atemp>24.0</ns3:atemp>
          </ns3:TrackPointExtension>
        </extensions>
      </trkpt>
      <trkpt lat="42.5152565538883209228515625" lon="20.14516138471662998199462890625">
        <ele>2139</ele>
        <time>2026-06-20T09:48:33.000Z</time>
        <extensions>
          <ns3:TrackPointExtension>
            <ns3:atemp>24.0</ns3:atemp>
          </ns3:TrackPointExtension>
        </extensions>
      </trkpt>
      <trkpt lat="42.5152565538883209228515625" lon="20.14516138471662998199462890625">
        <ele>2139</ele>
        <time>2026-06-20T09:48:34.000Z</time>
        <extensions>
          <ns3:TrackPointExtension>
            <ns3:atemp>24.0</ns3:atemp>
          </ns3:TrackPointExtension>
        </extensions>
      </trkpt>
      <trkpt lat="42.5152565538883209228515625" lon="20.14516138471662998199462890625">
        <ele>2139</ele>
        <time>2026-06-20T09:48:35.000Z</time>
        <extensions>
          <ns3:TrackPointExtension>
            <ns3:atemp>24.0</ns3:atemp>
          </ns3:TrackPointExtension>
        </extensions>
      </trkpt>
      <trkpt lat="42.5152565538883209228515625" lon="20.14516138471662998199462890625">
        <ele>2139</ele>
        <time>2026-06-20T09:48:36.000Z</time>
        <extensions>
          <ns3:TrackPointExtension>
            <ns3:atemp>24.0</ns3:atemp>
          </ns3:TrackPointExtension>
        </extensions>
      </trkpt>
      <trkpt lat="42.5152565538883209228515625" lon="20.14516138471662998199462890625">
        <ele>2139</ele>
        <time>2026-06-20T09:48:37.000Z</time>
        <extensions>
          <ns3:TrackPointExtension>
            <ns3:atemp>23.0</ns3:atemp>
          </ns3:TrackPointExtension>
        </extensions>
      </trkpt>
      <trkpt lat="42.5152537040412425994873046875" lon="20.14517278410494327545166015625">
        <ele>2139</ele>
        <time>2026-06-20T09:48:38.000Z</time>
        <extensions>
          <ns3:TrackPointExtension>
            <ns3:atemp>23.0</ns3:atemp>
          </ns3:TrackPointExtension>
        </extensions>
      </trkpt>
      <trkpt lat="42.51525395549833774566650390625" lon="20.14517328701913356781005859375">
        <ele>2139</ele>
        <time>2026-06-20T09:48:39.000Z</time>
        <extensions>
          <ns3:TrackPointExtension>
            <ns3:atemp>23.0</ns3:atemp>
          </ns3:TrackPointExtension>
        </extensions>
      </trkpt>
      <trkpt lat="42.5152565538883209228515625" lon="20.14516138471662998199462890625">
        <ele>2139</ele>
        <time>2026-06-20T09:48:40.000Z</time>
        <extensions>
          <ns3:TrackPointExtension>
            <ns3:atemp>23.0</ns3:atemp>
          </ns3:TrackPointExtension>
        </extensions>
      </trkpt>
      <trkpt lat="42.5152565538883209228515625" lon="20.14516138471662998199462890625">
        <ele>2139</ele>
        <time>2026-06-20T09:48:41.000Z</time>
        <extensions>
          <ns3:TrackPointExtension>
            <ns3:atemp>23.0</ns3:atemp>
          </ns3:TrackPointExtension>
        </extensions>
      </trkpt>
      <trkpt lat="42.5152565538883209228515625" lon="20.14516138471662998199462890625">
        <ele>2139</ele>
        <time>2026-06-20T09:48:42.000Z</time>
        <extensions>
          <ns3:TrackPointExtension>
            <ns3:atemp>23.0</ns3:atemp>
          </ns3:TrackPointExtension>
        </extensions>
      </trkpt>
      <trkpt lat="42.5152565538883209228515625" lon="20.14516138471662998199462890625">
        <ele>2139</ele>
        <time>2026-06-20T09:48:43.000Z</time>
        <extensions>
          <ns3:TrackPointExtension>
            <ns3:atemp>23.0</ns3:atemp>
          </ns3:TrackPointExtension>
        </extensions>
      </trkpt>
      <trkpt lat="42.5152565538883209228515625" lon="20.14516138471662998199462890625">
        <ele>2139</ele>
        <time>2026-06-20T09:48:44.000Z</time>
        <extensions>
          <ns3:TrackPointExtension>
            <ns3:atemp>23.0</ns3:atemp>
          </ns3:TrackPointExtension>
        </extensions>
      </trkpt>
      <trkpt lat="42.5152565538883209228515625" lon="20.14516138471662998199462890625">
        <ele>2139</ele>
        <time>2026-06-20T09:48:45.000Z</time>
        <extensions>
          <ns3:TrackPointExtension>
            <ns3:atemp>23.0</ns3:atemp>
          </ns3:TrackPointExtension>
        </extensions>
      </trkpt>
      <trkpt lat="42.5152565538883209228515625" lon="20.14516138471662998199462890625">
        <ele>2139</ele>
        <time>2026-06-20T09:48:46.000Z</time>
        <extensions>
          <ns3:TrackPointExtension>
            <ns3:atemp>23.0</ns3:atemp>
          </ns3:TrackPointExtension>
        </extensions>
      </trkpt>
      <trkpt lat="42.51525362022221088409423828125" lon="20.14517513103783130645751953125">
        <ele>2139</ele>
        <time>2026-06-20T09:48:47.000Z</time>
        <extensions>
          <ns3:TrackPointExtension>
            <ns3:atemp>23.0</ns3:atemp>
          </ns3:TrackPointExtension>
        </extensions>
      </trkpt>
      <trkpt lat="42.51525697298347949981689453125" lon="20.1451641507446765899658203125">
        <ele>2139</ele>
        <time>2026-06-20T09:48:48.000Z</time>
        <extensions>
          <ns3:TrackPointExtension>
            <ns3:atemp>23.0</ns3:atemp>
          </ns3:TrackPointExtension>
        </extensions>
      </trkpt>
      <trkpt lat="42.5152610801160335540771484375" lon="20.14515702612698078155517578125">
        <ele>2139</ele>
        <time>2026-06-20T09:48:49.000Z</time>
        <extensions>
          <ns3:TrackPointExtension>
            <ns3:atemp>23.0</ns3:atemp>
          </ns3:TrackPointExtension>
        </extensions>
      </trkpt>
      <trkpt lat="42.51526569016277790069580078125" lon="20.14514696784317493438720703125">
        <ele>2139</ele>
        <time>2026-06-20T09:48:50.000Z</time>
        <extensions>
          <ns3:TrackPointExtension>
            <ns3:atemp>23.0</ns3:atemp>
          </ns3:TrackPointExtension>
        </extensions>
      </trkpt>
      <trkpt lat="42.5152565538883209228515625" lon="20.14516138471662998199462890625">
        <ele>2139</ele>
        <time>2026-06-20T09:48:51.000Z</time>
        <extensions>
          <ns3:TrackPointExtension>
            <ns3:atemp>23.0</ns3:atemp>
          </ns3:TrackPointExtension>
        </extensions>
      </trkpt>
      <trkpt lat="42.51526552252471446990966796875" lon="20.1451504044234752655029296875">
        <ele>2139</ele>
        <time>2026-06-20T09:48:52.000Z</time>
        <extensions>
          <ns3:TrackPointExtension>
            <ns3:atemp>23.0</ns3:atemp>
          </ns3:TrackPointExtension>
        </extensions>
      </trkpt>
      <trkpt lat="42.51526468433439731597900390625" lon="20.14514545910060405731201171875">
        <ele>2139</ele>
        <time>2026-06-20T09:48:53.000Z</time>
        <extensions>
          <ns3:TrackPointExtension>
            <ns3:atemp>23.0</ns3:atemp>
          </ns3:TrackPointExtension>
        </extensions>
      </trkpt>
      <trkpt lat="42.51526384614408016204833984375" lon="20.145135819911956787109375">
        <ele>2139</ele>
        <time>2026-06-20T09:48:54.000Z</time>
        <extensions>
          <ns3:TrackPointExtension>
            <ns3:atemp>23.0</ns3:atemp>
          </ns3:TrackPointExtension>
        </extensions>
      </trkpt>
      <trkpt lat="42.5152691267430782318115234375" lon="20.1451182179152965545654296875">
        <ele>2139</ele>
        <time>2026-06-20T09:48:55.000Z</time>
        <extensions>
          <ns3:TrackPointExtension>
            <ns3:atemp>23.0</ns3:atemp>
          </ns3:TrackPointExtension>
        </extensions>
      </trkpt>
      <trkpt lat="42.51527004875242710113525390625" lon="20.14509902335703372955322265625">
        <ele>2139.39990234375</ele>
        <time>2026-06-20T09:48:56.000Z</time>
        <extensions>
          <ns3:TrackPointExtension>
            <ns3:atemp>23.0</ns3:atemp>
          </ns3:TrackPointExtension>
        </extensions>
      </trkpt>
      <trkpt lat="42.515272311866283416748046875" lon="20.1450756378471851348876953125">
        <ele>2139.39990234375</ele>
        <time>2026-06-20T09:48:57.000Z</time>
        <extensions>
          <ns3:TrackPointExtension>
            <ns3:atemp>23.0</ns3:atemp>
          </ns3:TrackPointExtension>
        </extensions>
      </trkpt>
      <trkpt lat="42.51527558080852031707763671875" lon="20.14505275525152683258056640625">
        <ele>2139.199951171875</ele>
        <time>2026-06-20T09:48:58.000Z</time>
        <extensions>
          <ns3:TrackPointExtension>
            <ns3:atemp>23.0</ns3:atemp>
          </ns3:TrackPointExtension>
        </extensions>
      </trkpt>
      <trkpt lat="42.51528044231235980987548828125" lon="20.145030878484249114990234375">
        <ele>2139.39990234375</ele>
        <time>2026-06-20T09:48:59.000Z</time>
        <extensions>
          <ns3:TrackPointExtension>
            <ns3:atemp>23.0</ns3:atemp>
          </ns3:TrackPointExtension>
        </extensions>
      </trkpt>
      <trkpt lat="42.515283711254596710205078125" lon="20.14500782825052738189697265625">
        <ele>2139.39990234375</ele>
        <time>2026-06-20T09:49:00.000Z</time>
        <extensions>
          <ns3:TrackPointExtension>
            <ns3:atemp>23.0</ns3:atemp>
          </ns3:TrackPointExtension>
        </extensions>
      </trkpt>
      <trkpt lat="42.5152868963778018951416015625" lon="20.1449861191213130950927734375">
        <ele>2139.60009765625</ele>
        <time>2026-06-20T09:49:01.000Z</time>
        <extensions>
          <ns3:TrackPointExtension>
            <ns3:atemp>23.0</ns3:atemp>
          </ns3:TrackPointExtension>
        </extensions>
      </trkpt>
      <trkpt lat="42.51529200933873653411865234375" lon="20.1449616439640522003173828125">
        <ele>2139.60009765625</ele>
        <time>2026-06-20T09:49:02.000Z</time>
        <extensions>
          <ns3:TrackPointExtension>
            <ns3:atemp>23.0</ns3:atemp>
          </ns3:TrackPointExtension>
        </extensions>
      </trkpt>
      <trkpt lat="42.515296451747417449951171875" lon="20.1449348218739032745361328125">
        <ele>2139.60009765625</ele>
        <time>2026-06-20T09:49:03.000Z</time>
        <extensions>
          <ns3:TrackPointExtension>
            <ns3:atemp>23.0</ns3:atemp>
          </ns3:TrackPointExtension>
        </extensions>
      </trkpt>
      <trkpt lat="42.51529821194708347320556640625" lon="20.1449106819927692413330078125">
        <ele>2139.800048828125</ele>
        <time>2026-06-20T09:49:04.000Z</time>
        <extensions>
          <ns3:TrackPointExtension>
            <ns3:atemp>23.0</ns3:atemp>
          </ns3:TrackPointExtension>
        </extensions>
      </trkpt>
      <trkpt lat="42.5153016485273838043212890625" lon="20.144888050854206085205078125">
        <ele>2139.800048828125</ele>
        <time>2026-06-20T09:49:05.000Z</time>
        <extensions>
          <ns3:TrackPointExtension>
            <ns3:atemp>23.0</ns3:atemp>
          </ns3:TrackPointExtension>
        </extensions>
      </trkpt>
      <trkpt lat="42.51530793495476245880126953125" lon="20.14486491680145263671875">
        <ele>2140.199951171875</ele>
        <time>2026-06-20T09:49:06.000Z</time>
        <extensions>
          <ns3:TrackPointExtension>
            <ns3:atemp>23.0</ns3:atemp>
          </ns3:TrackPointExtension>
        </extensions>
      </trkpt>
      <trkpt lat="42.515320591628551483154296875" lon="20.1448456384241580963134765625">
        <ele>2140.39990234375</ele>
        <time>2026-06-20T09:49:07.000Z</time>
        <extensions>
          <ns3:TrackPointExtension>
            <ns3:atemp>23.0</ns3:atemp>
          </ns3:TrackPointExtension>
        </extensions>
      </trkpt>
      <trkpt lat="42.51533257775008678436279296875" lon="20.1448271982371807098388671875">
        <ele>2140.60009765625</ele>
        <time>2026-06-20T09:49:08.000Z</time>
        <extensions>
          <ns3:TrackPointExtension>
            <ns3:atemp>23.0</ns3:atemp>
          </ns3:TrackPointExtension>
        </extensions>
      </trkpt>
      <trkpt lat="42.51534129492938518524169921875" lon="20.144809596240520477294921875">
        <ele>2140.800048828125</ele>
        <time>2026-06-20T09:49:09.000Z</time>
        <extensions>
          <ns3:TrackPointExtension>
            <ns3:atemp>23.0</ns3:atemp>
          </ns3:TrackPointExtension>
        </extensions>
      </trkpt>
      <trkpt lat="42.51535185612738132476806640625" lon="20.144790820777416229248046875">
        <ele>2141.199951171875</ele>
        <time>2026-06-20T09:49:10.000Z</time>
        <extensions>
          <ns3:TrackPointExtension>
            <ns3:atemp>23.0</ns3:atemp>
          </ns3:TrackPointExtension>
        </extensions>
      </trkpt>
      <trkpt lat="42.51536359079182147979736328125" lon="20.1447712071239948272705078125">
        <ele>2141.39990234375</ele>
        <time>2026-06-20T09:49:11.000Z</time>
        <extensions>
          <ns3:TrackPointExtension>
            <ns3:atemp>23.0</ns3:atemp>
          </ns3:TrackPointExtension>
        </extensions>
      </trkpt>
      <trkpt lat="42.5153730623424053192138671875" lon="20.14475167728960514068603515625">
        <ele>2142</ele>
        <time>2026-06-20T09:49:12.000Z</time>
        <extensions>
          <ns3:TrackPointExtension>
            <ns3:atemp>23.0</ns3:atemp>
          </ns3:TrackPointExtension>
        </extensions>
      </trkpt>
      <trkpt lat="42.5153764151036739349365234375" lon="20.1447266153991222381591796875">
        <ele>2142.39990234375</ele>
        <time>2026-06-20T09:49:13.000Z</time>
        <extensions>
          <ns3:TrackPointExtension>
            <ns3:atemp>23.0</ns3:atemp>
          </ns3:TrackPointExtension>
        </extensions>
      </trkpt>
      <trkpt lat="42.51536861993372440338134765625" lon="20.14470725320279598236083984375">
        <ele>2143</ele>
        <time>2026-06-20T09:49:14.000Z</time>
        <extensions>
          <ns3:TrackPointExtension>
            <ns3:atemp>23.0</ns3:atemp>
          </ns3:TrackPointExtension>
        </extensions>
      </trkpt>
      <trkpt lat="42.515358142554759979248046875" lon="20.1446974463760852813720703125">
        <ele>2143.39990234375</ele>
        <time>2026-06-20T09:49:15.000Z</time>
        <extensions>
          <ns3:TrackPointExtension>
            <ns3:atemp>23.0</ns3:atemp>
          </ns3:TrackPointExtension>
        </extensions>
      </trkpt>
      <trkpt lat="42.51534841954708099365234375" lon="20.1446977816522121429443359375">
        <ele>2143.800048828125</ele>
        <time>2026-06-20T09:49:16.000Z</time>
        <extensions>
          <ns3:TrackPointExtension>
            <ns3:atemp>23.0</ns3:atemp>
          </ns3:TrackPointExtension>
        </extensions>
      </trkpt>
      <trkpt lat="42.51534707844257354736328125" lon="20.14469367451965808868408203125">
        <ele>2144</ele>
        <time>2026-06-20T09:49:17.000Z</time>
        <extensions>
          <ns3:TrackPointExtension>
            <ns3:atemp>23.0</ns3:atemp>
          </ns3:TrackPointExtension>
        </extensions>
      </trkpt>
      <trkpt lat="42.51534582115709781646728515625" lon="20.1446920819580554962158203125">
        <ele>2144.199951171875</ele>
        <time>2026-06-20T09:49:18.000Z</time>
        <extensions>
          <ns3:TrackPointExtension>
            <ns3:atemp>23.0</ns3:atemp>
          </ns3:TrackPointExtension>
        </extensions>
      </trkpt>
      <trkpt lat="42.51534573733806610107421875" lon="20.14469199813902378082275390625">
        <ele>2144.39990234375</ele>
        <time>2026-06-20T09:49:19.000Z</time>
        <extensions>
          <ns3:TrackPointExtension>
            <ns3:atemp>23.0</ns3:atemp>
          </ns3:TrackPointExtension>
        </extensions>
      </trkpt>
      <trkpt lat="42.51534573733806610107421875" lon="20.14469199813902378082275390625">
        <ele>2144.39990234375</ele>
        <time>2026-06-20T09:49:20.000Z</time>
        <extensions>
          <ns3:TrackPointExtension>
            <ns3:atemp>23.0</ns3:atemp>
          </ns3:TrackPointExtension>
        </extensions>
      </trkpt>
      <trkpt lat="42.51534573733806610107421875" lon="20.14469199813902378082275390625">
        <ele>2144.199951171875</ele>
        <time>2026-06-20T09:49:21.000Z</time>
        <extensions>
          <ns3:TrackPointExtension>
            <ns3:atemp>23.0</ns3:atemp>
          </ns3:TrackPointExtension>
        </extensions>
      </trkpt>
      <trkpt lat="42.51534573733806610107421875" lon="20.14469199813902378082275390625">
        <ele>2144.199951171875</ele>
        <time>2026-06-20T09:49:22.000Z</time>
        <extensions>
          <ns3:TrackPointExtension>
            <ns3:atemp>23.0</ns3:atemp>
          </ns3:TrackPointExtension>
        </extensions>
      </trkpt>
      <trkpt lat="42.51534573733806610107421875" lon="20.14469199813902378082275390625">
        <ele>2144.199951171875</ele>
        <time>2026-06-20T09:49:23.000Z</time>
        <extensions>
          <ns3:TrackPointExtension>
            <ns3:atemp>23.0</ns3:atemp>
          </ns3:TrackPointExtension>
        </extensions>
      </trkpt>
      <trkpt lat="42.51534573733806610107421875" lon="20.14469199813902378082275390625">
        <ele>2144.199951171875</ele>
        <time>2026-06-20T09:49:24.000Z</time>
        <extensions>
          <ns3:TrackPointExtension>
            <ns3:atemp>23.0</ns3:atemp>
          </ns3:TrackPointExtension>
        </extensions>
      </trkpt>
      <trkpt lat="42.51534573733806610107421875" lon="20.14469199813902378082275390625">
        <ele>2144.199951171875</ele>
        <time>2026-06-20T09:49:25.000Z</time>
        <extensions>
          <ns3:TrackPointExtension>
            <ns3:atemp>23.0</ns3:atemp>
          </ns3:TrackPointExtension>
        </extensions>
      </trkpt>
      <trkpt lat="42.51534573733806610107421875" lon="20.14469199813902378082275390625">
        <ele>2144.199951171875</ele>
        <time>2026-06-20T09:49:26.000Z</time>
        <extensions>
          <ns3:TrackPointExtension>
            <ns3:atemp>23.0</ns3:atemp>
          </ns3:TrackPointExtension>
        </extensions>
      </trkpt>
      <trkpt lat="42.51534573733806610107421875" lon="20.14469199813902378082275390625">
        <ele>2144.199951171875</ele>
        <time>2026-06-20T09:49:27.000Z</time>
        <extensions>
          <ns3:TrackPointExtension>
            <ns3:atemp>23.0</ns3:atemp>
          </ns3:TrackPointExtension>
        </extensions>
      </trkpt>
      <trkpt lat="42.51534573733806610107421875" lon="20.14469199813902378082275390625">
        <ele>2144.199951171875</ele>
        <time>2026-06-20T09:49:28.000Z</time>
        <extensions>
          <ns3:TrackPointExtension>
            <ns3:atemp>23.0</ns3:atemp>
          </ns3:TrackPointExtension>
        </extensions>
      </trkpt>
      <trkpt lat="42.51534573733806610107421875" lon="20.14469199813902378082275390625">
        <ele>2144.199951171875</ele>
        <time>2026-06-20T09:49:29.000Z</time>
        <extensions>
          <ns3:TrackPointExtension>
            <ns3:atemp>23.0</ns3:atemp>
          </ns3:TrackPointExtension>
        </extensions>
      </trkpt>
      <trkpt lat="42.51534481532871723175048828125" lon="20.144691579043865203857421875">
        <ele>2144.39990234375</ele>
        <time>2026-06-20T09:49:30.000Z</time>
        <extensions>
          <ns3:TrackPointExtension>
            <ns3:atemp>23.0</ns3:atemp>
          </ns3:TrackPointExtension>
        </extensions>
      </trkpt>
      <trkpt lat="42.51533224247395992279052734375" lon="20.1446944288909435272216796875">
        <ele>2144.39990234375</ele>
        <time>2026-06-20T09:49:31.000Z</time>
        <extensions>
          <ns3:TrackPointExtension>
            <ns3:atemp>23.0</ns3:atemp>
          </ns3:TrackPointExtension>
        </extensions>
      </trkpt>
      <trkpt lat="42.51532319001853466033935546875" lon="20.14470507390797138214111328125">
        <ele>2144.60009765625</ele>
        <time>2026-06-20T09:49:32.000Z</time>
        <extensions>
          <ns3:TrackPointExtension>
            <ns3:atemp>23.0</ns3:atemp>
          </ns3:TrackPointExtension>
        </extensions>
      </trkpt>
      <trkpt lat="42.51531866379082202911376953125" lon="20.1447205804288387298583984375">
        <ele>2144.39990234375</ele>
        <time>2026-06-20T09:49:33.000Z</time>
        <extensions>
          <ns3:TrackPointExtension>
            <ns3:atemp>23.0</ns3:atemp>
          </ns3:TrackPointExtension>
        </extensions>
      </trkpt>
      <trkpt lat="42.5153182446956634521484375" lon="20.14474228955805301666259765625">
        <ele>2144.199951171875</ele>
        <time>2026-06-20T09:49:34.000Z</time>
        <extensions>
          <ns3:TrackPointExtension>
            <ns3:atemp>23.0</ns3:atemp>
          </ns3:TrackPointExtension>
        </extensions>
      </trkpt>
      <trkpt lat="42.5153180770576000213623046875" lon="20.14476978220045566558837890625">
        <ele>2144</ele>
        <time>2026-06-20T09:49:35.000Z</time>
        <extensions>
          <ns3:TrackPointExtension>
            <ns3:atemp>23.0</ns3:atemp>
          </ns3:TrackPointExtension>
        </extensions>
      </trkpt>
      <trkpt lat="42.5153137184679508209228515625" lon="20.14480230398476123809814453125">
        <ele>2143.800048828125</ele>
        <time>2026-06-20T09:49:36.000Z</time>
        <extensions>
          <ns3:TrackPointExtension>
            <ns3:atemp>23.0</ns3:atemp>
          </ns3:TrackPointExtension>
        </extensions>
      </trkpt>
      <trkpt lat="42.5153056718409061431884765625" lon="20.144843794405460357666015625">
        <ele>2143.60009765625</ele>
        <time>2026-06-20T09:49:37.000Z</time>
        <extensions>
          <ns3:TrackPointExtension>
            <ns3:atemp>23.0</ns3:atemp>
          </ns3:TrackPointExtension>
        </extensions>
      </trkpt>
      <trkpt lat="42.515297792851924896240234375" lon="20.14489567838609218597412109375">
        <ele>2143.39990234375</ele>
        <time>2026-06-20T09:49:38.000Z</time>
        <extensions>
          <ns3:TrackPointExtension>
            <ns3:atemp>23.0</ns3:atemp>
          </ns3:TrackPointExtension>
        </extensions>
      </trkpt>
      <trkpt lat="42.51528966240584850311279296875" lon="20.14495887793600559234619140625">
        <ele>2143.199951171875</ele>
        <time>2026-06-20T09:49:39.000Z</time>
        <extensions>
          <ns3:TrackPointExtension>
            <ns3:atemp>23.0</ns3:atemp>
          </ns3:TrackPointExtension>
        </extensions>
      </trkpt>
      <trkpt lat="42.51528027467429637908935546875" lon="20.14502249658107757568359375">
        <ele>2142.800048828125</ele>
        <time>2026-06-20T09:49:40.000Z</time>
        <extensions>
          <ns3:TrackPointExtension>
            <ns3:atemp>23.0</ns3:atemp>
          </ns3:TrackPointExtension>
        </extensions>
      </trkpt>
      <trkpt lat="42.51526719890534877777099609375" lon="20.14508594758808612823486328125">
        <ele>2142.39990234375</ele>
        <time>2026-06-20T09:49:41.000Z</time>
        <extensions>
          <ns3:TrackPointExtension>
            <ns3:atemp>23.0</ns3:atemp>
          </ns3:TrackPointExtension>
        </extensions>
      </trkpt>
      <trkpt lat="42.51525563187897205352783203125" lon="20.1451510749757289886474609375">
        <ele>2141.800048828125</ele>
        <time>2026-06-20T09:49:42.000Z</time>
        <extensions>
          <ns3:TrackPointExtension>
            <ns3:atemp>23.0</ns3:atemp>
          </ns3:TrackPointExtension>
        </extensions>
      </trkpt>
      <trkpt lat="42.51524825580418109893798828125" lon="20.1452177949249744415283203125">
        <ele>2141.199951171875</ele>
        <time>2026-06-20T09:49:43.000Z</time>
        <extensions>
          <ns3:TrackPointExtension>
            <ns3:atemp>23.0</ns3:atemp>
          </ns3:TrackPointExtension>
        </extensions>
      </trkpt>
      <trkpt lat="42.5152459926903247833251953125" lon="20.14528258703649044036865234375">
        <ele>2140.60009765625</ele>
        <time>2026-06-20T09:49:44.000Z</time>
        <extensions>
          <ns3:TrackPointExtension>
            <ns3:atemp>23.0</ns3:atemp>
          </ns3:TrackPointExtension>
        </extensions>
      </trkpt>
      <trkpt lat="42.51525051891803741455078125" lon="20.1453358121216297149658203125">
        <ele>2140</ele>
        <time>2026-06-20T09:49:45.000Z</time>
        <extensions>
          <ns3:TrackPointExtension>
            <ns3:atemp>23.0</ns3:atemp>
          </ns3:TrackPointExtension>
        </extensions>
      </trkpt>
      <trkpt lat="42.515254877507686614990234375" lon="20.14537847600877285003662109375">
        <ele>2139.60009765625</ele>
        <time>2026-06-20T09:49:46.000Z</time>
        <extensions>
          <ns3:TrackPointExtension>
            <ns3:atemp>23.0</ns3:atemp>
          </ns3:TrackPointExtension>
        </extensions>
      </trkpt>
      <trkpt lat="42.5152590684592723846435546875" lon="20.14541133306920528411865234375">
        <ele>2139.60009765625</ele>
        <time>2026-06-20T09:49:47.000Z</time>
        <extensions>
          <ns3:TrackPointExtension>
            <ns3:atemp>23.0</ns3:atemp>
          </ns3:TrackPointExtension>
        </extensions>
      </trkpt>
      <trkpt lat="42.51526267267763614654541015625" lon="20.1454377360641956329345703125">
        <ele>2139.39990234375</ele>
        <time>2026-06-20T09:49:48.000Z</time>
        <extensions>
          <ns3:TrackPointExtension>
            <ns3:atemp>23.0</ns3:atemp>
          </ns3:TrackPointExtension>
        </extensions>
      </trkpt>
      <trkpt lat="42.51526284031569957733154296875" lon="20.14546548016369342803955078125">
        <ele>2139.60009765625</ele>
        <time>2026-06-20T09:49:49.000Z</time>
        <extensions>
          <ns3:TrackPointExtension>
            <ns3:atemp>23.0</ns3:atemp>
          </ns3:TrackPointExtension>
        </extensions>
      </trkpt>
      <trkpt lat="42.51526258885860443115234375" lon="20.14549012295901775360107421875">
        <ele>2139.800048828125</ele>
        <time>2026-06-20T09:49:50.000Z</time>
        <extensions>
          <ns3:TrackPointExtension>
            <ns3:atemp>23.0</ns3:atemp>
          </ns3:TrackPointExtension>
        </extensions>
      </trkpt>
      <trkpt lat="42.5152597390115261077880859375" lon="20.14551359228789806365966796875">
        <ele>2140.199951171875</ele>
        <time>2026-06-20T09:49:51.000Z</time>
        <extensions>
          <ns3:TrackPointExtension>
            <ns3:atemp>23.0</ns3:atemp>
          </ns3:TrackPointExtension>
        </extensions>
      </trkpt>
      <trkpt lat="42.51525999046862125396728515625" lon="20.14554024673998355865478515625">
        <ele>2140.60009765625</ele>
        <time>2026-06-20T09:49:52.000Z</time>
        <extensions>
          <ns3:TrackPointExtension>
            <ns3:atemp>23.0</ns3:atemp>
          </ns3:TrackPointExtension>
        </extensions>
      </trkpt>
      <trkpt lat="42.51526384614408016204833984375" lon="20.1455716788768768310546875">
        <ele>2141</ele>
        <time>2026-06-20T09:49:53.000Z</time>
        <extensions>
          <ns3:TrackPointExtension>
            <ns3:atemp>23.0</ns3:atemp>
          </ns3:TrackPointExtension>
        </extensions>
      </trkpt>
      <trkpt lat="42.5152644328773021697998046875" lon="20.1455993391573429107666015625">
        <ele>2141.199951171875</ele>
        <time>2026-06-20T09:49:54.000Z</time>
        <extensions>
          <ns3:TrackPointExtension>
            <ns3:atemp>23.0</ns3:atemp>
          </ns3:TrackPointExtension>
        </extensions>
      </trkpt>
      <trkpt lat="42.5152620859444141387939453125" lon="20.14562725089490413665771484375">
        <ele>2141.60009765625</ele>
        <time>2026-06-20T09:49:55.000Z</time>
        <extensions>
          <ns3:TrackPointExtension>
            <ns3:atemp>23.0</ns3:atemp>
          </ns3:TrackPointExtension>
        </extensions>
      </trkpt>
      <trkpt lat="42.51525990664958953857421875" lon="20.145653150975704193115234375">
        <ele>2141.800048828125</ele>
        <time>2026-06-20T09:49:56.000Z</time>
        <extensions>
          <ns3:TrackPointExtension>
            <ns3:atemp>23.0</ns3:atemp>
          </ns3:TrackPointExtension>
        </extensions>
      </trkpt>
      <trkpt lat="42.51525931991636753082275390625" lon="20.1456811465322971343994140625">
        <ele>2142</ele>
        <time>2026-06-20T09:49:57.000Z</time>
        <extensions>
          <ns3:TrackPointExtension>
            <ns3:atemp>23.0</ns3:atemp>
          </ns3:TrackPointExtension>
        </extensions>
      </trkpt>
      <trkpt lat="42.5152543745934963226318359375" lon="20.145709477365016937255859375">
        <ele>2142.39990234375</ele>
        <time>2026-06-20T09:49:58.000Z</time>
        <extensions>
          <ns3:TrackPointExtension>
            <ns3:atemp>23.0</ns3:atemp>
          </ns3:TrackPointExtension>
        </extensions>
      </trkpt>
      <trkpt lat="42.51525177620351314544677734375" lon="20.14573671855032444000244140625">
        <ele>2142.800048828125</ele>
        <time>2026-06-20T09:49:59.000Z</time>
        <extensions>
          <ns3:TrackPointExtension>
            <ns3:atemp>23.0</ns3:atemp>
          </ns3:TrackPointExtension>
        </extensions>
      </trkpt>
      <trkpt lat="42.51525009982287883758544921875" lon="20.14576521702110767364501953125">
        <ele>2143.39990234375</ele>
        <time>2026-06-20T09:50:00.000Z</time>
        <extensions>
          <ns3:TrackPointExtension>
            <ns3:atemp>23.0</ns3:atemp>
          </ns3:TrackPointExtension>
        </extensions>
      </trkpt>
      <trkpt lat="42.5152483396232128143310546875" lon="20.145789273083209991455078125">
        <ele>2143.800048828125</ele>
        <time>2026-06-20T09:50:01.000Z</time>
        <extensions>
          <ns3:TrackPointExtension>
            <ns3:atemp>23.0</ns3:atemp>
          </ns3:TrackPointExtension>
        </extensions>
      </trkpt>
      <trkpt lat="42.515246830880641937255859375" lon="20.14581332914531230926513671875">
        <ele>2144</ele>
        <time>2026-06-20T09:50:02.000Z</time>
        <extensions>
          <ns3:TrackPointExtension>
            <ns3:atemp>23.0</ns3:atemp>
          </ns3:TrackPointExtension>
        </extensions>
      </trkpt>
      <trkpt lat="42.5152396224439144134521484375" lon="20.14583864249289035797119140625">
        <ele>2144.199951171875</ele>
        <time>2026-06-20T09:50:03.000Z</time>
        <extensions>
          <ns3:TrackPointExtension>
            <ns3:atemp>23.0</ns3:atemp>
          </ns3:TrackPointExtension>
        </extensions>
      </trkpt>
      <trkpt lat="42.515227384865283966064453125" lon="20.145859010517597198486328125">
        <ele>2144.39990234375</ele>
        <time>2026-06-20T09:50:04.000Z</time>
        <extensions>
          <ns3:TrackPointExtension>
            <ns3:atemp>23.0</ns3:atemp>
          </ns3:TrackPointExtension>
        </extensions>
      </trkpt>
      <trkpt lat="42.51521925441920757293701171875" lon="20.14588474296033382415771484375">
        <ele>2144.800048828125</ele>
        <time>2026-06-20T09:50:05.000Z</time>
        <extensions>
          <ns3:TrackPointExtension>
            <ns3:atemp>23.0</ns3:atemp>
          </ns3:TrackPointExtension>
        </extensions>
      </trkpt>
      <trkpt lat="42.51521975733339786529541015625" lon="20.14591567218303680419921875">
        <ele>2145.199951171875</ele>
        <time>2026-06-20T09:50:06.000Z</time>
        <extensions>
          <ns3:TrackPointExtension>
            <ns3:atemp>23.0</ns3:atemp>
          </ns3:TrackPointExtension>
        </extensions>
      </trkpt>
      <trkpt lat="42.51522227190434932708740234375" lon="20.14594383537769317626953125">
        <ele>2145.800048828125</ele>
        <time>2026-06-20T09:50:07.000Z</time>
        <extensions>
          <ns3:TrackPointExtension>
            <ns3:atemp>23.0</ns3:atemp>
          </ns3:TrackPointExtension>
        </extensions>
      </trkpt>
      <trkpt lat="42.5152191706001758575439453125" lon="20.1459674723446369171142578125">
        <ele>2146.199951171875</ele>
        <time>2026-06-20T09:50:08.000Z</time>
        <extensions>
          <ns3:TrackPointExtension>
            <ns3:atemp>23.0</ns3:atemp>
          </ns3:TrackPointExtension>
        </extensions>
      </trkpt>
      <trkpt lat="42.51521439291536808013916015625" lon="20.14599211513996124267578125">
        <ele>2146.800048828125</ele>
        <time>2026-06-20T09:50:09.000Z</time>
        <extensions>
          <ns3:TrackPointExtension>
            <ns3:atemp>23.0</ns3:atemp>
          </ns3:TrackPointExtension>
        </extensions>
      </trkpt>
      <trkpt lat="42.5152082741260528564453125" lon="20.14601214788854122161865234375">
        <ele>2147.39990234375</ele>
        <time>2026-06-20T09:50:10.000Z</time>
        <extensions>
          <ns3:TrackPointExtension>
            <ns3:atemp>23.0</ns3:atemp>
          </ns3:TrackPointExtension>
        </extensions>
      </trkpt>
      <trkpt lat="42.51519846729934215545654296875" lon="20.14603360556066036224365234375">
        <ele>2148</ele>
        <time>2026-06-20T09:50:11.000Z</time>
        <extensions>
          <ns3:TrackPointExtension>
            <ns3:atemp>23.0</ns3:atemp>
          </ns3:TrackPointExtension>
        </extensions>
      </trkpt>
      <trkpt lat="42.515193521976470947265625" lon="20.14605782926082611083984375">
        <ele>2148.39990234375</ele>
        <time>2026-06-20T09:50:12.000Z</time>
        <extensions>
          <ns3:TrackPointExtension>
            <ns3:atemp>23.0</ns3:atemp>
          </ns3:TrackPointExtension>
        </extensions>
      </trkpt>
      <trkpt lat="42.51518656499683856964111328125" lon="20.1460848189890384674072265625">
        <ele>2149</ele>
        <time>2026-06-20T09:50:13.000Z</time>
        <extensions>
          <ns3:TrackPointExtension>
            <ns3:atemp>23.0</ns3:atemp>
          </ns3:TrackPointExtension>
        </extensions>
      </trkpt>
      <trkpt lat="42.5151832960546016693115234375" lon="20.14611423946917057037353515625">
        <ele>2149.39990234375</ele>
        <time>2026-06-20T09:50:14.000Z</time>
        <extensions>
          <ns3:TrackPointExtension>
            <ns3:atemp>23.0</ns3:atemp>
          </ns3:TrackPointExtension>
        </extensions>
      </trkpt>
      <trkpt lat="42.51518589444458484649658203125" lon="20.14614223502576351165771484375">
        <ele>2150</ele>
        <time>2026-06-20T09:50:15.000Z</time>
        <extensions>
          <ns3:TrackPointExtension>
            <ns3:atemp>23.0</ns3:atemp>
          </ns3:TrackPointExtension>
        </extensions>
      </trkpt>
      <trkpt lat="42.51518882811069488525390625" lon="20.146168805658817291259765625">
        <ele>2150.60009765625</ele>
        <time>2026-06-20T09:50:16.000Z</time>
        <extensions>
          <ns3:TrackPointExtension>
            <ns3:atemp>23.0</ns3:atemp>
          </ns3:TrackPointExtension>
        </extensions>
      </trkpt>
      <trkpt lat="42.51519762910902500152587890625" lon="20.146192274987697601318359375">
        <ele>2151</ele>
        <time>2026-06-20T09:50:17.000Z</time>
        <extensions>
          <ns3:TrackPointExtension>
            <ns3:atemp>23.0</ns3:atemp>
          </ns3:TrackPointExtension>
        </extensions>
      </trkpt>
      <trkpt lat="42.5152050890028476715087890625" lon="20.1462175883352756500244140625">
        <ele>2151.39990234375</ele>
        <time>2026-06-20T09:50:18.000Z</time>
        <extensions>
          <ns3:TrackPointExtension>
            <ns3:atemp>23.0</ns3:atemp>
          </ns3:TrackPointExtension>
        </extensions>
      </trkpt>
      <trkpt lat="42.515203915536403656005859375" lon="20.14623845927417278289794921875">
        <ele>2152</ele>
        <time>2026-06-20T09:50:19.000Z</time>
        <extensions>
          <ns3:TrackPointExtension>
            <ns3:atemp>23.0</ns3:atemp>
          </ns3:TrackPointExtension>
        </extensions>
      </trkpt>
      <trkpt lat="42.51519913785159587860107421875" lon="20.14626142568886280059814453125">
        <ele>2152.39990234375</ele>
        <time>2026-06-20T09:50:20.000Z</time>
        <extensions>
          <ns3:TrackPointExtension>
            <ns3:atemp>23.0</ns3:atemp>
          </ns3:TrackPointExtension>
        </extensions>
      </trkpt>
      <trkpt lat="42.51519980840384960174560546875" lon="20.14628573320806026458740234375">
        <ele>2153</ele>
        <time>2026-06-20T09:50:21.000Z</time>
        <extensions>
          <ns3:TrackPointExtension>
            <ns3:atemp>23.0</ns3:atemp>
          </ns3:TrackPointExtension>
        </extensions>
      </trkpt>
      <trkpt lat="42.51520249061286449432373046875" lon="20.1463094539940357208251953125">
        <ele>2153.60009765625</ele>
        <time>2026-06-20T09:50:22.000Z</time>
        <extensions>
          <ns3:TrackPointExtension>
            <ns3:atemp>23.0</ns3:atemp>
          </ns3:TrackPointExtension>
        </extensions>
      </trkpt>
      <trkpt lat="42.515204250812530517578125" lon="20.146330408751964569091796875">
        <ele>2154</ele>
        <time>2026-06-20T09:50:23.000Z</time>
        <extensions>
          <ns3:TrackPointExtension>
            <ns3:atemp>23.0</ns3:atemp>
          </ns3:TrackPointExtension>
        </extensions>
      </trkpt>
      <trkpt lat="42.5152040831744670867919921875" lon="20.14635580591857433319091796875">
        <ele>2154.199951171875</ele>
        <time>2026-06-20T09:50:24.000Z</time>
        <extensions>
          <ns3:TrackPointExtension>
            <ns3:atemp>23.0</ns3:atemp>
          </ns3:TrackPointExtension>
        </extensions>
      </trkpt>
      <trkpt lat="42.5151936896145343780517578125" lon="20.14637156389653682708740234375">
        <ele>2154.60009765625</ele>
        <time>2026-06-20T09:50:25.000Z</time>
        <extensions>
          <ns3:TrackPointExtension>
            <ns3:atemp>23.0</ns3:atemp>
          </ns3:TrackPointExtension>
        </extensions>
      </trkpt>
      <trkpt lat="42.51518069766461849212646484375" lon="20.14637726359069347381591796875">
        <ele>2155</ele>
        <time>2026-06-20T09:50:26.000Z</time>
        <extensions>
          <ns3:TrackPointExtension>
            <ns3:atemp>23.0</ns3:atemp>
          </ns3:TrackPointExtension>
        </extensions>
      </trkpt>
      <trkpt lat="42.51516695134341716766357421875" lon="20.1463691331446170806884765625">
        <ele>2155.60009765625</ele>
        <time>2026-06-20T09:50:27.000Z</time>
        <extensions>
          <ns3:TrackPointExtension>
            <ns3:atemp>23.0</ns3:atemp>
          </ns3:TrackPointExtension>
        </extensions>
      </trkpt>
      <trkpt lat="42.51515932381153106689453125" lon="20.14634893275797367095947265625">
        <ele>2156.199951171875</ele>
        <time>2026-06-20T09:50:28.000Z</time>
        <extensions>
          <ns3:TrackPointExtension>
            <ns3:atemp>23.0</ns3:atemp>
          </ns3:TrackPointExtension>
        </extensions>
      </trkpt>
      <trkpt lat="42.51514817588031291961669921875" lon="20.1463218592107295989990234375">
        <ele>2156.800048828125</ele>
        <time>2026-06-20T09:50:29.000Z</time>
        <extensions>
          <ns3:TrackPointExtension>
            <ns3:atemp>23.0</ns3:atemp>
          </ns3:TrackPointExtension>
        </extensions>
      </trkpt>
      <trkpt lat="42.51513593830168247222900390625" lon="20.1463114656507968902587890625">
        <ele>2157.39990234375</ele>
        <time>2026-06-20T09:50:30.000Z</time>
        <extensions>
          <ns3:TrackPointExtension>
            <ns3:atemp>23.0</ns3:atemp>
          </ns3:TrackPointExtension>
        </extensions>
      </trkpt>
      <trkpt lat="42.51512445509433746337890625" lon="20.1463071070611476898193359375">
        <ele>2157.800048828125</ele>
        <time>2026-06-20T09:50:31.000Z</time>
        <extensions>
          <ns3:TrackPointExtension>
            <ns3:atemp>23.0</ns3:atemp>
          </ns3:TrackPointExtension>
        </extensions>
      </trkpt>
      <trkpt lat="42.51511104404926300048828125" lon="20.1463077776134014129638671875">
        <ele>2158</ele>
        <time>2026-06-20T09:50:32.000Z</time>
        <extensions>
          <ns3:TrackPointExtension>
            <ns3:atemp>23.0</ns3:atemp>
          </ns3:TrackPointExtension>
        </extensions>
      </trkpt>
      <trkpt lat="42.51509687863290309906005859375" lon="20.14631456695497035980224609375">
        <ele>2158</ele>
        <time>2026-06-20T09:50:33.000Z</time>
        <extensions>
          <ns3:TrackPointExtension>
            <ns3:atemp>23.0</ns3:atemp>
          </ns3:TrackPointExtension>
        </extensions>
      </trkpt>
      <trkpt lat="42.51508682034909725189208984375" lon="20.14632110483944416046142578125">
        <ele>2158</ele>
        <time>2026-06-20T09:50:34.000Z</time>
        <extensions>
          <ns3:TrackPointExtension>
            <ns3:atemp>23.0</ns3:atemp>
          </ns3:TrackPointExtension>
        </extensions>
      </trkpt>
      <trkpt lat="42.51509067602455615997314453125" lon="20.1463228650391101837158203125">
        <ele>2158</ele>
        <time>2026-06-20T09:50:35.000Z</time>
        <extensions>
          <ns3:TrackPointExtension>
            <ns3:atemp>23.0</ns3:atemp>
          </ns3:TrackPointExtension>
        </extensions>
      </trkpt>
      <trkpt lat="42.5150907598435878753662109375" lon="20.1463228650391101837158203125">
        <ele>2158</ele>
        <time>2026-06-20T09:50:36.000Z</time>
        <extensions>
          <ns3:TrackPointExtension>
            <ns3:atemp>23.0</ns3:atemp>
          </ns3:TrackPointExtension>
        </extensions>
      </trkpt>
      <trkpt lat="42.5150907598435878753662109375" lon="20.1463228650391101837158203125">
        <ele>2157.800048828125</ele>
        <time>2026-06-20T09:50:37.000Z</time>
        <extensions>
          <ns3:TrackPointExtension>
            <ns3:atemp>23.0</ns3:atemp>
          </ns3:TrackPointExtension>
        </extensions>
      </trkpt>
      <trkpt lat="42.5150907598435878753662109375" lon="20.1463228650391101837158203125">
        <ele>2157.800048828125</ele>
        <time>2026-06-20T09:50:38.000Z</time>
        <extensions>
          <ns3:TrackPointExtension>
            <ns3:atemp>23.0</ns3:atemp>
          </ns3:TrackPointExtension>
        </extensions>
      </trkpt>
      <trkpt lat="42.5150907598435878753662109375" lon="20.1463228650391101837158203125">
        <ele>2157.800048828125</ele>
        <time>2026-06-20T09:50:39.000Z</time>
        <extensions>
          <ns3:TrackPointExtension>
            <ns3:atemp>23.0</ns3:atemp>
          </ns3:TrackPointExtension>
        </extensions>
      </trkpt>
      <trkpt lat="42.515091598033905029296875" lon="20.14632311649620532989501953125">
        <ele>2157.800048828125</ele>
        <time>2026-06-20T09:50:40.000Z</time>
        <extensions>
          <ns3:TrackPointExtension>
            <ns3:atemp>23.0</ns3:atemp>
          </ns3:TrackPointExtension>
        </extensions>
      </trkpt>
      <trkpt lat="42.5151048414409160614013671875" lon="20.1463242061436176300048828125">
        <ele>2158</ele>
        <time>2026-06-20T09:50:41.000Z</time>
        <extensions>
          <ns3:TrackPointExtension>
            <ns3:atemp>23.0</ns3:atemp>
          </ns3:TrackPointExtension>
        </extensions>
      </trkpt>
      <trkpt lat="42.515108697116374969482421875" lon="20.146318338811397552490234375">
        <ele>2158.199951171875</ele>
        <time>2026-06-20T09:50:42.000Z</time>
        <extensions>
          <ns3:TrackPointExtension>
            <ns3:atemp>23.0</ns3:atemp>
          </ns3:TrackPointExtension>
        </extensions>
      </trkpt>
      <trkpt lat="42.515110038220882415771484375" lon="20.14631540514528751373291015625">
        <ele>2158.39990234375</ele>
        <time>2026-06-20T09:50:43.000Z</time>
        <extensions>
          <ns3:TrackPointExtension>
            <ns3:atemp>23.0</ns3:atemp>
          </ns3:TrackPointExtension>
        </extensions>
      </trkpt>
      <trkpt lat="42.51510911621153354644775390625" lon="20.1463225297629833221435546875">
        <ele>2158.60009765625</ele>
        <time>2026-06-20T09:50:44.000Z</time>
        <extensions>
          <ns3:TrackPointExtension>
            <ns3:atemp>23.0</ns3:atemp>
          </ns3:TrackPointExtension>
        </extensions>
      </trkpt>
      <trkpt lat="42.515111379325389862060546875" lon="20.14633007347583770751953125">
        <ele>2158.39990234375</ele>
        <time>2026-06-20T09:50:45.000Z</time>
        <extensions>
          <ns3:TrackPointExtension>
            <ns3:atemp>22.0</ns3:atemp>
          </ns3:TrackPointExtension>
        </extensions>
      </trkpt>
      <trkpt lat="42.51511364243924617767333984375" lon="20.14633686281740665435791015625">
        <ele>2158.39990234375</ele>
        <time>2026-06-20T09:50:46.000Z</time>
        <extensions>
          <ns3:TrackPointExtension>
            <ns3:atemp>22.0</ns3:atemp>
          </ns3:TrackPointExtension>
        </extensions>
      </trkpt>
      <trkpt lat="42.51511246897280216217041015625" lon="20.14633988030254840850830078125">
        <ele>2158.199951171875</ele>
        <time>2026-06-20T09:50:47.000Z</time>
        <extensions>
          <ns3:TrackPointExtension>
            <ns3:atemp>23.0</ns3:atemp>
          </ns3:TrackPointExtension>
        </extensions>
      </trkpt>
      <trkpt lat="42.51511246897280216217041015625" lon="20.14633988030254840850830078125">
        <ele>2158</ele>
        <time>2026-06-20T09:50:48.000Z</time>
        <extensions>
          <ns3:TrackPointExtension>
            <ns3:atemp>23.0</ns3:atemp>
          </ns3:TrackPointExtension>
        </extensions>
      </trkpt>
      <trkpt lat="42.51511246897280216217041015625" lon="20.14633988030254840850830078125">
        <ele>2158</ele>
        <time>2026-06-20T09:50:49.000Z</time>
        <extensions>
          <ns3:TrackPointExtension>
            <ns3:atemp>23.0</ns3:atemp>
          </ns3:TrackPointExtension>
        </extensions>
      </trkpt>
      <trkpt lat="42.51511246897280216217041015625" lon="20.14633988030254840850830078125">
        <ele>2158</ele>
        <time>2026-06-20T09:50:50.000Z</time>
        <extensions>
          <ns3:TrackPointExtension>
            <ns3:atemp>23.0</ns3:atemp>
          </ns3:TrackPointExtension>
        </extensions>
      </trkpt>
      <trkpt lat="42.51511246897280216217041015625" lon="20.14633988030254840850830078125">
        <ele>2158.199951171875</ele>
        <time>2026-06-20T09:50:51.000Z</time>
        <extensions>
          <ns3:TrackPointExtension>
            <ns3:atemp>23.0</ns3:atemp>
          </ns3:TrackPointExtension>
        </extensions>
      </trkpt>
      <trkpt lat="42.51511246897280216217041015625" lon="20.14633988030254840850830078125">
        <ele>2158.199951171875</ele>
        <time>2026-06-20T09:50:52.000Z</time>
        <extensions>
          <ns3:TrackPointExtension>
            <ns3:atemp>22.0</ns3:atemp>
          </ns3:TrackPointExtension>
        </extensions>
      </trkpt>
      <trkpt lat="42.51511246897280216217041015625" lon="20.14633988030254840850830078125">
        <ele>2158.199951171875</ele>
        <time>2026-06-20T09:50:53.000Z</time>
        <extensions>
          <ns3:TrackPointExtension>
            <ns3:atemp>22.0</ns3:atemp>
          </ns3:TrackPointExtension>
        </extensions>
      </trkpt>
      <trkpt lat="42.51511246897280216217041015625" lon="20.14633988030254840850830078125">
        <ele>2158.199951171875</ele>
        <time>2026-06-20T09:50:54.000Z</time>
        <extensions>
          <ns3:TrackPointExtension>
            <ns3:atemp>22.0</ns3:atemp>
          </ns3:TrackPointExtension>
        </extensions>
      </trkpt>
      <trkpt lat="42.51511246897280216217041015625" lon="20.14633988030254840850830078125">
        <ele>2158.199951171875</ele>
        <time>2026-06-20T09:50:55.000Z</time>
        <extensions>
          <ns3:TrackPointExtension>
            <ns3:atemp>22.0</ns3:atemp>
          </ns3:TrackPointExtension>
        </extensions>
      </trkpt>
      <trkpt lat="42.51511246897280216217041015625" lon="20.14633988030254840850830078125">
        <ele>2158.199951171875</ele>
        <time>2026-06-20T09:50:56.000Z</time>
        <extensions>
          <ns3:TrackPointExtension>
            <ns3:atemp>22.0</ns3:atemp>
          </ns3:TrackPointExtension>
        </extensions>
      </trkpt>
      <trkpt lat="42.51511246897280216217041015625" lon="20.14633988030254840850830078125">
        <ele>2158</ele>
        <time>2026-06-20T09:50:57.000Z</time>
        <extensions>
          <ns3:TrackPointExtension>
            <ns3:atemp>22.0</ns3:atemp>
          </ns3:TrackPointExtension>
        </extensions>
      </trkpt>
      <trkpt lat="42.51511246897280216217041015625" lon="20.14633988030254840850830078125">
        <ele>2158</ele>
        <time>2026-06-20T09:50:58.000Z</time>
        <extensions>
          <ns3:TrackPointExtension>
            <ns3:atemp>22.0</ns3:atemp>
          </ns3:TrackPointExtension>
        </extensions>
      </trkpt>
      <trkpt lat="42.51511246897280216217041015625" lon="20.14633988030254840850830078125">
        <ele>2158</ele>
        <time>2026-06-20T09:50:59.000Z</time>
        <extensions>
          <ns3:TrackPointExtension>
            <ns3:atemp>22.0</ns3:atemp>
          </ns3:TrackPointExtension>
        </extensions>
      </trkpt>
      <trkpt lat="42.51511246897280216217041015625" lon="20.14633988030254840850830078125">
        <ele>2158</ele>
        <time>2026-06-20T09:51:00.000Z</time>
        <extensions>
          <ns3:TrackPointExtension>
            <ns3:atemp>22.0</ns3:atemp>
          </ns3:TrackPointExtension>
        </extensions>
      </trkpt>
      <trkpt lat="42.51511246897280216217041015625" lon="20.14633988030254840850830078125">
        <ele>2158</ele>
        <time>2026-06-20T09:51:01.000Z</time>
        <extensions>
          <ns3:TrackPointExtension>
            <ns3:atemp>22.0</ns3:atemp>
          </ns3:TrackPointExtension>
        </extensions>
      </trkpt>
      <trkpt lat="42.51511246897280216217041015625" lon="20.14633988030254840850830078125">
        <ele>2158</ele>
        <time>2026-06-20T09:51:02.000Z</time>
        <extensions>
          <ns3:TrackPointExtension>
            <ns3:atemp>22.0</ns3:atemp>
          </ns3:TrackPointExtension>
        </extensions>
      </trkpt>
      <trkpt lat="42.51511246897280216217041015625" lon="20.14633988030254840850830078125">
        <ele>2157.800048828125</ele>
        <time>2026-06-20T09:51:03.000Z</time>
        <extensions>
          <ns3:TrackPointExtension>
            <ns3:atemp>22.0</ns3:atemp>
          </ns3:TrackPointExtension>
        </extensions>
      </trkpt>
      <trkpt lat="42.51511246897280216217041015625" lon="20.14633988030254840850830078125">
        <ele>2157.800048828125</ele>
        <time>2026-06-20T09:51:04.000Z</time>
        <extensions>
          <ns3:TrackPointExtension>
            <ns3:atemp>22.0</ns3:atemp>
          </ns3:TrackPointExtension>
        </extensions>
      </trkpt>
      <trkpt lat="42.51511246897280216217041015625" lon="20.14633988030254840850830078125">
        <ele>2157.800048828125</ele>
        <time>2026-06-20T09:51:05.000Z</time>
        <extensions>
          <ns3:TrackPointExtension>
            <ns3:atemp>22.0</ns3:atemp>
          </ns3:TrackPointExtension>
        </extensions>
      </trkpt>
      <trkpt lat="42.51511246897280216217041015625" lon="20.14633988030254840850830078125">
        <ele>2157.800048828125</ele>
        <time>2026-06-20T09:51:06.000Z</time>
        <extensions>
          <ns3:TrackPointExtension>
            <ns3:atemp>22.0</ns3:atemp>
          </ns3:TrackPointExtension>
        </extensions>
      </trkpt>
      <trkpt lat="42.51511246897280216217041015625" lon="20.14633988030254840850830078125">
        <ele>2157.60009765625</ele>
        <time>2026-06-20T09:51:07.000Z</time>
        <extensions>
          <ns3:TrackPointExtension>
            <ns3:atemp>22.0</ns3:atemp>
          </ns3:TrackPointExtension>
        </extensions>
      </trkpt>
      <trkpt lat="42.515113390982151031494140625" lon="20.14634122140705585479736328125">
        <ele>2157.60009765625</ele>
        <time>2026-06-20T09:51:08.000Z</time>
        <extensions>
          <ns3:TrackPointExtension>
            <ns3:atemp>22.0</ns3:atemp>
          </ns3:TrackPointExtension>
        </extensions>
      </trkpt>
      <trkpt lat="42.51511816866695880889892578125" lon="20.146358907222747802734375">
        <ele>2157.60009765625</ele>
        <time>2026-06-20T09:51:09.000Z</time>
        <extensions>
          <ns3:TrackPointExtension>
            <ns3:atemp>22.0</ns3:atemp>
          </ns3:TrackPointExtension>
        </extensions>
      </trkpt>
      <trkpt lat="42.51512051559984683990478515625" lon="20.146361254155635833740234375">
        <ele>2157.60009765625</ele>
        <time>2026-06-20T09:51:10.000Z</time>
        <extensions>
          <ns3:TrackPointExtension>
            <ns3:atemp>22.0</ns3:atemp>
          </ns3:TrackPointExtension>
        </extensions>
      </trkpt>
      <trkpt lat="42.51512051559984683990478515625" lon="20.14637307263910770416259765625">
        <ele>2157.60009765625</ele>
        <time>2026-06-20T09:51:11.000Z</time>
        <extensions>
          <ns3:TrackPointExtension>
            <ns3:atemp>22.0</ns3:atemp>
          </ns3:TrackPointExtension>
        </extensions>
      </trkpt>
      <trkpt lat="42.515120767056941986083984375" lon="20.1463795267045497894287109375">
        <ele>2157.60009765625</ele>
        <time>2026-06-20T09:51:12.000Z</time>
        <extensions>
          <ns3:TrackPointExtension>
            <ns3:atemp>22.0</ns3:atemp>
          </ns3:TrackPointExtension>
        </extensions>
      </trkpt>
      <trkpt lat="42.515120096504688262939453125" lon="20.14637701213359832763671875">
        <ele>2157.800048828125</ele>
        <time>2026-06-20T09:51:13.000Z</time>
        <extensions>
          <ns3:TrackPointExtension>
            <ns3:atemp>22.0</ns3:atemp>
          </ns3:TrackPointExtension>
        </extensions>
      </trkpt>
      <trkpt lat="42.515120096504688262939453125" lon="20.14637709595263004302978515625">
        <ele>2158</ele>
        <time>2026-06-20T09:51:14.000Z</time>
        <extensions>
          <ns3:TrackPointExtension>
            <ns3:atemp>22.0</ns3:atemp>
          </ns3:TrackPointExtension>
        </extensions>
      </trkpt>
      <trkpt lat="42.515120096504688262939453125" lon="20.14637709595263004302978515625">
        <ele>2158</ele>
        <time>2026-06-20T09:51:15.000Z</time>
        <extensions>
          <ns3:TrackPointExtension>
            <ns3:atemp>22.0</ns3:atemp>
          </ns3:TrackPointExtension>
        </extensions>
      </trkpt>
      <trkpt lat="42.515120096504688262939453125" lon="20.14637709595263004302978515625">
        <ele>2158.199951171875</ele>
        <time>2026-06-20T09:51:16.000Z</time>
        <extensions>
          <ns3:TrackPointExtension>
            <ns3:atemp>22.0</ns3:atemp>
          </ns3:TrackPointExtension>
        </extensions>
      </trkpt>
      <trkpt lat="42.51512001268565654754638671875" lon="20.14637793414294719696044921875">
        <ele>2158.39990234375</ele>
        <time>2026-06-20T09:51:17.000Z</time>
        <extensions>
          <ns3:TrackPointExtension>
            <ns3:atemp>22.0</ns3:atemp>
          </ns3:TrackPointExtension>
        </extensions>
      </trkpt>
      <trkpt lat="42.51511833630502223968505859375" lon="20.14639587141573429107666015625">
        <ele>2158.39990234375</ele>
        <time>2026-06-20T09:51:18.000Z</time>
        <extensions>
          <ns3:TrackPointExtension>
            <ns3:atemp>22.0</ns3:atemp>
          </ns3:TrackPointExtension>
        </extensions>
      </trkpt>
      <trkpt lat="42.51511984504759311676025390625" lon="20.14640157110989093780517578125">
        <ele>2158.60009765625</ele>
        <time>2026-06-20T09:51:19.000Z</time>
        <extensions>
          <ns3:TrackPointExtension>
            <ns3:atemp>22.0</ns3:atemp>
          </ns3:TrackPointExtension>
        </extensions>
      </trkpt>
      <trkpt lat="42.51511984504759311676025390625" lon="20.1464016549289226531982421875">
        <ele>2158.800048828125</ele>
        <time>2026-06-20T09:51:20.000Z</time>
        <extensions>
          <ns3:TrackPointExtension>
            <ns3:atemp>22.0</ns3:atemp>
          </ns3:TrackPointExtension>
        </extensions>
      </trkpt>
      <trkpt lat="42.5151199288666248321533203125" lon="20.14640173874795436859130859375">
        <ele>2159</ele>
        <time>2026-06-20T09:51:21.000Z</time>
        <extensions>
          <ns3:TrackPointExtension>
            <ns3:atemp>22.0</ns3:atemp>
          </ns3:TrackPointExtension>
        </extensions>
      </trkpt>
      <trkpt lat="42.51511917449533939361572265625" lon="20.1464123837649822235107421875">
        <ele>2159.199951171875</ele>
        <time>2026-06-20T09:51:22.000Z</time>
        <extensions>
          <ns3:TrackPointExtension>
            <ns3:atemp>22.0</ns3:atemp>
          </ns3:TrackPointExtension>
        </extensions>
      </trkpt>
      <trkpt lat="42.51512110233306884765625" lon="20.14641934074461460113525390625">
        <ele>2159.199951171875</ele>
        <time>2026-06-20T09:51:23.000Z</time>
        <extensions>
          <ns3:TrackPointExtension>
            <ns3:atemp>22.0</ns3:atemp>
          </ns3:TrackPointExtension>
        </extensions>
      </trkpt>
      <trkpt lat="42.5151219405233860015869140625" lon="20.1464234478771686553955078125">
        <ele>2159.39990234375</ele>
        <time>2026-06-20T09:51:24.000Z</time>
        <extensions>
          <ns3:TrackPointExtension>
            <ns3:atemp>22.0</ns3:atemp>
          </ns3:TrackPointExtension>
        </extensions>
      </trkpt>
      <trkpt lat="42.51512202434241771697998046875" lon="20.14642931520938873291015625">
        <ele>2159.39990234375</ele>
        <time>2026-06-20T09:51:25.000Z</time>
        <extensions>
          <ns3:TrackPointExtension>
            <ns3:atemp>22.0</ns3:atemp>
          </ns3:TrackPointExtension>
        </extensions>
      </trkpt>
      <trkpt lat="42.51512252725660800933837890625" lon="20.1464398764073848724365234375">
        <ele>2159.60009765625</ele>
        <time>2026-06-20T09:51:26.000Z</time>
        <extensions>
          <ns3:TrackPointExtension>
            <ns3:atemp>22.0</ns3:atemp>
          </ns3:TrackPointExtension>
        </extensions>
      </trkpt>
      <trkpt lat="42.515124119818210601806640625" lon="20.14645001851022243499755859375">
        <ele>2159.800048828125</ele>
        <time>2026-06-20T09:51:27.000Z</time>
        <extensions>
          <ns3:TrackPointExtension>
            <ns3:atemp>22.0</ns3:atemp>
          </ns3:TrackPointExtension>
        </extensions>
      </trkpt>
      <trkpt lat="42.5151256285607814788818359375" lon="20.1464599929749965667724609375">
        <ele>2160</ele>
        <time>2026-06-20T09:51:28.000Z</time>
        <extensions>
          <ns3:TrackPointExtension>
            <ns3:atemp>22.0</ns3:atemp>
          </ns3:TrackPointExtension>
        </extensions>
      </trkpt>
      <trkpt lat="42.51512437127530574798583984375" lon="20.14647650532424449920654296875">
        <ele>2160.39990234375</ele>
        <time>2026-06-20T09:51:29.000Z</time>
        <extensions>
          <ns3:TrackPointExtension>
            <ns3:atemp>22.0</ns3:atemp>
          </ns3:TrackPointExtension>
        </extensions>
      </trkpt>
      <trkpt lat="42.515121437609195709228515625" lon="20.146479271352291107177734375">
        <ele>2160.800048828125</ele>
        <time>2026-06-20T09:51:30.000Z</time>
        <extensions>
          <ns3:TrackPointExtension>
            <ns3:atemp>22.0</ns3:atemp>
          </ns3:TrackPointExtension>
        </extensions>
      </trkpt>
      <trkpt lat="42.515121437609195709228515625" lon="20.146479271352291107177734375">
        <ele>2161.199951171875</ele>
        <time>2026-06-20T09:51:31.000Z</time>
        <extensions>
          <ns3:TrackPointExtension>
            <ns3:atemp>22.0</ns3:atemp>
          </ns3:TrackPointExtension>
        </extensions>
      </trkpt>
      <trkpt lat="42.51512286253273487091064453125" lon="20.14647985808551311492919921875">
        <ele>2161.39990234375</ele>
        <time>2026-06-20T09:51:32.000Z</time>
        <extensions>
          <ns3:TrackPointExtension>
            <ns3:atemp>22.0</ns3:atemp>
          </ns3:TrackPointExtension>
        </extensions>
      </trkpt>
      <trkpt lat="42.51512286253273487091064453125" lon="20.14647985808551311492919921875">
        <ele>2161.60009765625</ele>
        <time>2026-06-20T09:51:33.000Z</time>
        <extensions>
          <ns3:TrackPointExtension>
            <ns3:atemp>22.0</ns3:atemp>
          </ns3:TrackPointExtension>
        </extensions>
      </trkpt>
      <trkpt lat="42.51512286253273487091064453125" lon="20.14647985808551311492919921875">
        <ele>2161.60009765625</ele>
        <time>2026-06-20T09:51:34.000Z</time>
        <extensions>
          <ns3:TrackPointExtension>
            <ns3:atemp>22.0</ns3:atemp>
          </ns3:TrackPointExtension>
        </extensions>
      </trkpt>
      <trkpt lat="42.51512286253273487091064453125" lon="20.14647985808551311492919921875">
        <ele>2161.60009765625</ele>
        <time>2026-06-20T09:51:35.000Z</time>
        <extensions>
          <ns3:TrackPointExtension>
            <ns3:atemp>22.0</ns3:atemp>
          </ns3:TrackPointExtension>
        </extensions>
      </trkpt>
      <trkpt lat="42.51512286253273487091064453125" lon="20.14647985808551311492919921875">
        <ele>2161.39990234375</ele>
        <time>2026-06-20T09:51:36.000Z</time>
        <extensions>
          <ns3:TrackPointExtension>
            <ns3:atemp>22.0</ns3:atemp>
          </ns3:TrackPointExtension>
        </extensions>
      </trkpt>
      <trkpt lat="42.51512286253273487091064453125" lon="20.14647985808551311492919921875">
        <ele>2161.199951171875</ele>
        <time>2026-06-20T09:51:37.000Z</time>
        <extensions>
          <ns3:TrackPointExtension>
            <ns3:atemp>22.0</ns3:atemp>
          </ns3:TrackPointExtension>
        </extensions>
      </trkpt>
      <trkpt lat="42.51512286253273487091064453125" lon="20.14647985808551311492919921875">
        <ele>2161.199951171875</ele>
        <time>2026-06-20T09:51:38.000Z</time>
        <extensions>
          <ns3:TrackPointExtension>
            <ns3:atemp>22.0</ns3:atemp>
          </ns3:TrackPointExtension>
        </extensions>
      </trkpt>
      <trkpt lat="42.515123449265956878662109375" lon="20.1464804448187351226806640625">
        <ele>2161.199951171875</ele>
        <time>2026-06-20T09:51:39.000Z</time>
        <extensions>
          <ns3:TrackPointExtension>
            <ns3:atemp>22.0</ns3:atemp>
          </ns3:TrackPointExtension>
        </extensions>
      </trkpt>
      <trkpt lat="42.5151249580085277557373046875" lon="20.1464928500354290008544921875">
        <ele>2161.199951171875</ele>
        <time>2026-06-20T09:51:40.000Z</time>
        <extensions>
          <ns3:TrackPointExtension>
            <ns3:atemp>22.0</ns3:atemp>
          </ns3:TrackPointExtension>
        </extensions>
      </trkpt>
      <trkpt lat="42.51512688584625720977783203125" lon="20.14650684781372547149658203125">
        <ele>2161.199951171875</ele>
        <time>2026-06-20T09:51:41.000Z</time>
        <extensions>
          <ns3:TrackPointExtension>
            <ns3:atemp>22.0</ns3:atemp>
          </ns3:TrackPointExtension>
        </extensions>
      </trkpt>
      <trkpt lat="42.51512688584625720977783203125" lon="20.14652998186647891998291015625">
        <ele>2161.199951171875</ele>
        <time>2026-06-20T09:51:42.000Z</time>
        <extensions>
          <ns3:TrackPointExtension>
            <ns3:atemp>22.0</ns3:atemp>
          </ns3:TrackPointExtension>
        </extensions>
      </trkpt>
      <trkpt lat="42.515122778713703155517578125" lon="20.14655613340437412261962890625">
        <ele>2161.199951171875</ele>
        <time>2026-06-20T09:51:43.000Z</time>
        <extensions>
          <ns3:TrackPointExtension>
            <ns3:atemp>22.0</ns3:atemp>
          </ns3:TrackPointExtension>
        </extensions>
      </trkpt>
      <trkpt lat="42.5151224434375762939453125" lon="20.14659024775028228759765625">
        <ele>2161</ele>
        <time>2026-06-20T09:51:44.000Z</time>
        <extensions>
          <ns3:TrackPointExtension>
            <ns3:atemp>22.0</ns3:atemp>
          </ns3:TrackPointExtension>
        </extensions>
      </trkpt>
      <trkpt lat="42.5151229463517665863037109375" lon="20.1466150581836700439453125">
        <ele>2161</ele>
        <time>2026-06-20T09:51:45.000Z</time>
        <extensions>
          <ns3:TrackPointExtension>
            <ns3:atemp>22.0</ns3:atemp>
          </ns3:TrackPointExtension>
        </extensions>
      </trkpt>
      <trkpt lat="42.51512403599917888641357421875" lon="20.14663877896964550018310546875">
        <ele>2161</ele>
        <time>2026-06-20T09:51:46.000Z</time>
        <extensions>
          <ns3:TrackPointExtension>
            <ns3:atemp>22.0</ns3:atemp>
          </ns3:TrackPointExtension>
        </extensions>
      </trkpt>
      <trkpt lat="42.51512537710368633270263671875" lon="20.14666811563074588775634765625">
        <ele>2161</ele>
        <time>2026-06-20T09:51:47.000Z</time>
        <extensions>
          <ns3:TrackPointExtension>
            <ns3:atemp>22.0</ns3:atemp>
          </ns3:TrackPointExtension>
        </extensions>
      </trkpt>
      <trkpt lat="42.51511934213340282440185546875" lon="20.1466963626444339752197265625">
        <ele>2161</ele>
        <time>2026-06-20T09:51:48.000Z</time>
        <extensions>
          <ns3:TrackPointExtension>
            <ns3:atemp>22.0</ns3:atemp>
          </ns3:TrackPointExtension>
        </extensions>
      </trkpt>
      <trkpt lat="42.51511280424892902374267578125" lon="20.146734416484832763671875">
        <ele>2161.199951171875</ele>
        <time>2026-06-20T09:51:49.000Z</time>
        <extensions>
          <ns3:TrackPointExtension>
            <ns3:atemp>22.0</ns3:atemp>
          </ns3:TrackPointExtension>
        </extensions>
      </trkpt>
      <trkpt lat="42.5151117146015167236328125" lon="20.14677037484943866729736328125">
        <ele>2161.199951171875</ele>
        <time>2026-06-20T09:51:50.000Z</time>
        <extensions>
          <ns3:TrackPointExtension>
            <ns3:atemp>22.0</ns3:atemp>
          </ns3:TrackPointExtension>
        </extensions>
      </trkpt>
      <trkpt lat="42.51511615701019763946533203125" lon="20.146803148090839385986328125">
        <ele>2161.39990234375</ele>
        <time>2026-06-20T09:51:51.000Z</time>
        <extensions>
          <ns3:TrackPointExtension>
            <ns3:atemp>22.0</ns3:atemp>
          </ns3:TrackPointExtension>
        </extensions>
      </trkpt>
      <trkpt lat="42.5151170790195465087890625" lon="20.14682359993457794189453125">
        <ele>2161.800048828125</ele>
        <time>2026-06-20T09:51:52.000Z</time>
        <extensions>
          <ns3:TrackPointExtension>
            <ns3:atemp>22.0</ns3:atemp>
          </ns3:TrackPointExtension>
        </extensions>
      </trkpt>
      <trkpt lat="42.5151148997247219085693359375" lon="20.146822594106197357177734375">
        <ele>2162</ele>
        <time>2026-06-20T09:51:53.000Z</time>
        <extensions>
          <ns3:TrackPointExtension>
            <ns3:atemp>22.0</ns3:atemp>
          </ns3:TrackPointExtension>
        </extensions>
      </trkpt>
      <trkpt lat="42.51511640846729278564453125" lon="20.14682284556329250335693359375">
        <ele>2162.39990234375</ele>
        <time>2026-06-20T09:51:54.000Z</time>
        <extensions>
          <ns3:TrackPointExtension>
            <ns3:atemp>22.0</ns3:atemp>
          </ns3:TrackPointExtension>
        </extensions>
      </trkpt>
      <trkpt lat="42.51511640846729278564453125" lon="20.14682284556329250335693359375">
        <ele>2162.800048828125</ele>
        <time>2026-06-20T09:51:55.000Z</time>
        <extensions>
          <ns3:TrackPointExtension>
            <ns3:atemp>22.0</ns3:atemp>
          </ns3:TrackPointExtension>
        </extensions>
      </trkpt>
      <trkpt lat="42.51511640846729278564453125" lon="20.14682284556329250335693359375">
        <ele>2163</ele>
        <time>2026-06-20T09:51:56.000Z</time>
        <extensions>
          <ns3:TrackPointExtension>
            <ns3:atemp>22.0</ns3:atemp>
          </ns3:TrackPointExtension>
        </extensions>
      </trkpt>
      <trkpt lat="42.51511640846729278564453125" lon="20.14682284556329250335693359375">
        <ele>2163.199951171875</ele>
        <time>2026-06-20T09:51:57.000Z</time>
        <extensions>
          <ns3:TrackPointExtension>
            <ns3:atemp>22.0</ns3:atemp>
          </ns3:TrackPointExtension>
        </extensions>
      </trkpt>
      <trkpt lat="42.51511640846729278564453125" lon="20.14682284556329250335693359375">
        <ele>2163.199951171875</ele>
        <time>2026-06-20T09:51:58.000Z</time>
        <extensions>
          <ns3:TrackPointExtension>
            <ns3:atemp>22.0</ns3:atemp>
          </ns3:TrackPointExtension>
        </extensions>
      </trkpt>
      <trkpt lat="42.51511640846729278564453125" lon="20.14682284556329250335693359375">
        <ele>2163.199951171875</ele>
        <time>2026-06-20T09:51:59.000Z</time>
        <extensions>
          <ns3:TrackPointExtension>
            <ns3:atemp>22.0</ns3:atemp>
          </ns3:TrackPointExtension>
        </extensions>
      </trkpt>
      <trkpt lat="42.51511640846729278564453125" lon="20.14682284556329250335693359375">
        <ele>2163.199951171875</ele>
        <time>2026-06-20T09:52:00.000Z</time>
        <extensions>
          <ns3:TrackPointExtension>
            <ns3:atemp>22.0</ns3:atemp>
          </ns3:TrackPointExtension>
        </extensions>
      </trkpt>
      <trkpt lat="42.51511640846729278564453125" lon="20.14682284556329250335693359375">
        <ele>2163.199951171875</ele>
        <time>2026-06-20T09:52:01.000Z</time>
        <extensions>
          <ns3:TrackPointExtension>
            <ns3:atemp>22.0</ns3:atemp>
          </ns3:TrackPointExtension>
        </extensions>
      </trkpt>
      <trkpt lat="42.51511640846729278564453125" lon="20.14682284556329250335693359375">
        <ele>2163</ele>
        <time>2026-06-20T09:52:02.000Z</time>
        <extensions>
          <ns3:TrackPointExtension>
            <ns3:atemp>22.0</ns3:atemp>
          </ns3:TrackPointExtension>
        </extensions>
      </trkpt>
      <trkpt lat="42.51511640846729278564453125" lon="20.14682284556329250335693359375">
        <ele>2163</ele>
        <time>2026-06-20T09:52:03.000Z</time>
        <extensions>
          <ns3:TrackPointExtension>
            <ns3:atemp>22.0</ns3:atemp>
          </ns3:TrackPointExtension>
        </extensions>
      </trkpt>
      <trkpt lat="42.51511640846729278564453125" lon="20.14682284556329250335693359375">
        <ele>2163</ele>
        <time>2026-06-20T09:52:04.000Z</time>
        <extensions>
          <ns3:TrackPointExtension>
            <ns3:atemp>22.0</ns3:atemp>
          </ns3:TrackPointExtension>
        </extensions>
      </trkpt>
      <trkpt lat="42.51511640846729278564453125" lon="20.14682284556329250335693359375">
        <ele>2163</ele>
        <time>2026-06-20T09:52:05.000Z</time>
        <extensions>
          <ns3:TrackPointExtension>
            <ns3:atemp>22.0</ns3:atemp>
          </ns3:TrackPointExtension>
        </extensions>
      </trkpt>
      <trkpt lat="42.51511640846729278564453125" lon="20.14682284556329250335693359375">
        <ele>2163</ele>
        <time>2026-06-20T09:52:06.000Z</time>
        <extensions>
          <ns3:TrackPointExtension>
            <ns3:atemp>22.0</ns3:atemp>
          </ns3:TrackPointExtension>
        </extensions>
      </trkpt>
      <trkpt lat="42.5151185877621173858642578125" lon="20.14682368375360965728759765625">
        <ele>2163</ele>
        <time>2026-06-20T09:52:07.000Z</time>
        <extensions>
          <ns3:TrackPointExtension>
            <ns3:atemp>22.0</ns3:atemp>
          </ns3:TrackPointExtension>
        </extensions>
      </trkpt>
      <trkpt lat="42.515128143131732940673828125" lon="20.14683701097965240478515625">
        <ele>2163</ele>
        <time>2026-06-20T09:52:08.000Z</time>
        <extensions>
          <ns3:TrackPointExtension>
            <ns3:atemp>22.0</ns3:atemp>
          </ns3:TrackPointExtension>
        </extensions>
      </trkpt>
      <trkpt lat="42.51512940041720867156982421875" lon="20.146839357912540435791015625">
        <ele>2163</ele>
        <time>2026-06-20T09:52:09.000Z</time>
        <extensions>
          <ns3:TrackPointExtension>
            <ns3:atemp>22.0</ns3:atemp>
          </ns3:TrackPointExtension>
        </extensions>
      </trkpt>
      <trkpt lat="42.51512940041720867156982421875" lon="20.146839357912540435791015625">
        <ele>2163</ele>
        <time>2026-06-20T09:52:10.000Z</time>
        <extensions>
          <ns3:TrackPointExtension>
            <ns3:atemp>22.0</ns3:atemp>
          </ns3:TrackPointExtension>
        </extensions>
      </trkpt>
      <trkpt lat="42.51512940041720867156982421875" lon="20.146839357912540435791015625">
        <ele>2163.199951171875</ele>
        <time>2026-06-20T09:52:11.000Z</time>
        <extensions>
          <ns3:TrackPointExtension>
            <ns3:atemp>22.0</ns3:atemp>
          </ns3:TrackPointExtension>
        </extensions>
      </trkpt>
      <trkpt lat="42.51512940041720867156982421875" lon="20.146839357912540435791015625">
        <ele>2163.199951171875</ele>
        <time>2026-06-20T09:52:12.000Z</time>
        <extensions>
          <ns3:TrackPointExtension>
            <ns3:atemp>22.0</ns3:atemp>
          </ns3:TrackPointExtension>
        </extensions>
      </trkpt>
      <trkpt lat="42.51512940041720867156982421875" lon="20.146839357912540435791015625">
        <ele>2163.39990234375</ele>
        <time>2026-06-20T09:52:13.000Z</time>
        <extensions>
          <ns3:TrackPointExtension>
            <ns3:atemp>22.0</ns3:atemp>
          </ns3:TrackPointExtension>
        </extensions>
      </trkpt>
      <trkpt lat="42.51512940041720867156982421875" lon="20.146839357912540435791015625">
        <ele>2163.39990234375</ele>
        <time>2026-06-20T09:52:14.000Z</time>
        <extensions>
          <ns3:TrackPointExtension>
            <ns3:atemp>22.0</ns3:atemp>
          </ns3:TrackPointExtension>
        </extensions>
      </trkpt>
      <trkpt lat="42.51512940041720867156982421875" lon="20.146839357912540435791015625">
        <ele>2163.39990234375</ele>
        <time>2026-06-20T09:52:15.000Z</time>
        <extensions>
          <ns3:TrackPointExtension>
            <ns3:atemp>22.0</ns3:atemp>
          </ns3:TrackPointExtension>
        </extensions>
      </trkpt>
      <trkpt lat="42.51512940041720867156982421875" lon="20.146839357912540435791015625">
        <ele>2163.199951171875</ele>
        <time>2026-06-20T09:52:16.000Z</time>
        <extensions>
          <ns3:TrackPointExtension>
            <ns3:atemp>22.0</ns3:atemp>
          </ns3:TrackPointExtension>
        </extensions>
      </trkpt>
      <trkpt lat="42.51512940041720867156982421875" lon="20.146839357912540435791015625">
        <ele>2163.199951171875</ele>
        <time>2026-06-20T09:52:17.000Z</time>
        <extensions>
          <ns3:TrackPointExtension>
            <ns3:atemp>22.0</ns3:atemp>
          </ns3:TrackPointExtension>
        </extensions>
      </trkpt>
      <trkpt lat="42.51512940041720867156982421875" lon="20.146839357912540435791015625">
        <ele>2163.199951171875</ele>
        <time>2026-06-20T09:52:18.000Z</time>
        <extensions>
          <ns3:TrackPointExtension>
            <ns3:atemp>22.0</ns3:atemp>
          </ns3:TrackPointExtension>
        </extensions>
      </trkpt>
      <trkpt lat="42.51512940041720867156982421875" lon="20.146839357912540435791015625">
        <ele>2163.199951171875</ele>
        <time>2026-06-20T09:52:19.000Z</time>
        <extensions>
          <ns3:TrackPointExtension>
            <ns3:atemp>22.0</ns3:atemp>
          </ns3:TrackPointExtension>
        </extensions>
      </trkpt>
      <trkpt lat="42.51512940041720867156982421875" lon="20.146839357912540435791015625">
        <ele>2163</ele>
        <time>2026-06-20T09:52:20.000Z</time>
        <extensions>
          <ns3:TrackPointExtension>
            <ns3:atemp>22.0</ns3:atemp>
          </ns3:TrackPointExtension>
        </extensions>
      </trkpt>
      <trkpt lat="42.51512940041720867156982421875" lon="20.146839357912540435791015625">
        <ele>2163</ele>
        <time>2026-06-20T09:52:21.000Z</time>
        <extensions>
          <ns3:TrackPointExtension>
            <ns3:atemp>22.0</ns3:atemp>
          </ns3:TrackPointExtension>
        </extensions>
      </trkpt>
      <trkpt lat="42.51512940041720867156982421875" lon="20.146839357912540435791015625">
        <ele>2163</ele>
        <time>2026-06-20T09:52:22.000Z</time>
        <extensions>
          <ns3:TrackPointExtension>
            <ns3:atemp>22.0</ns3:atemp>
          </ns3:TrackPointExtension>
        </extensions>
      </trkpt>
      <trkpt lat="42.51512940041720867156982421875" lon="20.146839357912540435791015625">
        <ele>2162.800048828125</ele>
        <time>2026-06-20T09:52:23.000Z</time>
        <extensions>
          <ns3:TrackPointExtension>
            <ns3:atemp>22.0</ns3:atemp>
          </ns3:TrackPointExtension>
        </extensions>
      </trkpt>
      <trkpt lat="42.51512940041720867156982421875" lon="20.146839357912540435791015625">
        <ele>2162.800048828125</ele>
        <time>2026-06-20T09:52:24.000Z</time>
        <extensions>
          <ns3:TrackPointExtension>
            <ns3:atemp>22.0</ns3:atemp>
          </ns3:TrackPointExtension>
        </extensions>
      </trkpt>
      <trkpt lat="42.51512940041720867156982421875" lon="20.146839357912540435791015625">
        <ele>2162.800048828125</ele>
        <time>2026-06-20T09:52:25.000Z</time>
        <extensions>
          <ns3:TrackPointExtension>
            <ns3:atemp>22.0</ns3:atemp>
          </ns3:TrackPointExtension>
        </extensions>
      </trkpt>
      <trkpt lat="42.51512940041720867156982421875" lon="20.146839357912540435791015625">
        <ele>2163</ele>
        <time>2026-06-20T09:52:26.000Z</time>
        <extensions>
          <ns3:TrackPointExtension>
            <ns3:atemp>22.0</ns3:atemp>
          </ns3:TrackPointExtension>
        </extensions>
      </trkpt>
      <trkpt lat="42.51512940041720867156982421875" lon="20.146839357912540435791015625">
        <ele>2163</ele>
        <time>2026-06-20T09:52:27.000Z</time>
        <extensions>
          <ns3:TrackPointExtension>
            <ns3:atemp>22.0</ns3:atemp>
          </ns3:TrackPointExtension>
        </extensions>
      </trkpt>
      <trkpt lat="42.51512940041720867156982421875" lon="20.146839357912540435791015625">
        <ele>2163</ele>
        <time>2026-06-20T09:52:28.000Z</time>
        <extensions>
          <ns3:TrackPointExtension>
            <ns3:atemp>22.0</ns3:atemp>
          </ns3:TrackPointExtension>
        </extensions>
      </trkpt>
      <trkpt lat="42.51512940041720867156982421875" lon="20.146839357912540435791015625">
        <ele>2163</ele>
        <time>2026-06-20T09:52:29.000Z</time>
        <extensions>
          <ns3:TrackPointExtension>
            <ns3:atemp>22.0</ns3:atemp>
          </ns3:TrackPointExtension>
        </extensions>
      </trkpt>
      <trkpt lat="42.51512940041720867156982421875" lon="20.146839357912540435791015625">
        <ele>2163</ele>
        <time>2026-06-20T09:52:30.000Z</time>
        <extensions>
          <ns3:TrackPointExtension>
            <ns3:atemp>22.0</ns3:atemp>
          </ns3:TrackPointExtension>
        </extensions>
      </trkpt>
      <trkpt lat="42.51512940041720867156982421875" lon="20.146839357912540435791015625">
        <ele>2163</ele>
        <time>2026-06-20T09:52:31.000Z</time>
        <extensions>
          <ns3:TrackPointExtension>
            <ns3:atemp>22.0</ns3:atemp>
          </ns3:TrackPointExtension>
        </extensions>
      </trkpt>
      <trkpt lat="42.51512940041720867156982421875" lon="20.146839357912540435791015625">
        <ele>2163</ele>
        <time>2026-06-20T09:52:32.000Z</time>
        <extensions>
          <ns3:TrackPointExtension>
            <ns3:atemp>22.0</ns3:atemp>
          </ns3:TrackPointExtension>
        </extensions>
      </trkpt>
      <trkpt lat="42.51512940041720867156982421875" lon="20.146839357912540435791015625">
        <ele>2163</ele>
        <time>2026-06-20T09:52:33.000Z</time>
        <extensions>
          <ns3:TrackPointExtension>
            <ns3:atemp>22.0</ns3:atemp>
          </ns3:TrackPointExtension>
        </extensions>
      </trkpt>
      <trkpt lat="42.51512940041720867156982421875" lon="20.146839357912540435791015625">
        <ele>2162.800048828125</ele>
        <time>2026-06-20T09:52:34.000Z</time>
        <extensions>
          <ns3:TrackPointExtension>
            <ns3:atemp>22.0</ns3:atemp>
          </ns3:TrackPointExtension>
        </extensions>
      </trkpt>
      <trkpt lat="42.51512940041720867156982421875" lon="20.146839357912540435791015625">
        <ele>2162.800048828125</ele>
        <time>2026-06-20T09:52:35.000Z</time>
        <extensions>
          <ns3:TrackPointExtension>
            <ns3:atemp>22.0</ns3:atemp>
          </ns3:TrackPointExtension>
        </extensions>
      </trkpt>
      <trkpt lat="42.51512940041720867156982421875" lon="20.146839357912540435791015625">
        <ele>2162.800048828125</ele>
        <time>2026-06-20T09:52:36.000Z</time>
        <extensions>
          <ns3:TrackPointExtension>
            <ns3:atemp>22.0</ns3:atemp>
          </ns3:TrackPointExtension>
        </extensions>
      </trkpt>
      <trkpt lat="42.51512940041720867156982421875" lon="20.146839357912540435791015625">
        <ele>2162.800048828125</ele>
        <time>2026-06-20T09:52:37.000Z</time>
        <extensions>
          <ns3:TrackPointExtension>
            <ns3:atemp>22.0</ns3:atemp>
          </ns3:TrackPointExtension>
        </extensions>
      </trkpt>
      <trkpt lat="42.51512940041720867156982421875" lon="20.146839357912540435791015625">
        <ele>2162.800048828125</ele>
        <time>2026-06-20T09:52:38.000Z</time>
        <extensions>
          <ns3:TrackPointExtension>
            <ns3:atemp>22.0</ns3:atemp>
          </ns3:TrackPointExtension>
        </extensions>
      </trkpt>
      <trkpt lat="42.515131495893001556396484375" lon="20.14684111811220645904541015625">
        <ele>2162.800048828125</ele>
        <time>2026-06-20T09:52:39.000Z</time>
        <extensions>
          <ns3:TrackPointExtension>
            <ns3:atemp>22.0</ns3:atemp>
          </ns3:TrackPointExtension>
        </extensions>
      </trkpt>
      <trkpt lat="42.51513862051069736480712890625" lon="20.14686240814626216888427734375">
        <ele>2162.800048828125</ele>
        <time>2026-06-20T09:52:40.000Z</time>
        <extensions>
          <ns3:TrackPointExtension>
            <ns3:atemp>22.0</ns3:atemp>
          </ns3:TrackPointExtension>
        </extensions>
      </trkpt>
      <trkpt lat="42.51514163799583911895751953125" lon="20.14687917195260524749755859375">
        <ele>2162.800048828125</ele>
        <time>2026-06-20T09:52:41.000Z</time>
        <extensions>
          <ns3:TrackPointExtension>
            <ns3:atemp>22.0</ns3:atemp>
          </ns3:TrackPointExtension>
        </extensions>
      </trkpt>
      <trkpt lat="42.5151397101581096649169921875" lon="20.14689308591187000274658203125">
        <ele>2162.800048828125</ele>
        <time>2026-06-20T09:52:42.000Z</time>
        <extensions>
          <ns3:TrackPointExtension>
            <ns3:atemp>22.0</ns3:atemp>
          </ns3:TrackPointExtension>
        </extensions>
      </trkpt>
      <trkpt lat="42.51513895578682422637939453125" lon="20.146908424794673919677734375">
        <ele>2162.800048828125</ele>
        <time>2026-06-20T09:52:43.000Z</time>
        <extensions>
          <ns3:TrackPointExtension>
            <ns3:atemp>22.0</ns3:atemp>
          </ns3:TrackPointExtension>
        </extensions>
      </trkpt>
      <trkpt lat="42.5151331722736358642578125" lon="20.146909765899181365966796875">
        <ele>2163</ele>
        <time>2026-06-20T09:52:44.000Z</time>
        <extensions>
          <ns3:TrackPointExtension>
            <ns3:atemp>22.0</ns3:atemp>
          </ns3:TrackPointExtension>
        </extensions>
      </trkpt>
      <trkpt lat="42.515134178102016448974609375" lon="20.14691085554659366607666015625">
        <ele>2163.199951171875</ele>
        <time>2026-06-20T09:52:45.000Z</time>
        <extensions>
          <ns3:TrackPointExtension>
            <ns3:atemp>22.0</ns3:atemp>
          </ns3:TrackPointExtension>
        </extensions>
      </trkpt>
      <trkpt lat="42.515134178102016448974609375" lon="20.14691085554659366607666015625">
        <ele>2163.39990234375</ele>
        <time>2026-06-20T09:52:46.000Z</time>
        <extensions>
          <ns3:TrackPointExtension>
            <ns3:atemp>22.0</ns3:atemp>
          </ns3:TrackPointExtension>
        </extensions>
      </trkpt>
      <trkpt lat="42.515134178102016448974609375" lon="20.14691085554659366607666015625">
        <ele>2163.39990234375</ele>
        <time>2026-06-20T09:52:47.000Z</time>
        <extensions>
          <ns3:TrackPointExtension>
            <ns3:atemp>22.0</ns3:atemp>
          </ns3:TrackPointExtension>
        </extensions>
      </trkpt>
      <trkpt lat="42.515134178102016448974609375" lon="20.14691085554659366607666015625">
        <ele>2163.60009765625</ele>
        <time>2026-06-20T09:52:48.000Z</time>
        <extensions>
          <ns3:TrackPointExtension>
            <ns3:atemp>22.0</ns3:atemp>
          </ns3:TrackPointExtension>
        </extensions>
      </trkpt>
      <trkpt lat="42.515134178102016448974609375" lon="20.14691085554659366607666015625">
        <ele>2163.60009765625</ele>
        <time>2026-06-20T09:52:49.000Z</time>
        <extensions>
          <ns3:TrackPointExtension>
            <ns3:atemp>22.0</ns3:atemp>
          </ns3:TrackPointExtension>
        </extensions>
      </trkpt>
      <trkpt lat="42.515134178102016448974609375" lon="20.14691085554659366607666015625">
        <ele>2163.60009765625</ele>
        <time>2026-06-20T09:52:50.000Z</time>
        <extensions>
          <ns3:TrackPointExtension>
            <ns3:atemp>22.0</ns3:atemp>
          </ns3:TrackPointExtension>
        </extensions>
      </trkpt>
      <trkpt lat="42.515134178102016448974609375" lon="20.14691085554659366607666015625">
        <ele>2163.60009765625</ele>
        <time>2026-06-20T09:52:51.000Z</time>
        <extensions>
          <ns3:TrackPointExtension>
            <ns3:atemp>22.0</ns3:atemp>
          </ns3:TrackPointExtension>
        </extensions>
      </trkpt>
      <trkpt lat="42.515134178102016448974609375" lon="20.14691085554659366607666015625">
        <ele>2163.800048828125</ele>
        <time>2026-06-20T09:52:52.000Z</time>
        <extensions>
          <ns3:TrackPointExtension>
            <ns3:atemp>22.0</ns3:atemp>
          </ns3:TrackPointExtension>
        </extensions>
      </trkpt>
      <trkpt lat="42.515134178102016448974609375" lon="20.14691085554659366607666015625">
        <ele>2163.800048828125</ele>
        <time>2026-06-20T09:52:53.000Z</time>
        <extensions>
          <ns3:TrackPointExtension>
            <ns3:atemp>22.0</ns3:atemp>
          </ns3:TrackPointExtension>
        </extensions>
      </trkpt>
      <trkpt lat="42.515134178102016448974609375" lon="20.14691085554659366607666015625">
        <ele>2163.800048828125</ele>
        <time>2026-06-20T09:52:54.000Z</time>
        <extensions>
          <ns3:TrackPointExtension>
            <ns3:atemp>22.0</ns3:atemp>
          </ns3:TrackPointExtension>
        </extensions>
      </trkpt>
      <trkpt lat="42.515134178102016448974609375" lon="20.14691085554659366607666015625">
        <ele>2163.800048828125</ele>
        <time>2026-06-20T09:52:55.000Z</time>
        <extensions>
          <ns3:TrackPointExtension>
            <ns3:atemp>22.0</ns3:atemp>
          </ns3:TrackPointExtension>
        </extensions>
      </trkpt>
      <trkpt lat="42.515134178102016448974609375" lon="20.14691085554659366607666015625">
        <ele>2163.800048828125</ele>
        <time>2026-06-20T09:52:56.000Z</time>
        <extensions>
          <ns3:TrackPointExtension>
            <ns3:atemp>22.0</ns3:atemp>
          </ns3:TrackPointExtension>
        </extensions>
      </trkpt>
      <trkpt lat="42.515134178102016448974609375" lon="20.14691085554659366607666015625">
        <ele>2163.800048828125</ele>
        <time>2026-06-20T09:52:57.000Z</time>
        <extensions>
          <ns3:TrackPointExtension>
            <ns3:atemp>22.0</ns3:atemp>
          </ns3:TrackPointExtension>
        </extensions>
      </trkpt>
      <trkpt lat="42.515134178102016448974609375" lon="20.14691085554659366607666015625">
        <ele>2163.800048828125</ele>
        <time>2026-06-20T09:52:58.000Z</time>
        <extensions>
          <ns3:TrackPointExtension>
            <ns3:atemp>22.0</ns3:atemp>
          </ns3:TrackPointExtension>
        </extensions>
      </trkpt>
      <trkpt lat="42.515134178102016448974609375" lon="20.14691085554659366607666015625">
        <ele>2163.800048828125</ele>
        <time>2026-06-20T09:52:59.000Z</time>
        <extensions>
          <ns3:TrackPointExtension>
            <ns3:atemp>22.0</ns3:atemp>
          </ns3:TrackPointExtension>
        </extensions>
      </trkpt>
      <trkpt lat="42.515134178102016448974609375" lon="20.14691085554659366607666015625">
        <ele>2164</ele>
        <time>2026-06-20T09:53:00.000Z</time>
        <extensions>
          <ns3:TrackPointExtension>
            <ns3:atemp>22.0</ns3:atemp>
          </ns3:TrackPointExtension>
        </extensions>
      </trkpt>
      <trkpt lat="42.515134178102016448974609375" lon="20.14691085554659366607666015625">
        <ele>2164</ele>
        <time>2026-06-20T09:53:01.000Z</time>
        <extensions>
          <ns3:TrackPointExtension>
            <ns3:atemp>22.0</ns3:atemp>
          </ns3:TrackPointExtension>
        </extensions>
      </trkpt>
      <trkpt lat="42.515134178102016448974609375" lon="20.14691085554659366607666015625">
        <ele>2164</ele>
        <time>2026-06-20T09:53:02.000Z</time>
        <extensions>
          <ns3:TrackPointExtension>
            <ns3:atemp>22.0</ns3:atemp>
          </ns3:TrackPointExtension>
        </extensions>
      </trkpt>
      <trkpt lat="42.515134178102016448974609375" lon="20.14691085554659366607666015625">
        <ele>2164</ele>
        <time>2026-06-20T09:53:03.000Z</time>
        <extensions>
          <ns3:TrackPointExtension>
            <ns3:atemp>22.0</ns3:atemp>
          </ns3:TrackPointExtension>
        </extensions>
      </trkpt>
      <trkpt lat="42.515134178102016448974609375" lon="20.14691085554659366607666015625">
        <ele>2163.800048828125</ele>
        <time>2026-06-20T09:53:04.000Z</time>
        <extensions>
          <ns3:TrackPointExtension>
            <ns3:atemp>22.0</ns3:atemp>
          </ns3:TrackPointExtension>
        </extensions>
      </trkpt>
      <trkpt lat="42.515134178102016448974609375" lon="20.14691085554659366607666015625">
        <ele>2163.800048828125</ele>
        <time>2026-06-20T09:53:05.000Z</time>
        <extensions>
          <ns3:TrackPointExtension>
            <ns3:atemp>22.0</ns3:atemp>
          </ns3:TrackPointExtension>
        </extensions>
      </trkpt>
      <trkpt lat="42.515134178102016448974609375" lon="20.14691085554659366607666015625">
        <ele>2163.800048828125</ele>
        <time>2026-06-20T09:53:06.000Z</time>
        <extensions>
          <ns3:TrackPointExtension>
            <ns3:atemp>22.0</ns3:atemp>
          </ns3:TrackPointExtension>
        </extensions>
      </trkpt>
      <trkpt lat="42.515134178102016448974609375" lon="20.14691085554659366607666015625">
        <ele>2163.800048828125</ele>
        <time>2026-06-20T09:53:07.000Z</time>
        <extensions>
          <ns3:TrackPointExtension>
            <ns3:atemp>22.0</ns3:atemp>
          </ns3:TrackPointExtension>
        </extensions>
      </trkpt>
      <trkpt lat="42.515134178102016448974609375" lon="20.14691085554659366607666015625">
        <ele>2163.800048828125</ele>
        <time>2026-06-20T09:53:08.000Z</time>
        <extensions>
          <ns3:TrackPointExtension>
            <ns3:atemp>22.0</ns3:atemp>
          </ns3:TrackPointExtension>
        </extensions>
      </trkpt>
      <trkpt lat="42.515134178102016448974609375" lon="20.14691085554659366607666015625">
        <ele>2163.60009765625</ele>
        <time>2026-06-20T09:53:09.000Z</time>
        <extensions>
          <ns3:TrackPointExtension>
            <ns3:atemp>22.0</ns3:atemp>
          </ns3:TrackPointExtension>
        </extensions>
      </trkpt>
      <trkpt lat="42.515134178102016448974609375" lon="20.14691085554659366607666015625">
        <ele>2163.60009765625</ele>
        <time>2026-06-20T09:53:10.000Z</time>
        <extensions>
          <ns3:TrackPointExtension>
            <ns3:atemp>22.0</ns3:atemp>
          </ns3:TrackPointExtension>
        </extensions>
      </trkpt>
      <trkpt lat="42.515134178102016448974609375" lon="20.14691085554659366607666015625">
        <ele>2163.60009765625</ele>
        <time>2026-06-20T09:53:11.000Z</time>
        <extensions>
          <ns3:TrackPointExtension>
            <ns3:atemp>22.0</ns3:atemp>
          </ns3:TrackPointExtension>
        </extensions>
      </trkpt>
      <trkpt lat="42.515134178102016448974609375" lon="20.14691085554659366607666015625">
        <ele>2163.60009765625</ele>
        <time>2026-06-20T09:53:12.000Z</time>
        <extensions>
          <ns3:TrackPointExtension>
            <ns3:atemp>22.0</ns3:atemp>
          </ns3:TrackPointExtension>
        </extensions>
      </trkpt>
      <trkpt lat="42.515134178102016448974609375" lon="20.14691085554659366607666015625">
        <ele>2163.60009765625</ele>
        <time>2026-06-20T09:53:13.000Z</time>
        <extensions>
          <ns3:TrackPointExtension>
            <ns3:atemp>22.0</ns3:atemp>
          </ns3:TrackPointExtension>
        </extensions>
      </trkpt>
      <trkpt lat="42.515134178102016448974609375" lon="20.14691085554659366607666015625">
        <ele>2163.60009765625</ele>
        <time>2026-06-20T09:53:14.000Z</time>
        <extensions>
          <ns3:TrackPointExtension>
            <ns3:atemp>22.0</ns3:atemp>
          </ns3:TrackPointExtension>
        </extensions>
      </trkpt>
      <trkpt lat="42.5151350162923336029052734375" lon="20.14691236428916454315185546875">
        <ele>2163.800048828125</ele>
        <time>2026-06-20T09:53:15.000Z</time>
        <extensions>
          <ns3:TrackPointExtension>
            <ns3:atemp>22.0</ns3:atemp>
          </ns3:TrackPointExtension>
        </extensions>
      </trkpt>
      <trkpt lat="42.51513342373073101043701171875" lon="20.14693566597998142242431640625">
        <ele>2163.800048828125</ele>
        <time>2026-06-20T09:53:16.000Z</time>
        <extensions>
          <ns3:TrackPointExtension>
            <ns3:atemp>22.0</ns3:atemp>
          </ns3:TrackPointExtension>
        </extensions>
      </trkpt>
      <trkpt lat="42.515132836997509002685546875" lon="20.14696039259433746337890625">
        <ele>2163.800048828125</ele>
        <time>2026-06-20T09:53:17.000Z</time>
        <extensions>
          <ns3:TrackPointExtension>
            <ns3:atemp>22.0</ns3:atemp>
          </ns3:TrackPointExtension>
        </extensions>
      </trkpt>
      <trkpt lat="42.51512789167463779449462890625" lon="20.14698461629450321197509765625">
        <ele>2163.800048828125</ele>
        <time>2026-06-20T09:53:18.000Z</time>
        <extensions>
          <ns3:TrackPointExtension>
            <ns3:atemp>22.0</ns3:atemp>
          </ns3:TrackPointExtension>
        </extensions>
      </trkpt>
      <trkpt lat="42.515125460922718048095703125" lon="20.14699953608214855194091796875">
        <ele>2163.800048828125</ele>
        <time>2026-06-20T09:53:19.000Z</time>
        <extensions>
          <ns3:TrackPointExtension>
            <ns3:atemp>22.0</ns3:atemp>
          </ns3:TrackPointExtension>
        </extensions>
      </trkpt>
      <trkpt lat="42.5151216052472591400146484375" lon="20.147021077573299407958984375">
        <ele>2164</ele>
        <time>2026-06-20T09:53:20.000Z</time>
        <extensions>
          <ns3:TrackPointExtension>
            <ns3:atemp>22.0</ns3:atemp>
          </ns3:TrackPointExtension>
        </extensions>
      </trkpt>
      <trkpt lat="42.5151169113814830780029296875" lon="20.14704764820635318756103515625">
        <ele>2164.199951171875</ele>
        <time>2026-06-20T09:53:21.000Z</time>
        <extensions>
          <ns3:TrackPointExtension>
            <ns3:atemp>22.0</ns3:atemp>
          </ns3:TrackPointExtension>
        </extensions>
      </trkpt>
      <trkpt lat="42.51510970294475555419921875" lon="20.1470722071826457977294921875">
        <ele>2164.199951171875</ele>
        <time>2026-06-20T09:53:22.000Z</time>
        <extensions>
          <ns3:TrackPointExtension>
            <ns3:atemp>22.0</ns3:atemp>
          </ns3:TrackPointExtension>
        </extensions>
      </trkpt>
      <trkpt lat="42.5151014886796474456787109375" lon="20.1470963470637798309326171875">
        <ele>2164.39990234375</ele>
        <time>2026-06-20T09:53:23.000Z</time>
        <extensions>
          <ns3:TrackPointExtension>
            <ns3:atemp>22.0</ns3:atemp>
          </ns3:TrackPointExtension>
        </extensions>
      </trkpt>
      <trkpt lat="42.51509805209934711456298828125" lon="20.14712132513523101806640625">
        <ele>2164.60009765625</ele>
        <time>2026-06-20T09:53:24.000Z</time>
        <extensions>
          <ns3:TrackPointExtension>
            <ns3:atemp>22.0</ns3:atemp>
          </ns3:TrackPointExtension>
        </extensions>
      </trkpt>
      <trkpt lat="42.51509469933807849884033203125" lon="20.1471486501395702362060546875">
        <ele>2164.800048828125</ele>
        <time>2026-06-20T09:53:25.000Z</time>
        <extensions>
          <ns3:TrackPointExtension>
            <ns3:atemp>22.0</ns3:atemp>
          </ns3:TrackPointExtension>
        </extensions>
      </trkpt>
      <trkpt lat="42.5150907598435878753662109375" lon="20.1471794955432415008544921875">
        <ele>2165</ele>
        <time>2026-06-20T09:53:26.000Z</time>
        <extensions>
          <ns3:TrackPointExtension>
            <ns3:atemp>22.0</ns3:atemp>
          </ns3:TrackPointExtension>
        </extensions>
      </trkpt>
      <trkpt lat="42.51509000547230243682861328125" lon="20.14720925129950046539306640625">
        <ele>2165</ele>
        <time>2026-06-20T09:53:27.000Z</time>
        <extensions>
          <ns3:TrackPointExtension>
            <ns3:atemp>22.0</ns3:atemp>
          </ns3:TrackPointExtension>
        </extensions>
      </trkpt>
      <trkpt lat="42.51508883200585842132568359375" lon="20.1472346484661102294921875">
        <ele>2165</ele>
        <time>2026-06-20T09:53:28.000Z</time>
        <extensions>
          <ns3:TrackPointExtension>
            <ns3:atemp>22.0</ns3:atemp>
          </ns3:TrackPointExtension>
        </extensions>
      </trkpt>
      <trkpt lat="42.51508581452071666717529296875" lon="20.147258453071117401123046875">
        <ele>2165.199951171875</ele>
        <time>2026-06-20T09:53:29.000Z</time>
        <extensions>
          <ns3:TrackPointExtension>
            <ns3:atemp>22.0</ns3:atemp>
          </ns3:TrackPointExtension>
        </extensions>
      </trkpt>
      <trkpt lat="42.5150793604552745819091796875" lon="20.14728653244674205780029296875">
        <ele>2165.199951171875</ele>
        <time>2026-06-20T09:53:30.000Z</time>
        <extensions>
          <ns3:TrackPointExtension>
            <ns3:atemp>22.0</ns3:atemp>
          </ns3:TrackPointExtension>
        </extensions>
      </trkpt>
      <trkpt lat="42.51507190056145191192626953125" lon="20.14731436036527156829833984375">
        <ele>2165.39990234375</ele>
        <time>2026-06-20T09:53:31.000Z</time>
        <extensions>
          <ns3:TrackPointExtension>
            <ns3:atemp>22.0</ns3:atemp>
          </ns3:TrackPointExtension>
        </extensions>
      </trkpt>
      <trkpt lat="42.5150615908205509185791015625" lon="20.147336237132549285888671875">
        <ele>2165.60009765625</ele>
        <time>2026-06-20T09:53:32.000Z</time>
        <extensions>
          <ns3:TrackPointExtension>
            <ns3:atemp>22.0</ns3:atemp>
          </ns3:TrackPointExtension>
        </extensions>
      </trkpt>
      <trkpt lat="42.51504893414676189422607421875" lon="20.14735911972820758819580078125">
        <ele>2166</ele>
        <time>2026-06-20T09:53:33.000Z</time>
        <extensions>
          <ns3:TrackPointExtension>
            <ns3:atemp>22.0</ns3:atemp>
          </ns3:TrackPointExtension>
        </extensions>
      </trkpt>
      <trkpt lat="42.5150357745587825775146484375" lon="20.1473739556968212127685546875">
        <ele>2166.199951171875</ele>
        <time>2026-06-20T09:53:34.000Z</time>
        <extensions>
          <ns3:TrackPointExtension>
            <ns3:atemp>22.0</ns3:atemp>
          </ns3:TrackPointExtension>
        </extensions>
      </trkpt>
      <trkpt lat="42.51502747647464275360107421875" lon="20.14739030040800571441650390625">
        <ele>2166.39990234375</ele>
        <time>2026-06-20T09:53:35.000Z</time>
        <extensions>
          <ns3:TrackPointExtension>
            <ns3:atemp>22.0</ns3:atemp>
          </ns3:TrackPointExtension>
        </extensions>
      </trkpt>
      <trkpt lat="42.5150250457227230072021484375" lon="20.14741611666977405548095703125">
        <ele>2166.60009765625</ele>
        <time>2026-06-20T09:53:36.000Z</time>
        <extensions>
          <ns3:TrackPointExtension>
            <ns3:atemp>22.0</ns3:atemp>
          </ns3:TrackPointExtension>
        </extensions>
      </trkpt>
      <trkpt lat="42.5150270573794841766357421875" lon="20.1474443636834621429443359375">
        <ele>2166.800048828125</ele>
        <time>2026-06-20T09:53:37.000Z</time>
        <extensions>
          <ns3:TrackPointExtension>
            <ns3:atemp>22.0</ns3:atemp>
          </ns3:TrackPointExtension>
        </extensions>
      </trkpt>
      <trkpt lat="42.51502546481788158416748046875" lon="20.14747194014489650726318359375">
        <ele>2166.800048828125</ele>
        <time>2026-06-20T09:53:38.000Z</time>
        <extensions>
          <ns3:TrackPointExtension>
            <ns3:atemp>22.0</ns3:atemp>
          </ns3:TrackPointExtension>
        </extensions>
      </trkpt>
      <trkpt lat="42.51502093859016895294189453125" lon="20.14749775640666484832763671875">
        <ele>2166.800048828125</ele>
        <time>2026-06-20T09:53:39.000Z</time>
        <extensions>
          <ns3:TrackPointExtension>
            <ns3:atemp>22.0</ns3:atemp>
          </ns3:TrackPointExtension>
        </extensions>
      </trkpt>
      <trkpt lat="42.5150139816105365753173828125" lon="20.14752893708646297454833984375">
        <ele>2166.60009765625</ele>
        <time>2026-06-20T09:53:40.000Z</time>
        <extensions>
          <ns3:TrackPointExtension>
            <ns3:atemp>22.0</ns3:atemp>
          </ns3:TrackPointExtension>
        </extensions>
      </trkpt>
      <trkpt lat="42.51500987447798252105712890625" lon="20.147561542689800262451171875">
        <ele>2166.60009765625</ele>
        <time>2026-06-20T09:53:41.000Z</time>
        <extensions>
          <ns3:TrackPointExtension>
            <ns3:atemp>22.0</ns3:atemp>
          </ns3:TrackPointExtension>
        </extensions>
      </trkpt>
      <trkpt lat="42.515006102621555328369140625" lon="20.1475969143211841583251953125">
        <ele>2166.60009765625</ele>
        <time>2026-06-20T09:53:42.000Z</time>
        <extensions>
          <ns3:TrackPointExtension>
            <ns3:atemp>22.0</ns3:atemp>
          </ns3:TrackPointExtension>
        </extensions>
      </trkpt>
      <trkpt lat="42.5150002352893352508544921875" lon="20.1476287655532360076904296875">
        <ele>2166.60009765625</ele>
        <time>2026-06-20T09:53:43.000Z</time>
        <extensions>
          <ns3:TrackPointExtension>
            <ns3:atemp>22.0</ns3:atemp>
          </ns3:TrackPointExtension>
        </extensions>
      </trkpt>
      <trkpt lat="42.514995373785495758056640625" lon="20.147657431662082672119140625">
        <ele>2166.60009765625</ele>
        <time>2026-06-20T09:53:44.000Z</time>
        <extensions>
          <ns3:TrackPointExtension>
            <ns3:atemp>22.0</ns3:atemp>
          </ns3:TrackPointExtension>
        </extensions>
      </trkpt>
      <trkpt lat="42.514990679919719696044921875" lon="20.14768701978027820587158203125">
        <ele>2166.800048828125</ele>
        <time>2026-06-20T09:53:45.000Z</time>
        <extensions>
          <ns3:TrackPointExtension>
            <ns3:atemp>22.0</ns3:atemp>
          </ns3:TrackPointExtension>
        </extensions>
      </trkpt>
      <trkpt lat="42.51498539932072162628173828125" lon="20.1477172784507274627685546875">
        <ele>2167</ele>
        <time>2026-06-20T09:53:46.000Z</time>
        <extensions>
          <ns3:TrackPointExtension>
            <ns3:atemp>22.0</ns3:atemp>
          </ns3:TrackPointExtension>
        </extensions>
      </trkpt>
      <trkpt lat="42.51498037017881870269775390625" lon="20.1477501355111598968505859375">
        <ele>2167.39990234375</ele>
        <time>2026-06-20T09:53:47.000Z</time>
        <extensions>
          <ns3:TrackPointExtension>
            <ns3:atemp>22.0</ns3:atemp>
          </ns3:TrackPointExtension>
        </extensions>
      </trkpt>
      <trkpt lat="42.514973245561122894287109375" lon="20.147780813276767730712890625">
        <ele>2167.60009765625</ele>
        <time>2026-06-20T09:53:48.000Z</time>
        <extensions>
          <ns3:TrackPointExtension>
            <ns3:atemp>22.0</ns3:atemp>
          </ns3:TrackPointExtension>
        </extensions>
      </trkpt>
      <trkpt lat="42.514967881143093109130859375" lon="20.1478124968707561492919921875">
        <ele>2167.800048828125</ele>
        <time>2026-06-20T09:53:49.000Z</time>
        <extensions>
          <ns3:TrackPointExtension>
            <ns3:atemp>22.0</ns3:atemp>
          </ns3:TrackPointExtension>
        </extensions>
      </trkpt>
      <trkpt lat="42.51496276818215847015380859375" lon="20.14784074388444423675537109375">
        <ele>2168</ele>
        <time>2026-06-20T09:53:50.000Z</time>
        <extensions>
          <ns3:TrackPointExtension>
            <ns3:atemp>22.0</ns3:atemp>
          </ns3:TrackPointExtension>
        </extensions>
      </trkpt>
      <trkpt lat="42.5149588286876678466796875" lon="20.1478678174316883087158203125">
        <ele>2168.199951171875</ele>
        <time>2026-06-20T09:53:51.000Z</time>
        <extensions>
          <ns3:TrackPointExtension>
            <ns3:atemp>22.0</ns3:atemp>
          </ns3:TrackPointExtension>
        </extensions>
      </trkpt>
      <trkpt lat="42.5149549730122089385986328125" lon="20.14789472334086894989013671875">
        <ele>2168.39990234375</ele>
        <time>2026-06-20T09:53:52.000Z</time>
        <extensions>
          <ns3:TrackPointExtension>
            <ns3:atemp>22.0</ns3:atemp>
          </ns3:TrackPointExtension>
        </extensions>
      </trkpt>
      <trkpt lat="42.5149482674896717071533203125" lon="20.147922299802303314208984375">
        <ele>2168.60009765625</ele>
        <time>2026-06-20T09:53:53.000Z</time>
        <extensions>
          <ns3:TrackPointExtension>
            <ns3:atemp>22.0</ns3:atemp>
          </ns3:TrackPointExtension>
        </extensions>
      </trkpt>
      <trkpt lat="42.51494030468165874481201171875" lon="20.14794769696891307830810546875">
        <ele>2168.800048828125</ele>
        <time>2026-06-20T09:53:54.000Z</time>
        <extensions>
          <ns3:TrackPointExtension>
            <ns3:atemp>22.0</ns3:atemp>
          </ns3:TrackPointExtension>
        </extensions>
      </trkpt>
      <trkpt lat="42.5149331800639629364013671875" lon="20.14797451905906200408935546875">
        <ele>2169</ele>
        <time>2026-06-20T09:53:55.000Z</time>
        <extensions>
          <ns3:TrackPointExtension>
            <ns3:atemp>22.0</ns3:atemp>
          </ns3:TrackPointExtension>
        </extensions>
      </trkpt>
      <trkpt lat="42.514931671321392059326171875" lon="20.14799815602600574493408203125">
        <ele>2169</ele>
        <time>2026-06-20T09:53:56.000Z</time>
        <extensions>
          <ns3:TrackPointExtension>
            <ns3:atemp>22.0</ns3:atemp>
          </ns3:TrackPointExtension>
        </extensions>
      </trkpt>
      <trkpt lat="42.51492873765528202056884765625" lon="20.148017518222332000732421875">
        <ele>2169</ele>
        <time>2026-06-20T09:53:57.000Z</time>
        <extensions>
          <ns3:TrackPointExtension>
            <ns3:atemp>22.0</ns3:atemp>
          </ns3:TrackPointExtension>
        </extensions>
      </trkpt>
      <trkpt lat="42.51492219977080821990966796875" lon="20.14803285710513591766357421875">
        <ele>2169.199951171875</ele>
        <time>2026-06-20T09:53:58.000Z</time>
        <extensions>
          <ns3:TrackPointExtension>
            <ns3:atemp>22.0</ns3:atemp>
          </ns3:TrackPointExtension>
        </extensions>
      </trkpt>
      <trkpt lat="42.51491666771471500396728515625" lon="20.1480445079505443572998046875">
        <ele>2169.199951171875</ele>
        <time>2026-06-20T09:53:59.000Z</time>
        <extensions>
          <ns3:TrackPointExtension>
            <ns3:atemp>22.0</ns3:atemp>
          </ns3:TrackPointExtension>
        </extensions>
      </trkpt>
      <trkpt lat="42.51490962691605091094970703125" lon="20.1480592601001262664794921875">
        <ele>2169.39990234375</ele>
        <time>2026-06-20T09:54:00.000Z</time>
        <extensions>
          <ns3:TrackPointExtension>
            <ns3:atemp>22.0</ns3:atemp>
          </ns3:TrackPointExtension>
        </extensions>
      </trkpt>
      <trkpt lat="42.51490208320319652557373046875" lon="20.14807887375354766845703125">
        <ele>2169.60009765625</ele>
        <time>2026-06-20T09:54:01.000Z</time>
        <extensions>
          <ns3:TrackPointExtension>
            <ns3:atemp>22.0</ns3:atemp>
          </ns3:TrackPointExtension>
        </extensions>
      </trkpt>
      <trkpt lat="42.51489889807999134063720703125" lon="20.14807996340095996856689453125">
        <ele>2169.800048828125</ele>
        <time>2026-06-20T09:54:02.000Z</time>
        <extensions>
          <ns3:TrackPointExtension>
            <ns3:atemp>22.0</ns3:atemp>
          </ns3:TrackPointExtension>
        </extensions>
      </trkpt>
      <trkpt lat="42.51489579677581787109375" lon="20.1480793766677379608154296875">
        <ele>2170</ele>
        <time>2026-06-20T09:54:03.000Z</time>
        <extensions>
          <ns3:TrackPointExtension>
            <ns3:atemp>22.0</ns3:atemp>
          </ns3:TrackPointExtension>
        </extensions>
      </trkpt>
      <trkpt lat="42.51489579677581787109375" lon="20.14807929284870624542236328125">
        <ele>2170</ele>
        <time>2026-06-20T09:54:04.000Z</time>
        <extensions>
          <ns3:TrackPointExtension>
            <ns3:atemp>22.0</ns3:atemp>
          </ns3:TrackPointExtension>
        </extensions>
      </trkpt>
      <trkpt lat="42.51489579677581787109375" lon="20.14807929284870624542236328125">
        <ele>2170.199951171875</ele>
        <time>2026-06-20T09:54:05.000Z</time>
        <extensions>
          <ns3:TrackPointExtension>
            <ns3:atemp>22.0</ns3:atemp>
          </ns3:TrackPointExtension>
        </extensions>
      </trkpt>
      <trkpt lat="42.51489579677581787109375" lon="20.14807929284870624542236328125">
        <ele>2170.199951171875</ele>
        <time>2026-06-20T09:54:06.000Z</time>
        <extensions>
          <ns3:TrackPointExtension>
            <ns3:atemp>22.0</ns3:atemp>
          </ns3:TrackPointExtension>
        </extensions>
      </trkpt>
      <trkpt lat="42.51489579677581787109375" lon="20.14807929284870624542236328125">
        <ele>2170</ele>
        <time>2026-06-20T09:54:07.000Z</time>
        <extensions>
          <ns3:TrackPointExtension>
            <ns3:atemp>22.0</ns3:atemp>
          </ns3:TrackPointExtension>
        </extensions>
      </trkpt>
      <trkpt lat="42.51489579677581787109375" lon="20.14807929284870624542236328125">
        <ele>2170</ele>
        <time>2026-06-20T09:54:08.000Z</time>
        <extensions>
          <ns3:TrackPointExtension>
            <ns3:atemp>22.0</ns3:atemp>
          </ns3:TrackPointExtension>
        </extensions>
      </trkpt>
      <trkpt lat="42.51489579677581787109375" lon="20.14807929284870624542236328125">
        <ele>2170</ele>
        <time>2026-06-20T09:54:09.000Z</time>
        <extensions>
          <ns3:TrackPointExtension>
            <ns3:atemp>22.0</ns3:atemp>
          </ns3:TrackPointExtension>
        </extensions>
      </trkpt>
      <trkpt lat="42.51489579677581787109375" lon="20.14807929284870624542236328125">
        <ele>2170</ele>
        <time>2026-06-20T09:54:10.000Z</time>
        <extensions>
          <ns3:TrackPointExtension>
            <ns3:atemp>22.0</ns3:atemp>
          </ns3:TrackPointExtension>
        </extensions>
      </trkpt>
      <trkpt lat="42.51489579677581787109375" lon="20.14807929284870624542236328125">
        <ele>2170</ele>
        <time>2026-06-20T09:54:11.000Z</time>
        <extensions>
          <ns3:TrackPointExtension>
            <ns3:atemp>22.0</ns3:atemp>
          </ns3:TrackPointExtension>
        </extensions>
      </trkpt>
      <trkpt lat="42.51489579677581787109375" lon="20.14807929284870624542236328125">
        <ele>2170</ele>
        <time>2026-06-20T09:54:12.000Z</time>
        <extensions>
          <ns3:TrackPointExtension>
            <ns3:atemp>22.0</ns3:atemp>
          </ns3:TrackPointExtension>
        </extensions>
      </trkpt>
      <trkpt lat="42.51489579677581787109375" lon="20.14807929284870624542236328125">
        <ele>2170</ele>
        <time>2026-06-20T09:54:13.000Z</time>
        <extensions>
          <ns3:TrackPointExtension>
            <ns3:atemp>22.0</ns3:atemp>
          </ns3:TrackPointExtension>
        </extensions>
      </trkpt>
      <trkpt lat="42.51489579677581787109375" lon="20.14807929284870624542236328125">
        <ele>2170</ele>
        <time>2026-06-20T09:54:14.000Z</time>
        <extensions>
          <ns3:TrackPointExtension>
            <ns3:atemp>22.0</ns3:atemp>
          </ns3:TrackPointExtension>
        </extensions>
      </trkpt>
      <trkpt lat="42.51489579677581787109375" lon="20.14807929284870624542236328125">
        <ele>2170</ele>
        <time>2026-06-20T09:54:15.000Z</time>
        <extensions>
          <ns3:TrackPointExtension>
            <ns3:atemp>22.0</ns3:atemp>
          </ns3:TrackPointExtension>
        </extensions>
      </trkpt>
      <trkpt lat="42.51489579677581787109375" lon="20.14807929284870624542236328125">
        <ele>2169.800048828125</ele>
        <time>2026-06-20T09:54:16.000Z</time>
        <extensions>
          <ns3:TrackPointExtension>
            <ns3:atemp>22.0</ns3:atemp>
          </ns3:TrackPointExtension>
        </extensions>
      </trkpt>
      <trkpt lat="42.51489579677581787109375" lon="20.14807929284870624542236328125">
        <ele>2169.800048828125</ele>
        <time>2026-06-20T09:54:17.000Z</time>
        <extensions>
          <ns3:TrackPointExtension>
            <ns3:atemp>22.0</ns3:atemp>
          </ns3:TrackPointExtension>
        </extensions>
      </trkpt>
      <trkpt lat="42.51489579677581787109375" lon="20.14807929284870624542236328125">
        <ele>2169.800048828125</ele>
        <time>2026-06-20T09:54:18.000Z</time>
        <extensions>
          <ns3:TrackPointExtension>
            <ns3:atemp>22.0</ns3:atemp>
          </ns3:TrackPointExtension>
        </extensions>
      </trkpt>
      <trkpt lat="42.51489579677581787109375" lon="20.14807929284870624542236328125">
        <ele>2169.800048828125</ele>
        <time>2026-06-20T09:54:19.000Z</time>
        <extensions>
          <ns3:TrackPointExtension>
            <ns3:atemp>22.0</ns3:atemp>
          </ns3:TrackPointExtension>
        </extensions>
      </trkpt>
      <trkpt lat="42.51489579677581787109375" lon="20.14807929284870624542236328125">
        <ele>2169.800048828125</ele>
        <time>2026-06-20T09:54:20.000Z</time>
        <extensions>
          <ns3:TrackPointExtension>
            <ns3:atemp>22.0</ns3:atemp>
          </ns3:TrackPointExtension>
        </extensions>
      </trkpt>
      <trkpt lat="42.51489579677581787109375" lon="20.14807929284870624542236328125">
        <ele>2169.800048828125</ele>
        <time>2026-06-20T09:54:21.000Z</time>
        <extensions>
          <ns3:TrackPointExtension>
            <ns3:atemp>22.0</ns3:atemp>
          </ns3:TrackPointExtension>
        </extensions>
      </trkpt>
      <trkpt lat="42.51489579677581787109375" lon="20.14807929284870624542236328125">
        <ele>2169.800048828125</ele>
        <time>2026-06-20T09:54:22.000Z</time>
        <extensions>
          <ns3:TrackPointExtension>
            <ns3:atemp>22.0</ns3:atemp>
          </ns3:TrackPointExtension>
        </extensions>
      </trkpt>
      <trkpt lat="42.51489579677581787109375" lon="20.14807929284870624542236328125">
        <ele>2169.60009765625</ele>
        <time>2026-06-20T09:54:23.000Z</time>
        <extensions>
          <ns3:TrackPointExtension>
            <ns3:atemp>22.0</ns3:atemp>
          </ns3:TrackPointExtension>
        </extensions>
      </trkpt>
      <trkpt lat="42.51489579677581787109375" lon="20.14807929284870624542236328125">
        <ele>2169.60009765625</ele>
        <time>2026-06-20T09:54:24.000Z</time>
        <extensions>
          <ns3:TrackPointExtension>
            <ns3:atemp>22.0</ns3:atemp>
          </ns3:TrackPointExtension>
        </extensions>
      </trkpt>
      <trkpt lat="42.51489579677581787109375" lon="20.14807929284870624542236328125">
        <ele>2169.60009765625</ele>
        <time>2026-06-20T09:54:25.000Z</time>
        <extensions>
          <ns3:TrackPointExtension>
            <ns3:atemp>22.0</ns3:atemp>
          </ns3:TrackPointExtension>
        </extensions>
      </trkpt>
      <trkpt lat="42.51489579677581787109375" lon="20.14807929284870624542236328125">
        <ele>2169.60009765625</ele>
        <time>2026-06-20T09:54:26.000Z</time>
        <extensions>
          <ns3:TrackPointExtension>
            <ns3:atemp>22.0</ns3:atemp>
          </ns3:TrackPointExtension>
        </extensions>
      </trkpt>
      <trkpt lat="42.51489579677581787109375" lon="20.14807929284870624542236328125">
        <ele>2169.60009765625</ele>
        <time>2026-06-20T09:54:27.000Z</time>
        <extensions>
          <ns3:TrackPointExtension>
            <ns3:atemp>22.0</ns3:atemp>
          </ns3:TrackPointExtension>
        </extensions>
      </trkpt>
      <trkpt lat="42.51489579677581787109375" lon="20.14807929284870624542236328125">
        <ele>2169.60009765625</ele>
        <time>2026-06-20T09:54:28.000Z</time>
        <extensions>
          <ns3:TrackPointExtension>
            <ns3:atemp>22.0</ns3:atemp>
          </ns3:TrackPointExtension>
        </extensions>
      </trkpt>
      <trkpt lat="42.51489579677581787109375" lon="20.14807929284870624542236328125">
        <ele>2169.60009765625</ele>
        <time>2026-06-20T09:54:29.000Z</time>
        <extensions>
          <ns3:TrackPointExtension>
            <ns3:atemp>22.0</ns3:atemp>
          </ns3:TrackPointExtension>
        </extensions>
      </trkpt>
      <trkpt lat="42.51489579677581787109375" lon="20.14807929284870624542236328125">
        <ele>2169.60009765625</ele>
        <time>2026-06-20T09:54:30.000Z</time>
        <extensions>
          <ns3:TrackPointExtension>
            <ns3:atemp>22.0</ns3:atemp>
          </ns3:TrackPointExtension>
        </extensions>
      </trkpt>
      <trkpt lat="42.51489579677581787109375" lon="20.14807929284870624542236328125">
        <ele>2169.800048828125</ele>
        <time>2026-06-20T09:54:31.000Z</time>
        <extensions>
          <ns3:TrackPointExtension>
            <ns3:atemp>22.0</ns3:atemp>
          </ns3:TrackPointExtension>
        </extensions>
      </trkpt>
      <trkpt lat="42.51489579677581787109375" lon="20.14807929284870624542236328125">
        <ele>2169.800048828125</ele>
        <time>2026-06-20T09:54:32.000Z</time>
        <extensions>
          <ns3:TrackPointExtension>
            <ns3:atemp>22.0</ns3:atemp>
          </ns3:TrackPointExtension>
        </extensions>
      </trkpt>
      <trkpt lat="42.51489579677581787109375" lon="20.14807929284870624542236328125">
        <ele>2169.800048828125</ele>
        <time>2026-06-20T09:54:33.000Z</time>
        <extensions>
          <ns3:TrackPointExtension>
            <ns3:atemp>22.0</ns3:atemp>
          </ns3:TrackPointExtension>
        </extensions>
      </trkpt>
      <trkpt lat="42.51489579677581787109375" lon="20.14807929284870624542236328125">
        <ele>2170</ele>
        <time>2026-06-20T09:54:34.000Z</time>
        <extensions>
          <ns3:TrackPointExtension>
            <ns3:atemp>22.0</ns3:atemp>
          </ns3:TrackPointExtension>
        </extensions>
      </trkpt>
      <trkpt lat="42.51489579677581787109375" lon="20.14807929284870624542236328125">
        <ele>2170</ele>
        <time>2026-06-20T09:54:35.000Z</time>
        <extensions>
          <ns3:TrackPointExtension>
            <ns3:atemp>22.0</ns3:atemp>
          </ns3:TrackPointExtension>
        </extensions>
      </trkpt>
      <trkpt lat="42.51489579677581787109375" lon="20.14807929284870624542236328125">
        <ele>2170</ele>
        <time>2026-06-20T09:54:36.000Z</time>
        <extensions>
          <ns3:TrackPointExtension>
            <ns3:atemp>22.0</ns3:atemp>
          </ns3:TrackPointExtension>
        </extensions>
      </trkpt>
      <trkpt lat="42.51489579677581787109375" lon="20.14807929284870624542236328125">
        <ele>2170</ele>
        <time>2026-06-20T09:54:37.000Z</time>
        <extensions>
          <ns3:TrackPointExtension>
            <ns3:atemp>22.0</ns3:atemp>
          </ns3:TrackPointExtension>
        </extensions>
      </trkpt>
      <trkpt lat="42.51489579677581787109375" lon="20.14807929284870624542236328125">
        <ele>2170</ele>
        <time>2026-06-20T09:54:38.000Z</time>
        <extensions>
          <ns3:TrackPointExtension>
            <ns3:atemp>22.0</ns3:atemp>
          </ns3:TrackPointExtension>
        </extensions>
      </trkpt>
      <trkpt lat="42.51489579677581787109375" lon="20.14807929284870624542236328125">
        <ele>2170</ele>
        <time>2026-06-20T09:54:39.000Z</time>
        <extensions>
          <ns3:TrackPointExtension>
            <ns3:atemp>22.0</ns3:atemp>
          </ns3:TrackPointExtension>
        </extensions>
      </trkpt>
      <trkpt lat="42.51489579677581787109375" lon="20.14807929284870624542236328125">
        <ele>2169.800048828125</ele>
        <time>2026-06-20T09:54:40.000Z</time>
        <extensions>
          <ns3:TrackPointExtension>
            <ns3:atemp>22.0</ns3:atemp>
          </ns3:TrackPointExtension>
        </extensions>
      </trkpt>
      <trkpt lat="42.51489579677581787109375" lon="20.14807929284870624542236328125">
        <ele>2169.60009765625</ele>
        <time>2026-06-20T09:54:41.000Z</time>
        <extensions>
          <ns3:TrackPointExtension>
            <ns3:atemp>22.0</ns3:atemp>
          </ns3:TrackPointExtension>
        </extensions>
      </trkpt>
      <trkpt lat="42.51489579677581787109375" lon="20.14807929284870624542236328125">
        <ele>2169.60009765625</ele>
        <time>2026-06-20T09:54:42.000Z</time>
        <extensions>
          <ns3:TrackPointExtension>
            <ns3:atemp>22.0</ns3:atemp>
          </ns3:TrackPointExtension>
        </extensions>
      </trkpt>
      <trkpt lat="42.51489579677581787109375" lon="20.14807929284870624542236328125">
        <ele>2169.60009765625</ele>
        <time>2026-06-20T09:54:43.000Z</time>
        <extensions>
          <ns3:TrackPointExtension>
            <ns3:atemp>22.0</ns3:atemp>
          </ns3:TrackPointExtension>
        </extensions>
      </trkpt>
      <trkpt lat="42.51489579677581787109375" lon="20.14807929284870624542236328125">
        <ele>2169.60009765625</ele>
        <time>2026-06-20T09:54:44.000Z</time>
        <extensions>
          <ns3:TrackPointExtension>
            <ns3:atemp>22.0</ns3:atemp>
          </ns3:TrackPointExtension>
        </extensions>
      </trkpt>
      <trkpt lat="42.51489579677581787109375" lon="20.14807929284870624542236328125">
        <ele>2169.60009765625</ele>
        <time>2026-06-20T09:54:45.000Z</time>
        <extensions>
          <ns3:TrackPointExtension>
            <ns3:atemp>22.0</ns3:atemp>
          </ns3:TrackPointExtension>
        </extensions>
      </trkpt>
      <trkpt lat="42.51489579677581787109375" lon="20.14807929284870624542236328125">
        <ele>2169.60009765625</ele>
        <time>2026-06-20T09:54:46.000Z</time>
        <extensions>
          <ns3:TrackPointExtension>
            <ns3:atemp>22.0</ns3:atemp>
          </ns3:TrackPointExtension>
        </extensions>
      </trkpt>
      <trkpt lat="42.51489579677581787109375" lon="20.14807929284870624542236328125">
        <ele>2169.60009765625</ele>
        <time>2026-06-20T09:54:47.000Z</time>
        <extensions>
          <ns3:TrackPointExtension>
            <ns3:atemp>22.0</ns3:atemp>
          </ns3:TrackPointExtension>
        </extensions>
      </trkpt>
      <trkpt lat="42.51489579677581787109375" lon="20.14807929284870624542236328125">
        <ele>2169.60009765625</ele>
        <time>2026-06-20T09:54:48.000Z</time>
        <extensions>
          <ns3:TrackPointExtension>
            <ns3:atemp>22.0</ns3:atemp>
          </ns3:TrackPointExtension>
        </extensions>
      </trkpt>
      <trkpt lat="42.51489579677581787109375" lon="20.14807929284870624542236328125">
        <ele>2169.60009765625</ele>
        <time>2026-06-20T09:54:49.000Z</time>
        <extensions>
          <ns3:TrackPointExtension>
            <ns3:atemp>22.0</ns3:atemp>
          </ns3:TrackPointExtension>
        </extensions>
      </trkpt>
      <trkpt lat="42.51489579677581787109375" lon="20.14807929284870624542236328125">
        <ele>2169.60009765625</ele>
        <time>2026-06-20T09:54:50.000Z</time>
        <extensions>
          <ns3:TrackPointExtension>
            <ns3:atemp>22.0</ns3:atemp>
          </ns3:TrackPointExtension>
        </extensions>
      </trkpt>
      <trkpt lat="42.51489579677581787109375" lon="20.14807929284870624542236328125">
        <ele>2169.60009765625</ele>
        <time>2026-06-20T09:54:51.000Z</time>
        <extensions>
          <ns3:TrackPointExtension>
            <ns3:atemp>22.0</ns3:atemp>
          </ns3:TrackPointExtension>
        </extensions>
      </trkpt>
      <trkpt lat="42.51489579677581787109375" lon="20.14807929284870624542236328125">
        <ele>2169.60009765625</ele>
        <time>2026-06-20T09:54:52.000Z</time>
        <extensions>
          <ns3:TrackPointExtension>
            <ns3:atemp>22.0</ns3:atemp>
          </ns3:TrackPointExtension>
        </extensions>
      </trkpt>
      <trkpt lat="42.51489579677581787109375" lon="20.14807929284870624542236328125">
        <ele>2169.60009765625</ele>
        <time>2026-06-20T09:54:53.000Z</time>
        <extensions>
          <ns3:TrackPointExtension>
            <ns3:atemp>22.0</ns3:atemp>
          </ns3:TrackPointExtension>
        </extensions>
      </trkpt>
      <trkpt lat="42.51489579677581787109375" lon="20.14807929284870624542236328125">
        <ele>2169.60009765625</ele>
        <time>2026-06-20T09:54:54.000Z</time>
        <extensions>
          <ns3:TrackPointExtension>
            <ns3:atemp>22.0</ns3:atemp>
          </ns3:TrackPointExtension>
        </extensions>
      </trkpt>
      <trkpt lat="42.51489579677581787109375" lon="20.14807929284870624542236328125">
        <ele>2169.60009765625</ele>
        <time>2026-06-20T09:54:55.000Z</time>
        <extensions>
          <ns3:TrackPointExtension>
            <ns3:atemp>22.0</ns3:atemp>
          </ns3:TrackPointExtension>
        </extensions>
      </trkpt>
      <trkpt lat="42.51489579677581787109375" lon="20.14807929284870624542236328125">
        <ele>2169.39990234375</ele>
        <time>2026-06-20T09:54:56.000Z</time>
        <extensions>
          <ns3:TrackPointExtension>
            <ns3:atemp>22.0</ns3:atemp>
          </ns3:TrackPointExtension>
        </extensions>
      </trkpt>
      <trkpt lat="42.51489579677581787109375" lon="20.14807929284870624542236328125">
        <ele>2169.39990234375</ele>
        <time>2026-06-20T09:54:57.000Z</time>
        <extensions>
          <ns3:TrackPointExtension>
            <ns3:atemp>22.0</ns3:atemp>
          </ns3:TrackPointExtension>
        </extensions>
      </trkpt>
      <trkpt lat="42.51489579677581787109375" lon="20.14807929284870624542236328125">
        <ele>2169.39990234375</ele>
        <time>2026-06-20T09:54:58.000Z</time>
        <extensions>
          <ns3:TrackPointExtension>
            <ns3:atemp>22.0</ns3:atemp>
          </ns3:TrackPointExtension>
        </extensions>
      </trkpt>
      <trkpt lat="42.51489579677581787109375" lon="20.14807929284870624542236328125">
        <ele>2169.39990234375</ele>
        <time>2026-06-20T09:54:59.000Z</time>
        <extensions>
          <ns3:TrackPointExtension>
            <ns3:atemp>22.0</ns3:atemp>
          </ns3:TrackPointExtension>
        </extensions>
      </trkpt>
      <trkpt lat="42.51489579677581787109375" lon="20.14807929284870624542236328125">
        <ele>2169.199951171875</ele>
        <time>2026-06-20T09:55:00.000Z</time>
        <extensions>
          <ns3:TrackPointExtension>
            <ns3:atemp>22.0</ns3:atemp>
          </ns3:TrackPointExtension>
        </extensions>
      </trkpt>
      <trkpt lat="42.51489579677581787109375" lon="20.14807929284870624542236328125">
        <ele>2169.199951171875</ele>
        <time>2026-06-20T09:55:01.000Z</time>
        <extensions>
          <ns3:TrackPointExtension>
            <ns3:atemp>22.0</ns3:atemp>
          </ns3:TrackPointExtension>
        </extensions>
      </trkpt>
      <trkpt lat="42.51489579677581787109375" lon="20.14807929284870624542236328125">
        <ele>2169</ele>
        <time>2026-06-20T09:55:02.000Z</time>
        <extensions>
          <ns3:TrackPointExtension>
            <ns3:atemp>22.0</ns3:atemp>
          </ns3:TrackPointExtension>
        </extensions>
      </trkpt>
      <trkpt lat="42.51489579677581787109375" lon="20.14807929284870624542236328125">
        <ele>2169</ele>
        <time>2026-06-20T09:55:03.000Z</time>
        <extensions>
          <ns3:TrackPointExtension>
            <ns3:atemp>22.0</ns3:atemp>
          </ns3:TrackPointExtension>
        </extensions>
      </trkpt>
      <trkpt lat="42.51489579677581787109375" lon="20.14807929284870624542236328125">
        <ele>2169</ele>
        <time>2026-06-20T09:55:04.000Z</time>
        <extensions>
          <ns3:TrackPointExtension>
            <ns3:atemp>22.0</ns3:atemp>
          </ns3:TrackPointExtension>
        </extensions>
      </trkpt>
      <trkpt lat="42.51489579677581787109375" lon="20.14807929284870624542236328125">
        <ele>2169</ele>
        <time>2026-06-20T09:55:05.000Z</time>
        <extensions>
          <ns3:TrackPointExtension>
            <ns3:atemp>22.0</ns3:atemp>
          </ns3:TrackPointExtension>
        </extensions>
      </trkpt>
      <trkpt lat="42.51489579677581787109375" lon="20.14807929284870624542236328125">
        <ele>2169</ele>
        <time>2026-06-20T09:55:06.000Z</time>
        <extensions>
          <ns3:TrackPointExtension>
            <ns3:atemp>22.0</ns3:atemp>
          </ns3:TrackPointExtension>
        </extensions>
      </trkpt>
      <trkpt lat="42.51489579677581787109375" lon="20.14807929284870624542236328125">
        <ele>2169.199951171875</ele>
        <time>2026-06-20T09:55:07.000Z</time>
        <extensions>
          <ns3:TrackPointExtension>
            <ns3:atemp>22.0</ns3:atemp>
          </ns3:TrackPointExtension>
        </extensions>
      </trkpt>
      <trkpt lat="42.51489579677581787109375" lon="20.14807929284870624542236328125">
        <ele>2169.199951171875</ele>
        <time>2026-06-20T09:55:08.000Z</time>
        <extensions>
          <ns3:TrackPointExtension>
            <ns3:atemp>22.0</ns3:atemp>
          </ns3:TrackPointExtension>
        </extensions>
      </trkpt>
      <trkpt lat="42.51489579677581787109375" lon="20.14807929284870624542236328125">
        <ele>2169.199951171875</ele>
        <time>2026-06-20T09:55:09.000Z</time>
        <extensions>
          <ns3:TrackPointExtension>
            <ns3:atemp>22.0</ns3:atemp>
          </ns3:TrackPointExtension>
        </extensions>
      </trkpt>
      <trkpt lat="42.51489579677581787109375" lon="20.14807929284870624542236328125">
        <ele>2169.199951171875</ele>
        <time>2026-06-20T09:55:10.000Z</time>
        <extensions>
          <ns3:TrackPointExtension>
            <ns3:atemp>22.0</ns3:atemp>
          </ns3:TrackPointExtension>
        </extensions>
      </trkpt>
      <trkpt lat="42.51489579677581787109375" lon="20.14807929284870624542236328125">
        <ele>2169</ele>
        <time>2026-06-20T09:55:11.000Z</time>
        <extensions>
          <ns3:TrackPointExtension>
            <ns3:atemp>22.0</ns3:atemp>
          </ns3:TrackPointExtension>
        </extensions>
      </trkpt>
      <trkpt lat="42.51489579677581787109375" lon="20.14807929284870624542236328125">
        <ele>2169</ele>
        <time>2026-06-20T09:55:12.000Z</time>
        <extensions>
          <ns3:TrackPointExtension>
            <ns3:atemp>22.0</ns3:atemp>
          </ns3:TrackPointExtension>
        </extensions>
      </trkpt>
      <trkpt lat="42.51489579677581787109375" lon="20.14807929284870624542236328125">
        <ele>2169</ele>
        <time>2026-06-20T09:55:13.000Z</time>
        <extensions>
          <ns3:TrackPointExtension>
            <ns3:atemp>22.0</ns3:atemp>
          </ns3:TrackPointExtension>
        </extensions>
      </trkpt>
      <trkpt lat="42.51489579677581787109375" lon="20.14807929284870624542236328125">
        <ele>2169</ele>
        <time>2026-06-20T09:55:14.000Z</time>
        <extensions>
          <ns3:TrackPointExtension>
            <ns3:atemp>22.0</ns3:atemp>
          </ns3:TrackPointExtension>
        </extensions>
      </trkpt>
      <trkpt lat="42.51489579677581787109375" lon="20.14807929284870624542236328125">
        <ele>2169</ele>
        <time>2026-06-20T09:55:15.000Z</time>
        <extensions>
          <ns3:TrackPointExtension>
            <ns3:atemp>22.0</ns3:atemp>
          </ns3:TrackPointExtension>
        </extensions>
      </trkpt>
      <trkpt lat="42.51489579677581787109375" lon="20.14807929284870624542236328125">
        <ele>2169</ele>
        <time>2026-06-20T09:55:16.000Z</time>
        <extensions>
          <ns3:TrackPointExtension>
            <ns3:atemp>22.0</ns3:atemp>
          </ns3:TrackPointExtension>
        </extensions>
      </trkpt>
      <trkpt lat="42.51489579677581787109375" lon="20.14807929284870624542236328125">
        <ele>2169</ele>
        <time>2026-06-20T09:55:17.000Z</time>
        <extensions>
          <ns3:TrackPointExtension>
            <ns3:atemp>22.0</ns3:atemp>
          </ns3:TrackPointExtension>
        </extensions>
      </trkpt>
      <trkpt lat="42.51489579677581787109375" lon="20.14807929284870624542236328125">
        <ele>2169</ele>
        <time>2026-06-20T09:55:18.000Z</time>
        <extensions>
          <ns3:TrackPointExtension>
            <ns3:atemp>22.0</ns3:atemp>
          </ns3:TrackPointExtension>
        </extensions>
      </trkpt>
      <trkpt lat="42.51489579677581787109375" lon="20.14807929284870624542236328125">
        <ele>2169</ele>
        <time>2026-06-20T09:55:19.000Z</time>
        <extensions>
          <ns3:TrackPointExtension>
            <ns3:atemp>22.0</ns3:atemp>
          </ns3:TrackPointExtension>
        </extensions>
      </trkpt>
      <trkpt lat="42.514898143708705902099609375" lon="20.14807887375354766845703125">
        <ele>2169</ele>
        <time>2026-06-20T09:55:20.000Z</time>
        <extensions>
          <ns3:TrackPointExtension>
            <ns3:atemp>22.0</ns3:atemp>
          </ns3:TrackPointExtension>
        </extensions>
      </trkpt>
      <trkpt lat="42.51490049064159393310546875" lon="20.14807828702032566070556640625">
        <ele>2169</ele>
        <time>2026-06-20T09:55:21.000Z</time>
        <extensions>
          <ns3:TrackPointExtension>
            <ns3:atemp>22.0</ns3:atemp>
          </ns3:TrackPointExtension>
        </extensions>
      </trkpt>
      <trkpt lat="42.51489579677581787109375" lon="20.14807929284870624542236328125">
        <ele>2169</ele>
        <time>2026-06-20T09:55:22.000Z</time>
        <extensions>
          <ns3:TrackPointExtension>
            <ns3:atemp>22.0</ns3:atemp>
          </ns3:TrackPointExtension>
        </extensions>
      </trkpt>
      <trkpt lat="42.51489579677581787109375" lon="20.14807929284870624542236328125">
        <ele>2169.199951171875</ele>
        <time>2026-06-20T09:55:23.000Z</time>
        <extensions>
          <ns3:TrackPointExtension>
            <ns3:atemp>21.0</ns3:atemp>
          </ns3:TrackPointExtension>
        </extensions>
      </trkpt>
      <trkpt lat="42.51489579677581787109375" lon="20.14807929284870624542236328125">
        <ele>2169.199951171875</ele>
        <time>2026-06-20T09:55:24.000Z</time>
        <extensions>
          <ns3:TrackPointExtension>
            <ns3:atemp>21.0</ns3:atemp>
          </ns3:TrackPointExtension>
        </extensions>
      </trkpt>
      <trkpt lat="42.51489579677581787109375" lon="20.14807929284870624542236328125">
        <ele>2169.199951171875</ele>
        <time>2026-06-20T09:55:25.000Z</time>
        <extensions>
          <ns3:TrackPointExtension>
            <ns3:atemp>21.0</ns3:atemp>
          </ns3:TrackPointExtension>
        </extensions>
      </trkpt>
      <trkpt lat="42.51489579677581787109375" lon="20.14807929284870624542236328125">
        <ele>2169.39990234375</ele>
        <time>2026-06-20T09:55:26.000Z</time>
        <extensions>
          <ns3:TrackPointExtension>
            <ns3:atemp>22.0</ns3:atemp>
          </ns3:TrackPointExtension>
        </extensions>
      </trkpt>
      <trkpt lat="42.51489579677581787109375" lon="20.14807929284870624542236328125">
        <ele>2169.60009765625</ele>
        <time>2026-06-20T09:55:27.000Z</time>
        <extensions>
          <ns3:TrackPointExtension>
            <ns3:atemp>21.0</ns3:atemp>
          </ns3:TrackPointExtension>
        </extensions>
      </trkpt>
      <trkpt lat="42.51489579677581787109375" lon="20.14807929284870624542236328125">
        <ele>2169.800048828125</ele>
        <time>2026-06-20T09:55:28.000Z</time>
        <extensions>
          <ns3:TrackPointExtension>
            <ns3:atemp>22.0</ns3:atemp>
          </ns3:TrackPointExtension>
        </extensions>
      </trkpt>
      <trkpt lat="42.51489579677581787109375" lon="20.14807929284870624542236328125">
        <ele>2169.800048828125</ele>
        <time>2026-06-20T09:55:29.000Z</time>
        <extensions>
          <ns3:TrackPointExtension>
            <ns3:atemp>22.0</ns3:atemp>
          </ns3:TrackPointExtension>
        </extensions>
      </trkpt>
      <trkpt lat="42.51489579677581787109375" lon="20.14807929284870624542236328125">
        <ele>2169.60009765625</ele>
        <time>2026-06-20T09:55:30.000Z</time>
        <extensions>
          <ns3:TrackPointExtension>
            <ns3:atemp>22.0</ns3:atemp>
          </ns3:TrackPointExtension>
        </extensions>
      </trkpt>
      <trkpt lat="42.51489579677581787109375" lon="20.14807929284870624542236328125">
        <ele>2169.39990234375</ele>
        <time>2026-06-20T09:55:31.000Z</time>
        <extensions>
          <ns3:TrackPointExtension>
            <ns3:atemp>22.0</ns3:atemp>
          </ns3:TrackPointExtension>
        </extensions>
      </trkpt>
      <trkpt lat="42.51489579677581787109375" lon="20.14807929284870624542236328125">
        <ele>2169.199951171875</ele>
        <time>2026-06-20T09:55:32.000Z</time>
        <extensions>
          <ns3:TrackPointExtension>
            <ns3:atemp>22.0</ns3:atemp>
          </ns3:TrackPointExtension>
        </extensions>
      </trkpt>
      <trkpt lat="42.51490476541221141815185546875" lon="20.14808063395321369171142578125">
        <ele>2169.199951171875</ele>
        <time>2026-06-20T09:55:33.000Z</time>
        <extensions>
          <ns3:TrackPointExtension>
            <ns3:atemp>22.0</ns3:atemp>
          </ns3:TrackPointExtension>
        </extensions>
      </trkpt>
      <trkpt lat="42.51490795053541660308837890625" lon="20.148074515163898468017578125">
        <ele>2169.199951171875</ele>
        <time>2026-06-20T09:55:34.000Z</time>
        <extensions>
          <ns3:TrackPointExtension>
            <ns3:atemp>22.0</ns3:atemp>
          </ns3:TrackPointExtension>
        </extensions>
      </trkpt>
      <trkpt lat="42.51491230912506580352783203125" lon="20.1480663008987903594970703125">
        <ele>2169.39990234375</ele>
        <time>2026-06-20T09:55:35.000Z</time>
        <extensions>
          <ns3:TrackPointExtension>
            <ns3:atemp>22.0</ns3:atemp>
          </ns3:TrackPointExtension>
        </extensions>
      </trkpt>
      <trkpt lat="42.5149150751531124114990234375" lon="20.1480622775852680206298828125">
        <ele>2169.60009765625</ele>
        <time>2026-06-20T09:55:36.000Z</time>
        <extensions>
          <ns3:TrackPointExtension>
            <ns3:atemp>21.0</ns3:atemp>
          </ns3:TrackPointExtension>
        </extensions>
      </trkpt>
      <trkpt lat="42.51491767354309558868408203125" lon="20.14805515296757221221923828125">
        <ele>2169.800048828125</ele>
        <time>2026-06-20T09:55:37.000Z</time>
        <extensions>
          <ns3:TrackPointExtension>
            <ns3:atemp>22.0</ns3:atemp>
          </ns3:TrackPointExtension>
        </extensions>
      </trkpt>
      <trkpt lat="42.51491800881922245025634765625" lon="20.14805548824369907379150390625">
        <ele>2170</ele>
        <time>2026-06-20T09:55:38.000Z</time>
        <extensions>
          <ns3:TrackPointExtension>
            <ns3:atemp>21.0</ns3:atemp>
          </ns3:TrackPointExtension>
        </extensions>
      </trkpt>
      <trkpt lat="42.5149180926382541656494140625" lon="20.1480554044246673583984375">
        <ele>2170</ele>
        <time>2026-06-20T09:55:39.000Z</time>
        <extensions>
          <ns3:TrackPointExtension>
            <ns3:atemp>21.0</ns3:atemp>
          </ns3:TrackPointExtension>
        </extensions>
      </trkpt>
      <trkpt lat="42.5149180926382541656494140625" lon="20.1480554044246673583984375">
        <ele>2170</ele>
        <time>2026-06-20T09:55:40.000Z</time>
        <extensions>
          <ns3:TrackPointExtension>
            <ns3:atemp>22.0</ns3:atemp>
          </ns3:TrackPointExtension>
        </extensions>
      </trkpt>
      <trkpt lat="42.5149180926382541656494140625" lon="20.1480554044246673583984375">
        <ele>2169.800048828125</ele>
        <time>2026-06-20T09:55:41.000Z</time>
        <extensions>
          <ns3:TrackPointExtension>
            <ns3:atemp>22.0</ns3:atemp>
          </ns3:TrackPointExtension>
        </extensions>
      </trkpt>
      <trkpt lat="42.51491834409534931182861328125" lon="20.1480549015104770660400390625">
        <ele>2169.800048828125</ele>
        <time>2026-06-20T09:55:42.000Z</time>
        <extensions>
          <ns3:TrackPointExtension>
            <ns3:atemp>22.0</ns3:atemp>
          </ns3:TrackPointExtension>
        </extensions>
      </trkpt>
      <trkpt lat="42.51492739655077457427978515625" lon="20.14802380464971065521240234375">
        <ele>2169.800048828125</ele>
        <time>2026-06-20T09:55:43.000Z</time>
        <extensions>
          <ns3:TrackPointExtension>
            <ns3:atemp>22.0</ns3:atemp>
          </ns3:TrackPointExtension>
        </extensions>
      </trkpt>
      <trkpt lat="42.51493209041655063629150390625" lon="20.14799430035054683685302734375">
        <ele>2169.60009765625</ele>
        <time>2026-06-20T09:55:44.000Z</time>
        <extensions>
          <ns3:TrackPointExtension>
            <ns3:atemp>22.0</ns3:atemp>
          </ns3:TrackPointExtension>
        </extensions>
      </trkpt>
      <trkpt lat="42.514937706291675567626953125" lon="20.14796311967074871063232421875">
        <ele>2169.60009765625</ele>
        <time>2026-06-20T09:55:45.000Z</time>
        <extensions>
          <ns3:TrackPointExtension>
            <ns3:atemp>22.0</ns3:atemp>
          </ns3:TrackPointExtension>
        </extensions>
      </trkpt>
      <trkpt lat="42.51494147814810276031494140625" lon="20.1479358784854412078857421875">
        <ele>2169.60009765625</ele>
        <time>2026-06-20T09:55:46.000Z</time>
        <extensions>
          <ns3:TrackPointExtension>
            <ns3:atemp>21.0</ns3:atemp>
          </ns3:TrackPointExtension>
        </extensions>
      </trkpt>
      <trkpt lat="42.51494265161454677581787109375" lon="20.14791123569011688232421875">
        <ele>2169.39990234375</ele>
        <time>2026-06-20T09:55:47.000Z</time>
        <extensions>
          <ns3:TrackPointExtension>
            <ns3:atemp>22.0</ns3:atemp>
          </ns3:TrackPointExtension>
        </extensions>
      </trkpt>
      <trkpt lat="42.5149425677955150604248046875" lon="20.14789589680731296539306640625">
        <ele>2169.199951171875</ele>
        <time>2026-06-20T09:55:48.000Z</time>
        <extensions>
          <ns3:TrackPointExtension>
            <ns3:atemp>21.0</ns3:atemp>
          </ns3:TrackPointExtension>
        </extensions>
      </trkpt>
      <trkpt lat="42.514946423470973968505859375" lon="20.1478772051632404327392578125">
        <ele>2169.199951171875</ele>
        <time>2026-06-20T09:55:49.000Z</time>
        <extensions>
          <ns3:TrackPointExtension>
            <ns3:atemp>21.0</ns3:atemp>
          </ns3:TrackPointExtension>
        </extensions>
      </trkpt>
      <trkpt lat="42.51495220698416233062744140625" lon="20.14785516075789928436279296875">
        <ele>2169.199951171875</ele>
        <time>2026-06-20T09:55:50.000Z</time>
        <extensions>
          <ns3:TrackPointExtension>
            <ns3:atemp>21.0</ns3:atemp>
          </ns3:TrackPointExtension>
        </extensions>
      </trkpt>
      <trkpt lat="42.51495908014476299285888671875" lon="20.1478222198784351348876953125">
        <ele>2169</ele>
        <time>2026-06-20T09:55:51.000Z</time>
        <extensions>
          <ns3:TrackPointExtension>
            <ns3:atemp>21.0</ns3:atemp>
          </ns3:TrackPointExtension>
        </extensions>
      </trkpt>
      <trkpt lat="42.51496142707765102386474609375" lon="20.14778944663703441619873046875">
        <ele>2169</ele>
        <time>2026-06-20T09:55:52.000Z</time>
        <extensions>
          <ns3:TrackPointExtension>
            <ns3:atemp>21.0</ns3:atemp>
          </ns3:TrackPointExtension>
        </extensions>
      </trkpt>
      <trkpt lat="42.51496427692472934722900390625" lon="20.147766731679439544677734375">
        <ele>2169</ele>
        <time>2026-06-20T09:55:53.000Z</time>
        <extensions>
          <ns3:TrackPointExtension>
            <ns3:atemp>21.0</ns3:atemp>
          </ns3:TrackPointExtension>
        </extensions>
      </trkpt>
      <trkpt lat="42.51496662385761737823486328125" lon="20.14774736948311328887939453125">
        <ele>2169</ele>
        <time>2026-06-20T09:55:54.000Z</time>
        <extensions>
          <ns3:TrackPointExtension>
            <ns3:atemp>21.0</ns3:atemp>
          </ns3:TrackPointExtension>
        </extensions>
      </trkpt>
      <trkpt lat="42.51497182063758373260498046875" lon="20.14772574417293071746826171875">
        <ele>2169</ele>
        <time>2026-06-20T09:55:55.000Z</time>
        <extensions>
          <ns3:TrackPointExtension>
            <ns3:atemp>21.0</ns3:atemp>
          </ns3:TrackPointExtension>
        </extensions>
      </trkpt>
      <trkpt lat="42.5149762630462646484375" lon="20.147702358663082122802734375">
        <ele>2169</ele>
        <time>2026-06-20T09:55:56.000Z</time>
        <extensions>
          <ns3:TrackPointExtension>
            <ns3:atemp>21.0</ns3:atemp>
          </ns3:TrackPointExtension>
        </extensions>
      </trkpt>
      <trkpt lat="42.5149828009307384490966796875" lon="20.14767897315323352813720703125">
        <ele>2169</ele>
        <time>2026-06-20T09:55:57.000Z</time>
        <extensions>
          <ns3:TrackPointExtension>
            <ns3:atemp>21.0</ns3:atemp>
          </ns3:TrackPointExtension>
        </extensions>
      </trkpt>
      <trkpt lat="42.51498741097748279571533203125" lon="20.147651731967926025390625">
        <ele>2169</ele>
        <time>2026-06-20T09:55:58.000Z</time>
        <extensions>
          <ns3:TrackPointExtension>
            <ns3:atemp>21.0</ns3:atemp>
          </ns3:TrackPointExtension>
        </extensions>
      </trkpt>
      <trkpt lat="42.51499160192906856536865234375" lon="20.147626586258411407470703125">
        <ele>2168.800048828125</ele>
        <time>2026-06-20T09:55:59.000Z</time>
        <extensions>
          <ns3:TrackPointExtension>
            <ns3:atemp>21.0</ns3:atemp>
          </ns3:TrackPointExtension>
        </extensions>
      </trkpt>
      <trkpt lat="42.51499646343290805816650390625" lon="20.147599764168262481689453125">
        <ele>2168.800048828125</ele>
        <time>2026-06-20T09:56:00.000Z</time>
        <extensions>
          <ns3:TrackPointExtension>
            <ns3:atemp>21.0</ns3:atemp>
          </ns3:TrackPointExtension>
        </extensions>
      </trkpt>
      <trkpt lat="42.5150025822222232818603515625" lon="20.1475747860968112945556640625">
        <ele>2168.800048828125</ele>
        <time>2026-06-20T09:56:01.000Z</time>
        <extensions>
          <ns3:TrackPointExtension>
            <ns3:atemp>21.0</ns3:atemp>
          </ns3:TrackPointExtension>
        </extensions>
      </trkpt>
      <trkpt lat="42.51500886864960193634033203125" lon="20.1475469581782817840576171875">
        <ele>2168.800048828125</ele>
        <time>2026-06-20T09:56:02.000Z</time>
        <extensions>
          <ns3:TrackPointExtension>
            <ns3:atemp>21.0</ns3:atemp>
          </ns3:TrackPointExtension>
        </extensions>
      </trkpt>
      <trkpt lat="42.51501423306763172149658203125" lon="20.147516615688800811767578125">
        <ele>2168.800048828125</ele>
        <time>2026-06-20T09:56:03.000Z</time>
        <extensions>
          <ns3:TrackPointExtension>
            <ns3:atemp>21.0</ns3:atemp>
          </ns3:TrackPointExtension>
        </extensions>
      </trkpt>
      <trkpt lat="42.51501674763858318328857421875" lon="20.1474894583225250244140625">
        <ele>2168.60009765625</ele>
        <time>2026-06-20T09:56:04.000Z</time>
        <extensions>
          <ns3:TrackPointExtension>
            <ns3:atemp>21.0</ns3:atemp>
          </ns3:TrackPointExtension>
        </extensions>
      </trkpt>
      <trkpt lat="42.51501959748566150665283203125" lon="20.14747202396392822265625">
        <ele>2168.60009765625</ele>
        <time>2026-06-20T09:56:05.000Z</time>
        <extensions>
          <ns3:TrackPointExtension>
            <ns3:atemp>21.0</ns3:atemp>
          </ns3:TrackPointExtension>
        </extensions>
      </trkpt>
      <trkpt lat="42.51501959748566150665283203125" lon="20.14745769090950489044189453125">
        <ele>2168.39990234375</ele>
        <time>2026-06-20T09:56:06.000Z</time>
        <extensions>
          <ns3:TrackPointExtension>
            <ns3:atemp>21.0</ns3:atemp>
          </ns3:TrackPointExtension>
        </extensions>
      </trkpt>
      <trkpt lat="42.51501691527664661407470703125" lon="20.14744629152119159698486328125">
        <ele>2168.199951171875</ele>
        <time>2026-06-20T09:56:07.000Z</time>
        <extensions>
          <ns3:TrackPointExtension>
            <ns3:atemp>22.0</ns3:atemp>
          </ns3:TrackPointExtension>
        </extensions>
      </trkpt>
      <trkpt lat="42.5150193460285663604736328125" lon="20.14744562096893787384033203125">
        <ele>2168</ele>
        <time>2026-06-20T09:56:08.000Z</time>
        <extensions>
          <ns3:TrackPointExtension>
            <ns3:atemp>22.0</ns3:atemp>
          </ns3:TrackPointExtension>
        </extensions>
      </trkpt>
      <trkpt lat="42.5150193460285663604736328125" lon="20.147445537149906158447265625">
        <ele>2168.199951171875</ele>
        <time>2026-06-20T09:56:09.000Z</time>
        <extensions>
          <ns3:TrackPointExtension>
            <ns3:atemp>22.0</ns3:atemp>
          </ns3:TrackPointExtension>
        </extensions>
      </trkpt>
      <trkpt lat="42.51501926220953464508056640625" lon="20.14744545333087444305419921875">
        <ele>2169</ele>
        <time>2026-06-20T09:56:10.000Z</time>
        <extensions>
          <ns3:TrackPointExtension>
            <ns3:atemp>21.0</ns3:atemp>
          </ns3:TrackPointExtension>
        </extensions>
      </trkpt>
      <trkpt lat="42.5150159932672977447509765625" lon="20.1474433578550815582275390625">
        <ele>2169</ele>
        <time>2026-06-20T09:56:11.000Z</time>
        <extensions>
          <ns3:TrackPointExtension>
            <ns3:atemp>21.0</ns3:atemp>
          </ns3:TrackPointExtension>
        </extensions>
      </trkpt>
      <trkpt lat="42.5150193460285663604736328125" lon="20.147445537149906158447265625">
        <ele>2169</ele>
        <time>2026-06-20T09:56:12.000Z</time>
        <extensions>
          <ns3:TrackPointExtension>
            <ns3:atemp>21.0</ns3:atemp>
          </ns3:TrackPointExtension>
        </extensions>
      </trkpt>
      <trkpt lat="42.5150193460285663604736328125" lon="20.147445537149906158447265625">
        <ele>2169</ele>
        <time>2026-06-20T09:56:13.000Z</time>
        <extensions>
          <ns3:TrackPointExtension>
            <ns3:atemp>21.0</ns3:atemp>
          </ns3:TrackPointExtension>
        </extensions>
      </trkpt>
      <trkpt lat="42.5150193460285663604736328125" lon="20.147445537149906158447265625">
        <ele>2169</ele>
        <time>2026-06-20T09:56:14.000Z</time>
        <extensions>
          <ns3:TrackPointExtension>
            <ns3:atemp>21.0</ns3:atemp>
          </ns3:TrackPointExtension>
        </extensions>
      </trkpt>
      <trkpt lat="42.5150193460285663604736328125" lon="20.147445537149906158447265625">
        <ele>2169</ele>
        <time>2026-06-20T09:56:15.000Z</time>
        <extensions>
          <ns3:TrackPointExtension>
            <ns3:atemp>21.0</ns3:atemp>
          </ns3:TrackPointExtension>
        </extensions>
      </trkpt>
      <trkpt lat="42.5150193460285663604736328125" lon="20.147445537149906158447265625">
        <ele>2169</ele>
        <time>2026-06-20T09:56:16.000Z</time>
        <extensions>
          <ns3:TrackPointExtension>
            <ns3:atemp>22.0</ns3:atemp>
          </ns3:TrackPointExtension>
        </extensions>
      </trkpt>
      <trkpt lat="42.5150193460285663604736328125" lon="20.147445537149906158447265625">
        <ele>2169</ele>
        <time>2026-06-20T09:56:17.000Z</time>
        <extensions>
          <ns3:TrackPointExtension>
            <ns3:atemp>22.0</ns3:atemp>
          </ns3:TrackPointExtension>
        </extensions>
      </trkpt>
      <trkpt lat="42.5150193460285663604736328125" lon="20.147445537149906158447265625">
        <ele>2169</ele>
        <time>2026-06-20T09:56:18.000Z</time>
        <extensions>
          <ns3:TrackPointExtension>
            <ns3:atemp>22.0</ns3:atemp>
          </ns3:TrackPointExtension>
        </extensions>
      </trkpt>
      <trkpt lat="42.5150193460285663604736328125" lon="20.147445537149906158447265625">
        <ele>2169</ele>
        <time>2026-06-20T09:56:19.000Z</time>
        <extensions>
          <ns3:TrackPointExtension>
            <ns3:atemp>22.0</ns3:atemp>
          </ns3:TrackPointExtension>
        </extensions>
      </trkpt>
      <trkpt lat="42.5150193460285663604736328125" lon="20.147445537149906158447265625">
        <ele>2169</ele>
        <time>2026-06-20T09:56:20.000Z</time>
        <extensions>
          <ns3:TrackPointExtension>
            <ns3:atemp>22.0</ns3:atemp>
          </ns3:TrackPointExtension>
        </extensions>
      </trkpt>
      <trkpt lat="42.5150193460285663604736328125" lon="20.147445537149906158447265625">
        <ele>2169</ele>
        <time>2026-06-20T09:56:21.000Z</time>
        <extensions>
          <ns3:TrackPointExtension>
            <ns3:atemp>22.0</ns3:atemp>
          </ns3:TrackPointExtension>
        </extensions>
      </trkpt>
      <trkpt lat="42.5150193460285663604736328125" lon="20.147445537149906158447265625">
        <ele>2169</ele>
        <time>2026-06-20T09:56:22.000Z</time>
        <extensions>
          <ns3:TrackPointExtension>
            <ns3:atemp>22.0</ns3:atemp>
          </ns3:TrackPointExtension>
        </extensions>
      </trkpt>
      <trkpt lat="42.5150193460285663604736328125" lon="20.147445537149906158447265625">
        <ele>2169</ele>
        <time>2026-06-20T09:56:23.000Z</time>
        <extensions>
          <ns3:TrackPointExtension>
            <ns3:atemp>22.0</ns3:atemp>
          </ns3:TrackPointExtension>
        </extensions>
      </trkpt>
      <trkpt lat="42.5150193460285663604736328125" lon="20.147445537149906158447265625">
        <ele>2169</ele>
        <time>2026-06-20T09:56:24.000Z</time>
        <extensions>
          <ns3:TrackPointExtension>
            <ns3:atemp>22.0</ns3:atemp>
          </ns3:TrackPointExtension>
        </extensions>
      </trkpt>
      <trkpt lat="42.5150193460285663604736328125" lon="20.147445537149906158447265625">
        <ele>2169</ele>
        <time>2026-06-20T09:56:25.000Z</time>
        <extensions>
          <ns3:TrackPointExtension>
            <ns3:atemp>22.0</ns3:atemp>
          </ns3:TrackPointExtension>
        </extensions>
      </trkpt>
      <trkpt lat="42.5150193460285663604736328125" lon="20.147445537149906158447265625">
        <ele>2169</ele>
        <time>2026-06-20T09:56:26.000Z</time>
        <extensions>
          <ns3:TrackPointExtension>
            <ns3:atemp>22.0</ns3:atemp>
          </ns3:TrackPointExtension>
        </extensions>
      </trkpt>
      <trkpt lat="42.5150193460285663604736328125" lon="20.147445537149906158447265625">
        <ele>2169</ele>
        <time>2026-06-20T09:56:27.000Z</time>
        <extensions>
          <ns3:TrackPointExtension>
            <ns3:atemp>22.0</ns3:atemp>
          </ns3:TrackPointExtension>
        </extensions>
      </trkpt>
      <trkpt lat="42.5150193460285663604736328125" lon="20.147445537149906158447265625">
        <ele>2169</ele>
        <time>2026-06-20T09:56:28.000Z</time>
        <extensions>
          <ns3:TrackPointExtension>
            <ns3:atemp>22.0</ns3:atemp>
          </ns3:TrackPointExtension>
        </extensions>
      </trkpt>
      <trkpt lat="42.5150193460285663604736328125" lon="20.147445537149906158447265625">
        <ele>2169</ele>
        <time>2026-06-20T09:56:29.000Z</time>
        <extensions>
          <ns3:TrackPointExtension>
            <ns3:atemp>22.0</ns3:atemp>
          </ns3:TrackPointExtension>
        </extensions>
      </trkpt>
      <trkpt lat="42.5150193460285663604736328125" lon="20.147445537149906158447265625">
        <ele>2169</ele>
        <time>2026-06-20T09:56:30.000Z</time>
        <extensions>
          <ns3:TrackPointExtension>
            <ns3:atemp>22.0</ns3:atemp>
          </ns3:TrackPointExtension>
        </extensions>
      </trkpt>
      <trkpt lat="42.5150193460285663604736328125" lon="20.147445537149906158447265625">
        <ele>2169</ele>
        <time>2026-06-20T09:56:31.000Z</time>
        <extensions>
          <ns3:TrackPointExtension>
            <ns3:atemp>22.0</ns3:atemp>
          </ns3:TrackPointExtension>
        </extensions>
      </trkpt>
      <trkpt lat="42.5150193460285663604736328125" lon="20.147445537149906158447265625">
        <ele>2169</ele>
        <time>2026-06-20T09:56:32.000Z</time>
        <extensions>
          <ns3:TrackPointExtension>
            <ns3:atemp>22.0</ns3:atemp>
          </ns3:TrackPointExtension>
        </extensions>
      </trkpt>
      <trkpt lat="42.515017502009868621826171875" lon="20.1474457047879695892333984375">
        <ele>2169</ele>
        <time>2026-06-20T09:56:33.000Z</time>
        <extensions>
          <ns3:TrackPointExtension>
            <ns3:atemp>22.0</ns3:atemp>
          </ns3:TrackPointExtension>
        </extensions>
      </trkpt>
      <trkpt lat="42.5150178372859954833984375" lon="20.14748342335224151611328125">
        <ele>2169</ele>
        <time>2026-06-20T09:56:34.000Z</time>
        <extensions>
          <ns3:TrackPointExtension>
            <ns3:atemp>22.0</ns3:atemp>
          </ns3:TrackPointExtension>
        </extensions>
      </trkpt>
      <trkpt lat="42.5150143168866634368896484375" lon="20.1475162804126739501953125">
        <ele>2169.39990234375</ele>
        <time>2026-06-20T09:56:35.000Z</time>
        <extensions>
          <ns3:TrackPointExtension>
            <ns3:atemp>22.0</ns3:atemp>
          </ns3:TrackPointExtension>
        </extensions>
      </trkpt>
      <trkpt lat="42.5150112994015216827392578125" lon="20.14755240641534328460693359375">
        <ele>2169.199951171875</ele>
        <time>2026-06-20T09:56:36.000Z</time>
        <extensions>
          <ns3:TrackPointExtension>
            <ns3:atemp>22.0</ns3:atemp>
          </ns3:TrackPointExtension>
        </extensions>
      </trkpt>
      <trkpt lat="42.51500752754509449005126953125" lon="20.147590376436710357666015625">
        <ele>2169</ele>
        <time>2026-06-20T09:56:37.000Z</time>
        <extensions>
          <ns3:TrackPointExtension>
            <ns3:atemp>22.0</ns3:atemp>
          </ns3:TrackPointExtension>
        </extensions>
      </trkpt>
      <trkpt lat="42.51500199548900127410888671875" lon="20.1476234011352062225341796875">
        <ele>2169</ele>
        <time>2026-06-20T09:56:38.000Z</time>
        <extensions>
          <ns3:TrackPointExtension>
            <ns3:atemp>22.0</ns3:atemp>
          </ns3:TrackPointExtension>
        </extensions>
      </trkpt>
      <trkpt lat="42.51499528996646404266357421875" lon="20.1476555876433849334716796875">
        <ele>2169</ele>
        <time>2026-06-20T09:56:39.000Z</time>
        <extensions>
          <ns3:TrackPointExtension>
            <ns3:atemp>22.0</ns3:atemp>
          </ns3:TrackPointExtension>
        </extensions>
      </trkpt>
      <trkpt lat="42.5149895064532756805419921875" lon="20.1476852595806121826171875">
        <ele>2169.199951171875</ele>
        <time>2026-06-20T09:56:40.000Z</time>
        <extensions>
          <ns3:TrackPointExtension>
            <ns3:atemp>22.0</ns3:atemp>
          </ns3:TrackPointExtension>
        </extensions>
      </trkpt>
      <trkpt lat="42.5149841420352458953857421875" lon="20.14771585352718830108642578125">
        <ele>2169.39990234375</ele>
        <time>2026-06-20T09:56:41.000Z</time>
        <extensions>
          <ns3:TrackPointExtension>
            <ns3:atemp>22.0</ns3:atemp>
          </ns3:TrackPointExtension>
        </extensions>
      </trkpt>
      <trkpt lat="42.51497785560786724090576171875" lon="20.1477484591305255889892578125">
        <ele>2169.60009765625</ele>
        <time>2026-06-20T09:56:42.000Z</time>
        <extensions>
          <ns3:TrackPointExtension>
            <ns3:atemp>22.0</ns3:atemp>
          </ns3:TrackPointExtension>
        </extensions>
      </trkpt>
      <trkpt lat="42.51497064717113971710205078125" lon="20.14778424985706806182861328125">
        <ele>2169.800048828125</ele>
        <time>2026-06-20T09:56:43.000Z</time>
        <extensions>
          <ns3:TrackPointExtension>
            <ns3:atemp>22.0</ns3:atemp>
          </ns3:TrackPointExtension>
        </extensions>
      </trkpt>
      <trkpt lat="42.51496662385761737823486328125" lon="20.14781995676457881927490234375">
        <ele>2169.800048828125</ele>
        <time>2026-06-20T09:56:44.000Z</time>
        <extensions>
          <ns3:TrackPointExtension>
            <ns3:atemp>22.0</ns3:atemp>
          </ns3:TrackPointExtension>
        </extensions>
      </trkpt>
      <trkpt lat="42.51496109180152416229248046875" lon="20.1478587649762630462646484375">
        <ele>2169.800048828125</ele>
        <time>2026-06-20T09:56:45.000Z</time>
        <extensions>
          <ns3:TrackPointExtension>
            <ns3:atemp>22.0</ns3:atemp>
          </ns3:TrackPointExtension>
        </extensions>
      </trkpt>
      <trkpt lat="42.5149563141167163848876953125" lon="20.1478936336934566497802734375">
        <ele>2169.800048828125</ele>
        <time>2026-06-20T09:56:46.000Z</time>
        <extensions>
          <ns3:TrackPointExtension>
            <ns3:atemp>22.0</ns3:atemp>
          </ns3:TrackPointExtension>
        </extensions>
      </trkpt>
      <trkpt lat="42.514951117336750030517578125" lon="20.14792875386774539947509765625">
        <ele>2170</ele>
        <time>2026-06-20T09:56:47.000Z</time>
        <extensions>
          <ns3:TrackPointExtension>
            <ns3:atemp>21.0</ns3:atemp>
          </ns3:TrackPointExtension>
        </extensions>
      </trkpt>
      <trkpt lat="42.51494885422289371490478515625" lon="20.1479633711278438568115234375">
        <ele>2170.199951171875</ele>
        <time>2026-06-20T09:56:48.000Z</time>
        <extensions>
          <ns3:TrackPointExtension>
            <ns3:atemp>22.0</ns3:atemp>
          </ns3:TrackPointExtension>
        </extensions>
      </trkpt>
      <trkpt lat="42.51494566909968852996826171875" lon="20.147999413311481475830078125">
        <ele>2170.39990234375</ele>
        <time>2026-06-20T09:56:49.000Z</time>
        <extensions>
          <ns3:TrackPointExtension>
            <ns3:atemp>22.0</ns3:atemp>
          </ns3:TrackPointExtension>
        </extensions>
      </trkpt>
      <trkpt lat="42.51494131051003932952880859375" lon="20.14803252182900905609130859375">
        <ele>2170.39990234375</ele>
        <time>2026-06-20T09:56:50.000Z</time>
        <extensions>
          <ns3:TrackPointExtension>
            <ns3:atemp>22.0</ns3:atemp>
          </ns3:TrackPointExtension>
        </extensions>
      </trkpt>
      <trkpt lat="42.51493862830102443695068359375" lon="20.148063115775585174560546875">
        <ele>2170.60009765625</ele>
        <time>2026-06-20T09:56:51.000Z</time>
        <extensions>
          <ns3:TrackPointExtension>
            <ns3:atemp>21.0</ns3:atemp>
          </ns3:TrackPointExtension>
        </extensions>
      </trkpt>
      <trkpt lat="42.5149378739297389984130859375" lon="20.14809228479862213134765625">
        <ele>2170.60009765625</ele>
        <time>2026-06-20T09:56:52.000Z</time>
        <extensions>
          <ns3:TrackPointExtension>
            <ns3:atemp>22.0</ns3:atemp>
          </ns3:TrackPointExtension>
        </extensions>
      </trkpt>
      <trkpt lat="42.51494164578616619110107421875" lon="20.14812137000262737274169921875">
        <ele>2170.60009765625</ele>
        <time>2026-06-20T09:56:53.000Z</time>
        <extensions>
          <ns3:TrackPointExtension>
            <ns3:atemp>21.0</ns3:atemp>
          </ns3:TrackPointExtension>
        </extensions>
      </trkpt>
      <trkpt lat="42.51494650729000568389892578125" lon="20.14815087430179119110107421875">
        <ele>2170.60009765625</ele>
        <time>2026-06-20T09:56:54.000Z</time>
        <extensions>
          <ns3:TrackPointExtension>
            <ns3:atemp>21.0</ns3:atemp>
          </ns3:TrackPointExtension>
        </extensions>
      </trkpt>
      <trkpt lat="42.51495279371738433837890625" lon="20.14818138442933559417724609375">
        <ele>2170.39990234375</ele>
        <time>2026-06-20T09:56:55.000Z</time>
        <extensions>
          <ns3:TrackPointExtension>
            <ns3:atemp>21.0</ns3:atemp>
          </ns3:TrackPointExtension>
        </extensions>
      </trkpt>
      <trkpt lat="42.5149593316018581390380859375" lon="20.1482124812901020050048828125">
        <ele>2170.199951171875</ele>
        <time>2026-06-20T09:56:56.000Z</time>
        <extensions>
          <ns3:TrackPointExtension>
            <ns3:atemp>21.0</ns3:atemp>
          </ns3:TrackPointExtension>
        </extensions>
      </trkpt>
      <trkpt lat="42.51496612094342708587646484375" lon="20.14824961312115192413330078125">
        <ele>2170</ele>
        <time>2026-06-20T09:56:57.000Z</time>
        <extensions>
          <ns3:TrackPointExtension>
            <ns3:atemp>21.0</ns3:atemp>
          </ns3:TrackPointExtension>
        </extensions>
      </trkpt>
      <trkpt lat="42.51497500576078891754150390625" lon="20.148293785750865936279296875">
        <ele>2169.800048828125</ele>
        <time>2026-06-20T09:56:58.000Z</time>
        <extensions>
          <ns3:TrackPointExtension>
            <ns3:atemp>21.0</ns3:atemp>
          </ns3:TrackPointExtension>
        </extensions>
      </trkpt>
      <trkpt lat="42.51498590223491191864013671875" lon="20.14834198169410228729248046875">
        <ele>2169.800048828125</ele>
        <time>2026-06-20T09:56:59.000Z</time>
        <extensions>
          <ns3:TrackPointExtension>
            <ns3:atemp>21.0</ns3:atemp>
          </ns3:TrackPointExtension>
        </extensions>
      </trkpt>
      <trkpt lat="42.51499528996646404266357421875" lon="20.1483945362269878387451171875">
        <ele>2169.60009765625</ele>
        <time>2026-06-20T09:57:00.000Z</time>
        <extensions>
          <ns3:TrackPointExtension>
            <ns3:atemp>21.0</ns3:atemp>
          </ns3:TrackPointExtension>
        </extensions>
      </trkpt>
      <trkpt lat="42.51500333659350872039794921875" lon="20.148448683321475982666015625">
        <ele>2169.39990234375</ele>
        <time>2026-06-20T09:57:01.000Z</time>
        <extensions>
          <ns3:TrackPointExtension>
            <ns3:atemp>21.0</ns3:atemp>
          </ns3:TrackPointExtension>
        </extensions>
      </trkpt>
      <trkpt lat="42.51500803045928478240966796875" lon="20.1485018245875835418701171875">
        <ele>2169.199951171875</ele>
        <time>2026-06-20T09:57:02.000Z</time>
        <extensions>
          <ns3:TrackPointExtension>
            <ns3:atemp>21.0</ns3:atemp>
          </ns3:TrackPointExtension>
        </extensions>
      </trkpt>
      <trkpt lat="42.51500836573541164398193359375" lon="20.148553960025310516357421875">
        <ele>2168.800048828125</ele>
        <time>2026-06-20T09:57:03.000Z</time>
        <extensions>
          <ns3:TrackPointExtension>
            <ns3:atemp>21.0</ns3:atemp>
          </ns3:TrackPointExtension>
        </extensions>
      </trkpt>
      <trkpt lat="42.5150089524686336517333984375" lon="20.1486064307391643524169921875">
        <ele>2168.800048828125</ele>
        <time>2026-06-20T09:57:04.000Z</time>
        <extensions>
          <ns3:TrackPointExtension>
            <ns3:atemp>21.0</ns3:atemp>
          </ns3:TrackPointExtension>
        </extensions>
      </trkpt>
      <trkpt lat="42.51501121558248996734619140625" lon="20.1486594043672084808349609375">
        <ele>2168.60009765625</ele>
        <time>2026-06-20T09:57:05.000Z</time>
        <extensions>
          <ns3:TrackPointExtension>
            <ns3:atemp>21.0</ns3:atemp>
          </ns3:TrackPointExtension>
        </extensions>
      </trkpt>
      <trkpt lat="42.51501088030636310577392578125" lon="20.148703493177890777587890625">
        <ele>2168.60009765625</ele>
        <time>2026-06-20T09:57:06.000Z</time>
        <extensions>
          <ns3:TrackPointExtension>
            <ns3:atemp>21.0</ns3:atemp>
          </ns3:TrackPointExtension>
        </extensions>
      </trkpt>
      <trkpt lat="42.5150123052299022674560546875" lon="20.1487465761601924896240234375">
        <ele>2168.60009765625</ele>
        <time>2026-06-20T09:57:07.000Z</time>
        <extensions>
          <ns3:TrackPointExtension>
            <ns3:atemp>21.0</ns3:atemp>
          </ns3:TrackPointExtension>
        </extensions>
      </trkpt>
      <trkpt lat="42.51501289196312427520751953125" lon="20.148785300552845001220703125">
        <ele>2168.60009765625</ele>
        <time>2026-06-20T09:57:08.000Z</time>
        <extensions>
          <ns3:TrackPointExtension>
            <ns3:atemp>21.0</ns3:atemp>
          </ns3:TrackPointExtension>
        </extensions>
      </trkpt>
      <trkpt lat="42.515010125935077667236328125" lon="20.14882276766002178192138671875">
        <ele>2168.60009765625</ele>
        <time>2026-06-20T09:57:09.000Z</time>
        <extensions>
          <ns3:TrackPointExtension>
            <ns3:atemp>21.0</ns3:atemp>
          </ns3:TrackPointExtension>
        </extensions>
      </trkpt>
      <trkpt lat="42.51500912010669708251953125" lon="20.14885193668305873870849609375">
        <ele>2168.60009765625</ele>
        <time>2026-06-20T09:57:10.000Z</time>
        <extensions>
          <ns3:TrackPointExtension>
            <ns3:atemp>21.0</ns3:atemp>
          </ns3:TrackPointExtension>
        </extensions>
      </trkpt>
      <trkpt lat="42.5150069408118724822998046875" lon="20.14887557365000247955322265625">
        <ele>2168.60009765625</ele>
        <time>2026-06-20T09:57:11.000Z</time>
        <extensions>
          <ns3:TrackPointExtension>
            <ns3:atemp>21.0</ns3:atemp>
          </ns3:TrackPointExtension>
        </extensions>
      </trkpt>
      <trkpt lat="42.5150029174983501434326171875" lon="20.1488890685141086578369140625">
        <ele>2168.60009765625</ele>
        <time>2026-06-20T09:57:12.000Z</time>
        <extensions>
          <ns3:TrackPointExtension>
            <ns3:atemp>21.0</ns3:atemp>
          </ns3:TrackPointExtension>
        </extensions>
      </trkpt>
      <trkpt lat="42.51499973237514495849609375" lon="20.1488873921334743499755859375">
        <ele>2168.39990234375</ele>
        <time>2026-06-20T09:57:13.000Z</time>
        <extensions>
          <ns3:TrackPointExtension>
            <ns3:atemp>21.0</ns3:atemp>
          </ns3:TrackPointExtension>
        </extensions>
      </trkpt>
      <trkpt lat="42.51499973237514495849609375" lon="20.1488873921334743499755859375">
        <ele>2168.39990234375</ele>
        <time>2026-06-20T09:57:14.000Z</time>
        <extensions>
          <ns3:TrackPointExtension>
            <ns3:atemp>21.0</ns3:atemp>
          </ns3:TrackPointExtension>
        </extensions>
      </trkpt>
      <trkpt lat="42.51499973237514495849609375" lon="20.14888747595250606536865234375">
        <ele>2168.39990234375</ele>
        <time>2026-06-20T09:57:15.000Z</time>
        <extensions>
          <ns3:TrackPointExtension>
            <ns3:atemp>21.0</ns3:atemp>
          </ns3:TrackPointExtension>
        </extensions>
      </trkpt>
      <trkpt lat="42.514999397099018096923828125" lon="20.1488806866109371185302734375">
        <ele>2168.60009765625</ele>
        <time>2026-06-20T09:57:16.000Z</time>
        <extensions>
          <ns3:TrackPointExtension>
            <ns3:atemp>21.0</ns3:atemp>
          </ns3:TrackPointExtension>
        </extensions>
      </trkpt>
      <trkpt lat="42.514996044337749481201171875" lon="20.1488726399838924407958984375">
        <ele>2168.800048828125</ele>
        <time>2026-06-20T09:57:17.000Z</time>
        <extensions>
          <ns3:TrackPointExtension>
            <ns3:atemp>21.0</ns3:atemp>
          </ns3:TrackPointExtension>
        </extensions>
      </trkpt>
      <trkpt lat="42.5149942003190517425537109375" lon="20.14886668883264064788818359375">
        <ele>2169</ele>
        <time>2026-06-20T09:57:18.000Z</time>
        <extensions>
          <ns3:TrackPointExtension>
            <ns3:atemp>21.0</ns3:atemp>
          </ns3:TrackPointExtension>
        </extensions>
      </trkpt>
      <trkpt lat="42.5149955414235591888427734375" lon="20.14887004159390926361083984375">
        <ele>2169.199951171875</ele>
        <time>2026-06-20T09:57:19.000Z</time>
        <extensions>
          <ns3:TrackPointExtension>
            <ns3:atemp>21.0</ns3:atemp>
          </ns3:TrackPointExtension>
        </extensions>
      </trkpt>
      <trkpt lat="42.5149955414235591888427734375" lon="20.14887012541294097900390625">
        <ele>2169.199951171875</ele>
        <time>2026-06-20T09:57:20.000Z</time>
        <extensions>
          <ns3:TrackPointExtension>
            <ns3:atemp>21.0</ns3:atemp>
          </ns3:TrackPointExtension>
        </extensions>
      </trkpt>
      <trkpt lat="42.51499545760452747344970703125" lon="20.14887020923197269439697265625">
        <ele>2169.199951171875</ele>
        <time>2026-06-20T09:57:21.000Z</time>
        <extensions>
          <ns3:TrackPointExtension>
            <ns3:atemp>21.0</ns3:atemp>
          </ns3:TrackPointExtension>
        </extensions>
      </trkpt>
      <trkpt lat="42.5149955414235591888427734375" lon="20.1488652639091014862060546875">
        <ele>2169.199951171875</ele>
        <time>2026-06-20T09:57:22.000Z</time>
        <extensions>
          <ns3:TrackPointExtension>
            <ns3:atemp>21.0</ns3:atemp>
          </ns3:TrackPointExtension>
        </extensions>
      </trkpt>
      <trkpt lat="42.5149962119758129119873046875" lon="20.14885528944432735443115234375">
        <ele>2169.199951171875</ele>
        <time>2026-06-20T09:57:23.000Z</time>
        <extensions>
          <ns3:TrackPointExtension>
            <ns3:atemp>21.0</ns3:atemp>
          </ns3:TrackPointExtension>
        </extensions>
      </trkpt>
      <trkpt lat="42.5149985589087009429931640625" lon="20.14884866774082183837890625">
        <ele>2169</ele>
        <time>2026-06-20T09:57:24.000Z</time>
        <extensions>
          <ns3:TrackPointExtension>
            <ns3:atemp>21.0</ns3:atemp>
          </ns3:TrackPointExtension>
        </extensions>
      </trkpt>
      <trkpt lat="42.51499914564192295074462890625" lon="20.1488414593040943145751953125">
        <ele>2169</ele>
        <time>2026-06-20T09:57:25.000Z</time>
        <extensions>
          <ns3:TrackPointExtension>
            <ns3:atemp>21.0</ns3:atemp>
          </ns3:TrackPointExtension>
        </extensions>
      </trkpt>
      <trkpt lat="42.51500015147030353546142578125" lon="20.14883500523865222930908203125">
        <ele>2169</ele>
        <time>2026-06-20T09:57:26.000Z</time>
        <extensions>
          <ns3:TrackPointExtension>
            <ns3:atemp>21.0</ns3:atemp>
          </ns3:TrackPointExtension>
        </extensions>
      </trkpt>
      <trkpt lat="42.51500031910836696624755859375" lon="20.14883131720125675201416015625">
        <ele>2168.800048828125</ele>
        <time>2026-06-20T09:57:27.000Z</time>
        <extensions>
          <ns3:TrackPointExtension>
            <ns3:atemp>21.0</ns3:atemp>
          </ns3:TrackPointExtension>
        </extensions>
      </trkpt>
      <trkpt lat="42.51499981619417667388916015625" lon="20.14882561750710010528564453125">
        <ele>2168.800048828125</ele>
        <time>2026-06-20T09:57:28.000Z</time>
        <extensions>
          <ns3:TrackPointExtension>
            <ns3:atemp>21.0</ns3:atemp>
          </ns3:TrackPointExtension>
        </extensions>
      </trkpt>
      <trkpt lat="42.51499705016613006591796875" lon="20.14882729388773441314697265625">
        <ele>2168.60009765625</ele>
        <time>2026-06-20T09:57:29.000Z</time>
        <extensions>
          <ns3:TrackPointExtension>
            <ns3:atemp>21.0</ns3:atemp>
          </ns3:TrackPointExtension>
        </extensions>
      </trkpt>
      <trkpt lat="42.51499612815678119659423828125" lon="20.1488243602216243743896484375">
        <ele>2168.60009765625</ele>
        <time>2026-06-20T09:57:30.000Z</time>
        <extensions>
          <ns3:TrackPointExtension>
            <ns3:atemp>21.0</ns3:atemp>
          </ns3:TrackPointExtension>
        </extensions>
      </trkpt>
      <trkpt lat="42.51499612815678119659423828125" lon="20.14882427640259265899658203125">
        <ele>2168.60009765625</ele>
        <time>2026-06-20T09:57:31.000Z</time>
        <extensions>
          <ns3:TrackPointExtension>
            <ns3:atemp>21.0</ns3:atemp>
          </ns3:TrackPointExtension>
        </extensions>
      </trkpt>
      <trkpt lat="42.51499612815678119659423828125" lon="20.14882427640259265899658203125">
        <ele>2168.60009765625</ele>
        <time>2026-06-20T09:57:32.000Z</time>
        <extensions>
          <ns3:TrackPointExtension>
            <ns3:atemp>21.0</ns3:atemp>
          </ns3:TrackPointExtension>
        </extensions>
      </trkpt>
      <trkpt lat="42.51499612815678119659423828125" lon="20.14882427640259265899658203125">
        <ele>2168.39990234375</ele>
        <time>2026-06-20T09:57:33.000Z</time>
        <extensions>
          <ns3:TrackPointExtension>
            <ns3:atemp>21.0</ns3:atemp>
          </ns3:TrackPointExtension>
        </extensions>
      </trkpt>
      <trkpt lat="42.51499612815678119659423828125" lon="20.14882427640259265899658203125">
        <ele>2168.39990234375</ele>
        <time>2026-06-20T09:57:34.000Z</time>
        <extensions>
          <ns3:TrackPointExtension>
            <ns3:atemp>21.0</ns3:atemp>
          </ns3:TrackPointExtension>
        </extensions>
      </trkpt>
      <trkpt lat="42.51499612815678119659423828125" lon="20.14882427640259265899658203125">
        <ele>2168.39990234375</ele>
        <time>2026-06-20T09:57:35.000Z</time>
        <extensions>
          <ns3:TrackPointExtension>
            <ns3:atemp>21.0</ns3:atemp>
          </ns3:TrackPointExtension>
        </extensions>
      </trkpt>
      <trkpt lat="42.51499612815678119659423828125" lon="20.14882427640259265899658203125">
        <ele>2168.39990234375</ele>
        <time>2026-06-20T09:57:36.000Z</time>
        <extensions>
          <ns3:TrackPointExtension>
            <ns3:atemp>21.0</ns3:atemp>
          </ns3:TrackPointExtension>
        </extensions>
      </trkpt>
      <trkpt lat="42.51499646343290805816650390625" lon="20.148823522031307220458984375">
        <ele>2168.39990234375</ele>
        <time>2026-06-20T09:57:37.000Z</time>
        <extensions>
          <ns3:TrackPointExtension>
            <ns3:atemp>21.0</ns3:atemp>
          </ns3:TrackPointExtension>
        </extensions>
      </trkpt>
      <trkpt lat="42.51499839127063751220703125" lon="20.14880315400660037994384765625">
        <ele>2168.60009765625</ele>
        <time>2026-06-20T09:57:38.000Z</time>
        <extensions>
          <ns3:TrackPointExtension>
            <ns3:atemp>21.0</ns3:atemp>
          </ns3:TrackPointExtension>
        </extensions>
      </trkpt>
      <trkpt lat="42.51499780453741550445556640625" lon="20.14878706075251102447509765625">
        <ele>2168.60009765625</ele>
        <time>2026-06-20T09:57:39.000Z</time>
        <extensions>
          <ns3:TrackPointExtension>
            <ns3:atemp>21.0</ns3:atemp>
          </ns3:TrackPointExtension>
        </extensions>
      </trkpt>
      <trkpt lat="42.514998055994510650634765625" lon="20.14877515845000743865966796875">
        <ele>2168.60009765625</ele>
        <time>2026-06-20T09:57:40.000Z</time>
        <extensions>
          <ns3:TrackPointExtension>
            <ns3:atemp>21.0</ns3:atemp>
          </ns3:TrackPointExtension>
        </extensions>
      </trkpt>
      <trkpt lat="42.515001408755779266357421875" lon="20.14876409433782100677490234375">
        <ele>2168.800048828125</ele>
        <time>2026-06-20T09:57:41.000Z</time>
        <extensions>
          <ns3:TrackPointExtension>
            <ns3:atemp>21.0</ns3:atemp>
          </ns3:TrackPointExtension>
        </extensions>
      </trkpt>
      <trkpt lat="42.51500199548900127410888671875" lon="20.1487438939511775970458984375">
        <ele>2168.800048828125</ele>
        <time>2026-06-20T09:57:42.000Z</time>
        <extensions>
          <ns3:TrackPointExtension>
            <ns3:atemp>21.0</ns3:atemp>
          </ns3:TrackPointExtension>
        </extensions>
      </trkpt>
      <trkpt lat="42.51500434242188930511474609375" lon="20.14872000552713871002197265625">
        <ele>2168.800048828125</ele>
        <time>2026-06-20T09:57:43.000Z</time>
        <extensions>
          <ns3:TrackPointExtension>
            <ns3:atemp>21.0</ns3:atemp>
          </ns3:TrackPointExtension>
        </extensions>
      </trkpt>
      <trkpt lat="42.51500568352639675140380859375" lon="20.14869854785501956939697265625">
        <ele>2168.800048828125</ele>
        <time>2026-06-20T09:57:44.000Z</time>
        <extensions>
          <ns3:TrackPointExtension>
            <ns3:atemp>21.0</ns3:atemp>
          </ns3:TrackPointExtension>
        </extensions>
      </trkpt>
      <trkpt lat="42.51500803045928478240966796875" lon="20.14867222867906093597412109375">
        <ele>2168.800048828125</ele>
        <time>2026-06-20T09:57:45.000Z</time>
        <extensions>
          <ns3:TrackPointExtension>
            <ns3:atemp>21.0</ns3:atemp>
          </ns3:TrackPointExtension>
        </extensions>
      </trkpt>
      <trkpt lat="42.51500668935477733612060546875" lon="20.14864222146570682525634765625">
        <ele>2168.800048828125</ele>
        <time>2026-06-20T09:57:46.000Z</time>
        <extensions>
          <ns3:TrackPointExtension>
            <ns3:atemp>21.0</ns3:atemp>
          </ns3:TrackPointExtension>
        </extensions>
      </trkpt>
      <trkpt lat="42.51500752754509449005126953125" lon="20.14861556701362133026123046875">
        <ele>2168.800048828125</ele>
        <time>2026-06-20T09:57:47.000Z</time>
        <extensions>
          <ns3:TrackPointExtension>
            <ns3:atemp>21.0</ns3:atemp>
          </ns3:TrackPointExtension>
        </extensions>
      </trkpt>
      <trkpt lat="42.51500819809734821319580078125" lon="20.14858706854283809661865234375">
        <ele>2168.800048828125</ele>
        <time>2026-06-20T09:57:48.000Z</time>
        <extensions>
          <ns3:TrackPointExtension>
            <ns3:atemp>21.0</ns3:atemp>
          </ns3:TrackPointExtension>
        </extensions>
      </trkpt>
      <trkpt lat="42.51500786282122135162353515625" lon="20.14855840243399143218994140625">
        <ele>2168.60009765625</ele>
        <time>2026-06-20T09:57:49.000Z</time>
        <extensions>
          <ns3:TrackPointExtension>
            <ns3:atemp>21.0</ns3:atemp>
          </ns3:TrackPointExtension>
        </extensions>
      </trkpt>
      <trkpt lat="42.51500752754509449005126953125" lon="20.1485326699912548065185546875">
        <ele>2168.60009765625</ele>
        <time>2026-06-20T09:57:50.000Z</time>
        <extensions>
          <ns3:TrackPointExtension>
            <ns3:atemp>21.0</ns3:atemp>
          </ns3:TrackPointExtension>
        </extensions>
      </trkpt>
      <trkpt lat="42.51500618644058704376220703125" lon="20.14850266277790069580078125">
        <ele>2168.800048828125</ele>
        <time>2026-06-20T09:57:51.000Z</time>
        <extensions>
          <ns3:TrackPointExtension>
            <ns3:atemp>21.0</ns3:atemp>
          </ns3:TrackPointExtension>
        </extensions>
      </trkpt>
      <trkpt lat="42.515004090964794158935546875" lon="20.1484763436019420623779296875">
        <ele>2168.800048828125</ele>
        <time>2026-06-20T09:57:52.000Z</time>
        <extensions>
          <ns3:TrackPointExtension>
            <ns3:atemp>21.0</ns3:atemp>
          </ns3:TrackPointExtension>
        </extensions>
      </trkpt>
      <trkpt lat="42.5150025822222232818603515625" lon="20.148447342216968536376953125">
        <ele>2168.800048828125</ele>
        <time>2026-06-20T09:57:53.000Z</time>
        <extensions>
          <ns3:TrackPointExtension>
            <ns3:atemp>21.0</ns3:atemp>
          </ns3:TrackPointExtension>
        </extensions>
      </trkpt>
      <trkpt lat="42.5149992294609546661376953125" lon="20.14842160977423191070556640625">
        <ele>2169</ele>
        <time>2026-06-20T09:57:54.000Z</time>
        <extensions>
          <ns3:TrackPointExtension>
            <ns3:atemp>21.0</ns3:atemp>
          </ns3:TrackPointExtension>
        </extensions>
      </trkpt>
      <trkpt lat="42.5149955414235591888427734375" lon="20.1483972184360027313232421875">
        <ele>2169.199951171875</ele>
        <time>2026-06-20T09:57:55.000Z</time>
        <extensions>
          <ns3:TrackPointExtension>
            <ns3:atemp>21.0</ns3:atemp>
          </ns3:TrackPointExtension>
        </extensions>
      </trkpt>
      <trkpt lat="42.51499093137681484222412109375" lon="20.1483693905174732208251953125">
        <ele>2169.199951171875</ele>
        <time>2026-06-20T09:57:56.000Z</time>
        <extensions>
          <ns3:TrackPointExtension>
            <ns3:atemp>21.0</ns3:atemp>
          </ns3:TrackPointExtension>
        </extensions>
      </trkpt>
      <trkpt lat="42.51498623751103878021240234375" lon="20.148342065513134002685546875">
        <ele>2169.39990234375</ele>
        <time>2026-06-20T09:57:57.000Z</time>
        <extensions>
          <ns3:TrackPointExtension>
            <ns3:atemp>21.0</ns3:atemp>
          </ns3:TrackPointExtension>
        </extensions>
      </trkpt>
      <trkpt lat="42.5149801187217235565185546875" lon="20.1483154110610485076904296875">
        <ele>2169.60009765625</ele>
        <time>2026-06-20T09:57:58.000Z</time>
        <extensions>
          <ns3:TrackPointExtension>
            <ns3:atemp>21.0</ns3:atemp>
          </ns3:TrackPointExtension>
        </extensions>
      </trkpt>
      <trkpt lat="42.514975927770137786865234375" lon="20.14829252846539020538330078125">
        <ele>2169.60009765625</ele>
        <time>2026-06-20T09:57:59.000Z</time>
        <extensions>
          <ns3:TrackPointExtension>
            <ns3:atemp>21.0</ns3:atemp>
          </ns3:TrackPointExtension>
        </extensions>
      </trkpt>
      <trkpt lat="42.51497131772339344024658203125" lon="20.14827207662165164947509765625">
        <ele>2169.800048828125</ele>
        <time>2026-06-20T09:58:00.000Z</time>
        <extensions>
          <ns3:TrackPointExtension>
            <ns3:atemp>21.0</ns3:atemp>
          </ns3:TrackPointExtension>
        </extensions>
      </trkpt>
      <trkpt lat="42.51496620476245880126953125" lon="20.14824709855020046234130859375">
        <ele>2169.800048828125</ele>
        <time>2026-06-20T09:58:01.000Z</time>
        <extensions>
          <ns3:TrackPointExtension>
            <ns3:atemp>21.0</ns3:atemp>
          </ns3:TrackPointExtension>
        </extensions>
      </trkpt>
      <trkpt lat="42.5149620138108730316162109375" lon="20.1482228748500347137451171875">
        <ele>2170</ele>
        <time>2026-06-20T09:58:02.000Z</time>
        <extensions>
          <ns3:TrackPointExtension>
            <ns3:atemp>21.0</ns3:atemp>
          </ns3:TrackPointExtension>
        </extensions>
      </trkpt>
      <trkpt lat="42.5149559788405895233154296875" lon="20.1481943763792514801025390625">
        <ele>2170</ele>
        <time>2026-06-20T09:58:03.000Z</time>
        <extensions>
          <ns3:TrackPointExtension>
            <ns3:atemp>21.0</ns3:atemp>
          </ns3:TrackPointExtension>
        </extensions>
      </trkpt>
      <trkpt lat="42.51495036296546459197998046875" lon="20.1481642015278339385986328125">
        <ele>2170.199951171875</ele>
        <time>2026-06-20T09:58:04.000Z</time>
        <extensions>
          <ns3:TrackPointExtension>
            <ns3:atemp>21.0</ns3:atemp>
          </ns3:TrackPointExtension>
        </extensions>
      </trkpt>
      <trkpt lat="42.5149445794522762298583984375" lon="20.1481363736093044281005859375">
        <ele>2170.39990234375</ele>
        <time>2026-06-20T09:58:05.000Z</time>
        <extensions>
          <ns3:TrackPointExtension>
            <ns3:atemp>21.0</ns3:atemp>
          </ns3:TrackPointExtension>
        </extensions>
      </trkpt>
      <trkpt lat="42.51494013704359531402587890625" lon="20.1481072045862674713134765625">
        <ele>2170.60009765625</ele>
        <time>2026-06-20T09:58:06.000Z</time>
        <extensions>
          <ns3:TrackPointExtension>
            <ns3:atemp>21.0</ns3:atemp>
          </ns3:TrackPointExtension>
        </extensions>
      </trkpt>
      <trkpt lat="42.51493443734943866729736328125" lon="20.148078538477420806884765625">
        <ele>2170.60009765625</ele>
        <time>2026-06-20T09:58:07.000Z</time>
        <extensions>
          <ns3:TrackPointExtension>
            <ns3:atemp>21.0</ns3:atemp>
          </ns3:TrackPointExtension>
        </extensions>
      </trkpt>
      <trkpt lat="42.51492865383625030517578125" lon="20.14806001447141170501708984375">
        <ele>2170.800048828125</ele>
        <time>2026-06-20T09:58:08.000Z</time>
        <extensions>
          <ns3:TrackPointExtension>
            <ns3:atemp>21.0</ns3:atemp>
          </ns3:TrackPointExtension>
        </extensions>
      </trkpt>
      <trkpt lat="42.51492597162723541259765625" lon="20.14804962091147899627685546875">
        <ele>2170.800048828125</ele>
        <time>2026-06-20T09:58:09.000Z</time>
        <extensions>
          <ns3:TrackPointExtension>
            <ns3:atemp>21.0</ns3:atemp>
          </ns3:TrackPointExtension>
        </extensions>
      </trkpt>
      <trkpt lat="42.51492337323725223541259765625" lon="20.1480512134730815887451171875">
        <ele>2170.800048828125</ele>
        <time>2026-06-20T09:58:10.000Z</time>
        <extensions>
          <ns3:TrackPointExtension>
            <ns3:atemp>21.0</ns3:atemp>
          </ns3:TrackPointExtension>
        </extensions>
      </trkpt>
      <trkpt lat="42.51492337323725223541259765625" lon="20.1480512134730815887451171875">
        <ele>2171</ele>
        <time>2026-06-20T09:58:11.000Z</time>
        <extensions>
          <ns3:TrackPointExtension>
            <ns3:atemp>21.0</ns3:atemp>
          </ns3:TrackPointExtension>
        </extensions>
      </trkpt>
      <trkpt lat="42.51492337323725223541259765625" lon="20.1480512134730815887451171875">
        <ele>2171</ele>
        <time>2026-06-20T09:58:12.000Z</time>
        <extensions>
          <ns3:TrackPointExtension>
            <ns3:atemp>21.0</ns3:atemp>
          </ns3:TrackPointExtension>
        </extensions>
      </trkpt>
      <trkpt lat="42.51492337323725223541259765625" lon="20.1480512134730815887451171875">
        <ele>2171.199951171875</ele>
        <time>2026-06-20T09:58:13.000Z</time>
        <extensions>
          <ns3:TrackPointExtension>
            <ns3:atemp>21.0</ns3:atemp>
          </ns3:TrackPointExtension>
        </extensions>
      </trkpt>
      <trkpt lat="42.51492337323725223541259765625" lon="20.1480512134730815887451171875">
        <ele>2171.39990234375</ele>
        <time>2026-06-20T09:58:14.000Z</time>
        <extensions>
          <ns3:TrackPointExtension>
            <ns3:atemp>21.0</ns3:atemp>
          </ns3:TrackPointExtension>
        </extensions>
      </trkpt>
      <trkpt lat="42.51492337323725223541259765625" lon="20.1480512134730815887451171875">
        <ele>2171.39990234375</ele>
        <time>2026-06-20T09:58:15.000Z</time>
        <extensions>
          <ns3:TrackPointExtension>
            <ns3:atemp>21.0</ns3:atemp>
          </ns3:TrackPointExtension>
        </extensions>
      </trkpt>
      <trkpt lat="42.51492337323725223541259765625" lon="20.1480512134730815887451171875">
        <ele>2171.60009765625</ele>
        <time>2026-06-20T09:58:16.000Z</time>
        <extensions>
          <ns3:TrackPointExtension>
            <ns3:atemp>21.0</ns3:atemp>
          </ns3:TrackPointExtension>
        </extensions>
      </trkpt>
      <trkpt lat="42.51492337323725223541259765625" lon="20.1480512134730815887451171875">
        <ele>2171.39990234375</ele>
        <time>2026-06-20T09:58:17.000Z</time>
        <extensions>
          <ns3:TrackPointExtension>
            <ns3:atemp>21.0</ns3:atemp>
          </ns3:TrackPointExtension>
        </extensions>
      </trkpt>
      <trkpt lat="42.51492337323725223541259765625" lon="20.1480512134730815887451171875">
        <ele>2171.199951171875</ele>
        <time>2026-06-20T09:58:18.000Z</time>
        <extensions>
          <ns3:TrackPointExtension>
            <ns3:atemp>21.0</ns3:atemp>
          </ns3:TrackPointExtension>
        </extensions>
      </trkpt>
      <trkpt lat="42.51492337323725223541259765625" lon="20.1480512134730815887451171875">
        <ele>2170.800048828125</ele>
        <time>2026-06-20T09:58:19.000Z</time>
        <extensions>
          <ns3:TrackPointExtension>
            <ns3:atemp>21.0</ns3:atemp>
          </ns3:TrackPointExtension>
        </extensions>
      </trkpt>
      <trkpt lat="42.51492337323725223541259765625" lon="20.1480512134730815887451171875">
        <ele>2170.60009765625</ele>
        <time>2026-06-20T09:58:20.000Z</time>
        <extensions>
          <ns3:TrackPointExtension>
            <ns3:atemp>21.0</ns3:atemp>
          </ns3:TrackPointExtension>
        </extensions>
      </trkpt>
      <trkpt lat="42.51492337323725223541259765625" lon="20.1480512134730815887451171875">
        <ele>2170.199951171875</ele>
        <time>2026-06-20T09:58:21.000Z</time>
        <extensions>
          <ns3:TrackPointExtension>
            <ns3:atemp>21.0</ns3:atemp>
          </ns3:TrackPointExtension>
        </extensions>
      </trkpt>
      <trkpt lat="42.51492337323725223541259765625" lon="20.1480512134730815887451171875">
        <ele>2170</ele>
        <time>2026-06-20T09:58:22.000Z</time>
        <extensions>
          <ns3:TrackPointExtension>
            <ns3:atemp>21.0</ns3:atemp>
          </ns3:TrackPointExtension>
        </extensions>
      </trkpt>
      <trkpt lat="42.51492337323725223541259765625" lon="20.1480512134730815887451171875">
        <ele>2170</ele>
        <time>2026-06-20T09:58:23.000Z</time>
        <extensions>
          <ns3:TrackPointExtension>
            <ns3:atemp>21.0</ns3:atemp>
          </ns3:TrackPointExtension>
        </extensions>
      </trkpt>
      <trkpt lat="42.51492337323725223541259765625" lon="20.1480512134730815887451171875">
        <ele>2170</ele>
        <time>2026-06-20T09:58:24.000Z</time>
        <extensions>
          <ns3:TrackPointExtension>
            <ns3:atemp>21.0</ns3:atemp>
          </ns3:TrackPointExtension>
        </extensions>
      </trkpt>
      <trkpt lat="42.51492337323725223541259765625" lon="20.1480512134730815887451171875">
        <ele>2169.800048828125</ele>
        <time>2026-06-20T09:58:25.000Z</time>
        <extensions>
          <ns3:TrackPointExtension>
            <ns3:atemp>21.0</ns3:atemp>
          </ns3:TrackPointExtension>
        </extensions>
      </trkpt>
      <trkpt lat="42.51492337323725223541259765625" lon="20.1480512134730815887451171875">
        <ele>2169.800048828125</ele>
        <time>2026-06-20T09:58:26.000Z</time>
        <extensions>
          <ns3:TrackPointExtension>
            <ns3:atemp>21.0</ns3:atemp>
          </ns3:TrackPointExtension>
        </extensions>
      </trkpt>
      <trkpt lat="42.51492337323725223541259765625" lon="20.1480512134730815887451171875">
        <ele>2169.800048828125</ele>
        <time>2026-06-20T09:58:27.000Z</time>
        <extensions>
          <ns3:TrackPointExtension>
            <ns3:atemp>21.0</ns3:atemp>
          </ns3:TrackPointExtension>
        </extensions>
      </trkpt>
      <trkpt lat="42.51492337323725223541259765625" lon="20.1480512134730815887451171875">
        <ele>2169.800048828125</ele>
        <time>2026-06-20T09:58:28.000Z</time>
        <extensions>
          <ns3:TrackPointExtension>
            <ns3:atemp>21.0</ns3:atemp>
          </ns3:TrackPointExtension>
        </extensions>
      </trkpt>
      <trkpt lat="42.51492337323725223541259765625" lon="20.1480512134730815887451171875">
        <ele>2169.800048828125</ele>
        <time>2026-06-20T09:58:29.000Z</time>
        <extensions>
          <ns3:TrackPointExtension>
            <ns3:atemp>21.0</ns3:atemp>
          </ns3:TrackPointExtension>
        </extensions>
      </trkpt>
      <trkpt lat="42.51492337323725223541259765625" lon="20.1480512134730815887451171875">
        <ele>2169.800048828125</ele>
        <time>2026-06-20T09:58:30.000Z</time>
        <extensions>
          <ns3:TrackPointExtension>
            <ns3:atemp>21.0</ns3:atemp>
          </ns3:TrackPointExtension>
        </extensions>
      </trkpt>
      <trkpt lat="42.51492337323725223541259765625" lon="20.1480512134730815887451171875">
        <ele>2169.60009765625</ele>
        <time>2026-06-20T09:58:31.000Z</time>
        <extensions>
          <ns3:TrackPointExtension>
            <ns3:atemp>21.0</ns3:atemp>
          </ns3:TrackPointExtension>
        </extensions>
      </trkpt>
      <trkpt lat="42.51492337323725223541259765625" lon="20.1480512134730815887451171875">
        <ele>2169.60009765625</ele>
        <time>2026-06-20T09:58:32.000Z</time>
        <extensions>
          <ns3:TrackPointExtension>
            <ns3:atemp>21.0</ns3:atemp>
          </ns3:TrackPointExtension>
        </extensions>
      </trkpt>
      <trkpt lat="42.51492337323725223541259765625" lon="20.1480512134730815887451171875">
        <ele>2169.39990234375</ele>
        <time>2026-06-20T09:58:33.000Z</time>
        <extensions>
          <ns3:TrackPointExtension>
            <ns3:atemp>21.0</ns3:atemp>
          </ns3:TrackPointExtension>
        </extensions>
      </trkpt>
      <trkpt lat="42.51492337323725223541259765625" lon="20.1480512134730815887451171875">
        <ele>2169.39990234375</ele>
        <time>2026-06-20T09:58:34.000Z</time>
        <extensions>
          <ns3:TrackPointExtension>
            <ns3:atemp>21.0</ns3:atemp>
          </ns3:TrackPointExtension>
        </extensions>
      </trkpt>
      <trkpt lat="42.51492337323725223541259765625" lon="20.1480512134730815887451171875">
        <ele>2169.39990234375</ele>
        <time>2026-06-20T09:58:35.000Z</time>
        <extensions>
          <ns3:TrackPointExtension>
            <ns3:atemp>21.0</ns3:atemp>
          </ns3:TrackPointExtension>
        </extensions>
      </trkpt>
      <trkpt lat="42.51492337323725223541259765625" lon="20.1480512134730815887451171875">
        <ele>2169.39990234375</ele>
        <time>2026-06-20T09:58:36.000Z</time>
        <extensions>
          <ns3:TrackPointExtension>
            <ns3:atemp>21.0</ns3:atemp>
          </ns3:TrackPointExtension>
        </extensions>
      </trkpt>
      <trkpt lat="42.51492337323725223541259765625" lon="20.1480512134730815887451171875">
        <ele>2169.39990234375</ele>
        <time>2026-06-20T09:58:37.000Z</time>
        <extensions>
          <ns3:TrackPointExtension>
            <ns3:atemp>21.0</ns3:atemp>
          </ns3:TrackPointExtension>
        </extensions>
      </trkpt>
      <trkpt lat="42.51492337323725223541259765625" lon="20.1480512134730815887451171875">
        <ele>2169.199951171875</ele>
        <time>2026-06-20T09:58:38.000Z</time>
        <extensions>
          <ns3:TrackPointExtension>
            <ns3:atemp>21.0</ns3:atemp>
          </ns3:TrackPointExtension>
        </extensions>
      </trkpt>
      <trkpt lat="42.51492337323725223541259765625" lon="20.1480512134730815887451171875">
        <ele>2169.199951171875</ele>
        <time>2026-06-20T09:58:39.000Z</time>
        <extensions>
          <ns3:TrackPointExtension>
            <ns3:atemp>21.0</ns3:atemp>
          </ns3:TrackPointExtension>
        </extensions>
      </trkpt>
      <trkpt lat="42.51492337323725223541259765625" lon="20.1480512134730815887451171875">
        <ele>2169.199951171875</ele>
        <time>2026-06-20T09:58:40.000Z</time>
        <extensions>
          <ns3:TrackPointExtension>
            <ns3:atemp>21.0</ns3:atemp>
          </ns3:TrackPointExtension>
        </extensions>
      </trkpt>
      <trkpt lat="42.51492337323725223541259765625" lon="20.1480512134730815887451171875">
        <ele>2169</ele>
        <time>2026-06-20T09:58:41.000Z</time>
        <extensions>
          <ns3:TrackPointExtension>
            <ns3:atemp>21.0</ns3:atemp>
          </ns3:TrackPointExtension>
        </extensions>
      </trkpt>
      <trkpt lat="42.51492337323725223541259765625" lon="20.1480512134730815887451171875">
        <ele>2169</ele>
        <time>2026-06-20T09:58:42.000Z</time>
        <extensions>
          <ns3:TrackPointExtension>
            <ns3:atemp>21.0</ns3:atemp>
          </ns3:TrackPointExtension>
        </extensions>
      </trkpt>
      <trkpt lat="42.51492337323725223541259765625" lon="20.1480512134730815887451171875">
        <ele>2169</ele>
        <time>2026-06-20T09:58:43.000Z</time>
        <extensions>
          <ns3:TrackPointExtension>
            <ns3:atemp>21.0</ns3:atemp>
          </ns3:TrackPointExtension>
        </extensions>
      </trkpt>
      <trkpt lat="42.51492337323725223541259765625" lon="20.1480512134730815887451171875">
        <ele>2169</ele>
        <time>2026-06-20T09:58:44.000Z</time>
        <extensions>
          <ns3:TrackPointExtension>
            <ns3:atemp>21.0</ns3:atemp>
          </ns3:TrackPointExtension>
        </extensions>
      </trkpt>
      <trkpt lat="42.51492337323725223541259765625" lon="20.1480512134730815887451171875">
        <ele>2169</ele>
        <time>2026-06-20T09:58:45.000Z</time>
        <extensions>
          <ns3:TrackPointExtension>
            <ns3:atemp>21.0</ns3:atemp>
          </ns3:TrackPointExtension>
        </extensions>
      </trkpt>
      <trkpt lat="42.51492337323725223541259765625" lon="20.1480512134730815887451171875">
        <ele>2169</ele>
        <time>2026-06-20T09:58:46.000Z</time>
        <extensions>
          <ns3:TrackPointExtension>
            <ns3:atemp>21.0</ns3:atemp>
          </ns3:TrackPointExtension>
        </extensions>
      </trkpt>
      <trkpt lat="42.51492337323725223541259765625" lon="20.1480512134730815887451171875">
        <ele>2169</ele>
        <time>2026-06-20T09:58:47.000Z</time>
        <extensions>
          <ns3:TrackPointExtension>
            <ns3:atemp>21.0</ns3:atemp>
          </ns3:TrackPointExtension>
        </extensions>
      </trkpt>
      <trkpt lat="42.51492337323725223541259765625" lon="20.1480512134730815887451171875">
        <ele>2169</ele>
        <time>2026-06-20T09:58:48.000Z</time>
        <extensions>
          <ns3:TrackPointExtension>
            <ns3:atemp>21.0</ns3:atemp>
          </ns3:TrackPointExtension>
        </extensions>
      </trkpt>
      <trkpt lat="42.51492337323725223541259765625" lon="20.1480512134730815887451171875">
        <ele>2169</ele>
        <time>2026-06-20T09:58:49.000Z</time>
        <extensions>
          <ns3:TrackPointExtension>
            <ns3:atemp>21.0</ns3:atemp>
          </ns3:TrackPointExtension>
        </extensions>
      </trkpt>
      <trkpt lat="42.51492337323725223541259765625" lon="20.1480512134730815887451171875">
        <ele>2169</ele>
        <time>2026-06-20T09:58:50.000Z</time>
        <extensions>
          <ns3:TrackPointExtension>
            <ns3:atemp>21.0</ns3:atemp>
          </ns3:TrackPointExtension>
        </extensions>
      </trkpt>
      <trkpt lat="42.51492337323725223541259765625" lon="20.1480512134730815887451171875">
        <ele>2169</ele>
        <time>2026-06-20T09:58:51.000Z</time>
        <extensions>
          <ns3:TrackPointExtension>
            <ns3:atemp>21.0</ns3:atemp>
          </ns3:TrackPointExtension>
        </extensions>
      </trkpt>
      <trkpt lat="42.51492337323725223541259765625" lon="20.1480512134730815887451171875">
        <ele>2169</ele>
        <time>2026-06-20T09:58:52.000Z</time>
        <extensions>
          <ns3:TrackPointExtension>
            <ns3:atemp>21.0</ns3:atemp>
          </ns3:TrackPointExtension>
        </extensions>
      </trkpt>
      <trkpt lat="42.51492337323725223541259765625" lon="20.1480512134730815887451171875">
        <ele>2168.800048828125</ele>
        <time>2026-06-20T09:58:53.000Z</time>
        <extensions>
          <ns3:TrackPointExtension>
            <ns3:atemp>21.0</ns3:atemp>
          </ns3:TrackPointExtension>
        </extensions>
      </trkpt>
      <trkpt lat="42.51492337323725223541259765625" lon="20.1480512134730815887451171875">
        <ele>2168.800048828125</ele>
        <time>2026-06-20T09:58:54.000Z</time>
        <extensions>
          <ns3:TrackPointExtension>
            <ns3:atemp>21.0</ns3:atemp>
          </ns3:TrackPointExtension>
        </extensions>
      </trkpt>
      <trkpt lat="42.51492337323725223541259765625" lon="20.1480512134730815887451171875">
        <ele>2168.800048828125</ele>
        <time>2026-06-20T09:58:55.000Z</time>
        <extensions>
          <ns3:TrackPointExtension>
            <ns3:atemp>21.0</ns3:atemp>
          </ns3:TrackPointExtension>
        </extensions>
      </trkpt>
      <trkpt lat="42.51492337323725223541259765625" lon="20.1480512134730815887451171875">
        <ele>2168.800048828125</ele>
        <time>2026-06-20T09:58:56.000Z</time>
        <extensions>
          <ns3:TrackPointExtension>
            <ns3:atemp>21.0</ns3:atemp>
          </ns3:TrackPointExtension>
        </extensions>
      </trkpt>
      <trkpt lat="42.51492337323725223541259765625" lon="20.1480512134730815887451171875">
        <ele>2168.800048828125</ele>
        <time>2026-06-20T09:58:57.000Z</time>
        <extensions>
          <ns3:TrackPointExtension>
            <ns3:atemp>21.0</ns3:atemp>
          </ns3:TrackPointExtension>
        </extensions>
      </trkpt>
      <trkpt lat="42.51492337323725223541259765625" lon="20.1480512134730815887451171875">
        <ele>2168.800048828125</ele>
        <time>2026-06-20T09:58:58.000Z</time>
        <extensions>
          <ns3:TrackPointExtension>
            <ns3:atemp>21.0</ns3:atemp>
          </ns3:TrackPointExtension>
        </extensions>
      </trkpt>
      <trkpt lat="42.51492337323725223541259765625" lon="20.1480512134730815887451171875">
        <ele>2168.800048828125</ele>
        <time>2026-06-20T09:58:59.000Z</time>
        <extensions>
          <ns3:TrackPointExtension>
            <ns3:atemp>21.0</ns3:atemp>
          </ns3:TrackPointExtension>
        </extensions>
      </trkpt>
      <trkpt lat="42.51492337323725223541259765625" lon="20.1480512134730815887451171875">
        <ele>2168.800048828125</ele>
        <time>2026-06-20T09:59:00.000Z</time>
        <extensions>
          <ns3:TrackPointExtension>
            <ns3:atemp>21.0</ns3:atemp>
          </ns3:TrackPointExtension>
        </extensions>
      </trkpt>
      <trkpt lat="42.51492337323725223541259765625" lon="20.1480512134730815887451171875">
        <ele>2168.800048828125</ele>
        <time>2026-06-20T09:59:01.000Z</time>
        <extensions>
          <ns3:TrackPointExtension>
            <ns3:atemp>21.0</ns3:atemp>
          </ns3:TrackPointExtension>
        </extensions>
      </trkpt>
      <trkpt lat="42.51492337323725223541259765625" lon="20.1480512134730815887451171875">
        <ele>2168.800048828125</ele>
        <time>2026-06-20T09:59:02.000Z</time>
        <extensions>
          <ns3:TrackPointExtension>
            <ns3:atemp>21.0</ns3:atemp>
          </ns3:TrackPointExtension>
        </extensions>
      </trkpt>
      <trkpt lat="42.51492337323725223541259765625" lon="20.1480512134730815887451171875">
        <ele>2168.800048828125</ele>
        <time>2026-06-20T09:59:03.000Z</time>
        <extensions>
          <ns3:TrackPointExtension>
            <ns3:atemp>21.0</ns3:atemp>
          </ns3:TrackPointExtension>
        </extensions>
      </trkpt>
      <trkpt lat="42.51492337323725223541259765625" lon="20.1480512134730815887451171875">
        <ele>2168.60009765625</ele>
        <time>2026-06-20T09:59:04.000Z</time>
        <extensions>
          <ns3:TrackPointExtension>
            <ns3:atemp>21.0</ns3:atemp>
          </ns3:TrackPointExtension>
        </extensions>
      </trkpt>
      <trkpt lat="42.51492337323725223541259765625" lon="20.1480512134730815887451171875">
        <ele>2168.60009765625</ele>
        <time>2026-06-20T09:59:05.000Z</time>
        <extensions>
          <ns3:TrackPointExtension>
            <ns3:atemp>21.0</ns3:atemp>
          </ns3:TrackPointExtension>
        </extensions>
      </trkpt>
      <trkpt lat="42.51492337323725223541259765625" lon="20.1480512134730815887451171875">
        <ele>2168.60009765625</ele>
        <time>2026-06-20T09:59:06.000Z</time>
        <extensions>
          <ns3:TrackPointExtension>
            <ns3:atemp>21.0</ns3:atemp>
          </ns3:TrackPointExtension>
        </extensions>
      </trkpt>
      <trkpt lat="42.51492337323725223541259765625" lon="20.1480512134730815887451171875">
        <ele>2168.60009765625</ele>
        <time>2026-06-20T09:59:07.000Z</time>
        <extensions>
          <ns3:TrackPointExtension>
            <ns3:atemp>21.0</ns3:atemp>
          </ns3:TrackPointExtension>
        </extensions>
      </trkpt>
      <trkpt lat="42.51492337323725223541259765625" lon="20.1480512134730815887451171875">
        <ele>2168.60009765625</ele>
        <time>2026-06-20T09:59:08.000Z</time>
        <extensions>
          <ns3:TrackPointExtension>
            <ns3:atemp>21.0</ns3:atemp>
          </ns3:TrackPointExtension>
        </extensions>
      </trkpt>
      <trkpt lat="42.51492337323725223541259765625" lon="20.1480512134730815887451171875">
        <ele>2168.60009765625</ele>
        <time>2026-06-20T09:59:09.000Z</time>
        <extensions>
          <ns3:TrackPointExtension>
            <ns3:atemp>21.0</ns3:atemp>
          </ns3:TrackPointExtension>
        </extensions>
      </trkpt>
      <trkpt lat="42.51492337323725223541259765625" lon="20.1480512134730815887451171875">
        <ele>2168.60009765625</ele>
        <time>2026-06-20T09:59:10.000Z</time>
        <extensions>
          <ns3:TrackPointExtension>
            <ns3:atemp>21.0</ns3:atemp>
          </ns3:TrackPointExtension>
        </extensions>
      </trkpt>
      <trkpt lat="42.51492337323725223541259765625" lon="20.1480512134730815887451171875">
        <ele>2168.60009765625</ele>
        <time>2026-06-20T09:59:11.000Z</time>
        <extensions>
          <ns3:TrackPointExtension>
            <ns3:atemp>21.0</ns3:atemp>
          </ns3:TrackPointExtension>
        </extensions>
      </trkpt>
      <trkpt lat="42.51492337323725223541259765625" lon="20.1480512134730815887451171875">
        <ele>2168.60009765625</ele>
        <time>2026-06-20T09:59:12.000Z</time>
        <extensions>
          <ns3:TrackPointExtension>
            <ns3:atemp>21.0</ns3:atemp>
          </ns3:TrackPointExtension>
        </extensions>
      </trkpt>
      <trkpt lat="42.51492337323725223541259765625" lon="20.1480512134730815887451171875">
        <ele>2168.800048828125</ele>
        <time>2026-06-20T09:59:13.000Z</time>
        <extensions>
          <ns3:TrackPointExtension>
            <ns3:atemp>21.0</ns3:atemp>
          </ns3:TrackPointExtension>
        </extensions>
      </trkpt>
      <trkpt lat="42.51492337323725223541259765625" lon="20.1480512134730815887451171875">
        <ele>2168.800048828125</ele>
        <time>2026-06-20T09:59:14.000Z</time>
        <extensions>
          <ns3:TrackPointExtension>
            <ns3:atemp>21.0</ns3:atemp>
          </ns3:TrackPointExtension>
        </extensions>
      </trkpt>
      <trkpt lat="42.51492337323725223541259765625" lon="20.1480512134730815887451171875">
        <ele>2169</ele>
        <time>2026-06-20T09:59:15.000Z</time>
        <extensions>
          <ns3:TrackPointExtension>
            <ns3:atemp>21.0</ns3:atemp>
          </ns3:TrackPointExtension>
        </extensions>
      </trkpt>
      <trkpt lat="42.51492337323725223541259765625" lon="20.1480512134730815887451171875">
        <ele>2169</ele>
        <time>2026-06-20T09:59:16.000Z</time>
        <extensions>
          <ns3:TrackPointExtension>
            <ns3:atemp>21.0</ns3:atemp>
          </ns3:TrackPointExtension>
        </extensions>
      </trkpt>
      <trkpt lat="42.51492337323725223541259765625" lon="20.1480512134730815887451171875">
        <ele>2169.199951171875</ele>
        <time>2026-06-20T09:59:17.000Z</time>
        <extensions>
          <ns3:TrackPointExtension>
            <ns3:atemp>21.0</ns3:atemp>
          </ns3:TrackPointExtension>
        </extensions>
      </trkpt>
      <trkpt lat="42.51492337323725223541259765625" lon="20.1480512134730815887451171875">
        <ele>2169.199951171875</ele>
        <time>2026-06-20T09:59:18.000Z</time>
        <extensions>
          <ns3:TrackPointExtension>
            <ns3:atemp>21.0</ns3:atemp>
          </ns3:TrackPointExtension>
        </extensions>
      </trkpt>
      <trkpt lat="42.51492337323725223541259765625" lon="20.1480512134730815887451171875">
        <ele>2169.199951171875</ele>
        <time>2026-06-20T09:59:19.000Z</time>
        <extensions>
          <ns3:TrackPointExtension>
            <ns3:atemp>21.0</ns3:atemp>
          </ns3:TrackPointExtension>
        </extensions>
      </trkpt>
      <trkpt lat="42.51492337323725223541259765625" lon="20.1480512134730815887451171875">
        <ele>2169.199951171875</ele>
        <time>2026-06-20T09:59:20.000Z</time>
        <extensions>
          <ns3:TrackPointExtension>
            <ns3:atemp>21.0</ns3:atemp>
          </ns3:TrackPointExtension>
        </extensions>
      </trkpt>
      <trkpt lat="42.51492337323725223541259765625" lon="20.1480512134730815887451171875">
        <ele>2169.199951171875</ele>
        <time>2026-06-20T09:59:21.000Z</time>
        <extensions>
          <ns3:TrackPointExtension>
            <ns3:atemp>21.0</ns3:atemp>
          </ns3:TrackPointExtension>
        </extensions>
      </trkpt>
      <trkpt lat="42.51492337323725223541259765625" lon="20.1480512134730815887451171875">
        <ele>2169.199951171875</ele>
        <time>2026-06-20T09:59:22.000Z</time>
        <extensions>
          <ns3:TrackPointExtension>
            <ns3:atemp>21.0</ns3:atemp>
          </ns3:TrackPointExtension>
        </extensions>
      </trkpt>
      <trkpt lat="42.51492337323725223541259765625" lon="20.1480512134730815887451171875">
        <ele>2169.199951171875</ele>
        <time>2026-06-20T09:59:23.000Z</time>
        <extensions>
          <ns3:TrackPointExtension>
            <ns3:atemp>21.0</ns3:atemp>
          </ns3:TrackPointExtension>
        </extensions>
      </trkpt>
      <trkpt lat="42.51492337323725223541259765625" lon="20.1480512134730815887451171875">
        <ele>2169.199951171875</ele>
        <time>2026-06-20T09:59:24.000Z</time>
        <extensions>
          <ns3:TrackPointExtension>
            <ns3:atemp>21.0</ns3:atemp>
          </ns3:TrackPointExtension>
        </extensions>
      </trkpt>
      <trkpt lat="42.51492337323725223541259765625" lon="20.1480512134730815887451171875">
        <ele>2169.199951171875</ele>
        <time>2026-06-20T09:59:25.000Z</time>
        <extensions>
          <ns3:TrackPointExtension>
            <ns3:atemp>21.0</ns3:atemp>
          </ns3:TrackPointExtension>
        </extensions>
      </trkpt>
      <trkpt lat="42.51492337323725223541259765625" lon="20.1480512134730815887451171875">
        <ele>2169.199951171875</ele>
        <time>2026-06-20T09:59:26.000Z</time>
        <extensions>
          <ns3:TrackPointExtension>
            <ns3:atemp>21.0</ns3:atemp>
          </ns3:TrackPointExtension>
        </extensions>
      </trkpt>
      <trkpt lat="42.51492337323725223541259765625" lon="20.1480512134730815887451171875">
        <ele>2169.199951171875</ele>
        <time>2026-06-20T09:59:27.000Z</time>
        <extensions>
          <ns3:TrackPointExtension>
            <ns3:atemp>21.0</ns3:atemp>
          </ns3:TrackPointExtension>
        </extensions>
      </trkpt>
      <trkpt lat="42.51492337323725223541259765625" lon="20.1480512134730815887451171875">
        <ele>2169.199951171875</ele>
        <time>2026-06-20T09:59:28.000Z</time>
        <extensions>
          <ns3:TrackPointExtension>
            <ns3:atemp>21.0</ns3:atemp>
          </ns3:TrackPointExtension>
        </extensions>
      </trkpt>
      <trkpt lat="42.51492337323725223541259765625" lon="20.1480512134730815887451171875">
        <ele>2169.199951171875</ele>
        <time>2026-06-20T09:59:29.000Z</time>
        <extensions>
          <ns3:TrackPointExtension>
            <ns3:atemp>21.0</ns3:atemp>
          </ns3:TrackPointExtension>
        </extensions>
      </trkpt>
      <trkpt lat="42.51492337323725223541259765625" lon="20.1480512134730815887451171875">
        <ele>2169.199951171875</ele>
        <time>2026-06-20T09:59:30.000Z</time>
        <extensions>
          <ns3:TrackPointExtension>
            <ns3:atemp>21.0</ns3:atemp>
          </ns3:TrackPointExtension>
        </extensions>
      </trkpt>
      <trkpt lat="42.51492337323725223541259765625" lon="20.1480512134730815887451171875">
        <ele>2169.199951171875</ele>
        <time>2026-06-20T09:59:31.000Z</time>
        <extensions>
          <ns3:TrackPointExtension>
            <ns3:atemp>21.0</ns3:atemp>
          </ns3:TrackPointExtension>
        </extensions>
      </trkpt>
      <trkpt lat="42.51492337323725223541259765625" lon="20.1480512134730815887451171875">
        <ele>2169.199951171875</ele>
        <time>2026-06-20T09:59:32.000Z</time>
        <extensions>
          <ns3:TrackPointExtension>
            <ns3:atemp>21.0</ns3:atemp>
          </ns3:TrackPointExtension>
        </extensions>
      </trkpt>
      <trkpt lat="42.51492337323725223541259765625" lon="20.1480512134730815887451171875">
        <ele>2169</ele>
        <time>2026-06-20T09:59:33.000Z</time>
        <extensions>
          <ns3:TrackPointExtension>
            <ns3:atemp>21.0</ns3:atemp>
          </ns3:TrackPointExtension>
        </extensions>
      </trkpt>
      <trkpt lat="42.51492337323725223541259765625" lon="20.1480512134730815887451171875">
        <ele>2169</ele>
        <time>2026-06-20T09:59:34.000Z</time>
        <extensions>
          <ns3:TrackPointExtension>
            <ns3:atemp>21.0</ns3:atemp>
          </ns3:TrackPointExtension>
        </extensions>
      </trkpt>
      <trkpt lat="42.51492337323725223541259765625" lon="20.1480512134730815887451171875">
        <ele>2169</ele>
        <time>2026-06-20T09:59:35.000Z</time>
        <extensions>
          <ns3:TrackPointExtension>
            <ns3:atemp>22.0</ns3:atemp>
          </ns3:TrackPointExtension>
        </extensions>
      </trkpt>
      <trkpt lat="42.51492337323725223541259765625" lon="20.1480512134730815887451171875">
        <ele>2169</ele>
        <time>2026-06-20T09:59:36.000Z</time>
        <extensions>
          <ns3:TrackPointExtension>
            <ns3:atemp>22.0</ns3:atemp>
          </ns3:TrackPointExtension>
        </extensions>
      </trkpt>
      <trkpt lat="42.51492337323725223541259765625" lon="20.1480512134730815887451171875">
        <ele>2169</ele>
        <time>2026-06-20T09:59:37.000Z</time>
        <extensions>
          <ns3:TrackPointExtension>
            <ns3:atemp>22.0</ns3:atemp>
          </ns3:TrackPointExtension>
        </extensions>
      </trkpt>
      <trkpt lat="42.51492337323725223541259765625" lon="20.1480512134730815887451171875">
        <ele>2168.800048828125</ele>
        <time>2026-06-20T09:59:38.000Z</time>
        <extensions>
          <ns3:TrackPointExtension>
            <ns3:atemp>22.0</ns3:atemp>
          </ns3:TrackPointExtension>
        </extensions>
      </trkpt>
      <trkpt lat="42.51492337323725223541259765625" lon="20.1480512134730815887451171875">
        <ele>2168.800048828125</ele>
        <time>2026-06-20T09:59:39.000Z</time>
        <extensions>
          <ns3:TrackPointExtension>
            <ns3:atemp>22.0</ns3:atemp>
          </ns3:TrackPointExtension>
        </extensions>
      </trkpt>
      <trkpt lat="42.51492337323725223541259765625" lon="20.1480512134730815887451171875">
        <ele>2168.800048828125</ele>
        <time>2026-06-20T09:59:40.000Z</time>
        <extensions>
          <ns3:TrackPointExtension>
            <ns3:atemp>22.0</ns3:atemp>
          </ns3:TrackPointExtension>
        </extensions>
      </trkpt>
      <trkpt lat="42.51492337323725223541259765625" lon="20.1480512134730815887451171875">
        <ele>2168.60009765625</ele>
        <time>2026-06-20T09:59:41.000Z</time>
        <extensions>
          <ns3:TrackPointExtension>
            <ns3:atemp>22.0</ns3:atemp>
          </ns3:TrackPointExtension>
        </extensions>
      </trkpt>
      <trkpt lat="42.51492337323725223541259765625" lon="20.1480512134730815887451171875">
        <ele>2168.60009765625</ele>
        <time>2026-06-20T09:59:42.000Z</time>
        <extensions>
          <ns3:TrackPointExtension>
            <ns3:atemp>22.0</ns3:atemp>
          </ns3:TrackPointExtension>
        </extensions>
      </trkpt>
      <trkpt lat="42.51492337323725223541259765625" lon="20.1480512134730815887451171875">
        <ele>2168.60009765625</ele>
        <time>2026-06-20T09:59:43.000Z</time>
        <extensions>
          <ns3:TrackPointExtension>
            <ns3:atemp>22.0</ns3:atemp>
          </ns3:TrackPointExtension>
        </extensions>
      </trkpt>
      <trkpt lat="42.51492337323725223541259765625" lon="20.1480512134730815887451171875">
        <ele>2168.60009765625</ele>
        <time>2026-06-20T09:59:44.000Z</time>
        <extensions>
          <ns3:TrackPointExtension>
            <ns3:atemp>22.0</ns3:atemp>
          </ns3:TrackPointExtension>
        </extensions>
      </trkpt>
      <trkpt lat="42.51492337323725223541259765625" lon="20.1480512134730815887451171875">
        <ele>2168.60009765625</ele>
        <time>2026-06-20T09:59:45.000Z</time>
        <extensions>
          <ns3:TrackPointExtension>
            <ns3:atemp>22.0</ns3:atemp>
          </ns3:TrackPointExtension>
        </extensions>
      </trkpt>
      <trkpt lat="42.51492337323725223541259765625" lon="20.1480512134730815887451171875">
        <ele>2168.60009765625</ele>
        <time>2026-06-20T09:59:46.000Z</time>
        <extensions>
          <ns3:TrackPointExtension>
            <ns3:atemp>22.0</ns3:atemp>
          </ns3:TrackPointExtension>
        </extensions>
      </trkpt>
      <trkpt lat="42.51492337323725223541259765625" lon="20.1480512134730815887451171875">
        <ele>2168.60009765625</ele>
        <time>2026-06-20T09:59:47.000Z</time>
        <extensions>
          <ns3:TrackPointExtension>
            <ns3:atemp>22.0</ns3:atemp>
          </ns3:TrackPointExtension>
        </extensions>
      </trkpt>
      <trkpt lat="42.51492337323725223541259765625" lon="20.1480512134730815887451171875">
        <ele>2168.60009765625</ele>
        <time>2026-06-20T09:59:48.000Z</time>
        <extensions>
          <ns3:TrackPointExtension>
            <ns3:atemp>22.0</ns3:atemp>
          </ns3:TrackPointExtension>
        </extensions>
      </trkpt>
      <trkpt lat="42.51492337323725223541259765625" lon="20.1480512134730815887451171875">
        <ele>2168.60009765625</ele>
        <time>2026-06-20T09:59:49.000Z</time>
        <extensions>
          <ns3:TrackPointExtension>
            <ns3:atemp>22.0</ns3:atemp>
          </ns3:TrackPointExtension>
        </extensions>
      </trkpt>
      <trkpt lat="42.51492337323725223541259765625" lon="20.1480512134730815887451171875">
        <ele>2168.60009765625</ele>
        <time>2026-06-20T09:59:50.000Z</time>
        <extensions>
          <ns3:TrackPointExtension>
            <ns3:atemp>22.0</ns3:atemp>
          </ns3:TrackPointExtension>
        </extensions>
      </trkpt>
      <trkpt lat="42.51492337323725223541259765625" lon="20.1480512134730815887451171875">
        <ele>2168.60009765625</ele>
        <time>2026-06-20T09:59:51.000Z</time>
        <extensions>
          <ns3:TrackPointExtension>
            <ns3:atemp>22.0</ns3:atemp>
          </ns3:TrackPointExtension>
        </extensions>
      </trkpt>
      <trkpt lat="42.51492337323725223541259765625" lon="20.1480512134730815887451171875">
        <ele>2168.60009765625</ele>
        <time>2026-06-20T09:59:52.000Z</time>
        <extensions>
          <ns3:TrackPointExtension>
            <ns3:atemp>22.0</ns3:atemp>
          </ns3:TrackPointExtension>
        </extensions>
      </trkpt>
      <trkpt lat="42.51492337323725223541259765625" lon="20.1480512134730815887451171875">
        <ele>2168.800048828125</ele>
        <time>2026-06-20T09:59:53.000Z</time>
        <extensions>
          <ns3:TrackPointExtension>
            <ns3:atemp>22.0</ns3:atemp>
          </ns3:TrackPointExtension>
        </extensions>
      </trkpt>
      <trkpt lat="42.51492337323725223541259765625" lon="20.1480512134730815887451171875">
        <ele>2168.800048828125</ele>
        <time>2026-06-20T09:59:54.000Z</time>
        <extensions>
          <ns3:TrackPointExtension>
            <ns3:atemp>22.0</ns3:atemp>
          </ns3:TrackPointExtension>
        </extensions>
      </trkpt>
      <trkpt lat="42.51492337323725223541259765625" lon="20.1480512134730815887451171875">
        <ele>2168.800048828125</ele>
        <time>2026-06-20T09:59:55.000Z</time>
        <extensions>
          <ns3:TrackPointExtension>
            <ns3:atemp>22.0</ns3:atemp>
          </ns3:TrackPointExtension>
        </extensions>
      </trkpt>
      <trkpt lat="42.51492337323725223541259765625" lon="20.1480512134730815887451171875">
        <ele>2168.800048828125</ele>
        <time>2026-06-20T09:59:56.000Z</time>
        <extensions>
          <ns3:TrackPointExtension>
            <ns3:atemp>22.0</ns3:atemp>
          </ns3:TrackPointExtension>
        </extensions>
      </trkpt>
      <trkpt lat="42.51492337323725223541259765625" lon="20.1480512134730815887451171875">
        <ele>2168.800048828125</ele>
        <time>2026-06-20T09:59:57.000Z</time>
        <extensions>
          <ns3:TrackPointExtension>
            <ns3:atemp>22.0</ns3:atemp>
          </ns3:TrackPointExtension>
        </extensions>
      </trkpt>
      <trkpt lat="42.51492337323725223541259765625" lon="20.1480512134730815887451171875">
        <ele>2169</ele>
        <time>2026-06-20T09:59:58.000Z</time>
        <extensions>
          <ns3:TrackPointExtension>
            <ns3:atemp>22.0</ns3:atemp>
          </ns3:TrackPointExtension>
        </extensions>
      </trkpt>
      <trkpt lat="42.51492337323725223541259765625" lon="20.1480512134730815887451171875">
        <ele>2169</ele>
        <time>2026-06-20T09:59:59.000Z</time>
        <extensions>
          <ns3:TrackPointExtension>
            <ns3:atemp>22.0</ns3:atemp>
          </ns3:TrackPointExtension>
        </extensions>
      </trkpt>
      <trkpt lat="42.51492337323725223541259765625" lon="20.1480512134730815887451171875">
        <ele>2169</ele>
        <time>2026-06-20T10:00:00.000Z</time>
        <extensions>
          <ns3:TrackPointExtension>
            <ns3:atemp>22.0</ns3:atemp>
          </ns3:TrackPointExtension>
        </extensions>
      </trkpt>
      <trkpt lat="42.51492337323725223541259765625" lon="20.1480512134730815887451171875">
        <ele>2169</ele>
        <time>2026-06-20T10:00:01.000Z</time>
        <extensions>
          <ns3:TrackPointExtension>
            <ns3:atemp>22.0</ns3:atemp>
          </ns3:TrackPointExtension>
        </extensions>
      </trkpt>
      <trkpt lat="42.51492337323725223541259765625" lon="20.1480512134730815887451171875">
        <ele>2169</ele>
        <time>2026-06-20T10:00:02.000Z</time>
        <extensions>
          <ns3:TrackPointExtension>
            <ns3:atemp>22.0</ns3:atemp>
          </ns3:TrackPointExtension>
        </extensions>
      </trkpt>
      <trkpt lat="42.51492337323725223541259765625" lon="20.1480512134730815887451171875">
        <ele>2169</ele>
        <time>2026-06-20T10:00:03.000Z</time>
        <extensions>
          <ns3:TrackPointExtension>
            <ns3:atemp>22.0</ns3:atemp>
          </ns3:TrackPointExtension>
        </extensions>
      </trkpt>
      <trkpt lat="42.51492337323725223541259765625" lon="20.1480512134730815887451171875">
        <ele>2169</ele>
        <time>2026-06-20T10:00:04.000Z</time>
        <extensions>
          <ns3:TrackPointExtension>
            <ns3:atemp>22.0</ns3:atemp>
          </ns3:TrackPointExtension>
        </extensions>
      </trkpt>
      <trkpt lat="42.51492337323725223541259765625" lon="20.1480512134730815887451171875">
        <ele>2168.800048828125</ele>
        <time>2026-06-20T10:00:05.000Z</time>
        <extensions>
          <ns3:TrackPointExtension>
            <ns3:atemp>22.0</ns3:atemp>
          </ns3:TrackPointExtension>
        </extensions>
      </trkpt>
      <trkpt lat="42.51492337323725223541259765625" lon="20.1480512134730815887451171875">
        <ele>2168.800048828125</ele>
        <time>2026-06-20T10:00:06.000Z</time>
        <extensions>
          <ns3:TrackPointExtension>
            <ns3:atemp>22.0</ns3:atemp>
          </ns3:TrackPointExtension>
        </extensions>
      </trkpt>
      <trkpt lat="42.51492337323725223541259765625" lon="20.1480512134730815887451171875">
        <ele>2168.800048828125</ele>
        <time>2026-06-20T10:00:07.000Z</time>
        <extensions>
          <ns3:TrackPointExtension>
            <ns3:atemp>22.0</ns3:atemp>
          </ns3:TrackPointExtension>
        </extensions>
      </trkpt>
      <trkpt lat="42.51492337323725223541259765625" lon="20.1480512134730815887451171875">
        <ele>2168.800048828125</ele>
        <time>2026-06-20T10:00:08.000Z</time>
        <extensions>
          <ns3:TrackPointExtension>
            <ns3:atemp>22.0</ns3:atemp>
          </ns3:TrackPointExtension>
        </extensions>
      </trkpt>
      <trkpt lat="42.51492337323725223541259765625" lon="20.1480512134730815887451171875">
        <ele>2168.800048828125</ele>
        <time>2026-06-20T10:00:09.000Z</time>
        <extensions>
          <ns3:TrackPointExtension>
            <ns3:atemp>22.0</ns3:atemp>
          </ns3:TrackPointExtension>
        </extensions>
      </trkpt>
      <trkpt lat="42.51492337323725223541259765625" lon="20.1480512134730815887451171875">
        <ele>2168.800048828125</ele>
        <time>2026-06-20T10:00:10.000Z</time>
        <extensions>
          <ns3:TrackPointExtension>
            <ns3:atemp>22.0</ns3:atemp>
          </ns3:TrackPointExtension>
        </extensions>
      </trkpt>
      <trkpt lat="42.51492337323725223541259765625" lon="20.1480512134730815887451171875">
        <ele>2168.800048828125</ele>
        <time>2026-06-20T10:00:11.000Z</time>
        <extensions>
          <ns3:TrackPointExtension>
            <ns3:atemp>22.0</ns3:atemp>
          </ns3:TrackPointExtension>
        </extensions>
      </trkpt>
      <trkpt lat="42.51492337323725223541259765625" lon="20.1480512134730815887451171875">
        <ele>2168.800048828125</ele>
        <time>2026-06-20T10:00:12.000Z</time>
        <extensions>
          <ns3:TrackPointExtension>
            <ns3:atemp>22.0</ns3:atemp>
          </ns3:TrackPointExtension>
        </extensions>
      </trkpt>
      <trkpt lat="42.51492337323725223541259765625" lon="20.1480512134730815887451171875">
        <ele>2168.800048828125</ele>
        <time>2026-06-20T10:00:13.000Z</time>
        <extensions>
          <ns3:TrackPointExtension>
            <ns3:atemp>22.0</ns3:atemp>
          </ns3:TrackPointExtension>
        </extensions>
      </trkpt>
      <trkpt lat="42.51492337323725223541259765625" lon="20.1480512134730815887451171875">
        <ele>2169</ele>
        <time>2026-06-20T10:00:14.000Z</time>
        <extensions>
          <ns3:TrackPointExtension>
            <ns3:atemp>22.0</ns3:atemp>
          </ns3:TrackPointExtension>
        </extensions>
      </trkpt>
      <trkpt lat="42.51492337323725223541259765625" lon="20.1480512134730815887451171875">
        <ele>2168.800048828125</ele>
        <time>2026-06-20T10:00:15.000Z</time>
        <extensions>
          <ns3:TrackPointExtension>
            <ns3:atemp>22.0</ns3:atemp>
          </ns3:TrackPointExtension>
        </extensions>
      </trkpt>
      <trkpt lat="42.51492337323725223541259765625" lon="20.1480512134730815887451171875">
        <ele>2168.800048828125</ele>
        <time>2026-06-20T10:00:16.000Z</time>
        <extensions>
          <ns3:TrackPointExtension>
            <ns3:atemp>22.0</ns3:atemp>
          </ns3:TrackPointExtension>
        </extensions>
      </trkpt>
      <trkpt lat="42.51492337323725223541259765625" lon="20.1480512134730815887451171875">
        <ele>2168.800048828125</ele>
        <time>2026-06-20T10:00:17.000Z</time>
        <extensions>
          <ns3:TrackPointExtension>
            <ns3:atemp>22.0</ns3:atemp>
          </ns3:TrackPointExtension>
        </extensions>
      </trkpt>
      <trkpt lat="42.51492337323725223541259765625" lon="20.1480512134730815887451171875">
        <ele>2168.800048828125</ele>
        <time>2026-06-20T10:00:18.000Z</time>
        <extensions>
          <ns3:TrackPointExtension>
            <ns3:atemp>22.0</ns3:atemp>
          </ns3:TrackPointExtension>
        </extensions>
      </trkpt>
      <trkpt lat="42.51492337323725223541259765625" lon="20.1480512134730815887451171875">
        <ele>2168.800048828125</ele>
        <time>2026-06-20T10:00:19.000Z</time>
        <extensions>
          <ns3:TrackPointExtension>
            <ns3:atemp>22.0</ns3:atemp>
          </ns3:TrackPointExtension>
        </extensions>
      </trkpt>
      <trkpt lat="42.51492337323725223541259765625" lon="20.1480512134730815887451171875">
        <ele>2168.800048828125</ele>
        <time>2026-06-20T10:00:20.000Z</time>
        <extensions>
          <ns3:TrackPointExtension>
            <ns3:atemp>22.0</ns3:atemp>
          </ns3:TrackPointExtension>
        </extensions>
      </trkpt>
      <trkpt lat="42.51492337323725223541259765625" lon="20.1480512134730815887451171875">
        <ele>2168.800048828125</ele>
        <time>2026-06-20T10:00:21.000Z</time>
        <extensions>
          <ns3:TrackPointExtension>
            <ns3:atemp>22.0</ns3:atemp>
          </ns3:TrackPointExtension>
        </extensions>
      </trkpt>
      <trkpt lat="42.51492337323725223541259765625" lon="20.1480512134730815887451171875">
        <ele>2168.800048828125</ele>
        <time>2026-06-20T10:00:22.000Z</time>
        <extensions>
          <ns3:TrackPointExtension>
            <ns3:atemp>22.0</ns3:atemp>
          </ns3:TrackPointExtension>
        </extensions>
      </trkpt>
      <trkpt lat="42.51492337323725223541259765625" lon="20.1480512134730815887451171875">
        <ele>2168.800048828125</ele>
        <time>2026-06-20T10:00:23.000Z</time>
        <extensions>
          <ns3:TrackPointExtension>
            <ns3:atemp>22.0</ns3:atemp>
          </ns3:TrackPointExtension>
        </extensions>
      </trkpt>
      <trkpt lat="42.51492337323725223541259765625" lon="20.1480512134730815887451171875">
        <ele>2168.800048828125</ele>
        <time>2026-06-20T10:00:24.000Z</time>
        <extensions>
          <ns3:TrackPointExtension>
            <ns3:atemp>22.0</ns3:atemp>
          </ns3:TrackPointExtension>
        </extensions>
      </trkpt>
      <trkpt lat="42.51492337323725223541259765625" lon="20.1480512134730815887451171875">
        <ele>2168.800048828125</ele>
        <time>2026-06-20T10:00:25.000Z</time>
        <extensions>
          <ns3:TrackPointExtension>
            <ns3:atemp>22.0</ns3:atemp>
          </ns3:TrackPointExtension>
        </extensions>
      </trkpt>
      <trkpt lat="42.51492337323725223541259765625" lon="20.1480512134730815887451171875">
        <ele>2168.800048828125</ele>
        <time>2026-06-20T10:00:26.000Z</time>
        <extensions>
          <ns3:TrackPointExtension>
            <ns3:atemp>22.0</ns3:atemp>
          </ns3:TrackPointExtension>
        </extensions>
      </trkpt>
      <trkpt lat="42.51492337323725223541259765625" lon="20.1480512134730815887451171875">
        <ele>2168.800048828125</ele>
        <time>2026-06-20T10:00:27.000Z</time>
        <extensions>
          <ns3:TrackPointExtension>
            <ns3:atemp>22.0</ns3:atemp>
          </ns3:TrackPointExtension>
        </extensions>
      </trkpt>
      <trkpt lat="42.51492337323725223541259765625" lon="20.1480512134730815887451171875">
        <ele>2168.800048828125</ele>
        <time>2026-06-20T10:00:28.000Z</time>
        <extensions>
          <ns3:TrackPointExtension>
            <ns3:atemp>22.0</ns3:atemp>
          </ns3:TrackPointExtension>
        </extensions>
      </trkpt>
      <trkpt lat="42.51492337323725223541259765625" lon="20.1480512134730815887451171875">
        <ele>2168.800048828125</ele>
        <time>2026-06-20T10:00:29.000Z</time>
        <extensions>
          <ns3:TrackPointExtension>
            <ns3:atemp>22.0</ns3:atemp>
          </ns3:TrackPointExtension>
        </extensions>
      </trkpt>
      <trkpt lat="42.51492337323725223541259765625" lon="20.1480512134730815887451171875">
        <ele>2168.800048828125</ele>
        <time>2026-06-20T10:00:30.000Z</time>
        <extensions>
          <ns3:TrackPointExtension>
            <ns3:atemp>22.0</ns3:atemp>
          </ns3:TrackPointExtension>
        </extensions>
      </trkpt>
      <trkpt lat="42.51492337323725223541259765625" lon="20.1480512134730815887451171875">
        <ele>2168.800048828125</ele>
        <time>2026-06-20T10:00:31.000Z</time>
        <extensions>
          <ns3:TrackPointExtension>
            <ns3:atemp>22.0</ns3:atemp>
          </ns3:TrackPointExtension>
        </extensions>
      </trkpt>
      <trkpt lat="42.51492337323725223541259765625" lon="20.1480512134730815887451171875">
        <ele>2168.800048828125</ele>
        <time>2026-06-20T10:00:32.000Z</time>
        <extensions>
          <ns3:TrackPointExtension>
            <ns3:atemp>22.0</ns3:atemp>
          </ns3:TrackPointExtension>
        </extensions>
      </trkpt>
      <trkpt lat="42.51492337323725223541259765625" lon="20.1480512134730815887451171875">
        <ele>2168.800048828125</ele>
        <time>2026-06-20T10:00:33.000Z</time>
        <extensions>
          <ns3:TrackPointExtension>
            <ns3:atemp>22.0</ns3:atemp>
          </ns3:TrackPointExtension>
        </extensions>
      </trkpt>
      <trkpt lat="42.51492337323725223541259765625" lon="20.1480512134730815887451171875">
        <ele>2168.800048828125</ele>
        <time>2026-06-20T10:00:34.000Z</time>
        <extensions>
          <ns3:TrackPointExtension>
            <ns3:atemp>22.0</ns3:atemp>
          </ns3:TrackPointExtension>
        </extensions>
      </trkpt>
      <trkpt lat="42.51492337323725223541259765625" lon="20.1480512134730815887451171875">
        <ele>2168.800048828125</ele>
        <time>2026-06-20T10:00:35.000Z</time>
        <extensions>
          <ns3:TrackPointExtension>
            <ns3:atemp>22.0</ns3:atemp>
          </ns3:TrackPointExtension>
        </extensions>
      </trkpt>
      <trkpt lat="42.51492337323725223541259765625" lon="20.1480512134730815887451171875">
        <ele>2168.800048828125</ele>
        <time>2026-06-20T10:00:36.000Z</time>
        <extensions>
          <ns3:TrackPointExtension>
            <ns3:atemp>22.0</ns3:atemp>
          </ns3:TrackPointExtension>
        </extensions>
      </trkpt>
      <trkpt lat="42.51492337323725223541259765625" lon="20.1480512134730815887451171875">
        <ele>2168.800048828125</ele>
        <time>2026-06-20T10:00:37.000Z</time>
        <extensions>
          <ns3:TrackPointExtension>
            <ns3:atemp>22.0</ns3:atemp>
          </ns3:TrackPointExtension>
        </extensions>
      </trkpt>
      <trkpt lat="42.51492337323725223541259765625" lon="20.1480512134730815887451171875">
        <ele>2168.800048828125</ele>
        <time>2026-06-20T10:00:38.000Z</time>
        <extensions>
          <ns3:TrackPointExtension>
            <ns3:atemp>22.0</ns3:atemp>
          </ns3:TrackPointExtension>
        </extensions>
      </trkpt>
      <trkpt lat="42.51492337323725223541259765625" lon="20.1480512134730815887451171875">
        <ele>2168.800048828125</ele>
        <time>2026-06-20T10:00:39.000Z</time>
        <extensions>
          <ns3:TrackPointExtension>
            <ns3:atemp>22.0</ns3:atemp>
          </ns3:TrackPointExtension>
        </extensions>
      </trkpt>
      <trkpt lat="42.51492337323725223541259765625" lon="20.1480512134730815887451171875">
        <ele>2168.800048828125</ele>
        <time>2026-06-20T10:00:40.000Z</time>
        <extensions>
          <ns3:TrackPointExtension>
            <ns3:atemp>22.0</ns3:atemp>
          </ns3:TrackPointExtension>
        </extensions>
      </trkpt>
      <trkpt lat="42.51492337323725223541259765625" lon="20.1480512134730815887451171875">
        <ele>2168.800048828125</ele>
        <time>2026-06-20T10:00:41.000Z</time>
        <extensions>
          <ns3:TrackPointExtension>
            <ns3:atemp>22.0</ns3:atemp>
          </ns3:TrackPointExtension>
        </extensions>
      </trkpt>
      <trkpt lat="42.51492337323725223541259765625" lon="20.1480512134730815887451171875">
        <ele>2168.800048828125</ele>
        <time>2026-06-20T10:00:42.000Z</time>
        <extensions>
          <ns3:TrackPointExtension>
            <ns3:atemp>22.0</ns3:atemp>
          </ns3:TrackPointExtension>
        </extensions>
      </trkpt>
      <trkpt lat="42.51492337323725223541259765625" lon="20.1480512134730815887451171875">
        <ele>2168.800048828125</ele>
        <time>2026-06-20T10:00:43.000Z</time>
        <extensions>
          <ns3:TrackPointExtension>
            <ns3:atemp>22.0</ns3:atemp>
          </ns3:TrackPointExtension>
        </extensions>
      </trkpt>
      <trkpt lat="42.51492337323725223541259765625" lon="20.1480512134730815887451171875">
        <ele>2168.800048828125</ele>
        <time>2026-06-20T10:00:44.000Z</time>
        <extensions>
          <ns3:TrackPointExtension>
            <ns3:atemp>22.0</ns3:atemp>
          </ns3:TrackPointExtension>
        </extensions>
      </trkpt>
      <trkpt lat="42.51492337323725223541259765625" lon="20.1480512134730815887451171875">
        <ele>2168.800048828125</ele>
        <time>2026-06-20T10:00:45.000Z</time>
        <extensions>
          <ns3:TrackPointExtension>
            <ns3:atemp>22.0</ns3:atemp>
          </ns3:TrackPointExtension>
        </extensions>
      </trkpt>
      <trkpt lat="42.51492337323725223541259765625" lon="20.1480512134730815887451171875">
        <ele>2168.800048828125</ele>
        <time>2026-06-20T10:00:46.000Z</time>
        <extensions>
          <ns3:TrackPointExtension>
            <ns3:atemp>22.0</ns3:atemp>
          </ns3:TrackPointExtension>
        </extensions>
      </trkpt>
      <trkpt lat="42.51492337323725223541259765625" lon="20.1480512134730815887451171875">
        <ele>2168.800048828125</ele>
        <time>2026-06-20T10:00:47.000Z</time>
        <extensions>
          <ns3:TrackPointExtension>
            <ns3:atemp>22.0</ns3:atemp>
          </ns3:TrackPointExtension>
        </extensions>
      </trkpt>
      <trkpt lat="42.51492337323725223541259765625" lon="20.1480512134730815887451171875">
        <ele>2168.800048828125</ele>
        <time>2026-06-20T10:00:48.000Z</time>
        <extensions>
          <ns3:TrackPointExtension>
            <ns3:atemp>22.0</ns3:atemp>
          </ns3:TrackPointExtension>
        </extensions>
      </trkpt>
      <trkpt lat="42.51492337323725223541259765625" lon="20.1480512134730815887451171875">
        <ele>2168.800048828125</ele>
        <time>2026-06-20T10:00:49.000Z</time>
        <extensions>
          <ns3:TrackPointExtension>
            <ns3:atemp>22.0</ns3:atemp>
          </ns3:TrackPointExtension>
        </extensions>
      </trkpt>
      <trkpt lat="42.51492337323725223541259765625" lon="20.1480512134730815887451171875">
        <ele>2168.800048828125</ele>
        <time>2026-06-20T10:00:50.000Z</time>
        <extensions>
          <ns3:TrackPointExtension>
            <ns3:atemp>22.0</ns3:atemp>
          </ns3:TrackPointExtension>
        </extensions>
      </trkpt>
      <trkpt lat="42.51492337323725223541259765625" lon="20.1480512134730815887451171875">
        <ele>2168.800048828125</ele>
        <time>2026-06-20T10:00:51.000Z</time>
        <extensions>
          <ns3:TrackPointExtension>
            <ns3:atemp>22.0</ns3:atemp>
          </ns3:TrackPointExtension>
        </extensions>
      </trkpt>
      <trkpt lat="42.51492337323725223541259765625" lon="20.1480512134730815887451171875">
        <ele>2168.800048828125</ele>
        <time>2026-06-20T10:00:52.000Z</time>
        <extensions>
          <ns3:TrackPointExtension>
            <ns3:atemp>22.0</ns3:atemp>
          </ns3:TrackPointExtension>
        </extensions>
      </trkpt>
      <trkpt lat="42.51492337323725223541259765625" lon="20.1480512134730815887451171875">
        <ele>2168.800048828125</ele>
        <time>2026-06-20T10:00:53.000Z</time>
        <extensions>
          <ns3:TrackPointExtension>
            <ns3:atemp>22.0</ns3:atemp>
          </ns3:TrackPointExtension>
        </extensions>
      </trkpt>
      <trkpt lat="42.51492337323725223541259765625" lon="20.1480512134730815887451171875">
        <ele>2168.800048828125</ele>
        <time>2026-06-20T10:00:54.000Z</time>
        <extensions>
          <ns3:TrackPointExtension>
            <ns3:atemp>22.0</ns3:atemp>
          </ns3:TrackPointExtension>
        </extensions>
      </trkpt>
      <trkpt lat="42.51492337323725223541259765625" lon="20.1480512134730815887451171875">
        <ele>2168.800048828125</ele>
        <time>2026-06-20T10:00:55.000Z</time>
        <extensions>
          <ns3:TrackPointExtension>
            <ns3:atemp>22.0</ns3:atemp>
          </ns3:TrackPointExtension>
        </extensions>
      </trkpt>
      <trkpt lat="42.51492337323725223541259765625" lon="20.1480512134730815887451171875">
        <ele>2168.800048828125</ele>
        <time>2026-06-20T10:00:56.000Z</time>
        <extensions>
          <ns3:TrackPointExtension>
            <ns3:atemp>22.0</ns3:atemp>
          </ns3:TrackPointExtension>
        </extensions>
      </trkpt>
      <trkpt lat="42.51492337323725223541259765625" lon="20.1480512134730815887451171875">
        <ele>2168.800048828125</ele>
        <time>2026-06-20T10:00:57.000Z</time>
        <extensions>
          <ns3:TrackPointExtension>
            <ns3:atemp>22.0</ns3:atemp>
          </ns3:TrackPointExtension>
        </extensions>
      </trkpt>
      <trkpt lat="42.51492337323725223541259765625" lon="20.1480512134730815887451171875">
        <ele>2168.800048828125</ele>
        <time>2026-06-20T10:00:58.000Z</time>
        <extensions>
          <ns3:TrackPointExtension>
            <ns3:atemp>22.0</ns3:atemp>
          </ns3:TrackPointExtension>
        </extensions>
      </trkpt>
      <trkpt lat="42.51492337323725223541259765625" lon="20.1480512134730815887451171875">
        <ele>2168.800048828125</ele>
        <time>2026-06-20T10:00:59.000Z</time>
        <extensions>
          <ns3:TrackPointExtension>
            <ns3:atemp>22.0</ns3:atemp>
          </ns3:TrackPointExtension>
        </extensions>
      </trkpt>
      <trkpt lat="42.51492337323725223541259765625" lon="20.1480512134730815887451171875">
        <ele>2168.800048828125</ele>
        <time>2026-06-20T10:01:00.000Z</time>
        <extensions>
          <ns3:TrackPointExtension>
            <ns3:atemp>22.0</ns3:atemp>
          </ns3:TrackPointExtension>
        </extensions>
      </trkpt>
      <trkpt lat="42.51492337323725223541259765625" lon="20.1480512134730815887451171875">
        <ele>2168.800048828125</ele>
        <time>2026-06-20T10:01:01.000Z</time>
        <extensions>
          <ns3:TrackPointExtension>
            <ns3:atemp>22.0</ns3:atemp>
          </ns3:TrackPointExtension>
        </extensions>
      </trkpt>
      <trkpt lat="42.51492337323725223541259765625" lon="20.1480512134730815887451171875">
        <ele>2168.800048828125</ele>
        <time>2026-06-20T10:01:02.000Z</time>
        <extensions>
          <ns3:TrackPointExtension>
            <ns3:atemp>22.0</ns3:atemp>
          </ns3:TrackPointExtension>
        </extensions>
      </trkpt>
      <trkpt lat="42.51492337323725223541259765625" lon="20.1480512134730815887451171875">
        <ele>2168.800048828125</ele>
        <time>2026-06-20T10:01:03.000Z</time>
        <extensions>
          <ns3:TrackPointExtension>
            <ns3:atemp>22.0</ns3:atemp>
          </ns3:TrackPointExtension>
        </extensions>
      </trkpt>
      <trkpt lat="42.51492337323725223541259765625" lon="20.1480512134730815887451171875">
        <ele>2168.800048828125</ele>
        <time>2026-06-20T10:01:04.000Z</time>
        <extensions>
          <ns3:TrackPointExtension>
            <ns3:atemp>22.0</ns3:atemp>
          </ns3:TrackPointExtension>
        </extensions>
      </trkpt>
      <trkpt lat="42.51492337323725223541259765625" lon="20.1480512134730815887451171875">
        <ele>2168.800048828125</ele>
        <time>2026-06-20T10:01:05.000Z</time>
        <extensions>
          <ns3:TrackPointExtension>
            <ns3:atemp>22.0</ns3:atemp>
          </ns3:TrackPointExtension>
        </extensions>
      </trkpt>
      <trkpt lat="42.51492337323725223541259765625" lon="20.1480512134730815887451171875">
        <ele>2168.800048828125</ele>
        <time>2026-06-20T10:01:06.000Z</time>
        <extensions>
          <ns3:TrackPointExtension>
            <ns3:atemp>22.0</ns3:atemp>
          </ns3:TrackPointExtension>
        </extensions>
      </trkpt>
      <trkpt lat="42.51492337323725223541259765625" lon="20.1480512134730815887451171875">
        <ele>2168.800048828125</ele>
        <time>2026-06-20T10:01:07.000Z</time>
        <extensions>
          <ns3:TrackPointExtension>
            <ns3:atemp>22.0</ns3:atemp>
          </ns3:TrackPointExtension>
        </extensions>
      </trkpt>
      <trkpt lat="42.51492337323725223541259765625" lon="20.1480512134730815887451171875">
        <ele>2168.800048828125</ele>
        <time>2026-06-20T10:01:08.000Z</time>
        <extensions>
          <ns3:TrackPointExtension>
            <ns3:atemp>22.0</ns3:atemp>
          </ns3:TrackPointExtension>
        </extensions>
      </trkpt>
      <trkpt lat="42.51492337323725223541259765625" lon="20.1480512134730815887451171875">
        <ele>2168.800048828125</ele>
        <time>2026-06-20T10:01:09.000Z</time>
        <extensions>
          <ns3:TrackPointExtension>
            <ns3:atemp>22.0</ns3:atemp>
          </ns3:TrackPointExtension>
        </extensions>
      </trkpt>
      <trkpt lat="42.51492337323725223541259765625" lon="20.1480512134730815887451171875">
        <ele>2168.800048828125</ele>
        <time>2026-06-20T10:01:10.000Z</time>
        <extensions>
          <ns3:TrackPointExtension>
            <ns3:atemp>22.0</ns3:atemp>
          </ns3:TrackPointExtension>
        </extensions>
      </trkpt>
      <trkpt lat="42.51492337323725223541259765625" lon="20.1480512134730815887451171875">
        <ele>2168.800048828125</ele>
        <time>2026-06-20T10:01:11.000Z</time>
        <extensions>
          <ns3:TrackPointExtension>
            <ns3:atemp>22.0</ns3:atemp>
          </ns3:TrackPointExtension>
        </extensions>
      </trkpt>
      <trkpt lat="42.51492337323725223541259765625" lon="20.1480512134730815887451171875">
        <ele>2168.800048828125</ele>
        <time>2026-06-20T10:01:12.000Z</time>
        <extensions>
          <ns3:TrackPointExtension>
            <ns3:atemp>22.0</ns3:atemp>
          </ns3:TrackPointExtension>
        </extensions>
      </trkpt>
      <trkpt lat="42.51492337323725223541259765625" lon="20.1480512134730815887451171875">
        <ele>2168.800048828125</ele>
        <time>2026-06-20T10:01:13.000Z</time>
        <extensions>
          <ns3:TrackPointExtension>
            <ns3:atemp>22.0</ns3:atemp>
          </ns3:TrackPointExtension>
        </extensions>
      </trkpt>
      <trkpt lat="42.51492337323725223541259765625" lon="20.1480512134730815887451171875">
        <ele>2168.800048828125</ele>
        <time>2026-06-20T10:01:14.000Z</time>
        <extensions>
          <ns3:TrackPointExtension>
            <ns3:atemp>22.0</ns3:atemp>
          </ns3:TrackPointExtension>
        </extensions>
      </trkpt>
      <trkpt lat="42.51492337323725223541259765625" lon="20.1480512134730815887451171875">
        <ele>2168.800048828125</ele>
        <time>2026-06-20T10:01:15.000Z</time>
        <extensions>
          <ns3:TrackPointExtension>
            <ns3:atemp>22.0</ns3:atemp>
          </ns3:TrackPointExtension>
        </extensions>
      </trkpt>
      <trkpt lat="42.51492337323725223541259765625" lon="20.1480512134730815887451171875">
        <ele>2168.800048828125</ele>
        <time>2026-06-20T10:01:16.000Z</time>
        <extensions>
          <ns3:TrackPointExtension>
            <ns3:atemp>22.0</ns3:atemp>
          </ns3:TrackPointExtension>
        </extensions>
      </trkpt>
      <trkpt lat="42.51492337323725223541259765625" lon="20.1480512134730815887451171875">
        <ele>2168.800048828125</ele>
        <time>2026-06-20T10:01:17.000Z</time>
        <extensions>
          <ns3:TrackPointExtension>
            <ns3:atemp>22.0</ns3:atemp>
          </ns3:TrackPointExtension>
        </extensions>
      </trkpt>
      <trkpt lat="42.51492337323725223541259765625" lon="20.1480512134730815887451171875">
        <ele>2168.800048828125</ele>
        <time>2026-06-20T10:01:18.000Z</time>
        <extensions>
          <ns3:TrackPointExtension>
            <ns3:atemp>22.0</ns3:atemp>
          </ns3:TrackPointExtension>
        </extensions>
      </trkpt>
      <trkpt lat="42.51492337323725223541259765625" lon="20.1480512134730815887451171875">
        <ele>2168.800048828125</ele>
        <time>2026-06-20T10:01:19.000Z</time>
        <extensions>
          <ns3:TrackPointExtension>
            <ns3:atemp>22.0</ns3:atemp>
          </ns3:TrackPointExtension>
        </extensions>
      </trkpt>
      <trkpt lat="42.51492337323725223541259765625" lon="20.1480512134730815887451171875">
        <ele>2168.800048828125</ele>
        <time>2026-06-20T10:01:20.000Z</time>
        <extensions>
          <ns3:TrackPointExtension>
            <ns3:atemp>22.0</ns3:atemp>
          </ns3:TrackPointExtension>
        </extensions>
      </trkpt>
      <trkpt lat="42.51492337323725223541259765625" lon="20.1480512134730815887451171875">
        <ele>2168.800048828125</ele>
        <time>2026-06-20T10:01:21.000Z</time>
        <extensions>
          <ns3:TrackPointExtension>
            <ns3:atemp>22.0</ns3:atemp>
          </ns3:TrackPointExtension>
        </extensions>
      </trkpt>
      <trkpt lat="42.51492337323725223541259765625" lon="20.1480512134730815887451171875">
        <ele>2168.800048828125</ele>
        <time>2026-06-20T10:01:22.000Z</time>
        <extensions>
          <ns3:TrackPointExtension>
            <ns3:atemp>22.0</ns3:atemp>
          </ns3:TrackPointExtension>
        </extensions>
      </trkpt>
      <trkpt lat="42.51492337323725223541259765625" lon="20.1480512134730815887451171875">
        <ele>2168.800048828125</ele>
        <time>2026-06-20T10:01:23.000Z</time>
        <extensions>
          <ns3:TrackPointExtension>
            <ns3:atemp>22.0</ns3:atemp>
          </ns3:TrackPointExtension>
        </extensions>
      </trkpt>
      <trkpt lat="42.51492337323725223541259765625" lon="20.1480512134730815887451171875">
        <ele>2168.800048828125</ele>
        <time>2026-06-20T10:01:24.000Z</time>
        <extensions>
          <ns3:TrackPointExtension>
            <ns3:atemp>22.0</ns3:atemp>
          </ns3:TrackPointExtension>
        </extensions>
      </trkpt>
      <trkpt lat="42.51492337323725223541259765625" lon="20.1480512134730815887451171875">
        <ele>2168.800048828125</ele>
        <time>2026-06-20T10:01:25.000Z</time>
        <extensions>
          <ns3:TrackPointExtension>
            <ns3:atemp>22.0</ns3:atemp>
          </ns3:TrackPointExtension>
        </extensions>
      </trkpt>
      <trkpt lat="42.51492337323725223541259765625" lon="20.1480512134730815887451171875">
        <ele>2168.800048828125</ele>
        <time>2026-06-20T10:01:26.000Z</time>
        <extensions>
          <ns3:TrackPointExtension>
            <ns3:atemp>22.0</ns3:atemp>
          </ns3:TrackPointExtension>
        </extensions>
      </trkpt>
      <trkpt lat="42.51492337323725223541259765625" lon="20.1480512134730815887451171875">
        <ele>2168.800048828125</ele>
        <time>2026-06-20T10:01:27.000Z</time>
        <extensions>
          <ns3:TrackPointExtension>
            <ns3:atemp>22.0</ns3:atemp>
          </ns3:TrackPointExtension>
        </extensions>
      </trkpt>
      <trkpt lat="42.51492337323725223541259765625" lon="20.1480512134730815887451171875">
        <ele>2168.800048828125</ele>
        <time>2026-06-20T10:01:28.000Z</time>
        <extensions>
          <ns3:TrackPointExtension>
            <ns3:atemp>22.0</ns3:atemp>
          </ns3:TrackPointExtension>
        </extensions>
      </trkpt>
      <trkpt lat="42.51492337323725223541259765625" lon="20.1480512134730815887451171875">
        <ele>2168.800048828125</ele>
        <time>2026-06-20T10:01:29.000Z</time>
        <extensions>
          <ns3:TrackPointExtension>
            <ns3:atemp>22.0</ns3:atemp>
          </ns3:TrackPointExtension>
        </extensions>
      </trkpt>
      <trkpt lat="42.51492337323725223541259765625" lon="20.1480512134730815887451171875">
        <ele>2168.800048828125</ele>
        <time>2026-06-20T10:01:30.000Z</time>
        <extensions>
          <ns3:TrackPointExtension>
            <ns3:atemp>22.0</ns3:atemp>
          </ns3:TrackPointExtension>
        </extensions>
      </trkpt>
      <trkpt lat="42.51492337323725223541259765625" lon="20.1480512134730815887451171875">
        <ele>2168.800048828125</ele>
        <time>2026-06-20T10:01:31.000Z</time>
        <extensions>
          <ns3:TrackPointExtension>
            <ns3:atemp>22.0</ns3:atemp>
          </ns3:TrackPointExtension>
        </extensions>
      </trkpt>
      <trkpt lat="42.51492337323725223541259765625" lon="20.1480512134730815887451171875">
        <ele>2168.800048828125</ele>
        <time>2026-06-20T10:01:32.000Z</time>
        <extensions>
          <ns3:TrackPointExtension>
            <ns3:atemp>22.0</ns3:atemp>
          </ns3:TrackPointExtension>
        </extensions>
      </trkpt>
      <trkpt lat="42.51492337323725223541259765625" lon="20.1480512134730815887451171875">
        <ele>2168.800048828125</ele>
        <time>2026-06-20T10:01:33.000Z</time>
        <extensions>
          <ns3:TrackPointExtension>
            <ns3:atemp>22.0</ns3:atemp>
          </ns3:TrackPointExtension>
        </extensions>
      </trkpt>
      <trkpt lat="42.51492337323725223541259765625" lon="20.1480512134730815887451171875">
        <ele>2168.800048828125</ele>
        <time>2026-06-20T10:01:34.000Z</time>
        <extensions>
          <ns3:TrackPointExtension>
            <ns3:atemp>22.0</ns3:atemp>
          </ns3:TrackPointExtension>
        </extensions>
      </trkpt>
      <trkpt lat="42.51492337323725223541259765625" lon="20.1480512134730815887451171875">
        <ele>2168.800048828125</ele>
        <time>2026-06-20T10:01:35.000Z</time>
        <extensions>
          <ns3:TrackPointExtension>
            <ns3:atemp>22.0</ns3:atemp>
          </ns3:TrackPointExtension>
        </extensions>
      </trkpt>
      <trkpt lat="42.51492337323725223541259765625" lon="20.1480512134730815887451171875">
        <ele>2168.800048828125</ele>
        <time>2026-06-20T10:01:36.000Z</time>
        <extensions>
          <ns3:TrackPointExtension>
            <ns3:atemp>22.0</ns3:atemp>
          </ns3:TrackPointExtension>
        </extensions>
      </trkpt>
      <trkpt lat="42.51492337323725223541259765625" lon="20.1480512134730815887451171875">
        <ele>2168.800048828125</ele>
        <time>2026-06-20T10:01:37.000Z</time>
        <extensions>
          <ns3:TrackPointExtension>
            <ns3:atemp>22.0</ns3:atemp>
          </ns3:TrackPointExtension>
        </extensions>
      </trkpt>
      <trkpt lat="42.51492337323725223541259765625" lon="20.1480512134730815887451171875">
        <ele>2168.800048828125</ele>
        <time>2026-06-20T10:01:38.000Z</time>
        <extensions>
          <ns3:TrackPointExtension>
            <ns3:atemp>22.0</ns3:atemp>
          </ns3:TrackPointExtension>
        </extensions>
      </trkpt>
      <trkpt lat="42.51492337323725223541259765625" lon="20.1480512134730815887451171875">
        <ele>2168.800048828125</ele>
        <time>2026-06-20T10:01:39.000Z</time>
        <extensions>
          <ns3:TrackPointExtension>
            <ns3:atemp>22.0</ns3:atemp>
          </ns3:TrackPointExtension>
        </extensions>
      </trkpt>
      <trkpt lat="42.51492337323725223541259765625" lon="20.1480512134730815887451171875">
        <ele>2168.800048828125</ele>
        <time>2026-06-20T10:01:40.000Z</time>
        <extensions>
          <ns3:TrackPointExtension>
            <ns3:atemp>22.0</ns3:atemp>
          </ns3:TrackPointExtension>
        </extensions>
      </trkpt>
      <trkpt lat="42.51492337323725223541259765625" lon="20.1480512134730815887451171875">
        <ele>2168.800048828125</ele>
        <time>2026-06-20T10:01:41.000Z</time>
        <extensions>
          <ns3:TrackPointExtension>
            <ns3:atemp>22.0</ns3:atemp>
          </ns3:TrackPointExtension>
        </extensions>
      </trkpt>
      <trkpt lat="42.51492337323725223541259765625" lon="20.1480512134730815887451171875">
        <ele>2168.800048828125</ele>
        <time>2026-06-20T10:01:42.000Z</time>
        <extensions>
          <ns3:TrackPointExtension>
            <ns3:atemp>22.0</ns3:atemp>
          </ns3:TrackPointExtension>
        </extensions>
      </trkpt>
      <trkpt lat="42.51492337323725223541259765625" lon="20.1480512134730815887451171875">
        <ele>2168.800048828125</ele>
        <time>2026-06-20T10:01:43.000Z</time>
        <extensions>
          <ns3:TrackPointExtension>
            <ns3:atemp>22.0</ns3:atemp>
          </ns3:TrackPointExtension>
        </extensions>
      </trkpt>
      <trkpt lat="42.51492337323725223541259765625" lon="20.1480512134730815887451171875">
        <ele>2168.800048828125</ele>
        <time>2026-06-20T10:01:44.000Z</time>
        <extensions>
          <ns3:TrackPointExtension>
            <ns3:atemp>22.0</ns3:atemp>
          </ns3:TrackPointExtension>
        </extensions>
      </trkpt>
      <trkpt lat="42.51492337323725223541259765625" lon="20.1480512134730815887451171875">
        <ele>2168.800048828125</ele>
        <time>2026-06-20T10:01:45.000Z</time>
        <extensions>
          <ns3:TrackPointExtension>
            <ns3:atemp>22.0</ns3:atemp>
          </ns3:TrackPointExtension>
        </extensions>
      </trkpt>
      <trkpt lat="42.51492337323725223541259765625" lon="20.1480512134730815887451171875">
        <ele>2168.800048828125</ele>
        <time>2026-06-20T10:01:46.000Z</time>
        <extensions>
          <ns3:TrackPointExtension>
            <ns3:atemp>22.0</ns3:atemp>
          </ns3:TrackPointExtension>
        </extensions>
      </trkpt>
      <trkpt lat="42.51492337323725223541259765625" lon="20.1480512134730815887451171875">
        <ele>2168.800048828125</ele>
        <time>2026-06-20T10:01:47.000Z</time>
        <extensions>
          <ns3:TrackPointExtension>
            <ns3:atemp>22.0</ns3:atemp>
          </ns3:TrackPointExtension>
        </extensions>
      </trkpt>
      <trkpt lat="42.51492337323725223541259765625" lon="20.1480512134730815887451171875">
        <ele>2168.800048828125</ele>
        <time>2026-06-20T10:01:48.000Z</time>
        <extensions>
          <ns3:TrackPointExtension>
            <ns3:atemp>22.0</ns3:atemp>
          </ns3:TrackPointExtension>
        </extensions>
      </trkpt>
      <trkpt lat="42.51492337323725223541259765625" lon="20.1480512134730815887451171875">
        <ele>2168.800048828125</ele>
        <time>2026-06-20T10:01:49.000Z</time>
        <extensions>
          <ns3:TrackPointExtension>
            <ns3:atemp>22.0</ns3:atemp>
          </ns3:TrackPointExtension>
        </extensions>
      </trkpt>
      <trkpt lat="42.51492337323725223541259765625" lon="20.1480512134730815887451171875">
        <ele>2168.800048828125</ele>
        <time>2026-06-20T10:01:50.000Z</time>
        <extensions>
          <ns3:TrackPointExtension>
            <ns3:atemp>22.0</ns3:atemp>
          </ns3:TrackPointExtension>
        </extensions>
      </trkpt>
      <trkpt lat="42.51492337323725223541259765625" lon="20.1480512134730815887451171875">
        <ele>2168.800048828125</ele>
        <time>2026-06-20T10:01:51.000Z</time>
        <extensions>
          <ns3:TrackPointExtension>
            <ns3:atemp>22.0</ns3:atemp>
          </ns3:TrackPointExtension>
        </extensions>
      </trkpt>
      <trkpt lat="42.51492337323725223541259765625" lon="20.1480512134730815887451171875">
        <ele>2168.800048828125</ele>
        <time>2026-06-20T10:01:52.000Z</time>
        <extensions>
          <ns3:TrackPointExtension>
            <ns3:atemp>22.0</ns3:atemp>
          </ns3:TrackPointExtension>
        </extensions>
      </trkpt>
      <trkpt lat="42.51492337323725223541259765625" lon="20.1480512134730815887451171875">
        <ele>2168.800048828125</ele>
        <time>2026-06-20T10:01:53.000Z</time>
        <extensions>
          <ns3:TrackPointExtension>
            <ns3:atemp>22.0</ns3:atemp>
          </ns3:TrackPointExtension>
        </extensions>
      </trkpt>
      <trkpt lat="42.51492337323725223541259765625" lon="20.1480512134730815887451171875">
        <ele>2168.800048828125</ele>
        <time>2026-06-20T10:01:54.000Z</time>
        <extensions>
          <ns3:TrackPointExtension>
            <ns3:atemp>22.0</ns3:atemp>
          </ns3:TrackPointExtension>
        </extensions>
      </trkpt>
      <trkpt lat="42.51492337323725223541259765625" lon="20.1480512134730815887451171875">
        <ele>2168.800048828125</ele>
        <time>2026-06-20T10:01:55.000Z</time>
        <extensions>
          <ns3:TrackPointExtension>
            <ns3:atemp>22.0</ns3:atemp>
          </ns3:TrackPointExtension>
        </extensions>
      </trkpt>
      <trkpt lat="42.51492337323725223541259765625" lon="20.1480512134730815887451171875">
        <ele>2168.800048828125</ele>
        <time>2026-06-20T10:01:56.000Z</time>
        <extensions>
          <ns3:TrackPointExtension>
            <ns3:atemp>22.0</ns3:atemp>
          </ns3:TrackPointExtension>
        </extensions>
      </trkpt>
      <trkpt lat="42.51492337323725223541259765625" lon="20.1480512134730815887451171875">
        <ele>2168.800048828125</ele>
        <time>2026-06-20T10:01:57.000Z</time>
        <extensions>
          <ns3:TrackPointExtension>
            <ns3:atemp>22.0</ns3:atemp>
          </ns3:TrackPointExtension>
        </extensions>
      </trkpt>
      <trkpt lat="42.51492337323725223541259765625" lon="20.1480512134730815887451171875">
        <ele>2168.800048828125</ele>
        <time>2026-06-20T10:01:58.000Z</time>
        <extensions>
          <ns3:TrackPointExtension>
            <ns3:atemp>22.0</ns3:atemp>
          </ns3:TrackPointExtension>
        </extensions>
      </trkpt>
      <trkpt lat="42.51492555253207683563232421875" lon="20.14804861508309841156005859375">
        <ele>2168.800048828125</ele>
        <time>2026-06-20T10:01:59.000Z</time>
        <extensions>
          <ns3:TrackPointExtension>
            <ns3:atemp>22.0</ns3:atemp>
          </ns3:TrackPointExtension>
        </extensions>
      </trkpt>
      <trkpt lat="42.51493292860686779022216796875" lon="20.14804274775087833404541015625">
        <ele>2168.800048828125</ele>
        <time>2026-06-20T10:02:00.000Z</time>
        <extensions>
          <ns3:TrackPointExtension>
            <ns3:atemp>22.0</ns3:atemp>
          </ns3:TrackPointExtension>
        </extensions>
      </trkpt>
      <trkpt lat="42.51492337323725223541259765625" lon="20.1480512134730815887451171875">
        <ele>2168.800048828125</ele>
        <time>2026-06-20T10:02:01.000Z</time>
        <extensions>
          <ns3:TrackPointExtension>
            <ns3:atemp>22.0</ns3:atemp>
          </ns3:TrackPointExtension>
        </extensions>
      </trkpt>
      <trkpt lat="42.5149320065975189208984375" lon="20.14804190956056118011474609375">
        <ele>2168.800048828125</ele>
        <time>2026-06-20T10:02:02.000Z</time>
        <extensions>
          <ns3:TrackPointExtension>
            <ns3:atemp>22.0</ns3:atemp>
          </ns3:TrackPointExtension>
        </extensions>
      </trkpt>
      <trkpt lat="42.51492337323725223541259765625" lon="20.1480512134730815887451171875">
        <ele>2168.800048828125</ele>
        <time>2026-06-20T10:02:03.000Z</time>
        <extensions>
          <ns3:TrackPointExtension>
            <ns3:atemp>22.0</ns3:atemp>
          </ns3:TrackPointExtension>
        </extensions>
      </trkpt>
      <trkpt lat="42.51493309624493122100830078125" lon="20.14803905971348285675048828125">
        <ele>2168.800048828125</ele>
        <time>2026-06-20T10:02:04.000Z</time>
        <extensions>
          <ns3:TrackPointExtension>
            <ns3:atemp>22.0</ns3:atemp>
          </ns3:TrackPointExtension>
        </extensions>
      </trkpt>
      <trkpt lat="42.51493804156780242919921875" lon="20.14802925288677215576171875">
        <ele>2168.800048828125</ele>
        <time>2026-06-20T10:02:05.000Z</time>
        <extensions>
          <ns3:TrackPointExtension>
            <ns3:atemp>22.0</ns3:atemp>
          </ns3:TrackPointExtension>
        </extensions>
      </trkpt>
      <trkpt lat="42.51494248397648334503173828125" lon="20.1480113156139850616455078125">
        <ele>2168.800048828125</ele>
        <time>2026-06-20T10:02:06.000Z</time>
        <extensions>
          <ns3:TrackPointExtension>
            <ns3:atemp>22.0</ns3:atemp>
          </ns3:TrackPointExtension>
        </extensions>
      </trkpt>
      <trkpt lat="42.5149454176425933837890625" lon="20.14798306860029697418212890625">
        <ele>2168.60009765625</ele>
        <time>2026-06-20T10:02:07.000Z</time>
        <extensions>
          <ns3:TrackPointExtension>
            <ns3:atemp>22.0</ns3:atemp>
          </ns3:TrackPointExtension>
        </extensions>
      </trkpt>
      <trkpt lat="42.5149469263851642608642578125" lon="20.1479506306350231170654296875">
        <ele>2168.800048828125</ele>
        <time>2026-06-20T10:02:08.000Z</time>
        <extensions>
          <ns3:TrackPointExtension>
            <ns3:atemp>22.0</ns3:atemp>
          </ns3:TrackPointExtension>
        </extensions>
      </trkpt>
      <trkpt lat="42.51495136879384517669677734375" lon="20.14791802503168582916259765625">
        <ele>2168.800048828125</ele>
        <time>2026-06-20T10:02:09.000Z</time>
        <extensions>
          <ns3:TrackPointExtension>
            <ns3:atemp>22.0</ns3:atemp>
          </ns3:TrackPointExtension>
        </extensions>
      </trkpt>
      <trkpt lat="42.5149569846689701080322265625" lon="20.14788382686674594879150390625">
        <ele>2169</ele>
        <time>2026-06-20T10:02:10.000Z</time>
        <extensions>
          <ns3:TrackPointExtension>
            <ns3:atemp>22.0</ns3:atemp>
          </ns3:TrackPointExtension>
        </extensions>
      </trkpt>
      <trkpt lat="42.51496226526796817779541015625" lon="20.14784610830247402191162109375">
        <ele>2169</ele>
        <time>2026-06-20T10:02:11.000Z</time>
        <extensions>
          <ns3:TrackPointExtension>
            <ns3:atemp>22.0</ns3:atemp>
          </ns3:TrackPointExtension>
        </extensions>
      </trkpt>
      <trkpt lat="42.514968216419219970703125" lon="20.14780872501432895660400390625">
        <ele>2168.800048828125</ele>
        <time>2026-06-20T10:02:12.000Z</time>
        <extensions>
          <ns3:TrackPointExtension>
            <ns3:atemp>22.0</ns3:atemp>
          </ns3:TrackPointExtension>
        </extensions>
      </trkpt>
      <trkpt lat="42.514973245561122894287109375" lon="20.1477725990116596221923828125">
        <ele>2168.60009765625</ele>
        <time>2026-06-20T10:02:13.000Z</time>
        <extensions>
          <ns3:TrackPointExtension>
            <ns3:atemp>22.0</ns3:atemp>
          </ns3:TrackPointExtension>
        </extensions>
      </trkpt>
      <trkpt lat="42.514978945255279541015625" lon="20.14774066396057605743408203125">
        <ele>2168.60009765625</ele>
        <time>2026-06-20T10:02:14.000Z</time>
        <extensions>
          <ns3:TrackPointExtension>
            <ns3:atemp>22.0</ns3:atemp>
          </ns3:TrackPointExtension>
        </extensions>
      </trkpt>
      <trkpt lat="42.51498238183557987213134765625" lon="20.14771317131817340850830078125">
        <ele>2168.39990234375</ele>
        <time>2026-06-20T10:02:15.000Z</time>
        <extensions>
          <ns3:TrackPointExtension>
            <ns3:atemp>22.0</ns3:atemp>
          </ns3:TrackPointExtension>
        </extensions>
      </trkpt>
      <trkpt lat="42.51498808152973651885986328125" lon="20.14768249355256557464599609375">
        <ele>2168.39990234375</ele>
        <time>2026-06-20T10:02:16.000Z</time>
        <extensions>
          <ns3:TrackPointExtension>
            <ns3:atemp>22.0</ns3:atemp>
          </ns3:TrackPointExtension>
        </extensions>
      </trkpt>
      <trkpt lat="42.51499478705227375030517578125" lon="20.14765030704438686370849609375">
        <ele>2168.39990234375</ele>
        <time>2026-06-20T10:02:17.000Z</time>
        <extensions>
          <ns3:TrackPointExtension>
            <ns3:atemp>22.0</ns3:atemp>
          </ns3:TrackPointExtension>
        </extensions>
      </trkpt>
      <trkpt lat="42.51500300131738185882568359375" lon="20.14761493541300296783447265625">
        <ele>2168.39990234375</ele>
        <time>2026-06-20T10:02:18.000Z</time>
        <extensions>
          <ns3:TrackPointExtension>
            <ns3:atemp>22.0</ns3:atemp>
          </ns3:TrackPointExtension>
        </extensions>
      </trkpt>
      <trkpt lat="42.51500735990703105926513671875" lon="20.14757637865841388702392578125">
        <ele>2168.39990234375</ele>
        <time>2026-06-20T10:02:19.000Z</time>
        <extensions>
          <ns3:TrackPointExtension>
            <ns3:atemp>22.0</ns3:atemp>
          </ns3:TrackPointExtension>
        </extensions>
      </trkpt>
      <trkpt lat="42.51501171849668025970458984375" lon="20.14753748662769794464111328125">
        <ele>2168.199951171875</ele>
        <time>2026-06-20T10:02:20.000Z</time>
        <extensions>
          <ns3:TrackPointExtension>
            <ns3:atemp>22.0</ns3:atemp>
          </ns3:TrackPointExtension>
        </extensions>
      </trkpt>
      <trkpt lat="42.51501758582890033721923828125" lon="20.1474993489682674407958984375">
        <ele>2168.199951171875</ele>
        <time>2026-06-20T10:02:21.000Z</time>
        <extensions>
          <ns3:TrackPointExtension>
            <ns3:atemp>23.0</ns3:atemp>
          </ns3:TrackPointExtension>
        </extensions>
      </trkpt>
      <trkpt lat="42.515023536980152130126953125" lon="20.14746489934623241424560546875">
        <ele>2168</ele>
        <time>2026-06-20T10:02:22.000Z</time>
        <extensions>
          <ns3:TrackPointExtension>
            <ns3:atemp>23.0</ns3:atemp>
          </ns3:TrackPointExtension>
        </extensions>
      </trkpt>
      <trkpt lat="42.515021860599517822265625" lon="20.14743640087544918060302734375">
        <ele>2168</ele>
        <time>2026-06-20T10:02:23.000Z</time>
        <extensions>
          <ns3:TrackPointExtension>
            <ns3:atemp>23.0</ns3:atemp>
          </ns3:TrackPointExtension>
        </extensions>
      </trkpt>
      <trkpt lat="42.515018843114376068115234375" lon="20.147415697574615478515625">
        <ele>2168</ele>
        <time>2026-06-20T10:02:24.000Z</time>
        <extensions>
          <ns3:TrackPointExtension>
            <ns3:atemp>23.0</ns3:atemp>
          </ns3:TrackPointExtension>
        </extensions>
      </trkpt>
      <trkpt lat="42.51501775346696376800537109375" lon="20.14739683829247951507568359375">
        <ele>2168</ele>
        <time>2026-06-20T10:02:25.000Z</time>
        <extensions>
          <ns3:TrackPointExtension>
            <ns3:atemp>23.0</ns3:atemp>
          </ns3:TrackPointExtension>
        </extensions>
      </trkpt>
      <trkpt lat="42.51502227969467639923095703125" lon="20.1473887078464031219482421875">
        <ele>2168.199951171875</ele>
        <time>2026-06-20T10:02:26.000Z</time>
        <extensions>
          <ns3:TrackPointExtension>
            <ns3:atemp>23.0</ns3:atemp>
          </ns3:TrackPointExtension>
        </extensions>
      </trkpt>
      <trkpt lat="42.5150283984839916229248046875" lon="20.14738242141902446746826171875">
        <ele>2168.199951171875</ele>
        <time>2026-06-20T10:02:27.000Z</time>
        <extensions>
          <ns3:TrackPointExtension>
            <ns3:atemp>23.0</ns3:atemp>
          </ns3:TrackPointExtension>
        </extensions>
      </trkpt>
      <trkpt lat="42.5150330923497676849365234375" lon="20.1473823375999927520751953125">
        <ele>2168.199951171875</ele>
        <time>2026-06-20T10:02:28.000Z</time>
        <extensions>
          <ns3:TrackPointExtension>
            <ns3:atemp>23.0</ns3:atemp>
          </ns3:TrackPointExtension>
        </extensions>
      </trkpt>
      <trkpt lat="42.51503904350101947784423828125" lon="20.14737538062036037445068359375">
        <ele>2168.39990234375</ele>
        <time>2026-06-20T10:02:29.000Z</time>
        <extensions>
          <ns3:TrackPointExtension>
            <ns3:atemp>23.0</ns3:atemp>
          </ns3:TrackPointExtension>
        </extensions>
      </trkpt>
      <trkpt lat="42.5150528736412525177001953125" lon="20.14735308475792407989501953125">
        <ele>2168.39990234375</ele>
        <time>2026-06-20T10:02:30.000Z</time>
        <extensions>
          <ns3:TrackPointExtension>
            <ns3:atemp>23.0</ns3:atemp>
          </ns3:TrackPointExtension>
        </extensions>
      </trkpt>
      <trkpt lat="42.51506678760051727294921875" lon="20.1473280228674411773681640625">
        <ele>2168.39990234375</ele>
        <time>2026-06-20T10:02:31.000Z</time>
        <extensions>
          <ns3:TrackPointExtension>
            <ns3:atemp>23.0</ns3:atemp>
          </ns3:TrackPointExtension>
        </extensions>
      </trkpt>
      <trkpt lat="42.51507625915110111236572265625" lon="20.147294662892818450927734375">
        <ele>2168.39990234375</ele>
        <time>2026-06-20T10:02:32.000Z</time>
        <extensions>
          <ns3:TrackPointExtension>
            <ns3:atemp>23.0</ns3:atemp>
          </ns3:TrackPointExtension>
        </extensions>
      </trkpt>
      <trkpt lat="42.5150840543210506439208984375" lon="20.14725853689014911651611328125">
        <ele>2168.39990234375</ele>
        <time>2026-06-20T10:02:33.000Z</time>
        <extensions>
          <ns3:TrackPointExtension>
            <ns3:atemp>23.0</ns3:atemp>
          </ns3:TrackPointExtension>
        </extensions>
      </trkpt>
      <trkpt lat="42.515088580548763275146484375" lon="20.14722215943038463592529296875">
        <ele>2168</ele>
        <time>2026-06-20T10:02:34.000Z</time>
        <extensions>
          <ns3:TrackPointExtension>
            <ns3:atemp>23.0</ns3:atemp>
          </ns3:TrackPointExtension>
        </extensions>
      </trkpt>
      <trkpt lat="42.515089251101016998291015625" lon="20.14719986356794834136962890625">
        <ele>2167.800048828125</ele>
        <time>2026-06-20T10:02:35.000Z</time>
        <extensions>
          <ns3:TrackPointExtension>
            <ns3:atemp>23.0</ns3:atemp>
          </ns3:TrackPointExtension>
        </extensions>
      </trkpt>
      <trkpt lat="42.51508690416812896728515625" lon="20.14718879945576190948486328125">
        <ele>2167.60009765625</ele>
        <time>2026-06-20T10:02:36.000Z</time>
        <extensions>
          <ns3:TrackPointExtension>
            <ns3:atemp>23.0</ns3:atemp>
          </ns3:TrackPointExtension>
        </extensions>
      </trkpt>
      <trkpt lat="42.51508556306362152099609375" lon="20.14718234539031982421875">
        <ele>2167.60009765625</ele>
        <time>2026-06-20T10:02:37.000Z</time>
        <extensions>
          <ns3:TrackPointExtension>
            <ns3:atemp>23.0</ns3:atemp>
          </ns3:TrackPointExtension>
        </extensions>
      </trkpt>
      <trkpt lat="42.5150843895971775054931640625" lon="20.1471769809722900390625">
        <ele>2167.60009765625</ele>
        <time>2026-06-20T10:02:38.000Z</time>
        <extensions>
          <ns3:TrackPointExtension>
            <ns3:atemp>23.0</ns3:atemp>
          </ns3:TrackPointExtension>
        </extensions>
      </trkpt>
      <trkpt lat="42.515084557235240936279296875" lon="20.1471769809722900390625">
        <ele>2167.800048828125</ele>
        <time>2026-06-20T10:02:39.000Z</time>
        <extensions>
          <ns3:TrackPointExtension>
            <ns3:atemp>23.0</ns3:atemp>
          </ns3:TrackPointExtension>
        </extensions>
      </trkpt>
      <trkpt lat="42.51508849672973155975341796875" lon="20.1471828483045101165771484375">
        <ele>2167.800048828125</ele>
        <time>2026-06-20T10:02:40.000Z</time>
        <extensions>
          <ns3:TrackPointExtension>
            <ns3:atemp>23.0</ns3:atemp>
          </ns3:TrackPointExtension>
        </extensions>
      </trkpt>
      <trkpt lat="42.5150890834629535675048828125" lon="20.1471835188567638397216796875">
        <ele>2167.800048828125</ele>
        <time>2026-06-20T10:02:41.000Z</time>
        <extensions>
          <ns3:TrackPointExtension>
            <ns3:atemp>23.0</ns3:atemp>
          </ns3:TrackPointExtension>
        </extensions>
      </trkpt>
      <trkpt lat="42.5150890834629535675048828125" lon="20.1471835188567638397216796875">
        <ele>2167.800048828125</ele>
        <time>2026-06-20T10:02:42.000Z</time>
        <extensions>
          <ns3:TrackPointExtension>
            <ns3:atemp>23.0</ns3:atemp>
          </ns3:TrackPointExtension>
        </extensions>
      </trkpt>
      <trkpt lat="42.5150890834629535675048828125" lon="20.1471835188567638397216796875">
        <ele>2167</ele>
        <time>2026-06-20T10:02:43.000Z</time>
        <extensions>
          <ns3:TrackPointExtension>
            <ns3:atemp>23.0</ns3:atemp>
          </ns3:TrackPointExtension>
        </extensions>
      </trkpt>
      <trkpt lat="42.5150890834629535675048828125" lon="20.1471835188567638397216796875">
        <ele>2166.60009765625</ele>
        <time>2026-06-20T10:02:44.000Z</time>
        <extensions>
          <ns3:TrackPointExtension>
            <ns3:atemp>23.0</ns3:atemp>
          </ns3:TrackPointExtension>
        </extensions>
      </trkpt>
      <trkpt lat="42.5150890834629535675048828125" lon="20.1471835188567638397216796875">
        <ele>2166.60009765625</ele>
        <time>2026-06-20T10:02:45.000Z</time>
        <extensions>
          <ns3:TrackPointExtension>
            <ns3:atemp>23.0</ns3:atemp>
          </ns3:TrackPointExtension>
        </extensions>
      </trkpt>
      <trkpt lat="42.5150890834629535675048828125" lon="20.1471835188567638397216796875">
        <ele>2166.60009765625</ele>
        <time>2026-06-20T10:02:46.000Z</time>
        <extensions>
          <ns3:TrackPointExtension>
            <ns3:atemp>23.0</ns3:atemp>
          </ns3:TrackPointExtension>
        </extensions>
      </trkpt>
      <trkpt lat="42.5150890834629535675048828125" lon="20.1471835188567638397216796875">
        <ele>2166.800048828125</ele>
        <time>2026-06-20T10:02:47.000Z</time>
        <extensions>
          <ns3:TrackPointExtension>
            <ns3:atemp>23.0</ns3:atemp>
          </ns3:TrackPointExtension>
        </extensions>
      </trkpt>
      <trkpt lat="42.5150890834629535675048828125" lon="20.1471835188567638397216796875">
        <ele>2166.800048828125</ele>
        <time>2026-06-20T10:02:48.000Z</time>
        <extensions>
          <ns3:TrackPointExtension>
            <ns3:atemp>23.0</ns3:atemp>
          </ns3:TrackPointExtension>
        </extensions>
      </trkpt>
      <trkpt lat="42.5150890834629535675048828125" lon="20.1471835188567638397216796875">
        <ele>2166.800048828125</ele>
        <time>2026-06-20T10:02:49.000Z</time>
        <extensions>
          <ns3:TrackPointExtension>
            <ns3:atemp>23.0</ns3:atemp>
          </ns3:TrackPointExtension>
        </extensions>
      </trkpt>
      <trkpt lat="42.5150890834629535675048828125" lon="20.1471835188567638397216796875">
        <ele>2166.800048828125</ele>
        <time>2026-06-20T10:02:50.000Z</time>
        <extensions>
          <ns3:TrackPointExtension>
            <ns3:atemp>23.0</ns3:atemp>
          </ns3:TrackPointExtension>
        </extensions>
      </trkpt>
      <trkpt lat="42.5150890834629535675048828125" lon="20.1471835188567638397216796875">
        <ele>2166.800048828125</ele>
        <time>2026-06-20T10:02:51.000Z</time>
        <extensions>
          <ns3:TrackPointExtension>
            <ns3:atemp>23.0</ns3:atemp>
          </ns3:TrackPointExtension>
        </extensions>
      </trkpt>
      <trkpt lat="42.5150890834629535675048828125" lon="20.1471835188567638397216796875">
        <ele>2166.800048828125</ele>
        <time>2026-06-20T10:02:52.000Z</time>
        <extensions>
          <ns3:TrackPointExtension>
            <ns3:atemp>23.0</ns3:atemp>
          </ns3:TrackPointExtension>
        </extensions>
      </trkpt>
      <trkpt lat="42.5150890834629535675048828125" lon="20.1471835188567638397216796875">
        <ele>2166.800048828125</ele>
        <time>2026-06-20T10:02:53.000Z</time>
        <extensions>
          <ns3:TrackPointExtension>
            <ns3:atemp>23.0</ns3:atemp>
          </ns3:TrackPointExtension>
        </extensions>
      </trkpt>
      <trkpt lat="42.5150890834629535675048828125" lon="20.1471835188567638397216796875">
        <ele>2166.800048828125</ele>
        <time>2026-06-20T10:02:54.000Z</time>
        <extensions>
          <ns3:TrackPointExtension>
            <ns3:atemp>23.0</ns3:atemp>
          </ns3:TrackPointExtension>
        </extensions>
      </trkpt>
      <trkpt lat="42.5150890834629535675048828125" lon="20.1471835188567638397216796875">
        <ele>2166.800048828125</ele>
        <time>2026-06-20T10:02:55.000Z</time>
        <extensions>
          <ns3:TrackPointExtension>
            <ns3:atemp>23.0</ns3:atemp>
          </ns3:TrackPointExtension>
        </extensions>
      </trkpt>
      <trkpt lat="42.5150890834629535675048828125" lon="20.1471835188567638397216796875">
        <ele>2166.800048828125</ele>
        <time>2026-06-20T10:02:56.000Z</time>
        <extensions>
          <ns3:TrackPointExtension>
            <ns3:atemp>23.0</ns3:atemp>
          </ns3:TrackPointExtension>
        </extensions>
      </trkpt>
      <trkpt lat="42.51508933492004871368408203125" lon="20.14718435704708099365234375">
        <ele>2166.800048828125</ele>
        <time>2026-06-20T10:02:57.000Z</time>
        <extensions>
          <ns3:TrackPointExtension>
            <ns3:atemp>23.0</ns3:atemp>
          </ns3:TrackPointExtension>
        </extensions>
      </trkpt>
      <trkpt lat="42.51508916728198528289794921875" lon="20.14719483442604541778564453125">
        <ele>2166.800048828125</ele>
        <time>2026-06-20T10:02:58.000Z</time>
        <extensions>
          <ns3:TrackPointExtension>
            <ns3:atemp>23.0</ns3:atemp>
          </ns3:TrackPointExtension>
        </extensions>
      </trkpt>
      <trkpt lat="42.5150890834629535675048828125" lon="20.1471835188567638397216796875">
        <ele>2166.800048828125</ele>
        <time>2026-06-20T10:02:59.000Z</time>
        <extensions>
          <ns3:TrackPointExtension>
            <ns3:atemp>23.0</ns3:atemp>
          </ns3:TrackPointExtension>
        </extensions>
      </trkpt>
      <trkpt lat="42.5150890834629535675048828125" lon="20.1471835188567638397216796875">
        <ele>2166.800048828125</ele>
        <time>2026-06-20T10:03:00.000Z</time>
        <extensions>
          <ns3:TrackPointExtension>
            <ns3:atemp>23.0</ns3:atemp>
          </ns3:TrackPointExtension>
        </extensions>
      </trkpt>
      <trkpt lat="42.5150890834629535675048828125" lon="20.1471835188567638397216796875">
        <ele>2166.60009765625</ele>
        <time>2026-06-20T10:03:01.000Z</time>
        <extensions>
          <ns3:TrackPointExtension>
            <ns3:atemp>23.0</ns3:atemp>
          </ns3:TrackPointExtension>
        </extensions>
      </trkpt>
      <trkpt lat="42.5150890834629535675048828125" lon="20.1471835188567638397216796875">
        <ele>2166.60009765625</ele>
        <time>2026-06-20T10:03:02.000Z</time>
        <extensions>
          <ns3:TrackPointExtension>
            <ns3:atemp>23.0</ns3:atemp>
          </ns3:TrackPointExtension>
        </extensions>
      </trkpt>
      <trkpt lat="42.5150890834629535675048828125" lon="20.1471835188567638397216796875">
        <ele>2166.60009765625</ele>
        <time>2026-06-20T10:03:03.000Z</time>
        <extensions>
          <ns3:TrackPointExtension>
            <ns3:atemp>23.0</ns3:atemp>
          </ns3:TrackPointExtension>
        </extensions>
      </trkpt>
      <trkpt lat="42.5150890834629535675048828125" lon="20.1471835188567638397216796875">
        <ele>2166.60009765625</ele>
        <time>2026-06-20T10:03:04.000Z</time>
        <extensions>
          <ns3:TrackPointExtension>
            <ns3:atemp>23.0</ns3:atemp>
          </ns3:TrackPointExtension>
        </extensions>
      </trkpt>
      <trkpt lat="42.5150890834629535675048828125" lon="20.1471835188567638397216796875">
        <ele>2166.60009765625</ele>
        <time>2026-06-20T10:03:05.000Z</time>
        <extensions>
          <ns3:TrackPointExtension>
            <ns3:atemp>23.0</ns3:atemp>
          </ns3:TrackPointExtension>
        </extensions>
      </trkpt>
      <trkpt lat="42.51508950255811214447021484375" lon="20.147196091711521148681640625">
        <ele>2166.60009765625</ele>
        <time>2026-06-20T10:03:06.000Z</time>
        <extensions>
          <ns3:TrackPointExtension>
            <ns3:atemp>23.0</ns3:atemp>
          </ns3:TrackPointExtension>
        </extensions>
      </trkpt>
      <trkpt lat="42.51509117893874645233154296875" lon="20.1472153700888156890869140625">
        <ele>2166.60009765625</ele>
        <time>2026-06-20T10:03:07.000Z</time>
        <extensions>
          <ns3:TrackPointExtension>
            <ns3:atemp>23.0</ns3:atemp>
          </ns3:TrackPointExtension>
        </extensions>
      </trkpt>
      <trkpt lat="42.51508933492004871368408203125" lon="20.14723473228514194488525390625">
        <ele>2166.60009765625</ele>
        <time>2026-06-20T10:03:08.000Z</time>
        <extensions>
          <ns3:TrackPointExtension>
            <ns3:atemp>23.0</ns3:atemp>
          </ns3:TrackPointExtension>
        </extensions>
      </trkpt>
      <trkpt lat="42.51508464105427265167236328125" lon="20.14725811779499053955078125">
        <ele>2166.60009765625</ele>
        <time>2026-06-20T10:03:09.000Z</time>
        <extensions>
          <ns3:TrackPointExtension>
            <ns3:atemp>23.0</ns3:atemp>
          </ns3:TrackPointExtension>
        </extensions>
      </trkpt>
      <trkpt lat="42.5150800310075283050537109375" lon="20.14728493988513946533203125">
        <ele>2166.60009765625</ele>
        <time>2026-06-20T10:03:10.000Z</time>
        <extensions>
          <ns3:TrackPointExtension>
            <ns3:atemp>23.0</ns3:atemp>
          </ns3:TrackPointExtension>
        </extensions>
      </trkpt>
      <trkpt lat="42.5150723196566104888916015625" lon="20.147313438355922698974609375">
        <ele>2166.60009765625</ele>
        <time>2026-06-20T10:03:11.000Z</time>
        <extensions>
          <ns3:TrackPointExtension>
            <ns3:atemp>23.0</ns3:atemp>
          </ns3:TrackPointExtension>
        </extensions>
      </trkpt>
      <trkpt lat="42.5150580704212188720703125" lon="20.14733950607478618621826171875">
        <ele>2166.800048828125</ele>
        <time>2026-06-20T10:03:12.000Z</time>
        <extensions>
          <ns3:TrackPointExtension>
            <ns3:atemp>23.0</ns3:atemp>
          </ns3:TrackPointExtension>
        </extensions>
      </trkpt>
      <trkpt lat="42.51504038460552692413330078125" lon="20.147362388670444488525390625">
        <ele>2167</ele>
        <time>2026-06-20T10:03:13.000Z</time>
        <extensions>
          <ns3:TrackPointExtension>
            <ns3:atemp>23.0</ns3:atemp>
          </ns3:TrackPointExtension>
        </extensions>
      </trkpt>
      <trkpt lat="42.51502655446529388427734375" lon="20.1473846845328807830810546875">
        <ele>2167.199951171875</ele>
        <time>2026-06-20T10:03:14.000Z</time>
        <extensions>
          <ns3:TrackPointExtension>
            <ns3:atemp>23.0</ns3:atemp>
          </ns3:TrackPointExtension>
        </extensions>
      </trkpt>
      <trkpt lat="42.51502160914242267608642578125" lon="20.14741293154656887054443359375">
        <ele>2167.60009765625</ele>
        <time>2026-06-20T10:03:15.000Z</time>
        <extensions>
          <ns3:TrackPointExtension>
            <ns3:atemp>23.0</ns3:atemp>
          </ns3:TrackPointExtension>
        </extensions>
      </trkpt>
      <trkpt lat="42.51502395607531070709228515625" lon="20.14744545333087444305419921875">
        <ele>2167.800048828125</ele>
        <time>2026-06-20T10:03:16.000Z</time>
        <extensions>
          <ns3:TrackPointExtension>
            <ns3:atemp>23.0</ns3:atemp>
          </ns3:TrackPointExtension>
        </extensions>
      </trkpt>
      <trkpt lat="42.51502077095210552215576171875" lon="20.14747537672519683837890625">
        <ele>2168</ele>
        <time>2026-06-20T10:03:17.000Z</time>
        <extensions>
          <ns3:TrackPointExtension>
            <ns3:atemp>23.0</ns3:atemp>
          </ns3:TrackPointExtension>
        </extensions>
      </trkpt>
      <trkpt lat="42.5150139816105365753173828125" lon="20.14751737006008625030517578125">
        <ele>2168.199951171875</ele>
        <time>2026-06-20T10:03:18.000Z</time>
        <extensions>
          <ns3:TrackPointExtension>
            <ns3:atemp>23.0</ns3:atemp>
          </ns3:TrackPointExtension>
        </extensions>
      </trkpt>
      <trkpt lat="42.51501071266829967498779296875" lon="20.14755743555724620819091796875">
        <ele>2168.199951171875</ele>
        <time>2026-06-20T10:03:19.000Z</time>
        <extensions>
          <ns3:TrackPointExtension>
            <ns3:atemp>23.0</ns3:atemp>
          </ns3:TrackPointExtension>
        </extensions>
      </trkpt>
      <trkpt lat="42.51500777900218963623046875" lon="20.14758937060832977294921875">
        <ele>2168.39990234375</ele>
        <time>2026-06-20T10:03:20.000Z</time>
        <extensions>
          <ns3:TrackPointExtension>
            <ns3:atemp>23.0</ns3:atemp>
          </ns3:TrackPointExtension>
        </extensions>
      </trkpt>
      <trkpt lat="42.5150039233267307281494140625" lon="20.14761879108846187591552734375">
        <ele>2168.39990234375</ele>
        <time>2026-06-20T10:03:21.000Z</time>
        <extensions>
          <ns3:TrackPointExtension>
            <ns3:atemp>23.0</ns3:atemp>
          </ns3:TrackPointExtension>
        </extensions>
      </trkpt>
      <trkpt lat="42.514998055994510650634765625" lon="20.14764762483537197113037109375">
        <ele>2168.39990234375</ele>
        <time>2026-06-20T10:03:22.000Z</time>
        <extensions>
          <ns3:TrackPointExtension>
            <ns3:atemp>23.0</ns3:atemp>
          </ns3:TrackPointExtension>
        </extensions>
      </trkpt>
      <trkpt lat="42.51499302685260772705078125" lon="20.14767528511583805084228515625">
        <ele>2168.60009765625</ele>
        <time>2026-06-20T10:03:23.000Z</time>
        <extensions>
          <ns3:TrackPointExtension>
            <ns3:atemp>23.0</ns3:atemp>
          </ns3:TrackPointExtension>
        </extensions>
      </trkpt>
      <trkpt lat="42.51498741097748279571533203125" lon="20.14770294539630413055419921875">
        <ele>2168.60009765625</ele>
        <time>2026-06-20T10:03:24.000Z</time>
        <extensions>
          <ns3:TrackPointExtension>
            <ns3:atemp>23.0</ns3:atemp>
          </ns3:TrackPointExtension>
        </extensions>
      </trkpt>
      <trkpt lat="42.51498162746429443359375" lon="20.1477323658764362335205078125">
        <ele>2168.800048828125</ele>
        <time>2026-06-20T10:03:25.000Z</time>
        <extensions>
          <ns3:TrackPointExtension>
            <ns3:atemp>23.0</ns3:atemp>
          </ns3:TrackPointExtension>
        </extensions>
      </trkpt>
      <trkpt lat="42.5149757601320743560791015625" lon="20.1477645523846149444580078125">
        <ele>2168.800048828125</ele>
        <time>2026-06-20T10:03:26.000Z</time>
        <extensions>
          <ns3:TrackPointExtension>
            <ns3:atemp>23.0</ns3:atemp>
          </ns3:TrackPointExtension>
        </extensions>
      </trkpt>
      <trkpt lat="42.514969892799854278564453125" lon="20.147796235978603363037109375">
        <ele>2169</ele>
        <time>2026-06-20T10:03:27.000Z</time>
        <extensions>
          <ns3:TrackPointExtension>
            <ns3:atemp>23.0</ns3:atemp>
          </ns3:TrackPointExtension>
        </extensions>
      </trkpt>
      <trkpt lat="42.51496461220085620880126953125" lon="20.1478306017816066741943359375">
        <ele>2169</ele>
        <time>2026-06-20T10:03:28.000Z</time>
        <extensions>
          <ns3:TrackPointExtension>
            <ns3:atemp>23.0</ns3:atemp>
          </ns3:TrackPointExtension>
        </extensions>
      </trkpt>
      <trkpt lat="42.51496008597314357757568359375" lon="20.14786697924137115478515625">
        <ele>2169</ele>
        <time>2026-06-20T10:03:29.000Z</time>
        <extensions>
          <ns3:TrackPointExtension>
            <ns3:atemp>23.0</ns3:atemp>
          </ns3:TrackPointExtension>
        </extensions>
      </trkpt>
      <trkpt lat="42.51495338045060634613037109375" lon="20.1478996686637401580810546875">
        <ele>2169</ele>
        <time>2026-06-20T10:03:30.000Z</time>
        <extensions>
          <ns3:TrackPointExtension>
            <ns3:atemp>23.0</ns3:atemp>
          </ns3:TrackPointExtension>
        </extensions>
      </trkpt>
      <trkpt lat="42.51494885422289371490478515625" lon="20.147929675877094268798828125">
        <ele>2169.199951171875</ele>
        <time>2026-06-20T10:03:31.000Z</time>
        <extensions>
          <ns3:TrackPointExtension>
            <ns3:atemp>23.0</ns3:atemp>
          </ns3:TrackPointExtension>
        </extensions>
      </trkpt>
      <trkpt lat="42.51494550146162509918212890625" lon="20.14795859344303607940673828125">
        <ele>2169.199951171875</ele>
        <time>2026-06-20T10:03:32.000Z</time>
        <extensions>
          <ns3:TrackPointExtension>
            <ns3:atemp>23.0</ns3:atemp>
          </ns3:TrackPointExtension>
        </extensions>
      </trkpt>
      <trkpt lat="42.5149435736238956451416015625" lon="20.1479888521134853363037109375">
        <ele>2169.39990234375</ele>
        <time>2026-06-20T10:03:33.000Z</time>
        <extensions>
          <ns3:TrackPointExtension>
            <ns3:atemp>23.0</ns3:atemp>
          </ns3:TrackPointExtension>
        </extensions>
      </trkpt>
      <trkpt lat="42.5149412266910076141357421875" lon="20.14801760204136371612548828125">
        <ele>2169.39990234375</ele>
        <time>2026-06-20T10:03:34.000Z</time>
        <extensions>
          <ns3:TrackPointExtension>
            <ns3:atemp>23.0</ns3:atemp>
          </ns3:TrackPointExtension>
        </extensions>
      </trkpt>
      <trkpt lat="42.5149378739297389984130859375" lon="20.14804844744503498077392578125">
        <ele>2169.39990234375</ele>
        <time>2026-06-20T10:03:35.000Z</time>
        <extensions>
          <ns3:TrackPointExtension>
            <ns3:atemp>23.0</ns3:atemp>
          </ns3:TrackPointExtension>
        </extensions>
      </trkpt>
      <trkpt lat="42.5149385444819927215576171875" lon="20.14807594008743762969970703125">
        <ele>2169.60009765625</ele>
        <time>2026-06-20T10:03:36.000Z</time>
        <extensions>
          <ns3:TrackPointExtension>
            <ns3:atemp>23.0</ns3:atemp>
          </ns3:TrackPointExtension>
        </extensions>
      </trkpt>
      <trkpt lat="42.5149392150342464447021484375" lon="20.1481041871011257171630859375">
        <ele>2169.60009765625</ele>
        <time>2026-06-20T10:03:37.000Z</time>
        <extensions>
          <ns3:TrackPointExtension>
            <ns3:atemp>23.0</ns3:atemp>
          </ns3:TrackPointExtension>
        </extensions>
      </trkpt>
      <trkpt lat="42.51494147814810276031494140625" lon="20.1481239683926105499267578125">
        <ele>2169.60009765625</ele>
        <time>2026-06-20T10:03:38.000Z</time>
        <extensions>
          <ns3:TrackPointExtension>
            <ns3:atemp>23.0</ns3:atemp>
          </ns3:TrackPointExtension>
        </extensions>
      </trkpt>
      <trkpt lat="42.51494332216680049896240234375" lon="20.14814400114119052886962890625">
        <ele>2169.800048828125</ele>
        <time>2026-06-20T10:03:39.000Z</time>
        <extensions>
          <ns3:TrackPointExtension>
            <ns3:atemp>23.0</ns3:atemp>
          </ns3:TrackPointExtension>
        </extensions>
      </trkpt>
      <trkpt lat="42.514948435127735137939453125" lon="20.14816009439527988433837890625">
        <ele>2169.800048828125</ele>
        <time>2026-06-20T10:03:40.000Z</time>
        <extensions>
          <ns3:TrackPointExtension>
            <ns3:atemp>23.0</ns3:atemp>
          </ns3:TrackPointExtension>
        </extensions>
      </trkpt>
      <trkpt lat="42.51495405100286006927490234375" lon="20.14817275106906890869140625">
        <ele>2169.800048828125</ele>
        <time>2026-06-20T10:03:41.000Z</time>
        <extensions>
          <ns3:TrackPointExtension>
            <ns3:atemp>23.0</ns3:atemp>
          </ns3:TrackPointExtension>
        </extensions>
      </trkpt>
      <trkpt lat="42.51495505683124065399169921875" lon="20.14818842522799968719482421875">
        <ele>2169.800048828125</ele>
        <time>2026-06-20T10:03:42.000Z</time>
        <extensions>
          <ns3:TrackPointExtension>
            <ns3:atemp>23.0</ns3:atemp>
          </ns3:TrackPointExtension>
        </extensions>
      </trkpt>
      <trkpt lat="42.51495874486863613128662109375" lon="20.14820518903434276580810546875">
        <ele>2169.800048828125</ele>
        <time>2026-06-20T10:03:43.000Z</time>
        <extensions>
          <ns3:TrackPointExtension>
            <ns3:atemp>23.0</ns3:atemp>
          </ns3:TrackPointExtension>
        </extensions>
      </trkpt>
      <trkpt lat="42.51496377401053905487060546875" lon="20.148226730525493621826171875">
        <ele>2169.800048828125</ele>
        <time>2026-06-20T10:03:44.000Z</time>
        <extensions>
          <ns3:TrackPointExtension>
            <ns3:atemp>23.0</ns3:atemp>
          </ns3:TrackPointExtension>
        </extensions>
      </trkpt>
      <trkpt lat="42.5149690546095371246337890625" lon="20.14825581572949886322021484375">
        <ele>2169.800048828125</ele>
        <time>2026-06-20T10:03:45.000Z</time>
        <extensions>
          <ns3:TrackPointExtension>
            <ns3:atemp>23.0</ns3:atemp>
          </ns3:TrackPointExtension>
        </extensions>
      </trkpt>
      <trkpt lat="42.514974586665630340576171875" lon="20.1482882536947727203369140625">
        <ele>2169.60009765625</ele>
        <time>2026-06-20T10:03:46.000Z</time>
        <extensions>
          <ns3:TrackPointExtension>
            <ns3:atemp>23.0</ns3:atemp>
          </ns3:TrackPointExtension>
        </extensions>
      </trkpt>
      <trkpt lat="42.51498221419751644134521484375" lon="20.14832555316388607025146484375">
        <ele>2169.39990234375</ele>
        <time>2026-06-20T10:03:47.000Z</time>
        <extensions>
          <ns3:TrackPointExtension>
            <ns3:atemp>23.0</ns3:atemp>
          </ns3:TrackPointExtension>
        </extensions>
      </trkpt>
      <trkpt lat="42.51499076373875141143798828125" lon="20.148366205394268035888671875">
        <ele>2169</ele>
        <time>2026-06-20T10:03:48.000Z</time>
        <extensions>
          <ns3:TrackPointExtension>
            <ns3:atemp>23.0</ns3:atemp>
          </ns3:TrackPointExtension>
        </extensions>
      </trkpt>
      <trkpt lat="42.51499973237514495849609375" lon="20.14840970747172832489013671875">
        <ele>2168.60009765625</ele>
        <time>2026-06-20T10:03:49.000Z</time>
        <extensions>
          <ns3:TrackPointExtension>
            <ns3:atemp>23.0</ns3:atemp>
          </ns3:TrackPointExtension>
        </extensions>
      </trkpt>
      <trkpt lat="42.51500585116446018218994140625" lon="20.148452706634998321533203125">
        <ele>2168.39990234375</ele>
        <time>2026-06-20T10:03:50.000Z</time>
        <extensions>
          <ns3:TrackPointExtension>
            <ns3:atemp>23.0</ns3:atemp>
          </ns3:TrackPointExtension>
        </extensions>
      </trkpt>
      <trkpt lat="42.51501020975410938262939453125" lon="20.1484957896173000335693359375">
        <ele>2168.199951171875</ele>
        <time>2026-06-20T10:03:51.000Z</time>
        <extensions>
          <ns3:TrackPointExtension>
            <ns3:atemp>23.0</ns3:atemp>
          </ns3:TrackPointExtension>
        </extensions>
      </trkpt>
      <trkpt lat="42.515011467039585113525390625" lon="20.14854155480861663818359375">
        <ele>2168</ele>
        <time>2026-06-20T10:03:52.000Z</time>
        <extensions>
          <ns3:TrackPointExtension>
            <ns3:atemp>23.0</ns3:atemp>
          </ns3:TrackPointExtension>
        </extensions>
      </trkpt>
      <trkpt lat="42.51501171849668025970458984375" lon="20.14858891256153583526611328125">
        <ele>2168</ele>
        <time>2026-06-20T10:03:53.000Z</time>
        <extensions>
          <ns3:TrackPointExtension>
            <ns3:atemp>23.0</ns3:atemp>
          </ns3:TrackPointExtension>
        </extensions>
      </trkpt>
      <trkpt lat="42.5150126405060291290283203125" lon="20.1486302353441715240478515625">
        <ele>2167.800048828125</ele>
        <time>2026-06-20T10:03:54.000Z</time>
        <extensions>
          <ns3:TrackPointExtension>
            <ns3:atemp>23.0</ns3:atemp>
          </ns3:TrackPointExtension>
        </extensions>
      </trkpt>
      <trkpt lat="42.515012808144092559814453125" lon="20.14867390505969524383544921875">
        <ele>2167.60009765625</ele>
        <time>2026-06-20T10:03:55.000Z</time>
        <extensions>
          <ns3:TrackPointExtension>
            <ns3:atemp>23.0</ns3:atemp>
          </ns3:TrackPointExtension>
        </extensions>
      </trkpt>
      <trkpt lat="42.51501289196312427520751953125" lon="20.148713551461696624755859375">
        <ele>2167.39990234375</ele>
        <time>2026-06-20T10:03:56.000Z</time>
        <extensions>
          <ns3:TrackPointExtension>
            <ns3:atemp>23.0</ns3:atemp>
          </ns3:TrackPointExtension>
        </extensions>
      </trkpt>
      <trkpt lat="42.51501238904893398284912109375" lon="20.14875420369207859039306640625">
        <ele>2167.39990234375</ele>
        <time>2026-06-20T10:03:57.000Z</time>
        <extensions>
          <ns3:TrackPointExtension>
            <ns3:atemp>23.0</ns3:atemp>
          </ns3:TrackPointExtension>
        </extensions>
      </trkpt>
      <trkpt lat="42.5150116346776485443115234375" lon="20.14879141934216022491455078125">
        <ele>2167.199951171875</ele>
        <time>2026-06-20T10:03:58.000Z</time>
        <extensions>
          <ns3:TrackPointExtension>
            <ns3:atemp>23.0</ns3:atemp>
          </ns3:TrackPointExtension>
        </extensions>
      </trkpt>
      <trkpt lat="42.5150099582970142364501953125" lon="20.1488260366022586822509765625">
        <ele>2167.199951171875</ele>
        <time>2026-06-20T10:03:59.000Z</time>
        <extensions>
          <ns3:TrackPointExtension>
            <ns3:atemp>23.0</ns3:atemp>
          </ns3:TrackPointExtension>
        </extensions>
      </trkpt>
      <trkpt lat="42.51500719226896762847900390625" lon="20.148863084614276885986328125">
        <ele>2167.39990234375</ele>
        <time>2026-06-20T10:04:00.000Z</time>
        <extensions>
          <ns3:TrackPointExtension>
            <ns3:atemp>23.0</ns3:atemp>
          </ns3:TrackPointExtension>
        </extensions>
      </trkpt>
      <trkpt lat="42.51500451005995273590087890625" lon="20.14888621866703033447265625">
        <ele>2167.39990234375</ele>
        <time>2026-06-20T10:04:01.000Z</time>
        <extensions>
          <ns3:TrackPointExtension>
            <ns3:atemp>23.0</ns3:atemp>
          </ns3:TrackPointExtension>
        </extensions>
      </trkpt>
      <trkpt lat="42.5150005705654621124267578125" lon="20.148883871734142303466796875">
        <ele>2167.39990234375</ele>
        <time>2026-06-20T10:04:02.000Z</time>
        <extensions>
          <ns3:TrackPointExtension>
            <ns3:atemp>23.0</ns3:atemp>
          </ns3:TrackPointExtension>
        </extensions>
      </trkpt>
      <trkpt lat="42.515000738203525543212890625" lon="20.14887725003063678741455078125">
        <ele>2167.60009765625</ele>
        <time>2026-06-20T10:04:03.000Z</time>
        <extensions>
          <ns3:TrackPointExtension>
            <ns3:atemp>23.0</ns3:atemp>
          </ns3:TrackPointExtension>
        </extensions>
      </trkpt>
      <trkpt lat="42.515000738203525543212890625" lon="20.14887725003063678741455078125">
        <ele>2167.60009765625</ele>
        <time>2026-06-20T10:04:04.000Z</time>
        <extensions>
          <ns3:TrackPointExtension>
            <ns3:atemp>23.0</ns3:atemp>
          </ns3:TrackPointExtension>
        </extensions>
      </trkpt>
      <trkpt lat="42.515000738203525543212890625" lon="20.14887725003063678741455078125">
        <ele>2167.800048828125</ele>
        <time>2026-06-20T10:04:05.000Z</time>
        <extensions>
          <ns3:TrackPointExtension>
            <ns3:atemp>23.0</ns3:atemp>
          </ns3:TrackPointExtension>
        </extensions>
      </trkpt>
      <trkpt lat="42.515000738203525543212890625" lon="20.14887725003063678741455078125">
        <ele>2167.800048828125</ele>
        <time>2026-06-20T10:04:06.000Z</time>
        <extensions>
          <ns3:TrackPointExtension>
            <ns3:atemp>23.0</ns3:atemp>
          </ns3:TrackPointExtension>
        </extensions>
      </trkpt>
      <trkpt lat="42.515000738203525543212890625" lon="20.14887725003063678741455078125">
        <ele>2167.800048828125</ele>
        <time>2026-06-20T10:04:07.000Z</time>
        <extensions>
          <ns3:TrackPointExtension>
            <ns3:atemp>23.0</ns3:atemp>
          </ns3:TrackPointExtension>
        </extensions>
      </trkpt>
      <trkpt lat="42.515000738203525543212890625" lon="20.14887725003063678741455078125">
        <ele>2167.60009765625</ele>
        <time>2026-06-20T10:04:08.000Z</time>
        <extensions>
          <ns3:TrackPointExtension>
            <ns3:atemp>23.0</ns3:atemp>
          </ns3:TrackPointExtension>
        </extensions>
      </trkpt>
      <trkpt lat="42.51500082202255725860595703125" lon="20.14887708239257335662841796875">
        <ele>2167.60009765625</ele>
        <time>2026-06-20T10:04:09.000Z</time>
        <extensions>
          <ns3:TrackPointExtension>
            <ns3:atemp>23.0</ns3:atemp>
          </ns3:TrackPointExtension>
        </extensions>
      </trkpt>
      <trkpt lat="42.51500166021287441253662109375" lon="20.14887490309774875640869140625">
        <ele>2167.800048828125</ele>
        <time>2026-06-20T10:04:10.000Z</time>
        <extensions>
          <ns3:TrackPointExtension>
            <ns3:atemp>23.0</ns3:atemp>
          </ns3:TrackPointExtension>
        </extensions>
      </trkpt>
      <trkpt lat="42.51500015147030353546142578125" lon="20.14886568300426006317138671875">
        <ele>2168</ele>
        <time>2026-06-20T10:04:11.000Z</time>
        <extensions>
          <ns3:TrackPointExtension>
            <ns3:atemp>23.0</ns3:atemp>
          </ns3:TrackPointExtension>
        </extensions>
      </trkpt>
      <trkpt lat="42.51500652171671390533447265625" lon="20.14885813929140567779541015625">
        <ele>2168</ele>
        <time>2026-06-20T10:04:12.000Z</time>
        <extensions>
          <ns3:TrackPointExtension>
            <ns3:atemp>23.0</ns3:atemp>
          </ns3:TrackPointExtension>
        </extensions>
      </trkpt>
      <trkpt lat="42.51500853337347507476806640625" lon="20.14885143376886844635009765625">
        <ele>2168.39990234375</ele>
        <time>2026-06-20T10:04:13.000Z</time>
        <extensions>
          <ns3:TrackPointExtension>
            <ns3:atemp>23.0</ns3:atemp>
          </ns3:TrackPointExtension>
        </extensions>
      </trkpt>
      <trkpt lat="42.5150102935731410980224609375" lon="20.14885327778756618499755859375">
        <ele>2168.60009765625</ele>
        <time>2026-06-20T10:04:14.000Z</time>
        <extensions>
          <ns3:TrackPointExtension>
            <ns3:atemp>23.0</ns3:atemp>
          </ns3:TrackPointExtension>
        </extensions>
      </trkpt>
      <trkpt lat="42.51501020975410938262939453125" lon="20.148853361606597900390625">
        <ele>2168.60009765625</ele>
        <time>2026-06-20T10:04:15.000Z</time>
        <extensions>
          <ns3:TrackPointExtension>
            <ns3:atemp>23.0</ns3:atemp>
          </ns3:TrackPointExtension>
        </extensions>
      </trkpt>
      <trkpt lat="42.51501020975410938262939453125" lon="20.148853361606597900390625">
        <ele>2168.199951171875</ele>
        <time>2026-06-20T10:04:16.000Z</time>
        <extensions>
          <ns3:TrackPointExtension>
            <ns3:atemp>23.0</ns3:atemp>
          </ns3:TrackPointExtension>
        </extensions>
      </trkpt>
      <trkpt lat="42.51501020975410938262939453125" lon="20.148853361606597900390625">
        <ele>2168</ele>
        <time>2026-06-20T10:04:17.000Z</time>
        <extensions>
          <ns3:TrackPointExtension>
            <ns3:atemp>23.0</ns3:atemp>
          </ns3:TrackPointExtension>
        </extensions>
      </trkpt>
      <trkpt lat="42.51501020975410938262939453125" lon="20.148853361606597900390625">
        <ele>2168.199951171875</ele>
        <time>2026-06-20T10:04:18.000Z</time>
        <extensions>
          <ns3:TrackPointExtension>
            <ns3:atemp>23.0</ns3:atemp>
          </ns3:TrackPointExtension>
        </extensions>
      </trkpt>
      <trkpt lat="42.51501004211604595184326171875" lon="20.14885344542562961578369140625">
        <ele>2168.199951171875</ele>
        <time>2026-06-20T10:04:19.000Z</time>
        <extensions>
          <ns3:TrackPointExtension>
            <ns3:atemp>23.0</ns3:atemp>
          </ns3:TrackPointExtension>
        </extensions>
      </trkpt>
      <trkpt lat="42.5150099582970142364501953125" lon="20.1488387770950794219970703125">
        <ele>2168.199951171875</ele>
        <time>2026-06-20T10:04:20.000Z</time>
        <extensions>
          <ns3:TrackPointExtension>
            <ns3:atemp>23.0</ns3:atemp>
          </ns3:TrackPointExtension>
        </extensions>
      </trkpt>
      <trkpt lat="42.51501305960118770599365234375" lon="20.14881337992846965789794921875">
        <ele>2168.199951171875</ele>
        <time>2026-06-20T10:04:21.000Z</time>
        <extensions>
          <ns3:TrackPointExtension>
            <ns3:atemp>23.0</ns3:atemp>
          </ns3:TrackPointExtension>
        </extensions>
      </trkpt>
      <trkpt lat="42.5150151550769805908203125" lon="20.1487822830677032470703125">
        <ele>2168.199951171875</ele>
        <time>2026-06-20T10:04:22.000Z</time>
        <extensions>
          <ns3:TrackPointExtension>
            <ns3:atemp>23.0</ns3:atemp>
          </ns3:TrackPointExtension>
        </extensions>
      </trkpt>
      <trkpt lat="42.5150146521627902984619140625" lon="20.14875219203531742095947265625">
        <ele>2168.199951171875</ele>
        <time>2026-06-20T10:04:23.000Z</time>
        <extensions>
          <ns3:TrackPointExtension>
            <ns3:atemp>23.0</ns3:atemp>
          </ns3:TrackPointExtension>
        </extensions>
      </trkpt>
      <trkpt lat="42.515014149248600006103515625" lon="20.14871723949909210205078125">
        <ele>2168.39990234375</ele>
        <time>2026-06-20T10:04:24.000Z</time>
        <extensions>
          <ns3:TrackPointExtension>
            <ns3:atemp>23.0</ns3:atemp>
          </ns3:TrackPointExtension>
        </extensions>
      </trkpt>
      <trkpt lat="42.51501373015344142913818359375" lon="20.14867968857288360595703125">
        <ele>2168.199951171875</ele>
        <time>2026-06-20T10:04:25.000Z</time>
        <extensions>
          <ns3:TrackPointExtension>
            <ns3:atemp>23.0</ns3:atemp>
          </ns3:TrackPointExtension>
        </extensions>
      </trkpt>
      <trkpt lat="42.51501104794442653656005859375" lon="20.1486428081989288330078125">
        <ele>2168.199951171875</ele>
        <time>2026-06-20T10:04:26.000Z</time>
        <extensions>
          <ns3:TrackPointExtension>
            <ns3:atemp>23.0</ns3:atemp>
          </ns3:TrackPointExtension>
        </extensions>
      </trkpt>
      <trkpt lat="42.51501046121120452880859375" lon="20.14860601164400577545166015625">
        <ele>2168.199951171875</ele>
        <time>2026-06-20T10:04:27.000Z</time>
        <extensions>
          <ns3:TrackPointExtension>
            <ns3:atemp>23.0</ns3:atemp>
          </ns3:TrackPointExtension>
        </extensions>
      </trkpt>
      <trkpt lat="42.51501071266829967498779296875" lon="20.14856695197522640228271484375">
        <ele>2168</ele>
        <time>2026-06-20T10:04:28.000Z</time>
        <extensions>
          <ns3:TrackPointExtension>
            <ns3:atemp>23.0</ns3:atemp>
          </ns3:TrackPointExtension>
        </extensions>
      </trkpt>
      <trkpt lat="42.51501037739217281341552734375" lon="20.1485269702970981597900390625">
        <ele>2168</ele>
        <time>2026-06-20T10:04:29.000Z</time>
        <extensions>
          <ns3:TrackPointExtension>
            <ns3:atemp>23.0</ns3:atemp>
          </ns3:TrackPointExtension>
        </extensions>
      </trkpt>
      <trkpt lat="42.515006102621555328369140625" lon="20.14848698861896991729736328125">
        <ele>2168</ele>
        <time>2026-06-20T10:04:30.000Z</time>
        <extensions>
          <ns3:TrackPointExtension>
            <ns3:atemp>23.0</ns3:atemp>
          </ns3:TrackPointExtension>
        </extensions>
      </trkpt>
      <trkpt lat="42.515001408755779266357421875" lon="20.14844474382698535919189453125">
        <ele>2168</ele>
        <time>2026-06-20T10:04:31.000Z</time>
        <extensions>
          <ns3:TrackPointExtension>
            <ns3:atemp>23.0</ns3:atemp>
          </ns3:TrackPointExtension>
        </extensions>
      </trkpt>
      <trkpt lat="42.51499461941421031951904296875" lon="20.14840551652014255523681640625">
        <ele>2168</ele>
        <time>2026-06-20T10:04:32.000Z</time>
        <extensions>
          <ns3:TrackPointExtension>
            <ns3:atemp>23.0</ns3:atemp>
          </ns3:TrackPointExtension>
        </extensions>
      </trkpt>
      <trkpt lat="42.51498674042522907257080078125" lon="20.14837048016488552093505859375">
        <ele>2168.199951171875</ele>
        <time>2026-06-20T10:04:33.000Z</time>
        <extensions>
          <ns3:TrackPointExtension>
            <ns3:atemp>22.0</ns3:atemp>
          </ns3:TrackPointExtension>
        </extensions>
      </trkpt>
      <trkpt lat="42.51497969962656497955322265625" lon="20.148335359990596771240234375">
        <ele>2168.39990234375</ele>
        <time>2026-06-20T10:04:34.000Z</time>
        <extensions>
          <ns3:TrackPointExtension>
            <ns3:atemp>22.0</ns3:atemp>
          </ns3:TrackPointExtension>
        </extensions>
      </trkpt>
      <trkpt lat="42.51497115008533000946044921875" lon="20.14829881489276885986328125">
        <ele>2168.60009765625</ele>
        <time>2026-06-20T10:04:35.000Z</time>
        <extensions>
          <ns3:TrackPointExtension>
            <ns3:atemp>22.0</ns3:atemp>
          </ns3:TrackPointExtension>
        </extensions>
      </trkpt>
      <trkpt lat="42.5149653665721416473388671875" lon="20.14826285652816295623779296875">
        <ele>2168.800048828125</ele>
        <time>2026-06-20T10:04:36.000Z</time>
        <extensions>
          <ns3:TrackPointExtension>
            <ns3:atemp>22.0</ns3:atemp>
          </ns3:TrackPointExtension>
        </extensions>
      </trkpt>
      <trkpt lat="42.51496084034442901611328125" lon="20.14822916127741336822509765625">
        <ele>2169.199951171875</ele>
        <time>2026-06-20T10:04:37.000Z</time>
        <extensions>
          <ns3:TrackPointExtension>
            <ns3:atemp>22.0</ns3:atemp>
          </ns3:TrackPointExtension>
        </extensions>
      </trkpt>
      <trkpt lat="42.514955811202526092529296875" lon="20.1481930352747440338134765625">
        <ele>2169.39990234375</ele>
        <time>2026-06-20T10:04:38.000Z</time>
        <extensions>
          <ns3:TrackPointExtension>
            <ns3:atemp>22.0</ns3:atemp>
          </ns3:TrackPointExtension>
        </extensions>
      </trkpt>
      <trkpt lat="42.51495002768933773040771484375" lon="20.1481578312814235687255859375">
        <ele>2169.60009765625</ele>
        <time>2026-06-20T10:04:39.000Z</time>
        <extensions>
          <ns3:TrackPointExtension>
            <ns3:atemp>22.0</ns3:atemp>
          </ns3:TrackPointExtension>
        </extensions>
      </trkpt>
      <trkpt lat="42.514942400157451629638671875" lon="20.148124806582927703857421875">
        <ele>2170</ele>
        <time>2026-06-20T10:04:40.000Z</time>
        <extensions>
          <ns3:TrackPointExtension>
            <ns3:atemp>22.0</ns3:atemp>
          </ns3:TrackPointExtension>
        </extensions>
      </trkpt>
      <trkpt lat="42.5149378739297389984130859375" lon="20.1480944640934467315673828125">
        <ele>2170.39990234375</ele>
        <time>2026-06-20T10:04:41.000Z</time>
        <extensions>
          <ns3:TrackPointExtension>
            <ns3:atemp>22.0</ns3:atemp>
          </ns3:TrackPointExtension>
        </extensions>
      </trkpt>
      <trkpt lat="42.5149335153400897979736328125" lon="20.14806814491748809814453125">
        <ele>2170.60009765625</ele>
        <time>2026-06-20T10:04:42.000Z</time>
        <extensions>
          <ns3:TrackPointExtension>
            <ns3:atemp>22.0</ns3:atemp>
          </ns3:TrackPointExtension>
        </extensions>
      </trkpt>
      <trkpt lat="42.514928989112377166748046875" lon="20.14805247075855731964111328125">
        <ele>2170.800048828125</ele>
        <time>2026-06-20T10:04:43.000Z</time>
        <extensions>
          <ns3:TrackPointExtension>
            <ns3:atemp>22.0</ns3:atemp>
          </ns3:TrackPointExtension>
        </extensions>
      </trkpt>
      <trkpt lat="42.51492454670369625091552734375" lon="20.14805163256824016571044921875">
        <ele>2171</ele>
        <time>2026-06-20T10:04:44.000Z</time>
        <extensions>
          <ns3:TrackPointExtension>
            <ns3:atemp>22.0</ns3:atemp>
          </ns3:TrackPointExtension>
        </extensions>
      </trkpt>
      <trkpt lat="42.514925301074981689453125" lon="20.148050375282764434814453125">
        <ele>2171.199951171875</ele>
        <time>2026-06-20T10:04:45.000Z</time>
        <extensions>
          <ns3:TrackPointExtension>
            <ns3:atemp>23.0</ns3:atemp>
          </ns3:TrackPointExtension>
        </extensions>
      </trkpt>
      <trkpt lat="42.51492504961788654327392578125" lon="20.148050375282764434814453125">
        <ele>2171.39990234375</ele>
        <time>2026-06-20T10:04:46.000Z</time>
        <extensions>
          <ns3:TrackPointExtension>
            <ns3:atemp>23.0</ns3:atemp>
          </ns3:TrackPointExtension>
        </extensions>
      </trkpt>
      <trkpt lat="42.51492504961788654327392578125" lon="20.148050375282764434814453125">
        <ele>2171.60009765625</ele>
        <time>2026-06-20T10:04:47.000Z</time>
        <extensions>
          <ns3:TrackPointExtension>
            <ns3:atemp>22.0</ns3:atemp>
          </ns3:TrackPointExtension>
        </extensions>
      </trkpt>
      <trkpt lat="42.51492504961788654327392578125" lon="20.148050375282764434814453125">
        <ele>2171.60009765625</ele>
        <time>2026-06-20T10:04:48.000Z</time>
        <extensions>
          <ns3:TrackPointExtension>
            <ns3:atemp>22.0</ns3:atemp>
          </ns3:TrackPointExtension>
        </extensions>
      </trkpt>
      <trkpt lat="42.51492504961788654327392578125" lon="20.148050375282764434814453125">
        <ele>2171.60009765625</ele>
        <time>2026-06-20T10:04:49.000Z</time>
        <extensions>
          <ns3:TrackPointExtension>
            <ns3:atemp>23.0</ns3:atemp>
          </ns3:TrackPointExtension>
        </extensions>
      </trkpt>
      <trkpt lat="42.51492504961788654327392578125" lon="20.148050375282764434814453125">
        <ele>2171.39990234375</ele>
        <time>2026-06-20T10:04:50.000Z</time>
        <extensions>
          <ns3:TrackPointExtension>
            <ns3:atemp>23.0</ns3:atemp>
          </ns3:TrackPointExtension>
        </extensions>
      </trkpt>
      <trkpt lat="42.51492504961788654327392578125" lon="20.148050375282764434814453125">
        <ele>2171.39990234375</ele>
        <time>2026-06-20T10:04:51.000Z</time>
        <extensions>
          <ns3:TrackPointExtension>
            <ns3:atemp>23.0</ns3:atemp>
          </ns3:TrackPointExtension>
        </extensions>
      </trkpt>
      <trkpt lat="42.51492504961788654327392578125" lon="20.148050375282764434814453125">
        <ele>2171.39990234375</ele>
        <time>2026-06-20T10:04:52.000Z</time>
        <extensions>
          <ns3:TrackPointExtension>
            <ns3:atemp>22.0</ns3:atemp>
          </ns3:TrackPointExtension>
        </extensions>
      </trkpt>
      <trkpt lat="42.51492504961788654327392578125" lon="20.148050375282764434814453125">
        <ele>2171.39990234375</ele>
        <time>2026-06-20T10:04:53.000Z</time>
        <extensions>
          <ns3:TrackPointExtension>
            <ns3:atemp>22.0</ns3:atemp>
          </ns3:TrackPointExtension>
        </extensions>
      </trkpt>
      <trkpt lat="42.51492504961788654327392578125" lon="20.148050375282764434814453125">
        <ele>2171.39990234375</ele>
        <time>2026-06-20T10:04:54.000Z</time>
        <extensions>
          <ns3:TrackPointExtension>
            <ns3:atemp>22.0</ns3:atemp>
          </ns3:TrackPointExtension>
        </extensions>
      </trkpt>
      <trkpt lat="42.51492488197982311248779296875" lon="20.14805029146373271942138671875">
        <ele>2171.800048828125</ele>
        <time>2026-06-20T10:04:55.000Z</time>
        <extensions>
          <ns3:TrackPointExtension>
            <ns3:atemp>22.0</ns3:atemp>
          </ns3:TrackPointExtension>
        </extensions>
      </trkpt>
      <trkpt lat="42.51492504961788654327392578125" lon="20.148050375282764434814453125">
        <ele>2171.800048828125</ele>
        <time>2026-06-20T10:04:56.000Z</time>
        <extensions>
          <ns3:TrackPointExtension>
            <ns3:atemp>22.0</ns3:atemp>
          </ns3:TrackPointExtension>
        </extensions>
      </trkpt>
      <trkpt lat="42.51492504961788654327392578125" lon="20.148050375282764434814453125">
        <ele>2172</ele>
        <time>2026-06-20T10:04:57.000Z</time>
        <extensions>
          <ns3:TrackPointExtension>
            <ns3:atemp>22.0</ns3:atemp>
          </ns3:TrackPointExtension>
        </extensions>
      </trkpt>
      <trkpt lat="42.51492504961788654327392578125" lon="20.148050375282764434814453125">
        <ele>2172.199951171875</ele>
        <time>2026-06-20T10:04:58.000Z</time>
        <extensions>
          <ns3:TrackPointExtension>
            <ns3:atemp>22.0</ns3:atemp>
          </ns3:TrackPointExtension>
        </extensions>
      </trkpt>
      <trkpt lat="42.51492521725594997406005859375" lon="20.14805138111114501953125">
        <ele>2172.199951171875</ele>
        <time>2026-06-20T10:04:59.000Z</time>
        <extensions>
          <ns3:TrackPointExtension>
            <ns3:atemp>22.0</ns3:atemp>
          </ns3:TrackPointExtension>
        </extensions>
      </trkpt>
      <trkpt lat="42.51492102630436420440673828125" lon="20.148056410253047943115234375">
        <ele>2172.199951171875</ele>
        <time>2026-06-20T10:05:00.000Z</time>
        <extensions>
          <ns3:TrackPointExtension>
            <ns3:atemp>22.0</ns3:atemp>
          </ns3:TrackPointExtension>
        </extensions>
      </trkpt>
      <trkpt lat="42.51492253504693508148193359375" lon="20.1480626128613948822021484375">
        <ele>2172.39990234375</ele>
        <time>2026-06-20T10:05:01.000Z</time>
        <extensions>
          <ns3:TrackPointExtension>
            <ns3:atemp>22.0</ns3:atemp>
          </ns3:TrackPointExtension>
        </extensions>
      </trkpt>
      <trkpt lat="42.51492270268499851226806640625" lon="20.14807158149778842926025390625">
        <ele>2172.39990234375</ele>
        <time>2026-06-20T10:05:02.000Z</time>
        <extensions>
          <ns3:TrackPointExtension>
            <ns3:atemp>22.0</ns3:atemp>
          </ns3:TrackPointExtension>
        </extensions>
      </trkpt>
      <trkpt lat="42.5149247981607913970947265625" lon="20.148075185716152191162109375">
        <ele>2172.39990234375</ele>
        <time>2026-06-20T10:05:03.000Z</time>
        <extensions>
          <ns3:TrackPointExtension>
            <ns3:atemp>22.0</ns3:atemp>
          </ns3:TrackPointExtension>
        </extensions>
      </trkpt>
      <trkpt lat="42.51492488197982311248779296875" lon="20.14807526953518390655517578125">
        <ele>2172.39990234375</ele>
        <time>2026-06-20T10:05:04.000Z</time>
        <extensions>
          <ns3:TrackPointExtension>
            <ns3:atemp>22.0</ns3:atemp>
          </ns3:TrackPointExtension>
        </extensions>
      </trkpt>
      <trkpt lat="42.51492488197982311248779296875" lon="20.14807526953518390655517578125">
        <ele>2172</ele>
        <time>2026-06-20T10:05:05.000Z</time>
        <extensions>
          <ns3:TrackPointExtension>
            <ns3:atemp>22.0</ns3:atemp>
          </ns3:TrackPointExtension>
        </extensions>
      </trkpt>
      <trkpt lat="42.51492488197982311248779296875" lon="20.14807526953518390655517578125">
        <ele>2171.39990234375</ele>
        <time>2026-06-20T10:05:06.000Z</time>
        <extensions>
          <ns3:TrackPointExtension>
            <ns3:atemp>22.0</ns3:atemp>
          </ns3:TrackPointExtension>
        </extensions>
      </trkpt>
      <trkpt lat="42.51492488197982311248779296875" lon="20.14807526953518390655517578125">
        <ele>2171</ele>
        <time>2026-06-20T10:05:07.000Z</time>
        <extensions>
          <ns3:TrackPointExtension>
            <ns3:atemp>22.0</ns3:atemp>
          </ns3:TrackPointExtension>
        </extensions>
      </trkpt>
      <trkpt lat="42.51492488197982311248779296875" lon="20.14807526953518390655517578125">
        <ele>2170.800048828125</ele>
        <time>2026-06-20T10:05:08.000Z</time>
        <extensions>
          <ns3:TrackPointExtension>
            <ns3:atemp>22.0</ns3:atemp>
          </ns3:TrackPointExtension>
        </extensions>
      </trkpt>
      <trkpt lat="42.51492488197982311248779296875" lon="20.14807526953518390655517578125">
        <ele>2170.60009765625</ele>
        <time>2026-06-20T10:05:09.000Z</time>
        <extensions>
          <ns3:TrackPointExtension>
            <ns3:atemp>22.0</ns3:atemp>
          </ns3:TrackPointExtension>
        </extensions>
      </trkpt>
      <trkpt lat="42.51492488197982311248779296875" lon="20.14807526953518390655517578125">
        <ele>2170.800048828125</ele>
        <time>2026-06-20T10:05:10.000Z</time>
        <extensions>
          <ns3:TrackPointExtension>
            <ns3:atemp>22.0</ns3:atemp>
          </ns3:TrackPointExtension>
        </extensions>
      </trkpt>
      <trkpt lat="42.51492504961788654327392578125" lon="20.14807610772550106048583984375">
        <ele>2171</ele>
        <time>2026-06-20T10:05:11.000Z</time>
        <extensions>
          <ns3:TrackPointExtension>
            <ns3:atemp>22.0</ns3:atemp>
          </ns3:TrackPointExtension>
        </extensions>
      </trkpt>
      <trkpt lat="42.5149325095117092132568359375" lon="20.14810661785304546356201171875">
        <ele>2171</ele>
        <time>2026-06-20T10:05:12.000Z</time>
        <extensions>
          <ns3:TrackPointExtension>
            <ns3:atemp>22.0</ns3:atemp>
          </ns3:TrackPointExtension>
        </extensions>
      </trkpt>
      <trkpt lat="42.5149372033774852752685546875" lon="20.14812623150646686553955078125">
        <ele>2171.199951171875</ele>
        <time>2026-06-20T10:05:13.000Z</time>
        <extensions>
          <ns3:TrackPointExtension>
            <ns3:atemp>22.0</ns3:atemp>
          </ns3:TrackPointExtension>
        </extensions>
      </trkpt>
      <trkpt lat="42.514941729605197906494140625" lon="20.14815137721598148345947265625">
        <ele>2171.199951171875</ele>
        <time>2026-06-20T10:05:14.000Z</time>
        <extensions>
          <ns3:TrackPointExtension>
            <ns3:atemp>22.0</ns3:atemp>
          </ns3:TrackPointExtension>
        </extensions>
      </trkpt>
      <trkpt lat="42.51494918949902057647705078125" lon="20.1481759361922740936279296875">
        <ele>2171</ele>
        <time>2026-06-20T10:05:15.000Z</time>
        <extensions>
          <ns3:TrackPointExtension>
            <ns3:atemp>22.0</ns3:atemp>
          </ns3:TrackPointExtension>
        </extensions>
      </trkpt>
      <trkpt lat="42.514957152307033538818359375" lon="20.1481997407972812652587890625">
        <ele>2171</ele>
        <time>2026-06-20T10:05:16.000Z</time>
        <extensions>
          <ns3:TrackPointExtension>
            <ns3:atemp>22.0</ns3:atemp>
          </ns3:TrackPointExtension>
        </extensions>
      </trkpt>
      <trkpt lat="42.5149623490869998931884765625" lon="20.14822446741163730621337890625">
        <ele>2170.60009765625</ele>
        <time>2026-06-20T10:05:17.000Z</time>
        <extensions>
          <ns3:TrackPointExtension>
            <ns3:atemp>22.0</ns3:atemp>
          </ns3:TrackPointExtension>
        </extensions>
      </trkpt>
      <trkpt lat="42.5149663724005222320556640625" lon="20.1482530497014522552490234375">
        <ele>2170.39990234375</ele>
        <time>2026-06-20T10:05:18.000Z</time>
        <extensions>
          <ns3:TrackPointExtension>
            <ns3:atemp>22.0</ns3:atemp>
          </ns3:TrackPointExtension>
        </extensions>
      </trkpt>
      <trkpt lat="42.51497291028499603271484375" lon="20.1482862420380115509033203125">
        <ele>2170.199951171875</ele>
        <time>2026-06-20T10:05:19.000Z</time>
        <extensions>
          <ns3:TrackPointExtension>
            <ns3:atemp>22.0</ns3:atemp>
          </ns3:TrackPointExtension>
        </extensions>
      </trkpt>
      <trkpt lat="42.51498137600719928741455078125" lon="20.14833091758191585540771484375">
        <ele>2169.800048828125</ele>
        <time>2026-06-20T10:05:20.000Z</time>
        <extensions>
          <ns3:TrackPointExtension>
            <ns3:atemp>22.0</ns3:atemp>
          </ns3:TrackPointExtension>
        </extensions>
      </trkpt>
      <trkpt lat="42.5149911828339099884033203125" lon="20.14838196337223052978515625">
        <ele>2169.60009765625</ele>
        <time>2026-06-20T10:05:21.000Z</time>
        <extensions>
          <ns3:TrackPointExtension>
            <ns3:atemp>22.0</ns3:atemp>
          </ns3:TrackPointExtension>
        </extensions>
      </trkpt>
      <trkpt lat="42.51499981619417667388916015625" lon="20.14843502081930637359619140625">
        <ele>2169.199951171875</ele>
        <time>2026-06-20T10:05:22.000Z</time>
        <extensions>
          <ns3:TrackPointExtension>
            <ns3:atemp>22.0</ns3:atemp>
          </ns3:TrackPointExtension>
        </extensions>
      </trkpt>
      <trkpt lat="42.51500551588833332061767578125" lon="20.14848883263766765594482421875">
        <ele>2168.800048828125</ele>
        <time>2026-06-20T10:05:23.000Z</time>
        <extensions>
          <ns3:TrackPointExtension>
            <ns3:atemp>22.0</ns3:atemp>
          </ns3:TrackPointExtension>
        </extensions>
      </trkpt>
      <trkpt lat="42.51500702463090419769287109375" lon="20.14854784123599529266357421875">
        <ele>2168.39990234375</ele>
        <time>2026-06-20T10:05:24.000Z</time>
        <extensions>
          <ns3:TrackPointExtension>
            <ns3:atemp>22.0</ns3:atemp>
          </ns3:TrackPointExtension>
        </extensions>
      </trkpt>
      <trkpt lat="42.515006773173809051513671875" lon="20.14860718511044979095458984375">
        <ele>2168</ele>
        <time>2026-06-20T10:05:25.000Z</time>
        <extensions>
          <ns3:TrackPointExtension>
            <ns3:atemp>22.0</ns3:atemp>
          </ns3:TrackPointExtension>
        </extensions>
      </trkpt>
      <trkpt lat="42.51500920392572879791259765625" lon="20.1486661098897457122802734375">
        <ele>2167.60009765625</ele>
        <time>2026-06-20T10:05:26.000Z</time>
        <extensions>
          <ns3:TrackPointExtension>
            <ns3:atemp>22.0</ns3:atemp>
          </ns3:TrackPointExtension>
        </extensions>
      </trkpt>
      <trkpt lat="42.51501071266829967498779296875" lon="20.14872536994516849517822265625">
        <ele>2167.39990234375</ele>
        <time>2026-06-20T10:05:27.000Z</time>
        <extensions>
          <ns3:TrackPointExtension>
            <ns3:atemp>22.0</ns3:atemp>
          </ns3:TrackPointExtension>
        </extensions>
      </trkpt>
      <trkpt lat="42.51501046121120452880859375" lon="20.14878303743898868560791015625">
        <ele>2167.39990234375</ele>
        <time>2026-06-20T10:05:28.000Z</time>
        <extensions>
          <ns3:TrackPointExtension>
            <ns3:atemp>22.0</ns3:atemp>
          </ns3:TrackPointExtension>
        </extensions>
      </trkpt>
      <trkpt lat="42.51500769518315792083740234375" lon="20.14883969910442829132080078125">
        <ele>2167.39990234375</ele>
        <time>2026-06-20T10:05:29.000Z</time>
        <extensions>
          <ns3:TrackPointExtension>
            <ns3:atemp>22.0</ns3:atemp>
          </ns3:TrackPointExtension>
        </extensions>
      </trkpt>
      <trkpt lat="42.51500484533607959747314453125" lon="20.14889485202729701995849609375">
        <ele>2167.199951171875</ele>
        <time>2026-06-20T10:05:30.000Z</time>
        <extensions>
          <ns3:TrackPointExtension>
            <ns3:atemp>22.0</ns3:atemp>
          </ns3:TrackPointExtension>
        </extensions>
      </trkpt>
      <trkpt lat="42.5150019116699695587158203125" lon="20.1489541120827198028564453125">
        <ele>2167.199951171875</ele>
        <time>2026-06-20T10:05:31.000Z</time>
        <extensions>
          <ns3:TrackPointExtension>
            <ns3:atemp>22.0</ns3:atemp>
          </ns3:TrackPointExtension>
        </extensions>
      </trkpt>
      <trkpt lat="42.5150019116699695587158203125" lon="20.14902041293680667877197265625">
        <ele>2167.199951171875</ele>
        <time>2026-06-20T10:05:32.000Z</time>
        <extensions>
          <ns3:TrackPointExtension>
            <ns3:atemp>22.0</ns3:atemp>
          </ns3:TrackPointExtension>
        </extensions>
      </trkpt>
      <trkpt lat="42.51499746926128864288330078125" lon="20.1490878872573375701904296875">
        <ele>2167.199951171875</ele>
        <time>2026-06-20T10:05:33.000Z</time>
        <extensions>
          <ns3:TrackPointExtension>
            <ns3:atemp>22.0</ns3:atemp>
          </ns3:TrackPointExtension>
        </extensions>
      </trkpt>
      <trkpt lat="42.5149908475577831268310546875" lon="20.1491572894155979156494140625">
        <ele>2167</ele>
        <time>2026-06-20T10:05:34.000Z</time>
        <extensions>
          <ns3:TrackPointExtension>
            <ns3:atemp>22.0</ns3:atemp>
          </ns3:TrackPointExtension>
        </extensions>
      </trkpt>
      <trkpt lat="42.51498632133007049560546875" lon="20.14923197217285633087158203125">
        <ele>2167</ele>
        <time>2026-06-20T10:05:35.000Z</time>
        <extensions>
          <ns3:TrackPointExtension>
            <ns3:atemp>22.0</ns3:atemp>
          </ns3:TrackPointExtension>
        </extensions>
      </trkpt>
      <trkpt lat="42.514986656606197357177734375" lon="20.14930665493011474609375">
        <ele>2166.800048828125</ele>
        <time>2026-06-20T10:05:36.000Z</time>
        <extensions>
          <ns3:TrackPointExtension>
            <ns3:atemp>22.0</ns3:atemp>
          </ns3:TrackPointExtension>
        </extensions>
      </trkpt>
      <trkpt lat="42.51499034464359283447265625" lon="20.1493822596967220306396484375">
        <ele>2166.60009765625</ele>
        <time>2026-06-20T10:05:37.000Z</time>
        <extensions>
          <ns3:TrackPointExtension>
            <ns3:atemp>22.0</ns3:atemp>
          </ns3:TrackPointExtension>
        </extensions>
      </trkpt>
      <trkpt lat="42.51499277539551258087158203125" lon="20.14945962466299533843994140625">
        <ele>2166.39990234375</ele>
        <time>2026-06-20T10:05:38.000Z</time>
        <extensions>
          <ns3:TrackPointExtension>
            <ns3:atemp>22.0</ns3:atemp>
          </ns3:TrackPointExtension>
        </extensions>
      </trkpt>
      <trkpt lat="42.514992021024227142333984375" lon="20.14953254722058773040771484375">
        <ele>2166.199951171875</ele>
        <time>2026-06-20T10:05:39.000Z</time>
        <extensions>
          <ns3:TrackPointExtension>
            <ns3:atemp>22.0</ns3:atemp>
          </ns3:TrackPointExtension>
        </extensions>
      </trkpt>
      <trkpt lat="42.514992021024227142333984375" lon="20.14960664324462413787841796875">
        <ele>2165.800048828125</ele>
        <time>2026-06-20T10:05:40.000Z</time>
        <extensions>
          <ns3:TrackPointExtension>
            <ns3:atemp>22.0</ns3:atemp>
          </ns3:TrackPointExtension>
        </extensions>
      </trkpt>
      <trkpt lat="42.514989674091339111328125" lon="20.14967537485063076019287109375">
        <ele>2165.800048828125</ele>
        <time>2026-06-20T10:05:41.000Z</time>
        <extensions>
          <ns3:TrackPointExtension>
            <ns3:atemp>22.0</ns3:atemp>
          </ns3:TrackPointExtension>
        </extensions>
      </trkpt>
      <trkpt lat="42.51498322002589702606201171875" lon="20.1497398316860198974609375">
        <ele>2165.60009765625</ele>
        <time>2026-06-20T10:05:42.000Z</time>
        <extensions>
          <ns3:TrackPointExtension>
            <ns3:atemp>22.0</ns3:atemp>
          </ns3:TrackPointExtension>
        </extensions>
      </trkpt>
      <trkpt lat="42.5149791128933429718017578125" lon="20.14980311505496501922607421875">
        <ele>2165.60009765625</ele>
        <time>2026-06-20T10:05:43.000Z</time>
        <extensions>
          <ns3:TrackPointExtension>
            <ns3:atemp>22.0</ns3:atemp>
          </ns3:TrackPointExtension>
        </extensions>
      </trkpt>
      <trkpt lat="42.51497693359851837158203125" lon="20.14986522495746612548828125">
        <ele>2165.60009765625</ele>
        <time>2026-06-20T10:05:44.000Z</time>
        <extensions>
          <ns3:TrackPointExtension>
            <ns3:atemp>22.0</ns3:atemp>
          </ns3:TrackPointExtension>
        </extensions>
      </trkpt>
      <trkpt lat="42.5149750895798206329345703125" lon="20.14992532320320606231689453125">
        <ele>2165.39990234375</ele>
        <time>2026-06-20T10:05:45.000Z</time>
        <extensions>
          <ns3:TrackPointExtension>
            <ns3:atemp>22.0</ns3:atemp>
          </ns3:TrackPointExtension>
        </extensions>
      </trkpt>
      <trkpt lat="42.5149722397327423095703125" lon="20.1499847508966922760009765625">
        <ele>2165.199951171875</ele>
        <time>2026-06-20T10:05:46.000Z</time>
        <extensions>
          <ns3:TrackPointExtension>
            <ns3:atemp>22.0</ns3:atemp>
          </ns3:TrackPointExtension>
        </extensions>
      </trkpt>
      <trkpt lat="42.514968551695346832275390625" lon="20.1500477828085422515869140625">
        <ele>2165</ele>
        <time>2026-06-20T10:05:47.000Z</time>
        <extensions>
          <ns3:TrackPointExtension>
            <ns3:atemp>22.0</ns3:atemp>
          </ns3:TrackPointExtension>
        </extensions>
      </trkpt>
      <trkpt lat="42.5149633549153804779052734375" lon="20.1501071266829967498779296875">
        <ele>2164.800048828125</ele>
        <time>2026-06-20T10:05:48.000Z</time>
        <extensions>
          <ns3:TrackPointExtension>
            <ns3:atemp>22.0</ns3:atemp>
          </ns3:TrackPointExtension>
        </extensions>
      </trkpt>
      <trkpt lat="42.514955811202526092529296875" lon="20.15016638673841953277587890625">
        <ele>2164.60009765625</ele>
        <time>2026-06-20T10:05:49.000Z</time>
        <extensions>
          <ns3:TrackPointExtension>
            <ns3:atemp>22.0</ns3:atemp>
          </ns3:TrackPointExtension>
        </extensions>
      </trkpt>
      <trkpt lat="42.5149465911090373992919921875" lon="20.150220282375812530517578125">
        <ele>2164.199951171875</ele>
        <time>2026-06-20T10:05:50.000Z</time>
        <extensions>
          <ns3:TrackPointExtension>
            <ns3:atemp>22.0</ns3:atemp>
          </ns3:TrackPointExtension>
        </extensions>
      </trkpt>
      <trkpt lat="42.51493460498750209808349609375" lon="20.1502643711864948272705078125">
        <ele>2164.199951171875</ele>
        <time>2026-06-20T10:05:51.000Z</time>
        <extensions>
          <ns3:TrackPointExtension>
            <ns3:atemp>22.0</ns3:atemp>
          </ns3:TrackPointExtension>
        </extensions>
      </trkpt>
      <trkpt lat="42.51492354087531566619873046875" lon="20.1503096334636211395263671875">
        <ele>2164.199951171875</ele>
        <time>2026-06-20T10:05:52.000Z</time>
        <extensions>
          <ns3:TrackPointExtension>
            <ns3:atemp>22.0</ns3:atemp>
          </ns3:TrackPointExtension>
        </extensions>
      </trkpt>
      <trkpt lat="42.514914236962795257568359375" lon="20.15035095624625682830810546875">
        <ele>2164.199951171875</ele>
        <time>2026-06-20T10:05:53.000Z</time>
        <extensions>
          <ns3:TrackPointExtension>
            <ns3:atemp>22.0</ns3:atemp>
          </ns3:TrackPointExtension>
        </extensions>
      </trkpt>
      <trkpt lat="42.51490258611738681793212890625" lon="20.15039420686662197113037109375">
        <ele>2164.199951171875</ele>
        <time>2026-06-20T10:05:54.000Z</time>
        <extensions>
          <ns3:TrackPointExtension>
            <ns3:atemp>22.0</ns3:atemp>
          </ns3:TrackPointExtension>
        </extensions>
      </trkpt>
      <trkpt lat="42.51489353366196155548095703125" lon="20.15043896622955799102783203125">
        <ele>2164.39990234375</ele>
        <time>2026-06-20T10:05:55.000Z</time>
        <extensions>
          <ns3:TrackPointExtension>
            <ns3:atemp>22.0</ns3:atemp>
          </ns3:TrackPointExtension>
        </extensions>
      </trkpt>
      <trkpt lat="42.51488062553107738494873046875" lon="20.15048305504024028778076171875">
        <ele>2164.39990234375</ele>
        <time>2026-06-20T10:05:56.000Z</time>
        <extensions>
          <ns3:TrackPointExtension>
            <ns3:atemp>22.0</ns3:atemp>
          </ns3:TrackPointExtension>
        </extensions>
      </trkpt>
      <trkpt lat="42.51487073488533496856689453125" lon="20.1505356095731258392333984375">
        <ele>2164.199951171875</ele>
        <time>2026-06-20T10:05:57.000Z</time>
        <extensions>
          <ns3:TrackPointExtension>
            <ns3:atemp>22.0</ns3:atemp>
          </ns3:TrackPointExtension>
        </extensions>
      </trkpt>
      <trkpt lat="42.51486696302890777587890625" lon="20.1505895890295505523681640625">
        <ele>2164</ele>
        <time>2026-06-20T10:05:58.000Z</time>
        <extensions>
          <ns3:TrackPointExtension>
            <ns3:atemp>22.0</ns3:atemp>
          </ns3:TrackPointExtension>
        </extensions>
      </trkpt>
      <trkpt lat="42.514861933887004852294921875" lon="20.150642059743404388427734375">
        <ele>2163.800048828125</ele>
        <time>2026-06-20T10:05:59.000Z</time>
        <extensions>
          <ns3:TrackPointExtension>
            <ns3:atemp>22.0</ns3:atemp>
          </ns3:TrackPointExtension>
        </extensions>
      </trkpt>
      <trkpt lat="42.51485682092607021331787109375" lon="20.1506931893527507781982421875">
        <ele>2163.800048828125</ele>
        <time>2026-06-20T10:06:00.000Z</time>
        <extensions>
          <ns3:TrackPointExtension>
            <ns3:atemp>22.0</ns3:atemp>
          </ns3:TrackPointExtension>
        </extensions>
      </trkpt>
      <trkpt lat="42.51485447399318218231201171875" lon="20.15074624679982662200927734375">
        <ele>2163.60009765625</ele>
        <time>2026-06-20T10:06:01.000Z</time>
        <extensions>
          <ns3:TrackPointExtension>
            <ns3:atemp>22.0</ns3:atemp>
          </ns3:TrackPointExtension>
        </extensions>
      </trkpt>
      <trkpt lat="42.51485086977481842041015625" lon="20.15079603530466556549072265625">
        <ele>2163.39990234375</ele>
        <time>2026-06-20T10:06:02.000Z</time>
        <extensions>
          <ns3:TrackPointExtension>
            <ns3:atemp>22.0</ns3:atemp>
          </ns3:TrackPointExtension>
        </extensions>
      </trkpt>
      <trkpt lat="42.514845840632915496826171875" lon="20.1508449018001556396484375">
        <ele>2163.199951171875</ele>
        <time>2026-06-20T10:06:03.000Z</time>
        <extensions>
          <ns3:TrackPointExtension>
            <ns3:atemp>22.0</ns3:atemp>
          </ns3:TrackPointExtension>
        </extensions>
      </trkpt>
      <trkpt lat="42.51484424807131290435791015625" lon="20.1508893258869647979736328125">
        <ele>2163</ele>
        <time>2026-06-20T10:06:04.000Z</time>
        <extensions>
          <ns3:TrackPointExtension>
            <ns3:atemp>22.0</ns3:atemp>
          </ns3:TrackPointExtension>
        </extensions>
      </trkpt>
      <trkpt lat="42.51484022475779056549072265625" lon="20.1509329117834568023681640625">
        <ele>2162.800048828125</ele>
        <time>2026-06-20T10:06:05.000Z</time>
        <extensions>
          <ns3:TrackPointExtension>
            <ns3:atemp>22.0</ns3:atemp>
          </ns3:TrackPointExtension>
        </extensions>
      </trkpt>
      <trkpt lat="42.5148325972259044647216796875" lon="20.15097565948963165283203125">
        <ele>2162.60009765625</ele>
        <time>2026-06-20T10:06:06.000Z</time>
        <extensions>
          <ns3:TrackPointExtension>
            <ns3:atemp>22.0</ns3:atemp>
          </ns3:TrackPointExtension>
        </extensions>
      </trkpt>
      <trkpt lat="42.514823041856288909912109375" lon="20.15101731754839420318603515625">
        <ele>2162.60009765625</ele>
        <time>2026-06-20T10:06:07.000Z</time>
        <extensions>
          <ns3:TrackPointExtension>
            <ns3:atemp>22.0</ns3:atemp>
          </ns3:TrackPointExtension>
        </extensions>
      </trkpt>
      <trkpt lat="42.51481331884860992431640625" lon="20.15106593258678913116455078125">
        <ele>2162.39990234375</ele>
        <time>2026-06-20T10:06:08.000Z</time>
        <extensions>
          <ns3:TrackPointExtension>
            <ns3:atemp>22.0</ns3:atemp>
          </ns3:TrackPointExtension>
        </extensions>
      </trkpt>
      <trkpt lat="42.51480183564126491546630859375" lon="20.15111253596842288970947265625">
        <ele>2162.39990234375</ele>
        <time>2026-06-20T10:06:09.000Z</time>
        <extensions>
          <ns3:TrackPointExtension>
            <ns3:atemp>22.0</ns3:atemp>
          </ns3:TrackPointExtension>
        </extensions>
      </trkpt>
      <trkpt lat="42.51478993333876132965087890625" lon="20.151158384978771209716796875">
        <ele>2162.39990234375</ele>
        <time>2026-06-20T10:06:10.000Z</time>
        <extensions>
          <ns3:TrackPointExtension>
            <ns3:atemp>22.0</ns3:atemp>
          </ns3:TrackPointExtension>
        </extensions>
      </trkpt>
      <trkpt lat="42.51478272490203380584716796875" lon="20.15120708383619785308837890625">
        <ele>2162</ele>
        <time>2026-06-20T10:06:11.000Z</time>
        <extensions>
          <ns3:TrackPointExtension>
            <ns3:atemp>22.0</ns3:atemp>
          </ns3:TrackPointExtension>
        </extensions>
      </trkpt>
      <trkpt lat="42.514775097370147705078125" lon="20.15125217847526073455810546875">
        <ele>2161.800048828125</ele>
        <time>2026-06-20T10:06:12.000Z</time>
        <extensions>
          <ns3:TrackPointExtension>
            <ns3:atemp>22.0</ns3:atemp>
          </ns3:TrackPointExtension>
        </extensions>
      </trkpt>
      <trkpt lat="42.51475892029702663421630859375" lon="20.15128285624086856842041015625">
        <ele>2161.800048828125</ele>
        <time>2026-06-20T10:06:13.000Z</time>
        <extensions>
          <ns3:TrackPointExtension>
            <ns3:atemp>22.0</ns3:atemp>
          </ns3:TrackPointExtension>
        </extensions>
      </trkpt>
      <trkpt lat="42.514744587242603302001953125" lon="20.1513047330081462860107421875">
        <ele>2161.60009765625</ele>
        <time>2026-06-20T10:06:14.000Z</time>
        <extensions>
          <ns3:TrackPointExtension>
            <ns3:atemp>22.0</ns3:atemp>
          </ns3:TrackPointExtension>
        </extensions>
      </trkpt>
      <trkpt lat="42.51473042182624340057373046875" lon="20.1513127796351909637451171875">
        <ele>2161.60009765625</ele>
        <time>2026-06-20T10:06:15.000Z</time>
        <extensions>
          <ns3:TrackPointExtension>
            <ns3:atemp>22.0</ns3:atemp>
          </ns3:TrackPointExtension>
        </extensions>
      </trkpt>
      <trkpt lat="42.51471902243793010711669921875" lon="20.151309929788112640380859375">
        <ele>2161.60009765625</ele>
        <time>2026-06-20T10:06:16.000Z</time>
        <extensions>
          <ns3:TrackPointExtension>
            <ns3:atemp>22.0</ns3:atemp>
          </ns3:TrackPointExtension>
        </extensions>
      </trkpt>
      <trkpt lat="42.514709718525409698486328125" lon="20.15130481682717800140380859375">
        <ele>2161.800048828125</ele>
        <time>2026-06-20T10:06:17.000Z</time>
        <extensions>
          <ns3:TrackPointExtension>
            <ns3:atemp>22.0</ns3:atemp>
          </ns3:TrackPointExtension>
        </extensions>
      </trkpt>
      <trkpt lat="42.5147013366222381591796875" lon="20.151294507086277008056640625">
        <ele>2162</ele>
        <time>2026-06-20T10:06:18.000Z</time>
        <extensions>
          <ns3:TrackPointExtension>
            <ns3:atemp>22.0</ns3:atemp>
          </ns3:TrackPointExtension>
        </extensions>
      </trkpt>
      <trkpt lat="42.51470058225095272064208984375" lon="20.151284448802471160888671875">
        <ele>2162</ele>
        <time>2026-06-20T10:06:19.000Z</time>
        <extensions>
          <ns3:TrackPointExtension>
            <ns3:atemp>22.0</ns3:atemp>
          </ns3:TrackPointExtension>
        </extensions>
      </trkpt>
      <trkpt lat="42.51470242626965045928955078125" lon="20.15127095393836498260498046875">
        <ele>2162</ele>
        <time>2026-06-20T10:06:20.000Z</time>
        <extensions>
          <ns3:TrackPointExtension>
            <ns3:atemp>22.0</ns3:atemp>
          </ns3:TrackPointExtension>
        </extensions>
      </trkpt>
      <trkpt lat="42.5147098861634731292724609375" lon="20.151264667510986328125">
        <ele>2162</ele>
        <time>2026-06-20T10:06:21.000Z</time>
        <extensions>
          <ns3:TrackPointExtension>
            <ns3:atemp>22.0</ns3:atemp>
          </ns3:TrackPointExtension>
        </extensions>
      </trkpt>
      <trkpt lat="42.5147112272679805755615234375" lon="20.151261985301971435546875">
        <ele>2162</ele>
        <time>2026-06-20T10:06:22.000Z</time>
        <extensions>
          <ns3:TrackPointExtension>
            <ns3:atemp>22.0</ns3:atemp>
          </ns3:TrackPointExtension>
        </extensions>
      </trkpt>
      <trkpt lat="42.5147112272679805755615234375" lon="20.15126190148293972015380859375">
        <ele>2162</ele>
        <time>2026-06-20T10:06:23.000Z</time>
        <extensions>
          <ns3:TrackPointExtension>
            <ns3:atemp>22.0</ns3:atemp>
          </ns3:TrackPointExtension>
        </extensions>
      </trkpt>
      <trkpt lat="42.5147112272679805755615234375" lon="20.15126190148293972015380859375">
        <ele>2162.199951171875</ele>
        <time>2026-06-20T10:06:24.000Z</time>
        <extensions>
          <ns3:TrackPointExtension>
            <ns3:atemp>22.0</ns3:atemp>
          </ns3:TrackPointExtension>
        </extensions>
      </trkpt>
      <trkpt lat="42.5147112272679805755615234375" lon="20.15126190148293972015380859375">
        <ele>2162.199951171875</ele>
        <time>2026-06-20T10:06:25.000Z</time>
        <extensions>
          <ns3:TrackPointExtension>
            <ns3:atemp>22.0</ns3:atemp>
          </ns3:TrackPointExtension>
        </extensions>
      </trkpt>
      <trkpt lat="42.5147112272679805755615234375" lon="20.15126190148293972015380859375">
        <ele>2162.39990234375</ele>
        <time>2026-06-20T10:06:26.000Z</time>
        <extensions>
          <ns3:TrackPointExtension>
            <ns3:atemp>22.0</ns3:atemp>
          </ns3:TrackPointExtension>
        </extensions>
      </trkpt>
      <trkpt lat="42.5147112272679805755615234375" lon="20.15126190148293972015380859375">
        <ele>2162.60009765625</ele>
        <time>2026-06-20T10:06:27.000Z</time>
        <extensions>
          <ns3:TrackPointExtension>
            <ns3:atemp>22.0</ns3:atemp>
          </ns3:TrackPointExtension>
        </extensions>
      </trkpt>
      <trkpt lat="42.51471131108701229095458984375" lon="20.1512614823877811431884765625">
        <ele>2162.60009765625</ele>
        <time>2026-06-20T10:06:28.000Z</time>
        <extensions>
          <ns3:TrackPointExtension>
            <ns3:atemp>22.0</ns3:atemp>
          </ns3:TrackPointExtension>
        </extensions>
      </trkpt>
      <trkpt lat="42.5147115625441074371337890625" lon="20.1512601412832736968994140625">
        <ele>2162.39990234375</ele>
        <time>2026-06-20T10:06:29.000Z</time>
        <extensions>
          <ns3:TrackPointExtension>
            <ns3:atemp>22.0</ns3:atemp>
          </ns3:TrackPointExtension>
        </extensions>
      </trkpt>
      <trkpt lat="42.5147112272679805755615234375" lon="20.15126190148293972015380859375">
        <ele>2162.39990234375</ele>
        <time>2026-06-20T10:06:30.000Z</time>
        <extensions>
          <ns3:TrackPointExtension>
            <ns3:atemp>22.0</ns3:atemp>
          </ns3:TrackPointExtension>
        </extensions>
      </trkpt>
      <trkpt lat="42.5147112272679805755615234375" lon="20.15126190148293972015380859375">
        <ele>2162.199951171875</ele>
        <time>2026-06-20T10:06:31.000Z</time>
        <extensions>
          <ns3:TrackPointExtension>
            <ns3:atemp>22.0</ns3:atemp>
          </ns3:TrackPointExtension>
        </extensions>
      </trkpt>
      <trkpt lat="42.51471315510571002960205078125" lon="20.15125972218811511993408203125">
        <ele>2162</ele>
        <time>2026-06-20T10:06:32.000Z</time>
        <extensions>
          <ns3:TrackPointExtension>
            <ns3:atemp>22.0</ns3:atemp>
          </ns3:TrackPointExtension>
        </extensions>
      </trkpt>
      <trkpt lat="42.5147219561040401458740234375" lon="20.1512668468058109283447265625">
        <ele>2161.800048828125</ele>
        <time>2026-06-20T10:06:33.000Z</time>
        <extensions>
          <ns3:TrackPointExtension>
            <ns3:atemp>22.0</ns3:atemp>
          </ns3:TrackPointExtension>
        </extensions>
      </trkpt>
      <trkpt lat="42.5147330202162265777587890625" lon="20.15128503553569316864013671875">
        <ele>2161.39990234375</ele>
        <time>2026-06-20T10:06:34.000Z</time>
        <extensions>
          <ns3:TrackPointExtension>
            <ns3:atemp>22.0</ns3:atemp>
          </ns3:TrackPointExtension>
        </extensions>
      </trkpt>
      <trkpt lat="42.514750622212886810302734375" lon="20.15129039995372295379638671875">
        <ele>2161</ele>
        <time>2026-06-20T10:06:35.000Z</time>
        <extensions>
          <ns3:TrackPointExtension>
            <ns3:atemp>22.0</ns3:atemp>
          </ns3:TrackPointExtension>
        </extensions>
      </trkpt>
      <trkpt lat="42.51476461999118328094482421875" lon="20.15127799473702907562255859375">
        <ele>2160.800048828125</ele>
        <time>2026-06-20T10:06:36.000Z</time>
        <extensions>
          <ns3:TrackPointExtension>
            <ns3:atemp>22.0</ns3:atemp>
          </ns3:TrackPointExtension>
        </extensions>
      </trkpt>
      <trkpt lat="42.51477132551372051239013671875" lon="20.1512561179697513580322265625">
        <ele>2160.60009765625</ele>
        <time>2026-06-20T10:06:37.000Z</time>
        <extensions>
          <ns3:TrackPointExtension>
            <ns3:atemp>22.0</ns3:atemp>
          </ns3:TrackPointExtension>
        </extensions>
      </trkpt>
      <trkpt lat="42.51477576792240142822265625" lon="20.1512349955737590789794921875">
        <ele>2160.60009765625</ele>
        <time>2026-06-20T10:06:38.000Z</time>
        <extensions>
          <ns3:TrackPointExtension>
            <ns3:atemp>22.0</ns3:atemp>
          </ns3:TrackPointExtension>
        </extensions>
      </trkpt>
      <trkpt lat="42.514778785407543182373046875" lon="20.1512145437300205230712890625">
        <ele>2160.800048828125</ele>
        <time>2026-06-20T10:06:39.000Z</time>
        <extensions>
          <ns3:TrackPointExtension>
            <ns3:atemp>22.0</ns3:atemp>
          </ns3:TrackPointExtension>
        </extensions>
      </trkpt>
      <trkpt lat="42.514784149825572967529296875" lon="20.15118998475372791290283203125">
        <ele>2161</ele>
        <time>2026-06-20T10:06:40.000Z</time>
        <extensions>
          <ns3:TrackPointExtension>
            <ns3:atemp>22.0</ns3:atemp>
          </ns3:TrackPointExtension>
        </extensions>
      </trkpt>
      <trkpt lat="42.514791190624237060546875" lon="20.15116467140614986419677734375">
        <ele>2161</ele>
        <time>2026-06-20T10:06:41.000Z</time>
        <extensions>
          <ns3:TrackPointExtension>
            <ns3:atemp>22.0</ns3:atemp>
          </ns3:TrackPointExtension>
        </extensions>
      </trkpt>
      <trkpt lat="42.514796219766139984130859375" lon="20.151138268411159515380859375">
        <ele>2161</ele>
        <time>2026-06-20T10:06:42.000Z</time>
        <extensions>
          <ns3:TrackPointExtension>
            <ns3:atemp>22.0</ns3:atemp>
          </ns3:TrackPointExtension>
        </extensions>
      </trkpt>
      <trkpt lat="42.5148030929267406463623046875" lon="20.15111538581550121307373046875">
        <ele>2161.199951171875</ele>
        <time>2026-06-20T10:06:43.000Z</time>
        <extensions>
          <ns3:TrackPointExtension>
            <ns3:atemp>22.0</ns3:atemp>
          </ns3:TrackPointExtension>
        </extensions>
      </trkpt>
      <trkpt lat="42.5148111395537853240966796875" lon="20.15108554624021053314208984375">
        <ele>2161.199951171875</ele>
        <time>2026-06-20T10:06:44.000Z</time>
        <extensions>
          <ns3:TrackPointExtension>
            <ns3:atemp>22.0</ns3:atemp>
          </ns3:TrackPointExtension>
        </extensions>
      </trkpt>
      <trkpt lat="42.5148158334195613861083984375" lon="20.15105503611266613006591796875">
        <ele>2161.199951171875</ele>
        <time>2026-06-20T10:06:45.000Z</time>
        <extensions>
          <ns3:TrackPointExtension>
            <ns3:atemp>22.0</ns3:atemp>
          </ns3:TrackPointExtension>
        </extensions>
      </trkpt>
      <trkpt lat="42.51482480205595493316650390625" lon="20.1510170660912990570068359375">
        <ele>2161.199951171875</ele>
        <time>2026-06-20T10:06:46.000Z</time>
        <extensions>
          <ns3:TrackPointExtension>
            <ns3:atemp>22.0</ns3:atemp>
          </ns3:TrackPointExtension>
        </extensions>
      </trkpt>
      <trkpt lat="42.51483184285461902618408203125" lon="20.15098446048796176910400390625">
        <ele>2161.39990234375</ele>
        <time>2026-06-20T10:06:47.000Z</time>
        <extensions>
          <ns3:TrackPointExtension>
            <ns3:atemp>22.0</ns3:atemp>
          </ns3:TrackPointExtension>
        </extensions>
      </trkpt>
      <trkpt lat="42.51483745872974395751953125" lon="20.1509479992091655731201171875">
        <ele>2161.39990234375</ele>
        <time>2026-06-20T10:06:48.000Z</time>
        <extensions>
          <ns3:TrackPointExtension>
            <ns3:atemp>22.0</ns3:atemp>
          </ns3:TrackPointExtension>
        </extensions>
      </trkpt>
      <trkpt lat="42.51484148204326629638671875" lon="20.150907598435878753662109375">
        <ele>2161.39990234375</ele>
        <time>2026-06-20T10:06:49.000Z</time>
        <extensions>
          <ns3:TrackPointExtension>
            <ns3:atemp>22.0</ns3:atemp>
          </ns3:TrackPointExtension>
        </extensions>
      </trkpt>
      <trkpt lat="42.51484190113842487335205078125" lon="20.1508688740432262420654296875">
        <ele>2161.60009765625</ele>
        <time>2026-06-20T10:06:50.000Z</time>
        <extensions>
          <ns3:TrackPointExtension>
            <ns3:atemp>22.0</ns3:atemp>
          </ns3:TrackPointExtension>
        </extensions>
      </trkpt>
      <trkpt lat="42.5148433260619640350341796875" lon="20.15083350241184234619140625">
        <ele>2161.800048828125</ele>
        <time>2026-06-20T10:06:51.000Z</time>
        <extensions>
          <ns3:TrackPointExtension>
            <ns3:atemp>22.0</ns3:atemp>
          </ns3:TrackPointExtension>
        </extensions>
      </trkpt>
      <trkpt lat="42.5148473493754863739013671875" lon="20.15079704113304615020751953125">
        <ele>2161.800048828125</ele>
        <time>2026-06-20T10:06:52.000Z</time>
        <extensions>
          <ns3:TrackPointExtension>
            <ns3:atemp>22.0</ns3:atemp>
          </ns3:TrackPointExtension>
        </extensions>
      </trkpt>
      <trkpt lat="42.514851875603199005126953125" lon="20.1507602445781230926513671875">
        <ele>2162</ele>
        <time>2026-06-20T10:06:53.000Z</time>
        <extensions>
          <ns3:TrackPointExtension>
            <ns3:atemp>22.0</ns3:atemp>
          </ns3:TrackPointExtension>
        </extensions>
      </trkpt>
      <trkpt lat="42.5148543901741504669189453125" lon="20.15072084963321685791015625">
        <ele>2162.199951171875</ele>
        <time>2026-06-20T10:06:54.000Z</time>
        <extensions>
          <ns3:TrackPointExtension>
            <ns3:atemp>22.0</ns3:atemp>
          </ns3:TrackPointExtension>
        </extensions>
      </trkpt>
      <trkpt lat="42.514857240021228790283203125" lon="20.15068304724991321563720703125">
        <ele>2162.199951171875</ele>
        <time>2026-06-20T10:06:55.000Z</time>
        <extensions>
          <ns3:TrackPointExtension>
            <ns3:atemp>22.0</ns3:atemp>
          </ns3:TrackPointExtension>
        </extensions>
      </trkpt>
      <trkpt lat="42.51486151479184627532958984375" lon="20.15064977109432220458984375">
        <ele>2162.199951171875</ele>
        <time>2026-06-20T10:06:56.000Z</time>
        <extensions>
          <ns3:TrackPointExtension>
            <ns3:atemp>22.0</ns3:atemp>
          </ns3:TrackPointExtension>
        </extensions>
      </trkpt>
      <trkpt lat="42.51486386172473430633544921875" lon="20.15061532147228717803955078125">
        <ele>2162.39990234375</ele>
        <time>2026-06-20T10:06:57.000Z</time>
        <extensions>
          <ns3:TrackPointExtension>
            <ns3:atemp>22.0</ns3:atemp>
          </ns3:TrackPointExtension>
        </extensions>
      </trkpt>
      <trkpt lat="42.514864616096019744873046875" lon="20.15058078803122043609619140625">
        <ele>2162.39990234375</ele>
        <time>2026-06-20T10:06:58.000Z</time>
        <extensions>
          <ns3:TrackPointExtension>
            <ns3:atemp>22.0</ns3:atemp>
          </ns3:TrackPointExtension>
        </extensions>
      </trkpt>
      <trkpt lat="42.514867298305034637451171875" lon="20.15054306946694850921630859375">
        <ele>2162.39990234375</ele>
        <time>2026-06-20T10:06:59.000Z</time>
        <extensions>
          <ns3:TrackPointExtension>
            <ns3:atemp>22.0</ns3:atemp>
          </ns3:TrackPointExtension>
        </extensions>
      </trkpt>
      <trkpt lat="42.5148748420178890228271484375" lon="20.15050685964524745941162109375">
        <ele>2162.39990234375</ele>
        <time>2026-06-20T10:07:00.000Z</time>
        <extensions>
          <ns3:TrackPointExtension>
            <ns3:atemp>22.0</ns3:atemp>
          </ns3:TrackPointExtension>
        </extensions>
      </trkpt>
      <trkpt lat="42.5148862414062023162841796875" lon="20.150474421679973602294921875">
        <ele>2162.39990234375</ele>
        <time>2026-06-20T10:07:01.000Z</time>
        <extensions>
          <ns3:TrackPointExtension>
            <ns3:atemp>22.0</ns3:atemp>
          </ns3:TrackPointExtension>
        </extensions>
      </trkpt>
      <trkpt lat="42.51489420421421527862548828125" lon="20.1504367031157016754150390625">
        <ele>2162.39990234375</ele>
        <time>2026-06-20T10:07:02.000Z</time>
        <extensions>
          <ns3:TrackPointExtension>
            <ns3:atemp>22.0</ns3:atemp>
          </ns3:TrackPointExtension>
        </extensions>
      </trkpt>
      <trkpt lat="42.51490208320319652557373046875" lon="20.1503998227417469024658203125">
        <ele>2162.60009765625</ele>
        <time>2026-06-20T10:07:03.000Z</time>
        <extensions>
          <ns3:TrackPointExtension>
            <ns3:atemp>22.0</ns3:atemp>
          </ns3:TrackPointExtension>
        </extensions>
      </trkpt>
      <trkpt lat="42.51490996219217777252197265625" lon="20.150368474423885345458984375">
        <ele>2162.800048828125</ele>
        <time>2026-06-20T10:07:04.000Z</time>
        <extensions>
          <ns3:TrackPointExtension>
            <ns3:atemp>22.0</ns3:atemp>
          </ns3:TrackPointExtension>
        </extensions>
      </trkpt>
      <trkpt lat="42.51491725444793701171875" lon="20.1503361202776432037353515625">
        <ele>2162.800048828125</ele>
        <time>2026-06-20T10:07:05.000Z</time>
        <extensions>
          <ns3:TrackPointExtension>
            <ns3:atemp>22.0</ns3:atemp>
          </ns3:TrackPointExtension>
        </extensions>
      </trkpt>
      <trkpt lat="42.51492521725594997406005859375" lon="20.1503029279410839080810546875">
        <ele>2163</ele>
        <time>2026-06-20T10:07:06.000Z</time>
        <extensions>
          <ns3:TrackPointExtension>
            <ns3:atemp>22.0</ns3:atemp>
          </ns3:TrackPointExtension>
        </extensions>
      </trkpt>
      <trkpt lat="42.51493426971137523651123046875" lon="20.15026998706161975860595703125">
        <ele>2163.199951171875</ele>
        <time>2026-06-20T10:07:07.000Z</time>
        <extensions>
          <ns3:TrackPointExtension>
            <ns3:atemp>22.0</ns3:atemp>
          </ns3:TrackPointExtension>
        </extensions>
      </trkpt>
      <trkpt lat="42.51494281925261020660400390625" lon="20.150236375629901885986328125">
        <ele>2163.199951171875</ele>
        <time>2026-06-20T10:07:08.000Z</time>
        <extensions>
          <ns3:TrackPointExtension>
            <ns3:atemp>22.0</ns3:atemp>
          </ns3:TrackPointExtension>
        </extensions>
      </trkpt>
      <trkpt lat="42.51495086587965488433837890625" lon="20.15020209364593029022216796875">
        <ele>2163.39990234375</ele>
        <time>2026-06-20T10:07:09.000Z</time>
        <extensions>
          <ns3:TrackPointExtension>
            <ns3:atemp>22.0</ns3:atemp>
          </ns3:TrackPointExtension>
        </extensions>
      </trkpt>
      <trkpt lat="42.514955811202526092529296875" lon="20.1501664705574512481689453125">
        <ele>2163.39990234375</ele>
        <time>2026-06-20T10:07:10.000Z</time>
        <extensions>
          <ns3:TrackPointExtension>
            <ns3:atemp>22.0</ns3:atemp>
          </ns3:TrackPointExtension>
        </extensions>
      </trkpt>
      <trkpt lat="42.51496243290603160858154296875" lon="20.15013202093541622161865234375">
        <ele>2163.39990234375</ele>
        <time>2026-06-20T10:07:11.000Z</time>
        <extensions>
          <ns3:TrackPointExtension>
            <ns3:atemp>22.0</ns3:atemp>
          </ns3:TrackPointExtension>
        </extensions>
      </trkpt>
      <trkpt lat="42.51496645621955394744873046875" lon="20.15009715221822261810302734375">
        <ele>2163.60009765625</ele>
        <time>2026-06-20T10:07:12.000Z</time>
        <extensions>
          <ns3:TrackPointExtension>
            <ns3:atemp>22.0</ns3:atemp>
          </ns3:TrackPointExtension>
        </extensions>
      </trkpt>
      <trkpt lat="42.51496754586696624755859375" lon="20.150062702596187591552734375">
        <ele>2163.60009765625</ele>
        <time>2026-06-20T10:07:13.000Z</time>
        <extensions>
          <ns3:TrackPointExtension>
            <ns3:atemp>22.0</ns3:atemp>
          </ns3:TrackPointExtension>
        </extensions>
      </trkpt>
      <trkpt lat="42.5149695575237274169921875" lon="20.15002707950770854949951171875">
        <ele>2163.60009765625</ele>
        <time>2026-06-20T10:07:14.000Z</time>
        <extensions>
          <ns3:TrackPointExtension>
            <ns3:atemp>22.0</ns3:atemp>
          </ns3:TrackPointExtension>
        </extensions>
      </trkpt>
      <trkpt lat="42.51497131772339344024658203125" lon="20.14999439008533954620361328125">
        <ele>2163.60009765625</ele>
        <time>2026-06-20T10:07:15.000Z</time>
        <extensions>
          <ns3:TrackPointExtension>
            <ns3:atemp>22.0</ns3:atemp>
          </ns3:TrackPointExtension>
        </extensions>
      </trkpt>
      <trkpt lat="42.5149734131991863250732421875" lon="20.149960108101367950439453125">
        <ele>2163.60009765625</ele>
        <time>2026-06-20T10:07:16.000Z</time>
        <extensions>
          <ns3:TrackPointExtension>
            <ns3:atemp>22.0</ns3:atemp>
          </ns3:TrackPointExtension>
        </extensions>
      </trkpt>
      <trkpt lat="42.51497316174209117889404296875" lon="20.1499227248132228851318359375">
        <ele>2163.800048828125</ele>
        <time>2026-06-20T10:07:17.000Z</time>
        <extensions>
          <ns3:TrackPointExtension>
            <ns3:atemp>22.0</ns3:atemp>
          </ns3:TrackPointExtension>
        </extensions>
      </trkpt>
      <trkpt lat="42.51497349701821804046630859375" lon="20.14988861046731472015380859375">
        <ele>2163.800048828125</ele>
        <time>2026-06-20T10:07:18.000Z</time>
        <extensions>
          <ns3:TrackPointExtension>
            <ns3:atemp>22.0</ns3:atemp>
          </ns3:TrackPointExtension>
        </extensions>
      </trkpt>
      <trkpt lat="42.514973245561122894287109375" lon="20.14985575340688228607177734375">
        <ele>2164</ele>
        <time>2026-06-20T10:07:19.000Z</time>
        <extensions>
          <ns3:TrackPointExtension>
            <ns3:atemp>22.0</ns3:atemp>
          </ns3:TrackPointExtension>
        </extensions>
      </trkpt>
      <trkpt lat="42.51497399993240833282470703125" lon="20.14982222579419612884521484375">
        <ele>2164</ele>
        <time>2026-06-20T10:07:20.000Z</time>
        <extensions>
          <ns3:TrackPointExtension>
            <ns3:atemp>22.0</ns3:atemp>
          </ns3:TrackPointExtension>
        </extensions>
      </trkpt>
      <trkpt lat="42.5149764306843280792236328125" lon="20.14978752471506595611572265625">
        <ele>2164.199951171875</ele>
        <time>2026-06-20T10:07:21.000Z</time>
        <extensions>
          <ns3:TrackPointExtension>
            <ns3:atemp>22.0</ns3:atemp>
          </ns3:TrackPointExtension>
        </extensions>
      </trkpt>
      <trkpt lat="42.51498229801654815673828125" lon="20.14975165016949176788330078125">
        <ele>2164.199951171875</ele>
        <time>2026-06-20T10:07:22.000Z</time>
        <extensions>
          <ns3:TrackPointExtension>
            <ns3:atemp>22.0</ns3:atemp>
          </ns3:TrackPointExtension>
        </extensions>
      </trkpt>
      <trkpt lat="42.51498590223491191864013671875" lon="20.1497168652713298797607421875">
        <ele>2164.199951171875</ele>
        <time>2026-06-20T10:07:23.000Z</time>
        <extensions>
          <ns3:TrackPointExtension>
            <ns3:atemp>22.0</ns3:atemp>
          </ns3:TrackPointExtension>
        </extensions>
      </trkpt>
      <trkpt lat="42.51498858444392681121826171875" lon="20.14967990107834339141845703125">
        <ele>2164.39990234375</ele>
        <time>2026-06-20T10:07:24.000Z</time>
        <extensions>
          <ns3:TrackPointExtension>
            <ns3:atemp>22.0</ns3:atemp>
          </ns3:TrackPointExtension>
        </extensions>
      </trkpt>
      <trkpt lat="42.51498992554843425750732421875" lon="20.1496424339711666107177734375">
        <ele>2164.39990234375</ele>
        <time>2026-06-20T10:07:25.000Z</time>
        <extensions>
          <ns3:TrackPointExtension>
            <ns3:atemp>22.0</ns3:atemp>
          </ns3:TrackPointExtension>
        </extensions>
      </trkpt>
      <trkpt lat="42.51499042846262454986572265625" lon="20.14960345812141895294189453125">
        <ele>2164.39990234375</ele>
        <time>2026-06-20T10:07:26.000Z</time>
        <extensions>
          <ns3:TrackPointExtension>
            <ns3:atemp>22.0</ns3:atemp>
          </ns3:TrackPointExtension>
        </extensions>
      </trkpt>
      <trkpt lat="42.51499034464359283447265625" lon="20.14956590719521045684814453125">
        <ele>2164.60009765625</ele>
        <time>2026-06-20T10:07:27.000Z</time>
        <extensions>
          <ns3:TrackPointExtension>
            <ns3:atemp>22.0</ns3:atemp>
          </ns3:TrackPointExtension>
        </extensions>
      </trkpt>
      <trkpt lat="42.51498959027230739593505859375" lon="20.1495279371738433837890625">
        <ele>2164.60009765625</ele>
        <time>2026-06-20T10:07:28.000Z</time>
        <extensions>
          <ns3:TrackPointExtension>
            <ns3:atemp>22.0</ns3:atemp>
          </ns3:TrackPointExtension>
        </extensions>
      </trkpt>
      <trkpt lat="42.5149898417294025421142578125" lon="20.14948979951441287994384765625">
        <ele>2164.60009765625</ele>
        <time>2026-06-20T10:07:29.000Z</time>
        <extensions>
          <ns3:TrackPointExtension>
            <ns3:atemp>22.0</ns3:atemp>
          </ns3:TrackPointExtension>
        </extensions>
      </trkpt>
      <trkpt lat="42.51498925499618053436279296875" lon="20.14945493079721927642822265625">
        <ele>2164.800048828125</ele>
        <time>2026-06-20T10:07:30.000Z</time>
        <extensions>
          <ns3:TrackPointExtension>
            <ns3:atemp>22.0</ns3:atemp>
          </ns3:TrackPointExtension>
        </extensions>
      </trkpt>
      <trkpt lat="42.51498774625360965728759765625" lon="20.14941788278520107269287109375">
        <ele>2164.800048828125</ele>
        <time>2026-06-20T10:07:31.000Z</time>
        <extensions>
          <ns3:TrackPointExtension>
            <ns3:atemp>22.0</ns3:atemp>
          </ns3:TrackPointExtension>
        </extensions>
      </trkpt>
      <trkpt lat="42.51498640514910221099853515625" lon="20.14938519336283206939697265625">
        <ele>2164.800048828125</ele>
        <time>2026-06-20T10:07:32.000Z</time>
        <extensions>
          <ns3:TrackPointExtension>
            <ns3:atemp>22.0</ns3:atemp>
          </ns3:TrackPointExtension>
        </extensions>
      </trkpt>
      <trkpt lat="42.51498590223491191864013671875" lon="20.149347223341464996337890625">
        <ele>2165</ele>
        <time>2026-06-20T10:07:33.000Z</time>
        <extensions>
          <ns3:TrackPointExtension>
            <ns3:atemp>22.0</ns3:atemp>
          </ns3:TrackPointExtension>
        </extensions>
      </trkpt>
      <trkpt lat="42.51498606987297534942626953125" lon="20.1493131928145885467529296875">
        <ele>2165.199951171875</ele>
        <time>2026-06-20T10:07:34.000Z</time>
        <extensions>
          <ns3:TrackPointExtension>
            <ns3:atemp>22.0</ns3:atemp>
          </ns3:TrackPointExtension>
        </extensions>
      </trkpt>
      <trkpt lat="42.51498690806329250335693359375" lon="20.149277485907077789306640625">
        <ele>2165.199951171875</ele>
        <time>2026-06-20T10:07:35.000Z</time>
        <extensions>
          <ns3:TrackPointExtension>
            <ns3:atemp>22.0</ns3:atemp>
          </ns3:TrackPointExtension>
        </extensions>
      </trkpt>
      <trkpt lat="42.5149871595203876495361328125" lon="20.149243958294391632080078125">
        <ele>2165.39990234375</ele>
        <time>2026-06-20T10:07:36.000Z</time>
        <extensions>
          <ns3:TrackPointExtension>
            <ns3:atemp>22.0</ns3:atemp>
          </ns3:TrackPointExtension>
        </extensions>
      </trkpt>
      <trkpt lat="42.514989674091339111328125" lon="20.149206407368183135986328125">
        <ele>2165.39990234375</ele>
        <time>2026-06-20T10:07:37.000Z</time>
        <extensions>
          <ns3:TrackPointExtension>
            <ns3:atemp>22.0</ns3:atemp>
          </ns3:TrackPointExtension>
        </extensions>
      </trkpt>
      <trkpt lat="42.5149918533861637115478515625" lon="20.14916919171810150146484375">
        <ele>2165.60009765625</ele>
        <time>2026-06-20T10:07:38.000Z</time>
        <extensions>
          <ns3:TrackPointExtension>
            <ns3:atemp>22.0</ns3:atemp>
          </ns3:TrackPointExtension>
        </extensions>
      </trkpt>
      <trkpt lat="42.51499394886195659637451171875" lon="20.14913256280124187469482421875">
        <ele>2165.60009765625</ele>
        <time>2026-06-20T10:07:39.000Z</time>
        <extensions>
          <ns3:TrackPointExtension>
            <ns3:atemp>22.0</ns3:atemp>
          </ns3:TrackPointExtension>
        </extensions>
      </trkpt>
      <trkpt lat="42.5149977207183837890625" lon="20.14909819699823856353759765625">
        <ele>2165.800048828125</ele>
        <time>2026-06-20T10:07:40.000Z</time>
        <extensions>
          <ns3:TrackPointExtension>
            <ns3:atemp>22.0</ns3:atemp>
          </ns3:TrackPointExtension>
        </extensions>
      </trkpt>
      <trkpt lat="42.51499964855611324310302734375" lon="20.149061568081378936767578125">
        <ele>2165.800048828125</ele>
        <time>2026-06-20T10:07:41.000Z</time>
        <extensions>
          <ns3:TrackPointExtension>
            <ns3:atemp>22.0</ns3:atemp>
          </ns3:TrackPointExtension>
        </extensions>
      </trkpt>
      <trkpt lat="42.51500015147030353546142578125" lon="20.1490261964499950408935546875">
        <ele>2166</ele>
        <time>2026-06-20T10:07:42.000Z</time>
        <extensions>
          <ns3:TrackPointExtension>
            <ns3:atemp>22.0</ns3:atemp>
          </ns3:TrackPointExtension>
        </extensions>
      </trkpt>
      <trkpt lat="42.51499931327998638153076171875" lon="20.148990489542484283447265625">
        <ele>2166</ele>
        <time>2026-06-20T10:07:43.000Z</time>
        <extensions>
          <ns3:TrackPointExtension>
            <ns3:atemp>22.0</ns3:atemp>
          </ns3:TrackPointExtension>
        </extensions>
      </trkpt>
      <trkpt lat="42.51499964855611324310302734375" lon="20.1489588059484958648681640625">
        <ele>2166</ele>
        <time>2026-06-20T10:07:44.000Z</time>
        <extensions>
          <ns3:TrackPointExtension>
            <ns3:atemp>22.0</ns3:atemp>
          </ns3:TrackPointExtension>
        </extensions>
      </trkpt>
      <trkpt lat="42.51499998383224010467529296875" lon="20.148924104869365692138671875">
        <ele>2166</ele>
        <time>2026-06-20T10:07:45.000Z</time>
        <extensions>
          <ns3:TrackPointExtension>
            <ns3:atemp>22.0</ns3:atemp>
          </ns3:TrackPointExtension>
        </extensions>
      </trkpt>
      <trkpt lat="42.51500266604125499725341796875" lon="20.14888328500092029571533203125">
        <ele>2166.199951171875</ele>
        <time>2026-06-20T10:07:46.000Z</time>
        <extensions>
          <ns3:TrackPointExtension>
            <ns3:atemp>22.0</ns3:atemp>
          </ns3:TrackPointExtension>
        </extensions>
      </trkpt>
      <trkpt lat="42.51500719226896762847900390625" lon="20.14884372241795063018798828125">
        <ele>2166.199951171875</ele>
        <time>2026-06-20T10:07:47.000Z</time>
        <extensions>
          <ns3:TrackPointExtension>
            <ns3:atemp>22.0</ns3:atemp>
          </ns3:TrackPointExtension>
        </extensions>
      </trkpt>
      <trkpt lat="42.5150116346776485443115234375" lon="20.1488037407398223876953125">
        <ele>2166.199951171875</ele>
        <time>2026-06-20T10:07:48.000Z</time>
        <extensions>
          <ns3:TrackPointExtension>
            <ns3:atemp>22.0</ns3:atemp>
          </ns3:TrackPointExtension>
        </extensions>
      </trkpt>
      <trkpt lat="42.51501389779150485992431640625" lon="20.148763842880725860595703125">
        <ele>2166.199951171875</ele>
        <time>2026-06-20T10:07:49.000Z</time>
        <extensions>
          <ns3:TrackPointExtension>
            <ns3:atemp>22.0</ns3:atemp>
          </ns3:TrackPointExtension>
        </extensions>
      </trkpt>
      <trkpt lat="42.5150156579911708831787109375" lon="20.14872738160192966461181640625">
        <ele>2166.39990234375</ele>
        <time>2026-06-20T10:07:50.000Z</time>
        <extensions>
          <ns3:TrackPointExtension>
            <ns3:atemp>22.0</ns3:atemp>
          </ns3:TrackPointExtension>
        </extensions>
      </trkpt>
      <trkpt lat="42.515016160905361175537109375" lon="20.148689746856689453125">
        <ele>2166.39990234375</ele>
        <time>2026-06-20T10:07:51.000Z</time>
        <extensions>
          <ns3:TrackPointExtension>
            <ns3:atemp>22.0</ns3:atemp>
          </ns3:TrackPointExtension>
        </extensions>
      </trkpt>
      <trkpt lat="42.51501507125794887542724609375" lon="20.14865177683532238006591796875">
        <ele>2166.39990234375</ele>
        <time>2026-06-20T10:07:52.000Z</time>
        <extensions>
          <ns3:TrackPointExtension>
            <ns3:atemp>22.0</ns3:atemp>
          </ns3:TrackPointExtension>
        </extensions>
      </trkpt>
      <trkpt lat="42.51501373015344142913818359375" lon="20.1486168242990970611572265625">
        <ele>2166.60009765625</ele>
        <time>2026-06-20T10:07:53.000Z</time>
        <extensions>
          <ns3:TrackPointExtension>
            <ns3:atemp>22.0</ns3:atemp>
          </ns3:TrackPointExtension>
        </extensions>
      </trkpt>
      <trkpt lat="42.51501289196312427520751953125" lon="20.1485819555819034576416015625">
        <ele>2166.60009765625</ele>
        <time>2026-06-20T10:07:54.000Z</time>
        <extensions>
          <ns3:TrackPointExtension>
            <ns3:atemp>22.0</ns3:atemp>
          </ns3:TrackPointExtension>
        </extensions>
      </trkpt>
      <trkpt lat="42.51501222141087055206298828125" lon="20.14854717068374156951904296875">
        <ele>2166.60009765625</ele>
        <time>2026-06-20T10:07:55.000Z</time>
        <extensions>
          <ns3:TrackPointExtension>
            <ns3:atemp>22.0</ns3:atemp>
          </ns3:TrackPointExtension>
        </extensions>
      </trkpt>
      <trkpt lat="42.51501037739217281341552734375" lon="20.14851515181362628936767578125">
        <ele>2166.60009765625</ele>
        <time>2026-06-20T10:07:56.000Z</time>
        <extensions>
          <ns3:TrackPointExtension>
            <ns3:atemp>22.0</ns3:atemp>
          </ns3:TrackPointExtension>
        </extensions>
      </trkpt>
      <trkpt lat="42.5150071084499359130859375" lon="20.1484800316393375396728515625">
        <ele>2166.800048828125</ele>
        <time>2026-06-20T10:07:57.000Z</time>
        <extensions>
          <ns3:TrackPointExtension>
            <ns3:atemp>22.0</ns3:atemp>
          </ns3:TrackPointExtension>
        </extensions>
      </trkpt>
      <trkpt lat="42.51500467769801616668701171875" lon="20.14844424091279506683349609375">
        <ele>2166.800048828125</ele>
        <time>2026-06-20T10:07:58.000Z</time>
        <extensions>
          <ns3:TrackPointExtension>
            <ns3:atemp>22.0</ns3:atemp>
          </ns3:TrackPointExtension>
        </extensions>
      </trkpt>
      <trkpt lat="42.51500065438449382781982421875" lon="20.14840937219560146331787109375">
        <ele>2167</ele>
        <time>2026-06-20T10:07:59.000Z</time>
        <extensions>
          <ns3:TrackPointExtension>
            <ns3:atemp>22.0</ns3:atemp>
          </ns3:TrackPointExtension>
        </extensions>
      </trkpt>
      <trkpt lat="42.514994032680988311767578125" lon="20.14837349765002727508544921875">
        <ele>2167.199951171875</ele>
        <time>2026-06-20T10:08:00.000Z</time>
        <extensions>
          <ns3:TrackPointExtension>
            <ns3:atemp>22.0</ns3:atemp>
          </ns3:TrackPointExtension>
        </extensions>
      </trkpt>
      <trkpt lat="42.51498472876846790313720703125" lon="20.14834332279860973358154296875">
        <ele>2167.39990234375</ele>
        <time>2026-06-20T10:08:01.000Z</time>
        <extensions>
          <ns3:TrackPointExtension>
            <ns3:atemp>22.0</ns3:atemp>
          </ns3:TrackPointExtension>
        </extensions>
      </trkpt>
      <trkpt lat="42.51497601158916950225830078125" lon="20.1483155786991119384765625">
        <ele>2167.60009765625</ele>
        <time>2026-06-20T10:08:02.000Z</time>
        <extensions>
          <ns3:TrackPointExtension>
            <ns3:atemp>22.0</ns3:atemp>
          </ns3:TrackPointExtension>
        </extensions>
      </trkpt>
      <trkpt lat="42.51497215591371059417724609375" lon="20.14829001389443874359130859375">
        <ele>2167.800048828125</ele>
        <time>2026-06-20T10:08:03.000Z</time>
        <extensions>
          <ns3:TrackPointExtension>
            <ns3:atemp>22.0</ns3:atemp>
          </ns3:TrackPointExtension>
        </extensions>
      </trkpt>
      <trkpt lat="42.5149683840572834014892578125" lon="20.14826285652816295623779296875">
        <ele>2168.199951171875</ele>
        <time>2026-06-20T10:08:04.000Z</time>
        <extensions>
          <ns3:TrackPointExtension>
            <ns3:atemp>22.0</ns3:atemp>
          </ns3:TrackPointExtension>
        </extensions>
      </trkpt>
      <trkpt lat="42.51496327109634876251220703125" lon="20.1482342742383480072021484375">
        <ele>2168.199951171875</ele>
        <time>2026-06-20T10:08:05.000Z</time>
        <extensions>
          <ns3:TrackPointExtension>
            <ns3:atemp>22.0</ns3:atemp>
          </ns3:TrackPointExtension>
        </extensions>
      </trkpt>
      <trkpt lat="42.51495958305895328521728515625" lon="20.1482057757675647735595703125">
        <ele>2168.60009765625</ele>
        <time>2026-06-20T10:08:06.000Z</time>
        <extensions>
          <ns3:TrackPointExtension>
            <ns3:atemp>22.0</ns3:atemp>
          </ns3:TrackPointExtension>
        </extensions>
      </trkpt>
      <trkpt lat="42.514955140650272369384765625" lon="20.148182809352874755859375">
        <ele>2168.800048828125</ele>
        <time>2026-06-20T10:08:07.000Z</time>
        <extensions>
          <ns3:TrackPointExtension>
            <ns3:atemp>22.0</ns3:atemp>
          </ns3:TrackPointExtension>
        </extensions>
      </trkpt>
      <trkpt lat="42.5149516202509403228759765625" lon="20.1481595076620578765869140625">
        <ele>2169</ele>
        <time>2026-06-20T10:08:08.000Z</time>
        <extensions>
          <ns3:TrackPointExtension>
            <ns3:atemp>22.0</ns3:atemp>
          </ns3:TrackPointExtension>
        </extensions>
      </trkpt>
      <trkpt lat="42.51494986005127429962158203125" lon="20.1481370441615581512451171875">
        <ele>2169.199951171875</ele>
        <time>2026-06-20T10:08:09.000Z</time>
        <extensions>
          <ns3:TrackPointExtension>
            <ns3:atemp>22.0</ns3:atemp>
          </ns3:TrackPointExtension>
        </extensions>
      </trkpt>
      <trkpt lat="42.51495011150836944580078125" lon="20.14811634086072444915771484375">
        <ele>2169.39990234375</ele>
        <time>2026-06-20T10:08:10.000Z</time>
        <extensions>
          <ns3:TrackPointExtension>
            <ns3:atemp>22.0</ns3:atemp>
          </ns3:TrackPointExtension>
        </extensions>
      </trkpt>
      <trkpt lat="42.51494600437581539154052734375" lon="20.14809454791247844696044921875">
        <ele>2169.39990234375</ele>
        <time>2026-06-20T10:08:11.000Z</time>
        <extensions>
          <ns3:TrackPointExtension>
            <ns3:atemp>22.0</ns3:atemp>
          </ns3:TrackPointExtension>
        </extensions>
      </trkpt>
      <trkpt lat="42.5149392150342464447021484375" lon="20.148070156574249267578125">
        <ele>2169.60009765625</ele>
        <time>2026-06-20T10:08:12.000Z</time>
        <extensions>
          <ns3:TrackPointExtension>
            <ns3:atemp>22.0</ns3:atemp>
          </ns3:TrackPointExtension>
        </extensions>
      </trkpt>
      <trkpt lat="42.51493460498750209808349609375" lon="20.14804995618760585784912109375">
        <ele>2169.800048828125</ele>
        <time>2026-06-20T10:08:13.000Z</time>
        <extensions>
          <ns3:TrackPointExtension>
            <ns3:atemp>22.0</ns3:atemp>
          </ns3:TrackPointExtension>
        </extensions>
      </trkpt>
      <trkpt lat="42.51493158750236034393310546875" lon="20.14802916906774044036865234375">
        <ele>2169.800048828125</ele>
        <time>2026-06-20T10:08:14.000Z</time>
        <extensions>
          <ns3:TrackPointExtension>
            <ns3:atemp>22.0</ns3:atemp>
          </ns3:TrackPointExtension>
        </extensions>
      </trkpt>
      <trkpt lat="42.51493561081588268280029296875" lon="20.1479990780353546142578125">
        <ele>2170</ele>
        <time>2026-06-20T10:08:15.000Z</time>
        <extensions>
          <ns3:TrackPointExtension>
            <ns3:atemp>22.0</ns3:atemp>
          </ns3:TrackPointExtension>
        </extensions>
      </trkpt>
      <trkpt lat="42.51493996940553188323974609375" lon="20.1479615271091461181640625">
        <ele>2170</ele>
        <time>2026-06-20T10:08:16.000Z</time>
        <extensions>
          <ns3:TrackPointExtension>
            <ns3:atemp>22.0</ns3:atemp>
          </ns3:TrackPointExtension>
        </extensions>
      </trkpt>
      <trkpt lat="42.5149378739297389984130859375" lon="20.1479184441268444061279296875">
        <ele>2170</ele>
        <time>2026-06-20T10:08:17.000Z</time>
        <extensions>
          <ns3:TrackPointExtension>
            <ns3:atemp>22.0</ns3:atemp>
          </ns3:TrackPointExtension>
        </extensions>
      </trkpt>
      <trkpt lat="42.51493401825428009033203125" lon="20.1478788815438747406005859375">
        <ele>2170</ele>
        <time>2026-06-20T10:08:18.000Z</time>
        <extensions>
          <ns3:TrackPointExtension>
            <ns3:atemp>22.0</ns3:atemp>
          </ns3:TrackPointExtension>
        </extensions>
      </trkpt>
      <trkpt lat="42.51492957584559917449951171875" lon="20.1478483714163303375244140625">
        <ele>2170</ele>
        <time>2026-06-20T10:08:19.000Z</time>
        <extensions>
          <ns3:TrackPointExtension>
            <ns3:atemp>22.0</ns3:atemp>
          </ns3:TrackPointExtension>
        </extensions>
      </trkpt>
      <trkpt lat="42.514930665493011474609375" lon="20.14781962148845195770263671875">
        <ele>2170</ele>
        <time>2026-06-20T10:08:20.000Z</time>
        <extensions>
          <ns3:TrackPointExtension>
            <ns3:atemp>22.0</ns3:atemp>
          </ns3:TrackPointExtension>
        </extensions>
      </trkpt>
      <trkpt lat="42.5149315036833286285400390625" lon="20.147791542112827301025390625">
        <ele>2170</ele>
        <time>2026-06-20T10:08:21.000Z</time>
        <extensions>
          <ns3:TrackPointExtension>
            <ns3:atemp>22.0</ns3:atemp>
          </ns3:TrackPointExtension>
        </extensions>
      </trkpt>
      <trkpt lat="42.5149315036833286285400390625" lon="20.14776379801332950592041015625">
        <ele>2170.199951171875</ele>
        <time>2026-06-20T10:08:22.000Z</time>
        <extensions>
          <ns3:TrackPointExtension>
            <ns3:atemp>22.0</ns3:atemp>
          </ns3:TrackPointExtension>
        </extensions>
      </trkpt>
      <trkpt lat="42.51493192277848720550537109375" lon="20.1477323658764362335205078125">
        <ele>2170.199951171875</ele>
        <time>2026-06-20T10:08:23.000Z</time>
        <extensions>
          <ns3:TrackPointExtension>
            <ns3:atemp>22.0</ns3:atemp>
          </ns3:TrackPointExtension>
        </extensions>
      </trkpt>
      <trkpt lat="42.51493074931204319000244140625" lon="20.14770177192986011505126953125">
        <ele>2170.199951171875</ele>
        <time>2026-06-20T10:08:24.000Z</time>
        <extensions>
          <ns3:TrackPointExtension>
            <ns3:atemp>22.0</ns3:atemp>
          </ns3:TrackPointExtension>
        </extensions>
      </trkpt>
      <trkpt lat="42.514929659664630889892578125" lon="20.14767595566809177398681640625">
        <ele>2170.39990234375</ele>
        <time>2026-06-20T10:08:25.000Z</time>
        <extensions>
          <ns3:TrackPointExtension>
            <ns3:atemp>22.0</ns3:atemp>
          </ns3:TrackPointExtension>
        </extensions>
      </trkpt>
      <trkpt lat="42.51493058167397975921630859375" lon="20.14764695428311824798583984375">
        <ele>2170.39990234375</ele>
        <time>2026-06-20T10:08:26.000Z</time>
        <extensions>
          <ns3:TrackPointExtension>
            <ns3:atemp>22.0</ns3:atemp>
          </ns3:TrackPointExtension>
        </extensions>
      </trkpt>
      <trkpt lat="42.5149318389594554901123046875" lon="20.1476183719933032989501953125">
        <ele>2170.60009765625</ele>
        <time>2026-06-20T10:08:27.000Z</time>
        <extensions>
          <ns3:TrackPointExtension>
            <ns3:atemp>22.0</ns3:atemp>
          </ns3:TrackPointExtension>
        </extensions>
      </trkpt>
      <trkpt lat="42.5149328447878360748291015625" lon="20.147589705884456634521484375">
        <ele>2170.800048828125</ele>
        <time>2026-06-20T10:08:28.000Z</time>
        <extensions>
          <ns3:TrackPointExtension>
            <ns3:atemp>22.0</ns3:atemp>
          </ns3:TrackPointExtension>
        </extensions>
      </trkpt>
      <trkpt lat="42.51493343152105808258056640625" lon="20.1475607044994831085205078125">
        <ele>2170.800048828125</ele>
        <time>2026-06-20T10:08:29.000Z</time>
        <extensions>
          <ns3:TrackPointExtension>
            <ns3:atemp>22.0</ns3:atemp>
          </ns3:TrackPointExtension>
        </extensions>
      </trkpt>
      <trkpt lat="42.51493661664426326751708984375" lon="20.1475288532674312591552734375">
        <ele>2170.800048828125</ele>
        <time>2026-06-20T10:08:30.000Z</time>
        <extensions>
          <ns3:TrackPointExtension>
            <ns3:atemp>22.0</ns3:atemp>
          </ns3:TrackPointExtension>
        </extensions>
      </trkpt>
      <trkpt lat="42.514941394329071044921875" lon="20.14749540947377681732177734375">
        <ele>2170.800048828125</ele>
        <time>2026-06-20T10:08:31.000Z</time>
        <extensions>
          <ns3:TrackPointExtension>
            <ns3:atemp>22.0</ns3:atemp>
          </ns3:TrackPointExtension>
        </extensions>
      </trkpt>
      <trkpt lat="42.5149462558329105377197265625" lon="20.14745928347110748291015625">
        <ele>2170.800048828125</ele>
        <time>2026-06-20T10:08:32.000Z</time>
        <extensions>
          <ns3:TrackPointExtension>
            <ns3:atemp>22.0</ns3:atemp>
          </ns3:TrackPointExtension>
        </extensions>
      </trkpt>
      <trkpt lat="42.5149499438703060150146484375" lon="20.14742173254489898681640625">
        <ele>2170.800048828125</ele>
        <time>2026-06-20T10:08:33.000Z</time>
        <extensions>
          <ns3:TrackPointExtension>
            <ns3:atemp>22.0</ns3:atemp>
          </ns3:TrackPointExtension>
        </extensions>
      </trkpt>
      <trkpt lat="42.51495589502155780792236328125" lon="20.1473877020180225372314453125">
        <ele>2170.800048828125</ele>
        <time>2026-06-20T10:08:34.000Z</time>
        <extensions>
          <ns3:TrackPointExtension>
            <ns3:atemp>22.0</ns3:atemp>
          </ns3:TrackPointExtension>
        </extensions>
      </trkpt>
      <trkpt lat="42.51495908014476299285888671875" lon="20.14735023491084575653076171875">
        <ele>2170.800048828125</ele>
        <time>2026-06-20T10:08:35.000Z</time>
        <extensions>
          <ns3:TrackPointExtension>
            <ns3:atemp>22.0</ns3:atemp>
          </ns3:TrackPointExtension>
        </extensions>
      </trkpt>
      <trkpt lat="42.514967881143093109130859375" lon="20.1473193056881427764892578125">
        <ele>2171</ele>
        <time>2026-06-20T10:08:36.000Z</time>
        <extensions>
          <ns3:TrackPointExtension>
            <ns3:atemp>22.0</ns3:atemp>
          </ns3:TrackPointExtension>
        </extensions>
      </trkpt>
      <trkpt lat="42.51497902907431125640869140625" lon="20.147293992340564727783203125">
        <ele>2171</ele>
        <time>2026-06-20T10:08:37.000Z</time>
        <extensions>
          <ns3:TrackPointExtension>
            <ns3:atemp>22.0</ns3:atemp>
          </ns3:TrackPointExtension>
        </extensions>
      </trkpt>
      <trkpt lat="42.514986656606197357177734375" lon="20.1472629792988300323486328125">
        <ele>2171</ele>
        <time>2026-06-20T10:08:38.000Z</time>
        <extensions>
          <ns3:TrackPointExtension>
            <ns3:atemp>22.0</ns3:atemp>
          </ns3:TrackPointExtension>
        </extensions>
      </trkpt>
      <trkpt lat="42.51498137600719928741455078125" lon="20.1472324691712856292724609375">
        <ele>2171.199951171875</ele>
        <time>2026-06-20T10:08:39.000Z</time>
        <extensions>
          <ns3:TrackPointExtension>
            <ns3:atemp>22.0</ns3:atemp>
          </ns3:TrackPointExtension>
        </extensions>
      </trkpt>
      <trkpt lat="42.51496343873441219329833984375" lon="20.14721562154591083526611328125">
        <ele>2171.199951171875</ele>
        <time>2026-06-20T10:08:40.000Z</time>
        <extensions>
          <ns3:TrackPointExtension>
            <ns3:atemp>22.0</ns3:atemp>
          </ns3:TrackPointExtension>
        </extensions>
      </trkpt>
      <trkpt lat="42.514949105679988861083984375" lon="20.1472039707005023956298828125">
        <ele>2171.199951171875</ele>
        <time>2026-06-20T10:08:41.000Z</time>
        <extensions>
          <ns3:TrackPointExtension>
            <ns3:atemp>22.0</ns3:atemp>
          </ns3:TrackPointExtension>
        </extensions>
      </trkpt>
      <trkpt lat="42.5149402208626270294189453125" lon="20.1472103409469127655029296875">
        <ele>2171.39990234375</ele>
        <time>2026-06-20T10:08:42.000Z</time>
        <extensions>
          <ns3:TrackPointExtension>
            <ns3:atemp>22.0</ns3:atemp>
          </ns3:TrackPointExtension>
        </extensions>
      </trkpt>
      <trkpt lat="42.51493477262556552886962890625" lon="20.14722048304975032806396484375">
        <ele>2171.39990234375</ele>
        <time>2026-06-20T10:08:43.000Z</time>
        <extensions>
          <ns3:TrackPointExtension>
            <ns3:atemp>22.0</ns3:atemp>
          </ns3:TrackPointExtension>
        </extensions>
      </trkpt>
      <trkpt lat="42.51493133604526519775390625" lon="20.1472354866564273834228515625">
        <ele>2171.39990234375</ele>
        <time>2026-06-20T10:08:44.000Z</time>
        <extensions>
          <ns3:TrackPointExtension>
            <ns3:atemp>22.0</ns3:atemp>
          </ns3:TrackPointExtension>
        </extensions>
      </trkpt>
      <trkpt lat="42.51493410207331180572509765625" lon="20.14725149609148502349853515625">
        <ele>2171.39990234375</ele>
        <time>2026-06-20T10:08:45.000Z</time>
        <extensions>
          <ns3:TrackPointExtension>
            <ns3:atemp>22.0</ns3:atemp>
          </ns3:TrackPointExtension>
        </extensions>
      </trkpt>
      <trkpt lat="42.51493812538683414459228515625" lon="20.1472716964781284332275390625">
        <ele>2171.39990234375</ele>
        <time>2026-06-20T10:08:46.000Z</time>
        <extensions>
          <ns3:TrackPointExtension>
            <ns3:atemp>22.0</ns3:atemp>
          </ns3:TrackPointExtension>
        </extensions>
      </trkpt>
      <trkpt lat="42.51493929885327816009521484375" lon="20.14729969203472137451171875">
        <ele>2171.39990234375</ele>
        <time>2026-06-20T10:08:47.000Z</time>
        <extensions>
          <ns3:TrackPointExtension>
            <ns3:atemp>22.0</ns3:atemp>
          </ns3:TrackPointExtension>
        </extensions>
      </trkpt>
      <trkpt lat="42.514938376843929290771484375" lon="20.14732249081134796142578125">
        <ele>2171.39990234375</ele>
        <time>2026-06-20T10:08:48.000Z</time>
        <extensions>
          <ns3:TrackPointExtension>
            <ns3:atemp>22.0</ns3:atemp>
          </ns3:TrackPointExtension>
        </extensions>
      </trkpt>
      <trkpt lat="42.51493695192039012908935546875" lon="20.147344283759593963623046875">
        <ele>2171.39990234375</ele>
        <time>2026-06-20T10:08:49.000Z</time>
        <extensions>
          <ns3:TrackPointExtension>
            <ns3:atemp>22.0</ns3:atemp>
          </ns3:TrackPointExtension>
        </extensions>
      </trkpt>
      <trkpt lat="42.51494332216680049896240234375" lon="20.14736766926944255828857421875">
        <ele>2171.39990234375</ele>
        <time>2026-06-20T10:08:50.000Z</time>
        <extensions>
          <ns3:TrackPointExtension>
            <ns3:atemp>22.0</ns3:atemp>
          </ns3:TrackPointExtension>
        </extensions>
      </trkpt>
      <trkpt lat="42.51494566909968852996826171875" lon="20.147401951253414154052734375">
        <ele>2171.199951171875</ele>
        <time>2026-06-20T10:08:51.000Z</time>
        <extensions>
          <ns3:TrackPointExtension>
            <ns3:atemp>22.0</ns3:atemp>
          </ns3:TrackPointExtension>
        </extensions>
      </trkpt>
      <trkpt lat="42.514945752918720245361328125" lon="20.147438831627368927001953125">
        <ele>2171.199951171875</ele>
        <time>2026-06-20T10:08:52.000Z</time>
        <extensions>
          <ns3:TrackPointExtension>
            <ns3:atemp>22.0</ns3:atemp>
          </ns3:TrackPointExtension>
        </extensions>
      </trkpt>
      <trkpt lat="42.51494432799518108367919921875" lon="20.14747227542102336883544921875">
        <ele>2171</ele>
        <time>2026-06-20T10:08:53.000Z</time>
        <extensions>
          <ns3:TrackPointExtension>
            <ns3:atemp>22.0</ns3:atemp>
          </ns3:TrackPointExtension>
        </extensions>
      </trkpt>
      <trkpt lat="42.51494198106229305267333984375" lon="20.14750982634723186492919921875">
        <ele>2170.800048828125</ele>
        <time>2026-06-20T10:08:54.000Z</time>
        <extensions>
          <ns3:TrackPointExtension>
            <ns3:atemp>22.0</ns3:atemp>
          </ns3:TrackPointExtension>
        </extensions>
      </trkpt>
      <trkpt lat="42.51494030468165874481201171875" lon="20.14754637144505977630615234375">
        <ele>2170.60009765625</ele>
        <time>2026-06-20T10:08:55.000Z</time>
        <extensions>
          <ns3:TrackPointExtension>
            <ns3:atemp>22.0</ns3:atemp>
          </ns3:TrackPointExtension>
        </extensions>
      </trkpt>
      <trkpt lat="42.51493846066296100616455078125" lon="20.14758325181901454925537109375">
        <ele>2170.60009765625</ele>
        <time>2026-06-20T10:08:56.000Z</time>
        <extensions>
          <ns3:TrackPointExtension>
            <ns3:atemp>22.0</ns3:atemp>
          </ns3:TrackPointExtension>
        </extensions>
      </trkpt>
      <trkpt lat="42.51493644900619983673095703125" lon="20.14761627651751041412353515625">
        <ele>2170.39990234375</ele>
        <time>2026-06-20T10:08:57.000Z</time>
        <extensions>
          <ns3:TrackPointExtension>
            <ns3:atemp>22.0</ns3:atemp>
          </ns3:TrackPointExtension>
        </extensions>
      </trkpt>
      <trkpt lat="42.5149351917207241058349609375" lon="20.147650726139545440673828125">
        <ele>2170.39990234375</ele>
        <time>2026-06-20T10:08:58.000Z</time>
        <extensions>
          <ns3:TrackPointExtension>
            <ns3:atemp>22.0</ns3:atemp>
          </ns3:TrackPointExtension>
        </extensions>
      </trkpt>
      <trkpt lat="42.51493309624493122100830078125" lon="20.14768727123737335205078125">
        <ele>2170.60009765625</ele>
        <time>2026-06-20T10:08:59.000Z</time>
        <extensions>
          <ns3:TrackPointExtension>
            <ns3:atemp>22.0</ns3:atemp>
          </ns3:TrackPointExtension>
        </extensions>
      </trkpt>
      <trkpt lat="42.5149318389594554901123046875" lon="20.147727169096469879150390625">
        <ele>2170.800048828125</ele>
        <time>2026-06-20T10:09:00.000Z</time>
        <extensions>
          <ns3:TrackPointExtension>
            <ns3:atemp>22.0</ns3:atemp>
          </ns3:TrackPointExtension>
        </extensions>
      </trkpt>
      <trkpt lat="42.51492873765528202056884765625" lon="20.14777176082134246826171875">
        <ele>2170.800048828125</ele>
        <time>2026-06-20T10:09:01.000Z</time>
        <extensions>
          <ns3:TrackPointExtension>
            <ns3:atemp>22.0</ns3:atemp>
          </ns3:TrackPointExtension>
        </extensions>
      </trkpt>
      <trkpt lat="42.51491658389568328857421875" lon="20.1478054560720920562744140625">
        <ele>2170.800048828125</ele>
        <time>2026-06-20T10:09:02.000Z</time>
        <extensions>
          <ns3:TrackPointExtension>
            <ns3:atemp>22.0</ns3:atemp>
          </ns3:TrackPointExtension>
        </extensions>
      </trkpt>
      <trkpt lat="42.5149066932499408721923828125" lon="20.147833786904811859130859375">
        <ele>2171</ele>
        <time>2026-06-20T10:09:03.000Z</time>
        <extensions>
          <ns3:TrackPointExtension>
            <ns3:atemp>22.0</ns3:atemp>
          </ns3:TrackPointExtension>
        </extensions>
      </trkpt>
      <trkpt lat="42.51489780843257904052734375" lon="20.14786563813686370849609375">
        <ele>2171</ele>
        <time>2026-06-20T10:09:04.000Z</time>
        <extensions>
          <ns3:TrackPointExtension>
            <ns3:atemp>22.0</ns3:atemp>
          </ns3:TrackPointExtension>
        </extensions>
      </trkpt>
      <trkpt lat="42.51489118672907352447509765625" lon="20.1479003392159938812255859375">
        <ele>2171</ele>
        <time>2026-06-20T10:09:05.000Z</time>
        <extensions>
          <ns3:TrackPointExtension>
            <ns3:atemp>22.0</ns3:atemp>
          </ns3:TrackPointExtension>
        </extensions>
      </trkpt>
      <trkpt lat="42.51488246954977512359619140625" lon="20.14793001115322113037109375">
        <ele>2171</ele>
        <time>2026-06-20T10:09:06.000Z</time>
        <extensions>
          <ns3:TrackPointExtension>
            <ns3:atemp>22.0</ns3:atemp>
          </ns3:TrackPointExtension>
        </extensions>
      </trkpt>
      <trkpt lat="42.5148795358836650848388671875" lon="20.14796446077525615692138671875">
        <ele>2171.199951171875</ele>
        <time>2026-06-20T10:09:07.000Z</time>
        <extensions>
          <ns3:TrackPointExtension>
            <ns3:atemp>22.0</ns3:atemp>
          </ns3:TrackPointExtension>
        </extensions>
      </trkpt>
      <trkpt lat="42.51487475819885730743408203125" lon="20.1479952223598957061767578125">
        <ele>2171.199951171875</ele>
        <time>2026-06-20T10:09:08.000Z</time>
        <extensions>
          <ns3:TrackPointExtension>
            <ns3:atemp>22.0</ns3:atemp>
          </ns3:TrackPointExtension>
        </extensions>
      </trkpt>
      <trkpt lat="42.51487123779952526092529296875" lon="20.1480257324874401092529296875">
        <ele>2171.199951171875</ele>
        <time>2026-06-20T10:09:09.000Z</time>
        <extensions>
          <ns3:TrackPointExtension>
            <ns3:atemp>22.0</ns3:atemp>
          </ns3:TrackPointExtension>
        </extensions>
      </trkpt>
      <trkpt lat="42.51487308181822299957275390625" lon="20.148063786327838897705078125">
        <ele>2171</ele>
        <time>2026-06-20T10:09:10.000Z</time>
        <extensions>
          <ns3:TrackPointExtension>
            <ns3:atemp>22.0</ns3:atemp>
          </ns3:TrackPointExtension>
        </extensions>
      </trkpt>
      <trkpt lat="42.514874003827571868896484375" lon="20.14809572137892246246337890625">
        <ele>2171</ele>
        <time>2026-06-20T10:09:11.000Z</time>
        <extensions>
          <ns3:TrackPointExtension>
            <ns3:atemp>22.0</ns3:atemp>
          </ns3:TrackPointExtension>
        </extensions>
      </trkpt>
      <trkpt lat="42.51487274654209613800048828125" lon="20.14813159592449665069580078125">
        <ele>2171</ele>
        <time>2026-06-20T10:09:12.000Z</time>
        <extensions>
          <ns3:TrackPointExtension>
            <ns3:atemp>22.0</ns3:atemp>
          </ns3:TrackPointExtension>
        </extensions>
      </trkpt>
      <trkpt lat="42.51487123779952526092529296875" lon="20.1481655426323413848876953125">
        <ele>2171.199951171875</ele>
        <time>2026-06-20T10:09:13.000Z</time>
        <extensions>
          <ns3:TrackPointExtension>
            <ns3:atemp>22.0</ns3:atemp>
          </ns3:TrackPointExtension>
        </extensions>
      </trkpt>
      <trkpt lat="42.51487433910369873046875" lon="20.148199908435344696044921875">
        <ele>2171.199951171875</ele>
        <time>2026-06-20T10:09:14.000Z</time>
        <extensions>
          <ns3:TrackPointExtension>
            <ns3:atemp>22.0</ns3:atemp>
          </ns3:TrackPointExtension>
        </extensions>
      </trkpt>
      <trkpt lat="42.51487710513174533843994140625" lon="20.14823502860963344573974609375">
        <ele>2171.39990234375</ele>
        <time>2026-06-20T10:09:15.000Z</time>
        <extensions>
          <ns3:TrackPointExtension>
            <ns3:atemp>22.0</ns3:atemp>
          </ns3:TrackPointExtension>
        </extensions>
      </trkpt>
      <trkpt lat="42.51487626694142818450927734375" lon="20.14826771803200244903564453125">
        <ele>2171.60009765625</ele>
        <time>2026-06-20T10:09:16.000Z</time>
        <extensions>
          <ns3:TrackPointExtension>
            <ns3:atemp>22.0</ns3:atemp>
          </ns3:TrackPointExtension>
        </extensions>
      </trkpt>
      <trkpt lat="42.514871321618556976318359375" lon="20.1482936181128025054931640625">
        <ele>2171.800048828125</ele>
        <time>2026-06-20T10:09:17.000Z</time>
        <extensions>
          <ns3:TrackPointExtension>
            <ns3:atemp>22.0</ns3:atemp>
          </ns3:TrackPointExtension>
        </extensions>
      </trkpt>
      <trkpt lat="42.5148624368011951446533203125" lon="20.148310549557209014892578125">
        <ele>2172</ele>
        <time>2026-06-20T10:09:18.000Z</time>
        <extensions>
          <ns3:TrackPointExtension>
            <ns3:atemp>22.0</ns3:atemp>
          </ns3:TrackPointExtension>
        </extensions>
      </trkpt>
      <trkpt lat="42.51485849730670452117919921875" lon="20.1483345218002796173095703125">
        <ele>2172.39990234375</ele>
        <time>2026-06-20T10:09:19.000Z</time>
        <extensions>
          <ns3:TrackPointExtension>
            <ns3:atemp>22.0</ns3:atemp>
          </ns3:TrackPointExtension>
        </extensions>
      </trkpt>
      <trkpt lat="42.5148510374128818511962890625" lon="20.1483543030917644500732421875">
        <ele>2173</ele>
        <time>2026-06-20T10:09:20.000Z</time>
        <extensions>
          <ns3:TrackPointExtension>
            <ns3:atemp>22.0</ns3:atemp>
          </ns3:TrackPointExtension>
        </extensions>
      </trkpt>
      <trkpt lat="42.514845170080661773681640625" lon="20.14837651513516902923583984375">
        <ele>2173.39990234375</ele>
        <time>2026-06-20T10:09:21.000Z</time>
        <extensions>
          <ns3:TrackPointExtension>
            <ns3:atemp>22.0</ns3:atemp>
          </ns3:TrackPointExtension>
        </extensions>
      </trkpt>
      <trkpt lat="42.514836788177490234375" lon="20.14839529059827327728271484375">
        <ele>2173.800048828125</ele>
        <time>2026-06-20T10:09:22.000Z</time>
        <extensions>
          <ns3:TrackPointExtension>
            <ns3:atemp>22.0</ns3:atemp>
          </ns3:TrackPointExtension>
        </extensions>
      </trkpt>
      <trkpt lat="42.51483184285461902618408203125" lon="20.1484173350036144256591796875">
        <ele>2174.199951171875</ele>
        <time>2026-06-20T10:09:23.000Z</time>
        <extensions>
          <ns3:TrackPointExtension>
            <ns3:atemp>22.0</ns3:atemp>
          </ns3:TrackPointExtension>
        </extensions>
      </trkpt>
      <trkpt lat="42.5148248858749866485595703125" lon="20.14843837358057498931884765625">
        <ele>2174.39990234375</ele>
        <time>2026-06-20T10:09:24.000Z</time>
        <extensions>
          <ns3:TrackPointExtension>
            <ns3:atemp>22.0</ns3:atemp>
          </ns3:TrackPointExtension>
        </extensions>
      </trkpt>
      <trkpt lat="42.51481977291405200958251953125" lon="20.14845882542431354522705078125">
        <ele>2174.800048828125</ele>
        <time>2026-06-20T10:09:25.000Z</time>
        <extensions>
          <ns3:TrackPointExtension>
            <ns3:atemp>22.0</ns3:atemp>
          </ns3:TrackPointExtension>
        </extensions>
      </trkpt>
      <trkpt lat="42.5148154981434345245361328125" lon="20.14847894199192523956298828125">
        <ele>2175</ele>
        <time>2026-06-20T10:09:26.000Z</time>
        <extensions>
          <ns3:TrackPointExtension>
            <ns3:atemp>22.0</ns3:atemp>
          </ns3:TrackPointExtension>
        </extensions>
      </trkpt>
      <trkpt lat="42.51481189392507076263427734375" lon="20.148504674434661865234375">
        <ele>2175</ele>
        <time>2026-06-20T10:09:27.000Z</time>
        <extensions>
          <ns3:TrackPointExtension>
            <ns3:atemp>22.0</ns3:atemp>
          </ns3:TrackPointExtension>
        </extensions>
      </trkpt>
      <trkpt lat="42.51480720005929470062255859375" lon="20.14852973632514476776123046875">
        <ele>2175.199951171875</ele>
        <time>2026-06-20T10:09:28.000Z</time>
        <extensions>
          <ns3:TrackPointExtension>
            <ns3:atemp>22.0</ns3:atemp>
          </ns3:TrackPointExtension>
        </extensions>
      </trkpt>
      <trkpt lat="42.51480367965996265411376953125" lon="20.1485554687678813934326171875">
        <ele>2175.39990234375</ele>
        <time>2026-06-20T10:09:29.000Z</time>
        <extensions>
          <ns3:TrackPointExtension>
            <ns3:atemp>22.0</ns3:atemp>
          </ns3:TrackPointExtension>
        </extensions>
      </trkpt>
      <trkpt lat="42.5148007459938526153564453125" lon="20.148578770458698272705078125">
        <ele>2175.39990234375</ele>
        <time>2026-06-20T10:09:30.000Z</time>
        <extensions>
          <ns3:TrackPointExtension>
            <ns3:atemp>22.0</ns3:atemp>
          </ns3:TrackPointExtension>
        </extensions>
      </trkpt>
      <trkpt lat="42.51479630358517169952392578125" lon="20.1486007310450077056884765625">
        <ele>2175.60009765625</ele>
        <time>2026-06-20T10:09:31.000Z</time>
        <extensions>
          <ns3:TrackPointExtension>
            <ns3:atemp>22.0</ns3:atemp>
          </ns3:TrackPointExtension>
        </extensions>
      </trkpt>
      <trkpt lat="42.514791190624237060546875" lon="20.1486265473067760467529296875">
        <ele>2175.60009765625</ele>
        <time>2026-06-20T10:09:32.000Z</time>
        <extensions>
          <ns3:TrackPointExtension>
            <ns3:atemp>22.0</ns3:atemp>
          </ns3:TrackPointExtension>
        </extensions>
      </trkpt>
      <trkpt lat="42.51478356309235095977783203125" lon="20.14865060336887836456298828125">
        <ele>2175.800048828125</ele>
        <time>2026-06-20T10:09:33.000Z</time>
        <extensions>
          <ns3:TrackPointExtension>
            <ns3:atemp>22.0</ns3:atemp>
          </ns3:TrackPointExtension>
        </extensions>
      </trkpt>
      <trkpt lat="42.5147791206836700439453125" lon="20.14867524616420269012451171875">
        <ele>2176</ele>
        <time>2026-06-20T10:09:34.000Z</time>
        <extensions>
          <ns3:TrackPointExtension>
            <ns3:atemp>22.0</ns3:atemp>
          </ns3:TrackPointExtension>
        </extensions>
      </trkpt>
      <trkpt lat="42.51477333717048168182373046875" lon="20.1486964523792266845703125">
        <ele>2176.199951171875</ele>
        <time>2026-06-20T10:09:35.000Z</time>
        <extensions>
          <ns3:TrackPointExtension>
            <ns3:atemp>22.0</ns3:atemp>
          </ns3:TrackPointExtension>
        </extensions>
      </trkpt>
      <trkpt lat="42.51476638019084930419921875" lon="20.14871950261294841766357421875">
        <ele>2176.39990234375</ele>
        <time>2026-06-20T10:09:36.000Z</time>
        <extensions>
          <ns3:TrackPointExtension>
            <ns3:atemp>22.0</ns3:atemp>
          </ns3:TrackPointExtension>
        </extensions>
      </trkpt>
      <trkpt lat="42.5147548131644725799560546875" lon="20.14874079264700412750244140625">
        <ele>2176.39990234375</ele>
        <time>2026-06-20T10:09:37.000Z</time>
        <extensions>
          <ns3:TrackPointExtension>
            <ns3:atemp>22.0</ns3:atemp>
          </ns3:TrackPointExtension>
        </extensions>
      </trkpt>
      <trkpt lat="42.51474685035645961761474609375" lon="20.14876308850944042205810546875">
        <ele>2176.60009765625</ele>
        <time>2026-06-20T10:09:38.000Z</time>
        <extensions>
          <ns3:TrackPointExtension>
            <ns3:atemp>22.0</ns3:atemp>
          </ns3:TrackPointExtension>
        </extensions>
      </trkpt>
      <trkpt lat="42.51473955810070037841796875" lon="20.14878161251544952392578125">
        <ele>2176.60009765625</ele>
        <time>2026-06-20T10:09:39.000Z</time>
        <extensions>
          <ns3:TrackPointExtension>
            <ns3:atemp>22.0</ns3:atemp>
          </ns3:TrackPointExtension>
        </extensions>
      </trkpt>
      <trkpt lat="42.5147300027310848236083984375" lon="20.14880583621561527252197265625">
        <ele>2176.800048828125</ele>
        <time>2026-06-20T10:09:40.000Z</time>
        <extensions>
          <ns3:TrackPointExtension>
            <ns3:atemp>22.0</ns3:atemp>
          </ns3:TrackPointExtension>
        </extensions>
      </trkpt>
      <trkpt lat="42.514721788465976715087890625" lon="20.14883081428706645965576171875">
        <ele>2177</ele>
        <time>2026-06-20T10:09:41.000Z</time>
        <extensions>
          <ns3:TrackPointExtension>
            <ns3:atemp>22.0</ns3:atemp>
          </ns3:TrackPointExtension>
        </extensions>
      </trkpt>
      <trkpt lat="42.51471416093409061431884765625" lon="20.1488598994910717010498046875">
        <ele>2177.199951171875</ele>
        <time>2026-06-20T10:09:42.000Z</time>
        <extensions>
          <ns3:TrackPointExtension>
            <ns3:atemp>22.0</ns3:atemp>
          </ns3:TrackPointExtension>
        </extensions>
      </trkpt>
      <trkpt lat="42.51470678485929965972900390625" lon="20.14888496138155460357666015625">
        <ele>2177.39990234375</ele>
        <time>2026-06-20T10:09:43.000Z</time>
        <extensions>
          <ns3:TrackPointExtension>
            <ns3:atemp>22.0</ns3:atemp>
          </ns3:TrackPointExtension>
        </extensions>
      </trkpt>
      <trkpt lat="42.51469932496547698974609375" lon="20.14890993945300579071044921875">
        <ele>2177.60009765625</ele>
        <time>2026-06-20T10:09:44.000Z</time>
        <extensions>
          <ns3:TrackPointExtension>
            <ns3:atemp>22.0</ns3:atemp>
          </ns3:TrackPointExtension>
        </extensions>
      </trkpt>
      <trkpt lat="42.51469136215746402740478515625" lon="20.14893709681928157806396484375">
        <ele>2177.60009765625</ele>
        <time>2026-06-20T10:09:45.000Z</time>
        <extensions>
          <ns3:TrackPointExtension>
            <ns3:atemp>22.0</ns3:atemp>
          </ns3:TrackPointExtension>
        </extensions>
      </trkpt>
      <trkpt lat="42.51468046568334102630615234375" lon="20.14896358363330364227294921875">
        <ele>2177.60009765625</ele>
        <time>2026-06-20T10:09:46.000Z</time>
        <extensions>
          <ns3:TrackPointExtension>
            <ns3:atemp>22.0</ns3:atemp>
          </ns3:TrackPointExtension>
        </extensions>
      </trkpt>
      <trkpt lat="42.51467208378016948699951171875" lon="20.14899191446602344512939453125">
        <ele>2177.800048828125</ele>
        <time>2026-06-20T10:09:47.000Z</time>
        <extensions>
          <ns3:TrackPointExtension>
            <ns3:atemp>22.0</ns3:atemp>
          </ns3:TrackPointExtension>
        </extensions>
      </trkpt>
      <trkpt lat="42.514667809009552001953125" lon="20.149021334946155548095703125">
        <ele>2178</ele>
        <time>2026-06-20T10:09:48.000Z</time>
        <extensions>
          <ns3:TrackPointExtension>
            <ns3:atemp>22.0</ns3:atemp>
          </ns3:TrackPointExtension>
        </extensions>
      </trkpt>
      <trkpt lat="42.51466118730604648590087890625" lon="20.14904622919857501983642578125">
        <ele>2178</ele>
        <time>2026-06-20T10:09:49.000Z</time>
        <extensions>
          <ns3:TrackPointExtension>
            <ns3:atemp>22.0</ns3:atemp>
          </ns3:TrackPointExtension>
        </extensions>
      </trkpt>
      <trkpt lat="42.514653392136096954345703125" lon="20.1490758173167705535888671875">
        <ele>2178.199951171875</ele>
        <time>2026-06-20T10:09:50.000Z</time>
        <extensions>
          <ns3:TrackPointExtension>
            <ns3:atemp>22.0</ns3:atemp>
          </ns3:TrackPointExtension>
        </extensions>
      </trkpt>
      <trkpt lat="42.5146391429007053375244140625" lon="20.14909970574080944061279296875">
        <ele>2178.39990234375</ele>
        <time>2026-06-20T10:09:51.000Z</time>
        <extensions>
          <ns3:TrackPointExtension>
            <ns3:atemp>22.0</ns3:atemp>
          </ns3:TrackPointExtension>
        </extensions>
      </trkpt>
      <trkpt lat="42.5146297551691532135009765625" lon="20.149126611649990081787109375">
        <ele>2178.60009765625</ele>
        <time>2026-06-20T10:09:52.000Z</time>
        <extensions>
          <ns3:TrackPointExtension>
            <ns3:atemp>22.0</ns3:atemp>
          </ns3:TrackPointExtension>
        </extensions>
      </trkpt>
      <trkpt lat="42.51461810432374477386474609375" lon="20.1491536013782024383544921875">
        <ele>2178.60009765625</ele>
        <time>2026-06-20T10:09:53.000Z</time>
        <extensions>
          <ns3:TrackPointExtension>
            <ns3:atemp>22.0</ns3:atemp>
          </ns3:TrackPointExtension>
        </extensions>
      </trkpt>
      <trkpt lat="42.51461223699152469635009765625" lon="20.1491804234683513641357421875">
        <ele>2178.800048828125</ele>
        <time>2026-06-20T10:09:54.000Z</time>
        <extensions>
          <ns3:TrackPointExtension>
            <ns3:atemp>22.0</ns3:atemp>
          </ns3:TrackPointExtension>
        </extensions>
      </trkpt>
      <trkpt lat="42.51460569910705089569091796875" lon="20.14921034686267375946044921875">
        <ele>2179</ele>
        <time>2026-06-20T10:09:55.000Z</time>
        <extensions>
          <ns3:TrackPointExtension>
            <ns3:atemp>22.0</ns3:atemp>
          </ns3:TrackPointExtension>
        </extensions>
      </trkpt>
      <trkpt lat="42.51459832303225994110107421875" lon="20.1492382586002349853515625">
        <ele>2179</ele>
        <time>2026-06-20T10:09:56.000Z</time>
        <extensions>
          <ns3:TrackPointExtension>
            <ns3:atemp>22.0</ns3:atemp>
          </ns3:TrackPointExtension>
        </extensions>
      </trkpt>
      <trkpt lat="42.51459128223359584808349609375" lon="20.14926617033779621124267578125">
        <ele>2179</ele>
        <time>2026-06-20T10:09:57.000Z</time>
        <extensions>
          <ns3:TrackPointExtension>
            <ns3:atemp>22.0</ns3:atemp>
          </ns3:TrackPointExtension>
        </extensions>
      </trkpt>
      <trkpt lat="42.5145834870636463165283203125" lon="20.14929433353245258331298828125">
        <ele>2179.199951171875</ele>
        <time>2026-06-20T10:09:58.000Z</time>
        <extensions>
          <ns3:TrackPointExtension>
            <ns3:atemp>22.0</ns3:atemp>
          </ns3:TrackPointExtension>
        </extensions>
      </trkpt>
      <trkpt lat="42.51457384787499904632568359375" lon="20.1493215747177600860595703125">
        <ele>2179.199951171875</ele>
        <time>2026-06-20T10:09:59.000Z</time>
        <extensions>
          <ns3:TrackPointExtension>
            <ns3:atemp>22.0</ns3:atemp>
          </ns3:TrackPointExtension>
        </extensions>
      </trkpt>
      <trkpt lat="42.51456496305763721466064453125" lon="20.1493455469608306884765625">
        <ele>2179.39990234375</ele>
        <time>2026-06-20T10:10:00.000Z</time>
        <extensions>
          <ns3:TrackPointExtension>
            <ns3:atemp>22.0</ns3:atemp>
          </ns3:TrackPointExtension>
        </extensions>
      </trkpt>
      <trkpt lat="42.5145583413541316986083984375" lon="20.1493681780993938446044921875">
        <ele>2179.60009765625</ele>
        <time>2026-06-20T10:10:01.000Z</time>
        <extensions>
          <ns3:TrackPointExtension>
            <ns3:atemp>22.0</ns3:atemp>
          </ns3:TrackPointExtension>
        </extensions>
      </trkpt>
      <trkpt lat="42.51454853452742099761962890625" lon="20.1493913121521472930908203125">
        <ele>2180</ele>
        <time>2026-06-20T10:10:02.000Z</time>
        <extensions>
          <ns3:TrackPointExtension>
            <ns3:atemp>22.0</ns3:atemp>
          </ns3:TrackPointExtension>
        </extensions>
      </trkpt>
      <trkpt lat="42.51454216428101062774658203125" lon="20.1494151167571544647216796875">
        <ele>2180.199951171875</ele>
        <time>2026-06-20T10:10:03.000Z</time>
        <extensions>
          <ns3:TrackPointExtension>
            <ns3:atemp>22.0</ns3:atemp>
          </ns3:TrackPointExtension>
        </extensions>
      </trkpt>
      <trkpt lat="42.5145362131297588348388671875" lon="20.149441100656986236572265625">
        <ele>2180.39990234375</ele>
        <time>2026-06-20T10:10:04.000Z</time>
        <extensions>
          <ns3:TrackPointExtension>
            <ns3:atemp>22.0</ns3:atemp>
          </ns3:TrackPointExtension>
        </extensions>
      </trkpt>
      <trkpt lat="42.5145298428833484649658203125" lon="20.14946649782359600067138671875">
        <ele>2180.60009765625</ele>
        <time>2026-06-20T10:10:05.000Z</time>
        <extensions>
          <ns3:TrackPointExtension>
            <ns3:atemp>22.0</ns3:atemp>
          </ns3:TrackPointExtension>
        </extensions>
      </trkpt>
      <trkpt lat="42.514523304998874664306640625" lon="20.1494865305721759796142578125">
        <ele>2181</ele>
        <time>2026-06-20T10:10:06.000Z</time>
        <extensions>
          <ns3:TrackPointExtension>
            <ns3:atemp>22.0</ns3:atemp>
          </ns3:TrackPointExtension>
        </extensions>
      </trkpt>
      <trkpt lat="42.5145160965621471405029296875" lon="20.1495083235204219818115234375">
        <ele>2181.199951171875</ele>
        <time>2026-06-20T10:10:07.000Z</time>
        <extensions>
          <ns3:TrackPointExtension>
            <ns3:atemp>22.0</ns3:atemp>
          </ns3:TrackPointExtension>
        </extensions>
      </trkpt>
      <trkpt lat="42.5145082175731658935546875" lon="20.14953020028769969940185546875">
        <ele>2181.39990234375</ele>
        <time>2026-06-20T10:10:08.000Z</time>
        <extensions>
          <ns3:TrackPointExtension>
            <ns3:atemp>22.0</ns3:atemp>
          </ns3:TrackPointExtension>
        </extensions>
      </trkpt>
      <trkpt lat="42.514500506222248077392578125" lon="20.1495515741407871246337890625">
        <ele>2181.60009765625</ele>
        <time>2026-06-20T10:10:09.000Z</time>
        <extensions>
          <ns3:TrackPointExtension>
            <ns3:atemp>22.0</ns3:atemp>
          </ns3:TrackPointExtension>
        </extensions>
      </trkpt>
      <trkpt lat="42.51449170522391796112060546875" lon="20.1495747081935405731201171875">
        <ele>2181.800048828125</ele>
        <time>2026-06-20T10:10:10.000Z</time>
        <extensions>
          <ns3:TrackPointExtension>
            <ns3:atemp>22.0</ns3:atemp>
          </ns3:TrackPointExtension>
        </extensions>
      </trkpt>
      <trkpt lat="42.5144818983972072601318359375" lon="20.149598009884357452392578125">
        <ele>2182</ele>
        <time>2026-06-20T10:10:11.000Z</time>
        <extensions>
          <ns3:TrackPointExtension>
            <ns3:atemp>22.0</ns3:atemp>
          </ns3:TrackPointExtension>
        </extensions>
      </trkpt>
      <trkpt lat="42.51446999609470367431640625" lon="20.149617455899715423583984375">
        <ele>2182.199951171875</ele>
        <time>2026-06-20T10:10:12.000Z</time>
        <extensions>
          <ns3:TrackPointExtension>
            <ns3:atemp>22.0</ns3:atemp>
          </ns3:TrackPointExtension>
        </extensions>
      </trkpt>
      <trkpt lat="42.5144587643444538116455078125" lon="20.14963480643928050994873046875">
        <ele>2182.39990234375</ele>
        <time>2026-06-20T10:10:13.000Z</time>
        <extensions>
          <ns3:TrackPointExtension>
            <ns3:atemp>22.0</ns3:atemp>
          </ns3:TrackPointExtension>
        </extensions>
      </trkpt>
      <trkpt lat="42.5144466944038867950439453125" lon="20.14965425245463848114013671875">
        <ele>2182.60009765625</ele>
        <time>2026-06-20T10:10:14.000Z</time>
        <extensions>
          <ns3:TrackPointExtension>
            <ns3:atemp>22.0</ns3:atemp>
          </ns3:TrackPointExtension>
        </extensions>
      </trkpt>
      <trkpt lat="42.5144357979297637939453125" lon="20.1496700942516326904296875">
        <ele>2182.800048828125</ele>
        <time>2026-06-20T10:10:15.000Z</time>
        <extensions>
          <ns3:TrackPointExtension>
            <ns3:atemp>22.0</ns3:atemp>
          </ns3:TrackPointExtension>
        </extensions>
      </trkpt>
      <trkpt lat="42.5144249014556407928466796875" lon="20.1496876962482929229736328125">
        <ele>2183.199951171875</ele>
        <time>2026-06-20T10:10:16.000Z</time>
        <extensions>
          <ns3:TrackPointExtension>
            <ns3:atemp>22.0</ns3:atemp>
          </ns3:TrackPointExtension>
        </extensions>
      </trkpt>
      <trkpt lat="42.51441635191440582275390625" lon="20.14970337040722370147705078125">
        <ele>2183.39990234375</ele>
        <time>2026-06-20T10:10:17.000Z</time>
        <extensions>
          <ns3:TrackPointExtension>
            <ns3:atemp>22.0</ns3:atemp>
          </ns3:TrackPointExtension>
        </extensions>
      </trkpt>
      <trkpt lat="42.5144071318209171295166015625" lon="20.14972130768001079559326171875">
        <ele>2183.60009765625</ele>
        <time>2026-06-20T10:10:18.000Z</time>
        <extensions>
          <ns3:TrackPointExtension>
            <ns3:atemp>22.0</ns3:atemp>
          </ns3:TrackPointExtension>
        </extensions>
      </trkpt>
      <trkpt lat="42.5143955647945404052734375" lon="20.14973907731473445892333984375">
        <ele>2183.800048828125</ele>
        <time>2026-06-20T10:10:19.000Z</time>
        <extensions>
          <ns3:TrackPointExtension>
            <ns3:atemp>22.0</ns3:atemp>
          </ns3:TrackPointExtension>
        </extensions>
      </trkpt>
      <trkpt lat="42.51438274048268795013427734375" lon="20.14975600875914096832275390625">
        <ele>2184</ele>
        <time>2026-06-20T10:10:20.000Z</time>
        <extensions>
          <ns3:TrackPointExtension>
            <ns3:atemp>22.0</ns3:atemp>
          </ns3:TrackPointExtension>
        </extensions>
      </trkpt>
      <trkpt lat="42.5143702514469623565673828125" lon="20.14977361075580120086669921875">
        <ele>2184.199951171875</ele>
        <time>2026-06-20T10:10:21.000Z</time>
        <extensions>
          <ns3:TrackPointExtension>
            <ns3:atemp>22.0</ns3:atemp>
          </ns3:TrackPointExtension>
        </extensions>
      </trkpt>
      <trkpt lat="42.51436002552509307861328125" lon="20.1497946493327617645263671875">
        <ele>2184.199951171875</ele>
        <time>2026-06-20T10:10:22.000Z</time>
        <extensions>
          <ns3:TrackPointExtension>
            <ns3:atemp>22.0</ns3:atemp>
          </ns3:TrackPointExtension>
        </extensions>
      </trkpt>
      <trkpt lat="42.51435088925063610076904296875" lon="20.14981552027165889739990234375">
        <ele>2184.199951171875</ele>
        <time>2026-06-20T10:10:23.000Z</time>
        <extensions>
          <ns3:TrackPointExtension>
            <ns3:atemp>22.0</ns3:atemp>
          </ns3:TrackPointExtension>
        </extensions>
      </trkpt>
      <trkpt lat="42.51433999277651309967041015625" lon="20.1498348824679851531982421875">
        <ele>2184.199951171875</ele>
        <time>2026-06-20T10:10:24.000Z</time>
        <extensions>
          <ns3:TrackPointExtension>
            <ns3:atemp>22.0</ns3:atemp>
          </ns3:TrackPointExtension>
        </extensions>
      </trkpt>
      <trkpt lat="42.5143276713788509368896484375" lon="20.14985105954110622406005859375">
        <ele>2184.199951171875</ele>
        <time>2026-06-20T10:10:25.000Z</time>
        <extensions>
          <ns3:TrackPointExtension>
            <ns3:atemp>22.0</ns3:atemp>
          </ns3:TrackPointExtension>
        </extensions>
      </trkpt>
      <trkpt lat="42.5143156014382839202880859375" lon="20.1498632133007049560546875">
        <ele>2184.199951171875</ele>
        <time>2026-06-20T10:10:26.000Z</time>
        <extensions>
          <ns3:TrackPointExtension>
            <ns3:atemp>22.0</ns3:atemp>
          </ns3:TrackPointExtension>
        </extensions>
      </trkpt>
      <trkpt lat="42.51430411823093891143798828125" lon="20.14987570233643054962158203125">
        <ele>2184.199951171875</ele>
        <time>2026-06-20T10:10:27.000Z</time>
        <extensions>
          <ns3:TrackPointExtension>
            <ns3:atemp>22.0</ns3:atemp>
          </ns3:TrackPointExtension>
        </extensions>
      </trkpt>
      <trkpt lat="42.51428986899554729461669921875" lon="20.14988802373409271240234375">
        <ele>2184.39990234375</ele>
        <time>2026-06-20T10:10:28.000Z</time>
        <extensions>
          <ns3:TrackPointExtension>
            <ns3:atemp>22.0</ns3:atemp>
          </ns3:TrackPointExtension>
        </extensions>
      </trkpt>
      <trkpt lat="42.51427310518920421600341796875" lon="20.149890370666980743408203125">
        <ele>2184.39990234375</ele>
        <time>2026-06-20T10:10:29.000Z</time>
        <extensions>
          <ns3:TrackPointExtension>
            <ns3:atemp>22.0</ns3:atemp>
          </ns3:TrackPointExtension>
        </extensions>
      </trkpt>
      <trkpt lat="42.5142589397728443145751953125" lon="20.14988710172474384307861328125">
        <ele>2184.60009765625</ele>
        <time>2026-06-20T10:10:30.000Z</time>
        <extensions>
          <ns3:TrackPointExtension>
            <ns3:atemp>22.0</ns3:atemp>
          </ns3:TrackPointExtension>
        </extensions>
      </trkpt>
      <trkpt lat="42.51424477435648441314697265625" lon="20.1498873531818389892578125">
        <ele>2184.800048828125</ele>
        <time>2026-06-20T10:10:31.000Z</time>
        <extensions>
          <ns3:TrackPointExtension>
            <ns3:atemp>22.0</ns3:atemp>
          </ns3:TrackPointExtension>
        </extensions>
      </trkpt>
      <trkpt lat="42.514232955873012542724609375" lon="20.1498838327825069427490234375">
        <ele>2185</ele>
        <time>2026-06-20T10:10:32.000Z</time>
        <extensions>
          <ns3:TrackPointExtension>
            <ns3:atemp>22.0</ns3:atemp>
          </ns3:TrackPointExtension>
        </extensions>
      </trkpt>
      <trkpt lat="42.514227926731109619140625" lon="20.149869583547115325927734375">
        <ele>2185.199951171875</ele>
        <time>2026-06-20T10:10:33.000Z</time>
        <extensions>
          <ns3:TrackPointExtension>
            <ns3:atemp>22.0</ns3:atemp>
          </ns3:TrackPointExtension>
        </extensions>
      </trkpt>
      <trkpt lat="42.51422482542693614959716796875" lon="20.14985709451138973236083984375">
        <ele>2185.60009765625</ele>
        <time>2026-06-20T10:10:34.000Z</time>
        <extensions>
          <ns3:TrackPointExtension>
            <ns3:atemp>22.0</ns3:atemp>
          </ns3:TrackPointExtension>
        </extensions>
      </trkpt>
      <trkpt lat="42.51422951929271221160888671875" lon="20.14984284527599811553955078125">
        <ele>2185.800048828125</ele>
        <time>2026-06-20T10:10:35.000Z</time>
        <extensions>
          <ns3:TrackPointExtension>
            <ns3:atemp>22.0</ns3:atemp>
          </ns3:TrackPointExtension>
        </extensions>
      </trkpt>
      <trkpt lat="42.5142361409962177276611328125" lon="20.14982976950705051422119140625">
        <ele>2185.800048828125</ele>
        <time>2026-06-20T10:10:36.000Z</time>
        <extensions>
          <ns3:TrackPointExtension>
            <ns3:atemp>22.0</ns3:atemp>
          </ns3:TrackPointExtension>
        </extensions>
      </trkpt>
      <trkpt lat="42.514244355261325836181640625" lon="20.14981367625296115875244140625">
        <ele>2185.800048828125</ele>
        <time>2026-06-20T10:10:37.000Z</time>
        <extensions>
          <ns3:TrackPointExtension>
            <ns3:atemp>22.0</ns3:atemp>
          </ns3:TrackPointExtension>
        </extensions>
      </trkpt>
      <trkpt lat="42.514256425201892852783203125" lon="20.14980160631239414215087890625">
        <ele>2185.800048828125</ele>
        <time>2026-06-20T10:10:38.000Z</time>
        <extensions>
          <ns3:TrackPointExtension>
            <ns3:atemp>22.0</ns3:atemp>
          </ns3:TrackPointExtension>
        </extensions>
      </trkpt>
      <trkpt lat="42.5142668187618255615234375" lon="20.149786435067653656005859375">
        <ele>2185.800048828125</ele>
        <time>2026-06-20T10:10:39.000Z</time>
        <extensions>
          <ns3:TrackPointExtension>
            <ns3:atemp>22.0</ns3:atemp>
          </ns3:TrackPointExtension>
        </extensions>
      </trkpt>
      <trkpt lat="42.514276206493377685546875" lon="20.149772353470325469970703125">
        <ele>2186</ele>
        <time>2026-06-20T10:10:40.000Z</time>
        <extensions>
          <ns3:TrackPointExtension>
            <ns3:atemp>22.0</ns3:atemp>
          </ns3:TrackPointExtension>
        </extensions>
      </trkpt>
      <trkpt lat="42.5142877735197544097900390625" lon="20.14975391328334808349609375">
        <ele>2186</ele>
        <time>2026-06-20T10:10:41.000Z</time>
        <extensions>
          <ns3:TrackPointExtension>
            <ns3:atemp>22.0</ns3:atemp>
          </ns3:TrackPointExtension>
        </extensions>
      </trkpt>
      <trkpt lat="42.5142988376319408416748046875" lon="20.149735473096370697021484375">
        <ele>2186</ele>
        <time>2026-06-20T10:10:42.000Z</time>
        <extensions>
          <ns3:TrackPointExtension>
            <ns3:atemp>22.0</ns3:atemp>
          </ns3:TrackPointExtension>
        </extensions>
      </trkpt>
      <trkpt lat="42.51431082375347614288330078125" lon="20.1497108303010463714599609375">
        <ele>2186</ele>
        <time>2026-06-20T10:10:43.000Z</time>
        <extensions>
          <ns3:TrackPointExtension>
            <ns3:atemp>22.0</ns3:atemp>
          </ns3:TrackPointExtension>
        </extensions>
      </trkpt>
      <trkpt lat="42.51432255841791629791259765625" lon="20.14967973344027996063232421875">
        <ele>2185.800048828125</ele>
        <time>2026-06-20T10:10:44.000Z</time>
        <extensions>
          <ns3:TrackPointExtension>
            <ns3:atemp>22.0</ns3:atemp>
          </ns3:TrackPointExtension>
        </extensions>
      </trkpt>
      <trkpt lat="42.51433798111975193023681640625" lon="20.1496446132659912109375">
        <ele>2185.800048828125</ele>
        <time>2026-06-20T10:10:45.000Z</time>
        <extensions>
          <ns3:TrackPointExtension>
            <ns3:atemp>22.0</ns3:atemp>
          </ns3:TrackPointExtension>
        </extensions>
      </trkpt>
      <trkpt lat="42.5143504701554775238037109375" lon="20.1496099121868610382080078125">
        <ele>2185.60009765625</ele>
        <time>2026-06-20T10:10:46.000Z</time>
        <extensions>
          <ns3:TrackPointExtension>
            <ns3:atemp>22.0</ns3:atemp>
          </ns3:TrackPointExtension>
        </extensions>
      </trkpt>
      <trkpt lat="42.51436681486666202545166015625" lon="20.14957311563193798065185546875">
        <ele>2185.39990234375</ele>
        <time>2026-06-20T10:10:47.000Z</time>
        <extensions>
          <ns3:TrackPointExtension>
            <ns3:atemp>22.0</ns3:atemp>
          </ns3:TrackPointExtension>
        </extensions>
      </trkpt>
      <trkpt lat="42.51438257284462451934814453125" lon="20.1495317928493022918701171875">
        <ele>2185</ele>
        <time>2026-06-20T10:10:48.000Z</time>
        <extensions>
          <ns3:TrackPointExtension>
            <ns3:atemp>22.0</ns3:atemp>
          </ns3:TrackPointExtension>
        </extensions>
      </trkpt>
      <trkpt lat="42.5144010968506336212158203125" lon="20.149493403732776641845703125">
        <ele>2184.800048828125</ele>
        <time>2026-06-20T10:10:49.000Z</time>
        <extensions>
          <ns3:TrackPointExtension>
            <ns3:atemp>22.0</ns3:atemp>
          </ns3:TrackPointExtension>
        </extensions>
      </trkpt>
      <trkpt lat="42.514423392713069915771484375" lon="20.149459876120090484619140625">
        <ele>2184.60009765625</ele>
        <time>2026-06-20T10:10:50.000Z</time>
        <extensions>
          <ns3:TrackPointExtension>
            <ns3:atemp>22.0</ns3:atemp>
          </ns3:TrackPointExtension>
        </extensions>
      </trkpt>
      <trkpt lat="42.514446191489696502685546875" lon="20.14942408539354801177978515625">
        <ele>2184.199951171875</ele>
        <time>2026-06-20T10:10:51.000Z</time>
        <extensions>
          <ns3:TrackPointExtension>
            <ns3:atemp>22.0</ns3:atemp>
          </ns3:TrackPointExtension>
        </extensions>
      </trkpt>
      <trkpt lat="42.51446471549570560455322265625" lon="20.14938938431441783905029296875">
        <ele>2183.60009765625</ele>
        <time>2026-06-20T10:10:52.000Z</time>
        <extensions>
          <ns3:TrackPointExtension>
            <ns3:atemp>22.0</ns3:atemp>
          </ns3:TrackPointExtension>
        </extensions>
      </trkpt>
      <trkpt lat="42.5144775398075580596923828125" lon="20.149349234998226165771484375">
        <ele>2183.39990234375</ele>
        <time>2026-06-20T10:10:53.000Z</time>
        <extensions>
          <ns3:TrackPointExtension>
            <ns3:atemp>22.0</ns3:atemp>
          </ns3:TrackPointExtension>
        </extensions>
      </trkpt>
      <trkpt lat="42.5144939683377742767333984375" lon="20.1493061520159244537353515625">
        <ele>2183</ele>
        <time>2026-06-20T10:10:54.000Z</time>
        <extensions>
          <ns3:TrackPointExtension>
            <ns3:atemp>22.0</ns3:atemp>
          </ns3:TrackPointExtension>
        </extensions>
      </trkpt>
      <trkpt lat="42.514510564506053924560546875" lon="20.14926734380424022674560546875">
        <ele>2182.60009765625</ele>
        <time>2026-06-20T10:10:55.000Z</time>
        <extensions>
          <ns3:TrackPointExtension>
            <ns3:atemp>22.0</ns3:atemp>
          </ns3:TrackPointExtension>
        </extensions>
      </trkpt>
      <trkpt lat="42.51453193835914134979248046875" lon="20.149231888353824615478515625">
        <ele>2182.199951171875</ele>
        <time>2026-06-20T10:10:56.000Z</time>
        <extensions>
          <ns3:TrackPointExtension>
            <ns3:atemp>22.0</ns3:atemp>
          </ns3:TrackPointExtension>
        </extensions>
      </trkpt>
      <trkpt lat="42.51455591060221195220947265625" lon="20.1491961814463138580322265625">
        <ele>2181.800048828125</ele>
        <time>2026-06-20T10:10:57.000Z</time>
        <extensions>
          <ns3:TrackPointExtension>
            <ns3:atemp>22.0</ns3:atemp>
          </ns3:TrackPointExtension>
        </extensions>
      </trkpt>
      <trkpt lat="42.5145761109888553619384765625" lon="20.1491646654903888702392578125">
        <ele>2181.39990234375</ele>
        <time>2026-06-20T10:10:58.000Z</time>
        <extensions>
          <ns3:TrackPointExtension>
            <ns3:atemp>22.0</ns3:atemp>
          </ns3:TrackPointExtension>
        </extensions>
      </trkpt>
      <trkpt lat="42.51459614373743534088134765625" lon="20.1491348259150981903076171875">
        <ele>2180.800048828125</ele>
        <time>2026-06-20T10:10:59.000Z</time>
        <extensions>
          <ns3:TrackPointExtension>
            <ns3:atemp>22.0</ns3:atemp>
          </ns3:TrackPointExtension>
        </extensions>
      </trkpt>
      <trkpt lat="42.51461793668568134307861328125" lon="20.14910741709172725677490234375">
        <ele>2180.60009765625</ele>
        <time>2026-06-20T10:11:00.000Z</time>
        <extensions>
          <ns3:TrackPointExtension>
            <ns3:atemp>22.0</ns3:atemp>
          </ns3:TrackPointExtension>
        </extensions>
      </trkpt>
      <trkpt lat="42.51463922671973705291748046875" lon="20.14907757751643657684326171875">
        <ele>2180.199951171875</ele>
        <time>2026-06-20T10:11:01.000Z</time>
        <extensions>
          <ns3:TrackPointExtension>
            <ns3:atemp>22.0</ns3:atemp>
          </ns3:TrackPointExtension>
        </extensions>
      </trkpt>
      <trkpt lat="42.51465464942157268524169921875" lon="20.14904773794114589691162109375">
        <ele>2179.800048828125</ele>
        <time>2026-06-20T10:11:02.000Z</time>
        <extensions>
          <ns3:TrackPointExtension>
            <ns3:atemp>22.0</ns3:atemp>
          </ns3:TrackPointExtension>
        </extensions>
      </trkpt>
      <trkpt lat="42.51467040739953517913818359375" lon="20.14901152811944484710693359375">
        <ele>2179.199951171875</ele>
        <time>2026-06-20T10:11:03.000Z</time>
        <extensions>
          <ns3:TrackPointExtension>
            <ns3:atemp>22.0</ns3:atemp>
          </ns3:TrackPointExtension>
        </extensions>
      </trkpt>
      <trkpt lat="42.51468247734010219573974609375" lon="20.14897607266902923583984375">
        <ele>2179.199951171875</ele>
        <time>2026-06-20T10:11:04.000Z</time>
        <extensions>
          <ns3:TrackPointExtension>
            <ns3:atemp>22.0</ns3:atemp>
          </ns3:TrackPointExtension>
        </extensions>
      </trkpt>
      <trkpt lat="42.5146934576332569122314453125" lon="20.14893676154315471649169921875">
        <ele>2178.800048828125</ele>
        <time>2026-06-20T10:11:05.000Z</time>
        <extensions>
          <ns3:TrackPointExtension>
            <ns3:atemp>22.0</ns3:atemp>
          </ns3:TrackPointExtension>
        </extensions>
      </trkpt>
      <trkpt lat="42.51470594666898250579833984375" lon="20.1488934271037578582763671875">
        <ele>2178.800048828125</ele>
        <time>2026-06-20T10:11:06.000Z</time>
        <extensions>
          <ns3:TrackPointExtension>
            <ns3:atemp>22.0</ns3:atemp>
          </ns3:TrackPointExtension>
        </extensions>
      </trkpt>
      <trkpt lat="42.51472287811338901519775390625" lon="20.14884791336953639984130859375">
        <ele>2178.39990234375</ele>
        <time>2026-06-20T10:11:07.000Z</time>
        <extensions>
          <ns3:TrackPointExtension>
            <ns3:atemp>22.0</ns3:atemp>
          </ns3:TrackPointExtension>
        </extensions>
      </trkpt>
      <trkpt lat="42.5147340260446071624755859375" lon="20.14880734495818614959716796875">
        <ele>2178.199951171875</ele>
        <time>2026-06-20T10:11:08.000Z</time>
        <extensions>
          <ns3:TrackPointExtension>
            <ns3:atemp>22.0</ns3:atemp>
          </ns3:TrackPointExtension>
        </extensions>
      </trkpt>
      <trkpt lat="42.51475053839385509490966796875" lon="20.14876795001327991485595703125">
        <ele>2178</ele>
        <time>2026-06-20T10:11:09.000Z</time>
        <extensions>
          <ns3:TrackPointExtension>
            <ns3:atemp>22.0</ns3:atemp>
          </ns3:TrackPointExtension>
        </extensions>
      </trkpt>
      <trkpt lat="42.51476663164794445037841796875" lon="20.1487237773835659027099609375">
        <ele>2177.800048828125</ele>
        <time>2026-06-20T10:11:10.000Z</time>
        <extensions>
          <ns3:TrackPointExtension>
            <ns3:atemp>22.0</ns3:atemp>
          </ns3:TrackPointExtension>
        </extensions>
      </trkpt>
      <trkpt lat="42.51478121615946292877197265625" lon="20.1486714743077754974365234375">
        <ele>2177.60009765625</ele>
        <time>2026-06-20T10:11:11.000Z</time>
        <extensions>
          <ns3:TrackPointExtension>
            <ns3:atemp>22.0</ns3:atemp>
          </ns3:TrackPointExtension>
        </extensions>
      </trkpt>
      <trkpt lat="42.51479395665228366851806640625" lon="20.148616991937160491943359375">
        <ele>2177.199951171875</ele>
        <time>2026-06-20T10:11:12.000Z</time>
        <extensions>
          <ns3:TrackPointExtension>
            <ns3:atemp>22.0</ns3:atemp>
          </ns3:TrackPointExtension>
        </extensions>
      </trkpt>
      <trkpt lat="42.51480284146964550018310546875" lon="20.14856510795652866363525390625">
        <ele>2176.800048828125</ele>
        <time>2026-06-20T10:11:13.000Z</time>
        <extensions>
          <ns3:TrackPointExtension>
            <ns3:atemp>22.0</ns3:atemp>
          </ns3:TrackPointExtension>
        </extensions>
      </trkpt>
      <trkpt lat="42.51481055282056331634521484375" lon="20.14851280488073825836181640625">
        <ele>2176.60009765625</ele>
        <time>2026-06-20T10:11:14.000Z</time>
        <extensions>
          <ns3:TrackPointExtension>
            <ns3:atemp>22.0</ns3:atemp>
          </ns3:TrackPointExtension>
        </extensions>
      </trkpt>
      <trkpt lat="42.51481943763792514801025390625" lon="20.14846351929008960723876953125">
        <ele>2176.199951171875</ele>
        <time>2026-06-20T10:11:15.000Z</time>
        <extensions>
          <ns3:TrackPointExtension>
            <ns3:atemp>22.0</ns3:atemp>
          </ns3:TrackPointExtension>
        </extensions>
      </trkpt>
      <trkpt lat="42.514834105968475341796875" lon="20.1484121382236480712890625">
        <ele>2175.800048828125</ele>
        <time>2026-06-20T10:11:16.000Z</time>
        <extensions>
          <ns3:TrackPointExtension>
            <ns3:atemp>22.0</ns3:atemp>
          </ns3:TrackPointExtension>
        </extensions>
      </trkpt>
      <trkpt lat="42.51485011540353298187255859375" lon="20.14836394228041172027587890625">
        <ele>2175.60009765625</ele>
        <time>2026-06-20T10:11:17.000Z</time>
        <extensions>
          <ns3:TrackPointExtension>
            <ns3:atemp>22.0</ns3:atemp>
          </ns3:TrackPointExtension>
        </extensions>
      </trkpt>
      <trkpt lat="42.51486503519117832183837890625" lon="20.1483140699565410614013671875">
        <ele>2175.199951171875</ele>
        <time>2026-06-20T10:11:18.000Z</time>
        <extensions>
          <ns3:TrackPointExtension>
            <ns3:atemp>22.0</ns3:atemp>
          </ns3:TrackPointExtension>
        </extensions>
      </trkpt>
      <trkpt lat="42.51487945206463336944580078125" lon="20.14825950376689434051513671875">
        <ele>2174.60009765625</ele>
        <time>2026-06-20T10:11:19.000Z</time>
        <extensions>
          <ns3:TrackPointExtension>
            <ns3:atemp>22.0</ns3:atemp>
          </ns3:TrackPointExtension>
        </extensions>
      </trkpt>
      <trkpt lat="42.5148890912532806396484375" lon="20.14820896089076995849609375">
        <ele>2174</ele>
        <time>2026-06-20T10:11:20.000Z</time>
        <extensions>
          <ns3:TrackPointExtension>
            <ns3:atemp>22.0</ns3:atemp>
          </ns3:TrackPointExtension>
        </extensions>
      </trkpt>
      <trkpt lat="42.51489571295678615570068359375" lon="20.14816545881330966949462890625">
        <ele>2173.39990234375</ele>
        <time>2026-06-20T10:11:21.000Z</time>
        <extensions>
          <ns3:TrackPointExtension>
            <ns3:atemp>22.0</ns3:atemp>
          </ns3:TrackPointExtension>
        </extensions>
      </trkpt>
      <trkpt lat="42.51490040682256221771240234375" lon="20.14812723733484745025634765625">
        <ele>2172.800048828125</ele>
        <time>2026-06-20T10:11:22.000Z</time>
        <extensions>
          <ns3:TrackPointExtension>
            <ns3:atemp>22.0</ns3:atemp>
          </ns3:TrackPointExtension>
        </extensions>
      </trkpt>
      <trkpt lat="42.5149040110409259796142578125" lon="20.14809655956923961639404296875">
        <ele>2172.199951171875</ele>
        <time>2026-06-20T10:11:23.000Z</time>
        <extensions>
          <ns3:TrackPointExtension>
            <ns3:atemp>22.0</ns3:atemp>
          </ns3:TrackPointExtension>
        </extensions>
      </trkpt>
      <trkpt lat="42.51490895636379718780517578125" lon="20.1480733416974544525146484375">
        <ele>2171.800048828125</ele>
        <time>2026-06-20T10:11:24.000Z</time>
        <extensions>
          <ns3:TrackPointExtension>
            <ns3:atemp>22.0</ns3:atemp>
          </ns3:TrackPointExtension>
        </extensions>
      </trkpt>
      <trkpt lat="42.5149140693247318267822265625" lon="20.1480559073388576507568359375">
        <ele>2171.60009765625</ele>
        <time>2026-06-20T10:11:25.000Z</time>
        <extensions>
          <ns3:TrackPointExtension>
            <ns3:atemp>22.0</ns3:atemp>
          </ns3:TrackPointExtension>
        </extensions>
      </trkpt>
      <trkpt lat="42.514919936656951904296875" lon="20.14804291538894176483154296875">
        <ele>2171.39990234375</ele>
        <time>2026-06-20T10:11:26.000Z</time>
        <extensions>
          <ns3:TrackPointExtension>
            <ns3:atemp>22.0</ns3:atemp>
          </ns3:TrackPointExtension>
        </extensions>
      </trkpt>
      <trkpt lat="42.51491834409534931182861328125" lon="20.14803553931415081024169921875">
        <ele>2171.199951171875</ele>
        <time>2026-06-20T10:11:27.000Z</time>
        <extensions>
          <ns3:TrackPointExtension>
            <ns3:atemp>22.0</ns3:atemp>
          </ns3:TrackPointExtension>
        </extensions>
      </trkpt>
      <trkpt lat="42.5149177573621273040771484375" lon="20.1480393111705780029296875">
        <ele>2171</ele>
        <time>2026-06-20T10:11:28.000Z</time>
        <extensions>
          <ns3:TrackPointExtension>
            <ns3:atemp>22.0</ns3:atemp>
          </ns3:TrackPointExtension>
        </extensions>
      </trkpt>
      <trkpt lat="42.5149177573621273040771484375" lon="20.1480393111705780029296875">
        <ele>2170.800048828125</ele>
        <time>2026-06-20T10:11:29.000Z</time>
        <extensions>
          <ns3:TrackPointExtension>
            <ns3:atemp>22.0</ns3:atemp>
          </ns3:TrackPointExtension>
        </extensions>
      </trkpt>
      <trkpt lat="42.5149177573621273040771484375" lon="20.1480393111705780029296875">
        <ele>2170.800048828125</ele>
        <time>2026-06-20T10:11:30.000Z</time>
        <extensions>
          <ns3:TrackPointExtension>
            <ns3:atemp>22.0</ns3:atemp>
          </ns3:TrackPointExtension>
        </extensions>
      </trkpt>
      <trkpt lat="42.5149177573621273040771484375" lon="20.1480393111705780029296875">
        <ele>2170.60009765625</ele>
        <time>2026-06-20T10:11:31.000Z</time>
        <extensions>
          <ns3:TrackPointExtension>
            <ns3:atemp>22.0</ns3:atemp>
          </ns3:TrackPointExtension>
        </extensions>
      </trkpt>
      <trkpt lat="42.5149177573621273040771484375" lon="20.1480393111705780029296875">
        <ele>2170.39990234375</ele>
        <time>2026-06-20T10:11:32.000Z</time>
        <extensions>
          <ns3:TrackPointExtension>
            <ns3:atemp>22.0</ns3:atemp>
          </ns3:TrackPointExtension>
        </extensions>
      </trkpt>
      <trkpt lat="42.5149177573621273040771484375" lon="20.1480393111705780029296875">
        <ele>2170.199951171875</ele>
        <time>2026-06-20T10:11:33.000Z</time>
        <extensions>
          <ns3:TrackPointExtension>
            <ns3:atemp>22.0</ns3:atemp>
          </ns3:TrackPointExtension>
        </extensions>
      </trkpt>
      <trkpt lat="42.5149177573621273040771484375" lon="20.1480393111705780029296875">
        <ele>2170</ele>
        <time>2026-06-20T10:11:34.000Z</time>
        <extensions>
          <ns3:TrackPointExtension>
            <ns3:atemp>22.0</ns3:atemp>
          </ns3:TrackPointExtension>
        </extensions>
      </trkpt>
      <trkpt lat="42.5149177573621273040771484375" lon="20.1480393111705780029296875">
        <ele>2169.800048828125</ele>
        <time>2026-06-20T10:11:35.000Z</time>
        <extensions>
          <ns3:TrackPointExtension>
            <ns3:atemp>22.0</ns3:atemp>
          </ns3:TrackPointExtension>
        </extensions>
      </trkpt>
      <trkpt lat="42.5149177573621273040771484375" lon="20.1480393111705780029296875">
        <ele>2169.60009765625</ele>
        <time>2026-06-20T10:11:36.000Z</time>
        <extensions>
          <ns3:TrackPointExtension>
            <ns3:atemp>22.0</ns3:atemp>
          </ns3:TrackPointExtension>
        </extensions>
      </trkpt>
      <trkpt lat="42.5149177573621273040771484375" lon="20.1480393111705780029296875">
        <ele>2169.60009765625</ele>
        <time>2026-06-20T10:11:37.000Z</time>
        <extensions>
          <ns3:TrackPointExtension>
            <ns3:atemp>22.0</ns3:atemp>
          </ns3:TrackPointExtension>
        </extensions>
      </trkpt>
      <trkpt lat="42.5149177573621273040771484375" lon="20.1480393111705780029296875">
        <ele>2169.60009765625</ele>
        <time>2026-06-20T10:11:38.000Z</time>
        <extensions>
          <ns3:TrackPointExtension>
            <ns3:atemp>22.0</ns3:atemp>
          </ns3:TrackPointExtension>
        </extensions>
      </trkpt>
      <trkpt lat="42.5149177573621273040771484375" lon="20.1480393111705780029296875">
        <ele>2169.39990234375</ele>
        <time>2026-06-20T10:11:39.000Z</time>
        <extensions>
          <ns3:TrackPointExtension>
            <ns3:atemp>22.0</ns3:atemp>
          </ns3:TrackPointExtension>
        </extensions>
      </trkpt>
      <trkpt lat="42.5149177573621273040771484375" lon="20.1480393111705780029296875">
        <ele>2169.39990234375</ele>
        <time>2026-06-20T10:11:40.000Z</time>
        <extensions>
          <ns3:TrackPointExtension>
            <ns3:atemp>22.0</ns3:atemp>
          </ns3:TrackPointExtension>
        </extensions>
      </trkpt>
      <trkpt lat="42.5149177573621273040771484375" lon="20.1480393111705780029296875">
        <ele>2169.39990234375</ele>
        <time>2026-06-20T10:11:41.000Z</time>
        <extensions>
          <ns3:TrackPointExtension>
            <ns3:atemp>22.0</ns3:atemp>
          </ns3:TrackPointExtension>
        </extensions>
      </trkpt>
      <trkpt lat="42.5149177573621273040771484375" lon="20.1480393111705780029296875">
        <ele>2169.39990234375</ele>
        <time>2026-06-20T10:11:42.000Z</time>
        <extensions>
          <ns3:TrackPointExtension>
            <ns3:atemp>22.0</ns3:atemp>
          </ns3:TrackPointExtension>
        </extensions>
      </trkpt>
      <trkpt lat="42.5149177573621273040771484375" lon="20.1480393111705780029296875">
        <ele>2169.39990234375</ele>
        <time>2026-06-20T10:11:43.000Z</time>
        <extensions>
          <ns3:TrackPointExtension>
            <ns3:atemp>22.0</ns3:atemp>
          </ns3:TrackPointExtension>
        </extensions>
      </trkpt>
      <trkpt lat="42.5149177573621273040771484375" lon="20.1480393111705780029296875">
        <ele>2169.39990234375</ele>
        <time>2026-06-20T10:11:44.000Z</time>
        <extensions>
          <ns3:TrackPointExtension>
            <ns3:atemp>22.0</ns3:atemp>
          </ns3:TrackPointExtension>
        </extensions>
      </trkpt>
      <trkpt lat="42.5149177573621273040771484375" lon="20.1480393111705780029296875">
        <ele>2169.39990234375</ele>
        <time>2026-06-20T10:11:45.000Z</time>
        <extensions>
          <ns3:TrackPointExtension>
            <ns3:atemp>22.0</ns3:atemp>
          </ns3:TrackPointExtension>
        </extensions>
      </trkpt>
      <trkpt lat="42.5149177573621273040771484375" lon="20.1480393111705780029296875">
        <ele>2169.39990234375</ele>
        <time>2026-06-20T10:11:46.000Z</time>
        <extensions>
          <ns3:TrackPointExtension>
            <ns3:atemp>22.0</ns3:atemp>
          </ns3:TrackPointExtension>
        </extensions>
      </trkpt>
      <trkpt lat="42.5149177573621273040771484375" lon="20.1480393111705780029296875">
        <ele>2169.39990234375</ele>
        <time>2026-06-20T10:11:47.000Z</time>
        <extensions>
          <ns3:TrackPointExtension>
            <ns3:atemp>22.0</ns3:atemp>
          </ns3:TrackPointExtension>
        </extensions>
      </trkpt>
      <trkpt lat="42.5149177573621273040771484375" lon="20.1480393111705780029296875">
        <ele>2169.39990234375</ele>
        <time>2026-06-20T10:11:48.000Z</time>
        <extensions>
          <ns3:TrackPointExtension>
            <ns3:atemp>22.0</ns3:atemp>
          </ns3:TrackPointExtension>
        </extensions>
      </trkpt>
      <trkpt lat="42.5149177573621273040771484375" lon="20.1480393111705780029296875">
        <ele>2169.60009765625</ele>
        <time>2026-06-20T10:11:49.000Z</time>
        <extensions>
          <ns3:TrackPointExtension>
            <ns3:atemp>22.0</ns3:atemp>
          </ns3:TrackPointExtension>
        </extensions>
      </trkpt>
      <trkpt lat="42.5149177573621273040771484375" lon="20.1480393111705780029296875">
        <ele>2169.60009765625</ele>
        <time>2026-06-20T10:11:50.000Z</time>
        <extensions>
          <ns3:TrackPointExtension>
            <ns3:atemp>22.0</ns3:atemp>
          </ns3:TrackPointExtension>
        </extensions>
      </trkpt>
      <trkpt lat="42.5149177573621273040771484375" lon="20.1480393111705780029296875">
        <ele>2169.800048828125</ele>
        <time>2026-06-20T10:11:51.000Z</time>
        <extensions>
          <ns3:TrackPointExtension>
            <ns3:atemp>22.0</ns3:atemp>
          </ns3:TrackPointExtension>
        </extensions>
      </trkpt>
      <trkpt lat="42.5149177573621273040771484375" lon="20.1480393111705780029296875">
        <ele>2169.800048828125</ele>
        <time>2026-06-20T10:11:52.000Z</time>
        <extensions>
          <ns3:TrackPointExtension>
            <ns3:atemp>22.0</ns3:atemp>
          </ns3:TrackPointExtension>
        </extensions>
      </trkpt>
      <trkpt lat="42.5149177573621273040771484375" lon="20.1480393111705780029296875">
        <ele>2169.800048828125</ele>
        <time>2026-06-20T10:11:53.000Z</time>
        <extensions>
          <ns3:TrackPointExtension>
            <ns3:atemp>22.0</ns3:atemp>
          </ns3:TrackPointExtension>
        </extensions>
      </trkpt>
      <trkpt lat="42.5149177573621273040771484375" lon="20.1480393111705780029296875">
        <ele>2169.60009765625</ele>
        <time>2026-06-20T10:11:54.000Z</time>
        <extensions>
          <ns3:TrackPointExtension>
            <ns3:atemp>22.0</ns3:atemp>
          </ns3:TrackPointExtension>
        </extensions>
      </trkpt>
      <trkpt lat="42.5149177573621273040771484375" lon="20.1480393111705780029296875">
        <ele>2169.60009765625</ele>
        <time>2026-06-20T10:11:55.000Z</time>
        <extensions>
          <ns3:TrackPointExtension>
            <ns3:atemp>22.0</ns3:atemp>
          </ns3:TrackPointExtension>
        </extensions>
      </trkpt>
      <trkpt lat="42.5149177573621273040771484375" lon="20.1480393111705780029296875">
        <ele>2169.39990234375</ele>
        <time>2026-06-20T10:11:56.000Z</time>
        <extensions>
          <ns3:TrackPointExtension>
            <ns3:atemp>22.0</ns3:atemp>
          </ns3:TrackPointExtension>
        </extensions>
      </trkpt>
      <trkpt lat="42.51491926610469818115234375" lon="20.148038975894451141357421875">
        <ele>2169.39990234375</ele>
        <time>2026-06-20T10:11:57.000Z</time>
        <extensions>
          <ns3:TrackPointExtension>
            <ns3:atemp>22.0</ns3:atemp>
          </ns3:TrackPointExtension>
        </extensions>
      </trkpt>
      <trkpt lat="42.51492421142756938934326171875" lon="20.148026905953884124755859375">
        <ele>2169.199951171875</ele>
        <time>2026-06-20T10:11:58.000Z</time>
        <extensions>
          <ns3:TrackPointExtension>
            <ns3:atemp>22.0</ns3:atemp>
          </ns3:TrackPointExtension>
        </extensions>
      </trkpt>
      <trkpt lat="42.5149274803698062896728515625" lon="20.14801257289946079254150390625">
        <ele>2169.199951171875</ele>
        <time>2026-06-20T10:11:59.000Z</time>
        <extensions>
          <ns3:TrackPointExtension>
            <ns3:atemp>22.0</ns3:atemp>
          </ns3:TrackPointExtension>
        </extensions>
      </trkpt>
      <trkpt lat="42.51493041403591632843017578125" lon="20.14798860065639019012451171875">
        <ele>2169.199951171875</ele>
        <time>2026-06-20T10:12:00.000Z</time>
        <extensions>
          <ns3:TrackPointExtension>
            <ns3:atemp>22.0</ns3:atemp>
          </ns3:TrackPointExtension>
        </extensions>
      </trkpt>
      <trkpt lat="42.51493376679718494415283203125" lon="20.14795951545238494873046875">
        <ele>2169</ele>
        <time>2026-06-20T10:12:01.000Z</time>
        <extensions>
          <ns3:TrackPointExtension>
            <ns3:atemp>22.0</ns3:atemp>
          </ns3:TrackPointExtension>
        </extensions>
      </trkpt>
      <trkpt lat="42.51493812538683414459228515625" lon="20.14793537557125091552734375">
        <ele>2169</ele>
        <time>2026-06-20T10:12:02.000Z</time>
        <extensions>
          <ns3:TrackPointExtension>
            <ns3:atemp>22.0</ns3:atemp>
          </ns3:TrackPointExtension>
        </extensions>
      </trkpt>
      <trkpt lat="42.514939717948436737060546875" lon="20.14791148714721202850341796875">
        <ele>2168.800048828125</ele>
        <time>2026-06-20T10:12:03.000Z</time>
        <extensions>
          <ns3:TrackPointExtension>
            <ns3:atemp>22.0</ns3:atemp>
          </ns3:TrackPointExtension>
        </extensions>
      </trkpt>
      <trkpt lat="42.51493376679718494415283203125" lon="20.1478835754096508026123046875">
        <ele>2168.800048828125</ele>
        <time>2026-06-20T10:12:04.000Z</time>
        <extensions>
          <ns3:TrackPointExtension>
            <ns3:atemp>22.0</ns3:atemp>
          </ns3:TrackPointExtension>
        </extensions>
      </trkpt>
      <trkpt lat="42.51492907293140888214111328125" lon="20.14785759150981903076171875">
        <ele>2168.800048828125</ele>
        <time>2026-06-20T10:12:05.000Z</time>
        <extensions>
          <ns3:TrackPointExtension>
            <ns3:atemp>22.0</ns3:atemp>
          </ns3:TrackPointExtension>
        </extensions>
      </trkpt>
      <trkpt lat="42.514928318560123443603515625" lon="20.1478302665054798126220703125">
        <ele>2168.800048828125</ele>
        <time>2026-06-20T10:12:06.000Z</time>
        <extensions>
          <ns3:TrackPointExtension>
            <ns3:atemp>22.0</ns3:atemp>
          </ns3:TrackPointExtension>
        </extensions>
      </trkpt>
      <trkpt lat="42.51492798328399658203125" lon="20.14780084602534770965576171875">
        <ele>2168.800048828125</ele>
        <time>2026-06-20T10:12:07.000Z</time>
        <extensions>
          <ns3:TrackPointExtension>
            <ns3:atemp>22.0</ns3:atemp>
          </ns3:TrackPointExtension>
        </extensions>
      </trkpt>
      <trkpt lat="42.5149274803698062896728515625" lon="20.1477712579071521759033203125">
        <ele>2168.800048828125</ele>
        <time>2026-06-20T10:12:08.000Z</time>
        <extensions>
          <ns3:TrackPointExtension>
            <ns3:atemp>22.0</ns3:atemp>
          </ns3:TrackPointExtension>
        </extensions>
      </trkpt>
      <trkpt lat="42.51492706127464771270751953125" lon="20.147745274007320404052734375">
        <ele>2169</ele>
        <time>2026-06-20T10:12:09.000Z</time>
        <extensions>
          <ns3:TrackPointExtension>
            <ns3:atemp>22.0</ns3:atemp>
          </ns3:TrackPointExtension>
        </extensions>
      </trkpt>
      <trkpt lat="42.5149264745414257049560546875" lon="20.1477219723165035247802734375">
        <ele>2169.199951171875</ele>
        <time>2026-06-20T10:12:10.000Z</time>
        <extensions>
          <ns3:TrackPointExtension>
            <ns3:atemp>22.0</ns3:atemp>
          </ns3:TrackPointExtension>
        </extensions>
      </trkpt>
      <trkpt lat="42.51492655836045742034912109375" lon="20.14769724570214748382568359375">
        <ele>2169.39990234375</ele>
        <time>2026-06-20T10:12:11.000Z</time>
        <extensions>
          <ns3:TrackPointExtension>
            <ns3:atemp>22.0</ns3:atemp>
          </ns3:TrackPointExtension>
        </extensions>
      </trkpt>
      <trkpt lat="42.51492773182690143585205078125" lon="20.14767310582101345062255859375">
        <ele>2169.60009765625</ele>
        <time>2026-06-20T10:12:12.000Z</time>
        <extensions>
          <ns3:TrackPointExtension>
            <ns3:atemp>22.0</ns3:atemp>
          </ns3:TrackPointExtension>
        </extensions>
      </trkpt>
      <trkpt lat="42.514926306903362274169921875" lon="20.14764863066375255584716796875">
        <ele>2169.800048828125</ele>
        <time>2026-06-20T10:12:13.000Z</time>
        <extensions>
          <ns3:TrackPointExtension>
            <ns3:atemp>22.0</ns3:atemp>
          </ns3:TrackPointExtension>
        </extensions>
      </trkpt>
      <trkpt lat="42.51493024639785289764404296875" lon="20.14762599952518939971923828125">
        <ele>2170</ele>
        <time>2026-06-20T10:12:14.000Z</time>
        <extensions>
          <ns3:TrackPointExtension>
            <ns3:atemp>22.0</ns3:atemp>
          </ns3:TrackPointExtension>
        </extensions>
      </trkpt>
      <trkpt lat="42.514935694634914398193359375" lon="20.14759900979697704315185546875">
        <ele>2170</ele>
        <time>2026-06-20T10:12:15.000Z</time>
        <extensions>
          <ns3:TrackPointExtension>
            <ns3:atemp>22.0</ns3:atemp>
          </ns3:TrackPointExtension>
        </extensions>
      </trkpt>
      <trkpt lat="42.5149402208626270294189453125" lon="20.14757252298295497894287109375">
        <ele>2170</ele>
        <time>2026-06-20T10:12:16.000Z</time>
        <extensions>
          <ns3:TrackPointExtension>
            <ns3:atemp>22.0</ns3:atemp>
          </ns3:TrackPointExtension>
        </extensions>
      </trkpt>
      <trkpt lat="42.51493871212005615234375" lon="20.14754519797861576080322265625">
        <ele>2170</ele>
        <time>2026-06-20T10:12:17.000Z</time>
        <extensions>
          <ns3:TrackPointExtension>
            <ns3:atemp>22.0</ns3:atemp>
          </ns3:TrackPointExtension>
        </extensions>
      </trkpt>
      <trkpt lat="42.51493929885327816009521484375" lon="20.147517956793308258056640625">
        <ele>2170</ele>
        <time>2026-06-20T10:12:18.000Z</time>
        <extensions>
          <ns3:TrackPointExtension>
            <ns3:atemp>22.0</ns3:atemp>
          </ns3:TrackPointExtension>
        </extensions>
      </trkpt>
      <trkpt lat="42.51493896357715129852294921875" lon="20.14749105088412761688232421875">
        <ele>2169.800048828125</ele>
        <time>2026-06-20T10:12:19.000Z</time>
        <extensions>
          <ns3:TrackPointExtension>
            <ns3:atemp>22.0</ns3:atemp>
          </ns3:TrackPointExtension>
        </extensions>
      </trkpt>
      <trkpt lat="42.51494332216680049896240234375" lon="20.147462300956249237060546875">
        <ele>2169.800048828125</ele>
        <time>2026-06-20T10:12:20.000Z</time>
        <extensions>
          <ns3:TrackPointExtension>
            <ns3:atemp>22.0</ns3:atemp>
          </ns3:TrackPointExtension>
        </extensions>
      </trkpt>
      <trkpt lat="42.514947094023227691650390625" lon="20.1474326290190219879150390625">
        <ele>2169.800048828125</ele>
        <time>2026-06-20T10:12:21.000Z</time>
        <extensions>
          <ns3:TrackPointExtension>
            <ns3:atemp>22.0</ns3:atemp>
          </ns3:TrackPointExtension>
        </extensions>
      </trkpt>
      <trkpt lat="42.51495270989835262298583984375" lon="20.1474034599959850311279296875">
        <ele>2169.60009765625</ele>
        <time>2026-06-20T10:12:22.000Z</time>
        <extensions>
          <ns3:TrackPointExtension>
            <ns3:atemp>22.0</ns3:atemp>
          </ns3:TrackPointExtension>
        </extensions>
      </trkpt>
      <trkpt lat="42.51495773904025554656982421875" lon="20.14737538062036037445068359375">
        <ele>2169.60009765625</ele>
        <time>2026-06-20T10:12:23.000Z</time>
        <extensions>
          <ns3:TrackPointExtension>
            <ns3:atemp>22.0</ns3:atemp>
          </ns3:TrackPointExtension>
        </extensions>
      </trkpt>
      <trkpt lat="42.51496360637247562408447265625" lon="20.1473441161215305328369140625">
        <ele>2169.60009765625</ele>
        <time>2026-06-20T10:12:24.000Z</time>
        <extensions>
          <ns3:TrackPointExtension>
            <ns3:atemp>22.0</ns3:atemp>
          </ns3:TrackPointExtension>
        </extensions>
      </trkpt>
      <trkpt lat="42.51496913842856884002685546875" lon="20.14731519855558872222900390625">
        <ele>2169.60009765625</ele>
        <time>2026-06-20T10:12:25.000Z</time>
        <extensions>
          <ns3:TrackPointExtension>
            <ns3:atemp>22.0</ns3:atemp>
          </ns3:TrackPointExtension>
        </extensions>
      </trkpt>
      <trkpt lat="42.51497450284659862518310546875" lon="20.14728653244674205780029296875">
        <ele>2169.60009765625</ele>
        <time>2026-06-20T10:12:26.000Z</time>
        <extensions>
          <ns3:TrackPointExtension>
            <ns3:atemp>22.0</ns3:atemp>
          </ns3:TrackPointExtension>
        </extensions>
      </trkpt>
      <trkpt lat="42.5149787776172161102294921875" lon="20.1472589559853076934814453125">
        <ele>2169.60009765625</ele>
        <time>2026-06-20T10:12:27.000Z</time>
        <extensions>
          <ns3:TrackPointExtension>
            <ns3:atemp>22.0</ns3:atemp>
          </ns3:TrackPointExtension>
        </extensions>
      </trkpt>
      <trkpt lat="42.51497986726462841033935546875" lon="20.14723791740834712982177734375">
        <ele>2169.60009765625</ele>
        <time>2026-06-20T10:12:28.000Z</time>
        <extensions>
          <ns3:TrackPointExtension>
            <ns3:atemp>22.0</ns3:atemp>
          </ns3:TrackPointExtension>
        </extensions>
      </trkpt>
      <trkpt lat="42.51496477983891963958740234375" lon="20.14721788465976715087890625">
        <ele>2169.800048828125</ele>
        <time>2026-06-20T10:12:29.000Z</time>
        <extensions>
          <ns3:TrackPointExtension>
            <ns3:atemp>22.0</ns3:atemp>
          </ns3:TrackPointExtension>
        </extensions>
      </trkpt>
      <trkpt lat="42.51494784839451313018798828125" lon="20.14721763320267200469970703125">
        <ele>2169.800048828125</ele>
        <time>2026-06-20T10:12:30.000Z</time>
        <extensions>
          <ns3:TrackPointExtension>
            <ns3:atemp>22.0</ns3:atemp>
          </ns3:TrackPointExtension>
        </extensions>
      </trkpt>
      <trkpt lat="42.5149422325193881988525390625" lon="20.147230625152587890625">
        <ele>2169.800048828125</ele>
        <time>2026-06-20T10:12:31.000Z</time>
        <extensions>
          <ns3:TrackPointExtension>
            <ns3:atemp>22.0</ns3:atemp>
          </ns3:TrackPointExtension>
        </extensions>
      </trkpt>
      <trkpt lat="42.5149439089000225067138671875" lon="20.147251747548580169677734375">
        <ele>2170</ele>
        <time>2026-06-20T10:12:32.000Z</time>
        <extensions>
          <ns3:TrackPointExtension>
            <ns3:atemp>22.0</ns3:atemp>
          </ns3:TrackPointExtension>
        </extensions>
      </trkpt>
      <trkpt lat="42.5149462558329105377197265625" lon="20.14726825989782810211181640625">
        <ele>2170</ele>
        <time>2026-06-20T10:12:33.000Z</time>
        <extensions>
          <ns3:TrackPointExtension>
            <ns3:atemp>22.0</ns3:atemp>
          </ns3:TrackPointExtension>
        </extensions>
      </trkpt>
      <trkpt lat="42.514952458441257476806640625" lon="20.147280581295490264892578125">
        <ele>2170.199951171875</ele>
        <time>2026-06-20T10:12:34.000Z</time>
        <extensions>
          <ns3:TrackPointExtension>
            <ns3:atemp>22.0</ns3:atemp>
          </ns3:TrackPointExtension>
        </extensions>
      </trkpt>
      <trkpt lat="42.51495941542088985443115234375" lon="20.14730245806276798248291015625">
        <ele>2170</ele>
        <time>2026-06-20T10:12:35.000Z</time>
        <extensions>
          <ns3:TrackPointExtension>
            <ns3:atemp>22.0</ns3:atemp>
          </ns3:TrackPointExtension>
        </extensions>
      </trkpt>
      <trkpt lat="42.51495815813541412353515625" lon="20.147332213819026947021484375">
        <ele>2169.800048828125</ele>
        <time>2026-06-20T10:12:36.000Z</time>
        <extensions>
          <ns3:TrackPointExtension>
            <ns3:atemp>22.0</ns3:atemp>
          </ns3:TrackPointExtension>
        </extensions>
      </trkpt>
      <trkpt lat="42.51495773904025554656982421875" lon="20.14735643751919269561767578125">
        <ele>2169.800048828125</ele>
        <time>2026-06-20T10:12:37.000Z</time>
        <extensions>
          <ns3:TrackPointExtension>
            <ns3:atemp>22.0</ns3:atemp>
          </ns3:TrackPointExtension>
        </extensions>
      </trkpt>
      <trkpt lat="42.51495388336479663848876953125" lon="20.14737605117261409759521484375">
        <ele>2169.800048828125</ele>
        <time>2026-06-20T10:12:38.000Z</time>
        <extensions>
          <ns3:TrackPointExtension>
            <ns3:atemp>22.0</ns3:atemp>
          </ns3:TrackPointExtension>
        </extensions>
      </trkpt>
      <trkpt lat="42.51495203934609889984130859375" lon="20.14740035869181156158447265625">
        <ele>2169.800048828125</ele>
        <time>2026-06-20T10:12:39.000Z</time>
        <extensions>
          <ns3:TrackPointExtension>
            <ns3:atemp>22.0</ns3:atemp>
          </ns3:TrackPointExtension>
        </extensions>
      </trkpt>
      <trkpt lat="42.514948435127735137939453125" lon="20.147427432239055633544921875">
        <ele>2169.800048828125</ele>
        <time>2026-06-20T10:12:40.000Z</time>
        <extensions>
          <ns3:TrackPointExtension>
            <ns3:atemp>22.0</ns3:atemp>
          </ns3:TrackPointExtension>
        </extensions>
      </trkpt>
      <trkpt lat="42.514946423470973968505859375" lon="20.14745869673788547515869140625">
        <ele>2170</ele>
        <time>2026-06-20T10:12:41.000Z</time>
        <extensions>
          <ns3:TrackPointExtension>
            <ns3:atemp>22.0</ns3:atemp>
          </ns3:TrackPointExtension>
        </extensions>
      </trkpt>
      <trkpt lat="42.51494483090937137603759765625" lon="20.14748786576092243194580078125">
        <ele>2170.199951171875</ele>
        <time>2026-06-20T10:12:42.000Z</time>
        <extensions>
          <ns3:TrackPointExtension>
            <ns3:atemp>22.0</ns3:atemp>
          </ns3:TrackPointExtension>
        </extensions>
      </trkpt>
      <trkpt lat="42.5149429030716419219970703125" lon="20.14751502312719821929931640625">
        <ele>2170.199951171875</ele>
        <time>2026-06-20T10:12:43.000Z</time>
        <extensions>
          <ns3:TrackPointExtension>
            <ns3:atemp>22.0</ns3:atemp>
          </ns3:TrackPointExtension>
        </extensions>
      </trkpt>
      <trkpt lat="42.51494080759584903717041015625" lon="20.1475409232079982757568359375">
        <ele>2170.199951171875</ele>
        <time>2026-06-20T10:12:44.000Z</time>
        <extensions>
          <ns3:TrackPointExtension>
            <ns3:atemp>22.0</ns3:atemp>
          </ns3:TrackPointExtension>
        </extensions>
      </trkpt>
      <trkpt lat="42.51493862830102443695068359375" lon="20.14756799675524234771728515625">
        <ele>2170.199951171875</ele>
        <time>2026-06-20T10:12:45.000Z</time>
        <extensions>
          <ns3:TrackPointExtension>
            <ns3:atemp>22.0</ns3:atemp>
          </ns3:TrackPointExtension>
        </extensions>
      </trkpt>
      <trkpt lat="42.5149372033774852752685546875" lon="20.14759649522602558135986328125">
        <ele>2170.199951171875</ele>
        <time>2026-06-20T10:12:46.000Z</time>
        <extensions>
          <ns3:TrackPointExtension>
            <ns3:atemp>22.0</ns3:atemp>
          </ns3:TrackPointExtension>
        </extensions>
      </trkpt>
      <trkpt lat="42.5149348564445972442626953125" lon="20.147623904049396514892578125">
        <ele>2170</ele>
        <time>2026-06-20T10:12:47.000Z</time>
        <extensions>
          <ns3:TrackPointExtension>
            <ns3:atemp>22.0</ns3:atemp>
          </ns3:TrackPointExtension>
        </extensions>
      </trkpt>
      <trkpt lat="42.51493058167397975921630859375" lon="20.14764846302568912506103515625">
        <ele>2170</ele>
        <time>2026-06-20T10:12:48.000Z</time>
        <extensions>
          <ns3:TrackPointExtension>
            <ns3:atemp>22.0</ns3:atemp>
          </ns3:TrackPointExtension>
        </extensions>
      </trkpt>
      <trkpt lat="42.5149266421794891357421875" lon="20.1476800628006458282470703125">
        <ele>2170</ele>
        <time>2026-06-20T10:12:49.000Z</time>
        <extensions>
          <ns3:TrackPointExtension>
            <ns3:atemp>22.0</ns3:atemp>
          </ns3:TrackPointExtension>
        </extensions>
      </trkpt>
      <trkpt lat="42.514925301074981689453125" lon="20.1477109082043170928955078125">
        <ele>2170</ele>
        <time>2026-06-20T10:12:50.000Z</time>
        <extensions>
          <ns3:TrackPointExtension>
            <ns3:atemp>22.0</ns3:atemp>
          </ns3:TrackPointExtension>
        </extensions>
      </trkpt>
      <trkpt lat="42.51492731273174285888671875" lon="20.14774854294955730438232421875">
        <ele>2169.800048828125</ele>
        <time>2026-06-20T10:12:51.000Z</time>
        <extensions>
          <ns3:TrackPointExtension>
            <ns3:atemp>22.0</ns3:atemp>
          </ns3:TrackPointExtension>
        </extensions>
      </trkpt>
      <trkpt lat="42.5149294920265674591064453125" lon="20.14778542332351207733154296875">
        <ele>2169.800048828125</ele>
        <time>2026-06-20T10:12:52.000Z</time>
        <extensions>
          <ns3:TrackPointExtension>
            <ns3:atemp>22.0</ns3:atemp>
          </ns3:TrackPointExtension>
        </extensions>
      </trkpt>
      <trkpt lat="42.514933682978153228759765625" lon="20.147827081382274627685546875">
        <ele>2169.800048828125</ele>
        <time>2026-06-20T10:12:53.000Z</time>
        <extensions>
          <ns3:TrackPointExtension>
            <ns3:atemp>22.0</ns3:atemp>
          </ns3:TrackPointExtension>
        </extensions>
      </trkpt>
      <trkpt lat="42.51494131051003932952880859375" lon="20.14787368476390838623046875">
        <ele>2169.60009765625</ele>
        <time>2026-06-20T10:12:54.000Z</time>
        <extensions>
          <ns3:TrackPointExtension>
            <ns3:atemp>22.0</ns3:atemp>
          </ns3:TrackPointExtension>
        </extensions>
      </trkpt>
      <trkpt lat="42.514941394329071044921875" lon="20.1479268260300159454345703125">
        <ele>2169.60009765625</ele>
        <time>2026-06-20T10:12:55.000Z</time>
        <extensions>
          <ns3:TrackPointExtension>
            <ns3:atemp>22.0</ns3:atemp>
          </ns3:TrackPointExtension>
        </extensions>
      </trkpt>
      <trkpt lat="42.51493661664426326751708984375" lon="20.147973261773586273193359375">
        <ele>2169.39990234375</ele>
        <time>2026-06-20T10:12:56.000Z</time>
        <extensions>
          <ns3:TrackPointExtension>
            <ns3:atemp>22.0</ns3:atemp>
          </ns3:TrackPointExtension>
        </extensions>
      </trkpt>
      <trkpt lat="42.51493359915912151336669921875" lon="20.14800938777625560760498046875">
        <ele>2169.39990234375</ele>
        <time>2026-06-20T10:12:57.000Z</time>
        <extensions>
          <ns3:TrackPointExtension>
            <ns3:atemp>22.0</ns3:atemp>
          </ns3:TrackPointExtension>
        </extensions>
      </trkpt>
      <trkpt lat="42.514929659664630889892578125" lon="20.14804065227508544921875">
        <ele>2169.39990234375</ele>
        <time>2026-06-20T10:12:58.000Z</time>
        <extensions>
          <ns3:TrackPointExtension>
            <ns3:atemp>22.0</ns3:atemp>
          </ns3:TrackPointExtension>
        </extensions>
      </trkpt>
      <trkpt lat="42.5149320065975189208984375" lon="20.1480545662343502044677734375">
        <ele>2169.60009765625</ele>
        <time>2026-06-20T10:12:59.000Z</time>
        <extensions>
          <ns3:TrackPointExtension>
            <ns3:atemp>22.0</ns3:atemp>
          </ns3:TrackPointExtension>
        </extensions>
      </trkpt>
      <trkpt lat="42.51493091695010662078857421875" lon="20.14806412160396575927734375">
        <ele>2169.60009765625</ele>
        <time>2026-06-20T10:13:00.000Z</time>
        <extensions>
          <ns3:TrackPointExtension>
            <ns3:atemp>22.0</ns3:atemp>
          </ns3:TrackPointExtension>
        </extensions>
      </trkpt>
      <trkpt lat="42.51492806710302829742431640625" lon="20.14806537888944149017333984375">
        <ele>2169.60009765625</ele>
        <time>2026-06-20T10:13:01.000Z</time>
        <extensions>
          <ns3:TrackPointExtension>
            <ns3:atemp>22.0</ns3:atemp>
          </ns3:TrackPointExtension>
        </extensions>
      </trkpt>
      <trkpt lat="42.51492806710302829742431640625" lon="20.14806537888944149017333984375">
        <ele>2169.39990234375</ele>
        <time>2026-06-20T10:13:02.000Z</time>
        <extensions>
          <ns3:TrackPointExtension>
            <ns3:atemp>22.0</ns3:atemp>
          </ns3:TrackPointExtension>
        </extensions>
      </trkpt>
      <trkpt lat="42.51492806710302829742431640625" lon="20.14806537888944149017333984375">
        <ele>2169.39990234375</ele>
        <time>2026-06-20T10:13:03.000Z</time>
        <extensions>
          <ns3:TrackPointExtension>
            <ns3:atemp>22.0</ns3:atemp>
          </ns3:TrackPointExtension>
        </extensions>
      </trkpt>
      <trkpt lat="42.51492806710302829742431640625" lon="20.14806537888944149017333984375">
        <ele>2169.199951171875</ele>
        <time>2026-06-20T10:13:04.000Z</time>
        <extensions>
          <ns3:TrackPointExtension>
            <ns3:atemp>22.0</ns3:atemp>
          </ns3:TrackPointExtension>
        </extensions>
      </trkpt>
      <trkpt lat="42.51492806710302829742431640625" lon="20.14806537888944149017333984375">
        <ele>2169.199951171875</ele>
        <time>2026-06-20T10:13:05.000Z</time>
        <extensions>
          <ns3:TrackPointExtension>
            <ns3:atemp>22.0</ns3:atemp>
          </ns3:TrackPointExtension>
        </extensions>
      </trkpt>
      <trkpt lat="42.51492806710302829742431640625" lon="20.14806537888944149017333984375">
        <ele>2169</ele>
        <time>2026-06-20T10:13:06.000Z</time>
        <extensions>
          <ns3:TrackPointExtension>
            <ns3:atemp>22.0</ns3:atemp>
          </ns3:TrackPointExtension>
        </extensions>
      </trkpt>
      <trkpt lat="42.51492806710302829742431640625" lon="20.14806537888944149017333984375">
        <ele>2169</ele>
        <time>2026-06-20T10:13:07.000Z</time>
        <extensions>
          <ns3:TrackPointExtension>
            <ns3:atemp>22.0</ns3:atemp>
          </ns3:TrackPointExtension>
        </extensions>
      </trkpt>
      <trkpt lat="42.51492806710302829742431640625" lon="20.14806537888944149017333984375">
        <ele>2169</ele>
        <time>2026-06-20T10:13:08.000Z</time>
        <extensions>
          <ns3:TrackPointExtension>
            <ns3:atemp>22.0</ns3:atemp>
          </ns3:TrackPointExtension>
        </extensions>
      </trkpt>
      <trkpt lat="42.51492806710302829742431640625" lon="20.14806537888944149017333984375">
        <ele>2169</ele>
        <time>2026-06-20T10:13:09.000Z</time>
        <extensions>
          <ns3:TrackPointExtension>
            <ns3:atemp>22.0</ns3:atemp>
          </ns3:TrackPointExtension>
        </extensions>
      </trkpt>
      <trkpt lat="42.51492806710302829742431640625" lon="20.14806537888944149017333984375">
        <ele>2169</ele>
        <time>2026-06-20T10:13:10.000Z</time>
        <extensions>
          <ns3:TrackPointExtension>
            <ns3:atemp>22.0</ns3:atemp>
          </ns3:TrackPointExtension>
        </extensions>
      </trkpt>
      <trkpt lat="42.51492806710302829742431640625" lon="20.14806537888944149017333984375">
        <ele>2169</ele>
        <time>2026-06-20T10:13:11.000Z</time>
        <extensions>
          <ns3:TrackPointExtension>
            <ns3:atemp>22.0</ns3:atemp>
          </ns3:TrackPointExtension>
        </extensions>
      </trkpt>
      <trkpt lat="42.51492823474109172821044921875" lon="20.14806521125137805938720703125">
        <ele>2169</ele>
        <time>2026-06-20T10:13:12.000Z</time>
        <extensions>
          <ns3:TrackPointExtension>
            <ns3:atemp>22.0</ns3:atemp>
          </ns3:TrackPointExtension>
        </extensions>
      </trkpt>
      <trkpt lat="42.5149315036833286285400390625" lon="20.14808080159127712249755859375">
        <ele>2168.800048828125</ele>
        <time>2026-06-20T10:13:13.000Z</time>
        <extensions>
          <ns3:TrackPointExtension>
            <ns3:atemp>22.0</ns3:atemp>
          </ns3:TrackPointExtension>
        </extensions>
      </trkpt>
      <trkpt lat="42.51493410207331180572509765625" lon="20.14810175634920597076416015625">
        <ele>2168.800048828125</ele>
        <time>2026-06-20T10:13:14.000Z</time>
        <extensions>
          <ns3:TrackPointExtension>
            <ns3:atemp>22.0</ns3:atemp>
          </ns3:TrackPointExtension>
        </extensions>
      </trkpt>
      <trkpt lat="42.51494147814810276031494140625" lon="20.1481340266764163970947265625">
        <ele>2168.39990234375</ele>
        <time>2026-06-20T10:13:15.000Z</time>
        <extensions>
          <ns3:TrackPointExtension>
            <ns3:atemp>22.0</ns3:atemp>
          </ns3:TrackPointExtension>
        </extensions>
      </trkpt>
      <trkpt lat="42.5149482674896717071533203125" lon="20.148170404136180877685546875">
        <ele>2168.199951171875</ele>
        <time>2026-06-20T10:13:16.000Z</time>
        <extensions>
          <ns3:TrackPointExtension>
            <ns3:atemp>22.0</ns3:atemp>
          </ns3:TrackPointExtension>
        </extensions>
      </trkpt>
      <trkpt lat="42.51495690084993839263916015625" lon="20.14820753596723079681396484375">
        <ele>2167.800048828125</ele>
        <time>2026-06-20T10:13:17.000Z</time>
        <extensions>
          <ns3:TrackPointExtension>
            <ns3:atemp>22.0</ns3:atemp>
          </ns3:TrackPointExtension>
        </extensions>
      </trkpt>
      <trkpt lat="42.51496461220085620880126953125" lon="20.14824894256889820098876953125">
        <ele>2167.60009765625</ele>
        <time>2026-06-20T10:13:18.000Z</time>
        <extensions>
          <ns3:TrackPointExtension>
            <ns3:atemp>22.0</ns3:atemp>
          </ns3:TrackPointExtension>
        </extensions>
      </trkpt>
      <trkpt lat="42.514973580837249755859375" lon="20.1482941210269927978515625">
        <ele>2167.39990234375</ele>
        <time>2026-06-20T10:13:19.000Z</time>
        <extensions>
          <ns3:TrackPointExtension>
            <ns3:atemp>22.0</ns3:atemp>
          </ns3:TrackPointExtension>
        </extensions>
      </trkpt>
      <trkpt lat="42.51498221419751644134521484375" lon="20.148335359990596771240234375">
        <ele>2167.39990234375</ele>
        <time>2026-06-20T10:13:20.000Z</time>
        <extensions>
          <ns3:TrackPointExtension>
            <ns3:atemp>22.0</ns3:atemp>
          </ns3:TrackPointExtension>
        </extensions>
      </trkpt>
      <trkpt lat="42.51499260775744915008544921875" lon="20.14837970025837421417236328125">
        <ele>2167.199951171875</ele>
        <time>2026-06-20T10:13:21.000Z</time>
        <extensions>
          <ns3:TrackPointExtension>
            <ns3:atemp>22.0</ns3:atemp>
          </ns3:TrackPointExtension>
        </extensions>
      </trkpt>
      <trkpt lat="42.5149999000132083892822265625" lon="20.148423202335834503173828125">
        <ele>2167</ele>
        <time>2026-06-20T10:13:22.000Z</time>
        <extensions>
          <ns3:TrackPointExtension>
            <ns3:atemp>22.0</ns3:atemp>
          </ns3:TrackPointExtension>
        </extensions>
      </trkpt>
      <trkpt lat="42.5150066055357456207275390625" lon="20.14847307465970516204833984375">
        <ele>2166.800048828125</ele>
        <time>2026-06-20T10:13:23.000Z</time>
        <extensions>
          <ns3:TrackPointExtension>
            <ns3:atemp>22.0</ns3:atemp>
          </ns3:TrackPointExtension>
        </extensions>
      </trkpt>
      <trkpt lat="42.515009455382823944091796875" lon="20.148525796830654144287109375">
        <ele>2166.39990234375</ele>
        <time>2026-06-20T10:13:24.000Z</time>
        <extensions>
          <ns3:TrackPointExtension>
            <ns3:atemp>22.0</ns3:atemp>
          </ns3:TrackPointExtension>
        </extensions>
      </trkpt>
      <trkpt lat="42.5150097906589508056640625" lon="20.14857449568808078765869140625">
        <ele>2166.199951171875</ele>
        <time>2026-06-20T10:13:25.000Z</time>
        <extensions>
          <ns3:TrackPointExtension>
            <ns3:atemp>22.0</ns3:atemp>
          </ns3:TrackPointExtension>
        </extensions>
      </trkpt>
      <trkpt lat="42.51501071266829967498779296875" lon="20.14862076379358768463134765625">
        <ele>2166</ele>
        <time>2026-06-20T10:13:26.000Z</time>
        <extensions>
          <ns3:TrackPointExtension>
            <ns3:atemp>22.0</ns3:atemp>
          </ns3:TrackPointExtension>
        </extensions>
      </trkpt>
      <trkpt lat="42.5150126405060291290283203125" lon="20.14866988174617290496826171875">
        <ele>2166</ele>
        <time>2026-06-20T10:13:27.000Z</time>
        <extensions>
          <ns3:TrackPointExtension>
            <ns3:atemp>22.0</ns3:atemp>
          </ns3:TrackPointExtension>
        </extensions>
      </trkpt>
      <trkpt lat="42.51501314342021942138671875" lon="20.148716233670711517333984375">
        <ele>2165.800048828125</ele>
        <time>2026-06-20T10:13:28.000Z</time>
        <extensions>
          <ns3:TrackPointExtension>
            <ns3:atemp>22.0</ns3:atemp>
          </ns3:TrackPointExtension>
        </extensions>
      </trkpt>
      <trkpt lat="42.51501389779150485992431640625" lon="20.1487586461007595062255859375">
        <ele>2166</ele>
        <time>2026-06-20T10:13:29.000Z</time>
        <extensions>
          <ns3:TrackPointExtension>
            <ns3:atemp>22.0</ns3:atemp>
          </ns3:TrackPointExtension>
        </extensions>
      </trkpt>
      <trkpt lat="42.51501222141087055206298828125" lon="20.1488032378256320953369140625">
        <ele>2166</ele>
        <time>2026-06-20T10:13:30.000Z</time>
        <extensions>
          <ns3:TrackPointExtension>
            <ns3:atemp>22.0</ns3:atemp>
          </ns3:TrackPointExtension>
        </extensions>
      </trkpt>
      <trkpt lat="42.51500853337347507476806640625" lon="20.14884523116052150726318359375">
        <ele>2166</ele>
        <time>2026-06-20T10:13:31.000Z</time>
        <extensions>
          <ns3:TrackPointExtension>
            <ns3:atemp>22.0</ns3:atemp>
          </ns3:TrackPointExtension>
        </extensions>
      </trkpt>
      <trkpt lat="42.5150045938789844512939453125" lon="20.148884542286396026611328125">
        <ele>2166</ele>
        <time>2026-06-20T10:13:32.000Z</time>
        <extensions>
          <ns3:TrackPointExtension>
            <ns3:atemp>22.0</ns3:atemp>
          </ns3:TrackPointExtension>
        </extensions>
      </trkpt>
      <trkpt lat="42.51500182785093784332275390625" lon="20.14892418868839740753173828125">
        <ele>2166</ele>
        <time>2026-06-20T10:13:33.000Z</time>
        <extensions>
          <ns3:TrackPointExtension>
            <ns3:atemp>22.0</ns3:atemp>
          </ns3:TrackPointExtension>
        </extensions>
      </trkpt>
      <trkpt lat="42.51499931327998638153076171875" lon="20.148966349661350250244140625">
        <ele>2165.800048828125</ele>
        <time>2026-06-20T10:13:34.000Z</time>
        <extensions>
          <ns3:TrackPointExtension>
            <ns3:atemp>22.0</ns3:atemp>
          </ns3:TrackPointExtension>
        </extensions>
      </trkpt>
      <trkpt lat="42.5150005705654621124267578125" lon="20.14900750480592250823974609375">
        <ele>2165.800048828125</ele>
        <time>2026-06-20T10:13:35.000Z</time>
        <extensions>
          <ns3:TrackPointExtension>
            <ns3:atemp>22.0</ns3:atemp>
          </ns3:TrackPointExtension>
        </extensions>
      </trkpt>
      <trkpt lat="42.51500065438449382781982421875" lon="20.149048157036304473876953125">
        <ele>2165.60009765625</ele>
        <time>2026-06-20T10:13:36.000Z</time>
        <extensions>
          <ns3:TrackPointExtension>
            <ns3:atemp>22.0</ns3:atemp>
          </ns3:TrackPointExtension>
        </extensions>
      </trkpt>
      <trkpt lat="42.51499813981354236602783203125" lon="20.14908964745700359344482421875">
        <ele>2165.60009765625</ele>
        <time>2026-06-20T10:13:37.000Z</time>
        <extensions>
          <ns3:TrackPointExtension>
            <ns3:atemp>22.0</ns3:atemp>
          </ns3:TrackPointExtension>
        </extensions>
      </trkpt>
      <trkpt lat="42.51499478705227375030517578125" lon="20.1491328142583370208740234375">
        <ele>2165.39990234375</ele>
        <time>2026-06-20T10:13:38.000Z</time>
        <extensions>
          <ns3:TrackPointExtension>
            <ns3:atemp>22.0</ns3:atemp>
          </ns3:TrackPointExtension>
        </extensions>
      </trkpt>
      <trkpt lat="42.5149918533861637115478515625" lon="20.14917598105967044830322265625">
        <ele>2165.39990234375</ele>
        <time>2026-06-20T10:13:39.000Z</time>
        <extensions>
          <ns3:TrackPointExtension>
            <ns3:atemp>22.0</ns3:atemp>
          </ns3:TrackPointExtension>
        </extensions>
      </trkpt>
      <trkpt lat="42.51499034464359283447265625" lon="20.1492193154990673065185546875">
        <ele>2165.39990234375</ele>
        <time>2026-06-20T10:13:40.000Z</time>
        <extensions>
          <ns3:TrackPointExtension>
            <ns3:atemp>22.0</ns3:atemp>
          </ns3:TrackPointExtension>
        </extensions>
      </trkpt>
      <trkpt lat="42.514989338815212249755859375" lon="20.14926751144230365753173828125">
        <ele>2165.39990234375</ele>
        <time>2026-06-20T10:13:41.000Z</time>
        <extensions>
          <ns3:TrackPointExtension>
            <ns3:atemp>22.0</ns3:atemp>
          </ns3:TrackPointExtension>
        </extensions>
      </trkpt>
      <trkpt lat="42.51498975791037082672119140625" lon="20.149313695728778839111328125">
        <ele>2165.199951171875</ele>
        <time>2026-06-20T10:13:42.000Z</time>
        <extensions>
          <ns3:TrackPointExtension>
            <ns3:atemp>22.0</ns3:atemp>
          </ns3:TrackPointExtension>
        </extensions>
      </trkpt>
      <trkpt lat="42.51499244011938571929931640625" lon="20.1493631489574909210205078125">
        <ele>2165</ele>
        <time>2026-06-20T10:13:43.000Z</time>
        <extensions>
          <ns3:TrackPointExtension>
            <ns3:atemp>22.0</ns3:atemp>
          </ns3:TrackPointExtension>
        </extensions>
      </trkpt>
      <trkpt lat="42.5149952061474323272705078125" lon="20.1494152843952178955078125">
        <ele>2164.800048828125</ele>
        <time>2026-06-20T10:13:44.000Z</time>
        <extensions>
          <ns3:TrackPointExtension>
            <ns3:atemp>22.0</ns3:atemp>
          </ns3:TrackPointExtension>
        </extensions>
      </trkpt>
      <trkpt lat="42.5149962119758129119873046875" lon="20.149468593299388885498046875">
        <ele>2164.60009765625</ele>
        <time>2026-06-20T10:13:45.000Z</time>
        <extensions>
          <ns3:TrackPointExtension>
            <ns3:atemp>22.0</ns3:atemp>
          </ns3:TrackPointExtension>
        </extensions>
      </trkpt>
      <trkpt lat="42.514994703233242034912109375" lon="20.14952584169805049896240234375">
        <ele>2164.39990234375</ele>
        <time>2026-06-20T10:13:46.000Z</time>
        <extensions>
          <ns3:TrackPointExtension>
            <ns3:atemp>22.0</ns3:atemp>
          </ns3:TrackPointExtension>
        </extensions>
      </trkpt>
      <trkpt lat="42.51499478705227375030517578125" lon="20.149581916630268096923828125">
        <ele>2164.199951171875</ele>
        <time>2026-06-20T10:13:47.000Z</time>
        <extensions>
          <ns3:TrackPointExtension>
            <ns3:atemp>22.0</ns3:atemp>
          </ns3:TrackPointExtension>
        </extensions>
      </trkpt>
      <trkpt lat="42.5149938650429248809814453125" lon="20.14963882975280284881591796875">
        <ele>2164.199951171875</ele>
        <time>2026-06-20T10:13:48.000Z</time>
        <extensions>
          <ns3:TrackPointExtension>
            <ns3:atemp>22.0</ns3:atemp>
          </ns3:TrackPointExtension>
        </extensions>
      </trkpt>
      <trkpt lat="42.51499109901487827301025390625" lon="20.14969398267567157745361328125">
        <ele>2164</ele>
        <time>2026-06-20T10:13:49.000Z</time>
        <extensions>
          <ns3:TrackPointExtension>
            <ns3:atemp>22.0</ns3:atemp>
          </ns3:TrackPointExtension>
        </extensions>
      </trkpt>
      <trkpt lat="42.51498632133007049560546875" lon="20.14974812977015972137451171875">
        <ele>2163.800048828125</ele>
        <time>2026-06-20T10:13:50.000Z</time>
        <extensions>
          <ns3:TrackPointExtension>
            <ns3:atemp>22.0</ns3:atemp>
          </ns3:TrackPointExtension>
        </extensions>
      </trkpt>
      <trkpt lat="42.5149828009307384490966796875" lon="20.149800516664981842041015625">
        <ele>2163.60009765625</ele>
        <time>2026-06-20T10:13:51.000Z</time>
        <extensions>
          <ns3:TrackPointExtension>
            <ns3:atemp>21.0</ns3:atemp>
          </ns3:TrackPointExtension>
        </extensions>
      </trkpt>
      <trkpt lat="42.5149801187217235565185546875" lon="20.14985181391239166259765625">
        <ele>2163.60009765625</ele>
        <time>2026-06-20T10:13:52.000Z</time>
        <extensions>
          <ns3:TrackPointExtension>
            <ns3:atemp>22.0</ns3:atemp>
          </ns3:TrackPointExtension>
        </extensions>
      </trkpt>
      <trkpt lat="42.5149784423410892486572265625" lon="20.14990202151238918304443359375">
        <ele>2163.39990234375</ele>
        <time>2026-06-20T10:13:53.000Z</time>
        <extensions>
          <ns3:TrackPointExtension>
            <ns3:atemp>22.0</ns3:atemp>
          </ns3:TrackPointExtension>
        </extensions>
      </trkpt>
      <trkpt lat="42.51497701741755008697509765625" lon="20.1499512232840061187744140625">
        <ele>2163.39990234375</ele>
        <time>2026-06-20T10:13:54.000Z</time>
        <extensions>
          <ns3:TrackPointExtension>
            <ns3:atemp>22.0</ns3:atemp>
          </ns3:TrackPointExtension>
        </extensions>
      </trkpt>
      <trkpt lat="42.51497425138950347900390625" lon="20.15000210143625736236572265625">
        <ele>2163.199951171875</ele>
        <time>2026-06-20T10:13:55.000Z</time>
        <extensions>
          <ns3:TrackPointExtension>
            <ns3:atemp>22.0</ns3:atemp>
          </ns3:TrackPointExtension>
        </extensions>
      </trkpt>
      <trkpt lat="42.514970563352108001708984375" lon="20.1500561647117137908935546875">
        <ele>2163.199951171875</ele>
        <time>2026-06-20T10:13:56.000Z</time>
        <extensions>
          <ns3:TrackPointExtension>
            <ns3:atemp>22.0</ns3:atemp>
          </ns3:TrackPointExtension>
        </extensions>
      </trkpt>
      <trkpt lat="42.514965198934078216552734375" lon="20.1501099765300750732421875">
        <ele>2163.199951171875</ele>
        <time>2026-06-20T10:13:57.000Z</time>
        <extensions>
          <ns3:TrackPointExtension>
            <ns3:atemp>22.0</ns3:atemp>
          </ns3:TrackPointExtension>
        </extensions>
      </trkpt>
      <trkpt lat="42.514957822859287261962890625" lon="20.1501604355871677398681640625">
        <ele>2163.199951171875</ele>
        <time>2026-06-20T10:13:58.000Z</time>
        <extensions>
          <ns3:TrackPointExtension>
            <ns3:atemp>22.0</ns3:atemp>
          </ns3:TrackPointExtension>
        </extensions>
      </trkpt>
      <trkpt lat="42.5149486027657985687255859375" lon="20.15020712278783321380615234375">
        <ele>2163</ele>
        <time>2026-06-20T10:13:59.000Z</time>
        <extensions>
          <ns3:TrackPointExtension>
            <ns3:atemp>22.0</ns3:atemp>
          </ns3:TrackPointExtension>
        </extensions>
      </trkpt>
      <trkpt lat="42.514936365187168121337890625" lon="20.150250457227230072021484375">
        <ele>2162.800048828125</ele>
        <time>2026-06-20T10:14:00.000Z</time>
        <extensions>
          <ns3:TrackPointExtension>
            <ns3:atemp>22.0</ns3:atemp>
          </ns3:TrackPointExtension>
        </extensions>
      </trkpt>
      <trkpt lat="42.5149264745414257049560546875" lon="20.15029328875243663787841796875">
        <ele>2162.800048828125</ele>
        <time>2026-06-20T10:14:01.000Z</time>
        <extensions>
          <ns3:TrackPointExtension>
            <ns3:atemp>21.0</ns3:atemp>
          </ns3:TrackPointExtension>
        </extensions>
      </trkpt>
      <trkpt lat="42.51491616480052471160888671875" lon="20.1503341086208820343017578125">
        <ele>2162.60009765625</ele>
        <time>2026-06-20T10:14:02.000Z</time>
        <extensions>
          <ns3:TrackPointExtension>
            <ns3:atemp>21.0</ns3:atemp>
          </ns3:TrackPointExtension>
        </extensions>
      </trkpt>
      <trkpt lat="42.51490610651671886444091796875" lon="20.1503763534128665924072265625">
        <ele>2162.60009765625</ele>
        <time>2026-06-20T10:14:03.000Z</time>
        <extensions>
          <ns3:TrackPointExtension>
            <ns3:atemp>22.0</ns3:atemp>
          </ns3:TrackPointExtension>
        </extensions>
      </trkpt>
      <trkpt lat="42.514896132051944732666015625" lon="20.15042270533740520477294921875">
        <ele>2162.60009765625</ele>
        <time>2026-06-20T10:14:04.000Z</time>
        <extensions>
          <ns3:TrackPointExtension>
            <ns3:atemp>21.0</ns3:atemp>
          </ns3:TrackPointExtension>
        </extensions>
      </trkpt>
      <trkpt lat="42.514885403215885162353515625" lon="20.1504693925380706787109375">
        <ele>2162.60009765625</ele>
        <time>2026-06-20T10:14:05.000Z</time>
        <extensions>
          <ns3:TrackPointExtension>
            <ns3:atemp>21.0</ns3:atemp>
          </ns3:TrackPointExtension>
        </extensions>
      </trkpt>
      <trkpt lat="42.51487274654209613800048828125" lon="20.15051566064357757568359375">
        <ele>2162.39990234375</ele>
        <time>2026-06-20T10:14:06.000Z</time>
        <extensions>
          <ns3:TrackPointExtension>
            <ns3:atemp>21.0</ns3:atemp>
          </ns3:TrackPointExtension>
        </extensions>
      </trkpt>
      <trkpt lat="42.514867968857288360595703125" lon="20.15056469477713108062744140625">
        <ele>2162.39990234375</ele>
        <time>2026-06-20T10:14:07.000Z</time>
        <extensions>
          <ns3:TrackPointExtension>
            <ns3:atemp>21.0</ns3:atemp>
          </ns3:TrackPointExtension>
        </extensions>
      </trkpt>
      <trkpt lat="42.514863945543766021728515625" lon="20.15061624348163604736328125">
        <ele>2162.199951171875</ele>
        <time>2026-06-20T10:14:08.000Z</time>
        <extensions>
          <ns3:TrackPointExtension>
            <ns3:atemp>21.0</ns3:atemp>
          </ns3:TrackPointExtension>
        </extensions>
      </trkpt>
      <trkpt lat="42.51485950313508510589599609375" lon="20.15066854655742645263671875">
        <ele>2162</ele>
        <time>2026-06-20T10:14:09.000Z</time>
        <extensions>
          <ns3:TrackPointExtension>
            <ns3:atemp>21.0</ns3:atemp>
          </ns3:TrackPointExtension>
        </extensions>
      </trkpt>
      <trkpt lat="42.51485866494476795196533203125" lon="20.15071682631969451904296875">
        <ele>2161.800048828125</ele>
        <time>2026-06-20T10:14:10.000Z</time>
        <extensions>
          <ns3:TrackPointExtension>
            <ns3:atemp>22.0</ns3:atemp>
          </ns3:TrackPointExtension>
        </extensions>
      </trkpt>
      <trkpt lat="42.51485330052673816680908203125" lon="20.15076644718647003173828125">
        <ele>2161.60009765625</ele>
        <time>2026-06-20T10:14:11.000Z</time>
        <extensions>
          <ns3:TrackPointExtension>
            <ns3:atemp>22.0</ns3:atemp>
          </ns3:TrackPointExtension>
        </extensions>
      </trkpt>
      <trkpt lat="42.51484810374677181243896484375" lon="20.15081472694873809814453125">
        <ele>2161.60009765625</ele>
        <time>2026-06-20T10:14:12.000Z</time>
        <extensions>
          <ns3:TrackPointExtension>
            <ns3:atemp>22.0</ns3:atemp>
          </ns3:TrackPointExtension>
        </extensions>
      </trkpt>
      <trkpt lat="42.51484575681388378143310546875" lon="20.150865353643894195556640625">
        <ele>2161.39990234375</ele>
        <time>2026-06-20T10:14:13.000Z</time>
        <extensions>
          <ns3:TrackPointExtension>
            <ns3:atemp>21.0</ns3:atemp>
          </ns3:TrackPointExtension>
        </extensions>
      </trkpt>
      <trkpt lat="42.51484441570937633514404296875" lon="20.15091388486325740814208984375">
        <ele>2161.39990234375</ele>
        <time>2026-06-20T10:14:14.000Z</time>
        <extensions>
          <ns3:TrackPointExtension>
            <ns3:atemp>21.0</ns3:atemp>
          </ns3:TrackPointExtension>
        </extensions>
      </trkpt>
      <trkpt lat="42.51483838073909282684326171875" lon="20.150961242616176605224609375">
        <ele>2161.199951171875</ele>
        <time>2026-06-20T10:14:15.000Z</time>
        <extensions>
          <ns3:TrackPointExtension>
            <ns3:atemp>21.0</ns3:atemp>
          </ns3:TrackPointExtension>
        </extensions>
      </trkpt>
      <trkpt lat="42.5148289091885089874267578125" lon="20.1510023139417171478271484375">
        <ele>2161.199951171875</ele>
        <time>2026-06-20T10:14:16.000Z</time>
        <extensions>
          <ns3:TrackPointExtension>
            <ns3:atemp>21.0</ns3:atemp>
          </ns3:TrackPointExtension>
        </extensions>
      </trkpt>
      <trkpt lat="42.51482027582824230194091796875" lon="20.15104514546692371368408203125">
        <ele>2161</ele>
        <time>2026-06-20T10:14:17.000Z</time>
        <extensions>
          <ns3:TrackPointExtension>
            <ns3:atemp>21.0</ns3:atemp>
          </ns3:TrackPointExtension>
        </extensions>
      </trkpt>
      <trkpt lat="42.51480686478316783905029296875" lon="20.15108956955373287200927734375">
        <ele>2161</ele>
        <time>2026-06-20T10:14:18.000Z</time>
        <extensions>
          <ns3:TrackPointExtension>
            <ns3:atemp>21.0</ns3:atemp>
          </ns3:TrackPointExtension>
        </extensions>
      </trkpt>
      <trkpt lat="42.51479680649936199188232421875" lon="20.15113600529730319976806640625">
        <ele>2160.800048828125</ele>
        <time>2026-06-20T10:14:19.000Z</time>
        <extensions>
          <ns3:TrackPointExtension>
            <ns3:atemp>21.0</ns3:atemp>
          </ns3:TrackPointExtension>
        </extensions>
      </trkpt>
      <trkpt lat="42.514787502586841583251953125" lon="20.15118998475372791290283203125">
        <ele>2160.60009765625</ele>
        <time>2026-06-20T10:14:20.000Z</time>
        <extensions>
          <ns3:TrackPointExtension>
            <ns3:atemp>21.0</ns3:atemp>
          </ns3:TrackPointExtension>
        </extensions>
      </trkpt>
      <trkpt lat="42.514779455959796905517578125" lon="20.1512453891336917877197265625">
        <ele>2160.39990234375</ele>
        <time>2026-06-20T10:14:21.000Z</time>
        <extensions>
          <ns3:TrackPointExtension>
            <ns3:atemp>21.0</ns3:atemp>
          </ns3:TrackPointExtension>
        </extensions>
      </trkpt>
      <trkpt lat="42.51475338824093341827392578125" lon="20.151289142668247222900390625">
        <ele>2160.199951171875</ele>
        <time>2026-06-20T10:14:22.000Z</time>
        <extensions>
          <ns3:TrackPointExtension>
            <ns3:atemp>21.0</ns3:atemp>
          </ns3:TrackPointExtension>
        </extensions>
      </trkpt>
      <trkpt lat="42.51473109237849712371826171875" lon="20.1513107679784297943115234375">
        <ele>2160</ele>
        <time>2026-06-20T10:14:23.000Z</time>
        <extensions>
          <ns3:TrackPointExtension>
            <ns3:atemp>21.0</ns3:atemp>
          </ns3:TrackPointExtension>
        </extensions>
      </trkpt>
      <trkpt lat="42.514716088771820068359375" lon="20.15132258646190166473388671875">
        <ele>2159.800048828125</ele>
        <time>2026-06-20T10:14:24.000Z</time>
        <extensions>
          <ns3:TrackPointExtension>
            <ns3:atemp>22.0</ns3:atemp>
          </ns3:TrackPointExtension>
        </extensions>
      </trkpt>
      <trkpt lat="42.51471265219151973724365234375" lon="20.15131621621549129486083984375">
        <ele>2160</ele>
        <time>2026-06-20T10:14:25.000Z</time>
        <extensions>
          <ns3:TrackPointExtension>
            <ns3:atemp>22.0</ns3:atemp>
          </ns3:TrackPointExtension>
        </extensions>
      </trkpt>
      <trkpt lat="42.51471399329602718353271484375" lon="20.1513127796351909637451171875">
        <ele>2160</ele>
        <time>2026-06-20T10:14:26.000Z</time>
        <extensions>
          <ns3:TrackPointExtension>
            <ns3:atemp>21.0</ns3:atemp>
          </ns3:TrackPointExtension>
        </extensions>
      </trkpt>
      <trkpt lat="42.51471399329602718353271484375" lon="20.1513127796351909637451171875">
        <ele>2160.39990234375</ele>
        <time>2026-06-20T10:14:27.000Z</time>
        <extensions>
          <ns3:TrackPointExtension>
            <ns3:atemp>21.0</ns3:atemp>
          </ns3:TrackPointExtension>
        </extensions>
      </trkpt>
      <trkpt lat="42.51471399329602718353271484375" lon="20.1513127796351909637451171875">
        <ele>2160.60009765625</ele>
        <time>2026-06-20T10:14:28.000Z</time>
        <extensions>
          <ns3:TrackPointExtension>
            <ns3:atemp>21.0</ns3:atemp>
          </ns3:TrackPointExtension>
        </extensions>
      </trkpt>
      <trkpt lat="42.51471399329602718353271484375" lon="20.1513127796351909637451171875">
        <ele>2160.800048828125</ele>
        <time>2026-06-20T10:14:29.000Z</time>
        <extensions>
          <ns3:TrackPointExtension>
            <ns3:atemp>21.0</ns3:atemp>
          </ns3:TrackPointExtension>
        </extensions>
      </trkpt>
      <trkpt lat="42.51471399329602718353271484375" lon="20.1513127796351909637451171875">
        <ele>2160.60009765625</ele>
        <time>2026-06-20T10:14:30.000Z</time>
        <extensions>
          <ns3:TrackPointExtension>
            <ns3:atemp>21.0</ns3:atemp>
          </ns3:TrackPointExtension>
        </extensions>
      </trkpt>
      <trkpt lat="42.51471399329602718353271484375" lon="20.1513127796351909637451171875">
        <ele>2160.60009765625</ele>
        <time>2026-06-20T10:14:31.000Z</time>
        <extensions>
          <ns3:TrackPointExtension>
            <ns3:atemp>21.0</ns3:atemp>
          </ns3:TrackPointExtension>
        </extensions>
      </trkpt>
      <trkpt lat="42.51471399329602718353271484375" lon="20.1513127796351909637451171875">
        <ele>2160.39990234375</ele>
        <time>2026-06-20T10:14:32.000Z</time>
        <extensions>
          <ns3:TrackPointExtension>
            <ns3:atemp>21.0</ns3:atemp>
          </ns3:TrackPointExtension>
        </extensions>
      </trkpt>
      <trkpt lat="42.51471399329602718353271484375" lon="20.1513127796351909637451171875">
        <ele>2160.199951171875</ele>
        <time>2026-06-20T10:14:33.000Z</time>
        <extensions>
          <ns3:TrackPointExtension>
            <ns3:atemp>21.0</ns3:atemp>
          </ns3:TrackPointExtension>
        </extensions>
      </trkpt>
      <trkpt lat="42.51471399329602718353271484375" lon="20.1513127796351909637451171875">
        <ele>2160</ele>
        <time>2026-06-20T10:14:34.000Z</time>
        <extensions>
          <ns3:TrackPointExtension>
            <ns3:atemp>21.0</ns3:atemp>
          </ns3:TrackPointExtension>
        </extensions>
      </trkpt>
      <trkpt lat="42.51471399329602718353271484375" lon="20.1513127796351909637451171875">
        <ele>2159.800048828125</ele>
        <time>2026-06-20T10:14:35.000Z</time>
        <extensions>
          <ns3:TrackPointExtension>
            <ns3:atemp>21.0</ns3:atemp>
          </ns3:TrackPointExtension>
        </extensions>
      </trkpt>
      <trkpt lat="42.51471399329602718353271484375" lon="20.1513127796351909637451171875">
        <ele>2159.800048828125</ele>
        <time>2026-06-20T10:14:36.000Z</time>
        <extensions>
          <ns3:TrackPointExtension>
            <ns3:atemp>21.0</ns3:atemp>
          </ns3:TrackPointExtension>
        </extensions>
      </trkpt>
      <trkpt lat="42.51471399329602718353271484375" lon="20.1513127796351909637451171875">
        <ele>2159.800048828125</ele>
        <time>2026-06-20T10:14:37.000Z</time>
        <extensions>
          <ns3:TrackPointExtension>
            <ns3:atemp>21.0</ns3:atemp>
          </ns3:TrackPointExtension>
        </extensions>
      </trkpt>
      <trkpt lat="42.51471399329602718353271484375" lon="20.1513127796351909637451171875">
        <ele>2159.800048828125</ele>
        <time>2026-06-20T10:14:38.000Z</time>
        <extensions>
          <ns3:TrackPointExtension>
            <ns3:atemp>21.0</ns3:atemp>
          </ns3:TrackPointExtension>
        </extensions>
      </trkpt>
      <trkpt lat="42.51471399329602718353271484375" lon="20.1513127796351909637451171875">
        <ele>2159.800048828125</ele>
        <time>2026-06-20T10:14:39.000Z</time>
        <extensions>
          <ns3:TrackPointExtension>
            <ns3:atemp>21.0</ns3:atemp>
          </ns3:TrackPointExtension>
        </extensions>
      </trkpt>
      <trkpt lat="42.51471399329602718353271484375" lon="20.1513127796351909637451171875">
        <ele>2160</ele>
        <time>2026-06-20T10:14:40.000Z</time>
        <extensions>
          <ns3:TrackPointExtension>
            <ns3:atemp>21.0</ns3:atemp>
          </ns3:TrackPointExtension>
        </extensions>
      </trkpt>
      <trkpt lat="42.51471399329602718353271484375" lon="20.1513127796351909637451171875">
        <ele>2159.800048828125</ele>
        <time>2026-06-20T10:14:41.000Z</time>
        <extensions>
          <ns3:TrackPointExtension>
            <ns3:atemp>21.0</ns3:atemp>
          </ns3:TrackPointExtension>
        </extensions>
      </trkpt>
      <trkpt lat="42.51471399329602718353271484375" lon="20.1513127796351909637451171875">
        <ele>2159.800048828125</ele>
        <time>2026-06-20T10:14:42.000Z</time>
        <extensions>
          <ns3:TrackPointExtension>
            <ns3:atemp>21.0</ns3:atemp>
          </ns3:TrackPointExtension>
        </extensions>
      </trkpt>
      <trkpt lat="42.51471399329602718353271484375" lon="20.1513127796351909637451171875">
        <ele>2159.800048828125</ele>
        <time>2026-06-20T10:14:43.000Z</time>
        <extensions>
          <ns3:TrackPointExtension>
            <ns3:atemp>21.0</ns3:atemp>
          </ns3:TrackPointExtension>
        </extensions>
      </trkpt>
      <trkpt lat="42.51471399329602718353271484375" lon="20.1513127796351909637451171875">
        <ele>2159.800048828125</ele>
        <time>2026-06-20T10:14:44.000Z</time>
        <extensions>
          <ns3:TrackPointExtension>
            <ns3:atemp>21.0</ns3:atemp>
          </ns3:TrackPointExtension>
        </extensions>
      </trkpt>
      <trkpt lat="42.51471399329602718353271484375" lon="20.1513127796351909637451171875">
        <ele>2159.800048828125</ele>
        <time>2026-06-20T10:14:45.000Z</time>
        <extensions>
          <ns3:TrackPointExtension>
            <ns3:atemp>21.0</ns3:atemp>
          </ns3:TrackPointExtension>
        </extensions>
      </trkpt>
      <trkpt lat="42.51471399329602718353271484375" lon="20.1513127796351909637451171875">
        <ele>2159.800048828125</ele>
        <time>2026-06-20T10:14:46.000Z</time>
        <extensions>
          <ns3:TrackPointExtension>
            <ns3:atemp>21.0</ns3:atemp>
          </ns3:TrackPointExtension>
        </extensions>
      </trkpt>
      <trkpt lat="42.51471399329602718353271484375" lon="20.1513127796351909637451171875">
        <ele>2160</ele>
        <time>2026-06-20T10:14:47.000Z</time>
        <extensions>
          <ns3:TrackPointExtension>
            <ns3:atemp>21.0</ns3:atemp>
          </ns3:TrackPointExtension>
        </extensions>
      </trkpt>
      <trkpt lat="42.51471399329602718353271484375" lon="20.1513127796351909637451171875">
        <ele>2160</ele>
        <time>2026-06-20T10:14:48.000Z</time>
        <extensions>
          <ns3:TrackPointExtension>
            <ns3:atemp>21.0</ns3:atemp>
          </ns3:TrackPointExtension>
        </extensions>
      </trkpt>
      <trkpt lat="42.51471399329602718353271484375" lon="20.1513127796351909637451171875">
        <ele>2160</ele>
        <time>2026-06-20T10:14:49.000Z</time>
        <extensions>
          <ns3:TrackPointExtension>
            <ns3:atemp>21.0</ns3:atemp>
          </ns3:TrackPointExtension>
        </extensions>
      </trkpt>
      <trkpt lat="42.51471399329602718353271484375" lon="20.1513127796351909637451171875">
        <ele>2160</ele>
        <time>2026-06-20T10:14:50.000Z</time>
        <extensions>
          <ns3:TrackPointExtension>
            <ns3:atemp>22.0</ns3:atemp>
          </ns3:TrackPointExtension>
        </extensions>
      </trkpt>
      <trkpt lat="42.51471399329602718353271484375" lon="20.1513127796351909637451171875">
        <ele>2160</ele>
        <time>2026-06-20T10:14:51.000Z</time>
        <extensions>
          <ns3:TrackPointExtension>
            <ns3:atemp>22.0</ns3:atemp>
          </ns3:TrackPointExtension>
        </extensions>
      </trkpt>
      <trkpt lat="42.51471399329602718353271484375" lon="20.1513127796351909637451171875">
        <ele>2160</ele>
        <time>2026-06-20T10:14:52.000Z</time>
        <extensions>
          <ns3:TrackPointExtension>
            <ns3:atemp>22.0</ns3:atemp>
          </ns3:TrackPointExtension>
        </extensions>
      </trkpt>
      <trkpt lat="42.51471399329602718353271484375" lon="20.1513127796351909637451171875">
        <ele>2159.800048828125</ele>
        <time>2026-06-20T10:14:53.000Z</time>
        <extensions>
          <ns3:TrackPointExtension>
            <ns3:atemp>22.0</ns3:atemp>
          </ns3:TrackPointExtension>
        </extensions>
      </trkpt>
      <trkpt lat="42.51471399329602718353271484375" lon="20.1513127796351909637451171875">
        <ele>2159.800048828125</ele>
        <time>2026-06-20T10:14:54.000Z</time>
        <extensions>
          <ns3:TrackPointExtension>
            <ns3:atemp>22.0</ns3:atemp>
          </ns3:TrackPointExtension>
        </extensions>
      </trkpt>
      <trkpt lat="42.51471399329602718353271484375" lon="20.1513127796351909637451171875">
        <ele>2159.60009765625</ele>
        <time>2026-06-20T10:14:55.000Z</time>
        <extensions>
          <ns3:TrackPointExtension>
            <ns3:atemp>22.0</ns3:atemp>
          </ns3:TrackPointExtension>
        </extensions>
      </trkpt>
      <trkpt lat="42.51471399329602718353271484375" lon="20.1513127796351909637451171875">
        <ele>2159.60009765625</ele>
        <time>2026-06-20T10:14:56.000Z</time>
        <extensions>
          <ns3:TrackPointExtension>
            <ns3:atemp>22.0</ns3:atemp>
          </ns3:TrackPointExtension>
        </extensions>
      </trkpt>
      <trkpt lat="42.51471399329602718353271484375" lon="20.1513127796351909637451171875">
        <ele>2159.800048828125</ele>
        <time>2026-06-20T10:14:57.000Z</time>
        <extensions>
          <ns3:TrackPointExtension>
            <ns3:atemp>21.0</ns3:atemp>
          </ns3:TrackPointExtension>
        </extensions>
      </trkpt>
      <trkpt lat="42.51471399329602718353271484375" lon="20.1513127796351909637451171875">
        <ele>2159.800048828125</ele>
        <time>2026-06-20T10:14:58.000Z</time>
        <extensions>
          <ns3:TrackPointExtension>
            <ns3:atemp>22.0</ns3:atemp>
          </ns3:TrackPointExtension>
        </extensions>
      </trkpt>
      <trkpt lat="42.51471399329602718353271484375" lon="20.1513127796351909637451171875">
        <ele>2160</ele>
        <time>2026-06-20T10:14:59.000Z</time>
        <extensions>
          <ns3:TrackPointExtension>
            <ns3:atemp>22.0</ns3:atemp>
          </ns3:TrackPointExtension>
        </extensions>
      </trkpt>
      <trkpt lat="42.51471399329602718353271484375" lon="20.1513127796351909637451171875">
        <ele>2160</ele>
        <time>2026-06-20T10:15:00.000Z</time>
        <extensions>
          <ns3:TrackPointExtension>
            <ns3:atemp>22.0</ns3:atemp>
          </ns3:TrackPointExtension>
        </extensions>
      </trkpt>
      <trkpt lat="42.51471399329602718353271484375" lon="20.1513127796351909637451171875">
        <ele>2160</ele>
        <time>2026-06-20T10:15:01.000Z</time>
        <extensions>
          <ns3:TrackPointExtension>
            <ns3:atemp>22.0</ns3:atemp>
          </ns3:TrackPointExtension>
        </extensions>
      </trkpt>
      <trkpt lat="42.51471399329602718353271484375" lon="20.1513127796351909637451171875">
        <ele>2160</ele>
        <time>2026-06-20T10:15:02.000Z</time>
        <extensions>
          <ns3:TrackPointExtension>
            <ns3:atemp>22.0</ns3:atemp>
          </ns3:TrackPointExtension>
        </extensions>
      </trkpt>
      <trkpt lat="42.51471399329602718353271484375" lon="20.1513127796351909637451171875">
        <ele>2160</ele>
        <time>2026-06-20T10:15:03.000Z</time>
        <extensions>
          <ns3:TrackPointExtension>
            <ns3:atemp>22.0</ns3:atemp>
          </ns3:TrackPointExtension>
        </extensions>
      </trkpt>
      <trkpt lat="42.51471399329602718353271484375" lon="20.1513127796351909637451171875">
        <ele>2160</ele>
        <time>2026-06-20T10:15:04.000Z</time>
        <extensions>
          <ns3:TrackPointExtension>
            <ns3:atemp>22.0</ns3:atemp>
          </ns3:TrackPointExtension>
        </extensions>
      </trkpt>
      <trkpt lat="42.51471399329602718353271484375" lon="20.1513127796351909637451171875">
        <ele>2160.199951171875</ele>
        <time>2026-06-20T10:15:05.000Z</time>
        <extensions>
          <ns3:TrackPointExtension>
            <ns3:atemp>22.0</ns3:atemp>
          </ns3:TrackPointExtension>
        </extensions>
      </trkpt>
      <trkpt lat="42.51471399329602718353271484375" lon="20.1513127796351909637451171875">
        <ele>2160.199951171875</ele>
        <time>2026-06-20T10:15:06.000Z</time>
        <extensions>
          <ns3:TrackPointExtension>
            <ns3:atemp>22.0</ns3:atemp>
          </ns3:TrackPointExtension>
        </extensions>
      </trkpt>
      <trkpt lat="42.51471399329602718353271484375" lon="20.1513127796351909637451171875">
        <ele>2160.199951171875</ele>
        <time>2026-06-20T10:15:07.000Z</time>
        <extensions>
          <ns3:TrackPointExtension>
            <ns3:atemp>22.0</ns3:atemp>
          </ns3:TrackPointExtension>
        </extensions>
      </trkpt>
      <trkpt lat="42.51471399329602718353271484375" lon="20.1513127796351909637451171875">
        <ele>2160.199951171875</ele>
        <time>2026-06-20T10:15:08.000Z</time>
        <extensions>
          <ns3:TrackPointExtension>
            <ns3:atemp>22.0</ns3:atemp>
          </ns3:TrackPointExtension>
        </extensions>
      </trkpt>
      <trkpt lat="42.51471399329602718353271484375" lon="20.1513127796351909637451171875">
        <ele>2160.199951171875</ele>
        <time>2026-06-20T10:15:09.000Z</time>
        <extensions>
          <ns3:TrackPointExtension>
            <ns3:atemp>22.0</ns3:atemp>
          </ns3:TrackPointExtension>
        </extensions>
      </trkpt>
      <trkpt lat="42.51471399329602718353271484375" lon="20.1513127796351909637451171875">
        <ele>2160</ele>
        <time>2026-06-20T10:15:10.000Z</time>
        <extensions>
          <ns3:TrackPointExtension>
            <ns3:atemp>22.0</ns3:atemp>
          </ns3:TrackPointExtension>
        </extensions>
      </trkpt>
      <trkpt lat="42.51471399329602718353271484375" lon="20.1513127796351909637451171875">
        <ele>2160</ele>
        <time>2026-06-20T10:15:11.000Z</time>
        <extensions>
          <ns3:TrackPointExtension>
            <ns3:atemp>22.0</ns3:atemp>
          </ns3:TrackPointExtension>
        </extensions>
      </trkpt>
      <trkpt lat="42.51471399329602718353271484375" lon="20.1513127796351909637451171875">
        <ele>2160</ele>
        <time>2026-06-20T10:15:12.000Z</time>
        <extensions>
          <ns3:TrackPointExtension>
            <ns3:atemp>22.0</ns3:atemp>
          </ns3:TrackPointExtension>
        </extensions>
      </trkpt>
      <trkpt lat="42.51471399329602718353271484375" lon="20.1513127796351909637451171875">
        <ele>2160</ele>
        <time>2026-06-20T10:15:13.000Z</time>
        <extensions>
          <ns3:TrackPointExtension>
            <ns3:atemp>22.0</ns3:atemp>
          </ns3:TrackPointExtension>
        </extensions>
      </trkpt>
      <trkpt lat="42.51471399329602718353271484375" lon="20.1513127796351909637451171875">
        <ele>2160</ele>
        <time>2026-06-20T10:15:14.000Z</time>
        <extensions>
          <ns3:TrackPointExtension>
            <ns3:atemp>22.0</ns3:atemp>
          </ns3:TrackPointExtension>
        </extensions>
      </trkpt>
      <trkpt lat="42.51471399329602718353271484375" lon="20.1513127796351909637451171875">
        <ele>2160</ele>
        <time>2026-06-20T10:15:15.000Z</time>
        <extensions>
          <ns3:TrackPointExtension>
            <ns3:atemp>22.0</ns3:atemp>
          </ns3:TrackPointExtension>
        </extensions>
      </trkpt>
      <trkpt lat="42.51471399329602718353271484375" lon="20.1513127796351909637451171875">
        <ele>2160</ele>
        <time>2026-06-20T10:15:16.000Z</time>
        <extensions>
          <ns3:TrackPointExtension>
            <ns3:atemp>22.0</ns3:atemp>
          </ns3:TrackPointExtension>
        </extensions>
      </trkpt>
      <trkpt lat="42.51471399329602718353271484375" lon="20.1513127796351909637451171875">
        <ele>2160</ele>
        <time>2026-06-20T10:15:17.000Z</time>
        <extensions>
          <ns3:TrackPointExtension>
            <ns3:atemp>22.0</ns3:atemp>
          </ns3:TrackPointExtension>
        </extensions>
      </trkpt>
      <trkpt lat="42.51471399329602718353271484375" lon="20.1513127796351909637451171875">
        <ele>2160</ele>
        <time>2026-06-20T10:15:18.000Z</time>
        <extensions>
          <ns3:TrackPointExtension>
            <ns3:atemp>22.0</ns3:atemp>
          </ns3:TrackPointExtension>
        </extensions>
      </trkpt>
      <trkpt lat="42.51471399329602718353271484375" lon="20.1513127796351909637451171875">
        <ele>2160</ele>
        <time>2026-06-20T10:15:19.000Z</time>
        <extensions>
          <ns3:TrackPointExtension>
            <ns3:atemp>22.0</ns3:atemp>
          </ns3:TrackPointExtension>
        </extensions>
      </trkpt>
      <trkpt lat="42.51471399329602718353271484375" lon="20.1513127796351909637451171875">
        <ele>2160</ele>
        <time>2026-06-20T10:15:20.000Z</time>
        <extensions>
          <ns3:TrackPointExtension>
            <ns3:atemp>22.0</ns3:atemp>
          </ns3:TrackPointExtension>
        </extensions>
      </trkpt>
      <trkpt lat="42.51471399329602718353271484375" lon="20.1513127796351909637451171875">
        <ele>2160</ele>
        <time>2026-06-20T10:15:21.000Z</time>
        <extensions>
          <ns3:TrackPointExtension>
            <ns3:atemp>22.0</ns3:atemp>
          </ns3:TrackPointExtension>
        </extensions>
      </trkpt>
      <trkpt lat="42.51471399329602718353271484375" lon="20.1513127796351909637451171875">
        <ele>2160</ele>
        <time>2026-06-20T10:15:22.000Z</time>
        <extensions>
          <ns3:TrackPointExtension>
            <ns3:atemp>22.0</ns3:atemp>
          </ns3:TrackPointExtension>
        </extensions>
      </trkpt>
      <trkpt lat="42.51471399329602718353271484375" lon="20.1513127796351909637451171875">
        <ele>2160</ele>
        <time>2026-06-20T10:15:23.000Z</time>
        <extensions>
          <ns3:TrackPointExtension>
            <ns3:atemp>22.0</ns3:atemp>
          </ns3:TrackPointExtension>
        </extensions>
      </trkpt>
      <trkpt lat="42.51471399329602718353271484375" lon="20.1513127796351909637451171875">
        <ele>2160</ele>
        <time>2026-06-20T10:15:24.000Z</time>
        <extensions>
          <ns3:TrackPointExtension>
            <ns3:atemp>22.0</ns3:atemp>
          </ns3:TrackPointExtension>
        </extensions>
      </trkpt>
      <trkpt lat="42.51471399329602718353271484375" lon="20.1513127796351909637451171875">
        <ele>2160</ele>
        <time>2026-06-20T10:15:25.000Z</time>
        <extensions>
          <ns3:TrackPointExtension>
            <ns3:atemp>22.0</ns3:atemp>
          </ns3:TrackPointExtension>
        </extensions>
      </trkpt>
      <trkpt lat="42.51471399329602718353271484375" lon="20.1513127796351909637451171875">
        <ele>2159.800048828125</ele>
        <time>2026-06-20T10:15:26.000Z</time>
        <extensions>
          <ns3:TrackPointExtension>
            <ns3:atemp>22.0</ns3:atemp>
          </ns3:TrackPointExtension>
        </extensions>
      </trkpt>
      <trkpt lat="42.51471399329602718353271484375" lon="20.1513127796351909637451171875">
        <ele>2159.800048828125</ele>
        <time>2026-06-20T10:15:27.000Z</time>
        <extensions>
          <ns3:TrackPointExtension>
            <ns3:atemp>22.0</ns3:atemp>
          </ns3:TrackPointExtension>
        </extensions>
      </trkpt>
      <trkpt lat="42.51471399329602718353271484375" lon="20.1513127796351909637451171875">
        <ele>2159.800048828125</ele>
        <time>2026-06-20T10:15:28.000Z</time>
        <extensions>
          <ns3:TrackPointExtension>
            <ns3:atemp>22.0</ns3:atemp>
          </ns3:TrackPointExtension>
        </extensions>
      </trkpt>
      <trkpt lat="42.51471399329602718353271484375" lon="20.1513127796351909637451171875">
        <ele>2159.800048828125</ele>
        <time>2026-06-20T10:15:29.000Z</time>
        <extensions>
          <ns3:TrackPointExtension>
            <ns3:atemp>22.0</ns3:atemp>
          </ns3:TrackPointExtension>
        </extensions>
      </trkpt>
      <trkpt lat="42.51471399329602718353271484375" lon="20.1513127796351909637451171875">
        <ele>2159.800048828125</ele>
        <time>2026-06-20T10:15:30.000Z</time>
        <extensions>
          <ns3:TrackPointExtension>
            <ns3:atemp>22.0</ns3:atemp>
          </ns3:TrackPointExtension>
        </extensions>
      </trkpt>
      <trkpt lat="42.51471399329602718353271484375" lon="20.1513127796351909637451171875">
        <ele>2159.800048828125</ele>
        <time>2026-06-20T10:15:31.000Z</time>
        <extensions>
          <ns3:TrackPointExtension>
            <ns3:atemp>22.0</ns3:atemp>
          </ns3:TrackPointExtension>
        </extensions>
      </trkpt>
      <trkpt lat="42.51471399329602718353271484375" lon="20.1513127796351909637451171875">
        <ele>2159.800048828125</ele>
        <time>2026-06-20T10:15:32.000Z</time>
        <extensions>
          <ns3:TrackPointExtension>
            <ns3:atemp>22.0</ns3:atemp>
          </ns3:TrackPointExtension>
        </extensions>
      </trkpt>
      <trkpt lat="42.51471399329602718353271484375" lon="20.1513127796351909637451171875">
        <ele>2159.800048828125</ele>
        <time>2026-06-20T10:15:33.000Z</time>
        <extensions>
          <ns3:TrackPointExtension>
            <ns3:atemp>22.0</ns3:atemp>
          </ns3:TrackPointExtension>
        </extensions>
      </trkpt>
      <trkpt lat="42.51471399329602718353271484375" lon="20.1513127796351909637451171875">
        <ele>2159.800048828125</ele>
        <time>2026-06-20T10:15:34.000Z</time>
        <extensions>
          <ns3:TrackPointExtension>
            <ns3:atemp>22.0</ns3:atemp>
          </ns3:TrackPointExtension>
        </extensions>
      </trkpt>
      <trkpt lat="42.51471399329602718353271484375" lon="20.1513127796351909637451171875">
        <ele>2159.800048828125</ele>
        <time>2026-06-20T10:15:35.000Z</time>
        <extensions>
          <ns3:TrackPointExtension>
            <ns3:atemp>22.0</ns3:atemp>
          </ns3:TrackPointExtension>
        </extensions>
      </trkpt>
      <trkpt lat="42.51471399329602718353271484375" lon="20.1513127796351909637451171875">
        <ele>2159.800048828125</ele>
        <time>2026-06-20T10:15:36.000Z</time>
        <extensions>
          <ns3:TrackPointExtension>
            <ns3:atemp>22.0</ns3:atemp>
          </ns3:TrackPointExtension>
        </extensions>
      </trkpt>
      <trkpt lat="42.51471399329602718353271484375" lon="20.1513127796351909637451171875">
        <ele>2159.800048828125</ele>
        <time>2026-06-20T10:15:37.000Z</time>
        <extensions>
          <ns3:TrackPointExtension>
            <ns3:atemp>22.0</ns3:atemp>
          </ns3:TrackPointExtension>
        </extensions>
      </trkpt>
      <trkpt lat="42.51471399329602718353271484375" lon="20.1513127796351909637451171875">
        <ele>2159.800048828125</ele>
        <time>2026-06-20T10:15:38.000Z</time>
        <extensions>
          <ns3:TrackPointExtension>
            <ns3:atemp>22.0</ns3:atemp>
          </ns3:TrackPointExtension>
        </extensions>
      </trkpt>
      <trkpt lat="42.51471399329602718353271484375" lon="20.1513127796351909637451171875">
        <ele>2159.800048828125</ele>
        <time>2026-06-20T10:15:39.000Z</time>
        <extensions>
          <ns3:TrackPointExtension>
            <ns3:atemp>22.0</ns3:atemp>
          </ns3:TrackPointExtension>
        </extensions>
      </trkpt>
      <trkpt lat="42.51471399329602718353271484375" lon="20.1513127796351909637451171875">
        <ele>2159.60009765625</ele>
        <time>2026-06-20T10:15:40.000Z</time>
        <extensions>
          <ns3:TrackPointExtension>
            <ns3:atemp>22.0</ns3:atemp>
          </ns3:TrackPointExtension>
        </extensions>
      </trkpt>
      <trkpt lat="42.51471399329602718353271484375" lon="20.1513127796351909637451171875">
        <ele>2159.60009765625</ele>
        <time>2026-06-20T10:15:41.000Z</time>
        <extensions>
          <ns3:TrackPointExtension>
            <ns3:atemp>22.0</ns3:atemp>
          </ns3:TrackPointExtension>
        </extensions>
      </trkpt>
      <trkpt lat="42.51471399329602718353271484375" lon="20.1513127796351909637451171875">
        <ele>2159.60009765625</ele>
        <time>2026-06-20T10:15:42.000Z</time>
        <extensions>
          <ns3:TrackPointExtension>
            <ns3:atemp>22.0</ns3:atemp>
          </ns3:TrackPointExtension>
        </extensions>
      </trkpt>
      <trkpt lat="42.51471399329602718353271484375" lon="20.1513127796351909637451171875">
        <ele>2159.60009765625</ele>
        <time>2026-06-20T10:15:43.000Z</time>
        <extensions>
          <ns3:TrackPointExtension>
            <ns3:atemp>22.0</ns3:atemp>
          </ns3:TrackPointExtension>
        </extensions>
      </trkpt>
      <trkpt lat="42.51471399329602718353271484375" lon="20.1513127796351909637451171875">
        <ele>2159.60009765625</ele>
        <time>2026-06-20T10:15:44.000Z</time>
        <extensions>
          <ns3:TrackPointExtension>
            <ns3:atemp>22.0</ns3:atemp>
          </ns3:TrackPointExtension>
        </extensions>
      </trkpt>
      <trkpt lat="42.51471399329602718353271484375" lon="20.1513127796351909637451171875">
        <ele>2159.60009765625</ele>
        <time>2026-06-20T10:15:45.000Z</time>
        <extensions>
          <ns3:TrackPointExtension>
            <ns3:atemp>22.0</ns3:atemp>
          </ns3:TrackPointExtension>
        </extensions>
      </trkpt>
      <trkpt lat="42.51471399329602718353271484375" lon="20.1513127796351909637451171875">
        <ele>2159.60009765625</ele>
        <time>2026-06-20T10:15:46.000Z</time>
        <extensions>
          <ns3:TrackPointExtension>
            <ns3:atemp>22.0</ns3:atemp>
          </ns3:TrackPointExtension>
        </extensions>
      </trkpt>
      <trkpt lat="42.51471399329602718353271484375" lon="20.1513127796351909637451171875">
        <ele>2159.60009765625</ele>
        <time>2026-06-20T10:15:47.000Z</time>
        <extensions>
          <ns3:TrackPointExtension>
            <ns3:atemp>22.0</ns3:atemp>
          </ns3:TrackPointExtension>
        </extensions>
      </trkpt>
      <trkpt lat="42.51471399329602718353271484375" lon="20.1513127796351909637451171875">
        <ele>2159.60009765625</ele>
        <time>2026-06-20T10:15:48.000Z</time>
        <extensions>
          <ns3:TrackPointExtension>
            <ns3:atemp>22.0</ns3:atemp>
          </ns3:TrackPointExtension>
        </extensions>
      </trkpt>
      <trkpt lat="42.51471399329602718353271484375" lon="20.1513127796351909637451171875">
        <ele>2159.60009765625</ele>
        <time>2026-06-20T10:15:49.000Z</time>
        <extensions>
          <ns3:TrackPointExtension>
            <ns3:atemp>22.0</ns3:atemp>
          </ns3:TrackPointExtension>
        </extensions>
      </trkpt>
      <trkpt lat="42.51471399329602718353271484375" lon="20.1513127796351909637451171875">
        <ele>2159.60009765625</ele>
        <time>2026-06-20T10:15:50.000Z</time>
        <extensions>
          <ns3:TrackPointExtension>
            <ns3:atemp>22.0</ns3:atemp>
          </ns3:TrackPointExtension>
        </extensions>
      </trkpt>
      <trkpt lat="42.51471399329602718353271484375" lon="20.1513127796351909637451171875">
        <ele>2159.60009765625</ele>
        <time>2026-06-20T10:15:51.000Z</time>
        <extensions>
          <ns3:TrackPointExtension>
            <ns3:atemp>22.0</ns3:atemp>
          </ns3:TrackPointExtension>
        </extensions>
      </trkpt>
      <trkpt lat="42.51471399329602718353271484375" lon="20.1513127796351909637451171875">
        <ele>2159.60009765625</ele>
        <time>2026-06-20T10:15:52.000Z</time>
        <extensions>
          <ns3:TrackPointExtension>
            <ns3:atemp>22.0</ns3:atemp>
          </ns3:TrackPointExtension>
        </extensions>
      </trkpt>
      <trkpt lat="42.51471399329602718353271484375" lon="20.1513127796351909637451171875">
        <ele>2159.60009765625</ele>
        <time>2026-06-20T10:15:53.000Z</time>
        <extensions>
          <ns3:TrackPointExtension>
            <ns3:atemp>22.0</ns3:atemp>
          </ns3:TrackPointExtension>
        </extensions>
      </trkpt>
      <trkpt lat="42.51471399329602718353271484375" lon="20.1513127796351909637451171875">
        <ele>2159.60009765625</ele>
        <time>2026-06-20T10:15:54.000Z</time>
        <extensions>
          <ns3:TrackPointExtension>
            <ns3:atemp>22.0</ns3:atemp>
          </ns3:TrackPointExtension>
        </extensions>
      </trkpt>
      <trkpt lat="42.51471399329602718353271484375" lon="20.1513127796351909637451171875">
        <ele>2159.60009765625</ele>
        <time>2026-06-20T10:15:55.000Z</time>
        <extensions>
          <ns3:TrackPointExtension>
            <ns3:atemp>22.0</ns3:atemp>
          </ns3:TrackPointExtension>
        </extensions>
      </trkpt>
      <trkpt lat="42.51471399329602718353271484375" lon="20.1513127796351909637451171875">
        <ele>2159.60009765625</ele>
        <time>2026-06-20T10:15:56.000Z</time>
        <extensions>
          <ns3:TrackPointExtension>
            <ns3:atemp>22.0</ns3:atemp>
          </ns3:TrackPointExtension>
        </extensions>
      </trkpt>
      <trkpt lat="42.51471399329602718353271484375" lon="20.1513127796351909637451171875">
        <ele>2159.60009765625</ele>
        <time>2026-06-20T10:15:57.000Z</time>
        <extensions>
          <ns3:TrackPointExtension>
            <ns3:atemp>22.0</ns3:atemp>
          </ns3:TrackPointExtension>
        </extensions>
      </trkpt>
      <trkpt lat="42.51471399329602718353271484375" lon="20.1513127796351909637451171875">
        <ele>2159.60009765625</ele>
        <time>2026-06-20T10:15:58.000Z</time>
        <extensions>
          <ns3:TrackPointExtension>
            <ns3:atemp>22.0</ns3:atemp>
          </ns3:TrackPointExtension>
        </extensions>
      </trkpt>
      <trkpt lat="42.51471399329602718353271484375" lon="20.1513127796351909637451171875">
        <ele>2159.800048828125</ele>
        <time>2026-06-20T10:15:59.000Z</time>
        <extensions>
          <ns3:TrackPointExtension>
            <ns3:atemp>22.0</ns3:atemp>
          </ns3:TrackPointExtension>
        </extensions>
      </trkpt>
      <trkpt lat="42.51471399329602718353271484375" lon="20.1513127796351909637451171875">
        <ele>2159.800048828125</ele>
        <time>2026-06-20T10:16:00.000Z</time>
        <extensions>
          <ns3:TrackPointExtension>
            <ns3:atemp>22.0</ns3:atemp>
          </ns3:TrackPointExtension>
        </extensions>
      </trkpt>
      <trkpt lat="42.51471399329602718353271484375" lon="20.1513127796351909637451171875">
        <ele>2159.800048828125</ele>
        <time>2026-06-20T10:16:01.000Z</time>
        <extensions>
          <ns3:TrackPointExtension>
            <ns3:atemp>22.0</ns3:atemp>
          </ns3:TrackPointExtension>
        </extensions>
      </trkpt>
      <trkpt lat="42.51471399329602718353271484375" lon="20.1513127796351909637451171875">
        <ele>2159.800048828125</ele>
        <time>2026-06-20T10:16:02.000Z</time>
        <extensions>
          <ns3:TrackPointExtension>
            <ns3:atemp>22.0</ns3:atemp>
          </ns3:TrackPointExtension>
        </extensions>
      </trkpt>
      <trkpt lat="42.51471399329602718353271484375" lon="20.1513127796351909637451171875">
        <ele>2159.60009765625</ele>
        <time>2026-06-20T10:16:03.000Z</time>
        <extensions>
          <ns3:TrackPointExtension>
            <ns3:atemp>22.0</ns3:atemp>
          </ns3:TrackPointExtension>
        </extensions>
      </trkpt>
      <trkpt lat="42.51471399329602718353271484375" lon="20.1513127796351909637451171875">
        <ele>2159.60009765625</ele>
        <time>2026-06-20T10:16:04.000Z</time>
        <extensions>
          <ns3:TrackPointExtension>
            <ns3:atemp>22.0</ns3:atemp>
          </ns3:TrackPointExtension>
        </extensions>
      </trkpt>
      <trkpt lat="42.51471399329602718353271484375" lon="20.1513127796351909637451171875">
        <ele>2159.800048828125</ele>
        <time>2026-06-20T10:16:05.000Z</time>
        <extensions>
          <ns3:TrackPointExtension>
            <ns3:atemp>22.0</ns3:atemp>
          </ns3:TrackPointExtension>
        </extensions>
      </trkpt>
      <trkpt lat="42.51471399329602718353271484375" lon="20.1513127796351909637451171875">
        <ele>2159.800048828125</ele>
        <time>2026-06-20T10:16:06.000Z</time>
        <extensions>
          <ns3:TrackPointExtension>
            <ns3:atemp>22.0</ns3:atemp>
          </ns3:TrackPointExtension>
        </extensions>
      </trkpt>
      <trkpt lat="42.51471399329602718353271484375" lon="20.1513127796351909637451171875">
        <ele>2159.800048828125</ele>
        <time>2026-06-20T10:16:07.000Z</time>
        <extensions>
          <ns3:TrackPointExtension>
            <ns3:atemp>22.0</ns3:atemp>
          </ns3:TrackPointExtension>
        </extensions>
      </trkpt>
      <trkpt lat="42.51471399329602718353271484375" lon="20.1513127796351909637451171875">
        <ele>2159.800048828125</ele>
        <time>2026-06-20T10:16:08.000Z</time>
        <extensions>
          <ns3:TrackPointExtension>
            <ns3:atemp>22.0</ns3:atemp>
          </ns3:TrackPointExtension>
        </extensions>
      </trkpt>
      <trkpt lat="42.51471399329602718353271484375" lon="20.1513127796351909637451171875">
        <ele>2159.800048828125</ele>
        <time>2026-06-20T10:16:09.000Z</time>
        <extensions>
          <ns3:TrackPointExtension>
            <ns3:atemp>22.0</ns3:atemp>
          </ns3:TrackPointExtension>
        </extensions>
      </trkpt>
      <trkpt lat="42.51471399329602718353271484375" lon="20.1513127796351909637451171875">
        <ele>2159.60009765625</ele>
        <time>2026-06-20T10:16:10.000Z</time>
        <extensions>
          <ns3:TrackPointExtension>
            <ns3:atemp>22.0</ns3:atemp>
          </ns3:TrackPointExtension>
        </extensions>
      </trkpt>
      <trkpt lat="42.51471399329602718353271484375" lon="20.1513127796351909637451171875">
        <ele>2159.60009765625</ele>
        <time>2026-06-20T10:16:11.000Z</time>
        <extensions>
          <ns3:TrackPointExtension>
            <ns3:atemp>22.0</ns3:atemp>
          </ns3:TrackPointExtension>
        </extensions>
      </trkpt>
      <trkpt lat="42.51471399329602718353271484375" lon="20.1513127796351909637451171875">
        <ele>2159.60009765625</ele>
        <time>2026-06-20T10:16:12.000Z</time>
        <extensions>
          <ns3:TrackPointExtension>
            <ns3:atemp>22.0</ns3:atemp>
          </ns3:TrackPointExtension>
        </extensions>
      </trkpt>
      <trkpt lat="42.51471399329602718353271484375" lon="20.1513127796351909637451171875">
        <ele>2159.60009765625</ele>
        <time>2026-06-20T10:16:13.000Z</time>
        <extensions>
          <ns3:TrackPointExtension>
            <ns3:atemp>22.0</ns3:atemp>
          </ns3:TrackPointExtension>
        </extensions>
      </trkpt>
      <trkpt lat="42.51471399329602718353271484375" lon="20.1513127796351909637451171875">
        <ele>2159.60009765625</ele>
        <time>2026-06-20T10:16:14.000Z</time>
        <extensions>
          <ns3:TrackPointExtension>
            <ns3:atemp>22.0</ns3:atemp>
          </ns3:TrackPointExtension>
        </extensions>
      </trkpt>
      <trkpt lat="42.51471399329602718353271484375" lon="20.1513127796351909637451171875">
        <ele>2159.60009765625</ele>
        <time>2026-06-20T10:16:15.000Z</time>
        <extensions>
          <ns3:TrackPointExtension>
            <ns3:atemp>22.0</ns3:atemp>
          </ns3:TrackPointExtension>
        </extensions>
      </trkpt>
      <trkpt lat="42.51471399329602718353271484375" lon="20.1513127796351909637451171875">
        <ele>2159.60009765625</ele>
        <time>2026-06-20T10:16:16.000Z</time>
        <extensions>
          <ns3:TrackPointExtension>
            <ns3:atemp>22.0</ns3:atemp>
          </ns3:TrackPointExtension>
        </extensions>
      </trkpt>
      <trkpt lat="42.51471399329602718353271484375" lon="20.1513127796351909637451171875">
        <ele>2159.60009765625</ele>
        <time>2026-06-20T10:16:17.000Z</time>
        <extensions>
          <ns3:TrackPointExtension>
            <ns3:atemp>22.0</ns3:atemp>
          </ns3:TrackPointExtension>
        </extensions>
      </trkpt>
      <trkpt lat="42.51471399329602718353271484375" lon="20.1513127796351909637451171875">
        <ele>2159.60009765625</ele>
        <time>2026-06-20T10:16:18.000Z</time>
        <extensions>
          <ns3:TrackPointExtension>
            <ns3:atemp>22.0</ns3:atemp>
          </ns3:TrackPointExtension>
        </extensions>
      </trkpt>
      <trkpt lat="42.51471399329602718353271484375" lon="20.1513127796351909637451171875">
        <ele>2159.60009765625</ele>
        <time>2026-06-20T10:16:19.000Z</time>
        <extensions>
          <ns3:TrackPointExtension>
            <ns3:atemp>22.0</ns3:atemp>
          </ns3:TrackPointExtension>
        </extensions>
      </trkpt>
      <trkpt lat="42.51471399329602718353271484375" lon="20.1513127796351909637451171875">
        <ele>2159.60009765625</ele>
        <time>2026-06-20T10:16:20.000Z</time>
        <extensions>
          <ns3:TrackPointExtension>
            <ns3:atemp>22.0</ns3:atemp>
          </ns3:TrackPointExtension>
        </extensions>
      </trkpt>
      <trkpt lat="42.51471399329602718353271484375" lon="20.1513127796351909637451171875">
        <ele>2159.60009765625</ele>
        <time>2026-06-20T10:16:21.000Z</time>
        <extensions>
          <ns3:TrackPointExtension>
            <ns3:atemp>22.0</ns3:atemp>
          </ns3:TrackPointExtension>
        </extensions>
      </trkpt>
      <trkpt lat="42.51471399329602718353271484375" lon="20.1513127796351909637451171875">
        <ele>2159.60009765625</ele>
        <time>2026-06-20T10:16:22.000Z</time>
        <extensions>
          <ns3:TrackPointExtension>
            <ns3:atemp>22.0</ns3:atemp>
          </ns3:TrackPointExtension>
        </extensions>
      </trkpt>
      <trkpt lat="42.51471399329602718353271484375" lon="20.1513127796351909637451171875">
        <ele>2159.60009765625</ele>
        <time>2026-06-20T10:16:23.000Z</time>
        <extensions>
          <ns3:TrackPointExtension>
            <ns3:atemp>22.0</ns3:atemp>
          </ns3:TrackPointExtension>
        </extensions>
      </trkpt>
      <trkpt lat="42.51471399329602718353271484375" lon="20.1513127796351909637451171875">
        <ele>2159.60009765625</ele>
        <time>2026-06-20T10:16:24.000Z</time>
        <extensions>
          <ns3:TrackPointExtension>
            <ns3:atemp>22.0</ns3:atemp>
          </ns3:TrackPointExtension>
        </extensions>
      </trkpt>
      <trkpt lat="42.51471399329602718353271484375" lon="20.1513127796351909637451171875">
        <ele>2159.800048828125</ele>
        <time>2026-06-20T10:16:25.000Z</time>
        <extensions>
          <ns3:TrackPointExtension>
            <ns3:atemp>22.0</ns3:atemp>
          </ns3:TrackPointExtension>
        </extensions>
      </trkpt>
      <trkpt lat="42.51471399329602718353271484375" lon="20.1513127796351909637451171875">
        <ele>2159.800048828125</ele>
        <time>2026-06-20T10:16:26.000Z</time>
        <extensions>
          <ns3:TrackPointExtension>
            <ns3:atemp>22.0</ns3:atemp>
          </ns3:TrackPointExtension>
        </extensions>
      </trkpt>
      <trkpt lat="42.51471399329602718353271484375" lon="20.1513127796351909637451171875">
        <ele>2159.800048828125</ele>
        <time>2026-06-20T10:16:27.000Z</time>
        <extensions>
          <ns3:TrackPointExtension>
            <ns3:atemp>22.0</ns3:atemp>
          </ns3:TrackPointExtension>
        </extensions>
      </trkpt>
      <trkpt lat="42.51471399329602718353271484375" lon="20.1513127796351909637451171875">
        <ele>2159.800048828125</ele>
        <time>2026-06-20T10:16:28.000Z</time>
        <extensions>
          <ns3:TrackPointExtension>
            <ns3:atemp>22.0</ns3:atemp>
          </ns3:TrackPointExtension>
        </extensions>
      </trkpt>
      <trkpt lat="42.51471399329602718353271484375" lon="20.1513127796351909637451171875">
        <ele>2159.800048828125</ele>
        <time>2026-06-20T10:16:29.000Z</time>
        <extensions>
          <ns3:TrackPointExtension>
            <ns3:atemp>22.0</ns3:atemp>
          </ns3:TrackPointExtension>
        </extensions>
      </trkpt>
      <trkpt lat="42.51471399329602718353271484375" lon="20.1513127796351909637451171875">
        <ele>2159.800048828125</ele>
        <time>2026-06-20T10:16:30.000Z</time>
        <extensions>
          <ns3:TrackPointExtension>
            <ns3:atemp>22.0</ns3:atemp>
          </ns3:TrackPointExtension>
        </extensions>
      </trkpt>
      <trkpt lat="42.51471399329602718353271484375" lon="20.1513127796351909637451171875">
        <ele>2159.800048828125</ele>
        <time>2026-06-20T10:16:31.000Z</time>
        <extensions>
          <ns3:TrackPointExtension>
            <ns3:atemp>22.0</ns3:atemp>
          </ns3:TrackPointExtension>
        </extensions>
      </trkpt>
      <trkpt lat="42.51471399329602718353271484375" lon="20.1513127796351909637451171875">
        <ele>2159.800048828125</ele>
        <time>2026-06-20T10:16:32.000Z</time>
        <extensions>
          <ns3:TrackPointExtension>
            <ns3:atemp>22.0</ns3:atemp>
          </ns3:TrackPointExtension>
        </extensions>
      </trkpt>
      <trkpt lat="42.51471399329602718353271484375" lon="20.1513127796351909637451171875">
        <ele>2159.800048828125</ele>
        <time>2026-06-20T10:16:33.000Z</time>
        <extensions>
          <ns3:TrackPointExtension>
            <ns3:atemp>22.0</ns3:atemp>
          </ns3:TrackPointExtension>
        </extensions>
      </trkpt>
      <trkpt lat="42.51471399329602718353271484375" lon="20.1513127796351909637451171875">
        <ele>2159.800048828125</ele>
        <time>2026-06-20T10:16:34.000Z</time>
        <extensions>
          <ns3:TrackPointExtension>
            <ns3:atemp>22.0</ns3:atemp>
          </ns3:TrackPointExtension>
        </extensions>
      </trkpt>
      <trkpt lat="42.51471399329602718353271484375" lon="20.1513127796351909637451171875">
        <ele>2159.800048828125</ele>
        <time>2026-06-20T10:16:35.000Z</time>
        <extensions>
          <ns3:TrackPointExtension>
            <ns3:atemp>22.0</ns3:atemp>
          </ns3:TrackPointExtension>
        </extensions>
      </trkpt>
      <trkpt lat="42.51471399329602718353271484375" lon="20.1513127796351909637451171875">
        <ele>2159.800048828125</ele>
        <time>2026-06-20T10:16:36.000Z</time>
        <extensions>
          <ns3:TrackPointExtension>
            <ns3:atemp>22.0</ns3:atemp>
          </ns3:TrackPointExtension>
        </extensions>
      </trkpt>
      <trkpt lat="42.51471399329602718353271484375" lon="20.1513127796351909637451171875">
        <ele>2159.800048828125</ele>
        <time>2026-06-20T10:16:37.000Z</time>
        <extensions>
          <ns3:TrackPointExtension>
            <ns3:atemp>22.0</ns3:atemp>
          </ns3:TrackPointExtension>
        </extensions>
      </trkpt>
      <trkpt lat="42.51471399329602718353271484375" lon="20.1513127796351909637451171875">
        <ele>2159.800048828125</ele>
        <time>2026-06-20T10:16:38.000Z</time>
        <extensions>
          <ns3:TrackPointExtension>
            <ns3:atemp>22.0</ns3:atemp>
          </ns3:TrackPointExtension>
        </extensions>
      </trkpt>
      <trkpt lat="42.51471399329602718353271484375" lon="20.1513127796351909637451171875">
        <ele>2159.800048828125</ele>
        <time>2026-06-20T10:16:39.000Z</time>
        <extensions>
          <ns3:TrackPointExtension>
            <ns3:atemp>22.0</ns3:atemp>
          </ns3:TrackPointExtension>
        </extensions>
      </trkpt>
      <trkpt lat="42.51471399329602718353271484375" lon="20.1513127796351909637451171875">
        <ele>2159.800048828125</ele>
        <time>2026-06-20T10:16:40.000Z</time>
        <extensions>
          <ns3:TrackPointExtension>
            <ns3:atemp>22.0</ns3:atemp>
          </ns3:TrackPointExtension>
        </extensions>
      </trkpt>
      <trkpt lat="42.51471399329602718353271484375" lon="20.1513127796351909637451171875">
        <ele>2159.800048828125</ele>
        <time>2026-06-20T10:16:41.000Z</time>
        <extensions>
          <ns3:TrackPointExtension>
            <ns3:atemp>22.0</ns3:atemp>
          </ns3:TrackPointExtension>
        </extensions>
      </trkpt>
      <trkpt lat="42.51471399329602718353271484375" lon="20.1513127796351909637451171875">
        <ele>2159.800048828125</ele>
        <time>2026-06-20T10:16:42.000Z</time>
        <extensions>
          <ns3:TrackPointExtension>
            <ns3:atemp>22.0</ns3:atemp>
          </ns3:TrackPointExtension>
        </extensions>
      </trkpt>
      <trkpt lat="42.51471399329602718353271484375" lon="20.1513127796351909637451171875">
        <ele>2159.800048828125</ele>
        <time>2026-06-20T10:16:43.000Z</time>
        <extensions>
          <ns3:TrackPointExtension>
            <ns3:atemp>22.0</ns3:atemp>
          </ns3:TrackPointExtension>
        </extensions>
      </trkpt>
      <trkpt lat="42.51471399329602718353271484375" lon="20.1513127796351909637451171875">
        <ele>2159.800048828125</ele>
        <time>2026-06-20T10:16:44.000Z</time>
        <extensions>
          <ns3:TrackPointExtension>
            <ns3:atemp>22.0</ns3:atemp>
          </ns3:TrackPointExtension>
        </extensions>
      </trkpt>
      <trkpt lat="42.51471399329602718353271484375" lon="20.1513127796351909637451171875">
        <ele>2159.800048828125</ele>
        <time>2026-06-20T10:16:45.000Z</time>
        <extensions>
          <ns3:TrackPointExtension>
            <ns3:atemp>22.0</ns3:atemp>
          </ns3:TrackPointExtension>
        </extensions>
      </trkpt>
      <trkpt lat="42.51471399329602718353271484375" lon="20.1513127796351909637451171875">
        <ele>2159.800048828125</ele>
        <time>2026-06-20T10:16:46.000Z</time>
        <extensions>
          <ns3:TrackPointExtension>
            <ns3:atemp>22.0</ns3:atemp>
          </ns3:TrackPointExtension>
        </extensions>
      </trkpt>
      <trkpt lat="42.51471399329602718353271484375" lon="20.1513127796351909637451171875">
        <ele>2159.800048828125</ele>
        <time>2026-06-20T10:16:47.000Z</time>
        <extensions>
          <ns3:TrackPointExtension>
            <ns3:atemp>22.0</ns3:atemp>
          </ns3:TrackPointExtension>
        </extensions>
      </trkpt>
      <trkpt lat="42.51471399329602718353271484375" lon="20.1513127796351909637451171875">
        <ele>2159.800048828125</ele>
        <time>2026-06-20T10:16:48.000Z</time>
        <extensions>
          <ns3:TrackPointExtension>
            <ns3:atemp>22.0</ns3:atemp>
          </ns3:TrackPointExtension>
        </extensions>
      </trkpt>
      <trkpt lat="42.51471399329602718353271484375" lon="20.1513127796351909637451171875">
        <ele>2159.800048828125</ele>
        <time>2026-06-20T10:16:49.000Z</time>
        <extensions>
          <ns3:TrackPointExtension>
            <ns3:atemp>22.0</ns3:atemp>
          </ns3:TrackPointExtension>
        </extensions>
      </trkpt>
      <trkpt lat="42.51471399329602718353271484375" lon="20.1513127796351909637451171875">
        <ele>2159.800048828125</ele>
        <time>2026-06-20T10:16:50.000Z</time>
        <extensions>
          <ns3:TrackPointExtension>
            <ns3:atemp>22.0</ns3:atemp>
          </ns3:TrackPointExtension>
        </extensions>
      </trkpt>
      <trkpt lat="42.51471399329602718353271484375" lon="20.1513127796351909637451171875">
        <ele>2159.800048828125</ele>
        <time>2026-06-20T10:16:51.000Z</time>
        <extensions>
          <ns3:TrackPointExtension>
            <ns3:atemp>22.0</ns3:atemp>
          </ns3:TrackPointExtension>
        </extensions>
      </trkpt>
      <trkpt lat="42.51471399329602718353271484375" lon="20.1513127796351909637451171875">
        <ele>2159.800048828125</ele>
        <time>2026-06-20T10:16:52.000Z</time>
        <extensions>
          <ns3:TrackPointExtension>
            <ns3:atemp>22.0</ns3:atemp>
          </ns3:TrackPointExtension>
        </extensions>
      </trkpt>
      <trkpt lat="42.51471399329602718353271484375" lon="20.1513127796351909637451171875">
        <ele>2159.800048828125</ele>
        <time>2026-06-20T10:16:53.000Z</time>
        <extensions>
          <ns3:TrackPointExtension>
            <ns3:atemp>22.0</ns3:atemp>
          </ns3:TrackPointExtension>
        </extensions>
      </trkpt>
      <trkpt lat="42.51471399329602718353271484375" lon="20.1513127796351909637451171875">
        <ele>2159.800048828125</ele>
        <time>2026-06-20T10:16:54.000Z</time>
        <extensions>
          <ns3:TrackPointExtension>
            <ns3:atemp>22.0</ns3:atemp>
          </ns3:TrackPointExtension>
        </extensions>
      </trkpt>
      <trkpt lat="42.51471399329602718353271484375" lon="20.1513127796351909637451171875">
        <ele>2159.800048828125</ele>
        <time>2026-06-20T10:16:55.000Z</time>
        <extensions>
          <ns3:TrackPointExtension>
            <ns3:atemp>22.0</ns3:atemp>
          </ns3:TrackPointExtension>
        </extensions>
      </trkpt>
      <trkpt lat="42.51471399329602718353271484375" lon="20.1513127796351909637451171875">
        <ele>2159.800048828125</ele>
        <time>2026-06-20T10:16:56.000Z</time>
        <extensions>
          <ns3:TrackPointExtension>
            <ns3:atemp>22.0</ns3:atemp>
          </ns3:TrackPointExtension>
        </extensions>
      </trkpt>
      <trkpt lat="42.51471399329602718353271484375" lon="20.1513127796351909637451171875">
        <ele>2159.800048828125</ele>
        <time>2026-06-20T10:16:57.000Z</time>
        <extensions>
          <ns3:TrackPointExtension>
            <ns3:atemp>22.0</ns3:atemp>
          </ns3:TrackPointExtension>
        </extensions>
      </trkpt>
      <trkpt lat="42.51471399329602718353271484375" lon="20.1513127796351909637451171875">
        <ele>2159.800048828125</ele>
        <time>2026-06-20T10:16:58.000Z</time>
        <extensions>
          <ns3:TrackPointExtension>
            <ns3:atemp>22.0</ns3:atemp>
          </ns3:TrackPointExtension>
        </extensions>
      </trkpt>
      <trkpt lat="42.51471399329602718353271484375" lon="20.1513127796351909637451171875">
        <ele>2159.800048828125</ele>
        <time>2026-06-20T10:16:59.000Z</time>
        <extensions>
          <ns3:TrackPointExtension>
            <ns3:atemp>22.0</ns3:atemp>
          </ns3:TrackPointExtension>
        </extensions>
      </trkpt>
      <trkpt lat="42.51471399329602718353271484375" lon="20.1513127796351909637451171875">
        <ele>2159.800048828125</ele>
        <time>2026-06-20T10:17:00.000Z</time>
        <extensions>
          <ns3:TrackPointExtension>
            <ns3:atemp>22.0</ns3:atemp>
          </ns3:TrackPointExtension>
        </extensions>
      </trkpt>
      <trkpt lat="42.51471399329602718353271484375" lon="20.1513127796351909637451171875">
        <ele>2159.800048828125</ele>
        <time>2026-06-20T10:17:01.000Z</time>
        <extensions>
          <ns3:TrackPointExtension>
            <ns3:atemp>22.0</ns3:atemp>
          </ns3:TrackPointExtension>
        </extensions>
      </trkpt>
      <trkpt lat="42.51471399329602718353271484375" lon="20.1513127796351909637451171875">
        <ele>2159.800048828125</ele>
        <time>2026-06-20T10:17:02.000Z</time>
        <extensions>
          <ns3:TrackPointExtension>
            <ns3:atemp>22.0</ns3:atemp>
          </ns3:TrackPointExtension>
        </extensions>
      </trkpt>
      <trkpt lat="42.51471399329602718353271484375" lon="20.1513127796351909637451171875">
        <ele>2159.800048828125</ele>
        <time>2026-06-20T10:17:03.000Z</time>
        <extensions>
          <ns3:TrackPointExtension>
            <ns3:atemp>22.0</ns3:atemp>
          </ns3:TrackPointExtension>
        </extensions>
      </trkpt>
      <trkpt lat="42.51471399329602718353271484375" lon="20.1513127796351909637451171875">
        <ele>2159.800048828125</ele>
        <time>2026-06-20T10:17:04.000Z</time>
        <extensions>
          <ns3:TrackPointExtension>
            <ns3:atemp>22.0</ns3:atemp>
          </ns3:TrackPointExtension>
        </extensions>
      </trkpt>
      <trkpt lat="42.51471399329602718353271484375" lon="20.1513127796351909637451171875">
        <ele>2159.800048828125</ele>
        <time>2026-06-20T10:17:05.000Z</time>
        <extensions>
          <ns3:TrackPointExtension>
            <ns3:atemp>22.0</ns3:atemp>
          </ns3:TrackPointExtension>
        </extensions>
      </trkpt>
      <trkpt lat="42.51471399329602718353271484375" lon="20.1513127796351909637451171875">
        <ele>2159.800048828125</ele>
        <time>2026-06-20T10:17:06.000Z</time>
        <extensions>
          <ns3:TrackPointExtension>
            <ns3:atemp>22.0</ns3:atemp>
          </ns3:TrackPointExtension>
        </extensions>
      </trkpt>
      <trkpt lat="42.51471399329602718353271484375" lon="20.1513127796351909637451171875">
        <ele>2159.800048828125</ele>
        <time>2026-06-20T10:17:07.000Z</time>
        <extensions>
          <ns3:TrackPointExtension>
            <ns3:atemp>22.0</ns3:atemp>
          </ns3:TrackPointExtension>
        </extensions>
      </trkpt>
      <trkpt lat="42.51471399329602718353271484375" lon="20.1513127796351909637451171875">
        <ele>2159.800048828125</ele>
        <time>2026-06-20T10:17:08.000Z</time>
        <extensions>
          <ns3:TrackPointExtension>
            <ns3:atemp>22.0</ns3:atemp>
          </ns3:TrackPointExtension>
        </extensions>
      </trkpt>
      <trkpt lat="42.51471399329602718353271484375" lon="20.1513127796351909637451171875">
        <ele>2159.800048828125</ele>
        <time>2026-06-20T10:17:09.000Z</time>
        <extensions>
          <ns3:TrackPointExtension>
            <ns3:atemp>22.0</ns3:atemp>
          </ns3:TrackPointExtension>
        </extensions>
      </trkpt>
      <trkpt lat="42.51471399329602718353271484375" lon="20.1513127796351909637451171875">
        <ele>2159.800048828125</ele>
        <time>2026-06-20T10:17:10.000Z</time>
        <extensions>
          <ns3:TrackPointExtension>
            <ns3:atemp>22.0</ns3:atemp>
          </ns3:TrackPointExtension>
        </extensions>
      </trkpt>
      <trkpt lat="42.51471399329602718353271484375" lon="20.1513127796351909637451171875">
        <ele>2159.800048828125</ele>
        <time>2026-06-20T10:17:11.000Z</time>
        <extensions>
          <ns3:TrackPointExtension>
            <ns3:atemp>22.0</ns3:atemp>
          </ns3:TrackPointExtension>
        </extensions>
      </trkpt>
      <trkpt lat="42.51471399329602718353271484375" lon="20.1513127796351909637451171875">
        <ele>2159.800048828125</ele>
        <time>2026-06-20T10:17:12.000Z</time>
        <extensions>
          <ns3:TrackPointExtension>
            <ns3:atemp>22.0</ns3:atemp>
          </ns3:TrackPointExtension>
        </extensions>
      </trkpt>
      <trkpt lat="42.51471399329602718353271484375" lon="20.1513127796351909637451171875">
        <ele>2159.800048828125</ele>
        <time>2026-06-20T10:17:13.000Z</time>
        <extensions>
          <ns3:TrackPointExtension>
            <ns3:atemp>22.0</ns3:atemp>
          </ns3:TrackPointExtension>
        </extensions>
      </trkpt>
      <trkpt lat="42.51471399329602718353271484375" lon="20.1513127796351909637451171875">
        <ele>2159.800048828125</ele>
        <time>2026-06-20T10:17:14.000Z</time>
        <extensions>
          <ns3:TrackPointExtension>
            <ns3:atemp>22.0</ns3:atemp>
          </ns3:TrackPointExtension>
        </extensions>
      </trkpt>
      <trkpt lat="42.51471399329602718353271484375" lon="20.1513127796351909637451171875">
        <ele>2159.800048828125</ele>
        <time>2026-06-20T10:17:15.000Z</time>
        <extensions>
          <ns3:TrackPointExtension>
            <ns3:atemp>22.0</ns3:atemp>
          </ns3:TrackPointExtension>
        </extensions>
      </trkpt>
      <trkpt lat="42.51471399329602718353271484375" lon="20.1513127796351909637451171875">
        <ele>2159.800048828125</ele>
        <time>2026-06-20T10:17:16.000Z</time>
        <extensions>
          <ns3:TrackPointExtension>
            <ns3:atemp>22.0</ns3:atemp>
          </ns3:TrackPointExtension>
        </extensions>
      </trkpt>
      <trkpt lat="42.51471399329602718353271484375" lon="20.1513127796351909637451171875">
        <ele>2159.800048828125</ele>
        <time>2026-06-20T10:17:17.000Z</time>
        <extensions>
          <ns3:TrackPointExtension>
            <ns3:atemp>22.0</ns3:atemp>
          </ns3:TrackPointExtension>
        </extensions>
      </trkpt>
      <trkpt lat="42.51471399329602718353271484375" lon="20.1513127796351909637451171875">
        <ele>2159.800048828125</ele>
        <time>2026-06-20T10:17:18.000Z</time>
        <extensions>
          <ns3:TrackPointExtension>
            <ns3:atemp>22.0</ns3:atemp>
          </ns3:TrackPointExtension>
        </extensions>
      </trkpt>
      <trkpt lat="42.51471399329602718353271484375" lon="20.1513127796351909637451171875">
        <ele>2159.800048828125</ele>
        <time>2026-06-20T10:17:19.000Z</time>
        <extensions>
          <ns3:TrackPointExtension>
            <ns3:atemp>22.0</ns3:atemp>
          </ns3:TrackPointExtension>
        </extensions>
      </trkpt>
      <trkpt lat="42.51471399329602718353271484375" lon="20.1513127796351909637451171875">
        <ele>2159.800048828125</ele>
        <time>2026-06-20T10:17:20.000Z</time>
        <extensions>
          <ns3:TrackPointExtension>
            <ns3:atemp>22.0</ns3:atemp>
          </ns3:TrackPointExtension>
        </extensions>
      </trkpt>
      <trkpt lat="42.51471399329602718353271484375" lon="20.1513127796351909637451171875">
        <ele>2159.800048828125</ele>
        <time>2026-06-20T10:17:21.000Z</time>
        <extensions>
          <ns3:TrackPointExtension>
            <ns3:atemp>22.0</ns3:atemp>
          </ns3:TrackPointExtension>
        </extensions>
      </trkpt>
      <trkpt lat="42.51471399329602718353271484375" lon="20.1513127796351909637451171875">
        <ele>2159.800048828125</ele>
        <time>2026-06-20T10:17:22.000Z</time>
        <extensions>
          <ns3:TrackPointExtension>
            <ns3:atemp>22.0</ns3:atemp>
          </ns3:TrackPointExtension>
        </extensions>
      </trkpt>
      <trkpt lat="42.51471399329602718353271484375" lon="20.1513127796351909637451171875">
        <ele>2159.800048828125</ele>
        <time>2026-06-20T10:17:23.000Z</time>
        <extensions>
          <ns3:TrackPointExtension>
            <ns3:atemp>22.0</ns3:atemp>
          </ns3:TrackPointExtension>
        </extensions>
      </trkpt>
      <trkpt lat="42.51471399329602718353271484375" lon="20.1513127796351909637451171875">
        <ele>2159.800048828125</ele>
        <time>2026-06-20T10:17:24.000Z</time>
        <extensions>
          <ns3:TrackPointExtension>
            <ns3:atemp>22.0</ns3:atemp>
          </ns3:TrackPointExtension>
        </extensions>
      </trkpt>
      <trkpt lat="42.51471399329602718353271484375" lon="20.1513127796351909637451171875">
        <ele>2159.800048828125</ele>
        <time>2026-06-20T10:17:25.000Z</time>
        <extensions>
          <ns3:TrackPointExtension>
            <ns3:atemp>22.0</ns3:atemp>
          </ns3:TrackPointExtension>
        </extensions>
      </trkpt>
      <trkpt lat="42.51471399329602718353271484375" lon="20.1513127796351909637451171875">
        <ele>2159.800048828125</ele>
        <time>2026-06-20T10:17:26.000Z</time>
        <extensions>
          <ns3:TrackPointExtension>
            <ns3:atemp>22.0</ns3:atemp>
          </ns3:TrackPointExtension>
        </extensions>
      </trkpt>
      <trkpt lat="42.51471399329602718353271484375" lon="20.1513127796351909637451171875">
        <ele>2159.800048828125</ele>
        <time>2026-06-20T10:17:27.000Z</time>
        <extensions>
          <ns3:TrackPointExtension>
            <ns3:atemp>22.0</ns3:atemp>
          </ns3:TrackPointExtension>
        </extensions>
      </trkpt>
      <trkpt lat="42.51471399329602718353271484375" lon="20.1513127796351909637451171875">
        <ele>2159.800048828125</ele>
        <time>2026-06-20T10:17:28.000Z</time>
        <extensions>
          <ns3:TrackPointExtension>
            <ns3:atemp>22.0</ns3:atemp>
          </ns3:TrackPointExtension>
        </extensions>
      </trkpt>
      <trkpt lat="42.51471399329602718353271484375" lon="20.1513127796351909637451171875">
        <ele>2159.800048828125</ele>
        <time>2026-06-20T10:17:29.000Z</time>
        <extensions>
          <ns3:TrackPointExtension>
            <ns3:atemp>22.0</ns3:atemp>
          </ns3:TrackPointExtension>
        </extensions>
      </trkpt>
      <trkpt lat="42.51471399329602718353271484375" lon="20.1513127796351909637451171875">
        <ele>2159.800048828125</ele>
        <time>2026-06-20T10:17:30.000Z</time>
        <extensions>
          <ns3:TrackPointExtension>
            <ns3:atemp>22.0</ns3:atemp>
          </ns3:TrackPointExtension>
        </extensions>
      </trkpt>
      <trkpt lat="42.51471399329602718353271484375" lon="20.1513127796351909637451171875">
        <ele>2159.800048828125</ele>
        <time>2026-06-20T10:17:31.000Z</time>
        <extensions>
          <ns3:TrackPointExtension>
            <ns3:atemp>22.0</ns3:atemp>
          </ns3:TrackPointExtension>
        </extensions>
      </trkpt>
      <trkpt lat="42.51471399329602718353271484375" lon="20.1513127796351909637451171875">
        <ele>2159.800048828125</ele>
        <time>2026-06-20T10:17:32.000Z</time>
        <extensions>
          <ns3:TrackPointExtension>
            <ns3:atemp>22.0</ns3:atemp>
          </ns3:TrackPointExtension>
        </extensions>
      </trkpt>
      <trkpt lat="42.51471399329602718353271484375" lon="20.1513127796351909637451171875">
        <ele>2159.800048828125</ele>
        <time>2026-06-20T10:17:33.000Z</time>
        <extensions>
          <ns3:TrackPointExtension>
            <ns3:atemp>22.0</ns3:atemp>
          </ns3:TrackPointExtension>
        </extensions>
      </trkpt>
      <trkpt lat="42.51471399329602718353271484375" lon="20.1513127796351909637451171875">
        <ele>2159.800048828125</ele>
        <time>2026-06-20T10:17:34.000Z</time>
        <extensions>
          <ns3:TrackPointExtension>
            <ns3:atemp>22.0</ns3:atemp>
          </ns3:TrackPointExtension>
        </extensions>
      </trkpt>
      <trkpt lat="42.51471399329602718353271484375" lon="20.1513127796351909637451171875">
        <ele>2159.800048828125</ele>
        <time>2026-06-20T10:17:35.000Z</time>
        <extensions>
          <ns3:TrackPointExtension>
            <ns3:atemp>22.0</ns3:atemp>
          </ns3:TrackPointExtension>
        </extensions>
      </trkpt>
      <trkpt lat="42.51471399329602718353271484375" lon="20.1513127796351909637451171875">
        <ele>2159.800048828125</ele>
        <time>2026-06-20T10:17:36.000Z</time>
        <extensions>
          <ns3:TrackPointExtension>
            <ns3:atemp>22.0</ns3:atemp>
          </ns3:TrackPointExtension>
        </extensions>
      </trkpt>
      <trkpt lat="42.51471399329602718353271484375" lon="20.1513127796351909637451171875">
        <ele>2159.800048828125</ele>
        <time>2026-06-20T10:17:37.000Z</time>
        <extensions>
          <ns3:TrackPointExtension>
            <ns3:atemp>22.0</ns3:atemp>
          </ns3:TrackPointExtension>
        </extensions>
      </trkpt>
      <trkpt lat="42.51471399329602718353271484375" lon="20.1513127796351909637451171875">
        <ele>2159.800048828125</ele>
        <time>2026-06-20T10:17:38.000Z</time>
        <extensions>
          <ns3:TrackPointExtension>
            <ns3:atemp>22.0</ns3:atemp>
          </ns3:TrackPointExtension>
        </extensions>
      </trkpt>
      <trkpt lat="42.51471399329602718353271484375" lon="20.1513127796351909637451171875">
        <ele>2159.800048828125</ele>
        <time>2026-06-20T10:17:39.000Z</time>
        <extensions>
          <ns3:TrackPointExtension>
            <ns3:atemp>22.0</ns3:atemp>
          </ns3:TrackPointExtension>
        </extensions>
      </trkpt>
      <trkpt lat="42.51471399329602718353271484375" lon="20.1513127796351909637451171875">
        <ele>2159.800048828125</ele>
        <time>2026-06-20T10:17:40.000Z</time>
        <extensions>
          <ns3:TrackPointExtension>
            <ns3:atemp>22.0</ns3:atemp>
          </ns3:TrackPointExtension>
        </extensions>
      </trkpt>
      <trkpt lat="42.51471399329602718353271484375" lon="20.1513127796351909637451171875">
        <ele>2159.800048828125</ele>
        <time>2026-06-20T10:17:41.000Z</time>
        <extensions>
          <ns3:TrackPointExtension>
            <ns3:atemp>22.0</ns3:atemp>
          </ns3:TrackPointExtension>
        </extensions>
      </trkpt>
      <trkpt lat="42.51471399329602718353271484375" lon="20.1513127796351909637451171875">
        <ele>2159.800048828125</ele>
        <time>2026-06-20T10:17:42.000Z</time>
        <extensions>
          <ns3:TrackPointExtension>
            <ns3:atemp>22.0</ns3:atemp>
          </ns3:TrackPointExtension>
        </extensions>
      </trkpt>
      <trkpt lat="42.51471399329602718353271484375" lon="20.1513127796351909637451171875">
        <ele>2159.800048828125</ele>
        <time>2026-06-20T10:17:43.000Z</time>
        <extensions>
          <ns3:TrackPointExtension>
            <ns3:atemp>22.0</ns3:atemp>
          </ns3:TrackPointExtension>
        </extensions>
      </trkpt>
      <trkpt lat="42.51471399329602718353271484375" lon="20.1513127796351909637451171875">
        <ele>2159.800048828125</ele>
        <time>2026-06-20T10:17:44.000Z</time>
        <extensions>
          <ns3:TrackPointExtension>
            <ns3:atemp>22.0</ns3:atemp>
          </ns3:TrackPointExtension>
        </extensions>
      </trkpt>
      <trkpt lat="42.51471399329602718353271484375" lon="20.1513127796351909637451171875">
        <ele>2159.800048828125</ele>
        <time>2026-06-20T10:17:45.000Z</time>
        <extensions>
          <ns3:TrackPointExtension>
            <ns3:atemp>22.0</ns3:atemp>
          </ns3:TrackPointExtension>
        </extensions>
      </trkpt>
      <trkpt lat="42.51471399329602718353271484375" lon="20.1513127796351909637451171875">
        <ele>2159.800048828125</ele>
        <time>2026-06-20T10:17:46.000Z</time>
        <extensions>
          <ns3:TrackPointExtension>
            <ns3:atemp>22.0</ns3:atemp>
          </ns3:TrackPointExtension>
        </extensions>
      </trkpt>
      <trkpt lat="42.51471399329602718353271484375" lon="20.1513127796351909637451171875">
        <ele>2159.800048828125</ele>
        <time>2026-06-20T10:17:47.000Z</time>
        <extensions>
          <ns3:TrackPointExtension>
            <ns3:atemp>22.0</ns3:atemp>
          </ns3:TrackPointExtension>
        </extensions>
      </trkpt>
      <trkpt lat="42.51471399329602718353271484375" lon="20.1513127796351909637451171875">
        <ele>2159.800048828125</ele>
        <time>2026-06-20T10:17:48.000Z</time>
        <extensions>
          <ns3:TrackPointExtension>
            <ns3:atemp>22.0</ns3:atemp>
          </ns3:TrackPointExtension>
        </extensions>
      </trkpt>
      <trkpt lat="42.51471399329602718353271484375" lon="20.1513127796351909637451171875">
        <ele>2159.800048828125</ele>
        <time>2026-06-20T10:17:49.000Z</time>
        <extensions>
          <ns3:TrackPointExtension>
            <ns3:atemp>22.0</ns3:atemp>
          </ns3:TrackPointExtension>
        </extensions>
      </trkpt>
      <trkpt lat="42.51471399329602718353271484375" lon="20.1513127796351909637451171875">
        <ele>2159.800048828125</ele>
        <time>2026-06-20T10:17:50.000Z</time>
        <extensions>
          <ns3:TrackPointExtension>
            <ns3:atemp>22.0</ns3:atemp>
          </ns3:TrackPointExtension>
        </extensions>
      </trkpt>
      <trkpt lat="42.51471399329602718353271484375" lon="20.1513127796351909637451171875">
        <ele>2159.800048828125</ele>
        <time>2026-06-20T10:17:51.000Z</time>
        <extensions>
          <ns3:TrackPointExtension>
            <ns3:atemp>22.0</ns3:atemp>
          </ns3:TrackPointExtension>
        </extensions>
      </trkpt>
      <trkpt lat="42.51471399329602718353271484375" lon="20.1513127796351909637451171875">
        <ele>2159.800048828125</ele>
        <time>2026-06-20T10:17:52.000Z</time>
        <extensions>
          <ns3:TrackPointExtension>
            <ns3:atemp>22.0</ns3:atemp>
          </ns3:TrackPointExtension>
        </extensions>
      </trkpt>
      <trkpt lat="42.51471399329602718353271484375" lon="20.1513127796351909637451171875">
        <ele>2159.800048828125</ele>
        <time>2026-06-20T10:17:53.000Z</time>
        <extensions>
          <ns3:TrackPointExtension>
            <ns3:atemp>22.0</ns3:atemp>
          </ns3:TrackPointExtension>
        </extensions>
      </trkpt>
      <trkpt lat="42.51471399329602718353271484375" lon="20.1513127796351909637451171875">
        <ele>2159.800048828125</ele>
        <time>2026-06-20T10:17:54.000Z</time>
        <extensions>
          <ns3:TrackPointExtension>
            <ns3:atemp>22.0</ns3:atemp>
          </ns3:TrackPointExtension>
        </extensions>
      </trkpt>
      <trkpt lat="42.51471399329602718353271484375" lon="20.1513127796351909637451171875">
        <ele>2159.800048828125</ele>
        <time>2026-06-20T10:17:55.000Z</time>
        <extensions>
          <ns3:TrackPointExtension>
            <ns3:atemp>22.0</ns3:atemp>
          </ns3:TrackPointExtension>
        </extensions>
      </trkpt>
      <trkpt lat="42.51471399329602718353271484375" lon="20.1513127796351909637451171875">
        <ele>2159.800048828125</ele>
        <time>2026-06-20T10:17:56.000Z</time>
        <extensions>
          <ns3:TrackPointExtension>
            <ns3:atemp>22.0</ns3:atemp>
          </ns3:TrackPointExtension>
        </extensions>
      </trkpt>
      <trkpt lat="42.51471399329602718353271484375" lon="20.1513127796351909637451171875">
        <ele>2159.800048828125</ele>
        <time>2026-06-20T10:17:57.000Z</time>
        <extensions>
          <ns3:TrackPointExtension>
            <ns3:atemp>22.0</ns3:atemp>
          </ns3:TrackPointExtension>
        </extensions>
      </trkpt>
      <trkpt lat="42.51471399329602718353271484375" lon="20.1513127796351909637451171875">
        <ele>2159.800048828125</ele>
        <time>2026-06-20T10:17:58.000Z</time>
        <extensions>
          <ns3:TrackPointExtension>
            <ns3:atemp>22.0</ns3:atemp>
          </ns3:TrackPointExtension>
        </extensions>
      </trkpt>
      <trkpt lat="42.51471399329602718353271484375" lon="20.1513127796351909637451171875">
        <ele>2159.800048828125</ele>
        <time>2026-06-20T10:17:59.000Z</time>
        <extensions>
          <ns3:TrackPointExtension>
            <ns3:atemp>22.0</ns3:atemp>
          </ns3:TrackPointExtension>
        </extensions>
      </trkpt>
      <trkpt lat="42.51471399329602718353271484375" lon="20.1513127796351909637451171875">
        <ele>2159.800048828125</ele>
        <time>2026-06-20T10:18:00.000Z</time>
        <extensions>
          <ns3:TrackPointExtension>
            <ns3:atemp>22.0</ns3:atemp>
          </ns3:TrackPointExtension>
        </extensions>
      </trkpt>
      <trkpt lat="42.51471399329602718353271484375" lon="20.1513127796351909637451171875">
        <ele>2159.800048828125</ele>
        <time>2026-06-20T10:18:01.000Z</time>
        <extensions>
          <ns3:TrackPointExtension>
            <ns3:atemp>22.0</ns3:atemp>
          </ns3:TrackPointExtension>
        </extensions>
      </trkpt>
      <trkpt lat="42.51471399329602718353271484375" lon="20.1513127796351909637451171875">
        <ele>2159.800048828125</ele>
        <time>2026-06-20T10:18:02.000Z</time>
        <extensions>
          <ns3:TrackPointExtension>
            <ns3:atemp>22.0</ns3:atemp>
          </ns3:TrackPointExtension>
        </extensions>
      </trkpt>
      <trkpt lat="42.51471399329602718353271484375" lon="20.1513127796351909637451171875">
        <ele>2159.800048828125</ele>
        <time>2026-06-20T10:18:03.000Z</time>
        <extensions>
          <ns3:TrackPointExtension>
            <ns3:atemp>22.0</ns3:atemp>
          </ns3:TrackPointExtension>
        </extensions>
      </trkpt>
      <trkpt lat="42.51471399329602718353271484375" lon="20.1513127796351909637451171875">
        <ele>2159.800048828125</ele>
        <time>2026-06-20T10:18:04.000Z</time>
        <extensions>
          <ns3:TrackPointExtension>
            <ns3:atemp>22.0</ns3:atemp>
          </ns3:TrackPointExtension>
        </extensions>
      </trkpt>
      <trkpt lat="42.51471399329602718353271484375" lon="20.1513127796351909637451171875">
        <ele>2159.800048828125</ele>
        <time>2026-06-20T10:18:05.000Z</time>
        <extensions>
          <ns3:TrackPointExtension>
            <ns3:atemp>22.0</ns3:atemp>
          </ns3:TrackPointExtension>
        </extensions>
      </trkpt>
      <trkpt lat="42.51471399329602718353271484375" lon="20.1513127796351909637451171875">
        <ele>2159.800048828125</ele>
        <time>2026-06-20T10:18:06.000Z</time>
        <extensions>
          <ns3:TrackPointExtension>
            <ns3:atemp>22.0</ns3:atemp>
          </ns3:TrackPointExtension>
        </extensions>
      </trkpt>
      <trkpt lat="42.51471399329602718353271484375" lon="20.1513127796351909637451171875">
        <ele>2159.800048828125</ele>
        <time>2026-06-20T10:18:07.000Z</time>
        <extensions>
          <ns3:TrackPointExtension>
            <ns3:atemp>22.0</ns3:atemp>
          </ns3:TrackPointExtension>
        </extensions>
      </trkpt>
      <trkpt lat="42.51471399329602718353271484375" lon="20.1513127796351909637451171875">
        <ele>2159.800048828125</ele>
        <time>2026-06-20T10:18:08.000Z</time>
        <extensions>
          <ns3:TrackPointExtension>
            <ns3:atemp>22.0</ns3:atemp>
          </ns3:TrackPointExtension>
        </extensions>
      </trkpt>
      <trkpt lat="42.51471399329602718353271484375" lon="20.1513127796351909637451171875">
        <ele>2159.800048828125</ele>
        <time>2026-06-20T10:18:09.000Z</time>
        <extensions>
          <ns3:TrackPointExtension>
            <ns3:atemp>22.0</ns3:atemp>
          </ns3:TrackPointExtension>
        </extensions>
      </trkpt>
      <trkpt lat="42.51471399329602718353271484375" lon="20.1513127796351909637451171875">
        <ele>2159.800048828125</ele>
        <time>2026-06-20T10:18:10.000Z</time>
        <extensions>
          <ns3:TrackPointExtension>
            <ns3:atemp>22.0</ns3:atemp>
          </ns3:TrackPointExtension>
        </extensions>
      </trkpt>
      <trkpt lat="42.51471399329602718353271484375" lon="20.1513127796351909637451171875">
        <ele>2159.800048828125</ele>
        <time>2026-06-20T10:18:11.000Z</time>
        <extensions>
          <ns3:TrackPointExtension>
            <ns3:atemp>22.0</ns3:atemp>
          </ns3:TrackPointExtension>
        </extensions>
      </trkpt>
      <trkpt lat="42.51471399329602718353271484375" lon="20.1513127796351909637451171875">
        <ele>2159.800048828125</ele>
        <time>2026-06-20T10:18:12.000Z</time>
        <extensions>
          <ns3:TrackPointExtension>
            <ns3:atemp>22.0</ns3:atemp>
          </ns3:TrackPointExtension>
        </extensions>
      </trkpt>
      <trkpt lat="42.51471399329602718353271484375" lon="20.1513127796351909637451171875">
        <ele>2159.800048828125</ele>
        <time>2026-06-20T10:18:13.000Z</time>
        <extensions>
          <ns3:TrackPointExtension>
            <ns3:atemp>22.0</ns3:atemp>
          </ns3:TrackPointExtension>
        </extensions>
      </trkpt>
      <trkpt lat="42.51471399329602718353271484375" lon="20.1513127796351909637451171875">
        <ele>2159.800048828125</ele>
        <time>2026-06-20T10:18:14.000Z</time>
        <extensions>
          <ns3:TrackPointExtension>
            <ns3:atemp>22.0</ns3:atemp>
          </ns3:TrackPointExtension>
        </extensions>
      </trkpt>
      <trkpt lat="42.51471399329602718353271484375" lon="20.1513127796351909637451171875">
        <ele>2159.800048828125</ele>
        <time>2026-06-20T10:18:15.000Z</time>
        <extensions>
          <ns3:TrackPointExtension>
            <ns3:atemp>22.0</ns3:atemp>
          </ns3:TrackPointExtension>
        </extensions>
      </trkpt>
      <trkpt lat="42.51471399329602718353271484375" lon="20.1513127796351909637451171875">
        <ele>2159.800048828125</ele>
        <time>2026-06-20T10:18:16.000Z</time>
        <extensions>
          <ns3:TrackPointExtension>
            <ns3:atemp>22.0</ns3:atemp>
          </ns3:TrackPointExtension>
        </extensions>
      </trkpt>
      <trkpt lat="42.51471399329602718353271484375" lon="20.1513127796351909637451171875">
        <ele>2159.800048828125</ele>
        <time>2026-06-20T10:18:17.000Z</time>
        <extensions>
          <ns3:TrackPointExtension>
            <ns3:atemp>22.0</ns3:atemp>
          </ns3:TrackPointExtension>
        </extensions>
      </trkpt>
      <trkpt lat="42.51471399329602718353271484375" lon="20.1513127796351909637451171875">
        <ele>2159.800048828125</ele>
        <time>2026-06-20T10:18:18.000Z</time>
        <extensions>
          <ns3:TrackPointExtension>
            <ns3:atemp>22.0</ns3:atemp>
          </ns3:TrackPointExtension>
        </extensions>
      </trkpt>
      <trkpt lat="42.51471399329602718353271484375" lon="20.1513127796351909637451171875">
        <ele>2159.800048828125</ele>
        <time>2026-06-20T10:18:19.000Z</time>
        <extensions>
          <ns3:TrackPointExtension>
            <ns3:atemp>22.0</ns3:atemp>
          </ns3:TrackPointExtension>
        </extensions>
      </trkpt>
      <trkpt lat="42.51471399329602718353271484375" lon="20.1513127796351909637451171875">
        <ele>2159.800048828125</ele>
        <time>2026-06-20T10:18:20.000Z</time>
        <extensions>
          <ns3:TrackPointExtension>
            <ns3:atemp>22.0</ns3:atemp>
          </ns3:TrackPointExtension>
        </extensions>
      </trkpt>
      <trkpt lat="42.51471399329602718353271484375" lon="20.1513127796351909637451171875">
        <ele>2159.800048828125</ele>
        <time>2026-06-20T10:18:21.000Z</time>
        <extensions>
          <ns3:TrackPointExtension>
            <ns3:atemp>22.0</ns3:atemp>
          </ns3:TrackPointExtension>
        </extensions>
      </trkpt>
      <trkpt lat="42.51471399329602718353271484375" lon="20.1513127796351909637451171875">
        <ele>2159.800048828125</ele>
        <time>2026-06-20T10:18:22.000Z</time>
        <extensions>
          <ns3:TrackPointExtension>
            <ns3:atemp>22.0</ns3:atemp>
          </ns3:TrackPointExtension>
        </extensions>
      </trkpt>
      <trkpt lat="42.51471399329602718353271484375" lon="20.1513127796351909637451171875">
        <ele>2159.800048828125</ele>
        <time>2026-06-20T10:18:23.000Z</time>
        <extensions>
          <ns3:TrackPointExtension>
            <ns3:atemp>22.0</ns3:atemp>
          </ns3:TrackPointExtension>
        </extensions>
      </trkpt>
      <trkpt lat="42.51471399329602718353271484375" lon="20.1513127796351909637451171875">
        <ele>2159.800048828125</ele>
        <time>2026-06-20T10:18:24.000Z</time>
        <extensions>
          <ns3:TrackPointExtension>
            <ns3:atemp>22.0</ns3:atemp>
          </ns3:TrackPointExtension>
        </extensions>
      </trkpt>
      <trkpt lat="42.51471399329602718353271484375" lon="20.1513127796351909637451171875">
        <ele>2159.800048828125</ele>
        <time>2026-06-20T10:18:25.000Z</time>
        <extensions>
          <ns3:TrackPointExtension>
            <ns3:atemp>22.0</ns3:atemp>
          </ns3:TrackPointExtension>
        </extensions>
      </trkpt>
      <trkpt lat="42.51471399329602718353271484375" lon="20.1513127796351909637451171875">
        <ele>2159.800048828125</ele>
        <time>2026-06-20T10:18:26.000Z</time>
        <extensions>
          <ns3:TrackPointExtension>
            <ns3:atemp>22.0</ns3:atemp>
          </ns3:TrackPointExtension>
        </extensions>
      </trkpt>
      <trkpt lat="42.51471399329602718353271484375" lon="20.1513127796351909637451171875">
        <ele>2159.800048828125</ele>
        <time>2026-06-20T10:18:27.000Z</time>
        <extensions>
          <ns3:TrackPointExtension>
            <ns3:atemp>22.0</ns3:atemp>
          </ns3:TrackPointExtension>
        </extensions>
      </trkpt>
      <trkpt lat="42.51471399329602718353271484375" lon="20.1513127796351909637451171875">
        <ele>2159.800048828125</ele>
        <time>2026-06-20T10:18:28.000Z</time>
        <extensions>
          <ns3:TrackPointExtension>
            <ns3:atemp>22.0</ns3:atemp>
          </ns3:TrackPointExtension>
        </extensions>
      </trkpt>
      <trkpt lat="42.51471399329602718353271484375" lon="20.1513127796351909637451171875">
        <ele>2159.800048828125</ele>
        <time>2026-06-20T10:18:29.000Z</time>
        <extensions>
          <ns3:TrackPointExtension>
            <ns3:atemp>22.0</ns3:atemp>
          </ns3:TrackPointExtension>
        </extensions>
      </trkpt>
      <trkpt lat="42.51471399329602718353271484375" lon="20.1513127796351909637451171875">
        <ele>2159.800048828125</ele>
        <time>2026-06-20T10:18:30.000Z</time>
        <extensions>
          <ns3:TrackPointExtension>
            <ns3:atemp>22.0</ns3:atemp>
          </ns3:TrackPointExtension>
        </extensions>
      </trkpt>
      <trkpt lat="42.51471399329602718353271484375" lon="20.1513127796351909637451171875">
        <ele>2159.800048828125</ele>
        <time>2026-06-20T10:18:31.000Z</time>
        <extensions>
          <ns3:TrackPointExtension>
            <ns3:atemp>22.0</ns3:atemp>
          </ns3:TrackPointExtension>
        </extensions>
      </trkpt>
      <trkpt lat="42.51471399329602718353271484375" lon="20.1513127796351909637451171875">
        <ele>2159.800048828125</ele>
        <time>2026-06-20T10:18:32.000Z</time>
        <extensions>
          <ns3:TrackPointExtension>
            <ns3:atemp>22.0</ns3:atemp>
          </ns3:TrackPointExtension>
        </extensions>
      </trkpt>
      <trkpt lat="42.51471399329602718353271484375" lon="20.1513127796351909637451171875">
        <ele>2159.800048828125</ele>
        <time>2026-06-20T10:18:33.000Z</time>
        <extensions>
          <ns3:TrackPointExtension>
            <ns3:atemp>22.0</ns3:atemp>
          </ns3:TrackPointExtension>
        </extensions>
      </trkpt>
      <trkpt lat="42.51471399329602718353271484375" lon="20.1513127796351909637451171875">
        <ele>2159.800048828125</ele>
        <time>2026-06-20T10:18:34.000Z</time>
        <extensions>
          <ns3:TrackPointExtension>
            <ns3:atemp>22.0</ns3:atemp>
          </ns3:TrackPointExtension>
        </extensions>
      </trkpt>
      <trkpt lat="42.51471399329602718353271484375" lon="20.1513127796351909637451171875">
        <ele>2159.800048828125</ele>
        <time>2026-06-20T10:18:35.000Z</time>
        <extensions>
          <ns3:TrackPointExtension>
            <ns3:atemp>22.0</ns3:atemp>
          </ns3:TrackPointExtension>
        </extensions>
      </trkpt>
      <trkpt lat="42.51471399329602718353271484375" lon="20.1513127796351909637451171875">
        <ele>2159.800048828125</ele>
        <time>2026-06-20T10:18:36.000Z</time>
        <extensions>
          <ns3:TrackPointExtension>
            <ns3:atemp>22.0</ns3:atemp>
          </ns3:TrackPointExtension>
        </extensions>
      </trkpt>
      <trkpt lat="42.51471399329602718353271484375" lon="20.1513127796351909637451171875">
        <ele>2159.800048828125</ele>
        <time>2026-06-20T10:18:37.000Z</time>
        <extensions>
          <ns3:TrackPointExtension>
            <ns3:atemp>22.0</ns3:atemp>
          </ns3:TrackPointExtension>
        </extensions>
      </trkpt>
      <trkpt lat="42.51471399329602718353271484375" lon="20.1513127796351909637451171875">
        <ele>2159.800048828125</ele>
        <time>2026-06-20T10:18:38.000Z</time>
        <extensions>
          <ns3:TrackPointExtension>
            <ns3:atemp>22.0</ns3:atemp>
          </ns3:TrackPointExtension>
        </extensions>
      </trkpt>
      <trkpt lat="42.51471399329602718353271484375" lon="20.1513127796351909637451171875">
        <ele>2159.800048828125</ele>
        <time>2026-06-20T10:18:39.000Z</time>
        <extensions>
          <ns3:TrackPointExtension>
            <ns3:atemp>22.0</ns3:atemp>
          </ns3:TrackPointExtension>
        </extensions>
      </trkpt>
      <trkpt lat="42.51471399329602718353271484375" lon="20.1513127796351909637451171875">
        <ele>2159.800048828125</ele>
        <time>2026-06-20T10:18:40.000Z</time>
        <extensions>
          <ns3:TrackPointExtension>
            <ns3:atemp>22.0</ns3:atemp>
          </ns3:TrackPointExtension>
        </extensions>
      </trkpt>
      <trkpt lat="42.51471399329602718353271484375" lon="20.1513127796351909637451171875">
        <ele>2159.800048828125</ele>
        <time>2026-06-20T10:18:41.000Z</time>
        <extensions>
          <ns3:TrackPointExtension>
            <ns3:atemp>22.0</ns3:atemp>
          </ns3:TrackPointExtension>
        </extensions>
      </trkpt>
      <trkpt lat="42.51471399329602718353271484375" lon="20.1513127796351909637451171875">
        <ele>2159.800048828125</ele>
        <time>2026-06-20T10:18:42.000Z</time>
        <extensions>
          <ns3:TrackPointExtension>
            <ns3:atemp>22.0</ns3:atemp>
          </ns3:TrackPointExtension>
        </extensions>
      </trkpt>
      <trkpt lat="42.51471399329602718353271484375" lon="20.1513127796351909637451171875">
        <ele>2159.800048828125</ele>
        <time>2026-06-20T10:18:43.000Z</time>
        <extensions>
          <ns3:TrackPointExtension>
            <ns3:atemp>22.0</ns3:atemp>
          </ns3:TrackPointExtension>
        </extensions>
      </trkpt>
      <trkpt lat="42.51471399329602718353271484375" lon="20.1513127796351909637451171875">
        <ele>2159.800048828125</ele>
        <time>2026-06-20T10:18:44.000Z</time>
        <extensions>
          <ns3:TrackPointExtension>
            <ns3:atemp>22.0</ns3:atemp>
          </ns3:TrackPointExtension>
        </extensions>
      </trkpt>
      <trkpt lat="42.51471399329602718353271484375" lon="20.1513127796351909637451171875">
        <ele>2159.800048828125</ele>
        <time>2026-06-20T10:18:45.000Z</time>
        <extensions>
          <ns3:TrackPointExtension>
            <ns3:atemp>22.0</ns3:atemp>
          </ns3:TrackPointExtension>
        </extensions>
      </trkpt>
      <trkpt lat="42.51471399329602718353271484375" lon="20.1513127796351909637451171875">
        <ele>2159.800048828125</ele>
        <time>2026-06-20T10:18:46.000Z</time>
        <extensions>
          <ns3:TrackPointExtension>
            <ns3:atemp>22.0</ns3:atemp>
          </ns3:TrackPointExtension>
        </extensions>
      </trkpt>
      <trkpt lat="42.51471399329602718353271484375" lon="20.1513127796351909637451171875">
        <ele>2159.800048828125</ele>
        <time>2026-06-20T10:18:47.000Z</time>
        <extensions>
          <ns3:TrackPointExtension>
            <ns3:atemp>22.0</ns3:atemp>
          </ns3:TrackPointExtension>
        </extensions>
      </trkpt>
      <trkpt lat="42.51471399329602718353271484375" lon="20.1513127796351909637451171875">
        <ele>2159.800048828125</ele>
        <time>2026-06-20T10:18:48.000Z</time>
        <extensions>
          <ns3:TrackPointExtension>
            <ns3:atemp>22.0</ns3:atemp>
          </ns3:TrackPointExtension>
        </extensions>
      </trkpt>
      <trkpt lat="42.51471399329602718353271484375" lon="20.1513127796351909637451171875">
        <ele>2159.800048828125</ele>
        <time>2026-06-20T10:18:49.000Z</time>
        <extensions>
          <ns3:TrackPointExtension>
            <ns3:atemp>22.0</ns3:atemp>
          </ns3:TrackPointExtension>
        </extensions>
      </trkpt>
      <trkpt lat="42.51471399329602718353271484375" lon="20.1513127796351909637451171875">
        <ele>2159.800048828125</ele>
        <time>2026-06-20T10:18:50.000Z</time>
        <extensions>
          <ns3:TrackPointExtension>
            <ns3:atemp>22.0</ns3:atemp>
          </ns3:TrackPointExtension>
        </extensions>
      </trkpt>
      <trkpt lat="42.51471399329602718353271484375" lon="20.1513127796351909637451171875">
        <ele>2159.800048828125</ele>
        <time>2026-06-20T10:18:51.000Z</time>
        <extensions>
          <ns3:TrackPointExtension>
            <ns3:atemp>22.0</ns3:atemp>
          </ns3:TrackPointExtension>
        </extensions>
      </trkpt>
      <trkpt lat="42.51471399329602718353271484375" lon="20.1513127796351909637451171875">
        <ele>2159.800048828125</ele>
        <time>2026-06-20T10:18:52.000Z</time>
        <extensions>
          <ns3:TrackPointExtension>
            <ns3:atemp>22.0</ns3:atemp>
          </ns3:TrackPointExtension>
        </extensions>
      </trkpt>
      <trkpt lat="42.51471399329602718353271484375" lon="20.1513127796351909637451171875">
        <ele>2159.800048828125</ele>
        <time>2026-06-20T10:18:53.000Z</time>
        <extensions>
          <ns3:TrackPointExtension>
            <ns3:atemp>22.0</ns3:atemp>
          </ns3:TrackPointExtension>
        </extensions>
      </trkpt>
      <trkpt lat="42.51471399329602718353271484375" lon="20.1513127796351909637451171875">
        <ele>2159.800048828125</ele>
        <time>2026-06-20T10:18:54.000Z</time>
        <extensions>
          <ns3:TrackPointExtension>
            <ns3:atemp>22.0</ns3:atemp>
          </ns3:TrackPointExtension>
        </extensions>
      </trkpt>
      <trkpt lat="42.51471399329602718353271484375" lon="20.1513127796351909637451171875">
        <ele>2159.800048828125</ele>
        <time>2026-06-20T10:18:55.000Z</time>
        <extensions>
          <ns3:TrackPointExtension>
            <ns3:atemp>22.0</ns3:atemp>
          </ns3:TrackPointExtension>
        </extensions>
      </trkpt>
      <trkpt lat="42.51471399329602718353271484375" lon="20.1513127796351909637451171875">
        <ele>2159.800048828125</ele>
        <time>2026-06-20T10:18:56.000Z</time>
        <extensions>
          <ns3:TrackPointExtension>
            <ns3:atemp>22.0</ns3:atemp>
          </ns3:TrackPointExtension>
        </extensions>
      </trkpt>
      <trkpt lat="42.51471399329602718353271484375" lon="20.1513127796351909637451171875">
        <ele>2159.800048828125</ele>
        <time>2026-06-20T10:18:57.000Z</time>
        <extensions>
          <ns3:TrackPointExtension>
            <ns3:atemp>22.0</ns3:atemp>
          </ns3:TrackPointExtension>
        </extensions>
      </trkpt>
      <trkpt lat="42.51471399329602718353271484375" lon="20.1513127796351909637451171875">
        <ele>2159.800048828125</ele>
        <time>2026-06-20T10:18:58.000Z</time>
        <extensions>
          <ns3:TrackPointExtension>
            <ns3:atemp>22.0</ns3:atemp>
          </ns3:TrackPointExtension>
        </extensions>
      </trkpt>
      <trkpt lat="42.51471399329602718353271484375" lon="20.1513127796351909637451171875">
        <ele>2159.800048828125</ele>
        <time>2026-06-20T10:18:59.000Z</time>
        <extensions>
          <ns3:TrackPointExtension>
            <ns3:atemp>22.0</ns3:atemp>
          </ns3:TrackPointExtension>
        </extensions>
      </trkpt>
      <trkpt lat="42.51471399329602718353271484375" lon="20.1513127796351909637451171875">
        <ele>2159.800048828125</ele>
        <time>2026-06-20T10:19:00.000Z</time>
        <extensions>
          <ns3:TrackPointExtension>
            <ns3:atemp>22.0</ns3:atemp>
          </ns3:TrackPointExtension>
        </extensions>
      </trkpt>
      <trkpt lat="42.51471399329602718353271484375" lon="20.1513127796351909637451171875">
        <ele>2159.800048828125</ele>
        <time>2026-06-20T10:19:01.000Z</time>
        <extensions>
          <ns3:TrackPointExtension>
            <ns3:atemp>22.0</ns3:atemp>
          </ns3:TrackPointExtension>
        </extensions>
      </trkpt>
      <trkpt lat="42.51471399329602718353271484375" lon="20.1513127796351909637451171875">
        <ele>2159.800048828125</ele>
        <time>2026-06-20T10:19:02.000Z</time>
        <extensions>
          <ns3:TrackPointExtension>
            <ns3:atemp>22.0</ns3:atemp>
          </ns3:TrackPointExtension>
        </extensions>
      </trkpt>
      <trkpt lat="42.51471399329602718353271484375" lon="20.1513127796351909637451171875">
        <ele>2159.800048828125</ele>
        <time>2026-06-20T10:19:03.000Z</time>
        <extensions>
          <ns3:TrackPointExtension>
            <ns3:atemp>22.0</ns3:atemp>
          </ns3:TrackPointExtension>
        </extensions>
      </trkpt>
      <trkpt lat="42.51471399329602718353271484375" lon="20.1513127796351909637451171875">
        <ele>2159.800048828125</ele>
        <time>2026-06-20T10:19:04.000Z</time>
        <extensions>
          <ns3:TrackPointExtension>
            <ns3:atemp>22.0</ns3:atemp>
          </ns3:TrackPointExtension>
        </extensions>
      </trkpt>
      <trkpt lat="42.51471399329602718353271484375" lon="20.1513127796351909637451171875">
        <ele>2159.800048828125</ele>
        <time>2026-06-20T10:19:05.000Z</time>
        <extensions>
          <ns3:TrackPointExtension>
            <ns3:atemp>22.0</ns3:atemp>
          </ns3:TrackPointExtension>
        </extensions>
      </trkpt>
      <trkpt lat="42.51471399329602718353271484375" lon="20.1513127796351909637451171875">
        <ele>2159.800048828125</ele>
        <time>2026-06-20T10:19:06.000Z</time>
        <extensions>
          <ns3:TrackPointExtension>
            <ns3:atemp>22.0</ns3:atemp>
          </ns3:TrackPointExtension>
        </extensions>
      </trkpt>
      <trkpt lat="42.51471399329602718353271484375" lon="20.1513127796351909637451171875">
        <ele>2159.800048828125</ele>
        <time>2026-06-20T10:19:07.000Z</time>
        <extensions>
          <ns3:TrackPointExtension>
            <ns3:atemp>22.0</ns3:atemp>
          </ns3:TrackPointExtension>
        </extensions>
      </trkpt>
      <trkpt lat="42.51471399329602718353271484375" lon="20.1513127796351909637451171875">
        <ele>2159.800048828125</ele>
        <time>2026-06-20T10:19:08.000Z</time>
        <extensions>
          <ns3:TrackPointExtension>
            <ns3:atemp>22.0</ns3:atemp>
          </ns3:TrackPointExtension>
        </extensions>
      </trkpt>
      <trkpt lat="42.51471399329602718353271484375" lon="20.1513127796351909637451171875">
        <ele>2159.800048828125</ele>
        <time>2026-06-20T10:19:09.000Z</time>
        <extensions>
          <ns3:TrackPointExtension>
            <ns3:atemp>22.0</ns3:atemp>
          </ns3:TrackPointExtension>
        </extensions>
      </trkpt>
      <trkpt lat="42.51471399329602718353271484375" lon="20.1513127796351909637451171875">
        <ele>2159.800048828125</ele>
        <time>2026-06-20T10:19:10.000Z</time>
        <extensions>
          <ns3:TrackPointExtension>
            <ns3:atemp>22.0</ns3:atemp>
          </ns3:TrackPointExtension>
        </extensions>
      </trkpt>
      <trkpt lat="42.51471399329602718353271484375" lon="20.1513127796351909637451171875">
        <ele>2159.800048828125</ele>
        <time>2026-06-20T10:19:11.000Z</time>
        <extensions>
          <ns3:TrackPointExtension>
            <ns3:atemp>22.0</ns3:atemp>
          </ns3:TrackPointExtension>
        </extensions>
      </trkpt>
      <trkpt lat="42.51471399329602718353271484375" lon="20.1513127796351909637451171875">
        <ele>2159.800048828125</ele>
        <time>2026-06-20T10:19:12.000Z</time>
        <extensions>
          <ns3:TrackPointExtension>
            <ns3:atemp>22.0</ns3:atemp>
          </ns3:TrackPointExtension>
        </extensions>
      </trkpt>
      <trkpt lat="42.51471399329602718353271484375" lon="20.1513127796351909637451171875">
        <ele>2159.800048828125</ele>
        <time>2026-06-20T10:19:13.000Z</time>
        <extensions>
          <ns3:TrackPointExtension>
            <ns3:atemp>22.0</ns3:atemp>
          </ns3:TrackPointExtension>
        </extensions>
      </trkpt>
      <trkpt lat="42.51471399329602718353271484375" lon="20.1513127796351909637451171875">
        <ele>2159.800048828125</ele>
        <time>2026-06-20T10:19:14.000Z</time>
        <extensions>
          <ns3:TrackPointExtension>
            <ns3:atemp>22.0</ns3:atemp>
          </ns3:TrackPointExtension>
        </extensions>
      </trkpt>
      <trkpt lat="42.51471399329602718353271484375" lon="20.1513127796351909637451171875">
        <ele>2159.800048828125</ele>
        <time>2026-06-20T10:19:15.000Z</time>
        <extensions>
          <ns3:TrackPointExtension>
            <ns3:atemp>22.0</ns3:atemp>
          </ns3:TrackPointExtension>
        </extensions>
      </trkpt>
      <trkpt lat="42.51471399329602718353271484375" lon="20.1513127796351909637451171875">
        <ele>2159.800048828125</ele>
        <time>2026-06-20T10:19:16.000Z</time>
        <extensions>
          <ns3:TrackPointExtension>
            <ns3:atemp>22.0</ns3:atemp>
          </ns3:TrackPointExtension>
        </extensions>
      </trkpt>
      <trkpt lat="42.51471399329602718353271484375" lon="20.1513127796351909637451171875">
        <ele>2159.800048828125</ele>
        <time>2026-06-20T10:19:17.000Z</time>
        <extensions>
          <ns3:TrackPointExtension>
            <ns3:atemp>22.0</ns3:atemp>
          </ns3:TrackPointExtension>
        </extensions>
      </trkpt>
      <trkpt lat="42.51471399329602718353271484375" lon="20.1513127796351909637451171875">
        <ele>2159.800048828125</ele>
        <time>2026-06-20T10:19:18.000Z</time>
        <extensions>
          <ns3:TrackPointExtension>
            <ns3:atemp>22.0</ns3:atemp>
          </ns3:TrackPointExtension>
        </extensions>
      </trkpt>
      <trkpt lat="42.51471399329602718353271484375" lon="20.1513127796351909637451171875">
        <ele>2159.800048828125</ele>
        <time>2026-06-20T10:19:19.000Z</time>
        <extensions>
          <ns3:TrackPointExtension>
            <ns3:atemp>22.0</ns3:atemp>
          </ns3:TrackPointExtension>
        </extensions>
      </trkpt>
      <trkpt lat="42.51471399329602718353271484375" lon="20.1513127796351909637451171875">
        <ele>2159.800048828125</ele>
        <time>2026-06-20T10:19:20.000Z</time>
        <extensions>
          <ns3:TrackPointExtension>
            <ns3:atemp>22.0</ns3:atemp>
          </ns3:TrackPointExtension>
        </extensions>
      </trkpt>
      <trkpt lat="42.51471399329602718353271484375" lon="20.1513127796351909637451171875">
        <ele>2159.800048828125</ele>
        <time>2026-06-20T10:19:21.000Z</time>
        <extensions>
          <ns3:TrackPointExtension>
            <ns3:atemp>22.0</ns3:atemp>
          </ns3:TrackPointExtension>
        </extensions>
      </trkpt>
      <trkpt lat="42.51471399329602718353271484375" lon="20.1513127796351909637451171875">
        <ele>2159.800048828125</ele>
        <time>2026-06-20T10:19:22.000Z</time>
        <extensions>
          <ns3:TrackPointExtension>
            <ns3:atemp>22.0</ns3:atemp>
          </ns3:TrackPointExtension>
        </extensions>
      </trkpt>
      <trkpt lat="42.51471399329602718353271484375" lon="20.1513127796351909637451171875">
        <ele>2159.800048828125</ele>
        <time>2026-06-20T10:19:23.000Z</time>
        <extensions>
          <ns3:TrackPointExtension>
            <ns3:atemp>22.0</ns3:atemp>
          </ns3:TrackPointExtension>
        </extensions>
      </trkpt>
      <trkpt lat="42.51471399329602718353271484375" lon="20.1513127796351909637451171875">
        <ele>2159.800048828125</ele>
        <time>2026-06-20T10:19:24.000Z</time>
        <extensions>
          <ns3:TrackPointExtension>
            <ns3:atemp>22.0</ns3:atemp>
          </ns3:TrackPointExtension>
        </extensions>
      </trkpt>
      <trkpt lat="42.51471399329602718353271484375" lon="20.1513127796351909637451171875">
        <ele>2159.800048828125</ele>
        <time>2026-06-20T10:19:25.000Z</time>
        <extensions>
          <ns3:TrackPointExtension>
            <ns3:atemp>22.0</ns3:atemp>
          </ns3:TrackPointExtension>
        </extensions>
      </trkpt>
      <trkpt lat="42.51471399329602718353271484375" lon="20.1513127796351909637451171875">
        <ele>2159.800048828125</ele>
        <time>2026-06-20T10:19:26.000Z</time>
        <extensions>
          <ns3:TrackPointExtension>
            <ns3:atemp>22.0</ns3:atemp>
          </ns3:TrackPointExtension>
        </extensions>
      </trkpt>
      <trkpt lat="42.51471399329602718353271484375" lon="20.1513127796351909637451171875">
        <ele>2159.800048828125</ele>
        <time>2026-06-20T10:19:27.000Z</time>
        <extensions>
          <ns3:TrackPointExtension>
            <ns3:atemp>22.0</ns3:atemp>
          </ns3:TrackPointExtension>
        </extensions>
      </trkpt>
      <trkpt lat="42.51471399329602718353271484375" lon="20.1513127796351909637451171875">
        <ele>2159.800048828125</ele>
        <time>2026-06-20T10:19:28.000Z</time>
        <extensions>
          <ns3:TrackPointExtension>
            <ns3:atemp>22.0</ns3:atemp>
          </ns3:TrackPointExtension>
        </extensions>
      </trkpt>
      <trkpt lat="42.51471399329602718353271484375" lon="20.1513127796351909637451171875">
        <ele>2159.800048828125</ele>
        <time>2026-06-20T10:19:29.000Z</time>
        <extensions>
          <ns3:TrackPointExtension>
            <ns3:atemp>22.0</ns3:atemp>
          </ns3:TrackPointExtension>
        </extensions>
      </trkpt>
      <trkpt lat="42.51471399329602718353271484375" lon="20.1513127796351909637451171875">
        <ele>2159.800048828125</ele>
        <time>2026-06-20T10:19:30.000Z</time>
        <extensions>
          <ns3:TrackPointExtension>
            <ns3:atemp>22.0</ns3:atemp>
          </ns3:TrackPointExtension>
        </extensions>
      </trkpt>
      <trkpt lat="42.51471399329602718353271484375" lon="20.1513127796351909637451171875">
        <ele>2159.800048828125</ele>
        <time>2026-06-20T10:19:31.000Z</time>
        <extensions>
          <ns3:TrackPointExtension>
            <ns3:atemp>22.0</ns3:atemp>
          </ns3:TrackPointExtension>
        </extensions>
      </trkpt>
      <trkpt lat="42.51471399329602718353271484375" lon="20.1513127796351909637451171875">
        <ele>2159.800048828125</ele>
        <time>2026-06-20T10:19:32.000Z</time>
        <extensions>
          <ns3:TrackPointExtension>
            <ns3:atemp>22.0</ns3:atemp>
          </ns3:TrackPointExtension>
        </extensions>
      </trkpt>
      <trkpt lat="42.51471399329602718353271484375" lon="20.1513127796351909637451171875">
        <ele>2159.800048828125</ele>
        <time>2026-06-20T10:19:33.000Z</time>
        <extensions>
          <ns3:TrackPointExtension>
            <ns3:atemp>22.0</ns3:atemp>
          </ns3:TrackPointExtension>
        </extensions>
      </trkpt>
      <trkpt lat="42.51471399329602718353271484375" lon="20.1513127796351909637451171875">
        <ele>2159.800048828125</ele>
        <time>2026-06-20T10:19:34.000Z</time>
        <extensions>
          <ns3:TrackPointExtension>
            <ns3:atemp>22.0</ns3:atemp>
          </ns3:TrackPointExtension>
        </extensions>
      </trkpt>
      <trkpt lat="42.51471399329602718353271484375" lon="20.1513127796351909637451171875">
        <ele>2159.800048828125</ele>
        <time>2026-06-20T10:19:35.000Z</time>
        <extensions>
          <ns3:TrackPointExtension>
            <ns3:atemp>22.0</ns3:atemp>
          </ns3:TrackPointExtension>
        </extensions>
      </trkpt>
      <trkpt lat="42.51471399329602718353271484375" lon="20.1513127796351909637451171875">
        <ele>2159.800048828125</ele>
        <time>2026-06-20T10:19:36.000Z</time>
        <extensions>
          <ns3:TrackPointExtension>
            <ns3:atemp>23.0</ns3:atemp>
          </ns3:TrackPointExtension>
        </extensions>
      </trkpt>
      <trkpt lat="42.51471399329602718353271484375" lon="20.1513127796351909637451171875">
        <ele>2159.800048828125</ele>
        <time>2026-06-20T10:19:37.000Z</time>
        <extensions>
          <ns3:TrackPointExtension>
            <ns3:atemp>23.0</ns3:atemp>
          </ns3:TrackPointExtension>
        </extensions>
      </trkpt>
      <trkpt lat="42.51471399329602718353271484375" lon="20.1513127796351909637451171875">
        <ele>2159.800048828125</ele>
        <time>2026-06-20T10:19:38.000Z</time>
        <extensions>
          <ns3:TrackPointExtension>
            <ns3:atemp>23.0</ns3:atemp>
          </ns3:TrackPointExtension>
        </extensions>
      </trkpt>
      <trkpt lat="42.51471399329602718353271484375" lon="20.1513127796351909637451171875">
        <ele>2159.800048828125</ele>
        <time>2026-06-20T10:19:39.000Z</time>
        <extensions>
          <ns3:TrackPointExtension>
            <ns3:atemp>23.0</ns3:atemp>
          </ns3:TrackPointExtension>
        </extensions>
      </trkpt>
      <trkpt lat="42.51471399329602718353271484375" lon="20.1513127796351909637451171875">
        <ele>2159.800048828125</ele>
        <time>2026-06-20T10:19:40.000Z</time>
        <extensions>
          <ns3:TrackPointExtension>
            <ns3:atemp>23.0</ns3:atemp>
          </ns3:TrackPointExtension>
        </extensions>
      </trkpt>
      <trkpt lat="42.51471399329602718353271484375" lon="20.1513127796351909637451171875">
        <ele>2159.800048828125</ele>
        <time>2026-06-20T10:19:41.000Z</time>
        <extensions>
          <ns3:TrackPointExtension>
            <ns3:atemp>23.0</ns3:atemp>
          </ns3:TrackPointExtension>
        </extensions>
      </trkpt>
      <trkpt lat="42.51471399329602718353271484375" lon="20.1513127796351909637451171875">
        <ele>2159.800048828125</ele>
        <time>2026-06-20T10:19:42.000Z</time>
        <extensions>
          <ns3:TrackPointExtension>
            <ns3:atemp>23.0</ns3:atemp>
          </ns3:TrackPointExtension>
        </extensions>
      </trkpt>
      <trkpt lat="42.51471399329602718353271484375" lon="20.1513127796351909637451171875">
        <ele>2159.800048828125</ele>
        <time>2026-06-20T10:19:43.000Z</time>
        <extensions>
          <ns3:TrackPointExtension>
            <ns3:atemp>23.0</ns3:atemp>
          </ns3:TrackPointExtension>
        </extensions>
      </trkpt>
      <trkpt lat="42.51471399329602718353271484375" lon="20.1513127796351909637451171875">
        <ele>2159.800048828125</ele>
        <time>2026-06-20T10:19:44.000Z</time>
        <extensions>
          <ns3:TrackPointExtension>
            <ns3:atemp>23.0</ns3:atemp>
          </ns3:TrackPointExtension>
        </extensions>
      </trkpt>
      <trkpt lat="42.51471399329602718353271484375" lon="20.1513127796351909637451171875">
        <ele>2159.800048828125</ele>
        <time>2026-06-20T10:19:45.000Z</time>
        <extensions>
          <ns3:TrackPointExtension>
            <ns3:atemp>23.0</ns3:atemp>
          </ns3:TrackPointExtension>
        </extensions>
      </trkpt>
      <trkpt lat="42.51471399329602718353271484375" lon="20.1513127796351909637451171875">
        <ele>2159.800048828125</ele>
        <time>2026-06-20T10:19:46.000Z</time>
        <extensions>
          <ns3:TrackPointExtension>
            <ns3:atemp>23.0</ns3:atemp>
          </ns3:TrackPointExtension>
        </extensions>
      </trkpt>
      <trkpt lat="42.51471399329602718353271484375" lon="20.1513127796351909637451171875">
        <ele>2159.800048828125</ele>
        <time>2026-06-20T10:19:47.000Z</time>
        <extensions>
          <ns3:TrackPointExtension>
            <ns3:atemp>23.0</ns3:atemp>
          </ns3:TrackPointExtension>
        </extensions>
      </trkpt>
      <trkpt lat="42.51471399329602718353271484375" lon="20.1513127796351909637451171875">
        <ele>2159.800048828125</ele>
        <time>2026-06-20T10:19:48.000Z</time>
        <extensions>
          <ns3:TrackPointExtension>
            <ns3:atemp>23.0</ns3:atemp>
          </ns3:TrackPointExtension>
        </extensions>
      </trkpt>
      <trkpt lat="42.51471399329602718353271484375" lon="20.1513127796351909637451171875">
        <ele>2159.800048828125</ele>
        <time>2026-06-20T10:19:49.000Z</time>
        <extensions>
          <ns3:TrackPointExtension>
            <ns3:atemp>23.0</ns3:atemp>
          </ns3:TrackPointExtension>
        </extensions>
      </trkpt>
      <trkpt lat="42.51471399329602718353271484375" lon="20.1513127796351909637451171875">
        <ele>2159.800048828125</ele>
        <time>2026-06-20T10:19:50.000Z</time>
        <extensions>
          <ns3:TrackPointExtension>
            <ns3:atemp>23.0</ns3:atemp>
          </ns3:TrackPointExtension>
        </extensions>
      </trkpt>
      <trkpt lat="42.51471399329602718353271484375" lon="20.1513127796351909637451171875">
        <ele>2159.800048828125</ele>
        <time>2026-06-20T10:19:51.000Z</time>
        <extensions>
          <ns3:TrackPointExtension>
            <ns3:atemp>23.0</ns3:atemp>
          </ns3:TrackPointExtension>
        </extensions>
      </trkpt>
      <trkpt lat="42.51471399329602718353271484375" lon="20.1513127796351909637451171875">
        <ele>2159.800048828125</ele>
        <time>2026-06-20T10:19:52.000Z</time>
        <extensions>
          <ns3:TrackPointExtension>
            <ns3:atemp>23.0</ns3:atemp>
          </ns3:TrackPointExtension>
        </extensions>
      </trkpt>
      <trkpt lat="42.51471399329602718353271484375" lon="20.1513127796351909637451171875">
        <ele>2159.800048828125</ele>
        <time>2026-06-20T10:19:53.000Z</time>
        <extensions>
          <ns3:TrackPointExtension>
            <ns3:atemp>23.0</ns3:atemp>
          </ns3:TrackPointExtension>
        </extensions>
      </trkpt>
      <trkpt lat="42.51471399329602718353271484375" lon="20.1513127796351909637451171875">
        <ele>2159.800048828125</ele>
        <time>2026-06-20T10:19:54.000Z</time>
        <extensions>
          <ns3:TrackPointExtension>
            <ns3:atemp>23.0</ns3:atemp>
          </ns3:TrackPointExtension>
        </extensions>
      </trkpt>
      <trkpt lat="42.51471399329602718353271484375" lon="20.1513127796351909637451171875">
        <ele>2159.800048828125</ele>
        <time>2026-06-20T10:19:55.000Z</time>
        <extensions>
          <ns3:TrackPointExtension>
            <ns3:atemp>23.0</ns3:atemp>
          </ns3:TrackPointExtension>
        </extensions>
      </trkpt>
      <trkpt lat="42.51471399329602718353271484375" lon="20.1513127796351909637451171875">
        <ele>2159.800048828125</ele>
        <time>2026-06-20T10:19:56.000Z</time>
        <extensions>
          <ns3:TrackPointExtension>
            <ns3:atemp>23.0</ns3:atemp>
          </ns3:TrackPointExtension>
        </extensions>
      </trkpt>
      <trkpt lat="42.51471399329602718353271484375" lon="20.1513127796351909637451171875">
        <ele>2159.800048828125</ele>
        <time>2026-06-20T10:19:57.000Z</time>
        <extensions>
          <ns3:TrackPointExtension>
            <ns3:atemp>23.0</ns3:atemp>
          </ns3:TrackPointExtension>
        </extensions>
      </trkpt>
      <trkpt lat="42.51471399329602718353271484375" lon="20.1513127796351909637451171875">
        <ele>2159.800048828125</ele>
        <time>2026-06-20T10:19:58.000Z</time>
        <extensions>
          <ns3:TrackPointExtension>
            <ns3:atemp>23.0</ns3:atemp>
          </ns3:TrackPointExtension>
        </extensions>
      </trkpt>
      <trkpt lat="42.51471399329602718353271484375" lon="20.1513127796351909637451171875">
        <ele>2159.800048828125</ele>
        <time>2026-06-20T10:19:59.000Z</time>
        <extensions>
          <ns3:TrackPointExtension>
            <ns3:atemp>23.0</ns3:atemp>
          </ns3:TrackPointExtension>
        </extensions>
      </trkpt>
      <trkpt lat="42.51471399329602718353271484375" lon="20.1513127796351909637451171875">
        <ele>2159.800048828125</ele>
        <time>2026-06-20T10:20:00.000Z</time>
        <extensions>
          <ns3:TrackPointExtension>
            <ns3:atemp>23.0</ns3:atemp>
          </ns3:TrackPointExtension>
        </extensions>
      </trkpt>
      <trkpt lat="42.51471399329602718353271484375" lon="20.1513127796351909637451171875">
        <ele>2159.800048828125</ele>
        <time>2026-06-20T10:20:01.000Z</time>
        <extensions>
          <ns3:TrackPointExtension>
            <ns3:atemp>23.0</ns3:atemp>
          </ns3:TrackPointExtension>
        </extensions>
      </trkpt>
      <trkpt lat="42.51471399329602718353271484375" lon="20.1513127796351909637451171875">
        <ele>2159.800048828125</ele>
        <time>2026-06-20T10:20:02.000Z</time>
        <extensions>
          <ns3:TrackPointExtension>
            <ns3:atemp>23.0</ns3:atemp>
          </ns3:TrackPointExtension>
        </extensions>
      </trkpt>
      <trkpt lat="42.51471399329602718353271484375" lon="20.1513127796351909637451171875">
        <ele>2159.800048828125</ele>
        <time>2026-06-20T10:20:03.000Z</time>
        <extensions>
          <ns3:TrackPointExtension>
            <ns3:atemp>23.0</ns3:atemp>
          </ns3:TrackPointExtension>
        </extensions>
      </trkpt>
      <trkpt lat="42.51471399329602718353271484375" lon="20.1513127796351909637451171875">
        <ele>2159.800048828125</ele>
        <time>2026-06-20T10:20:04.000Z</time>
        <extensions>
          <ns3:TrackPointExtension>
            <ns3:atemp>23.0</ns3:atemp>
          </ns3:TrackPointExtension>
        </extensions>
      </trkpt>
      <trkpt lat="42.51471399329602718353271484375" lon="20.1513127796351909637451171875">
        <ele>2159.800048828125</ele>
        <time>2026-06-20T10:20:05.000Z</time>
        <extensions>
          <ns3:TrackPointExtension>
            <ns3:atemp>23.0</ns3:atemp>
          </ns3:TrackPointExtension>
        </extensions>
      </trkpt>
      <trkpt lat="42.51471399329602718353271484375" lon="20.1513127796351909637451171875">
        <ele>2159.800048828125</ele>
        <time>2026-06-20T10:20:06.000Z</time>
        <extensions>
          <ns3:TrackPointExtension>
            <ns3:atemp>23.0</ns3:atemp>
          </ns3:TrackPointExtension>
        </extensions>
      </trkpt>
      <trkpt lat="42.51471399329602718353271484375" lon="20.1513127796351909637451171875">
        <ele>2159.800048828125</ele>
        <time>2026-06-20T10:20:07.000Z</time>
        <extensions>
          <ns3:TrackPointExtension>
            <ns3:atemp>23.0</ns3:atemp>
          </ns3:TrackPointExtension>
        </extensions>
      </trkpt>
      <trkpt lat="42.51471399329602718353271484375" lon="20.1513127796351909637451171875">
        <ele>2159.800048828125</ele>
        <time>2026-06-20T10:20:08.000Z</time>
        <extensions>
          <ns3:TrackPointExtension>
            <ns3:atemp>23.0</ns3:atemp>
          </ns3:TrackPointExtension>
        </extensions>
      </trkpt>
      <trkpt lat="42.51471399329602718353271484375" lon="20.1513127796351909637451171875">
        <ele>2159.800048828125</ele>
        <time>2026-06-20T10:20:09.000Z</time>
        <extensions>
          <ns3:TrackPointExtension>
            <ns3:atemp>23.0</ns3:atemp>
          </ns3:TrackPointExtension>
        </extensions>
      </trkpt>
      <trkpt lat="42.51471399329602718353271484375" lon="20.1513127796351909637451171875">
        <ele>2159.800048828125</ele>
        <time>2026-06-20T10:20:10.000Z</time>
        <extensions>
          <ns3:TrackPointExtension>
            <ns3:atemp>23.0</ns3:atemp>
          </ns3:TrackPointExtension>
        </extensions>
      </trkpt>
      <trkpt lat="42.51471399329602718353271484375" lon="20.1513127796351909637451171875">
        <ele>2159.800048828125</ele>
        <time>2026-06-20T10:20:11.000Z</time>
        <extensions>
          <ns3:TrackPointExtension>
            <ns3:atemp>23.0</ns3:atemp>
          </ns3:TrackPointExtension>
        </extensions>
      </trkpt>
      <trkpt lat="42.51471399329602718353271484375" lon="20.1513127796351909637451171875">
        <ele>2159.800048828125</ele>
        <time>2026-06-20T10:20:12.000Z</time>
        <extensions>
          <ns3:TrackPointExtension>
            <ns3:atemp>23.0</ns3:atemp>
          </ns3:TrackPointExtension>
        </extensions>
      </trkpt>
      <trkpt lat="42.51471399329602718353271484375" lon="20.1513127796351909637451171875">
        <ele>2159.800048828125</ele>
        <time>2026-06-20T10:20:13.000Z</time>
        <extensions>
          <ns3:TrackPointExtension>
            <ns3:atemp>23.0</ns3:atemp>
          </ns3:TrackPointExtension>
        </extensions>
      </trkpt>
      <trkpt lat="42.51471399329602718353271484375" lon="20.1513127796351909637451171875">
        <ele>2159.800048828125</ele>
        <time>2026-06-20T10:20:14.000Z</time>
        <extensions>
          <ns3:TrackPointExtension>
            <ns3:atemp>23.0</ns3:atemp>
          </ns3:TrackPointExtension>
        </extensions>
      </trkpt>
      <trkpt lat="42.51471399329602718353271484375" lon="20.1513127796351909637451171875">
        <ele>2159.800048828125</ele>
        <time>2026-06-20T10:20:15.000Z</time>
        <extensions>
          <ns3:TrackPointExtension>
            <ns3:atemp>23.0</ns3:atemp>
          </ns3:TrackPointExtension>
        </extensions>
      </trkpt>
      <trkpt lat="42.51471399329602718353271484375" lon="20.1513127796351909637451171875">
        <ele>2159.800048828125</ele>
        <time>2026-06-20T10:20:16.000Z</time>
        <extensions>
          <ns3:TrackPointExtension>
            <ns3:atemp>23.0</ns3:atemp>
          </ns3:TrackPointExtension>
        </extensions>
      </trkpt>
      <trkpt lat="42.51471399329602718353271484375" lon="20.1513127796351909637451171875">
        <ele>2159.800048828125</ele>
        <time>2026-06-20T10:20:17.000Z</time>
        <extensions>
          <ns3:TrackPointExtension>
            <ns3:atemp>23.0</ns3:atemp>
          </ns3:TrackPointExtension>
        </extensions>
      </trkpt>
      <trkpt lat="42.51471399329602718353271484375" lon="20.1513127796351909637451171875">
        <ele>2159.800048828125</ele>
        <time>2026-06-20T10:20:18.000Z</time>
        <extensions>
          <ns3:TrackPointExtension>
            <ns3:atemp>23.0</ns3:atemp>
          </ns3:TrackPointExtension>
        </extensions>
      </trkpt>
      <trkpt lat="42.51471399329602718353271484375" lon="20.1513127796351909637451171875">
        <ele>2159.800048828125</ele>
        <time>2026-06-20T10:20:19.000Z</time>
        <extensions>
          <ns3:TrackPointExtension>
            <ns3:atemp>23.0</ns3:atemp>
          </ns3:TrackPointExtension>
        </extensions>
      </trkpt>
      <trkpt lat="42.51471399329602718353271484375" lon="20.1513127796351909637451171875">
        <ele>2159.800048828125</ele>
        <time>2026-06-20T10:20:20.000Z</time>
        <extensions>
          <ns3:TrackPointExtension>
            <ns3:atemp>23.0</ns3:atemp>
          </ns3:TrackPointExtension>
        </extensions>
      </trkpt>
      <trkpt lat="42.51471399329602718353271484375" lon="20.1513127796351909637451171875">
        <ele>2159.800048828125</ele>
        <time>2026-06-20T10:20:21.000Z</time>
        <extensions>
          <ns3:TrackPointExtension>
            <ns3:atemp>23.0</ns3:atemp>
          </ns3:TrackPointExtension>
        </extensions>
      </trkpt>
      <trkpt lat="42.51471399329602718353271484375" lon="20.1513127796351909637451171875">
        <ele>2159.800048828125</ele>
        <time>2026-06-20T10:20:22.000Z</time>
        <extensions>
          <ns3:TrackPointExtension>
            <ns3:atemp>23.0</ns3:atemp>
          </ns3:TrackPointExtension>
        </extensions>
      </trkpt>
      <trkpt lat="42.51471399329602718353271484375" lon="20.1513127796351909637451171875">
        <ele>2159.800048828125</ele>
        <time>2026-06-20T10:20:23.000Z</time>
        <extensions>
          <ns3:TrackPointExtension>
            <ns3:atemp>23.0</ns3:atemp>
          </ns3:TrackPointExtension>
        </extensions>
      </trkpt>
      <trkpt lat="42.51471399329602718353271484375" lon="20.1513127796351909637451171875">
        <ele>2159.800048828125</ele>
        <time>2026-06-20T10:20:24.000Z</time>
        <extensions>
          <ns3:TrackPointExtension>
            <ns3:atemp>23.0</ns3:atemp>
          </ns3:TrackPointExtension>
        </extensions>
      </trkpt>
      <trkpt lat="42.51471399329602718353271484375" lon="20.1513127796351909637451171875">
        <ele>2159.800048828125</ele>
        <time>2026-06-20T10:20:25.000Z</time>
        <extensions>
          <ns3:TrackPointExtension>
            <ns3:atemp>23.0</ns3:atemp>
          </ns3:TrackPointExtension>
        </extensions>
      </trkpt>
      <trkpt lat="42.51471399329602718353271484375" lon="20.1513127796351909637451171875">
        <ele>2159.800048828125</ele>
        <time>2026-06-20T10:20:26.000Z</time>
        <extensions>
          <ns3:TrackPointExtension>
            <ns3:atemp>23.0</ns3:atemp>
          </ns3:TrackPointExtension>
        </extensions>
      </trkpt>
      <trkpt lat="42.51471399329602718353271484375" lon="20.1513127796351909637451171875">
        <ele>2159.800048828125</ele>
        <time>2026-06-20T10:20:27.000Z</time>
        <extensions>
          <ns3:TrackPointExtension>
            <ns3:atemp>23.0</ns3:atemp>
          </ns3:TrackPointExtension>
        </extensions>
      </trkpt>
      <trkpt lat="42.51471399329602718353271484375" lon="20.1513127796351909637451171875">
        <ele>2159.800048828125</ele>
        <time>2026-06-20T10:20:28.000Z</time>
        <extensions>
          <ns3:TrackPointExtension>
            <ns3:atemp>23.0</ns3:atemp>
          </ns3:TrackPointExtension>
        </extensions>
      </trkpt>
      <trkpt lat="42.51471399329602718353271484375" lon="20.1513127796351909637451171875">
        <ele>2159.800048828125</ele>
        <time>2026-06-20T10:20:29.000Z</time>
        <extensions>
          <ns3:TrackPointExtension>
            <ns3:atemp>23.0</ns3:atemp>
          </ns3:TrackPointExtension>
        </extensions>
      </trkpt>
      <trkpt lat="42.51471399329602718353271484375" lon="20.1513127796351909637451171875">
        <ele>2159.800048828125</ele>
        <time>2026-06-20T10:20:30.000Z</time>
        <extensions>
          <ns3:TrackPointExtension>
            <ns3:atemp>23.0</ns3:atemp>
          </ns3:TrackPointExtension>
        </extensions>
      </trkpt>
      <trkpt lat="42.51471399329602718353271484375" lon="20.1513127796351909637451171875">
        <ele>2159.800048828125</ele>
        <time>2026-06-20T10:20:31.000Z</time>
        <extensions>
          <ns3:TrackPointExtension>
            <ns3:atemp>23.0</ns3:atemp>
          </ns3:TrackPointExtension>
        </extensions>
      </trkpt>
      <trkpt lat="42.51471399329602718353271484375" lon="20.1513127796351909637451171875">
        <ele>2159.800048828125</ele>
        <time>2026-06-20T10:20:32.000Z</time>
        <extensions>
          <ns3:TrackPointExtension>
            <ns3:atemp>23.0</ns3:atemp>
          </ns3:TrackPointExtension>
        </extensions>
      </trkpt>
      <trkpt lat="42.51471399329602718353271484375" lon="20.1513127796351909637451171875">
        <ele>2159.800048828125</ele>
        <time>2026-06-20T10:20:33.000Z</time>
        <extensions>
          <ns3:TrackPointExtension>
            <ns3:atemp>23.0</ns3:atemp>
          </ns3:TrackPointExtension>
        </extensions>
      </trkpt>
      <trkpt lat="42.51471399329602718353271484375" lon="20.1513127796351909637451171875">
        <ele>2159.800048828125</ele>
        <time>2026-06-20T10:20:34.000Z</time>
        <extensions>
          <ns3:TrackPointExtension>
            <ns3:atemp>23.0</ns3:atemp>
          </ns3:TrackPointExtension>
        </extensions>
      </trkpt>
      <trkpt lat="42.51471399329602718353271484375" lon="20.1513127796351909637451171875">
        <ele>2159.800048828125</ele>
        <time>2026-06-20T10:20:35.000Z</time>
        <extensions>
          <ns3:TrackPointExtension>
            <ns3:atemp>23.0</ns3:atemp>
          </ns3:TrackPointExtension>
        </extensions>
      </trkpt>
      <trkpt lat="42.51471399329602718353271484375" lon="20.1513127796351909637451171875">
        <ele>2159.800048828125</ele>
        <time>2026-06-20T10:20:36.000Z</time>
        <extensions>
          <ns3:TrackPointExtension>
            <ns3:atemp>23.0</ns3:atemp>
          </ns3:TrackPointExtension>
        </extensions>
      </trkpt>
      <trkpt lat="42.51471399329602718353271484375" lon="20.1513127796351909637451171875">
        <ele>2159.800048828125</ele>
        <time>2026-06-20T10:20:37.000Z</time>
        <extensions>
          <ns3:TrackPointExtension>
            <ns3:atemp>23.0</ns3:atemp>
          </ns3:TrackPointExtension>
        </extensions>
      </trkpt>
      <trkpt lat="42.51471399329602718353271484375" lon="20.1513127796351909637451171875">
        <ele>2159.800048828125</ele>
        <time>2026-06-20T10:20:38.000Z</time>
        <extensions>
          <ns3:TrackPointExtension>
            <ns3:atemp>23.0</ns3:atemp>
          </ns3:TrackPointExtension>
        </extensions>
      </trkpt>
      <trkpt lat="42.51471399329602718353271484375" lon="20.1513127796351909637451171875">
        <ele>2159.800048828125</ele>
        <time>2026-06-20T10:20:39.000Z</time>
        <extensions>
          <ns3:TrackPointExtension>
            <ns3:atemp>23.0</ns3:atemp>
          </ns3:TrackPointExtension>
        </extensions>
      </trkpt>
      <trkpt lat="42.51471399329602718353271484375" lon="20.1513127796351909637451171875">
        <ele>2159.800048828125</ele>
        <time>2026-06-20T10:20:40.000Z</time>
        <extensions>
          <ns3:TrackPointExtension>
            <ns3:atemp>23.0</ns3:atemp>
          </ns3:TrackPointExtension>
        </extensions>
      </trkpt>
      <trkpt lat="42.51471399329602718353271484375" lon="20.1513127796351909637451171875">
        <ele>2159.800048828125</ele>
        <time>2026-06-20T10:20:41.000Z</time>
        <extensions>
          <ns3:TrackPointExtension>
            <ns3:atemp>23.0</ns3:atemp>
          </ns3:TrackPointExtension>
        </extensions>
      </trkpt>
      <trkpt lat="42.51471399329602718353271484375" lon="20.1513127796351909637451171875">
        <ele>2159.800048828125</ele>
        <time>2026-06-20T10:20:42.000Z</time>
        <extensions>
          <ns3:TrackPointExtension>
            <ns3:atemp>23.0</ns3:atemp>
          </ns3:TrackPointExtension>
        </extensions>
      </trkpt>
      <trkpt lat="42.51471399329602718353271484375" lon="20.1513127796351909637451171875">
        <ele>2159.800048828125</ele>
        <time>2026-06-20T10:20:43.000Z</time>
        <extensions>
          <ns3:TrackPointExtension>
            <ns3:atemp>23.0</ns3:atemp>
          </ns3:TrackPointExtension>
        </extensions>
      </trkpt>
      <trkpt lat="42.51471399329602718353271484375" lon="20.1513127796351909637451171875">
        <ele>2159.800048828125</ele>
        <time>2026-06-20T10:20:44.000Z</time>
        <extensions>
          <ns3:TrackPointExtension>
            <ns3:atemp>23.0</ns3:atemp>
          </ns3:TrackPointExtension>
        </extensions>
      </trkpt>
      <trkpt lat="42.51471399329602718353271484375" lon="20.1513127796351909637451171875">
        <ele>2159.800048828125</ele>
        <time>2026-06-20T10:20:45.000Z</time>
        <extensions>
          <ns3:TrackPointExtension>
            <ns3:atemp>23.0</ns3:atemp>
          </ns3:TrackPointExtension>
        </extensions>
      </trkpt>
      <trkpt lat="42.51471399329602718353271484375" lon="20.1513127796351909637451171875">
        <ele>2159.800048828125</ele>
        <time>2026-06-20T10:20:46.000Z</time>
        <extensions>
          <ns3:TrackPointExtension>
            <ns3:atemp>23.0</ns3:atemp>
          </ns3:TrackPointExtension>
        </extensions>
      </trkpt>
      <trkpt lat="42.51471399329602718353271484375" lon="20.1513127796351909637451171875">
        <ele>2159.800048828125</ele>
        <time>2026-06-20T10:20:47.000Z</time>
        <extensions>
          <ns3:TrackPointExtension>
            <ns3:atemp>23.0</ns3:atemp>
          </ns3:TrackPointExtension>
        </extensions>
      </trkpt>
      <trkpt lat="42.51471399329602718353271484375" lon="20.1513127796351909637451171875">
        <ele>2159.800048828125</ele>
        <time>2026-06-20T10:20:48.000Z</time>
        <extensions>
          <ns3:TrackPointExtension>
            <ns3:atemp>23.0</ns3:atemp>
          </ns3:TrackPointExtension>
        </extensions>
      </trkpt>
      <trkpt lat="42.51471399329602718353271484375" lon="20.1513127796351909637451171875">
        <ele>2159.800048828125</ele>
        <time>2026-06-20T10:20:49.000Z</time>
        <extensions>
          <ns3:TrackPointExtension>
            <ns3:atemp>23.0</ns3:atemp>
          </ns3:TrackPointExtension>
        </extensions>
      </trkpt>
      <trkpt lat="42.51471399329602718353271484375" lon="20.1513127796351909637451171875">
        <ele>2159.800048828125</ele>
        <time>2026-06-20T10:20:50.000Z</time>
        <extensions>
          <ns3:TrackPointExtension>
            <ns3:atemp>23.0</ns3:atemp>
          </ns3:TrackPointExtension>
        </extensions>
      </trkpt>
      <trkpt lat="42.51471399329602718353271484375" lon="20.1513127796351909637451171875">
        <ele>2159.800048828125</ele>
        <time>2026-06-20T10:20:51.000Z</time>
        <extensions>
          <ns3:TrackPointExtension>
            <ns3:atemp>23.0</ns3:atemp>
          </ns3:TrackPointExtension>
        </extensions>
      </trkpt>
      <trkpt lat="42.51471399329602718353271484375" lon="20.1513127796351909637451171875">
        <ele>2159.800048828125</ele>
        <time>2026-06-20T10:20:52.000Z</time>
        <extensions>
          <ns3:TrackPointExtension>
            <ns3:atemp>23.0</ns3:atemp>
          </ns3:TrackPointExtension>
        </extensions>
      </trkpt>
      <trkpt lat="42.51471399329602718353271484375" lon="20.1513127796351909637451171875">
        <ele>2159.800048828125</ele>
        <time>2026-06-20T10:20:53.000Z</time>
        <extensions>
          <ns3:TrackPointExtension>
            <ns3:atemp>23.0</ns3:atemp>
          </ns3:TrackPointExtension>
        </extensions>
      </trkpt>
      <trkpt lat="42.51471399329602718353271484375" lon="20.1513127796351909637451171875">
        <ele>2159.800048828125</ele>
        <time>2026-06-20T10:20:54.000Z</time>
        <extensions>
          <ns3:TrackPointExtension>
            <ns3:atemp>23.0</ns3:atemp>
          </ns3:TrackPointExtension>
        </extensions>
      </trkpt>
      <trkpt lat="42.51471399329602718353271484375" lon="20.1513127796351909637451171875">
        <ele>2159.800048828125</ele>
        <time>2026-06-20T10:20:55.000Z</time>
        <extensions>
          <ns3:TrackPointExtension>
            <ns3:atemp>23.0</ns3:atemp>
          </ns3:TrackPointExtension>
        </extensions>
      </trkpt>
      <trkpt lat="42.51471399329602718353271484375" lon="20.1513127796351909637451171875">
        <ele>2159.800048828125</ele>
        <time>2026-06-20T10:20:56.000Z</time>
        <extensions>
          <ns3:TrackPointExtension>
            <ns3:atemp>23.0</ns3:atemp>
          </ns3:TrackPointExtension>
        </extensions>
      </trkpt>
      <trkpt lat="42.51471399329602718353271484375" lon="20.1513127796351909637451171875">
        <ele>2159.800048828125</ele>
        <time>2026-06-20T10:20:57.000Z</time>
        <extensions>
          <ns3:TrackPointExtension>
            <ns3:atemp>23.0</ns3:atemp>
          </ns3:TrackPointExtension>
        </extensions>
      </trkpt>
      <trkpt lat="42.51471399329602718353271484375" lon="20.1513127796351909637451171875">
        <ele>2159.800048828125</ele>
        <time>2026-06-20T10:20:58.000Z</time>
        <extensions>
          <ns3:TrackPointExtension>
            <ns3:atemp>23.0</ns3:atemp>
          </ns3:TrackPointExtension>
        </extensions>
      </trkpt>
      <trkpt lat="42.51471399329602718353271484375" lon="20.1513127796351909637451171875">
        <ele>2159.800048828125</ele>
        <time>2026-06-20T10:20:59.000Z</time>
        <extensions>
          <ns3:TrackPointExtension>
            <ns3:atemp>23.0</ns3:atemp>
          </ns3:TrackPointExtension>
        </extensions>
      </trkpt>
      <trkpt lat="42.51471399329602718353271484375" lon="20.1513127796351909637451171875">
        <ele>2159.800048828125</ele>
        <time>2026-06-20T10:21:00.000Z</time>
        <extensions>
          <ns3:TrackPointExtension>
            <ns3:atemp>23.0</ns3:atemp>
          </ns3:TrackPointExtension>
        </extensions>
      </trkpt>
      <trkpt lat="42.51471399329602718353271484375" lon="20.1513127796351909637451171875">
        <ele>2159.800048828125</ele>
        <time>2026-06-20T10:21:01.000Z</time>
        <extensions>
          <ns3:TrackPointExtension>
            <ns3:atemp>23.0</ns3:atemp>
          </ns3:TrackPointExtension>
        </extensions>
      </trkpt>
      <trkpt lat="42.51471399329602718353271484375" lon="20.1513127796351909637451171875">
        <ele>2159.800048828125</ele>
        <time>2026-06-20T10:21:02.000Z</time>
        <extensions>
          <ns3:TrackPointExtension>
            <ns3:atemp>23.0</ns3:atemp>
          </ns3:TrackPointExtension>
        </extensions>
      </trkpt>
      <trkpt lat="42.51471399329602718353271484375" lon="20.1513127796351909637451171875">
        <ele>2159.800048828125</ele>
        <time>2026-06-20T10:21:03.000Z</time>
        <extensions>
          <ns3:TrackPointExtension>
            <ns3:atemp>23.0</ns3:atemp>
          </ns3:TrackPointExtension>
        </extensions>
      </trkpt>
      <trkpt lat="42.51471399329602718353271484375" lon="20.1513127796351909637451171875">
        <ele>2159.800048828125</ele>
        <time>2026-06-20T10:21:04.000Z</time>
        <extensions>
          <ns3:TrackPointExtension>
            <ns3:atemp>23.0</ns3:atemp>
          </ns3:TrackPointExtension>
        </extensions>
      </trkpt>
      <trkpt lat="42.51471399329602718353271484375" lon="20.1513127796351909637451171875">
        <ele>2159.800048828125</ele>
        <time>2026-06-20T10:21:05.000Z</time>
        <extensions>
          <ns3:TrackPointExtension>
            <ns3:atemp>23.0</ns3:atemp>
          </ns3:TrackPointExtension>
        </extensions>
      </trkpt>
      <trkpt lat="42.51471399329602718353271484375" lon="20.1513127796351909637451171875">
        <ele>2159.800048828125</ele>
        <time>2026-06-20T10:21:06.000Z</time>
        <extensions>
          <ns3:TrackPointExtension>
            <ns3:atemp>23.0</ns3:atemp>
          </ns3:TrackPointExtension>
        </extensions>
      </trkpt>
      <trkpt lat="42.51471399329602718353271484375" lon="20.1513127796351909637451171875">
        <ele>2159.800048828125</ele>
        <time>2026-06-20T10:21:07.000Z</time>
        <extensions>
          <ns3:TrackPointExtension>
            <ns3:atemp>23.0</ns3:atemp>
          </ns3:TrackPointExtension>
        </extensions>
      </trkpt>
      <trkpt lat="42.51471399329602718353271484375" lon="20.1513127796351909637451171875">
        <ele>2159.800048828125</ele>
        <time>2026-06-20T10:21:08.000Z</time>
        <extensions>
          <ns3:TrackPointExtension>
            <ns3:atemp>23.0</ns3:atemp>
          </ns3:TrackPointExtension>
        </extensions>
      </trkpt>
      <trkpt lat="42.51471399329602718353271484375" lon="20.1513127796351909637451171875">
        <ele>2159.800048828125</ele>
        <time>2026-06-20T10:21:09.000Z</time>
        <extensions>
          <ns3:TrackPointExtension>
            <ns3:atemp>23.0</ns3:atemp>
          </ns3:TrackPointExtension>
        </extensions>
      </trkpt>
      <trkpt lat="42.51471399329602718353271484375" lon="20.1513127796351909637451171875">
        <ele>2159.800048828125</ele>
        <time>2026-06-20T10:21:10.000Z</time>
        <extensions>
          <ns3:TrackPointExtension>
            <ns3:atemp>23.0</ns3:atemp>
          </ns3:TrackPointExtension>
        </extensions>
      </trkpt>
      <trkpt lat="42.51471399329602718353271484375" lon="20.1513127796351909637451171875">
        <ele>2159.800048828125</ele>
        <time>2026-06-20T10:21:11.000Z</time>
        <extensions>
          <ns3:TrackPointExtension>
            <ns3:atemp>23.0</ns3:atemp>
          </ns3:TrackPointExtension>
        </extensions>
      </trkpt>
      <trkpt lat="42.51471399329602718353271484375" lon="20.1513127796351909637451171875">
        <ele>2159.800048828125</ele>
        <time>2026-06-20T10:21:12.000Z</time>
        <extensions>
          <ns3:TrackPointExtension>
            <ns3:atemp>23.0</ns3:atemp>
          </ns3:TrackPointExtension>
        </extensions>
      </trkpt>
      <trkpt lat="42.51471399329602718353271484375" lon="20.1513127796351909637451171875">
        <ele>2159.800048828125</ele>
        <time>2026-06-20T10:21:13.000Z</time>
        <extensions>
          <ns3:TrackPointExtension>
            <ns3:atemp>23.0</ns3:atemp>
          </ns3:TrackPointExtension>
        </extensions>
      </trkpt>
      <trkpt lat="42.51471399329602718353271484375" lon="20.1513127796351909637451171875">
        <ele>2159.800048828125</ele>
        <time>2026-06-20T10:21:14.000Z</time>
        <extensions>
          <ns3:TrackPointExtension>
            <ns3:atemp>23.0</ns3:atemp>
          </ns3:TrackPointExtension>
        </extensions>
      </trkpt>
      <trkpt lat="42.51471399329602718353271484375" lon="20.1513127796351909637451171875">
        <ele>2159.800048828125</ele>
        <time>2026-06-20T10:21:15.000Z</time>
        <extensions>
          <ns3:TrackPointExtension>
            <ns3:atemp>23.0</ns3:atemp>
          </ns3:TrackPointExtension>
        </extensions>
      </trkpt>
      <trkpt lat="42.51471399329602718353271484375" lon="20.1513127796351909637451171875">
        <ele>2159.800048828125</ele>
        <time>2026-06-20T10:21:16.000Z</time>
        <extensions>
          <ns3:TrackPointExtension>
            <ns3:atemp>23.0</ns3:atemp>
          </ns3:TrackPointExtension>
        </extensions>
      </trkpt>
      <trkpt lat="42.51471399329602718353271484375" lon="20.1513127796351909637451171875">
        <ele>2159.800048828125</ele>
        <time>2026-06-20T10:21:17.000Z</time>
        <extensions>
          <ns3:TrackPointExtension>
            <ns3:atemp>23.0</ns3:atemp>
          </ns3:TrackPointExtension>
        </extensions>
      </trkpt>
      <trkpt lat="42.51471399329602718353271484375" lon="20.1513127796351909637451171875">
        <ele>2159.800048828125</ele>
        <time>2026-06-20T10:21:18.000Z</time>
        <extensions>
          <ns3:TrackPointExtension>
            <ns3:atemp>23.0</ns3:atemp>
          </ns3:TrackPointExtension>
        </extensions>
      </trkpt>
      <trkpt lat="42.51471399329602718353271484375" lon="20.1513127796351909637451171875">
        <ele>2159.800048828125</ele>
        <time>2026-06-20T10:21:19.000Z</time>
        <extensions>
          <ns3:TrackPointExtension>
            <ns3:atemp>23.0</ns3:atemp>
          </ns3:TrackPointExtension>
        </extensions>
      </trkpt>
      <trkpt lat="42.51471399329602718353271484375" lon="20.1513127796351909637451171875">
        <ele>2159.800048828125</ele>
        <time>2026-06-20T10:21:20.000Z</time>
        <extensions>
          <ns3:TrackPointExtension>
            <ns3:atemp>23.0</ns3:atemp>
          </ns3:TrackPointExtension>
        </extensions>
      </trkpt>
      <trkpt lat="42.51471399329602718353271484375" lon="20.1513127796351909637451171875">
        <ele>2159.800048828125</ele>
        <time>2026-06-20T10:21:21.000Z</time>
        <extensions>
          <ns3:TrackPointExtension>
            <ns3:atemp>23.0</ns3:atemp>
          </ns3:TrackPointExtension>
        </extensions>
      </trkpt>
      <trkpt lat="42.51471399329602718353271484375" lon="20.1513127796351909637451171875">
        <ele>2159.800048828125</ele>
        <time>2026-06-20T10:21:22.000Z</time>
        <extensions>
          <ns3:TrackPointExtension>
            <ns3:atemp>23.0</ns3:atemp>
          </ns3:TrackPointExtension>
        </extensions>
      </trkpt>
      <trkpt lat="42.51471399329602718353271484375" lon="20.1513127796351909637451171875">
        <ele>2159.800048828125</ele>
        <time>2026-06-20T10:21:23.000Z</time>
        <extensions>
          <ns3:TrackPointExtension>
            <ns3:atemp>23.0</ns3:atemp>
          </ns3:TrackPointExtension>
        </extensions>
      </trkpt>
      <trkpt lat="42.51471399329602718353271484375" lon="20.1513127796351909637451171875">
        <ele>2159.800048828125</ele>
        <time>2026-06-20T10:21:24.000Z</time>
        <extensions>
          <ns3:TrackPointExtension>
            <ns3:atemp>23.0</ns3:atemp>
          </ns3:TrackPointExtension>
        </extensions>
      </trkpt>
      <trkpt lat="42.51471399329602718353271484375" lon="20.1513127796351909637451171875">
        <ele>2159.800048828125</ele>
        <time>2026-06-20T10:21:25.000Z</time>
        <extensions>
          <ns3:TrackPointExtension>
            <ns3:atemp>23.0</ns3:atemp>
          </ns3:TrackPointExtension>
        </extensions>
      </trkpt>
      <trkpt lat="42.51471399329602718353271484375" lon="20.1513127796351909637451171875">
        <ele>2159.800048828125</ele>
        <time>2026-06-20T10:21:26.000Z</time>
        <extensions>
          <ns3:TrackPointExtension>
            <ns3:atemp>23.0</ns3:atemp>
          </ns3:TrackPointExtension>
        </extensions>
      </trkpt>
      <trkpt lat="42.51471399329602718353271484375" lon="20.1513127796351909637451171875">
        <ele>2159.800048828125</ele>
        <time>2026-06-20T10:21:27.000Z</time>
        <extensions>
          <ns3:TrackPointExtension>
            <ns3:atemp>23.0</ns3:atemp>
          </ns3:TrackPointExtension>
        </extensions>
      </trkpt>
      <trkpt lat="42.51471399329602718353271484375" lon="20.1513127796351909637451171875">
        <ele>2159.800048828125</ele>
        <time>2026-06-20T10:21:28.000Z</time>
        <extensions>
          <ns3:TrackPointExtension>
            <ns3:atemp>23.0</ns3:atemp>
          </ns3:TrackPointExtension>
        </extensions>
      </trkpt>
      <trkpt lat="42.51471399329602718353271484375" lon="20.1513127796351909637451171875">
        <ele>2159.800048828125</ele>
        <time>2026-06-20T10:21:29.000Z</time>
        <extensions>
          <ns3:TrackPointExtension>
            <ns3:atemp>23.0</ns3:atemp>
          </ns3:TrackPointExtension>
        </extensions>
      </trkpt>
      <trkpt lat="42.51471399329602718353271484375" lon="20.1513127796351909637451171875">
        <ele>2159.800048828125</ele>
        <time>2026-06-20T10:21:30.000Z</time>
        <extensions>
          <ns3:TrackPointExtension>
            <ns3:atemp>23.0</ns3:atemp>
          </ns3:TrackPointExtension>
        </extensions>
      </trkpt>
      <trkpt lat="42.51471399329602718353271484375" lon="20.1513127796351909637451171875">
        <ele>2159.800048828125</ele>
        <time>2026-06-20T10:21:31.000Z</time>
        <extensions>
          <ns3:TrackPointExtension>
            <ns3:atemp>23.0</ns3:atemp>
          </ns3:TrackPointExtension>
        </extensions>
      </trkpt>
      <trkpt lat="42.51471399329602718353271484375" lon="20.1513127796351909637451171875">
        <ele>2159.800048828125</ele>
        <time>2026-06-20T10:21:32.000Z</time>
        <extensions>
          <ns3:TrackPointExtension>
            <ns3:atemp>23.0</ns3:atemp>
          </ns3:TrackPointExtension>
        </extensions>
      </trkpt>
      <trkpt lat="42.51471399329602718353271484375" lon="20.1513127796351909637451171875">
        <ele>2159.800048828125</ele>
        <time>2026-06-20T10:21:33.000Z</time>
        <extensions>
          <ns3:TrackPointExtension>
            <ns3:atemp>23.0</ns3:atemp>
          </ns3:TrackPointExtension>
        </extensions>
      </trkpt>
      <trkpt lat="42.51471399329602718353271484375" lon="20.1513127796351909637451171875">
        <ele>2159.800048828125</ele>
        <time>2026-06-20T10:21:34.000Z</time>
        <extensions>
          <ns3:TrackPointExtension>
            <ns3:atemp>23.0</ns3:atemp>
          </ns3:TrackPointExtension>
        </extensions>
      </trkpt>
      <trkpt lat="42.51471399329602718353271484375" lon="20.1513127796351909637451171875">
        <ele>2159.800048828125</ele>
        <time>2026-06-20T10:21:35.000Z</time>
        <extensions>
          <ns3:TrackPointExtension>
            <ns3:atemp>23.0</ns3:atemp>
          </ns3:TrackPointExtension>
        </extensions>
      </trkpt>
      <trkpt lat="42.51471399329602718353271484375" lon="20.1513127796351909637451171875">
        <ele>2159.800048828125</ele>
        <time>2026-06-20T10:21:36.000Z</time>
        <extensions>
          <ns3:TrackPointExtension>
            <ns3:atemp>23.0</ns3:atemp>
          </ns3:TrackPointExtension>
        </extensions>
      </trkpt>
      <trkpt lat="42.51471399329602718353271484375" lon="20.1513127796351909637451171875">
        <ele>2159.800048828125</ele>
        <time>2026-06-20T10:21:37.000Z</time>
        <extensions>
          <ns3:TrackPointExtension>
            <ns3:atemp>23.0</ns3:atemp>
          </ns3:TrackPointExtension>
        </extensions>
      </trkpt>
      <trkpt lat="42.51471399329602718353271484375" lon="20.1513127796351909637451171875">
        <ele>2159.800048828125</ele>
        <time>2026-06-20T10:21:38.000Z</time>
        <extensions>
          <ns3:TrackPointExtension>
            <ns3:atemp>23.0</ns3:atemp>
          </ns3:TrackPointExtension>
        </extensions>
      </trkpt>
      <trkpt lat="42.51471399329602718353271484375" lon="20.1513127796351909637451171875">
        <ele>2159.800048828125</ele>
        <time>2026-06-20T10:21:39.000Z</time>
        <extensions>
          <ns3:TrackPointExtension>
            <ns3:atemp>23.0</ns3:atemp>
          </ns3:TrackPointExtension>
        </extensions>
      </trkpt>
      <trkpt lat="42.51471399329602718353271484375" lon="20.1513127796351909637451171875">
        <ele>2159.800048828125</ele>
        <time>2026-06-20T10:21:40.000Z</time>
        <extensions>
          <ns3:TrackPointExtension>
            <ns3:atemp>23.0</ns3:atemp>
          </ns3:TrackPointExtension>
        </extensions>
      </trkpt>
      <trkpt lat="42.51471399329602718353271484375" lon="20.1513127796351909637451171875">
        <ele>2159.800048828125</ele>
        <time>2026-06-20T10:21:41.000Z</time>
        <extensions>
          <ns3:TrackPointExtension>
            <ns3:atemp>23.0</ns3:atemp>
          </ns3:TrackPointExtension>
        </extensions>
      </trkpt>
      <trkpt lat="42.51471399329602718353271484375" lon="20.1513127796351909637451171875">
        <ele>2159.800048828125</ele>
        <time>2026-06-20T10:21:42.000Z</time>
        <extensions>
          <ns3:TrackPointExtension>
            <ns3:atemp>23.0</ns3:atemp>
          </ns3:TrackPointExtension>
        </extensions>
      </trkpt>
      <trkpt lat="42.51471399329602718353271484375" lon="20.1513127796351909637451171875">
        <ele>2159.800048828125</ele>
        <time>2026-06-20T10:21:43.000Z</time>
        <extensions>
          <ns3:TrackPointExtension>
            <ns3:atemp>23.0</ns3:atemp>
          </ns3:TrackPointExtension>
        </extensions>
      </trkpt>
      <trkpt lat="42.51471399329602718353271484375" lon="20.1513127796351909637451171875">
        <ele>2159.800048828125</ele>
        <time>2026-06-20T10:21:44.000Z</time>
        <extensions>
          <ns3:TrackPointExtension>
            <ns3:atemp>23.0</ns3:atemp>
          </ns3:TrackPointExtension>
        </extensions>
      </trkpt>
      <trkpt lat="42.51471399329602718353271484375" lon="20.1513127796351909637451171875">
        <ele>2159.800048828125</ele>
        <time>2026-06-20T10:21:45.000Z</time>
        <extensions>
          <ns3:TrackPointExtension>
            <ns3:atemp>23.0</ns3:atemp>
          </ns3:TrackPointExtension>
        </extensions>
      </trkpt>
      <trkpt lat="42.51471399329602718353271484375" lon="20.1513127796351909637451171875">
        <ele>2159.800048828125</ele>
        <time>2026-06-20T10:21:46.000Z</time>
        <extensions>
          <ns3:TrackPointExtension>
            <ns3:atemp>23.0</ns3:atemp>
          </ns3:TrackPointExtension>
        </extensions>
      </trkpt>
      <trkpt lat="42.51471399329602718353271484375" lon="20.1513127796351909637451171875">
        <ele>2159.800048828125</ele>
        <time>2026-06-20T10:21:47.000Z</time>
        <extensions>
          <ns3:TrackPointExtension>
            <ns3:atemp>23.0</ns3:atemp>
          </ns3:TrackPointExtension>
        </extensions>
      </trkpt>
      <trkpt lat="42.51471399329602718353271484375" lon="20.1513127796351909637451171875">
        <ele>2159.800048828125</ele>
        <time>2026-06-20T10:21:48.000Z</time>
        <extensions>
          <ns3:TrackPointExtension>
            <ns3:atemp>23.0</ns3:atemp>
          </ns3:TrackPointExtension>
        </extensions>
      </trkpt>
      <trkpt lat="42.51471399329602718353271484375" lon="20.1513127796351909637451171875">
        <ele>2159.800048828125</ele>
        <time>2026-06-20T10:21:49.000Z</time>
        <extensions>
          <ns3:TrackPointExtension>
            <ns3:atemp>23.0</ns3:atemp>
          </ns3:TrackPointExtension>
        </extensions>
      </trkpt>
      <trkpt lat="42.51471399329602718353271484375" lon="20.1513127796351909637451171875">
        <ele>2159.800048828125</ele>
        <time>2026-06-20T10:21:50.000Z</time>
        <extensions>
          <ns3:TrackPointExtension>
            <ns3:atemp>23.0</ns3:atemp>
          </ns3:TrackPointExtension>
        </extensions>
      </trkpt>
      <trkpt lat="42.51471399329602718353271484375" lon="20.1513127796351909637451171875">
        <ele>2159.800048828125</ele>
        <time>2026-06-20T10:21:51.000Z</time>
        <extensions>
          <ns3:TrackPointExtension>
            <ns3:atemp>23.0</ns3:atemp>
          </ns3:TrackPointExtension>
        </extensions>
      </trkpt>
      <trkpt lat="42.51471399329602718353271484375" lon="20.1513127796351909637451171875">
        <ele>2159.800048828125</ele>
        <time>2026-06-20T10:21:52.000Z</time>
        <extensions>
          <ns3:TrackPointExtension>
            <ns3:atemp>23.0</ns3:atemp>
          </ns3:TrackPointExtension>
        </extensions>
      </trkpt>
      <trkpt lat="42.51471399329602718353271484375" lon="20.1513127796351909637451171875">
        <ele>2159.800048828125</ele>
        <time>2026-06-20T10:21:53.000Z</time>
        <extensions>
          <ns3:TrackPointExtension>
            <ns3:atemp>23.0</ns3:atemp>
          </ns3:TrackPointExtension>
        </extensions>
      </trkpt>
      <trkpt lat="42.51471399329602718353271484375" lon="20.1513127796351909637451171875">
        <ele>2159.800048828125</ele>
        <time>2026-06-20T10:21:54.000Z</time>
        <extensions>
          <ns3:TrackPointExtension>
            <ns3:atemp>23.0</ns3:atemp>
          </ns3:TrackPointExtension>
        </extensions>
      </trkpt>
      <trkpt lat="42.51471399329602718353271484375" lon="20.1513127796351909637451171875">
        <ele>2159.800048828125</ele>
        <time>2026-06-20T10:21:55.000Z</time>
        <extensions>
          <ns3:TrackPointExtension>
            <ns3:atemp>23.0</ns3:atemp>
          </ns3:TrackPointExtension>
        </extensions>
      </trkpt>
      <trkpt lat="42.51471399329602718353271484375" lon="20.1513127796351909637451171875">
        <ele>2159.800048828125</ele>
        <time>2026-06-20T10:21:56.000Z</time>
        <extensions>
          <ns3:TrackPointExtension>
            <ns3:atemp>23.0</ns3:atemp>
          </ns3:TrackPointExtension>
        </extensions>
      </trkpt>
      <trkpt lat="42.51471399329602718353271484375" lon="20.1513127796351909637451171875">
        <ele>2159.800048828125</ele>
        <time>2026-06-20T10:21:57.000Z</time>
        <extensions>
          <ns3:TrackPointExtension>
            <ns3:atemp>23.0</ns3:atemp>
          </ns3:TrackPointExtension>
        </extensions>
      </trkpt>
      <trkpt lat="42.51471399329602718353271484375" lon="20.1513127796351909637451171875">
        <ele>2159.800048828125</ele>
        <time>2026-06-20T10:21:58.000Z</time>
        <extensions>
          <ns3:TrackPointExtension>
            <ns3:atemp>23.0</ns3:atemp>
          </ns3:TrackPointExtension>
        </extensions>
      </trkpt>
      <trkpt lat="42.51471399329602718353271484375" lon="20.1513127796351909637451171875">
        <ele>2159.800048828125</ele>
        <time>2026-06-20T10:21:59.000Z</time>
        <extensions>
          <ns3:TrackPointExtension>
            <ns3:atemp>23.0</ns3:atemp>
          </ns3:TrackPointExtension>
        </extensions>
      </trkpt>
      <trkpt lat="42.51471399329602718353271484375" lon="20.1513127796351909637451171875">
        <ele>2159.800048828125</ele>
        <time>2026-06-20T10:22:00.000Z</time>
        <extensions>
          <ns3:TrackPointExtension>
            <ns3:atemp>23.0</ns3:atemp>
          </ns3:TrackPointExtension>
        </extensions>
      </trkpt>
      <trkpt lat="42.51471399329602718353271484375" lon="20.1513127796351909637451171875">
        <ele>2159.800048828125</ele>
        <time>2026-06-20T10:22:01.000Z</time>
        <extensions>
          <ns3:TrackPointExtension>
            <ns3:atemp>23.0</ns3:atemp>
          </ns3:TrackPointExtension>
        </extensions>
      </trkpt>
      <trkpt lat="42.51471399329602718353271484375" lon="20.1513127796351909637451171875">
        <ele>2159.800048828125</ele>
        <time>2026-06-20T10:22:02.000Z</time>
        <extensions>
          <ns3:TrackPointExtension>
            <ns3:atemp>23.0</ns3:atemp>
          </ns3:TrackPointExtension>
        </extensions>
      </trkpt>
      <trkpt lat="42.51471399329602718353271484375" lon="20.1513127796351909637451171875">
        <ele>2159.800048828125</ele>
        <time>2026-06-20T10:22:03.000Z</time>
        <extensions>
          <ns3:TrackPointExtension>
            <ns3:atemp>23.0</ns3:atemp>
          </ns3:TrackPointExtension>
        </extensions>
      </trkpt>
      <trkpt lat="42.51471399329602718353271484375" lon="20.1513127796351909637451171875">
        <ele>2159.800048828125</ele>
        <time>2026-06-20T10:22:04.000Z</time>
        <extensions>
          <ns3:TrackPointExtension>
            <ns3:atemp>23.0</ns3:atemp>
          </ns3:TrackPointExtension>
        </extensions>
      </trkpt>
      <trkpt lat="42.51471399329602718353271484375" lon="20.1513127796351909637451171875">
        <ele>2159.800048828125</ele>
        <time>2026-06-20T10:22:05.000Z</time>
        <extensions>
          <ns3:TrackPointExtension>
            <ns3:atemp>23.0</ns3:atemp>
          </ns3:TrackPointExtension>
        </extensions>
      </trkpt>
      <trkpt lat="42.51471399329602718353271484375" lon="20.1513127796351909637451171875">
        <ele>2159.800048828125</ele>
        <time>2026-06-20T10:22:06.000Z</time>
        <extensions>
          <ns3:TrackPointExtension>
            <ns3:atemp>23.0</ns3:atemp>
          </ns3:TrackPointExtension>
        </extensions>
      </trkpt>
      <trkpt lat="42.51471399329602718353271484375" lon="20.1513127796351909637451171875">
        <ele>2159.800048828125</ele>
        <time>2026-06-20T10:22:07.000Z</time>
        <extensions>
          <ns3:TrackPointExtension>
            <ns3:atemp>23.0</ns3:atemp>
          </ns3:TrackPointExtension>
        </extensions>
      </trkpt>
      <trkpt lat="42.51471399329602718353271484375" lon="20.1513127796351909637451171875">
        <ele>2159.800048828125</ele>
        <time>2026-06-20T10:22:08.000Z</time>
        <extensions>
          <ns3:TrackPointExtension>
            <ns3:atemp>23.0</ns3:atemp>
          </ns3:TrackPointExtension>
        </extensions>
      </trkpt>
      <trkpt lat="42.51471399329602718353271484375" lon="20.1513127796351909637451171875">
        <ele>2159.800048828125</ele>
        <time>2026-06-20T10:22:09.000Z</time>
        <extensions>
          <ns3:TrackPointExtension>
            <ns3:atemp>23.0</ns3:atemp>
          </ns3:TrackPointExtension>
        </extensions>
      </trkpt>
      <trkpt lat="42.51471399329602718353271484375" lon="20.1513127796351909637451171875">
        <ele>2159.800048828125</ele>
        <time>2026-06-20T10:22:10.000Z</time>
        <extensions>
          <ns3:TrackPointExtension>
            <ns3:atemp>23.0</ns3:atemp>
          </ns3:TrackPointExtension>
        </extensions>
      </trkpt>
      <trkpt lat="42.51471399329602718353271484375" lon="20.1513127796351909637451171875">
        <ele>2159.800048828125</ele>
        <time>2026-06-20T10:22:11.000Z</time>
        <extensions>
          <ns3:TrackPointExtension>
            <ns3:atemp>23.0</ns3:atemp>
          </ns3:TrackPointExtension>
        </extensions>
      </trkpt>
      <trkpt lat="42.51471399329602718353271484375" lon="20.1513127796351909637451171875">
        <ele>2159.800048828125</ele>
        <time>2026-06-20T10:22:12.000Z</time>
        <extensions>
          <ns3:TrackPointExtension>
            <ns3:atemp>23.0</ns3:atemp>
          </ns3:TrackPointExtension>
        </extensions>
      </trkpt>
      <trkpt lat="42.51471399329602718353271484375" lon="20.1513127796351909637451171875">
        <ele>2159.800048828125</ele>
        <time>2026-06-20T10:22:13.000Z</time>
        <extensions>
          <ns3:TrackPointExtension>
            <ns3:atemp>23.0</ns3:atemp>
          </ns3:TrackPointExtension>
        </extensions>
      </trkpt>
      <trkpt lat="42.51471399329602718353271484375" lon="20.1513127796351909637451171875">
        <ele>2159.800048828125</ele>
        <time>2026-06-20T10:22:14.000Z</time>
        <extensions>
          <ns3:TrackPointExtension>
            <ns3:atemp>23.0</ns3:atemp>
          </ns3:TrackPointExtension>
        </extensions>
      </trkpt>
      <trkpt lat="42.51471399329602718353271484375" lon="20.1513127796351909637451171875">
        <ele>2159.800048828125</ele>
        <time>2026-06-20T10:22:15.000Z</time>
        <extensions>
          <ns3:TrackPointExtension>
            <ns3:atemp>23.0</ns3:atemp>
          </ns3:TrackPointExtension>
        </extensions>
      </trkpt>
      <trkpt lat="42.51471399329602718353271484375" lon="20.1513127796351909637451171875">
        <ele>2159.800048828125</ele>
        <time>2026-06-20T10:22:16.000Z</time>
        <extensions>
          <ns3:TrackPointExtension>
            <ns3:atemp>23.0</ns3:atemp>
          </ns3:TrackPointExtension>
        </extensions>
      </trkpt>
      <trkpt lat="42.51471399329602718353271484375" lon="20.1513127796351909637451171875">
        <ele>2159.800048828125</ele>
        <time>2026-06-20T10:22:17.000Z</time>
        <extensions>
          <ns3:TrackPointExtension>
            <ns3:atemp>23.0</ns3:atemp>
          </ns3:TrackPointExtension>
        </extensions>
      </trkpt>
      <trkpt lat="42.51471399329602718353271484375" lon="20.1513127796351909637451171875">
        <ele>2159.800048828125</ele>
        <time>2026-06-20T10:22:18.000Z</time>
        <extensions>
          <ns3:TrackPointExtension>
            <ns3:atemp>23.0</ns3:atemp>
          </ns3:TrackPointExtension>
        </extensions>
      </trkpt>
      <trkpt lat="42.51471399329602718353271484375" lon="20.1513127796351909637451171875">
        <ele>2159.800048828125</ele>
        <time>2026-06-20T10:22:19.000Z</time>
        <extensions>
          <ns3:TrackPointExtension>
            <ns3:atemp>23.0</ns3:atemp>
          </ns3:TrackPointExtension>
        </extensions>
      </trkpt>
      <trkpt lat="42.51471399329602718353271484375" lon="20.1513127796351909637451171875">
        <ele>2159.800048828125</ele>
        <time>2026-06-20T10:22:20.000Z</time>
        <extensions>
          <ns3:TrackPointExtension>
            <ns3:atemp>23.0</ns3:atemp>
          </ns3:TrackPointExtension>
        </extensions>
      </trkpt>
      <trkpt lat="42.51471399329602718353271484375" lon="20.1513127796351909637451171875">
        <ele>2159.800048828125</ele>
        <time>2026-06-20T10:22:21.000Z</time>
        <extensions>
          <ns3:TrackPointExtension>
            <ns3:atemp>23.0</ns3:atemp>
          </ns3:TrackPointExtension>
        </extensions>
      </trkpt>
      <trkpt lat="42.51471399329602718353271484375" lon="20.1513127796351909637451171875">
        <ele>2159.800048828125</ele>
        <time>2026-06-20T10:22:22.000Z</time>
        <extensions>
          <ns3:TrackPointExtension>
            <ns3:atemp>23.0</ns3:atemp>
          </ns3:TrackPointExtension>
        </extensions>
      </trkpt>
      <trkpt lat="42.51471399329602718353271484375" lon="20.1513127796351909637451171875">
        <ele>2159.800048828125</ele>
        <time>2026-06-20T10:22:23.000Z</time>
        <extensions>
          <ns3:TrackPointExtension>
            <ns3:atemp>23.0</ns3:atemp>
          </ns3:TrackPointExtension>
        </extensions>
      </trkpt>
      <trkpt lat="42.51471399329602718353271484375" lon="20.1513127796351909637451171875">
        <ele>2159.800048828125</ele>
        <time>2026-06-20T10:22:24.000Z</time>
        <extensions>
          <ns3:TrackPointExtension>
            <ns3:atemp>23.0</ns3:atemp>
          </ns3:TrackPointExtension>
        </extensions>
      </trkpt>
      <trkpt lat="42.51471399329602718353271484375" lon="20.1513127796351909637451171875">
        <ele>2159.800048828125</ele>
        <time>2026-06-20T10:22:25.000Z</time>
        <extensions>
          <ns3:TrackPointExtension>
            <ns3:atemp>23.0</ns3:atemp>
          </ns3:TrackPointExtension>
        </extensions>
      </trkpt>
      <trkpt lat="42.51471399329602718353271484375" lon="20.1513127796351909637451171875">
        <ele>2159.800048828125</ele>
        <time>2026-06-20T10:22:26.000Z</time>
        <extensions>
          <ns3:TrackPointExtension>
            <ns3:atemp>23.0</ns3:atemp>
          </ns3:TrackPointExtension>
        </extensions>
      </trkpt>
      <trkpt lat="42.51471399329602718353271484375" lon="20.1513127796351909637451171875">
        <ele>2159.800048828125</ele>
        <time>2026-06-20T10:22:27.000Z</time>
        <extensions>
          <ns3:TrackPointExtension>
            <ns3:atemp>23.0</ns3:atemp>
          </ns3:TrackPointExtension>
        </extensions>
      </trkpt>
      <trkpt lat="42.51471399329602718353271484375" lon="20.1513127796351909637451171875">
        <ele>2159.800048828125</ele>
        <time>2026-06-20T10:22:28.000Z</time>
        <extensions>
          <ns3:TrackPointExtension>
            <ns3:atemp>23.0</ns3:atemp>
          </ns3:TrackPointExtension>
        </extensions>
      </trkpt>
      <trkpt lat="42.51471399329602718353271484375" lon="20.1513127796351909637451171875">
        <ele>2159.800048828125</ele>
        <time>2026-06-20T10:22:29.000Z</time>
        <extensions>
          <ns3:TrackPointExtension>
            <ns3:atemp>23.0</ns3:atemp>
          </ns3:TrackPointExtension>
        </extensions>
      </trkpt>
      <trkpt lat="42.51471399329602718353271484375" lon="20.1513127796351909637451171875">
        <ele>2159.800048828125</ele>
        <time>2026-06-20T10:22:30.000Z</time>
        <extensions>
          <ns3:TrackPointExtension>
            <ns3:atemp>23.0</ns3:atemp>
          </ns3:TrackPointExtension>
        </extensions>
      </trkpt>
      <trkpt lat="42.51471399329602718353271484375" lon="20.1513127796351909637451171875">
        <ele>2159.800048828125</ele>
        <time>2026-06-20T10:22:31.000Z</time>
        <extensions>
          <ns3:TrackPointExtension>
            <ns3:atemp>23.0</ns3:atemp>
          </ns3:TrackPointExtension>
        </extensions>
      </trkpt>
      <trkpt lat="42.51471399329602718353271484375" lon="20.1513127796351909637451171875">
        <ele>2159.800048828125</ele>
        <time>2026-06-20T10:22:32.000Z</time>
        <extensions>
          <ns3:TrackPointExtension>
            <ns3:atemp>23.0</ns3:atemp>
          </ns3:TrackPointExtension>
        </extensions>
      </trkpt>
      <trkpt lat="42.51471399329602718353271484375" lon="20.1513127796351909637451171875">
        <ele>2159.800048828125</ele>
        <time>2026-06-20T10:22:33.000Z</time>
        <extensions>
          <ns3:TrackPointExtension>
            <ns3:atemp>23.0</ns3:atemp>
          </ns3:TrackPointExtension>
        </extensions>
      </trkpt>
      <trkpt lat="42.51471399329602718353271484375" lon="20.1513127796351909637451171875">
        <ele>2159.800048828125</ele>
        <time>2026-06-20T10:22:34.000Z</time>
        <extensions>
          <ns3:TrackPointExtension>
            <ns3:atemp>23.0</ns3:atemp>
          </ns3:TrackPointExtension>
        </extensions>
      </trkpt>
      <trkpt lat="42.51471399329602718353271484375" lon="20.1513127796351909637451171875">
        <ele>2159.800048828125</ele>
        <time>2026-06-20T10:22:35.000Z</time>
        <extensions>
          <ns3:TrackPointExtension>
            <ns3:atemp>23.0</ns3:atemp>
          </ns3:TrackPointExtension>
        </extensions>
      </trkpt>
      <trkpt lat="42.51471399329602718353271484375" lon="20.1513127796351909637451171875">
        <ele>2159.800048828125</ele>
        <time>2026-06-20T10:22:36.000Z</time>
        <extensions>
          <ns3:TrackPointExtension>
            <ns3:atemp>23.0</ns3:atemp>
          </ns3:TrackPointExtension>
        </extensions>
      </trkpt>
      <trkpt lat="42.51471399329602718353271484375" lon="20.1513127796351909637451171875">
        <ele>2159.800048828125</ele>
        <time>2026-06-20T10:22:37.000Z</time>
        <extensions>
          <ns3:TrackPointExtension>
            <ns3:atemp>23.0</ns3:atemp>
          </ns3:TrackPointExtension>
        </extensions>
      </trkpt>
      <trkpt lat="42.51471399329602718353271484375" lon="20.1513127796351909637451171875">
        <ele>2159.800048828125</ele>
        <time>2026-06-20T10:22:38.000Z</time>
        <extensions>
          <ns3:TrackPointExtension>
            <ns3:atemp>23.0</ns3:atemp>
          </ns3:TrackPointExtension>
        </extensions>
      </trkpt>
      <trkpt lat="42.51471399329602718353271484375" lon="20.1513127796351909637451171875">
        <ele>2159.800048828125</ele>
        <time>2026-06-20T10:22:39.000Z</time>
        <extensions>
          <ns3:TrackPointExtension>
            <ns3:atemp>23.0</ns3:atemp>
          </ns3:TrackPointExtension>
        </extensions>
      </trkpt>
      <trkpt lat="42.51471399329602718353271484375" lon="20.1513127796351909637451171875">
        <ele>2159.800048828125</ele>
        <time>2026-06-20T10:22:40.000Z</time>
        <extensions>
          <ns3:TrackPointExtension>
            <ns3:atemp>23.0</ns3:atemp>
          </ns3:TrackPointExtension>
        </extensions>
      </trkpt>
      <trkpt lat="42.51471399329602718353271484375" lon="20.1513127796351909637451171875">
        <ele>2159.800048828125</ele>
        <time>2026-06-20T10:22:41.000Z</time>
        <extensions>
          <ns3:TrackPointExtension>
            <ns3:atemp>23.0</ns3:atemp>
          </ns3:TrackPointExtension>
        </extensions>
      </trkpt>
      <trkpt lat="42.51471399329602718353271484375" lon="20.1513127796351909637451171875">
        <ele>2159.800048828125</ele>
        <time>2026-06-20T10:22:42.000Z</time>
        <extensions>
          <ns3:TrackPointExtension>
            <ns3:atemp>23.0</ns3:atemp>
          </ns3:TrackPointExtension>
        </extensions>
      </trkpt>
      <trkpt lat="42.51471399329602718353271484375" lon="20.1513127796351909637451171875">
        <ele>2159.800048828125</ele>
        <time>2026-06-20T10:22:43.000Z</time>
        <extensions>
          <ns3:TrackPointExtension>
            <ns3:atemp>23.0</ns3:atemp>
          </ns3:TrackPointExtension>
        </extensions>
      </trkpt>
      <trkpt lat="42.51471399329602718353271484375" lon="20.1513127796351909637451171875">
        <ele>2159.800048828125</ele>
        <time>2026-06-20T10:22:44.000Z</time>
        <extensions>
          <ns3:TrackPointExtension>
            <ns3:atemp>23.0</ns3:atemp>
          </ns3:TrackPointExtension>
        </extensions>
      </trkpt>
      <trkpt lat="42.51471399329602718353271484375" lon="20.1513127796351909637451171875">
        <ele>2159.800048828125</ele>
        <time>2026-06-20T10:22:45.000Z</time>
        <extensions>
          <ns3:TrackPointExtension>
            <ns3:atemp>23.0</ns3:atemp>
          </ns3:TrackPointExtension>
        </extensions>
      </trkpt>
      <trkpt lat="42.51471399329602718353271484375" lon="20.1513127796351909637451171875">
        <ele>2159.800048828125</ele>
        <time>2026-06-20T10:22:46.000Z</time>
        <extensions>
          <ns3:TrackPointExtension>
            <ns3:atemp>23.0</ns3:atemp>
          </ns3:TrackPointExtension>
        </extensions>
      </trkpt>
      <trkpt lat="42.51471399329602718353271484375" lon="20.1513127796351909637451171875">
        <ele>2159.800048828125</ele>
        <time>2026-06-20T10:22:47.000Z</time>
        <extensions>
          <ns3:TrackPointExtension>
            <ns3:atemp>23.0</ns3:atemp>
          </ns3:TrackPointExtension>
        </extensions>
      </trkpt>
      <trkpt lat="42.51471399329602718353271484375" lon="20.1513127796351909637451171875">
        <ele>2159.800048828125</ele>
        <time>2026-06-20T10:22:48.000Z</time>
        <extensions>
          <ns3:TrackPointExtension>
            <ns3:atemp>23.0</ns3:atemp>
          </ns3:TrackPointExtension>
        </extensions>
      </trkpt>
      <trkpt lat="42.51471399329602718353271484375" lon="20.1513127796351909637451171875">
        <ele>2159.800048828125</ele>
        <time>2026-06-20T10:22:49.000Z</time>
        <extensions>
          <ns3:TrackPointExtension>
            <ns3:atemp>23.0</ns3:atemp>
          </ns3:TrackPointExtension>
        </extensions>
      </trkpt>
      <trkpt lat="42.51471399329602718353271484375" lon="20.1513127796351909637451171875">
        <ele>2159.800048828125</ele>
        <time>2026-06-20T10:22:50.000Z</time>
        <extensions>
          <ns3:TrackPointExtension>
            <ns3:atemp>23.0</ns3:atemp>
          </ns3:TrackPointExtension>
        </extensions>
      </trkpt>
      <trkpt lat="42.51471399329602718353271484375" lon="20.1513127796351909637451171875">
        <ele>2159.800048828125</ele>
        <time>2026-06-20T10:22:51.000Z</time>
        <extensions>
          <ns3:TrackPointExtension>
            <ns3:atemp>23.0</ns3:atemp>
          </ns3:TrackPointExtension>
        </extensions>
      </trkpt>
      <trkpt lat="42.51471399329602718353271484375" lon="20.1513127796351909637451171875">
        <ele>2159.800048828125</ele>
        <time>2026-06-20T10:22:52.000Z</time>
        <extensions>
          <ns3:TrackPointExtension>
            <ns3:atemp>23.0</ns3:atemp>
          </ns3:TrackPointExtension>
        </extensions>
      </trkpt>
      <trkpt lat="42.51471399329602718353271484375" lon="20.1513127796351909637451171875">
        <ele>2159.800048828125</ele>
        <time>2026-06-20T10:22:53.000Z</time>
        <extensions>
          <ns3:TrackPointExtension>
            <ns3:atemp>23.0</ns3:atemp>
          </ns3:TrackPointExtension>
        </extensions>
      </trkpt>
      <trkpt lat="42.51471399329602718353271484375" lon="20.1513127796351909637451171875">
        <ele>2159.800048828125</ele>
        <time>2026-06-20T10:22:54.000Z</time>
        <extensions>
          <ns3:TrackPointExtension>
            <ns3:atemp>23.0</ns3:atemp>
          </ns3:TrackPointExtension>
        </extensions>
      </trkpt>
      <trkpt lat="42.51471399329602718353271484375" lon="20.1513127796351909637451171875">
        <ele>2159.800048828125</ele>
        <time>2026-06-20T10:22:55.000Z</time>
        <extensions>
          <ns3:TrackPointExtension>
            <ns3:atemp>23.0</ns3:atemp>
          </ns3:TrackPointExtension>
        </extensions>
      </trkpt>
      <trkpt lat="42.51471399329602718353271484375" lon="20.1513127796351909637451171875">
        <ele>2159.800048828125</ele>
        <time>2026-06-20T10:22:56.000Z</time>
        <extensions>
          <ns3:TrackPointExtension>
            <ns3:atemp>23.0</ns3:atemp>
          </ns3:TrackPointExtension>
        </extensions>
      </trkpt>
      <trkpt lat="42.51471399329602718353271484375" lon="20.1513127796351909637451171875">
        <ele>2159.800048828125</ele>
        <time>2026-06-20T10:22:57.000Z</time>
        <extensions>
          <ns3:TrackPointExtension>
            <ns3:atemp>23.0</ns3:atemp>
          </ns3:TrackPointExtension>
        </extensions>
      </trkpt>
      <trkpt lat="42.51471399329602718353271484375" lon="20.1513127796351909637451171875">
        <ele>2159.800048828125</ele>
        <time>2026-06-20T10:22:58.000Z</time>
        <extensions>
          <ns3:TrackPointExtension>
            <ns3:atemp>23.0</ns3:atemp>
          </ns3:TrackPointExtension>
        </extensions>
      </trkpt>
      <trkpt lat="42.51471399329602718353271484375" lon="20.1513127796351909637451171875">
        <ele>2159.800048828125</ele>
        <time>2026-06-20T10:22:59.000Z</time>
        <extensions>
          <ns3:TrackPointExtension>
            <ns3:atemp>23.0</ns3:atemp>
          </ns3:TrackPointExtension>
        </extensions>
      </trkpt>
      <trkpt lat="42.51471399329602718353271484375" lon="20.1513127796351909637451171875">
        <ele>2159.800048828125</ele>
        <time>2026-06-20T10:23:00.000Z</time>
        <extensions>
          <ns3:TrackPointExtension>
            <ns3:atemp>23.0</ns3:atemp>
          </ns3:TrackPointExtension>
        </extensions>
      </trkpt>
      <trkpt lat="42.51471399329602718353271484375" lon="20.1513127796351909637451171875">
        <ele>2159.800048828125</ele>
        <time>2026-06-20T10:23:01.000Z</time>
        <extensions>
          <ns3:TrackPointExtension>
            <ns3:atemp>23.0</ns3:atemp>
          </ns3:TrackPointExtension>
        </extensions>
      </trkpt>
      <trkpt lat="42.51471399329602718353271484375" lon="20.1513127796351909637451171875">
        <ele>2159.800048828125</ele>
        <time>2026-06-20T10:23:02.000Z</time>
        <extensions>
          <ns3:TrackPointExtension>
            <ns3:atemp>23.0</ns3:atemp>
          </ns3:TrackPointExtension>
        </extensions>
      </trkpt>
      <trkpt lat="42.51471399329602718353271484375" lon="20.1513127796351909637451171875">
        <ele>2159.800048828125</ele>
        <time>2026-06-20T10:23:03.000Z</time>
        <extensions>
          <ns3:TrackPointExtension>
            <ns3:atemp>23.0</ns3:atemp>
          </ns3:TrackPointExtension>
        </extensions>
      </trkpt>
      <trkpt lat="42.51471399329602718353271484375" lon="20.1513127796351909637451171875">
        <ele>2159.800048828125</ele>
        <time>2026-06-20T10:23:04.000Z</time>
        <extensions>
          <ns3:TrackPointExtension>
            <ns3:atemp>23.0</ns3:atemp>
          </ns3:TrackPointExtension>
        </extensions>
      </trkpt>
      <trkpt lat="42.51471399329602718353271484375" lon="20.1513127796351909637451171875">
        <ele>2159.800048828125</ele>
        <time>2026-06-20T10:23:05.000Z</time>
        <extensions>
          <ns3:TrackPointExtension>
            <ns3:atemp>23.0</ns3:atemp>
          </ns3:TrackPointExtension>
        </extensions>
      </trkpt>
      <trkpt lat="42.51471399329602718353271484375" lon="20.1513127796351909637451171875">
        <ele>2159.800048828125</ele>
        <time>2026-06-20T10:23:06.000Z</time>
        <extensions>
          <ns3:TrackPointExtension>
            <ns3:atemp>23.0</ns3:atemp>
          </ns3:TrackPointExtension>
        </extensions>
      </trkpt>
      <trkpt lat="42.51471399329602718353271484375" lon="20.1513127796351909637451171875">
        <ele>2159.800048828125</ele>
        <time>2026-06-20T10:23:07.000Z</time>
        <extensions>
          <ns3:TrackPointExtension>
            <ns3:atemp>23.0</ns3:atemp>
          </ns3:TrackPointExtension>
        </extensions>
      </trkpt>
      <trkpt lat="42.51471399329602718353271484375" lon="20.1513127796351909637451171875">
        <ele>2159.800048828125</ele>
        <time>2026-06-20T10:23:08.000Z</time>
        <extensions>
          <ns3:TrackPointExtension>
            <ns3:atemp>23.0</ns3:atemp>
          </ns3:TrackPointExtension>
        </extensions>
      </trkpt>
      <trkpt lat="42.51471399329602718353271484375" lon="20.1513127796351909637451171875">
        <ele>2159.800048828125</ele>
        <time>2026-06-20T10:23:09.000Z</time>
        <extensions>
          <ns3:TrackPointExtension>
            <ns3:atemp>23.0</ns3:atemp>
          </ns3:TrackPointExtension>
        </extensions>
      </trkpt>
      <trkpt lat="42.51471399329602718353271484375" lon="20.1513127796351909637451171875">
        <ele>2159.800048828125</ele>
        <time>2026-06-20T10:23:10.000Z</time>
        <extensions>
          <ns3:TrackPointExtension>
            <ns3:atemp>23.0</ns3:atemp>
          </ns3:TrackPointExtension>
        </extensions>
      </trkpt>
      <trkpt lat="42.51471399329602718353271484375" lon="20.1513127796351909637451171875">
        <ele>2159.800048828125</ele>
        <time>2026-06-20T10:23:11.000Z</time>
        <extensions>
          <ns3:TrackPointExtension>
            <ns3:atemp>23.0</ns3:atemp>
          </ns3:TrackPointExtension>
        </extensions>
      </trkpt>
      <trkpt lat="42.51471399329602718353271484375" lon="20.1513127796351909637451171875">
        <ele>2159.800048828125</ele>
        <time>2026-06-20T10:23:12.000Z</time>
        <extensions>
          <ns3:TrackPointExtension>
            <ns3:atemp>23.0</ns3:atemp>
          </ns3:TrackPointExtension>
        </extensions>
      </trkpt>
      <trkpt lat="42.51471399329602718353271484375" lon="20.1513127796351909637451171875">
        <ele>2159.800048828125</ele>
        <time>2026-06-20T10:23:13.000Z</time>
        <extensions>
          <ns3:TrackPointExtension>
            <ns3:atemp>23.0</ns3:atemp>
          </ns3:TrackPointExtension>
        </extensions>
      </trkpt>
      <trkpt lat="42.51471399329602718353271484375" lon="20.1513127796351909637451171875">
        <ele>2159.800048828125</ele>
        <time>2026-06-20T10:23:14.000Z</time>
        <extensions>
          <ns3:TrackPointExtension>
            <ns3:atemp>23.0</ns3:atemp>
          </ns3:TrackPointExtension>
        </extensions>
      </trkpt>
      <trkpt lat="42.51471399329602718353271484375" lon="20.1513127796351909637451171875">
        <ele>2159.800048828125</ele>
        <time>2026-06-20T10:23:15.000Z</time>
        <extensions>
          <ns3:TrackPointExtension>
            <ns3:atemp>23.0</ns3:atemp>
          </ns3:TrackPointExtension>
        </extensions>
      </trkpt>
      <trkpt lat="42.51471399329602718353271484375" lon="20.1513127796351909637451171875">
        <ele>2159.800048828125</ele>
        <time>2026-06-20T10:23:16.000Z</time>
        <extensions>
          <ns3:TrackPointExtension>
            <ns3:atemp>23.0</ns3:atemp>
          </ns3:TrackPointExtension>
        </extensions>
      </trkpt>
      <trkpt lat="42.51471399329602718353271484375" lon="20.1513127796351909637451171875">
        <ele>2159.800048828125</ele>
        <time>2026-06-20T10:23:17.000Z</time>
        <extensions>
          <ns3:TrackPointExtension>
            <ns3:atemp>23.0</ns3:atemp>
          </ns3:TrackPointExtension>
        </extensions>
      </trkpt>
      <trkpt lat="42.51471399329602718353271484375" lon="20.1513127796351909637451171875">
        <ele>2159.800048828125</ele>
        <time>2026-06-20T10:23:18.000Z</time>
        <extensions>
          <ns3:TrackPointExtension>
            <ns3:atemp>23.0</ns3:atemp>
          </ns3:TrackPointExtension>
        </extensions>
      </trkpt>
      <trkpt lat="42.51471399329602718353271484375" lon="20.1513127796351909637451171875">
        <ele>2159.800048828125</ele>
        <time>2026-06-20T10:23:19.000Z</time>
        <extensions>
          <ns3:TrackPointExtension>
            <ns3:atemp>23.0</ns3:atemp>
          </ns3:TrackPointExtension>
        </extensions>
      </trkpt>
      <trkpt lat="42.51471399329602718353271484375" lon="20.1513127796351909637451171875">
        <ele>2159.800048828125</ele>
        <time>2026-06-20T10:23:20.000Z</time>
        <extensions>
          <ns3:TrackPointExtension>
            <ns3:atemp>23.0</ns3:atemp>
          </ns3:TrackPointExtension>
        </extensions>
      </trkpt>
      <trkpt lat="42.51471399329602718353271484375" lon="20.1513127796351909637451171875">
        <ele>2159.800048828125</ele>
        <time>2026-06-20T10:23:21.000Z</time>
        <extensions>
          <ns3:TrackPointExtension>
            <ns3:atemp>23.0</ns3:atemp>
          </ns3:TrackPointExtension>
        </extensions>
      </trkpt>
      <trkpt lat="42.51471399329602718353271484375" lon="20.1513127796351909637451171875">
        <ele>2159.800048828125</ele>
        <time>2026-06-20T10:23:22.000Z</time>
        <extensions>
          <ns3:TrackPointExtension>
            <ns3:atemp>23.0</ns3:atemp>
          </ns3:TrackPointExtension>
        </extensions>
      </trkpt>
      <trkpt lat="42.51471399329602718353271484375" lon="20.1513127796351909637451171875">
        <ele>2159.800048828125</ele>
        <time>2026-06-20T10:23:23.000Z</time>
        <extensions>
          <ns3:TrackPointExtension>
            <ns3:atemp>23.0</ns3:atemp>
          </ns3:TrackPointExtension>
        </extensions>
      </trkpt>
      <trkpt lat="42.51471399329602718353271484375" lon="20.1513127796351909637451171875">
        <ele>2159.800048828125</ele>
        <time>2026-06-20T10:23:24.000Z</time>
        <extensions>
          <ns3:TrackPointExtension>
            <ns3:atemp>23.0</ns3:atemp>
          </ns3:TrackPointExtension>
        </extensions>
      </trkpt>
      <trkpt lat="42.51471399329602718353271484375" lon="20.1513127796351909637451171875">
        <ele>2159.800048828125</ele>
        <time>2026-06-20T10:23:25.000Z</time>
        <extensions>
          <ns3:TrackPointExtension>
            <ns3:atemp>23.0</ns3:atemp>
          </ns3:TrackPointExtension>
        </extensions>
      </trkpt>
      <trkpt lat="42.51471399329602718353271484375" lon="20.1513127796351909637451171875">
        <ele>2159.800048828125</ele>
        <time>2026-06-20T10:23:26.000Z</time>
        <extensions>
          <ns3:TrackPointExtension>
            <ns3:atemp>23.0</ns3:atemp>
          </ns3:TrackPointExtension>
        </extensions>
      </trkpt>
      <trkpt lat="42.51471399329602718353271484375" lon="20.1513127796351909637451171875">
        <ele>2159.800048828125</ele>
        <time>2026-06-20T10:23:27.000Z</time>
        <extensions>
          <ns3:TrackPointExtension>
            <ns3:atemp>23.0</ns3:atemp>
          </ns3:TrackPointExtension>
        </extensions>
      </trkpt>
      <trkpt lat="42.51471399329602718353271484375" lon="20.1513127796351909637451171875">
        <ele>2159.800048828125</ele>
        <time>2026-06-20T10:23:28.000Z</time>
        <extensions>
          <ns3:TrackPointExtension>
            <ns3:atemp>23.0</ns3:atemp>
          </ns3:TrackPointExtension>
        </extensions>
      </trkpt>
      <trkpt lat="42.51471399329602718353271484375" lon="20.1513127796351909637451171875">
        <ele>2159.800048828125</ele>
        <time>2026-06-20T10:23:29.000Z</time>
        <extensions>
          <ns3:TrackPointExtension>
            <ns3:atemp>23.0</ns3:atemp>
          </ns3:TrackPointExtension>
        </extensions>
      </trkpt>
      <trkpt lat="42.51471399329602718353271484375" lon="20.1513127796351909637451171875">
        <ele>2159.800048828125</ele>
        <time>2026-06-20T10:23:30.000Z</time>
        <extensions>
          <ns3:TrackPointExtension>
            <ns3:atemp>23.0</ns3:atemp>
          </ns3:TrackPointExtension>
        </extensions>
      </trkpt>
      <trkpt lat="42.51471399329602718353271484375" lon="20.1513127796351909637451171875">
        <ele>2159.800048828125</ele>
        <time>2026-06-20T10:23:31.000Z</time>
        <extensions>
          <ns3:TrackPointExtension>
            <ns3:atemp>23.0</ns3:atemp>
          </ns3:TrackPointExtension>
        </extensions>
      </trkpt>
      <trkpt lat="42.51471399329602718353271484375" lon="20.1513127796351909637451171875">
        <ele>2159.800048828125</ele>
        <time>2026-06-20T10:23:32.000Z</time>
        <extensions>
          <ns3:TrackPointExtension>
            <ns3:atemp>23.0</ns3:atemp>
          </ns3:TrackPointExtension>
        </extensions>
      </trkpt>
      <trkpt lat="42.51471399329602718353271484375" lon="20.1513127796351909637451171875">
        <ele>2159.800048828125</ele>
        <time>2026-06-20T10:23:33.000Z</time>
        <extensions>
          <ns3:TrackPointExtension>
            <ns3:atemp>23.0</ns3:atemp>
          </ns3:TrackPointExtension>
        </extensions>
      </trkpt>
      <trkpt lat="42.51471399329602718353271484375" lon="20.1513127796351909637451171875">
        <ele>2159.800048828125</ele>
        <time>2026-06-20T10:23:34.000Z</time>
        <extensions>
          <ns3:TrackPointExtension>
            <ns3:atemp>23.0</ns3:atemp>
          </ns3:TrackPointExtension>
        </extensions>
      </trkpt>
      <trkpt lat="42.51471399329602718353271484375" lon="20.1513127796351909637451171875">
        <ele>2159.800048828125</ele>
        <time>2026-06-20T10:23:35.000Z</time>
        <extensions>
          <ns3:TrackPointExtension>
            <ns3:atemp>23.0</ns3:atemp>
          </ns3:TrackPointExtension>
        </extensions>
      </trkpt>
      <trkpt lat="42.51471399329602718353271484375" lon="20.1513127796351909637451171875">
        <ele>2159.800048828125</ele>
        <time>2026-06-20T10:23:36.000Z</time>
        <extensions>
          <ns3:TrackPointExtension>
            <ns3:atemp>23.0</ns3:atemp>
          </ns3:TrackPointExtension>
        </extensions>
      </trkpt>
      <trkpt lat="42.51471399329602718353271484375" lon="20.1513127796351909637451171875">
        <ele>2159.800048828125</ele>
        <time>2026-06-20T10:23:37.000Z</time>
        <extensions>
          <ns3:TrackPointExtension>
            <ns3:atemp>23.0</ns3:atemp>
          </ns3:TrackPointExtension>
        </extensions>
      </trkpt>
      <trkpt lat="42.51471399329602718353271484375" lon="20.1513127796351909637451171875">
        <ele>2159.800048828125</ele>
        <time>2026-06-20T10:23:38.000Z</time>
        <extensions>
          <ns3:TrackPointExtension>
            <ns3:atemp>23.0</ns3:atemp>
          </ns3:TrackPointExtension>
        </extensions>
      </trkpt>
      <trkpt lat="42.51471399329602718353271484375" lon="20.1513127796351909637451171875">
        <ele>2159.800048828125</ele>
        <time>2026-06-20T10:23:39.000Z</time>
        <extensions>
          <ns3:TrackPointExtension>
            <ns3:atemp>23.0</ns3:atemp>
          </ns3:TrackPointExtension>
        </extensions>
      </trkpt>
      <trkpt lat="42.51471399329602718353271484375" lon="20.1513127796351909637451171875">
        <ele>2159.800048828125</ele>
        <time>2026-06-20T10:23:40.000Z</time>
        <extensions>
          <ns3:TrackPointExtension>
            <ns3:atemp>23.0</ns3:atemp>
          </ns3:TrackPointExtension>
        </extensions>
      </trkpt>
      <trkpt lat="42.51471399329602718353271484375" lon="20.1513127796351909637451171875">
        <ele>2159.800048828125</ele>
        <time>2026-06-20T10:23:41.000Z</time>
        <extensions>
          <ns3:TrackPointExtension>
            <ns3:atemp>23.0</ns3:atemp>
          </ns3:TrackPointExtension>
        </extensions>
      </trkpt>
      <trkpt lat="42.51471399329602718353271484375" lon="20.1513127796351909637451171875">
        <ele>2159.800048828125</ele>
        <time>2026-06-20T10:23:42.000Z</time>
        <extensions>
          <ns3:TrackPointExtension>
            <ns3:atemp>23.0</ns3:atemp>
          </ns3:TrackPointExtension>
        </extensions>
      </trkpt>
      <trkpt lat="42.51471399329602718353271484375" lon="20.1513127796351909637451171875">
        <ele>2159.800048828125</ele>
        <time>2026-06-20T10:23:43.000Z</time>
        <extensions>
          <ns3:TrackPointExtension>
            <ns3:atemp>23.0</ns3:atemp>
          </ns3:TrackPointExtension>
        </extensions>
      </trkpt>
      <trkpt lat="42.51471399329602718353271484375" lon="20.1513127796351909637451171875">
        <ele>2159.800048828125</ele>
        <time>2026-06-20T10:23:44.000Z</time>
        <extensions>
          <ns3:TrackPointExtension>
            <ns3:atemp>23.0</ns3:atemp>
          </ns3:TrackPointExtension>
        </extensions>
      </trkpt>
      <trkpt lat="42.51471399329602718353271484375" lon="20.1513127796351909637451171875">
        <ele>2159.800048828125</ele>
        <time>2026-06-20T10:23:45.000Z</time>
        <extensions>
          <ns3:TrackPointExtension>
            <ns3:atemp>23.0</ns3:atemp>
          </ns3:TrackPointExtension>
        </extensions>
      </trkpt>
      <trkpt lat="42.51471399329602718353271484375" lon="20.1513127796351909637451171875">
        <ele>2159.800048828125</ele>
        <time>2026-06-20T10:23:46.000Z</time>
        <extensions>
          <ns3:TrackPointExtension>
            <ns3:atemp>23.0</ns3:atemp>
          </ns3:TrackPointExtension>
        </extensions>
      </trkpt>
      <trkpt lat="42.51471399329602718353271484375" lon="20.1513127796351909637451171875">
        <ele>2159.800048828125</ele>
        <time>2026-06-20T10:23:47.000Z</time>
        <extensions>
          <ns3:TrackPointExtension>
            <ns3:atemp>23.0</ns3:atemp>
          </ns3:TrackPointExtension>
        </extensions>
      </trkpt>
      <trkpt lat="42.51471399329602718353271484375" lon="20.1513127796351909637451171875">
        <ele>2159.800048828125</ele>
        <time>2026-06-20T10:23:48.000Z</time>
        <extensions>
          <ns3:TrackPointExtension>
            <ns3:atemp>23.0</ns3:atemp>
          </ns3:TrackPointExtension>
        </extensions>
      </trkpt>
      <trkpt lat="42.51471399329602718353271484375" lon="20.1513127796351909637451171875">
        <ele>2159.800048828125</ele>
        <time>2026-06-20T10:23:49.000Z</time>
        <extensions>
          <ns3:TrackPointExtension>
            <ns3:atemp>23.0</ns3:atemp>
          </ns3:TrackPointExtension>
        </extensions>
      </trkpt>
      <trkpt lat="42.51471399329602718353271484375" lon="20.1513127796351909637451171875">
        <ele>2159.800048828125</ele>
        <time>2026-06-20T10:23:50.000Z</time>
        <extensions>
          <ns3:TrackPointExtension>
            <ns3:atemp>23.0</ns3:atemp>
          </ns3:TrackPointExtension>
        </extensions>
      </trkpt>
      <trkpt lat="42.51471399329602718353271484375" lon="20.1513127796351909637451171875">
        <ele>2159.800048828125</ele>
        <time>2026-06-20T10:23:51.000Z</time>
        <extensions>
          <ns3:TrackPointExtension>
            <ns3:atemp>23.0</ns3:atemp>
          </ns3:TrackPointExtension>
        </extensions>
      </trkpt>
      <trkpt lat="42.51471399329602718353271484375" lon="20.1513127796351909637451171875">
        <ele>2159.800048828125</ele>
        <time>2026-06-20T10:23:52.000Z</time>
        <extensions>
          <ns3:TrackPointExtension>
            <ns3:atemp>23.0</ns3:atemp>
          </ns3:TrackPointExtension>
        </extensions>
      </trkpt>
      <trkpt lat="42.51471399329602718353271484375" lon="20.1513127796351909637451171875">
        <ele>2159.800048828125</ele>
        <time>2026-06-20T10:23:53.000Z</time>
        <extensions>
          <ns3:TrackPointExtension>
            <ns3:atemp>23.0</ns3:atemp>
          </ns3:TrackPointExtension>
        </extensions>
      </trkpt>
      <trkpt lat="42.51471399329602718353271484375" lon="20.1513127796351909637451171875">
        <ele>2159.800048828125</ele>
        <time>2026-06-20T10:23:54.000Z</time>
        <extensions>
          <ns3:TrackPointExtension>
            <ns3:atemp>23.0</ns3:atemp>
          </ns3:TrackPointExtension>
        </extensions>
      </trkpt>
      <trkpt lat="42.51471399329602718353271484375" lon="20.1513127796351909637451171875">
        <ele>2159.800048828125</ele>
        <time>2026-06-20T10:23:55.000Z</time>
        <extensions>
          <ns3:TrackPointExtension>
            <ns3:atemp>23.0</ns3:atemp>
          </ns3:TrackPointExtension>
        </extensions>
      </trkpt>
      <trkpt lat="42.51471399329602718353271484375" lon="20.1513127796351909637451171875">
        <ele>2159.800048828125</ele>
        <time>2026-06-20T10:23:56.000Z</time>
        <extensions>
          <ns3:TrackPointExtension>
            <ns3:atemp>23.0</ns3:atemp>
          </ns3:TrackPointExtension>
        </extensions>
      </trkpt>
      <trkpt lat="42.51471399329602718353271484375" lon="20.1513127796351909637451171875">
        <ele>2159.800048828125</ele>
        <time>2026-06-20T10:23:57.000Z</time>
        <extensions>
          <ns3:TrackPointExtension>
            <ns3:atemp>23.0</ns3:atemp>
          </ns3:TrackPointExtension>
        </extensions>
      </trkpt>
      <trkpt lat="42.51471399329602718353271484375" lon="20.1513127796351909637451171875">
        <ele>2159.800048828125</ele>
        <time>2026-06-20T10:23:58.000Z</time>
        <extensions>
          <ns3:TrackPointExtension>
            <ns3:atemp>23.0</ns3:atemp>
          </ns3:TrackPointExtension>
        </extensions>
      </trkpt>
      <trkpt lat="42.51471399329602718353271484375" lon="20.1513127796351909637451171875">
        <ele>2159.800048828125</ele>
        <time>2026-06-20T10:23:59.000Z</time>
        <extensions>
          <ns3:TrackPointExtension>
            <ns3:atemp>23.0</ns3:atemp>
          </ns3:TrackPointExtension>
        </extensions>
      </trkpt>
      <trkpt lat="42.51471399329602718353271484375" lon="20.1513127796351909637451171875">
        <ele>2159.800048828125</ele>
        <time>2026-06-20T10:24:00.000Z</time>
        <extensions>
          <ns3:TrackPointExtension>
            <ns3:atemp>23.0</ns3:atemp>
          </ns3:TrackPointExtension>
        </extensions>
      </trkpt>
      <trkpt lat="42.51471399329602718353271484375" lon="20.1513127796351909637451171875">
        <ele>2159.800048828125</ele>
        <time>2026-06-20T10:24:01.000Z</time>
        <extensions>
          <ns3:TrackPointExtension>
            <ns3:atemp>23.0</ns3:atemp>
          </ns3:TrackPointExtension>
        </extensions>
      </trkpt>
      <trkpt lat="42.51471399329602718353271484375" lon="20.1513127796351909637451171875">
        <ele>2159.800048828125</ele>
        <time>2026-06-20T10:24:02.000Z</time>
        <extensions>
          <ns3:TrackPointExtension>
            <ns3:atemp>23.0</ns3:atemp>
          </ns3:TrackPointExtension>
        </extensions>
      </trkpt>
      <trkpt lat="42.51471399329602718353271484375" lon="20.1513127796351909637451171875">
        <ele>2159.800048828125</ele>
        <time>2026-06-20T10:24:03.000Z</time>
        <extensions>
          <ns3:TrackPointExtension>
            <ns3:atemp>23.0</ns3:atemp>
          </ns3:TrackPointExtension>
        </extensions>
      </trkpt>
      <trkpt lat="42.51471399329602718353271484375" lon="20.1513127796351909637451171875">
        <ele>2159.800048828125</ele>
        <time>2026-06-20T10:24:04.000Z</time>
        <extensions>
          <ns3:TrackPointExtension>
            <ns3:atemp>23.0</ns3:atemp>
          </ns3:TrackPointExtension>
        </extensions>
      </trkpt>
      <trkpt lat="42.51471399329602718353271484375" lon="20.1513127796351909637451171875">
        <ele>2159.800048828125</ele>
        <time>2026-06-20T10:24:05.000Z</time>
        <extensions>
          <ns3:TrackPointExtension>
            <ns3:atemp>23.0</ns3:atemp>
          </ns3:TrackPointExtension>
        </extensions>
      </trkpt>
      <trkpt lat="42.51471399329602718353271484375" lon="20.1513127796351909637451171875">
        <ele>2159.800048828125</ele>
        <time>2026-06-20T10:24:06.000Z</time>
        <extensions>
          <ns3:TrackPointExtension>
            <ns3:atemp>23.0</ns3:atemp>
          </ns3:TrackPointExtension>
        </extensions>
      </trkpt>
      <trkpt lat="42.51471399329602718353271484375" lon="20.1513127796351909637451171875">
        <ele>2159.800048828125</ele>
        <time>2026-06-20T10:24:07.000Z</time>
        <extensions>
          <ns3:TrackPointExtension>
            <ns3:atemp>23.0</ns3:atemp>
          </ns3:TrackPointExtension>
        </extensions>
      </trkpt>
      <trkpt lat="42.51471399329602718353271484375" lon="20.1513127796351909637451171875">
        <ele>2159.800048828125</ele>
        <time>2026-06-20T10:24:08.000Z</time>
        <extensions>
          <ns3:TrackPointExtension>
            <ns3:atemp>23.0</ns3:atemp>
          </ns3:TrackPointExtension>
        </extensions>
      </trkpt>
      <trkpt lat="42.51471399329602718353271484375" lon="20.1513127796351909637451171875">
        <ele>2159.800048828125</ele>
        <time>2026-06-20T10:24:09.000Z</time>
        <extensions>
          <ns3:TrackPointExtension>
            <ns3:atemp>23.0</ns3:atemp>
          </ns3:TrackPointExtension>
        </extensions>
      </trkpt>
      <trkpt lat="42.51471399329602718353271484375" lon="20.1513127796351909637451171875">
        <ele>2159.800048828125</ele>
        <time>2026-06-20T10:24:10.000Z</time>
        <extensions>
          <ns3:TrackPointExtension>
            <ns3:atemp>23.0</ns3:atemp>
          </ns3:TrackPointExtension>
        </extensions>
      </trkpt>
      <trkpt lat="42.51471399329602718353271484375" lon="20.1513127796351909637451171875">
        <ele>2159.800048828125</ele>
        <time>2026-06-20T10:24:11.000Z</time>
        <extensions>
          <ns3:TrackPointExtension>
            <ns3:atemp>23.0</ns3:atemp>
          </ns3:TrackPointExtension>
        </extensions>
      </trkpt>
      <trkpt lat="42.51471399329602718353271484375" lon="20.1513127796351909637451171875">
        <ele>2159.800048828125</ele>
        <time>2026-06-20T10:24:12.000Z</time>
        <extensions>
          <ns3:TrackPointExtension>
            <ns3:atemp>23.0</ns3:atemp>
          </ns3:TrackPointExtension>
        </extensions>
      </trkpt>
      <trkpt lat="42.51471399329602718353271484375" lon="20.1513127796351909637451171875">
        <ele>2159.800048828125</ele>
        <time>2026-06-20T10:24:13.000Z</time>
        <extensions>
          <ns3:TrackPointExtension>
            <ns3:atemp>23.0</ns3:atemp>
          </ns3:TrackPointExtension>
        </extensions>
      </trkpt>
      <trkpt lat="42.51471399329602718353271484375" lon="20.1513127796351909637451171875">
        <ele>2159.800048828125</ele>
        <time>2026-06-20T10:24:14.000Z</time>
        <extensions>
          <ns3:TrackPointExtension>
            <ns3:atemp>23.0</ns3:atemp>
          </ns3:TrackPointExtension>
        </extensions>
      </trkpt>
      <trkpt lat="42.51471399329602718353271484375" lon="20.1513127796351909637451171875">
        <ele>2159.800048828125</ele>
        <time>2026-06-20T10:24:15.000Z</time>
        <extensions>
          <ns3:TrackPointExtension>
            <ns3:atemp>23.0</ns3:atemp>
          </ns3:TrackPointExtension>
        </extensions>
      </trkpt>
      <trkpt lat="42.51471399329602718353271484375" lon="20.1513127796351909637451171875">
        <ele>2159.800048828125</ele>
        <time>2026-06-20T10:24:16.000Z</time>
        <extensions>
          <ns3:TrackPointExtension>
            <ns3:atemp>23.0</ns3:atemp>
          </ns3:TrackPointExtension>
        </extensions>
      </trkpt>
      <trkpt lat="42.51471399329602718353271484375" lon="20.1513127796351909637451171875">
        <ele>2159.800048828125</ele>
        <time>2026-06-20T10:24:17.000Z</time>
        <extensions>
          <ns3:TrackPointExtension>
            <ns3:atemp>23.0</ns3:atemp>
          </ns3:TrackPointExtension>
        </extensions>
      </trkpt>
      <trkpt lat="42.51471399329602718353271484375" lon="20.1513127796351909637451171875">
        <ele>2159.800048828125</ele>
        <time>2026-06-20T10:24:18.000Z</time>
        <extensions>
          <ns3:TrackPointExtension>
            <ns3:atemp>23.0</ns3:atemp>
          </ns3:TrackPointExtension>
        </extensions>
      </trkpt>
      <trkpt lat="42.51471399329602718353271484375" lon="20.1513127796351909637451171875">
        <ele>2159.800048828125</ele>
        <time>2026-06-20T10:24:19.000Z</time>
        <extensions>
          <ns3:TrackPointExtension>
            <ns3:atemp>23.0</ns3:atemp>
          </ns3:TrackPointExtension>
        </extensions>
      </trkpt>
      <trkpt lat="42.51471399329602718353271484375" lon="20.1513127796351909637451171875">
        <ele>2159.800048828125</ele>
        <time>2026-06-20T10:24:20.000Z</time>
        <extensions>
          <ns3:TrackPointExtension>
            <ns3:atemp>23.0</ns3:atemp>
          </ns3:TrackPointExtension>
        </extensions>
      </trkpt>
      <trkpt lat="42.51471399329602718353271484375" lon="20.1513127796351909637451171875">
        <ele>2159.800048828125</ele>
        <time>2026-06-20T10:24:21.000Z</time>
        <extensions>
          <ns3:TrackPointExtension>
            <ns3:atemp>23.0</ns3:atemp>
          </ns3:TrackPointExtension>
        </extensions>
      </trkpt>
      <trkpt lat="42.51471399329602718353271484375" lon="20.1513127796351909637451171875">
        <ele>2159.800048828125</ele>
        <time>2026-06-20T10:24:22.000Z</time>
        <extensions>
          <ns3:TrackPointExtension>
            <ns3:atemp>23.0</ns3:atemp>
          </ns3:TrackPointExtension>
        </extensions>
      </trkpt>
      <trkpt lat="42.51471399329602718353271484375" lon="20.1513127796351909637451171875">
        <ele>2159.800048828125</ele>
        <time>2026-06-20T10:24:23.000Z</time>
        <extensions>
          <ns3:TrackPointExtension>
            <ns3:atemp>23.0</ns3:atemp>
          </ns3:TrackPointExtension>
        </extensions>
      </trkpt>
      <trkpt lat="42.51471399329602718353271484375" lon="20.1513127796351909637451171875">
        <ele>2159.800048828125</ele>
        <time>2026-06-20T10:24:24.000Z</time>
        <extensions>
          <ns3:TrackPointExtension>
            <ns3:atemp>23.0</ns3:atemp>
          </ns3:TrackPointExtension>
        </extensions>
      </trkpt>
      <trkpt lat="42.51471399329602718353271484375" lon="20.1513127796351909637451171875">
        <ele>2159.800048828125</ele>
        <time>2026-06-20T10:24:25.000Z</time>
        <extensions>
          <ns3:TrackPointExtension>
            <ns3:atemp>23.0</ns3:atemp>
          </ns3:TrackPointExtension>
        </extensions>
      </trkpt>
      <trkpt lat="42.51471399329602718353271484375" lon="20.1513127796351909637451171875">
        <ele>2159.800048828125</ele>
        <time>2026-06-20T10:24:26.000Z</time>
        <extensions>
          <ns3:TrackPointExtension>
            <ns3:atemp>23.0</ns3:atemp>
          </ns3:TrackPointExtension>
        </extensions>
      </trkpt>
      <trkpt lat="42.51471399329602718353271484375" lon="20.1513127796351909637451171875">
        <ele>2159.800048828125</ele>
        <time>2026-06-20T10:24:27.000Z</time>
        <extensions>
          <ns3:TrackPointExtension>
            <ns3:atemp>23.0</ns3:atemp>
          </ns3:TrackPointExtension>
        </extensions>
      </trkpt>
      <trkpt lat="42.51471399329602718353271484375" lon="20.1513127796351909637451171875">
        <ele>2159.800048828125</ele>
        <time>2026-06-20T10:24:28.000Z</time>
        <extensions>
          <ns3:TrackPointExtension>
            <ns3:atemp>23.0</ns3:atemp>
          </ns3:TrackPointExtension>
        </extensions>
      </trkpt>
      <trkpt lat="42.51471399329602718353271484375" lon="20.1513127796351909637451171875">
        <ele>2159.800048828125</ele>
        <time>2026-06-20T10:24:29.000Z</time>
        <extensions>
          <ns3:TrackPointExtension>
            <ns3:atemp>23.0</ns3:atemp>
          </ns3:TrackPointExtension>
        </extensions>
      </trkpt>
      <trkpt lat="42.51471399329602718353271484375" lon="20.1513127796351909637451171875">
        <ele>2159.800048828125</ele>
        <time>2026-06-20T10:24:30.000Z</time>
        <extensions>
          <ns3:TrackPointExtension>
            <ns3:atemp>23.0</ns3:atemp>
          </ns3:TrackPointExtension>
        </extensions>
      </trkpt>
      <trkpt lat="42.51471399329602718353271484375" lon="20.1513127796351909637451171875">
        <ele>2159.800048828125</ele>
        <time>2026-06-20T10:24:31.000Z</time>
        <extensions>
          <ns3:TrackPointExtension>
            <ns3:atemp>23.0</ns3:atemp>
          </ns3:TrackPointExtension>
        </extensions>
      </trkpt>
      <trkpt lat="42.51471399329602718353271484375" lon="20.1513127796351909637451171875">
        <ele>2159.800048828125</ele>
        <time>2026-06-20T10:24:32.000Z</time>
        <extensions>
          <ns3:TrackPointExtension>
            <ns3:atemp>23.0</ns3:atemp>
          </ns3:TrackPointExtension>
        </extensions>
      </trkpt>
      <trkpt lat="42.51471399329602718353271484375" lon="20.1513127796351909637451171875">
        <ele>2159.800048828125</ele>
        <time>2026-06-20T10:24:33.000Z</time>
        <extensions>
          <ns3:TrackPointExtension>
            <ns3:atemp>23.0</ns3:atemp>
          </ns3:TrackPointExtension>
        </extensions>
      </trkpt>
      <trkpt lat="42.51471399329602718353271484375" lon="20.1513127796351909637451171875">
        <ele>2159.800048828125</ele>
        <time>2026-06-20T10:24:34.000Z</time>
        <extensions>
          <ns3:TrackPointExtension>
            <ns3:atemp>23.0</ns3:atemp>
          </ns3:TrackPointExtension>
        </extensions>
      </trkpt>
      <trkpt lat="42.51471399329602718353271484375" lon="20.1513127796351909637451171875">
        <ele>2159.800048828125</ele>
        <time>2026-06-20T10:24:35.000Z</time>
        <extensions>
          <ns3:TrackPointExtension>
            <ns3:atemp>23.0</ns3:atemp>
          </ns3:TrackPointExtension>
        </extensions>
      </trkpt>
      <trkpt lat="42.51471399329602718353271484375" lon="20.1513127796351909637451171875">
        <ele>2159.800048828125</ele>
        <time>2026-06-20T10:24:36.000Z</time>
        <extensions>
          <ns3:TrackPointExtension>
            <ns3:atemp>23.0</ns3:atemp>
          </ns3:TrackPointExtension>
        </extensions>
      </trkpt>
      <trkpt lat="42.51471399329602718353271484375" lon="20.1513127796351909637451171875">
        <ele>2159.800048828125</ele>
        <time>2026-06-20T10:24:37.000Z</time>
        <extensions>
          <ns3:TrackPointExtension>
            <ns3:atemp>23.0</ns3:atemp>
          </ns3:TrackPointExtension>
        </extensions>
      </trkpt>
      <trkpt lat="42.51471399329602718353271484375" lon="20.1513127796351909637451171875">
        <ele>2159.800048828125</ele>
        <time>2026-06-20T10:24:38.000Z</time>
        <extensions>
          <ns3:TrackPointExtension>
            <ns3:atemp>23.0</ns3:atemp>
          </ns3:TrackPointExtension>
        </extensions>
      </trkpt>
      <trkpt lat="42.51471399329602718353271484375" lon="20.1513127796351909637451171875">
        <ele>2159.800048828125</ele>
        <time>2026-06-20T10:24:39.000Z</time>
        <extensions>
          <ns3:TrackPointExtension>
            <ns3:atemp>23.0</ns3:atemp>
          </ns3:TrackPointExtension>
        </extensions>
      </trkpt>
      <trkpt lat="42.51471399329602718353271484375" lon="20.1513127796351909637451171875">
        <ele>2159.800048828125</ele>
        <time>2026-06-20T10:24:40.000Z</time>
        <extensions>
          <ns3:TrackPointExtension>
            <ns3:atemp>23.0</ns3:atemp>
          </ns3:TrackPointExtension>
        </extensions>
      </trkpt>
      <trkpt lat="42.51471399329602718353271484375" lon="20.1513127796351909637451171875">
        <ele>2159.800048828125</ele>
        <time>2026-06-20T10:24:41.000Z</time>
        <extensions>
          <ns3:TrackPointExtension>
            <ns3:atemp>23.0</ns3:atemp>
          </ns3:TrackPointExtension>
        </extensions>
      </trkpt>
      <trkpt lat="42.51471399329602718353271484375" lon="20.1513127796351909637451171875">
        <ele>2159.800048828125</ele>
        <time>2026-06-20T10:24:42.000Z</time>
        <extensions>
          <ns3:TrackPointExtension>
            <ns3:atemp>23.0</ns3:atemp>
          </ns3:TrackPointExtension>
        </extensions>
      </trkpt>
      <trkpt lat="42.51471399329602718353271484375" lon="20.1513127796351909637451171875">
        <ele>2159.800048828125</ele>
        <time>2026-06-20T10:24:43.000Z</time>
        <extensions>
          <ns3:TrackPointExtension>
            <ns3:atemp>23.0</ns3:atemp>
          </ns3:TrackPointExtension>
        </extensions>
      </trkpt>
      <trkpt lat="42.51471399329602718353271484375" lon="20.1513127796351909637451171875">
        <ele>2159.800048828125</ele>
        <time>2026-06-20T10:24:44.000Z</time>
        <extensions>
          <ns3:TrackPointExtension>
            <ns3:atemp>23.0</ns3:atemp>
          </ns3:TrackPointExtension>
        </extensions>
      </trkpt>
      <trkpt lat="42.51471399329602718353271484375" lon="20.1513127796351909637451171875">
        <ele>2159.800048828125</ele>
        <time>2026-06-20T10:24:45.000Z</time>
        <extensions>
          <ns3:TrackPointExtension>
            <ns3:atemp>23.0</ns3:atemp>
          </ns3:TrackPointExtension>
        </extensions>
      </trkpt>
      <trkpt lat="42.51471399329602718353271484375" lon="20.1513127796351909637451171875">
        <ele>2159.800048828125</ele>
        <time>2026-06-20T10:24:46.000Z</time>
        <extensions>
          <ns3:TrackPointExtension>
            <ns3:atemp>23.0</ns3:atemp>
          </ns3:TrackPointExtension>
        </extensions>
      </trkpt>
      <trkpt lat="42.51471399329602718353271484375" lon="20.1513127796351909637451171875">
        <ele>2159.800048828125</ele>
        <time>2026-06-20T10:24:47.000Z</time>
        <extensions>
          <ns3:TrackPointExtension>
            <ns3:atemp>23.0</ns3:atemp>
          </ns3:TrackPointExtension>
        </extensions>
      </trkpt>
      <trkpt lat="42.51471399329602718353271484375" lon="20.1513127796351909637451171875">
        <ele>2159.800048828125</ele>
        <time>2026-06-20T10:24:48.000Z</time>
        <extensions>
          <ns3:TrackPointExtension>
            <ns3:atemp>23.0</ns3:atemp>
          </ns3:TrackPointExtension>
        </extensions>
      </trkpt>
      <trkpt lat="42.51471399329602718353271484375" lon="20.1513127796351909637451171875">
        <ele>2159.800048828125</ele>
        <time>2026-06-20T10:24:49.000Z</time>
        <extensions>
          <ns3:TrackPointExtension>
            <ns3:atemp>23.0</ns3:atemp>
          </ns3:TrackPointExtension>
        </extensions>
      </trkpt>
      <trkpt lat="42.51471399329602718353271484375" lon="20.1513127796351909637451171875">
        <ele>2159.800048828125</ele>
        <time>2026-06-20T10:24:50.000Z</time>
        <extensions>
          <ns3:TrackPointExtension>
            <ns3:atemp>23.0</ns3:atemp>
          </ns3:TrackPointExtension>
        </extensions>
      </trkpt>
      <trkpt lat="42.51471399329602718353271484375" lon="20.1513127796351909637451171875">
        <ele>2159.800048828125</ele>
        <time>2026-06-20T10:24:51.000Z</time>
        <extensions>
          <ns3:TrackPointExtension>
            <ns3:atemp>23.0</ns3:atemp>
          </ns3:TrackPointExtension>
        </extensions>
      </trkpt>
      <trkpt lat="42.51471399329602718353271484375" lon="20.1513127796351909637451171875">
        <ele>2159.800048828125</ele>
        <time>2026-06-20T10:24:52.000Z</time>
        <extensions>
          <ns3:TrackPointExtension>
            <ns3:atemp>23.0</ns3:atemp>
          </ns3:TrackPointExtension>
        </extensions>
      </trkpt>
      <trkpt lat="42.51471399329602718353271484375" lon="20.1513127796351909637451171875">
        <ele>2159.800048828125</ele>
        <time>2026-06-20T10:24:53.000Z</time>
        <extensions>
          <ns3:TrackPointExtension>
            <ns3:atemp>23.0</ns3:atemp>
          </ns3:TrackPointExtension>
        </extensions>
      </trkpt>
      <trkpt lat="42.51471399329602718353271484375" lon="20.1513127796351909637451171875">
        <ele>2159.800048828125</ele>
        <time>2026-06-20T10:24:54.000Z</time>
        <extensions>
          <ns3:TrackPointExtension>
            <ns3:atemp>23.0</ns3:atemp>
          </ns3:TrackPointExtension>
        </extensions>
      </trkpt>
      <trkpt lat="42.51471399329602718353271484375" lon="20.1513127796351909637451171875">
        <ele>2159.800048828125</ele>
        <time>2026-06-20T10:24:55.000Z</time>
        <extensions>
          <ns3:TrackPointExtension>
            <ns3:atemp>23.0</ns3:atemp>
          </ns3:TrackPointExtension>
        </extensions>
      </trkpt>
      <trkpt lat="42.51471399329602718353271484375" lon="20.1513127796351909637451171875">
        <ele>2159.800048828125</ele>
        <time>2026-06-20T10:24:56.000Z</time>
        <extensions>
          <ns3:TrackPointExtension>
            <ns3:atemp>23.0</ns3:atemp>
          </ns3:TrackPointExtension>
        </extensions>
      </trkpt>
      <trkpt lat="42.51471399329602718353271484375" lon="20.1513127796351909637451171875">
        <ele>2159.800048828125</ele>
        <time>2026-06-20T10:24:57.000Z</time>
        <extensions>
          <ns3:TrackPointExtension>
            <ns3:atemp>23.0</ns3:atemp>
          </ns3:TrackPointExtension>
        </extensions>
      </trkpt>
      <trkpt lat="42.51471399329602718353271484375" lon="20.1513127796351909637451171875">
        <ele>2159.800048828125</ele>
        <time>2026-06-20T10:24:58.000Z</time>
        <extensions>
          <ns3:TrackPointExtension>
            <ns3:atemp>23.0</ns3:atemp>
          </ns3:TrackPointExtension>
        </extensions>
      </trkpt>
      <trkpt lat="42.51471399329602718353271484375" lon="20.1513127796351909637451171875">
        <ele>2159.800048828125</ele>
        <time>2026-06-20T10:24:59.000Z</time>
        <extensions>
          <ns3:TrackPointExtension>
            <ns3:atemp>23.0</ns3:atemp>
          </ns3:TrackPointExtension>
        </extensions>
      </trkpt>
      <trkpt lat="42.51471399329602718353271484375" lon="20.1513127796351909637451171875">
        <ele>2159.800048828125</ele>
        <time>2026-06-20T10:25:00.000Z</time>
        <extensions>
          <ns3:TrackPointExtension>
            <ns3:atemp>23.0</ns3:atemp>
          </ns3:TrackPointExtension>
        </extensions>
      </trkpt>
      <trkpt lat="42.51471399329602718353271484375" lon="20.1513127796351909637451171875">
        <ele>2159.800048828125</ele>
        <time>2026-06-20T10:25:01.000Z</time>
        <extensions>
          <ns3:TrackPointExtension>
            <ns3:atemp>23.0</ns3:atemp>
          </ns3:TrackPointExtension>
        </extensions>
      </trkpt>
      <trkpt lat="42.51471399329602718353271484375" lon="20.1513127796351909637451171875">
        <ele>2159.800048828125</ele>
        <time>2026-06-20T10:25:02.000Z</time>
        <extensions>
          <ns3:TrackPointExtension>
            <ns3:atemp>23.0</ns3:atemp>
          </ns3:TrackPointExtension>
        </extensions>
      </trkpt>
      <trkpt lat="42.51471399329602718353271484375" lon="20.1513127796351909637451171875">
        <ele>2159.800048828125</ele>
        <time>2026-06-20T10:25:03.000Z</time>
        <extensions>
          <ns3:TrackPointExtension>
            <ns3:atemp>23.0</ns3:atemp>
          </ns3:TrackPointExtension>
        </extensions>
      </trkpt>
      <trkpt lat="42.51471399329602718353271484375" lon="20.1513127796351909637451171875">
        <ele>2159.800048828125</ele>
        <time>2026-06-20T10:25:04.000Z</time>
        <extensions>
          <ns3:TrackPointExtension>
            <ns3:atemp>23.0</ns3:atemp>
          </ns3:TrackPointExtension>
        </extensions>
      </trkpt>
      <trkpt lat="42.51471399329602718353271484375" lon="20.1513127796351909637451171875">
        <ele>2159.800048828125</ele>
        <time>2026-06-20T10:25:05.000Z</time>
        <extensions>
          <ns3:TrackPointExtension>
            <ns3:atemp>23.0</ns3:atemp>
          </ns3:TrackPointExtension>
        </extensions>
      </trkpt>
      <trkpt lat="42.51471399329602718353271484375" lon="20.1513127796351909637451171875">
        <ele>2159.800048828125</ele>
        <time>2026-06-20T10:25:06.000Z</time>
        <extensions>
          <ns3:TrackPointExtension>
            <ns3:atemp>23.0</ns3:atemp>
          </ns3:TrackPointExtension>
        </extensions>
      </trkpt>
      <trkpt lat="42.51471399329602718353271484375" lon="20.1513127796351909637451171875">
        <ele>2159.800048828125</ele>
        <time>2026-06-20T10:25:07.000Z</time>
        <extensions>
          <ns3:TrackPointExtension>
            <ns3:atemp>23.0</ns3:atemp>
          </ns3:TrackPointExtension>
        </extensions>
      </trkpt>
      <trkpt lat="42.51471399329602718353271484375" lon="20.1513127796351909637451171875">
        <ele>2159.800048828125</ele>
        <time>2026-06-20T10:25:08.000Z</time>
        <extensions>
          <ns3:TrackPointExtension>
            <ns3:atemp>23.0</ns3:atemp>
          </ns3:TrackPointExtension>
        </extensions>
      </trkpt>
      <trkpt lat="42.51471399329602718353271484375" lon="20.1513127796351909637451171875">
        <ele>2159.800048828125</ele>
        <time>2026-06-20T10:25:09.000Z</time>
        <extensions>
          <ns3:TrackPointExtension>
            <ns3:atemp>23.0</ns3:atemp>
          </ns3:TrackPointExtension>
        </extensions>
      </trkpt>
      <trkpt lat="42.51471399329602718353271484375" lon="20.1513127796351909637451171875">
        <ele>2159.800048828125</ele>
        <time>2026-06-20T10:25:10.000Z</time>
        <extensions>
          <ns3:TrackPointExtension>
            <ns3:atemp>23.0</ns3:atemp>
          </ns3:TrackPointExtension>
        </extensions>
      </trkpt>
      <trkpt lat="42.51471399329602718353271484375" lon="20.1513127796351909637451171875">
        <ele>2159.800048828125</ele>
        <time>2026-06-20T10:25:11.000Z</time>
        <extensions>
          <ns3:TrackPointExtension>
            <ns3:atemp>23.0</ns3:atemp>
          </ns3:TrackPointExtension>
        </extensions>
      </trkpt>
      <trkpt lat="42.51471399329602718353271484375" lon="20.1513127796351909637451171875">
        <ele>2159.800048828125</ele>
        <time>2026-06-20T10:25:12.000Z</time>
        <extensions>
          <ns3:TrackPointExtension>
            <ns3:atemp>23.0</ns3:atemp>
          </ns3:TrackPointExtension>
        </extensions>
      </trkpt>
      <trkpt lat="42.51471399329602718353271484375" lon="20.1513127796351909637451171875">
        <ele>2159.800048828125</ele>
        <time>2026-06-20T10:25:13.000Z</time>
        <extensions>
          <ns3:TrackPointExtension>
            <ns3:atemp>23.0</ns3:atemp>
          </ns3:TrackPointExtension>
        </extensions>
      </trkpt>
      <trkpt lat="42.51471399329602718353271484375" lon="20.1513127796351909637451171875">
        <ele>2159.800048828125</ele>
        <time>2026-06-20T10:25:14.000Z</time>
        <extensions>
          <ns3:TrackPointExtension>
            <ns3:atemp>23.0</ns3:atemp>
          </ns3:TrackPointExtension>
        </extensions>
      </trkpt>
      <trkpt lat="42.51471399329602718353271484375" lon="20.1513127796351909637451171875">
        <ele>2159.800048828125</ele>
        <time>2026-06-20T10:25:15.000Z</time>
        <extensions>
          <ns3:TrackPointExtension>
            <ns3:atemp>23.0</ns3:atemp>
          </ns3:TrackPointExtension>
        </extensions>
      </trkpt>
      <trkpt lat="42.51471399329602718353271484375" lon="20.1513127796351909637451171875">
        <ele>2159.800048828125</ele>
        <time>2026-06-20T10:25:16.000Z</time>
        <extensions>
          <ns3:TrackPointExtension>
            <ns3:atemp>23.0</ns3:atemp>
          </ns3:TrackPointExtension>
        </extensions>
      </trkpt>
      <trkpt lat="42.51471399329602718353271484375" lon="20.1513127796351909637451171875">
        <ele>2159.800048828125</ele>
        <time>2026-06-20T10:25:17.000Z</time>
        <extensions>
          <ns3:TrackPointExtension>
            <ns3:atemp>23.0</ns3:atemp>
          </ns3:TrackPointExtension>
        </extensions>
      </trkpt>
      <trkpt lat="42.51471399329602718353271484375" lon="20.1513127796351909637451171875">
        <ele>2159.800048828125</ele>
        <time>2026-06-20T10:25:18.000Z</time>
        <extensions>
          <ns3:TrackPointExtension>
            <ns3:atemp>23.0</ns3:atemp>
          </ns3:TrackPointExtension>
        </extensions>
      </trkpt>
      <trkpt lat="42.51471399329602718353271484375" lon="20.1513127796351909637451171875">
        <ele>2159.800048828125</ele>
        <time>2026-06-20T10:25:19.000Z</time>
        <extensions>
          <ns3:TrackPointExtension>
            <ns3:atemp>23.0</ns3:atemp>
          </ns3:TrackPointExtension>
        </extensions>
      </trkpt>
      <trkpt lat="42.51471399329602718353271484375" lon="20.1513127796351909637451171875">
        <ele>2159.800048828125</ele>
        <time>2026-06-20T10:25:20.000Z</time>
        <extensions>
          <ns3:TrackPointExtension>
            <ns3:atemp>23.0</ns3:atemp>
          </ns3:TrackPointExtension>
        </extensions>
      </trkpt>
      <trkpt lat="42.51471399329602718353271484375" lon="20.1513127796351909637451171875">
        <ele>2159.800048828125</ele>
        <time>2026-06-20T10:25:21.000Z</time>
        <extensions>
          <ns3:TrackPointExtension>
            <ns3:atemp>23.0</ns3:atemp>
          </ns3:TrackPointExtension>
        </extensions>
      </trkpt>
      <trkpt lat="42.51471399329602718353271484375" lon="20.1513127796351909637451171875">
        <ele>2159.800048828125</ele>
        <time>2026-06-20T10:25:22.000Z</time>
        <extensions>
          <ns3:TrackPointExtension>
            <ns3:atemp>23.0</ns3:atemp>
          </ns3:TrackPointExtension>
        </extensions>
      </trkpt>
      <trkpt lat="42.51471399329602718353271484375" lon="20.1513127796351909637451171875">
        <ele>2159.800048828125</ele>
        <time>2026-06-20T10:25:23.000Z</time>
        <extensions>
          <ns3:TrackPointExtension>
            <ns3:atemp>23.0</ns3:atemp>
          </ns3:TrackPointExtension>
        </extensions>
      </trkpt>
      <trkpt lat="42.51471399329602718353271484375" lon="20.1513127796351909637451171875">
        <ele>2159.800048828125</ele>
        <time>2026-06-20T10:25:24.000Z</time>
        <extensions>
          <ns3:TrackPointExtension>
            <ns3:atemp>23.0</ns3:atemp>
          </ns3:TrackPointExtension>
        </extensions>
      </trkpt>
      <trkpt lat="42.51471399329602718353271484375" lon="20.1513127796351909637451171875">
        <ele>2159.800048828125</ele>
        <time>2026-06-20T10:25:25.000Z</time>
        <extensions>
          <ns3:TrackPointExtension>
            <ns3:atemp>23.0</ns3:atemp>
          </ns3:TrackPointExtension>
        </extensions>
      </trkpt>
      <trkpt lat="42.51471399329602718353271484375" lon="20.1513127796351909637451171875">
        <ele>2159.800048828125</ele>
        <time>2026-06-20T10:25:26.000Z</time>
        <extensions>
          <ns3:TrackPointExtension>
            <ns3:atemp>23.0</ns3:atemp>
          </ns3:TrackPointExtension>
        </extensions>
      </trkpt>
      <trkpt lat="42.51471399329602718353271484375" lon="20.1513127796351909637451171875">
        <ele>2159.800048828125</ele>
        <time>2026-06-20T10:25:27.000Z</time>
        <extensions>
          <ns3:TrackPointExtension>
            <ns3:atemp>23.0</ns3:atemp>
          </ns3:TrackPointExtension>
        </extensions>
      </trkpt>
      <trkpt lat="42.51471399329602718353271484375" lon="20.1513127796351909637451171875">
        <ele>2159.800048828125</ele>
        <time>2026-06-20T10:25:28.000Z</time>
        <extensions>
          <ns3:TrackPointExtension>
            <ns3:atemp>23.0</ns3:atemp>
          </ns3:TrackPointExtension>
        </extensions>
      </trkpt>
      <trkpt lat="42.51471399329602718353271484375" lon="20.1513127796351909637451171875">
        <ele>2159.800048828125</ele>
        <time>2026-06-20T10:25:29.000Z</time>
        <extensions>
          <ns3:TrackPointExtension>
            <ns3:atemp>23.0</ns3:atemp>
          </ns3:TrackPointExtension>
        </extensions>
      </trkpt>
      <trkpt lat="42.51471399329602718353271484375" lon="20.1513127796351909637451171875">
        <ele>2159.800048828125</ele>
        <time>2026-06-20T10:25:30.000Z</time>
        <extensions>
          <ns3:TrackPointExtension>
            <ns3:atemp>23.0</ns3:atemp>
          </ns3:TrackPointExtension>
        </extensions>
      </trkpt>
      <trkpt lat="42.51471399329602718353271484375" lon="20.1513127796351909637451171875">
        <ele>2159.800048828125</ele>
        <time>2026-06-20T10:25:31.000Z</time>
        <extensions>
          <ns3:TrackPointExtension>
            <ns3:atemp>23.0</ns3:atemp>
          </ns3:TrackPointExtension>
        </extensions>
      </trkpt>
      <trkpt lat="42.51471399329602718353271484375" lon="20.1513127796351909637451171875">
        <ele>2159.800048828125</ele>
        <time>2026-06-20T10:25:32.000Z</time>
        <extensions>
          <ns3:TrackPointExtension>
            <ns3:atemp>23.0</ns3:atemp>
          </ns3:TrackPointExtension>
        </extensions>
      </trkpt>
      <trkpt lat="42.51471399329602718353271484375" lon="20.1513127796351909637451171875">
        <ele>2159.800048828125</ele>
        <time>2026-06-20T10:25:33.000Z</time>
        <extensions>
          <ns3:TrackPointExtension>
            <ns3:atemp>23.0</ns3:atemp>
          </ns3:TrackPointExtension>
        </extensions>
      </trkpt>
      <trkpt lat="42.51471399329602718353271484375" lon="20.1513127796351909637451171875">
        <ele>2159.800048828125</ele>
        <time>2026-06-20T10:25:34.000Z</time>
        <extensions>
          <ns3:TrackPointExtension>
            <ns3:atemp>23.0</ns3:atemp>
          </ns3:TrackPointExtension>
        </extensions>
      </trkpt>
      <trkpt lat="42.51471399329602718353271484375" lon="20.1513127796351909637451171875">
        <ele>2159.800048828125</ele>
        <time>2026-06-20T10:25:35.000Z</time>
        <extensions>
          <ns3:TrackPointExtension>
            <ns3:atemp>23.0</ns3:atemp>
          </ns3:TrackPointExtension>
        </extensions>
      </trkpt>
      <trkpt lat="42.51471399329602718353271484375" lon="20.1513127796351909637451171875">
        <ele>2159.800048828125</ele>
        <time>2026-06-20T10:25:36.000Z</time>
        <extensions>
          <ns3:TrackPointExtension>
            <ns3:atemp>23.0</ns3:atemp>
          </ns3:TrackPointExtension>
        </extensions>
      </trkpt>
      <trkpt lat="42.51471399329602718353271484375" lon="20.1513127796351909637451171875">
        <ele>2159.800048828125</ele>
        <time>2026-06-20T10:25:37.000Z</time>
        <extensions>
          <ns3:TrackPointExtension>
            <ns3:atemp>23.0</ns3:atemp>
          </ns3:TrackPointExtension>
        </extensions>
      </trkpt>
      <trkpt lat="42.51471399329602718353271484375" lon="20.1513127796351909637451171875">
        <ele>2159.800048828125</ele>
        <time>2026-06-20T10:25:38.000Z</time>
        <extensions>
          <ns3:TrackPointExtension>
            <ns3:atemp>23.0</ns3:atemp>
          </ns3:TrackPointExtension>
        </extensions>
      </trkpt>
      <trkpt lat="42.51471399329602718353271484375" lon="20.1513127796351909637451171875">
        <ele>2159.800048828125</ele>
        <time>2026-06-20T10:25:39.000Z</time>
        <extensions>
          <ns3:TrackPointExtension>
            <ns3:atemp>23.0</ns3:atemp>
          </ns3:TrackPointExtension>
        </extensions>
      </trkpt>
      <trkpt lat="42.51471399329602718353271484375" lon="20.1513127796351909637451171875">
        <ele>2159.800048828125</ele>
        <time>2026-06-20T10:25:40.000Z</time>
        <extensions>
          <ns3:TrackPointExtension>
            <ns3:atemp>23.0</ns3:atemp>
          </ns3:TrackPointExtension>
        </extensions>
      </trkpt>
      <trkpt lat="42.51471399329602718353271484375" lon="20.1513127796351909637451171875">
        <ele>2159.800048828125</ele>
        <time>2026-06-20T10:25:41.000Z</time>
        <extensions>
          <ns3:TrackPointExtension>
            <ns3:atemp>23.0</ns3:atemp>
          </ns3:TrackPointExtension>
        </extensions>
      </trkpt>
      <trkpt lat="42.51471399329602718353271484375" lon="20.1513127796351909637451171875">
        <ele>2159.800048828125</ele>
        <time>2026-06-20T10:25:42.000Z</time>
        <extensions>
          <ns3:TrackPointExtension>
            <ns3:atemp>23.0</ns3:atemp>
          </ns3:TrackPointExtension>
        </extensions>
      </trkpt>
      <trkpt lat="42.51471399329602718353271484375" lon="20.1513127796351909637451171875">
        <ele>2159.800048828125</ele>
        <time>2026-06-20T10:25:43.000Z</time>
        <extensions>
          <ns3:TrackPointExtension>
            <ns3:atemp>23.0</ns3:atemp>
          </ns3:TrackPointExtension>
        </extensions>
      </trkpt>
      <trkpt lat="42.51471399329602718353271484375" lon="20.1513127796351909637451171875">
        <ele>2159.800048828125</ele>
        <time>2026-06-20T10:25:44.000Z</time>
        <extensions>
          <ns3:TrackPointExtension>
            <ns3:atemp>23.0</ns3:atemp>
          </ns3:TrackPointExtension>
        </extensions>
      </trkpt>
      <trkpt lat="42.51471399329602718353271484375" lon="20.1513127796351909637451171875">
        <ele>2159.800048828125</ele>
        <time>2026-06-20T10:25:45.000Z</time>
        <extensions>
          <ns3:TrackPointExtension>
            <ns3:atemp>23.0</ns3:atemp>
          </ns3:TrackPointExtension>
        </extensions>
      </trkpt>
      <trkpt lat="42.51471399329602718353271484375" lon="20.1513127796351909637451171875">
        <ele>2159.800048828125</ele>
        <time>2026-06-20T10:25:46.000Z</time>
        <extensions>
          <ns3:TrackPointExtension>
            <ns3:atemp>23.0</ns3:atemp>
          </ns3:TrackPointExtension>
        </extensions>
      </trkpt>
      <trkpt lat="42.51471399329602718353271484375" lon="20.1513127796351909637451171875">
        <ele>2159.800048828125</ele>
        <time>2026-06-20T10:25:47.000Z</time>
        <extensions>
          <ns3:TrackPointExtension>
            <ns3:atemp>23.0</ns3:atemp>
          </ns3:TrackPointExtension>
        </extensions>
      </trkpt>
      <trkpt lat="42.51471399329602718353271484375" lon="20.1513127796351909637451171875">
        <ele>2159.800048828125</ele>
        <time>2026-06-20T10:25:48.000Z</time>
        <extensions>
          <ns3:TrackPointExtension>
            <ns3:atemp>23.0</ns3:atemp>
          </ns3:TrackPointExtension>
        </extensions>
      </trkpt>
      <trkpt lat="42.51471399329602718353271484375" lon="20.1513127796351909637451171875">
        <ele>2159.800048828125</ele>
        <time>2026-06-20T10:25:49.000Z</time>
        <extensions>
          <ns3:TrackPointExtension>
            <ns3:atemp>23.0</ns3:atemp>
          </ns3:TrackPointExtension>
        </extensions>
      </trkpt>
      <trkpt lat="42.51471399329602718353271484375" lon="20.1513127796351909637451171875">
        <ele>2159.800048828125</ele>
        <time>2026-06-20T10:25:50.000Z</time>
        <extensions>
          <ns3:TrackPointExtension>
            <ns3:atemp>23.0</ns3:atemp>
          </ns3:TrackPointExtension>
        </extensions>
      </trkpt>
      <trkpt lat="42.51471399329602718353271484375" lon="20.1513127796351909637451171875">
        <ele>2159.800048828125</ele>
        <time>2026-06-20T10:25:51.000Z</time>
        <extensions>
          <ns3:TrackPointExtension>
            <ns3:atemp>23.0</ns3:atemp>
          </ns3:TrackPointExtension>
        </extensions>
      </trkpt>
      <trkpt lat="42.51471399329602718353271484375" lon="20.1513127796351909637451171875">
        <ele>2159.800048828125</ele>
        <time>2026-06-20T10:25:52.000Z</time>
        <extensions>
          <ns3:TrackPointExtension>
            <ns3:atemp>23.0</ns3:atemp>
          </ns3:TrackPointExtension>
        </extensions>
      </trkpt>
      <trkpt lat="42.51471399329602718353271484375" lon="20.1513127796351909637451171875">
        <ele>2159.800048828125</ele>
        <time>2026-06-20T10:25:53.000Z</time>
        <extensions>
          <ns3:TrackPointExtension>
            <ns3:atemp>23.0</ns3:atemp>
          </ns3:TrackPointExtension>
        </extensions>
      </trkpt>
      <trkpt lat="42.51471399329602718353271484375" lon="20.1513127796351909637451171875">
        <ele>2159.800048828125</ele>
        <time>2026-06-20T10:25:54.000Z</time>
        <extensions>
          <ns3:TrackPointExtension>
            <ns3:atemp>23.0</ns3:atemp>
          </ns3:TrackPointExtension>
        </extensions>
      </trkpt>
      <trkpt lat="42.51471399329602718353271484375" lon="20.1513127796351909637451171875">
        <ele>2159.800048828125</ele>
        <time>2026-06-20T10:25:55.000Z</time>
        <extensions>
          <ns3:TrackPointExtension>
            <ns3:atemp>23.0</ns3:atemp>
          </ns3:TrackPointExtension>
        </extensions>
      </trkpt>
      <trkpt lat="42.51471399329602718353271484375" lon="20.1513127796351909637451171875">
        <ele>2159.800048828125</ele>
        <time>2026-06-20T10:25:56.000Z</time>
        <extensions>
          <ns3:TrackPointExtension>
            <ns3:atemp>23.0</ns3:atemp>
          </ns3:TrackPointExtension>
        </extensions>
      </trkpt>
      <trkpt lat="42.51471399329602718353271484375" lon="20.1513127796351909637451171875">
        <ele>2159.800048828125</ele>
        <time>2026-06-20T10:25:57.000Z</time>
        <extensions>
          <ns3:TrackPointExtension>
            <ns3:atemp>23.0</ns3:atemp>
          </ns3:TrackPointExtension>
        </extensions>
      </trkpt>
      <trkpt lat="42.51471399329602718353271484375" lon="20.1513127796351909637451171875">
        <ele>2159.800048828125</ele>
        <time>2026-06-20T10:25:58.000Z</time>
        <extensions>
          <ns3:TrackPointExtension>
            <ns3:atemp>23.0</ns3:atemp>
          </ns3:TrackPointExtension>
        </extensions>
      </trkpt>
      <trkpt lat="42.51471399329602718353271484375" lon="20.1513127796351909637451171875">
        <ele>2159.800048828125</ele>
        <time>2026-06-20T10:25:59.000Z</time>
        <extensions>
          <ns3:TrackPointExtension>
            <ns3:atemp>23.0</ns3:atemp>
          </ns3:TrackPointExtension>
        </extensions>
      </trkpt>
      <trkpt lat="42.51471399329602718353271484375" lon="20.1513127796351909637451171875">
        <ele>2159.800048828125</ele>
        <time>2026-06-20T10:26:00.000Z</time>
        <extensions>
          <ns3:TrackPointExtension>
            <ns3:atemp>23.0</ns3:atemp>
          </ns3:TrackPointExtension>
        </extensions>
      </trkpt>
      <trkpt lat="42.51471399329602718353271484375" lon="20.1513127796351909637451171875">
        <ele>2159.800048828125</ele>
        <time>2026-06-20T10:26:01.000Z</time>
        <extensions>
          <ns3:TrackPointExtension>
            <ns3:atemp>23.0</ns3:atemp>
          </ns3:TrackPointExtension>
        </extensions>
      </trkpt>
      <trkpt lat="42.51471399329602718353271484375" lon="20.1513127796351909637451171875">
        <ele>2159.800048828125</ele>
        <time>2026-06-20T10:26:02.000Z</time>
        <extensions>
          <ns3:TrackPointExtension>
            <ns3:atemp>23.0</ns3:atemp>
          </ns3:TrackPointExtension>
        </extensions>
      </trkpt>
      <trkpt lat="42.51471399329602718353271484375" lon="20.1513127796351909637451171875">
        <ele>2159.800048828125</ele>
        <time>2026-06-20T10:26:03.000Z</time>
        <extensions>
          <ns3:TrackPointExtension>
            <ns3:atemp>23.0</ns3:atemp>
          </ns3:TrackPointExtension>
        </extensions>
      </trkpt>
      <trkpt lat="42.51471399329602718353271484375" lon="20.1513127796351909637451171875">
        <ele>2159.800048828125</ele>
        <time>2026-06-20T10:26:04.000Z</time>
        <extensions>
          <ns3:TrackPointExtension>
            <ns3:atemp>23.0</ns3:atemp>
          </ns3:TrackPointExtension>
        </extensions>
      </trkpt>
      <trkpt lat="42.51471399329602718353271484375" lon="20.1513127796351909637451171875">
        <ele>2159.800048828125</ele>
        <time>2026-06-20T10:26:05.000Z</time>
        <extensions>
          <ns3:TrackPointExtension>
            <ns3:atemp>23.0</ns3:atemp>
          </ns3:TrackPointExtension>
        </extensions>
      </trkpt>
      <trkpt lat="42.51471399329602718353271484375" lon="20.1513127796351909637451171875">
        <ele>2159.800048828125</ele>
        <time>2026-06-20T10:26:06.000Z</time>
        <extensions>
          <ns3:TrackPointExtension>
            <ns3:atemp>23.0</ns3:atemp>
          </ns3:TrackPointExtension>
        </extensions>
      </trkpt>
      <trkpt lat="42.51471399329602718353271484375" lon="20.1513127796351909637451171875">
        <ele>2159.800048828125</ele>
        <time>2026-06-20T10:26:07.000Z</time>
        <extensions>
          <ns3:TrackPointExtension>
            <ns3:atemp>23.0</ns3:atemp>
          </ns3:TrackPointExtension>
        </extensions>
      </trkpt>
      <trkpt lat="42.51471399329602718353271484375" lon="20.1513127796351909637451171875">
        <ele>2159.800048828125</ele>
        <time>2026-06-20T10:26:08.000Z</time>
        <extensions>
          <ns3:TrackPointExtension>
            <ns3:atemp>23.0</ns3:atemp>
          </ns3:TrackPointExtension>
        </extensions>
      </trkpt>
      <trkpt lat="42.51471399329602718353271484375" lon="20.1513127796351909637451171875">
        <ele>2159.800048828125</ele>
        <time>2026-06-20T10:26:09.000Z</time>
        <extensions>
          <ns3:TrackPointExtension>
            <ns3:atemp>23.0</ns3:atemp>
          </ns3:TrackPointExtension>
        </extensions>
      </trkpt>
      <trkpt lat="42.51471399329602718353271484375" lon="20.1513127796351909637451171875">
        <ele>2159.800048828125</ele>
        <time>2026-06-20T10:26:10.000Z</time>
        <extensions>
          <ns3:TrackPointExtension>
            <ns3:atemp>23.0</ns3:atemp>
          </ns3:TrackPointExtension>
        </extensions>
      </trkpt>
      <trkpt lat="42.51471399329602718353271484375" lon="20.1513127796351909637451171875">
        <ele>2159.800048828125</ele>
        <time>2026-06-20T10:26:11.000Z</time>
        <extensions>
          <ns3:TrackPointExtension>
            <ns3:atemp>23.0</ns3:atemp>
          </ns3:TrackPointExtension>
        </extensions>
      </trkpt>
      <trkpt lat="42.51471399329602718353271484375" lon="20.1513127796351909637451171875">
        <ele>2159.800048828125</ele>
        <time>2026-06-20T10:26:12.000Z</time>
        <extensions>
          <ns3:TrackPointExtension>
            <ns3:atemp>23.0</ns3:atemp>
          </ns3:TrackPointExtension>
        </extensions>
      </trkpt>
      <trkpt lat="42.51471399329602718353271484375" lon="20.1513127796351909637451171875">
        <ele>2159.800048828125</ele>
        <time>2026-06-20T10:26:13.000Z</time>
        <extensions>
          <ns3:TrackPointExtension>
            <ns3:atemp>23.0</ns3:atemp>
          </ns3:TrackPointExtension>
        </extensions>
      </trkpt>
      <trkpt lat="42.51471399329602718353271484375" lon="20.1513127796351909637451171875">
        <ele>2159.800048828125</ele>
        <time>2026-06-20T10:26:14.000Z</time>
        <extensions>
          <ns3:TrackPointExtension>
            <ns3:atemp>23.0</ns3:atemp>
          </ns3:TrackPointExtension>
        </extensions>
      </trkpt>
      <trkpt lat="42.51471399329602718353271484375" lon="20.1513127796351909637451171875">
        <ele>2159.800048828125</ele>
        <time>2026-06-20T10:26:15.000Z</time>
        <extensions>
          <ns3:TrackPointExtension>
            <ns3:atemp>23.0</ns3:atemp>
          </ns3:TrackPointExtension>
        </extensions>
      </trkpt>
      <trkpt lat="42.51471399329602718353271484375" lon="20.1513127796351909637451171875">
        <ele>2159.800048828125</ele>
        <time>2026-06-20T10:26:16.000Z</time>
        <extensions>
          <ns3:TrackPointExtension>
            <ns3:atemp>23.0</ns3:atemp>
          </ns3:TrackPointExtension>
        </extensions>
      </trkpt>
      <trkpt lat="42.51471399329602718353271484375" lon="20.1513127796351909637451171875">
        <ele>2159.800048828125</ele>
        <time>2026-06-20T10:26:17.000Z</time>
        <extensions>
          <ns3:TrackPointExtension>
            <ns3:atemp>23.0</ns3:atemp>
          </ns3:TrackPointExtension>
        </extensions>
      </trkpt>
      <trkpt lat="42.51471399329602718353271484375" lon="20.1513127796351909637451171875">
        <ele>2159.800048828125</ele>
        <time>2026-06-20T10:26:18.000Z</time>
        <extensions>
          <ns3:TrackPointExtension>
            <ns3:atemp>23.0</ns3:atemp>
          </ns3:TrackPointExtension>
        </extensions>
      </trkpt>
      <trkpt lat="42.51471399329602718353271484375" lon="20.1513127796351909637451171875">
        <ele>2159.800048828125</ele>
        <time>2026-06-20T10:26:19.000Z</time>
        <extensions>
          <ns3:TrackPointExtension>
            <ns3:atemp>23.0</ns3:atemp>
          </ns3:TrackPointExtension>
        </extensions>
      </trkpt>
      <trkpt lat="42.51471399329602718353271484375" lon="20.1513127796351909637451171875">
        <ele>2159.800048828125</ele>
        <time>2026-06-20T10:26:20.000Z</time>
        <extensions>
          <ns3:TrackPointExtension>
            <ns3:atemp>23.0</ns3:atemp>
          </ns3:TrackPointExtension>
        </extensions>
      </trkpt>
      <trkpt lat="42.51471399329602718353271484375" lon="20.1513127796351909637451171875">
        <ele>2159.800048828125</ele>
        <time>2026-06-20T10:26:21.000Z</time>
        <extensions>
          <ns3:TrackPointExtension>
            <ns3:atemp>23.0</ns3:atemp>
          </ns3:TrackPointExtension>
        </extensions>
      </trkpt>
      <trkpt lat="42.51471399329602718353271484375" lon="20.1513127796351909637451171875">
        <ele>2159.800048828125</ele>
        <time>2026-06-20T10:26:22.000Z</time>
        <extensions>
          <ns3:TrackPointExtension>
            <ns3:atemp>23.0</ns3:atemp>
          </ns3:TrackPointExtension>
        </extensions>
      </trkpt>
      <trkpt lat="42.51471399329602718353271484375" lon="20.1513127796351909637451171875">
        <ele>2159.800048828125</ele>
        <time>2026-06-20T10:26:23.000Z</time>
        <extensions>
          <ns3:TrackPointExtension>
            <ns3:atemp>23.0</ns3:atemp>
          </ns3:TrackPointExtension>
        </extensions>
      </trkpt>
      <trkpt lat="42.51471399329602718353271484375" lon="20.1513127796351909637451171875">
        <ele>2159.800048828125</ele>
        <time>2026-06-20T10:26:24.000Z</time>
        <extensions>
          <ns3:TrackPointExtension>
            <ns3:atemp>23.0</ns3:atemp>
          </ns3:TrackPointExtension>
        </extensions>
      </trkpt>
      <trkpt lat="42.51471399329602718353271484375" lon="20.1513127796351909637451171875">
        <ele>2159.800048828125</ele>
        <time>2026-06-20T10:26:25.000Z</time>
        <extensions>
          <ns3:TrackPointExtension>
            <ns3:atemp>23.0</ns3:atemp>
          </ns3:TrackPointExtension>
        </extensions>
      </trkpt>
      <trkpt lat="42.51471399329602718353271484375" lon="20.1513127796351909637451171875">
        <ele>2159.800048828125</ele>
        <time>2026-06-20T10:26:26.000Z</time>
        <extensions>
          <ns3:TrackPointExtension>
            <ns3:atemp>23.0</ns3:atemp>
          </ns3:TrackPointExtension>
        </extensions>
      </trkpt>
      <trkpt lat="42.51471399329602718353271484375" lon="20.1513127796351909637451171875">
        <ele>2159.800048828125</ele>
        <time>2026-06-20T10:26:27.000Z</time>
        <extensions>
          <ns3:TrackPointExtension>
            <ns3:atemp>23.0</ns3:atemp>
          </ns3:TrackPointExtension>
        </extensions>
      </trkpt>
      <trkpt lat="42.51471399329602718353271484375" lon="20.1513127796351909637451171875">
        <ele>2159.800048828125</ele>
        <time>2026-06-20T10:26:28.000Z</time>
        <extensions>
          <ns3:TrackPointExtension>
            <ns3:atemp>23.0</ns3:atemp>
          </ns3:TrackPointExtension>
        </extensions>
      </trkpt>
      <trkpt lat="42.51471399329602718353271484375" lon="20.1513127796351909637451171875">
        <ele>2159.800048828125</ele>
        <time>2026-06-20T10:26:29.000Z</time>
        <extensions>
          <ns3:TrackPointExtension>
            <ns3:atemp>23.0</ns3:atemp>
          </ns3:TrackPointExtension>
        </extensions>
      </trkpt>
      <trkpt lat="42.51471399329602718353271484375" lon="20.1513127796351909637451171875">
        <ele>2159.800048828125</ele>
        <time>2026-06-20T10:26:30.000Z</time>
        <extensions>
          <ns3:TrackPointExtension>
            <ns3:atemp>23.0</ns3:atemp>
          </ns3:TrackPointExtension>
        </extensions>
      </trkpt>
      <trkpt lat="42.51471399329602718353271484375" lon="20.1513127796351909637451171875">
        <ele>2159.800048828125</ele>
        <time>2026-06-20T10:26:31.000Z</time>
        <extensions>
          <ns3:TrackPointExtension>
            <ns3:atemp>23.0</ns3:atemp>
          </ns3:TrackPointExtension>
        </extensions>
      </trkpt>
      <trkpt lat="42.51471399329602718353271484375" lon="20.1513127796351909637451171875">
        <ele>2159.800048828125</ele>
        <time>2026-06-20T10:26:32.000Z</time>
        <extensions>
          <ns3:TrackPointExtension>
            <ns3:atemp>23.0</ns3:atemp>
          </ns3:TrackPointExtension>
        </extensions>
      </trkpt>
      <trkpt lat="42.51471399329602718353271484375" lon="20.1513127796351909637451171875">
        <ele>2159.800048828125</ele>
        <time>2026-06-20T10:26:33.000Z</time>
        <extensions>
          <ns3:TrackPointExtension>
            <ns3:atemp>23.0</ns3:atemp>
          </ns3:TrackPointExtension>
        </extensions>
      </trkpt>
      <trkpt lat="42.51471399329602718353271484375" lon="20.1513127796351909637451171875">
        <ele>2159.800048828125</ele>
        <time>2026-06-20T10:26:34.000Z</time>
        <extensions>
          <ns3:TrackPointExtension>
            <ns3:atemp>23.0</ns3:atemp>
          </ns3:TrackPointExtension>
        </extensions>
      </trkpt>
      <trkpt lat="42.51471399329602718353271484375" lon="20.1513127796351909637451171875">
        <ele>2159.800048828125</ele>
        <time>2026-06-20T10:26:35.000Z</time>
        <extensions>
          <ns3:TrackPointExtension>
            <ns3:atemp>23.0</ns3:atemp>
          </ns3:TrackPointExtension>
        </extensions>
      </trkpt>
      <trkpt lat="42.51471399329602718353271484375" lon="20.1513127796351909637451171875">
        <ele>2159.800048828125</ele>
        <time>2026-06-20T10:26:36.000Z</time>
        <extensions>
          <ns3:TrackPointExtension>
            <ns3:atemp>23.0</ns3:atemp>
          </ns3:TrackPointExtension>
        </extensions>
      </trkpt>
      <trkpt lat="42.51471399329602718353271484375" lon="20.1513127796351909637451171875">
        <ele>2159.800048828125</ele>
        <time>2026-06-20T10:26:37.000Z</time>
        <extensions>
          <ns3:TrackPointExtension>
            <ns3:atemp>23.0</ns3:atemp>
          </ns3:TrackPointExtension>
        </extensions>
      </trkpt>
      <trkpt lat="42.51471399329602718353271484375" lon="20.1513127796351909637451171875">
        <ele>2159.800048828125</ele>
        <time>2026-06-20T10:26:38.000Z</time>
        <extensions>
          <ns3:TrackPointExtension>
            <ns3:atemp>23.0</ns3:atemp>
          </ns3:TrackPointExtension>
        </extensions>
      </trkpt>
      <trkpt lat="42.51471399329602718353271484375" lon="20.1513127796351909637451171875">
        <ele>2159.800048828125</ele>
        <time>2026-06-20T10:26:39.000Z</time>
        <extensions>
          <ns3:TrackPointExtension>
            <ns3:atemp>23.0</ns3:atemp>
          </ns3:TrackPointExtension>
        </extensions>
      </trkpt>
      <trkpt lat="42.51471399329602718353271484375" lon="20.1513127796351909637451171875">
        <ele>2159.800048828125</ele>
        <time>2026-06-20T10:26:40.000Z</time>
        <extensions>
          <ns3:TrackPointExtension>
            <ns3:atemp>23.0</ns3:atemp>
          </ns3:TrackPointExtension>
        </extensions>
      </trkpt>
      <trkpt lat="42.51471399329602718353271484375" lon="20.1513127796351909637451171875">
        <ele>2159.800048828125</ele>
        <time>2026-06-20T10:26:41.000Z</time>
        <extensions>
          <ns3:TrackPointExtension>
            <ns3:atemp>23.0</ns3:atemp>
          </ns3:TrackPointExtension>
        </extensions>
      </trkpt>
      <trkpt lat="42.51471399329602718353271484375" lon="20.1513127796351909637451171875">
        <ele>2159.800048828125</ele>
        <time>2026-06-20T10:26:42.000Z</time>
        <extensions>
          <ns3:TrackPointExtension>
            <ns3:atemp>23.0</ns3:atemp>
          </ns3:TrackPointExtension>
        </extensions>
      </trkpt>
      <trkpt lat="42.51471399329602718353271484375" lon="20.1513127796351909637451171875">
        <ele>2159.800048828125</ele>
        <time>2026-06-20T10:26:43.000Z</time>
        <extensions>
          <ns3:TrackPointExtension>
            <ns3:atemp>23.0</ns3:atemp>
          </ns3:TrackPointExtension>
        </extensions>
      </trkpt>
      <trkpt lat="42.51471399329602718353271484375" lon="20.1513127796351909637451171875">
        <ele>2159.800048828125</ele>
        <time>2026-06-20T10:26:44.000Z</time>
        <extensions>
          <ns3:TrackPointExtension>
            <ns3:atemp>23.0</ns3:atemp>
          </ns3:TrackPointExtension>
        </extensions>
      </trkpt>
      <trkpt lat="42.51471399329602718353271484375" lon="20.1513127796351909637451171875">
        <ele>2159.800048828125</ele>
        <time>2026-06-20T10:26:45.000Z</time>
        <extensions>
          <ns3:TrackPointExtension>
            <ns3:atemp>23.0</ns3:atemp>
          </ns3:TrackPointExtension>
        </extensions>
      </trkpt>
      <trkpt lat="42.51471399329602718353271484375" lon="20.1513127796351909637451171875">
        <ele>2159.800048828125</ele>
        <time>2026-06-20T10:26:46.000Z</time>
        <extensions>
          <ns3:TrackPointExtension>
            <ns3:atemp>23.0</ns3:atemp>
          </ns3:TrackPointExtension>
        </extensions>
      </trkpt>
      <trkpt lat="42.51471399329602718353271484375" lon="20.1513127796351909637451171875">
        <ele>2159.800048828125</ele>
        <time>2026-06-20T10:26:47.000Z</time>
        <extensions>
          <ns3:TrackPointExtension>
            <ns3:atemp>23.0</ns3:atemp>
          </ns3:TrackPointExtension>
        </extensions>
      </trkpt>
      <trkpt lat="42.51471399329602718353271484375" lon="20.1513127796351909637451171875">
        <ele>2159.800048828125</ele>
        <time>2026-06-20T10:26:48.000Z</time>
        <extensions>
          <ns3:TrackPointExtension>
            <ns3:atemp>23.0</ns3:atemp>
          </ns3:TrackPointExtension>
        </extensions>
      </trkpt>
      <trkpt lat="42.51471399329602718353271484375" lon="20.1513127796351909637451171875">
        <ele>2159.800048828125</ele>
        <time>2026-06-20T10:26:49.000Z</time>
        <extensions>
          <ns3:TrackPointExtension>
            <ns3:atemp>23.0</ns3:atemp>
          </ns3:TrackPointExtension>
        </extensions>
      </trkpt>
      <trkpt lat="42.51471399329602718353271484375" lon="20.1513127796351909637451171875">
        <ele>2159.800048828125</ele>
        <time>2026-06-20T10:26:50.000Z</time>
        <extensions>
          <ns3:TrackPointExtension>
            <ns3:atemp>23.0</ns3:atemp>
          </ns3:TrackPointExtension>
        </extensions>
      </trkpt>
      <trkpt lat="42.51471399329602718353271484375" lon="20.1513127796351909637451171875">
        <ele>2159.800048828125</ele>
        <time>2026-06-20T10:26:51.000Z</time>
        <extensions>
          <ns3:TrackPointExtension>
            <ns3:atemp>23.0</ns3:atemp>
          </ns3:TrackPointExtension>
        </extensions>
      </trkpt>
      <trkpt lat="42.51471399329602718353271484375" lon="20.1513127796351909637451171875">
        <ele>2159.800048828125</ele>
        <time>2026-06-20T10:26:52.000Z</time>
        <extensions>
          <ns3:TrackPointExtension>
            <ns3:atemp>23.0</ns3:atemp>
          </ns3:TrackPointExtension>
        </extensions>
      </trkpt>
      <trkpt lat="42.51471399329602718353271484375" lon="20.1513127796351909637451171875">
        <ele>2159.800048828125</ele>
        <time>2026-06-20T10:26:53.000Z</time>
        <extensions>
          <ns3:TrackPointExtension>
            <ns3:atemp>23.0</ns3:atemp>
          </ns3:TrackPointExtension>
        </extensions>
      </trkpt>
      <trkpt lat="42.51471399329602718353271484375" lon="20.1513127796351909637451171875">
        <ele>2159.800048828125</ele>
        <time>2026-06-20T10:26:54.000Z</time>
        <extensions>
          <ns3:TrackPointExtension>
            <ns3:atemp>23.0</ns3:atemp>
          </ns3:TrackPointExtension>
        </extensions>
      </trkpt>
      <trkpt lat="42.51471399329602718353271484375" lon="20.1513127796351909637451171875">
        <ele>2159.800048828125</ele>
        <time>2026-06-20T10:26:55.000Z</time>
        <extensions>
          <ns3:TrackPointExtension>
            <ns3:atemp>23.0</ns3:atemp>
          </ns3:TrackPointExtension>
        </extensions>
      </trkpt>
      <trkpt lat="42.51471399329602718353271484375" lon="20.1513127796351909637451171875">
        <ele>2159.800048828125</ele>
        <time>2026-06-20T10:26:56.000Z</time>
        <extensions>
          <ns3:TrackPointExtension>
            <ns3:atemp>23.0</ns3:atemp>
          </ns3:TrackPointExtension>
        </extensions>
      </trkpt>
      <trkpt lat="42.51471399329602718353271484375" lon="20.1513127796351909637451171875">
        <ele>2159.800048828125</ele>
        <time>2026-06-20T10:26:57.000Z</time>
        <extensions>
          <ns3:TrackPointExtension>
            <ns3:atemp>23.0</ns3:atemp>
          </ns3:TrackPointExtension>
        </extensions>
      </trkpt>
      <trkpt lat="42.51471399329602718353271484375" lon="20.1513127796351909637451171875">
        <ele>2159.800048828125</ele>
        <time>2026-06-20T10:26:58.000Z</time>
        <extensions>
          <ns3:TrackPointExtension>
            <ns3:atemp>23.0</ns3:atemp>
          </ns3:TrackPointExtension>
        </extensions>
      </trkpt>
      <trkpt lat="42.51471399329602718353271484375" lon="20.1513127796351909637451171875">
        <ele>2159.800048828125</ele>
        <time>2026-06-20T10:26:59.000Z</time>
        <extensions>
          <ns3:TrackPointExtension>
            <ns3:atemp>23.0</ns3:atemp>
          </ns3:TrackPointExtension>
        </extensions>
      </trkpt>
      <trkpt lat="42.51471399329602718353271484375" lon="20.1513127796351909637451171875">
        <ele>2159.800048828125</ele>
        <time>2026-06-20T10:27:00.000Z</time>
        <extensions>
          <ns3:TrackPointExtension>
            <ns3:atemp>23.0</ns3:atemp>
          </ns3:TrackPointExtension>
        </extensions>
      </trkpt>
      <trkpt lat="42.51471399329602718353271484375" lon="20.1513127796351909637451171875">
        <ele>2159.800048828125</ele>
        <time>2026-06-20T10:27:01.000Z</time>
        <extensions>
          <ns3:TrackPointExtension>
            <ns3:atemp>23.0</ns3:atemp>
          </ns3:TrackPointExtension>
        </extensions>
      </trkpt>
      <trkpt lat="42.51471399329602718353271484375" lon="20.1513127796351909637451171875">
        <ele>2159.800048828125</ele>
        <time>2026-06-20T10:27:02.000Z</time>
        <extensions>
          <ns3:TrackPointExtension>
            <ns3:atemp>23.0</ns3:atemp>
          </ns3:TrackPointExtension>
        </extensions>
      </trkpt>
      <trkpt lat="42.51471399329602718353271484375" lon="20.1513127796351909637451171875">
        <ele>2159.800048828125</ele>
        <time>2026-06-20T10:27:03.000Z</time>
        <extensions>
          <ns3:TrackPointExtension>
            <ns3:atemp>23.0</ns3:atemp>
          </ns3:TrackPointExtension>
        </extensions>
      </trkpt>
      <trkpt lat="42.51471399329602718353271484375" lon="20.1513127796351909637451171875">
        <ele>2159.800048828125</ele>
        <time>2026-06-20T10:27:04.000Z</time>
        <extensions>
          <ns3:TrackPointExtension>
            <ns3:atemp>23.0</ns3:atemp>
          </ns3:TrackPointExtension>
        </extensions>
      </trkpt>
      <trkpt lat="42.51471399329602718353271484375" lon="20.1513127796351909637451171875">
        <ele>2159.800048828125</ele>
        <time>2026-06-20T10:27:05.000Z</time>
        <extensions>
          <ns3:TrackPointExtension>
            <ns3:atemp>23.0</ns3:atemp>
          </ns3:TrackPointExtension>
        </extensions>
      </trkpt>
      <trkpt lat="42.51471399329602718353271484375" lon="20.1513127796351909637451171875">
        <ele>2159.800048828125</ele>
        <time>2026-06-20T10:27:06.000Z</time>
        <extensions>
          <ns3:TrackPointExtension>
            <ns3:atemp>23.0</ns3:atemp>
          </ns3:TrackPointExtension>
        </extensions>
      </trkpt>
      <trkpt lat="42.51471399329602718353271484375" lon="20.1513127796351909637451171875">
        <ele>2159.800048828125</ele>
        <time>2026-06-20T10:27:07.000Z</time>
        <extensions>
          <ns3:TrackPointExtension>
            <ns3:atemp>23.0</ns3:atemp>
          </ns3:TrackPointExtension>
        </extensions>
      </trkpt>
      <trkpt lat="42.51471399329602718353271484375" lon="20.1513127796351909637451171875">
        <ele>2159.800048828125</ele>
        <time>2026-06-20T10:27:08.000Z</time>
        <extensions>
          <ns3:TrackPointExtension>
            <ns3:atemp>23.0</ns3:atemp>
          </ns3:TrackPointExtension>
        </extensions>
      </trkpt>
      <trkpt lat="42.51471399329602718353271484375" lon="20.1513127796351909637451171875">
        <ele>2159.800048828125</ele>
        <time>2026-06-20T10:27:09.000Z</time>
        <extensions>
          <ns3:TrackPointExtension>
            <ns3:atemp>23.0</ns3:atemp>
          </ns3:TrackPointExtension>
        </extensions>
      </trkpt>
      <trkpt lat="42.51471399329602718353271484375" lon="20.1513127796351909637451171875">
        <ele>2159.800048828125</ele>
        <time>2026-06-20T10:27:10.000Z</time>
        <extensions>
          <ns3:TrackPointExtension>
            <ns3:atemp>23.0</ns3:atemp>
          </ns3:TrackPointExtension>
        </extensions>
      </trkpt>
      <trkpt lat="42.51471399329602718353271484375" lon="20.1513127796351909637451171875">
        <ele>2159.800048828125</ele>
        <time>2026-06-20T10:27:11.000Z</time>
        <extensions>
          <ns3:TrackPointExtension>
            <ns3:atemp>23.0</ns3:atemp>
          </ns3:TrackPointExtension>
        </extensions>
      </trkpt>
      <trkpt lat="42.51471399329602718353271484375" lon="20.1513127796351909637451171875">
        <ele>2159.800048828125</ele>
        <time>2026-06-20T10:27:12.000Z</time>
        <extensions>
          <ns3:TrackPointExtension>
            <ns3:atemp>23.0</ns3:atemp>
          </ns3:TrackPointExtension>
        </extensions>
      </trkpt>
      <trkpt lat="42.51471399329602718353271484375" lon="20.1513127796351909637451171875">
        <ele>2159.800048828125</ele>
        <time>2026-06-20T10:27:13.000Z</time>
        <extensions>
          <ns3:TrackPointExtension>
            <ns3:atemp>23.0</ns3:atemp>
          </ns3:TrackPointExtension>
        </extensions>
      </trkpt>
      <trkpt lat="42.51471399329602718353271484375" lon="20.1513127796351909637451171875">
        <ele>2159.800048828125</ele>
        <time>2026-06-20T10:27:14.000Z</time>
        <extensions>
          <ns3:TrackPointExtension>
            <ns3:atemp>23.0</ns3:atemp>
          </ns3:TrackPointExtension>
        </extensions>
      </trkpt>
      <trkpt lat="42.51471399329602718353271484375" lon="20.1513127796351909637451171875">
        <ele>2159.800048828125</ele>
        <time>2026-06-20T10:27:15.000Z</time>
        <extensions>
          <ns3:TrackPointExtension>
            <ns3:atemp>23.0</ns3:atemp>
          </ns3:TrackPointExtension>
        </extensions>
      </trkpt>
      <trkpt lat="42.51471399329602718353271484375" lon="20.1513127796351909637451171875">
        <ele>2159.800048828125</ele>
        <time>2026-06-20T10:27:16.000Z</time>
        <extensions>
          <ns3:TrackPointExtension>
            <ns3:atemp>23.0</ns3:atemp>
          </ns3:TrackPointExtension>
        </extensions>
      </trkpt>
      <trkpt lat="42.51471399329602718353271484375" lon="20.1513127796351909637451171875">
        <ele>2159.800048828125</ele>
        <time>2026-06-20T10:27:17.000Z</time>
        <extensions>
          <ns3:TrackPointExtension>
            <ns3:atemp>23.0</ns3:atemp>
          </ns3:TrackPointExtension>
        </extensions>
      </trkpt>
      <trkpt lat="42.51471399329602718353271484375" lon="20.1513127796351909637451171875">
        <ele>2159.800048828125</ele>
        <time>2026-06-20T10:27:18.000Z</time>
        <extensions>
          <ns3:TrackPointExtension>
            <ns3:atemp>23.0</ns3:atemp>
          </ns3:TrackPointExtension>
        </extensions>
      </trkpt>
      <trkpt lat="42.51471399329602718353271484375" lon="20.1513127796351909637451171875">
        <ele>2159.800048828125</ele>
        <time>2026-06-20T10:27:19.000Z</time>
        <extensions>
          <ns3:TrackPointExtension>
            <ns3:atemp>23.0</ns3:atemp>
          </ns3:TrackPointExtension>
        </extensions>
      </trkpt>
      <trkpt lat="42.51471399329602718353271484375" lon="20.1513127796351909637451171875">
        <ele>2159.800048828125</ele>
        <time>2026-06-20T10:27:20.000Z</time>
        <extensions>
          <ns3:TrackPointExtension>
            <ns3:atemp>23.0</ns3:atemp>
          </ns3:TrackPointExtension>
        </extensions>
      </trkpt>
      <trkpt lat="42.51471399329602718353271484375" lon="20.1513127796351909637451171875">
        <ele>2159.800048828125</ele>
        <time>2026-06-20T10:27:21.000Z</time>
        <extensions>
          <ns3:TrackPointExtension>
            <ns3:atemp>23.0</ns3:atemp>
          </ns3:TrackPointExtension>
        </extensions>
      </trkpt>
      <trkpt lat="42.51471399329602718353271484375" lon="20.1513127796351909637451171875">
        <ele>2159.800048828125</ele>
        <time>2026-06-20T10:27:22.000Z</time>
        <extensions>
          <ns3:TrackPointExtension>
            <ns3:atemp>23.0</ns3:atemp>
          </ns3:TrackPointExtension>
        </extensions>
      </trkpt>
      <trkpt lat="42.51471399329602718353271484375" lon="20.1513127796351909637451171875">
        <ele>2159.800048828125</ele>
        <time>2026-06-20T10:27:23.000Z</time>
        <extensions>
          <ns3:TrackPointExtension>
            <ns3:atemp>23.0</ns3:atemp>
          </ns3:TrackPointExtension>
        </extensions>
      </trkpt>
      <trkpt lat="42.51471399329602718353271484375" lon="20.1513127796351909637451171875">
        <ele>2159.800048828125</ele>
        <time>2026-06-20T10:27:24.000Z</time>
        <extensions>
          <ns3:TrackPointExtension>
            <ns3:atemp>23.0</ns3:atemp>
          </ns3:TrackPointExtension>
        </extensions>
      </trkpt>
      <trkpt lat="42.51471399329602718353271484375" lon="20.1513127796351909637451171875">
        <ele>2159.800048828125</ele>
        <time>2026-06-20T10:27:25.000Z</time>
        <extensions>
          <ns3:TrackPointExtension>
            <ns3:atemp>23.0</ns3:atemp>
          </ns3:TrackPointExtension>
        </extensions>
      </trkpt>
      <trkpt lat="42.51471399329602718353271484375" lon="20.1513127796351909637451171875">
        <ele>2159.800048828125</ele>
        <time>2026-06-20T10:27:26.000Z</time>
        <extensions>
          <ns3:TrackPointExtension>
            <ns3:atemp>23.0</ns3:atemp>
          </ns3:TrackPointExtension>
        </extensions>
      </trkpt>
      <trkpt lat="42.51471399329602718353271484375" lon="20.1513127796351909637451171875">
        <ele>2159.800048828125</ele>
        <time>2026-06-20T10:27:27.000Z</time>
        <extensions>
          <ns3:TrackPointExtension>
            <ns3:atemp>23.0</ns3:atemp>
          </ns3:TrackPointExtension>
        </extensions>
      </trkpt>
      <trkpt lat="42.51471399329602718353271484375" lon="20.1513127796351909637451171875">
        <ele>2159.800048828125</ele>
        <time>2026-06-20T10:27:28.000Z</time>
        <extensions>
          <ns3:TrackPointExtension>
            <ns3:atemp>23.0</ns3:atemp>
          </ns3:TrackPointExtension>
        </extensions>
      </trkpt>
      <trkpt lat="42.51471399329602718353271484375" lon="20.1513127796351909637451171875">
        <ele>2159.800048828125</ele>
        <time>2026-06-20T10:27:29.000Z</time>
        <extensions>
          <ns3:TrackPointExtension>
            <ns3:atemp>23.0</ns3:atemp>
          </ns3:TrackPointExtension>
        </extensions>
      </trkpt>
      <trkpt lat="42.51471399329602718353271484375" lon="20.1513127796351909637451171875">
        <ele>2159.800048828125</ele>
        <time>2026-06-20T10:27:30.000Z</time>
        <extensions>
          <ns3:TrackPointExtension>
            <ns3:atemp>23.0</ns3:atemp>
          </ns3:TrackPointExtension>
        </extensions>
      </trkpt>
      <trkpt lat="42.51471399329602718353271484375" lon="20.1513127796351909637451171875">
        <ele>2159.800048828125</ele>
        <time>2026-06-20T10:27:31.000Z</time>
        <extensions>
          <ns3:TrackPointExtension>
            <ns3:atemp>23.0</ns3:atemp>
          </ns3:TrackPointExtension>
        </extensions>
      </trkpt>
      <trkpt lat="42.51471399329602718353271484375" lon="20.1513127796351909637451171875">
        <ele>2159.800048828125</ele>
        <time>2026-06-20T10:27:32.000Z</time>
        <extensions>
          <ns3:TrackPointExtension>
            <ns3:atemp>23.0</ns3:atemp>
          </ns3:TrackPointExtension>
        </extensions>
      </trkpt>
      <trkpt lat="42.51471399329602718353271484375" lon="20.1513127796351909637451171875">
        <ele>2159.800048828125</ele>
        <time>2026-06-20T10:27:33.000Z</time>
        <extensions>
          <ns3:TrackPointExtension>
            <ns3:atemp>23.0</ns3:atemp>
          </ns3:TrackPointExtension>
        </extensions>
      </trkpt>
      <trkpt lat="42.51471399329602718353271484375" lon="20.1513127796351909637451171875">
        <ele>2159.800048828125</ele>
        <time>2026-06-20T10:27:34.000Z</time>
        <extensions>
          <ns3:TrackPointExtension>
            <ns3:atemp>23.0</ns3:atemp>
          </ns3:TrackPointExtension>
        </extensions>
      </trkpt>
      <trkpt lat="42.51471399329602718353271484375" lon="20.1513127796351909637451171875">
        <ele>2159.800048828125</ele>
        <time>2026-06-20T10:27:35.000Z</time>
        <extensions>
          <ns3:TrackPointExtension>
            <ns3:atemp>23.0</ns3:atemp>
          </ns3:TrackPointExtension>
        </extensions>
      </trkpt>
      <trkpt lat="42.51471399329602718353271484375" lon="20.1513127796351909637451171875">
        <ele>2159.800048828125</ele>
        <time>2026-06-20T10:27:36.000Z</time>
        <extensions>
          <ns3:TrackPointExtension>
            <ns3:atemp>23.0</ns3:atemp>
          </ns3:TrackPointExtension>
        </extensions>
      </trkpt>
      <trkpt lat="42.51471399329602718353271484375" lon="20.1513127796351909637451171875">
        <ele>2159.800048828125</ele>
        <time>2026-06-20T10:27:37.000Z</time>
        <extensions>
          <ns3:TrackPointExtension>
            <ns3:atemp>23.0</ns3:atemp>
          </ns3:TrackPointExtension>
        </extensions>
      </trkpt>
      <trkpt lat="42.51471399329602718353271484375" lon="20.1513127796351909637451171875">
        <ele>2159.800048828125</ele>
        <time>2026-06-20T10:27:38.000Z</time>
        <extensions>
          <ns3:TrackPointExtension>
            <ns3:atemp>23.0</ns3:atemp>
          </ns3:TrackPointExtension>
        </extensions>
      </trkpt>
      <trkpt lat="42.51471399329602718353271484375" lon="20.1513127796351909637451171875">
        <ele>2159.800048828125</ele>
        <time>2026-06-20T10:27:39.000Z</time>
        <extensions>
          <ns3:TrackPointExtension>
            <ns3:atemp>23.0</ns3:atemp>
          </ns3:TrackPointExtension>
        </extensions>
      </trkpt>
      <trkpt lat="42.51471399329602718353271484375" lon="20.1513127796351909637451171875">
        <ele>2159.800048828125</ele>
        <time>2026-06-20T10:27:40.000Z</time>
        <extensions>
          <ns3:TrackPointExtension>
            <ns3:atemp>23.0</ns3:atemp>
          </ns3:TrackPointExtension>
        </extensions>
      </trkpt>
      <trkpt lat="42.51471399329602718353271484375" lon="20.1513127796351909637451171875">
        <ele>2159.800048828125</ele>
        <time>2026-06-20T10:27:41.000Z</time>
        <extensions>
          <ns3:TrackPointExtension>
            <ns3:atemp>23.0</ns3:atemp>
          </ns3:TrackPointExtension>
        </extensions>
      </trkpt>
      <trkpt lat="42.51471399329602718353271484375" lon="20.1513127796351909637451171875">
        <ele>2159.800048828125</ele>
        <time>2026-06-20T10:27:42.000Z</time>
        <extensions>
          <ns3:TrackPointExtension>
            <ns3:atemp>23.0</ns3:atemp>
          </ns3:TrackPointExtension>
        </extensions>
      </trkpt>
      <trkpt lat="42.51471399329602718353271484375" lon="20.1513127796351909637451171875">
        <ele>2159.800048828125</ele>
        <time>2026-06-20T10:27:43.000Z</time>
        <extensions>
          <ns3:TrackPointExtension>
            <ns3:atemp>23.0</ns3:atemp>
          </ns3:TrackPointExtension>
        </extensions>
      </trkpt>
      <trkpt lat="42.51471399329602718353271484375" lon="20.1513127796351909637451171875">
        <ele>2159.800048828125</ele>
        <time>2026-06-20T10:27:44.000Z</time>
        <extensions>
          <ns3:TrackPointExtension>
            <ns3:atemp>23.0</ns3:atemp>
          </ns3:TrackPointExtension>
        </extensions>
      </trkpt>
      <trkpt lat="42.51471399329602718353271484375" lon="20.1513127796351909637451171875">
        <ele>2159.800048828125</ele>
        <time>2026-06-20T10:27:45.000Z</time>
        <extensions>
          <ns3:TrackPointExtension>
            <ns3:atemp>23.0</ns3:atemp>
          </ns3:TrackPointExtension>
        </extensions>
      </trkpt>
      <trkpt lat="42.51471399329602718353271484375" lon="20.1513127796351909637451171875">
        <ele>2159.800048828125</ele>
        <time>2026-06-20T10:27:46.000Z</time>
        <extensions>
          <ns3:TrackPointExtension>
            <ns3:atemp>23.0</ns3:atemp>
          </ns3:TrackPointExtension>
        </extensions>
      </trkpt>
      <trkpt lat="42.51471399329602718353271484375" lon="20.1513127796351909637451171875">
        <ele>2159.800048828125</ele>
        <time>2026-06-20T10:27:47.000Z</time>
        <extensions>
          <ns3:TrackPointExtension>
            <ns3:atemp>23.0</ns3:atemp>
          </ns3:TrackPointExtension>
        </extensions>
      </trkpt>
      <trkpt lat="42.51471399329602718353271484375" lon="20.1513127796351909637451171875">
        <ele>2159.800048828125</ele>
        <time>2026-06-20T10:27:48.000Z</time>
        <extensions>
          <ns3:TrackPointExtension>
            <ns3:atemp>23.0</ns3:atemp>
          </ns3:TrackPointExtension>
        </extensions>
      </trkpt>
      <trkpt lat="42.51471399329602718353271484375" lon="20.1513127796351909637451171875">
        <ele>2159.800048828125</ele>
        <time>2026-06-20T10:27:49.000Z</time>
        <extensions>
          <ns3:TrackPointExtension>
            <ns3:atemp>23.0</ns3:atemp>
          </ns3:TrackPointExtension>
        </extensions>
      </trkpt>
      <trkpt lat="42.51471399329602718353271484375" lon="20.1513127796351909637451171875">
        <ele>2159.800048828125</ele>
        <time>2026-06-20T10:27:50.000Z</time>
        <extensions>
          <ns3:TrackPointExtension>
            <ns3:atemp>23.0</ns3:atemp>
          </ns3:TrackPointExtension>
        </extensions>
      </trkpt>
      <trkpt lat="42.51471399329602718353271484375" lon="20.1513127796351909637451171875">
        <ele>2159.800048828125</ele>
        <time>2026-06-20T10:27:51.000Z</time>
        <extensions>
          <ns3:TrackPointExtension>
            <ns3:atemp>23.0</ns3:atemp>
          </ns3:TrackPointExtension>
        </extensions>
      </trkpt>
      <trkpt lat="42.51471399329602718353271484375" lon="20.1513127796351909637451171875">
        <ele>2159.800048828125</ele>
        <time>2026-06-20T10:27:52.000Z</time>
        <extensions>
          <ns3:TrackPointExtension>
            <ns3:atemp>23.0</ns3:atemp>
          </ns3:TrackPointExtension>
        </extensions>
      </trkpt>
      <trkpt lat="42.51471399329602718353271484375" lon="20.1513127796351909637451171875">
        <ele>2159.800048828125</ele>
        <time>2026-06-20T10:27:53.000Z</time>
        <extensions>
          <ns3:TrackPointExtension>
            <ns3:atemp>23.0</ns3:atemp>
          </ns3:TrackPointExtension>
        </extensions>
      </trkpt>
      <trkpt lat="42.51471399329602718353271484375" lon="20.1513127796351909637451171875">
        <ele>2159.800048828125</ele>
        <time>2026-06-20T10:27:54.000Z</time>
        <extensions>
          <ns3:TrackPointExtension>
            <ns3:atemp>23.0</ns3:atemp>
          </ns3:TrackPointExtension>
        </extensions>
      </trkpt>
      <trkpt lat="42.51471399329602718353271484375" lon="20.1513127796351909637451171875">
        <ele>2159.800048828125</ele>
        <time>2026-06-20T10:27:55.000Z</time>
        <extensions>
          <ns3:TrackPointExtension>
            <ns3:atemp>23.0</ns3:atemp>
          </ns3:TrackPointExtension>
        </extensions>
      </trkpt>
      <trkpt lat="42.51471399329602718353271484375" lon="20.1513127796351909637451171875">
        <ele>2159.800048828125</ele>
        <time>2026-06-20T10:27:56.000Z</time>
        <extensions>
          <ns3:TrackPointExtension>
            <ns3:atemp>23.0</ns3:atemp>
          </ns3:TrackPointExtension>
        </extensions>
      </trkpt>
      <trkpt lat="42.51471399329602718353271484375" lon="20.1513127796351909637451171875">
        <ele>2159.800048828125</ele>
        <time>2026-06-20T10:27:57.000Z</time>
        <extensions>
          <ns3:TrackPointExtension>
            <ns3:atemp>23.0</ns3:atemp>
          </ns3:TrackPointExtension>
        </extensions>
      </trkpt>
      <trkpt lat="42.51471399329602718353271484375" lon="20.1513127796351909637451171875">
        <ele>2159.800048828125</ele>
        <time>2026-06-20T10:27:58.000Z</time>
        <extensions>
          <ns3:TrackPointExtension>
            <ns3:atemp>23.0</ns3:atemp>
          </ns3:TrackPointExtension>
        </extensions>
      </trkpt>
      <trkpt lat="42.51471399329602718353271484375" lon="20.1513127796351909637451171875">
        <ele>2159.800048828125</ele>
        <time>2026-06-20T10:27:59.000Z</time>
        <extensions>
          <ns3:TrackPointExtension>
            <ns3:atemp>23.0</ns3:atemp>
          </ns3:TrackPointExtension>
        </extensions>
      </trkpt>
      <trkpt lat="42.51471399329602718353271484375" lon="20.1513127796351909637451171875">
        <ele>2159.800048828125</ele>
        <time>2026-06-20T10:28:00.000Z</time>
        <extensions>
          <ns3:TrackPointExtension>
            <ns3:atemp>23.0</ns3:atemp>
          </ns3:TrackPointExtension>
        </extensions>
      </trkpt>
      <trkpt lat="42.51471399329602718353271484375" lon="20.1513127796351909637451171875">
        <ele>2159.800048828125</ele>
        <time>2026-06-20T10:28:01.000Z</time>
        <extensions>
          <ns3:TrackPointExtension>
            <ns3:atemp>23.0</ns3:atemp>
          </ns3:TrackPointExtension>
        </extensions>
      </trkpt>
      <trkpt lat="42.51471399329602718353271484375" lon="20.1513127796351909637451171875">
        <ele>2159.800048828125</ele>
        <time>2026-06-20T10:28:02.000Z</time>
        <extensions>
          <ns3:TrackPointExtension>
            <ns3:atemp>23.0</ns3:atemp>
          </ns3:TrackPointExtension>
        </extensions>
      </trkpt>
      <trkpt lat="42.51471399329602718353271484375" lon="20.1513127796351909637451171875">
        <ele>2159.800048828125</ele>
        <time>2026-06-20T10:28:03.000Z</time>
        <extensions>
          <ns3:TrackPointExtension>
            <ns3:atemp>23.0</ns3:atemp>
          </ns3:TrackPointExtension>
        </extensions>
      </trkpt>
      <trkpt lat="42.51471399329602718353271484375" lon="20.1513127796351909637451171875">
        <ele>2159.800048828125</ele>
        <time>2026-06-20T10:28:04.000Z</time>
        <extensions>
          <ns3:TrackPointExtension>
            <ns3:atemp>23.0</ns3:atemp>
          </ns3:TrackPointExtension>
        </extensions>
      </trkpt>
      <trkpt lat="42.51471399329602718353271484375" lon="20.1513127796351909637451171875">
        <ele>2159.800048828125</ele>
        <time>2026-06-20T10:28:05.000Z</time>
        <extensions>
          <ns3:TrackPointExtension>
            <ns3:atemp>23.0</ns3:atemp>
          </ns3:TrackPointExtension>
        </extensions>
      </trkpt>
      <trkpt lat="42.51471399329602718353271484375" lon="20.1513127796351909637451171875">
        <ele>2159.800048828125</ele>
        <time>2026-06-20T10:28:06.000Z</time>
        <extensions>
          <ns3:TrackPointExtension>
            <ns3:atemp>23.0</ns3:atemp>
          </ns3:TrackPointExtension>
        </extensions>
      </trkpt>
      <trkpt lat="42.51471399329602718353271484375" lon="20.1513127796351909637451171875">
        <ele>2159.800048828125</ele>
        <time>2026-06-20T10:28:07.000Z</time>
        <extensions>
          <ns3:TrackPointExtension>
            <ns3:atemp>23.0</ns3:atemp>
          </ns3:TrackPointExtension>
        </extensions>
      </trkpt>
      <trkpt lat="42.51471399329602718353271484375" lon="20.1513127796351909637451171875">
        <ele>2159.800048828125</ele>
        <time>2026-06-20T10:28:08.000Z</time>
        <extensions>
          <ns3:TrackPointExtension>
            <ns3:atemp>23.0</ns3:atemp>
          </ns3:TrackPointExtension>
        </extensions>
      </trkpt>
      <trkpt lat="42.51471399329602718353271484375" lon="20.1513127796351909637451171875">
        <ele>2159.800048828125</ele>
        <time>2026-06-20T10:28:09.000Z</time>
        <extensions>
          <ns3:TrackPointExtension>
            <ns3:atemp>23.0</ns3:atemp>
          </ns3:TrackPointExtension>
        </extensions>
      </trkpt>
      <trkpt lat="42.51471399329602718353271484375" lon="20.1513127796351909637451171875">
        <ele>2159.800048828125</ele>
        <time>2026-06-20T10:28:10.000Z</time>
        <extensions>
          <ns3:TrackPointExtension>
            <ns3:atemp>23.0</ns3:atemp>
          </ns3:TrackPointExtension>
        </extensions>
      </trkpt>
      <trkpt lat="42.51471399329602718353271484375" lon="20.1513127796351909637451171875">
        <ele>2159.800048828125</ele>
        <time>2026-06-20T10:28:11.000Z</time>
        <extensions>
          <ns3:TrackPointExtension>
            <ns3:atemp>23.0</ns3:atemp>
          </ns3:TrackPointExtension>
        </extensions>
      </trkpt>
      <trkpt lat="42.51471399329602718353271484375" lon="20.1513127796351909637451171875">
        <ele>2159.800048828125</ele>
        <time>2026-06-20T10:28:12.000Z</time>
        <extensions>
          <ns3:TrackPointExtension>
            <ns3:atemp>23.0</ns3:atemp>
          </ns3:TrackPointExtension>
        </extensions>
      </trkpt>
      <trkpt lat="42.51471399329602718353271484375" lon="20.1513127796351909637451171875">
        <ele>2159.800048828125</ele>
        <time>2026-06-20T10:28:13.000Z</time>
        <extensions>
          <ns3:TrackPointExtension>
            <ns3:atemp>23.0</ns3:atemp>
          </ns3:TrackPointExtension>
        </extensions>
      </trkpt>
      <trkpt lat="42.51471399329602718353271484375" lon="20.1513127796351909637451171875">
        <ele>2159.800048828125</ele>
        <time>2026-06-20T10:28:14.000Z</time>
        <extensions>
          <ns3:TrackPointExtension>
            <ns3:atemp>23.0</ns3:atemp>
          </ns3:TrackPointExtension>
        </extensions>
      </trkpt>
      <trkpt lat="42.51471399329602718353271484375" lon="20.1513127796351909637451171875">
        <ele>2159.800048828125</ele>
        <time>2026-06-20T10:28:15.000Z</time>
        <extensions>
          <ns3:TrackPointExtension>
            <ns3:atemp>23.0</ns3:atemp>
          </ns3:TrackPointExtension>
        </extensions>
      </trkpt>
      <trkpt lat="42.51471399329602718353271484375" lon="20.1513127796351909637451171875">
        <ele>2159.800048828125</ele>
        <time>2026-06-20T10:28:16.000Z</time>
        <extensions>
          <ns3:TrackPointExtension>
            <ns3:atemp>23.0</ns3:atemp>
          </ns3:TrackPointExtension>
        </extensions>
      </trkpt>
      <trkpt lat="42.51471399329602718353271484375" lon="20.1513127796351909637451171875">
        <ele>2159.800048828125</ele>
        <time>2026-06-20T10:28:17.000Z</time>
        <extensions>
          <ns3:TrackPointExtension>
            <ns3:atemp>23.0</ns3:atemp>
          </ns3:TrackPointExtension>
        </extensions>
      </trkpt>
      <trkpt lat="42.51471399329602718353271484375" lon="20.1513127796351909637451171875">
        <ele>2159.800048828125</ele>
        <time>2026-06-20T10:28:18.000Z</time>
        <extensions>
          <ns3:TrackPointExtension>
            <ns3:atemp>23.0</ns3:atemp>
          </ns3:TrackPointExtension>
        </extensions>
      </trkpt>
      <trkpt lat="42.51471399329602718353271484375" lon="20.1513127796351909637451171875">
        <ele>2159.800048828125</ele>
        <time>2026-06-20T10:28:19.000Z</time>
        <extensions>
          <ns3:TrackPointExtension>
            <ns3:atemp>23.0</ns3:atemp>
          </ns3:TrackPointExtension>
        </extensions>
      </trkpt>
      <trkpt lat="42.51471399329602718353271484375" lon="20.1513127796351909637451171875">
        <ele>2159.800048828125</ele>
        <time>2026-06-20T10:28:20.000Z</time>
        <extensions>
          <ns3:TrackPointExtension>
            <ns3:atemp>23.0</ns3:atemp>
          </ns3:TrackPointExtension>
        </extensions>
      </trkpt>
      <trkpt lat="42.51471399329602718353271484375" lon="20.1513127796351909637451171875">
        <ele>2159.800048828125</ele>
        <time>2026-06-20T10:28:21.000Z</time>
        <extensions>
          <ns3:TrackPointExtension>
            <ns3:atemp>23.0</ns3:atemp>
          </ns3:TrackPointExtension>
        </extensions>
      </trkpt>
      <trkpt lat="42.51471399329602718353271484375" lon="20.1513127796351909637451171875">
        <ele>2159.800048828125</ele>
        <time>2026-06-20T10:28:22.000Z</time>
        <extensions>
          <ns3:TrackPointExtension>
            <ns3:atemp>23.0</ns3:atemp>
          </ns3:TrackPointExtension>
        </extensions>
      </trkpt>
      <trkpt lat="42.51471399329602718353271484375" lon="20.1513127796351909637451171875">
        <ele>2159.800048828125</ele>
        <time>2026-06-20T10:28:23.000Z</time>
        <extensions>
          <ns3:TrackPointExtension>
            <ns3:atemp>23.0</ns3:atemp>
          </ns3:TrackPointExtension>
        </extensions>
      </trkpt>
      <trkpt lat="42.51471399329602718353271484375" lon="20.1513127796351909637451171875">
        <ele>2159.800048828125</ele>
        <time>2026-06-20T10:28:24.000Z</time>
        <extensions>
          <ns3:TrackPointExtension>
            <ns3:atemp>23.0</ns3:atemp>
          </ns3:TrackPointExtension>
        </extensions>
      </trkpt>
      <trkpt lat="42.51471399329602718353271484375" lon="20.1513127796351909637451171875">
        <ele>2159.800048828125</ele>
        <time>2026-06-20T10:28:25.000Z</time>
        <extensions>
          <ns3:TrackPointExtension>
            <ns3:atemp>23.0</ns3:atemp>
          </ns3:TrackPointExtension>
        </extensions>
      </trkpt>
      <trkpt lat="42.51471399329602718353271484375" lon="20.1513127796351909637451171875">
        <ele>2159.800048828125</ele>
        <time>2026-06-20T10:28:26.000Z</time>
        <extensions>
          <ns3:TrackPointExtension>
            <ns3:atemp>23.0</ns3:atemp>
          </ns3:TrackPointExtension>
        </extensions>
      </trkpt>
      <trkpt lat="42.51471399329602718353271484375" lon="20.1513127796351909637451171875">
        <ele>2159.800048828125</ele>
        <time>2026-06-20T10:28:27.000Z</time>
        <extensions>
          <ns3:TrackPointExtension>
            <ns3:atemp>23.0</ns3:atemp>
          </ns3:TrackPointExtension>
        </extensions>
      </trkpt>
      <trkpt lat="42.51471399329602718353271484375" lon="20.1513127796351909637451171875">
        <ele>2159.800048828125</ele>
        <time>2026-06-20T10:28:28.000Z</time>
        <extensions>
          <ns3:TrackPointExtension>
            <ns3:atemp>23.0</ns3:atemp>
          </ns3:TrackPointExtension>
        </extensions>
      </trkpt>
      <trkpt lat="42.51471399329602718353271484375" lon="20.1513127796351909637451171875">
        <ele>2159.800048828125</ele>
        <time>2026-06-20T10:28:29.000Z</time>
        <extensions>
          <ns3:TrackPointExtension>
            <ns3:atemp>23.0</ns3:atemp>
          </ns3:TrackPointExtension>
        </extensions>
      </trkpt>
      <trkpt lat="42.51471399329602718353271484375" lon="20.1513127796351909637451171875">
        <ele>2159.800048828125</ele>
        <time>2026-06-20T10:28:30.000Z</time>
        <extensions>
          <ns3:TrackPointExtension>
            <ns3:atemp>23.0</ns3:atemp>
          </ns3:TrackPointExtension>
        </extensions>
      </trkpt>
      <trkpt lat="42.51471399329602718353271484375" lon="20.1513127796351909637451171875">
        <ele>2159.800048828125</ele>
        <time>2026-06-20T10:28:31.000Z</time>
        <extensions>
          <ns3:TrackPointExtension>
            <ns3:atemp>23.0</ns3:atemp>
          </ns3:TrackPointExtension>
        </extensions>
      </trkpt>
      <trkpt lat="42.51471399329602718353271484375" lon="20.1513127796351909637451171875">
        <ele>2159.800048828125</ele>
        <time>2026-06-20T10:28:32.000Z</time>
        <extensions>
          <ns3:TrackPointExtension>
            <ns3:atemp>23.0</ns3:atemp>
          </ns3:TrackPointExtension>
        </extensions>
      </trkpt>
      <trkpt lat="42.51471399329602718353271484375" lon="20.1513127796351909637451171875">
        <ele>2159.800048828125</ele>
        <time>2026-06-20T10:28:33.000Z</time>
        <extensions>
          <ns3:TrackPointExtension>
            <ns3:atemp>23.0</ns3:atemp>
          </ns3:TrackPointExtension>
        </extensions>
      </trkpt>
      <trkpt lat="42.51471399329602718353271484375" lon="20.1513127796351909637451171875">
        <ele>2159.800048828125</ele>
        <time>2026-06-20T10:28:34.000Z</time>
        <extensions>
          <ns3:TrackPointExtension>
            <ns3:atemp>23.0</ns3:atemp>
          </ns3:TrackPointExtension>
        </extensions>
      </trkpt>
      <trkpt lat="42.51471399329602718353271484375" lon="20.1513127796351909637451171875">
        <ele>2159.800048828125</ele>
        <time>2026-06-20T10:28:35.000Z</time>
        <extensions>
          <ns3:TrackPointExtension>
            <ns3:atemp>23.0</ns3:atemp>
          </ns3:TrackPointExtension>
        </extensions>
      </trkpt>
      <trkpt lat="42.51471399329602718353271484375" lon="20.1513127796351909637451171875">
        <ele>2159.800048828125</ele>
        <time>2026-06-20T10:28:36.000Z</time>
        <extensions>
          <ns3:TrackPointExtension>
            <ns3:atemp>23.0</ns3:atemp>
          </ns3:TrackPointExtension>
        </extensions>
      </trkpt>
      <trkpt lat="42.51471399329602718353271484375" lon="20.1513127796351909637451171875">
        <ele>2159.800048828125</ele>
        <time>2026-06-20T10:28:37.000Z</time>
        <extensions>
          <ns3:TrackPointExtension>
            <ns3:atemp>23.0</ns3:atemp>
          </ns3:TrackPointExtension>
        </extensions>
      </trkpt>
      <trkpt lat="42.51471399329602718353271484375" lon="20.1513127796351909637451171875">
        <ele>2159.800048828125</ele>
        <time>2026-06-20T10:28:38.000Z</time>
        <extensions>
          <ns3:TrackPointExtension>
            <ns3:atemp>23.0</ns3:atemp>
          </ns3:TrackPointExtension>
        </extensions>
      </trkpt>
      <trkpt lat="42.51471399329602718353271484375" lon="20.1513127796351909637451171875">
        <ele>2159.800048828125</ele>
        <time>2026-06-20T10:28:39.000Z</time>
        <extensions>
          <ns3:TrackPointExtension>
            <ns3:atemp>23.0</ns3:atemp>
          </ns3:TrackPointExtension>
        </extensions>
      </trkpt>
      <trkpt lat="42.51471399329602718353271484375" lon="20.1513127796351909637451171875">
        <ele>2159.800048828125</ele>
        <time>2026-06-20T10:28:40.000Z</time>
        <extensions>
          <ns3:TrackPointExtension>
            <ns3:atemp>23.0</ns3:atemp>
          </ns3:TrackPointExtension>
        </extensions>
      </trkpt>
      <trkpt lat="42.51471399329602718353271484375" lon="20.1513127796351909637451171875">
        <ele>2159.800048828125</ele>
        <time>2026-06-20T10:28:41.000Z</time>
        <extensions>
          <ns3:TrackPointExtension>
            <ns3:atemp>23.0</ns3:atemp>
          </ns3:TrackPointExtension>
        </extensions>
      </trkpt>
      <trkpt lat="42.51471399329602718353271484375" lon="20.1513127796351909637451171875">
        <ele>2159.800048828125</ele>
        <time>2026-06-20T10:28:42.000Z</time>
        <extensions>
          <ns3:TrackPointExtension>
            <ns3:atemp>23.0</ns3:atemp>
          </ns3:TrackPointExtension>
        </extensions>
      </trkpt>
      <trkpt lat="42.51471399329602718353271484375" lon="20.1513127796351909637451171875">
        <ele>2159.800048828125</ele>
        <time>2026-06-20T10:28:43.000Z</time>
        <extensions>
          <ns3:TrackPointExtension>
            <ns3:atemp>23.0</ns3:atemp>
          </ns3:TrackPointExtension>
        </extensions>
      </trkpt>
      <trkpt lat="42.51471399329602718353271484375" lon="20.1513127796351909637451171875">
        <ele>2159.800048828125</ele>
        <time>2026-06-20T10:28:44.000Z</time>
        <extensions>
          <ns3:TrackPointExtension>
            <ns3:atemp>23.0</ns3:atemp>
          </ns3:TrackPointExtension>
        </extensions>
      </trkpt>
      <trkpt lat="42.51471399329602718353271484375" lon="20.1513127796351909637451171875">
        <ele>2159.800048828125</ele>
        <time>2026-06-20T10:28:45.000Z</time>
        <extensions>
          <ns3:TrackPointExtension>
            <ns3:atemp>23.0</ns3:atemp>
          </ns3:TrackPointExtension>
        </extensions>
      </trkpt>
      <trkpt lat="42.51471399329602718353271484375" lon="20.1513127796351909637451171875">
        <ele>2159.800048828125</ele>
        <time>2026-06-20T10:28:46.000Z</time>
        <extensions>
          <ns3:TrackPointExtension>
            <ns3:atemp>23.0</ns3:atemp>
          </ns3:TrackPointExtension>
        </extensions>
      </trkpt>
      <trkpt lat="42.51471399329602718353271484375" lon="20.1513127796351909637451171875">
        <ele>2159.800048828125</ele>
        <time>2026-06-20T10:28:47.000Z</time>
        <extensions>
          <ns3:TrackPointExtension>
            <ns3:atemp>23.0</ns3:atemp>
          </ns3:TrackPointExtension>
        </extensions>
      </trkpt>
      <trkpt lat="42.51471399329602718353271484375" lon="20.1513127796351909637451171875">
        <ele>2159.800048828125</ele>
        <time>2026-06-20T10:28:48.000Z</time>
        <extensions>
          <ns3:TrackPointExtension>
            <ns3:atemp>23.0</ns3:atemp>
          </ns3:TrackPointExtension>
        </extensions>
      </trkpt>
      <trkpt lat="42.51471399329602718353271484375" lon="20.1513127796351909637451171875">
        <ele>2159.800048828125</ele>
        <time>2026-06-20T10:28:49.000Z</time>
        <extensions>
          <ns3:TrackPointExtension>
            <ns3:atemp>23.0</ns3:atemp>
          </ns3:TrackPointExtension>
        </extensions>
      </trkpt>
      <trkpt lat="42.51471399329602718353271484375" lon="20.1513127796351909637451171875">
        <ele>2159.800048828125</ele>
        <time>2026-06-20T10:28:50.000Z</time>
        <extensions>
          <ns3:TrackPointExtension>
            <ns3:atemp>23.0</ns3:atemp>
          </ns3:TrackPointExtension>
        </extensions>
      </trkpt>
      <trkpt lat="42.51471399329602718353271484375" lon="20.1513127796351909637451171875">
        <ele>2159.800048828125</ele>
        <time>2026-06-20T10:28:51.000Z</time>
        <extensions>
          <ns3:TrackPointExtension>
            <ns3:atemp>23.0</ns3:atemp>
          </ns3:TrackPointExtension>
        </extensions>
      </trkpt>
      <trkpt lat="42.51471399329602718353271484375" lon="20.1513127796351909637451171875">
        <ele>2159.800048828125</ele>
        <time>2026-06-20T10:28:52.000Z</time>
        <extensions>
          <ns3:TrackPointExtension>
            <ns3:atemp>23.0</ns3:atemp>
          </ns3:TrackPointExtension>
        </extensions>
      </trkpt>
      <trkpt lat="42.51471399329602718353271484375" lon="20.1513127796351909637451171875">
        <ele>2159.800048828125</ele>
        <time>2026-06-20T10:28:53.000Z</time>
        <extensions>
          <ns3:TrackPointExtension>
            <ns3:atemp>23.0</ns3:atemp>
          </ns3:TrackPointExtension>
        </extensions>
      </trkpt>
      <trkpt lat="42.51471399329602718353271484375" lon="20.1513127796351909637451171875">
        <ele>2159.800048828125</ele>
        <time>2026-06-20T10:28:54.000Z</time>
        <extensions>
          <ns3:TrackPointExtension>
            <ns3:atemp>23.0</ns3:atemp>
          </ns3:TrackPointExtension>
        </extensions>
      </trkpt>
      <trkpt lat="42.51471399329602718353271484375" lon="20.1513127796351909637451171875">
        <ele>2159.800048828125</ele>
        <time>2026-06-20T10:28:55.000Z</time>
        <extensions>
          <ns3:TrackPointExtension>
            <ns3:atemp>23.0</ns3:atemp>
          </ns3:TrackPointExtension>
        </extensions>
      </trkpt>
      <trkpt lat="42.51471399329602718353271484375" lon="20.1513127796351909637451171875">
        <ele>2159.800048828125</ele>
        <time>2026-06-20T10:28:56.000Z</time>
        <extensions>
          <ns3:TrackPointExtension>
            <ns3:atemp>23.0</ns3:atemp>
          </ns3:TrackPointExtension>
        </extensions>
      </trkpt>
      <trkpt lat="42.51471399329602718353271484375" lon="20.1513127796351909637451171875">
        <ele>2159.800048828125</ele>
        <time>2026-06-20T10:28:57.000Z</time>
        <extensions>
          <ns3:TrackPointExtension>
            <ns3:atemp>23.0</ns3:atemp>
          </ns3:TrackPointExtension>
        </extensions>
      </trkpt>
      <trkpt lat="42.51471399329602718353271484375" lon="20.1513127796351909637451171875">
        <ele>2159.800048828125</ele>
        <time>2026-06-20T10:28:58.000Z</time>
        <extensions>
          <ns3:TrackPointExtension>
            <ns3:atemp>23.0</ns3:atemp>
          </ns3:TrackPointExtension>
        </extensions>
      </trkpt>
      <trkpt lat="42.51471399329602718353271484375" lon="20.1513127796351909637451171875">
        <ele>2159.800048828125</ele>
        <time>2026-06-20T10:28:59.000Z</time>
        <extensions>
          <ns3:TrackPointExtension>
            <ns3:atemp>23.0</ns3:atemp>
          </ns3:TrackPointExtension>
        </extensions>
      </trkpt>
      <trkpt lat="42.51471399329602718353271484375" lon="20.1513127796351909637451171875">
        <ele>2159.800048828125</ele>
        <time>2026-06-20T10:29:00.000Z</time>
        <extensions>
          <ns3:TrackPointExtension>
            <ns3:atemp>23.0</ns3:atemp>
          </ns3:TrackPointExtension>
        </extensions>
      </trkpt>
      <trkpt lat="42.51471399329602718353271484375" lon="20.1513127796351909637451171875">
        <ele>2159.800048828125</ele>
        <time>2026-06-20T10:29:01.000Z</time>
        <extensions>
          <ns3:TrackPointExtension>
            <ns3:atemp>23.0</ns3:atemp>
          </ns3:TrackPointExtension>
        </extensions>
      </trkpt>
      <trkpt lat="42.51471399329602718353271484375" lon="20.1513127796351909637451171875">
        <ele>2159.800048828125</ele>
        <time>2026-06-20T10:29:02.000Z</time>
        <extensions>
          <ns3:TrackPointExtension>
            <ns3:atemp>23.0</ns3:atemp>
          </ns3:TrackPointExtension>
        </extensions>
      </trkpt>
      <trkpt lat="42.51471399329602718353271484375" lon="20.1513127796351909637451171875">
        <ele>2159.800048828125</ele>
        <time>2026-06-20T10:29:03.000Z</time>
        <extensions>
          <ns3:TrackPointExtension>
            <ns3:atemp>23.0</ns3:atemp>
          </ns3:TrackPointExtension>
        </extensions>
      </trkpt>
      <trkpt lat="42.51471399329602718353271484375" lon="20.1513127796351909637451171875">
        <ele>2159.800048828125</ele>
        <time>2026-06-20T10:29:04.000Z</time>
        <extensions>
          <ns3:TrackPointExtension>
            <ns3:atemp>23.0</ns3:atemp>
          </ns3:TrackPointExtension>
        </extensions>
      </trkpt>
      <trkpt lat="42.51471399329602718353271484375" lon="20.1513127796351909637451171875">
        <ele>2159.800048828125</ele>
        <time>2026-06-20T10:29:05.000Z</time>
        <extensions>
          <ns3:TrackPointExtension>
            <ns3:atemp>23.0</ns3:atemp>
          </ns3:TrackPointExtension>
        </extensions>
      </trkpt>
      <trkpt lat="42.51471399329602718353271484375" lon="20.1513127796351909637451171875">
        <ele>2159.800048828125</ele>
        <time>2026-06-20T10:29:06.000Z</time>
        <extensions>
          <ns3:TrackPointExtension>
            <ns3:atemp>23.0</ns3:atemp>
          </ns3:TrackPointExtension>
        </extensions>
      </trkpt>
      <trkpt lat="42.51471399329602718353271484375" lon="20.1513127796351909637451171875">
        <ele>2159.800048828125</ele>
        <time>2026-06-20T10:29:07.000Z</time>
        <extensions>
          <ns3:TrackPointExtension>
            <ns3:atemp>23.0</ns3:atemp>
          </ns3:TrackPointExtension>
        </extensions>
      </trkpt>
      <trkpt lat="42.51471399329602718353271484375" lon="20.1513127796351909637451171875">
        <ele>2159.800048828125</ele>
        <time>2026-06-20T10:29:08.000Z</time>
        <extensions>
          <ns3:TrackPointExtension>
            <ns3:atemp>23.0</ns3:atemp>
          </ns3:TrackPointExtension>
        </extensions>
      </trkpt>
      <trkpt lat="42.51471399329602718353271484375" lon="20.1513127796351909637451171875">
        <ele>2159.800048828125</ele>
        <time>2026-06-20T10:29:09.000Z</time>
        <extensions>
          <ns3:TrackPointExtension>
            <ns3:atemp>23.0</ns3:atemp>
          </ns3:TrackPointExtension>
        </extensions>
      </trkpt>
      <trkpt lat="42.51471399329602718353271484375" lon="20.1513127796351909637451171875">
        <ele>2159.800048828125</ele>
        <time>2026-06-20T10:29:10.000Z</time>
        <extensions>
          <ns3:TrackPointExtension>
            <ns3:atemp>23.0</ns3:atemp>
          </ns3:TrackPointExtension>
        </extensions>
      </trkpt>
      <trkpt lat="42.51471399329602718353271484375" lon="20.1513127796351909637451171875">
        <ele>2159.800048828125</ele>
        <time>2026-06-20T10:29:11.000Z</time>
        <extensions>
          <ns3:TrackPointExtension>
            <ns3:atemp>23.0</ns3:atemp>
          </ns3:TrackPointExtension>
        </extensions>
      </trkpt>
      <trkpt lat="42.51471399329602718353271484375" lon="20.1513127796351909637451171875">
        <ele>2159.800048828125</ele>
        <time>2026-06-20T10:29:12.000Z</time>
        <extensions>
          <ns3:TrackPointExtension>
            <ns3:atemp>23.0</ns3:atemp>
          </ns3:TrackPointExtension>
        </extensions>
      </trkpt>
      <trkpt lat="42.51471399329602718353271484375" lon="20.1513127796351909637451171875">
        <ele>2159.800048828125</ele>
        <time>2026-06-20T10:29:13.000Z</time>
        <extensions>
          <ns3:TrackPointExtension>
            <ns3:atemp>23.0</ns3:atemp>
          </ns3:TrackPointExtension>
        </extensions>
      </trkpt>
      <trkpt lat="42.51471399329602718353271484375" lon="20.1513127796351909637451171875">
        <ele>2159.800048828125</ele>
        <time>2026-06-20T10:29:14.000Z</time>
        <extensions>
          <ns3:TrackPointExtension>
            <ns3:atemp>23.0</ns3:atemp>
          </ns3:TrackPointExtension>
        </extensions>
      </trkpt>
      <trkpt lat="42.51471399329602718353271484375" lon="20.1513127796351909637451171875">
        <ele>2159.800048828125</ele>
        <time>2026-06-20T10:29:15.000Z</time>
        <extensions>
          <ns3:TrackPointExtension>
            <ns3:atemp>23.0</ns3:atemp>
          </ns3:TrackPointExtension>
        </extensions>
      </trkpt>
      <trkpt lat="42.51471399329602718353271484375" lon="20.1513127796351909637451171875">
        <ele>2159.800048828125</ele>
        <time>2026-06-20T10:29:16.000Z</time>
        <extensions>
          <ns3:TrackPointExtension>
            <ns3:atemp>23.0</ns3:atemp>
          </ns3:TrackPointExtension>
        </extensions>
      </trkpt>
      <trkpt lat="42.51471399329602718353271484375" lon="20.1513127796351909637451171875">
        <ele>2159.800048828125</ele>
        <time>2026-06-20T10:29:17.000Z</time>
        <extensions>
          <ns3:TrackPointExtension>
            <ns3:atemp>23.0</ns3:atemp>
          </ns3:TrackPointExtension>
        </extensions>
      </trkpt>
      <trkpt lat="42.51471399329602718353271484375" lon="20.1513127796351909637451171875">
        <ele>2159.800048828125</ele>
        <time>2026-06-20T10:29:18.000Z</time>
        <extensions>
          <ns3:TrackPointExtension>
            <ns3:atemp>23.0</ns3:atemp>
          </ns3:TrackPointExtension>
        </extensions>
      </trkpt>
      <trkpt lat="42.51471399329602718353271484375" lon="20.1513127796351909637451171875">
        <ele>2159.800048828125</ele>
        <time>2026-06-20T10:29:19.000Z</time>
        <extensions>
          <ns3:TrackPointExtension>
            <ns3:atemp>23.0</ns3:atemp>
          </ns3:TrackPointExtension>
        </extensions>
      </trkpt>
      <trkpt lat="42.51471399329602718353271484375" lon="20.1513127796351909637451171875">
        <ele>2159.800048828125</ele>
        <time>2026-06-20T10:29:20.000Z</time>
        <extensions>
          <ns3:TrackPointExtension>
            <ns3:atemp>23.0</ns3:atemp>
          </ns3:TrackPointExtension>
        </extensions>
      </trkpt>
      <trkpt lat="42.51471399329602718353271484375" lon="20.1513127796351909637451171875">
        <ele>2159.800048828125</ele>
        <time>2026-06-20T10:29:21.000Z</time>
        <extensions>
          <ns3:TrackPointExtension>
            <ns3:atemp>23.0</ns3:atemp>
          </ns3:TrackPointExtension>
        </extensions>
      </trkpt>
      <trkpt lat="42.51471399329602718353271484375" lon="20.1513127796351909637451171875">
        <ele>2159.800048828125</ele>
        <time>2026-06-20T10:29:22.000Z</time>
        <extensions>
          <ns3:TrackPointExtension>
            <ns3:atemp>23.0</ns3:atemp>
          </ns3:TrackPointExtension>
        </extensions>
      </trkpt>
      <trkpt lat="42.51471399329602718353271484375" lon="20.1513127796351909637451171875">
        <ele>2159.800048828125</ele>
        <time>2026-06-20T10:29:23.000Z</time>
        <extensions>
          <ns3:TrackPointExtension>
            <ns3:atemp>23.0</ns3:atemp>
          </ns3:TrackPointExtension>
        </extensions>
      </trkpt>
      <trkpt lat="42.51471399329602718353271484375" lon="20.1513127796351909637451171875">
        <ele>2159.800048828125</ele>
        <time>2026-06-20T10:29:24.000Z</time>
        <extensions>
          <ns3:TrackPointExtension>
            <ns3:atemp>23.0</ns3:atemp>
          </ns3:TrackPointExtension>
        </extensions>
      </trkpt>
      <trkpt lat="42.51471399329602718353271484375" lon="20.1513127796351909637451171875">
        <ele>2159.800048828125</ele>
        <time>2026-06-20T10:29:25.000Z</time>
        <extensions>
          <ns3:TrackPointExtension>
            <ns3:atemp>23.0</ns3:atemp>
          </ns3:TrackPointExtension>
        </extensions>
      </trkpt>
      <trkpt lat="42.51471399329602718353271484375" lon="20.1513127796351909637451171875">
        <ele>2159.800048828125</ele>
        <time>2026-06-20T10:29:26.000Z</time>
        <extensions>
          <ns3:TrackPointExtension>
            <ns3:atemp>23.0</ns3:atemp>
          </ns3:TrackPointExtension>
        </extensions>
      </trkpt>
      <trkpt lat="42.51471399329602718353271484375" lon="20.1513127796351909637451171875">
        <ele>2159.800048828125</ele>
        <time>2026-06-20T10:29:27.000Z</time>
        <extensions>
          <ns3:TrackPointExtension>
            <ns3:atemp>23.0</ns3:atemp>
          </ns3:TrackPointExtension>
        </extensions>
      </trkpt>
      <trkpt lat="42.51471399329602718353271484375" lon="20.1513127796351909637451171875">
        <ele>2159.800048828125</ele>
        <time>2026-06-20T10:29:28.000Z</time>
        <extensions>
          <ns3:TrackPointExtension>
            <ns3:atemp>23.0</ns3:atemp>
          </ns3:TrackPointExtension>
        </extensions>
      </trkpt>
      <trkpt lat="42.51471399329602718353271484375" lon="20.1513127796351909637451171875">
        <ele>2159.800048828125</ele>
        <time>2026-06-20T10:29:29.000Z</time>
        <extensions>
          <ns3:TrackPointExtension>
            <ns3:atemp>23.0</ns3:atemp>
          </ns3:TrackPointExtension>
        </extensions>
      </trkpt>
      <trkpt lat="42.51471399329602718353271484375" lon="20.1513127796351909637451171875">
        <ele>2159.800048828125</ele>
        <time>2026-06-20T10:29:30.000Z</time>
        <extensions>
          <ns3:TrackPointExtension>
            <ns3:atemp>23.0</ns3:atemp>
          </ns3:TrackPointExtension>
        </extensions>
      </trkpt>
      <trkpt lat="42.51471399329602718353271484375" lon="20.1513127796351909637451171875">
        <ele>2159.800048828125</ele>
        <time>2026-06-20T10:29:31.000Z</time>
        <extensions>
          <ns3:TrackPointExtension>
            <ns3:atemp>23.0</ns3:atemp>
          </ns3:TrackPointExtension>
        </extensions>
      </trkpt>
      <trkpt lat="42.51471399329602718353271484375" lon="20.1513127796351909637451171875">
        <ele>2159.800048828125</ele>
        <time>2026-06-20T10:29:32.000Z</time>
        <extensions>
          <ns3:TrackPointExtension>
            <ns3:atemp>23.0</ns3:atemp>
          </ns3:TrackPointExtension>
        </extensions>
      </trkpt>
      <trkpt lat="42.51471399329602718353271484375" lon="20.1513127796351909637451171875">
        <ele>2159.800048828125</ele>
        <time>2026-06-20T10:29:33.000Z</time>
        <extensions>
          <ns3:TrackPointExtension>
            <ns3:atemp>23.0</ns3:atemp>
          </ns3:TrackPointExtension>
        </extensions>
      </trkpt>
      <trkpt lat="42.51471399329602718353271484375" lon="20.1513127796351909637451171875">
        <ele>2159.800048828125</ele>
        <time>2026-06-20T10:29:34.000Z</time>
        <extensions>
          <ns3:TrackPointExtension>
            <ns3:atemp>23.0</ns3:atemp>
          </ns3:TrackPointExtension>
        </extensions>
      </trkpt>
      <trkpt lat="42.51471399329602718353271484375" lon="20.1513127796351909637451171875">
        <ele>2159.800048828125</ele>
        <time>2026-06-20T10:29:35.000Z</time>
        <extensions>
          <ns3:TrackPointExtension>
            <ns3:atemp>23.0</ns3:atemp>
          </ns3:TrackPointExtension>
        </extensions>
      </trkpt>
      <trkpt lat="42.51471399329602718353271484375" lon="20.1513127796351909637451171875">
        <ele>2159.800048828125</ele>
        <time>2026-06-20T10:29:36.000Z</time>
        <extensions>
          <ns3:TrackPointExtension>
            <ns3:atemp>23.0</ns3:atemp>
          </ns3:TrackPointExtension>
        </extensions>
      </trkpt>
      <trkpt lat="42.51471399329602718353271484375" lon="20.1513127796351909637451171875">
        <ele>2159.800048828125</ele>
        <time>2026-06-20T10:29:37.000Z</time>
        <extensions>
          <ns3:TrackPointExtension>
            <ns3:atemp>23.0</ns3:atemp>
          </ns3:TrackPointExtension>
        </extensions>
      </trkpt>
      <trkpt lat="42.51471399329602718353271484375" lon="20.1513127796351909637451171875">
        <ele>2159.800048828125</ele>
        <time>2026-06-20T10:29:38.000Z</time>
        <extensions>
          <ns3:TrackPointExtension>
            <ns3:atemp>23.0</ns3:atemp>
          </ns3:TrackPointExtension>
        </extensions>
      </trkpt>
      <trkpt lat="42.51471399329602718353271484375" lon="20.1513127796351909637451171875">
        <ele>2159.800048828125</ele>
        <time>2026-06-20T10:29:39.000Z</time>
        <extensions>
          <ns3:TrackPointExtension>
            <ns3:atemp>23.0</ns3:atemp>
          </ns3:TrackPointExtension>
        </extensions>
      </trkpt>
      <trkpt lat="42.51471399329602718353271484375" lon="20.1513127796351909637451171875">
        <ele>2159.800048828125</ele>
        <time>2026-06-20T10:29:40.000Z</time>
        <extensions>
          <ns3:TrackPointExtension>
            <ns3:atemp>23.0</ns3:atemp>
          </ns3:TrackPointExtension>
        </extensions>
      </trkpt>
      <trkpt lat="42.51471399329602718353271484375" lon="20.1513127796351909637451171875">
        <ele>2159.800048828125</ele>
        <time>2026-06-20T10:29:41.000Z</time>
        <extensions>
          <ns3:TrackPointExtension>
            <ns3:atemp>23.0</ns3:atemp>
          </ns3:TrackPointExtension>
        </extensions>
      </trkpt>
      <trkpt lat="42.51471399329602718353271484375" lon="20.1513127796351909637451171875">
        <ele>2159.800048828125</ele>
        <time>2026-06-20T10:29:42.000Z</time>
        <extensions>
          <ns3:TrackPointExtension>
            <ns3:atemp>23.0</ns3:atemp>
          </ns3:TrackPointExtension>
        </extensions>
      </trkpt>
      <trkpt lat="42.51471399329602718353271484375" lon="20.1513127796351909637451171875">
        <ele>2159.800048828125</ele>
        <time>2026-06-20T10:29:43.000Z</time>
        <extensions>
          <ns3:TrackPointExtension>
            <ns3:atemp>23.0</ns3:atemp>
          </ns3:TrackPointExtension>
        </extensions>
      </trkpt>
      <trkpt lat="42.51471399329602718353271484375" lon="20.1513127796351909637451171875">
        <ele>2159.800048828125</ele>
        <time>2026-06-20T10:29:44.000Z</time>
        <extensions>
          <ns3:TrackPointExtension>
            <ns3:atemp>23.0</ns3:atemp>
          </ns3:TrackPointExtension>
        </extensions>
      </trkpt>
      <trkpt lat="42.51471399329602718353271484375" lon="20.1513127796351909637451171875">
        <ele>2159.800048828125</ele>
        <time>2026-06-20T10:29:45.000Z</time>
        <extensions>
          <ns3:TrackPointExtension>
            <ns3:atemp>23.0</ns3:atemp>
          </ns3:TrackPointExtension>
        </extensions>
      </trkpt>
      <trkpt lat="42.51471399329602718353271484375" lon="20.1513127796351909637451171875">
        <ele>2159.800048828125</ele>
        <time>2026-06-20T10:29:46.000Z</time>
        <extensions>
          <ns3:TrackPointExtension>
            <ns3:atemp>23.0</ns3:atemp>
          </ns3:TrackPointExtension>
        </extensions>
      </trkpt>
      <trkpt lat="42.51471399329602718353271484375" lon="20.1513127796351909637451171875">
        <ele>2159.800048828125</ele>
        <time>2026-06-20T10:29:47.000Z</time>
        <extensions>
          <ns3:TrackPointExtension>
            <ns3:atemp>23.0</ns3:atemp>
          </ns3:TrackPointExtension>
        </extensions>
      </trkpt>
      <trkpt lat="42.51471399329602718353271484375" lon="20.1513127796351909637451171875">
        <ele>2159.800048828125</ele>
        <time>2026-06-20T10:29:48.000Z</time>
        <extensions>
          <ns3:TrackPointExtension>
            <ns3:atemp>23.0</ns3:atemp>
          </ns3:TrackPointExtension>
        </extensions>
      </trkpt>
      <trkpt lat="42.51471399329602718353271484375" lon="20.1513127796351909637451171875">
        <ele>2159.800048828125</ele>
        <time>2026-06-20T10:29:49.000Z</time>
        <extensions>
          <ns3:TrackPointExtension>
            <ns3:atemp>23.0</ns3:atemp>
          </ns3:TrackPointExtension>
        </extensions>
      </trkpt>
      <trkpt lat="42.51471399329602718353271484375" lon="20.1513127796351909637451171875">
        <ele>2159.800048828125</ele>
        <time>2026-06-20T10:29:50.000Z</time>
        <extensions>
          <ns3:TrackPointExtension>
            <ns3:atemp>23.0</ns3:atemp>
          </ns3:TrackPointExtension>
        </extensions>
      </trkpt>
      <trkpt lat="42.51471399329602718353271484375" lon="20.1513127796351909637451171875">
        <ele>2159.800048828125</ele>
        <time>2026-06-20T10:29:51.000Z</time>
        <extensions>
          <ns3:TrackPointExtension>
            <ns3:atemp>23.0</ns3:atemp>
          </ns3:TrackPointExtension>
        </extensions>
      </trkpt>
      <trkpt lat="42.51471399329602718353271484375" lon="20.1513127796351909637451171875">
        <ele>2159.800048828125</ele>
        <time>2026-06-20T10:29:52.000Z</time>
        <extensions>
          <ns3:TrackPointExtension>
            <ns3:atemp>23.0</ns3:atemp>
          </ns3:TrackPointExtension>
        </extensions>
      </trkpt>
      <trkpt lat="42.51471399329602718353271484375" lon="20.1513127796351909637451171875">
        <ele>2159.800048828125</ele>
        <time>2026-06-20T10:29:53.000Z</time>
        <extensions>
          <ns3:TrackPointExtension>
            <ns3:atemp>23.0</ns3:atemp>
          </ns3:TrackPointExtension>
        </extensions>
      </trkpt>
      <trkpt lat="42.51471399329602718353271484375" lon="20.1513127796351909637451171875">
        <ele>2159.800048828125</ele>
        <time>2026-06-20T10:29:54.000Z</time>
        <extensions>
          <ns3:TrackPointExtension>
            <ns3:atemp>23.0</ns3:atemp>
          </ns3:TrackPointExtension>
        </extensions>
      </trkpt>
      <trkpt lat="42.51471399329602718353271484375" lon="20.1513127796351909637451171875">
        <ele>2159.800048828125</ele>
        <time>2026-06-20T10:29:55.000Z</time>
        <extensions>
          <ns3:TrackPointExtension>
            <ns3:atemp>23.0</ns3:atemp>
          </ns3:TrackPointExtension>
        </extensions>
      </trkpt>
      <trkpt lat="42.51471399329602718353271484375" lon="20.1513127796351909637451171875">
        <ele>2159.800048828125</ele>
        <time>2026-06-20T10:29:56.000Z</time>
        <extensions>
          <ns3:TrackPointExtension>
            <ns3:atemp>23.0</ns3:atemp>
          </ns3:TrackPointExtension>
        </extensions>
      </trkpt>
      <trkpt lat="42.51471399329602718353271484375" lon="20.1513127796351909637451171875">
        <ele>2159.800048828125</ele>
        <time>2026-06-20T10:29:57.000Z</time>
        <extensions>
          <ns3:TrackPointExtension>
            <ns3:atemp>23.0</ns3:atemp>
          </ns3:TrackPointExtension>
        </extensions>
      </trkpt>
      <trkpt lat="42.51471399329602718353271484375" lon="20.1513127796351909637451171875">
        <ele>2159.800048828125</ele>
        <time>2026-06-20T10:29:58.000Z</time>
        <extensions>
          <ns3:TrackPointExtension>
            <ns3:atemp>23.0</ns3:atemp>
          </ns3:TrackPointExtension>
        </extensions>
      </trkpt>
      <trkpt lat="42.51471399329602718353271484375" lon="20.1513127796351909637451171875">
        <ele>2159.800048828125</ele>
        <time>2026-06-20T10:29:59.000Z</time>
        <extensions>
          <ns3:TrackPointExtension>
            <ns3:atemp>23.0</ns3:atemp>
          </ns3:TrackPointExtension>
        </extensions>
      </trkpt>
      <trkpt lat="42.51471399329602718353271484375" lon="20.1513127796351909637451171875">
        <ele>2159.800048828125</ele>
        <time>2026-06-20T10:30:00.000Z</time>
        <extensions>
          <ns3:TrackPointExtension>
            <ns3:atemp>23.0</ns3:atemp>
          </ns3:TrackPointExtension>
        </extensions>
      </trkpt>
      <trkpt lat="42.51471399329602718353271484375" lon="20.1513127796351909637451171875">
        <ele>2159.800048828125</ele>
        <time>2026-06-20T10:30:01.000Z</time>
        <extensions>
          <ns3:TrackPointExtension>
            <ns3:atemp>23.0</ns3:atemp>
          </ns3:TrackPointExtension>
        </extensions>
      </trkpt>
      <trkpt lat="42.51471399329602718353271484375" lon="20.1513127796351909637451171875">
        <ele>2159.800048828125</ele>
        <time>2026-06-20T10:30:02.000Z</time>
        <extensions>
          <ns3:TrackPointExtension>
            <ns3:atemp>23.0</ns3:atemp>
          </ns3:TrackPointExtension>
        </extensions>
      </trkpt>
      <trkpt lat="42.51471399329602718353271484375" lon="20.1513127796351909637451171875">
        <ele>2159.800048828125</ele>
        <time>2026-06-20T10:30:03.000Z</time>
        <extensions>
          <ns3:TrackPointExtension>
            <ns3:atemp>23.0</ns3:atemp>
          </ns3:TrackPointExtension>
        </extensions>
      </trkpt>
      <trkpt lat="42.51471399329602718353271484375" lon="20.1513127796351909637451171875">
        <ele>2159.800048828125</ele>
        <time>2026-06-20T10:30:04.000Z</time>
        <extensions>
          <ns3:TrackPointExtension>
            <ns3:atemp>23.0</ns3:atemp>
          </ns3:TrackPointExtension>
        </extensions>
      </trkpt>
      <trkpt lat="42.51471399329602718353271484375" lon="20.1513127796351909637451171875">
        <ele>2159.800048828125</ele>
        <time>2026-06-20T10:30:05.000Z</time>
        <extensions>
          <ns3:TrackPointExtension>
            <ns3:atemp>23.0</ns3:atemp>
          </ns3:TrackPointExtension>
        </extensions>
      </trkpt>
      <trkpt lat="42.51471399329602718353271484375" lon="20.1513127796351909637451171875">
        <ele>2159.800048828125</ele>
        <time>2026-06-20T10:30:06.000Z</time>
        <extensions>
          <ns3:TrackPointExtension>
            <ns3:atemp>23.0</ns3:atemp>
          </ns3:TrackPointExtension>
        </extensions>
      </trkpt>
      <trkpt lat="42.51471399329602718353271484375" lon="20.1513127796351909637451171875">
        <ele>2159.800048828125</ele>
        <time>2026-06-20T10:30:07.000Z</time>
        <extensions>
          <ns3:TrackPointExtension>
            <ns3:atemp>23.0</ns3:atemp>
          </ns3:TrackPointExtension>
        </extensions>
      </trkpt>
      <trkpt lat="42.51471399329602718353271484375" lon="20.1513127796351909637451171875">
        <ele>2159.800048828125</ele>
        <time>2026-06-20T10:30:08.000Z</time>
        <extensions>
          <ns3:TrackPointExtension>
            <ns3:atemp>23.0</ns3:atemp>
          </ns3:TrackPointExtension>
        </extensions>
      </trkpt>
      <trkpt lat="42.51471399329602718353271484375" lon="20.1513127796351909637451171875">
        <ele>2159.800048828125</ele>
        <time>2026-06-20T10:30:09.000Z</time>
        <extensions>
          <ns3:TrackPointExtension>
            <ns3:atemp>23.0</ns3:atemp>
          </ns3:TrackPointExtension>
        </extensions>
      </trkpt>
      <trkpt lat="42.51471399329602718353271484375" lon="20.1513127796351909637451171875">
        <ele>2159.800048828125</ele>
        <time>2026-06-20T10:30:10.000Z</time>
        <extensions>
          <ns3:TrackPointExtension>
            <ns3:atemp>23.0</ns3:atemp>
          </ns3:TrackPointExtension>
        </extensions>
      </trkpt>
      <trkpt lat="42.51471399329602718353271484375" lon="20.1513127796351909637451171875">
        <ele>2159.800048828125</ele>
        <time>2026-06-20T10:30:11.000Z</time>
        <extensions>
          <ns3:TrackPointExtension>
            <ns3:atemp>23.0</ns3:atemp>
          </ns3:TrackPointExtension>
        </extensions>
      </trkpt>
      <trkpt lat="42.51471399329602718353271484375" lon="20.1513127796351909637451171875">
        <ele>2159.800048828125</ele>
        <time>2026-06-20T10:30:12.000Z</time>
        <extensions>
          <ns3:TrackPointExtension>
            <ns3:atemp>23.0</ns3:atemp>
          </ns3:TrackPointExtension>
        </extensions>
      </trkpt>
      <trkpt lat="42.51471399329602718353271484375" lon="20.1513127796351909637451171875">
        <ele>2159.800048828125</ele>
        <time>2026-06-20T10:30:13.000Z</time>
        <extensions>
          <ns3:TrackPointExtension>
            <ns3:atemp>23.0</ns3:atemp>
          </ns3:TrackPointExtension>
        </extensions>
      </trkpt>
      <trkpt lat="42.51471399329602718353271484375" lon="20.1513127796351909637451171875">
        <ele>2159.800048828125</ele>
        <time>2026-06-20T10:30:14.000Z</time>
        <extensions>
          <ns3:TrackPointExtension>
            <ns3:atemp>23.0</ns3:atemp>
          </ns3:TrackPointExtension>
        </extensions>
      </trkpt>
      <trkpt lat="42.51471399329602718353271484375" lon="20.1513127796351909637451171875">
        <ele>2159.800048828125</ele>
        <time>2026-06-20T10:30:15.000Z</time>
        <extensions>
          <ns3:TrackPointExtension>
            <ns3:atemp>23.0</ns3:atemp>
          </ns3:TrackPointExtension>
        </extensions>
      </trkpt>
      <trkpt lat="42.51471399329602718353271484375" lon="20.1513127796351909637451171875">
        <ele>2159.800048828125</ele>
        <time>2026-06-20T10:30:16.000Z</time>
        <extensions>
          <ns3:TrackPointExtension>
            <ns3:atemp>23.0</ns3:atemp>
          </ns3:TrackPointExtension>
        </extensions>
      </trkpt>
      <trkpt lat="42.51471399329602718353271484375" lon="20.1513127796351909637451171875">
        <ele>2159.800048828125</ele>
        <time>2026-06-20T10:30:17.000Z</time>
        <extensions>
          <ns3:TrackPointExtension>
            <ns3:atemp>23.0</ns3:atemp>
          </ns3:TrackPointExtension>
        </extensions>
      </trkpt>
      <trkpt lat="42.51471399329602718353271484375" lon="20.1513127796351909637451171875">
        <ele>2159.800048828125</ele>
        <time>2026-06-20T10:30:18.000Z</time>
        <extensions>
          <ns3:TrackPointExtension>
            <ns3:atemp>23.0</ns3:atemp>
          </ns3:TrackPointExtension>
        </extensions>
      </trkpt>
      <trkpt lat="42.51471399329602718353271484375" lon="20.1513127796351909637451171875">
        <ele>2159.800048828125</ele>
        <time>2026-06-20T10:30:19.000Z</time>
        <extensions>
          <ns3:TrackPointExtension>
            <ns3:atemp>23.0</ns3:atemp>
          </ns3:TrackPointExtension>
        </extensions>
      </trkpt>
      <trkpt lat="42.51471399329602718353271484375" lon="20.1513127796351909637451171875">
        <ele>2159.800048828125</ele>
        <time>2026-06-20T10:30:20.000Z</time>
        <extensions>
          <ns3:TrackPointExtension>
            <ns3:atemp>23.0</ns3:atemp>
          </ns3:TrackPointExtension>
        </extensions>
      </trkpt>
      <trkpt lat="42.51471399329602718353271484375" lon="20.1513127796351909637451171875">
        <ele>2159.800048828125</ele>
        <time>2026-06-20T10:30:21.000Z</time>
        <extensions>
          <ns3:TrackPointExtension>
            <ns3:atemp>23.0</ns3:atemp>
          </ns3:TrackPointExtension>
        </extensions>
      </trkpt>
      <trkpt lat="42.51471399329602718353271484375" lon="20.1513127796351909637451171875">
        <ele>2159.800048828125</ele>
        <time>2026-06-20T10:30:22.000Z</time>
        <extensions>
          <ns3:TrackPointExtension>
            <ns3:atemp>23.0</ns3:atemp>
          </ns3:TrackPointExtension>
        </extensions>
      </trkpt>
      <trkpt lat="42.51471399329602718353271484375" lon="20.1513127796351909637451171875">
        <ele>2159.800048828125</ele>
        <time>2026-06-20T10:30:23.000Z</time>
        <extensions>
          <ns3:TrackPointExtension>
            <ns3:atemp>23.0</ns3:atemp>
          </ns3:TrackPointExtension>
        </extensions>
      </trkpt>
      <trkpt lat="42.51471399329602718353271484375" lon="20.1513127796351909637451171875">
        <ele>2159.800048828125</ele>
        <time>2026-06-20T10:30:24.000Z</time>
        <extensions>
          <ns3:TrackPointExtension>
            <ns3:atemp>23.0</ns3:atemp>
          </ns3:TrackPointExtension>
        </extensions>
      </trkpt>
      <trkpt lat="42.51471399329602718353271484375" lon="20.1513127796351909637451171875">
        <ele>2159.800048828125</ele>
        <time>2026-06-20T10:30:25.000Z</time>
        <extensions>
          <ns3:TrackPointExtension>
            <ns3:atemp>23.0</ns3:atemp>
          </ns3:TrackPointExtension>
        </extensions>
      </trkpt>
      <trkpt lat="42.51471399329602718353271484375" lon="20.1513127796351909637451171875">
        <ele>2159.800048828125</ele>
        <time>2026-06-20T10:30:26.000Z</time>
        <extensions>
          <ns3:TrackPointExtension>
            <ns3:atemp>23.0</ns3:atemp>
          </ns3:TrackPointExtension>
        </extensions>
      </trkpt>
      <trkpt lat="42.51471399329602718353271484375" lon="20.1513127796351909637451171875">
        <ele>2159.800048828125</ele>
        <time>2026-06-20T10:30:27.000Z</time>
        <extensions>
          <ns3:TrackPointExtension>
            <ns3:atemp>23.0</ns3:atemp>
          </ns3:TrackPointExtension>
        </extensions>
      </trkpt>
      <trkpt lat="42.51471399329602718353271484375" lon="20.1513127796351909637451171875">
        <ele>2159.800048828125</ele>
        <time>2026-06-20T10:30:28.000Z</time>
        <extensions>
          <ns3:TrackPointExtension>
            <ns3:atemp>23.0</ns3:atemp>
          </ns3:TrackPointExtension>
        </extensions>
      </trkpt>
      <trkpt lat="42.51471399329602718353271484375" lon="20.1513127796351909637451171875">
        <ele>2159.800048828125</ele>
        <time>2026-06-20T10:30:29.000Z</time>
        <extensions>
          <ns3:TrackPointExtension>
            <ns3:atemp>23.0</ns3:atemp>
          </ns3:TrackPointExtension>
        </extensions>
      </trkpt>
      <trkpt lat="42.51471399329602718353271484375" lon="20.1513127796351909637451171875">
        <ele>2159.800048828125</ele>
        <time>2026-06-20T10:30:30.000Z</time>
        <extensions>
          <ns3:TrackPointExtension>
            <ns3:atemp>23.0</ns3:atemp>
          </ns3:TrackPointExtension>
        </extensions>
      </trkpt>
      <trkpt lat="42.51471399329602718353271484375" lon="20.1513127796351909637451171875">
        <ele>2159.800048828125</ele>
        <time>2026-06-20T10:30:31.000Z</time>
        <extensions>
          <ns3:TrackPointExtension>
            <ns3:atemp>23.0</ns3:atemp>
          </ns3:TrackPointExtension>
        </extensions>
      </trkpt>
      <trkpt lat="42.51471399329602718353271484375" lon="20.1513127796351909637451171875">
        <ele>2159.800048828125</ele>
        <time>2026-06-20T10:30:32.000Z</time>
        <extensions>
          <ns3:TrackPointExtension>
            <ns3:atemp>23.0</ns3:atemp>
          </ns3:TrackPointExtension>
        </extensions>
      </trkpt>
      <trkpt lat="42.51471399329602718353271484375" lon="20.1513127796351909637451171875">
        <ele>2159.800048828125</ele>
        <time>2026-06-20T10:30:33.000Z</time>
        <extensions>
          <ns3:TrackPointExtension>
            <ns3:atemp>23.0</ns3:atemp>
          </ns3:TrackPointExtension>
        </extensions>
      </trkpt>
      <trkpt lat="42.51471399329602718353271484375" lon="20.1513127796351909637451171875">
        <ele>2159.800048828125</ele>
        <time>2026-06-20T10:30:34.000Z</time>
        <extensions>
          <ns3:TrackPointExtension>
            <ns3:atemp>23.0</ns3:atemp>
          </ns3:TrackPointExtension>
        </extensions>
      </trkpt>
      <trkpt lat="42.51471399329602718353271484375" lon="20.1513127796351909637451171875">
        <ele>2159.800048828125</ele>
        <time>2026-06-20T10:30:35.000Z</time>
        <extensions>
          <ns3:TrackPointExtension>
            <ns3:atemp>23.0</ns3:atemp>
          </ns3:TrackPointExtension>
        </extensions>
      </trkpt>
      <trkpt lat="42.51471399329602718353271484375" lon="20.1513127796351909637451171875">
        <ele>2159.800048828125</ele>
        <time>2026-06-20T10:30:36.000Z</time>
        <extensions>
          <ns3:TrackPointExtension>
            <ns3:atemp>23.0</ns3:atemp>
          </ns3:TrackPointExtension>
        </extensions>
      </trkpt>
      <trkpt lat="42.51471399329602718353271484375" lon="20.1513127796351909637451171875">
        <ele>2159.800048828125</ele>
        <time>2026-06-20T10:30:37.000Z</time>
        <extensions>
          <ns3:TrackPointExtension>
            <ns3:atemp>23.0</ns3:atemp>
          </ns3:TrackPointExtension>
        </extensions>
      </trkpt>
      <trkpt lat="42.51471399329602718353271484375" lon="20.1513127796351909637451171875">
        <ele>2159.800048828125</ele>
        <time>2026-06-20T10:30:38.000Z</time>
        <extensions>
          <ns3:TrackPointExtension>
            <ns3:atemp>23.0</ns3:atemp>
          </ns3:TrackPointExtension>
        </extensions>
      </trkpt>
      <trkpt lat="42.51471399329602718353271484375" lon="20.1513127796351909637451171875">
        <ele>2159.800048828125</ele>
        <time>2026-06-20T10:30:39.000Z</time>
        <extensions>
          <ns3:TrackPointExtension>
            <ns3:atemp>23.0</ns3:atemp>
          </ns3:TrackPointExtension>
        </extensions>
      </trkpt>
      <trkpt lat="42.51471399329602718353271484375" lon="20.1513127796351909637451171875">
        <ele>2159.800048828125</ele>
        <time>2026-06-20T10:30:40.000Z</time>
        <extensions>
          <ns3:TrackPointExtension>
            <ns3:atemp>23.0</ns3:atemp>
          </ns3:TrackPointExtension>
        </extensions>
      </trkpt>
      <trkpt lat="42.51471399329602718353271484375" lon="20.1513127796351909637451171875">
        <ele>2159.800048828125</ele>
        <time>2026-06-20T10:30:41.000Z</time>
        <extensions>
          <ns3:TrackPointExtension>
            <ns3:atemp>23.0</ns3:atemp>
          </ns3:TrackPointExtension>
        </extensions>
      </trkpt>
      <trkpt lat="42.51471399329602718353271484375" lon="20.1513127796351909637451171875">
        <ele>2159.800048828125</ele>
        <time>2026-06-20T10:30:42.000Z</time>
        <extensions>
          <ns3:TrackPointExtension>
            <ns3:atemp>23.0</ns3:atemp>
          </ns3:TrackPointExtension>
        </extensions>
      </trkpt>
      <trkpt lat="42.51471399329602718353271484375" lon="20.1513127796351909637451171875">
        <ele>2159.800048828125</ele>
        <time>2026-06-20T10:30:43.000Z</time>
        <extensions>
          <ns3:TrackPointExtension>
            <ns3:atemp>23.0</ns3:atemp>
          </ns3:TrackPointExtension>
        </extensions>
      </trkpt>
      <trkpt lat="42.51471399329602718353271484375" lon="20.1513127796351909637451171875">
        <ele>2159.800048828125</ele>
        <time>2026-06-20T10:30:44.000Z</time>
        <extensions>
          <ns3:TrackPointExtension>
            <ns3:atemp>23.0</ns3:atemp>
          </ns3:TrackPointExtension>
        </extensions>
      </trkpt>
      <trkpt lat="42.51471399329602718353271484375" lon="20.1513127796351909637451171875">
        <ele>2159.800048828125</ele>
        <time>2026-06-20T10:30:45.000Z</time>
        <extensions>
          <ns3:TrackPointExtension>
            <ns3:atemp>23.0</ns3:atemp>
          </ns3:TrackPointExtension>
        </extensions>
      </trkpt>
      <trkpt lat="42.51471399329602718353271484375" lon="20.1513127796351909637451171875">
        <ele>2159.800048828125</ele>
        <time>2026-06-20T10:30:46.000Z</time>
        <extensions>
          <ns3:TrackPointExtension>
            <ns3:atemp>23.0</ns3:atemp>
          </ns3:TrackPointExtension>
        </extensions>
      </trkpt>
      <trkpt lat="42.51471399329602718353271484375" lon="20.1513127796351909637451171875">
        <ele>2159.800048828125</ele>
        <time>2026-06-20T10:30:47.000Z</time>
        <extensions>
          <ns3:TrackPointExtension>
            <ns3:atemp>23.0</ns3:atemp>
          </ns3:TrackPointExtension>
        </extensions>
      </trkpt>
      <trkpt lat="42.51471399329602718353271484375" lon="20.1513127796351909637451171875">
        <ele>2159.800048828125</ele>
        <time>2026-06-20T10:30:48.000Z</time>
        <extensions>
          <ns3:TrackPointExtension>
            <ns3:atemp>23.0</ns3:atemp>
          </ns3:TrackPointExtension>
        </extensions>
      </trkpt>
      <trkpt lat="42.51471399329602718353271484375" lon="20.1513127796351909637451171875">
        <ele>2159.800048828125</ele>
        <time>2026-06-20T10:30:49.000Z</time>
        <extensions>
          <ns3:TrackPointExtension>
            <ns3:atemp>23.0</ns3:atemp>
          </ns3:TrackPointExtension>
        </extensions>
      </trkpt>
      <trkpt lat="42.51471399329602718353271484375" lon="20.1513127796351909637451171875">
        <ele>2159.800048828125</ele>
        <time>2026-06-20T10:30:50.000Z</time>
        <extensions>
          <ns3:TrackPointExtension>
            <ns3:atemp>23.0</ns3:atemp>
          </ns3:TrackPointExtension>
        </extensions>
      </trkpt>
      <trkpt lat="42.51471399329602718353271484375" lon="20.1513127796351909637451171875">
        <ele>2159.800048828125</ele>
        <time>2026-06-20T10:30:51.000Z</time>
        <extensions>
          <ns3:TrackPointExtension>
            <ns3:atemp>23.0</ns3:atemp>
          </ns3:TrackPointExtension>
        </extensions>
      </trkpt>
      <trkpt lat="42.51471399329602718353271484375" lon="20.1513127796351909637451171875">
        <ele>2159.800048828125</ele>
        <time>2026-06-20T10:30:52.000Z</time>
        <extensions>
          <ns3:TrackPointExtension>
            <ns3:atemp>23.0</ns3:atemp>
          </ns3:TrackPointExtension>
        </extensions>
      </trkpt>
      <trkpt lat="42.51471399329602718353271484375" lon="20.1513127796351909637451171875">
        <ele>2159.800048828125</ele>
        <time>2026-06-20T10:30:53.000Z</time>
        <extensions>
          <ns3:TrackPointExtension>
            <ns3:atemp>23.0</ns3:atemp>
          </ns3:TrackPointExtension>
        </extensions>
      </trkpt>
      <trkpt lat="42.51471399329602718353271484375" lon="20.1513127796351909637451171875">
        <ele>2159.800048828125</ele>
        <time>2026-06-20T10:30:54.000Z</time>
        <extensions>
          <ns3:TrackPointExtension>
            <ns3:atemp>23.0</ns3:atemp>
          </ns3:TrackPointExtension>
        </extensions>
      </trkpt>
      <trkpt lat="42.51471399329602718353271484375" lon="20.1513127796351909637451171875">
        <ele>2159.800048828125</ele>
        <time>2026-06-20T10:30:55.000Z</time>
        <extensions>
          <ns3:TrackPointExtension>
            <ns3:atemp>23.0</ns3:atemp>
          </ns3:TrackPointExtension>
        </extensions>
      </trkpt>
      <trkpt lat="42.51471399329602718353271484375" lon="20.1513127796351909637451171875">
        <ele>2159.800048828125</ele>
        <time>2026-06-20T10:30:56.000Z</time>
        <extensions>
          <ns3:TrackPointExtension>
            <ns3:atemp>23.0</ns3:atemp>
          </ns3:TrackPointExtension>
        </extensions>
      </trkpt>
      <trkpt lat="42.51471399329602718353271484375" lon="20.1513127796351909637451171875">
        <ele>2159.800048828125</ele>
        <time>2026-06-20T10:30:57.000Z</time>
        <extensions>
          <ns3:TrackPointExtension>
            <ns3:atemp>23.0</ns3:atemp>
          </ns3:TrackPointExtension>
        </extensions>
      </trkpt>
      <trkpt lat="42.51471399329602718353271484375" lon="20.1513127796351909637451171875">
        <ele>2159.800048828125</ele>
        <time>2026-06-20T10:30:58.000Z</time>
        <extensions>
          <ns3:TrackPointExtension>
            <ns3:atemp>23.0</ns3:atemp>
          </ns3:TrackPointExtension>
        </extensions>
      </trkpt>
      <trkpt lat="42.51471399329602718353271484375" lon="20.1513127796351909637451171875">
        <ele>2159.800048828125</ele>
        <time>2026-06-20T10:30:59.000Z</time>
        <extensions>
          <ns3:TrackPointExtension>
            <ns3:atemp>23.0</ns3:atemp>
          </ns3:TrackPointExtension>
        </extensions>
      </trkpt>
      <trkpt lat="42.51471399329602718353271484375" lon="20.1513127796351909637451171875">
        <ele>2159.800048828125</ele>
        <time>2026-06-20T10:31:00.000Z</time>
        <extensions>
          <ns3:TrackPointExtension>
            <ns3:atemp>23.0</ns3:atemp>
          </ns3:TrackPointExtension>
        </extensions>
      </trkpt>
      <trkpt lat="42.51471399329602718353271484375" lon="20.1513127796351909637451171875">
        <ele>2159.800048828125</ele>
        <time>2026-06-20T10:31:01.000Z</time>
        <extensions>
          <ns3:TrackPointExtension>
            <ns3:atemp>23.0</ns3:atemp>
          </ns3:TrackPointExtension>
        </extensions>
      </trkpt>
      <trkpt lat="42.51471399329602718353271484375" lon="20.1513127796351909637451171875">
        <ele>2159.800048828125</ele>
        <time>2026-06-20T10:31:02.000Z</time>
        <extensions>
          <ns3:TrackPointExtension>
            <ns3:atemp>23.0</ns3:atemp>
          </ns3:TrackPointExtension>
        </extensions>
      </trkpt>
      <trkpt lat="42.51471399329602718353271484375" lon="20.1513127796351909637451171875">
        <ele>2159.800048828125</ele>
        <time>2026-06-20T10:31:03.000Z</time>
        <extensions>
          <ns3:TrackPointExtension>
            <ns3:atemp>23.0</ns3:atemp>
          </ns3:TrackPointExtension>
        </extensions>
      </trkpt>
      <trkpt lat="42.51471399329602718353271484375" lon="20.1513127796351909637451171875">
        <ele>2159.800048828125</ele>
        <time>2026-06-20T10:31:04.000Z</time>
        <extensions>
          <ns3:TrackPointExtension>
            <ns3:atemp>23.0</ns3:atemp>
          </ns3:TrackPointExtension>
        </extensions>
      </trkpt>
      <trkpt lat="42.51471399329602718353271484375" lon="20.1513127796351909637451171875">
        <ele>2159.800048828125</ele>
        <time>2026-06-20T10:31:05.000Z</time>
        <extensions>
          <ns3:TrackPointExtension>
            <ns3:atemp>23.0</ns3:atemp>
          </ns3:TrackPointExtension>
        </extensions>
      </trkpt>
      <trkpt lat="42.51471399329602718353271484375" lon="20.1513127796351909637451171875">
        <ele>2159.800048828125</ele>
        <time>2026-06-20T10:31:06.000Z</time>
        <extensions>
          <ns3:TrackPointExtension>
            <ns3:atemp>23.0</ns3:atemp>
          </ns3:TrackPointExtension>
        </extensions>
      </trkpt>
      <trkpt lat="42.51471399329602718353271484375" lon="20.1513127796351909637451171875">
        <ele>2159.800048828125</ele>
        <time>2026-06-20T10:31:07.000Z</time>
        <extensions>
          <ns3:TrackPointExtension>
            <ns3:atemp>23.0</ns3:atemp>
          </ns3:TrackPointExtension>
        </extensions>
      </trkpt>
      <trkpt lat="42.51471399329602718353271484375" lon="20.1513127796351909637451171875">
        <ele>2159.800048828125</ele>
        <time>2026-06-20T10:31:08.000Z</time>
        <extensions>
          <ns3:TrackPointExtension>
            <ns3:atemp>23.0</ns3:atemp>
          </ns3:TrackPointExtension>
        </extensions>
      </trkpt>
      <trkpt lat="42.51471399329602718353271484375" lon="20.1513127796351909637451171875">
        <ele>2159.800048828125</ele>
        <time>2026-06-20T10:31:09.000Z</time>
        <extensions>
          <ns3:TrackPointExtension>
            <ns3:atemp>23.0</ns3:atemp>
          </ns3:TrackPointExtension>
        </extensions>
      </trkpt>
      <trkpt lat="42.51471399329602718353271484375" lon="20.1513127796351909637451171875">
        <ele>2159.800048828125</ele>
        <time>2026-06-20T10:31:10.000Z</time>
        <extensions>
          <ns3:TrackPointExtension>
            <ns3:atemp>23.0</ns3:atemp>
          </ns3:TrackPointExtension>
        </extensions>
      </trkpt>
      <trkpt lat="42.51471399329602718353271484375" lon="20.1513127796351909637451171875">
        <ele>2159.800048828125</ele>
        <time>2026-06-20T10:31:11.000Z</time>
        <extensions>
          <ns3:TrackPointExtension>
            <ns3:atemp>23.0</ns3:atemp>
          </ns3:TrackPointExtension>
        </extensions>
      </trkpt>
      <trkpt lat="42.51471399329602718353271484375" lon="20.1513127796351909637451171875">
        <ele>2159.800048828125</ele>
        <time>2026-06-20T10:31:12.000Z</time>
        <extensions>
          <ns3:TrackPointExtension>
            <ns3:atemp>23.0</ns3:atemp>
          </ns3:TrackPointExtension>
        </extensions>
      </trkpt>
      <trkpt lat="42.51471399329602718353271484375" lon="20.1513127796351909637451171875">
        <ele>2159.800048828125</ele>
        <time>2026-06-20T10:31:13.000Z</time>
        <extensions>
          <ns3:TrackPointExtension>
            <ns3:atemp>23.0</ns3:atemp>
          </ns3:TrackPointExtension>
        </extensions>
      </trkpt>
      <trkpt lat="42.51471399329602718353271484375" lon="20.1513127796351909637451171875">
        <ele>2159.800048828125</ele>
        <time>2026-06-20T10:31:14.000Z</time>
        <extensions>
          <ns3:TrackPointExtension>
            <ns3:atemp>23.0</ns3:atemp>
          </ns3:TrackPointExtension>
        </extensions>
      </trkpt>
      <trkpt lat="42.51471399329602718353271484375" lon="20.1513127796351909637451171875">
        <ele>2159.800048828125</ele>
        <time>2026-06-20T10:31:15.000Z</time>
        <extensions>
          <ns3:TrackPointExtension>
            <ns3:atemp>23.0</ns3:atemp>
          </ns3:TrackPointExtension>
        </extensions>
      </trkpt>
      <trkpt lat="42.51471399329602718353271484375" lon="20.1513127796351909637451171875">
        <ele>2159.800048828125</ele>
        <time>2026-06-20T10:31:16.000Z</time>
        <extensions>
          <ns3:TrackPointExtension>
            <ns3:atemp>23.0</ns3:atemp>
          </ns3:TrackPointExtension>
        </extensions>
      </trkpt>
      <trkpt lat="42.51471399329602718353271484375" lon="20.1513127796351909637451171875">
        <ele>2159.800048828125</ele>
        <time>2026-06-20T10:31:17.000Z</time>
        <extensions>
          <ns3:TrackPointExtension>
            <ns3:atemp>23.0</ns3:atemp>
          </ns3:TrackPointExtension>
        </extensions>
      </trkpt>
      <trkpt lat="42.51471399329602718353271484375" lon="20.1513127796351909637451171875">
        <ele>2159.800048828125</ele>
        <time>2026-06-20T10:31:18.000Z</time>
        <extensions>
          <ns3:TrackPointExtension>
            <ns3:atemp>23.0</ns3:atemp>
          </ns3:TrackPointExtension>
        </extensions>
      </trkpt>
      <trkpt lat="42.51471399329602718353271484375" lon="20.1513127796351909637451171875">
        <ele>2159.800048828125</ele>
        <time>2026-06-20T10:31:19.000Z</time>
        <extensions>
          <ns3:TrackPointExtension>
            <ns3:atemp>23.0</ns3:atemp>
          </ns3:TrackPointExtension>
        </extensions>
      </trkpt>
      <trkpt lat="42.51471399329602718353271484375" lon="20.1513127796351909637451171875">
        <ele>2159.800048828125</ele>
        <time>2026-06-20T10:31:20.000Z</time>
        <extensions>
          <ns3:TrackPointExtension>
            <ns3:atemp>23.0</ns3:atemp>
          </ns3:TrackPointExtension>
        </extensions>
      </trkpt>
      <trkpt lat="42.51471399329602718353271484375" lon="20.1513127796351909637451171875">
        <ele>2159.800048828125</ele>
        <time>2026-06-20T10:31:21.000Z</time>
        <extensions>
          <ns3:TrackPointExtension>
            <ns3:atemp>23.0</ns3:atemp>
          </ns3:TrackPointExtension>
        </extensions>
      </trkpt>
      <trkpt lat="42.51471399329602718353271484375" lon="20.1513127796351909637451171875">
        <ele>2159.800048828125</ele>
        <time>2026-06-20T10:31:22.000Z</time>
        <extensions>
          <ns3:TrackPointExtension>
            <ns3:atemp>23.0</ns3:atemp>
          </ns3:TrackPointExtension>
        </extensions>
      </trkpt>
      <trkpt lat="42.51471399329602718353271484375" lon="20.1513127796351909637451171875">
        <ele>2159.800048828125</ele>
        <time>2026-06-20T10:31:23.000Z</time>
        <extensions>
          <ns3:TrackPointExtension>
            <ns3:atemp>23.0</ns3:atemp>
          </ns3:TrackPointExtension>
        </extensions>
      </trkpt>
      <trkpt lat="42.51471399329602718353271484375" lon="20.1513127796351909637451171875">
        <ele>2159.800048828125</ele>
        <time>2026-06-20T10:31:24.000Z</time>
        <extensions>
          <ns3:TrackPointExtension>
            <ns3:atemp>23.0</ns3:atemp>
          </ns3:TrackPointExtension>
        </extensions>
      </trkpt>
      <trkpt lat="42.51471399329602718353271484375" lon="20.1513127796351909637451171875">
        <ele>2159.800048828125</ele>
        <time>2026-06-20T10:31:25.000Z</time>
        <extensions>
          <ns3:TrackPointExtension>
            <ns3:atemp>23.0</ns3:atemp>
          </ns3:TrackPointExtension>
        </extensions>
      </trkpt>
      <trkpt lat="42.51471399329602718353271484375" lon="20.1513127796351909637451171875">
        <ele>2159.800048828125</ele>
        <time>2026-06-20T10:31:26.000Z</time>
        <extensions>
          <ns3:TrackPointExtension>
            <ns3:atemp>23.0</ns3:atemp>
          </ns3:TrackPointExtension>
        </extensions>
      </trkpt>
      <trkpt lat="42.51471399329602718353271484375" lon="20.1513127796351909637451171875">
        <ele>2159.800048828125</ele>
        <time>2026-06-20T10:31:27.000Z</time>
        <extensions>
          <ns3:TrackPointExtension>
            <ns3:atemp>23.0</ns3:atemp>
          </ns3:TrackPointExtension>
        </extensions>
      </trkpt>
      <trkpt lat="42.51471399329602718353271484375" lon="20.1513127796351909637451171875">
        <ele>2159.800048828125</ele>
        <time>2026-06-20T10:31:28.000Z</time>
        <extensions>
          <ns3:TrackPointExtension>
            <ns3:atemp>23.0</ns3:atemp>
          </ns3:TrackPointExtension>
        </extensions>
      </trkpt>
      <trkpt lat="42.51471399329602718353271484375" lon="20.1513127796351909637451171875">
        <ele>2159.800048828125</ele>
        <time>2026-06-20T10:31:29.000Z</time>
        <extensions>
          <ns3:TrackPointExtension>
            <ns3:atemp>23.0</ns3:atemp>
          </ns3:TrackPointExtension>
        </extensions>
      </trkpt>
      <trkpt lat="42.51471399329602718353271484375" lon="20.1513127796351909637451171875">
        <ele>2159.800048828125</ele>
        <time>2026-06-20T10:31:30.000Z</time>
        <extensions>
          <ns3:TrackPointExtension>
            <ns3:atemp>23.0</ns3:atemp>
          </ns3:TrackPointExtension>
        </extensions>
      </trkpt>
      <trkpt lat="42.51471399329602718353271484375" lon="20.1513127796351909637451171875">
        <ele>2159.800048828125</ele>
        <time>2026-06-20T10:31:31.000Z</time>
        <extensions>
          <ns3:TrackPointExtension>
            <ns3:atemp>23.0</ns3:atemp>
          </ns3:TrackPointExtension>
        </extensions>
      </trkpt>
      <trkpt lat="42.51471399329602718353271484375" lon="20.1513127796351909637451171875">
        <ele>2159.800048828125</ele>
        <time>2026-06-20T10:31:32.000Z</time>
        <extensions>
          <ns3:TrackPointExtension>
            <ns3:atemp>23.0</ns3:atemp>
          </ns3:TrackPointExtension>
        </extensions>
      </trkpt>
      <trkpt lat="42.51471399329602718353271484375" lon="20.1513127796351909637451171875">
        <ele>2159.800048828125</ele>
        <time>2026-06-20T10:31:33.000Z</time>
        <extensions>
          <ns3:TrackPointExtension>
            <ns3:atemp>23.0</ns3:atemp>
          </ns3:TrackPointExtension>
        </extensions>
      </trkpt>
      <trkpt lat="42.51471399329602718353271484375" lon="20.1513127796351909637451171875">
        <ele>2159.800048828125</ele>
        <time>2026-06-20T10:31:34.000Z</time>
        <extensions>
          <ns3:TrackPointExtension>
            <ns3:atemp>23.0</ns3:atemp>
          </ns3:TrackPointExtension>
        </extensions>
      </trkpt>
      <trkpt lat="42.51471399329602718353271484375" lon="20.1513127796351909637451171875">
        <ele>2159.800048828125</ele>
        <time>2026-06-20T10:31:35.000Z</time>
        <extensions>
          <ns3:TrackPointExtension>
            <ns3:atemp>23.0</ns3:atemp>
          </ns3:TrackPointExtension>
        </extensions>
      </trkpt>
      <trkpt lat="42.51471399329602718353271484375" lon="20.1513127796351909637451171875">
        <ele>2159.800048828125</ele>
        <time>2026-06-20T10:31:36.000Z</time>
        <extensions>
          <ns3:TrackPointExtension>
            <ns3:atemp>23.0</ns3:atemp>
          </ns3:TrackPointExtension>
        </extensions>
      </trkpt>
      <trkpt lat="42.51471399329602718353271484375" lon="20.1513127796351909637451171875">
        <ele>2159.800048828125</ele>
        <time>2026-06-20T10:31:37.000Z</time>
        <extensions>
          <ns3:TrackPointExtension>
            <ns3:atemp>23.0</ns3:atemp>
          </ns3:TrackPointExtension>
        </extensions>
      </trkpt>
      <trkpt lat="42.51471399329602718353271484375" lon="20.1513127796351909637451171875">
        <ele>2159.800048828125</ele>
        <time>2026-06-20T10:31:38.000Z</time>
        <extensions>
          <ns3:TrackPointExtension>
            <ns3:atemp>23.0</ns3:atemp>
          </ns3:TrackPointExtension>
        </extensions>
      </trkpt>
      <trkpt lat="42.51471399329602718353271484375" lon="20.1513127796351909637451171875">
        <ele>2159.800048828125</ele>
        <time>2026-06-20T10:31:39.000Z</time>
        <extensions>
          <ns3:TrackPointExtension>
            <ns3:atemp>23.0</ns3:atemp>
          </ns3:TrackPointExtension>
        </extensions>
      </trkpt>
      <trkpt lat="42.51471399329602718353271484375" lon="20.1513127796351909637451171875">
        <ele>2159.800048828125</ele>
        <time>2026-06-20T10:31:40.000Z</time>
        <extensions>
          <ns3:TrackPointExtension>
            <ns3:atemp>23.0</ns3:atemp>
          </ns3:TrackPointExtension>
        </extensions>
      </trkpt>
      <trkpt lat="42.51471399329602718353271484375" lon="20.1513127796351909637451171875">
        <ele>2159.800048828125</ele>
        <time>2026-06-20T10:31:41.000Z</time>
        <extensions>
          <ns3:TrackPointExtension>
            <ns3:atemp>23.0</ns3:atemp>
          </ns3:TrackPointExtension>
        </extensions>
      </trkpt>
      <trkpt lat="42.51471399329602718353271484375" lon="20.1513127796351909637451171875">
        <ele>2159.800048828125</ele>
        <time>2026-06-20T10:31:42.000Z</time>
        <extensions>
          <ns3:TrackPointExtension>
            <ns3:atemp>23.0</ns3:atemp>
          </ns3:TrackPointExtension>
        </extensions>
      </trkpt>
      <trkpt lat="42.51471399329602718353271484375" lon="20.1513127796351909637451171875">
        <ele>2159.800048828125</ele>
        <time>2026-06-20T10:31:43.000Z</time>
        <extensions>
          <ns3:TrackPointExtension>
            <ns3:atemp>23.0</ns3:atemp>
          </ns3:TrackPointExtension>
        </extensions>
      </trkpt>
      <trkpt lat="42.51471399329602718353271484375" lon="20.1513127796351909637451171875">
        <ele>2159.800048828125</ele>
        <time>2026-06-20T10:31:44.000Z</time>
        <extensions>
          <ns3:TrackPointExtension>
            <ns3:atemp>23.0</ns3:atemp>
          </ns3:TrackPointExtension>
        </extensions>
      </trkpt>
      <trkpt lat="42.51471399329602718353271484375" lon="20.1513127796351909637451171875">
        <ele>2159.800048828125</ele>
        <time>2026-06-20T10:31:45.000Z</time>
        <extensions>
          <ns3:TrackPointExtension>
            <ns3:atemp>23.0</ns3:atemp>
          </ns3:TrackPointExtension>
        </extensions>
      </trkpt>
      <trkpt lat="42.51471399329602718353271484375" lon="20.1513127796351909637451171875">
        <ele>2159.800048828125</ele>
        <time>2026-06-20T10:31:46.000Z</time>
        <extensions>
          <ns3:TrackPointExtension>
            <ns3:atemp>23.0</ns3:atemp>
          </ns3:TrackPointExtension>
        </extensions>
      </trkpt>
      <trkpt lat="42.51471399329602718353271484375" lon="20.1513127796351909637451171875">
        <ele>2159.800048828125</ele>
        <time>2026-06-20T10:31:47.000Z</time>
        <extensions>
          <ns3:TrackPointExtension>
            <ns3:atemp>23.0</ns3:atemp>
          </ns3:TrackPointExtension>
        </extensions>
      </trkpt>
      <trkpt lat="42.51471399329602718353271484375" lon="20.1513127796351909637451171875">
        <ele>2159.800048828125</ele>
        <time>2026-06-20T10:31:48.000Z</time>
        <extensions>
          <ns3:TrackPointExtension>
            <ns3:atemp>23.0</ns3:atemp>
          </ns3:TrackPointExtension>
        </extensions>
      </trkpt>
      <trkpt lat="42.51471399329602718353271484375" lon="20.1513127796351909637451171875">
        <ele>2159.800048828125</ele>
        <time>2026-06-20T10:31:49.000Z</time>
        <extensions>
          <ns3:TrackPointExtension>
            <ns3:atemp>23.0</ns3:atemp>
          </ns3:TrackPointExtension>
        </extensions>
      </trkpt>
      <trkpt lat="42.51471399329602718353271484375" lon="20.1513127796351909637451171875">
        <ele>2159.800048828125</ele>
        <time>2026-06-20T10:31:50.000Z</time>
        <extensions>
          <ns3:TrackPointExtension>
            <ns3:atemp>23.0</ns3:atemp>
          </ns3:TrackPointExtension>
        </extensions>
      </trkpt>
      <trkpt lat="42.51471399329602718353271484375" lon="20.1513127796351909637451171875">
        <ele>2159.800048828125</ele>
        <time>2026-06-20T10:31:51.000Z</time>
        <extensions>
          <ns3:TrackPointExtension>
            <ns3:atemp>23.0</ns3:atemp>
          </ns3:TrackPointExtension>
        </extensions>
      </trkpt>
      <trkpt lat="42.51471399329602718353271484375" lon="20.1513127796351909637451171875">
        <ele>2159.800048828125</ele>
        <time>2026-06-20T10:31:52.000Z</time>
        <extensions>
          <ns3:TrackPointExtension>
            <ns3:atemp>23.0</ns3:atemp>
          </ns3:TrackPointExtension>
        </extensions>
      </trkpt>
      <trkpt lat="42.51471399329602718353271484375" lon="20.1513127796351909637451171875">
        <ele>2159.800048828125</ele>
        <time>2026-06-20T10:31:53.000Z</time>
        <extensions>
          <ns3:TrackPointExtension>
            <ns3:atemp>23.0</ns3:atemp>
          </ns3:TrackPointExtension>
        </extensions>
      </trkpt>
      <trkpt lat="42.51471399329602718353271484375" lon="20.1513127796351909637451171875">
        <ele>2159.800048828125</ele>
        <time>2026-06-20T10:31:54.000Z</time>
        <extensions>
          <ns3:TrackPointExtension>
            <ns3:atemp>23.0</ns3:atemp>
          </ns3:TrackPointExtension>
        </extensions>
      </trkpt>
      <trkpt lat="42.51471399329602718353271484375" lon="20.1513127796351909637451171875">
        <ele>2159.800048828125</ele>
        <time>2026-06-20T10:31:55.000Z</time>
        <extensions>
          <ns3:TrackPointExtension>
            <ns3:atemp>23.0</ns3:atemp>
          </ns3:TrackPointExtension>
        </extensions>
      </trkpt>
      <trkpt lat="42.51471399329602718353271484375" lon="20.1513127796351909637451171875">
        <ele>2159.800048828125</ele>
        <time>2026-06-20T10:31:56.000Z</time>
        <extensions>
          <ns3:TrackPointExtension>
            <ns3:atemp>23.0</ns3:atemp>
          </ns3:TrackPointExtension>
        </extensions>
      </trkpt>
      <trkpt lat="42.51471399329602718353271484375" lon="20.1513127796351909637451171875">
        <ele>2159.800048828125</ele>
        <time>2026-06-20T10:31:57.000Z</time>
        <extensions>
          <ns3:TrackPointExtension>
            <ns3:atemp>23.0</ns3:atemp>
          </ns3:TrackPointExtension>
        </extensions>
      </trkpt>
      <trkpt lat="42.51471399329602718353271484375" lon="20.1513127796351909637451171875">
        <ele>2159.800048828125</ele>
        <time>2026-06-20T10:31:58.000Z</time>
        <extensions>
          <ns3:TrackPointExtension>
            <ns3:atemp>23.0</ns3:atemp>
          </ns3:TrackPointExtension>
        </extensions>
      </trkpt>
      <trkpt lat="42.51471399329602718353271484375" lon="20.1513127796351909637451171875">
        <ele>2159.800048828125</ele>
        <time>2026-06-20T10:31:59.000Z</time>
        <extensions>
          <ns3:TrackPointExtension>
            <ns3:atemp>23.0</ns3:atemp>
          </ns3:TrackPointExtension>
        </extensions>
      </trkpt>
      <trkpt lat="42.51471399329602718353271484375" lon="20.1513127796351909637451171875">
        <ele>2159.800048828125</ele>
        <time>2026-06-20T10:32:00.000Z</time>
        <extensions>
          <ns3:TrackPointExtension>
            <ns3:atemp>23.0</ns3:atemp>
          </ns3:TrackPointExtension>
        </extensions>
      </trkpt>
      <trkpt lat="42.51471399329602718353271484375" lon="20.1513127796351909637451171875">
        <ele>2159.800048828125</ele>
        <time>2026-06-20T10:32:01.000Z</time>
        <extensions>
          <ns3:TrackPointExtension>
            <ns3:atemp>23.0</ns3:atemp>
          </ns3:TrackPointExtension>
        </extensions>
      </trkpt>
      <trkpt lat="42.51471399329602718353271484375" lon="20.1513127796351909637451171875">
        <ele>2159.800048828125</ele>
        <time>2026-06-20T10:32:02.000Z</time>
        <extensions>
          <ns3:TrackPointExtension>
            <ns3:atemp>23.0</ns3:atemp>
          </ns3:TrackPointExtension>
        </extensions>
      </trkpt>
      <trkpt lat="42.51471399329602718353271484375" lon="20.1513127796351909637451171875">
        <ele>2159.800048828125</ele>
        <time>2026-06-20T10:32:03.000Z</time>
        <extensions>
          <ns3:TrackPointExtension>
            <ns3:atemp>23.0</ns3:atemp>
          </ns3:TrackPointExtension>
        </extensions>
      </trkpt>
      <trkpt lat="42.51471399329602718353271484375" lon="20.1513127796351909637451171875">
        <ele>2159.800048828125</ele>
        <time>2026-06-20T10:32:04.000Z</time>
        <extensions>
          <ns3:TrackPointExtension>
            <ns3:atemp>23.0</ns3:atemp>
          </ns3:TrackPointExtension>
        </extensions>
      </trkpt>
      <trkpt lat="42.51471399329602718353271484375" lon="20.1513127796351909637451171875">
        <ele>2159.800048828125</ele>
        <time>2026-06-20T10:32:05.000Z</time>
        <extensions>
          <ns3:TrackPointExtension>
            <ns3:atemp>23.0</ns3:atemp>
          </ns3:TrackPointExtension>
        </extensions>
      </trkpt>
      <trkpt lat="42.51471399329602718353271484375" lon="20.1513127796351909637451171875">
        <ele>2159.800048828125</ele>
        <time>2026-06-20T10:32:06.000Z</time>
        <extensions>
          <ns3:TrackPointExtension>
            <ns3:atemp>23.0</ns3:atemp>
          </ns3:TrackPointExtension>
        </extensions>
      </trkpt>
      <trkpt lat="42.51471399329602718353271484375" lon="20.1513127796351909637451171875">
        <ele>2159.800048828125</ele>
        <time>2026-06-20T10:32:07.000Z</time>
        <extensions>
          <ns3:TrackPointExtension>
            <ns3:atemp>23.0</ns3:atemp>
          </ns3:TrackPointExtension>
        </extensions>
      </trkpt>
      <trkpt lat="42.51471399329602718353271484375" lon="20.1513127796351909637451171875">
        <ele>2159.800048828125</ele>
        <time>2026-06-20T10:32:08.000Z</time>
        <extensions>
          <ns3:TrackPointExtension>
            <ns3:atemp>23.0</ns3:atemp>
          </ns3:TrackPointExtension>
        </extensions>
      </trkpt>
      <trkpt lat="42.51471399329602718353271484375" lon="20.1513127796351909637451171875">
        <ele>2159.800048828125</ele>
        <time>2026-06-20T10:32:09.000Z</time>
        <extensions>
          <ns3:TrackPointExtension>
            <ns3:atemp>23.0</ns3:atemp>
          </ns3:TrackPointExtension>
        </extensions>
      </trkpt>
      <trkpt lat="42.51471399329602718353271484375" lon="20.1513127796351909637451171875">
        <ele>2159.800048828125</ele>
        <time>2026-06-20T10:32:10.000Z</time>
        <extensions>
          <ns3:TrackPointExtension>
            <ns3:atemp>23.0</ns3:atemp>
          </ns3:TrackPointExtension>
        </extensions>
      </trkpt>
      <trkpt lat="42.51471399329602718353271484375" lon="20.1513127796351909637451171875">
        <ele>2159.800048828125</ele>
        <time>2026-06-20T10:32:11.000Z</time>
        <extensions>
          <ns3:TrackPointExtension>
            <ns3:atemp>23.0</ns3:atemp>
          </ns3:TrackPointExtension>
        </extensions>
      </trkpt>
      <trkpt lat="42.51471399329602718353271484375" lon="20.1513127796351909637451171875">
        <ele>2159.800048828125</ele>
        <time>2026-06-20T10:32:12.000Z</time>
        <extensions>
          <ns3:TrackPointExtension>
            <ns3:atemp>23.0</ns3:atemp>
          </ns3:TrackPointExtension>
        </extensions>
      </trkpt>
      <trkpt lat="42.51471399329602718353271484375" lon="20.1513127796351909637451171875">
        <ele>2159.800048828125</ele>
        <time>2026-06-20T10:32:13.000Z</time>
        <extensions>
          <ns3:TrackPointExtension>
            <ns3:atemp>24.0</ns3:atemp>
          </ns3:TrackPointExtension>
        </extensions>
      </trkpt>
      <trkpt lat="42.51471399329602718353271484375" lon="20.1513127796351909637451171875">
        <ele>2159.800048828125</ele>
        <time>2026-06-20T10:32:14.000Z</time>
        <extensions>
          <ns3:TrackPointExtension>
            <ns3:atemp>23.0</ns3:atemp>
          </ns3:TrackPointExtension>
        </extensions>
      </trkpt>
      <trkpt lat="42.51471399329602718353271484375" lon="20.1513127796351909637451171875">
        <ele>2159.800048828125</ele>
        <time>2026-06-20T10:32:15.000Z</time>
        <extensions>
          <ns3:TrackPointExtension>
            <ns3:atemp>23.0</ns3:atemp>
          </ns3:TrackPointExtension>
        </extensions>
      </trkpt>
      <trkpt lat="42.51471399329602718353271484375" lon="20.1513127796351909637451171875">
        <ele>2159.800048828125</ele>
        <time>2026-06-20T10:32:16.000Z</time>
        <extensions>
          <ns3:TrackPointExtension>
            <ns3:atemp>24.0</ns3:atemp>
          </ns3:TrackPointExtension>
        </extensions>
      </trkpt>
      <trkpt lat="42.51471399329602718353271484375" lon="20.1513127796351909637451171875">
        <ele>2159.800048828125</ele>
        <time>2026-06-20T10:32:17.000Z</time>
        <extensions>
          <ns3:TrackPointExtension>
            <ns3:atemp>23.0</ns3:atemp>
          </ns3:TrackPointExtension>
        </extensions>
      </trkpt>
      <trkpt lat="42.51471399329602718353271484375" lon="20.1513127796351909637451171875">
        <ele>2159.800048828125</ele>
        <time>2026-06-20T10:32:18.000Z</time>
        <extensions>
          <ns3:TrackPointExtension>
            <ns3:atemp>23.0</ns3:atemp>
          </ns3:TrackPointExtension>
        </extensions>
      </trkpt>
      <trkpt lat="42.51471399329602718353271484375" lon="20.1513127796351909637451171875">
        <ele>2159.800048828125</ele>
        <time>2026-06-20T10:32:19.000Z</time>
        <extensions>
          <ns3:TrackPointExtension>
            <ns3:atemp>23.0</ns3:atemp>
          </ns3:TrackPointExtension>
        </extensions>
      </trkpt>
      <trkpt lat="42.51471399329602718353271484375" lon="20.1513127796351909637451171875">
        <ele>2159.800048828125</ele>
        <time>2026-06-20T10:32:20.000Z</time>
        <extensions>
          <ns3:TrackPointExtension>
            <ns3:atemp>23.0</ns3:atemp>
          </ns3:TrackPointExtension>
        </extensions>
      </trkpt>
      <trkpt lat="42.51471399329602718353271484375" lon="20.1513127796351909637451171875">
        <ele>2159.800048828125</ele>
        <time>2026-06-20T10:32:21.000Z</time>
        <extensions>
          <ns3:TrackPointExtension>
            <ns3:atemp>23.0</ns3:atemp>
          </ns3:TrackPointExtension>
        </extensions>
      </trkpt>
      <trkpt lat="42.51471399329602718353271484375" lon="20.1513127796351909637451171875">
        <ele>2159.800048828125</ele>
        <time>2026-06-20T10:32:22.000Z</time>
        <extensions>
          <ns3:TrackPointExtension>
            <ns3:atemp>23.0</ns3:atemp>
          </ns3:TrackPointExtension>
        </extensions>
      </trkpt>
      <trkpt lat="42.51471399329602718353271484375" lon="20.1513127796351909637451171875">
        <ele>2159.800048828125</ele>
        <time>2026-06-20T10:32:23.000Z</time>
        <extensions>
          <ns3:TrackPointExtension>
            <ns3:atemp>23.0</ns3:atemp>
          </ns3:TrackPointExtension>
        </extensions>
      </trkpt>
      <trkpt lat="42.51471399329602718353271484375" lon="20.1513127796351909637451171875">
        <ele>2159.800048828125</ele>
        <time>2026-06-20T10:32:24.000Z</time>
        <extensions>
          <ns3:TrackPointExtension>
            <ns3:atemp>23.0</ns3:atemp>
          </ns3:TrackPointExtension>
        </extensions>
      </trkpt>
      <trkpt lat="42.51471399329602718353271484375" lon="20.1513127796351909637451171875">
        <ele>2159.800048828125</ele>
        <time>2026-06-20T10:32:25.000Z</time>
        <extensions>
          <ns3:TrackPointExtension>
            <ns3:atemp>23.0</ns3:atemp>
          </ns3:TrackPointExtension>
        </extensions>
      </trkpt>
      <trkpt lat="42.51471399329602718353271484375" lon="20.1513127796351909637451171875">
        <ele>2159.800048828125</ele>
        <time>2026-06-20T10:32:26.000Z</time>
        <extensions>
          <ns3:TrackPointExtension>
            <ns3:atemp>23.0</ns3:atemp>
          </ns3:TrackPointExtension>
        </extensions>
      </trkpt>
      <trkpt lat="42.51471399329602718353271484375" lon="20.1513127796351909637451171875">
        <ele>2159.800048828125</ele>
        <time>2026-06-20T10:32:27.000Z</time>
        <extensions>
          <ns3:TrackPointExtension>
            <ns3:atemp>24.0</ns3:atemp>
          </ns3:TrackPointExtension>
        </extensions>
      </trkpt>
      <trkpt lat="42.51471399329602718353271484375" lon="20.1513127796351909637451171875">
        <ele>2159.800048828125</ele>
        <time>2026-06-20T10:32:28.000Z</time>
        <extensions>
          <ns3:TrackPointExtension>
            <ns3:atemp>24.0</ns3:atemp>
          </ns3:TrackPointExtension>
        </extensions>
      </trkpt>
      <trkpt lat="42.51471399329602718353271484375" lon="20.1513127796351909637451171875">
        <ele>2159.800048828125</ele>
        <time>2026-06-20T10:32:29.000Z</time>
        <extensions>
          <ns3:TrackPointExtension>
            <ns3:atemp>24.0</ns3:atemp>
          </ns3:TrackPointExtension>
        </extensions>
      </trkpt>
      <trkpt lat="42.51471399329602718353271484375" lon="20.1513127796351909637451171875">
        <ele>2159.800048828125</ele>
        <time>2026-06-20T10:32:30.000Z</time>
        <extensions>
          <ns3:TrackPointExtension>
            <ns3:atemp>24.0</ns3:atemp>
          </ns3:TrackPointExtension>
        </extensions>
      </trkpt>
      <trkpt lat="42.51471399329602718353271484375" lon="20.1513127796351909637451171875">
        <ele>2159.800048828125</ele>
        <time>2026-06-20T10:32:31.000Z</time>
        <extensions>
          <ns3:TrackPointExtension>
            <ns3:atemp>24.0</ns3:atemp>
          </ns3:TrackPointExtension>
        </extensions>
      </trkpt>
      <trkpt lat="42.51471399329602718353271484375" lon="20.1513127796351909637451171875">
        <ele>2159.800048828125</ele>
        <time>2026-06-20T10:32:32.000Z</time>
        <extensions>
          <ns3:TrackPointExtension>
            <ns3:atemp>24.0</ns3:atemp>
          </ns3:TrackPointExtension>
        </extensions>
      </trkpt>
      <trkpt lat="42.51471399329602718353271484375" lon="20.1513127796351909637451171875">
        <ele>2159.800048828125</ele>
        <time>2026-06-20T10:32:33.000Z</time>
        <extensions>
          <ns3:TrackPointExtension>
            <ns3:atemp>24.0</ns3:atemp>
          </ns3:TrackPointExtension>
        </extensions>
      </trkpt>
      <trkpt lat="42.51471399329602718353271484375" lon="20.1513127796351909637451171875">
        <ele>2159.800048828125</ele>
        <time>2026-06-20T10:32:34.000Z</time>
        <extensions>
          <ns3:TrackPointExtension>
            <ns3:atemp>23.0</ns3:atemp>
          </ns3:TrackPointExtension>
        </extensions>
      </trkpt>
      <trkpt lat="42.51471399329602718353271484375" lon="20.1513127796351909637451171875">
        <ele>2159.800048828125</ele>
        <time>2026-06-20T10:32:35.000Z</time>
        <extensions>
          <ns3:TrackPointExtension>
            <ns3:atemp>23.0</ns3:atemp>
          </ns3:TrackPointExtension>
        </extensions>
      </trkpt>
      <trkpt lat="42.51471399329602718353271484375" lon="20.1513127796351909637451171875">
        <ele>2159.800048828125</ele>
        <time>2026-06-20T10:32:36.000Z</time>
        <extensions>
          <ns3:TrackPointExtension>
            <ns3:atemp>23.0</ns3:atemp>
          </ns3:TrackPointExtension>
        </extensions>
      </trkpt>
      <trkpt lat="42.51471399329602718353271484375" lon="20.1513127796351909637451171875">
        <ele>2159.800048828125</ele>
        <time>2026-06-20T10:32:37.000Z</time>
        <extensions>
          <ns3:TrackPointExtension>
            <ns3:atemp>23.0</ns3:atemp>
          </ns3:TrackPointExtension>
        </extensions>
      </trkpt>
      <trkpt lat="42.51471399329602718353271484375" lon="20.1513127796351909637451171875">
        <ele>2159.800048828125</ele>
        <time>2026-06-20T10:32:38.000Z</time>
        <extensions>
          <ns3:TrackPointExtension>
            <ns3:atemp>23.0</ns3:atemp>
          </ns3:TrackPointExtension>
        </extensions>
      </trkpt>
      <trkpt lat="42.51471399329602718353271484375" lon="20.1513127796351909637451171875">
        <ele>2159.800048828125</ele>
        <time>2026-06-20T10:32:39.000Z</time>
        <extensions>
          <ns3:TrackPointExtension>
            <ns3:atemp>23.0</ns3:atemp>
          </ns3:TrackPointExtension>
        </extensions>
      </trkpt>
      <trkpt lat="42.51471399329602718353271484375" lon="20.1513127796351909637451171875">
        <ele>2159.800048828125</ele>
        <time>2026-06-20T10:32:40.000Z</time>
        <extensions>
          <ns3:TrackPointExtension>
            <ns3:atemp>23.0</ns3:atemp>
          </ns3:TrackPointExtension>
        </extensions>
      </trkpt>
      <trkpt lat="42.51471399329602718353271484375" lon="20.1513127796351909637451171875">
        <ele>2159.800048828125</ele>
        <time>2026-06-20T10:32:41.000Z</time>
        <extensions>
          <ns3:TrackPointExtension>
            <ns3:atemp>23.0</ns3:atemp>
          </ns3:TrackPointExtension>
        </extensions>
      </trkpt>
      <trkpt lat="42.51471399329602718353271484375" lon="20.1513127796351909637451171875">
        <ele>2159.800048828125</ele>
        <time>2026-06-20T10:32:42.000Z</time>
        <extensions>
          <ns3:TrackPointExtension>
            <ns3:atemp>23.0</ns3:atemp>
          </ns3:TrackPointExtension>
        </extensions>
      </trkpt>
      <trkpt lat="42.51471399329602718353271484375" lon="20.1513127796351909637451171875">
        <ele>2159.800048828125</ele>
        <time>2026-06-20T10:32:43.000Z</time>
        <extensions>
          <ns3:TrackPointExtension>
            <ns3:atemp>23.0</ns3:atemp>
          </ns3:TrackPointExtension>
        </extensions>
      </trkpt>
      <trkpt lat="42.51471399329602718353271484375" lon="20.1513127796351909637451171875">
        <ele>2159.800048828125</ele>
        <time>2026-06-20T10:32:44.000Z</time>
        <extensions>
          <ns3:TrackPointExtension>
            <ns3:atemp>23.0</ns3:atemp>
          </ns3:TrackPointExtension>
        </extensions>
      </trkpt>
      <trkpt lat="42.51471399329602718353271484375" lon="20.1513127796351909637451171875">
        <ele>2159.800048828125</ele>
        <time>2026-06-20T10:32:45.000Z</time>
        <extensions>
          <ns3:TrackPointExtension>
            <ns3:atemp>23.0</ns3:atemp>
          </ns3:TrackPointExtension>
        </extensions>
      </trkpt>
      <trkpt lat="42.51471399329602718353271484375" lon="20.1513127796351909637451171875">
        <ele>2159.800048828125</ele>
        <time>2026-06-20T10:32:46.000Z</time>
        <extensions>
          <ns3:TrackPointExtension>
            <ns3:atemp>23.0</ns3:atemp>
          </ns3:TrackPointExtension>
        </extensions>
      </trkpt>
      <trkpt lat="42.51471399329602718353271484375" lon="20.1513127796351909637451171875">
        <ele>2159.800048828125</ele>
        <time>2026-06-20T10:32:47.000Z</time>
        <extensions>
          <ns3:TrackPointExtension>
            <ns3:atemp>23.0</ns3:atemp>
          </ns3:TrackPointExtension>
        </extensions>
      </trkpt>
      <trkpt lat="42.51471399329602718353271484375" lon="20.1513127796351909637451171875">
        <ele>2159.800048828125</ele>
        <time>2026-06-20T10:32:48.000Z</time>
        <extensions>
          <ns3:TrackPointExtension>
            <ns3:atemp>23.0</ns3:atemp>
          </ns3:TrackPointExtension>
        </extensions>
      </trkpt>
      <trkpt lat="42.51471399329602718353271484375" lon="20.1513127796351909637451171875">
        <ele>2159.800048828125</ele>
        <time>2026-06-20T10:32:49.000Z</time>
        <extensions>
          <ns3:TrackPointExtension>
            <ns3:atemp>23.0</ns3:atemp>
          </ns3:TrackPointExtension>
        </extensions>
      </trkpt>
      <trkpt lat="42.51471399329602718353271484375" lon="20.1513127796351909637451171875">
        <ele>2159.800048828125</ele>
        <time>2026-06-20T10:32:50.000Z</time>
        <extensions>
          <ns3:TrackPointExtension>
            <ns3:atemp>23.0</ns3:atemp>
          </ns3:TrackPointExtension>
        </extensions>
      </trkpt>
      <trkpt lat="42.51471399329602718353271484375" lon="20.1513127796351909637451171875">
        <ele>2159.800048828125</ele>
        <time>2026-06-20T10:32:51.000Z</time>
        <extensions>
          <ns3:TrackPointExtension>
            <ns3:atemp>24.0</ns3:atemp>
          </ns3:TrackPointExtension>
        </extensions>
      </trkpt>
      <trkpt lat="42.51471399329602718353271484375" lon="20.1513127796351909637451171875">
        <ele>2159.800048828125</ele>
        <time>2026-06-20T10:32:52.000Z</time>
        <extensions>
          <ns3:TrackPointExtension>
            <ns3:atemp>24.0</ns3:atemp>
          </ns3:TrackPointExtension>
        </extensions>
      </trkpt>
      <trkpt lat="42.51471399329602718353271484375" lon="20.1513127796351909637451171875">
        <ele>2159.800048828125</ele>
        <time>2026-06-20T10:32:53.000Z</time>
        <extensions>
          <ns3:TrackPointExtension>
            <ns3:atemp>24.0</ns3:atemp>
          </ns3:TrackPointExtension>
        </extensions>
      </trkpt>
      <trkpt lat="42.51471399329602718353271484375" lon="20.1513127796351909637451171875">
        <ele>2159.800048828125</ele>
        <time>2026-06-20T10:32:54.000Z</time>
        <extensions>
          <ns3:TrackPointExtension>
            <ns3:atemp>24.0</ns3:atemp>
          </ns3:TrackPointExtension>
        </extensions>
      </trkpt>
      <trkpt lat="42.51471399329602718353271484375" lon="20.1513127796351909637451171875">
        <ele>2159.800048828125</ele>
        <time>2026-06-20T10:32:55.000Z</time>
        <extensions>
          <ns3:TrackPointExtension>
            <ns3:atemp>24.0</ns3:atemp>
          </ns3:TrackPointExtension>
        </extensions>
      </trkpt>
      <trkpt lat="42.51471399329602718353271484375" lon="20.1513127796351909637451171875">
        <ele>2159.800048828125</ele>
        <time>2026-06-20T10:32:56.000Z</time>
        <extensions>
          <ns3:TrackPointExtension>
            <ns3:atemp>24.0</ns3:atemp>
          </ns3:TrackPointExtension>
        </extensions>
      </trkpt>
      <trkpt lat="42.51471399329602718353271484375" lon="20.1513127796351909637451171875">
        <ele>2159.800048828125</ele>
        <time>2026-06-20T10:32:57.000Z</time>
        <extensions>
          <ns3:TrackPointExtension>
            <ns3:atemp>23.0</ns3:atemp>
          </ns3:TrackPointExtension>
        </extensions>
      </trkpt>
      <trkpt lat="42.51471399329602718353271484375" lon="20.1513127796351909637451171875">
        <ele>2159.800048828125</ele>
        <time>2026-06-20T10:32:58.000Z</time>
        <extensions>
          <ns3:TrackPointExtension>
            <ns3:atemp>23.0</ns3:atemp>
          </ns3:TrackPointExtension>
        </extensions>
      </trkpt>
      <trkpt lat="42.51471399329602718353271484375" lon="20.1513127796351909637451171875">
        <ele>2159.800048828125</ele>
        <time>2026-06-20T10:32:59.000Z</time>
        <extensions>
          <ns3:TrackPointExtension>
            <ns3:atemp>23.0</ns3:atemp>
          </ns3:TrackPointExtension>
        </extensions>
      </trkpt>
      <trkpt lat="42.51471399329602718353271484375" lon="20.1513127796351909637451171875">
        <ele>2159.800048828125</ele>
        <time>2026-06-20T10:33:00.000Z</time>
        <extensions>
          <ns3:TrackPointExtension>
            <ns3:atemp>23.0</ns3:atemp>
          </ns3:TrackPointExtension>
        </extensions>
      </trkpt>
      <trkpt lat="42.51471399329602718353271484375" lon="20.1513127796351909637451171875">
        <ele>2159.800048828125</ele>
        <time>2026-06-20T10:33:01.000Z</time>
        <extensions>
          <ns3:TrackPointExtension>
            <ns3:atemp>23.0</ns3:atemp>
          </ns3:TrackPointExtension>
        </extensions>
      </trkpt>
      <trkpt lat="42.51471399329602718353271484375" lon="20.1513127796351909637451171875">
        <ele>2159.800048828125</ele>
        <time>2026-06-20T10:33:02.000Z</time>
        <extensions>
          <ns3:TrackPointExtension>
            <ns3:atemp>23.0</ns3:atemp>
          </ns3:TrackPointExtension>
        </extensions>
      </trkpt>
      <trkpt lat="42.51471399329602718353271484375" lon="20.1513127796351909637451171875">
        <ele>2159.800048828125</ele>
        <time>2026-06-20T10:33:03.000Z</time>
        <extensions>
          <ns3:TrackPointExtension>
            <ns3:atemp>24.0</ns3:atemp>
          </ns3:TrackPointExtension>
        </extensions>
      </trkpt>
      <trkpt lat="42.51471399329602718353271484375" lon="20.1513127796351909637451171875">
        <ele>2159.800048828125</ele>
        <time>2026-06-20T10:33:04.000Z</time>
        <extensions>
          <ns3:TrackPointExtension>
            <ns3:atemp>24.0</ns3:atemp>
          </ns3:TrackPointExtension>
        </extensions>
      </trkpt>
      <trkpt lat="42.51471399329602718353271484375" lon="20.1513127796351909637451171875">
        <ele>2159.800048828125</ele>
        <time>2026-06-20T10:33:05.000Z</time>
        <extensions>
          <ns3:TrackPointExtension>
            <ns3:atemp>24.0</ns3:atemp>
          </ns3:TrackPointExtension>
        </extensions>
      </trkpt>
      <trkpt lat="42.51471399329602718353271484375" lon="20.1513127796351909637451171875">
        <ele>2159.800048828125</ele>
        <time>2026-06-20T10:33:06.000Z</time>
        <extensions>
          <ns3:TrackPointExtension>
            <ns3:atemp>24.0</ns3:atemp>
          </ns3:TrackPointExtension>
        </extensions>
      </trkpt>
      <trkpt lat="42.51471399329602718353271484375" lon="20.1513127796351909637451171875">
        <ele>2159.800048828125</ele>
        <time>2026-06-20T10:33:07.000Z</time>
        <extensions>
          <ns3:TrackPointExtension>
            <ns3:atemp>24.0</ns3:atemp>
          </ns3:TrackPointExtension>
        </extensions>
      </trkpt>
      <trkpt lat="42.51471399329602718353271484375" lon="20.1513127796351909637451171875">
        <ele>2159.800048828125</ele>
        <time>2026-06-20T10:33:08.000Z</time>
        <extensions>
          <ns3:TrackPointExtension>
            <ns3:atemp>24.0</ns3:atemp>
          </ns3:TrackPointExtension>
        </extensions>
      </trkpt>
      <trkpt lat="42.51471399329602718353271484375" lon="20.1513127796351909637451171875">
        <ele>2159.800048828125</ele>
        <time>2026-06-20T10:33:09.000Z</time>
        <extensions>
          <ns3:TrackPointExtension>
            <ns3:atemp>24.0</ns3:atemp>
          </ns3:TrackPointExtension>
        </extensions>
      </trkpt>
      <trkpt lat="42.51471399329602718353271484375" lon="20.1513127796351909637451171875">
        <ele>2159.800048828125</ele>
        <time>2026-06-20T10:33:10.000Z</time>
        <extensions>
          <ns3:TrackPointExtension>
            <ns3:atemp>24.0</ns3:atemp>
          </ns3:TrackPointExtension>
        </extensions>
      </trkpt>
      <trkpt lat="42.51471399329602718353271484375" lon="20.1513127796351909637451171875">
        <ele>2159.800048828125</ele>
        <time>2026-06-20T10:33:11.000Z</time>
        <extensions>
          <ns3:TrackPointExtension>
            <ns3:atemp>24.0</ns3:atemp>
          </ns3:TrackPointExtension>
        </extensions>
      </trkpt>
      <trkpt lat="42.51471399329602718353271484375" lon="20.1513127796351909637451171875">
        <ele>2159.800048828125</ele>
        <time>2026-06-20T10:33:12.000Z</time>
        <extensions>
          <ns3:TrackPointExtension>
            <ns3:atemp>24.0</ns3:atemp>
          </ns3:TrackPointExtension>
        </extensions>
      </trkpt>
      <trkpt lat="42.51471399329602718353271484375" lon="20.1513127796351909637451171875">
        <ele>2159.800048828125</ele>
        <time>2026-06-20T10:33:13.000Z</time>
        <extensions>
          <ns3:TrackPointExtension>
            <ns3:atemp>24.0</ns3:atemp>
          </ns3:TrackPointExtension>
        </extensions>
      </trkpt>
      <trkpt lat="42.51471399329602718353271484375" lon="20.1513127796351909637451171875">
        <ele>2159.800048828125</ele>
        <time>2026-06-20T10:33:14.000Z</time>
        <extensions>
          <ns3:TrackPointExtension>
            <ns3:atemp>24.0</ns3:atemp>
          </ns3:TrackPointExtension>
        </extensions>
      </trkpt>
      <trkpt lat="42.51471399329602718353271484375" lon="20.1513127796351909637451171875">
        <ele>2159.800048828125</ele>
        <time>2026-06-20T10:33:15.000Z</time>
        <extensions>
          <ns3:TrackPointExtension>
            <ns3:atemp>24.0</ns3:atemp>
          </ns3:TrackPointExtension>
        </extensions>
      </trkpt>
      <trkpt lat="42.51471399329602718353271484375" lon="20.1513127796351909637451171875">
        <ele>2159.800048828125</ele>
        <time>2026-06-20T10:33:16.000Z</time>
        <extensions>
          <ns3:TrackPointExtension>
            <ns3:atemp>24.0</ns3:atemp>
          </ns3:TrackPointExtension>
        </extensions>
      </trkpt>
      <trkpt lat="42.51471399329602718353271484375" lon="20.1513127796351909637451171875">
        <ele>2159.800048828125</ele>
        <time>2026-06-20T10:33:17.000Z</time>
        <extensions>
          <ns3:TrackPointExtension>
            <ns3:atemp>24.0</ns3:atemp>
          </ns3:TrackPointExtension>
        </extensions>
      </trkpt>
      <trkpt lat="42.51471399329602718353271484375" lon="20.1513127796351909637451171875">
        <ele>2159.800048828125</ele>
        <time>2026-06-20T10:33:18.000Z</time>
        <extensions>
          <ns3:TrackPointExtension>
            <ns3:atemp>24.0</ns3:atemp>
          </ns3:TrackPointExtension>
        </extensions>
      </trkpt>
      <trkpt lat="42.51471399329602718353271484375" lon="20.1513127796351909637451171875">
        <ele>2159.800048828125</ele>
        <time>2026-06-20T10:33:19.000Z</time>
        <extensions>
          <ns3:TrackPointExtension>
            <ns3:atemp>24.0</ns3:atemp>
          </ns3:TrackPointExtension>
        </extensions>
      </trkpt>
      <trkpt lat="42.51471399329602718353271484375" lon="20.1513127796351909637451171875">
        <ele>2159.800048828125</ele>
        <time>2026-06-20T10:33:20.000Z</time>
        <extensions>
          <ns3:TrackPointExtension>
            <ns3:atemp>24.0</ns3:atemp>
          </ns3:TrackPointExtension>
        </extensions>
      </trkpt>
      <trkpt lat="42.51471399329602718353271484375" lon="20.1513127796351909637451171875">
        <ele>2159.800048828125</ele>
        <time>2026-06-20T10:33:21.000Z</time>
        <extensions>
          <ns3:TrackPointExtension>
            <ns3:atemp>24.0</ns3:atemp>
          </ns3:TrackPointExtension>
        </extensions>
      </trkpt>
      <trkpt lat="42.51471399329602718353271484375" lon="20.1513127796351909637451171875">
        <ele>2159.800048828125</ele>
        <time>2026-06-20T10:33:22.000Z</time>
        <extensions>
          <ns3:TrackPointExtension>
            <ns3:atemp>24.0</ns3:atemp>
          </ns3:TrackPointExtension>
        </extensions>
      </trkpt>
      <trkpt lat="42.51471399329602718353271484375" lon="20.1513127796351909637451171875">
        <ele>2159.800048828125</ele>
        <time>2026-06-20T10:33:23.000Z</time>
        <extensions>
          <ns3:TrackPointExtension>
            <ns3:atemp>24.0</ns3:atemp>
          </ns3:TrackPointExtension>
        </extensions>
      </trkpt>
      <trkpt lat="42.51471399329602718353271484375" lon="20.1513127796351909637451171875">
        <ele>2159.800048828125</ele>
        <time>2026-06-20T10:33:24.000Z</time>
        <extensions>
          <ns3:TrackPointExtension>
            <ns3:atemp>24.0</ns3:atemp>
          </ns3:TrackPointExtension>
        </extensions>
      </trkpt>
      <trkpt lat="42.51471399329602718353271484375" lon="20.1513127796351909637451171875">
        <ele>2159.800048828125</ele>
        <time>2026-06-20T10:33:25.000Z</time>
        <extensions>
          <ns3:TrackPointExtension>
            <ns3:atemp>24.0</ns3:atemp>
          </ns3:TrackPointExtension>
        </extensions>
      </trkpt>
      <trkpt lat="42.51471399329602718353271484375" lon="20.1513127796351909637451171875">
        <ele>2159.800048828125</ele>
        <time>2026-06-20T10:33:26.000Z</time>
        <extensions>
          <ns3:TrackPointExtension>
            <ns3:atemp>24.0</ns3:atemp>
          </ns3:TrackPointExtension>
        </extensions>
      </trkpt>
      <trkpt lat="42.51471399329602718353271484375" lon="20.1513127796351909637451171875">
        <ele>2159.800048828125</ele>
        <time>2026-06-20T10:33:27.000Z</time>
        <extensions>
          <ns3:TrackPointExtension>
            <ns3:atemp>24.0</ns3:atemp>
          </ns3:TrackPointExtension>
        </extensions>
      </trkpt>
      <trkpt lat="42.51471399329602718353271484375" lon="20.1513127796351909637451171875">
        <ele>2159.800048828125</ele>
        <time>2026-06-20T10:33:28.000Z</time>
        <extensions>
          <ns3:TrackPointExtension>
            <ns3:atemp>24.0</ns3:atemp>
          </ns3:TrackPointExtension>
        </extensions>
      </trkpt>
      <trkpt lat="42.51471399329602718353271484375" lon="20.1513127796351909637451171875">
        <ele>2159.800048828125</ele>
        <time>2026-06-20T10:33:29.000Z</time>
        <extensions>
          <ns3:TrackPointExtension>
            <ns3:atemp>24.0</ns3:atemp>
          </ns3:TrackPointExtension>
        </extensions>
      </trkpt>
      <trkpt lat="42.51471399329602718353271484375" lon="20.1513127796351909637451171875">
        <ele>2159.800048828125</ele>
        <time>2026-06-20T10:33:30.000Z</time>
        <extensions>
          <ns3:TrackPointExtension>
            <ns3:atemp>24.0</ns3:atemp>
          </ns3:TrackPointExtension>
        </extensions>
      </trkpt>
      <trkpt lat="42.51471399329602718353271484375" lon="20.1513127796351909637451171875">
        <ele>2159.800048828125</ele>
        <time>2026-06-20T10:33:31.000Z</time>
        <extensions>
          <ns3:TrackPointExtension>
            <ns3:atemp>23.0</ns3:atemp>
          </ns3:TrackPointExtension>
        </extensions>
      </trkpt>
      <trkpt lat="42.51471399329602718353271484375" lon="20.1513127796351909637451171875">
        <ele>2159.800048828125</ele>
        <time>2026-06-20T10:33:32.000Z</time>
        <extensions>
          <ns3:TrackPointExtension>
            <ns3:atemp>24.0</ns3:atemp>
          </ns3:TrackPointExtension>
        </extensions>
      </trkpt>
      <trkpt lat="42.51471399329602718353271484375" lon="20.1513127796351909637451171875">
        <ele>2159.800048828125</ele>
        <time>2026-06-20T10:33:33.000Z</time>
        <extensions>
          <ns3:TrackPointExtension>
            <ns3:atemp>24.0</ns3:atemp>
          </ns3:TrackPointExtension>
        </extensions>
      </trkpt>
      <trkpt lat="42.51471399329602718353271484375" lon="20.1513127796351909637451171875">
        <ele>2159.800048828125</ele>
        <time>2026-06-20T10:33:34.000Z</time>
        <extensions>
          <ns3:TrackPointExtension>
            <ns3:atemp>24.0</ns3:atemp>
          </ns3:TrackPointExtension>
        </extensions>
      </trkpt>
      <trkpt lat="42.51471399329602718353271484375" lon="20.1513127796351909637451171875">
        <ele>2159.800048828125</ele>
        <time>2026-06-20T10:33:35.000Z</time>
        <extensions>
          <ns3:TrackPointExtension>
            <ns3:atemp>24.0</ns3:atemp>
          </ns3:TrackPointExtension>
        </extensions>
      </trkpt>
      <trkpt lat="42.51471399329602718353271484375" lon="20.1513127796351909637451171875">
        <ele>2159.800048828125</ele>
        <time>2026-06-20T10:33:36.000Z</time>
        <extensions>
          <ns3:TrackPointExtension>
            <ns3:atemp>24.0</ns3:atemp>
          </ns3:TrackPointExtension>
        </extensions>
      </trkpt>
      <trkpt lat="42.51471399329602718353271484375" lon="20.1513127796351909637451171875">
        <ele>2159.800048828125</ele>
        <time>2026-06-20T10:33:37.000Z</time>
        <extensions>
          <ns3:TrackPointExtension>
            <ns3:atemp>24.0</ns3:atemp>
          </ns3:TrackPointExtension>
        </extensions>
      </trkpt>
      <trkpt lat="42.51471399329602718353271484375" lon="20.1513127796351909637451171875">
        <ele>2159.800048828125</ele>
        <time>2026-06-20T10:33:38.000Z</time>
        <extensions>
          <ns3:TrackPointExtension>
            <ns3:atemp>23.0</ns3:atemp>
          </ns3:TrackPointExtension>
        </extensions>
      </trkpt>
      <trkpt lat="42.51471399329602718353271484375" lon="20.1513127796351909637451171875">
        <ele>2159.800048828125</ele>
        <time>2026-06-20T10:33:39.000Z</time>
        <extensions>
          <ns3:TrackPointExtension>
            <ns3:atemp>24.0</ns3:atemp>
          </ns3:TrackPointExtension>
        </extensions>
      </trkpt>
      <trkpt lat="42.51471399329602718353271484375" lon="20.1513127796351909637451171875">
        <ele>2159.800048828125</ele>
        <time>2026-06-20T10:33:40.000Z</time>
        <extensions>
          <ns3:TrackPointExtension>
            <ns3:atemp>24.0</ns3:atemp>
          </ns3:TrackPointExtension>
        </extensions>
      </trkpt>
      <trkpt lat="42.51471399329602718353271484375" lon="20.1513127796351909637451171875">
        <ele>2159.800048828125</ele>
        <time>2026-06-20T10:33:41.000Z</time>
        <extensions>
          <ns3:TrackPointExtension>
            <ns3:atemp>24.0</ns3:atemp>
          </ns3:TrackPointExtension>
        </extensions>
      </trkpt>
      <trkpt lat="42.51471399329602718353271484375" lon="20.1513127796351909637451171875">
        <ele>2159.800048828125</ele>
        <time>2026-06-20T10:33:42.000Z</time>
        <extensions>
          <ns3:TrackPointExtension>
            <ns3:atemp>24.0</ns3:atemp>
          </ns3:TrackPointExtension>
        </extensions>
      </trkpt>
      <trkpt lat="42.51471399329602718353271484375" lon="20.1513127796351909637451171875">
        <ele>2159.800048828125</ele>
        <time>2026-06-20T10:33:43.000Z</time>
        <extensions>
          <ns3:TrackPointExtension>
            <ns3:atemp>24.0</ns3:atemp>
          </ns3:TrackPointExtension>
        </extensions>
      </trkpt>
      <trkpt lat="42.51471399329602718353271484375" lon="20.1513127796351909637451171875">
        <ele>2159.800048828125</ele>
        <time>2026-06-20T10:33:44.000Z</time>
        <extensions>
          <ns3:TrackPointExtension>
            <ns3:atemp>23.0</ns3:atemp>
          </ns3:TrackPointExtension>
        </extensions>
      </trkpt>
      <trkpt lat="42.51471399329602718353271484375" lon="20.1513127796351909637451171875">
        <ele>2159.800048828125</ele>
        <time>2026-06-20T10:33:45.000Z</time>
        <extensions>
          <ns3:TrackPointExtension>
            <ns3:atemp>23.0</ns3:atemp>
          </ns3:TrackPointExtension>
        </extensions>
      </trkpt>
      <trkpt lat="42.51471399329602718353271484375" lon="20.1513127796351909637451171875">
        <ele>2159.800048828125</ele>
        <time>2026-06-20T10:33:46.000Z</time>
        <extensions>
          <ns3:TrackPointExtension>
            <ns3:atemp>23.0</ns3:atemp>
          </ns3:TrackPointExtension>
        </extensions>
      </trkpt>
      <trkpt lat="42.51471399329602718353271484375" lon="20.1513127796351909637451171875">
        <ele>2159.800048828125</ele>
        <time>2026-06-20T10:33:47.000Z</time>
        <extensions>
          <ns3:TrackPointExtension>
            <ns3:atemp>23.0</ns3:atemp>
          </ns3:TrackPointExtension>
        </extensions>
      </trkpt>
      <trkpt lat="42.51471399329602718353271484375" lon="20.1513127796351909637451171875">
        <ele>2159.800048828125</ele>
        <time>2026-06-20T10:33:48.000Z</time>
        <extensions>
          <ns3:TrackPointExtension>
            <ns3:atemp>23.0</ns3:atemp>
          </ns3:TrackPointExtension>
        </extensions>
      </trkpt>
      <trkpt lat="42.51471399329602718353271484375" lon="20.1513127796351909637451171875">
        <ele>2159.800048828125</ele>
        <time>2026-06-20T10:33:49.000Z</time>
        <extensions>
          <ns3:TrackPointExtension>
            <ns3:atemp>23.0</ns3:atemp>
          </ns3:TrackPointExtension>
        </extensions>
      </trkpt>
      <trkpt lat="42.51471399329602718353271484375" lon="20.1513127796351909637451171875">
        <ele>2159.800048828125</ele>
        <time>2026-06-20T10:33:50.000Z</time>
        <extensions>
          <ns3:TrackPointExtension>
            <ns3:atemp>23.0</ns3:atemp>
          </ns3:TrackPointExtension>
        </extensions>
      </trkpt>
      <trkpt lat="42.51471399329602718353271484375" lon="20.1513127796351909637451171875">
        <ele>2159.800048828125</ele>
        <time>2026-06-20T10:33:51.000Z</time>
        <extensions>
          <ns3:TrackPointExtension>
            <ns3:atemp>23.0</ns3:atemp>
          </ns3:TrackPointExtension>
        </extensions>
      </trkpt>
      <trkpt lat="42.51471399329602718353271484375" lon="20.1513127796351909637451171875">
        <ele>2159.800048828125</ele>
        <time>2026-06-20T10:33:52.000Z</time>
        <extensions>
          <ns3:TrackPointExtension>
            <ns3:atemp>23.0</ns3:atemp>
          </ns3:TrackPointExtension>
        </extensions>
      </trkpt>
      <trkpt lat="42.51471399329602718353271484375" lon="20.1513127796351909637451171875">
        <ele>2159.800048828125</ele>
        <time>2026-06-20T10:33:53.000Z</time>
        <extensions>
          <ns3:TrackPointExtension>
            <ns3:atemp>23.0</ns3:atemp>
          </ns3:TrackPointExtension>
        </extensions>
      </trkpt>
      <trkpt lat="42.51471399329602718353271484375" lon="20.1513127796351909637451171875">
        <ele>2159.800048828125</ele>
        <time>2026-06-20T10:33:54.000Z</time>
        <extensions>
          <ns3:TrackPointExtension>
            <ns3:atemp>23.0</ns3:atemp>
          </ns3:TrackPointExtension>
        </extensions>
      </trkpt>
      <trkpt lat="42.51471399329602718353271484375" lon="20.1513127796351909637451171875">
        <ele>2159.800048828125</ele>
        <time>2026-06-20T10:33:55.000Z</time>
        <extensions>
          <ns3:TrackPointExtension>
            <ns3:atemp>23.0</ns3:atemp>
          </ns3:TrackPointExtension>
        </extensions>
      </trkpt>
      <trkpt lat="42.51471399329602718353271484375" lon="20.1513127796351909637451171875">
        <ele>2159.800048828125</ele>
        <time>2026-06-20T10:33:56.000Z</time>
        <extensions>
          <ns3:TrackPointExtension>
            <ns3:atemp>23.0</ns3:atemp>
          </ns3:TrackPointExtension>
        </extensions>
      </trkpt>
      <trkpt lat="42.51471399329602718353271484375" lon="20.1513127796351909637451171875">
        <ele>2159.800048828125</ele>
        <time>2026-06-20T10:33:57.000Z</time>
        <extensions>
          <ns3:TrackPointExtension>
            <ns3:atemp>23.0</ns3:atemp>
          </ns3:TrackPointExtension>
        </extensions>
      </trkpt>
      <trkpt lat="42.51471399329602718353271484375" lon="20.1513127796351909637451171875">
        <ele>2159.800048828125</ele>
        <time>2026-06-20T10:33:58.000Z</time>
        <extensions>
          <ns3:TrackPointExtension>
            <ns3:atemp>23.0</ns3:atemp>
          </ns3:TrackPointExtension>
        </extensions>
      </trkpt>
      <trkpt lat="42.51471399329602718353271484375" lon="20.1513127796351909637451171875">
        <ele>2159.800048828125</ele>
        <time>2026-06-20T10:33:59.000Z</time>
        <extensions>
          <ns3:TrackPointExtension>
            <ns3:atemp>24.0</ns3:atemp>
          </ns3:TrackPointExtension>
        </extensions>
      </trkpt>
      <trkpt lat="42.51471399329602718353271484375" lon="20.1513127796351909637451171875">
        <ele>2159.800048828125</ele>
        <time>2026-06-20T10:34:00.000Z</time>
        <extensions>
          <ns3:TrackPointExtension>
            <ns3:atemp>24.0</ns3:atemp>
          </ns3:TrackPointExtension>
        </extensions>
      </trkpt>
      <trkpt lat="42.51471399329602718353271484375" lon="20.1513127796351909637451171875">
        <ele>2159.800048828125</ele>
        <time>2026-06-20T10:34:01.000Z</time>
        <extensions>
          <ns3:TrackPointExtension>
            <ns3:atemp>24.0</ns3:atemp>
          </ns3:TrackPointExtension>
        </extensions>
      </trkpt>
      <trkpt lat="42.51471399329602718353271484375" lon="20.1513127796351909637451171875">
        <ele>2159.800048828125</ele>
        <time>2026-06-20T10:34:02.000Z</time>
        <extensions>
          <ns3:TrackPointExtension>
            <ns3:atemp>24.0</ns3:atemp>
          </ns3:TrackPointExtension>
        </extensions>
      </trkpt>
      <trkpt lat="42.51471399329602718353271484375" lon="20.1513127796351909637451171875">
        <ele>2159.800048828125</ele>
        <time>2026-06-20T10:34:03.000Z</time>
        <extensions>
          <ns3:TrackPointExtension>
            <ns3:atemp>24.0</ns3:atemp>
          </ns3:TrackPointExtension>
        </extensions>
      </trkpt>
      <trkpt lat="42.51471399329602718353271484375" lon="20.1513127796351909637451171875">
        <ele>2159.800048828125</ele>
        <time>2026-06-20T10:34:04.000Z</time>
        <extensions>
          <ns3:TrackPointExtension>
            <ns3:atemp>24.0</ns3:atemp>
          </ns3:TrackPointExtension>
        </extensions>
      </trkpt>
      <trkpt lat="42.51471399329602718353271484375" lon="20.1513127796351909637451171875">
        <ele>2159.800048828125</ele>
        <time>2026-06-20T10:34:05.000Z</time>
        <extensions>
          <ns3:TrackPointExtension>
            <ns3:atemp>24.0</ns3:atemp>
          </ns3:TrackPointExtension>
        </extensions>
      </trkpt>
      <trkpt lat="42.51471399329602718353271484375" lon="20.1513127796351909637451171875">
        <ele>2159.800048828125</ele>
        <time>2026-06-20T10:34:06.000Z</time>
        <extensions>
          <ns3:TrackPointExtension>
            <ns3:atemp>23.0</ns3:atemp>
          </ns3:TrackPointExtension>
        </extensions>
      </trkpt>
      <trkpt lat="42.51471399329602718353271484375" lon="20.1513127796351909637451171875">
        <ele>2159.800048828125</ele>
        <time>2026-06-20T10:34:07.000Z</time>
        <extensions>
          <ns3:TrackPointExtension>
            <ns3:atemp>23.0</ns3:atemp>
          </ns3:TrackPointExtension>
        </extensions>
      </trkpt>
      <trkpt lat="42.51471399329602718353271484375" lon="20.1513127796351909637451171875">
        <ele>2159.800048828125</ele>
        <time>2026-06-20T10:34:08.000Z</time>
        <extensions>
          <ns3:TrackPointExtension>
            <ns3:atemp>24.0</ns3:atemp>
          </ns3:TrackPointExtension>
        </extensions>
      </trkpt>
      <trkpt lat="42.51471399329602718353271484375" lon="20.1513127796351909637451171875">
        <ele>2159.800048828125</ele>
        <time>2026-06-20T10:34:09.000Z</time>
        <extensions>
          <ns3:TrackPointExtension>
            <ns3:atemp>24.0</ns3:atemp>
          </ns3:TrackPointExtension>
        </extensions>
      </trkpt>
      <trkpt lat="42.51471399329602718353271484375" lon="20.1513127796351909637451171875">
        <ele>2159.800048828125</ele>
        <time>2026-06-20T10:34:10.000Z</time>
        <extensions>
          <ns3:TrackPointExtension>
            <ns3:atemp>24.0</ns3:atemp>
          </ns3:TrackPointExtension>
        </extensions>
      </trkpt>
      <trkpt lat="42.51471399329602718353271484375" lon="20.1513127796351909637451171875">
        <ele>2159.800048828125</ele>
        <time>2026-06-20T10:34:11.000Z</time>
        <extensions>
          <ns3:TrackPointExtension>
            <ns3:atemp>24.0</ns3:atemp>
          </ns3:TrackPointExtension>
        </extensions>
      </trkpt>
      <trkpt lat="42.51471399329602718353271484375" lon="20.1513127796351909637451171875">
        <ele>2159.800048828125</ele>
        <time>2026-06-20T10:34:12.000Z</time>
        <extensions>
          <ns3:TrackPointExtension>
            <ns3:atemp>24.0</ns3:atemp>
          </ns3:TrackPointExtension>
        </extensions>
      </trkpt>
      <trkpt lat="42.51471399329602718353271484375" lon="20.1513127796351909637451171875">
        <ele>2159.800048828125</ele>
        <time>2026-06-20T10:34:13.000Z</time>
        <extensions>
          <ns3:TrackPointExtension>
            <ns3:atemp>24.0</ns3:atemp>
          </ns3:TrackPointExtension>
        </extensions>
      </trkpt>
      <trkpt lat="42.51471399329602718353271484375" lon="20.1513127796351909637451171875">
        <ele>2159.800048828125</ele>
        <time>2026-06-20T10:34:14.000Z</time>
        <extensions>
          <ns3:TrackPointExtension>
            <ns3:atemp>24.0</ns3:atemp>
          </ns3:TrackPointExtension>
        </extensions>
      </trkpt>
      <trkpt lat="42.51471399329602718353271484375" lon="20.1513127796351909637451171875">
        <ele>2159.800048828125</ele>
        <time>2026-06-20T10:34:15.000Z</time>
        <extensions>
          <ns3:TrackPointExtension>
            <ns3:atemp>24.0</ns3:atemp>
          </ns3:TrackPointExtension>
        </extensions>
      </trkpt>
      <trkpt lat="42.51471399329602718353271484375" lon="20.1513127796351909637451171875">
        <ele>2159.800048828125</ele>
        <time>2026-06-20T10:34:16.000Z</time>
        <extensions>
          <ns3:TrackPointExtension>
            <ns3:atemp>24.0</ns3:atemp>
          </ns3:TrackPointExtension>
        </extensions>
      </trkpt>
      <trkpt lat="42.51471399329602718353271484375" lon="20.1513127796351909637451171875">
        <ele>2159.800048828125</ele>
        <time>2026-06-20T10:34:17.000Z</time>
        <extensions>
          <ns3:TrackPointExtension>
            <ns3:atemp>24.0</ns3:atemp>
          </ns3:TrackPointExtension>
        </extensions>
      </trkpt>
      <trkpt lat="42.51471399329602718353271484375" lon="20.1513127796351909637451171875">
        <ele>2159.800048828125</ele>
        <time>2026-06-20T10:34:18.000Z</time>
        <extensions>
          <ns3:TrackPointExtension>
            <ns3:atemp>24.0</ns3:atemp>
          </ns3:TrackPointExtension>
        </extensions>
      </trkpt>
      <trkpt lat="42.51471399329602718353271484375" lon="20.1513127796351909637451171875">
        <ele>2159.800048828125</ele>
        <time>2026-06-20T10:34:19.000Z</time>
        <extensions>
          <ns3:TrackPointExtension>
            <ns3:atemp>24.0</ns3:atemp>
          </ns3:TrackPointExtension>
        </extensions>
      </trkpt>
      <trkpt lat="42.51471399329602718353271484375" lon="20.1513127796351909637451171875">
        <ele>2159.800048828125</ele>
        <time>2026-06-20T10:34:20.000Z</time>
        <extensions>
          <ns3:TrackPointExtension>
            <ns3:atemp>24.0</ns3:atemp>
          </ns3:TrackPointExtension>
        </extensions>
      </trkpt>
      <trkpt lat="42.51471399329602718353271484375" lon="20.1513127796351909637451171875">
        <ele>2159.800048828125</ele>
        <time>2026-06-20T10:34:21.000Z</time>
        <extensions>
          <ns3:TrackPointExtension>
            <ns3:atemp>24.0</ns3:atemp>
          </ns3:TrackPointExtension>
        </extensions>
      </trkpt>
      <trkpt lat="42.51471399329602718353271484375" lon="20.1513127796351909637451171875">
        <ele>2159.800048828125</ele>
        <time>2026-06-20T10:34:22.000Z</time>
        <extensions>
          <ns3:TrackPointExtension>
            <ns3:atemp>23.0</ns3:atemp>
          </ns3:TrackPointExtension>
        </extensions>
      </trkpt>
      <trkpt lat="42.51471399329602718353271484375" lon="20.1513127796351909637451171875">
        <ele>2159.800048828125</ele>
        <time>2026-06-20T10:34:23.000Z</time>
        <extensions>
          <ns3:TrackPointExtension>
            <ns3:atemp>23.0</ns3:atemp>
          </ns3:TrackPointExtension>
        </extensions>
      </trkpt>
      <trkpt lat="42.51471399329602718353271484375" lon="20.1513127796351909637451171875">
        <ele>2159.800048828125</ele>
        <time>2026-06-20T10:34:24.000Z</time>
        <extensions>
          <ns3:TrackPointExtension>
            <ns3:atemp>23.0</ns3:atemp>
          </ns3:TrackPointExtension>
        </extensions>
      </trkpt>
      <trkpt lat="42.51471399329602718353271484375" lon="20.1513127796351909637451171875">
        <ele>2159.800048828125</ele>
        <time>2026-06-20T10:34:25.000Z</time>
        <extensions>
          <ns3:TrackPointExtension>
            <ns3:atemp>23.0</ns3:atemp>
          </ns3:TrackPointExtension>
        </extensions>
      </trkpt>
      <trkpt lat="42.51471399329602718353271484375" lon="20.1513127796351909637451171875">
        <ele>2159.800048828125</ele>
        <time>2026-06-20T10:34:26.000Z</time>
        <extensions>
          <ns3:TrackPointExtension>
            <ns3:atemp>23.0</ns3:atemp>
          </ns3:TrackPointExtension>
        </extensions>
      </trkpt>
      <trkpt lat="42.51471399329602718353271484375" lon="20.1513127796351909637451171875">
        <ele>2159.800048828125</ele>
        <time>2026-06-20T10:34:27.000Z</time>
        <extensions>
          <ns3:TrackPointExtension>
            <ns3:atemp>23.0</ns3:atemp>
          </ns3:TrackPointExtension>
        </extensions>
      </trkpt>
      <trkpt lat="42.51471399329602718353271484375" lon="20.1513127796351909637451171875">
        <ele>2159.800048828125</ele>
        <time>2026-06-20T10:34:28.000Z</time>
        <extensions>
          <ns3:TrackPointExtension>
            <ns3:atemp>23.0</ns3:atemp>
          </ns3:TrackPointExtension>
        </extensions>
      </trkpt>
      <trkpt lat="42.51471399329602718353271484375" lon="20.1513127796351909637451171875">
        <ele>2159.800048828125</ele>
        <time>2026-06-20T10:34:29.000Z</time>
        <extensions>
          <ns3:TrackPointExtension>
            <ns3:atemp>23.0</ns3:atemp>
          </ns3:TrackPointExtension>
        </extensions>
      </trkpt>
      <trkpt lat="42.51471399329602718353271484375" lon="20.1513127796351909637451171875">
        <ele>2159.800048828125</ele>
        <time>2026-06-20T10:34:30.000Z</time>
        <extensions>
          <ns3:TrackPointExtension>
            <ns3:atemp>23.0</ns3:atemp>
          </ns3:TrackPointExtension>
        </extensions>
      </trkpt>
      <trkpt lat="42.51471399329602718353271484375" lon="20.1513127796351909637451171875">
        <ele>2159.800048828125</ele>
        <time>2026-06-20T10:34:31.000Z</time>
        <extensions>
          <ns3:TrackPointExtension>
            <ns3:atemp>24.0</ns3:atemp>
          </ns3:TrackPointExtension>
        </extensions>
      </trkpt>
      <trkpt lat="42.51471399329602718353271484375" lon="20.1513127796351909637451171875">
        <ele>2159.800048828125</ele>
        <time>2026-06-20T10:34:32.000Z</time>
        <extensions>
          <ns3:TrackPointExtension>
            <ns3:atemp>24.0</ns3:atemp>
          </ns3:TrackPointExtension>
        </extensions>
      </trkpt>
      <trkpt lat="42.51471399329602718353271484375" lon="20.1513127796351909637451171875">
        <ele>2159.800048828125</ele>
        <time>2026-06-20T10:34:33.000Z</time>
        <extensions>
          <ns3:TrackPointExtension>
            <ns3:atemp>24.0</ns3:atemp>
          </ns3:TrackPointExtension>
        </extensions>
      </trkpt>
      <trkpt lat="42.51471399329602718353271484375" lon="20.1513127796351909637451171875">
        <ele>2159.800048828125</ele>
        <time>2026-06-20T10:34:34.000Z</time>
        <extensions>
          <ns3:TrackPointExtension>
            <ns3:atemp>24.0</ns3:atemp>
          </ns3:TrackPointExtension>
        </extensions>
      </trkpt>
      <trkpt lat="42.51471399329602718353271484375" lon="20.1513127796351909637451171875">
        <ele>2159.800048828125</ele>
        <time>2026-06-20T10:34:35.000Z</time>
        <extensions>
          <ns3:TrackPointExtension>
            <ns3:atemp>24.0</ns3:atemp>
          </ns3:TrackPointExtension>
        </extensions>
      </trkpt>
      <trkpt lat="42.51471399329602718353271484375" lon="20.1513127796351909637451171875">
        <ele>2159.800048828125</ele>
        <time>2026-06-20T10:34:36.000Z</time>
        <extensions>
          <ns3:TrackPointExtension>
            <ns3:atemp>24.0</ns3:atemp>
          </ns3:TrackPointExtension>
        </extensions>
      </trkpt>
      <trkpt lat="42.51471399329602718353271484375" lon="20.1513127796351909637451171875">
        <ele>2159.800048828125</ele>
        <time>2026-06-20T10:34:37.000Z</time>
        <extensions>
          <ns3:TrackPointExtension>
            <ns3:atemp>24.0</ns3:atemp>
          </ns3:TrackPointExtension>
        </extensions>
      </trkpt>
      <trkpt lat="42.51471399329602718353271484375" lon="20.1513127796351909637451171875">
        <ele>2159.800048828125</ele>
        <time>2026-06-20T10:34:38.000Z</time>
        <extensions>
          <ns3:TrackPointExtension>
            <ns3:atemp>24.0</ns3:atemp>
          </ns3:TrackPointExtension>
        </extensions>
      </trkpt>
      <trkpt lat="42.51471399329602718353271484375" lon="20.1513127796351909637451171875">
        <ele>2159.800048828125</ele>
        <time>2026-06-20T10:34:39.000Z</time>
        <extensions>
          <ns3:TrackPointExtension>
            <ns3:atemp>23.0</ns3:atemp>
          </ns3:TrackPointExtension>
        </extensions>
      </trkpt>
      <trkpt lat="42.51471399329602718353271484375" lon="20.1513127796351909637451171875">
        <ele>2159.800048828125</ele>
        <time>2026-06-20T10:34:40.000Z</time>
        <extensions>
          <ns3:TrackPointExtension>
            <ns3:atemp>23.0</ns3:atemp>
          </ns3:TrackPointExtension>
        </extensions>
      </trkpt>
      <trkpt lat="42.51471399329602718353271484375" lon="20.1513127796351909637451171875">
        <ele>2159.800048828125</ele>
        <time>2026-06-20T10:34:41.000Z</time>
        <extensions>
          <ns3:TrackPointExtension>
            <ns3:atemp>23.0</ns3:atemp>
          </ns3:TrackPointExtension>
        </extensions>
      </trkpt>
      <trkpt lat="42.51471399329602718353271484375" lon="20.1513127796351909637451171875">
        <ele>2159.800048828125</ele>
        <time>2026-06-20T10:34:42.000Z</time>
        <extensions>
          <ns3:TrackPointExtension>
            <ns3:atemp>23.0</ns3:atemp>
          </ns3:TrackPointExtension>
        </extensions>
      </trkpt>
      <trkpt lat="42.51471399329602718353271484375" lon="20.1513127796351909637451171875">
        <ele>2159.800048828125</ele>
        <time>2026-06-20T10:34:43.000Z</time>
        <extensions>
          <ns3:TrackPointExtension>
            <ns3:atemp>23.0</ns3:atemp>
          </ns3:TrackPointExtension>
        </extensions>
      </trkpt>
      <trkpt lat="42.51471399329602718353271484375" lon="20.1513127796351909637451171875">
        <ele>2159.800048828125</ele>
        <time>2026-06-20T10:34:44.000Z</time>
        <extensions>
          <ns3:TrackPointExtension>
            <ns3:atemp>23.0</ns3:atemp>
          </ns3:TrackPointExtension>
        </extensions>
      </trkpt>
      <trkpt lat="42.51471399329602718353271484375" lon="20.1513127796351909637451171875">
        <ele>2159.800048828125</ele>
        <time>2026-06-20T10:34:45.000Z</time>
        <extensions>
          <ns3:TrackPointExtension>
            <ns3:atemp>23.0</ns3:atemp>
          </ns3:TrackPointExtension>
        </extensions>
      </trkpt>
      <trkpt lat="42.51471399329602718353271484375" lon="20.1513127796351909637451171875">
        <ele>2159.800048828125</ele>
        <time>2026-06-20T10:34:46.000Z</time>
        <extensions>
          <ns3:TrackPointExtension>
            <ns3:atemp>23.0</ns3:atemp>
          </ns3:TrackPointExtension>
        </extensions>
      </trkpt>
      <trkpt lat="42.51471399329602718353271484375" lon="20.1513127796351909637451171875">
        <ele>2159.800048828125</ele>
        <time>2026-06-20T10:34:47.000Z</time>
        <extensions>
          <ns3:TrackPointExtension>
            <ns3:atemp>23.0</ns3:atemp>
          </ns3:TrackPointExtension>
        </extensions>
      </trkpt>
      <trkpt lat="42.51471399329602718353271484375" lon="20.1513127796351909637451171875">
        <ele>2159.800048828125</ele>
        <time>2026-06-20T10:34:48.000Z</time>
        <extensions>
          <ns3:TrackPointExtension>
            <ns3:atemp>23.0</ns3:atemp>
          </ns3:TrackPointExtension>
        </extensions>
      </trkpt>
      <trkpt lat="42.51471399329602718353271484375" lon="20.1513127796351909637451171875">
        <ele>2159.800048828125</ele>
        <time>2026-06-20T10:34:49.000Z</time>
        <extensions>
          <ns3:TrackPointExtension>
            <ns3:atemp>23.0</ns3:atemp>
          </ns3:TrackPointExtension>
        </extensions>
      </trkpt>
      <trkpt lat="42.51471399329602718353271484375" lon="20.1513127796351909637451171875">
        <ele>2159.800048828125</ele>
        <time>2026-06-20T10:34:50.000Z</time>
        <extensions>
          <ns3:TrackPointExtension>
            <ns3:atemp>24.0</ns3:atemp>
          </ns3:TrackPointExtension>
        </extensions>
      </trkpt>
      <trkpt lat="42.51471399329602718353271484375" lon="20.1513127796351909637451171875">
        <ele>2159.800048828125</ele>
        <time>2026-06-20T10:34:51.000Z</time>
        <extensions>
          <ns3:TrackPointExtension>
            <ns3:atemp>24.0</ns3:atemp>
          </ns3:TrackPointExtension>
        </extensions>
      </trkpt>
      <trkpt lat="42.51471399329602718353271484375" lon="20.1513127796351909637451171875">
        <ele>2159.800048828125</ele>
        <time>2026-06-20T10:34:52.000Z</time>
        <extensions>
          <ns3:TrackPointExtension>
            <ns3:atemp>24.0</ns3:atemp>
          </ns3:TrackPointExtension>
        </extensions>
      </trkpt>
      <trkpt lat="42.51471399329602718353271484375" lon="20.1513127796351909637451171875">
        <ele>2159.800048828125</ele>
        <time>2026-06-20T10:34:53.000Z</time>
        <extensions>
          <ns3:TrackPointExtension>
            <ns3:atemp>24.0</ns3:atemp>
          </ns3:TrackPointExtension>
        </extensions>
      </trkpt>
      <trkpt lat="42.51471399329602718353271484375" lon="20.1513127796351909637451171875">
        <ele>2159.800048828125</ele>
        <time>2026-06-20T10:34:54.000Z</time>
        <extensions>
          <ns3:TrackPointExtension>
            <ns3:atemp>24.0</ns3:atemp>
          </ns3:TrackPointExtension>
        </extensions>
      </trkpt>
      <trkpt lat="42.51471399329602718353271484375" lon="20.1513127796351909637451171875">
        <ele>2159.800048828125</ele>
        <time>2026-06-20T10:34:55.000Z</time>
        <extensions>
          <ns3:TrackPointExtension>
            <ns3:atemp>24.0</ns3:atemp>
          </ns3:TrackPointExtension>
        </extensions>
      </trkpt>
      <trkpt lat="42.51471399329602718353271484375" lon="20.1513127796351909637451171875">
        <ele>2159.800048828125</ele>
        <time>2026-06-20T10:34:56.000Z</time>
        <extensions>
          <ns3:TrackPointExtension>
            <ns3:atemp>24.0</ns3:atemp>
          </ns3:TrackPointExtension>
        </extensions>
      </trkpt>
      <trkpt lat="42.51471399329602718353271484375" lon="20.1513127796351909637451171875">
        <ele>2159.800048828125</ele>
        <time>2026-06-20T10:34:57.000Z</time>
        <extensions>
          <ns3:TrackPointExtension>
            <ns3:atemp>23.0</ns3:atemp>
          </ns3:TrackPointExtension>
        </extensions>
      </trkpt>
      <trkpt lat="42.51471399329602718353271484375" lon="20.1513127796351909637451171875">
        <ele>2159.800048828125</ele>
        <time>2026-06-20T10:34:58.000Z</time>
        <extensions>
          <ns3:TrackPointExtension>
            <ns3:atemp>23.0</ns3:atemp>
          </ns3:TrackPointExtension>
        </extensions>
      </trkpt>
      <trkpt lat="42.51471399329602718353271484375" lon="20.1513127796351909637451171875">
        <ele>2159.800048828125</ele>
        <time>2026-06-20T10:34:59.000Z</time>
        <extensions>
          <ns3:TrackPointExtension>
            <ns3:atemp>23.0</ns3:atemp>
          </ns3:TrackPointExtension>
        </extensions>
      </trkpt>
      <trkpt lat="42.51471399329602718353271484375" lon="20.1513127796351909637451171875">
        <ele>2159.800048828125</ele>
        <time>2026-06-20T10:35:00.000Z</time>
        <extensions>
          <ns3:TrackPointExtension>
            <ns3:atemp>23.0</ns3:atemp>
          </ns3:TrackPointExtension>
        </extensions>
      </trkpt>
      <trkpt lat="42.51471399329602718353271484375" lon="20.1513127796351909637451171875">
        <ele>2159.800048828125</ele>
        <time>2026-06-20T10:35:01.000Z</time>
        <extensions>
          <ns3:TrackPointExtension>
            <ns3:atemp>23.0</ns3:atemp>
          </ns3:TrackPointExtension>
        </extensions>
      </trkpt>
      <trkpt lat="42.51471399329602718353271484375" lon="20.1513127796351909637451171875">
        <ele>2159.800048828125</ele>
        <time>2026-06-20T10:35:02.000Z</time>
        <extensions>
          <ns3:TrackPointExtension>
            <ns3:atemp>23.0</ns3:atemp>
          </ns3:TrackPointExtension>
        </extensions>
      </trkpt>
      <trkpt lat="42.51471399329602718353271484375" lon="20.1513127796351909637451171875">
        <ele>2159.800048828125</ele>
        <time>2026-06-20T10:35:03.000Z</time>
        <extensions>
          <ns3:TrackPointExtension>
            <ns3:atemp>23.0</ns3:atemp>
          </ns3:TrackPointExtension>
        </extensions>
      </trkpt>
      <trkpt lat="42.51471399329602718353271484375" lon="20.1513127796351909637451171875">
        <ele>2159.800048828125</ele>
        <time>2026-06-20T10:35:04.000Z</time>
        <extensions>
          <ns3:TrackPointExtension>
            <ns3:atemp>23.0</ns3:atemp>
          </ns3:TrackPointExtension>
        </extensions>
      </trkpt>
      <trkpt lat="42.51471399329602718353271484375" lon="20.1513127796351909637451171875">
        <ele>2159.800048828125</ele>
        <time>2026-06-20T10:35:05.000Z</time>
        <extensions>
          <ns3:TrackPointExtension>
            <ns3:atemp>23.0</ns3:atemp>
          </ns3:TrackPointExtension>
        </extensions>
      </trkpt>
      <trkpt lat="42.51471399329602718353271484375" lon="20.1513127796351909637451171875">
        <ele>2159.800048828125</ele>
        <time>2026-06-20T10:35:06.000Z</time>
        <extensions>
          <ns3:TrackPointExtension>
            <ns3:atemp>23.0</ns3:atemp>
          </ns3:TrackPointExtension>
        </extensions>
      </trkpt>
      <trkpt lat="42.51471399329602718353271484375" lon="20.1513127796351909637451171875">
        <ele>2159.800048828125</ele>
        <time>2026-06-20T10:35:07.000Z</time>
        <extensions>
          <ns3:TrackPointExtension>
            <ns3:atemp>23.0</ns3:atemp>
          </ns3:TrackPointExtension>
        </extensions>
      </trkpt>
      <trkpt lat="42.51471399329602718353271484375" lon="20.1513127796351909637451171875">
        <ele>2159.800048828125</ele>
        <time>2026-06-20T10:35:08.000Z</time>
        <extensions>
          <ns3:TrackPointExtension>
            <ns3:atemp>23.0</ns3:atemp>
          </ns3:TrackPointExtension>
        </extensions>
      </trkpt>
      <trkpt lat="42.51471399329602718353271484375" lon="20.1513127796351909637451171875">
        <ele>2159.800048828125</ele>
        <time>2026-06-20T10:35:09.000Z</time>
        <extensions>
          <ns3:TrackPointExtension>
            <ns3:atemp>24.0</ns3:atemp>
          </ns3:TrackPointExtension>
        </extensions>
      </trkpt>
      <trkpt lat="42.51471399329602718353271484375" lon="20.1513127796351909637451171875">
        <ele>2159.800048828125</ele>
        <time>2026-06-20T10:35:10.000Z</time>
        <extensions>
          <ns3:TrackPointExtension>
            <ns3:atemp>24.0</ns3:atemp>
          </ns3:TrackPointExtension>
        </extensions>
      </trkpt>
      <trkpt lat="42.51471399329602718353271484375" lon="20.1513127796351909637451171875">
        <ele>2159.800048828125</ele>
        <time>2026-06-20T10:35:11.000Z</time>
        <extensions>
          <ns3:TrackPointExtension>
            <ns3:atemp>24.0</ns3:atemp>
          </ns3:TrackPointExtension>
        </extensions>
      </trkpt>
      <trkpt lat="42.51471399329602718353271484375" lon="20.1513127796351909637451171875">
        <ele>2159.800048828125</ele>
        <time>2026-06-20T10:35:12.000Z</time>
        <extensions>
          <ns3:TrackPointExtension>
            <ns3:atemp>23.0</ns3:atemp>
          </ns3:TrackPointExtension>
        </extensions>
      </trkpt>
      <trkpt lat="42.51471399329602718353271484375" lon="20.1513127796351909637451171875">
        <ele>2159.800048828125</ele>
        <time>2026-06-20T10:35:13.000Z</time>
        <extensions>
          <ns3:TrackPointExtension>
            <ns3:atemp>23.0</ns3:atemp>
          </ns3:TrackPointExtension>
        </extensions>
      </trkpt>
      <trkpt lat="42.51471399329602718353271484375" lon="20.1513127796351909637451171875">
        <ele>2159.800048828125</ele>
        <time>2026-06-20T10:35:14.000Z</time>
        <extensions>
          <ns3:TrackPointExtension>
            <ns3:atemp>23.0</ns3:atemp>
          </ns3:TrackPointExtension>
        </extensions>
      </trkpt>
      <trkpt lat="42.51471399329602718353271484375" lon="20.1513127796351909637451171875">
        <ele>2159.800048828125</ele>
        <time>2026-06-20T10:35:15.000Z</time>
        <extensions>
          <ns3:TrackPointExtension>
            <ns3:atemp>23.0</ns3:atemp>
          </ns3:TrackPointExtension>
        </extensions>
      </trkpt>
      <trkpt lat="42.51471399329602718353271484375" lon="20.1513127796351909637451171875">
        <ele>2159.800048828125</ele>
        <time>2026-06-20T10:35:16.000Z</time>
        <extensions>
          <ns3:TrackPointExtension>
            <ns3:atemp>23.0</ns3:atemp>
          </ns3:TrackPointExtension>
        </extensions>
      </trkpt>
      <trkpt lat="42.51471399329602718353271484375" lon="20.1513127796351909637451171875">
        <ele>2159.800048828125</ele>
        <time>2026-06-20T10:35:17.000Z</time>
        <extensions>
          <ns3:TrackPointExtension>
            <ns3:atemp>23.0</ns3:atemp>
          </ns3:TrackPointExtension>
        </extensions>
      </trkpt>
      <trkpt lat="42.51471399329602718353271484375" lon="20.1513127796351909637451171875">
        <ele>2159.800048828125</ele>
        <time>2026-06-20T10:35:18.000Z</time>
        <extensions>
          <ns3:TrackPointExtension>
            <ns3:atemp>23.0</ns3:atemp>
          </ns3:TrackPointExtension>
        </extensions>
      </trkpt>
      <trkpt lat="42.51471399329602718353271484375" lon="20.1513127796351909637451171875">
        <ele>2159.800048828125</ele>
        <time>2026-06-20T10:35:19.000Z</time>
        <extensions>
          <ns3:TrackPointExtension>
            <ns3:atemp>23.0</ns3:atemp>
          </ns3:TrackPointExtension>
        </extensions>
      </trkpt>
      <trkpt lat="42.51471399329602718353271484375" lon="20.1513127796351909637451171875">
        <ele>2159.800048828125</ele>
        <time>2026-06-20T10:35:20.000Z</time>
        <extensions>
          <ns3:TrackPointExtension>
            <ns3:atemp>23.0</ns3:atemp>
          </ns3:TrackPointExtension>
        </extensions>
      </trkpt>
      <trkpt lat="42.51471399329602718353271484375" lon="20.1513127796351909637451171875">
        <ele>2159.800048828125</ele>
        <time>2026-06-20T10:35:21.000Z</time>
        <extensions>
          <ns3:TrackPointExtension>
            <ns3:atemp>24.0</ns3:atemp>
          </ns3:TrackPointExtension>
        </extensions>
      </trkpt>
      <trkpt lat="42.51471399329602718353271484375" lon="20.1513127796351909637451171875">
        <ele>2159.800048828125</ele>
        <time>2026-06-20T10:35:22.000Z</time>
        <extensions>
          <ns3:TrackPointExtension>
            <ns3:atemp>24.0</ns3:atemp>
          </ns3:TrackPointExtension>
        </extensions>
      </trkpt>
      <trkpt lat="42.51471399329602718353271484375" lon="20.1513127796351909637451171875">
        <ele>2159.800048828125</ele>
        <time>2026-06-20T10:35:23.000Z</time>
        <extensions>
          <ns3:TrackPointExtension>
            <ns3:atemp>23.0</ns3:atemp>
          </ns3:TrackPointExtension>
        </extensions>
      </trkpt>
      <trkpt lat="42.51471399329602718353271484375" lon="20.1513127796351909637451171875">
        <ele>2159.800048828125</ele>
        <time>2026-06-20T10:35:24.000Z</time>
        <extensions>
          <ns3:TrackPointExtension>
            <ns3:atemp>23.0</ns3:atemp>
          </ns3:TrackPointExtension>
        </extensions>
      </trkpt>
      <trkpt lat="42.51471399329602718353271484375" lon="20.1513127796351909637451171875">
        <ele>2159.800048828125</ele>
        <time>2026-06-20T10:35:25.000Z</time>
        <extensions>
          <ns3:TrackPointExtension>
            <ns3:atemp>24.0</ns3:atemp>
          </ns3:TrackPointExtension>
        </extensions>
      </trkpt>
      <trkpt lat="42.51471399329602718353271484375" lon="20.1513127796351909637451171875">
        <ele>2159.800048828125</ele>
        <time>2026-06-20T10:35:26.000Z</time>
        <extensions>
          <ns3:TrackPointExtension>
            <ns3:atemp>24.0</ns3:atemp>
          </ns3:TrackPointExtension>
        </extensions>
      </trkpt>
      <trkpt lat="42.51471399329602718353271484375" lon="20.1513127796351909637451171875">
        <ele>2159.800048828125</ele>
        <time>2026-06-20T10:35:27.000Z</time>
        <extensions>
          <ns3:TrackPointExtension>
            <ns3:atemp>23.0</ns3:atemp>
          </ns3:TrackPointExtension>
        </extensions>
      </trkpt>
      <trkpt lat="42.51471399329602718353271484375" lon="20.1513127796351909637451171875">
        <ele>2159.800048828125</ele>
        <time>2026-06-20T10:35:28.000Z</time>
        <extensions>
          <ns3:TrackPointExtension>
            <ns3:atemp>23.0</ns3:atemp>
          </ns3:TrackPointExtension>
        </extensions>
      </trkpt>
      <trkpt lat="42.51471399329602718353271484375" lon="20.1513127796351909637451171875">
        <ele>2159.800048828125</ele>
        <time>2026-06-20T10:35:29.000Z</time>
        <extensions>
          <ns3:TrackPointExtension>
            <ns3:atemp>24.0</ns3:atemp>
          </ns3:TrackPointExtension>
        </extensions>
      </trkpt>
      <trkpt lat="42.51471399329602718353271484375" lon="20.1513127796351909637451171875">
        <ele>2159.800048828125</ele>
        <time>2026-06-20T10:35:30.000Z</time>
        <extensions>
          <ns3:TrackPointExtension>
            <ns3:atemp>24.0</ns3:atemp>
          </ns3:TrackPointExtension>
        </extensions>
      </trkpt>
      <trkpt lat="42.51471399329602718353271484375" lon="20.1513127796351909637451171875">
        <ele>2159.800048828125</ele>
        <time>2026-06-20T10:35:31.000Z</time>
        <extensions>
          <ns3:TrackPointExtension>
            <ns3:atemp>24.0</ns3:atemp>
          </ns3:TrackPointExtension>
        </extensions>
      </trkpt>
      <trkpt lat="42.51471399329602718353271484375" lon="20.1513127796351909637451171875">
        <ele>2159.800048828125</ele>
        <time>2026-06-20T10:35:32.000Z</time>
        <extensions>
          <ns3:TrackPointExtension>
            <ns3:atemp>24.0</ns3:atemp>
          </ns3:TrackPointExtension>
        </extensions>
      </trkpt>
      <trkpt lat="42.51471399329602718353271484375" lon="20.1513127796351909637451171875">
        <ele>2159.800048828125</ele>
        <time>2026-06-20T10:35:33.000Z</time>
        <extensions>
          <ns3:TrackPointExtension>
            <ns3:atemp>24.0</ns3:atemp>
          </ns3:TrackPointExtension>
        </extensions>
      </trkpt>
      <trkpt lat="42.51471399329602718353271484375" lon="20.1513127796351909637451171875">
        <ele>2159.800048828125</ele>
        <time>2026-06-20T10:35:34.000Z</time>
        <extensions>
          <ns3:TrackPointExtension>
            <ns3:atemp>23.0</ns3:atemp>
          </ns3:TrackPointExtension>
        </extensions>
      </trkpt>
      <trkpt lat="42.51471399329602718353271484375" lon="20.1513127796351909637451171875">
        <ele>2159.800048828125</ele>
        <time>2026-06-20T10:35:35.000Z</time>
        <extensions>
          <ns3:TrackPointExtension>
            <ns3:atemp>23.0</ns3:atemp>
          </ns3:TrackPointExtension>
        </extensions>
      </trkpt>
      <trkpt lat="42.51471399329602718353271484375" lon="20.1513127796351909637451171875">
        <ele>2159.800048828125</ele>
        <time>2026-06-20T10:35:36.000Z</time>
        <extensions>
          <ns3:TrackPointExtension>
            <ns3:atemp>23.0</ns3:atemp>
          </ns3:TrackPointExtension>
        </extensions>
      </trkpt>
      <trkpt lat="42.51471399329602718353271484375" lon="20.1513127796351909637451171875">
        <ele>2159.800048828125</ele>
        <time>2026-06-20T10:35:37.000Z</time>
        <extensions>
          <ns3:TrackPointExtension>
            <ns3:atemp>23.0</ns3:atemp>
          </ns3:TrackPointExtension>
        </extensions>
      </trkpt>
      <trkpt lat="42.51471399329602718353271484375" lon="20.1513127796351909637451171875">
        <ele>2159.800048828125</ele>
        <time>2026-06-20T10:35:38.000Z</time>
        <extensions>
          <ns3:TrackPointExtension>
            <ns3:atemp>23.0</ns3:atemp>
          </ns3:TrackPointExtension>
        </extensions>
      </trkpt>
      <trkpt lat="42.51471399329602718353271484375" lon="20.1513127796351909637451171875">
        <ele>2159.800048828125</ele>
        <time>2026-06-20T10:35:39.000Z</time>
        <extensions>
          <ns3:TrackPointExtension>
            <ns3:atemp>23.0</ns3:atemp>
          </ns3:TrackPointExtension>
        </extensions>
      </trkpt>
      <trkpt lat="42.51471399329602718353271484375" lon="20.1513127796351909637451171875">
        <ele>2159.800048828125</ele>
        <time>2026-06-20T10:35:40.000Z</time>
        <extensions>
          <ns3:TrackPointExtension>
            <ns3:atemp>23.0</ns3:atemp>
          </ns3:TrackPointExtension>
        </extensions>
      </trkpt>
      <trkpt lat="42.51471399329602718353271484375" lon="20.1513127796351909637451171875">
        <ele>2159.800048828125</ele>
        <time>2026-06-20T10:35:41.000Z</time>
        <extensions>
          <ns3:TrackPointExtension>
            <ns3:atemp>23.0</ns3:atemp>
          </ns3:TrackPointExtension>
        </extensions>
      </trkpt>
      <trkpt lat="42.51471399329602718353271484375" lon="20.1513127796351909637451171875">
        <ele>2159.800048828125</ele>
        <time>2026-06-20T10:35:42.000Z</time>
        <extensions>
          <ns3:TrackPointExtension>
            <ns3:atemp>23.0</ns3:atemp>
          </ns3:TrackPointExtension>
        </extensions>
      </trkpt>
      <trkpt lat="42.51471399329602718353271484375" lon="20.1513127796351909637451171875">
        <ele>2159.800048828125</ele>
        <time>2026-06-20T10:35:43.000Z</time>
        <extensions>
          <ns3:TrackPointExtension>
            <ns3:atemp>24.0</ns3:atemp>
          </ns3:TrackPointExtension>
        </extensions>
      </trkpt>
      <trkpt lat="42.51471399329602718353271484375" lon="20.1513127796351909637451171875">
        <ele>2159.800048828125</ele>
        <time>2026-06-20T10:35:44.000Z</time>
        <extensions>
          <ns3:TrackPointExtension>
            <ns3:atemp>23.0</ns3:atemp>
          </ns3:TrackPointExtension>
        </extensions>
      </trkpt>
      <trkpt lat="42.51471399329602718353271484375" lon="20.1513127796351909637451171875">
        <ele>2159.800048828125</ele>
        <time>2026-06-20T10:35:45.000Z</time>
        <extensions>
          <ns3:TrackPointExtension>
            <ns3:atemp>23.0</ns3:atemp>
          </ns3:TrackPointExtension>
        </extensions>
      </trkpt>
      <trkpt lat="42.51471399329602718353271484375" lon="20.1513127796351909637451171875">
        <ele>2159.800048828125</ele>
        <time>2026-06-20T10:35:46.000Z</time>
        <extensions>
          <ns3:TrackPointExtension>
            <ns3:atemp>23.0</ns3:atemp>
          </ns3:TrackPointExtension>
        </extensions>
      </trkpt>
      <trkpt lat="42.51471399329602718353271484375" lon="20.1513127796351909637451171875">
        <ele>2159.800048828125</ele>
        <time>2026-06-20T10:35:47.000Z</time>
        <extensions>
          <ns3:TrackPointExtension>
            <ns3:atemp>23.0</ns3:atemp>
          </ns3:TrackPointExtension>
        </extensions>
      </trkpt>
      <trkpt lat="42.51471399329602718353271484375" lon="20.1513127796351909637451171875">
        <ele>2159.800048828125</ele>
        <time>2026-06-20T10:35:48.000Z</time>
        <extensions>
          <ns3:TrackPointExtension>
            <ns3:atemp>23.0</ns3:atemp>
          </ns3:TrackPointExtension>
        </extensions>
      </trkpt>
      <trkpt lat="42.51471399329602718353271484375" lon="20.1513127796351909637451171875">
        <ele>2159.800048828125</ele>
        <time>2026-06-20T10:35:49.000Z</time>
        <extensions>
          <ns3:TrackPointExtension>
            <ns3:atemp>23.0</ns3:atemp>
          </ns3:TrackPointExtension>
        </extensions>
      </trkpt>
      <trkpt lat="42.51471399329602718353271484375" lon="20.1513127796351909637451171875">
        <ele>2159.800048828125</ele>
        <time>2026-06-20T10:35:50.000Z</time>
        <extensions>
          <ns3:TrackPointExtension>
            <ns3:atemp>23.0</ns3:atemp>
          </ns3:TrackPointExtension>
        </extensions>
      </trkpt>
      <trkpt lat="42.51471399329602718353271484375" lon="20.1513127796351909637451171875">
        <ele>2159.800048828125</ele>
        <time>2026-06-20T10:35:51.000Z</time>
        <extensions>
          <ns3:TrackPointExtension>
            <ns3:atemp>24.0</ns3:atemp>
          </ns3:TrackPointExtension>
        </extensions>
      </trkpt>
      <trkpt lat="42.51471399329602718353271484375" lon="20.1513127796351909637451171875">
        <ele>2159.800048828125</ele>
        <time>2026-06-20T10:35:52.000Z</time>
        <extensions>
          <ns3:TrackPointExtension>
            <ns3:atemp>24.0</ns3:atemp>
          </ns3:TrackPointExtension>
        </extensions>
      </trkpt>
      <trkpt lat="42.51471399329602718353271484375" lon="20.1513127796351909637451171875">
        <ele>2159.800048828125</ele>
        <time>2026-06-20T10:35:53.000Z</time>
        <extensions>
          <ns3:TrackPointExtension>
            <ns3:atemp>23.0</ns3:atemp>
          </ns3:TrackPointExtension>
        </extensions>
      </trkpt>
      <trkpt lat="42.51471399329602718353271484375" lon="20.1513127796351909637451171875">
        <ele>2159.800048828125</ele>
        <time>2026-06-20T10:35:54.000Z</time>
        <extensions>
          <ns3:TrackPointExtension>
            <ns3:atemp>24.0</ns3:atemp>
          </ns3:TrackPointExtension>
        </extensions>
      </trkpt>
      <trkpt lat="42.51471399329602718353271484375" lon="20.1513127796351909637451171875">
        <ele>2159.800048828125</ele>
        <time>2026-06-20T10:35:55.000Z</time>
        <extensions>
          <ns3:TrackPointExtension>
            <ns3:atemp>24.0</ns3:atemp>
          </ns3:TrackPointExtension>
        </extensions>
      </trkpt>
      <trkpt lat="42.51471399329602718353271484375" lon="20.1513127796351909637451171875">
        <ele>2159.800048828125</ele>
        <time>2026-06-20T10:35:56.000Z</time>
        <extensions>
          <ns3:TrackPointExtension>
            <ns3:atemp>24.0</ns3:atemp>
          </ns3:TrackPointExtension>
        </extensions>
      </trkpt>
      <trkpt lat="42.51471399329602718353271484375" lon="20.1513127796351909637451171875">
        <ele>2159.800048828125</ele>
        <time>2026-06-20T10:35:57.000Z</time>
        <extensions>
          <ns3:TrackPointExtension>
            <ns3:atemp>23.0</ns3:atemp>
          </ns3:TrackPointExtension>
        </extensions>
      </trkpt>
      <trkpt lat="42.51471399329602718353271484375" lon="20.1513127796351909637451171875">
        <ele>2159.800048828125</ele>
        <time>2026-06-20T10:35:58.000Z</time>
        <extensions>
          <ns3:TrackPointExtension>
            <ns3:atemp>23.0</ns3:atemp>
          </ns3:TrackPointExtension>
        </extensions>
      </trkpt>
      <trkpt lat="42.51471399329602718353271484375" lon="20.1513127796351909637451171875">
        <ele>2159.800048828125</ele>
        <time>2026-06-20T10:35:59.000Z</time>
        <extensions>
          <ns3:TrackPointExtension>
            <ns3:atemp>24.0</ns3:atemp>
          </ns3:TrackPointExtension>
        </extensions>
      </trkpt>
      <trkpt lat="42.51471399329602718353271484375" lon="20.1513127796351909637451171875">
        <ele>2159.800048828125</ele>
        <time>2026-06-20T10:36:00.000Z</time>
        <extensions>
          <ns3:TrackPointExtension>
            <ns3:atemp>24.0</ns3:atemp>
          </ns3:TrackPointExtension>
        </extensions>
      </trkpt>
      <trkpt lat="42.51471399329602718353271484375" lon="20.1513127796351909637451171875">
        <ele>2159.800048828125</ele>
        <time>2026-06-20T10:36:01.000Z</time>
        <extensions>
          <ns3:TrackPointExtension>
            <ns3:atemp>23.0</ns3:atemp>
          </ns3:TrackPointExtension>
        </extensions>
      </trkpt>
      <trkpt lat="42.51471399329602718353271484375" lon="20.1513127796351909637451171875">
        <ele>2159.800048828125</ele>
        <time>2026-06-20T10:36:02.000Z</time>
        <extensions>
          <ns3:TrackPointExtension>
            <ns3:atemp>23.0</ns3:atemp>
          </ns3:TrackPointExtension>
        </extensions>
      </trkpt>
      <trkpt lat="42.51471399329602718353271484375" lon="20.1513127796351909637451171875">
        <ele>2159.800048828125</ele>
        <time>2026-06-20T10:36:03.000Z</time>
        <extensions>
          <ns3:TrackPointExtension>
            <ns3:atemp>23.0</ns3:atemp>
          </ns3:TrackPointExtension>
        </extensions>
      </trkpt>
      <trkpt lat="42.51471399329602718353271484375" lon="20.1513127796351909637451171875">
        <ele>2159.800048828125</ele>
        <time>2026-06-20T10:36:04.000Z</time>
        <extensions>
          <ns3:TrackPointExtension>
            <ns3:atemp>23.0</ns3:atemp>
          </ns3:TrackPointExtension>
        </extensions>
      </trkpt>
      <trkpt lat="42.51471399329602718353271484375" lon="20.1513127796351909637451171875">
        <ele>2159.800048828125</ele>
        <time>2026-06-20T10:36:05.000Z</time>
        <extensions>
          <ns3:TrackPointExtension>
            <ns3:atemp>23.0</ns3:atemp>
          </ns3:TrackPointExtension>
        </extensions>
      </trkpt>
      <trkpt lat="42.51471399329602718353271484375" lon="20.1513127796351909637451171875">
        <ele>2159.800048828125</ele>
        <time>2026-06-20T10:36:06.000Z</time>
        <extensions>
          <ns3:TrackPointExtension>
            <ns3:atemp>23.0</ns3:atemp>
          </ns3:TrackPointExtension>
        </extensions>
      </trkpt>
      <trkpt lat="42.51471399329602718353271484375" lon="20.1513127796351909637451171875">
        <ele>2159.800048828125</ele>
        <time>2026-06-20T10:36:07.000Z</time>
        <extensions>
          <ns3:TrackPointExtension>
            <ns3:atemp>23.0</ns3:atemp>
          </ns3:TrackPointExtension>
        </extensions>
      </trkpt>
      <trkpt lat="42.51471399329602718353271484375" lon="20.1513127796351909637451171875">
        <ele>2159.800048828125</ele>
        <time>2026-06-20T10:36:08.000Z</time>
        <extensions>
          <ns3:TrackPointExtension>
            <ns3:atemp>23.0</ns3:atemp>
          </ns3:TrackPointExtension>
        </extensions>
      </trkpt>
      <trkpt lat="42.51471399329602718353271484375" lon="20.1513127796351909637451171875">
        <ele>2159.800048828125</ele>
        <time>2026-06-20T10:36:09.000Z</time>
        <extensions>
          <ns3:TrackPointExtension>
            <ns3:atemp>23.0</ns3:atemp>
          </ns3:TrackPointExtension>
        </extensions>
      </trkpt>
      <trkpt lat="42.51471399329602718353271484375" lon="20.1513127796351909637451171875">
        <ele>2159.800048828125</ele>
        <time>2026-06-20T10:36:10.000Z</time>
        <extensions>
          <ns3:TrackPointExtension>
            <ns3:atemp>23.0</ns3:atemp>
          </ns3:TrackPointExtension>
        </extensions>
      </trkpt>
      <trkpt lat="42.51471399329602718353271484375" lon="20.1513127796351909637451171875">
        <ele>2159.800048828125</ele>
        <time>2026-06-20T10:36:11.000Z</time>
        <extensions>
          <ns3:TrackPointExtension>
            <ns3:atemp>23.0</ns3:atemp>
          </ns3:TrackPointExtension>
        </extensions>
      </trkpt>
      <trkpt lat="42.51471399329602718353271484375" lon="20.1513127796351909637451171875">
        <ele>2159.800048828125</ele>
        <time>2026-06-20T10:36:12.000Z</time>
        <extensions>
          <ns3:TrackPointExtension>
            <ns3:atemp>23.0</ns3:atemp>
          </ns3:TrackPointExtension>
        </extensions>
      </trkpt>
      <trkpt lat="42.51471399329602718353271484375" lon="20.1513127796351909637451171875">
        <ele>2159.800048828125</ele>
        <time>2026-06-20T10:36:13.000Z</time>
        <extensions>
          <ns3:TrackPointExtension>
            <ns3:atemp>23.0</ns3:atemp>
          </ns3:TrackPointExtension>
        </extensions>
      </trkpt>
      <trkpt lat="42.51471399329602718353271484375" lon="20.1513127796351909637451171875">
        <ele>2159.800048828125</ele>
        <time>2026-06-20T10:36:14.000Z</time>
        <extensions>
          <ns3:TrackPointExtension>
            <ns3:atemp>23.0</ns3:atemp>
          </ns3:TrackPointExtension>
        </extensions>
      </trkpt>
      <trkpt lat="42.51471399329602718353271484375" lon="20.1513127796351909637451171875">
        <ele>2159.800048828125</ele>
        <time>2026-06-20T10:36:15.000Z</time>
        <extensions>
          <ns3:TrackPointExtension>
            <ns3:atemp>23.0</ns3:atemp>
          </ns3:TrackPointExtension>
        </extensions>
      </trkpt>
      <trkpt lat="42.51471399329602718353271484375" lon="20.1513127796351909637451171875">
        <ele>2159.800048828125</ele>
        <time>2026-06-20T10:36:16.000Z</time>
        <extensions>
          <ns3:TrackPointExtension>
            <ns3:atemp>23.0</ns3:atemp>
          </ns3:TrackPointExtension>
        </extensions>
      </trkpt>
      <trkpt lat="42.51471399329602718353271484375" lon="20.1513127796351909637451171875">
        <ele>2159.800048828125</ele>
        <time>2026-06-20T10:36:17.000Z</time>
        <extensions>
          <ns3:TrackPointExtension>
            <ns3:atemp>23.0</ns3:atemp>
          </ns3:TrackPointExtension>
        </extensions>
      </trkpt>
      <trkpt lat="42.51471399329602718353271484375" lon="20.1513127796351909637451171875">
        <ele>2159.800048828125</ele>
        <time>2026-06-20T10:36:18.000Z</time>
        <extensions>
          <ns3:TrackPointExtension>
            <ns3:atemp>23.0</ns3:atemp>
          </ns3:TrackPointExtension>
        </extensions>
      </trkpt>
      <trkpt lat="42.51471399329602718353271484375" lon="20.1513127796351909637451171875">
        <ele>2159.800048828125</ele>
        <time>2026-06-20T10:36:19.000Z</time>
        <extensions>
          <ns3:TrackPointExtension>
            <ns3:atemp>23.0</ns3:atemp>
          </ns3:TrackPointExtension>
        </extensions>
      </trkpt>
      <trkpt lat="42.51471399329602718353271484375" lon="20.1513127796351909637451171875">
        <ele>2159.800048828125</ele>
        <time>2026-06-20T10:36:20.000Z</time>
        <extensions>
          <ns3:TrackPointExtension>
            <ns3:atemp>23.0</ns3:atemp>
          </ns3:TrackPointExtension>
        </extensions>
      </trkpt>
      <trkpt lat="42.51471399329602718353271484375" lon="20.1513127796351909637451171875">
        <ele>2159.800048828125</ele>
        <time>2026-06-20T10:36:21.000Z</time>
        <extensions>
          <ns3:TrackPointExtension>
            <ns3:atemp>23.0</ns3:atemp>
          </ns3:TrackPointExtension>
        </extensions>
      </trkpt>
      <trkpt lat="42.51471399329602718353271484375" lon="20.1513127796351909637451171875">
        <ele>2159.800048828125</ele>
        <time>2026-06-20T10:36:22.000Z</time>
        <extensions>
          <ns3:TrackPointExtension>
            <ns3:atemp>23.0</ns3:atemp>
          </ns3:TrackPointExtension>
        </extensions>
      </trkpt>
      <trkpt lat="42.51471399329602718353271484375" lon="20.1513127796351909637451171875">
        <ele>2159.800048828125</ele>
        <time>2026-06-20T10:36:23.000Z</time>
        <extensions>
          <ns3:TrackPointExtension>
            <ns3:atemp>23.0</ns3:atemp>
          </ns3:TrackPointExtension>
        </extensions>
      </trkpt>
      <trkpt lat="42.51471399329602718353271484375" lon="20.1513127796351909637451171875">
        <ele>2159.800048828125</ele>
        <time>2026-06-20T10:36:24.000Z</time>
        <extensions>
          <ns3:TrackPointExtension>
            <ns3:atemp>23.0</ns3:atemp>
          </ns3:TrackPointExtension>
        </extensions>
      </trkpt>
      <trkpt lat="42.51471399329602718353271484375" lon="20.1513127796351909637451171875">
        <ele>2159.800048828125</ele>
        <time>2026-06-20T10:36:25.000Z</time>
        <extensions>
          <ns3:TrackPointExtension>
            <ns3:atemp>23.0</ns3:atemp>
          </ns3:TrackPointExtension>
        </extensions>
      </trkpt>
      <trkpt lat="42.51471399329602718353271484375" lon="20.1513127796351909637451171875">
        <ele>2159.800048828125</ele>
        <time>2026-06-20T10:36:26.000Z</time>
        <extensions>
          <ns3:TrackPointExtension>
            <ns3:atemp>23.0</ns3:atemp>
          </ns3:TrackPointExtension>
        </extensions>
      </trkpt>
      <trkpt lat="42.51471399329602718353271484375" lon="20.1513127796351909637451171875">
        <ele>2159.800048828125</ele>
        <time>2026-06-20T10:36:27.000Z</time>
        <extensions>
          <ns3:TrackPointExtension>
            <ns3:atemp>23.0</ns3:atemp>
          </ns3:TrackPointExtension>
        </extensions>
      </trkpt>
      <trkpt lat="42.51471399329602718353271484375" lon="20.1513127796351909637451171875">
        <ele>2159.800048828125</ele>
        <time>2026-06-20T10:36:28.000Z</time>
        <extensions>
          <ns3:TrackPointExtension>
            <ns3:atemp>23.0</ns3:atemp>
          </ns3:TrackPointExtension>
        </extensions>
      </trkpt>
      <trkpt lat="42.51471399329602718353271484375" lon="20.1513127796351909637451171875">
        <ele>2159.800048828125</ele>
        <time>2026-06-20T10:36:29.000Z</time>
        <extensions>
          <ns3:TrackPointExtension>
            <ns3:atemp>23.0</ns3:atemp>
          </ns3:TrackPointExtension>
        </extensions>
      </trkpt>
      <trkpt lat="42.51471399329602718353271484375" lon="20.1513127796351909637451171875">
        <ele>2159.800048828125</ele>
        <time>2026-06-20T10:36:30.000Z</time>
        <extensions>
          <ns3:TrackPointExtension>
            <ns3:atemp>23.0</ns3:atemp>
          </ns3:TrackPointExtension>
        </extensions>
      </trkpt>
      <trkpt lat="42.51471399329602718353271484375" lon="20.1513127796351909637451171875">
        <ele>2159.800048828125</ele>
        <time>2026-06-20T10:36:31.000Z</time>
        <extensions>
          <ns3:TrackPointExtension>
            <ns3:atemp>23.0</ns3:atemp>
          </ns3:TrackPointExtension>
        </extensions>
      </trkpt>
      <trkpt lat="42.51471399329602718353271484375" lon="20.1513127796351909637451171875">
        <ele>2159.800048828125</ele>
        <time>2026-06-20T10:36:32.000Z</time>
        <extensions>
          <ns3:TrackPointExtension>
            <ns3:atemp>23.0</ns3:atemp>
          </ns3:TrackPointExtension>
        </extensions>
      </trkpt>
      <trkpt lat="42.51471399329602718353271484375" lon="20.1513127796351909637451171875">
        <ele>2159.800048828125</ele>
        <time>2026-06-20T10:36:33.000Z</time>
        <extensions>
          <ns3:TrackPointExtension>
            <ns3:atemp>23.0</ns3:atemp>
          </ns3:TrackPointExtension>
        </extensions>
      </trkpt>
      <trkpt lat="42.51471399329602718353271484375" lon="20.1513127796351909637451171875">
        <ele>2159.800048828125</ele>
        <time>2026-06-20T10:36:34.000Z</time>
        <extensions>
          <ns3:TrackPointExtension>
            <ns3:atemp>23.0</ns3:atemp>
          </ns3:TrackPointExtension>
        </extensions>
      </trkpt>
      <trkpt lat="42.51471399329602718353271484375" lon="20.1513127796351909637451171875">
        <ele>2159.800048828125</ele>
        <time>2026-06-20T10:36:35.000Z</time>
        <extensions>
          <ns3:TrackPointExtension>
            <ns3:atemp>23.0</ns3:atemp>
          </ns3:TrackPointExtension>
        </extensions>
      </trkpt>
      <trkpt lat="42.51471399329602718353271484375" lon="20.1513127796351909637451171875">
        <ele>2159.800048828125</ele>
        <time>2026-06-20T10:36:36.000Z</time>
        <extensions>
          <ns3:TrackPointExtension>
            <ns3:atemp>23.0</ns3:atemp>
          </ns3:TrackPointExtension>
        </extensions>
      </trkpt>
      <trkpt lat="42.51471399329602718353271484375" lon="20.1513127796351909637451171875">
        <ele>2159.800048828125</ele>
        <time>2026-06-20T10:36:37.000Z</time>
        <extensions>
          <ns3:TrackPointExtension>
            <ns3:atemp>23.0</ns3:atemp>
          </ns3:TrackPointExtension>
        </extensions>
      </trkpt>
      <trkpt lat="42.51471399329602718353271484375" lon="20.1513127796351909637451171875">
        <ele>2159.800048828125</ele>
        <time>2026-06-20T10:36:38.000Z</time>
        <extensions>
          <ns3:TrackPointExtension>
            <ns3:atemp>23.0</ns3:atemp>
          </ns3:TrackPointExtension>
        </extensions>
      </trkpt>
      <trkpt lat="42.51471399329602718353271484375" lon="20.1513127796351909637451171875">
        <ele>2159.800048828125</ele>
        <time>2026-06-20T10:36:39.000Z</time>
        <extensions>
          <ns3:TrackPointExtension>
            <ns3:atemp>23.0</ns3:atemp>
          </ns3:TrackPointExtension>
        </extensions>
      </trkpt>
      <trkpt lat="42.51471399329602718353271484375" lon="20.1513127796351909637451171875">
        <ele>2159.800048828125</ele>
        <time>2026-06-20T10:36:40.000Z</time>
        <extensions>
          <ns3:TrackPointExtension>
            <ns3:atemp>23.0</ns3:atemp>
          </ns3:TrackPointExtension>
        </extensions>
      </trkpt>
      <trkpt lat="42.51471399329602718353271484375" lon="20.1513127796351909637451171875">
        <ele>2159.800048828125</ele>
        <time>2026-06-20T10:36:41.000Z</time>
        <extensions>
          <ns3:TrackPointExtension>
            <ns3:atemp>23.0</ns3:atemp>
          </ns3:TrackPointExtension>
        </extensions>
      </trkpt>
      <trkpt lat="42.51471399329602718353271484375" lon="20.1513127796351909637451171875">
        <ele>2159.800048828125</ele>
        <time>2026-06-20T10:36:42.000Z</time>
        <extensions>
          <ns3:TrackPointExtension>
            <ns3:atemp>23.0</ns3:atemp>
          </ns3:TrackPointExtension>
        </extensions>
      </trkpt>
      <trkpt lat="42.51471399329602718353271484375" lon="20.1513127796351909637451171875">
        <ele>2159.800048828125</ele>
        <time>2026-06-20T10:36:43.000Z</time>
        <extensions>
          <ns3:TrackPointExtension>
            <ns3:atemp>23.0</ns3:atemp>
          </ns3:TrackPointExtension>
        </extensions>
      </trkpt>
      <trkpt lat="42.51471399329602718353271484375" lon="20.1513127796351909637451171875">
        <ele>2159.800048828125</ele>
        <time>2026-06-20T10:36:44.000Z</time>
        <extensions>
          <ns3:TrackPointExtension>
            <ns3:atemp>23.0</ns3:atemp>
          </ns3:TrackPointExtension>
        </extensions>
      </trkpt>
      <trkpt lat="42.51471399329602718353271484375" lon="20.1513127796351909637451171875">
        <ele>2159.800048828125</ele>
        <time>2026-06-20T10:36:45.000Z</time>
        <extensions>
          <ns3:TrackPointExtension>
            <ns3:atemp>24.0</ns3:atemp>
          </ns3:TrackPointExtension>
        </extensions>
      </trkpt>
      <trkpt lat="42.51471399329602718353271484375" lon="20.1513127796351909637451171875">
        <ele>2159.800048828125</ele>
        <time>2026-06-20T10:36:46.000Z</time>
        <extensions>
          <ns3:TrackPointExtension>
            <ns3:atemp>24.0</ns3:atemp>
          </ns3:TrackPointExtension>
        </extensions>
      </trkpt>
      <trkpt lat="42.51471399329602718353271484375" lon="20.1513127796351909637451171875">
        <ele>2159.800048828125</ele>
        <time>2026-06-20T10:36:47.000Z</time>
        <extensions>
          <ns3:TrackPointExtension>
            <ns3:atemp>23.0</ns3:atemp>
          </ns3:TrackPointExtension>
        </extensions>
      </trkpt>
      <trkpt lat="42.51471399329602718353271484375" lon="20.1513127796351909637451171875">
        <ele>2159.800048828125</ele>
        <time>2026-06-20T10:36:48.000Z</time>
        <extensions>
          <ns3:TrackPointExtension>
            <ns3:atemp>23.0</ns3:atemp>
          </ns3:TrackPointExtension>
        </extensions>
      </trkpt>
      <trkpt lat="42.51471399329602718353271484375" lon="20.1513127796351909637451171875">
        <ele>2159.800048828125</ele>
        <time>2026-06-20T10:36:49.000Z</time>
        <extensions>
          <ns3:TrackPointExtension>
            <ns3:atemp>23.0</ns3:atemp>
          </ns3:TrackPointExtension>
        </extensions>
      </trkpt>
      <trkpt lat="42.51471399329602718353271484375" lon="20.1513127796351909637451171875">
        <ele>2159.800048828125</ele>
        <time>2026-06-20T10:36:50.000Z</time>
        <extensions>
          <ns3:TrackPointExtension>
            <ns3:atemp>23.0</ns3:atemp>
          </ns3:TrackPointExtension>
        </extensions>
      </trkpt>
      <trkpt lat="42.51471399329602718353271484375" lon="20.1513127796351909637451171875">
        <ele>2159.800048828125</ele>
        <time>2026-06-20T10:36:51.000Z</time>
        <extensions>
          <ns3:TrackPointExtension>
            <ns3:atemp>24.0</ns3:atemp>
          </ns3:TrackPointExtension>
        </extensions>
      </trkpt>
      <trkpt lat="42.51471399329602718353271484375" lon="20.1513127796351909637451171875">
        <ele>2159.800048828125</ele>
        <time>2026-06-20T10:36:52.000Z</time>
        <extensions>
          <ns3:TrackPointExtension>
            <ns3:atemp>23.0</ns3:atemp>
          </ns3:TrackPointExtension>
        </extensions>
      </trkpt>
      <trkpt lat="42.51471399329602718353271484375" lon="20.1513127796351909637451171875">
        <ele>2159.800048828125</ele>
        <time>2026-06-20T10:36:53.000Z</time>
        <extensions>
          <ns3:TrackPointExtension>
            <ns3:atemp>23.0</ns3:atemp>
          </ns3:TrackPointExtension>
        </extensions>
      </trkpt>
      <trkpt lat="42.51471399329602718353271484375" lon="20.1513127796351909637451171875">
        <ele>2159.800048828125</ele>
        <time>2026-06-20T10:36:54.000Z</time>
        <extensions>
          <ns3:TrackPointExtension>
            <ns3:atemp>23.0</ns3:atemp>
          </ns3:TrackPointExtension>
        </extensions>
      </trkpt>
      <trkpt lat="42.51471399329602718353271484375" lon="20.1513127796351909637451171875">
        <ele>2159.800048828125</ele>
        <time>2026-06-20T10:36:55.000Z</time>
        <extensions>
          <ns3:TrackPointExtension>
            <ns3:atemp>23.0</ns3:atemp>
          </ns3:TrackPointExtension>
        </extensions>
      </trkpt>
      <trkpt lat="42.51471399329602718353271484375" lon="20.1513127796351909637451171875">
        <ele>2159.800048828125</ele>
        <time>2026-06-20T10:36:56.000Z</time>
        <extensions>
          <ns3:TrackPointExtension>
            <ns3:atemp>23.0</ns3:atemp>
          </ns3:TrackPointExtension>
        </extensions>
      </trkpt>
      <trkpt lat="42.51471399329602718353271484375" lon="20.1513127796351909637451171875">
        <ele>2159.800048828125</ele>
        <time>2026-06-20T10:36:57.000Z</time>
        <extensions>
          <ns3:TrackPointExtension>
            <ns3:atemp>23.0</ns3:atemp>
          </ns3:TrackPointExtension>
        </extensions>
      </trkpt>
      <trkpt lat="42.51471399329602718353271484375" lon="20.1513127796351909637451171875">
        <ele>2159.800048828125</ele>
        <time>2026-06-20T10:36:58.000Z</time>
        <extensions>
          <ns3:TrackPointExtension>
            <ns3:atemp>23.0</ns3:atemp>
          </ns3:TrackPointExtension>
        </extensions>
      </trkpt>
      <trkpt lat="42.51471399329602718353271484375" lon="20.1513127796351909637451171875">
        <ele>2159.800048828125</ele>
        <time>2026-06-20T10:36:59.000Z</time>
        <extensions>
          <ns3:TrackPointExtension>
            <ns3:atemp>23.0</ns3:atemp>
          </ns3:TrackPointExtension>
        </extensions>
      </trkpt>
      <trkpt lat="42.51471399329602718353271484375" lon="20.1513127796351909637451171875">
        <ele>2159.800048828125</ele>
        <time>2026-06-20T10:37:00.000Z</time>
        <extensions>
          <ns3:TrackPointExtension>
            <ns3:atemp>23.0</ns3:atemp>
          </ns3:TrackPointExtension>
        </extensions>
      </trkpt>
      <trkpt lat="42.51471399329602718353271484375" lon="20.1513127796351909637451171875">
        <ele>2159.800048828125</ele>
        <time>2026-06-20T10:37:01.000Z</time>
        <extensions>
          <ns3:TrackPointExtension>
            <ns3:atemp>24.0</ns3:atemp>
          </ns3:TrackPointExtension>
        </extensions>
      </trkpt>
      <trkpt lat="42.51471399329602718353271484375" lon="20.1513127796351909637451171875">
        <ele>2159.800048828125</ele>
        <time>2026-06-20T10:37:02.000Z</time>
        <extensions>
          <ns3:TrackPointExtension>
            <ns3:atemp>24.0</ns3:atemp>
          </ns3:TrackPointExtension>
        </extensions>
      </trkpt>
      <trkpt lat="42.51471399329602718353271484375" lon="20.1513127796351909637451171875">
        <ele>2159.800048828125</ele>
        <time>2026-06-20T10:37:03.000Z</time>
        <extensions>
          <ns3:TrackPointExtension>
            <ns3:atemp>24.0</ns3:atemp>
          </ns3:TrackPointExtension>
        </extensions>
      </trkpt>
      <trkpt lat="42.51471399329602718353271484375" lon="20.1513127796351909637451171875">
        <ele>2159.800048828125</ele>
        <time>2026-06-20T10:37:04.000Z</time>
        <extensions>
          <ns3:TrackPointExtension>
            <ns3:atemp>24.0</ns3:atemp>
          </ns3:TrackPointExtension>
        </extensions>
      </trkpt>
      <trkpt lat="42.51471399329602718353271484375" lon="20.1513127796351909637451171875">
        <ele>2159.800048828125</ele>
        <time>2026-06-20T10:37:05.000Z</time>
        <extensions>
          <ns3:TrackPointExtension>
            <ns3:atemp>24.0</ns3:atemp>
          </ns3:TrackPointExtension>
        </extensions>
      </trkpt>
      <trkpt lat="42.51471399329602718353271484375" lon="20.1513127796351909637451171875">
        <ele>2159.800048828125</ele>
        <time>2026-06-20T10:37:06.000Z</time>
        <extensions>
          <ns3:TrackPointExtension>
            <ns3:atemp>24.0</ns3:atemp>
          </ns3:TrackPointExtension>
        </extensions>
      </trkpt>
      <trkpt lat="42.51471399329602718353271484375" lon="20.1513127796351909637451171875">
        <ele>2159.800048828125</ele>
        <time>2026-06-20T10:37:07.000Z</time>
        <extensions>
          <ns3:TrackPointExtension>
            <ns3:atemp>24.0</ns3:atemp>
          </ns3:TrackPointExtension>
        </extensions>
      </trkpt>
      <trkpt lat="42.51471399329602718353271484375" lon="20.1513127796351909637451171875">
        <ele>2159.800048828125</ele>
        <time>2026-06-20T10:37:08.000Z</time>
        <extensions>
          <ns3:TrackPointExtension>
            <ns3:atemp>24.0</ns3:atemp>
          </ns3:TrackPointExtension>
        </extensions>
      </trkpt>
      <trkpt lat="42.51471399329602718353271484375" lon="20.1513127796351909637451171875">
        <ele>2159.800048828125</ele>
        <time>2026-06-20T10:37:09.000Z</time>
        <extensions>
          <ns3:TrackPointExtension>
            <ns3:atemp>23.0</ns3:atemp>
          </ns3:TrackPointExtension>
        </extensions>
      </trkpt>
      <trkpt lat="42.51471399329602718353271484375" lon="20.1513127796351909637451171875">
        <ele>2159.800048828125</ele>
        <time>2026-06-20T10:37:10.000Z</time>
        <extensions>
          <ns3:TrackPointExtension>
            <ns3:atemp>23.0</ns3:atemp>
          </ns3:TrackPointExtension>
        </extensions>
      </trkpt>
      <trkpt lat="42.51471399329602718353271484375" lon="20.1513127796351909637451171875">
        <ele>2159.800048828125</ele>
        <time>2026-06-20T10:37:11.000Z</time>
        <extensions>
          <ns3:TrackPointExtension>
            <ns3:atemp>23.0</ns3:atemp>
          </ns3:TrackPointExtension>
        </extensions>
      </trkpt>
      <trkpt lat="42.51471399329602718353271484375" lon="20.1513127796351909637451171875">
        <ele>2159.800048828125</ele>
        <time>2026-06-20T10:37:12.000Z</time>
        <extensions>
          <ns3:TrackPointExtension>
            <ns3:atemp>23.0</ns3:atemp>
          </ns3:TrackPointExtension>
        </extensions>
      </trkpt>
      <trkpt lat="42.51471399329602718353271484375" lon="20.1513127796351909637451171875">
        <ele>2159.800048828125</ele>
        <time>2026-06-20T10:37:13.000Z</time>
        <extensions>
          <ns3:TrackPointExtension>
            <ns3:atemp>23.0</ns3:atemp>
          </ns3:TrackPointExtension>
        </extensions>
      </trkpt>
      <trkpt lat="42.51471399329602718353271484375" lon="20.1513127796351909637451171875">
        <ele>2159.800048828125</ele>
        <time>2026-06-20T10:37:14.000Z</time>
        <extensions>
          <ns3:TrackPointExtension>
            <ns3:atemp>23.0</ns3:atemp>
          </ns3:TrackPointExtension>
        </extensions>
      </trkpt>
      <trkpt lat="42.51471399329602718353271484375" lon="20.1513127796351909637451171875">
        <ele>2159.800048828125</ele>
        <time>2026-06-20T10:37:15.000Z</time>
        <extensions>
          <ns3:TrackPointExtension>
            <ns3:atemp>23.0</ns3:atemp>
          </ns3:TrackPointExtension>
        </extensions>
      </trkpt>
      <trkpt lat="42.51471399329602718353271484375" lon="20.1513127796351909637451171875">
        <ele>2159.800048828125</ele>
        <time>2026-06-20T10:37:16.000Z</time>
        <extensions>
          <ns3:TrackPointExtension>
            <ns3:atemp>23.0</ns3:atemp>
          </ns3:TrackPointExtension>
        </extensions>
      </trkpt>
      <trkpt lat="42.51471399329602718353271484375" lon="20.1513127796351909637451171875">
        <ele>2159.800048828125</ele>
        <time>2026-06-20T10:37:17.000Z</time>
        <extensions>
          <ns3:TrackPointExtension>
            <ns3:atemp>23.0</ns3:atemp>
          </ns3:TrackPointExtension>
        </extensions>
      </trkpt>
      <trkpt lat="42.51471399329602718353271484375" lon="20.1513127796351909637451171875">
        <ele>2159.800048828125</ele>
        <time>2026-06-20T10:37:18.000Z</time>
        <extensions>
          <ns3:TrackPointExtension>
            <ns3:atemp>23.0</ns3:atemp>
          </ns3:TrackPointExtension>
        </extensions>
      </trkpt>
      <trkpt lat="42.51471399329602718353271484375" lon="20.1513127796351909637451171875">
        <ele>2159.800048828125</ele>
        <time>2026-06-20T10:37:19.000Z</time>
        <extensions>
          <ns3:TrackPointExtension>
            <ns3:atemp>24.0</ns3:atemp>
          </ns3:TrackPointExtension>
        </extensions>
      </trkpt>
      <trkpt lat="42.51471399329602718353271484375" lon="20.1513127796351909637451171875">
        <ele>2159.800048828125</ele>
        <time>2026-06-20T10:37:20.000Z</time>
        <extensions>
          <ns3:TrackPointExtension>
            <ns3:atemp>23.0</ns3:atemp>
          </ns3:TrackPointExtension>
        </extensions>
      </trkpt>
      <trkpt lat="42.51471399329602718353271484375" lon="20.1513127796351909637451171875">
        <ele>2159.800048828125</ele>
        <time>2026-06-20T10:37:21.000Z</time>
        <extensions>
          <ns3:TrackPointExtension>
            <ns3:atemp>24.0</ns3:atemp>
          </ns3:TrackPointExtension>
        </extensions>
      </trkpt>
      <trkpt lat="42.51471399329602718353271484375" lon="20.1513127796351909637451171875">
        <ele>2159.800048828125</ele>
        <time>2026-06-20T10:37:22.000Z</time>
        <extensions>
          <ns3:TrackPointExtension>
            <ns3:atemp>24.0</ns3:atemp>
          </ns3:TrackPointExtension>
        </extensions>
      </trkpt>
      <trkpt lat="42.51471399329602718353271484375" lon="20.1513127796351909637451171875">
        <ele>2159.800048828125</ele>
        <time>2026-06-20T10:37:23.000Z</time>
        <extensions>
          <ns3:TrackPointExtension>
            <ns3:atemp>23.0</ns3:atemp>
          </ns3:TrackPointExtension>
        </extensions>
      </trkpt>
      <trkpt lat="42.51471399329602718353271484375" lon="20.1513127796351909637451171875">
        <ele>2159.800048828125</ele>
        <time>2026-06-20T10:37:24.000Z</time>
        <extensions>
          <ns3:TrackPointExtension>
            <ns3:atemp>23.0</ns3:atemp>
          </ns3:TrackPointExtension>
        </extensions>
      </trkpt>
      <trkpt lat="42.51471399329602718353271484375" lon="20.1513127796351909637451171875">
        <ele>2159.800048828125</ele>
        <time>2026-06-20T10:37:25.000Z</time>
        <extensions>
          <ns3:TrackPointExtension>
            <ns3:atemp>23.0</ns3:atemp>
          </ns3:TrackPointExtension>
        </extensions>
      </trkpt>
      <trkpt lat="42.51471399329602718353271484375" lon="20.1513127796351909637451171875">
        <ele>2159.800048828125</ele>
        <time>2026-06-20T10:37:26.000Z</time>
        <extensions>
          <ns3:TrackPointExtension>
            <ns3:atemp>23.0</ns3:atemp>
          </ns3:TrackPointExtension>
        </extensions>
      </trkpt>
      <trkpt lat="42.51471399329602718353271484375" lon="20.1513127796351909637451171875">
        <ele>2159.800048828125</ele>
        <time>2026-06-20T10:37:27.000Z</time>
        <extensions>
          <ns3:TrackPointExtension>
            <ns3:atemp>24.0</ns3:atemp>
          </ns3:TrackPointExtension>
        </extensions>
      </trkpt>
      <trkpt lat="42.51471399329602718353271484375" lon="20.1513127796351909637451171875">
        <ele>2159.800048828125</ele>
        <time>2026-06-20T10:37:28.000Z</time>
        <extensions>
          <ns3:TrackPointExtension>
            <ns3:atemp>23.0</ns3:atemp>
          </ns3:TrackPointExtension>
        </extensions>
      </trkpt>
      <trkpt lat="42.51471399329602718353271484375" lon="20.1513127796351909637451171875">
        <ele>2159.800048828125</ele>
        <time>2026-06-20T10:37:29.000Z</time>
        <extensions>
          <ns3:TrackPointExtension>
            <ns3:atemp>23.0</ns3:atemp>
          </ns3:TrackPointExtension>
        </extensions>
      </trkpt>
      <trkpt lat="42.51471399329602718353271484375" lon="20.1513127796351909637451171875">
        <ele>2159.800048828125</ele>
        <time>2026-06-20T10:37:30.000Z</time>
        <extensions>
          <ns3:TrackPointExtension>
            <ns3:atemp>23.0</ns3:atemp>
          </ns3:TrackPointExtension>
        </extensions>
      </trkpt>
      <trkpt lat="42.51471399329602718353271484375" lon="20.1513127796351909637451171875">
        <ele>2159.800048828125</ele>
        <time>2026-06-20T10:37:31.000Z</time>
        <extensions>
          <ns3:TrackPointExtension>
            <ns3:atemp>23.0</ns3:atemp>
          </ns3:TrackPointExtension>
        </extensions>
      </trkpt>
      <trkpt lat="42.51471399329602718353271484375" lon="20.1513127796351909637451171875">
        <ele>2159.800048828125</ele>
        <time>2026-06-20T10:37:32.000Z</time>
        <extensions>
          <ns3:TrackPointExtension>
            <ns3:atemp>23.0</ns3:atemp>
          </ns3:TrackPointExtension>
        </extensions>
      </trkpt>
      <trkpt lat="42.51471399329602718353271484375" lon="20.1513127796351909637451171875">
        <ele>2159.800048828125</ele>
        <time>2026-06-20T10:37:33.000Z</time>
        <extensions>
          <ns3:TrackPointExtension>
            <ns3:atemp>23.0</ns3:atemp>
          </ns3:TrackPointExtension>
        </extensions>
      </trkpt>
      <trkpt lat="42.51471399329602718353271484375" lon="20.1513127796351909637451171875">
        <ele>2159.800048828125</ele>
        <time>2026-06-20T10:37:34.000Z</time>
        <extensions>
          <ns3:TrackPointExtension>
            <ns3:atemp>23.0</ns3:atemp>
          </ns3:TrackPointExtension>
        </extensions>
      </trkpt>
      <trkpt lat="42.51471399329602718353271484375" lon="20.1513127796351909637451171875">
        <ele>2159.800048828125</ele>
        <time>2026-06-20T10:37:35.000Z</time>
        <extensions>
          <ns3:TrackPointExtension>
            <ns3:atemp>23.0</ns3:atemp>
          </ns3:TrackPointExtension>
        </extensions>
      </trkpt>
      <trkpt lat="42.51471399329602718353271484375" lon="20.1513127796351909637451171875">
        <ele>2159.800048828125</ele>
        <time>2026-06-20T10:37:36.000Z</time>
        <extensions>
          <ns3:TrackPointExtension>
            <ns3:atemp>23.0</ns3:atemp>
          </ns3:TrackPointExtension>
        </extensions>
      </trkpt>
      <trkpt lat="42.51471399329602718353271484375" lon="20.1513127796351909637451171875">
        <ele>2159.800048828125</ele>
        <time>2026-06-20T10:37:37.000Z</time>
        <extensions>
          <ns3:TrackPointExtension>
            <ns3:atemp>23.0</ns3:atemp>
          </ns3:TrackPointExtension>
        </extensions>
      </trkpt>
      <trkpt lat="42.51471399329602718353271484375" lon="20.1513127796351909637451171875">
        <ele>2159.800048828125</ele>
        <time>2026-06-20T10:37:38.000Z</time>
        <extensions>
          <ns3:TrackPointExtension>
            <ns3:atemp>23.0</ns3:atemp>
          </ns3:TrackPointExtension>
        </extensions>
      </trkpt>
      <trkpt lat="42.51471399329602718353271484375" lon="20.1513127796351909637451171875">
        <ele>2159.800048828125</ele>
        <time>2026-06-20T10:37:39.000Z</time>
        <extensions>
          <ns3:TrackPointExtension>
            <ns3:atemp>23.0</ns3:atemp>
          </ns3:TrackPointExtension>
        </extensions>
      </trkpt>
      <trkpt lat="42.51471399329602718353271484375" lon="20.1513127796351909637451171875">
        <ele>2159.800048828125</ele>
        <time>2026-06-20T10:37:40.000Z</time>
        <extensions>
          <ns3:TrackPointExtension>
            <ns3:atemp>23.0</ns3:atemp>
          </ns3:TrackPointExtension>
        </extensions>
      </trkpt>
      <trkpt lat="42.51471399329602718353271484375" lon="20.1513127796351909637451171875">
        <ele>2159.800048828125</ele>
        <time>2026-06-20T10:37:41.000Z</time>
        <extensions>
          <ns3:TrackPointExtension>
            <ns3:atemp>23.0</ns3:atemp>
          </ns3:TrackPointExtension>
        </extensions>
      </trkpt>
      <trkpt lat="42.51471399329602718353271484375" lon="20.1513127796351909637451171875">
        <ele>2159.800048828125</ele>
        <time>2026-06-20T10:37:42.000Z</time>
        <extensions>
          <ns3:TrackPointExtension>
            <ns3:atemp>23.0</ns3:atemp>
          </ns3:TrackPointExtension>
        </extensions>
      </trkpt>
      <trkpt lat="42.51471399329602718353271484375" lon="20.1513127796351909637451171875">
        <ele>2159.800048828125</ele>
        <time>2026-06-20T10:37:43.000Z</time>
        <extensions>
          <ns3:TrackPointExtension>
            <ns3:atemp>23.0</ns3:atemp>
          </ns3:TrackPointExtension>
        </extensions>
      </trkpt>
      <trkpt lat="42.51471399329602718353271484375" lon="20.1513127796351909637451171875">
        <ele>2159.800048828125</ele>
        <time>2026-06-20T10:37:44.000Z</time>
        <extensions>
          <ns3:TrackPointExtension>
            <ns3:atemp>23.0</ns3:atemp>
          </ns3:TrackPointExtension>
        </extensions>
      </trkpt>
      <trkpt lat="42.51471399329602718353271484375" lon="20.1513127796351909637451171875">
        <ele>2159.800048828125</ele>
        <time>2026-06-20T10:37:45.000Z</time>
        <extensions>
          <ns3:TrackPointExtension>
            <ns3:atemp>23.0</ns3:atemp>
          </ns3:TrackPointExtension>
        </extensions>
      </trkpt>
      <trkpt lat="42.51471399329602718353271484375" lon="20.1513127796351909637451171875">
        <ele>2159.800048828125</ele>
        <time>2026-06-20T10:37:46.000Z</time>
        <extensions>
          <ns3:TrackPointExtension>
            <ns3:atemp>23.0</ns3:atemp>
          </ns3:TrackPointExtension>
        </extensions>
      </trkpt>
      <trkpt lat="42.51471399329602718353271484375" lon="20.1513127796351909637451171875">
        <ele>2159.800048828125</ele>
        <time>2026-06-20T10:37:47.000Z</time>
        <extensions>
          <ns3:TrackPointExtension>
            <ns3:atemp>23.0</ns3:atemp>
          </ns3:TrackPointExtension>
        </extensions>
      </trkpt>
      <trkpt lat="42.51471399329602718353271484375" lon="20.1513127796351909637451171875">
        <ele>2159.800048828125</ele>
        <time>2026-06-20T10:37:48.000Z</time>
        <extensions>
          <ns3:TrackPointExtension>
            <ns3:atemp>23.0</ns3:atemp>
          </ns3:TrackPointExtension>
        </extensions>
      </trkpt>
      <trkpt lat="42.51471399329602718353271484375" lon="20.1513127796351909637451171875">
        <ele>2159.800048828125</ele>
        <time>2026-06-20T10:37:49.000Z</time>
        <extensions>
          <ns3:TrackPointExtension>
            <ns3:atemp>23.0</ns3:atemp>
          </ns3:TrackPointExtension>
        </extensions>
      </trkpt>
      <trkpt lat="42.51471399329602718353271484375" lon="20.1513127796351909637451171875">
        <ele>2159.800048828125</ele>
        <time>2026-06-20T10:37:50.000Z</time>
        <extensions>
          <ns3:TrackPointExtension>
            <ns3:atemp>23.0</ns3:atemp>
          </ns3:TrackPointExtension>
        </extensions>
      </trkpt>
      <trkpt lat="42.51471399329602718353271484375" lon="20.1513127796351909637451171875">
        <ele>2159.800048828125</ele>
        <time>2026-06-20T10:37:51.000Z</time>
        <extensions>
          <ns3:TrackPointExtension>
            <ns3:atemp>23.0</ns3:atemp>
          </ns3:TrackPointExtension>
        </extensions>
      </trkpt>
      <trkpt lat="42.51471399329602718353271484375" lon="20.1513127796351909637451171875">
        <ele>2159.800048828125</ele>
        <time>2026-06-20T10:37:52.000Z</time>
        <extensions>
          <ns3:TrackPointExtension>
            <ns3:atemp>23.0</ns3:atemp>
          </ns3:TrackPointExtension>
        </extensions>
      </trkpt>
      <trkpt lat="42.51471399329602718353271484375" lon="20.1513127796351909637451171875">
        <ele>2159.800048828125</ele>
        <time>2026-06-20T10:37:53.000Z</time>
        <extensions>
          <ns3:TrackPointExtension>
            <ns3:atemp>23.0</ns3:atemp>
          </ns3:TrackPointExtension>
        </extensions>
      </trkpt>
      <trkpt lat="42.51471399329602718353271484375" lon="20.1513127796351909637451171875">
        <ele>2159.800048828125</ele>
        <time>2026-06-20T10:37:54.000Z</time>
        <extensions>
          <ns3:TrackPointExtension>
            <ns3:atemp>23.0</ns3:atemp>
          </ns3:TrackPointExtension>
        </extensions>
      </trkpt>
      <trkpt lat="42.51471399329602718353271484375" lon="20.1513127796351909637451171875">
        <ele>2159.800048828125</ele>
        <time>2026-06-20T10:37:55.000Z</time>
        <extensions>
          <ns3:TrackPointExtension>
            <ns3:atemp>23.0</ns3:atemp>
          </ns3:TrackPointExtension>
        </extensions>
      </trkpt>
      <trkpt lat="42.51471399329602718353271484375" lon="20.1513127796351909637451171875">
        <ele>2159.800048828125</ele>
        <time>2026-06-20T10:37:56.000Z</time>
        <extensions>
          <ns3:TrackPointExtension>
            <ns3:atemp>23.0</ns3:atemp>
          </ns3:TrackPointExtension>
        </extensions>
      </trkpt>
      <trkpt lat="42.51471399329602718353271484375" lon="20.1513127796351909637451171875">
        <ele>2159.800048828125</ele>
        <time>2026-06-20T10:37:57.000Z</time>
        <extensions>
          <ns3:TrackPointExtension>
            <ns3:atemp>23.0</ns3:atemp>
          </ns3:TrackPointExtension>
        </extensions>
      </trkpt>
      <trkpt lat="42.51471399329602718353271484375" lon="20.1513127796351909637451171875">
        <ele>2159.800048828125</ele>
        <time>2026-06-20T10:37:58.000Z</time>
        <extensions>
          <ns3:TrackPointExtension>
            <ns3:atemp>23.0</ns3:atemp>
          </ns3:TrackPointExtension>
        </extensions>
      </trkpt>
      <trkpt lat="42.51471399329602718353271484375" lon="20.1513127796351909637451171875">
        <ele>2159.800048828125</ele>
        <time>2026-06-20T10:37:59.000Z</time>
        <extensions>
          <ns3:TrackPointExtension>
            <ns3:atemp>23.0</ns3:atemp>
          </ns3:TrackPointExtension>
        </extensions>
      </trkpt>
      <trkpt lat="42.51471399329602718353271484375" lon="20.1513127796351909637451171875">
        <ele>2159.800048828125</ele>
        <time>2026-06-20T10:38:00.000Z</time>
        <extensions>
          <ns3:TrackPointExtension>
            <ns3:atemp>23.0</ns3:atemp>
          </ns3:TrackPointExtension>
        </extensions>
      </trkpt>
      <trkpt lat="42.51471399329602718353271484375" lon="20.1513127796351909637451171875">
        <ele>2159.800048828125</ele>
        <time>2026-06-20T10:38:01.000Z</time>
        <extensions>
          <ns3:TrackPointExtension>
            <ns3:atemp>23.0</ns3:atemp>
          </ns3:TrackPointExtension>
        </extensions>
      </trkpt>
      <trkpt lat="42.51471399329602718353271484375" lon="20.1513127796351909637451171875">
        <ele>2159.800048828125</ele>
        <time>2026-06-20T10:38:02.000Z</time>
        <extensions>
          <ns3:TrackPointExtension>
            <ns3:atemp>23.0</ns3:atemp>
          </ns3:TrackPointExtension>
        </extensions>
      </trkpt>
      <trkpt lat="42.51471399329602718353271484375" lon="20.1513127796351909637451171875">
        <ele>2159.800048828125</ele>
        <time>2026-06-20T10:38:03.000Z</time>
        <extensions>
          <ns3:TrackPointExtension>
            <ns3:atemp>23.0</ns3:atemp>
          </ns3:TrackPointExtension>
        </extensions>
      </trkpt>
      <trkpt lat="42.51471399329602718353271484375" lon="20.1513127796351909637451171875">
        <ele>2159.800048828125</ele>
        <time>2026-06-20T10:38:04.000Z</time>
        <extensions>
          <ns3:TrackPointExtension>
            <ns3:atemp>23.0</ns3:atemp>
          </ns3:TrackPointExtension>
        </extensions>
      </trkpt>
      <trkpt lat="42.51471399329602718353271484375" lon="20.1513127796351909637451171875">
        <ele>2159.800048828125</ele>
        <time>2026-06-20T10:38:05.000Z</time>
        <extensions>
          <ns3:TrackPointExtension>
            <ns3:atemp>23.0</ns3:atemp>
          </ns3:TrackPointExtension>
        </extensions>
      </trkpt>
      <trkpt lat="42.51471399329602718353271484375" lon="20.1513127796351909637451171875">
        <ele>2159.800048828125</ele>
        <time>2026-06-20T10:38:06.000Z</time>
        <extensions>
          <ns3:TrackPointExtension>
            <ns3:atemp>23.0</ns3:atemp>
          </ns3:TrackPointExtension>
        </extensions>
      </trkpt>
      <trkpt lat="42.51471399329602718353271484375" lon="20.1513127796351909637451171875">
        <ele>2159.800048828125</ele>
        <time>2026-06-20T10:38:07.000Z</time>
        <extensions>
          <ns3:TrackPointExtension>
            <ns3:atemp>23.0</ns3:atemp>
          </ns3:TrackPointExtension>
        </extensions>
      </trkpt>
      <trkpt lat="42.51471399329602718353271484375" lon="20.1513127796351909637451171875">
        <ele>2159.800048828125</ele>
        <time>2026-06-20T10:38:08.000Z</time>
        <extensions>
          <ns3:TrackPointExtension>
            <ns3:atemp>23.0</ns3:atemp>
          </ns3:TrackPointExtension>
        </extensions>
      </trkpt>
      <trkpt lat="42.51471399329602718353271484375" lon="20.1513127796351909637451171875">
        <ele>2159.800048828125</ele>
        <time>2026-06-20T10:38:09.000Z</time>
        <extensions>
          <ns3:TrackPointExtension>
            <ns3:atemp>23.0</ns3:atemp>
          </ns3:TrackPointExtension>
        </extensions>
      </trkpt>
      <trkpt lat="42.51471399329602718353271484375" lon="20.1513127796351909637451171875">
        <ele>2159.800048828125</ele>
        <time>2026-06-20T10:38:10.000Z</time>
        <extensions>
          <ns3:TrackPointExtension>
            <ns3:atemp>23.0</ns3:atemp>
          </ns3:TrackPointExtension>
        </extensions>
      </trkpt>
      <trkpt lat="42.51471399329602718353271484375" lon="20.1513127796351909637451171875">
        <ele>2159.800048828125</ele>
        <time>2026-06-20T10:38:11.000Z</time>
        <extensions>
          <ns3:TrackPointExtension>
            <ns3:atemp>23.0</ns3:atemp>
          </ns3:TrackPointExtension>
        </extensions>
      </trkpt>
      <trkpt lat="42.51471399329602718353271484375" lon="20.1513127796351909637451171875">
        <ele>2159.800048828125</ele>
        <time>2026-06-20T10:38:12.000Z</time>
        <extensions>
          <ns3:TrackPointExtension>
            <ns3:atemp>23.0</ns3:atemp>
          </ns3:TrackPointExtension>
        </extensions>
      </trkpt>
      <trkpt lat="42.51471399329602718353271484375" lon="20.1513127796351909637451171875">
        <ele>2159.800048828125</ele>
        <time>2026-06-20T10:38:13.000Z</time>
        <extensions>
          <ns3:TrackPointExtension>
            <ns3:atemp>23.0</ns3:atemp>
          </ns3:TrackPointExtension>
        </extensions>
      </trkpt>
      <trkpt lat="42.51471399329602718353271484375" lon="20.1513127796351909637451171875">
        <ele>2159.800048828125</ele>
        <time>2026-06-20T10:38:14.000Z</time>
        <extensions>
          <ns3:TrackPointExtension>
            <ns3:atemp>23.0</ns3:atemp>
          </ns3:TrackPointExtension>
        </extensions>
      </trkpt>
      <trkpt lat="42.51471399329602718353271484375" lon="20.1513127796351909637451171875">
        <ele>2159.800048828125</ele>
        <time>2026-06-20T10:38:15.000Z</time>
        <extensions>
          <ns3:TrackPointExtension>
            <ns3:atemp>23.0</ns3:atemp>
          </ns3:TrackPointExtension>
        </extensions>
      </trkpt>
      <trkpt lat="42.51471399329602718353271484375" lon="20.1513127796351909637451171875">
        <ele>2159.800048828125</ele>
        <time>2026-06-20T10:38:16.000Z</time>
        <extensions>
          <ns3:TrackPointExtension>
            <ns3:atemp>23.0</ns3:atemp>
          </ns3:TrackPointExtension>
        </extensions>
      </trkpt>
      <trkpt lat="42.51471399329602718353271484375" lon="20.1513127796351909637451171875">
        <ele>2159.800048828125</ele>
        <time>2026-06-20T10:38:17.000Z</time>
        <extensions>
          <ns3:TrackPointExtension>
            <ns3:atemp>23.0</ns3:atemp>
          </ns3:TrackPointExtension>
        </extensions>
      </trkpt>
      <trkpt lat="42.51471399329602718353271484375" lon="20.1513127796351909637451171875">
        <ele>2159.800048828125</ele>
        <time>2026-06-20T10:38:18.000Z</time>
        <extensions>
          <ns3:TrackPointExtension>
            <ns3:atemp>23.0</ns3:atemp>
          </ns3:TrackPointExtension>
        </extensions>
      </trkpt>
      <trkpt lat="42.51471399329602718353271484375" lon="20.1513127796351909637451171875">
        <ele>2159.800048828125</ele>
        <time>2026-06-20T10:38:19.000Z</time>
        <extensions>
          <ns3:TrackPointExtension>
            <ns3:atemp>23.0</ns3:atemp>
          </ns3:TrackPointExtension>
        </extensions>
      </trkpt>
      <trkpt lat="42.51471399329602718353271484375" lon="20.1513127796351909637451171875">
        <ele>2159.800048828125</ele>
        <time>2026-06-20T10:38:20.000Z</time>
        <extensions>
          <ns3:TrackPointExtension>
            <ns3:atemp>23.0</ns3:atemp>
          </ns3:TrackPointExtension>
        </extensions>
      </trkpt>
      <trkpt lat="42.51471399329602718353271484375" lon="20.1513127796351909637451171875">
        <ele>2159.800048828125</ele>
        <time>2026-06-20T10:38:21.000Z</time>
        <extensions>
          <ns3:TrackPointExtension>
            <ns3:atemp>23.0</ns3:atemp>
          </ns3:TrackPointExtension>
        </extensions>
      </trkpt>
      <trkpt lat="42.51471399329602718353271484375" lon="20.1513127796351909637451171875">
        <ele>2159.800048828125</ele>
        <time>2026-06-20T10:38:22.000Z</time>
        <extensions>
          <ns3:TrackPointExtension>
            <ns3:atemp>23.0</ns3:atemp>
          </ns3:TrackPointExtension>
        </extensions>
      </trkpt>
      <trkpt lat="42.51471399329602718353271484375" lon="20.1513127796351909637451171875">
        <ele>2159.800048828125</ele>
        <time>2026-06-20T10:38:23.000Z</time>
        <extensions>
          <ns3:TrackPointExtension>
            <ns3:atemp>23.0</ns3:atemp>
          </ns3:TrackPointExtension>
        </extensions>
      </trkpt>
      <trkpt lat="42.51471399329602718353271484375" lon="20.1513127796351909637451171875">
        <ele>2159.800048828125</ele>
        <time>2026-06-20T10:38:24.000Z</time>
        <extensions>
          <ns3:TrackPointExtension>
            <ns3:atemp>23.0</ns3:atemp>
          </ns3:TrackPointExtension>
        </extensions>
      </trkpt>
      <trkpt lat="42.51471399329602718353271484375" lon="20.1513127796351909637451171875">
        <ele>2159.800048828125</ele>
        <time>2026-06-20T10:38:25.000Z</time>
        <extensions>
          <ns3:TrackPointExtension>
            <ns3:atemp>23.0</ns3:atemp>
          </ns3:TrackPointExtension>
        </extensions>
      </trkpt>
      <trkpt lat="42.51471399329602718353271484375" lon="20.1513127796351909637451171875">
        <ele>2159.800048828125</ele>
        <time>2026-06-20T10:38:26.000Z</time>
        <extensions>
          <ns3:TrackPointExtension>
            <ns3:atemp>23.0</ns3:atemp>
          </ns3:TrackPointExtension>
        </extensions>
      </trkpt>
      <trkpt lat="42.51471399329602718353271484375" lon="20.1513127796351909637451171875">
        <ele>2159.800048828125</ele>
        <time>2026-06-20T10:38:27.000Z</time>
        <extensions>
          <ns3:TrackPointExtension>
            <ns3:atemp>23.0</ns3:atemp>
          </ns3:TrackPointExtension>
        </extensions>
      </trkpt>
      <trkpt lat="42.5147147476673126220703125" lon="20.15131806023418903350830078125">
        <ele>2159.800048828125</ele>
        <time>2026-06-20T10:38:28.000Z</time>
        <extensions>
          <ns3:TrackPointExtension>
            <ns3:atemp>23.0</ns3:atemp>
          </ns3:TrackPointExtension>
        </extensions>
      </trkpt>
      <trkpt lat="42.5147182680666446685791015625" lon="20.1513276994228363037109375">
        <ele>2159.800048828125</ele>
        <time>2026-06-20T10:38:29.000Z</time>
        <extensions>
          <ns3:TrackPointExtension>
            <ns3:atemp>23.0</ns3:atemp>
          </ns3:TrackPointExtension>
        </extensions>
      </trkpt>
      <trkpt lat="42.51471399329602718353271484375" lon="20.1513127796351909637451171875">
        <ele>2159.800048828125</ele>
        <time>2026-06-20T10:38:30.000Z</time>
        <extensions>
          <ns3:TrackPointExtension>
            <ns3:atemp>23.0</ns3:atemp>
          </ns3:TrackPointExtension>
        </extensions>
      </trkpt>
      <trkpt lat="42.51471399329602718353271484375" lon="20.1513127796351909637451171875">
        <ele>2159.800048828125</ele>
        <time>2026-06-20T10:38:31.000Z</time>
        <extensions>
          <ns3:TrackPointExtension>
            <ns3:atemp>23.0</ns3:atemp>
          </ns3:TrackPointExtension>
        </extensions>
      </trkpt>
      <trkpt lat="42.514717765152454376220703125" lon="20.1513278670608997344970703125">
        <ele>2159.800048828125</ele>
        <time>2026-06-20T10:38:32.000Z</time>
        <extensions>
          <ns3:TrackPointExtension>
            <ns3:atemp>23.0</ns3:atemp>
          </ns3:TrackPointExtension>
        </extensions>
      </trkpt>
      <trkpt lat="42.51471835188567638397216796875" lon="20.15134178102016448974609375">
        <ele>2159.800048828125</ele>
        <time>2026-06-20T10:38:33.000Z</time>
        <extensions>
          <ns3:TrackPointExtension>
            <ns3:atemp>23.0</ns3:atemp>
          </ns3:TrackPointExtension>
        </extensions>
      </trkpt>
      <trkpt lat="42.51471483148634433746337890625" lon="20.15135896392166614532470703125">
        <ele>2159.800048828125</ele>
        <time>2026-06-20T10:38:34.000Z</time>
        <extensions>
          <ns3:TrackPointExtension>
            <ns3:atemp>23.0</ns3:atemp>
          </ns3:TrackPointExtension>
        </extensions>
      </trkpt>
      <trkpt lat="42.51470879651606082916259765625" lon="20.15137405134737491607666015625">
        <ele>2160</ele>
        <time>2026-06-20T10:38:35.000Z</time>
        <extensions>
          <ns3:TrackPointExtension>
            <ns3:atemp>23.0</ns3:atemp>
          </ns3:TrackPointExtension>
        </extensions>
      </trkpt>
      <trkpt lat="42.51470074988901615142822265625" lon="20.15139249153435230255126953125">
        <ele>2159.800048828125</ele>
        <time>2026-06-20T10:38:36.000Z</time>
        <extensions>
          <ns3:TrackPointExtension>
            <ns3:atemp>23.0</ns3:atemp>
          </ns3:TrackPointExtension>
        </extensions>
      </trkpt>
      <trkpt lat="42.514694295823574066162109375" lon="20.15141109935939311981201171875">
        <ele>2159.60009765625</ele>
        <time>2026-06-20T10:38:37.000Z</time>
        <extensions>
          <ns3:TrackPointExtension>
            <ns3:atemp>23.0</ns3:atemp>
          </ns3:TrackPointExtension>
        </extensions>
      </trkpt>
      <trkpt lat="42.514684237539768218994140625" lon="20.15143138356506824493408203125">
        <ele>2159.60009765625</ele>
        <time>2026-06-20T10:38:38.000Z</time>
        <extensions>
          <ns3:TrackPointExtension>
            <ns3:atemp>23.0</ns3:atemp>
          </ns3:TrackPointExtension>
        </extensions>
      </trkpt>
      <trkpt lat="42.514681555330753326416015625" lon="20.15145284123718738555908203125">
        <ele>2159.39990234375</ele>
        <time>2026-06-20T10:38:39.000Z</time>
        <extensions>
          <ns3:TrackPointExtension>
            <ns3:atemp>23.0</ns3:atemp>
          </ns3:TrackPointExtension>
        </extensions>
      </trkpt>
      <trkpt lat="42.5146753527224063873291015625" lon="20.15147999860346317291259765625">
        <ele>2159.199951171875</ele>
        <time>2026-06-20T10:38:40.000Z</time>
        <extensions>
          <ns3:TrackPointExtension>
            <ns3:atemp>23.0</ns3:atemp>
          </ns3:TrackPointExtension>
        </extensions>
      </trkpt>
      <trkpt lat="42.51465884037315845489501953125" lon="20.1515025459229946136474609375">
        <ele>2159</ele>
        <time>2026-06-20T10:38:41.000Z</time>
        <extensions>
          <ns3:TrackPointExtension>
            <ns3:atemp>23.0</ns3:atemp>
          </ns3:TrackPointExtension>
        </extensions>
      </trkpt>
      <trkpt lat="42.514639310538768768310546875" lon="20.15152358449995517730712890625">
        <ele>2158.60009765625</ele>
        <time>2026-06-20T10:38:42.000Z</time>
        <extensions>
          <ns3:TrackPointExtension>
            <ns3:atemp>23.0</ns3:atemp>
          </ns3:TrackPointExtension>
        </extensions>
      </trkpt>
      <trkpt lat="42.514623217284679412841796875" lon="20.15154520981013774871826171875">
        <ele>2158.39990234375</ele>
        <time>2026-06-20T10:38:43.000Z</time>
        <extensions>
          <ns3:TrackPointExtension>
            <ns3:atemp>23.0</ns3:atemp>
          </ns3:TrackPointExtension>
        </extensions>
      </trkpt>
      <trkpt lat="42.51460016705095767974853515625" lon="20.15156817622482776641845703125">
        <ele>2158</ele>
        <time>2026-06-20T10:38:44.000Z</time>
        <extensions>
          <ns3:TrackPointExtension>
            <ns3:atemp>23.0</ns3:atemp>
          </ns3:TrackPointExtension>
        </extensions>
      </trkpt>
      <trkpt lat="42.51457200385630130767822265625" lon="20.15158376656472682952880859375">
        <ele>2157.800048828125</ele>
        <time>2026-06-20T10:38:45.000Z</time>
        <extensions>
          <ns3:TrackPointExtension>
            <ns3:atemp>23.0</ns3:atemp>
          </ns3:TrackPointExtension>
        </extensions>
      </trkpt>
      <trkpt lat="42.5145377218723297119140625" lon="20.15158561058342456817626953125">
        <ele>2157.800048828125</ele>
        <time>2026-06-20T10:38:46.000Z</time>
        <extensions>
          <ns3:TrackPointExtension>
            <ns3:atemp>23.0</ns3:atemp>
          </ns3:TrackPointExtension>
        </extensions>
      </trkpt>
      <trkpt lat="42.514500506222248077392578125" lon="20.1515986025333404541015625">
        <ele>2157.60009765625</ele>
        <time>2026-06-20T10:38:47.000Z</time>
        <extensions>
          <ns3:TrackPointExtension>
            <ns3:atemp>23.0</ns3:atemp>
          </ns3:TrackPointExtension>
        </extensions>
      </trkpt>
      <trkpt lat="42.5144601054489612579345703125" lon="20.15160656534135341644287109375">
        <ele>2157.199951171875</ele>
        <time>2026-06-20T10:38:48.000Z</time>
        <extensions>
          <ns3:TrackPointExtension>
            <ns3:atemp>23.0</ns3:atemp>
          </ns3:TrackPointExtension>
        </extensions>
      </trkpt>
      <trkpt lat="42.514415681362152099609375" lon="20.15161402523517608642578125">
        <ele>2157</ele>
        <time>2026-06-20T10:38:49.000Z</time>
        <extensions>
          <ns3:TrackPointExtension>
            <ns3:atemp>23.0</ns3:atemp>
          </ns3:TrackPointExtension>
        </extensions>
      </trkpt>
      <trkpt lat="42.514369077980518341064453125" lon="20.151621066033840179443359375">
        <ele>2157</ele>
        <time>2026-06-20T10:38:50.000Z</time>
        <extensions>
          <ns3:TrackPointExtension>
            <ns3:atemp>23.0</ns3:atemp>
          </ns3:TrackPointExtension>
        </extensions>
      </trkpt>
      <trkpt lat="42.5143283419311046600341796875" lon="20.151632130146026611328125">
        <ele>2156.800048828125</ele>
        <time>2026-06-20T10:38:51.000Z</time>
        <extensions>
          <ns3:TrackPointExtension>
            <ns3:atemp>23.0</ns3:atemp>
          </ns3:TrackPointExtension>
        </extensions>
      </trkpt>
      <trkpt lat="42.5142951495945453643798828125" lon="20.15163908712565898895263671875">
        <ele>2156.60009765625</ele>
        <time>2026-06-20T10:38:52.000Z</time>
        <extensions>
          <ns3:TrackPointExtension>
            <ns3:atemp>23.0</ns3:atemp>
          </ns3:TrackPointExtension>
        </extensions>
      </trkpt>
      <trkpt lat="42.51426908187568187713623046875" lon="20.1516517437994480133056640625">
        <ele>2156.39990234375</ele>
        <time>2026-06-20T10:38:53.000Z</time>
        <extensions>
          <ns3:TrackPointExtension>
            <ns3:atemp>23.0</ns3:atemp>
          </ns3:TrackPointExtension>
        </extensions>
      </trkpt>
      <trkpt lat="42.51424930058419704437255859375" lon="20.15166364610195159912109375">
        <ele>2156.39990234375</ele>
        <time>2026-06-20T10:38:54.000Z</time>
        <extensions>
          <ns3:TrackPointExtension>
            <ns3:atemp>23.0</ns3:atemp>
          </ns3:TrackPointExtension>
        </extensions>
      </trkpt>
      <trkpt lat="42.51423924230039119720458984375" lon="20.1516728661954402923583984375">
        <ele>2156.39990234375</ele>
        <time>2026-06-20T10:38:55.000Z</time>
        <extensions>
          <ns3:TrackPointExtension>
            <ns3:atemp>23.0</ns3:atemp>
          </ns3:TrackPointExtension>
        </extensions>
      </trkpt>
      <trkpt lat="42.514235973358154296875" lon="20.15167982317507266998291015625">
        <ele>2156.199951171875</ele>
        <time>2026-06-20T10:38:56.000Z</time>
        <extensions>
          <ns3:TrackPointExtension>
            <ns3:atemp>23.0</ns3:atemp>
          </ns3:TrackPointExtension>
        </extensions>
      </trkpt>
      <trkpt lat="42.51423438079655170440673828125" lon="20.15168200246989727020263671875">
        <ele>2156.39990234375</ele>
        <time>2026-06-20T10:38:57.000Z</time>
        <extensions>
          <ns3:TrackPointExtension>
            <ns3:atemp>23.0</ns3:atemp>
          </ns3:TrackPointExtension>
        </extensions>
      </trkpt>
      <trkpt lat="42.51422884874045848846435546875" lon="20.15168854035437107086181640625">
        <ele>2156.39990234375</ele>
        <time>2026-06-20T10:38:58.000Z</time>
        <extensions>
          <ns3:TrackPointExtension>
            <ns3:atemp>23.0</ns3:atemp>
          </ns3:TrackPointExtension>
        </extensions>
      </trkpt>
      <trkpt lat="42.514224238693714141845703125" lon="20.15169893391430377960205078125">
        <ele>2156.39990234375</ele>
        <time>2026-06-20T10:38:59.000Z</time>
        <extensions>
          <ns3:TrackPointExtension>
            <ns3:atemp>23.0</ns3:atemp>
          </ns3:TrackPointExtension>
        </extensions>
      </trkpt>
      <trkpt lat="42.51421786844730377197265625" lon="20.15171150676906108856201171875">
        <ele>2156.60009765625</ele>
        <time>2026-06-20T10:39:00.000Z</time>
        <extensions>
          <ns3:TrackPointExtension>
            <ns3:atemp>23.0</ns3:atemp>
          </ns3:TrackPointExtension>
        </extensions>
      </trkpt>
      <trkpt lat="42.514211833477020263671875" lon="20.15172265470027923583984375">
        <ele>2156.60009765625</ele>
        <time>2026-06-20T10:39:01.000Z</time>
        <extensions>
          <ns3:TrackPointExtension>
            <ns3:atemp>23.0</ns3:atemp>
          </ns3:TrackPointExtension>
        </extensions>
      </trkpt>
      <trkpt lat="42.51420990563929080963134765625" lon="20.1517298631370067596435546875">
        <ele>2156.800048828125</ele>
        <time>2026-06-20T10:39:02.000Z</time>
        <extensions>
          <ns3:TrackPointExtension>
            <ns3:atemp>23.0</ns3:atemp>
          </ns3:TrackPointExtension>
        </extensions>
      </trkpt>
      <trkpt lat="42.51420655287802219390869140625" lon="20.15172936022281646728515625">
        <ele>2156.800048828125</ele>
        <time>2026-06-20T10:39:03.000Z</time>
        <extensions>
          <ns3:TrackPointExtension>
            <ns3:atemp>23.0</ns3:atemp>
          </ns3:TrackPointExtension>
        </extensions>
      </trkpt>
      <trkpt lat="42.514206469058990478515625" lon="20.15172944404184818267822265625">
        <ele>2157</ele>
        <time>2026-06-20T10:39:04.000Z</time>
        <extensions>
          <ns3:TrackPointExtension>
            <ns3:atemp>23.0</ns3:atemp>
          </ns3:TrackPointExtension>
        </extensions>
      </trkpt>
      <trkpt lat="42.5141895376145839691162109375" lon="20.151739753782749176025390625">
        <ele>2157</ele>
        <time>2026-06-20T10:39:05.000Z</time>
        <extensions>
          <ns3:TrackPointExtension>
            <ns3:atemp>23.0</ns3:atemp>
          </ns3:TrackPointExtension>
        </extensions>
      </trkpt>
      <trkpt lat="42.51418031752109527587890625" lon="20.1517590321600437164306640625">
        <ele>2157</ele>
        <time>2026-06-20T10:39:06.000Z</time>
        <extensions>
          <ns3:TrackPointExtension>
            <ns3:atemp>23.0</ns3:atemp>
          </ns3:TrackPointExtension>
        </extensions>
      </trkpt>
      <trkpt lat="42.5141677446663379669189453125" lon="20.15177370049059391021728515625">
        <ele>2156.800048828125</ele>
        <time>2026-06-20T10:39:07.000Z</time>
        <extensions>
          <ns3:TrackPointExtension>
            <ns3:atemp>23.0</ns3:atemp>
          </ns3:TrackPointExtension>
        </extensions>
      </trkpt>
      <trkpt lat="42.51415240578353404998779296875" lon="20.1517915539443492889404296875">
        <ele>2156.800048828125</ele>
        <time>2026-06-20T10:39:08.000Z</time>
        <extensions>
          <ns3:TrackPointExtension>
            <ns3:atemp>23.0</ns3:atemp>
          </ns3:TrackPointExtension>
        </extensions>
      </trkpt>
      <trkpt lat="42.514130361378192901611328125" lon="20.15180991031229496002197265625">
        <ele>2156.39990234375</ele>
        <time>2026-06-20T10:39:09.000Z</time>
        <extensions>
          <ns3:TrackPointExtension>
            <ns3:atemp>23.0</ns3:atemp>
          </ns3:TrackPointExtension>
        </extensions>
      </trkpt>
      <trkpt lat="42.514109909534454345703125" lon="20.1518250815570354461669921875">
        <ele>2156.199951171875</ele>
        <time>2026-06-20T10:39:10.000Z</time>
        <extensions>
          <ns3:TrackPointExtension>
            <ns3:atemp>23.0</ns3:atemp>
          </ns3:TrackPointExtension>
        </extensions>
      </trkpt>
      <trkpt lat="42.51408820040524005889892578125" lon="20.15182985924184322357177734375">
        <ele>2156</ele>
        <time>2026-06-20T10:39:11.000Z</time>
        <extensions>
          <ns3:TrackPointExtension>
            <ns3:atemp>23.0</ns3:atemp>
          </ns3:TrackPointExtension>
        </extensions>
      </trkpt>
      <trkpt lat="42.51407328061759471893310546875" lon="20.1518301106989383697509765625">
        <ele>2155.800048828125</ele>
        <time>2026-06-20T10:39:12.000Z</time>
        <extensions>
          <ns3:TrackPointExtension>
            <ns3:atemp>23.0</ns3:atemp>
          </ns3:TrackPointExtension>
        </extensions>
      </trkpt>
      <trkpt lat="42.514055259525775909423828125" lon="20.15183396637439727783203125">
        <ele>2155.60009765625</ele>
        <time>2026-06-20T10:39:13.000Z</time>
        <extensions>
          <ns3:TrackPointExtension>
            <ns3:atemp>23.0</ns3:atemp>
          </ns3:TrackPointExtension>
        </extensions>
      </trkpt>
      <trkpt lat="42.51403908245265483856201171875" lon="20.1518428511917591094970703125">
        <ele>2155.39990234375</ele>
        <time>2026-06-20T10:39:14.000Z</time>
        <extensions>
          <ns3:TrackPointExtension>
            <ns3:atemp>23.0</ns3:atemp>
          </ns3:TrackPointExtension>
        </extensions>
      </trkpt>
      <trkpt lat="42.51402885653078556060791015625" lon="20.15185684897005558013916015625">
        <ele>2155.199951171875</ele>
        <time>2026-06-20T10:39:15.000Z</time>
        <extensions>
          <ns3:TrackPointExtension>
            <ns3:atemp>23.0</ns3:atemp>
          </ns3:TrackPointExtension>
        </extensions>
      </trkpt>
      <trkpt lat="42.5140135176479816436767578125" lon="20.15188132412731647491455078125">
        <ele>2155</ele>
        <time>2026-06-20T10:39:16.000Z</time>
        <extensions>
          <ns3:TrackPointExtension>
            <ns3:atemp>23.0</ns3:atemp>
          </ns3:TrackPointExtension>
        </extensions>
      </trkpt>
      <trkpt lat="42.5139883719384670257568359375" lon="20.15191376209259033203125">
        <ele>2154.39990234375</ele>
        <time>2026-06-20T10:39:17.000Z</time>
        <extensions>
          <ns3:TrackPointExtension>
            <ns3:atemp>23.0</ns3:atemp>
          </ns3:TrackPointExtension>
        </extensions>
      </trkpt>
      <trkpt lat="42.51395811326801776885986328125" lon="20.1519363932311534881591796875">
        <ele>2153.800048828125</ele>
        <time>2026-06-20T10:39:18.000Z</time>
        <extensions>
          <ns3:TrackPointExtension>
            <ns3:atemp>23.0</ns3:atemp>
          </ns3:TrackPointExtension>
        </extensions>
      </trkpt>
      <trkpt lat="42.51392978243529796600341796875" lon="20.15195064246654510498046875">
        <ele>2153.199951171875</ele>
        <time>2026-06-20T10:39:19.000Z</time>
        <extensions>
          <ns3:TrackPointExtension>
            <ns3:atemp>23.0</ns3:atemp>
          </ns3:TrackPointExtension>
        </extensions>
      </trkpt>
      <trkpt lat="42.5139008648693561553955078125" lon="20.15196564607322216033935546875">
        <ele>2152.800048828125</ele>
        <time>2026-06-20T10:39:20.000Z</time>
        <extensions>
          <ns3:TrackPointExtension>
            <ns3:atemp>23.0</ns3:atemp>
          </ns3:TrackPointExtension>
        </extensions>
      </trkpt>
      <trkpt lat="42.51387186348438262939453125" lon="20.15198358334600925445556640625">
        <ele>2152.199951171875</ele>
        <time>2026-06-20T10:39:21.000Z</time>
        <extensions>
          <ns3:TrackPointExtension>
            <ns3:atemp>23.0</ns3:atemp>
          </ns3:TrackPointExtension>
        </extensions>
      </trkpt>
      <trkpt lat="42.51385099254548549652099609375" lon="20.15198777429759502410888671875">
        <ele>2151.60009765625</ele>
        <time>2026-06-20T10:39:22.000Z</time>
        <extensions>
          <ns3:TrackPointExtension>
            <ns3:atemp>23.0</ns3:atemp>
          </ns3:TrackPointExtension>
        </extensions>
      </trkpt>
      <trkpt lat="42.5138354860246181488037109375" lon="20.15199397690594196319580078125">
        <ele>2151</ele>
        <time>2026-06-20T10:39:23.000Z</time>
        <extensions>
          <ns3:TrackPointExtension>
            <ns3:atemp>23.0</ns3:atemp>
          </ns3:TrackPointExtension>
        </extensions>
      </trkpt>
      <trkpt lat="42.51382735557854175567626953125" lon="20.15199582092463970184326171875">
        <ele>2150.800048828125</ele>
        <time>2026-06-20T10:39:24.000Z</time>
        <extensions>
          <ns3:TrackPointExtension>
            <ns3:atemp>23.0</ns3:atemp>
          </ns3:TrackPointExtension>
        </extensions>
      </trkpt>
      <trkpt lat="42.51381176523864269256591796875" lon="20.15199313871562480926513671875">
        <ele>2150.39990234375</ele>
        <time>2026-06-20T10:39:25.000Z</time>
        <extensions>
          <ns3:TrackPointExtension>
            <ns3:atemp>23.0</ns3:atemp>
          </ns3:TrackPointExtension>
        </extensions>
      </trkpt>
      <trkpt lat="42.5137885473668575286865234375" lon="20.15199246816337108612060546875">
        <ele>2150.199951171875</ele>
        <time>2026-06-20T10:39:26.000Z</time>
        <extensions>
          <ns3:TrackPointExtension>
            <ns3:atemp>23.0</ns3:atemp>
          </ns3:TrackPointExtension>
        </extensions>
      </trkpt>
      <trkpt lat="42.51376482658088207244873046875" lon="20.152008645236492156982421875">
        <ele>2149.800048828125</ele>
        <time>2026-06-20T10:39:27.000Z</time>
        <extensions>
          <ns3:TrackPointExtension>
            <ns3:atemp>23.0</ns3:atemp>
          </ns3:TrackPointExtension>
        </extensions>
      </trkpt>
      <trkpt lat="42.5137459672987461090087890625" lon="20.15202180482447147369384765625">
        <ele>2149</ele>
        <time>2026-06-20T10:39:28.000Z</time>
        <extensions>
          <ns3:TrackPointExtension>
            <ns3:atemp>23.0</ns3:atemp>
          </ns3:TrackPointExtension>
        </extensions>
      </trkpt>
      <trkpt lat="42.51373012550175189971923828125" lon="20.15203555114567279815673828125">
        <ele>2148.39990234375</ele>
        <time>2026-06-20T10:39:29.000Z</time>
        <extensions>
          <ns3:TrackPointExtension>
            <ns3:atemp>23.0</ns3:atemp>
          </ns3:TrackPointExtension>
        </extensions>
      </trkpt>
      <trkpt lat="42.51371319405734539031982421875" lon="20.15205197967588901519775390625">
        <ele>2147.800048828125</ele>
        <time>2026-06-20T10:39:30.000Z</time>
        <extensions>
          <ns3:TrackPointExtension>
            <ns3:atemp>23.0</ns3:atemp>
          </ns3:TrackPointExtension>
        </extensions>
      </trkpt>
      <trkpt lat="42.513695843517780303955078125" lon="20.15206455253064632415771484375">
        <ele>2147.199951171875</ele>
        <time>2026-06-20T10:39:31.000Z</time>
        <extensions>
          <ns3:TrackPointExtension>
            <ns3:atemp>23.0</ns3:atemp>
          </ns3:TrackPointExtension>
        </extensions>
      </trkpt>
      <trkpt lat="42.513679079711437225341796875" lon="20.15207746066153049468994140625">
        <ele>2146.60009765625</ele>
        <time>2026-06-20T10:39:32.000Z</time>
        <extensions>
          <ns3:TrackPointExtension>
            <ns3:atemp>23.0</ns3:atemp>
          </ns3:TrackPointExtension>
        </extensions>
      </trkpt>
      <trkpt lat="42.51365502364933490753173828125" lon="20.15208919532597064971923828125">
        <ele>2145.800048828125</ele>
        <time>2026-06-20T10:39:33.000Z</time>
        <extensions>
          <ns3:TrackPointExtension>
            <ns3:atemp>23.0</ns3:atemp>
          </ns3:TrackPointExtension>
        </extensions>
      </trkpt>
      <trkpt lat="42.51363054849207401275634765625" lon="20.152105204761028289794921875">
        <ele>2145.199951171875</ele>
        <time>2026-06-20T10:39:34.000Z</time>
        <extensions>
          <ns3:TrackPointExtension>
            <ns3:atemp>23.0</ns3:atemp>
          </ns3:TrackPointExtension>
        </extensions>
      </trkpt>
      <trkpt lat="42.51360422931611537933349609375" lon="20.15212020836770534515380859375">
        <ele>2144.60009765625</ele>
        <time>2026-06-20T10:39:35.000Z</time>
        <extensions>
          <ns3:TrackPointExtension>
            <ns3:atemp>23.0</ns3:atemp>
          </ns3:TrackPointExtension>
        </extensions>
      </trkpt>
      <trkpt lat="42.51357874833047389984130859375" lon="20.15213303267955780029296875">
        <ele>2144.199951171875</ele>
        <time>2026-06-20T10:39:36.000Z</time>
        <extensions>
          <ns3:TrackPointExtension>
            <ns3:atemp>23.0</ns3:atemp>
          </ns3:TrackPointExtension>
        </extensions>
      </trkpt>
      <trkpt lat="42.5135541893541812896728515625" lon="20.15214049257338047027587890625">
        <ele>2143.60009765625</ele>
        <time>2026-06-20T10:39:37.000Z</time>
        <extensions>
          <ns3:TrackPointExtension>
            <ns3:atemp>23.0</ns3:atemp>
          </ns3:TrackPointExtension>
        </extensions>
      </trkpt>
      <trkpt lat="42.51353499479591846466064453125" lon="20.1521399058401584625244140625">
        <ele>2143</ele>
        <time>2026-06-20T10:39:38.000Z</time>
        <extensions>
          <ns3:TrackPointExtension>
            <ns3:atemp>23.0</ns3:atemp>
          </ns3:TrackPointExtension>
        </extensions>
      </trkpt>
      <trkpt lat="42.51351387239992618560791015625" lon="20.15214317478239536285400390625">
        <ele>2142.39990234375</ele>
        <time>2026-06-20T10:39:39.000Z</time>
        <extensions>
          <ns3:TrackPointExtension>
            <ns3:atemp>23.0</ns3:atemp>
          </ns3:TrackPointExtension>
        </extensions>
      </trkpt>
      <trkpt lat="42.51349367201328277587890625" lon="20.15215641818940639495849609375">
        <ele>2142</ele>
        <time>2026-06-20T10:39:40.000Z</time>
        <extensions>
          <ns3:TrackPointExtension>
            <ns3:atemp>23.0</ns3:atemp>
          </ns3:TrackPointExtension>
        </extensions>
      </trkpt>
      <trkpt lat="42.513468526303768157958984375" lon="20.15217636711895465850830078125">
        <ele>2141.39990234375</ele>
        <time>2026-06-20T10:39:41.000Z</time>
        <extensions>
          <ns3:TrackPointExtension>
            <ns3:atemp>23.0</ns3:atemp>
          </ns3:TrackPointExtension>
        </extensions>
      </trkpt>
      <trkpt lat="42.5134455598890781402587890625" lon="20.15219497494399547576904296875">
        <ele>2140.800048828125</ele>
        <time>2026-06-20T10:39:42.000Z</time>
        <extensions>
          <ns3:TrackPointExtension>
            <ns3:atemp>23.0</ns3:atemp>
          </ns3:TrackPointExtension>
        </extensions>
      </trkpt>
      <trkpt lat="42.51342502422630786895751953125" lon="20.15221207402646541595458984375">
        <ele>2140.199951171875</ele>
        <time>2026-06-20T10:39:43.000Z</time>
        <extensions>
          <ns3:TrackPointExtension>
            <ns3:atemp>23.0</ns3:atemp>
          </ns3:TrackPointExtension>
        </extensions>
      </trkpt>
      <trkpt lat="42.51340406946837902069091796875" lon="20.15222263522446155548095703125">
        <ele>2139.60009765625</ele>
        <time>2026-06-20T10:39:44.000Z</time>
        <extensions>
          <ns3:TrackPointExtension>
            <ns3:atemp>23.0</ns3:atemp>
          </ns3:TrackPointExtension>
        </extensions>
      </trkpt>
      <trkpt lat="42.51338194124400615692138671875" lon="20.15223017893731594085693359375">
        <ele>2139.199951171875</ele>
        <time>2026-06-20T10:39:45.000Z</time>
        <extensions>
          <ns3:TrackPointExtension>
            <ns3:atemp>23.0</ns3:atemp>
          </ns3:TrackPointExtension>
        </extensions>
      </trkpt>
      <trkpt lat="42.5133627466857433319091796875" lon="20.15223671682178974151611328125">
        <ele>2139</ele>
        <time>2026-06-20T10:39:46.000Z</time>
        <extensions>
          <ns3:TrackPointExtension>
            <ns3:atemp>23.0</ns3:atemp>
          </ns3:TrackPointExtension>
        </extensions>
      </trkpt>
      <trkpt lat="42.513343133032321929931640625" lon="20.1522458530962467193603515625">
        <ele>2138.800048828125</ele>
        <time>2026-06-20T10:39:47.000Z</time>
        <extensions>
          <ns3:TrackPointExtension>
            <ns3:atemp>23.0</ns3:atemp>
          </ns3:TrackPointExtension>
        </extensions>
      </trkpt>
      <trkpt lat="42.51332226209342479705810546875" lon="20.152260102331638336181640625">
        <ele>2138.800048828125</ele>
        <time>2026-06-20T10:39:48.000Z</time>
        <extensions>
          <ns3:TrackPointExtension>
            <ns3:atemp>23.0</ns3:atemp>
          </ns3:TrackPointExtension>
        </extensions>
      </trkpt>
      <trkpt lat="42.51330164261162281036376953125" lon="20.15227158553898334503173828125">
        <ele>2138.39990234375</ele>
        <time>2026-06-20T10:39:49.000Z</time>
        <extensions>
          <ns3:TrackPointExtension>
            <ns3:atemp>23.0</ns3:atemp>
          </ns3:TrackPointExtension>
        </extensions>
      </trkpt>
      <trkpt lat="42.51327909529209136962890625" lon="20.15228482894599437713623046875">
        <ele>2138.199951171875</ele>
        <time>2026-06-20T10:39:50.000Z</time>
        <extensions>
          <ns3:TrackPointExtension>
            <ns3:atemp>23.0</ns3:atemp>
          </ns3:TrackPointExtension>
        </extensions>
      </trkpt>
      <trkpt lat="42.51325629651546478271484375" lon="20.15229756943881511688232421875">
        <ele>2138</ele>
        <time>2026-06-20T10:39:51.000Z</time>
        <extensions>
          <ns3:TrackPointExtension>
            <ns3:atemp>23.0</ns3:atemp>
          </ns3:TrackPointExtension>
        </extensions>
      </trkpt>
      <trkpt lat="42.51323324628174304962158203125" lon="20.15231081284582614898681640625">
        <ele>2137.60009765625</ele>
        <time>2026-06-20T10:39:52.000Z</time>
        <extensions>
          <ns3:TrackPointExtension>
            <ns3:atemp>23.0</ns3:atemp>
          </ns3:TrackPointExtension>
        </extensions>
      </trkpt>
      <trkpt lat="42.5132058374583721160888671875" lon="20.15232942067086696624755859375">
        <ele>2137.199951171875</ele>
        <time>2026-06-20T10:39:53.000Z</time>
        <extensions>
          <ns3:TrackPointExtension>
            <ns3:atemp>23.0</ns3:atemp>
          </ns3:TrackPointExtension>
        </extensions>
      </trkpt>
      <trkpt lat="42.51317021436989307403564453125" lon="20.1523501239717006683349609375">
        <ele>2136.39990234375</ele>
        <time>2026-06-20T10:39:54.000Z</time>
        <extensions>
          <ns3:TrackPointExtension>
            <ns3:atemp>23.0</ns3:atemp>
          </ns3:TrackPointExtension>
        </extensions>
      </trkpt>
      <trkpt lat="42.51313182525336742401123046875" lon="20.152370072901248931884765625">
        <ele>2136</ele>
        <time>2026-06-20T10:39:55.000Z</time>
        <extensions>
          <ns3:TrackPointExtension>
            <ns3:atemp>23.0</ns3:atemp>
          </ns3:TrackPointExtension>
        </extensions>
      </trkpt>
      <trkpt lat="42.51309410668909549713134765625" lon="20.15239597298204898834228515625">
        <ele>2135.199951171875</ele>
        <time>2026-06-20T10:39:56.000Z</time>
        <extensions>
          <ns3:TrackPointExtension>
            <ns3:atemp>23.0</ns3:atemp>
          </ns3:TrackPointExtension>
        </extensions>
      </trkpt>
      <trkpt lat="42.5130489282310009002685546875" lon="20.15241944231092929840087890625">
        <ele>2134.60009765625</ele>
        <time>2026-06-20T10:39:57.000Z</time>
        <extensions>
          <ns3:TrackPointExtension>
            <ns3:atemp>23.0</ns3:atemp>
          </ns3:TrackPointExtension>
        </extensions>
      </trkpt>
      <trkpt lat="42.5129981338977813720703125" lon="20.15244207344949245452880859375">
        <ele>2134</ele>
        <time>2026-06-20T10:39:58.000Z</time>
        <extensions>
          <ns3:TrackPointExtension>
            <ns3:atemp>23.0</ns3:atemp>
          </ns3:TrackPointExtension>
        </extensions>
      </trkpt>
      <trkpt lat="42.512946166098117828369140625" lon="20.15246562659740447998046875">
        <ele>2133.39990234375</ele>
        <time>2026-06-20T10:39:59.000Z</time>
        <extensions>
          <ns3:TrackPointExtension>
            <ns3:atemp>23.0</ns3:atemp>
          </ns3:TrackPointExtension>
        </extensions>
      </trkpt>
      <trkpt lat="42.51289495266973972320556640625" lon="20.1524805463850498199462890625">
        <ele>2132.800048828125</ele>
        <time>2026-06-20T10:40:00.000Z</time>
        <extensions>
          <ns3:TrackPointExtension>
            <ns3:atemp>23.0</ns3:atemp>
          </ns3:TrackPointExtension>
        </extensions>
      </trkpt>
      <trkpt lat="42.51284365542232990264892578125" lon="20.15249588526785373687744140625">
        <ele>2132.39990234375</ele>
        <time>2026-06-20T10:40:01.000Z</time>
        <extensions>
          <ns3:TrackPointExtension>
            <ns3:atemp>23.0</ns3:atemp>
          </ns3:TrackPointExtension>
        </extensions>
      </trkpt>
      <trkpt lat="42.51278716139495372772216796875" lon="20.152524299919605255126953125">
        <ele>2132</ele>
        <time>2026-06-20T10:40:02.000Z</time>
        <extensions>
          <ns3:TrackPointExtension>
            <ns3:atemp>23.0</ns3:atemp>
          </ns3:TrackPointExtension>
        </extensions>
      </trkpt>
      <trkpt lat="42.5127334333956241607666015625" lon="20.152559839189052581787109375">
        <ele>2131.39990234375</ele>
        <time>2026-06-20T10:40:03.000Z</time>
        <extensions>
          <ns3:TrackPointExtension>
            <ns3:atemp>23.0</ns3:atemp>
          </ns3:TrackPointExtension>
        </extensions>
      </trkpt>
      <trkpt lat="42.5126794539391994476318359375" lon="20.15260049141943454742431640625">
        <ele>2130.800048828125</ele>
        <time>2026-06-20T10:40:04.000Z</time>
        <extensions>
          <ns3:TrackPointExtension>
            <ns3:atemp>23.0</ns3:atemp>
          </ns3:TrackPointExtension>
        </extensions>
      </trkpt>
      <trkpt lat="42.5126360356807708740234375" lon="20.1526582427322864532470703125">
        <ele>2130.39990234375</ele>
        <time>2026-06-20T10:40:05.000Z</time>
        <extensions>
          <ns3:TrackPointExtension>
            <ns3:atemp>23.0</ns3:atemp>
          </ns3:TrackPointExtension>
        </extensions>
      </trkpt>
      <trkpt lat="42.51259555108845233917236328125" lon="20.15271465294063091278076171875">
        <ele>2129.800048828125</ele>
        <time>2026-06-20T10:40:06.000Z</time>
        <extensions>
          <ns3:TrackPointExtension>
            <ns3:atemp>23.0</ns3:atemp>
          </ns3:TrackPointExtension>
        </extensions>
      </trkpt>
      <trkpt lat="42.51255649141967296600341796875" lon="20.152765028178691864013671875">
        <ele>2129.39990234375</ele>
        <time>2026-06-20T10:40:07.000Z</time>
        <extensions>
          <ns3:TrackPointExtension>
            <ns3:atemp>23.0</ns3:atemp>
          </ns3:TrackPointExtension>
        </extensions>
      </trkpt>
      <trkpt lat="42.51251542009413242340087890625" lon="20.1528128050267696380615234375">
        <ele>2129.199951171875</ele>
        <time>2026-06-20T10:40:08.000Z</time>
        <extensions>
          <ns3:TrackPointExtension>
            <ns3:atemp>23.0</ns3:atemp>
          </ns3:TrackPointExtension>
        </extensions>
      </trkpt>
      <trkpt lat="42.51246881671249866485595703125" lon="20.15285094268620014190673828125">
        <ele>2128.39990234375</ele>
        <time>2026-06-20T10:40:09.000Z</time>
        <extensions>
          <ns3:TrackPointExtension>
            <ns3:atemp>23.0</ns3:atemp>
          </ns3:TrackPointExtension>
        </extensions>
      </trkpt>
      <trkpt lat="42.5124176032841205596923828125" lon="20.15288262628018856048583984375">
        <ele>2127.199951171875</ele>
        <time>2026-06-20T10:40:10.000Z</time>
        <extensions>
          <ns3:TrackPointExtension>
            <ns3:atemp>23.0</ns3:atemp>
          </ns3:TrackPointExtension>
        </extensions>
      </trkpt>
      <trkpt lat="42.51236538402736186981201171875" lon="20.15291984193027019500732421875">
        <ele>2126.39990234375</ele>
        <time>2026-06-20T10:40:11.000Z</time>
        <extensions>
          <ns3:TrackPointExtension>
            <ns3:atemp>23.0</ns3:atemp>
          </ns3:TrackPointExtension>
        </extensions>
      </trkpt>
      <trkpt lat="42.512312829494476318359375" lon="20.15295756049454212188720703125">
        <ele>2125.199951171875</ele>
        <time>2026-06-20T10:40:12.000Z</time>
        <extensions>
          <ns3:TrackPointExtension>
            <ns3:atemp>23.0</ns3:atemp>
          </ns3:TrackPointExtension>
        </extensions>
      </trkpt>
      <trkpt lat="42.51226815395057201385498046875" lon="20.1530109532177448272705078125">
        <ele>2124.199951171875</ele>
        <time>2026-06-20T10:40:13.000Z</time>
        <extensions>
          <ns3:TrackPointExtension>
            <ns3:atemp>23.0</ns3:atemp>
          </ns3:TrackPointExtension>
        </extensions>
      </trkpt>
      <trkpt lat="42.51224108040332794189453125" lon="20.15308245085179805755615234375">
        <ele>2123</ele>
        <time>2026-06-20T10:40:14.000Z</time>
        <extensions>
          <ns3:TrackPointExtension>
            <ns3:atemp>23.0</ns3:atemp>
          </ns3:TrackPointExtension>
        </extensions>
      </trkpt>
      <trkpt lat="42.51221853308379650115966796875" lon="20.15315503813326358795166015625">
        <ele>2121.800048828125</ele>
        <time>2026-06-20T10:40:15.000Z</time>
        <extensions>
          <ns3:TrackPointExtension>
            <ns3:atemp>23.0</ns3:atemp>
          </ns3:TrackPointExtension>
        </extensions>
      </trkpt>
      <trkpt lat="42.51219020225107669830322265625" lon="20.15322460792958736419677734375">
        <ele>2120.800048828125</ele>
        <time>2026-06-20T10:40:16.000Z</time>
        <extensions>
          <ns3:TrackPointExtension>
            <ns3:atemp>23.0</ns3:atemp>
          </ns3:TrackPointExtension>
        </extensions>
      </trkpt>
      <trkpt lat="42.51218215562403202056884765625" lon="20.15330557711422443389892578125">
        <ele>2120</ele>
        <time>2026-06-20T10:40:17.000Z</time>
        <extensions>
          <ns3:TrackPointExtension>
            <ns3:atemp>23.0</ns3:atemp>
          </ns3:TrackPointExtension>
        </extensions>
      </trkpt>
      <trkpt lat="42.51217746175825595855712890625" lon="20.1533844508230686187744140625">
        <ele>2119.39990234375</ele>
        <time>2026-06-20T10:40:18.000Z</time>
        <extensions>
          <ns3:TrackPointExtension>
            <ns3:atemp>23.0</ns3:atemp>
          </ns3:TrackPointExtension>
        </extensions>
      </trkpt>
      <trkpt lat="42.5121634639799594879150390625" lon="20.1534679345786571502685546875">
        <ele>2118.60009765625</ele>
        <time>2026-06-20T10:40:19.000Z</time>
        <extensions>
          <ns3:TrackPointExtension>
            <ns3:atemp>23.0</ns3:atemp>
          </ns3:TrackPointExtension>
        </extensions>
      </trkpt>
      <trkpt lat="42.51213789917528629302978515625" lon="20.15355166979134082794189453125">
        <ele>2117.60009765625</ele>
        <time>2026-06-20T10:40:20.000Z</time>
        <extensions>
          <ns3:TrackPointExtension>
            <ns3:atemp>23.0</ns3:atemp>
          </ns3:TrackPointExtension>
        </extensions>
      </trkpt>
      <trkpt lat="42.51213974319398403167724609375" lon="20.1536397635936737060546875">
        <ele>2116.800048828125</ele>
        <time>2026-06-20T10:40:21.000Z</time>
        <extensions>
          <ns3:TrackPointExtension>
            <ns3:atemp>23.0</ns3:atemp>
          </ns3:TrackPointExtension>
        </extensions>
      </trkpt>
      <trkpt lat="42.51214007847011089324951171875" lon="20.15372400172054767608642578125">
        <ele>2115.800048828125</ele>
        <time>2026-06-20T10:40:22.000Z</time>
        <extensions>
          <ns3:TrackPointExtension>
            <ns3:atemp>23.0</ns3:atemp>
          </ns3:TrackPointExtension>
        </extensions>
      </trkpt>
      <trkpt lat="42.5121443532407283782958984375" lon="20.15380413271486759185791015625">
        <ele>2115</ele>
        <time>2026-06-20T10:40:23.000Z</time>
        <extensions>
          <ns3:TrackPointExtension>
            <ns3:atemp>23.0</ns3:atemp>
          </ns3:TrackPointExtension>
        </extensions>
      </trkpt>
      <trkpt lat="42.51213379204273223876953125" lon="20.15389096923172473907470703125">
        <ele>2113.800048828125</ele>
        <time>2026-06-20T10:40:24.000Z</time>
        <extensions>
          <ns3:TrackPointExtension>
            <ns3:atemp>23.0</ns3:atemp>
          </ns3:TrackPointExtension>
        </extensions>
      </trkpt>
      <trkpt lat="42.5120947323739528656005859375" lon="20.1539678312838077545166015625">
        <ele>2112.800048828125</ele>
        <time>2026-06-20T10:40:25.000Z</time>
        <extensions>
          <ns3:TrackPointExtension>
            <ns3:atemp>23.0</ns3:atemp>
          </ns3:TrackPointExtension>
        </extensions>
      </trkpt>
      <trkpt lat="42.51204662024974822998046875" lon="20.1540233194828033447265625">
        <ele>2111.800048828125</ele>
        <time>2026-06-20T10:40:26.000Z</time>
        <extensions>
          <ns3:TrackPointExtension>
            <ns3:atemp>23.0</ns3:atemp>
          </ns3:TrackPointExtension>
        </extensions>
      </trkpt>
      <trkpt lat="42.51199792139232158660888671875" lon="20.1540788076817989349365234375">
        <ele>2110.800048828125</ele>
        <time>2026-06-20T10:40:27.000Z</time>
        <extensions>
          <ns3:TrackPointExtension>
            <ns3:atemp>23.0</ns3:atemp>
          </ns3:TrackPointExtension>
        </extensions>
      </trkpt>
      <trkpt lat="42.5119545869529247283935546875" lon="20.15412859618663787841796875">
        <ele>2110.39990234375</ele>
        <time>2026-06-20T10:40:28.000Z</time>
        <extensions>
          <ns3:TrackPointExtension>
            <ns3:atemp>23.0</ns3:atemp>
          </ns3:TrackPointExtension>
        </extensions>
      </trkpt>
      <trkpt lat="42.511918209493160247802734375" lon="20.15418081544339656829833984375">
        <ele>2109.60009765625</ele>
        <time>2026-06-20T10:40:29.000Z</time>
        <extensions>
          <ns3:TrackPointExtension>
            <ns3:atemp>23.0</ns3:atemp>
          </ns3:TrackPointExtension>
        </extensions>
      </trkpt>
      <trkpt lat="42.51188962720334529876708984375" lon="20.15423320233821868896484375">
        <ele>2109.199951171875</ele>
        <time>2026-06-20T10:40:30.000Z</time>
        <extensions>
          <ns3:TrackPointExtension>
            <ns3:atemp>23.0</ns3:atemp>
          </ns3:TrackPointExtension>
        </extensions>
      </trkpt>
      <trkpt lat="42.51186330802738666534423828125" lon="20.1542781293392181396484375">
        <ele>2109</ele>
        <time>2026-06-20T10:40:31.000Z</time>
        <extensions>
          <ns3:TrackPointExtension>
            <ns3:atemp>23.0</ns3:atemp>
          </ns3:TrackPointExtension>
        </extensions>
      </trkpt>
      <trkpt lat="42.511836402118206024169921875" lon="20.15431542880833148956298828125">
        <ele>2109</ele>
        <time>2026-06-20T10:40:32.000Z</time>
        <extensions>
          <ns3:TrackPointExtension>
            <ns3:atemp>23.0</ns3:atemp>
          </ns3:TrackPointExtension>
        </extensions>
      </trkpt>
      <trkpt lat="42.51181460916996002197265625" lon="20.15434644185006618499755859375">
        <ele>2109</ele>
        <time>2026-06-20T10:40:33.000Z</time>
        <extensions>
          <ns3:TrackPointExtension>
            <ns3:atemp>23.0</ns3:atemp>
          </ns3:TrackPointExtension>
        </extensions>
      </trkpt>
      <trkpt lat="42.51179658807814121246337890625" lon="20.15437376685440540313720703125">
        <ele>2109</ele>
        <time>2026-06-20T10:40:34.000Z</time>
        <extensions>
          <ns3:TrackPointExtension>
            <ns3:atemp>23.0</ns3:atemp>
          </ns3:TrackPointExtension>
        </extensions>
      </trkpt>
      <trkpt lat="42.51177848316729068756103515625" lon="20.15439941547811031341552734375">
        <ele>2109.199951171875</ele>
        <time>2026-06-20T10:40:35.000Z</time>
        <extensions>
          <ns3:TrackPointExtension>
            <ns3:atemp>23.0</ns3:atemp>
          </ns3:TrackPointExtension>
        </extensions>
      </trkpt>
      <trkpt lat="42.5117611326277256011962890625" lon="20.15442221425473690032958984375">
        <ele>2109.199951171875</ele>
        <time>2026-06-20T10:40:36.000Z</time>
        <extensions>
          <ns3:TrackPointExtension>
            <ns3:atemp>23.0</ns3:atemp>
          </ns3:TrackPointExtension>
        </extensions>
      </trkpt>
      <trkpt lat="42.51174730248749256134033203125" lon="20.1544466055929660797119140625">
        <ele>2109.199951171875</ele>
        <time>2026-06-20T10:40:37.000Z</time>
        <extensions>
          <ns3:TrackPointExtension>
            <ns3:atemp>23.0</ns3:atemp>
          </ns3:TrackPointExtension>
        </extensions>
      </trkpt>
      <trkpt lat="42.5117322988808155059814453125" lon="20.15447066165506839752197265625">
        <ele>2109.39990234375</ele>
        <time>2026-06-20T10:40:38.000Z</time>
        <extensions>
          <ns3:TrackPointExtension>
            <ns3:atemp>23.0</ns3:atemp>
          </ns3:TrackPointExtension>
        </extensions>
      </trkpt>
      <trkpt lat="42.51171612180769443511962890625" lon="20.1544979028403759002685546875">
        <ele>2109.60009765625</ele>
        <time>2026-06-20T10:40:39.000Z</time>
        <extensions>
          <ns3:TrackPointExtension>
            <ns3:atemp>23.0</ns3:atemp>
          </ns3:TrackPointExtension>
        </extensions>
      </trkpt>
      <trkpt lat="42.51170237548649311065673828125" lon="20.15452480874955654144287109375">
        <ele>2109.60009765625</ele>
        <time>2026-06-20T10:40:40.000Z</time>
        <extensions>
          <ns3:TrackPointExtension>
            <ns3:atemp>23.0</ns3:atemp>
          </ns3:TrackPointExtension>
        </extensions>
      </trkpt>
      <trkpt lat="42.51168611459434032440185546875" lon="20.15455045737326145172119140625">
        <ele>2109.800048828125</ele>
        <time>2026-06-20T10:40:41.000Z</time>
        <extensions>
          <ns3:TrackPointExtension>
            <ns3:atemp>22.0</ns3:atemp>
          </ns3:TrackPointExtension>
        </extensions>
      </trkpt>
      <trkpt lat="42.5116709433495998382568359375" lon="20.154574848711490631103515625">
        <ele>2109.800048828125</ele>
        <time>2026-06-20T10:40:42.000Z</time>
        <extensions>
          <ns3:TrackPointExtension>
            <ns3:atemp>22.0</ns3:atemp>
          </ns3:TrackPointExtension>
        </extensions>
      </trkpt>
      <trkpt lat="42.51165560446679592132568359375" lon="20.15459957532584667205810546875">
        <ele>2109.800048828125</ele>
        <time>2026-06-20T10:40:43.000Z</time>
        <extensions>
          <ns3:TrackPointExtension>
            <ns3:atemp>23.0</ns3:atemp>
          </ns3:TrackPointExtension>
        </extensions>
      </trkpt>
      <trkpt lat="42.51163892447948455810546875" lon="20.15462815761566162109375">
        <ele>2109.800048828125</ele>
        <time>2026-06-20T10:40:44.000Z</time>
        <extensions>
          <ns3:TrackPointExtension>
            <ns3:atemp>23.0</ns3:atemp>
          </ns3:TrackPointExtension>
        </extensions>
      </trkpt>
      <trkpt lat="42.51161905936896800994873046875" lon="20.1546558178961277008056640625">
        <ele>2109.800048828125</ele>
        <time>2026-06-20T10:40:45.000Z</time>
        <extensions>
          <ns3:TrackPointExtension>
            <ns3:atemp>23.0</ns3:atemp>
          </ns3:TrackPointExtension>
        </extensions>
      </trkpt>
      <trkpt lat="42.5115988589823246002197265625" lon="20.15468180179595947265625">
        <ele>2109.60009765625</ele>
        <time>2026-06-20T10:40:46.000Z</time>
        <extensions>
          <ns3:TrackPointExtension>
            <ns3:atemp>23.0</ns3:atemp>
          </ns3:TrackPointExtension>
        </extensions>
      </trkpt>
      <trkpt lat="42.51158125698566436767578125" lon="20.15470770187675952911376953125">
        <ele>2109.800048828125</ele>
        <time>2026-06-20T10:40:47.000Z</time>
        <extensions>
          <ns3:TrackPointExtension>
            <ns3:atemp>23.0</ns3:atemp>
          </ns3:TrackPointExtension>
        </extensions>
      </trkpt>
      <trkpt lat="42.5115616433322429656982421875" lon="20.15473150648176670074462890625">
        <ele>2109.800048828125</ele>
        <time>2026-06-20T10:40:48.000Z</time>
        <extensions>
          <ns3:TrackPointExtension>
            <ns3:atemp>22.0</ns3:atemp>
          </ns3:TrackPointExtension>
        </extensions>
      </trkpt>
      <trkpt lat="42.51154127530753612518310546875" lon="20.1547574065625667572021484375">
        <ele>2110</ele>
        <time>2026-06-20T10:40:49.000Z</time>
        <extensions>
          <ns3:TrackPointExtension>
            <ns3:atemp>23.0</ns3:atemp>
          </ns3:TrackPointExtension>
        </extensions>
      </trkpt>
      <trkpt lat="42.5115217454731464385986328125" lon="20.15478163026273250579833984375">
        <ele>2110.199951171875</ele>
        <time>2026-06-20T10:40:50.000Z</time>
        <extensions>
          <ns3:TrackPointExtension>
            <ns3:atemp>23.0</ns3:atemp>
          </ns3:TrackPointExtension>
        </extensions>
      </trkpt>
      <trkpt lat="42.5115059874951839447021484375" lon="20.15480979345738887786865234375">
        <ele>2110.39990234375</ele>
        <time>2026-06-20T10:40:51.000Z</time>
        <extensions>
          <ns3:TrackPointExtension>
            <ns3:atemp>23.0</ns3:atemp>
          </ns3:TrackPointExtension>
        </extensions>
      </trkpt>
      <trkpt lat="42.5114868767559528350830078125" lon="20.15483611263334751129150390625">
        <ele>2110.60009765625</ele>
        <time>2026-06-20T10:40:52.000Z</time>
        <extensions>
          <ns3:TrackPointExtension>
            <ns3:atemp>23.0</ns3:atemp>
          </ns3:TrackPointExtension>
        </extensions>
      </trkpt>
      <trkpt lat="42.511472292244434356689453125" lon="20.154859833419322967529296875">
        <ele>2110.800048828125</ele>
        <time>2026-06-20T10:40:53.000Z</time>
        <extensions>
          <ns3:TrackPointExtension>
            <ns3:atemp>23.0</ns3:atemp>
          </ns3:TrackPointExtension>
        </extensions>
      </trkpt>
      <trkpt lat="42.51145795919001102447509765625" lon="20.15488556586205959320068359375">
        <ele>2111</ele>
        <time>2026-06-20T10:40:54.000Z</time>
        <extensions>
          <ns3:TrackPointExtension>
            <ns3:atemp>23.0</ns3:atemp>
          </ns3:TrackPointExtension>
        </extensions>
      </trkpt>
      <trkpt lat="42.51144488342106342315673828125" lon="20.1549059338867664337158203125">
        <ele>2111.199951171875</ele>
        <time>2026-06-20T10:40:55.000Z</time>
        <extensions>
          <ns3:TrackPointExtension>
            <ns3:atemp>22.0</ns3:atemp>
          </ns3:TrackPointExtension>
        </extensions>
      </trkpt>
      <trkpt lat="42.51142996363341808319091796875" lon="20.15493057668209075927734375">
        <ele>2111.39990234375</ele>
        <time>2026-06-20T10:40:56.000Z</time>
        <extensions>
          <ns3:TrackPointExtension>
            <ns3:atemp>22.0</ns3:atemp>
          </ns3:TrackPointExtension>
        </extensions>
      </trkpt>
      <trkpt lat="42.5114129483699798583984375" lon="20.1549552194774150848388671875">
        <ele>2111.60009765625</ele>
        <time>2026-06-20T10:40:57.000Z</time>
        <extensions>
          <ns3:TrackPointExtension>
            <ns3:atemp>23.0</ns3:atemp>
          </ns3:TrackPointExtension>
        </extensions>
      </trkpt>
      <trkpt lat="42.51139408908784389495849609375" lon="20.154973156750202178955078125">
        <ele>2111.800048828125</ele>
        <time>2026-06-20T10:40:58.000Z</time>
        <extensions>
          <ns3:TrackPointExtension>
            <ns3:atemp>22.0</ns3:atemp>
          </ns3:TrackPointExtension>
        </extensions>
      </trkpt>
      <trkpt lat="42.511379085481166839599609375" lon="20.15498983673751354217529296875">
        <ele>2112.199951171875</ele>
        <time>2026-06-20T10:40:59.000Z</time>
        <extensions>
          <ns3:TrackPointExtension>
            <ns3:atemp>23.0</ns3:atemp>
          </ns3:TrackPointExtension>
        </extensions>
      </trkpt>
      <trkpt lat="42.5113645009696483612060546875" lon="20.15500358305871486663818359375">
        <ele>2112.60009765625</ele>
        <time>2026-06-20T10:41:00.000Z</time>
        <extensions>
          <ns3:TrackPointExtension>
            <ns3:atemp>23.0</ns3:atemp>
          </ns3:TrackPointExtension>
        </extensions>
      </trkpt>
      <trkpt lat="42.511352263391017913818359375" lon="20.15501984395086765289306640625">
        <ele>2113</ele>
        <time>2026-06-20T10:41:01.000Z</time>
        <extensions>
          <ns3:TrackPointExtension>
            <ns3:atemp>22.0</ns3:atemp>
          </ns3:TrackPointExtension>
        </extensions>
      </trkpt>
      <trkpt lat="42.51134228892624378204345703125" lon="20.1550413854420185089111328125">
        <ele>2113</ele>
        <time>2026-06-20T10:41:02.000Z</time>
        <extensions>
          <ns3:TrackPointExtension>
            <ns3:atemp>22.0</ns3:atemp>
          </ns3:TrackPointExtension>
        </extensions>
      </trkpt>
      <trkpt lat="42.51132887788116931915283203125" lon="20.15507315285503864288330078125">
        <ele>2113</ele>
        <time>2026-06-20T10:41:03.000Z</time>
        <extensions>
          <ns3:TrackPointExtension>
            <ns3:atemp>22.0</ns3:atemp>
          </ns3:TrackPointExtension>
        </extensions>
      </trkpt>
      <trkpt lat="42.5113085098564624786376953125" lon="20.1551134698092937469482421875">
        <ele>2112.60009765625</ele>
        <time>2026-06-20T10:41:04.000Z</time>
        <extensions>
          <ns3:TrackPointExtension>
            <ns3:atemp>22.0</ns3:atemp>
          </ns3:TrackPointExtension>
        </extensions>
      </trkpt>
      <trkpt lat="42.5112842023372650146484375" lon="20.15515143983066082000732421875">
        <ele>2112.199951171875</ele>
        <time>2026-06-20T10:41:05.000Z</time>
        <extensions>
          <ns3:TrackPointExtension>
            <ns3:atemp>22.0</ns3:atemp>
          </ns3:TrackPointExtension>
        </extensions>
      </trkpt>
      <trkpt lat="42.51126685179769992828369140625" lon="20.155186392366886138916015625">
        <ele>2111.39990234375</ele>
        <time>2026-06-20T10:41:06.000Z</time>
        <extensions>
          <ns3:TrackPointExtension>
            <ns3:atemp>22.0</ns3:atemp>
          </ns3:TrackPointExtension>
        </extensions>
      </trkpt>
      <trkpt lat="42.5112488307058811187744140625" lon="20.15522696077823638916015625">
        <ele>2110.60009765625</ele>
        <time>2026-06-20T10:41:07.000Z</time>
        <extensions>
          <ns3:TrackPointExtension>
            <ns3:atemp>22.0</ns3:atemp>
          </ns3:TrackPointExtension>
        </extensions>
      </trkpt>
      <trkpt lat="42.511238940060138702392578125" lon="20.15527951531112194061279296875">
        <ele>2110</ele>
        <time>2026-06-20T10:41:08.000Z</time>
        <extensions>
          <ns3:TrackPointExtension>
            <ns3:atemp>22.0</ns3:atemp>
          </ns3:TrackPointExtension>
        </extensions>
      </trkpt>
      <trkpt lat="42.5112313963472843170166015625" lon="20.15533366240561008453369140625">
        <ele>2109.39990234375</ele>
        <time>2026-06-20T10:41:09.000Z</time>
        <extensions>
          <ns3:TrackPointExtension>
            <ns3:atemp>22.0</ns3:atemp>
          </ns3:TrackPointExtension>
        </extensions>
      </trkpt>
      <trkpt lat="42.51122879795730113983154296875" lon="20.15539602376520633697509765625">
        <ele>2108.800048828125</ele>
        <time>2026-06-20T10:41:10.000Z</time>
        <extensions>
          <ns3:TrackPointExtension>
            <ns3:atemp>22.0</ns3:atemp>
          </ns3:TrackPointExtension>
        </extensions>
      </trkpt>
      <trkpt lat="42.5112240202724933624267578125" lon="20.155453942716121673583984375">
        <ele>2108.199951171875</ele>
        <time>2026-06-20T10:41:11.000Z</time>
        <extensions>
          <ns3:TrackPointExtension>
            <ns3:atemp>22.0</ns3:atemp>
          </ns3:TrackPointExtension>
        </extensions>
      </trkpt>
      <trkpt lat="42.51121890731155872344970703125" lon="20.1554970256984233856201171875">
        <ele>2107.800048828125</ele>
        <time>2026-06-20T10:41:12.000Z</time>
        <extensions>
          <ns3:TrackPointExtension>
            <ns3:atemp>22.0</ns3:atemp>
          </ns3:TrackPointExtension>
        </extensions>
      </trkpt>
      <trkpt lat="42.51121270470321178436279296875" lon="20.15553717501461505889892578125">
        <ele>2107.60009765625</ele>
        <time>2026-06-20T10:41:13.000Z</time>
        <extensions>
          <ns3:TrackPointExtension>
            <ns3:atemp>22.0</ns3:atemp>
          </ns3:TrackPointExtension>
        </extensions>
      </trkpt>
      <trkpt lat="42.511208765208721160888671875" lon="20.155568607151508331298828125">
        <ele>2107.39990234375</ele>
        <time>2026-06-20T10:41:14.000Z</time>
        <extensions>
          <ns3:TrackPointExtension>
            <ns3:atemp>22.0</ns3:atemp>
          </ns3:TrackPointExtension>
        </extensions>
      </trkpt>
      <trkpt lat="42.51119979657232761383056640625" lon="20.15560439787805080413818359375">
        <ele>2107.199951171875</ele>
        <time>2026-06-20T10:41:15.000Z</time>
        <extensions>
          <ns3:TrackPointExtension>
            <ns3:atemp>22.0</ns3:atemp>
          </ns3:TrackPointExtension>
        </extensions>
      </trkpt>
      <trkpt lat="42.51118102110922336578369140625" lon="20.15562552027404308319091796875">
        <ele>2107.199951171875</ele>
        <time>2026-06-20T10:41:16.000Z</time>
        <extensions>
          <ns3:TrackPointExtension>
            <ns3:atemp>22.0</ns3:atemp>
          </ns3:TrackPointExtension>
        </extensions>
      </trkpt>
      <trkpt lat="42.51115604303777217864990234375" lon="20.15563691966235637664794921875">
        <ele>2107.199951171875</ele>
        <time>2026-06-20T10:41:17.000Z</time>
        <extensions>
          <ns3:TrackPointExtension>
            <ns3:atemp>22.0</ns3:atemp>
          </ns3:TrackPointExtension>
        </extensions>
      </trkpt>
      <trkpt lat="42.51112553291022777557373046875" lon="20.15564806759357452392578125">
        <ele>2107</ele>
        <time>2026-06-20T10:41:18.000Z</time>
        <extensions>
          <ns3:TrackPointExtension>
            <ns3:atemp>22.0</ns3:atemp>
          </ns3:TrackPointExtension>
        </extensions>
      </trkpt>
      <trkpt lat="42.51108647324144840240478515625" lon="20.1556763984262943267822265625">
        <ele>2106.60009765625</ele>
        <time>2026-06-20T10:41:19.000Z</time>
        <extensions>
          <ns3:TrackPointExtension>
            <ns3:atemp>22.0</ns3:atemp>
          </ns3:TrackPointExtension>
        </extensions>
      </trkpt>
      <trkpt lat="42.51104892231523990631103515625" lon="20.1557131111621856689453125">
        <ele>2106.199951171875</ele>
        <time>2026-06-20T10:41:20.000Z</time>
        <extensions>
          <ns3:TrackPointExtension>
            <ns3:atemp>22.0</ns3:atemp>
          </ns3:TrackPointExtension>
        </extensions>
      </trkpt>
      <trkpt lat="42.5110174901783466339111328125" lon="20.15574890188872814178466796875">
        <ele>2106</ele>
        <time>2026-06-20T10:41:21.000Z</time>
        <extensions>
          <ns3:TrackPointExtension>
            <ns3:atemp>22.0</ns3:atemp>
          </ns3:TrackPointExtension>
        </extensions>
      </trkpt>
      <trkpt lat="42.51099695451557636260986328125" lon="20.15578997321426868438720703125">
        <ele>2105.39990234375</ele>
        <time>2026-06-20T10:41:22.000Z</time>
        <extensions>
          <ns3:TrackPointExtension>
            <ns3:atemp>22.0</ns3:atemp>
          </ns3:TrackPointExtension>
        </extensions>
      </trkpt>
      <trkpt lat="42.51097935251891613006591796875" lon="20.155839510262012481689453125">
        <ele>2105</ele>
        <time>2026-06-20T10:41:23.000Z</time>
        <extensions>
          <ns3:TrackPointExtension>
            <ns3:atemp>22.0</ns3:atemp>
          </ns3:TrackPointExtension>
        </extensions>
      </trkpt>
      <trkpt lat="42.5109636783599853515625" lon="20.1558913104236125946044921875">
        <ele>2104.60009765625</ele>
        <time>2026-06-20T10:41:24.000Z</time>
        <extensions>
          <ns3:TrackPointExtension>
            <ns3:atemp>22.0</ns3:atemp>
          </ns3:TrackPointExtension>
        </extensions>
      </trkpt>
      <trkpt lat="42.51094683073461055755615234375" lon="20.1559379138052463531494140625">
        <ele>2104.39990234375</ele>
        <time>2026-06-20T10:41:25.000Z</time>
        <extensions>
          <ns3:TrackPointExtension>
            <ns3:atemp>22.0</ns3:atemp>
          </ns3:TrackPointExtension>
        </extensions>
      </trkpt>
      <trkpt lat="42.510930486023426055908203125" lon="20.155980996787548065185546875">
        <ele>2104</ele>
        <time>2026-06-20T10:41:26.000Z</time>
        <extensions>
          <ns3:TrackPointExtension>
            <ns3:atemp>22.0</ns3:atemp>
          </ns3:TrackPointExtension>
        </extensions>
      </trkpt>
      <trkpt lat="42.51091196201741695404052734375" lon="20.15601955354213714599609375">
        <ele>2103.60009765625</ele>
        <time>2026-06-20T10:41:27.000Z</time>
        <extensions>
          <ns3:TrackPointExtension>
            <ns3:atemp>22.0</ns3:atemp>
          </ns3:TrackPointExtension>
        </extensions>
      </trkpt>
      <trkpt lat="42.51089201308786869049072265625" lon="20.156053416430950164794921875">
        <ele>2103.39990234375</ele>
        <time>2026-06-20T10:41:28.000Z</time>
        <extensions>
          <ns3:TrackPointExtension>
            <ns3:atemp>22.0</ns3:atemp>
          </ns3:TrackPointExtension>
        </extensions>
      </trkpt>
      <trkpt lat="42.5108713097870349884033203125" lon="20.15608384273946285247802734375">
        <ele>2103.39990234375</ele>
        <time>2026-06-20T10:41:29.000Z</time>
        <extensions>
          <ns3:TrackPointExtension>
            <ns3:atemp>22.0</ns3:atemp>
          </ns3:TrackPointExtension>
        </extensions>
      </trkpt>
      <trkpt lat="42.51085446216166019439697265625" lon="20.1561119221150875091552734375">
        <ele>2103.199951171875</ele>
        <time>2026-06-20T10:41:30.000Z</time>
        <extensions>
          <ns3:TrackPointExtension>
            <ns3:atemp>22.0</ns3:atemp>
          </ns3:TrackPointExtension>
        </extensions>
      </trkpt>
      <trkpt lat="42.51083384267985820770263671875" lon="20.15613463707268238067626953125">
        <ele>2103.199951171875</ele>
        <time>2026-06-20T10:41:31.000Z</time>
        <extensions>
          <ns3:TrackPointExtension>
            <ns3:atemp>22.0</ns3:atemp>
          </ns3:TrackPointExtension>
        </extensions>
      </trkpt>
      <trkpt lat="42.51081406138837337493896484375" lon="20.15616212971508502960205078125">
        <ele>2103.199951171875</ele>
        <time>2026-06-20T10:41:32.000Z</time>
        <extensions>
          <ns3:TrackPointExtension>
            <ns3:atemp>22.0</ns3:atemp>
          </ns3:TrackPointExtension>
        </extensions>
      </trkpt>
      <trkpt lat="42.51079461537301540374755859375" lon="20.1561920531094074249267578125">
        <ele>2103.199951171875</ele>
        <time>2026-06-20T10:41:33.000Z</time>
        <extensions>
          <ns3:TrackPointExtension>
            <ns3:atemp>22.0</ns3:atemp>
          </ns3:TrackPointExtension>
        </extensions>
      </trkpt>
      <trkpt lat="42.51077533699572086334228515625" lon="20.1562148518860340118408203125">
        <ele>2103.199951171875</ele>
        <time>2026-06-20T10:41:34.000Z</time>
        <extensions>
          <ns3:TrackPointExtension>
            <ns3:atemp>22.0</ns3:atemp>
          </ns3:TrackPointExtension>
        </extensions>
      </trkpt>
      <trkpt lat="42.51076276414096355438232421875" lon="20.15623538754880428314208984375">
        <ele>2103.199951171875</ele>
        <time>2026-06-20T10:41:35.000Z</time>
        <extensions>
          <ns3:TrackPointExtension>
            <ns3:atemp>22.0</ns3:atemp>
          </ns3:TrackPointExtension>
        </extensions>
      </trkpt>
      <trkpt lat="42.510744743049144744873046875" lon="20.15624997206032276153564453125">
        <ele>2103.199951171875</ele>
        <time>2026-06-20T10:41:36.000Z</time>
        <extensions>
          <ns3:TrackPointExtension>
            <ns3:atemp>22.0</ns3:atemp>
          </ns3:TrackPointExtension>
        </extensions>
      </trkpt>
      <trkpt lat="42.51072756014764308929443359375" lon="20.156267322599887847900390625">
        <ele>2103.199951171875</ele>
        <time>2026-06-20T10:41:37.000Z</time>
        <extensions>
          <ns3:TrackPointExtension>
            <ns3:atemp>22.0</ns3:atemp>
          </ns3:TrackPointExtension>
        </extensions>
      </trkpt>
      <trkpt lat="42.5107048451900482177734375" lon="20.15628366731107234954833984375">
        <ele>2103.39990234375</ele>
        <time>2026-06-20T10:41:38.000Z</time>
        <extensions>
          <ns3:TrackPointExtension>
            <ns3:atemp>22.0</ns3:atemp>
          </ns3:TrackPointExtension>
        </extensions>
      </trkpt>
      <trkpt lat="42.51068045385181903839111328125" lon="20.15629439614713191986083984375">
        <ele>2103.39990234375</ele>
        <time>2026-06-20T10:41:39.000Z</time>
        <extensions>
          <ns3:TrackPointExtension>
            <ns3:atemp>22.0</ns3:atemp>
          </ns3:TrackPointExtension>
        </extensions>
      </trkpt>
      <trkpt lat="42.510655559599399566650390625" lon="20.15630261041224002838134765625">
        <ele>2103.39990234375</ele>
        <time>2026-06-20T10:41:40.000Z</time>
        <extensions>
          <ns3:TrackPointExtension>
            <ns3:atemp>22.0</ns3:atemp>
          </ns3:TrackPointExtension>
        </extensions>
      </trkpt>
      <trkpt lat="42.5106324255466461181640625" lon="20.1563026942312717437744140625">
        <ele>2103.60009765625</ele>
        <time>2026-06-20T10:41:41.000Z</time>
        <extensions>
          <ns3:TrackPointExtension>
            <ns3:atemp>22.0</ns3:atemp>
          </ns3:TrackPointExtension>
        </extensions>
      </trkpt>
      <trkpt lat="42.51060635782778263092041015625" lon="20.1563020236790180206298828125">
        <ele>2103.60009765625</ele>
        <time>2026-06-20T10:41:42.000Z</time>
        <extensions>
          <ns3:TrackPointExtension>
            <ns3:atemp>22.0</ns3:atemp>
          </ns3:TrackPointExtension>
        </extensions>
      </trkpt>
      <trkpt lat="42.51057450659573078155517578125" lon="20.15630520880222320556640625">
        <ele>2103.60009765625</ele>
        <time>2026-06-20T10:41:43.000Z</time>
        <extensions>
          <ns3:TrackPointExtension>
            <ns3:atemp>22.0</ns3:atemp>
          </ns3:TrackPointExtension>
        </extensions>
      </trkpt>
      <trkpt lat="42.51054617576301097869873046875" lon="20.1563107408583164215087890625">
        <ele>2103.60009765625</ele>
        <time>2026-06-20T10:41:44.000Z</time>
        <extensions>
          <ns3:TrackPointExtension>
            <ns3:atemp>22.0</ns3:atemp>
          </ns3:TrackPointExtension>
        </extensions>
      </trkpt>
      <trkpt lat="42.510519437491893768310546875" lon="20.15632205642759799957275390625">
        <ele>2103.60009765625</ele>
        <time>2026-06-20T10:41:45.000Z</time>
        <extensions>
          <ns3:TrackPointExtension>
            <ns3:atemp>22.0</ns3:atemp>
          </ns3:TrackPointExtension>
        </extensions>
      </trkpt>
      <trkpt lat="42.51049093902111053466796875" lon="20.15633882023394107818603515625">
        <ele>2103.39990234375</ele>
        <time>2026-06-20T10:41:46.000Z</time>
        <extensions>
          <ns3:TrackPointExtension>
            <ns3:atemp>22.0</ns3:atemp>
          </ns3:TrackPointExtension>
        </extensions>
      </trkpt>
      <trkpt lat="42.51046805642545223236083984375" lon="20.15636421740055084228515625">
        <ele>2103.39990234375</ele>
        <time>2026-06-20T10:41:47.000Z</time>
        <extensions>
          <ns3:TrackPointExtension>
            <ns3:atemp>22.0</ns3:atemp>
          </ns3:TrackPointExtension>
        </extensions>
      </trkpt>
      <trkpt lat="42.5104486942291259765625" lon="20.15639497898519039154052734375">
        <ele>2103.39990234375</ele>
        <time>2026-06-20T10:41:48.000Z</time>
        <extensions>
          <ns3:TrackPointExtension>
            <ns3:atemp>22.0</ns3:atemp>
          </ns3:TrackPointExtension>
        </extensions>
      </trkpt>
      <trkpt lat="42.51042899675667285919189453125" lon="20.15642045997083187103271484375">
        <ele>2103.60009765625</ele>
        <time>2026-06-20T10:41:49.000Z</time>
        <extensions>
          <ns3:TrackPointExtension>
            <ns3:atemp>22.0</ns3:atemp>
          </ns3:TrackPointExtension>
        </extensions>
      </trkpt>
      <trkpt lat="42.51041374169290065765380859375" lon="20.156445018947124481201171875">
        <ele>2103.800048828125</ele>
        <time>2026-06-20T10:41:50.000Z</time>
        <extensions>
          <ns3:TrackPointExtension>
            <ns3:atemp>22.0</ns3:atemp>
          </ns3:TrackPointExtension>
        </extensions>
      </trkpt>
      <trkpt lat="42.510401420295238494873046875" lon="20.15647628344595432281494140625">
        <ele>2103.800048828125</ele>
        <time>2026-06-20T10:41:51.000Z</time>
        <extensions>
          <ns3:TrackPointExtension>
            <ns3:atemp>22.0</ns3:atemp>
          </ns3:TrackPointExtension>
        </extensions>
      </trkpt>
      <trkpt lat="42.5103891827166080474853515625" lon="20.15651064924895763397216796875">
        <ele>2104</ele>
        <time>2026-06-20T10:41:52.000Z</time>
        <extensions>
          <ns3:TrackPointExtension>
            <ns3:atemp>22.0</ns3:atemp>
          </ns3:TrackPointExtension>
        </extensions>
      </trkpt>
      <trkpt lat="42.5103722512722015380859375" lon="20.15654501505196094512939453125">
        <ele>2104</ele>
        <time>2026-06-20T10:41:53.000Z</time>
        <extensions>
          <ns3:TrackPointExtension>
            <ns3:atemp>22.0</ns3:atemp>
          </ns3:TrackPointExtension>
        </extensions>
      </trkpt>
      <trkpt lat="42.51035339199006557464599609375" lon="20.15657736919820308685302734375">
        <ele>2104</ele>
        <time>2026-06-20T10:41:54.000Z</time>
        <extensions>
          <ns3:TrackPointExtension>
            <ns3:atemp>22.0</ns3:atemp>
          </ns3:TrackPointExtension>
        </extensions>
      </trkpt>
      <trkpt lat="42.51033511944115161895751953125" lon="20.15660829842090606689453125">
        <ele>2104</ele>
        <time>2026-06-20T10:41:55.000Z</time>
        <extensions>
          <ns3:TrackPointExtension>
            <ns3:atemp>22.0</ns3:atemp>
          </ns3:TrackPointExtension>
        </extensions>
      </trkpt>
      <trkpt lat="42.5103204511106014251708984375" lon="20.1566438376903533935546875">
        <ele>2104</ele>
        <time>2026-06-20T10:41:56.000Z</time>
        <extensions>
          <ns3:TrackPointExtension>
            <ns3:atemp>22.0</ns3:atemp>
          </ns3:TrackPointExtension>
        </extensions>
      </trkpt>
      <trkpt lat="42.51030947081744670867919921875" lon="20.15668113715946674346923828125">
        <ele>2104.199951171875</ele>
        <time>2026-06-20T10:41:57.000Z</time>
        <extensions>
          <ns3:TrackPointExtension>
            <ns3:atemp>22.0</ns3:atemp>
          </ns3:TrackPointExtension>
        </extensions>
      </trkpt>
      <trkpt lat="42.51030125655233860015869140625" lon="20.156713239848613739013671875">
        <ele>2104.39990234375</ele>
        <time>2026-06-20T10:41:58.000Z</time>
        <extensions>
          <ns3:TrackPointExtension>
            <ns3:atemp>22.0</ns3:atemp>
          </ns3:TrackPointExtension>
        </extensions>
      </trkpt>
      <trkpt lat="42.51029471866786479949951171875" lon="20.15674483962357044219970703125">
        <ele>2104.39990234375</ele>
        <time>2026-06-20T10:41:59.000Z</time>
        <extensions>
          <ns3:TrackPointExtension>
            <ns3:atemp>22.0</ns3:atemp>
          </ns3:TrackPointExtension>
        </extensions>
      </trkpt>
      <trkpt lat="42.51028985716402530670166015625" lon="20.156778953969478607177734375">
        <ele>2104.60009765625</ele>
        <time>2026-06-20T10:42:00.000Z</time>
        <extensions>
          <ns3:TrackPointExtension>
            <ns3:atemp>22.0</ns3:atemp>
          </ns3:TrackPointExtension>
        </extensions>
      </trkpt>
      <trkpt lat="42.51028398983180522918701171875" lon="20.1568123139441013336181640625">
        <ele>2104.60009765625</ele>
        <time>2026-06-20T10:42:01.000Z</time>
        <extensions>
          <ns3:TrackPointExtension>
            <ns3:atemp>22.0</ns3:atemp>
          </ns3:TrackPointExtension>
        </extensions>
      </trkpt>
      <trkpt lat="42.51027108170092105865478515625" lon="20.156843662261962890625">
        <ele>2104.60009765625</ele>
        <time>2026-06-20T10:42:02.000Z</time>
        <extensions>
          <ns3:TrackPointExtension>
            <ns3:atemp>22.0</ns3:atemp>
          </ns3:TrackPointExtension>
        </extensions>
      </trkpt>
      <trkpt lat="42.51025498844683170318603515625" lon="20.15687559731304645538330078125">
        <ele>2104.60009765625</ele>
        <time>2026-06-20T10:42:03.000Z</time>
        <extensions>
          <ns3:TrackPointExtension>
            <ns3:atemp>22.0</ns3:atemp>
          </ns3:TrackPointExtension>
        </extensions>
      </trkpt>
      <trkpt lat="42.51023721881210803985595703125" lon="20.1569045148789882659912109375">
        <ele>2104.60009765625</ele>
        <time>2026-06-20T10:42:04.000Z</time>
        <extensions>
          <ns3:TrackPointExtension>
            <ns3:atemp>22.0</ns3:atemp>
          </ns3:TrackPointExtension>
        </extensions>
      </trkpt>
      <trkpt lat="42.5102208741009235382080078125" lon="20.1569281518459320068359375">
        <ele>2104.60009765625</ele>
        <time>2026-06-20T10:42:05.000Z</time>
        <extensions>
          <ns3:TrackPointExtension>
            <ns3:atemp>22.0</ns3:atemp>
          </ns3:TrackPointExtension>
        </extensions>
      </trkpt>
      <trkpt lat="42.510198913514614105224609375" lon="20.15695120207965373992919921875">
        <ele>2104.60009765625</ele>
        <time>2026-06-20T10:42:06.000Z</time>
        <extensions>
          <ns3:TrackPointExtension>
            <ns3:atemp>22.0</ns3:atemp>
          </ns3:TrackPointExtension>
        </extensions>
      </trkpt>
      <trkpt lat="42.51017309725284576416015625" lon="20.15697232447564601898193359375">
        <ele>2104.60009765625</ele>
        <time>2026-06-20T10:42:07.000Z</time>
        <extensions>
          <ns3:TrackPointExtension>
            <ns3:atemp>22.0</ns3:atemp>
          </ns3:TrackPointExtension>
        </extensions>
      </trkpt>
      <trkpt lat="42.51015172339975833892822265625" lon="20.15699948184192180633544921875">
        <ele>2104.39990234375</ele>
        <time>2026-06-20T10:42:08.000Z</time>
        <extensions>
          <ns3:TrackPointExtension>
            <ns3:atemp>22.0</ns3:atemp>
          </ns3:TrackPointExtension>
        </extensions>
      </trkpt>
      <trkpt lat="42.51012523658573627471923828125" lon="20.15702228061854839324951171875">
        <ele>2104.39990234375</ele>
        <time>2026-06-20T10:42:09.000Z</time>
        <extensions>
          <ns3:TrackPointExtension>
            <ns3:atemp>22.0</ns3:atemp>
          </ns3:TrackPointExtension>
        </extensions>
      </trkpt>
      <trkpt lat="42.51009321771562099456787109375" lon="20.15704424120485782623291015625">
        <ele>2104.199951171875</ele>
        <time>2026-06-20T10:42:10.000Z</time>
        <extensions>
          <ns3:TrackPointExtension>
            <ns3:atemp>22.0</ns3:atemp>
          </ns3:TrackPointExtension>
        </extensions>
      </trkpt>
      <trkpt lat="42.51005642116069793701171875" lon="20.15706620179116725921630859375">
        <ele>2104</ele>
        <time>2026-06-20T10:42:11.000Z</time>
        <extensions>
          <ns3:TrackPointExtension>
            <ns3:atemp>22.0</ns3:atemp>
          </ns3:TrackPointExtension>
        </extensions>
      </trkpt>
      <trkpt lat="42.51001861877739429473876953125" lon="20.15709805302321910858154296875">
        <ele>2103.39990234375</ele>
        <time>2026-06-20T10:42:12.000Z</time>
        <extensions>
          <ns3:TrackPointExtension>
            <ns3:atemp>22.0</ns3:atemp>
          </ns3:TrackPointExtension>
        </extensions>
      </trkpt>
      <trkpt lat="42.50998140312731266021728515625" lon="20.15712596476078033447265625">
        <ele>2103</ele>
        <time>2026-06-20T10:42:13.000Z</time>
        <extensions>
          <ns3:TrackPointExtension>
            <ns3:atemp>22.0</ns3:atemp>
          </ns3:TrackPointExtension>
        </extensions>
      </trkpt>
      <trkpt lat="42.509944103658199310302734375" lon="20.1571613363921642303466796875">
        <ele>2102.60009765625</ele>
        <time>2026-06-20T10:42:14.000Z</time>
        <extensions>
          <ns3:TrackPointExtension>
            <ns3:atemp>22.0</ns3:atemp>
          </ns3:TrackPointExtension>
        </extensions>
      </trkpt>
      <trkpt lat="42.509907893836498260498046875" lon="20.1571958698332309722900390625">
        <ele>2102.199951171875</ele>
        <time>2026-06-20T10:42:15.000Z</time>
        <extensions>
          <ns3:TrackPointExtension>
            <ns3:atemp>22.0</ns3:atemp>
          </ns3:TrackPointExtension>
        </extensions>
      </trkpt>
      <trkpt lat="42.50987629406154155731201171875" lon="20.157234258949756622314453125">
        <ele>2101.800048828125</ele>
        <time>2026-06-20T10:42:16.000Z</time>
        <extensions>
          <ns3:TrackPointExtension>
            <ns3:atemp>22.0</ns3:atemp>
          </ns3:TrackPointExtension>
        </extensions>
      </trkpt>
      <trkpt lat="42.5098453648388385772705078125" lon="20.15727222897112369537353515625">
        <ele>2101.800048828125</ele>
        <time>2026-06-20T10:42:17.000Z</time>
        <extensions>
          <ns3:TrackPointExtension>
            <ns3:atemp>22.0</ns3:atemp>
          </ns3:TrackPointExtension>
        </extensions>
      </trkpt>
      <trkpt lat="42.5098089873790740966796875" lon="20.1573004759848117828369140625">
        <ele>2101.60009765625</ele>
        <time>2026-06-20T10:42:18.000Z</time>
        <extensions>
          <ns3:TrackPointExtension>
            <ns3:atemp>22.0</ns3:atemp>
          </ns3:TrackPointExtension>
        </extensions>
      </trkpt>
      <trkpt lat="42.50977152027189731597900390625" lon="20.15730860643088817596435546875">
        <ele>2101.39990234375</ele>
        <time>2026-06-20T10:42:19.000Z</time>
        <extensions>
          <ns3:TrackPointExtension>
            <ns3:atemp>22.0</ns3:atemp>
          </ns3:TrackPointExtension>
        </extensions>
      </trkpt>
      <trkpt lat="42.50973128713667392730712890625" lon="20.1572951115667819976806640625">
        <ele>2101.199951171875</ele>
        <time>2026-06-20T10:42:20.000Z</time>
        <extensions>
          <ns3:TrackPointExtension>
            <ns3:atemp>22.0</ns3:atemp>
          </ns3:TrackPointExtension>
        </extensions>
      </trkpt>
      <trkpt lat="42.50968501903116703033447265625" lon="20.15728111378848552703857421875">
        <ele>2101</ele>
        <time>2026-06-20T10:42:21.000Z</time>
        <extensions>
          <ns3:TrackPointExtension>
            <ns3:atemp>22.0</ns3:atemp>
          </ns3:TrackPointExtension>
        </extensions>
      </trkpt>
      <trkpt lat="42.50963799655437469482421875" lon="20.1572929322719573974609375">
        <ele>2100.60009765625</ele>
        <time>2026-06-20T10:42:22.000Z</time>
        <extensions>
          <ns3:TrackPointExtension>
            <ns3:atemp>22.0</ns3:atemp>
          </ns3:TrackPointExtension>
        </extensions>
      </trkpt>
      <trkpt lat="42.509596087038516998291015625" lon="20.15731983818113803863525390625">
        <ele>2100.199951171875</ele>
        <time>2026-06-20T10:42:23.000Z</time>
        <extensions>
          <ns3:TrackPointExtension>
            <ns3:atemp>22.0</ns3:atemp>
          </ns3:TrackPointExtension>
        </extensions>
      </trkpt>
      <trkpt lat="42.50955979339778423309326171875" lon="20.15734900720417499542236328125">
        <ele>2099.800048828125</ele>
        <time>2026-06-20T10:42:24.000Z</time>
        <extensions>
          <ns3:TrackPointExtension>
            <ns3:atemp>22.0</ns3:atemp>
          </ns3:TrackPointExtension>
        </extensions>
      </trkpt>
      <trkpt lat="42.50952928327023983001708984375" lon="20.15738102607429027557373046875">
        <ele>2099.39990234375</ele>
        <time>2026-06-20T10:42:25.000Z</time>
        <extensions>
          <ns3:TrackPointExtension>
            <ns3:atemp>22.0</ns3:atemp>
          </ns3:TrackPointExtension>
        </extensions>
      </trkpt>
      <trkpt lat="42.50950262881815433502197265625" lon="20.1574141345918178558349609375">
        <ele>2099.199951171875</ele>
        <time>2026-06-20T10:42:26.000Z</time>
        <extensions>
          <ns3:TrackPointExtension>
            <ns3:atemp>22.0</ns3:atemp>
          </ns3:TrackPointExtension>
        </extensions>
      </trkpt>
      <trkpt lat="42.50949022360146045684814453125" lon="20.1574485003948211669921875">
        <ele>2099.199951171875</ele>
        <time>2026-06-20T10:42:27.000Z</time>
        <extensions>
          <ns3:TrackPointExtension>
            <ns3:atemp>22.0</ns3:atemp>
          </ns3:TrackPointExtension>
        </extensions>
      </trkpt>
      <trkpt lat="42.5094815902411937713623046875" lon="20.157479345798492431640625">
        <ele>2099.199951171875</ele>
        <time>2026-06-20T10:42:28.000Z</time>
        <extensions>
          <ns3:TrackPointExtension>
            <ns3:atemp>22.0</ns3:atemp>
          </ns3:TrackPointExtension>
        </extensions>
      </trkpt>
      <trkpt lat="42.50946843065321445465087890625" lon="20.15750289894640445709228515625">
        <ele>2099.199951171875</ele>
        <time>2026-06-20T10:42:29.000Z</time>
        <extensions>
          <ns3:TrackPointExtension>
            <ns3:atemp>22.0</ns3:atemp>
          </ns3:TrackPointExtension>
        </extensions>
      </trkpt>
      <trkpt lat="42.509453594684600830078125" lon="20.15752402134239673614501953125">
        <ele>2099.39990234375</ele>
        <time>2026-06-20T10:42:30.000Z</time>
        <extensions>
          <ns3:TrackPointExtension>
            <ns3:atemp>22.0</ns3:atemp>
          </ns3:TrackPointExtension>
        </extensions>
      </trkpt>
      <trkpt lat="42.5094343163073062896728515625" lon="20.15753860585391521453857421875">
        <ele>2099.39990234375</ele>
        <time>2026-06-20T10:42:31.000Z</time>
        <extensions>
          <ns3:TrackPointExtension>
            <ns3:atemp>22.0</ns3:atemp>
          </ns3:TrackPointExtension>
        </extensions>
      </trkpt>
      <trkpt lat="42.50940958969295024871826171875" lon="20.1575531065464019775390625">
        <ele>2099.39990234375</ele>
        <time>2026-06-20T10:42:32.000Z</time>
        <extensions>
          <ns3:TrackPointExtension>
            <ns3:atemp>22.0</ns3:atemp>
          </ns3:TrackPointExtension>
        </extensions>
      </trkpt>
      <trkpt lat="42.50938477925956249237060546875" lon="20.1575743965804576873779296875">
        <ele>2099.39990234375</ele>
        <time>2026-06-20T10:42:33.000Z</time>
        <extensions>
          <ns3:TrackPointExtension>
            <ns3:atemp>22.0</ns3:atemp>
          </ns3:TrackPointExtension>
        </extensions>
      </trkpt>
      <trkpt lat="42.5093672610819339752197265625" lon="20.15760499052703380584716796875">
        <ele>2099.199951171875</ele>
        <time>2026-06-20T10:42:34.000Z</time>
        <extensions>
          <ns3:TrackPointExtension>
            <ns3:atemp>22.0</ns3:atemp>
          </ns3:TrackPointExtension>
        </extensions>
      </trkpt>
      <trkpt lat="42.50935343094170093536376953125" lon="20.1576384343206882476806640625">
        <ele>2099</ele>
        <time>2026-06-20T10:42:35.000Z</time>
        <extensions>
          <ns3:TrackPointExtension>
            <ns3:atemp>22.0</ns3:atemp>
          </ns3:TrackPointExtension>
        </extensions>
      </trkpt>
      <trkpt lat="42.509343624114990234375" lon="20.157676823437213897705078125">
        <ele>2098.60009765625</ele>
        <time>2026-06-20T10:42:36.000Z</time>
        <extensions>
          <ns3:TrackPointExtension>
            <ns3:atemp>22.0</ns3:atemp>
          </ns3:TrackPointExtension>
        </extensions>
      </trkpt>
      <trkpt lat="42.50933281145989894866943359375" lon="20.15772267244756221771240234375">
        <ele>2098.199951171875</ele>
        <time>2026-06-20T10:42:37.000Z</time>
        <extensions>
          <ns3:TrackPointExtension>
            <ns3:atemp>22.0</ns3:atemp>
          </ns3:TrackPointExtension>
        </extensions>
      </trkpt>
      <trkpt lat="42.509321160614490509033203125" lon="20.15776257030665874481201171875">
        <ele>2097.800048828125</ele>
        <time>2026-06-20T10:42:38.000Z</time>
        <extensions>
          <ns3:TrackPointExtension>
            <ns3:atemp>22.0</ns3:atemp>
          </ns3:TrackPointExtension>
        </extensions>
      </trkpt>
      <trkpt lat="42.509307749569416046142578125" lon="20.15778536908328533172607421875">
        <ele>2097.60009765625</ele>
        <time>2026-06-20T10:42:39.000Z</time>
        <extensions>
          <ns3:TrackPointExtension>
            <ns3:atemp>22.0</ns3:atemp>
          </ns3:TrackPointExtension>
        </extensions>
      </trkpt>
      <trkpt lat="42.5093002058565616607666015625" lon="20.1577940024435520172119140625">
        <ele>2097.39990234375</ele>
        <time>2026-06-20T10:42:40.000Z</time>
        <extensions>
          <ns3:TrackPointExtension>
            <ns3:atemp>22.0</ns3:atemp>
          </ns3:TrackPointExtension>
        </extensions>
      </trkpt>
      <trkpt lat="42.5093008764088153839111328125" lon="20.15779408626258373260498046875">
        <ele>2097.199951171875</ele>
        <time>2026-06-20T10:42:41.000Z</time>
        <extensions>
          <ns3:TrackPointExtension>
            <ns3:atemp>22.0</ns3:atemp>
          </ns3:TrackPointExtension>
        </extensions>
      </trkpt>
      <trkpt lat="42.5093008764088153839111328125" lon="20.15779408626258373260498046875">
        <ele>2097.199951171875</ele>
        <time>2026-06-20T10:42:42.000Z</time>
        <extensions>
          <ns3:TrackPointExtension>
            <ns3:atemp>22.0</ns3:atemp>
          </ns3:TrackPointExtension>
        </extensions>
      </trkpt>
      <trkpt lat="42.5093008764088153839111328125" lon="20.15779408626258373260498046875">
        <ele>2097.199951171875</ele>
        <time>2026-06-20T10:42:43.000Z</time>
        <extensions>
          <ns3:TrackPointExtension>
            <ns3:atemp>22.0</ns3:atemp>
          </ns3:TrackPointExtension>
        </extensions>
      </trkpt>
      <trkpt lat="42.5093008764088153839111328125" lon="20.15779408626258373260498046875">
        <ele>2097</ele>
        <time>2026-06-20T10:42:44.000Z</time>
        <extensions>
          <ns3:TrackPointExtension>
            <ns3:atemp>22.0</ns3:atemp>
          </ns3:TrackPointExtension>
        </extensions>
      </trkpt>
      <trkpt lat="42.5093008764088153839111328125" lon="20.15779408626258373260498046875">
        <ele>2097</ele>
        <time>2026-06-20T10:42:45.000Z</time>
        <extensions>
          <ns3:TrackPointExtension>
            <ns3:atemp>22.0</ns3:atemp>
          </ns3:TrackPointExtension>
        </extensions>
      </trkpt>
      <trkpt lat="42.5093008764088153839111328125" lon="20.15779408626258373260498046875">
        <ele>2096.800048828125</ele>
        <time>2026-06-20T10:42:46.000Z</time>
        <extensions>
          <ns3:TrackPointExtension>
            <ns3:atemp>22.0</ns3:atemp>
          </ns3:TrackPointExtension>
        </extensions>
      </trkpt>
      <trkpt lat="42.5093008764088153839111328125" lon="20.15779408626258373260498046875">
        <ele>2096.60009765625</ele>
        <time>2026-06-20T10:42:47.000Z</time>
        <extensions>
          <ns3:TrackPointExtension>
            <ns3:atemp>22.0</ns3:atemp>
          </ns3:TrackPointExtension>
        </extensions>
      </trkpt>
      <trkpt lat="42.50930112786591053009033203125" lon="20.1577929966151714324951171875">
        <ele>2096.60009765625</ele>
        <time>2026-06-20T10:42:48.000Z</time>
        <extensions>
          <ns3:TrackPointExtension>
            <ns3:atemp>22.0</ns3:atemp>
          </ns3:TrackPointExtension>
        </extensions>
      </trkpt>
      <trkpt lat="42.5093042291700839996337890625" lon="20.15780749730765819549560546875">
        <ele>2096.39990234375</ele>
        <time>2026-06-20T10:42:49.000Z</time>
        <extensions>
          <ns3:TrackPointExtension>
            <ns3:atemp>22.0</ns3:atemp>
          </ns3:TrackPointExtension>
        </extensions>
      </trkpt>
      <trkpt lat="42.50930900685489177703857421875" lon="20.15784454531967639923095703125">
        <ele>2096</ele>
        <time>2026-06-20T10:42:50.000Z</time>
        <extensions>
          <ns3:TrackPointExtension>
            <ns3:atemp>22.0</ns3:atemp>
          </ns3:TrackPointExtension>
        </extensions>
      </trkpt>
      <trkpt lat="42.50931118614971637725830078125" lon="20.15789232216775417327880859375">
        <ele>2095.39990234375</ele>
        <time>2026-06-20T10:42:51.000Z</time>
        <extensions>
          <ns3:TrackPointExtension>
            <ns3:atemp>22.0</ns3:atemp>
          </ns3:TrackPointExtension>
        </extensions>
      </trkpt>
      <trkpt lat="42.509307079017162322998046875" lon="20.15795409679412841796875">
        <ele>2095.39990234375</ele>
        <time>2026-06-20T10:42:52.000Z</time>
        <extensions>
          <ns3:TrackPointExtension>
            <ns3:atemp>22.0</ns3:atemp>
          </ns3:TrackPointExtension>
        </extensions>
      </trkpt>
      <trkpt lat="42.5092985294759273529052734375" lon="20.15802961774170398712158203125">
        <ele>2094.60009765625</ele>
        <time>2026-06-20T10:42:53.000Z</time>
        <extensions>
          <ns3:TrackPointExtension>
            <ns3:atemp>22.0</ns3:atemp>
          </ns3:TrackPointExtension>
        </extensions>
      </trkpt>
      <trkpt lat="42.509289644658565521240234375" lon="20.1581172086298465728759765625">
        <ele>2093.800048828125</ele>
        <time>2026-06-20T10:42:54.000Z</time>
        <extensions>
          <ns3:TrackPointExtension>
            <ns3:atemp>22.0</ns3:atemp>
          </ns3:TrackPointExtension>
        </extensions>
      </trkpt>
      <trkpt lat="42.50928285531699657440185546875" lon="20.15821083448827266693115234375">
        <ele>2092.800048828125</ele>
        <time>2026-06-20T10:42:55.000Z</time>
        <extensions>
          <ns3:TrackPointExtension>
            <ns3:atemp>22.0</ns3:atemp>
          </ns3:TrackPointExtension>
        </extensions>
      </trkpt>
      <trkpt lat="42.5092784129083156585693359375" lon="20.15830638818442821502685546875">
        <ele>2091.800048828125</ele>
        <time>2026-06-20T10:42:56.000Z</time>
        <extensions>
          <ns3:TrackPointExtension>
            <ns3:atemp>22.0</ns3:atemp>
          </ns3:TrackPointExtension>
        </extensions>
      </trkpt>
      <trkpt lat="42.509272880852222442626953125" lon="20.158399678766727447509765625">
        <ele>2091.199951171875</ele>
        <time>2026-06-20T10:42:57.000Z</time>
        <extensions>
          <ns3:TrackPointExtension>
            <ns3:atemp>22.0</ns3:atemp>
          </ns3:TrackPointExtension>
        </extensions>
      </trkpt>
      <trkpt lat="42.50926089473068714141845703125" lon="20.15849045477807521820068359375">
        <ele>2090.39990234375</ele>
        <time>2026-06-20T10:42:58.000Z</time>
        <extensions>
          <ns3:TrackPointExtension>
            <ns3:atemp>22.0</ns3:atemp>
          </ns3:TrackPointExtension>
        </extensions>
      </trkpt>
      <trkpt lat="42.509244047105312347412109375" lon="20.1585641317069530487060546875">
        <ele>2090</ele>
        <time>2026-06-20T10:42:59.000Z</time>
        <extensions>
          <ns3:TrackPointExtension>
            <ns3:atemp>22.0</ns3:atemp>
          </ns3:TrackPointExtension>
        </extensions>
      </trkpt>
      <trkpt lat="42.50922904349863529205322265625" lon="20.15862171538174152374267578125">
        <ele>2089.60009765625</ele>
        <time>2026-06-20T10:43:00.000Z</time>
        <extensions>
          <ns3:TrackPointExtension>
            <ns3:atemp>22.0</ns3:atemp>
          </ns3:TrackPointExtension>
        </extensions>
      </trkpt>
      <trkpt lat="42.50922250561416149139404296875" lon="20.15867133624851703643798828125">
        <ele>2089.60009765625</ele>
        <time>2026-06-20T10:43:01.000Z</time>
        <extensions>
          <ns3:TrackPointExtension>
            <ns3:atemp>22.0</ns3:atemp>
          </ns3:TrackPointExtension>
        </extensions>
      </trkpt>
      <trkpt lat="42.50923390500247478485107421875" lon="20.1586999185383319854736328125">
        <ele>2089.800048828125</ele>
        <time>2026-06-20T10:43:02.000Z</time>
        <extensions>
          <ns3:TrackPointExtension>
            <ns3:atemp>22.0</ns3:atemp>
          </ns3:TrackPointExtension>
        </extensions>
      </trkpt>
      <trkpt lat="42.50924848951399326324462890625" lon="20.158711485564708709716796875">
        <ele>2090.199951171875</ele>
        <time>2026-06-20T10:43:03.000Z</time>
        <extensions>
          <ns3:TrackPointExtension>
            <ns3:atemp>22.0</ns3:atemp>
          </ns3:TrackPointExtension>
        </extensions>
      </trkpt>
      <trkpt lat="42.50925284810364246368408203125" lon="20.158708803355693817138671875">
        <ele>2090.39990234375</ele>
        <time>2026-06-20T10:43:04.000Z</time>
        <extensions>
          <ns3:TrackPointExtension>
            <ns3:atemp>22.0</ns3:atemp>
          </ns3:TrackPointExtension>
        </extensions>
      </trkpt>
      <trkpt lat="42.50925284810364246368408203125" lon="20.158708803355693817138671875">
        <ele>2090.800048828125</ele>
        <time>2026-06-20T10:43:05.000Z</time>
        <extensions>
          <ns3:TrackPointExtension>
            <ns3:atemp>22.0</ns3:atemp>
          </ns3:TrackPointExtension>
        </extensions>
      </trkpt>
      <trkpt lat="42.50925284810364246368408203125" lon="20.158708803355693817138671875">
        <ele>2091</ele>
        <time>2026-06-20T10:43:06.000Z</time>
        <extensions>
          <ns3:TrackPointExtension>
            <ns3:atemp>22.0</ns3:atemp>
          </ns3:TrackPointExtension>
        </extensions>
      </trkpt>
      <trkpt lat="42.50925284810364246368408203125" lon="20.158708803355693817138671875">
        <ele>2091.199951171875</ele>
        <time>2026-06-20T10:43:07.000Z</time>
        <extensions>
          <ns3:TrackPointExtension>
            <ns3:atemp>22.0</ns3:atemp>
          </ns3:TrackPointExtension>
        </extensions>
      </trkpt>
      <trkpt lat="42.50925284810364246368408203125" lon="20.158708803355693817138671875">
        <ele>2091.60009765625</ele>
        <time>2026-06-20T10:43:08.000Z</time>
        <extensions>
          <ns3:TrackPointExtension>
            <ns3:atemp>22.0</ns3:atemp>
          </ns3:TrackPointExtension>
        </extensions>
      </trkpt>
      <trkpt lat="42.50925284810364246368408203125" lon="20.158708803355693817138671875">
        <ele>2091.60009765625</ele>
        <time>2026-06-20T10:43:09.000Z</time>
        <extensions>
          <ns3:TrackPointExtension>
            <ns3:atemp>22.0</ns3:atemp>
          </ns3:TrackPointExtension>
        </extensions>
      </trkpt>
      <trkpt lat="42.50925284810364246368408203125" lon="20.158708803355693817138671875">
        <ele>2091.800048828125</ele>
        <time>2026-06-20T10:43:10.000Z</time>
        <extensions>
          <ns3:TrackPointExtension>
            <ns3:atemp>22.0</ns3:atemp>
          </ns3:TrackPointExtension>
        </extensions>
      </trkpt>
      <trkpt lat="42.50925284810364246368408203125" lon="20.158708803355693817138671875">
        <ele>2091.800048828125</ele>
        <time>2026-06-20T10:43:11.000Z</time>
        <extensions>
          <ns3:TrackPointExtension>
            <ns3:atemp>22.0</ns3:atemp>
          </ns3:TrackPointExtension>
        </extensions>
      </trkpt>
      <trkpt lat="42.50925284810364246368408203125" lon="20.158708803355693817138671875">
        <ele>2091.800048828125</ele>
        <time>2026-06-20T10:43:12.000Z</time>
        <extensions>
          <ns3:TrackPointExtension>
            <ns3:atemp>22.0</ns3:atemp>
          </ns3:TrackPointExtension>
        </extensions>
      </trkpt>
      <trkpt lat="42.50925284810364246368408203125" lon="20.158708803355693817138671875">
        <ele>2091.60009765625</ele>
        <time>2026-06-20T10:43:13.000Z</time>
        <extensions>
          <ns3:TrackPointExtension>
            <ns3:atemp>22.0</ns3:atemp>
          </ns3:TrackPointExtension>
        </extensions>
      </trkpt>
      <trkpt lat="42.50925284810364246368408203125" lon="20.158708803355693817138671875">
        <ele>2091.60009765625</ele>
        <time>2026-06-20T10:43:14.000Z</time>
        <extensions>
          <ns3:TrackPointExtension>
            <ns3:atemp>22.0</ns3:atemp>
          </ns3:TrackPointExtension>
        </extensions>
      </trkpt>
      <trkpt lat="42.50925284810364246368408203125" lon="20.158708803355693817138671875">
        <ele>2091.39990234375</ele>
        <time>2026-06-20T10:43:15.000Z</time>
        <extensions>
          <ns3:TrackPointExtension>
            <ns3:atemp>22.0</ns3:atemp>
          </ns3:TrackPointExtension>
        </extensions>
      </trkpt>
      <trkpt lat="42.50925284810364246368408203125" lon="20.158708803355693817138671875">
        <ele>2091.39990234375</ele>
        <time>2026-06-20T10:43:16.000Z</time>
        <extensions>
          <ns3:TrackPointExtension>
            <ns3:atemp>22.0</ns3:atemp>
          </ns3:TrackPointExtension>
        </extensions>
      </trkpt>
      <trkpt lat="42.50925284810364246368408203125" lon="20.158708803355693817138671875">
        <ele>2091.39990234375</ele>
        <time>2026-06-20T10:43:17.000Z</time>
        <extensions>
          <ns3:TrackPointExtension>
            <ns3:atemp>22.0</ns3:atemp>
          </ns3:TrackPointExtension>
        </extensions>
      </trkpt>
      <trkpt lat="42.50925284810364246368408203125" lon="20.158708803355693817138671875">
        <ele>2091.39990234375</ele>
        <time>2026-06-20T10:43:18.000Z</time>
        <extensions>
          <ns3:TrackPointExtension>
            <ns3:atemp>22.0</ns3:atemp>
          </ns3:TrackPointExtension>
        </extensions>
      </trkpt>
      <trkpt lat="42.50925284810364246368408203125" lon="20.158708803355693817138671875">
        <ele>2091.39990234375</ele>
        <time>2026-06-20T10:43:19.000Z</time>
        <extensions>
          <ns3:TrackPointExtension>
            <ns3:atemp>22.0</ns3:atemp>
          </ns3:TrackPointExtension>
        </extensions>
      </trkpt>
      <trkpt lat="42.50925284810364246368408203125" lon="20.158708803355693817138671875">
        <ele>2091.39990234375</ele>
        <time>2026-06-20T10:43:20.000Z</time>
        <extensions>
          <ns3:TrackPointExtension>
            <ns3:atemp>22.0</ns3:atemp>
          </ns3:TrackPointExtension>
        </extensions>
      </trkpt>
      <trkpt lat="42.50925284810364246368408203125" lon="20.158708803355693817138671875">
        <ele>2091.39990234375</ele>
        <time>2026-06-20T10:43:21.000Z</time>
        <extensions>
          <ns3:TrackPointExtension>
            <ns3:atemp>22.0</ns3:atemp>
          </ns3:TrackPointExtension>
        </extensions>
      </trkpt>
      <trkpt lat="42.50925284810364246368408203125" lon="20.158708803355693817138671875">
        <ele>2091.39990234375</ele>
        <time>2026-06-20T10:43:22.000Z</time>
        <extensions>
          <ns3:TrackPointExtension>
            <ns3:atemp>22.0</ns3:atemp>
          </ns3:TrackPointExtension>
        </extensions>
      </trkpt>
      <trkpt lat="42.50925284810364246368408203125" lon="20.158708803355693817138671875">
        <ele>2091.60009765625</ele>
        <time>2026-06-20T10:43:23.000Z</time>
        <extensions>
          <ns3:TrackPointExtension>
            <ns3:atemp>22.0</ns3:atemp>
          </ns3:TrackPointExtension>
        </extensions>
      </trkpt>
      <trkpt lat="42.50925284810364246368408203125" lon="20.158708803355693817138671875">
        <ele>2091.60009765625</ele>
        <time>2026-06-20T10:43:24.000Z</time>
        <extensions>
          <ns3:TrackPointExtension>
            <ns3:atemp>22.0</ns3:atemp>
          </ns3:TrackPointExtension>
        </extensions>
      </trkpt>
      <trkpt lat="42.50925284810364246368408203125" lon="20.158708803355693817138671875">
        <ele>2091.60009765625</ele>
        <time>2026-06-20T10:43:25.000Z</time>
        <extensions>
          <ns3:TrackPointExtension>
            <ns3:atemp>22.0</ns3:atemp>
          </ns3:TrackPointExtension>
        </extensions>
      </trkpt>
      <trkpt lat="42.50925284810364246368408203125" lon="20.158708803355693817138671875">
        <ele>2091.800048828125</ele>
        <time>2026-06-20T10:43:26.000Z</time>
        <extensions>
          <ns3:TrackPointExtension>
            <ns3:atemp>22.0</ns3:atemp>
          </ns3:TrackPointExtension>
        </extensions>
      </trkpt>
      <trkpt lat="42.50925150699913501739501953125" lon="20.1587086357176303863525390625">
        <ele>2091.800048828125</ele>
        <time>2026-06-20T10:43:27.000Z</time>
        <extensions>
          <ns3:TrackPointExtension>
            <ns3:atemp>22.0</ns3:atemp>
          </ns3:TrackPointExtension>
        </extensions>
      </trkpt>
      <trkpt lat="42.5092398561537265777587890625" lon="20.1587069593369960784912109375">
        <ele>2091.800048828125</ele>
        <time>2026-06-20T10:43:28.000Z</time>
        <extensions>
          <ns3:TrackPointExtension>
            <ns3:atemp>22.0</ns3:atemp>
          </ns3:TrackPointExtension>
        </extensions>
      </trkpt>
      <trkpt lat="42.50923608429729938507080078125" lon="20.15871458686888217926025390625">
        <ele>2091.800048828125</ele>
        <time>2026-06-20T10:43:29.000Z</time>
        <extensions>
          <ns3:TrackPointExtension>
            <ns3:atemp>22.0</ns3:atemp>
          </ns3:TrackPointExtension>
        </extensions>
      </trkpt>
      <trkpt lat="42.50923591665923595428466796875" lon="20.1587119884788990020751953125">
        <ele>2092</ele>
        <time>2026-06-20T10:43:30.000Z</time>
        <extensions>
          <ns3:TrackPointExtension>
            <ns3:atemp>22.0</ns3:atemp>
          </ns3:TrackPointExtension>
        </extensions>
      </trkpt>
      <trkpt lat="42.50923591665923595428466796875" lon="20.1587119884788990020751953125">
        <ele>2092.199951171875</ele>
        <time>2026-06-20T10:43:31.000Z</time>
        <extensions>
          <ns3:TrackPointExtension>
            <ns3:atemp>22.0</ns3:atemp>
          </ns3:TrackPointExtension>
        </extensions>
      </trkpt>
      <trkpt lat="42.50923591665923595428466796875" lon="20.1587119884788990020751953125">
        <ele>2092.199951171875</ele>
        <time>2026-06-20T10:43:32.000Z</time>
        <extensions>
          <ns3:TrackPointExtension>
            <ns3:atemp>22.0</ns3:atemp>
          </ns3:TrackPointExtension>
        </extensions>
      </trkpt>
      <trkpt lat="42.50923591665923595428466796875" lon="20.1587119884788990020751953125">
        <ele>2092.199951171875</ele>
        <time>2026-06-20T10:43:33.000Z</time>
        <extensions>
          <ns3:TrackPointExtension>
            <ns3:atemp>22.0</ns3:atemp>
          </ns3:TrackPointExtension>
        </extensions>
      </trkpt>
      <trkpt lat="42.50923591665923595428466796875" lon="20.1587119884788990020751953125">
        <ele>2092</ele>
        <time>2026-06-20T10:43:34.000Z</time>
        <extensions>
          <ns3:TrackPointExtension>
            <ns3:atemp>22.0</ns3:atemp>
          </ns3:TrackPointExtension>
        </extensions>
      </trkpt>
      <trkpt lat="42.50923591665923595428466796875" lon="20.1587119884788990020751953125">
        <ele>2091.800048828125</ele>
        <time>2026-06-20T10:43:35.000Z</time>
        <extensions>
          <ns3:TrackPointExtension>
            <ns3:atemp>22.0</ns3:atemp>
          </ns3:TrackPointExtension>
        </extensions>
      </trkpt>
      <trkpt lat="42.50923591665923595428466796875" lon="20.1587119884788990020751953125">
        <ele>2091.800048828125</ele>
        <time>2026-06-20T10:43:36.000Z</time>
        <extensions>
          <ns3:TrackPointExtension>
            <ns3:atemp>22.0</ns3:atemp>
          </ns3:TrackPointExtension>
        </extensions>
      </trkpt>
      <trkpt lat="42.50923591665923595428466796875" lon="20.1587119884788990020751953125">
        <ele>2091.800048828125</ele>
        <time>2026-06-20T10:43:37.000Z</time>
        <extensions>
          <ns3:TrackPointExtension>
            <ns3:atemp>22.0</ns3:atemp>
          </ns3:TrackPointExtension>
        </extensions>
      </trkpt>
      <trkpt lat="42.50923675484955310821533203125" lon="20.15871115028858184814453125">
        <ele>2092</ele>
        <time>2026-06-20T10:43:38.000Z</time>
        <extensions>
          <ns3:TrackPointExtension>
            <ns3:atemp>22.0</ns3:atemp>
          </ns3:TrackPointExtension>
        </extensions>
      </trkpt>
      <trkpt lat="42.50924379564821720123291015625" lon="20.15870369039475917816162109375">
        <ele>2092</ele>
        <time>2026-06-20T10:43:39.000Z</time>
        <extensions>
          <ns3:TrackPointExtension>
            <ns3:atemp>22.0</ns3:atemp>
          </ns3:TrackPointExtension>
        </extensions>
      </trkpt>
      <trkpt lat="42.50923591665923595428466796875" lon="20.1587119884788990020751953125">
        <ele>2091.800048828125</ele>
        <time>2026-06-20T10:43:40.000Z</time>
        <extensions>
          <ns3:TrackPointExtension>
            <ns3:atemp>22.0</ns3:atemp>
          </ns3:TrackPointExtension>
        </extensions>
      </trkpt>
      <trkpt lat="42.50923591665923595428466796875" lon="20.1587119884788990020751953125">
        <ele>2091.60009765625</ele>
        <time>2026-06-20T10:43:41.000Z</time>
        <extensions>
          <ns3:TrackPointExtension>
            <ns3:atemp>22.0</ns3:atemp>
          </ns3:TrackPointExtension>
        </extensions>
      </trkpt>
      <trkpt lat="42.50923591665923595428466796875" lon="20.1587119884788990020751953125">
        <ele>2091.39990234375</ele>
        <time>2026-06-20T10:43:42.000Z</time>
        <extensions>
          <ns3:TrackPointExtension>
            <ns3:atemp>22.0</ns3:atemp>
          </ns3:TrackPointExtension>
        </extensions>
      </trkpt>
      <trkpt lat="42.50923591665923595428466796875" lon="20.1587119884788990020751953125">
        <ele>2091.199951171875</ele>
        <time>2026-06-20T10:43:43.000Z</time>
        <extensions>
          <ns3:TrackPointExtension>
            <ns3:atemp>22.0</ns3:atemp>
          </ns3:TrackPointExtension>
        </extensions>
      </trkpt>
      <trkpt lat="42.50923591665923595428466796875" lon="20.1587119884788990020751953125">
        <ele>2091</ele>
        <time>2026-06-20T10:43:44.000Z</time>
        <extensions>
          <ns3:TrackPointExtension>
            <ns3:atemp>22.0</ns3:atemp>
          </ns3:TrackPointExtension>
        </extensions>
      </trkpt>
      <trkpt lat="42.50923591665923595428466796875" lon="20.1587119884788990020751953125">
        <ele>2091</ele>
        <time>2026-06-20T10:43:45.000Z</time>
        <extensions>
          <ns3:TrackPointExtension>
            <ns3:atemp>22.0</ns3:atemp>
          </ns3:TrackPointExtension>
        </extensions>
      </trkpt>
      <trkpt lat="42.50923591665923595428466796875" lon="20.1587119884788990020751953125">
        <ele>2091</ele>
        <time>2026-06-20T10:43:46.000Z</time>
        <extensions>
          <ns3:TrackPointExtension>
            <ns3:atemp>22.0</ns3:atemp>
          </ns3:TrackPointExtension>
        </extensions>
      </trkpt>
      <trkpt lat="42.50923591665923595428466796875" lon="20.1587119884788990020751953125">
        <ele>2091.199951171875</ele>
        <time>2026-06-20T10:43:47.000Z</time>
        <extensions>
          <ns3:TrackPointExtension>
            <ns3:atemp>22.0</ns3:atemp>
          </ns3:TrackPointExtension>
        </extensions>
      </trkpt>
      <trkpt lat="42.50923591665923595428466796875" lon="20.1587119884788990020751953125">
        <ele>2091.199951171875</ele>
        <time>2026-06-20T10:43:48.000Z</time>
        <extensions>
          <ns3:TrackPointExtension>
            <ns3:atemp>22.0</ns3:atemp>
          </ns3:TrackPointExtension>
        </extensions>
      </trkpt>
      <trkpt lat="42.50923591665923595428466796875" lon="20.1587119884788990020751953125">
        <ele>2091.39990234375</ele>
        <time>2026-06-20T10:43:49.000Z</time>
        <extensions>
          <ns3:TrackPointExtension>
            <ns3:atemp>22.0</ns3:atemp>
          </ns3:TrackPointExtension>
        </extensions>
      </trkpt>
      <trkpt lat="42.50923591665923595428466796875" lon="20.1587119884788990020751953125">
        <ele>2091.39990234375</ele>
        <time>2026-06-20T10:43:50.000Z</time>
        <extensions>
          <ns3:TrackPointExtension>
            <ns3:atemp>22.0</ns3:atemp>
          </ns3:TrackPointExtension>
        </extensions>
      </trkpt>
      <trkpt lat="42.5092465616762638092041015625" lon="20.1587005890905857086181640625">
        <ele>2091.39990234375</ele>
        <time>2026-06-20T10:43:51.000Z</time>
        <extensions>
          <ns3:TrackPointExtension>
            <ns3:atemp>22.0</ns3:atemp>
          </ns3:TrackPointExtension>
        </extensions>
      </trkpt>
      <trkpt lat="42.509246729314327239990234375" lon="20.15870050527155399322509765625">
        <ele>2091.39990234375</ele>
        <time>2026-06-20T10:43:52.000Z</time>
        <extensions>
          <ns3:TrackPointExtension>
            <ns3:atemp>22.0</ns3:atemp>
          </ns3:TrackPointExtension>
        </extensions>
      </trkpt>
      <trkpt lat="42.509246729314327239990234375" lon="20.15870050527155399322509765625">
        <ele>2091.199951171875</ele>
        <time>2026-06-20T10:43:53.000Z</time>
        <extensions>
          <ns3:TrackPointExtension>
            <ns3:atemp>22.0</ns3:atemp>
          </ns3:TrackPointExtension>
        </extensions>
      </trkpt>
      <trkpt lat="42.509246729314327239990234375" lon="20.15870050527155399322509765625">
        <ele>2091.199951171875</ele>
        <time>2026-06-20T10:43:54.000Z</time>
        <extensions>
          <ns3:TrackPointExtension>
            <ns3:atemp>22.0</ns3:atemp>
          </ns3:TrackPointExtension>
        </extensions>
      </trkpt>
      <trkpt lat="42.50924714840948581695556640625" lon="20.15870033763349056243896484375">
        <ele>2091.199951171875</ele>
        <time>2026-06-20T10:43:55.000Z</time>
        <extensions>
          <ns3:TrackPointExtension>
            <ns3:atemp>22.0</ns3:atemp>
          </ns3:TrackPointExtension>
        </extensions>
      </trkpt>
      <trkpt lat="42.5092552788555622100830078125" lon="20.15870067290961742401123046875">
        <ele>2091.39990234375</ele>
        <time>2026-06-20T10:43:56.000Z</time>
        <extensions>
          <ns3:TrackPointExtension>
            <ns3:atemp>22.0</ns3:atemp>
          </ns3:TrackPointExtension>
        </extensions>
      </trkpt>
      <trkpt lat="42.509246729314327239990234375" lon="20.15870050527155399322509765625">
        <ele>2091.39990234375</ele>
        <time>2026-06-20T10:43:57.000Z</time>
        <extensions>
          <ns3:TrackPointExtension>
            <ns3:atemp>22.0</ns3:atemp>
          </ns3:TrackPointExtension>
        </extensions>
      </trkpt>
      <trkpt lat="42.509246729314327239990234375" lon="20.15870050527155399322509765625">
        <ele>2091.60009765625</ele>
        <time>2026-06-20T10:43:58.000Z</time>
        <extensions>
          <ns3:TrackPointExtension>
            <ns3:atemp>22.0</ns3:atemp>
          </ns3:TrackPointExtension>
        </extensions>
      </trkpt>
      <trkpt lat="42.50925578176975250244140625" lon="20.15870050527155399322509765625">
        <ele>2091.60009765625</ele>
        <time>2026-06-20T10:43:59.000Z</time>
        <extensions>
          <ns3:TrackPointExtension>
            <ns3:atemp>22.0</ns3:atemp>
          </ns3:TrackPointExtension>
        </extensions>
      </trkpt>
      <trkpt lat="42.5092660076916217803955078125" lon="20.15869966708123683929443359375">
        <ele>2091.60009765625</ele>
        <time>2026-06-20T10:44:00.000Z</time>
        <extensions>
          <ns3:TrackPointExtension>
            <ns3:atemp>22.0</ns3:atemp>
          </ns3:TrackPointExtension>
        </extensions>
      </trkpt>
      <trkpt lat="42.50927363522350788116455078125" lon="20.158692039549350738525390625">
        <ele>2091.60009765625</ele>
        <time>2026-06-20T10:44:01.000Z</time>
        <extensions>
          <ns3:TrackPointExtension>
            <ns3:atemp>22.0</ns3:atemp>
          </ns3:TrackPointExtension>
        </extensions>
      </trkpt>
      <trkpt lat="42.5092752277851104736328125" lon="20.1586741022765636444091796875">
        <ele>2091.60009765625</ele>
        <time>2026-06-20T10:44:02.000Z</time>
        <extensions>
          <ns3:TrackPointExtension>
            <ns3:atemp>22.0</ns3:atemp>
          </ns3:TrackPointExtension>
        </extensions>
      </trkpt>
      <trkpt lat="42.50927179120481014251708984375" lon="20.1586570031940937042236328125">
        <ele>2091.800048828125</ele>
        <time>2026-06-20T10:44:03.000Z</time>
        <extensions>
          <ns3:TrackPointExtension>
            <ns3:atemp>22.0</ns3:atemp>
          </ns3:TrackPointExtension>
        </extensions>
      </trkpt>
      <trkpt lat="42.50925804488360881805419921875" lon="20.15864183194935321807861328125">
        <ele>2091.800048828125</ele>
        <time>2026-06-20T10:44:04.000Z</time>
        <extensions>
          <ns3:TrackPointExtension>
            <ns3:atemp>22.0</ns3:atemp>
          </ns3:TrackPointExtension>
        </extensions>
      </trkpt>
      <trkpt lat="42.50924211926758289337158203125" lon="20.15864007174968719482421875">
        <ele>2091.800048828125</ele>
        <time>2026-06-20T10:44:05.000Z</time>
        <extensions>
          <ns3:TrackPointExtension>
            <ns3:atemp>22.0</ns3:atemp>
          </ns3:TrackPointExtension>
        </extensions>
      </trkpt>
      <trkpt lat="42.50923239625990390777587890625" lon="20.15864736400544643402099609375">
        <ele>2091.60009765625</ele>
        <time>2026-06-20T10:44:06.000Z</time>
        <extensions>
          <ns3:TrackPointExtension>
            <ns3:atemp>22.0</ns3:atemp>
          </ns3:TrackPointExtension>
        </extensions>
      </trkpt>
      <trkpt lat="42.509219236671924591064453125" lon="20.1586608588695526123046875">
        <ele>2091.39990234375</ele>
        <time>2026-06-20T10:44:07.000Z</time>
        <extensions>
          <ns3:TrackPointExtension>
            <ns3:atemp>22.0</ns3:atemp>
          </ns3:TrackPointExtension>
        </extensions>
      </trkpt>
      <trkpt lat="42.50920859165489673614501953125" lon="20.1586742699146270751953125">
        <ele>2091.199951171875</ele>
        <time>2026-06-20T10:44:08.000Z</time>
        <extensions>
          <ns3:TrackPointExtension>
            <ns3:atemp>22.0</ns3:atemp>
          </ns3:TrackPointExtension>
        </extensions>
      </trkpt>
      <trkpt lat="42.50919920392334461212158203125" lon="20.15868969261646270751953125">
        <ele>2091.199951171875</ele>
        <time>2026-06-20T10:44:09.000Z</time>
        <extensions>
          <ns3:TrackPointExtension>
            <ns3:atemp>22.0</ns3:atemp>
          </ns3:TrackPointExtension>
        </extensions>
      </trkpt>
      <trkpt lat="42.50919501297175884246826171875" lon="20.15871115028858184814453125">
        <ele>2091</ele>
        <time>2026-06-20T10:44:10.000Z</time>
        <extensions>
          <ns3:TrackPointExtension>
            <ns3:atemp>22.0</ns3:atemp>
          </ns3:TrackPointExtension>
        </extensions>
      </trkpt>
      <trkpt lat="42.5091905705630779266357421875" lon="20.158731602132320404052734375">
        <ele>2091</ele>
        <time>2026-06-20T10:44:11.000Z</time>
        <extensions>
          <ns3:TrackPointExtension>
            <ns3:atemp>22.0</ns3:atemp>
          </ns3:TrackPointExtension>
        </extensions>
      </trkpt>
      <trkpt lat="42.50918872654438018798828125" lon="20.158758424222469329833984375">
        <ele>2091</ele>
        <time>2026-06-20T10:44:12.000Z</time>
        <extensions>
          <ns3:TrackPointExtension>
            <ns3:atemp>22.0</ns3:atemp>
          </ns3:TrackPointExtension>
        </extensions>
      </trkpt>
      <trkpt lat="42.50918998382985591888427734375" lon="20.15878566540777683258056640625">
        <ele>2091</ele>
        <time>2026-06-20T10:44:13.000Z</time>
        <extensions>
          <ns3:TrackPointExtension>
            <ns3:atemp>22.0</ns3:atemp>
          </ns3:TrackPointExtension>
        </extensions>
      </trkpt>
      <trkpt lat="42.509187050163745880126953125" lon="20.158815085887908935546875">
        <ele>2091</ele>
        <time>2026-06-20T10:44:14.000Z</time>
        <extensions>
          <ns3:TrackPointExtension>
            <ns3:atemp>22.0</ns3:atemp>
          </ns3:TrackPointExtension>
        </extensions>
      </trkpt>
      <trkpt lat="42.5091815181076526641845703125" lon="20.158844254910945892333984375">
        <ele>2091.199951171875</ele>
        <time>2026-06-20T10:44:15.000Z</time>
        <extensions>
          <ns3:TrackPointExtension>
            <ns3:atemp>22.0</ns3:atemp>
          </ns3:TrackPointExtension>
        </extensions>
      </trkpt>
      <trkpt lat="42.50917992554605007171630859375" lon="20.15887468121945858001708984375">
        <ele>2091.199951171875</ele>
        <time>2026-06-20T10:44:16.000Z</time>
        <extensions>
          <ns3:TrackPointExtension>
            <ns3:atemp>22.0</ns3:atemp>
          </ns3:TrackPointExtension>
        </extensions>
      </trkpt>
      <trkpt lat="42.50918093137443065643310546875" lon="20.158901251852512359619140625">
        <ele>2091.199951171875</ele>
        <time>2026-06-20T10:44:17.000Z</time>
        <extensions>
          <ns3:TrackPointExtension>
            <ns3:atemp>22.0</ns3:atemp>
          </ns3:TrackPointExtension>
        </extensions>
      </trkpt>
      <trkpt lat="42.50918160192668437957763671875" lon="20.1589292474091053009033203125">
        <ele>2091.199951171875</ele>
        <time>2026-06-20T10:44:18.000Z</time>
        <extensions>
          <ns3:TrackPointExtension>
            <ns3:atemp>22.0</ns3:atemp>
          </ns3:TrackPointExtension>
        </extensions>
      </trkpt>
      <trkpt lat="42.5091826915740966796875" lon="20.15896352939307689666748046875">
        <ele>2091.39990234375</ele>
        <time>2026-06-20T10:44:19.000Z</time>
        <extensions>
          <ns3:TrackPointExtension>
            <ns3:atemp>22.0</ns3:atemp>
          </ns3:TrackPointExtension>
        </extensions>
      </trkpt>
      <trkpt lat="42.5091805122792720794677734375" lon="20.1589989848434925079345703125">
        <ele>2091.39990234375</ele>
        <time>2026-06-20T10:44:20.000Z</time>
        <extensions>
          <ns3:TrackPointExtension>
            <ns3:atemp>22.0</ns3:atemp>
          </ns3:TrackPointExtension>
        </extensions>
      </trkpt>
      <trkpt lat="42.5091744773089885711669921875" lon="20.15903167426586151123046875">
        <ele>2091.60009765625</ele>
        <time>2026-06-20T10:44:21.000Z</time>
        <extensions>
          <ns3:TrackPointExtension>
            <ns3:atemp>22.0</ns3:atemp>
          </ns3:TrackPointExtension>
        </extensions>
      </trkpt>
      <trkpt lat="42.5091694481670856475830078125" lon="20.15906226821243762969970703125">
        <ele>2091.60009765625</ele>
        <time>2026-06-20T10:44:22.000Z</time>
        <extensions>
          <ns3:TrackPointExtension>
            <ns3:atemp>22.0</ns3:atemp>
          </ns3:TrackPointExtension>
        </extensions>
      </trkpt>
      <trkpt lat="42.5091600604355335235595703125" lon="20.159093029797077178955078125">
        <ele>2091.800048828125</ele>
        <time>2026-06-20T10:44:23.000Z</time>
        <extensions>
          <ns3:TrackPointExtension>
            <ns3:atemp>22.0</ns3:atemp>
          </ns3:TrackPointExtension>
        </extensions>
      </trkpt>
      <trkpt lat="42.50915159471333026885986328125" lon="20.15911884605884552001953125">
        <ele>2092</ele>
        <time>2026-06-20T10:44:24.000Z</time>
        <extensions>
          <ns3:TrackPointExtension>
            <ns3:atemp>22.0</ns3:atemp>
          </ns3:TrackPointExtension>
        </extensions>
      </trkpt>
      <trkpt lat="42.509142458438873291015625" lon="20.15914105810225009918212890625">
        <ele>2092.199951171875</ele>
        <time>2026-06-20T10:44:25.000Z</time>
        <extensions>
          <ns3:TrackPointExtension>
            <ns3:atemp>22.0</ns3:atemp>
          </ns3:TrackPointExtension>
        </extensions>
      </trkpt>
      <trkpt lat="42.50913147814571857452392578125" lon="20.1591659523546695709228515625">
        <ele>2092.39990234375</ele>
        <time>2026-06-20T10:44:26.000Z</time>
        <extensions>
          <ns3:TrackPointExtension>
            <ns3:atemp>22.0</ns3:atemp>
          </ns3:TrackPointExtension>
        </extensions>
      </trkpt>
      <trkpt lat="42.50911940820515155792236328125" lon="20.1591900922358036041259765625">
        <ele>2092.800048828125</ele>
        <time>2026-06-20T10:44:27.000Z</time>
        <extensions>
          <ns3:TrackPointExtension>
            <ns3:atemp>22.0</ns3:atemp>
          </ns3:TrackPointExtension>
        </extensions>
      </trkpt>
      <trkpt lat="42.50910582952201366424560546875" lon="20.1592135615646839141845703125">
        <ele>2093</ele>
        <time>2026-06-20T10:44:28.000Z</time>
        <extensions>
          <ns3:TrackPointExtension>
            <ns3:atemp>22.0</ns3:atemp>
          </ns3:TrackPointExtension>
        </extensions>
      </trkpt>
      <trkpt lat="42.50909275375306606292724609375" lon="20.15923929400742053985595703125">
        <ele>2093.199951171875</ele>
        <time>2026-06-20T10:44:29.000Z</time>
        <extensions>
          <ns3:TrackPointExtension>
            <ns3:atemp>22.0</ns3:atemp>
          </ns3:TrackPointExtension>
        </extensions>
      </trkpt>
      <trkpt lat="42.5090819410979747772216796875" lon="20.15926846303045749664306640625">
        <ele>2093.39990234375</ele>
        <time>2026-06-20T10:44:30.000Z</time>
        <extensions>
          <ns3:TrackPointExtension>
            <ns3:atemp>22.0</ns3:atemp>
          </ns3:TrackPointExtension>
        </extensions>
      </trkpt>
      <trkpt lat="42.50907196663320064544677734375" lon="20.15930031426250934600830078125">
        <ele>2093.60009765625</ele>
        <time>2026-06-20T10:44:31.000Z</time>
        <extensions>
          <ns3:TrackPointExtension>
            <ns3:atemp>22.0</ns3:atemp>
          </ns3:TrackPointExtension>
        </extensions>
      </trkpt>
      <trkpt lat="42.50906827859580516815185546875" lon="20.1593315787613391876220703125">
        <ele>2093.800048828125</ele>
        <time>2026-06-20T10:44:32.000Z</time>
        <extensions>
          <ns3:TrackPointExtension>
            <ns3:atemp>22.0</ns3:atemp>
          </ns3:TrackPointExtension>
        </extensions>
      </trkpt>
      <trkpt lat="42.5090660154819488525390625" lon="20.1593647710978984832763671875">
        <ele>2094</ele>
        <time>2026-06-20T10:44:33.000Z</time>
        <extensions>
          <ns3:TrackPointExtension>
            <ns3:atemp>22.0</ns3:atemp>
          </ns3:TrackPointExtension>
        </extensions>
      </trkpt>
      <trkpt lat="42.50906643457710742950439453125" lon="20.15939251519739627838134765625">
        <ele>2094.199951171875</ele>
        <time>2026-06-20T10:44:34.000Z</time>
        <extensions>
          <ns3:TrackPointExtension>
            <ns3:atemp>22.0</ns3:atemp>
          </ns3:TrackPointExtension>
        </extensions>
      </trkpt>
      <trkpt lat="42.50907196663320064544677734375" lon="20.15942134894430637359619140625">
        <ele>2094.39990234375</ele>
        <time>2026-06-20T10:44:35.000Z</time>
        <extensions>
          <ns3:TrackPointExtension>
            <ns3:atemp>22.0</ns3:atemp>
          </ns3:TrackPointExtension>
        </extensions>
      </trkpt>
      <trkpt lat="42.50908068381249904632568359375" lon="20.1594472490251064300537109375">
        <ele>2094.60009765625</ele>
        <time>2026-06-20T10:44:36.000Z</time>
        <extensions>
          <ns3:TrackPointExtension>
            <ns3:atemp>22.0</ns3:atemp>
          </ns3:TrackPointExtension>
        </extensions>
      </trkpt>
      <trkpt lat="42.50909459777176380157470703125" lon="20.159474909305572509765625">
        <ele>2094.800048828125</ele>
        <time>2026-06-20T10:44:37.000Z</time>
        <extensions>
          <ns3:TrackPointExtension>
            <ns3:atemp>22.0</ns3:atemp>
          </ns3:TrackPointExtension>
        </extensions>
      </trkpt>
      <trkpt lat="42.5091050751507282257080078125" lon="20.1595032401382923126220703125">
        <ele>2095</ele>
        <time>2026-06-20T10:44:38.000Z</time>
        <extensions>
          <ns3:TrackPointExtension>
            <ns3:atemp>22.0</ns3:atemp>
          </ns3:TrackPointExtension>
        </extensions>
      </trkpt>
      <trkpt lat="42.50911404378712177276611328125" lon="20.159531570971012115478515625">
        <ele>2095.199951171875</ele>
        <time>2026-06-20T10:44:39.000Z</time>
        <extensions>
          <ns3:TrackPointExtension>
            <ns3:atemp>22.0</ns3:atemp>
          </ns3:TrackPointExtension>
        </extensions>
      </trkpt>
      <trkpt lat="42.50911756418645381927490234375" lon="20.1595615781843662261962890625">
        <ele>2095.39990234375</ele>
        <time>2026-06-20T10:44:40.000Z</time>
        <extensions>
          <ns3:TrackPointExtension>
            <ns3:atemp>22.0</ns3:atemp>
          </ns3:TrackPointExtension>
        </extensions>
      </trkpt>
      <trkpt lat="42.50911504961550235748291015625" lon="20.15959627926349639892578125">
        <ele>2095.39990234375</ele>
        <time>2026-06-20T10:44:41.000Z</time>
        <extensions>
          <ns3:TrackPointExtension>
            <ns3:atemp>22.0</ns3:atemp>
          </ns3:TrackPointExtension>
        </extensions>
      </trkpt>
      <trkpt lat="42.50910767354071140289306640625" lon="20.15962838195264339447021484375">
        <ele>2095.39990234375</ele>
        <time>2026-06-20T10:44:42.000Z</time>
        <extensions>
          <ns3:TrackPointExtension>
            <ns3:atemp>22.0</ns3:atemp>
          </ns3:TrackPointExtension>
        </extensions>
      </trkpt>
      <trkpt lat="42.50909694470465183258056640625" lon="20.159646905958652496337890625">
        <ele>2095.39990234375</ele>
        <time>2026-06-20T10:44:43.000Z</time>
        <extensions>
          <ns3:TrackPointExtension>
            <ns3:atemp>22.0</ns3:atemp>
          </ns3:TrackPointExtension>
        </extensions>
      </trkpt>
      <trkpt lat="42.5090869702398777008056640625" lon="20.15966542996466159820556640625">
        <ele>2095.39990234375</ele>
        <time>2026-06-20T10:44:44.000Z</time>
        <extensions>
          <ns3:TrackPointExtension>
            <ns3:atemp>22.0</ns3:atemp>
          </ns3:TrackPointExtension>
        </extensions>
      </trkpt>
      <trkpt lat="42.5090802647173404693603515625" lon="20.1596899889409542083740234375">
        <ele>2095.60009765625</ele>
        <time>2026-06-20T10:44:45.000Z</time>
        <extensions>
          <ns3:TrackPointExtension>
            <ns3:atemp>22.0</ns3:atemp>
          </ns3:TrackPointExtension>
        </extensions>
      </trkpt>
      <trkpt lat="42.5090705417096614837646484375" lon="20.159717984497547149658203125">
        <ele>2095.800048828125</ele>
        <time>2026-06-20T10:44:46.000Z</time>
        <extensions>
          <ns3:TrackPointExtension>
            <ns3:atemp>22.0</ns3:atemp>
          </ns3:TrackPointExtension>
        </extensions>
      </trkpt>
      <trkpt lat="42.5090574659407138824462890625" lon="20.15974723733961582183837890625">
        <ele>2095.800048828125</ele>
        <time>2026-06-20T10:44:47.000Z</time>
        <extensions>
          <ns3:TrackPointExtension>
            <ns3:atemp>22.0</ns3:atemp>
          </ns3:TrackPointExtension>
        </extensions>
      </trkpt>
      <trkpt lat="42.509042210876941680908203125" lon="20.1597793400287628173828125">
        <ele>2096</ele>
        <time>2026-06-20T10:44:48.000Z</time>
        <extensions>
          <ns3:TrackPointExtension>
            <ns3:atemp>22.0</ns3:atemp>
          </ns3:TrackPointExtension>
        </extensions>
      </trkpt>
      <trkpt lat="42.50902150757610797882080078125" lon="20.1598120294511318206787109375">
        <ele>2096</ele>
        <time>2026-06-20T10:44:49.000Z</time>
        <extensions>
          <ns3:TrackPointExtension>
            <ns3:atemp>22.0</ns3:atemp>
          </ns3:TrackPointExtension>
        </extensions>
      </trkpt>
      <trkpt lat="42.50900407321751117706298828125" lon="20.15983893536031246185302734375">
        <ele>2096</ele>
        <time>2026-06-20T10:44:50.000Z</time>
        <extensions>
          <ns3:TrackPointExtension>
            <ns3:atemp>22.0</ns3:atemp>
          </ns3:TrackPointExtension>
        </extensions>
      </trkpt>
      <trkpt lat="42.50898295082151889801025390625" lon="20.159864835441112518310546875">
        <ele>2095.800048828125</ele>
        <time>2026-06-20T10:44:51.000Z</time>
        <extensions>
          <ns3:TrackPointExtension>
            <ns3:atemp>22.0</ns3:atemp>
          </ns3:TrackPointExtension>
        </extensions>
      </trkpt>
      <trkpt lat="42.50896233133971691131591796875" lon="20.15988369472324848175048828125">
        <ele>2095.800048828125</ele>
        <time>2026-06-20T10:44:52.000Z</time>
        <extensions>
          <ns3:TrackPointExtension>
            <ns3:atemp>22.0</ns3:atemp>
          </ns3:TrackPointExtension>
        </extensions>
      </trkpt>
      <trkpt lat="42.50894129276275634765625" lon="20.15989802777767181396484375">
        <ele>2095.800048828125</ele>
        <time>2026-06-20T10:44:53.000Z</time>
        <extensions>
          <ns3:TrackPointExtension>
            <ns3:atemp>22.0</ns3:atemp>
          </ns3:TrackPointExtension>
        </extensions>
      </trkpt>
      <trkpt lat="42.5089203380048274993896484375" lon="20.15991236083209514617919921875">
        <ele>2095.60009765625</ele>
        <time>2026-06-20T10:44:54.000Z</time>
        <extensions>
          <ns3:TrackPointExtension>
            <ns3:atemp>22.0</ns3:atemp>
          </ns3:TrackPointExtension>
        </extensions>
      </trkpt>
      <trkpt lat="42.50889913178980350494384765625" lon="20.1599307172000408172607421875">
        <ele>2095.60009765625</ele>
        <time>2026-06-20T10:44:55.000Z</time>
        <extensions>
          <ns3:TrackPointExtension>
            <ns3:atemp>22.0</ns3:atemp>
          </ns3:TrackPointExtension>
        </extensions>
      </trkpt>
      <trkpt lat="42.50888085924088954925537109375" lon="20.15994354151189327239990234375">
        <ele>2095.39990234375</ele>
        <time>2026-06-20T10:44:56.000Z</time>
        <extensions>
          <ns3:TrackPointExtension>
            <ns3:atemp>22.0</ns3:atemp>
          </ns3:TrackPointExtension>
        </extensions>
      </trkpt>
      <trkpt lat="42.50886258669197559356689453125" lon="20.15995007939636707305908203125">
        <ele>2095.199951171875</ele>
        <time>2026-06-20T10:44:57.000Z</time>
        <extensions>
          <ns3:TrackPointExtension>
            <ns3:atemp>22.0</ns3:atemp>
          </ns3:TrackPointExtension>
        </extensions>
      </trkpt>
      <trkpt lat="42.50885034911334514617919921875" lon="20.1599568687379360198974609375">
        <ele>2095</ele>
        <time>2026-06-20T10:44:58.000Z</time>
        <extensions>
          <ns3:TrackPointExtension>
            <ns3:atemp>22.0</ns3:atemp>
          </ns3:TrackPointExtension>
        </extensions>
      </trkpt>
      <trkpt lat="42.5088381953537464141845703125" lon="20.159964747726917266845703125">
        <ele>2094.800048828125</ele>
        <time>2026-06-20T10:44:59.000Z</time>
        <extensions>
          <ns3:TrackPointExtension>
            <ns3:atemp>22.0</ns3:atemp>
          </ns3:TrackPointExtension>
        </extensions>
      </trkpt>
      <trkpt lat="42.50882620923221111297607421875" lon="20.1599751412868499755859375">
        <ele>2094.60009765625</ele>
        <time>2026-06-20T10:45:00.000Z</time>
        <extensions>
          <ns3:TrackPointExtension>
            <ns3:atemp>22.0</ns3:atemp>
          </ns3:TrackPointExtension>
        </extensions>
      </trkpt>
      <trkpt lat="42.50881698913872241973876953125" lon="20.1599867083132266998291015625">
        <ele>2094.39990234375</ele>
        <time>2026-06-20T10:45:01.000Z</time>
        <extensions>
          <ns3:TrackPointExtension>
            <ns3:atemp>22.0</ns3:atemp>
          </ns3:TrackPointExtension>
        </extensions>
      </trkpt>
      <trkpt lat="42.50880651175975799560546875" lon="20.1599897257983684539794921875">
        <ele>2094.199951171875</ele>
        <time>2026-06-20T10:45:02.000Z</time>
        <extensions>
          <ns3:TrackPointExtension>
            <ns3:atemp>22.0</ns3:atemp>
          </ns3:TrackPointExtension>
        </extensions>
      </trkpt>
      <trkpt lat="42.50880651175975799560546875" lon="20.1599826849997043609619140625">
        <ele>2094</ele>
        <time>2026-06-20T10:45:03.000Z</time>
        <extensions>
          <ns3:TrackPointExtension>
            <ns3:atemp>22.0</ns3:atemp>
          </ns3:TrackPointExtension>
        </extensions>
      </trkpt>
      <trkpt lat="42.50880726613104343414306640625" lon="20.159979164600372314453125">
        <ele>2093.60009765625</ele>
        <time>2026-06-20T10:45:04.000Z</time>
        <extensions>
          <ns3:TrackPointExtension>
            <ns3:atemp>22.0</ns3:atemp>
          </ns3:TrackPointExtension>
        </extensions>
      </trkpt>
      <trkpt lat="42.50880718231201171875" lon="20.15997924841940402984619140625">
        <ele>2093.60009765625</ele>
        <time>2026-06-20T10:45:05.000Z</time>
        <extensions>
          <ns3:TrackPointExtension>
            <ns3:atemp>22.0</ns3:atemp>
          </ns3:TrackPointExtension>
        </extensions>
      </trkpt>
      <trkpt lat="42.50880718231201171875" lon="20.15997924841940402984619140625">
        <ele>2093.39990234375</ele>
        <time>2026-06-20T10:45:06.000Z</time>
        <extensions>
          <ns3:TrackPointExtension>
            <ns3:atemp>22.0</ns3:atemp>
          </ns3:TrackPointExtension>
        </extensions>
      </trkpt>
      <trkpt lat="42.50880718231201171875" lon="20.15997924841940402984619140625">
        <ele>2093.39990234375</ele>
        <time>2026-06-20T10:45:07.000Z</time>
        <extensions>
          <ns3:TrackPointExtension>
            <ns3:atemp>22.0</ns3:atemp>
          </ns3:TrackPointExtension>
        </extensions>
      </trkpt>
      <trkpt lat="42.50880718231201171875" lon="20.15997924841940402984619140625">
        <ele>2093.39990234375</ele>
        <time>2026-06-20T10:45:08.000Z</time>
        <extensions>
          <ns3:TrackPointExtension>
            <ns3:atemp>22.0</ns3:atemp>
          </ns3:TrackPointExtension>
        </extensions>
      </trkpt>
      <trkpt lat="42.50880718231201171875" lon="20.15997924841940402984619140625">
        <ele>2093.39990234375</ele>
        <time>2026-06-20T10:45:09.000Z</time>
        <extensions>
          <ns3:TrackPointExtension>
            <ns3:atemp>22.0</ns3:atemp>
          </ns3:TrackPointExtension>
        </extensions>
      </trkpt>
      <trkpt lat="42.50880718231201171875" lon="20.15997924841940402984619140625">
        <ele>2093.39990234375</ele>
        <time>2026-06-20T10:45:10.000Z</time>
        <extensions>
          <ns3:TrackPointExtension>
            <ns3:atemp>22.0</ns3:atemp>
          </ns3:TrackPointExtension>
        </extensions>
      </trkpt>
      <trkpt lat="42.50880718231201171875" lon="20.15997924841940402984619140625">
        <ele>2093.39990234375</ele>
        <time>2026-06-20T10:45:11.000Z</time>
        <extensions>
          <ns3:TrackPointExtension>
            <ns3:atemp>22.0</ns3:atemp>
          </ns3:TrackPointExtension>
        </extensions>
      </trkpt>
      <trkpt lat="42.50880718231201171875" lon="20.15997924841940402984619140625">
        <ele>2093.39990234375</ele>
        <time>2026-06-20T10:45:12.000Z</time>
        <extensions>
          <ns3:TrackPointExtension>
            <ns3:atemp>22.0</ns3:atemp>
          </ns3:TrackPointExtension>
        </extensions>
      </trkpt>
      <trkpt lat="42.50880718231201171875" lon="20.15997924841940402984619140625">
        <ele>2093.39990234375</ele>
        <time>2026-06-20T10:45:13.000Z</time>
        <extensions>
          <ns3:TrackPointExtension>
            <ns3:atemp>22.0</ns3:atemp>
          </ns3:TrackPointExtension>
        </extensions>
      </trkpt>
      <trkpt lat="42.50880718231201171875" lon="20.15997924841940402984619140625">
        <ele>2093.39990234375</ele>
        <time>2026-06-20T10:45:14.000Z</time>
        <extensions>
          <ns3:TrackPointExtension>
            <ns3:atemp>22.0</ns3:atemp>
          </ns3:TrackPointExtension>
        </extensions>
      </trkpt>
      <trkpt lat="42.50880718231201171875" lon="20.15997924841940402984619140625">
        <ele>2093.39990234375</ele>
        <time>2026-06-20T10:45:15.000Z</time>
        <extensions>
          <ns3:TrackPointExtension>
            <ns3:atemp>22.0</ns3:atemp>
          </ns3:TrackPointExtension>
        </extensions>
      </trkpt>
      <trkpt lat="42.50880718231201171875" lon="20.15997924841940402984619140625">
        <ele>2093.39990234375</ele>
        <time>2026-06-20T10:45:16.000Z</time>
        <extensions>
          <ns3:TrackPointExtension>
            <ns3:atemp>22.0</ns3:atemp>
          </ns3:TrackPointExtension>
        </extensions>
      </trkpt>
      <trkpt lat="42.50880718231201171875" lon="20.15997924841940402984619140625">
        <ele>2093.39990234375</ele>
        <time>2026-06-20T10:45:17.000Z</time>
        <extensions>
          <ns3:TrackPointExtension>
            <ns3:atemp>22.0</ns3:atemp>
          </ns3:TrackPointExtension>
        </extensions>
      </trkpt>
      <trkpt lat="42.50880718231201171875" lon="20.15997924841940402984619140625">
        <ele>2093.39990234375</ele>
        <time>2026-06-20T10:45:18.000Z</time>
        <extensions>
          <ns3:TrackPointExtension>
            <ns3:atemp>22.0</ns3:atemp>
          </ns3:TrackPointExtension>
        </extensions>
      </trkpt>
      <trkpt lat="42.50880718231201171875" lon="20.15997924841940402984619140625">
        <ele>2093.39990234375</ele>
        <time>2026-06-20T10:45:19.000Z</time>
        <extensions>
          <ns3:TrackPointExtension>
            <ns3:atemp>22.0</ns3:atemp>
          </ns3:TrackPointExtension>
        </extensions>
      </trkpt>
      <trkpt lat="42.50880718231201171875" lon="20.15997924841940402984619140625">
        <ele>2093.39990234375</ele>
        <time>2026-06-20T10:45:20.000Z</time>
        <extensions>
          <ns3:TrackPointExtension>
            <ns3:atemp>22.0</ns3:atemp>
          </ns3:TrackPointExtension>
        </extensions>
      </trkpt>
      <trkpt lat="42.50880718231201171875" lon="20.15997924841940402984619140625">
        <ele>2093.39990234375</ele>
        <time>2026-06-20T10:45:21.000Z</time>
        <extensions>
          <ns3:TrackPointExtension>
            <ns3:atemp>22.0</ns3:atemp>
          </ns3:TrackPointExtension>
        </extensions>
      </trkpt>
      <trkpt lat="42.50880718231201171875" lon="20.15997924841940402984619140625">
        <ele>2093.39990234375</ele>
        <time>2026-06-20T10:45:22.000Z</time>
        <extensions>
          <ns3:TrackPointExtension>
            <ns3:atemp>22.0</ns3:atemp>
          </ns3:TrackPointExtension>
        </extensions>
      </trkpt>
      <trkpt lat="42.50880718231201171875" lon="20.15997924841940402984619140625">
        <ele>2093.39990234375</ele>
        <time>2026-06-20T10:45:23.000Z</time>
        <extensions>
          <ns3:TrackPointExtension>
            <ns3:atemp>22.0</ns3:atemp>
          </ns3:TrackPointExtension>
        </extensions>
      </trkpt>
      <trkpt lat="42.50880718231201171875" lon="20.15997924841940402984619140625">
        <ele>2093.199951171875</ele>
        <time>2026-06-20T10:45:24.000Z</time>
        <extensions>
          <ns3:TrackPointExtension>
            <ns3:atemp>22.0</ns3:atemp>
          </ns3:TrackPointExtension>
        </extensions>
      </trkpt>
      <trkpt lat="42.50880718231201171875" lon="20.15997924841940402984619140625">
        <ele>2093.199951171875</ele>
        <time>2026-06-20T10:45:25.000Z</time>
        <extensions>
          <ns3:TrackPointExtension>
            <ns3:atemp>22.0</ns3:atemp>
          </ns3:TrackPointExtension>
        </extensions>
      </trkpt>
      <trkpt lat="42.50880718231201171875" lon="20.15997924841940402984619140625">
        <ele>2093.199951171875</ele>
        <time>2026-06-20T10:45:26.000Z</time>
        <extensions>
          <ns3:TrackPointExtension>
            <ns3:atemp>22.0</ns3:atemp>
          </ns3:TrackPointExtension>
        </extensions>
      </trkpt>
      <trkpt lat="42.50880718231201171875" lon="20.15997924841940402984619140625">
        <ele>2093.199951171875</ele>
        <time>2026-06-20T10:45:27.000Z</time>
        <extensions>
          <ns3:TrackPointExtension>
            <ns3:atemp>22.0</ns3:atemp>
          </ns3:TrackPointExtension>
        </extensions>
      </trkpt>
      <trkpt lat="42.50880718231201171875" lon="20.15997924841940402984619140625">
        <ele>2093.199951171875</ele>
        <time>2026-06-20T10:45:28.000Z</time>
        <extensions>
          <ns3:TrackPointExtension>
            <ns3:atemp>22.0</ns3:atemp>
          </ns3:TrackPointExtension>
        </extensions>
      </trkpt>
      <trkpt lat="42.50880718231201171875" lon="20.15997924841940402984619140625">
        <ele>2093.39990234375</ele>
        <time>2026-06-20T10:45:29.000Z</time>
        <extensions>
          <ns3:TrackPointExtension>
            <ns3:atemp>22.0</ns3:atemp>
          </ns3:TrackPointExtension>
        </extensions>
      </trkpt>
      <trkpt lat="42.50880718231201171875" lon="20.15997924841940402984619140625">
        <ele>2093.39990234375</ele>
        <time>2026-06-20T10:45:30.000Z</time>
        <extensions>
          <ns3:TrackPointExtension>
            <ns3:atemp>22.0</ns3:atemp>
          </ns3:TrackPointExtension>
        </extensions>
      </trkpt>
      <trkpt lat="42.50880718231201171875" lon="20.15997924841940402984619140625">
        <ele>2093.39990234375</ele>
        <time>2026-06-20T10:45:31.000Z</time>
        <extensions>
          <ns3:TrackPointExtension>
            <ns3:atemp>22.0</ns3:atemp>
          </ns3:TrackPointExtension>
        </extensions>
      </trkpt>
      <trkpt lat="42.50880718231201171875" lon="20.15997924841940402984619140625">
        <ele>2093.39990234375</ele>
        <time>2026-06-20T10:45:32.000Z</time>
        <extensions>
          <ns3:TrackPointExtension>
            <ns3:atemp>22.0</ns3:atemp>
          </ns3:TrackPointExtension>
        </extensions>
      </trkpt>
      <trkpt lat="42.50880718231201171875" lon="20.15997924841940402984619140625">
        <ele>2093.39990234375</ele>
        <time>2026-06-20T10:45:33.000Z</time>
        <extensions>
          <ns3:TrackPointExtension>
            <ns3:atemp>22.0</ns3:atemp>
          </ns3:TrackPointExtension>
        </extensions>
      </trkpt>
      <trkpt lat="42.50880718231201171875" lon="20.15997924841940402984619140625">
        <ele>2093.199951171875</ele>
        <time>2026-06-20T10:45:34.000Z</time>
        <extensions>
          <ns3:TrackPointExtension>
            <ns3:atemp>22.0</ns3:atemp>
          </ns3:TrackPointExtension>
        </extensions>
      </trkpt>
      <trkpt lat="42.50880718231201171875" lon="20.15997924841940402984619140625">
        <ele>2093.199951171875</ele>
        <time>2026-06-20T10:45:35.000Z</time>
        <extensions>
          <ns3:TrackPointExtension>
            <ns3:atemp>22.0</ns3:atemp>
          </ns3:TrackPointExtension>
        </extensions>
      </trkpt>
      <trkpt lat="42.50880718231201171875" lon="20.15997924841940402984619140625">
        <ele>2093.199951171875</ele>
        <time>2026-06-20T10:45:36.000Z</time>
        <extensions>
          <ns3:TrackPointExtension>
            <ns3:atemp>22.0</ns3:atemp>
          </ns3:TrackPointExtension>
        </extensions>
      </trkpt>
      <trkpt lat="42.50880718231201171875" lon="20.15997924841940402984619140625">
        <ele>2093.39990234375</ele>
        <time>2026-06-20T10:45:37.000Z</time>
        <extensions>
          <ns3:TrackPointExtension>
            <ns3:atemp>22.0</ns3:atemp>
          </ns3:TrackPointExtension>
        </extensions>
      </trkpt>
      <trkpt lat="42.50880718231201171875" lon="20.15997924841940402984619140625">
        <ele>2093.39990234375</ele>
        <time>2026-06-20T10:45:38.000Z</time>
        <extensions>
          <ns3:TrackPointExtension>
            <ns3:atemp>21.0</ns3:atemp>
          </ns3:TrackPointExtension>
        </extensions>
      </trkpt>
      <trkpt lat="42.50880718231201171875" lon="20.15997924841940402984619140625">
        <ele>2093.39990234375</ele>
        <time>2026-06-20T10:45:39.000Z</time>
        <extensions>
          <ns3:TrackPointExtension>
            <ns3:atemp>22.0</ns3:atemp>
          </ns3:TrackPointExtension>
        </extensions>
      </trkpt>
      <trkpt lat="42.50880718231201171875" lon="20.15997924841940402984619140625">
        <ele>2093.39990234375</ele>
        <time>2026-06-20T10:45:40.000Z</time>
        <extensions>
          <ns3:TrackPointExtension>
            <ns3:atemp>22.0</ns3:atemp>
          </ns3:TrackPointExtension>
        </extensions>
      </trkpt>
      <trkpt lat="42.50880718231201171875" lon="20.15997924841940402984619140625">
        <ele>2093.39990234375</ele>
        <time>2026-06-20T10:45:41.000Z</time>
        <extensions>
          <ns3:TrackPointExtension>
            <ns3:atemp>22.0</ns3:atemp>
          </ns3:TrackPointExtension>
        </extensions>
      </trkpt>
      <trkpt lat="42.50880718231201171875" lon="20.15997924841940402984619140625">
        <ele>2093.39990234375</ele>
        <time>2026-06-20T10:45:42.000Z</time>
        <extensions>
          <ns3:TrackPointExtension>
            <ns3:atemp>22.0</ns3:atemp>
          </ns3:TrackPointExtension>
        </extensions>
      </trkpt>
      <trkpt lat="42.50880718231201171875" lon="20.15997924841940402984619140625">
        <ele>2093.39990234375</ele>
        <time>2026-06-20T10:45:43.000Z</time>
        <extensions>
          <ns3:TrackPointExtension>
            <ns3:atemp>22.0</ns3:atemp>
          </ns3:TrackPointExtension>
        </extensions>
      </trkpt>
      <trkpt lat="42.50880718231201171875" lon="20.15997924841940402984619140625">
        <ele>2093.39990234375</ele>
        <time>2026-06-20T10:45:44.000Z</time>
        <extensions>
          <ns3:TrackPointExtension>
            <ns3:atemp>22.0</ns3:atemp>
          </ns3:TrackPointExtension>
        </extensions>
      </trkpt>
      <trkpt lat="42.50880718231201171875" lon="20.15997924841940402984619140625">
        <ele>2093.39990234375</ele>
        <time>2026-06-20T10:45:45.000Z</time>
        <extensions>
          <ns3:TrackPointExtension>
            <ns3:atemp>22.0</ns3:atemp>
          </ns3:TrackPointExtension>
        </extensions>
      </trkpt>
      <trkpt lat="42.50880718231201171875" lon="20.15997924841940402984619140625">
        <ele>2093.39990234375</ele>
        <time>2026-06-20T10:45:46.000Z</time>
        <extensions>
          <ns3:TrackPointExtension>
            <ns3:atemp>22.0</ns3:atemp>
          </ns3:TrackPointExtension>
        </extensions>
      </trkpt>
      <trkpt lat="42.50880718231201171875" lon="20.15997924841940402984619140625">
        <ele>2093.199951171875</ele>
        <time>2026-06-20T10:45:47.000Z</time>
        <extensions>
          <ns3:TrackPointExtension>
            <ns3:atemp>22.0</ns3:atemp>
          </ns3:TrackPointExtension>
        </extensions>
      </trkpt>
      <trkpt lat="42.50880718231201171875" lon="20.15997924841940402984619140625">
        <ele>2093.199951171875</ele>
        <time>2026-06-20T10:45:48.000Z</time>
        <extensions>
          <ns3:TrackPointExtension>
            <ns3:atemp>22.0</ns3:atemp>
          </ns3:TrackPointExtension>
        </extensions>
      </trkpt>
      <trkpt lat="42.50880718231201171875" lon="20.15997924841940402984619140625">
        <ele>2093.199951171875</ele>
        <time>2026-06-20T10:45:49.000Z</time>
        <extensions>
          <ns3:TrackPointExtension>
            <ns3:atemp>22.0</ns3:atemp>
          </ns3:TrackPointExtension>
        </extensions>
      </trkpt>
      <trkpt lat="42.50880718231201171875" lon="20.15997924841940402984619140625">
        <ele>2093.199951171875</ele>
        <time>2026-06-20T10:45:50.000Z</time>
        <extensions>
          <ns3:TrackPointExtension>
            <ns3:atemp>22.0</ns3:atemp>
          </ns3:TrackPointExtension>
        </extensions>
      </trkpt>
      <trkpt lat="42.50880718231201171875" lon="20.15997924841940402984619140625">
        <ele>2093.199951171875</ele>
        <time>2026-06-20T10:45:51.000Z</time>
        <extensions>
          <ns3:TrackPointExtension>
            <ns3:atemp>22.0</ns3:atemp>
          </ns3:TrackPointExtension>
        </extensions>
      </trkpt>
      <trkpt lat="42.50880718231201171875" lon="20.15997924841940402984619140625">
        <ele>2093.199951171875</ele>
        <time>2026-06-20T10:45:52.000Z</time>
        <extensions>
          <ns3:TrackPointExtension>
            <ns3:atemp>22.0</ns3:atemp>
          </ns3:TrackPointExtension>
        </extensions>
      </trkpt>
      <trkpt lat="42.50880718231201171875" lon="20.15997924841940402984619140625">
        <ele>2093.199951171875</ele>
        <time>2026-06-20T10:45:53.000Z</time>
        <extensions>
          <ns3:TrackPointExtension>
            <ns3:atemp>22.0</ns3:atemp>
          </ns3:TrackPointExtension>
        </extensions>
      </trkpt>
      <trkpt lat="42.50880718231201171875" lon="20.15997924841940402984619140625">
        <ele>2093.199951171875</ele>
        <time>2026-06-20T10:45:54.000Z</time>
        <extensions>
          <ns3:TrackPointExtension>
            <ns3:atemp>22.0</ns3:atemp>
          </ns3:TrackPointExtension>
        </extensions>
      </trkpt>
      <trkpt lat="42.50880718231201171875" lon="20.15997924841940402984619140625">
        <ele>2093.199951171875</ele>
        <time>2026-06-20T10:45:55.000Z</time>
        <extensions>
          <ns3:TrackPointExtension>
            <ns3:atemp>22.0</ns3:atemp>
          </ns3:TrackPointExtension>
        </extensions>
      </trkpt>
      <trkpt lat="42.50880718231201171875" lon="20.15997924841940402984619140625">
        <ele>2093</ele>
        <time>2026-06-20T10:45:56.000Z</time>
        <extensions>
          <ns3:TrackPointExtension>
            <ns3:atemp>22.0</ns3:atemp>
          </ns3:TrackPointExtension>
        </extensions>
      </trkpt>
      <trkpt lat="42.50880718231201171875" lon="20.15997924841940402984619140625">
        <ele>2093</ele>
        <time>2026-06-20T10:45:57.000Z</time>
        <extensions>
          <ns3:TrackPointExtension>
            <ns3:atemp>22.0</ns3:atemp>
          </ns3:TrackPointExtension>
        </extensions>
      </trkpt>
      <trkpt lat="42.50880718231201171875" lon="20.15997924841940402984619140625">
        <ele>2093</ele>
        <time>2026-06-20T10:45:58.000Z</time>
        <extensions>
          <ns3:TrackPointExtension>
            <ns3:atemp>22.0</ns3:atemp>
          </ns3:TrackPointExtension>
        </extensions>
      </trkpt>
      <trkpt lat="42.50880718231201171875" lon="20.15997924841940402984619140625">
        <ele>2093</ele>
        <time>2026-06-20T10:45:59.000Z</time>
        <extensions>
          <ns3:TrackPointExtension>
            <ns3:atemp>22.0</ns3:atemp>
          </ns3:TrackPointExtension>
        </extensions>
      </trkpt>
      <trkpt lat="42.50880718231201171875" lon="20.15997924841940402984619140625">
        <ele>2093</ele>
        <time>2026-06-20T10:46:00.000Z</time>
        <extensions>
          <ns3:TrackPointExtension>
            <ns3:atemp>22.0</ns3:atemp>
          </ns3:TrackPointExtension>
        </extensions>
      </trkpt>
      <trkpt lat="42.50880718231201171875" lon="20.15997924841940402984619140625">
        <ele>2093.199951171875</ele>
        <time>2026-06-20T10:46:01.000Z</time>
        <extensions>
          <ns3:TrackPointExtension>
            <ns3:atemp>22.0</ns3:atemp>
          </ns3:TrackPointExtension>
        </extensions>
      </trkpt>
      <trkpt lat="42.50880718231201171875" lon="20.15997924841940402984619140625">
        <ele>2093.199951171875</ele>
        <time>2026-06-20T10:46:02.000Z</time>
        <extensions>
          <ns3:TrackPointExtension>
            <ns3:atemp>22.0</ns3:atemp>
          </ns3:TrackPointExtension>
        </extensions>
      </trkpt>
      <trkpt lat="42.50880718231201171875" lon="20.15997924841940402984619140625">
        <ele>2093.199951171875</ele>
        <time>2026-06-20T10:46:03.000Z</time>
        <extensions>
          <ns3:TrackPointExtension>
            <ns3:atemp>22.0</ns3:atemp>
          </ns3:TrackPointExtension>
        </extensions>
      </trkpt>
      <trkpt lat="42.50880718231201171875" lon="20.15997924841940402984619140625">
        <ele>2093.199951171875</ele>
        <time>2026-06-20T10:46:04.000Z</time>
        <extensions>
          <ns3:TrackPointExtension>
            <ns3:atemp>22.0</ns3:atemp>
          </ns3:TrackPointExtension>
        </extensions>
      </trkpt>
      <trkpt lat="42.50880718231201171875" lon="20.15997924841940402984619140625">
        <ele>2093.199951171875</ele>
        <time>2026-06-20T10:46:05.000Z</time>
        <extensions>
          <ns3:TrackPointExtension>
            <ns3:atemp>22.0</ns3:atemp>
          </ns3:TrackPointExtension>
        </extensions>
      </trkpt>
      <trkpt lat="42.50880651175975799560546875" lon="20.1599800027906894683837890625">
        <ele>2093.199951171875</ele>
        <time>2026-06-20T10:46:06.000Z</time>
        <extensions>
          <ns3:TrackPointExtension>
            <ns3:atemp>22.0</ns3:atemp>
          </ns3:TrackPointExtension>
        </extensions>
      </trkpt>
      <trkpt lat="42.50879150815308094024658203125" lon="20.159990228712558746337890625">
        <ele>2093.199951171875</ele>
        <time>2026-06-20T10:46:07.000Z</time>
        <extensions>
          <ns3:TrackPointExtension>
            <ns3:atemp>21.0</ns3:atemp>
          </ns3:TrackPointExtension>
        </extensions>
      </trkpt>
      <trkpt lat="42.508777342736721038818359375" lon="20.16000187955796718597412109375">
        <ele>2093.199951171875</ele>
        <time>2026-06-20T10:46:08.000Z</time>
        <extensions>
          <ns3:TrackPointExtension>
            <ns3:atemp>21.0</ns3:atemp>
          </ns3:TrackPointExtension>
        </extensions>
      </trkpt>
      <trkpt lat="42.5087563879787921905517578125" lon="20.160016715526580810546875">
        <ele>2093.60009765625</ele>
        <time>2026-06-20T10:46:09.000Z</time>
        <extensions>
          <ns3:TrackPointExtension>
            <ns3:atemp>21.0</ns3:atemp>
          </ns3:TrackPointExtension>
        </extensions>
      </trkpt>
      <trkpt lat="42.5087282247841358184814453125" lon="20.160043537616729736328125">
        <ele>2093.39990234375</ele>
        <time>2026-06-20T10:46:10.000Z</time>
        <extensions>
          <ns3:TrackPointExtension>
            <ns3:atemp>21.0</ns3:atemp>
          </ns3:TrackPointExtension>
        </extensions>
      </trkpt>
      <trkpt lat="42.50869377516210079193115234375" lon="20.16007815487682819366455078125">
        <ele>2092.800048828125</ele>
        <time>2026-06-20T10:46:11.000Z</time>
        <extensions>
          <ns3:TrackPointExtension>
            <ns3:atemp>21.0</ns3:atemp>
          </ns3:TrackPointExtension>
        </extensions>
      </trkpt>
      <trkpt lat="42.50866007991135120391845703125" lon="20.1601074077188968658447265625">
        <ele>2092.39990234375</ele>
        <time>2026-06-20T10:46:12.000Z</time>
        <extensions>
          <ns3:TrackPointExtension>
            <ns3:atemp>21.0</ns3:atemp>
          </ns3:TrackPointExtension>
        </extensions>
      </trkpt>
      <trkpt lat="42.50861716456711292266845703125" lon="20.16013816930353641510009765625">
        <ele>2092</ele>
        <time>2026-06-20T10:46:13.000Z</time>
        <extensions>
          <ns3:TrackPointExtension>
            <ns3:atemp>22.0</ns3:atemp>
          </ns3:TrackPointExtension>
        </extensions>
      </trkpt>
      <trkpt lat="42.50856804661452770233154296875" lon="20.160166919231414794921875">
        <ele>2091.39990234375</ele>
        <time>2026-06-20T10:46:14.000Z</time>
        <extensions>
          <ns3:TrackPointExtension>
            <ns3:atemp>22.0</ns3:atemp>
          </ns3:TrackPointExtension>
        </extensions>
      </trkpt>
      <trkpt lat="42.50850853510200977325439453125" lon="20.1601955853402614593505859375">
        <ele>2091</ele>
        <time>2026-06-20T10:46:15.000Z</time>
        <extensions>
          <ns3:TrackPointExtension>
            <ns3:atemp>22.0</ns3:atemp>
          </ns3:TrackPointExtension>
        </extensions>
      </trkpt>
      <trkpt lat="42.5084479339420795440673828125" lon="20.16023372299969196319580078125">
        <ele>2090.39990234375</ele>
        <time>2026-06-20T10:46:16.000Z</time>
        <extensions>
          <ns3:TrackPointExtension>
            <ns3:atemp>22.0</ns3:atemp>
          </ns3:TrackPointExtension>
        </extensions>
      </trkpt>
      <trkpt lat="42.50839470885694026947021484375" lon="20.16027487814426422119140625">
        <ele>2089.800048828125</ele>
        <time>2026-06-20T10:46:17.000Z</time>
        <extensions>
          <ns3:TrackPointExtension>
            <ns3:atemp>21.0</ns3:atemp>
          </ns3:TrackPointExtension>
        </extensions>
      </trkpt>
      <trkpt lat="42.50835062004625797271728515625" lon="20.1603099144995212554931640625">
        <ele>2089.60009765625</ele>
        <time>2026-06-20T10:46:18.000Z</time>
        <extensions>
          <ns3:TrackPointExtension>
            <ns3:atemp>22.0</ns3:atemp>
          </ns3:TrackPointExtension>
        </extensions>
      </trkpt>
      <trkpt lat="42.50830988399684429168701171875" lon="20.16034034080803394317626953125">
        <ele>2089.60009765625</ele>
        <time>2026-06-20T10:46:19.000Z</time>
        <extensions>
          <ns3:TrackPointExtension>
            <ns3:atemp>22.0</ns3:atemp>
          </ns3:TrackPointExtension>
        </extensions>
      </trkpt>
      <trkpt lat="42.508270740509033203125" lon="20.1603729464113712310791015625">
        <ele>2089.800048828125</ele>
        <time>2026-06-20T10:46:20.000Z</time>
        <extensions>
          <ns3:TrackPointExtension>
            <ns3:atemp>22.0</ns3:atemp>
          </ns3:TrackPointExtension>
        </extensions>
      </trkpt>
      <trkpt lat="42.50823059119284152984619140625" lon="20.16040504910051822662353515625">
        <ele>2090</ele>
        <time>2026-06-20T10:46:21.000Z</time>
        <extensions>
          <ns3:TrackPointExtension>
            <ns3:atemp>22.0</ns3:atemp>
          </ns3:TrackPointExtension>
        </extensions>
      </trkpt>
      <trkpt lat="42.5081954710185527801513671875" lon="20.16043723560869693756103515625">
        <ele>2090</ele>
        <time>2026-06-20T10:46:22.000Z</time>
        <extensions>
          <ns3:TrackPointExtension>
            <ns3:atemp>22.0</ns3:atemp>
          </ns3:TrackPointExtension>
        </extensions>
      </trkpt>
      <trkpt lat="42.50816303305327892303466796875" lon="20.1604698412120342254638671875">
        <ele>2090.199951171875</ele>
        <time>2026-06-20T10:46:23.000Z</time>
        <extensions>
          <ns3:TrackPointExtension>
            <ns3:atemp>22.0</ns3:atemp>
          </ns3:TrackPointExtension>
        </extensions>
      </trkpt>
      <trkpt lat="42.50813461840152740478515625" lon="20.160507224500179290771484375">
        <ele>2090.199951171875</ele>
        <time>2026-06-20T10:46:24.000Z</time>
        <extensions>
          <ns3:TrackPointExtension>
            <ns3:atemp>22.0</ns3:atemp>
          </ns3:TrackPointExtension>
        </extensions>
      </trkpt>
      <trkpt lat="42.50810804776847362518310546875" lon="20.16054217703640460968017578125">
        <ele>2090.39990234375</ele>
        <time>2026-06-20T10:46:25.000Z</time>
        <extensions>
          <ns3:TrackPointExtension>
            <ns3:atemp>22.0</ns3:atemp>
          </ns3:TrackPointExtension>
        </extensions>
      </trkpt>
      <trkpt lat="42.50808231532573699951171875" lon="20.16057821922004222869873046875">
        <ele>2090.60009765625</ele>
        <time>2026-06-20T10:46:26.000Z</time>
        <extensions>
          <ns3:TrackPointExtension>
            <ns3:atemp>22.0</ns3:atemp>
          </ns3:TrackPointExtension>
        </extensions>
      </trkpt>
      <trkpt lat="42.508059851825237274169921875" lon="20.16060889698565006256103515625">
        <ele>2090.800048828125</ele>
        <time>2026-06-20T10:46:27.000Z</time>
        <extensions>
          <ns3:TrackPointExtension>
            <ns3:atemp>21.0</ns3:atemp>
          </ns3:TrackPointExtension>
        </extensions>
      </trkpt>
      <trkpt lat="42.50803730450570583343505859375" lon="20.1606344617903232574462890625">
        <ele>2091</ele>
        <time>2026-06-20T10:46:28.000Z</time>
        <extensions>
          <ns3:TrackPointExtension>
            <ns3:atemp>22.0</ns3:atemp>
          </ns3:TrackPointExtension>
        </extensions>
      </trkpt>
      <trkpt lat="42.50801148824393749237060546875" lon="20.1606609486043453216552734375">
        <ele>2091</ele>
        <time>2026-06-20T10:46:29.000Z</time>
        <extensions>
          <ns3:TrackPointExtension>
            <ns3:atemp>21.0</ns3:atemp>
          </ns3:TrackPointExtension>
        </extensions>
      </trkpt>
      <trkpt lat="42.50798818655312061309814453125" lon="20.16068735159933567047119140625">
        <ele>2091.199951171875</ele>
        <time>2026-06-20T10:46:30.000Z</time>
        <extensions>
          <ns3:TrackPointExtension>
            <ns3:atemp>21.0</ns3:atemp>
          </ns3:TrackPointExtension>
        </extensions>
      </trkpt>
      <trkpt lat="42.50797142274677753448486328125" lon="20.16071836464107036590576171875">
        <ele>2091.39990234375</ele>
        <time>2026-06-20T10:46:31.000Z</time>
        <extensions>
          <ns3:TrackPointExtension>
            <ns3:atemp>21.0</ns3:atemp>
          </ns3:TrackPointExtension>
        </extensions>
      </trkpt>
      <trkpt lat="42.50795734114944934844970703125" lon="20.1607417501509189605712890625">
        <ele>2091.60009765625</ele>
        <time>2026-06-20T10:46:32.000Z</time>
        <extensions>
          <ns3:TrackPointExtension>
            <ns3:atemp>21.0</ns3:atemp>
          </ns3:TrackPointExtension>
        </extensions>
      </trkpt>
      <trkpt lat="42.507942505180835723876953125" lon="20.160754658281803131103515625">
        <ele>2091.800048828125</ele>
        <time>2026-06-20T10:46:33.000Z</time>
        <extensions>
          <ns3:TrackPointExtension>
            <ns3:atemp>21.0</ns3:atemp>
          </ns3:TrackPointExtension>
        </extensions>
      </trkpt>
      <trkpt lat="42.50792808830738067626953125" lon="20.1607605256140232086181640625">
        <ele>2092</ele>
        <time>2026-06-20T10:46:34.000Z</time>
        <extensions>
          <ns3:TrackPointExtension>
            <ns3:atemp>21.0</ns3:atemp>
          </ns3:TrackPointExtension>
        </extensions>
      </trkpt>
      <trkpt lat="42.50791593454778194427490234375" lon="20.1607692427933216094970703125">
        <ele>2092.39990234375</ele>
        <time>2026-06-20T10:46:35.000Z</time>
        <extensions>
          <ns3:TrackPointExtension>
            <ns3:atemp>21.0</ns3:atemp>
          </ns3:TrackPointExtension>
        </extensions>
      </trkpt>
      <trkpt lat="42.50790235586464405059814453125" lon="20.16077619977295398712158203125">
        <ele>2092.60009765625</ele>
        <time>2026-06-20T10:46:36.000Z</time>
        <extensions>
          <ns3:TrackPointExtension>
            <ns3:atemp>21.0</ns3:atemp>
          </ns3:TrackPointExtension>
        </extensions>
      </trkpt>
      <trkpt lat="42.5078912079334259033203125" lon="20.16077653504908084869384765625">
        <ele>2093</ele>
        <time>2026-06-20T10:46:37.000Z</time>
        <extensions>
          <ns3:TrackPointExtension>
            <ns3:atemp>21.0</ns3:atemp>
          </ns3:TrackPointExtension>
        </extensions>
      </trkpt>
      <trkpt lat="42.507883496582508087158203125" lon="20.1607803069055080413818359375">
        <ele>2093.199951171875</ele>
        <time>2026-06-20T10:46:38.000Z</time>
        <extensions>
          <ns3:TrackPointExtension>
            <ns3:atemp>21.0</ns3:atemp>
          </ns3:TrackPointExtension>
        </extensions>
      </trkpt>
      <trkpt lat="42.5078776292502880096435546875" lon="20.1607769541442394256591796875">
        <ele>2093.60009765625</ele>
        <time>2026-06-20T10:46:39.000Z</time>
        <extensions>
          <ns3:TrackPointExtension>
            <ns3:atemp>21.0</ns3:atemp>
          </ns3:TrackPointExtension>
        </extensions>
      </trkpt>
      <trkpt lat="42.5078776292502880096435546875" lon="20.1607742719352245330810546875">
        <ele>2093.800048828125</ele>
        <time>2026-06-20T10:46:40.000Z</time>
        <extensions>
          <ns3:TrackPointExtension>
            <ns3:atemp>21.0</ns3:atemp>
          </ns3:TrackPointExtension>
        </extensions>
      </trkpt>
      <trkpt lat="42.5078776292502880096435546875" lon="20.1607742719352245330810546875">
        <ele>2094</ele>
        <time>2026-06-20T10:46:41.000Z</time>
        <extensions>
          <ns3:TrackPointExtension>
            <ns3:atemp>21.0</ns3:atemp>
          </ns3:TrackPointExtension>
        </extensions>
      </trkpt>
      <trkpt lat="42.5078776292502880096435546875" lon="20.1607742719352245330810546875">
        <ele>2094.199951171875</ele>
        <time>2026-06-20T10:46:42.000Z</time>
        <extensions>
          <ns3:TrackPointExtension>
            <ns3:atemp>21.0</ns3:atemp>
          </ns3:TrackPointExtension>
        </extensions>
      </trkpt>
      <trkpt lat="42.5078776292502880096435546875" lon="20.1607742719352245330810546875">
        <ele>2094.39990234375</ele>
        <time>2026-06-20T10:46:43.000Z</time>
        <extensions>
          <ns3:TrackPointExtension>
            <ns3:atemp>21.0</ns3:atemp>
          </ns3:TrackPointExtension>
        </extensions>
      </trkpt>
      <trkpt lat="42.5078776292502880096435546875" lon="20.1607742719352245330810546875">
        <ele>2094.39990234375</ele>
        <time>2026-06-20T10:46:44.000Z</time>
        <extensions>
          <ns3:TrackPointExtension>
            <ns3:atemp>21.0</ns3:atemp>
          </ns3:TrackPointExtension>
        </extensions>
      </trkpt>
      <trkpt lat="42.5078776292502880096435546875" lon="20.1607742719352245330810546875">
        <ele>2094.39990234375</ele>
        <time>2026-06-20T10:46:45.000Z</time>
        <extensions>
          <ns3:TrackPointExtension>
            <ns3:atemp>21.0</ns3:atemp>
          </ns3:TrackPointExtension>
        </extensions>
      </trkpt>
      <trkpt lat="42.5078776292502880096435546875" lon="20.1607742719352245330810546875">
        <ele>2094.39990234375</ele>
        <time>2026-06-20T10:46:46.000Z</time>
        <extensions>
          <ns3:TrackPointExtension>
            <ns3:atemp>21.0</ns3:atemp>
          </ns3:TrackPointExtension>
        </extensions>
      </trkpt>
      <trkpt lat="42.5078776292502880096435546875" lon="20.1607742719352245330810546875">
        <ele>2094.39990234375</ele>
        <time>2026-06-20T10:46:47.000Z</time>
        <extensions>
          <ns3:TrackPointExtension>
            <ns3:atemp>21.0</ns3:atemp>
          </ns3:TrackPointExtension>
        </extensions>
      </trkpt>
      <trkpt lat="42.5078776292502880096435546875" lon="20.1607742719352245330810546875">
        <ele>2094.39990234375</ele>
        <time>2026-06-20T10:46:48.000Z</time>
        <extensions>
          <ns3:TrackPointExtension>
            <ns3:atemp>21.0</ns3:atemp>
          </ns3:TrackPointExtension>
        </extensions>
      </trkpt>
      <trkpt lat="42.5078776292502880096435546875" lon="20.1607742719352245330810546875">
        <ele>2094.39990234375</ele>
        <time>2026-06-20T10:46:49.000Z</time>
        <extensions>
          <ns3:TrackPointExtension>
            <ns3:atemp>21.0</ns3:atemp>
          </ns3:TrackPointExtension>
        </extensions>
      </trkpt>
      <trkpt lat="42.5078776292502880096435546875" lon="20.1607742719352245330810546875">
        <ele>2094.39990234375</ele>
        <time>2026-06-20T10:46:50.000Z</time>
        <extensions>
          <ns3:TrackPointExtension>
            <ns3:atemp>21.0</ns3:atemp>
          </ns3:TrackPointExtension>
        </extensions>
      </trkpt>
      <trkpt lat="42.5078776292502880096435546875" lon="20.1607742719352245330810546875">
        <ele>2094.39990234375</ele>
        <time>2026-06-20T10:46:51.000Z</time>
        <extensions>
          <ns3:TrackPointExtension>
            <ns3:atemp>21.0</ns3:atemp>
          </ns3:TrackPointExtension>
        </extensions>
      </trkpt>
      <trkpt lat="42.5078776292502880096435546875" lon="20.1607742719352245330810546875">
        <ele>2094.39990234375</ele>
        <time>2026-06-20T10:46:52.000Z</time>
        <extensions>
          <ns3:TrackPointExtension>
            <ns3:atemp>21.0</ns3:atemp>
          </ns3:TrackPointExtension>
        </extensions>
      </trkpt>
      <trkpt lat="42.5078776292502880096435546875" lon="20.1607742719352245330810546875">
        <ele>2094.39990234375</ele>
        <time>2026-06-20T10:46:53.000Z</time>
        <extensions>
          <ns3:TrackPointExtension>
            <ns3:atemp>21.0</ns3:atemp>
          </ns3:TrackPointExtension>
        </extensions>
      </trkpt>
      <trkpt lat="42.5078776292502880096435546875" lon="20.1607742719352245330810546875">
        <ele>2094.39990234375</ele>
        <time>2026-06-20T10:46:54.000Z</time>
        <extensions>
          <ns3:TrackPointExtension>
            <ns3:atemp>21.0</ns3:atemp>
          </ns3:TrackPointExtension>
        </extensions>
      </trkpt>
      <trkpt lat="42.5078776292502880096435546875" lon="20.1607742719352245330810546875">
        <ele>2094.60009765625</ele>
        <time>2026-06-20T10:46:55.000Z</time>
        <extensions>
          <ns3:TrackPointExtension>
            <ns3:atemp>21.0</ns3:atemp>
          </ns3:TrackPointExtension>
        </extensions>
      </trkpt>
      <trkpt lat="42.5078776292502880096435546875" lon="20.1607742719352245330810546875">
        <ele>2094.39990234375</ele>
        <time>2026-06-20T10:46:56.000Z</time>
        <extensions>
          <ns3:TrackPointExtension>
            <ns3:atemp>21.0</ns3:atemp>
          </ns3:TrackPointExtension>
        </extensions>
      </trkpt>
      <trkpt lat="42.5078776292502880096435546875" lon="20.1607742719352245330810546875">
        <ele>2094.39990234375</ele>
        <time>2026-06-20T10:46:57.000Z</time>
        <extensions>
          <ns3:TrackPointExtension>
            <ns3:atemp>22.0</ns3:atemp>
          </ns3:TrackPointExtension>
        </extensions>
      </trkpt>
      <trkpt lat="42.5078776292502880096435546875" lon="20.1607742719352245330810546875">
        <ele>2094.39990234375</ele>
        <time>2026-06-20T10:46:58.000Z</time>
        <extensions>
          <ns3:TrackPointExtension>
            <ns3:atemp>22.0</ns3:atemp>
          </ns3:TrackPointExtension>
        </extensions>
      </trkpt>
      <trkpt lat="42.5078776292502880096435546875" lon="20.1607742719352245330810546875">
        <ele>2094.39990234375</ele>
        <time>2026-06-20T10:46:59.000Z</time>
        <extensions>
          <ns3:TrackPointExtension>
            <ns3:atemp>21.0</ns3:atemp>
          </ns3:TrackPointExtension>
        </extensions>
      </trkpt>
      <trkpt lat="42.5078776292502880096435546875" lon="20.1607742719352245330810546875">
        <ele>2094.39990234375</ele>
        <time>2026-06-20T10:47:00.000Z</time>
        <extensions>
          <ns3:TrackPointExtension>
            <ns3:atemp>21.0</ns3:atemp>
          </ns3:TrackPointExtension>
        </extensions>
      </trkpt>
      <trkpt lat="42.5078776292502880096435546875" lon="20.1607742719352245330810546875">
        <ele>2094.39990234375</ele>
        <time>2026-06-20T10:47:01.000Z</time>
        <extensions>
          <ns3:TrackPointExtension>
            <ns3:atemp>21.0</ns3:atemp>
          </ns3:TrackPointExtension>
        </extensions>
      </trkpt>
      <trkpt lat="42.5078776292502880096435546875" lon="20.1607742719352245330810546875">
        <ele>2094.39990234375</ele>
        <time>2026-06-20T10:47:02.000Z</time>
        <extensions>
          <ns3:TrackPointExtension>
            <ns3:atemp>21.0</ns3:atemp>
          </ns3:TrackPointExtension>
        </extensions>
      </trkpt>
      <trkpt lat="42.5078776292502880096435546875" lon="20.1607742719352245330810546875">
        <ele>2094.39990234375</ele>
        <time>2026-06-20T10:47:03.000Z</time>
        <extensions>
          <ns3:TrackPointExtension>
            <ns3:atemp>21.0</ns3:atemp>
          </ns3:TrackPointExtension>
        </extensions>
      </trkpt>
      <trkpt lat="42.5078776292502880096435546875" lon="20.1607742719352245330810546875">
        <ele>2094.39990234375</ele>
        <time>2026-06-20T10:47:04.000Z</time>
        <extensions>
          <ns3:TrackPointExtension>
            <ns3:atemp>21.0</ns3:atemp>
          </ns3:TrackPointExtension>
        </extensions>
      </trkpt>
      <trkpt lat="42.5078776292502880096435546875" lon="20.1607742719352245330810546875">
        <ele>2094.39990234375</ele>
        <time>2026-06-20T10:47:05.000Z</time>
        <extensions>
          <ns3:TrackPointExtension>
            <ns3:atemp>21.0</ns3:atemp>
          </ns3:TrackPointExtension>
        </extensions>
      </trkpt>
      <trkpt lat="42.5078776292502880096435546875" lon="20.1607742719352245330810546875">
        <ele>2094.39990234375</ele>
        <time>2026-06-20T10:47:06.000Z</time>
        <extensions>
          <ns3:TrackPointExtension>
            <ns3:atemp>21.0</ns3:atemp>
          </ns3:TrackPointExtension>
        </extensions>
      </trkpt>
      <trkpt lat="42.5078776292502880096435546875" lon="20.1607742719352245330810546875">
        <ele>2094.39990234375</ele>
        <time>2026-06-20T10:47:07.000Z</time>
        <extensions>
          <ns3:TrackPointExtension>
            <ns3:atemp>21.0</ns3:atemp>
          </ns3:TrackPointExtension>
        </extensions>
      </trkpt>
      <trkpt lat="42.5078776292502880096435546875" lon="20.1607742719352245330810546875">
        <ele>2094.39990234375</ele>
        <time>2026-06-20T10:47:08.000Z</time>
        <extensions>
          <ns3:TrackPointExtension>
            <ns3:atemp>21.0</ns3:atemp>
          </ns3:TrackPointExtension>
        </extensions>
      </trkpt>
      <trkpt lat="42.5078776292502880096435546875" lon="20.1607742719352245330810546875">
        <ele>2094.199951171875</ele>
        <time>2026-06-20T10:47:09.000Z</time>
        <extensions>
          <ns3:TrackPointExtension>
            <ns3:atemp>21.0</ns3:atemp>
          </ns3:TrackPointExtension>
        </extensions>
      </trkpt>
      <trkpt lat="42.5078776292502880096435546875" lon="20.1607742719352245330810546875">
        <ele>2094.199951171875</ele>
        <time>2026-06-20T10:47:10.000Z</time>
        <extensions>
          <ns3:TrackPointExtension>
            <ns3:atemp>21.0</ns3:atemp>
          </ns3:TrackPointExtension>
        </extensions>
      </trkpt>
      <trkpt lat="42.5078776292502880096435546875" lon="20.1607742719352245330810546875">
        <ele>2094.39990234375</ele>
        <time>2026-06-20T10:47:11.000Z</time>
        <extensions>
          <ns3:TrackPointExtension>
            <ns3:atemp>21.0</ns3:atemp>
          </ns3:TrackPointExtension>
        </extensions>
      </trkpt>
      <trkpt lat="42.5078776292502880096435546875" lon="20.1607742719352245330810546875">
        <ele>2094.39990234375</ele>
        <time>2026-06-20T10:47:12.000Z</time>
        <extensions>
          <ns3:TrackPointExtension>
            <ns3:atemp>21.0</ns3:atemp>
          </ns3:TrackPointExtension>
        </extensions>
      </trkpt>
      <trkpt lat="42.5078776292502880096435546875" lon="20.1607742719352245330810546875">
        <ele>2094.60009765625</ele>
        <time>2026-06-20T10:47:13.000Z</time>
        <extensions>
          <ns3:TrackPointExtension>
            <ns3:atemp>21.0</ns3:atemp>
          </ns3:TrackPointExtension>
        </extensions>
      </trkpt>
      <trkpt lat="42.5078776292502880096435546875" lon="20.1607742719352245330810546875">
        <ele>2094.800048828125</ele>
        <time>2026-06-20T10:47:14.000Z</time>
        <extensions>
          <ns3:TrackPointExtension>
            <ns3:atemp>21.0</ns3:atemp>
          </ns3:TrackPointExtension>
        </extensions>
      </trkpt>
      <trkpt lat="42.5078776292502880096435546875" lon="20.1607742719352245330810546875">
        <ele>2095</ele>
        <time>2026-06-20T10:47:15.000Z</time>
        <extensions>
          <ns3:TrackPointExtension>
            <ns3:atemp>22.0</ns3:atemp>
          </ns3:TrackPointExtension>
        </extensions>
      </trkpt>
      <trkpt lat="42.5078776292502880096435546875" lon="20.1607742719352245330810546875">
        <ele>2095</ele>
        <time>2026-06-20T10:47:16.000Z</time>
        <extensions>
          <ns3:TrackPointExtension>
            <ns3:atemp>21.0</ns3:atemp>
          </ns3:TrackPointExtension>
        </extensions>
      </trkpt>
      <trkpt lat="42.5078776292502880096435546875" lon="20.1607742719352245330810546875">
        <ele>2095.199951171875</ele>
        <time>2026-06-20T10:47:17.000Z</time>
        <extensions>
          <ns3:TrackPointExtension>
            <ns3:atemp>21.0</ns3:atemp>
          </ns3:TrackPointExtension>
        </extensions>
      </trkpt>
      <trkpt lat="42.5078776292502880096435546875" lon="20.1607742719352245330810546875">
        <ele>2095.199951171875</ele>
        <time>2026-06-20T10:47:18.000Z</time>
        <extensions>
          <ns3:TrackPointExtension>
            <ns3:atemp>21.0</ns3:atemp>
          </ns3:TrackPointExtension>
        </extensions>
      </trkpt>
      <trkpt lat="42.5078776292502880096435546875" lon="20.1607742719352245330810546875">
        <ele>2095.199951171875</ele>
        <time>2026-06-20T10:47:19.000Z</time>
        <extensions>
          <ns3:TrackPointExtension>
            <ns3:atemp>22.0</ns3:atemp>
          </ns3:TrackPointExtension>
        </extensions>
      </trkpt>
      <trkpt lat="42.5078776292502880096435546875" lon="20.1607742719352245330810546875">
        <ele>2095.199951171875</ele>
        <time>2026-06-20T10:47:20.000Z</time>
        <extensions>
          <ns3:TrackPointExtension>
            <ns3:atemp>21.0</ns3:atemp>
          </ns3:TrackPointExtension>
        </extensions>
      </trkpt>
      <trkpt lat="42.5078776292502880096435546875" lon="20.1607742719352245330810546875">
        <ele>2095.199951171875</ele>
        <time>2026-06-20T10:47:21.000Z</time>
        <extensions>
          <ns3:TrackPointExtension>
            <ns3:atemp>21.0</ns3:atemp>
          </ns3:TrackPointExtension>
        </extensions>
      </trkpt>
      <trkpt lat="42.5078776292502880096435546875" lon="20.1607742719352245330810546875">
        <ele>2095.39990234375</ele>
        <time>2026-06-20T10:47:22.000Z</time>
        <extensions>
          <ns3:TrackPointExtension>
            <ns3:atemp>21.0</ns3:atemp>
          </ns3:TrackPointExtension>
        </extensions>
      </trkpt>
      <trkpt lat="42.5078776292502880096435546875" lon="20.1607742719352245330810546875">
        <ele>2095.39990234375</ele>
        <time>2026-06-20T10:47:23.000Z</time>
        <extensions>
          <ns3:TrackPointExtension>
            <ns3:atemp>21.0</ns3:atemp>
          </ns3:TrackPointExtension>
        </extensions>
      </trkpt>
      <trkpt lat="42.5078776292502880096435546875" lon="20.1607742719352245330810546875">
        <ele>2095.60009765625</ele>
        <time>2026-06-20T10:47:24.000Z</time>
        <extensions>
          <ns3:TrackPointExtension>
            <ns3:atemp>21.0</ns3:atemp>
          </ns3:TrackPointExtension>
        </extensions>
      </trkpt>
      <trkpt lat="42.5078776292502880096435546875" lon="20.1607742719352245330810546875">
        <ele>2095.60009765625</ele>
        <time>2026-06-20T10:47:25.000Z</time>
        <extensions>
          <ns3:TrackPointExtension>
            <ns3:atemp>21.0</ns3:atemp>
          </ns3:TrackPointExtension>
        </extensions>
      </trkpt>
      <trkpt lat="42.5078776292502880096435546875" lon="20.1607742719352245330810546875">
        <ele>2095.800048828125</ele>
        <time>2026-06-20T10:47:26.000Z</time>
        <extensions>
          <ns3:TrackPointExtension>
            <ns3:atemp>21.0</ns3:atemp>
          </ns3:TrackPointExtension>
        </extensions>
      </trkpt>
      <trkpt lat="42.5078776292502880096435546875" lon="20.1607742719352245330810546875">
        <ele>2096</ele>
        <time>2026-06-20T10:47:27.000Z</time>
        <extensions>
          <ns3:TrackPointExtension>
            <ns3:atemp>21.0</ns3:atemp>
          </ns3:TrackPointExtension>
        </extensions>
      </trkpt>
      <trkpt lat="42.5078776292502880096435546875" lon="20.1607742719352245330810546875">
        <ele>2096.199951171875</ele>
        <time>2026-06-20T10:47:28.000Z</time>
        <extensions>
          <ns3:TrackPointExtension>
            <ns3:atemp>21.0</ns3:atemp>
          </ns3:TrackPointExtension>
        </extensions>
      </trkpt>
      <trkpt lat="42.5078776292502880096435546875" lon="20.1607744395732879638671875">
        <ele>2096.199951171875</ele>
        <time>2026-06-20T10:47:29.000Z</time>
        <extensions>
          <ns3:TrackPointExtension>
            <ns3:atemp>21.0</ns3:atemp>
          </ns3:TrackPointExtension>
        </extensions>
      </trkpt>
      <trkpt lat="42.5078739412128925323486328125" lon="20.16077670268714427947998046875">
        <ele>2096.199951171875</ele>
        <time>2026-06-20T10:47:30.000Z</time>
        <extensions>
          <ns3:TrackPointExtension>
            <ns3:atemp>21.0</ns3:atemp>
          </ns3:TrackPointExtension>
        </extensions>
      </trkpt>
      <trkpt lat="42.5078776292502880096435546875" lon="20.1607742719352245330810546875">
        <ele>2096.199951171875</ele>
        <time>2026-06-20T10:47:31.000Z</time>
        <extensions>
          <ns3:TrackPointExtension>
            <ns3:atemp>21.0</ns3:atemp>
          </ns3:TrackPointExtension>
        </extensions>
      </trkpt>
      <trkpt lat="42.5078776292502880096435546875" lon="20.1607742719352245330810546875">
        <ele>2096</ele>
        <time>2026-06-20T10:47:32.000Z</time>
        <extensions>
          <ns3:TrackPointExtension>
            <ns3:atemp>21.0</ns3:atemp>
          </ns3:TrackPointExtension>
        </extensions>
      </trkpt>
      <trkpt lat="42.5078776292502880096435546875" lon="20.1607742719352245330810546875">
        <ele>2095.60009765625</ele>
        <time>2026-06-20T10:47:33.000Z</time>
        <extensions>
          <ns3:TrackPointExtension>
            <ns3:atemp>21.0</ns3:atemp>
          </ns3:TrackPointExtension>
        </extensions>
      </trkpt>
      <trkpt lat="42.5078776292502880096435546875" lon="20.1607742719352245330810546875">
        <ele>2095.199951171875</ele>
        <time>2026-06-20T10:47:34.000Z</time>
        <extensions>
          <ns3:TrackPointExtension>
            <ns3:atemp>21.0</ns3:atemp>
          </ns3:TrackPointExtension>
        </extensions>
      </trkpt>
      <trkpt lat="42.5078776292502880096435546875" lon="20.1607742719352245330810546875">
        <ele>2094.800048828125</ele>
        <time>2026-06-20T10:47:35.000Z</time>
        <extensions>
          <ns3:TrackPointExtension>
            <ns3:atemp>21.0</ns3:atemp>
          </ns3:TrackPointExtension>
        </extensions>
      </trkpt>
      <trkpt lat="42.5078776292502880096435546875" lon="20.1607742719352245330810546875">
        <ele>2094.60009765625</ele>
        <time>2026-06-20T10:47:36.000Z</time>
        <extensions>
          <ns3:TrackPointExtension>
            <ns3:atemp>21.0</ns3:atemp>
          </ns3:TrackPointExtension>
        </extensions>
      </trkpt>
      <trkpt lat="42.5078776292502880096435546875" lon="20.1607742719352245330810546875">
        <ele>2094.39990234375</ele>
        <time>2026-06-20T10:47:37.000Z</time>
        <extensions>
          <ns3:TrackPointExtension>
            <ns3:atemp>21.0</ns3:atemp>
          </ns3:TrackPointExtension>
        </extensions>
      </trkpt>
      <trkpt lat="42.5078776292502880096435546875" lon="20.1607742719352245330810546875">
        <ele>2094.39990234375</ele>
        <time>2026-06-20T10:47:38.000Z</time>
        <extensions>
          <ns3:TrackPointExtension>
            <ns3:atemp>21.0</ns3:atemp>
          </ns3:TrackPointExtension>
        </extensions>
      </trkpt>
      <trkpt lat="42.5078776292502880096435546875" lon="20.1607742719352245330810546875">
        <ele>2094.199951171875</ele>
        <time>2026-06-20T10:47:39.000Z</time>
        <extensions>
          <ns3:TrackPointExtension>
            <ns3:atemp>21.0</ns3:atemp>
          </ns3:TrackPointExtension>
        </extensions>
      </trkpt>
      <trkpt lat="42.5078776292502880096435546875" lon="20.1607742719352245330810546875">
        <ele>2094.199951171875</ele>
        <time>2026-06-20T10:47:40.000Z</time>
        <extensions>
          <ns3:TrackPointExtension>
            <ns3:atemp>21.0</ns3:atemp>
          </ns3:TrackPointExtension>
        </extensions>
      </trkpt>
      <trkpt lat="42.5078776292502880096435546875" lon="20.1607742719352245330810546875">
        <ele>2094.199951171875</ele>
        <time>2026-06-20T10:47:41.000Z</time>
        <extensions>
          <ns3:TrackPointExtension>
            <ns3:atemp>21.0</ns3:atemp>
          </ns3:TrackPointExtension>
        </extensions>
      </trkpt>
      <trkpt lat="42.5078776292502880096435546875" lon="20.1607742719352245330810546875">
        <ele>2094.199951171875</ele>
        <time>2026-06-20T10:47:42.000Z</time>
        <extensions>
          <ns3:TrackPointExtension>
            <ns3:atemp>21.0</ns3:atemp>
          </ns3:TrackPointExtension>
        </extensions>
      </trkpt>
      <trkpt lat="42.5078776292502880096435546875" lon="20.1607742719352245330810546875">
        <ele>2094.199951171875</ele>
        <time>2026-06-20T10:47:43.000Z</time>
        <extensions>
          <ns3:TrackPointExtension>
            <ns3:atemp>21.0</ns3:atemp>
          </ns3:TrackPointExtension>
        </extensions>
      </trkpt>
      <trkpt lat="42.5078776292502880096435546875" lon="20.1607742719352245330810546875">
        <ele>2094.199951171875</ele>
        <time>2026-06-20T10:47:44.000Z</time>
        <extensions>
          <ns3:TrackPointExtension>
            <ns3:atemp>21.0</ns3:atemp>
          </ns3:TrackPointExtension>
        </extensions>
      </trkpt>
      <trkpt lat="42.5078776292502880096435546875" lon="20.1607742719352245330810546875">
        <ele>2094.199951171875</ele>
        <time>2026-06-20T10:47:45.000Z</time>
        <extensions>
          <ns3:TrackPointExtension>
            <ns3:atemp>21.0</ns3:atemp>
          </ns3:TrackPointExtension>
        </extensions>
      </trkpt>
      <trkpt lat="42.5078776292502880096435546875" lon="20.1607742719352245330810546875">
        <ele>2094.199951171875</ele>
        <time>2026-06-20T10:47:46.000Z</time>
        <extensions>
          <ns3:TrackPointExtension>
            <ns3:atemp>21.0</ns3:atemp>
          </ns3:TrackPointExtension>
        </extensions>
      </trkpt>
      <trkpt lat="42.5078776292502880096435546875" lon="20.1607742719352245330810546875">
        <ele>2094.199951171875</ele>
        <time>2026-06-20T10:47:47.000Z</time>
        <extensions>
          <ns3:TrackPointExtension>
            <ns3:atemp>21.0</ns3:atemp>
          </ns3:TrackPointExtension>
        </extensions>
      </trkpt>
      <trkpt lat="42.5078776292502880096435546875" lon="20.1607742719352245330810546875">
        <ele>2094.199951171875</ele>
        <time>2026-06-20T10:47:48.000Z</time>
        <extensions>
          <ns3:TrackPointExtension>
            <ns3:atemp>21.0</ns3:atemp>
          </ns3:TrackPointExtension>
        </extensions>
      </trkpt>
      <trkpt lat="42.5078776292502880096435546875" lon="20.1607742719352245330810546875">
        <ele>2094.199951171875</ele>
        <time>2026-06-20T10:47:49.000Z</time>
        <extensions>
          <ns3:TrackPointExtension>
            <ns3:atemp>21.0</ns3:atemp>
          </ns3:TrackPointExtension>
        </extensions>
      </trkpt>
      <trkpt lat="42.5078776292502880096435546875" lon="20.1607742719352245330810546875">
        <ele>2094.199951171875</ele>
        <time>2026-06-20T10:47:50.000Z</time>
        <extensions>
          <ns3:TrackPointExtension>
            <ns3:atemp>21.0</ns3:atemp>
          </ns3:TrackPointExtension>
        </extensions>
      </trkpt>
      <trkpt lat="42.5078776292502880096435546875" lon="20.1607742719352245330810546875">
        <ele>2094.199951171875</ele>
        <time>2026-06-20T10:47:51.000Z</time>
        <extensions>
          <ns3:TrackPointExtension>
            <ns3:atemp>21.0</ns3:atemp>
          </ns3:TrackPointExtension>
        </extensions>
      </trkpt>
      <trkpt lat="42.5078776292502880096435546875" lon="20.1607742719352245330810546875">
        <ele>2094.199951171875</ele>
        <time>2026-06-20T10:47:52.000Z</time>
        <extensions>
          <ns3:TrackPointExtension>
            <ns3:atemp>21.0</ns3:atemp>
          </ns3:TrackPointExtension>
        </extensions>
      </trkpt>
      <trkpt lat="42.5078776292502880096435546875" lon="20.1607742719352245330810546875">
        <ele>2094.199951171875</ele>
        <time>2026-06-20T10:47:53.000Z</time>
        <extensions>
          <ns3:TrackPointExtension>
            <ns3:atemp>21.0</ns3:atemp>
          </ns3:TrackPointExtension>
        </extensions>
      </trkpt>
      <trkpt lat="42.5078776292502880096435546875" lon="20.1607742719352245330810546875">
        <ele>2094.199951171875</ele>
        <time>2026-06-20T10:47:54.000Z</time>
        <extensions>
          <ns3:TrackPointExtension>
            <ns3:atemp>21.0</ns3:atemp>
          </ns3:TrackPointExtension>
        </extensions>
      </trkpt>
      <trkpt lat="42.5078776292502880096435546875" lon="20.1607742719352245330810546875">
        <ele>2094.199951171875</ele>
        <time>2026-06-20T10:47:55.000Z</time>
        <extensions>
          <ns3:TrackPointExtension>
            <ns3:atemp>21.0</ns3:atemp>
          </ns3:TrackPointExtension>
        </extensions>
      </trkpt>
      <trkpt lat="42.5078776292502880096435546875" lon="20.1607742719352245330810546875">
        <ele>2094.199951171875</ele>
        <time>2026-06-20T10:47:56.000Z</time>
        <extensions>
          <ns3:TrackPointExtension>
            <ns3:atemp>21.0</ns3:atemp>
          </ns3:TrackPointExtension>
        </extensions>
      </trkpt>
      <trkpt lat="42.5078776292502880096435546875" lon="20.1607742719352245330810546875">
        <ele>2094.199951171875</ele>
        <time>2026-06-20T10:47:57.000Z</time>
        <extensions>
          <ns3:TrackPointExtension>
            <ns3:atemp>21.0</ns3:atemp>
          </ns3:TrackPointExtension>
        </extensions>
      </trkpt>
      <trkpt lat="42.5078776292502880096435546875" lon="20.1607742719352245330810546875">
        <ele>2094.199951171875</ele>
        <time>2026-06-20T10:47:58.000Z</time>
        <extensions>
          <ns3:TrackPointExtension>
            <ns3:atemp>21.0</ns3:atemp>
          </ns3:TrackPointExtension>
        </extensions>
      </trkpt>
      <trkpt lat="42.5078776292502880096435546875" lon="20.1607742719352245330810546875">
        <ele>2094.199951171875</ele>
        <time>2026-06-20T10:47:59.000Z</time>
        <extensions>
          <ns3:TrackPointExtension>
            <ns3:atemp>21.0</ns3:atemp>
          </ns3:TrackPointExtension>
        </extensions>
      </trkpt>
      <trkpt lat="42.5078776292502880096435546875" lon="20.1607742719352245330810546875">
        <ele>2094.199951171875</ele>
        <time>2026-06-20T10:48:00.000Z</time>
        <extensions>
          <ns3:TrackPointExtension>
            <ns3:atemp>21.0</ns3:atemp>
          </ns3:TrackPointExtension>
        </extensions>
      </trkpt>
      <trkpt lat="42.5078776292502880096435546875" lon="20.1607742719352245330810546875">
        <ele>2094.199951171875</ele>
        <time>2026-06-20T10:48:01.000Z</time>
        <extensions>
          <ns3:TrackPointExtension>
            <ns3:atemp>21.0</ns3:atemp>
          </ns3:TrackPointExtension>
        </extensions>
      </trkpt>
      <trkpt lat="42.50787519849836826324462890625" lon="20.16078257001936435699462890625">
        <ele>2094.199951171875</ele>
        <time>2026-06-20T10:48:02.000Z</time>
        <extensions>
          <ns3:TrackPointExtension>
            <ns3:atemp>21.0</ns3:atemp>
          </ns3:TrackPointExtension>
        </extensions>
      </trkpt>
      <trkpt lat="42.5078618712723255157470703125" lon="20.16080821864306926727294921875">
        <ele>2094.199951171875</ele>
        <time>2026-06-20T10:48:03.000Z</time>
        <extensions>
          <ns3:TrackPointExtension>
            <ns3:atemp>21.0</ns3:atemp>
          </ns3:TrackPointExtension>
        </extensions>
      </trkpt>
      <trkpt lat="42.5078504718840122222900390625" lon="20.16081576235592365264892578125">
        <ele>2093.60009765625</ele>
        <time>2026-06-20T10:48:04.000Z</time>
        <extensions>
          <ns3:TrackPointExtension>
            <ns3:atemp>21.0</ns3:atemp>
          </ns3:TrackPointExtension>
        </extensions>
      </trkpt>
      <trkpt lat="42.5078447721898555755615234375" lon="20.16081911511719226837158203125">
        <ele>2093.800048828125</ele>
        <time>2026-06-20T10:48:05.000Z</time>
        <extensions>
          <ns3:TrackPointExtension>
            <ns3:atemp>21.0</ns3:atemp>
          </ns3:TrackPointExtension>
        </extensions>
      </trkpt>
      <trkpt lat="42.5078390724956989288330078125" lon="20.16082749702036380767822265625">
        <ele>2094</ele>
        <time>2026-06-20T10:48:06.000Z</time>
        <extensions>
          <ns3:TrackPointExtension>
            <ns3:atemp>21.0</ns3:atemp>
          </ns3:TrackPointExtension>
        </extensions>
      </trkpt>
      <trkpt lat="42.507836557924747467041015625" lon="20.16082749702036380767822265625">
        <ele>2094.39990234375</ele>
        <time>2026-06-20T10:48:07.000Z</time>
        <extensions>
          <ns3:TrackPointExtension>
            <ns3:atemp>21.0</ns3:atemp>
          </ns3:TrackPointExtension>
        </extensions>
      </trkpt>
      <trkpt lat="42.5078367255628108978271484375" lon="20.160826742649078369140625">
        <ele>2094.60009765625</ele>
        <time>2026-06-20T10:48:08.000Z</time>
        <extensions>
          <ns3:TrackPointExtension>
            <ns3:atemp>21.0</ns3:atemp>
          </ns3:TrackPointExtension>
        </extensions>
      </trkpt>
      <trkpt lat="42.50783680938184261322021484375" lon="20.16082665883004665374755859375">
        <ele>2094.60009765625</ele>
        <time>2026-06-20T10:48:09.000Z</time>
        <extensions>
          <ns3:TrackPointExtension>
            <ns3:atemp>21.0</ns3:atemp>
          </ns3:TrackPointExtension>
        </extensions>
      </trkpt>
      <trkpt lat="42.50783680938184261322021484375" lon="20.16082665883004665374755859375">
        <ele>2094.800048828125</ele>
        <time>2026-06-20T10:48:10.000Z</time>
        <extensions>
          <ns3:TrackPointExtension>
            <ns3:atemp>21.0</ns3:atemp>
          </ns3:TrackPointExtension>
        </extensions>
      </trkpt>
      <trkpt lat="42.50783680938184261322021484375" lon="20.16082665883004665374755859375">
        <ele>2094.800048828125</ele>
        <time>2026-06-20T10:48:11.000Z</time>
        <extensions>
          <ns3:TrackPointExtension>
            <ns3:atemp>21.0</ns3:atemp>
          </ns3:TrackPointExtension>
        </extensions>
      </trkpt>
      <trkpt lat="42.50783680938184261322021484375" lon="20.16082665883004665374755859375">
        <ele>2094.800048828125</ele>
        <time>2026-06-20T10:48:12.000Z</time>
        <extensions>
          <ns3:TrackPointExtension>
            <ns3:atemp>21.0</ns3:atemp>
          </ns3:TrackPointExtension>
        </extensions>
      </trkpt>
      <trkpt lat="42.50783680938184261322021484375" lon="20.16082665883004665374755859375">
        <ele>2094.800048828125</ele>
        <time>2026-06-20T10:48:13.000Z</time>
        <extensions>
          <ns3:TrackPointExtension>
            <ns3:atemp>21.0</ns3:atemp>
          </ns3:TrackPointExtension>
        </extensions>
      </trkpt>
      <trkpt lat="42.50783680938184261322021484375" lon="20.16082665883004665374755859375">
        <ele>2094.60009765625</ele>
        <time>2026-06-20T10:48:14.000Z</time>
        <extensions>
          <ns3:TrackPointExtension>
            <ns3:atemp>21.0</ns3:atemp>
          </ns3:TrackPointExtension>
        </extensions>
      </trkpt>
      <trkpt lat="42.50783680938184261322021484375" lon="20.16082665883004665374755859375">
        <ele>2094.60009765625</ele>
        <time>2026-06-20T10:48:15.000Z</time>
        <extensions>
          <ns3:TrackPointExtension>
            <ns3:atemp>21.0</ns3:atemp>
          </ns3:TrackPointExtension>
        </extensions>
      </trkpt>
      <trkpt lat="42.50783680938184261322021484375" lon="20.16082665883004665374755859375">
        <ele>2094.60009765625</ele>
        <time>2026-06-20T10:48:16.000Z</time>
        <extensions>
          <ns3:TrackPointExtension>
            <ns3:atemp>21.0</ns3:atemp>
          </ns3:TrackPointExtension>
        </extensions>
      </trkpt>
      <trkpt lat="42.50783680938184261322021484375" lon="20.16082665883004665374755859375">
        <ele>2094.60009765625</ele>
        <time>2026-06-20T10:48:17.000Z</time>
        <extensions>
          <ns3:TrackPointExtension>
            <ns3:atemp>21.0</ns3:atemp>
          </ns3:TrackPointExtension>
        </extensions>
      </trkpt>
      <trkpt lat="42.50783680938184261322021484375" lon="20.16082665883004665374755859375">
        <ele>2094.60009765625</ele>
        <time>2026-06-20T10:48:18.000Z</time>
        <extensions>
          <ns3:TrackPointExtension>
            <ns3:atemp>21.0</ns3:atemp>
          </ns3:TrackPointExtension>
        </extensions>
      </trkpt>
      <trkpt lat="42.50783680938184261322021484375" lon="20.16082665883004665374755859375">
        <ele>2094.39990234375</ele>
        <time>2026-06-20T10:48:19.000Z</time>
        <extensions>
          <ns3:TrackPointExtension>
            <ns3:atemp>21.0</ns3:atemp>
          </ns3:TrackPointExtension>
        </extensions>
      </trkpt>
      <trkpt lat="42.50783680938184261322021484375" lon="20.16082665883004665374755859375">
        <ele>2094.39990234375</ele>
        <time>2026-06-20T10:48:20.000Z</time>
        <extensions>
          <ns3:TrackPointExtension>
            <ns3:atemp>21.0</ns3:atemp>
          </ns3:TrackPointExtension>
        </extensions>
      </trkpt>
      <trkpt lat="42.50783823430538177490234375" lon="20.16082741320133209228515625">
        <ele>2094.199951171875</ele>
        <time>2026-06-20T10:48:21.000Z</time>
        <extensions>
          <ns3:TrackPointExtension>
            <ns3:atemp>21.0</ns3:atemp>
          </ns3:TrackPointExtension>
        </extensions>
      </trkpt>
      <trkpt lat="42.5078397430479526519775390625" lon="20.16084459610283374786376953125">
        <ele>2094.199951171875</ele>
        <time>2026-06-20T10:48:22.000Z</time>
        <extensions>
          <ns3:TrackPointExtension>
            <ns3:atemp>21.0</ns3:atemp>
          </ns3:TrackPointExtension>
        </extensions>
      </trkpt>
      <trkpt lat="42.50783412717282772064208984375" lon="20.16085599549114704132080078125">
        <ele>2094.199951171875</ele>
        <time>2026-06-20T10:48:23.000Z</time>
        <extensions>
          <ns3:TrackPointExtension>
            <ns3:atemp>21.0</ns3:atemp>
          </ns3:TrackPointExtension>
        </extensions>
      </trkpt>
      <trkpt lat="42.50782750546932220458984375" lon="20.1608647964894771575927734375">
        <ele>2094.199951171875</ele>
        <time>2026-06-20T10:48:24.000Z</time>
        <extensions>
          <ns3:TrackPointExtension>
            <ns3:atemp>21.0</ns3:atemp>
          </ns3:TrackPointExtension>
        </extensions>
      </trkpt>
      <trkpt lat="42.50781719572842121124267578125" lon="20.1608731783926486968994140625">
        <ele>2094.199951171875</ele>
        <time>2026-06-20T10:48:25.000Z</time>
        <extensions>
          <ns3:TrackPointExtension>
            <ns3:atemp>21.0</ns3:atemp>
          </ns3:TrackPointExtension>
        </extensions>
      </trkpt>
      <trkpt lat="42.5078053772449493408203125" lon="20.1608792133629322052001953125">
        <ele>2094.39990234375</ele>
        <time>2026-06-20T10:48:26.000Z</time>
        <extensions>
          <ns3:TrackPointExtension>
            <ns3:atemp>21.0</ns3:atemp>
          </ns3:TrackPointExtension>
        </extensions>
      </trkpt>
      <trkpt lat="42.50780068337917327880859375" lon="20.16089304350316524505615234375">
        <ele>2094.60009765625</ele>
        <time>2026-06-20T10:48:27.000Z</time>
        <extensions>
          <ns3:TrackPointExtension>
            <ns3:atemp>21.0</ns3:atemp>
          </ns3:TrackPointExtension>
        </extensions>
      </trkpt>
      <trkpt lat="42.50779188238084316253662109375" lon="20.160907208919525146484375">
        <ele>2094.800048828125</ele>
        <time>2026-06-20T10:48:28.000Z</time>
        <extensions>
          <ns3:TrackPointExtension>
            <ns3:atemp>21.0</ns3:atemp>
          </ns3:TrackPointExtension>
        </extensions>
      </trkpt>
      <trkpt lat="42.50777780078351497650146484375" lon="20.160925649106502532958984375">
        <ele>2095</ele>
        <time>2026-06-20T10:48:29.000Z</time>
        <extensions>
          <ns3:TrackPointExtension>
            <ns3:atemp>21.0</ns3:atemp>
          </ns3:TrackPointExtension>
        </extensions>
      </trkpt>
      <trkpt lat="42.5077653117477893829345703125" lon="20.16094936989247798919677734375">
        <ele>2095.199951171875</ele>
        <time>2026-06-20T10:48:30.000Z</time>
        <extensions>
          <ns3:TrackPointExtension>
            <ns3:atemp>21.0</ns3:atemp>
          </ns3:TrackPointExtension>
        </extensions>
      </trkpt>
      <trkpt lat="42.5077535770833492279052734375" lon="20.16097652725875377655029296875">
        <ele>2095.199951171875</ele>
        <time>2026-06-20T10:48:31.000Z</time>
        <extensions>
          <ns3:TrackPointExtension>
            <ns3:atemp>21.0</ns3:atemp>
          </ns3:TrackPointExtension>
        </extensions>
      </trkpt>
      <trkpt lat="42.50773823820054531097412109375" lon="20.1609997451305389404296875">
        <ele>2095.199951171875</ele>
        <time>2026-06-20T10:48:32.000Z</time>
        <extensions>
          <ns3:TrackPointExtension>
            <ns3:atemp>21.0</ns3:atemp>
          </ns3:TrackPointExtension>
        </extensions>
      </trkpt>
      <trkpt lat="42.5077203847467899322509765625" lon="20.16102254390716552734375">
        <ele>2095.199951171875</ele>
        <time>2026-06-20T10:48:33.000Z</time>
        <extensions>
          <ns3:TrackPointExtension>
            <ns3:atemp>21.0</ns3:atemp>
          </ns3:TrackPointExtension>
        </extensions>
      </trkpt>
      <trkpt lat="42.50770387239754199981689453125" lon="20.16104928217828273773193359375">
        <ele>2095.199951171875</ele>
        <time>2026-06-20T10:48:34.000Z</time>
        <extensions>
          <ns3:TrackPointExtension>
            <ns3:atemp>21.0</ns3:atemp>
          </ns3:TrackPointExtension>
        </extensions>
      </trkpt>
      <trkpt lat="42.50768492929637432098388671875" lon="20.16107291914522647857666015625">
        <ele>2095.199951171875</ele>
        <time>2026-06-20T10:48:35.000Z</time>
        <extensions>
          <ns3:TrackPointExtension>
            <ns3:atemp>21.0</ns3:atemp>
          </ns3:TrackPointExtension>
        </extensions>
      </trkpt>
      <trkpt lat="42.50766866840422153472900390625" lon="20.1610971428453922271728515625">
        <ele>2095.199951171875</ele>
        <time>2026-06-20T10:48:36.000Z</time>
        <extensions>
          <ns3:TrackPointExtension>
            <ns3:atemp>21.0</ns3:atemp>
          </ns3:TrackPointExtension>
        </extensions>
      </trkpt>
      <trkpt lat="42.50765240751206874847412109375" lon="20.16112371347844600677490234375">
        <ele>2095.39990234375</ele>
        <time>2026-06-20T10:48:37.000Z</time>
        <extensions>
          <ns3:TrackPointExtension>
            <ns3:atemp>21.0</ns3:atemp>
          </ns3:TrackPointExtension>
        </extensions>
      </trkpt>
      <trkpt lat="42.5076315365731716156005859375" lon="20.16115070320665836334228515625">
        <ele>2095.60009765625</ele>
        <time>2026-06-20T10:48:38.000Z</time>
        <extensions>
          <ns3:TrackPointExtension>
            <ns3:atemp>21.0</ns3:atemp>
          </ns3:TrackPointExtension>
        </extensions>
      </trkpt>
      <trkpt lat="42.507613264024257659912109375" lon="20.161180458962917327880859375">
        <ele>2095.60009765625</ele>
        <time>2026-06-20T10:48:39.000Z</time>
        <extensions>
          <ns3:TrackPointExtension>
            <ns3:atemp>21.0</ns3:atemp>
          </ns3:TrackPointExtension>
        </extensions>
      </trkpt>
      <trkpt lat="42.5075948238372802734375" lon="20.1612114720046520233154296875">
        <ele>2095.800048828125</ele>
        <time>2026-06-20T10:48:40.000Z</time>
        <extensions>
          <ns3:TrackPointExtension>
            <ns3:atemp>21.0</ns3:atemp>
          </ns3:TrackPointExtension>
        </extensions>
      </trkpt>
      <trkpt lat="42.50757445581257343292236328125" lon="20.16124106012284755706787109375">
        <ele>2095.800048828125</ele>
        <time>2026-06-20T10:48:41.000Z</time>
        <extensions>
          <ns3:TrackPointExtension>
            <ns3:atemp>21.0</ns3:atemp>
          </ns3:TrackPointExtension>
        </extensions>
      </trkpt>
      <trkpt lat="42.5075514055788516998291015625" lon="20.16126595437526702880859375">
        <ele>2096</ele>
        <time>2026-06-20T10:48:42.000Z</time>
        <extensions>
          <ns3:TrackPointExtension>
            <ns3:atemp>21.0</ns3:atemp>
          </ns3:TrackPointExtension>
        </extensions>
      </trkpt>
      <trkpt lat="42.50753237865865230560302734375" lon="20.1612919382750988006591796875">
        <ele>2096</ele>
        <time>2026-06-20T10:48:43.000Z</time>
        <extensions>
          <ns3:TrackPointExtension>
            <ns3:atemp>21.0</ns3:atemp>
          </ns3:TrackPointExtension>
        </extensions>
      </trkpt>
      <trkpt lat="42.507515363395214080810546875" lon="20.161319933831691741943359375">
        <ele>2096.199951171875</ele>
        <time>2026-06-20T10:48:44.000Z</time>
        <extensions>
          <ns3:TrackPointExtension>
            <ns3:atemp>21.0</ns3:atemp>
          </ns3:TrackPointExtension>
        </extensions>
      </trkpt>
      <trkpt lat="42.50750136561691761016845703125" lon="20.161349438130855560302734375">
        <ele>2096.39990234375</ele>
        <time>2026-06-20T10:48:45.000Z</time>
        <extensions>
          <ns3:TrackPointExtension>
            <ns3:atemp>21.0</ns3:atemp>
          </ns3:TrackPointExtension>
        </extensions>
      </trkpt>
      <trkpt lat="42.50748828984797000885009765625" lon="20.161378942430019378662109375">
        <ele>2096.60009765625</ele>
        <time>2026-06-20T10:48:46.000Z</time>
        <extensions>
          <ns3:TrackPointExtension>
            <ns3:atemp>21.0</ns3:atemp>
          </ns3:TrackPointExtension>
        </extensions>
      </trkpt>
      <trkpt lat="42.507473118603229522705078125" lon="20.161409117281436920166015625">
        <ele>2096.800048828125</ele>
        <time>2026-06-20T10:48:47.000Z</time>
        <extensions>
          <ns3:TrackPointExtension>
            <ns3:atemp>21.0</ns3:atemp>
          </ns3:TrackPointExtension>
        </extensions>
      </trkpt>
      <trkpt lat="42.5074566900730133056640625" lon="20.16143627464771270751953125">
        <ele>2097</ele>
        <time>2026-06-20T10:48:48.000Z</time>
        <extensions>
          <ns3:TrackPointExtension>
            <ns3:atemp>21.0</ns3:atemp>
          </ns3:TrackPointExtension>
        </extensions>
      </trkpt>
      <trkpt lat="42.50744151882827281951904296875" lon="20.1614629290997982025146484375">
        <ele>2097.199951171875</ele>
        <time>2026-06-20T10:48:49.000Z</time>
        <extensions>
          <ns3:TrackPointExtension>
            <ns3:atemp>21.0</ns3:atemp>
          </ns3:TrackPointExtension>
        </extensions>
      </trkpt>
      <trkpt lat="42.5074273534119129180908203125" lon="20.16149184666574001312255859375">
        <ele>2097.39990234375</ele>
        <time>2026-06-20T10:48:50.000Z</time>
        <extensions>
          <ns3:TrackPointExtension>
            <ns3:atemp>21.0</ns3:atemp>
          </ns3:TrackPointExtension>
        </extensions>
      </trkpt>
      <trkpt lat="42.5074169598519802093505859375" lon="20.16152168624103069305419921875">
        <ele>2097.60009765625</ele>
        <time>2026-06-20T10:48:51.000Z</time>
        <extensions>
          <ns3:TrackPointExtension>
            <ns3:atemp>21.0</ns3:atemp>
          </ns3:TrackPointExtension>
        </extensions>
      </trkpt>
      <trkpt lat="42.5074082426726818084716796875" lon="20.161550939083099365234375">
        <ele>2097.800048828125</ele>
        <time>2026-06-20T10:48:52.000Z</time>
        <extensions>
          <ns3:TrackPointExtension>
            <ns3:atemp>21.0</ns3:atemp>
          </ns3:TrackPointExtension>
        </extensions>
      </trkpt>
      <trkpt lat="42.50740212388336658477783203125" lon="20.16158111393451690673828125">
        <ele>2098</ele>
        <time>2026-06-20T10:48:53.000Z</time>
        <extensions>
          <ns3:TrackPointExtension>
            <ns3:atemp>21.0</ns3:atemp>
          </ns3:TrackPointExtension>
        </extensions>
      </trkpt>
      <trkpt lat="42.50739575363695621490478515625" lon="20.16161330044269561767578125">
        <ele>2098.199951171875</ele>
        <time>2026-06-20T10:48:54.000Z</time>
        <extensions>
          <ns3:TrackPointExtension>
            <ns3:atemp>21.0</ns3:atemp>
          </ns3:TrackPointExtension>
        </extensions>
      </trkpt>
      <trkpt lat="42.5073887966573238372802734375" lon="20.161643140017986297607421875">
        <ele>2098.39990234375</ele>
        <time>2026-06-20T10:48:55.000Z</time>
        <extensions>
          <ns3:TrackPointExtension>
            <ns3:atemp>21.0</ns3:atemp>
          </ns3:TrackPointExtension>
        </extensions>
      </trkpt>
      <trkpt lat="42.507383264601230621337890625" lon="20.16167842783033847808837890625">
        <ele>2098.60009765625</ele>
        <time>2026-06-20T10:48:56.000Z</time>
        <extensions>
          <ns3:TrackPointExtension>
            <ns3:atemp>21.0</ns3:atemp>
          </ns3:TrackPointExtension>
        </extensions>
      </trkpt>
      <trkpt lat="42.50737463124096393585205078125" lon="20.16170985996723175048828125">
        <ele>2098.800048828125</ele>
        <time>2026-06-20T10:48:57.000Z</time>
        <extensions>
          <ns3:TrackPointExtension>
            <ns3:atemp>21.0</ns3:atemp>
          </ns3:TrackPointExtension>
        </extensions>
      </trkpt>
      <trkpt lat="42.50736457295715808868408203125" lon="20.1617388613522052764892578125">
        <ele>2099</ele>
        <time>2026-06-20T10:48:58.000Z</time>
        <extensions>
          <ns3:TrackPointExtension>
            <ns3:atemp>21.0</ns3:atemp>
          </ns3:TrackPointExtension>
        </extensions>
      </trkpt>
      <trkpt lat="42.50735954381525516510009765625" lon="20.1617643423378467559814453125">
        <ele>2099.199951171875</ele>
        <time>2026-06-20T10:48:59.000Z</time>
        <extensions>
          <ns3:TrackPointExtension>
            <ns3:atemp>21.0</ns3:atemp>
          </ns3:TrackPointExtension>
        </extensions>
      </trkpt>
      <trkpt lat="42.507356107234954833984375" lon="20.161794684827327728271484375">
        <ele>2099.60009765625</ele>
        <time>2026-06-20T10:49:00.000Z</time>
        <extensions>
          <ns3:TrackPointExtension>
            <ns3:atemp>21.0</ns3:atemp>
          </ns3:TrackPointExtension>
        </extensions>
      </trkpt>
      <trkpt lat="42.50735099427402019500732421875" lon="20.16182519495487213134765625">
        <ele>2099.800048828125</ele>
        <time>2026-06-20T10:49:01.000Z</time>
        <extensions>
          <ns3:TrackPointExtension>
            <ns3:atemp>21.0</ns3:atemp>
          </ns3:TrackPointExtension>
        </extensions>
      </trkpt>
      <trkpt lat="42.5073431991040706634521484375" lon="20.1618592254817485809326171875">
        <ele>2100</ele>
        <time>2026-06-20T10:49:02.000Z</time>
        <extensions>
          <ns3:TrackPointExtension>
            <ns3:atemp>21.0</ns3:atemp>
          </ns3:TrackPointExtension>
        </extensions>
      </trkpt>
      <trkpt lat="42.50733171589672565460205078125" lon="20.16189015470445156097412109375">
        <ele>2100.39990234375</ele>
        <time>2026-06-20T10:49:03.000Z</time>
        <extensions>
          <ns3:TrackPointExtension>
            <ns3:atemp>21.0</ns3:atemp>
          </ns3:TrackPointExtension>
        </extensions>
      </trkpt>
      <trkpt lat="42.5073190592229366302490234375" lon="20.16191882081329822540283203125">
        <ele>2100.800048828125</ele>
        <time>2026-06-20T10:49:04.000Z</time>
        <extensions>
          <ns3:TrackPointExtension>
            <ns3:atemp>21.0</ns3:atemp>
          </ns3:TrackPointExtension>
        </extensions>
      </trkpt>
      <trkpt lat="42.50731260515749454498291015625" lon="20.1619467325508594512939453125">
        <ele>2101</ele>
        <time>2026-06-20T10:49:05.000Z</time>
        <extensions>
          <ns3:TrackPointExtension>
            <ns3:atemp>21.0</ns3:atemp>
          </ns3:TrackPointExtension>
        </extensions>
      </trkpt>
      <trkpt lat="42.50730874948203563690185546875" lon="20.16197648830711841583251953125">
        <ele>2101.199951171875</ele>
        <time>2026-06-20T10:49:06.000Z</time>
        <extensions>
          <ns3:TrackPointExtension>
            <ns3:atemp>21.0</ns3:atemp>
          </ns3:TrackPointExtension>
        </extensions>
      </trkpt>
      <trkpt lat="42.507303468883037567138671875" lon="20.16200901009142398834228515625">
        <ele>2101.39990234375</ele>
        <time>2026-06-20T10:49:07.000Z</time>
        <extensions>
          <ns3:TrackPointExtension>
            <ns3:atemp>21.0</ns3:atemp>
          </ns3:TrackPointExtension>
        </extensions>
      </trkpt>
      <trkpt lat="42.50729919411242008209228515625" lon="20.16204203478991985321044921875">
        <ele>2101.800048828125</ele>
        <time>2026-06-20T10:49:08.000Z</time>
        <extensions>
          <ns3:TrackPointExtension>
            <ns3:atemp>21.0</ns3:atemp>
          </ns3:TrackPointExtension>
        </extensions>
      </trkpt>
      <trkpt lat="42.50729450024664402008056640625" lon="20.16207396984100341796875">
        <ele>2102</ele>
        <time>2026-06-20T10:49:09.000Z</time>
        <extensions>
          <ns3:TrackPointExtension>
            <ns3:atemp>21.0</ns3:atemp>
          </ns3:TrackPointExtension>
        </extensions>
      </trkpt>
      <trkpt lat="42.507291398942470550537109375" lon="20.1621046476066112518310546875">
        <ele>2102.199951171875</ele>
        <time>2026-06-20T10:49:10.000Z</time>
        <extensions>
          <ns3:TrackPointExtension>
            <ns3:atemp>21.0</ns3:atemp>
          </ns3:TrackPointExtension>
        </extensions>
      </trkpt>
      <trkpt lat="42.5072877109050750732421875" lon="20.16213272698223590850830078125">
        <ele>2102.39990234375</ele>
        <time>2026-06-20T10:49:11.000Z</time>
        <extensions>
          <ns3:TrackPointExtension>
            <ns3:atemp>21.0</ns3:atemp>
          </ns3:TrackPointExtension>
        </extensions>
      </trkpt>
      <trkpt lat="42.507286705076694488525390625" lon="20.16216181218624114990234375">
        <ele>2102.800048828125</ele>
        <time>2026-06-20T10:49:12.000Z</time>
        <extensions>
          <ns3:TrackPointExtension>
            <ns3:atemp>21.0</ns3:atemp>
          </ns3:TrackPointExtension>
        </extensions>
      </trkpt>
      <trkpt lat="42.50728762708604335784912109375" lon="20.1621924899518489837646484375">
        <ele>2103</ele>
        <time>2026-06-20T10:49:13.000Z</time>
        <extensions>
          <ns3:TrackPointExtension>
            <ns3:atemp>21.0</ns3:atemp>
          </ns3:TrackPointExtension>
        </extensions>
      </trkpt>
      <trkpt lat="42.5072888843715190887451171875" lon="20.162225849926471710205078125">
        <ele>2103.199951171875</ele>
        <time>2026-06-20T10:49:14.000Z</time>
        <extensions>
          <ns3:TrackPointExtension>
            <ns3:atemp>21.0</ns3:atemp>
          </ns3:TrackPointExtension>
        </extensions>
      </trkpt>
      <trkpt lat="42.50728880055248737335205078125" lon="20.16225409694015979766845703125">
        <ele>2103.39990234375</ele>
        <time>2026-06-20T10:49:15.000Z</time>
        <extensions>
          <ns3:TrackPointExtension>
            <ns3:atemp>21.0</ns3:atemp>
          </ns3:TrackPointExtension>
        </extensions>
      </trkpt>
      <trkpt lat="42.5072888843715190887451171875" lon="20.16227873973548412322998046875">
        <ele>2103.60009765625</ele>
        <time>2026-06-20T10:49:16.000Z</time>
        <extensions>
          <ns3:TrackPointExtension>
            <ns3:atemp>21.0</ns3:atemp>
          </ns3:TrackPointExtension>
        </extensions>
      </trkpt>
      <trkpt lat="42.507287375628948211669921875" lon="20.162303633987903594970703125">
        <ele>2103.800048828125</ele>
        <time>2026-06-20T10:49:17.000Z</time>
        <extensions>
          <ns3:TrackPointExtension>
            <ns3:atemp>21.0</ns3:atemp>
          </ns3:TrackPointExtension>
        </extensions>
      </trkpt>
      <trkpt lat="42.50728528015315532684326171875" lon="20.16232601366937160491943359375">
        <ele>2104.199951171875</ele>
        <time>2026-06-20T10:49:18.000Z</time>
        <extensions>
          <ns3:TrackPointExtension>
            <ns3:atemp>21.0</ns3:atemp>
          </ns3:TrackPointExtension>
        </extensions>
      </trkpt>
      <trkpt lat="42.5072865374386310577392578125" lon="20.16235216520726680755615234375">
        <ele>2104.60009765625</ele>
        <time>2026-06-20T10:49:19.000Z</time>
        <extensions>
          <ns3:TrackPointExtension>
            <ns3:atemp>21.0</ns3:atemp>
          </ns3:TrackPointExtension>
        </extensions>
      </trkpt>
      <trkpt lat="42.507285363972187042236328125" lon="20.16237546689808368682861328125">
        <ele>2104.800048828125</ele>
        <time>2026-06-20T10:49:20.000Z</time>
        <extensions>
          <ns3:TrackPointExtension>
            <ns3:atemp>21.0</ns3:atemp>
          </ns3:TrackPointExtension>
        </extensions>
      </trkpt>
      <trkpt lat="42.5072811730206012725830078125" lon="20.1623939909040927886962890625">
        <ele>2105.199951171875</ele>
        <time>2026-06-20T10:49:21.000Z</time>
        <extensions>
          <ns3:TrackPointExtension>
            <ns3:atemp>21.0</ns3:atemp>
          </ns3:TrackPointExtension>
        </extensions>
      </trkpt>
      <trkpt lat="42.507278658449649810791015625" lon="20.16241502948105335235595703125">
        <ele>2105.60009765625</ele>
        <time>2026-06-20T10:49:22.000Z</time>
        <extensions>
          <ns3:TrackPointExtension>
            <ns3:atemp>21.0</ns3:atemp>
          </ns3:TrackPointExtension>
        </extensions>
      </trkpt>
      <trkpt lat="42.50727689824998378753662109375" lon="20.16243430785834789276123046875">
        <ele>2106</ele>
        <time>2026-06-20T10:49:23.000Z</time>
        <extensions>
          <ns3:TrackPointExtension>
            <ns3:atemp>21.0</ns3:atemp>
          </ns3:TrackPointExtension>
        </extensions>
      </trkpt>
      <trkpt lat="42.5072754733264446258544921875" lon="20.16246096231043338775634765625">
        <ele>2106.39990234375</ele>
        <time>2026-06-20T10:49:24.000Z</time>
        <extensions>
          <ns3:TrackPointExtension>
            <ns3:atemp>21.0</ns3:atemp>
          </ns3:TrackPointExtension>
        </extensions>
      </trkpt>
      <trkpt lat="42.50727362930774688720703125" lon="20.16248728148639202117919921875">
        <ele>2106.60009765625</ele>
        <time>2026-06-20T10:49:25.000Z</time>
        <extensions>
          <ns3:TrackPointExtension>
            <ns3:atemp>21.0</ns3:atemp>
          </ns3:TrackPointExtension>
        </extensions>
      </trkpt>
      <trkpt lat="42.507270276546478271484375" lon="20.1625136844813823699951171875">
        <ele>2106.800048828125</ele>
        <time>2026-06-20T10:49:26.000Z</time>
        <extensions>
          <ns3:TrackPointExtension>
            <ns3:atemp>21.0</ns3:atemp>
          </ns3:TrackPointExtension>
        </extensions>
      </trkpt>
      <trkpt lat="42.507265917956829071044921875" lon="20.162540338933467864990234375">
        <ele>2107</ele>
        <time>2026-06-20T10:49:27.000Z</time>
        <extensions>
          <ns3:TrackPointExtension>
            <ns3:atemp>21.0</ns3:atemp>
          </ns3:TrackPointExtension>
        </extensions>
      </trkpt>
      <trkpt lat="42.50726164318621158599853515625" lon="20.1625636406242847442626953125">
        <ele>2107.39990234375</ele>
        <time>2026-06-20T10:49:28.000Z</time>
        <extensions>
          <ns3:TrackPointExtension>
            <ns3:atemp>21.0</ns3:atemp>
          </ns3:TrackPointExtension>
        </extensions>
      </trkpt>
      <trkpt lat="42.50726063735783100128173828125" lon="20.16259104944765567779541015625">
        <ele>2107.800048828125</ele>
        <time>2026-06-20T10:49:29.000Z</time>
        <extensions>
          <ns3:TrackPointExtension>
            <ns3:atemp>21.0</ns3:atemp>
          </ns3:TrackPointExtension>
        </extensions>
      </trkpt>
      <trkpt lat="42.50726155936717987060546875" lon="20.1626189611852169036865234375">
        <ele>2108.199951171875</ele>
        <time>2026-06-20T10:49:30.000Z</time>
        <extensions>
          <ns3:TrackPointExtension>
            <ns3:atemp>21.0</ns3:atemp>
          </ns3:TrackPointExtension>
        </extensions>
      </trkpt>
      <trkpt lat="42.50725879333913326263427734375" lon="20.162647627294063568115234375">
        <ele>2108.60009765625</ele>
        <time>2026-06-20T10:49:31.000Z</time>
        <extensions>
          <ns3:TrackPointExtension>
            <ns3:atemp>21.0</ns3:atemp>
          </ns3:TrackPointExtension>
        </extensions>
      </trkpt>
      <trkpt lat="42.507255859673023223876953125" lon="20.16267570666968822479248046875">
        <ele>2108.800048828125</ele>
        <time>2026-06-20T10:49:32.000Z</time>
        <extensions>
          <ns3:TrackPointExtension>
            <ns3:atemp>21.0</ns3:atemp>
          </ns3:TrackPointExtension>
        </extensions>
      </trkpt>
      <trkpt lat="42.5072476454079151153564453125" lon="20.16269833780825138092041015625">
        <ele>2109.199951171875</ele>
        <time>2026-06-20T10:49:33.000Z</time>
        <extensions>
          <ns3:TrackPointExtension>
            <ns3:atemp>21.0</ns3:atemp>
          </ns3:TrackPointExtension>
        </extensions>
      </trkpt>
      <trkpt lat="42.5072416104376316070556640625" lon="20.1627232320606708526611328125">
        <ele>2109.199951171875</ele>
        <time>2026-06-20T10:49:34.000Z</time>
        <extensions>
          <ns3:TrackPointExtension>
            <ns3:atemp>21.0</ns3:atemp>
          </ns3:TrackPointExtension>
        </extensions>
      </trkpt>
      <trkpt lat="42.50723683275282382965087890625" lon="20.1627513952553272247314453125">
        <ele>2109.60009765625</ele>
        <time>2026-06-20T10:49:35.000Z</time>
        <extensions>
          <ns3:TrackPointExtension>
            <ns3:atemp>21.0</ns3:atemp>
          </ns3:TrackPointExtension>
        </extensions>
      </trkpt>
      <trkpt lat="42.507236413657665252685546875" lon="20.162779726088047027587890625">
        <ele>2109.800048828125</ele>
        <time>2026-06-20T10:49:36.000Z</time>
        <extensions>
          <ns3:TrackPointExtension>
            <ns3:atemp>21.0</ns3:atemp>
          </ns3:TrackPointExtension>
        </extensions>
      </trkpt>
      <trkpt lat="42.50723398290574550628662109375" lon="20.16280688345432281494140625">
        <ele>2110.199951171875</ele>
        <time>2026-06-20T10:49:37.000Z</time>
        <extensions>
          <ns3:TrackPointExtension>
            <ns3:atemp>21.0</ns3:atemp>
          </ns3:TrackPointExtension>
        </extensions>
      </trkpt>
      <trkpt lat="42.5072275288403034210205078125" lon="20.16283127479255199432373046875">
        <ele>2110.60009765625</ele>
        <time>2026-06-20T10:49:38.000Z</time>
        <extensions>
          <ns3:TrackPointExtension>
            <ns3:atemp>21.0</ns3:atemp>
          </ns3:TrackPointExtension>
        </extensions>
      </trkpt>
      <trkpt lat="42.50722493045032024383544921875" lon="20.16285784542560577392578125">
        <ele>2111</ele>
        <time>2026-06-20T10:49:39.000Z</time>
        <extensions>
          <ns3:TrackPointExtension>
            <ns3:atemp>21.0</ns3:atemp>
          </ns3:TrackPointExtension>
        </extensions>
      </trkpt>
      <trkpt lat="42.5072218291461467742919921875" lon="20.162887014448642730712890625">
        <ele>2111.39990234375</ele>
        <time>2026-06-20T10:49:40.000Z</time>
        <extensions>
          <ns3:TrackPointExtension>
            <ns3:atemp>21.0</ns3:atemp>
          </ns3:TrackPointExtension>
        </extensions>
      </trkpt>
      <trkpt lat="42.50721654854714870452880859375" lon="20.1629116572439670562744140625">
        <ele>2112</ele>
        <time>2026-06-20T10:49:41.000Z</time>
        <extensions>
          <ns3:TrackPointExtension>
            <ns3:atemp>21.0</ns3:atemp>
          </ns3:TrackPointExtension>
        </extensions>
      </trkpt>
      <trkpt lat="42.50721084885299205780029296875" lon="20.16293789260089397430419921875">
        <ele>2112.39990234375</ele>
        <time>2026-06-20T10:49:42.000Z</time>
        <extensions>
          <ns3:TrackPointExtension>
            <ns3:atemp>21.0</ns3:atemp>
          </ns3:TrackPointExtension>
        </extensions>
      </trkpt>
      <trkpt lat="42.5072072446346282958984375" lon="20.16296421177685260772705078125">
        <ele>2112.800048828125</ele>
        <time>2026-06-20T10:49:43.000Z</time>
        <extensions>
          <ns3:TrackPointExtension>
            <ns3:atemp>21.0</ns3:atemp>
          </ns3:TrackPointExtension>
        </extensions>
      </trkpt>
      <trkpt lat="42.5072030536830425262451171875" lon="20.1629907824099063873291015625">
        <ele>2113.199951171875</ele>
        <time>2026-06-20T10:49:44.000Z</time>
        <extensions>
          <ns3:TrackPointExtension>
            <ns3:atemp>21.0</ns3:atemp>
          </ns3:TrackPointExtension>
        </extensions>
      </trkpt>
      <trkpt lat="42.5071970187127590179443359375" lon="20.16301651485264301300048828125">
        <ele>2113.60009765625</ele>
        <time>2026-06-20T10:49:45.000Z</time>
        <extensions>
          <ns3:TrackPointExtension>
            <ns3:atemp>21.0</ns3:atemp>
          </ns3:TrackPointExtension>
        </extensions>
      </trkpt>
      <trkpt lat="42.5071953423321247100830078125" lon="20.16304115764796733856201171875">
        <ele>2114</ele>
        <time>2026-06-20T10:49:46.000Z</time>
        <extensions>
          <ns3:TrackPointExtension>
            <ns3:atemp>21.0</ns3:atemp>
          </ns3:TrackPointExtension>
        </extensions>
      </trkpt>
      <trkpt lat="42.5071936659514904022216796875" lon="20.1630677282810211181640625">
        <ele>2114.39990234375</ele>
        <time>2026-06-20T10:49:47.000Z</time>
        <extensions>
          <ns3:TrackPointExtension>
            <ns3:atemp>21.0</ns3:atemp>
          </ns3:TrackPointExtension>
        </extensions>
      </trkpt>
      <trkpt lat="42.50719048082828521728515625" lon="20.1630984060466289520263671875">
        <ele>2114.800048828125</ele>
        <time>2026-06-20T10:49:48.000Z</time>
        <extensions>
          <ns3:TrackPointExtension>
            <ns3:atemp>21.0</ns3:atemp>
          </ns3:TrackPointExtension>
        </extensions>
      </trkpt>
      <trkpt lat="42.5071872957050800323486328125" lon="20.16313084401190280914306640625">
        <ele>2115.199951171875</ele>
        <time>2026-06-20T10:49:49.000Z</time>
        <extensions>
          <ns3:TrackPointExtension>
            <ns3:atemp>21.0</ns3:atemp>
          </ns3:TrackPointExtension>
        </extensions>
      </trkpt>
      <trkpt lat="42.507183440029621124267578125" lon="20.16315967775881290435791015625">
        <ele>2115.60009765625</ele>
        <time>2026-06-20T10:49:50.000Z</time>
        <extensions>
          <ns3:TrackPointExtension>
            <ns3:atemp>21.0</ns3:atemp>
          </ns3:TrackPointExtension>
        </extensions>
      </trkpt>
      <trkpt lat="42.50717530958354473114013671875" lon="20.1631862483918666839599609375">
        <ele>2115.800048828125</ele>
        <time>2026-06-20T10:49:51.000Z</time>
        <extensions>
          <ns3:TrackPointExtension>
            <ns3:atemp>21.0</ns3:atemp>
          </ns3:TrackPointExtension>
        </extensions>
      </trkpt>
      <trkpt lat="42.50717044807970523834228515625" lon="20.163212902843952178955078125">
        <ele>2116</ele>
        <time>2026-06-20T10:49:52.000Z</time>
        <extensions>
          <ns3:TrackPointExtension>
            <ns3:atemp>21.0</ns3:atemp>
          </ns3:TrackPointExtension>
        </extensions>
      </trkpt>
      <trkpt lat="42.507165335118770599365234375" lon="20.16324274241924285888671875">
        <ele>2116.39990234375</ele>
        <time>2026-06-20T10:49:53.000Z</time>
        <extensions>
          <ns3:TrackPointExtension>
            <ns3:atemp>21.0</ns3:atemp>
          </ns3:TrackPointExtension>
        </extensions>
      </trkpt>
      <trkpt lat="42.5071581266820430755615234375" lon="20.1632653735578060150146484375">
        <ele>2116.60009765625</ele>
        <time>2026-06-20T10:49:54.000Z</time>
        <extensions>
          <ns3:TrackPointExtension>
            <ns3:atemp>21.0</ns3:atemp>
          </ns3:TrackPointExtension>
        </extensions>
      </trkpt>
      <trkpt lat="42.50714890658855438232421875" lon="20.163285993039608001708984375">
        <ele>2117</ele>
        <time>2026-06-20T10:49:55.000Z</time>
        <extensions>
          <ns3:TrackPointExtension>
            <ns3:atemp>21.0</ns3:atemp>
          </ns3:TrackPointExtension>
        </extensions>
      </trkpt>
      <trkpt lat="42.507136501371860504150390625" lon="20.163309462368488311767578125">
        <ele>2117.39990234375</ele>
        <time>2026-06-20T10:49:56.000Z</time>
        <extensions>
          <ns3:TrackPointExtension>
            <ns3:atemp>21.0</ns3:atemp>
          </ns3:TrackPointExtension>
        </extensions>
      </trkpt>
      <trkpt lat="42.50712183304131031036376953125" lon="20.1633307524025440216064453125">
        <ele>2117.60009765625</ele>
        <time>2026-06-20T10:49:57.000Z</time>
        <extensions>
          <ns3:TrackPointExtension>
            <ns3:atemp>21.0</ns3:atemp>
          </ns3:TrackPointExtension>
        </extensions>
      </trkpt>
      <trkpt lat="42.5071121938526630401611328125" lon="20.16335070133209228515625">
        <ele>2118</ele>
        <time>2026-06-20T10:49:58.000Z</time>
        <extensions>
          <ns3:TrackPointExtension>
            <ns3:atemp>21.0</ns3:atemp>
          </ns3:TrackPointExtension>
        </extensions>
      </trkpt>
      <trkpt lat="42.50710154883563518524169921875" lon="20.16337148845195770263671875">
        <ele>2118.39990234375</ele>
        <time>2026-06-20T10:49:59.000Z</time>
        <extensions>
          <ns3:TrackPointExtension>
            <ns3:atemp>21.0</ns3:atemp>
          </ns3:TrackPointExtension>
        </extensions>
      </trkpt>
      <trkpt lat="42.50709283165633678436279296875" lon="20.16339286230504512786865234375">
        <ele>2118.800048828125</ele>
        <time>2026-06-20T10:50:00.000Z</time>
        <extensions>
          <ns3:TrackPointExtension>
            <ns3:atemp>21.0</ns3:atemp>
          </ns3:TrackPointExtension>
        </extensions>
      </trkpt>
      <trkpt lat="42.50708797015249729156494140625" lon="20.16341582871973514556884765625">
        <ele>2119.39990234375</ele>
        <time>2026-06-20T10:50:01.000Z</time>
        <extensions>
          <ns3:TrackPointExtension>
            <ns3:atemp>21.0</ns3:atemp>
          </ns3:TrackPointExtension>
        </extensions>
      </trkpt>
      <trkpt lat="42.50708176754415035247802734375" lon="20.1634407229721546173095703125">
        <ele>2119.60009765625</ele>
        <time>2026-06-20T10:50:02.000Z</time>
        <extensions>
          <ns3:TrackPointExtension>
            <ns3:atemp>21.0</ns3:atemp>
          </ns3:TrackPointExtension>
        </extensions>
      </trkpt>
      <trkpt lat="42.50707321800291538238525390625" lon="20.1634621806442737579345703125">
        <ele>2120</ele>
        <time>2026-06-20T10:50:03.000Z</time>
        <extensions>
          <ns3:TrackPointExtension>
            <ns3:atemp>21.0</ns3:atemp>
          </ns3:TrackPointExtension>
        </extensions>
      </trkpt>
      <trkpt lat="42.50706651248037815093994140625" lon="20.16348254866898059844970703125">
        <ele>2120.199951171875</ele>
        <time>2026-06-20T10:50:04.000Z</time>
        <extensions>
          <ns3:TrackPointExtension>
            <ns3:atemp>21.0</ns3:atemp>
          </ns3:TrackPointExtension>
        </extensions>
      </trkpt>
      <trkpt lat="42.5070635788142681121826171875" lon="20.163503587245941162109375">
        <ele>2120.39990234375</ele>
        <time>2026-06-20T10:50:05.000Z</time>
        <extensions>
          <ns3:TrackPointExtension>
            <ns3:atemp>21.0</ns3:atemp>
          </ns3:TrackPointExtension>
        </extensions>
      </trkpt>
      <trkpt lat="42.507062070071697235107421875" lon="20.1635154895484447479248046875">
        <ele>2120.800048828125</ele>
        <time>2026-06-20T10:50:06.000Z</time>
        <extensions>
          <ns3:TrackPointExtension>
            <ns3:atemp>21.0</ns3:atemp>
          </ns3:TrackPointExtension>
        </extensions>
      </trkpt>
      <trkpt lat="42.5070570409297943115234375" lon="20.16351708211004734039306640625">
        <ele>2121</ele>
        <time>2026-06-20T10:50:07.000Z</time>
        <extensions>
          <ns3:TrackPointExtension>
            <ns3:atemp>21.0</ns3:atemp>
          </ns3:TrackPointExtension>
        </extensions>
      </trkpt>
      <trkpt lat="42.5070570409297943115234375" lon="20.16351708211004734039306640625">
        <ele>2121</ele>
        <time>2026-06-20T10:50:08.000Z</time>
        <extensions>
          <ns3:TrackPointExtension>
            <ns3:atemp>21.0</ns3:atemp>
          </ns3:TrackPointExtension>
        </extensions>
      </trkpt>
      <trkpt lat="42.5070570409297943115234375" lon="20.16351708211004734039306640625">
        <ele>2121.199951171875</ele>
        <time>2026-06-20T10:50:09.000Z</time>
        <extensions>
          <ns3:TrackPointExtension>
            <ns3:atemp>21.0</ns3:atemp>
          </ns3:TrackPointExtension>
        </extensions>
      </trkpt>
      <trkpt lat="42.5070570409297943115234375" lon="20.16351708211004734039306640625">
        <ele>2121.39990234375</ele>
        <time>2026-06-20T10:50:10.000Z</time>
        <extensions>
          <ns3:TrackPointExtension>
            <ns3:atemp>21.0</ns3:atemp>
          </ns3:TrackPointExtension>
        </extensions>
      </trkpt>
      <trkpt lat="42.5070570409297943115234375" lon="20.16351708211004734039306640625">
        <ele>2121.39990234375</ele>
        <time>2026-06-20T10:50:11.000Z</time>
        <extensions>
          <ns3:TrackPointExtension>
            <ns3:atemp>21.0</ns3:atemp>
          </ns3:TrackPointExtension>
        </extensions>
      </trkpt>
      <trkpt lat="42.5070570409297943115234375" lon="20.16351708211004734039306640625">
        <ele>2121.60009765625</ele>
        <time>2026-06-20T10:50:12.000Z</time>
        <extensions>
          <ns3:TrackPointExtension>
            <ns3:atemp>21.0</ns3:atemp>
          </ns3:TrackPointExtension>
        </extensions>
      </trkpt>
      <trkpt lat="42.5070570409297943115234375" lon="20.16351708211004734039306640625">
        <ele>2121.60009765625</ele>
        <time>2026-06-20T10:50:13.000Z</time>
        <extensions>
          <ns3:TrackPointExtension>
            <ns3:atemp>21.0</ns3:atemp>
          </ns3:TrackPointExtension>
        </extensions>
      </trkpt>
      <trkpt lat="42.5070570409297943115234375" lon="20.16351708211004734039306640625">
        <ele>2121.800048828125</ele>
        <time>2026-06-20T10:50:14.000Z</time>
        <extensions>
          <ns3:TrackPointExtension>
            <ns3:atemp>21.0</ns3:atemp>
          </ns3:TrackPointExtension>
        </extensions>
      </trkpt>
      <trkpt lat="42.5070570409297943115234375" lon="20.16351708211004734039306640625">
        <ele>2121.800048828125</ele>
        <time>2026-06-20T10:50:15.000Z</time>
        <extensions>
          <ns3:TrackPointExtension>
            <ns3:atemp>21.0</ns3:atemp>
          </ns3:TrackPointExtension>
        </extensions>
      </trkpt>
      <trkpt lat="42.50705746002495288848876953125" lon="20.16351724974811077117919921875">
        <ele>2122</ele>
        <time>2026-06-20T10:50:16.000Z</time>
        <extensions>
          <ns3:TrackPointExtension>
            <ns3:atemp>21.0</ns3:atemp>
          </ns3:TrackPointExtension>
        </extensions>
      </trkpt>
      <trkpt lat="42.5070570409297943115234375" lon="20.16351708211004734039306640625">
        <ele>2122</ele>
        <time>2026-06-20T10:50:17.000Z</time>
        <extensions>
          <ns3:TrackPointExtension>
            <ns3:atemp>21.0</ns3:atemp>
          </ns3:TrackPointExtension>
        </extensions>
      </trkpt>
      <trkpt lat="42.5070570409297943115234375" lon="20.16351708211004734039306640625">
        <ele>2122</ele>
        <time>2026-06-20T10:50:18.000Z</time>
        <extensions>
          <ns3:TrackPointExtension>
            <ns3:atemp>21.0</ns3:atemp>
          </ns3:TrackPointExtension>
        </extensions>
      </trkpt>
      <trkpt lat="42.5070570409297943115234375" lon="20.16351708211004734039306640625">
        <ele>2122</ele>
        <time>2026-06-20T10:50:19.000Z</time>
        <extensions>
          <ns3:TrackPointExtension>
            <ns3:atemp>21.0</ns3:atemp>
          </ns3:TrackPointExtension>
        </extensions>
      </trkpt>
      <trkpt lat="42.5070570409297943115234375" lon="20.16351708211004734039306640625">
        <ele>2122</ele>
        <time>2026-06-20T10:50:20.000Z</time>
        <extensions>
          <ns3:TrackPointExtension>
            <ns3:atemp>21.0</ns3:atemp>
          </ns3:TrackPointExtension>
        </extensions>
      </trkpt>
      <trkpt lat="42.5070570409297943115234375" lon="20.16351708211004734039306640625">
        <ele>2121.800048828125</ele>
        <time>2026-06-20T10:50:21.000Z</time>
        <extensions>
          <ns3:TrackPointExtension>
            <ns3:atemp>21.0</ns3:atemp>
          </ns3:TrackPointExtension>
        </extensions>
      </trkpt>
      <trkpt lat="42.5070570409297943115234375" lon="20.16351708211004734039306640625">
        <ele>2121.800048828125</ele>
        <time>2026-06-20T10:50:22.000Z</time>
        <extensions>
          <ns3:TrackPointExtension>
            <ns3:atemp>21.0</ns3:atemp>
          </ns3:TrackPointExtension>
        </extensions>
      </trkpt>
      <trkpt lat="42.5070570409297943115234375" lon="20.16351708211004734039306640625">
        <ele>2121.800048828125</ele>
        <time>2026-06-20T10:50:23.000Z</time>
        <extensions>
          <ns3:TrackPointExtension>
            <ns3:atemp>21.0</ns3:atemp>
          </ns3:TrackPointExtension>
        </extensions>
      </trkpt>
      <trkpt lat="42.5070570409297943115234375" lon="20.16351708211004734039306640625">
        <ele>2122</ele>
        <time>2026-06-20T10:50:24.000Z</time>
        <extensions>
          <ns3:TrackPointExtension>
            <ns3:atemp>21.0</ns3:atemp>
          </ns3:TrackPointExtension>
        </extensions>
      </trkpt>
      <trkpt lat="42.5070570409297943115234375" lon="20.16351708211004734039306640625">
        <ele>2122</ele>
        <time>2026-06-20T10:50:25.000Z</time>
        <extensions>
          <ns3:TrackPointExtension>
            <ns3:atemp>21.0</ns3:atemp>
          </ns3:TrackPointExtension>
        </extensions>
      </trkpt>
      <trkpt lat="42.5070570409297943115234375" lon="20.16351708211004734039306640625">
        <ele>2122</ele>
        <time>2026-06-20T10:50:26.000Z</time>
        <extensions>
          <ns3:TrackPointExtension>
            <ns3:atemp>21.0</ns3:atemp>
          </ns3:TrackPointExtension>
        </extensions>
      </trkpt>
      <trkpt lat="42.5070570409297943115234375" lon="20.16351708211004734039306640625">
        <ele>2122.199951171875</ele>
        <time>2026-06-20T10:50:27.000Z</time>
        <extensions>
          <ns3:TrackPointExtension>
            <ns3:atemp>21.0</ns3:atemp>
          </ns3:TrackPointExtension>
        </extensions>
      </trkpt>
      <trkpt lat="42.5070588849484920501708984375" lon="20.16351808793842792510986328125">
        <ele>2122.199951171875</ele>
        <time>2026-06-20T10:50:28.000Z</time>
        <extensions>
          <ns3:TrackPointExtension>
            <ns3:atemp>21.0</ns3:atemp>
          </ns3:TrackPointExtension>
        </extensions>
      </trkpt>
      <trkpt lat="42.5070583820343017578125" lon="20.163537450134754180908203125">
        <ele>2122.199951171875</ele>
        <time>2026-06-20T10:50:29.000Z</time>
        <extensions>
          <ns3:TrackPointExtension>
            <ns3:atemp>21.0</ns3:atemp>
          </ns3:TrackPointExtension>
        </extensions>
      </trkpt>
      <trkpt lat="42.50705008395016193389892578125" lon="20.16355765052139759063720703125">
        <ele>2122.39990234375</ele>
        <time>2026-06-20T10:50:30.000Z</time>
        <extensions>
          <ns3:TrackPointExtension>
            <ns3:atemp>21.0</ns3:atemp>
          </ns3:TrackPointExtension>
        </extensions>
      </trkpt>
      <trkpt lat="42.50704220496118068695068359375" lon="20.163591094315052032470703125">
        <ele>2122.39990234375</ele>
        <time>2026-06-20T10:50:31.000Z</time>
        <extensions>
          <ns3:TrackPointExtension>
            <ns3:atemp>21.0</ns3:atemp>
          </ns3:TrackPointExtension>
        </extensions>
      </trkpt>
      <trkpt lat="42.50703147612512111663818359375" lon="20.163625963032245635986328125">
        <ele>2122.60009765625</ele>
        <time>2026-06-20T10:50:32.000Z</time>
        <extensions>
          <ns3:TrackPointExtension>
            <ns3:atemp>21.0</ns3:atemp>
          </ns3:TrackPointExtension>
        </extensions>
      </trkpt>
      <trkpt lat="42.50702376477420330047607421875" lon="20.16365001909434795379638671875">
        <ele>2122.800048828125</ele>
        <time>2026-06-20T10:50:33.000Z</time>
        <extensions>
          <ns3:TrackPointExtension>
            <ns3:atemp>21.0</ns3:atemp>
          </ns3:TrackPointExtension>
        </extensions>
      </trkpt>
      <trkpt lat="42.5070169754326343536376953125" lon="20.16367130912840366363525390625">
        <ele>2123</ele>
        <time>2026-06-20T10:50:34.000Z</time>
        <extensions>
          <ns3:TrackPointExtension>
            <ns3:atemp>21.0</ns3:atemp>
          </ns3:TrackPointExtension>
        </extensions>
      </trkpt>
      <trkpt lat="42.50700540840625762939453125" lon="20.1636921800673007965087890625">
        <ele>2123.39990234375</ele>
        <time>2026-06-20T10:50:35.000Z</time>
        <extensions>
          <ns3:TrackPointExtension>
            <ns3:atemp>21.0</ns3:atemp>
          </ns3:TrackPointExtension>
        </extensions>
      </trkpt>
      <trkpt lat="42.50698738731443881988525390625" lon="20.1637112908065319061279296875">
        <ele>2123.60009765625</ele>
        <time>2026-06-20T10:50:36.000Z</time>
        <extensions>
          <ns3:TrackPointExtension>
            <ns3:atemp>21.0</ns3:atemp>
          </ns3:TrackPointExtension>
        </extensions>
      </trkpt>
      <trkpt lat="42.50697464682161808013916015625" lon="20.16373886726796627044677734375">
        <ele>2123.800048828125</ele>
        <time>2026-06-20T10:50:37.000Z</time>
        <extensions>
          <ns3:TrackPointExtension>
            <ns3:atemp>20.0</ns3:atemp>
          </ns3:TrackPointExtension>
        </extensions>
      </trkpt>
      <trkpt lat="42.5069633312523365020751953125" lon="20.16376770101487636566162109375">
        <ele>2124.199951171875</ele>
        <time>2026-06-20T10:50:38.000Z</time>
        <extensions>
          <ns3:TrackPointExtension>
            <ns3:atemp>21.0</ns3:atemp>
          </ns3:TrackPointExtension>
        </extensions>
      </trkpt>
      <trkpt lat="42.50695712864398956298828125" lon="20.16379787586629390716552734375">
        <ele>2124.39990234375</ele>
        <time>2026-06-20T10:50:39.000Z</time>
        <extensions>
          <ns3:TrackPointExtension>
            <ns3:atemp>21.0</ns3:atemp>
          </ns3:TrackPointExtension>
        </extensions>
      </trkpt>
      <trkpt lat="42.50695117749273777008056640625" lon="20.16382654197514057159423828125">
        <ele>2124.800048828125</ele>
        <time>2026-06-20T10:50:40.000Z</time>
        <extensions>
          <ns3:TrackPointExtension>
            <ns3:atemp>20.0</ns3:atemp>
          </ns3:TrackPointExtension>
        </extensions>
      </trkpt>
      <trkpt lat="42.506948746740818023681640625" lon="20.16385428607463836669921875">
        <ele>2125.199951171875</ele>
        <time>2026-06-20T10:50:41.000Z</time>
        <extensions>
          <ns3:TrackPointExtension>
            <ns3:atemp>20.0</ns3:atemp>
          </ns3:TrackPointExtension>
        </extensions>
      </trkpt>
      <trkpt lat="42.50694371759891510009765625" lon="20.1638832874596118927001953125">
        <ele>2125.800048828125</ele>
        <time>2026-06-20T10:50:42.000Z</time>
        <extensions>
          <ns3:TrackPointExtension>
            <ns3:atemp>21.0</ns3:atemp>
          </ns3:TrackPointExtension>
        </extensions>
      </trkpt>
      <trkpt lat="42.506940364837646484375" lon="20.16390969045460224151611328125">
        <ele>2126.39990234375</ele>
        <time>2026-06-20T10:50:43.000Z</time>
        <extensions>
          <ns3:TrackPointExtension>
            <ns3:atemp>21.0</ns3:atemp>
          </ns3:TrackPointExtension>
        </extensions>
      </trkpt>
      <trkpt lat="42.506936676800251007080078125" lon="20.1639367640018463134765625">
        <ele>2127</ele>
        <time>2026-06-20T10:50:44.000Z</time>
        <extensions>
          <ns3:TrackPointExtension>
            <ns3:atemp>21.0</ns3:atemp>
          </ns3:TrackPointExtension>
        </extensions>
      </trkpt>
      <trkpt lat="42.506933324038982391357421875" lon="20.16396232880651950836181640625">
        <ele>2127.60009765625</ele>
        <time>2026-06-20T10:50:45.000Z</time>
        <extensions>
          <ns3:TrackPointExtension>
            <ns3:atemp>21.0</ns3:atemp>
          </ns3:TrackPointExtension>
        </extensions>
      </trkpt>
      <trkpt lat="42.506927959620952606201171875" lon="20.16398814506828784942626953125">
        <ele>2128</ele>
        <time>2026-06-20T10:50:46.000Z</time>
        <extensions>
          <ns3:TrackPointExtension>
            <ns3:atemp>21.0</ns3:atemp>
          </ns3:TrackPointExtension>
        </extensions>
      </trkpt>
      <trkpt lat="42.50692469067871570587158203125" lon="20.1640163920819759368896484375">
        <ele>2128.39990234375</ele>
        <time>2026-06-20T10:50:47.000Z</time>
        <extensions>
          <ns3:TrackPointExtension>
            <ns3:atemp>21.0</ns3:atemp>
          </ns3:TrackPointExtension>
        </extensions>
      </trkpt>
      <trkpt lat="42.50691915862262248992919921875" lon="20.164041705429553985595703125">
        <ele>2129</ele>
        <time>2026-06-20T10:50:48.000Z</time>
        <extensions>
          <ns3:TrackPointExtension>
            <ns3:atemp>21.0</ns3:atemp>
          </ns3:TrackPointExtension>
        </extensions>
      </trkpt>
      <trkpt lat="42.50691245310008525848388671875" lon="20.1640693657100200653076171875">
        <ele>2129.60009765625</ele>
        <time>2026-06-20T10:50:49.000Z</time>
        <extensions>
          <ns3:TrackPointExtension>
            <ns3:atemp>21.0</ns3:atemp>
          </ns3:TrackPointExtension>
        </extensions>
      </trkpt>
      <trkpt lat="42.5069070048630237579345703125" lon="20.16409526579082012176513671875">
        <ele>2130</ele>
        <time>2026-06-20T10:50:50.000Z</time>
        <extensions>
          <ns3:TrackPointExtension>
            <ns3:atemp>21.0</ns3:atemp>
          </ns3:TrackPointExtension>
        </extensions>
      </trkpt>
      <trkpt lat="42.5069013051688671112060546875" lon="20.16412158496677875518798828125">
        <ele>2130.60009765625</ele>
        <time>2026-06-20T10:50:51.000Z</time>
        <extensions>
          <ns3:TrackPointExtension>
            <ns3:atemp>21.0</ns3:atemp>
          </ns3:TrackPointExtension>
        </extensions>
      </trkpt>
      <trkpt lat="42.5068987905979156494140625" lon="20.1641448028385639190673828125">
        <ele>2131.199951171875</ele>
        <time>2026-06-20T10:50:52.000Z</time>
        <extensions>
          <ns3:TrackPointExtension>
            <ns3:atemp>21.0</ns3:atemp>
          </ns3:TrackPointExtension>
        </extensions>
      </trkpt>
      <trkpt lat="42.5068961083889007568359375" lon="20.16417154110968112945556640625">
        <ele>2131.800048828125</ele>
        <time>2026-06-20T10:50:53.000Z</time>
        <extensions>
          <ns3:TrackPointExtension>
            <ns3:atemp>21.0</ns3:atemp>
          </ns3:TrackPointExtension>
        </extensions>
      </trkpt>
      <trkpt lat="42.50689350999891757965087890625" lon="20.16419752500951290130615234375">
        <ele>2132.39990234375</ele>
        <time>2026-06-20T10:50:54.000Z</time>
        <extensions>
          <ns3:TrackPointExtension>
            <ns3:atemp>21.0</ns3:atemp>
          </ns3:TrackPointExtension>
        </extensions>
      </trkpt>
      <trkpt lat="42.50688797794282436370849609375" lon="20.16422602348029613494873046875">
        <ele>2132.800048828125</ele>
        <time>2026-06-20T10:50:55.000Z</time>
        <extensions>
          <ns3:TrackPointExtension>
            <ns3:atemp>21.0</ns3:atemp>
          </ns3:TrackPointExtension>
        </extensions>
      </trkpt>
      <trkpt lat="42.506882362067699432373046875" lon="20.1642557792365550994873046875">
        <ele>2133.199951171875</ele>
        <time>2026-06-20T10:50:56.000Z</time>
        <extensions>
          <ns3:TrackPointExtension>
            <ns3:atemp>21.0</ns3:atemp>
          </ns3:TrackPointExtension>
        </extensions>
      </trkpt>
      <trkpt lat="42.50687825493514537811279296875" lon="20.164286457002162933349609375">
        <ele>2133.60009765625</ele>
        <time>2026-06-20T10:50:57.000Z</time>
        <extensions>
          <ns3:TrackPointExtension>
            <ns3:atemp>21.0</ns3:atemp>
          </ns3:TrackPointExtension>
        </extensions>
      </trkpt>
      <trkpt lat="42.5068731419742107391357421875" lon="20.16431470401585102081298828125">
        <ele>2134</ele>
        <time>2026-06-20T10:50:58.000Z</time>
        <extensions>
          <ns3:TrackPointExtension>
            <ns3:atemp>21.0</ns3:atemp>
          </ns3:TrackPointExtension>
        </extensions>
      </trkpt>
      <trkpt lat="42.50686568208038806915283203125" lon="20.16434119082987308502197265625">
        <ele>2134.39990234375</ele>
        <time>2026-06-20T10:50:59.000Z</time>
        <extensions>
          <ns3:TrackPointExtension>
            <ns3:atemp>20.0</ns3:atemp>
          </ns3:TrackPointExtension>
        </extensions>
      </trkpt>
      <trkpt lat="42.50685813836753368377685546875" lon="20.1643674261868000030517578125">
        <ele>2134.800048828125</ele>
        <time>2026-06-20T10:51:00.000Z</time>
        <extensions>
          <ns3:TrackPointExtension>
            <ns3:atemp>20.0</ns3:atemp>
          </ns3:TrackPointExtension>
        </extensions>
      </trkpt>
      <trkpt lat="42.50685118138790130615234375" lon="20.16439198516309261322021484375">
        <ele>2135.39990234375</ele>
        <time>2026-06-20T10:51:01.000Z</time>
        <extensions>
          <ns3:TrackPointExtension>
            <ns3:atemp>20.0</ns3:atemp>
          </ns3:TrackPointExtension>
        </extensions>
      </trkpt>
      <trkpt lat="42.506846822798252105712890625" lon="20.16442023217678070068359375">
        <ele>2135.800048828125</ele>
        <time>2026-06-20T10:51:02.000Z</time>
        <extensions>
          <ns3:TrackPointExtension>
            <ns3:atemp>20.0</ns3:atemp>
          </ns3:TrackPointExtension>
        </extensions>
      </trkpt>
      <trkpt lat="42.50684036873281002044677734375" lon="20.1644442044198513031005859375">
        <ele>2136.199951171875</ele>
        <time>2026-06-20T10:51:03.000Z</time>
        <extensions>
          <ns3:TrackPointExtension>
            <ns3:atemp>20.0</ns3:atemp>
          </ns3:TrackPointExtension>
        </extensions>
      </trkpt>
      <trkpt lat="42.50683148391544818878173828125" lon="20.16446960158646106719970703125">
        <ele>2136.800048828125</ele>
        <time>2026-06-20T10:51:04.000Z</time>
        <extensions>
          <ns3:TrackPointExtension>
            <ns3:atemp>20.0</ns3:atemp>
          </ns3:TrackPointExtension>
        </extensions>
      </trkpt>
      <trkpt lat="42.5068251974880695343017578125" lon="20.1644931547343730926513671875">
        <ele>2137.39990234375</ele>
        <time>2026-06-20T10:51:05.000Z</time>
        <extensions>
          <ns3:TrackPointExtension>
            <ns3:atemp>20.0</ns3:atemp>
          </ns3:TrackPointExtension>
        </extensions>
      </trkpt>
      <trkpt lat="42.50682259909808635711669921875" lon="20.16452081501483917236328125">
        <ele>2137.800048828125</ele>
        <time>2026-06-20T10:51:06.000Z</time>
        <extensions>
          <ns3:TrackPointExtension>
            <ns3:atemp>20.0</ns3:atemp>
          </ns3:TrackPointExtension>
        </extensions>
      </trkpt>
      <trkpt lat="42.50682109035551548004150390625" lon="20.16454839147627353668212890625">
        <ele>2138.39990234375</ele>
        <time>2026-06-20T10:51:07.000Z</time>
        <extensions>
          <ns3:TrackPointExtension>
            <ns3:atemp>20.0</ns3:atemp>
          </ns3:TrackPointExtension>
        </extensions>
      </trkpt>
      <trkpt lat="42.50681874342262744903564453125" lon="20.16457353718578815460205078125">
        <ele>2139</ele>
        <time>2026-06-20T10:51:08.000Z</time>
        <extensions>
          <ns3:TrackPointExtension>
            <ns3:atemp>20.0</ns3:atemp>
          </ns3:TrackPointExtension>
        </extensions>
      </trkpt>
      <trkpt lat="42.50681472010910511016845703125" lon="20.1645967550575733184814453125">
        <ele>2139.60009765625</ele>
        <time>2026-06-20T10:51:09.000Z</time>
        <extensions>
          <ns3:TrackPointExtension>
            <ns3:atemp>20.0</ns3:atemp>
          </ns3:TrackPointExtension>
        </extensions>
      </trkpt>
      <trkpt lat="42.5068102777004241943359375" lon="20.1646168716251850128173828125">
        <ele>2140.199951171875</ele>
        <time>2026-06-20T10:51:10.000Z</time>
        <extensions>
          <ns3:TrackPointExtension>
            <ns3:atemp>20.0</ns3:atemp>
          </ns3:TrackPointExtension>
        </extensions>
      </trkpt>
      <trkpt lat="42.5068077631294727325439453125" lon="20.16463925130665302276611328125">
        <ele>2140.800048828125</ele>
        <time>2026-06-20T10:51:11.000Z</time>
        <extensions>
          <ns3:TrackPointExtension>
            <ns3:atemp>20.0</ns3:atemp>
          </ns3:TrackPointExtension>
        </extensions>
      </trkpt>
      <trkpt lat="42.50680692493915557861328125" lon="20.16466540284454822540283203125">
        <ele>2141.39990234375</ele>
        <time>2026-06-20T10:51:12.000Z</time>
        <extensions>
          <ns3:TrackPointExtension>
            <ns3:atemp>20.0</ns3:atemp>
          </ns3:TrackPointExtension>
        </extensions>
      </trkpt>
      <trkpt lat="42.50680700875818729400634765625" lon="20.16469021327793598175048828125">
        <ele>2142</ele>
        <time>2026-06-20T10:51:13.000Z</time>
        <extensions>
          <ns3:TrackPointExtension>
            <ns3:atemp>20.0</ns3:atemp>
          </ns3:TrackPointExtension>
        </extensions>
      </trkpt>
      <trkpt lat="42.50680415891110897064208984375" lon="20.1647146046161651611328125">
        <ele>2142.60009765625</ele>
        <time>2026-06-20T10:51:14.000Z</time>
        <extensions>
          <ns3:TrackPointExtension>
            <ns3:atemp>20.0</ns3:atemp>
          </ns3:TrackPointExtension>
        </extensions>
      </trkpt>
      <trkpt lat="42.5068003870546817779541015625" lon="20.164736397564411163330078125">
        <ele>2143.39990234375</ele>
        <time>2026-06-20T10:51:15.000Z</time>
        <extensions>
          <ns3:TrackPointExtension>
            <ns3:atemp>20.0</ns3:atemp>
          </ns3:TrackPointExtension>
        </extensions>
      </trkpt>
      <trkpt lat="42.50678739510476589202880859375" lon="20.1647419296205043792724609375">
        <ele>2144</ele>
        <time>2026-06-20T10:51:16.000Z</time>
        <extensions>
          <ns3:TrackPointExtension>
            <ns3:atemp>20.0</ns3:atemp>
          </ns3:TrackPointExtension>
        </extensions>
      </trkpt>
      <trkpt lat="42.50679141841828823089599609375" lon="20.1647459529340267181396484375">
        <ele>2144.60009765625</ele>
        <time>2026-06-20T10:51:17.000Z</time>
        <extensions>
          <ns3:TrackPointExtension>
            <ns3:atemp>20.0</ns3:atemp>
          </ns3:TrackPointExtension>
        </extensions>
      </trkpt>
      <trkpt lat="42.50679141841828823089599609375" lon="20.16474612057209014892578125">
        <ele>2145.199951171875</ele>
        <time>2026-06-20T10:51:18.000Z</time>
        <extensions>
          <ns3:TrackPointExtension>
            <ns3:atemp>20.0</ns3:atemp>
          </ns3:TrackPointExtension>
        </extensions>
      </trkpt>
      <trkpt lat="42.5067903287708759307861328125" lon="20.16475290991365909576416015625">
        <ele>2145.800048828125</ele>
        <time>2026-06-20T10:51:19.000Z</time>
        <extensions>
          <ns3:TrackPointExtension>
            <ns3:atemp>20.0</ns3:atemp>
          </ns3:TrackPointExtension>
        </extensions>
      </trkpt>
      <trkpt lat="42.5067903287708759307861328125" lon="20.16475290991365909576416015625">
        <ele>2146</ele>
        <time>2026-06-20T10:51:20.000Z</time>
        <extensions>
          <ns3:TrackPointExtension>
            <ns3:atemp>20.0</ns3:atemp>
          </ns3:TrackPointExtension>
        </extensions>
      </trkpt>
      <trkpt lat="42.5067903287708759307861328125" lon="20.16475290991365909576416015625">
        <ele>2146</ele>
        <time>2026-06-20T10:51:21.000Z</time>
        <extensions>
          <ns3:TrackPointExtension>
            <ns3:atemp>20.0</ns3:atemp>
          </ns3:TrackPointExtension>
        </extensions>
      </trkpt>
      <trkpt lat="42.5067903287708759307861328125" lon="20.16475290991365909576416015625">
        <ele>2146</ele>
        <time>2026-06-20T10:51:22.000Z</time>
        <extensions>
          <ns3:TrackPointExtension>
            <ns3:atemp>20.0</ns3:atemp>
          </ns3:TrackPointExtension>
        </extensions>
      </trkpt>
      <trkpt lat="42.5067903287708759307861328125" lon="20.16475290991365909576416015625">
        <ele>2146</ele>
        <time>2026-06-20T10:51:23.000Z</time>
        <extensions>
          <ns3:TrackPointExtension>
            <ns3:atemp>20.0</ns3:atemp>
          </ns3:TrackPointExtension>
        </extensions>
      </trkpt>
      <trkpt lat="42.5067903287708759307861328125" lon="20.16475290991365909576416015625">
        <ele>2146</ele>
        <time>2026-06-20T10:51:24.000Z</time>
        <extensions>
          <ns3:TrackPointExtension>
            <ns3:atemp>20.0</ns3:atemp>
          </ns3:TrackPointExtension>
        </extensions>
      </trkpt>
      <trkpt lat="42.5067903287708759307861328125" lon="20.16475290991365909576416015625">
        <ele>2146</ele>
        <time>2026-06-20T10:51:25.000Z</time>
        <extensions>
          <ns3:TrackPointExtension>
            <ns3:atemp>20.0</ns3:atemp>
          </ns3:TrackPointExtension>
        </extensions>
      </trkpt>
      <trkpt lat="42.5067903287708759307861328125" lon="20.16475290991365909576416015625">
        <ele>2146</ele>
        <time>2026-06-20T10:51:26.000Z</time>
        <extensions>
          <ns3:TrackPointExtension>
            <ns3:atemp>20.0</ns3:atemp>
          </ns3:TrackPointExtension>
        </extensions>
      </trkpt>
      <trkpt lat="42.5067903287708759307861328125" lon="20.16475290991365909576416015625">
        <ele>2146</ele>
        <time>2026-06-20T10:51:27.000Z</time>
        <extensions>
          <ns3:TrackPointExtension>
            <ns3:atemp>20.0</ns3:atemp>
          </ns3:TrackPointExtension>
        </extensions>
      </trkpt>
      <trkpt lat="42.5067906640470027923583984375" lon="20.16475416719913482666015625">
        <ele>2146.199951171875</ele>
        <time>2026-06-20T10:51:28.000Z</time>
        <extensions>
          <ns3:TrackPointExtension>
            <ns3:atemp>20.0</ns3:atemp>
          </ns3:TrackPointExtension>
        </extensions>
      </trkpt>
      <trkpt lat="42.5067899934947490692138671875" lon="20.16477319411933422088623046875">
        <ele>2146.199951171875</ele>
        <time>2026-06-20T10:51:29.000Z</time>
        <extensions>
          <ns3:TrackPointExtension>
            <ns3:atemp>20.0</ns3:atemp>
          </ns3:TrackPointExtension>
        </extensions>
      </trkpt>
      <trkpt lat="42.50678756274282932281494140625" lon="20.1647868566215038299560546875">
        <ele>2146.39990234375</ele>
        <time>2026-06-20T10:51:30.000Z</time>
        <extensions>
          <ns3:TrackPointExtension>
            <ns3:atemp>20.0</ns3:atemp>
          </ns3:TrackPointExtension>
        </extensions>
      </trkpt>
      <trkpt lat="42.5067852996289730072021484375" lon="20.164798758924007415771484375">
        <ele>2146.60009765625</ele>
        <time>2026-06-20T10:51:31.000Z</time>
        <extensions>
          <ns3:TrackPointExtension>
            <ns3:atemp>20.0</ns3:atemp>
          </ns3:TrackPointExtension>
        </extensions>
      </trkpt>
      <trkpt lat="42.50678370706737041473388671875" lon="20.16481040976941585540771484375">
        <ele>2146.800048828125</ele>
        <time>2026-06-20T10:51:32.000Z</time>
        <extensions>
          <ns3:TrackPointExtension>
            <ns3:atemp>20.0</ns3:atemp>
          </ns3:TrackPointExtension>
        </extensions>
      </trkpt>
      <trkpt lat="42.50678270123898983001708984375" lon="20.1648223958909511566162109375">
        <ele>2147</ele>
        <time>2026-06-20T10:51:33.000Z</time>
        <extensions>
          <ns3:TrackPointExtension>
            <ns3:atemp>20.0</ns3:atemp>
          </ns3:TrackPointExtension>
        </extensions>
      </trkpt>
      <trkpt lat="42.50678136013448238372802734375" lon="20.1648307777941226959228515625">
        <ele>2147.199951171875</ele>
        <time>2026-06-20T10:51:34.000Z</time>
        <extensions>
          <ns3:TrackPointExtension>
            <ns3:atemp>20.0</ns3:atemp>
          </ns3:TrackPointExtension>
        </extensions>
      </trkpt>
      <trkpt lat="42.50677918083965778350830078125" lon="20.164841003715991973876953125">
        <ele>2147.60009765625</ele>
        <time>2026-06-20T10:51:35.000Z</time>
        <extensions>
          <ns3:TrackPointExtension>
            <ns3:atemp>20.0</ns3:atemp>
          </ns3:TrackPointExtension>
        </extensions>
      </trkpt>
      <trkpt lat="42.506776750087738037109375" lon="20.16484544612467288970947265625">
        <ele>2148</ele>
        <time>2026-06-20T10:51:36.000Z</time>
        <extensions>
          <ns3:TrackPointExtension>
            <ns3:atemp>20.0</ns3:atemp>
          </ns3:TrackPointExtension>
        </extensions>
      </trkpt>
      <trkpt lat="42.5067795999348163604736328125" lon="20.16485516913235187530517578125">
        <ele>2148.199951171875</ele>
        <time>2026-06-20T10:51:37.000Z</time>
        <extensions>
          <ns3:TrackPointExtension>
            <ns3:atemp>20.0</ns3:atemp>
          </ns3:TrackPointExtension>
        </extensions>
      </trkpt>
      <trkpt lat="42.50677767209708690643310546875" lon="20.16485818661749362945556640625">
        <ele>2148.60009765625</ele>
        <time>2026-06-20T10:51:38.000Z</time>
        <extensions>
          <ns3:TrackPointExtension>
            <ns3:atemp>20.0</ns3:atemp>
          </ns3:TrackPointExtension>
        </extensions>
      </trkpt>
      <trkpt lat="42.50677767209708690643310546875" lon="20.1648582704365253448486328125">
        <ele>2148.800048828125</ele>
        <time>2026-06-20T10:51:39.000Z</time>
        <extensions>
          <ns3:TrackPointExtension>
            <ns3:atemp>20.0</ns3:atemp>
          </ns3:TrackPointExtension>
        </extensions>
      </trkpt>
      <trkpt lat="42.50677767209708690643310546875" lon="20.1648582704365253448486328125">
        <ele>2149</ele>
        <time>2026-06-20T10:51:40.000Z</time>
        <extensions>
          <ns3:TrackPointExtension>
            <ns3:atemp>20.0</ns3:atemp>
          </ns3:TrackPointExtension>
        </extensions>
      </trkpt>
      <trkpt lat="42.506777755916118621826171875" lon="20.16485852189362049102783203125">
        <ele>2149</ele>
        <time>2026-06-20T10:51:41.000Z</time>
        <extensions>
          <ns3:TrackPointExtension>
            <ns3:atemp>20.0</ns3:atemp>
          </ns3:TrackPointExtension>
        </extensions>
      </trkpt>
      <trkpt lat="42.50677800737321376800537109375" lon="20.1648743636906147003173828125">
        <ele>2149</ele>
        <time>2026-06-20T10:51:42.000Z</time>
        <extensions>
          <ns3:TrackPointExtension>
            <ns3:atemp>20.0</ns3:atemp>
          </ns3:TrackPointExtension>
        </extensions>
      </trkpt>
      <trkpt lat="42.50677633099257946014404296875" lon="20.16488492488861083984375">
        <ele>2149.199951171875</ele>
        <time>2026-06-20T10:51:43.000Z</time>
        <extensions>
          <ns3:TrackPointExtension>
            <ns3:atemp>20.0</ns3:atemp>
          </ns3:TrackPointExtension>
        </extensions>
      </trkpt>
      <trkpt lat="42.5067742355167865753173828125" lon="20.1648934744298458099365234375">
        <ele>2149.39990234375</ele>
        <time>2026-06-20T10:51:44.000Z</time>
        <extensions>
          <ns3:TrackPointExtension>
            <ns3:atemp>20.0</ns3:atemp>
          </ns3:TrackPointExtension>
        </extensions>
      </trkpt>
      <trkpt lat="42.506773062050342559814453125" lon="20.16490596346557140350341796875">
        <ele>2149.60009765625</ele>
        <time>2026-06-20T10:51:45.000Z</time>
        <extensions>
          <ns3:TrackPointExtension>
            <ns3:atemp>20.0</ns3:atemp>
          </ns3:TrackPointExtension>
        </extensions>
      </trkpt>
      <trkpt lat="42.50677214004099369049072265625" lon="20.16491803340613842010498046875">
        <ele>2149.800048828125</ele>
        <time>2026-06-20T10:51:46.000Z</time>
        <extensions>
          <ns3:TrackPointExtension>
            <ns3:atemp>20.0</ns3:atemp>
          </ns3:TrackPointExtension>
        </extensions>
      </trkpt>
      <trkpt lat="42.50677247531712055206298828125" lon="20.16492289490997791290283203125">
        <ele>2150</ele>
        <time>2026-06-20T10:51:47.000Z</time>
        <extensions>
          <ns3:TrackPointExtension>
            <ns3:atemp>20.0</ns3:atemp>
          </ns3:TrackPointExtension>
        </extensions>
      </trkpt>
      <trkpt lat="42.5067735649645328521728515625" lon="20.1649223081767559051513671875">
        <ele>2150.39990234375</ele>
        <time>2026-06-20T10:51:48.000Z</time>
        <extensions>
          <ns3:TrackPointExtension>
            <ns3:atemp>20.0</ns3:atemp>
          </ns3:TrackPointExtension>
        </extensions>
      </trkpt>
      <trkpt lat="42.5067735649645328521728515625" lon="20.16492239199578762054443359375">
        <ele>2150.60009765625</ele>
        <time>2026-06-20T10:51:49.000Z</time>
        <extensions>
          <ns3:TrackPointExtension>
            <ns3:atemp>20.0</ns3:atemp>
          </ns3:TrackPointExtension>
        </extensions>
      </trkpt>
      <trkpt lat="42.5067735649645328521728515625" lon="20.16492239199578762054443359375">
        <ele>2151</ele>
        <time>2026-06-20T10:51:50.000Z</time>
        <extensions>
          <ns3:TrackPointExtension>
            <ns3:atemp>20.0</ns3:atemp>
          </ns3:TrackPointExtension>
        </extensions>
      </trkpt>
      <trkpt lat="42.5067735649645328521728515625" lon="20.16492272727191448211669921875">
        <ele>2151.199951171875</ele>
        <time>2026-06-20T10:51:51.000Z</time>
        <extensions>
          <ns3:TrackPointExtension>
            <ns3:atemp>20.0</ns3:atemp>
          </ns3:TrackPointExtension>
        </extensions>
      </trkpt>
      <trkpt lat="42.5067727267742156982421875" lon="20.16494083218276500701904296875">
        <ele>2151.39990234375</ele>
        <time>2026-06-20T10:51:52.000Z</time>
        <extensions>
          <ns3:TrackPointExtension>
            <ns3:atemp>20.0</ns3:atemp>
          </ns3:TrackPointExtension>
        </extensions>
      </trkpt>
      <trkpt lat="42.50677130185067653656005859375" lon="20.16495055519044399261474609375">
        <ele>2151.39990234375</ele>
        <time>2026-06-20T10:51:53.000Z</time>
        <extensions>
          <ns3:TrackPointExtension>
            <ns3:atemp>20.0</ns3:atemp>
          </ns3:TrackPointExtension>
        </extensions>
      </trkpt>
      <trkpt lat="42.5067698769271373748779296875" lon="20.16496145166456699371337890625">
        <ele>2151.39990234375</ele>
        <time>2026-06-20T10:51:54.000Z</time>
        <extensions>
          <ns3:TrackPointExtension>
            <ns3:atemp>20.0</ns3:atemp>
          </ns3:TrackPointExtension>
        </extensions>
      </trkpt>
      <trkpt lat="42.5067648477852344512939453125" lon="20.164973773062229156494140625">
        <ele>2151.39990234375</ele>
        <time>2026-06-20T10:51:55.000Z</time>
        <extensions>
          <ns3:TrackPointExtension>
            <ns3:atemp>20.0</ns3:atemp>
          </ns3:TrackPointExtension>
        </extensions>
      </trkpt>
      <trkpt lat="42.50675990246236324310302734375" lon="20.16498290933668613433837890625">
        <ele>2151.60009765625</ele>
        <time>2026-06-20T10:51:56.000Z</time>
        <extensions>
          <ns3:TrackPointExtension>
            <ns3:atemp>20.0</ns3:atemp>
          </ns3:TrackPointExtension>
        </extensions>
      </trkpt>
      <trkpt lat="42.50675571151077747344970703125" lon="20.16499011777341365814208984375">
        <ele>2151.800048828125</ele>
        <time>2026-06-20T10:51:57.000Z</time>
        <extensions>
          <ns3:TrackPointExtension>
            <ns3:atemp>20.0</ns3:atemp>
          </ns3:TrackPointExtension>
        </extensions>
      </trkpt>
      <trkpt lat="42.50675369985401630401611328125" lon="20.164997242391109466552734375">
        <ele>2152</ele>
        <time>2026-06-20T10:51:58.000Z</time>
        <extensions>
          <ns3:TrackPointExtension>
            <ns3:atemp>20.0</ns3:atemp>
          </ns3:TrackPointExtension>
        </extensions>
      </trkpt>
      <trkpt lat="42.506752274930477142333984375" lon="20.1650064624845981597900390625">
        <ele>2152.199951171875</ele>
        <time>2026-06-20T10:51:59.000Z</time>
        <extensions>
          <ns3:TrackPointExtension>
            <ns3:atemp>20.0</ns3:atemp>
          </ns3:TrackPointExtension>
        </extensions>
      </trkpt>
      <trkpt lat="42.50674816779792308807373046875" lon="20.16501660458743572235107421875">
        <ele>2152.39990234375</ele>
        <time>2026-06-20T10:52:00.000Z</time>
        <extensions>
          <ns3:TrackPointExtension>
            <ns3:atemp>20.0</ns3:atemp>
          </ns3:TrackPointExtension>
        </extensions>
      </trkpt>
      <trkpt lat="42.5067430548369884490966796875" lon="20.16502448357641696929931640625">
        <ele>2152.60009765625</ele>
        <time>2026-06-20T10:52:01.000Z</time>
        <extensions>
          <ns3:TrackPointExtension>
            <ns3:atemp>20.0</ns3:atemp>
          </ns3:TrackPointExtension>
        </extensions>
      </trkpt>
      <trkpt lat="42.50674028880894184112548828125" lon="20.165032446384429931640625">
        <ele>2152.800048828125</ele>
        <time>2026-06-20T10:52:02.000Z</time>
        <extensions>
          <ns3:TrackPointExtension>
            <ns3:atemp>20.0</ns3:atemp>
          </ns3:TrackPointExtension>
        </extensions>
      </trkpt>
      <trkpt lat="42.50673986971378326416015625" lon="20.16504074446856975555419921875">
        <ele>2153</ele>
        <time>2026-06-20T10:52:03.000Z</time>
        <extensions>
          <ns3:TrackPointExtension>
            <ns3:atemp>20.0</ns3:atemp>
          </ns3:TrackPointExtension>
        </extensions>
      </trkpt>
      <trkpt lat="42.50674012117087841033935546875" lon="20.16504359431564807891845703125">
        <ele>2153.199951171875</ele>
        <time>2026-06-20T10:52:04.000Z</time>
        <extensions>
          <ns3:TrackPointExtension>
            <ns3:atemp>20.0</ns3:atemp>
          </ns3:TrackPointExtension>
        </extensions>
      </trkpt>
      <trkpt lat="42.50673945061862468719482421875" lon="20.1650430075824260711669921875">
        <ele>2153.199951171875</ele>
        <time>2026-06-20T10:52:05.000Z</time>
        <extensions>
          <ns3:TrackPointExtension>
            <ns3:atemp>20.0</ns3:atemp>
          </ns3:TrackPointExtension>
        </extensions>
      </trkpt>
      <trkpt lat="42.50673945061862468719482421875" lon="20.1650430075824260711669921875">
        <ele>2153.39990234375</ele>
        <time>2026-06-20T10:52:06.000Z</time>
        <extensions>
          <ns3:TrackPointExtension>
            <ns3:atemp>20.0</ns3:atemp>
          </ns3:TrackPointExtension>
        </extensions>
      </trkpt>
      <trkpt lat="42.50673945061862468719482421875" lon="20.1650430075824260711669921875">
        <ele>2153.39990234375</ele>
        <time>2026-06-20T10:52:07.000Z</time>
        <extensions>
          <ns3:TrackPointExtension>
            <ns3:atemp>20.0</ns3:atemp>
          </ns3:TrackPointExtension>
        </extensions>
      </trkpt>
      <trkpt lat="42.50673945061862468719482421875" lon="20.1650430075824260711669921875">
        <ele>2153.60009765625</ele>
        <time>2026-06-20T10:52:08.000Z</time>
        <extensions>
          <ns3:TrackPointExtension>
            <ns3:atemp>20.0</ns3:atemp>
          </ns3:TrackPointExtension>
        </extensions>
      </trkpt>
      <trkpt lat="42.50673945061862468719482421875" lon="20.1650430075824260711669921875">
        <ele>2153.800048828125</ele>
        <time>2026-06-20T10:52:09.000Z</time>
        <extensions>
          <ns3:TrackPointExtension>
            <ns3:atemp>20.0</ns3:atemp>
          </ns3:TrackPointExtension>
        </extensions>
      </trkpt>
      <trkpt lat="42.50673945061862468719482421875" lon="20.1650430075824260711669921875">
        <ele>2154</ele>
        <time>2026-06-20T10:52:10.000Z</time>
        <extensions>
          <ns3:TrackPointExtension>
            <ns3:atemp>20.0</ns3:atemp>
          </ns3:TrackPointExtension>
        </extensions>
      </trkpt>
      <trkpt lat="42.50673945061862468719482421875" lon="20.1650430075824260711669921875">
        <ele>2154</ele>
        <time>2026-06-20T10:52:11.000Z</time>
        <extensions>
          <ns3:TrackPointExtension>
            <ns3:atemp>20.0</ns3:atemp>
          </ns3:TrackPointExtension>
        </extensions>
      </trkpt>
      <trkpt lat="42.50673945061862468719482421875" lon="20.1650430075824260711669921875">
        <ele>2154.199951171875</ele>
        <time>2026-06-20T10:52:12.000Z</time>
        <extensions>
          <ns3:TrackPointExtension>
            <ns3:atemp>20.0</ns3:atemp>
          </ns3:TrackPointExtension>
        </extensions>
      </trkpt>
      <trkpt lat="42.50673945061862468719482421875" lon="20.1650430075824260711669921875">
        <ele>2154</ele>
        <time>2026-06-20T10:52:13.000Z</time>
        <extensions>
          <ns3:TrackPointExtension>
            <ns3:atemp>20.0</ns3:atemp>
          </ns3:TrackPointExtension>
        </extensions>
      </trkpt>
      <trkpt lat="42.50673945061862468719482421875" lon="20.1650430075824260711669921875">
        <ele>2154</ele>
        <time>2026-06-20T10:52:14.000Z</time>
        <extensions>
          <ns3:TrackPointExtension>
            <ns3:atemp>20.0</ns3:atemp>
          </ns3:TrackPointExtension>
        </extensions>
      </trkpt>
      <trkpt lat="42.50673945061862468719482421875" lon="20.1650430075824260711669921875">
        <ele>2154</ele>
        <time>2026-06-20T10:52:15.000Z</time>
        <extensions>
          <ns3:TrackPointExtension>
            <ns3:atemp>20.0</ns3:atemp>
          </ns3:TrackPointExtension>
        </extensions>
      </trkpt>
      <trkpt lat="42.50673945061862468719482421875" lon="20.1650430075824260711669921875">
        <ele>2154</ele>
        <time>2026-06-20T10:52:16.000Z</time>
        <extensions>
          <ns3:TrackPointExtension>
            <ns3:atemp>20.0</ns3:atemp>
          </ns3:TrackPointExtension>
        </extensions>
      </trkpt>
      <trkpt lat="42.50673945061862468719482421875" lon="20.1650430075824260711669921875">
        <ele>2153.800048828125</ele>
        <time>2026-06-20T10:52:17.000Z</time>
        <extensions>
          <ns3:TrackPointExtension>
            <ns3:atemp>20.0</ns3:atemp>
          </ns3:TrackPointExtension>
        </extensions>
      </trkpt>
      <trkpt lat="42.50673945061862468719482421875" lon="20.1650430075824260711669921875">
        <ele>2153.800048828125</ele>
        <time>2026-06-20T10:52:18.000Z</time>
        <extensions>
          <ns3:TrackPointExtension>
            <ns3:atemp>20.0</ns3:atemp>
          </ns3:TrackPointExtension>
        </extensions>
      </trkpt>
      <trkpt lat="42.50673945061862468719482421875" lon="20.1650430075824260711669921875">
        <ele>2153.60009765625</ele>
        <time>2026-06-20T10:52:19.000Z</time>
        <extensions>
          <ns3:TrackPointExtension>
            <ns3:atemp>20.0</ns3:atemp>
          </ns3:TrackPointExtension>
        </extensions>
      </trkpt>
      <trkpt lat="42.50673945061862468719482421875" lon="20.1650430075824260711669921875">
        <ele>2153.39990234375</ele>
        <time>2026-06-20T10:52:20.000Z</time>
        <extensions>
          <ns3:TrackPointExtension>
            <ns3:atemp>20.0</ns3:atemp>
          </ns3:TrackPointExtension>
        </extensions>
      </trkpt>
      <trkpt lat="42.50673945061862468719482421875" lon="20.1650430075824260711669921875">
        <ele>2153.199951171875</ele>
        <time>2026-06-20T10:52:21.000Z</time>
        <extensions>
          <ns3:TrackPointExtension>
            <ns3:atemp>20.0</ns3:atemp>
          </ns3:TrackPointExtension>
        </extensions>
      </trkpt>
      <trkpt lat="42.50673945061862468719482421875" lon="20.1650430075824260711669921875">
        <ele>2153.199951171875</ele>
        <time>2026-06-20T10:52:22.000Z</time>
        <extensions>
          <ns3:TrackPointExtension>
            <ns3:atemp>20.0</ns3:atemp>
          </ns3:TrackPointExtension>
        </extensions>
      </trkpt>
      <trkpt lat="42.50673945061862468719482421875" lon="20.1650430075824260711669921875">
        <ele>2153.199951171875</ele>
        <time>2026-06-20T10:52:23.000Z</time>
        <extensions>
          <ns3:TrackPointExtension>
            <ns3:atemp>20.0</ns3:atemp>
          </ns3:TrackPointExtension>
        </extensions>
      </trkpt>
      <trkpt lat="42.50673945061862468719482421875" lon="20.1650430075824260711669921875">
        <ele>2153.199951171875</ele>
        <time>2026-06-20T10:52:24.000Z</time>
        <extensions>
          <ns3:TrackPointExtension>
            <ns3:atemp>20.0</ns3:atemp>
          </ns3:TrackPointExtension>
        </extensions>
      </trkpt>
      <trkpt lat="42.50673945061862468719482421875" lon="20.1650430075824260711669921875">
        <ele>2153.39990234375</ele>
        <time>2026-06-20T10:52:25.000Z</time>
        <extensions>
          <ns3:TrackPointExtension>
            <ns3:atemp>20.0</ns3:atemp>
          </ns3:TrackPointExtension>
        </extensions>
      </trkpt>
      <trkpt lat="42.50673945061862468719482421875" lon="20.1650430075824260711669921875">
        <ele>2153.60009765625</ele>
        <time>2026-06-20T10:52:26.000Z</time>
        <extensions>
          <ns3:TrackPointExtension>
            <ns3:atemp>20.0</ns3:atemp>
          </ns3:TrackPointExtension>
        </extensions>
      </trkpt>
      <trkpt lat="42.50673945061862468719482421875" lon="20.1650430075824260711669921875">
        <ele>2153.60009765625</ele>
        <time>2026-06-20T10:52:27.000Z</time>
        <extensions>
          <ns3:TrackPointExtension>
            <ns3:atemp>20.0</ns3:atemp>
          </ns3:TrackPointExtension>
        </extensions>
      </trkpt>
      <trkpt lat="42.50673945061862468719482421875" lon="20.1650430075824260711669921875">
        <ele>2153.800048828125</ele>
        <time>2026-06-20T10:52:28.000Z</time>
        <extensions>
          <ns3:TrackPointExtension>
            <ns3:atemp>20.0</ns3:atemp>
          </ns3:TrackPointExtension>
        </extensions>
      </trkpt>
      <trkpt lat="42.50673945061862468719482421875" lon="20.1650430075824260711669921875">
        <ele>2153.800048828125</ele>
        <time>2026-06-20T10:52:29.000Z</time>
        <extensions>
          <ns3:TrackPointExtension>
            <ns3:atemp>20.0</ns3:atemp>
          </ns3:TrackPointExtension>
        </extensions>
      </trkpt>
      <trkpt lat="42.50673945061862468719482421875" lon="20.1650430075824260711669921875">
        <ele>2153.800048828125</ele>
        <time>2026-06-20T10:52:30.000Z</time>
        <extensions>
          <ns3:TrackPointExtension>
            <ns3:atemp>20.0</ns3:atemp>
          </ns3:TrackPointExtension>
        </extensions>
      </trkpt>
      <trkpt lat="42.50673945061862468719482421875" lon="20.1650430075824260711669921875">
        <ele>2153.800048828125</ele>
        <time>2026-06-20T10:52:31.000Z</time>
        <extensions>
          <ns3:TrackPointExtension>
            <ns3:atemp>20.0</ns3:atemp>
          </ns3:TrackPointExtension>
        </extensions>
      </trkpt>
      <trkpt lat="42.50673945061862468719482421875" lon="20.1650430075824260711669921875">
        <ele>2153.800048828125</ele>
        <time>2026-06-20T10:52:32.000Z</time>
        <extensions>
          <ns3:TrackPointExtension>
            <ns3:atemp>20.0</ns3:atemp>
          </ns3:TrackPointExtension>
        </extensions>
      </trkpt>
      <trkpt lat="42.50673945061862468719482421875" lon="20.1650430075824260711669921875">
        <ele>2154.199951171875</ele>
        <time>2026-06-20T10:52:33.000Z</time>
        <extensions>
          <ns3:TrackPointExtension>
            <ns3:atemp>20.0</ns3:atemp>
          </ns3:TrackPointExtension>
        </extensions>
      </trkpt>
      <trkpt lat="42.50673945061862468719482421875" lon="20.1650430075824260711669921875">
        <ele>2154.39990234375</ele>
        <time>2026-06-20T10:52:34.000Z</time>
        <extensions>
          <ns3:TrackPointExtension>
            <ns3:atemp>20.0</ns3:atemp>
          </ns3:TrackPointExtension>
        </extensions>
      </trkpt>
      <trkpt lat="42.50673945061862468719482421875" lon="20.1650430075824260711669921875">
        <ele>2154.60009765625</ele>
        <time>2026-06-20T10:52:35.000Z</time>
        <extensions>
          <ns3:TrackPointExtension>
            <ns3:atemp>20.0</ns3:atemp>
          </ns3:TrackPointExtension>
        </extensions>
      </trkpt>
      <trkpt lat="42.50673945061862468719482421875" lon="20.1650430075824260711669921875">
        <ele>2154.800048828125</ele>
        <time>2026-06-20T10:52:36.000Z</time>
        <extensions>
          <ns3:TrackPointExtension>
            <ns3:atemp>20.0</ns3:atemp>
          </ns3:TrackPointExtension>
        </extensions>
      </trkpt>
      <trkpt lat="42.50673945061862468719482421875" lon="20.1650430075824260711669921875">
        <ele>2155</ele>
        <time>2026-06-20T10:52:37.000Z</time>
        <extensions>
          <ns3:TrackPointExtension>
            <ns3:atemp>20.0</ns3:atemp>
          </ns3:TrackPointExtension>
        </extensions>
      </trkpt>
      <trkpt lat="42.50673945061862468719482421875" lon="20.1650430075824260711669921875">
        <ele>2154.800048828125</ele>
        <time>2026-06-20T10:52:38.000Z</time>
        <extensions>
          <ns3:TrackPointExtension>
            <ns3:atemp>20.0</ns3:atemp>
          </ns3:TrackPointExtension>
        </extensions>
      </trkpt>
      <trkpt lat="42.50673945061862468719482421875" lon="20.1650430075824260711669921875">
        <ele>2154.60009765625</ele>
        <time>2026-06-20T10:52:39.000Z</time>
        <extensions>
          <ns3:TrackPointExtension>
            <ns3:atemp>20.0</ns3:atemp>
          </ns3:TrackPointExtension>
        </extensions>
      </trkpt>
      <trkpt lat="42.50673945061862468719482421875" lon="20.1650430075824260711669921875">
        <ele>2154.39990234375</ele>
        <time>2026-06-20T10:52:40.000Z</time>
        <extensions>
          <ns3:TrackPointExtension>
            <ns3:atemp>20.0</ns3:atemp>
          </ns3:TrackPointExtension>
        </extensions>
      </trkpt>
      <trkpt lat="42.50673945061862468719482421875" lon="20.1650430075824260711669921875">
        <ele>2154.199951171875</ele>
        <time>2026-06-20T10:52:41.000Z</time>
        <extensions>
          <ns3:TrackPointExtension>
            <ns3:atemp>20.0</ns3:atemp>
          </ns3:TrackPointExtension>
        </extensions>
      </trkpt>
      <trkpt lat="42.506739199161529541015625" lon="20.16504342667758464813232421875">
        <ele>2154</ele>
        <time>2026-06-20T10:52:42.000Z</time>
        <extensions>
          <ns3:TrackPointExtension>
            <ns3:atemp>20.0</ns3:atemp>
          </ns3:TrackPointExtension>
        </extensions>
      </trkpt>
      <trkpt lat="42.506729476153850555419921875" lon="20.16504116356372833251953125">
        <ele>2153.800048828125</ele>
        <time>2026-06-20T10:52:43.000Z</time>
        <extensions>
          <ns3:TrackPointExtension>
            <ns3:atemp>20.0</ns3:atemp>
          </ns3:TrackPointExtension>
        </extensions>
      </trkpt>
      <trkpt lat="42.5067199207842350006103515625" lon="20.165037810802459716796875">
        <ele>2153.60009765625</ele>
        <time>2026-06-20T10:52:44.000Z</time>
        <extensions>
          <ns3:TrackPointExtension>
            <ns3:atemp>20.0</ns3:atemp>
          </ns3:TrackPointExtension>
        </extensions>
      </trkpt>
      <trkpt lat="42.506710030138492584228515625" lon="20.16503538005053997039794921875">
        <ele>2153.800048828125</ele>
        <time>2026-06-20T10:52:45.000Z</time>
        <extensions>
          <ns3:TrackPointExtension>
            <ns3:atemp>20.0</ns3:atemp>
          </ns3:TrackPointExtension>
        </extensions>
      </trkpt>
      <trkpt lat="42.50670106150209903717041015625" lon="20.16503923572599887847900390625">
        <ele>2153.800048828125</ele>
        <time>2026-06-20T10:52:46.000Z</time>
        <extensions>
          <ns3:TrackPointExtension>
            <ns3:atemp>20.0</ns3:atemp>
          </ns3:TrackPointExtension>
        </extensions>
      </trkpt>
      <trkpt lat="42.5066984631121158599853515625" lon="20.16504325903952121734619140625">
        <ele>2154</ele>
        <time>2026-06-20T10:52:47.000Z</time>
        <extensions>
          <ns3:TrackPointExtension>
            <ns3:atemp>20.0</ns3:atemp>
          </ns3:TrackPointExtension>
        </extensions>
      </trkpt>
      <trkpt lat="42.50669737346470355987548828125" lon="20.165043510496616363525390625">
        <ele>2154.199951171875</ele>
        <time>2026-06-20T10:52:48.000Z</time>
        <extensions>
          <ns3:TrackPointExtension>
            <ns3:atemp>20.0</ns3:atemp>
          </ns3:TrackPointExtension>
        </extensions>
      </trkpt>
      <trkpt lat="42.5066977925598621368408203125" lon="20.1650456897914409637451171875">
        <ele>2154.199951171875</ele>
        <time>2026-06-20T10:52:49.000Z</time>
        <extensions>
          <ns3:TrackPointExtension>
            <ns3:atemp>20.0</ns3:atemp>
          </ns3:TrackPointExtension>
        </extensions>
      </trkpt>
      <trkpt lat="42.5066957809031009674072265625" lon="20.16505549661815166473388671875">
        <ele>2154.39990234375</ele>
        <time>2026-06-20T10:52:50.000Z</time>
        <extensions>
          <ns3:TrackPointExtension>
            <ns3:atemp>20.0</ns3:atemp>
          </ns3:TrackPointExtension>
        </extensions>
      </trkpt>
      <trkpt lat="42.50668748281896114349365234375" lon="20.1650678180158138275146484375">
        <ele>2154.39990234375</ele>
        <time>2026-06-20T10:52:51.000Z</time>
        <extensions>
          <ns3:TrackPointExtension>
            <ns3:atemp>20.0</ns3:atemp>
          </ns3:TrackPointExtension>
        </extensions>
      </trkpt>
      <trkpt lat="42.50667859800159931182861328125" lon="20.1650782115757465362548828125">
        <ele>2154.199951171875</ele>
        <time>2026-06-20T10:52:52.000Z</time>
        <extensions>
          <ns3:TrackPointExtension>
            <ns3:atemp>20.0</ns3:atemp>
          </ns3:TrackPointExtension>
        </extensions>
      </trkpt>
      <trkpt lat="42.50667423941195011138916015625" lon="20.165084414184093475341796875">
        <ele>2154</ele>
        <time>2026-06-20T10:52:53.000Z</time>
        <extensions>
          <ns3:TrackPointExtension>
            <ns3:atemp>20.0</ns3:atemp>
          </ns3:TrackPointExtension>
        </extensions>
      </trkpt>
      <trkpt lat="42.50667407177388668060302734375" lon="20.16507963649928569793701171875">
        <ele>2154</ele>
        <time>2026-06-20T10:52:54.000Z</time>
        <extensions>
          <ns3:TrackPointExtension>
            <ns3:atemp>20.0</ns3:atemp>
          </ns3:TrackPointExtension>
        </extensions>
      </trkpt>
      <trkpt lat="42.50667407177388668060302734375" lon="20.1650795526802539825439453125">
        <ele>2153.800048828125</ele>
        <time>2026-06-20T10:52:55.000Z</time>
        <extensions>
          <ns3:TrackPointExtension>
            <ns3:atemp>20.0</ns3:atemp>
          </ns3:TrackPointExtension>
        </extensions>
      </trkpt>
      <trkpt lat="42.50667407177388668060302734375" lon="20.1650795526802539825439453125">
        <ele>2153.800048828125</ele>
        <time>2026-06-20T10:52:56.000Z</time>
        <extensions>
          <ns3:TrackPointExtension>
            <ns3:atemp>20.0</ns3:atemp>
          </ns3:TrackPointExtension>
        </extensions>
      </trkpt>
      <trkpt lat="42.5066739879548549652099609375" lon="20.1650793850421905517578125">
        <ele>2153.800048828125</ele>
        <time>2026-06-20T10:52:57.000Z</time>
        <extensions>
          <ns3:TrackPointExtension>
            <ns3:atemp>20.0</ns3:atemp>
          </ns3:TrackPointExtension>
        </extensions>
      </trkpt>
      <trkpt lat="42.5066659413278102874755859375" lon="20.16508148051798343658447265625">
        <ele>2154</ele>
        <time>2026-06-20T10:52:58.000Z</time>
        <extensions>
          <ns3:TrackPointExtension>
            <ns3:atemp>20.0</ns3:atemp>
          </ns3:TrackPointExtension>
        </extensions>
      </trkpt>
      <trkpt lat="42.50665982253849506378173828125" lon="20.1650936342775821685791015625">
        <ele>2154.199951171875</ele>
        <time>2026-06-20T10:52:59.000Z</time>
        <extensions>
          <ns3:TrackPointExtension>
            <ns3:atemp>20.0</ns3:atemp>
          </ns3:TrackPointExtension>
        </extensions>
      </trkpt>
      <trkpt lat="42.50664825551211833953857421875" lon="20.165117271244525909423828125">
        <ele>2154.199951171875</ele>
        <time>2026-06-20T10:53:00.000Z</time>
        <extensions>
          <ns3:TrackPointExtension>
            <ns3:atemp>20.0</ns3:atemp>
          </ns3:TrackPointExtension>
        </extensions>
      </trkpt>
      <trkpt lat="42.5066347606480121612548828125" lon="20.16513981856405735015869140625">
        <ele>2154.199951171875</ele>
        <time>2026-06-20T10:53:01.000Z</time>
        <extensions>
          <ns3:TrackPointExtension>
            <ns3:atemp>20.0</ns3:atemp>
          </ns3:TrackPointExtension>
        </extensions>
      </trkpt>
      <trkpt lat="42.50661514699459075927734375" lon="20.1651603542268276214599609375">
        <ele>2153.800048828125</ele>
        <time>2026-06-20T10:53:02.000Z</time>
        <extensions>
          <ns3:TrackPointExtension>
            <ns3:atemp>20.0</ns3:atemp>
          </ns3:TrackPointExtension>
        </extensions>
      </trkpt>
      <trkpt lat="42.50659964047372341156005859375" lon="20.16517401672899723052978515625">
        <ele>2153.60009765625</ele>
        <time>2026-06-20T10:53:03.000Z</time>
        <extensions>
          <ns3:TrackPointExtension>
            <ns3:atemp>20.0</ns3:atemp>
          </ns3:TrackPointExtension>
        </extensions>
      </trkpt>
      <trkpt lat="42.50658606179058551788330078125" lon="20.1651858352124691009521484375">
        <ele>2153.39990234375</ele>
        <time>2026-06-20T10:53:04.000Z</time>
        <extensions>
          <ns3:TrackPointExtension>
            <ns3:atemp>20.0</ns3:atemp>
          </ns3:TrackPointExtension>
        </extensions>
      </trkpt>
      <trkpt lat="42.5065710581839084625244140625" lon="20.16519094817340373992919921875">
        <ele>2153.199951171875</ele>
        <time>2026-06-20T10:53:05.000Z</time>
        <extensions>
          <ns3:TrackPointExtension>
            <ns3:atemp>20.0</ns3:atemp>
          </ns3:TrackPointExtension>
        </extensions>
      </trkpt>
      <trkpt lat="42.50656024552881717681884765625" lon="20.16520083881914615631103515625">
        <ele>2153.39990234375</ele>
        <time>2026-06-20T10:53:06.000Z</time>
        <extensions>
          <ns3:TrackPointExtension>
            <ns3:atemp>20.0</ns3:atemp>
          </ns3:TrackPointExtension>
        </extensions>
      </trkpt>
      <trkpt lat="42.5065496005117893218994140625" lon="20.16521223820745944976806640625">
        <ele>2153.39990234375</ele>
        <time>2026-06-20T10:53:07.000Z</time>
        <extensions>
          <ns3:TrackPointExtension>
            <ns3:atemp>20.0</ns3:atemp>
          </ns3:TrackPointExtension>
        </extensions>
      </trkpt>
      <trkpt lat="42.5065402127802371978759765625" lon="20.16522196121513843536376953125">
        <ele>2153.60009765625</ele>
        <time>2026-06-20T10:53:08.000Z</time>
        <extensions>
          <ns3:TrackPointExtension>
            <ns3:atemp>20.0</ns3:atemp>
          </ns3:TrackPointExtension>
        </extensions>
      </trkpt>
      <trkpt lat="42.50653660856187343597412109375" lon="20.16522967256605625152587890625">
        <ele>2153.60009765625</ele>
        <time>2026-06-20T10:53:09.000Z</time>
        <extensions>
          <ns3:TrackPointExtension>
            <ns3:atemp>20.0</ns3:atemp>
          </ns3:TrackPointExtension>
        </extensions>
      </trkpt>
      <trkpt lat="42.50652872957289218902587890625" lon="20.16523956321179866790771484375">
        <ele>2153.60009765625</ele>
        <time>2026-06-20T10:53:10.000Z</time>
        <extensions>
          <ns3:TrackPointExtension>
            <ns3:atemp>20.0</ns3:atemp>
          </ns3:TrackPointExtension>
        </extensions>
      </trkpt>
      <trkpt lat="42.50651657581329345703125" lon="20.16524459235370159149169921875">
        <ele>2153.60009765625</ele>
        <time>2026-06-20T10:53:11.000Z</time>
        <extensions>
          <ns3:TrackPointExtension>
            <ns3:atemp>20.0</ns3:atemp>
          </ns3:TrackPointExtension>
        </extensions>
      </trkpt>
      <trkpt lat="42.50650643371045589447021484375" lon="20.16525163315236568450927734375">
        <ele>2153.60009765625</ele>
        <time>2026-06-20T10:53:12.000Z</time>
        <extensions>
          <ns3:TrackPointExtension>
            <ns3:atemp>20.0</ns3:atemp>
          </ns3:TrackPointExtension>
        </extensions>
      </trkpt>
      <trkpt lat="42.5064942799508571624755859375" lon="20.1652572490274906158447265625">
        <ele>2153.39990234375</ele>
        <time>2026-06-20T10:53:13.000Z</time>
        <extensions>
          <ns3:TrackPointExtension>
            <ns3:atemp>20.0</ns3:atemp>
          </ns3:TrackPointExtension>
        </extensions>
      </trkpt>
      <trkpt lat="42.506477348506450653076171875" lon="20.1652652956545352935791015625">
        <ele>2153.39990234375</ele>
        <time>2026-06-20T10:53:14.000Z</time>
        <extensions>
          <ns3:TrackPointExtension>
            <ns3:atemp>20.0</ns3:atemp>
          </ns3:TrackPointExtension>
        </extensions>
      </trkpt>
      <trkpt lat="42.5064562261104583740234375" lon="20.16527594067156314849853515625">
        <ele>2153.39990234375</ele>
        <time>2026-06-20T10:53:15.000Z</time>
        <extensions>
          <ns3:TrackPointExtension>
            <ns3:atemp>20.0</ns3:atemp>
          </ns3:TrackPointExtension>
        </extensions>
      </trkpt>
      <trkpt lat="42.5064329244196414947509765625" lon="20.16528918407857418060302734375">
        <ele>2153.199951171875</ele>
        <time>2026-06-20T10:53:16.000Z</time>
        <extensions>
          <ns3:TrackPointExtension>
            <ns3:atemp>20.0</ns3:atemp>
          </ns3:TrackPointExtension>
        </extensions>
      </trkpt>
      <trkpt lat="42.506406605243682861328125" lon="20.1653025113046169281005859375">
        <ele>2153</ele>
        <time>2026-06-20T10:53:17.000Z</time>
        <extensions>
          <ns3:TrackPointExtension>
            <ns3:atemp>20.0</ns3:atemp>
          </ns3:TrackPointExtension>
        </extensions>
      </trkpt>
      <trkpt lat="42.5063782744109630584716796875" lon="20.16531500034034252166748046875">
        <ele>2153</ele>
        <time>2026-06-20T10:53:18.000Z</time>
        <extensions>
          <ns3:TrackPointExtension>
            <ns3:atemp>20.0</ns3:atemp>
          </ns3:TrackPointExtension>
        </extensions>
      </trkpt>
      <trkpt lat="42.50635053031146526336669921875" lon="20.16532606445252895355224609375">
        <ele>2152.800048828125</ele>
        <time>2026-06-20T10:53:19.000Z</time>
        <extensions>
          <ns3:TrackPointExtension>
            <ns3:atemp>20.0</ns3:atemp>
          </ns3:TrackPointExtension>
        </extensions>
      </trkpt>
      <trkpt lat="42.50632370822131633758544921875" lon="20.16534048132598400115966796875">
        <ele>2152.60009765625</ele>
        <time>2026-06-20T10:53:20.000Z</time>
        <extensions>
          <ns3:TrackPointExtension>
            <ns3:atemp>20.0</ns3:atemp>
          </ns3:TrackPointExtension>
        </extensions>
      </trkpt>
      <trkpt lat="42.50629554502665996551513671875" lon="20.1653544791042804718017578125">
        <ele>2152.39990234375</ele>
        <time>2026-06-20T10:53:21.000Z</time>
        <extensions>
          <ns3:TrackPointExtension>
            <ns3:atemp>20.0</ns3:atemp>
          </ns3:TrackPointExtension>
        </extensions>
      </trkpt>
      <trkpt lat="42.50626654364168643951416015625" lon="20.16537199728190898895263671875">
        <ele>2152</ele>
        <time>2026-06-20T10:53:22.000Z</time>
        <extensions>
          <ns3:TrackPointExtension>
            <ns3:atemp>20.0</ns3:atemp>
          </ns3:TrackPointExtension>
        </extensions>
      </trkpt>
      <trkpt lat="42.506236620247364044189453125" lon="20.165388844907283782958984375">
        <ele>2151.800048828125</ele>
        <time>2026-06-20T10:53:23.000Z</time>
        <extensions>
          <ns3:TrackPointExtension>
            <ns3:atemp>20.0</ns3:atemp>
          </ns3:TrackPointExtension>
        </extensions>
      </trkpt>
      <trkpt lat="42.5062002427875995635986328125" lon="20.165404938161373138427734375">
        <ele>2151.39990234375</ele>
        <time>2026-06-20T10:53:24.000Z</time>
        <extensions>
          <ns3:TrackPointExtension>
            <ns3:atemp>20.0</ns3:atemp>
          </ns3:TrackPointExtension>
        </extensions>
      </trkpt>
      <trkpt lat="42.5061653740704059600830078125" lon="20.16543603502213954925537109375">
        <ele>2151.199951171875</ele>
        <time>2026-06-20T10:53:25.000Z</time>
        <extensions>
          <ns3:TrackPointExtension>
            <ns3:atemp>20.0</ns3:atemp>
          </ns3:TrackPointExtension>
        </extensions>
      </trkpt>
      <trkpt lat="42.50613796524703502655029296875" lon="20.1654862426221370697021484375">
        <ele>2151</ele>
        <time>2026-06-20T10:53:26.000Z</time>
        <extensions>
          <ns3:TrackPointExtension>
            <ns3:atemp>20.0</ns3:atemp>
          </ns3:TrackPointExtension>
        </extensions>
      </trkpt>
      <trkpt lat="42.5061048567295074462890625" lon="20.16553577966988086700439453125">
        <ele>2150.800048828125</ele>
        <time>2026-06-20T10:53:27.000Z</time>
        <extensions>
          <ns3:TrackPointExtension>
            <ns3:atemp>20.0</ns3:atemp>
          </ns3:TrackPointExtension>
        </extensions>
      </trkpt>
      <trkpt lat="42.50606135465204715728759765625" lon="20.16556981019675731658935546875">
        <ele>2150.60009765625</ele>
        <time>2026-06-20T10:53:28.000Z</time>
        <extensions>
          <ns3:TrackPointExtension>
            <ns3:atemp>20.0</ns3:atemp>
          </ns3:TrackPointExtension>
        </extensions>
      </trkpt>
      <trkpt lat="42.50601139850914478302001953125" lon="20.16560099087655544281005859375">
        <ele>2150</ele>
        <time>2026-06-20T10:53:29.000Z</time>
        <extensions>
          <ns3:TrackPointExtension>
            <ns3:atemp>20.0</ns3:atemp>
          </ns3:TrackPointExtension>
        </extensions>
      </trkpt>
      <trkpt lat="42.5059575028717517852783203125" lon="20.16563401557505130767822265625">
        <ele>2149.60009765625</ele>
        <time>2026-06-20T10:53:30.000Z</time>
        <extensions>
          <ns3:TrackPointExtension>
            <ns3:atemp>20.0</ns3:atemp>
          </ns3:TrackPointExtension>
        </extensions>
      </trkpt>
      <trkpt lat="42.50590209849178791046142578125" lon="20.1656706444919109344482421875">
        <ele>2148.800048828125</ele>
        <time>2026-06-20T10:53:31.000Z</time>
        <extensions>
          <ns3:TrackPointExtension>
            <ns3:atemp>20.0</ns3:atemp>
          </ns3:TrackPointExtension>
        </extensions>
      </trkpt>
      <trkpt lat="42.50584426335990428924560546875" lon="20.16570174135267734527587890625">
        <ele>2148.199951171875</ele>
        <time>2026-06-20T10:53:32.000Z</time>
        <extensions>
          <ns3:TrackPointExtension>
            <ns3:atemp>20.0</ns3:atemp>
          </ns3:TrackPointExtension>
        </extensions>
      </trkpt>
      <trkpt lat="42.5057858414947986602783203125" lon="20.1657299883663654327392578125">
        <ele>2147.60009765625</ele>
        <time>2026-06-20T10:53:33.000Z</time>
        <extensions>
          <ns3:TrackPointExtension>
            <ns3:atemp>20.0</ns3:atemp>
          </ns3:TrackPointExtension>
        </extensions>
      </trkpt>
      <trkpt lat="42.50572490505874156951904296875" lon="20.16575689427554607391357421875">
        <ele>2147</ele>
        <time>2026-06-20T10:53:34.000Z</time>
        <extensions>
          <ns3:TrackPointExtension>
            <ns3:atemp>20.0</ns3:atemp>
          </ns3:TrackPointExtension>
        </extensions>
      </trkpt>
      <trkpt lat="42.50565818510949611663818359375" lon="20.16577684320509433746337890625">
        <ele>2146.199951171875</ele>
        <time>2026-06-20T10:53:35.000Z</time>
        <extensions>
          <ns3:TrackPointExtension>
            <ns3:atemp>20.0</ns3:atemp>
          </ns3:TrackPointExtension>
        </extensions>
      </trkpt>
      <trkpt lat="42.50559054315090179443359375" lon="20.165784470736980438232421875">
        <ele>2145.800048828125</ele>
        <time>2026-06-20T10:53:36.000Z</time>
        <extensions>
          <ns3:TrackPointExtension>
            <ns3:atemp>20.0</ns3:atemp>
          </ns3:TrackPointExtension>
        </extensions>
      </trkpt>
      <trkpt lat="42.50552692450582981109619140625" lon="20.16579796560108661651611328125">
        <ele>2144.800048828125</ele>
        <time>2026-06-20T10:53:37.000Z</time>
        <extensions>
          <ns3:TrackPointExtension>
            <ns3:atemp>20.0</ns3:atemp>
          </ns3:TrackPointExtension>
        </extensions>
      </trkpt>
      <trkpt lat="42.50546984374523162841796875" lon="20.16581992618739604949951171875">
        <ele>2144</ele>
        <time>2026-06-20T10:53:38.000Z</time>
        <extensions>
          <ns3:TrackPointExtension>
            <ns3:atemp>20.0</ns3:atemp>
          </ns3:TrackPointExtension>
        </extensions>
      </trkpt>
      <trkpt lat="42.505415193736553192138671875" lon="20.16584658063948154449462890625">
        <ele>2143.39990234375</ele>
        <time>2026-06-20T10:53:39.000Z</time>
        <extensions>
          <ns3:TrackPointExtension>
            <ns3:atemp>20.0</ns3:atemp>
          </ns3:TrackPointExtension>
        </extensions>
      </trkpt>
      <trkpt lat="42.5053627230226993560791015625" lon="20.1658781804144382476806640625">
        <ele>2142.800048828125</ele>
        <time>2026-06-20T10:53:40.000Z</time>
        <extensions>
          <ns3:TrackPointExtension>
            <ns3:atemp>20.0</ns3:atemp>
          </ns3:TrackPointExtension>
        </extensions>
      </trkpt>
      <trkpt lat="42.50531000085175037384033203125" lon="20.1659028232097625732421875">
        <ele>2142.39990234375</ele>
        <time>2026-06-20T10:53:41.000Z</time>
        <extensions>
          <ns3:TrackPointExtension>
            <ns3:atemp>20.0</ns3:atemp>
          </ns3:TrackPointExtension>
        </extensions>
      </trkpt>
      <trkpt lat="42.5052604638040065765380859375" lon="20.16592453233897686004638671875">
        <ele>2142</ele>
        <time>2026-06-20T10:53:42.000Z</time>
        <extensions>
          <ns3:TrackPointExtension>
            <ns3:atemp>20.0</ns3:atemp>
          </ns3:TrackPointExtension>
        </extensions>
      </trkpt>
      <trkpt lat="42.505210675299167633056640625" lon="20.1659358479082584381103515625">
        <ele>2141.800048828125</ele>
        <time>2026-06-20T10:53:43.000Z</time>
        <extensions>
          <ns3:TrackPointExtension>
            <ns3:atemp>20.0</ns3:atemp>
          </ns3:TrackPointExtension>
        </extensions>
      </trkpt>
      <trkpt lat="42.50515862368047237396240234375" lon="20.16594934277236461639404296875">
        <ele>2141.60009765625</ele>
        <time>2026-06-20T10:53:44.000Z</time>
        <extensions>
          <ns3:TrackPointExtension>
            <ns3:atemp>20.0</ns3:atemp>
          </ns3:TrackPointExtension>
        </extensions>
      </trkpt>
      <trkpt lat="42.50510833226144313812255859375" lon="20.16597323119640350341796875">
        <ele>2141.39990234375</ele>
        <time>2026-06-20T10:53:45.000Z</time>
        <extensions>
          <ns3:TrackPointExtension>
            <ns3:atemp>20.0</ns3:atemp>
          </ns3:TrackPointExtension>
        </extensions>
      </trkpt>
      <trkpt lat="42.5050643272697925567626953125" lon="20.16599996946752071380615234375">
        <ele>2141.199951171875</ele>
        <time>2026-06-20T10:53:46.000Z</time>
        <extensions>
          <ns3:TrackPointExtension>
            <ns3:atemp>20.0</ns3:atemp>
          </ns3:TrackPointExtension>
        </extensions>
      </trkpt>
      <trkpt lat="42.50501931644976139068603515625" lon="20.1660183258354663848876953125">
        <ele>2141</ele>
        <time>2026-06-20T10:53:47.000Z</time>
        <extensions>
          <ns3:TrackPointExtension>
            <ns3:atemp>20.0</ns3:atemp>
          </ns3:TrackPointExtension>
        </extensions>
      </trkpt>
      <trkpt lat="42.50497371889650821685791015625" lon="20.16603584401309490203857421875">
        <ele>2140.800048828125</ele>
        <time>2026-06-20T10:53:48.000Z</time>
        <extensions>
          <ns3:TrackPointExtension>
            <ns3:atemp>20.0</ns3:atemp>
          </ns3:TrackPointExtension>
        </extensions>
      </trkpt>
      <trkpt lat="42.504923343658447265625" lon="20.16604975797235965728759765625">
        <ele>2140.39990234375</ele>
        <time>2026-06-20T10:53:49.000Z</time>
        <extensions>
          <ns3:TrackPointExtension>
            <ns3:atemp>20.0</ns3:atemp>
          </ns3:TrackPointExtension>
        </extensions>
      </trkpt>
      <trkpt lat="42.5048708729445934295654296875" lon="20.16607113182544708251953125">
        <ele>2140.199951171875</ele>
        <time>2026-06-20T10:53:50.000Z</time>
        <extensions>
          <ns3:TrackPointExtension>
            <ns3:atemp>20.0</ns3:atemp>
          </ns3:TrackPointExtension>
        </extensions>
      </trkpt>
      <trkpt lat="42.50481731258332729339599609375" lon="20.1660977862775325775146484375">
        <ele>2139.60009765625</ele>
        <time>2026-06-20T10:53:51.000Z</time>
        <extensions>
          <ns3:TrackPointExtension>
            <ns3:atemp>20.0</ns3:atemp>
          </ns3:TrackPointExtension>
        </extensions>
      </trkpt>
      <trkpt lat="42.50476199202239513397216796875" lon="20.16612343490123748779296875">
        <ele>2139.199951171875</ele>
        <time>2026-06-20T10:53:52.000Z</time>
        <extensions>
          <ns3:TrackPointExtension>
            <ns3:atemp>20.0</ns3:atemp>
          </ns3:TrackPointExtension>
        </extensions>
      </trkpt>
      <trkpt lat="42.50471387989819049835205078125" lon="20.166151262819766998291015625">
        <ele>2138.60009765625</ele>
        <time>2026-06-20T10:53:53.000Z</time>
        <extensions>
          <ns3:TrackPointExtension>
            <ns3:atemp>20.0</ns3:atemp>
          </ns3:TrackPointExtension>
        </extensions>
      </trkpt>
      <trkpt lat="42.50466794706881046295166015625" lon="20.16618110239505767822265625">
        <ele>2138.199951171875</ele>
        <time>2026-06-20T10:53:54.000Z</time>
        <extensions>
          <ns3:TrackPointExtension>
            <ns3:atemp>20.0</ns3:atemp>
          </ns3:TrackPointExtension>
        </extensions>
      </trkpt>
      <trkpt lat="42.50462385825812816619873046875" lon="20.166199207305908203125">
        <ele>2137.800048828125</ele>
        <time>2026-06-20T10:53:55.000Z</time>
        <extensions>
          <ns3:TrackPointExtension>
            <ns3:atemp>20.0</ns3:atemp>
          </ns3:TrackPointExtension>
        </extensions>
      </trkpt>
      <trkpt lat="42.50458412803709506988525390625" lon="20.16620700247585773468017578125">
        <ele>2137.60009765625</ele>
        <time>2026-06-20T10:53:56.000Z</time>
        <extensions>
          <ns3:TrackPointExtension>
            <ns3:atemp>20.0</ns3:atemp>
          </ns3:TrackPointExtension>
        </extensions>
      </trkpt>
      <trkpt lat="42.50454573892056941986083984375" lon="20.1662174798548221588134765625">
        <ele>2137.60009765625</ele>
        <time>2026-06-20T10:53:57.000Z</time>
        <extensions>
          <ns3:TrackPointExtension>
            <ns3:atemp>20.0</ns3:atemp>
          </ns3:TrackPointExtension>
        </extensions>
      </trkpt>
      <trkpt lat="42.50450483523309230804443359375" lon="20.1662327349185943603515625">
        <ele>2137.39990234375</ele>
        <time>2026-06-20T10:53:58.000Z</time>
        <extensions>
          <ns3:TrackPointExtension>
            <ns3:atemp>20.0</ns3:atemp>
          </ns3:TrackPointExtension>
        </extensions>
      </trkpt>
      <trkpt lat="42.50446158461272716522216796875" lon="20.16624706797301769256591796875">
        <ele>2137.39990234375</ele>
        <time>2026-06-20T10:53:59.000Z</time>
        <extensions>
          <ns3:TrackPointExtension>
            <ns3:atemp>20.0</ns3:atemp>
          </ns3:TrackPointExtension>
        </extensions>
      </trkpt>
      <trkpt lat="42.50441665761172771453857421875" lon="20.16626014374196529388427734375">
        <ele>2137.199951171875</ele>
        <time>2026-06-20T10:54:00.000Z</time>
        <extensions>
          <ns3:TrackPointExtension>
            <ns3:atemp>20.0</ns3:atemp>
          </ns3:TrackPointExtension>
        </extensions>
      </trkpt>
      <trkpt lat="42.5043692998588085174560546875" lon="20.16627673991024494171142578125">
        <ele>2137</ele>
        <time>2026-06-20T10:54:01.000Z</time>
        <extensions>
          <ns3:TrackPointExtension>
            <ns3:atemp>20.0</ns3:atemp>
          </ns3:TrackPointExtension>
        </extensions>
      </trkpt>
      <trkpt lat="42.504325546324253082275390625" lon="20.1662992872297763824462890625">
        <ele>2136.800048828125</ele>
        <time>2026-06-20T10:54:02.000Z</time>
        <extensions>
          <ns3:TrackPointExtension>
            <ns3:atemp>20.0</ns3:atemp>
          </ns3:TrackPointExtension>
        </extensions>
      </trkpt>
      <trkpt lat="42.5042854808270931243896484375" lon="20.166318900883197784423828125">
        <ele>2136.60009765625</ele>
        <time>2026-06-20T10:54:03.000Z</time>
        <extensions>
          <ns3:TrackPointExtension>
            <ns3:atemp>20.0</ns3:atemp>
          </ns3:TrackPointExtension>
        </extensions>
      </trkpt>
      <trkpt lat="42.5042475946247577667236328125" lon="20.16633390448987483978271484375">
        <ele>2136.39990234375</ele>
        <time>2026-06-20T10:54:04.000Z</time>
        <extensions>
          <ns3:TrackPointExtension>
            <ns3:atemp>20.0</ns3:atemp>
          </ns3:TrackPointExtension>
        </extensions>
      </trkpt>
      <trkpt lat="42.50420920550823211669921875" lon="20.1663475669920444488525390625">
        <ele>2136.39990234375</ele>
        <time>2026-06-20T10:54:05.000Z</time>
        <extensions>
          <ns3:TrackPointExtension>
            <ns3:atemp>20.0</ns3:atemp>
          </ns3:TrackPointExtension>
        </extensions>
      </trkpt>
      <trkpt lat="42.50417123548686504364013671875" lon="20.16635946929454803466796875">
        <ele>2136.39990234375</ele>
        <time>2026-06-20T10:54:06.000Z</time>
        <extensions>
          <ns3:TrackPointExtension>
            <ns3:atemp>20.0</ns3:atemp>
          </ns3:TrackPointExtension>
        </extensions>
      </trkpt>
      <trkpt lat="42.5041336007416248321533203125" lon="20.166373215615749359130859375">
        <ele>2136.39990234375</ele>
        <time>2026-06-20T10:54:07.000Z</time>
        <extensions>
          <ns3:TrackPointExtension>
            <ns3:atemp>20.0</ns3:atemp>
          </ns3:TrackPointExtension>
        </extensions>
      </trkpt>
      <trkpt lat="42.50409864820539951324462890625" lon="20.16639576293528079986572265625">
        <ele>2136.199951171875</ele>
        <time>2026-06-20T10:54:08.000Z</time>
        <extensions>
          <ns3:TrackPointExtension>
            <ns3:atemp>20.0</ns3:atemp>
          </ns3:TrackPointExtension>
        </extensions>
      </trkpt>
      <trkpt lat="42.50406495295464992523193359375" lon="20.1664285361766815185546875">
        <ele>2135.800048828125</ele>
        <time>2026-06-20T10:54:09.000Z</time>
        <extensions>
          <ns3:TrackPointExtension>
            <ns3:atemp>20.0</ns3:atemp>
          </ns3:TrackPointExtension>
        </extensions>
      </trkpt>
      <trkpt lat="42.5040209479629993438720703125" lon="20.16645426861941814422607421875">
        <ele>2135.60009765625</ele>
        <time>2026-06-20T10:54:10.000Z</time>
        <extensions>
          <ns3:TrackPointExtension>
            <ns3:atemp>20.0</ns3:atemp>
          </ns3:TrackPointExtension>
        </extensions>
      </trkpt>
      <trkpt lat="42.503970824182033538818359375" lon="20.16647748649120330810546875">
        <ele>2135</ele>
        <time>2026-06-20T10:54:11.000Z</time>
        <extensions>
          <ns3:TrackPointExtension>
            <ns3:atemp>20.0</ns3:atemp>
          </ns3:TrackPointExtension>
        </extensions>
      </trkpt>
      <trkpt lat="42.5039320997893810272216796875" lon="20.1665115170180797576904296875">
        <ele>2134.39990234375</ele>
        <time>2026-06-20T10:54:12.000Z</time>
        <extensions>
          <ns3:TrackPointExtension>
            <ns3:atemp>20.0</ns3:atemp>
          </ns3:TrackPointExtension>
        </extensions>
      </trkpt>
      <trkpt lat="42.50390334986150264739990234375" lon="20.16654646955430507659912109375">
        <ele>2133.800048828125</ele>
        <time>2026-06-20T10:54:13.000Z</time>
        <extensions>
          <ns3:TrackPointExtension>
            <ns3:atemp>20.0</ns3:atemp>
          </ns3:TrackPointExtension>
        </extensions>
      </trkpt>
      <trkpt lat="42.50388868153095245361328125" lon="20.166577398777008056640625">
        <ele>2133.199951171875</ele>
        <time>2026-06-20T10:54:14.000Z</time>
        <extensions>
          <ns3:TrackPointExtension>
            <ns3:atemp>20.0</ns3:atemp>
          </ns3:TrackPointExtension>
        </extensions>
      </trkpt>
      <trkpt lat="42.50388189218938350677490234375" lon="20.16660480760037899017333984375">
        <ele>2132.60009765625</ele>
        <time>2026-06-20T10:54:15.000Z</time>
        <extensions>
          <ns3:TrackPointExtension>
            <ns3:atemp>20.0</ns3:atemp>
          </ns3:TrackPointExtension>
        </extensions>
      </trkpt>
      <trkpt lat="42.50387451611459255218505859375" lon="20.16662760637700557708740234375">
        <ele>2132.199951171875</ele>
        <time>2026-06-20T10:54:16.000Z</time>
        <extensions>
          <ns3:TrackPointExtension>
            <ns3:atemp>20.0</ns3:atemp>
          </ns3:TrackPointExtension>
        </extensions>
      </trkpt>
      <trkpt lat="42.5038653798401355743408203125" lon="20.16664051450788974761962890625">
        <ele>2131.800048828125</ele>
        <time>2026-06-20T10:54:17.000Z</time>
        <extensions>
          <ns3:TrackPointExtension>
            <ns3:atemp>20.0</ns3:atemp>
          </ns3:TrackPointExtension>
        </extensions>
      </trkpt>
      <trkpt lat="42.5038571655750274658203125" lon="20.1666536740958690643310546875">
        <ele>2131.39990234375</ele>
        <time>2026-06-20T10:54:18.000Z</time>
        <extensions>
          <ns3:TrackPointExtension>
            <ns3:atemp>20.0</ns3:atemp>
          </ns3:TrackPointExtension>
        </extensions>
      </trkpt>
      <trkpt lat="42.50384652055799961090087890625" lon="20.16666591167449951171875">
        <ele>2131</ele>
        <time>2026-06-20T10:54:19.000Z</time>
        <extensions>
          <ns3:TrackPointExtension>
            <ns3:atemp>20.0</ns3:atemp>
          </ns3:TrackPointExtension>
        </extensions>
      </trkpt>
      <trkpt lat="42.503832690417766571044921875" lon="20.1666761375963687896728515625">
        <ele>2130.800048828125</ele>
        <time>2026-06-20T10:54:20.000Z</time>
        <extensions>
          <ns3:TrackPointExtension>
            <ns3:atemp>20.0</ns3:atemp>
          </ns3:TrackPointExtension>
        </extensions>
      </trkpt>
      <trkpt lat="42.50381316058337688446044921875" lon="20.16667555086314678192138671875">
        <ele>2130.60009765625</ele>
        <time>2026-06-20T10:54:21.000Z</time>
        <extensions>
          <ns3:TrackPointExtension>
            <ns3:atemp>20.0</ns3:atemp>
          </ns3:TrackPointExtension>
        </extensions>
      </trkpt>
      <trkpt lat="42.50380150973796844482421875" lon="20.1666714437305927276611328125">
        <ele>2130.39990234375</ele>
        <time>2026-06-20T10:54:22.000Z</time>
        <extensions>
          <ns3:TrackPointExtension>
            <ns3:atemp>20.0</ns3:atemp>
          </ns3:TrackPointExtension>
        </extensions>
      </trkpt>
      <trkpt lat="42.50380394048988819122314453125" lon="20.1666751317679882049560546875">
        <ele>2130.199951171875</ele>
        <time>2026-06-20T10:54:23.000Z</time>
        <extensions>
          <ns3:TrackPointExtension>
            <ns3:atemp>20.0</ns3:atemp>
          </ns3:TrackPointExtension>
        </extensions>
      </trkpt>
      <trkpt lat="42.50380394048988819122314453125" lon="20.1666751317679882049560546875">
        <ele>2130.199951171875</ele>
        <time>2026-06-20T10:54:24.000Z</time>
        <extensions>
          <ns3:TrackPointExtension>
            <ns3:atemp>20.0</ns3:atemp>
          </ns3:TrackPointExtension>
        </extensions>
      </trkpt>
      <trkpt lat="42.50380394048988819122314453125" lon="20.1666751317679882049560546875">
        <ele>2130.199951171875</ele>
        <time>2026-06-20T10:54:25.000Z</time>
        <extensions>
          <ns3:TrackPointExtension>
            <ns3:atemp>20.0</ns3:atemp>
          </ns3:TrackPointExtension>
        </extensions>
      </trkpt>
      <trkpt lat="42.50380394048988819122314453125" lon="20.1666751317679882049560546875">
        <ele>2130.39990234375</ele>
        <time>2026-06-20T10:54:26.000Z</time>
        <extensions>
          <ns3:TrackPointExtension>
            <ns3:atemp>20.0</ns3:atemp>
          </ns3:TrackPointExtension>
        </extensions>
      </trkpt>
      <trkpt lat="42.50380394048988819122314453125" lon="20.1666751317679882049560546875">
        <ele>2130.39990234375</ele>
        <time>2026-06-20T10:54:27.000Z</time>
        <extensions>
          <ns3:TrackPointExtension>
            <ns3:atemp>20.0</ns3:atemp>
          </ns3:TrackPointExtension>
        </extensions>
      </trkpt>
      <trkpt lat="42.50380394048988819122314453125" lon="20.1666751317679882049560546875">
        <ele>2130.39990234375</ele>
        <time>2026-06-20T10:54:28.000Z</time>
        <extensions>
          <ns3:TrackPointExtension>
            <ns3:atemp>20.0</ns3:atemp>
          </ns3:TrackPointExtension>
        </extensions>
      </trkpt>
      <trkpt lat="42.50380394048988819122314453125" lon="20.1666751317679882049560546875">
        <ele>2130.199951171875</ele>
        <time>2026-06-20T10:54:29.000Z</time>
        <extensions>
          <ns3:TrackPointExtension>
            <ns3:atemp>20.0</ns3:atemp>
          </ns3:TrackPointExtension>
        </extensions>
      </trkpt>
      <trkpt lat="42.50380394048988819122314453125" lon="20.1666751317679882049560546875">
        <ele>2130</ele>
        <time>2026-06-20T10:54:30.000Z</time>
        <extensions>
          <ns3:TrackPointExtension>
            <ns3:atemp>20.0</ns3:atemp>
          </ns3:TrackPointExtension>
        </extensions>
      </trkpt>
      <trkpt lat="42.50380394048988819122314453125" lon="20.1666751317679882049560546875">
        <ele>2129.800048828125</ele>
        <time>2026-06-20T10:54:31.000Z</time>
        <extensions>
          <ns3:TrackPointExtension>
            <ns3:atemp>20.0</ns3:atemp>
          </ns3:TrackPointExtension>
        </extensions>
      </trkpt>
      <trkpt lat="42.50380394048988819122314453125" lon="20.1666751317679882049560546875">
        <ele>2129.60009765625</ele>
        <time>2026-06-20T10:54:32.000Z</time>
        <extensions>
          <ns3:TrackPointExtension>
            <ns3:atemp>20.0</ns3:atemp>
          </ns3:TrackPointExtension>
        </extensions>
      </trkpt>
      <trkpt lat="42.50380394048988819122314453125" lon="20.1666751317679882049560546875">
        <ele>2129.60009765625</ele>
        <time>2026-06-20T10:54:33.000Z</time>
        <extensions>
          <ns3:TrackPointExtension>
            <ns3:atemp>20.0</ns3:atemp>
          </ns3:TrackPointExtension>
        </extensions>
      </trkpt>
      <trkpt lat="42.50380394048988819122314453125" lon="20.1666751317679882049560546875">
        <ele>2129.60009765625</ele>
        <time>2026-06-20T10:54:34.000Z</time>
        <extensions>
          <ns3:TrackPointExtension>
            <ns3:atemp>20.0</ns3:atemp>
          </ns3:TrackPointExtension>
        </extensions>
      </trkpt>
      <trkpt lat="42.50380394048988819122314453125" lon="20.1666751317679882049560546875">
        <ele>2129.60009765625</ele>
        <time>2026-06-20T10:54:35.000Z</time>
        <extensions>
          <ns3:TrackPointExtension>
            <ns3:atemp>20.0</ns3:atemp>
          </ns3:TrackPointExtension>
        </extensions>
      </trkpt>
      <trkpt lat="42.50380394048988819122314453125" lon="20.1666751317679882049560546875">
        <ele>2129.800048828125</ele>
        <time>2026-06-20T10:54:36.000Z</time>
        <extensions>
          <ns3:TrackPointExtension>
            <ns3:atemp>20.0</ns3:atemp>
          </ns3:TrackPointExtension>
        </extensions>
      </trkpt>
      <trkpt lat="42.50380394048988819122314453125" lon="20.1666751317679882049560546875">
        <ele>2129.800048828125</ele>
        <time>2026-06-20T10:54:37.000Z</time>
        <extensions>
          <ns3:TrackPointExtension>
            <ns3:atemp>20.0</ns3:atemp>
          </ns3:TrackPointExtension>
        </extensions>
      </trkpt>
      <trkpt lat="42.50380394048988819122314453125" lon="20.1666751317679882049560546875">
        <ele>2129.800048828125</ele>
        <time>2026-06-20T10:54:38.000Z</time>
        <extensions>
          <ns3:TrackPointExtension>
            <ns3:atemp>20.0</ns3:atemp>
          </ns3:TrackPointExtension>
        </extensions>
      </trkpt>
      <trkpt lat="42.50380477868020534515380859375" lon="20.16667789779603481292724609375">
        <ele>2129.800048828125</ele>
        <time>2026-06-20T10:54:39.000Z</time>
        <extensions>
          <ns3:TrackPointExtension>
            <ns3:atemp>20.0</ns3:atemp>
          </ns3:TrackPointExtension>
        </extensions>
      </trkpt>
      <trkpt lat="42.50378617085516452789306640625" lon="20.16671678982675075531005859375">
        <ele>2129.60009765625</ele>
        <time>2026-06-20T10:54:40.000Z</time>
        <extensions>
          <ns3:TrackPointExtension>
            <ns3:atemp>20.0</ns3:atemp>
          </ns3:TrackPointExtension>
        </extensions>
      </trkpt>
      <trkpt lat="42.50376127660274505615234375" lon="20.1667495630681514739990234375">
        <ele>2129.39990234375</ele>
        <time>2026-06-20T10:54:41.000Z</time>
        <extensions>
          <ns3:TrackPointExtension>
            <ns3:atemp>20.0</ns3:atemp>
          </ns3:TrackPointExtension>
        </extensions>
      </trkpt>
      <trkpt lat="42.5037322752177715301513671875" lon="20.1667867787182331085205078125">
        <ele>2129.199951171875</ele>
        <time>2026-06-20T10:54:42.000Z</time>
        <extensions>
          <ns3:TrackPointExtension>
            <ns3:atemp>20.0</ns3:atemp>
          </ns3:TrackPointExtension>
        </extensions>
      </trkpt>
      <trkpt lat="42.50370050780475139617919921875" lon="20.16682508401572704315185546875">
        <ele>2129</ele>
        <time>2026-06-20T10:54:43.000Z</time>
        <extensions>
          <ns3:TrackPointExtension>
            <ns3:atemp>20.0</ns3:atemp>
          </ns3:TrackPointExtension>
        </extensions>
      </trkpt>
      <trkpt lat="42.5036675669252872467041015625" lon="20.16686950810253620147705078125">
        <ele>2128.39990234375</ele>
        <time>2026-06-20T10:54:44.000Z</time>
        <extensions>
          <ns3:TrackPointExtension>
            <ns3:atemp>20.0</ns3:atemp>
          </ns3:TrackPointExtension>
        </extensions>
      </trkpt>
      <trkpt lat="42.5036310218274593353271484375" lon="20.16691510565578937530517578125">
        <ele>2128</ele>
        <time>2026-06-20T10:54:45.000Z</time>
        <extensions>
          <ns3:TrackPointExtension>
            <ns3:atemp>20.0</ns3:atemp>
          </ns3:TrackPointExtension>
        </extensions>
      </trkpt>
      <trkpt lat="42.50359254889190196990966796875" lon="20.16696942038834095001220703125">
        <ele>2127.60009765625</ele>
        <time>2026-06-20T10:54:46.000Z</time>
        <extensions>
          <ns3:TrackPointExtension>
            <ns3:atemp>20.0</ns3:atemp>
          </ns3:TrackPointExtension>
        </extensions>
      </trkpt>
      <trkpt lat="42.503553740680217742919921875" lon="20.1670295186340808868408203125">
        <ele>2127</ele>
        <time>2026-06-20T10:54:47.000Z</time>
        <extensions>
          <ns3:TrackPointExtension>
            <ns3:atemp>20.0</ns3:atemp>
          </ns3:TrackPointExtension>
        </extensions>
      </trkpt>
      <trkpt lat="42.50351644121110439300537109375" lon="20.16709431074559688568115234375">
        <ele>2126.39990234375</ele>
        <time>2026-06-20T10:54:48.000Z</time>
        <extensions>
          <ns3:TrackPointExtension>
            <ns3:atemp>20.0</ns3:atemp>
          </ns3:TrackPointExtension>
        </extensions>
      </trkpt>
      <trkpt lat="42.50348232686519622802734375" lon="20.16716404817998409271240234375">
        <ele>2126</ele>
        <time>2026-06-20T10:54:49.000Z</time>
        <extensions>
          <ns3:TrackPointExtension>
            <ns3:atemp>20.0</ns3:atemp>
          </ns3:TrackPointExtension>
        </extensions>
      </trkpt>
      <trkpt lat="42.5034486316144466400146484375" lon="20.16723345033824443817138671875">
        <ele>2125.800048828125</ele>
        <time>2026-06-20T10:54:50.000Z</time>
        <extensions>
          <ns3:TrackPointExtension>
            <ns3:atemp>20.0</ns3:atemp>
          </ns3:TrackPointExtension>
        </extensions>
      </trkpt>
      <trkpt lat="42.503416277468204498291015625" lon="20.16729958355426788330078125">
        <ele>2125.39990234375</ele>
        <time>2026-06-20T10:54:51.000Z</time>
        <extensions>
          <ns3:TrackPointExtension>
            <ns3:atemp>20.0</ns3:atemp>
          </ns3:TrackPointExtension>
        </extensions>
      </trkpt>
      <trkpt lat="42.50338568352162837982177734375" lon="20.16736135818064212799072265625">
        <ele>2125</ele>
        <time>2026-06-20T10:54:52.000Z</time>
        <extensions>
          <ns3:TrackPointExtension>
            <ns3:atemp>20.0</ns3:atemp>
          </ns3:TrackPointExtension>
        </extensions>
      </trkpt>
      <trkpt lat="42.503357268869876861572265625" lon="20.16742154024541378021240234375">
        <ele>2124.800048828125</ele>
        <time>2026-06-20T10:54:53.000Z</time>
        <extensions>
          <ns3:TrackPointExtension>
            <ns3:atemp>20.0</ns3:atemp>
          </ns3:TrackPointExtension>
        </extensions>
      </trkpt>
      <trkpt lat="42.50333270989358425140380859375" lon="20.16747929155826568603515625">
        <ele>2124.800048828125</ele>
        <time>2026-06-20T10:54:54.000Z</time>
        <extensions>
          <ns3:TrackPointExtension>
            <ns3:atemp>20.0</ns3:atemp>
          </ns3:TrackPointExtension>
        </extensions>
      </trkpt>
      <trkpt lat="42.50331192277371883392333984375" lon="20.1675327681005001068115234375">
        <ele>2124.800048828125</ele>
        <time>2026-06-20T10:54:55.000Z</time>
        <extensions>
          <ns3:TrackPointExtension>
            <ns3:atemp>20.0</ns3:atemp>
          </ns3:TrackPointExtension>
        </extensions>
      </trkpt>
      <trkpt lat="42.5032920576632022857666015625" lon="20.167584232985973358154296875">
        <ele>2124.800048828125</ele>
        <time>2026-06-20T10:54:56.000Z</time>
        <extensions>
          <ns3:TrackPointExtension>
            <ns3:atemp>20.0</ns3:atemp>
          </ns3:TrackPointExtension>
        </extensions>
      </trkpt>
      <trkpt lat="42.5032724440097808837890625" lon="20.16763075254857540130615234375">
        <ele>2124.800048828125</ele>
        <time>2026-06-20T10:54:57.000Z</time>
        <extensions>
          <ns3:TrackPointExtension>
            <ns3:atemp>20.0</ns3:atemp>
          </ns3:TrackPointExtension>
        </extensions>
      </trkpt>
      <trkpt lat="42.50325023196637630462646484375" lon="20.16767366789281368255615234375">
        <ele>2125</ele>
        <time>2026-06-20T10:54:58.000Z</time>
        <extensions>
          <ns3:TrackPointExtension>
            <ns3:atemp>20.0</ns3:atemp>
          </ns3:TrackPointExtension>
        </extensions>
      </trkpt>
      <trkpt lat="42.5032293610274791717529296875" lon="20.16771457158029079437255859375">
        <ele>2124.800048828125</ele>
        <time>2026-06-20T10:54:59.000Z</time>
        <extensions>
          <ns3:TrackPointExtension>
            <ns3:atemp>20.0</ns3:atemp>
          </ns3:TrackPointExtension>
        </extensions>
      </trkpt>
      <trkpt lat="42.50320731662213802337646484375" lon="20.1677543856203556060791015625">
        <ele>2124.800048828125</ele>
        <time>2026-06-20T10:55:00.000Z</time>
        <extensions>
          <ns3:TrackPointExtension>
            <ns3:atemp>20.0</ns3:atemp>
          </ns3:TrackPointExtension>
        </extensions>
      </trkpt>
      <trkpt lat="42.50318233855068683624267578125" lon="20.16779503785073757171630859375">
        <ele>2124.800048828125</ele>
        <time>2026-06-20T10:55:01.000Z</time>
        <extensions>
          <ns3:TrackPointExtension>
            <ns3:atemp>20.0</ns3:atemp>
          </ns3:TrackPointExtension>
        </extensions>
      </trkpt>
      <trkpt lat="42.50315601937472820281982421875" lon="20.16783443279564380645751953125">
        <ele>2124.800048828125</ele>
        <time>2026-06-20T10:55:02.000Z</time>
        <extensions>
          <ns3:TrackPointExtension>
            <ns3:atemp>20.0</ns3:atemp>
          </ns3:TrackPointExtension>
        </extensions>
      </trkpt>
      <trkpt lat="42.5031301192939281463623046875" lon="20.16787533648312091827392578125">
        <ele>2124.60009765625</ele>
        <time>2026-06-20T10:55:03.000Z</time>
        <extensions>
          <ns3:TrackPointExtension>
            <ns3:atemp>20.0</ns3:atemp>
          </ns3:TrackPointExtension>
        </extensions>
      </trkpt>
      <trkpt lat="42.50310170464217662811279296875" lon="20.167914815247058868408203125">
        <ele>2124.60009765625</ele>
        <time>2026-06-20T10:55:04.000Z</time>
        <extensions>
          <ns3:TrackPointExtension>
            <ns3:atemp>20.0</ns3:atemp>
          </ns3:TrackPointExtension>
        </extensions>
      </trkpt>
      <trkpt lat="42.5030707754194736480712890625" lon="20.167953036725521087646484375">
        <ele>2124.60009765625</ele>
        <time>2026-06-20T10:55:05.000Z</time>
        <extensions>
          <ns3:TrackPointExtension>
            <ns3:atemp>20.0</ns3:atemp>
          </ns3:TrackPointExtension>
        </extensions>
      </trkpt>
      <trkpt lat="42.50303682871162891387939453125" lon="20.1679897494614124298095703125">
        <ele>2124.39990234375</ele>
        <time>2026-06-20T10:55:06.000Z</time>
        <extensions>
          <ns3:TrackPointExtension>
            <ns3:atemp>20.0</ns3:atemp>
          </ns3:TrackPointExtension>
        </extensions>
      </trkpt>
      <trkpt lat="42.5029993616044521331787109375" lon="20.16802771948277950286865234375">
        <ele>2124.39990234375</ele>
        <time>2026-06-20T10:55:07.000Z</time>
        <extensions>
          <ns3:TrackPointExtension>
            <ns3:atemp>20.0</ns3:atemp>
          </ns3:TrackPointExtension>
        </extensions>
      </trkpt>
      <trkpt lat="42.502958960831165313720703125" lon="20.168063342571258544921875">
        <ele>2124.199951171875</ele>
        <time>2026-06-20T10:55:08.000Z</time>
        <extensions>
          <ns3:TrackPointExtension>
            <ns3:atemp>20.0</ns3:atemp>
          </ns3:TrackPointExtension>
        </extensions>
      </trkpt>
      <trkpt lat="42.5029170513153076171875" lon="20.16810030676424503326416015625">
        <ele>2124</ele>
        <time>2026-06-20T10:55:09.000Z</time>
        <extensions>
          <ns3:TrackPointExtension>
            <ns3:atemp>20.0</ns3:atemp>
          </ns3:TrackPointExtension>
        </extensions>
      </trkpt>
      <trkpt lat="42.50287271104753017425537109375" lon="20.16814171336591243743896484375">
        <ele>2123.800048828125</ele>
        <time>2026-06-20T10:55:10.000Z</time>
        <extensions>
          <ns3:TrackPointExtension>
            <ns3:atemp>20.0</ns3:atemp>
          </ns3:TrackPointExtension>
        </extensions>
      </trkpt>
      <trkpt lat="42.50282744877040386199951171875" lon="20.16818043775856494903564453125">
        <ele>2123.60009765625</ele>
        <time>2026-06-20T10:55:11.000Z</time>
        <extensions>
          <ns3:TrackPointExtension>
            <ns3:atemp>20.0</ns3:atemp>
          </ns3:TrackPointExtension>
        </extensions>
      </trkpt>
      <trkpt lat="42.50278352759778499603271484375" lon="20.16821228899061679840087890625">
        <ele>2123.60009765625</ele>
        <time>2026-06-20T10:55:12.000Z</time>
        <extensions>
          <ns3:TrackPointExtension>
            <ns3:atemp>20.0</ns3:atemp>
          </ns3:TrackPointExtension>
        </extensions>
      </trkpt>
      <trkpt lat="42.5027422048151493072509765625" lon="20.1682428829371929168701171875">
        <ele>2123.39990234375</ele>
        <time>2026-06-20T10:55:13.000Z</time>
        <extensions>
          <ns3:TrackPointExtension>
            <ns3:atemp>20.0</ns3:atemp>
          </ns3:TrackPointExtension>
        </extensions>
      </trkpt>
      <trkpt lat="42.50270255841314792633056640625" lon="20.168274231255054473876953125">
        <ele>2123.39990234375</ele>
        <time>2026-06-20T10:55:14.000Z</time>
        <extensions>
          <ns3:TrackPointExtension>
            <ns3:atemp>20.0</ns3:atemp>
          </ns3:TrackPointExtension>
        </extensions>
      </trkpt>
      <trkpt lat="42.502662241458892822265625" lon="20.1683062501251697540283203125">
        <ele>2123.39990234375</ele>
        <time>2026-06-20T10:55:15.000Z</time>
        <extensions>
          <ns3:TrackPointExtension>
            <ns3:atemp>20.0</ns3:atemp>
          </ns3:TrackPointExtension>
        </extensions>
      </trkpt>
      <trkpt lat="42.50262460671365261077880859375" lon="20.1683355867862701416015625">
        <ele>2123.39990234375</ele>
        <time>2026-06-20T10:55:16.000Z</time>
        <extensions>
          <ns3:TrackPointExtension>
            <ns3:atemp>20.0</ns3:atemp>
          </ns3:TrackPointExtension>
        </extensions>
      </trkpt>
      <trkpt lat="42.50258638523519039154052734375" lon="20.1683585532009601593017578125">
        <ele>2123.39990234375</ele>
        <time>2026-06-20T10:55:17.000Z</time>
        <extensions>
          <ns3:TrackPointExtension>
            <ns3:atemp>20.0</ns3:atemp>
          </ns3:TrackPointExtension>
        </extensions>
      </trkpt>
      <trkpt lat="42.502548582851886749267578125" lon="20.16837783157825469970703125">
        <ele>2123.199951171875</ele>
        <time>2026-06-20T10:55:18.000Z</time>
        <extensions>
          <ns3:TrackPointExtension>
            <ns3:atemp>20.0</ns3:atemp>
          </ns3:TrackPointExtension>
        </extensions>
      </trkpt>
      <trkpt lat="42.50251295976340770721435546875" lon="20.16839384101331233978271484375">
        <ele>2123</ele>
        <time>2026-06-20T10:55:19.000Z</time>
        <extensions>
          <ns3:TrackPointExtension>
            <ns3:atemp>20.0</ns3:atemp>
          </ns3:TrackPointExtension>
        </extensions>
      </trkpt>
      <trkpt lat="42.50247775577008724212646484375" lon="20.1684148795902729034423828125">
        <ele>2122.800048828125</ele>
        <time>2026-06-20T10:55:20.000Z</time>
        <extensions>
          <ns3:TrackPointExtension>
            <ns3:atemp>20.0</ns3:atemp>
          </ns3:TrackPointExtension>
        </extensions>
      </trkpt>
      <trkpt lat="42.50243894755840301513671875" lon="20.16843172721564769744873046875">
        <ele>2122.60009765625</ele>
        <time>2026-06-20T10:55:21.000Z</time>
        <extensions>
          <ns3:TrackPointExtension>
            <ns3:atemp>20.0</ns3:atemp>
          </ns3:TrackPointExtension>
        </extensions>
      </trkpt>
      <trkpt lat="42.50239779241383075714111328125" lon="20.16844086349010467529296875">
        <ele>2122.199951171875</ele>
        <time>2026-06-20T10:55:22.000Z</time>
        <extensions>
          <ns3:TrackPointExtension>
            <ns3:atemp>20.0</ns3:atemp>
          </ns3:TrackPointExtension>
        </extensions>
      </trkpt>
      <trkpt lat="42.50235353596508502960205078125" lon="20.16844681464135646820068359375">
        <ele>2121.800048828125</ele>
        <time>2026-06-20T10:55:23.000Z</time>
        <extensions>
          <ns3:TrackPointExtension>
            <ns3:atemp>20.0</ns3:atemp>
          </ns3:TrackPointExtension>
        </extensions>
      </trkpt>
      <trkpt lat="42.5023060105741024017333984375" lon="20.16845234669744968414306640625">
        <ele>2121.60009765625</ele>
        <time>2026-06-20T10:55:24.000Z</time>
        <extensions>
          <ns3:TrackPointExtension>
            <ns3:atemp>20.0</ns3:atemp>
          </ns3:TrackPointExtension>
        </extensions>
      </trkpt>
      <trkpt lat="42.50225261785089969635009765625" lon="20.1684588007628917694091796875">
        <ele>2121.199951171875</ele>
        <time>2026-06-20T10:55:25.000Z</time>
        <extensions>
          <ns3:TrackPointExtension>
            <ns3:atemp>20.0</ns3:atemp>
          </ns3:TrackPointExtension>
        </extensions>
      </trkpt>
      <trkpt lat="42.5022007338702678680419921875" lon="20.1684728823602199554443359375">
        <ele>2120.60009765625</ele>
        <time>2026-06-20T10:55:26.000Z</time>
        <extensions>
          <ns3:TrackPointExtension>
            <ns3:atemp>20.0</ns3:atemp>
          </ns3:TrackPointExtension>
        </extensions>
      </trkpt>
      <trkpt lat="42.50215387903153896331787109375" lon="20.1684976927936077117919921875">
        <ele>2120.199951171875</ele>
        <time>2026-06-20T10:55:27.000Z</time>
        <extensions>
          <ns3:TrackPointExtension>
            <ns3:atemp>20.0</ns3:atemp>
          </ns3:TrackPointExtension>
        </extensions>
      </trkpt>
      <trkpt lat="42.50210367143154144287109375" lon="20.1685194857418537139892578125">
        <ele>2119.60009765625</ele>
        <time>2026-06-20T10:55:28.000Z</time>
        <extensions>
          <ns3:TrackPointExtension>
            <ns3:atemp>20.0</ns3:atemp>
          </ns3:TrackPointExtension>
        </extensions>
      </trkpt>
      <trkpt lat="42.50205539166927337646484375" lon="20.16853314824402332305908203125">
        <ele>2119.199951171875</ele>
        <time>2026-06-20T10:55:29.000Z</time>
        <extensions>
          <ns3:TrackPointExtension>
            <ns3:atemp>20.0</ns3:atemp>
          </ns3:TrackPointExtension>
        </extensions>
      </trkpt>
      <trkpt lat="42.50200903974473476409912109375" lon="20.1685419492423534393310546875">
        <ele>2119</ele>
        <time>2026-06-20T10:55:30.000Z</time>
        <extensions>
          <ns3:TrackPointExtension>
            <ns3:atemp>20.0</ns3:atemp>
          </ns3:TrackPointExtension>
        </extensions>
      </trkpt>
      <trkpt lat="42.50196461565792560577392578125" lon="20.1685503311455249786376953125">
        <ele>2118.60009765625</ele>
        <time>2026-06-20T10:55:31.000Z</time>
        <extensions>
          <ns3:TrackPointExtension>
            <ns3:atemp>20.0</ns3:atemp>
          </ns3:TrackPointExtension>
        </extensions>
      </trkpt>
      <trkpt lat="42.50192890875041484832763671875" lon="20.16855829395353794097900390625">
        <ele>2118.39990234375</ele>
        <time>2026-06-20T10:55:32.000Z</time>
        <extensions>
          <ns3:TrackPointExtension>
            <ns3:atemp>20.0</ns3:atemp>
          </ns3:TrackPointExtension>
        </extensions>
      </trkpt>
      <trkpt lat="42.5018991529941558837890625" lon="20.16856851987540721893310546875">
        <ele>2118.39990234375</ele>
        <time>2026-06-20T10:55:33.000Z</time>
        <extensions>
          <ns3:TrackPointExtension>
            <ns3:atemp>20.0</ns3:atemp>
          </ns3:TrackPointExtension>
        </extensions>
      </trkpt>
      <trkpt lat="42.5018748454749584197998046875" lon="20.16857229173183441162109375">
        <ele>2118.199951171875</ele>
        <time>2026-06-20T10:55:34.000Z</time>
        <extensions>
          <ns3:TrackPointExtension>
            <ns3:atemp>20.0</ns3:atemp>
          </ns3:TrackPointExtension>
        </extensions>
      </trkpt>
      <trkpt lat="42.50185363925993442535400390625" lon="20.1685731299221515655517578125">
        <ele>2118.199951171875</ele>
        <time>2026-06-20T10:55:35.000Z</time>
        <extensions>
          <ns3:TrackPointExtension>
            <ns3:atemp>20.0</ns3:atemp>
          </ns3:TrackPointExtension>
        </extensions>
      </trkpt>
      <trkpt lat="42.50183519907295703887939453125" lon="20.168570615351200103759765625">
        <ele>2118.199951171875</ele>
        <time>2026-06-20T10:55:36.000Z</time>
        <extensions>
          <ns3:TrackPointExtension>
            <ns3:atemp>20.0</ns3:atemp>
          </ns3:TrackPointExtension>
        </extensions>
      </trkpt>
      <trkpt lat="42.50182061456143856048583984375" lon="20.16856835223734378814697265625">
        <ele>2118.199951171875</ele>
        <time>2026-06-20T10:55:37.000Z</time>
        <extensions>
          <ns3:TrackPointExtension>
            <ns3:atemp>20.0</ns3:atemp>
          </ns3:TrackPointExtension>
        </extensions>
      </trkpt>
      <trkpt lat="42.5018098019063472747802734375" lon="20.16856684349477291107177734375">
        <ele>2118.199951171875</ele>
        <time>2026-06-20T10:55:38.000Z</time>
        <extensions>
          <ns3:TrackPointExtension>
            <ns3:atemp>20.0</ns3:atemp>
          </ns3:TrackPointExtension>
        </extensions>
      </trkpt>
      <trkpt lat="42.5018030963838100433349609375" lon="20.168569274246692657470703125">
        <ele>2118.199951171875</ele>
        <time>2026-06-20T10:55:39.000Z</time>
        <extensions>
          <ns3:TrackPointExtension>
            <ns3:atemp>20.0</ns3:atemp>
          </ns3:TrackPointExtension>
        </extensions>
      </trkpt>
      <trkpt lat="42.50179077498614788055419921875" lon="20.1685771532356739044189453125">
        <ele>2118</ele>
        <time>2026-06-20T10:55:40.000Z</time>
        <extensions>
          <ns3:TrackPointExtension>
            <ns3:atemp>20.0</ns3:atemp>
          </ns3:TrackPointExtension>
        </extensions>
      </trkpt>
      <trkpt lat="42.50177568756043910980224609375" lon="20.1685795001685619354248046875">
        <ele>2117.800048828125</ele>
        <time>2026-06-20T10:55:41.000Z</time>
        <extensions>
          <ns3:TrackPointExtension>
            <ns3:atemp>20.0</ns3:atemp>
          </ns3:TrackPointExtension>
        </extensions>
      </trkpt>
      <trkpt lat="42.5017596781253814697265625" lon="20.16858260147273540496826171875">
        <ele>2117.60009765625</ele>
        <time>2026-06-20T10:55:42.000Z</time>
        <extensions>
          <ns3:TrackPointExtension>
            <ns3:atemp>20.0</ns3:atemp>
          </ns3:TrackPointExtension>
        </extensions>
      </trkpt>
      <trkpt lat="42.50175096094608306884765625" lon="20.16858696006238460540771484375">
        <ele>2117.60009765625</ele>
        <time>2026-06-20T10:55:43.000Z</time>
        <extensions>
          <ns3:TrackPointExtension>
            <ns3:atemp>20.0</ns3:atemp>
          </ns3:TrackPointExtension>
        </extensions>
      </trkpt>
      <trkpt lat="42.50174065120518207550048828125" lon="20.168588049709796905517578125">
        <ele>2117.39990234375</ele>
        <time>2026-06-20T10:55:44.000Z</time>
        <extensions>
          <ns3:TrackPointExtension>
            <ns3:atemp>20.0</ns3:atemp>
          </ns3:TrackPointExtension>
        </extensions>
      </trkpt>
      <trkpt lat="42.5017290003597736358642578125" lon="20.16858612187206745147705078125">
        <ele>2117.39990234375</ele>
        <time>2026-06-20T10:55:45.000Z</time>
        <extensions>
          <ns3:TrackPointExtension>
            <ns3:atemp>20.0</ns3:atemp>
          </ns3:TrackPointExtension>
        </extensions>
      </trkpt>
      <trkpt lat="42.50171533785760402679443359375" lon="20.16858913935720920562744140625">
        <ele>2117.39990234375</ele>
        <time>2026-06-20T10:55:46.000Z</time>
        <extensions>
          <ns3:TrackPointExtension>
            <ns3:atemp>20.0</ns3:atemp>
          </ns3:TrackPointExtension>
        </extensions>
      </trkpt>
      <trkpt lat="42.50169890932738780975341796875" lon="20.1685908995568752288818359375">
        <ele>2117.39990234375</ele>
        <time>2026-06-20T10:55:47.000Z</time>
        <extensions>
          <ns3:TrackPointExtension>
            <ns3:atemp>20.0</ns3:atemp>
          </ns3:TrackPointExtension>
        </extensions>
      </trkpt>
      <trkpt lat="42.5016807205975055694580078125" lon="20.1685959286987781524658203125">
        <ele>2117.39990234375</ele>
        <time>2026-06-20T10:55:48.000Z</time>
        <extensions>
          <ns3:TrackPointExtension>
            <ns3:atemp>20.0</ns3:atemp>
          </ns3:TrackPointExtension>
        </extensions>
      </trkpt>
      <trkpt lat="42.50166085548698902130126953125" lon="20.16860489733517169952392578125">
        <ele>2117.39990234375</ele>
        <time>2026-06-20T10:55:49.000Z</time>
        <extensions>
          <ns3:TrackPointExtension>
            <ns3:atemp>20.0</ns3:atemp>
          </ns3:TrackPointExtension>
        </extensions>
      </trkpt>
      <trkpt lat="42.50165113247931003570556640625" lon="20.16860875301063060760498046875">
        <ele>2117.60009765625</ele>
        <time>2026-06-20T10:55:50.000Z</time>
        <extensions>
          <ns3:TrackPointExtension>
            <ns3:atemp>20.0</ns3:atemp>
          </ns3:TrackPointExtension>
        </extensions>
      </trkpt>
      <trkpt lat="42.5016461871564388275146484375" lon="20.16860506497323513031005859375">
        <ele>2117.800048828125</ele>
        <time>2026-06-20T10:55:51.000Z</time>
        <extensions>
          <ns3:TrackPointExtension>
            <ns3:atemp>20.0</ns3:atemp>
          </ns3:TrackPointExtension>
        </extensions>
      </trkpt>
      <trkpt lat="42.501646019518375396728515625" lon="20.16860506497323513031005859375">
        <ele>2118</ele>
        <time>2026-06-20T10:55:52.000Z</time>
        <extensions>
          <ns3:TrackPointExtension>
            <ns3:atemp>20.0</ns3:atemp>
          </ns3:TrackPointExtension>
        </extensions>
      </trkpt>
      <trkpt lat="42.501646019518375396728515625" lon="20.16860506497323513031005859375">
        <ele>2118.199951171875</ele>
        <time>2026-06-20T10:55:53.000Z</time>
        <extensions>
          <ns3:TrackPointExtension>
            <ns3:atemp>20.0</ns3:atemp>
          </ns3:TrackPointExtension>
        </extensions>
      </trkpt>
      <trkpt lat="42.50164568424224853515625" lon="20.168605148792266845703125">
        <ele>2118.39990234375</ele>
        <time>2026-06-20T10:55:54.000Z</time>
        <extensions>
          <ns3:TrackPointExtension>
            <ns3:atemp>20.0</ns3:atemp>
          </ns3:TrackPointExtension>
        </extensions>
      </trkpt>
      <trkpt lat="42.50163587741553783416748046875" lon="20.16860925592482089996337890625">
        <ele>2118.60009765625</ele>
        <time>2026-06-20T10:55:55.000Z</time>
        <extensions>
          <ns3:TrackPointExtension>
            <ns3:atemp>20.0</ns3:atemp>
          </ns3:TrackPointExtension>
        </extensions>
      </trkpt>
      <trkpt lat="42.501646019518375396728515625" lon="20.16860506497323513031005859375">
        <ele>2118.60009765625</ele>
        <time>2026-06-20T10:55:56.000Z</time>
        <extensions>
          <ns3:TrackPointExtension>
            <ns3:atemp>20.0</ns3:atemp>
          </ns3:TrackPointExtension>
        </extensions>
      </trkpt>
      <trkpt lat="42.501646019518375396728515625" lon="20.16860506497323513031005859375">
        <ele>2118.800048828125</ele>
        <time>2026-06-20T10:55:57.000Z</time>
        <extensions>
          <ns3:TrackPointExtension>
            <ns3:atemp>20.0</ns3:atemp>
          </ns3:TrackPointExtension>
        </extensions>
      </trkpt>
      <trkpt lat="42.50163420103490352630615234375" lon="20.16860992647707462310791015625">
        <ele>2118.60009765625</ele>
        <time>2026-06-20T10:55:58.000Z</time>
        <extensions>
          <ns3:TrackPointExtension>
            <ns3:atemp>20.0</ns3:atemp>
          </ns3:TrackPointExtension>
        </extensions>
      </trkpt>
      <trkpt lat="42.5016309320926666259765625" lon="20.16860556788742542266845703125">
        <ele>2118.60009765625</ele>
        <time>2026-06-20T10:55:59.000Z</time>
        <extensions>
          <ns3:TrackPointExtension>
            <ns3:atemp>20.0</ns3:atemp>
          </ns3:TrackPointExtension>
        </extensions>
      </trkpt>
      <trkpt lat="42.50162548385560512542724609375" lon="20.16860523261129856109619140625">
        <ele>2118.800048828125</ele>
        <time>2026-06-20T10:56:00.000Z</time>
        <extensions>
          <ns3:TrackPointExtension>
            <ns3:atemp>20.0</ns3:atemp>
          </ns3:TrackPointExtension>
        </extensions>
      </trkpt>
      <trkpt lat="42.501616179943084716796875" lon="20.16860757954418659210205078125">
        <ele>2118.800048828125</ele>
        <time>2026-06-20T10:56:01.000Z</time>
        <extensions>
          <ns3:TrackPointExtension>
            <ns3:atemp>20.0</ns3:atemp>
          </ns3:TrackPointExtension>
        </extensions>
      </trkpt>
      <trkpt lat="42.501608468592166900634765625" lon="20.1686103455722332000732421875">
        <ele>2118.800048828125</ele>
        <time>2026-06-20T10:56:02.000Z</time>
        <extensions>
          <ns3:TrackPointExtension>
            <ns3:atemp>20.0</ns3:atemp>
          </ns3:TrackPointExtension>
        </extensions>
      </trkpt>
      <trkpt lat="42.50159949995577335357666015625" lon="20.16861730255186557769775390625">
        <ele>2119</ele>
        <time>2026-06-20T10:56:03.000Z</time>
        <extensions>
          <ns3:TrackPointExtension>
            <ns3:atemp>20.0</ns3:atemp>
          </ns3:TrackPointExtension>
        </extensions>
      </trkpt>
      <trkpt lat="42.5015933811664581298828125" lon="20.16861545853316783905029296875">
        <ele>2119</ele>
        <time>2026-06-20T10:56:04.000Z</time>
        <extensions>
          <ns3:TrackPointExtension>
            <ns3:atemp>20.0</ns3:atemp>
          </ns3:TrackPointExtension>
        </extensions>
      </trkpt>
      <trkpt lat="42.5015853345394134521484375" lon="20.1686193980276584625244140625">
        <ele>2119</ele>
        <time>2026-06-20T10:56:05.000Z</time>
        <extensions>
          <ns3:TrackPointExtension>
            <ns3:atemp>20.0</ns3:atemp>
          </ns3:TrackPointExtension>
        </extensions>
      </trkpt>
      <trkpt lat="42.5015741027891635894775390625" lon="20.168627612292766571044921875">
        <ele>2119.199951171875</ele>
        <time>2026-06-20T10:56:06.000Z</time>
        <extensions>
          <ns3:TrackPointExtension>
            <ns3:atemp>20.0</ns3:atemp>
          </ns3:TrackPointExtension>
        </extensions>
      </trkpt>
      <trkpt lat="42.5015652179718017578125" lon="20.16863507218658924102783203125">
        <ele>2119.199951171875</ele>
        <time>2026-06-20T10:56:07.000Z</time>
        <extensions>
          <ns3:TrackPointExtension>
            <ns3:atemp>20.0</ns3:atemp>
          </ns3:TrackPointExtension>
        </extensions>
      </trkpt>
      <trkpt lat="42.50155918300151824951171875" lon="20.16864068806171417236328125">
        <ele>2119.39990234375</ele>
        <time>2026-06-20T10:56:08.000Z</time>
        <extensions>
          <ns3:TrackPointExtension>
            <ns3:atemp>20.0</ns3:atemp>
          </ns3:TrackPointExtension>
        </extensions>
      </trkpt>
      <trkpt lat="42.50155289657413959503173828125" lon="20.16864596866071224212646484375">
        <ele>2119.60009765625</ele>
        <time>2026-06-20T10:56:09.000Z</time>
        <extensions>
          <ns3:TrackPointExtension>
            <ns3:atemp>20.0</ns3:atemp>
          </ns3:TrackPointExtension>
        </extensions>
      </trkpt>
      <trkpt lat="42.50154619105160236358642578125" lon="20.168654434382915496826171875">
        <ele>2119.800048828125</ele>
        <time>2026-06-20T10:56:10.000Z</time>
        <extensions>
          <ns3:TrackPointExtension>
            <ns3:atemp>20.0</ns3:atemp>
          </ns3:TrackPointExtension>
        </extensions>
      </trkpt>
      <trkpt lat="42.5015419162809848785400390625" lon="20.16866357065737247467041015625">
        <ele>2119.800048828125</ele>
        <time>2026-06-20T10:56:11.000Z</time>
        <extensions>
          <ns3:TrackPointExtension>
            <ns3:atemp>20.0</ns3:atemp>
          </ns3:TrackPointExtension>
        </extensions>
      </trkpt>
      <trkpt lat="42.501540072262287139892578125" lon="20.16866222955286502838134765625">
        <ele>2120</ele>
        <time>2026-06-20T10:56:12.000Z</time>
        <extensions>
          <ns3:TrackPointExtension>
            <ns3:atemp>20.0</ns3:atemp>
          </ns3:TrackPointExtension>
        </extensions>
      </trkpt>
      <trkpt lat="42.50154015608131885528564453125" lon="20.1686623133718967437744140625">
        <ele>2120</ele>
        <time>2026-06-20T10:56:13.000Z</time>
        <extensions>
          <ns3:TrackPointExtension>
            <ns3:atemp>20.0</ns3:atemp>
          </ns3:TrackPointExtension>
        </extensions>
      </trkpt>
      <trkpt lat="42.50154015608131885528564453125" lon="20.1686623133718967437744140625">
        <ele>2120</ele>
        <time>2026-06-20T10:56:14.000Z</time>
        <extensions>
          <ns3:TrackPointExtension>
            <ns3:atemp>20.0</ns3:atemp>
          </ns3:TrackPointExtension>
        </extensions>
      </trkpt>
      <trkpt lat="42.50154015608131885528564453125" lon="20.1686623133718967437744140625">
        <ele>2120</ele>
        <time>2026-06-20T10:56:15.000Z</time>
        <extensions>
          <ns3:TrackPointExtension>
            <ns3:atemp>20.0</ns3:atemp>
          </ns3:TrackPointExtension>
        </extensions>
      </trkpt>
      <trkpt lat="42.50154015608131885528564453125" lon="20.1686623133718967437744140625">
        <ele>2120</ele>
        <time>2026-06-20T10:56:16.000Z</time>
        <extensions>
          <ns3:TrackPointExtension>
            <ns3:atemp>20.0</ns3:atemp>
          </ns3:TrackPointExtension>
        </extensions>
      </trkpt>
      <trkpt lat="42.501540742814540863037109375" lon="20.16866306774318218231201171875">
        <ele>2120</ele>
        <time>2026-06-20T10:56:17.000Z</time>
        <extensions>
          <ns3:TrackPointExtension>
            <ns3:atemp>20.0</ns3:atemp>
          </ns3:TrackPointExtension>
        </extensions>
      </trkpt>
      <trkpt lat="42.50153831206262111663818359375" lon="20.1686842739582061767578125">
        <ele>2120</ele>
        <time>2026-06-20T10:56:18.000Z</time>
        <extensions>
          <ns3:TrackPointExtension>
            <ns3:atemp>20.0</ns3:atemp>
          </ns3:TrackPointExtension>
        </extensions>
      </trkpt>
      <trkpt lat="42.50153093598783016204833984375" lon="20.1686998642981052398681640625">
        <ele>2120.199951171875</ele>
        <time>2026-06-20T10:56:19.000Z</time>
        <extensions>
          <ns3:TrackPointExtension>
            <ns3:atemp>20.0</ns3:atemp>
          </ns3:TrackPointExtension>
        </extensions>
      </trkpt>
      <trkpt lat="42.501515261828899383544921875" lon="20.1687229983508586883544921875">
        <ele>2120.199951171875</ele>
        <time>2026-06-20T10:56:20.000Z</time>
        <extensions>
          <ns3:TrackPointExtension>
            <ns3:atemp>20.0</ns3:atemp>
          </ns3:TrackPointExtension>
        </extensions>
      </trkpt>
      <trkpt lat="42.50149589963257312774658203125" lon="20.16874403692781925201416015625">
        <ele>2120.199951171875</ele>
        <time>2026-06-20T10:56:21.000Z</time>
        <extensions>
          <ns3:TrackPointExtension>
            <ns3:atemp>20.0</ns3:atemp>
          </ns3:TrackPointExtension>
        </extensions>
      </trkpt>
      <trkpt lat="42.501476705074310302734375" lon="20.16876448877155780792236328125">
        <ele>2120.39990234375</ele>
        <time>2026-06-20T10:56:22.000Z</time>
        <extensions>
          <ns3:TrackPointExtension>
            <ns3:atemp>20.0</ns3:atemp>
          </ns3:TrackPointExtension>
        </extensions>
      </trkpt>
      <trkpt lat="42.50145516358315944671630859375" lon="20.16878209076821804046630859375">
        <ele>2120.39990234375</ele>
        <time>2026-06-20T10:56:23.000Z</time>
        <extensions>
          <ns3:TrackPointExtension>
            <ns3:atemp>20.0</ns3:atemp>
          </ns3:TrackPointExtension>
        </extensions>
      </trkpt>
      <trkpt lat="42.501434795558452606201171875" lon="20.16879885457456111907958984375">
        <ele>2120.60009765625</ele>
        <time>2026-06-20T10:56:24.000Z</time>
        <extensions>
          <ns3:TrackPointExtension>
            <ns3:atemp>20.0</ns3:atemp>
          </ns3:TrackPointExtension>
        </extensions>
      </trkpt>
      <trkpt lat="42.5014150142669677734375" lon="20.16881260089576244354248046875">
        <ele>2120.800048828125</ele>
        <time>2026-06-20T10:56:25.000Z</time>
        <extensions>
          <ns3:TrackPointExtension>
            <ns3:atemp>20.0</ns3:atemp>
          </ns3:TrackPointExtension>
        </extensions>
      </trkpt>
      <trkpt lat="42.50139364041388034820556640625" lon="20.16881679184734821319580078125">
        <ele>2121</ele>
        <time>2026-06-20T10:56:26.000Z</time>
        <extensions>
          <ns3:TrackPointExtension>
            <ns3:atemp>20.0</ns3:atemp>
          </ns3:TrackPointExtension>
        </extensions>
      </trkpt>
      <trkpt lat="42.50137620605528354644775390625" lon="20.16881964169442653656005859375">
        <ele>2121.199951171875</ele>
        <time>2026-06-20T10:56:27.000Z</time>
        <extensions>
          <ns3:TrackPointExtension>
            <ns3:atemp>20.0</ns3:atemp>
          </ns3:TrackPointExtension>
        </extensions>
      </trkpt>
      <trkpt lat="42.501359023153781890869140625" lon="20.1688317954540252685546875">
        <ele>2121.39990234375</ele>
        <time>2026-06-20T10:56:28.000Z</time>
        <extensions>
          <ns3:TrackPointExtension>
            <ns3:atemp>20.0</ns3:atemp>
          </ns3:TrackPointExtension>
        </extensions>
      </trkpt>
      <trkpt lat="42.50133714638650417327880859375" lon="20.168844871222972869873046875">
        <ele>2121.60009765625</ele>
        <time>2026-06-20T10:56:29.000Z</time>
        <extensions>
          <ns3:TrackPointExtension>
            <ns3:atemp>20.0</ns3:atemp>
          </ns3:TrackPointExtension>
        </extensions>
      </trkpt>
      <trkpt lat="42.50131786800920963287353515625" lon="20.1688614673912525177001953125">
        <ele>2121.800048828125</ele>
        <time>2026-06-20T10:56:30.000Z</time>
        <extensions>
          <ns3:TrackPointExtension>
            <ns3:atemp>20.0</ns3:atemp>
          </ns3:TrackPointExtension>
        </extensions>
      </trkpt>
      <trkpt lat="42.50129993073642253875732421875" lon="20.16888267360627651214599609375">
        <ele>2121.800048828125</ele>
        <time>2026-06-20T10:56:31.000Z</time>
        <extensions>
          <ns3:TrackPointExtension>
            <ns3:atemp>20.0</ns3:atemp>
          </ns3:TrackPointExtension>
        </extensions>
      </trkpt>
      <trkpt lat="42.501283921301364898681640625" lon="20.16890488564968109130859375">
        <ele>2121.800048828125</ele>
        <time>2026-06-20T10:56:32.000Z</time>
        <extensions>
          <ns3:TrackPointExtension>
            <ns3:atemp>20.0</ns3:atemp>
          </ns3:TrackPointExtension>
        </extensions>
      </trkpt>
      <trkpt lat="42.50126908533275127410888671875" lon="20.16892793588340282440185546875">
        <ele>2122</ele>
        <time>2026-06-20T10:56:33.000Z</time>
        <extensions>
          <ns3:TrackPointExtension>
            <ns3:atemp>20.0</ns3:atemp>
          </ns3:TrackPointExtension>
        </extensions>
      </trkpt>
      <trkpt lat="42.50125416554510593414306640625" lon="20.16895257867872714996337890625">
        <ele>2122</ele>
        <time>2026-06-20T10:56:34.000Z</time>
        <extensions>
          <ns3:TrackPointExtension>
            <ns3:atemp>20.0</ns3:atemp>
          </ns3:TrackPointExtension>
        </extensions>
      </trkpt>
      <trkpt lat="42.50123941339552402496337890625" lon="20.16897839494049549102783203125">
        <ele>2122.199951171875</ele>
        <time>2026-06-20T10:56:35.000Z</time>
        <extensions>
          <ns3:TrackPointExtension>
            <ns3:atemp>20.0</ns3:atemp>
          </ns3:TrackPointExtension>
        </extensions>
      </trkpt>
      <trkpt lat="42.50122382305562496185302734375" lon="20.1690022833645343780517578125">
        <ele>2122.39990234375</ele>
        <time>2026-06-20T10:56:36.000Z</time>
        <extensions>
          <ns3:TrackPointExtension>
            <ns3:atemp>20.0</ns3:atemp>
          </ns3:TrackPointExtension>
        </extensions>
      </trkpt>
      <trkpt lat="42.5012073107063770294189453125" lon="20.169026590883731842041015625">
        <ele>2122.60009765625</ele>
        <time>2026-06-20T10:56:37.000Z</time>
        <extensions>
          <ns3:TrackPointExtension>
            <ns3:atemp>20.0</ns3:atemp>
          </ns3:TrackPointExtension>
        </extensions>
      </trkpt>
      <trkpt lat="42.50118878670036792755126953125" lon="20.16904796473681926727294921875">
        <ele>2122.800048828125</ele>
        <time>2026-06-20T10:56:38.000Z</time>
        <extensions>
          <ns3:TrackPointExtension>
            <ns3:atemp>20.0</ns3:atemp>
          </ns3:TrackPointExtension>
        </extensions>
      </trkpt>
      <trkpt lat="42.50116892158985137939453125" lon="20.16906850039958953857421875">
        <ele>2123</ele>
        <time>2026-06-20T10:56:39.000Z</time>
        <extensions>
          <ns3:TrackPointExtension>
            <ns3:atemp>20.0</ns3:atemp>
          </ns3:TrackPointExtension>
        </extensions>
      </trkpt>
      <trkpt lat="42.50114453025162220001220703125" lon="20.16908417455852031707763671875">
        <ele>2123.199951171875</ele>
        <time>2026-06-20T10:56:40.000Z</time>
        <extensions>
          <ns3:TrackPointExtension>
            <ns3:atemp>20.0</ns3:atemp>
          </ns3:TrackPointExtension>
        </extensions>
      </trkpt>
      <trkpt lat="42.50111955218017101287841796875" lon="20.16909523867070674896240234375">
        <ele>2123.39990234375</ele>
        <time>2026-06-20T10:56:41.000Z</time>
        <extensions>
          <ns3:TrackPointExtension>
            <ns3:atemp>20.0</ns3:atemp>
          </ns3:TrackPointExtension>
        </extensions>
      </trkpt>
      <trkpt lat="42.501093484461307525634765625" lon="20.16910512931644916534423828125">
        <ele>2123.60009765625</ele>
        <time>2026-06-20T10:56:42.000Z</time>
        <extensions>
          <ns3:TrackPointExtension>
            <ns3:atemp>20.0</ns3:atemp>
          </ns3:TrackPointExtension>
        </extensions>
      </trkpt>
      <trkpt lat="42.5010703504085540771484375" lon="20.1691203005611896514892578125">
        <ele>2123.800048828125</ele>
        <time>2026-06-20T10:56:43.000Z</time>
        <extensions>
          <ns3:TrackPointExtension>
            <ns3:atemp>20.0</ns3:atemp>
          </ns3:TrackPointExtension>
        </extensions>
      </trkpt>
      <trkpt lat="42.5010460428893566131591796875" lon="20.16913647763431072235107421875">
        <ele>2124</ele>
        <time>2026-06-20T10:56:44.000Z</time>
        <extensions>
          <ns3:TrackPointExtension>
            <ns3:atemp>20.0</ns3:atemp>
          </ns3:TrackPointExtension>
        </extensions>
      </trkpt>
      <trkpt lat="42.50102383084595203399658203125" lon="20.1691491343080997467041015625">
        <ele>2124.199951171875</ele>
        <time>2026-06-20T10:56:45.000Z</time>
        <extensions>
          <ns3:TrackPointExtension>
            <ns3:atemp>20.0</ns3:atemp>
          </ns3:TrackPointExtension>
        </extensions>
      </trkpt>
      <trkpt lat="42.50099902041256427764892578125" lon="20.1691585220396518707275390625">
        <ele>2124.39990234375</ele>
        <time>2026-06-20T10:56:46.000Z</time>
        <extensions>
          <ns3:TrackPointExtension>
            <ns3:atemp>20.0</ns3:atemp>
          </ns3:TrackPointExtension>
        </extensions>
      </trkpt>
      <trkpt lat="42.500976137816905975341796875" lon="20.16916573047637939453125">
        <ele>2124.60009765625</ele>
        <time>2026-06-20T10:56:47.000Z</time>
        <extensions>
          <ns3:TrackPointExtension>
            <ns3:atemp>20.0</ns3:atemp>
          </ns3:TrackPointExtension>
        </extensions>
      </trkpt>
      <trkpt lat="42.50095275230705738067626953125" lon="20.169172100722789764404296875">
        <ele>2124.60009765625</ele>
        <time>2026-06-20T10:56:48.000Z</time>
        <extensions>
          <ns3:TrackPointExtension>
            <ns3:atemp>20.0</ns3:atemp>
          </ns3:TrackPointExtension>
        </extensions>
      </trkpt>
      <trkpt lat="42.500928528606891632080078125" lon="20.16917712986469268798828125">
        <ele>2124.800048828125</ele>
        <time>2026-06-20T10:56:49.000Z</time>
        <extensions>
          <ns3:TrackPointExtension>
            <ns3:atemp>20.0</ns3:atemp>
          </ns3:TrackPointExtension>
        </extensions>
      </trkpt>
      <trkpt lat="42.5009082444012165069580078125" lon="20.16918358393013477325439453125">
        <ele>2125</ele>
        <time>2026-06-20T10:56:50.000Z</time>
        <extensions>
          <ns3:TrackPointExtension>
            <ns3:atemp>20.0</ns3:atemp>
          </ns3:TrackPointExtension>
        </extensions>
      </trkpt>
      <trkpt lat="42.50088402070105075836181640625" lon="20.169189535081386566162109375">
        <ele>2125.199951171875</ele>
        <time>2026-06-20T10:56:51.000Z</time>
        <extensions>
          <ns3:TrackPointExtension>
            <ns3:atemp>20.0</ns3:atemp>
          </ns3:TrackPointExtension>
        </extensions>
      </trkpt>
      <trkpt lat="42.5008602999150753021240234375" lon="20.169197581708431243896484375">
        <ele>2125.199951171875</ele>
        <time>2026-06-20T10:56:52.000Z</time>
        <extensions>
          <ns3:TrackPointExtension>
            <ns3:atemp>20.0</ns3:atemp>
          </ns3:TrackPointExtension>
        </extensions>
      </trkpt>
      <trkpt lat="42.50083657912909984588623046875" lon="20.1692021079361438751220703125">
        <ele>2125.39990234375</ele>
        <time>2026-06-20T10:56:53.000Z</time>
        <extensions>
          <ns3:TrackPointExtension>
            <ns3:atemp>20.0</ns3:atemp>
          </ns3:TrackPointExtension>
        </extensions>
      </trkpt>
      <trkpt lat="42.50081361271440982818603515625" lon="20.16920453868806362152099609375">
        <ele>2125.39990234375</ele>
        <time>2026-06-20T10:56:54.000Z</time>
        <extensions>
          <ns3:TrackPointExtension>
            <ns3:atemp>20.0</ns3:atemp>
          </ns3:TrackPointExtension>
        </extensions>
      </trkpt>
      <trkpt lat="42.50078997574746608734130859375" lon="20.16921325586736202239990234375">
        <ele>2125.60009765625</ele>
        <time>2026-06-20T10:56:55.000Z</time>
        <extensions>
          <ns3:TrackPointExtension>
            <ns3:atemp>20.0</ns3:atemp>
          </ns3:TrackPointExtension>
        </extensions>
      </trkpt>
      <trkpt lat="42.50076717697083950042724609375" lon="20.1692180335521697998046875">
        <ele>2125.60009765625</ele>
        <time>2026-06-20T10:56:56.000Z</time>
        <extensions>
          <ns3:TrackPointExtension>
            <ns3:atemp>20.0</ns3:atemp>
          </ns3:TrackPointExtension>
        </extensions>
      </trkpt>
      <trkpt lat="42.500742785632610321044921875" lon="20.169227086007595062255859375">
        <ele>2125.60009765625</ele>
        <time>2026-06-20T10:56:57.000Z</time>
        <extensions>
          <ns3:TrackPointExtension>
            <ns3:atemp>20.0</ns3:atemp>
          </ns3:TrackPointExtension>
        </extensions>
      </trkpt>
      <trkpt lat="42.50072275288403034210205078125" lon="20.1692379824817180633544921875">
        <ele>2125.800048828125</ele>
        <time>2026-06-20T10:56:58.000Z</time>
        <extensions>
          <ns3:TrackPointExtension>
            <ns3:atemp>20.0</ns3:atemp>
          </ns3:TrackPointExtension>
        </extensions>
      </trkpt>
      <trkpt lat="42.5007027201354503631591796875" lon="20.1692473702132701873779296875">
        <ele>2125.800048828125</ele>
        <time>2026-06-20T10:56:59.000Z</time>
        <extensions>
          <ns3:TrackPointExtension>
            <ns3:atemp>20.0</ns3:atemp>
          </ns3:TrackPointExtension>
        </extensions>
      </trkpt>
      <trkpt lat="42.50068503431975841522216796875" lon="20.16926002688705921173095703125">
        <ele>2126</ele>
        <time>2026-06-20T10:57:00.000Z</time>
        <extensions>
          <ns3:TrackPointExtension>
            <ns3:atemp>20.0</ns3:atemp>
          </ns3:TrackPointExtension>
        </extensions>
      </trkpt>
      <trkpt lat="42.5006675161421298980712890625" lon="20.16927503049373626708984375">
        <ele>2126</ele>
        <time>2026-06-20T10:57:01.000Z</time>
        <extensions>
          <ns3:TrackPointExtension>
            <ns3:atemp>20.0</ns3:atemp>
          </ns3:TrackPointExtension>
        </extensions>
      </trkpt>
      <trkpt lat="42.5006490759551525115966796875" lon="20.1692812331020832061767578125">
        <ele>2126.39990234375</ele>
        <time>2026-06-20T10:57:02.000Z</time>
        <extensions>
          <ns3:TrackPointExtension>
            <ns3:atemp>20.0</ns3:atemp>
          </ns3:TrackPointExtension>
        </extensions>
      </trkpt>
      <trkpt lat="42.5006276182830333709716796875" lon="20.16928819008171558380126953125">
        <ele>2126.60009765625</ele>
        <time>2026-06-20T10:57:03.000Z</time>
        <extensions>
          <ns3:TrackPointExtension>
            <ns3:atemp>20.0</ns3:atemp>
          </ns3:TrackPointExtension>
        </extensions>
      </trkpt>
      <trkpt lat="42.50060741789638996124267578125" lon="20.1693003438413143157958984375">
        <ele>2127</ele>
        <time>2026-06-20T10:57:04.000Z</time>
        <extensions>
          <ns3:TrackPointExtension>
            <ns3:atemp>20.0</ns3:atemp>
          </ns3:TrackPointExtension>
        </extensions>
      </trkpt>
      <trkpt lat="42.50058344565331935882568359375" lon="20.169312916696071624755859375">
        <ele>2127.199951171875</ele>
        <time>2026-06-20T10:57:05.000Z</time>
        <extensions>
          <ns3:TrackPointExtension>
            <ns3:atemp>20.0</ns3:atemp>
          </ns3:TrackPointExtension>
        </extensions>
      </trkpt>
      <trkpt lat="42.50055796466767787933349609375" lon="20.16932875849306583404541015625">
        <ele>2127.60009765625</ele>
        <time>2026-06-20T10:57:06.000Z</time>
        <extensions>
          <ns3:TrackPointExtension>
            <ns3:atemp>20.0</ns3:atemp>
          </ns3:TrackPointExtension>
        </extensions>
      </trkpt>
      <trkpt lat="42.50053399242460727691650390625" lon="20.1693516410887241363525390625">
        <ele>2127.60009765625</ele>
        <time>2026-06-20T10:57:07.000Z</time>
        <extensions>
          <ns3:TrackPointExtension>
            <ns3:atemp>20.0</ns3:atemp>
          </ns3:TrackPointExtension>
        </extensions>
      </trkpt>
      <trkpt lat="42.5005089305341243743896484375" lon="20.1693804748356342315673828125">
        <ele>2127.60009765625</ele>
        <time>2026-06-20T10:57:08.000Z</time>
        <extensions>
          <ns3:TrackPointExtension>
            <ns3:atemp>20.0</ns3:atemp>
          </ns3:TrackPointExtension>
        </extensions>
      </trkpt>
      <trkpt lat="42.5004824437201023101806640625" lon="20.16940511763095855712890625">
        <ele>2127.800048828125</ele>
        <time>2026-06-20T10:57:09.000Z</time>
        <extensions>
          <ns3:TrackPointExtension>
            <ns3:atemp>20.0</ns3:atemp>
          </ns3:TrackPointExtension>
        </extensions>
      </trkpt>
      <trkpt lat="42.500466518104076385498046875" lon="20.1694297604262828826904296875">
        <ele>2127.800048828125</ele>
        <time>2026-06-20T10:57:10.000Z</time>
        <extensions>
          <ns3:TrackPointExtension>
            <ns3:atemp>20.0</ns3:atemp>
          </ns3:TrackPointExtension>
        </extensions>
      </trkpt>
      <trkpt lat="42.50045218504965305328369140625" lon="20.16945297829806804656982421875">
        <ele>2128</ele>
        <time>2026-06-20T10:57:11.000Z</time>
        <extensions>
          <ns3:TrackPointExtension>
            <ns3:atemp>20.0</ns3:atemp>
          </ns3:TrackPointExtension>
        </extensions>
      </trkpt>
      <trkpt lat="42.500439025461673736572265625" lon="20.16947393305599689483642578125">
        <ele>2128.39990234375</ele>
        <time>2026-06-20T10:57:12.000Z</time>
        <extensions>
          <ns3:TrackPointExtension>
            <ns3:atemp>20.0</ns3:atemp>
          </ns3:TrackPointExtension>
        </extensions>
      </trkpt>
      <trkpt lat="42.5004294700920581817626953125" lon="20.16949555836617946624755859375">
        <ele>2128.60009765625</ele>
        <time>2026-06-20T10:57:13.000Z</time>
        <extensions>
          <ns3:TrackPointExtension>
            <ns3:atemp>20.0</ns3:atemp>
          </ns3:TrackPointExtension>
        </extensions>
      </trkpt>
      <trkpt lat="42.5004190765321254730224609375" lon="20.16951349563896656036376953125">
        <ele>2128.800048828125</ele>
        <time>2026-06-20T10:57:14.000Z</time>
        <extensions>
          <ns3:TrackPointExtension>
            <ns3:atemp>20.0</ns3:atemp>
          </ns3:TrackPointExtension>
        </extensions>
      </trkpt>
      <trkpt lat="42.50041279010474681854248046875" lon="20.16953252255916595458984375">
        <ele>2129.199951171875</ele>
        <time>2026-06-20T10:57:15.000Z</time>
        <extensions>
          <ns3:TrackPointExtension>
            <ns3:atemp>20.0</ns3:atemp>
          </ns3:TrackPointExtension>
        </extensions>
      </trkpt>
      <trkpt lat="42.50040390528738498687744140625" lon="20.16955205239355564117431640625">
        <ele>2129.39990234375</ele>
        <time>2026-06-20T10:57:16.000Z</time>
        <extensions>
          <ns3:TrackPointExtension>
            <ns3:atemp>20.0</ns3:atemp>
          </ns3:TrackPointExtension>
        </extensions>
      </trkpt>
      <trkpt lat="42.5003912486135959625244140625" lon="20.16957007348537445068359375">
        <ele>2129.800048828125</ele>
        <time>2026-06-20T10:57:17.000Z</time>
        <extensions>
          <ns3:TrackPointExtension>
            <ns3:atemp>20.0</ns3:atemp>
          </ns3:TrackPointExtension>
        </extensions>
      </trkpt>
      <trkpt lat="42.5003741495311260223388671875" lon="20.1695900224149227142333984375">
        <ele>2130</ele>
        <time>2026-06-20T10:57:18.000Z</time>
        <extensions>
          <ns3:TrackPointExtension>
            <ns3:atemp>20.0</ns3:atemp>
          </ns3:TrackPointExtension>
        </extensions>
      </trkpt>
      <trkpt lat="42.50036434270441532135009765625" lon="20.16960519365966320037841796875">
        <ele>2130.199951171875</ele>
        <time>2026-06-20T10:57:19.000Z</time>
        <extensions>
          <ns3:TrackPointExtension>
            <ns3:atemp>20.0</ns3:atemp>
          </ns3:TrackPointExtension>
        </extensions>
      </trkpt>
      <trkpt lat="42.50035461969673633575439453125" lon="20.1696161739528179168701171875">
        <ele>2130.39990234375</ele>
        <time>2026-06-20T10:57:20.000Z</time>
        <extensions>
          <ns3:TrackPointExtension>
            <ns3:atemp>20.0</ns3:atemp>
          </ns3:TrackPointExtension>
        </extensions>
      </trkpt>
      <trkpt lat="42.5003476627171039581298828125" lon="20.16962497495114803314208984375">
        <ele>2130.60009765625</ele>
        <time>2026-06-20T10:57:21.000Z</time>
        <extensions>
          <ns3:TrackPointExtension>
            <ns3:atemp>20.0</ns3:atemp>
          </ns3:TrackPointExtension>
        </extensions>
      </trkpt>
      <trkpt lat="42.500352524220943450927734375" lon="20.1696310937404632568359375">
        <ele>2130.800048828125</ele>
        <time>2026-06-20T10:57:22.000Z</time>
        <extensions>
          <ns3:TrackPointExtension>
            <ns3:atemp>20.0</ns3:atemp>
          </ns3:TrackPointExtension>
        </extensions>
      </trkpt>
      <trkpt lat="42.50035260803997516632080078125" lon="20.1696310937404632568359375">
        <ele>2130.800048828125</ele>
        <time>2026-06-20T10:57:23.000Z</time>
        <extensions>
          <ns3:TrackPointExtension>
            <ns3:atemp>20.0</ns3:atemp>
          </ns3:TrackPointExtension>
        </extensions>
      </trkpt>
      <trkpt lat="42.50035260803997516632080078125" lon="20.1696310937404632568359375">
        <ele>2131</ele>
        <time>2026-06-20T10:57:24.000Z</time>
        <extensions>
          <ns3:TrackPointExtension>
            <ns3:atemp>20.0</ns3:atemp>
          </ns3:TrackPointExtension>
        </extensions>
      </trkpt>
      <trkpt lat="42.50035260803997516632080078125" lon="20.1696310937404632568359375">
        <ele>2131</ele>
        <time>2026-06-20T10:57:25.000Z</time>
        <extensions>
          <ns3:TrackPointExtension>
            <ns3:atemp>20.0</ns3:atemp>
          </ns3:TrackPointExtension>
        </extensions>
      </trkpt>
      <trkpt lat="42.50035260803997516632080078125" lon="20.1696310937404632568359375">
        <ele>2131</ele>
        <time>2026-06-20T10:57:26.000Z</time>
        <extensions>
          <ns3:TrackPointExtension>
            <ns3:atemp>20.0</ns3:atemp>
          </ns3:TrackPointExtension>
        </extensions>
      </trkpt>
      <trkpt lat="42.50035260803997516632080078125" lon="20.1696310937404632568359375">
        <ele>2131</ele>
        <time>2026-06-20T10:57:27.000Z</time>
        <extensions>
          <ns3:TrackPointExtension>
            <ns3:atemp>20.0</ns3:atemp>
          </ns3:TrackPointExtension>
        </extensions>
      </trkpt>
      <trkpt lat="42.50035260803997516632080078125" lon="20.1696310937404632568359375">
        <ele>2131</ele>
        <time>2026-06-20T10:57:28.000Z</time>
        <extensions>
          <ns3:TrackPointExtension>
            <ns3:atemp>20.0</ns3:atemp>
          </ns3:TrackPointExtension>
        </extensions>
      </trkpt>
      <trkpt lat="42.50035260803997516632080078125" lon="20.1696310937404632568359375">
        <ele>2131</ele>
        <time>2026-06-20T10:57:29.000Z</time>
        <extensions>
          <ns3:TrackPointExtension>
            <ns3:atemp>20.0</ns3:atemp>
          </ns3:TrackPointExtension>
        </extensions>
      </trkpt>
      <trkpt lat="42.50035260803997516632080078125" lon="20.1696310937404632568359375">
        <ele>2131</ele>
        <time>2026-06-20T10:57:30.000Z</time>
        <extensions>
          <ns3:TrackPointExtension>
            <ns3:atemp>20.0</ns3:atemp>
          </ns3:TrackPointExtension>
        </extensions>
      </trkpt>
      <trkpt lat="42.50035260803997516632080078125" lon="20.1696310937404632568359375">
        <ele>2131</ele>
        <time>2026-06-20T10:57:31.000Z</time>
        <extensions>
          <ns3:TrackPointExtension>
            <ns3:atemp>20.0</ns3:atemp>
          </ns3:TrackPointExtension>
        </extensions>
      </trkpt>
      <trkpt lat="42.50035260803997516632080078125" lon="20.1696310937404632568359375">
        <ele>2131</ele>
        <time>2026-06-20T10:57:32.000Z</time>
        <extensions>
          <ns3:TrackPointExtension>
            <ns3:atemp>20.0</ns3:atemp>
          </ns3:TrackPointExtension>
        </extensions>
      </trkpt>
      <trkpt lat="42.50035260803997516632080078125" lon="20.1696310937404632568359375">
        <ele>2130.800048828125</ele>
        <time>2026-06-20T10:57:33.000Z</time>
        <extensions>
          <ns3:TrackPointExtension>
            <ns3:atemp>20.0</ns3:atemp>
          </ns3:TrackPointExtension>
        </extensions>
      </trkpt>
      <trkpt lat="42.50035260803997516632080078125" lon="20.1696310937404632568359375">
        <ele>2130.800048828125</ele>
        <time>2026-06-20T10:57:34.000Z</time>
        <extensions>
          <ns3:TrackPointExtension>
            <ns3:atemp>20.0</ns3:atemp>
          </ns3:TrackPointExtension>
        </extensions>
      </trkpt>
      <trkpt lat="42.5003553740680217742919921875" lon="20.16963218338787555694580078125">
        <ele>2130.800048828125</ele>
        <time>2026-06-20T10:57:35.000Z</time>
        <extensions>
          <ns3:TrackPointExtension>
            <ns3:atemp>20.0</ns3:atemp>
          </ns3:TrackPointExtension>
        </extensions>
      </trkpt>
      <trkpt lat="42.50035260803997516632080078125" lon="20.1696310937404632568359375">
        <ele>2131</ele>
        <time>2026-06-20T10:57:36.000Z</time>
        <extensions>
          <ns3:TrackPointExtension>
            <ns3:atemp>20.0</ns3:atemp>
          </ns3:TrackPointExtension>
        </extensions>
      </trkpt>
      <trkpt lat="42.50035260803997516632080078125" lon="20.1696310937404632568359375">
        <ele>2131</ele>
        <time>2026-06-20T10:57:37.000Z</time>
        <extensions>
          <ns3:TrackPointExtension>
            <ns3:atemp>20.0</ns3:atemp>
          </ns3:TrackPointExtension>
        </extensions>
      </trkpt>
      <trkpt lat="42.50035260803997516632080078125" lon="20.1696310937404632568359375">
        <ele>2131</ele>
        <time>2026-06-20T10:57:38.000Z</time>
        <extensions>
          <ns3:TrackPointExtension>
            <ns3:atemp>20.0</ns3:atemp>
          </ns3:TrackPointExtension>
        </extensions>
      </trkpt>
      <trkpt lat="42.50035260803997516632080078125" lon="20.1696310937404632568359375">
        <ele>2131.199951171875</ele>
        <time>2026-06-20T10:57:39.000Z</time>
        <extensions>
          <ns3:TrackPointExtension>
            <ns3:atemp>20.0</ns3:atemp>
          </ns3:TrackPointExtension>
        </extensions>
      </trkpt>
      <trkpt lat="42.50035260803997516632080078125" lon="20.1696310937404632568359375">
        <ele>2131.199951171875</ele>
        <time>2026-06-20T10:57:40.000Z</time>
        <extensions>
          <ns3:TrackPointExtension>
            <ns3:atemp>20.0</ns3:atemp>
          </ns3:TrackPointExtension>
        </extensions>
      </trkpt>
      <trkpt lat="42.50035260803997516632080078125" lon="20.1696310937404632568359375">
        <ele>2131.199951171875</ele>
        <time>2026-06-20T10:57:41.000Z</time>
        <extensions>
          <ns3:TrackPointExtension>
            <ns3:atemp>20.0</ns3:atemp>
          </ns3:TrackPointExtension>
        </extensions>
      </trkpt>
      <trkpt lat="42.50035260803997516632080078125" lon="20.1696310937404632568359375">
        <ele>2131.199951171875</ele>
        <time>2026-06-20T10:57:42.000Z</time>
        <extensions>
          <ns3:TrackPointExtension>
            <ns3:atemp>20.0</ns3:atemp>
          </ns3:TrackPointExtension>
        </extensions>
      </trkpt>
      <trkpt lat="42.50035260803997516632080078125" lon="20.1696310937404632568359375">
        <ele>2131.199951171875</ele>
        <time>2026-06-20T10:57:43.000Z</time>
        <extensions>
          <ns3:TrackPointExtension>
            <ns3:atemp>20.0</ns3:atemp>
          </ns3:TrackPointExtension>
        </extensions>
      </trkpt>
      <trkpt lat="42.50035260803997516632080078125" lon="20.1696310937404632568359375">
        <ele>2131.199951171875</ele>
        <time>2026-06-20T10:57:44.000Z</time>
        <extensions>
          <ns3:TrackPointExtension>
            <ns3:atemp>20.0</ns3:atemp>
          </ns3:TrackPointExtension>
        </extensions>
      </trkpt>
      <trkpt lat="42.50035260803997516632080078125" lon="20.1696310937404632568359375">
        <ele>2131.199951171875</ele>
        <time>2026-06-20T10:57:45.000Z</time>
        <extensions>
          <ns3:TrackPointExtension>
            <ns3:atemp>20.0</ns3:atemp>
          </ns3:TrackPointExtension>
        </extensions>
      </trkpt>
      <trkpt lat="42.50035260803997516632080078125" lon="20.1696310937404632568359375">
        <ele>2131.199951171875</ele>
        <time>2026-06-20T10:57:46.000Z</time>
        <extensions>
          <ns3:TrackPointExtension>
            <ns3:atemp>20.0</ns3:atemp>
          </ns3:TrackPointExtension>
        </extensions>
      </trkpt>
      <trkpt lat="42.50035260803997516632080078125" lon="20.1696310937404632568359375">
        <ele>2131.199951171875</ele>
        <time>2026-06-20T10:57:47.000Z</time>
        <extensions>
          <ns3:TrackPointExtension>
            <ns3:atemp>20.0</ns3:atemp>
          </ns3:TrackPointExtension>
        </extensions>
      </trkpt>
      <trkpt lat="42.50035260803997516632080078125" lon="20.1696310937404632568359375">
        <ele>2131.199951171875</ele>
        <time>2026-06-20T10:57:48.000Z</time>
        <extensions>
          <ns3:TrackPointExtension>
            <ns3:atemp>20.0</ns3:atemp>
          </ns3:TrackPointExtension>
        </extensions>
      </trkpt>
      <trkpt lat="42.50035260803997516632080078125" lon="20.1696310937404632568359375">
        <ele>2131.199951171875</ele>
        <time>2026-06-20T10:57:49.000Z</time>
        <extensions>
          <ns3:TrackPointExtension>
            <ns3:atemp>20.0</ns3:atemp>
          </ns3:TrackPointExtension>
        </extensions>
      </trkpt>
      <trkpt lat="42.50035260803997516632080078125" lon="20.1696310937404632568359375">
        <ele>2131.199951171875</ele>
        <time>2026-06-20T10:57:50.000Z</time>
        <extensions>
          <ns3:TrackPointExtension>
            <ns3:atemp>20.0</ns3:atemp>
          </ns3:TrackPointExtension>
        </extensions>
      </trkpt>
      <trkpt lat="42.50035260803997516632080078125" lon="20.1696310937404632568359375">
        <ele>2131.199951171875</ele>
        <time>2026-06-20T10:57:51.000Z</time>
        <extensions>
          <ns3:TrackPointExtension>
            <ns3:atemp>20.0</ns3:atemp>
          </ns3:TrackPointExtension>
        </extensions>
      </trkpt>
      <trkpt lat="42.50035260803997516632080078125" lon="20.1696310937404632568359375">
        <ele>2131.199951171875</ele>
        <time>2026-06-20T10:57:52.000Z</time>
        <extensions>
          <ns3:TrackPointExtension>
            <ns3:atemp>20.0</ns3:atemp>
          </ns3:TrackPointExtension>
        </extensions>
      </trkpt>
      <trkpt lat="42.50035260803997516632080078125" lon="20.1696310937404632568359375">
        <ele>2131.199951171875</ele>
        <time>2026-06-20T10:57:53.000Z</time>
        <extensions>
          <ns3:TrackPointExtension>
            <ns3:atemp>20.0</ns3:atemp>
          </ns3:TrackPointExtension>
        </extensions>
      </trkpt>
      <trkpt lat="42.50035260803997516632080078125" lon="20.1696310937404632568359375">
        <ele>2131.199951171875</ele>
        <time>2026-06-20T10:57:54.000Z</time>
        <extensions>
          <ns3:TrackPointExtension>
            <ns3:atemp>20.0</ns3:atemp>
          </ns3:TrackPointExtension>
        </extensions>
      </trkpt>
      <trkpt lat="42.50035260803997516632080078125" lon="20.1696310937404632568359375">
        <ele>2131.199951171875</ele>
        <time>2026-06-20T10:57:55.000Z</time>
        <extensions>
          <ns3:TrackPointExtension>
            <ns3:atemp>20.0</ns3:atemp>
          </ns3:TrackPointExtension>
        </extensions>
      </trkpt>
      <trkpt lat="42.50035260803997516632080078125" lon="20.1696310937404632568359375">
        <ele>2131.199951171875</ele>
        <time>2026-06-20T10:57:56.000Z</time>
        <extensions>
          <ns3:TrackPointExtension>
            <ns3:atemp>20.0</ns3:atemp>
          </ns3:TrackPointExtension>
        </extensions>
      </trkpt>
      <trkpt lat="42.50035260803997516632080078125" lon="20.1696310937404632568359375">
        <ele>2131.199951171875</ele>
        <time>2026-06-20T10:57:57.000Z</time>
        <extensions>
          <ns3:TrackPointExtension>
            <ns3:atemp>20.0</ns3:atemp>
          </ns3:TrackPointExtension>
        </extensions>
      </trkpt>
      <trkpt lat="42.50035260803997516632080078125" lon="20.1696310937404632568359375">
        <ele>2131.39990234375</ele>
        <time>2026-06-20T10:57:58.000Z</time>
        <extensions>
          <ns3:TrackPointExtension>
            <ns3:atemp>20.0</ns3:atemp>
          </ns3:TrackPointExtension>
        </extensions>
      </trkpt>
      <trkpt lat="42.50035260803997516632080078125" lon="20.1696310937404632568359375">
        <ele>2131.39990234375</ele>
        <time>2026-06-20T10:57:59.000Z</time>
        <extensions>
          <ns3:TrackPointExtension>
            <ns3:atemp>20.0</ns3:atemp>
          </ns3:TrackPointExtension>
        </extensions>
      </trkpt>
      <trkpt lat="42.50035260803997516632080078125" lon="20.1696310937404632568359375">
        <ele>2131.39990234375</ele>
        <time>2026-06-20T10:58:00.000Z</time>
        <extensions>
          <ns3:TrackPointExtension>
            <ns3:atemp>20.0</ns3:atemp>
          </ns3:TrackPointExtension>
        </extensions>
      </trkpt>
      <trkpt lat="42.50035260803997516632080078125" lon="20.1696310937404632568359375">
        <ele>2131.39990234375</ele>
        <time>2026-06-20T10:58:01.000Z</time>
        <extensions>
          <ns3:TrackPointExtension>
            <ns3:atemp>20.0</ns3:atemp>
          </ns3:TrackPointExtension>
        </extensions>
      </trkpt>
      <trkpt lat="42.50035260803997516632080078125" lon="20.1696310937404632568359375">
        <ele>2131.39990234375</ele>
        <time>2026-06-20T10:58:02.000Z</time>
        <extensions>
          <ns3:TrackPointExtension>
            <ns3:atemp>20.0</ns3:atemp>
          </ns3:TrackPointExtension>
        </extensions>
      </trkpt>
      <trkpt lat="42.50035260803997516632080078125" lon="20.1696310937404632568359375">
        <ele>2131.39990234375</ele>
        <time>2026-06-20T10:58:03.000Z</time>
        <extensions>
          <ns3:TrackPointExtension>
            <ns3:atemp>20.0</ns3:atemp>
          </ns3:TrackPointExtension>
        </extensions>
      </trkpt>
      <trkpt lat="42.50035260803997516632080078125" lon="20.1696310937404632568359375">
        <ele>2131.39990234375</ele>
        <time>2026-06-20T10:58:04.000Z</time>
        <extensions>
          <ns3:TrackPointExtension>
            <ns3:atemp>20.0</ns3:atemp>
          </ns3:TrackPointExtension>
        </extensions>
      </trkpt>
      <trkpt lat="42.50035260803997516632080078125" lon="20.1696310937404632568359375">
        <ele>2131.39990234375</ele>
        <time>2026-06-20T10:58:05.000Z</time>
        <extensions>
          <ns3:TrackPointExtension>
            <ns3:atemp>20.0</ns3:atemp>
          </ns3:TrackPointExtension>
        </extensions>
      </trkpt>
      <trkpt lat="42.50035260803997516632080078125" lon="20.1696310937404632568359375">
        <ele>2131.199951171875</ele>
        <time>2026-06-20T10:58:06.000Z</time>
        <extensions>
          <ns3:TrackPointExtension>
            <ns3:atemp>20.0</ns3:atemp>
          </ns3:TrackPointExtension>
        </extensions>
      </trkpt>
      <trkpt lat="42.50035260803997516632080078125" lon="20.1696310937404632568359375">
        <ele>2131.199951171875</ele>
        <time>2026-06-20T10:58:07.000Z</time>
        <extensions>
          <ns3:TrackPointExtension>
            <ns3:atemp>20.0</ns3:atemp>
          </ns3:TrackPointExtension>
        </extensions>
      </trkpt>
      <trkpt lat="42.50035260803997516632080078125" lon="20.1696310937404632568359375">
        <ele>2131.199951171875</ele>
        <time>2026-06-20T10:58:08.000Z</time>
        <extensions>
          <ns3:TrackPointExtension>
            <ns3:atemp>20.0</ns3:atemp>
          </ns3:TrackPointExtension>
        </extensions>
      </trkpt>
      <trkpt lat="42.50035260803997516632080078125" lon="20.1696310937404632568359375">
        <ele>2131.199951171875</ele>
        <time>2026-06-20T10:58:09.000Z</time>
        <extensions>
          <ns3:TrackPointExtension>
            <ns3:atemp>20.0</ns3:atemp>
          </ns3:TrackPointExtension>
        </extensions>
      </trkpt>
      <trkpt lat="42.50035260803997516632080078125" lon="20.1696310937404632568359375">
        <ele>2131.39990234375</ele>
        <time>2026-06-20T10:58:10.000Z</time>
        <extensions>
          <ns3:TrackPointExtension>
            <ns3:atemp>20.0</ns3:atemp>
          </ns3:TrackPointExtension>
        </extensions>
      </trkpt>
      <trkpt lat="42.50035260803997516632080078125" lon="20.1696310937404632568359375">
        <ele>2131.39990234375</ele>
        <time>2026-06-20T10:58:11.000Z</time>
        <extensions>
          <ns3:TrackPointExtension>
            <ns3:atemp>20.0</ns3:atemp>
          </ns3:TrackPointExtension>
        </extensions>
      </trkpt>
      <trkpt lat="42.50035260803997516632080078125" lon="20.1696310937404632568359375">
        <ele>2131.39990234375</ele>
        <time>2026-06-20T10:58:12.000Z</time>
        <extensions>
          <ns3:TrackPointExtension>
            <ns3:atemp>20.0</ns3:atemp>
          </ns3:TrackPointExtension>
        </extensions>
      </trkpt>
      <trkpt lat="42.50035260803997516632080078125" lon="20.1696310937404632568359375">
        <ele>2131.39990234375</ele>
        <time>2026-06-20T10:58:13.000Z</time>
        <extensions>
          <ns3:TrackPointExtension>
            <ns3:atemp>20.0</ns3:atemp>
          </ns3:TrackPointExtension>
        </extensions>
      </trkpt>
      <trkpt lat="42.50035260803997516632080078125" lon="20.1696310937404632568359375">
        <ele>2131.39990234375</ele>
        <time>2026-06-20T10:58:14.000Z</time>
        <extensions>
          <ns3:TrackPointExtension>
            <ns3:atemp>20.0</ns3:atemp>
          </ns3:TrackPointExtension>
        </extensions>
      </trkpt>
      <trkpt lat="42.50035260803997516632080078125" lon="20.1696310937404632568359375">
        <ele>2131.39990234375</ele>
        <time>2026-06-20T10:58:15.000Z</time>
        <extensions>
          <ns3:TrackPointExtension>
            <ns3:atemp>20.0</ns3:atemp>
          </ns3:TrackPointExtension>
        </extensions>
      </trkpt>
      <trkpt lat="42.50035260803997516632080078125" lon="20.1696310937404632568359375">
        <ele>2131.60009765625</ele>
        <time>2026-06-20T10:58:16.000Z</time>
        <extensions>
          <ns3:TrackPointExtension>
            <ns3:atemp>20.0</ns3:atemp>
          </ns3:TrackPointExtension>
        </extensions>
      </trkpt>
      <trkpt lat="42.50035260803997516632080078125" lon="20.1696310937404632568359375">
        <ele>2131.60009765625</ele>
        <time>2026-06-20T10:58:17.000Z</time>
        <extensions>
          <ns3:TrackPointExtension>
            <ns3:atemp>20.0</ns3:atemp>
          </ns3:TrackPointExtension>
        </extensions>
      </trkpt>
      <trkpt lat="42.50035260803997516632080078125" lon="20.1696310937404632568359375">
        <ele>2131.60009765625</ele>
        <time>2026-06-20T10:58:18.000Z</time>
        <extensions>
          <ns3:TrackPointExtension>
            <ns3:atemp>20.0</ns3:atemp>
          </ns3:TrackPointExtension>
        </extensions>
      </trkpt>
      <trkpt lat="42.50035260803997516632080078125" lon="20.1696310937404632568359375">
        <ele>2131.800048828125</ele>
        <time>2026-06-20T10:58:19.000Z</time>
        <extensions>
          <ns3:TrackPointExtension>
            <ns3:atemp>20.0</ns3:atemp>
          </ns3:TrackPointExtension>
        </extensions>
      </trkpt>
      <trkpt lat="42.50035260803997516632080078125" lon="20.1696310937404632568359375">
        <ele>2131.800048828125</ele>
        <time>2026-06-20T10:58:20.000Z</time>
        <extensions>
          <ns3:TrackPointExtension>
            <ns3:atemp>20.0</ns3:atemp>
          </ns3:TrackPointExtension>
        </extensions>
      </trkpt>
      <trkpt lat="42.50035260803997516632080078125" lon="20.1696310937404632568359375">
        <ele>2131.800048828125</ele>
        <time>2026-06-20T10:58:21.000Z</time>
        <extensions>
          <ns3:TrackPointExtension>
            <ns3:atemp>20.0</ns3:atemp>
          </ns3:TrackPointExtension>
        </extensions>
      </trkpt>
      <trkpt lat="42.50035260803997516632080078125" lon="20.1696310937404632568359375">
        <ele>2131.800048828125</ele>
        <time>2026-06-20T10:58:22.000Z</time>
        <extensions>
          <ns3:TrackPointExtension>
            <ns3:atemp>20.0</ns3:atemp>
          </ns3:TrackPointExtension>
        </extensions>
      </trkpt>
      <trkpt lat="42.50035260803997516632080078125" lon="20.1696310937404632568359375">
        <ele>2131.60009765625</ele>
        <time>2026-06-20T10:58:23.000Z</time>
        <extensions>
          <ns3:TrackPointExtension>
            <ns3:atemp>20.0</ns3:atemp>
          </ns3:TrackPointExtension>
        </extensions>
      </trkpt>
      <trkpt lat="42.50035260803997516632080078125" lon="20.1696310937404632568359375">
        <ele>2131.60009765625</ele>
        <time>2026-06-20T10:58:24.000Z</time>
        <extensions>
          <ns3:TrackPointExtension>
            <ns3:atemp>20.0</ns3:atemp>
          </ns3:TrackPointExtension>
        </extensions>
      </trkpt>
      <trkpt lat="42.50035260803997516632080078125" lon="20.1696310937404632568359375">
        <ele>2131.60009765625</ele>
        <time>2026-06-20T10:58:25.000Z</time>
        <extensions>
          <ns3:TrackPointExtension>
            <ns3:atemp>20.0</ns3:atemp>
          </ns3:TrackPointExtension>
        </extensions>
      </trkpt>
      <trkpt lat="42.50035260803997516632080078125" lon="20.1696310937404632568359375">
        <ele>2131.60009765625</ele>
        <time>2026-06-20T10:58:26.000Z</time>
        <extensions>
          <ns3:TrackPointExtension>
            <ns3:atemp>20.0</ns3:atemp>
          </ns3:TrackPointExtension>
        </extensions>
      </trkpt>
      <trkpt lat="42.50035260803997516632080078125" lon="20.1696310937404632568359375">
        <ele>2131.60009765625</ele>
        <time>2026-06-20T10:58:27.000Z</time>
        <extensions>
          <ns3:TrackPointExtension>
            <ns3:atemp>20.0</ns3:atemp>
          </ns3:TrackPointExtension>
        </extensions>
      </trkpt>
      <trkpt lat="42.50035260803997516632080078125" lon="20.1696310937404632568359375">
        <ele>2131.60009765625</ele>
        <time>2026-06-20T10:58:28.000Z</time>
        <extensions>
          <ns3:TrackPointExtension>
            <ns3:atemp>20.0</ns3:atemp>
          </ns3:TrackPointExtension>
        </extensions>
      </trkpt>
      <trkpt lat="42.50035260803997516632080078125" lon="20.1696310937404632568359375">
        <ele>2131.60009765625</ele>
        <time>2026-06-20T10:58:29.000Z</time>
        <extensions>
          <ns3:TrackPointExtension>
            <ns3:atemp>20.0</ns3:atemp>
          </ns3:TrackPointExtension>
        </extensions>
      </trkpt>
      <trkpt lat="42.50035260803997516632080078125" lon="20.1696310937404632568359375">
        <ele>2131.60009765625</ele>
        <time>2026-06-20T10:58:30.000Z</time>
        <extensions>
          <ns3:TrackPointExtension>
            <ns3:atemp>20.0</ns3:atemp>
          </ns3:TrackPointExtension>
        </extensions>
      </trkpt>
      <trkpt lat="42.50035260803997516632080078125" lon="20.1696310937404632568359375">
        <ele>2131.800048828125</ele>
        <time>2026-06-20T10:58:31.000Z</time>
        <extensions>
          <ns3:TrackPointExtension>
            <ns3:atemp>20.0</ns3:atemp>
          </ns3:TrackPointExtension>
        </extensions>
      </trkpt>
      <trkpt lat="42.50035260803997516632080078125" lon="20.1696310937404632568359375">
        <ele>2131.800048828125</ele>
        <time>2026-06-20T10:58:32.000Z</time>
        <extensions>
          <ns3:TrackPointExtension>
            <ns3:atemp>20.0</ns3:atemp>
          </ns3:TrackPointExtension>
        </extensions>
      </trkpt>
      <trkpt lat="42.50035260803997516632080078125" lon="20.1696310937404632568359375">
        <ele>2131.800048828125</ele>
        <time>2026-06-20T10:58:33.000Z</time>
        <extensions>
          <ns3:TrackPointExtension>
            <ns3:atemp>20.0</ns3:atemp>
          </ns3:TrackPointExtension>
        </extensions>
      </trkpt>
      <trkpt lat="42.50035260803997516632080078125" lon="20.1696310937404632568359375">
        <ele>2131.800048828125</ele>
        <time>2026-06-20T10:58:34.000Z</time>
        <extensions>
          <ns3:TrackPointExtension>
            <ns3:atemp>20.0</ns3:atemp>
          </ns3:TrackPointExtension>
        </extensions>
      </trkpt>
      <trkpt lat="42.50035260803997516632080078125" lon="20.1696310937404632568359375">
        <ele>2131.800048828125</ele>
        <time>2026-06-20T10:58:35.000Z</time>
        <extensions>
          <ns3:TrackPointExtension>
            <ns3:atemp>20.0</ns3:atemp>
          </ns3:TrackPointExtension>
        </extensions>
      </trkpt>
      <trkpt lat="42.50035260803997516632080078125" lon="20.1696310937404632568359375">
        <ele>2131.800048828125</ele>
        <time>2026-06-20T10:58:36.000Z</time>
        <extensions>
          <ns3:TrackPointExtension>
            <ns3:atemp>20.0</ns3:atemp>
          </ns3:TrackPointExtension>
        </extensions>
      </trkpt>
      <trkpt lat="42.50035260803997516632080078125" lon="20.1696310937404632568359375">
        <ele>2131.800048828125</ele>
        <time>2026-06-20T10:58:37.000Z</time>
        <extensions>
          <ns3:TrackPointExtension>
            <ns3:atemp>20.0</ns3:atemp>
          </ns3:TrackPointExtension>
        </extensions>
      </trkpt>
      <trkpt lat="42.50035260803997516632080078125" lon="20.1696310937404632568359375">
        <ele>2131.800048828125</ele>
        <time>2026-06-20T10:58:38.000Z</time>
        <extensions>
          <ns3:TrackPointExtension>
            <ns3:atemp>20.0</ns3:atemp>
          </ns3:TrackPointExtension>
        </extensions>
      </trkpt>
      <trkpt lat="42.50035260803997516632080078125" lon="20.1696310937404632568359375">
        <ele>2131.800048828125</ele>
        <time>2026-06-20T10:58:39.000Z</time>
        <extensions>
          <ns3:TrackPointExtension>
            <ns3:atemp>20.0</ns3:atemp>
          </ns3:TrackPointExtension>
        </extensions>
      </trkpt>
      <trkpt lat="42.50035260803997516632080078125" lon="20.1696310937404632568359375">
        <ele>2131.800048828125</ele>
        <time>2026-06-20T10:58:40.000Z</time>
        <extensions>
          <ns3:TrackPointExtension>
            <ns3:atemp>20.0</ns3:atemp>
          </ns3:TrackPointExtension>
        </extensions>
      </trkpt>
      <trkpt lat="42.50035260803997516632080078125" lon="20.1696310937404632568359375">
        <ele>2131.800048828125</ele>
        <time>2026-06-20T10:58:41.000Z</time>
        <extensions>
          <ns3:TrackPointExtension>
            <ns3:atemp>20.0</ns3:atemp>
          </ns3:TrackPointExtension>
        </extensions>
      </trkpt>
      <trkpt lat="42.50035260803997516632080078125" lon="20.1696310937404632568359375">
        <ele>2131.800048828125</ele>
        <time>2026-06-20T10:58:42.000Z</time>
        <extensions>
          <ns3:TrackPointExtension>
            <ns3:atemp>20.0</ns3:atemp>
          </ns3:TrackPointExtension>
        </extensions>
      </trkpt>
      <trkpt lat="42.50035260803997516632080078125" lon="20.1696310937404632568359375">
        <ele>2131.800048828125</ele>
        <time>2026-06-20T10:58:43.000Z</time>
        <extensions>
          <ns3:TrackPointExtension>
            <ns3:atemp>20.0</ns3:atemp>
          </ns3:TrackPointExtension>
        </extensions>
      </trkpt>
      <trkpt lat="42.50035260803997516632080078125" lon="20.1696310937404632568359375">
        <ele>2131.800048828125</ele>
        <time>2026-06-20T10:58:44.000Z</time>
        <extensions>
          <ns3:TrackPointExtension>
            <ns3:atemp>20.0</ns3:atemp>
          </ns3:TrackPointExtension>
        </extensions>
      </trkpt>
      <trkpt lat="42.50035260803997516632080078125" lon="20.1696310937404632568359375">
        <ele>2131.800048828125</ele>
        <time>2026-06-20T10:58:45.000Z</time>
        <extensions>
          <ns3:TrackPointExtension>
            <ns3:atemp>20.0</ns3:atemp>
          </ns3:TrackPointExtension>
        </extensions>
      </trkpt>
      <trkpt lat="42.50035260803997516632080078125" lon="20.1696310937404632568359375">
        <ele>2131.800048828125</ele>
        <time>2026-06-20T10:58:46.000Z</time>
        <extensions>
          <ns3:TrackPointExtension>
            <ns3:atemp>20.0</ns3:atemp>
          </ns3:TrackPointExtension>
        </extensions>
      </trkpt>
      <trkpt lat="42.50035260803997516632080078125" lon="20.1696310937404632568359375">
        <ele>2131.800048828125</ele>
        <time>2026-06-20T10:58:47.000Z</time>
        <extensions>
          <ns3:TrackPointExtension>
            <ns3:atemp>20.0</ns3:atemp>
          </ns3:TrackPointExtension>
        </extensions>
      </trkpt>
      <trkpt lat="42.50035260803997516632080078125" lon="20.1696310937404632568359375">
        <ele>2131.800048828125</ele>
        <time>2026-06-20T10:58:48.000Z</time>
        <extensions>
          <ns3:TrackPointExtension>
            <ns3:atemp>20.0</ns3:atemp>
          </ns3:TrackPointExtension>
        </extensions>
      </trkpt>
      <trkpt lat="42.50035260803997516632080078125" lon="20.1696310937404632568359375">
        <ele>2131.800048828125</ele>
        <time>2026-06-20T10:58:49.000Z</time>
        <extensions>
          <ns3:TrackPointExtension>
            <ns3:atemp>20.0</ns3:atemp>
          </ns3:TrackPointExtension>
        </extensions>
      </trkpt>
      <trkpt lat="42.50035260803997516632080078125" lon="20.1696310937404632568359375">
        <ele>2132</ele>
        <time>2026-06-20T10:58:50.000Z</time>
        <extensions>
          <ns3:TrackPointExtension>
            <ns3:atemp>20.0</ns3:atemp>
          </ns3:TrackPointExtension>
        </extensions>
      </trkpt>
      <trkpt lat="42.50035260803997516632080078125" lon="20.1696310937404632568359375">
        <ele>2132</ele>
        <time>2026-06-20T10:58:51.000Z</time>
        <extensions>
          <ns3:TrackPointExtension>
            <ns3:atemp>21.0</ns3:atemp>
          </ns3:TrackPointExtension>
        </extensions>
      </trkpt>
      <trkpt lat="42.50035260803997516632080078125" lon="20.1696310937404632568359375">
        <ele>2132</ele>
        <time>2026-06-20T10:58:52.000Z</time>
        <extensions>
          <ns3:TrackPointExtension>
            <ns3:atemp>21.0</ns3:atemp>
          </ns3:TrackPointExtension>
        </extensions>
      </trkpt>
      <trkpt lat="42.50035260803997516632080078125" lon="20.1696310937404632568359375">
        <ele>2132</ele>
        <time>2026-06-20T10:58:53.000Z</time>
        <extensions>
          <ns3:TrackPointExtension>
            <ns3:atemp>21.0</ns3:atemp>
          </ns3:TrackPointExtension>
        </extensions>
      </trkpt>
      <trkpt lat="42.50035260803997516632080078125" lon="20.1696310937404632568359375">
        <ele>2132</ele>
        <time>2026-06-20T10:58:54.000Z</time>
        <extensions>
          <ns3:TrackPointExtension>
            <ns3:atemp>21.0</ns3:atemp>
          </ns3:TrackPointExtension>
        </extensions>
      </trkpt>
      <trkpt lat="42.50035260803997516632080078125" lon="20.1696310937404632568359375">
        <ele>2132</ele>
        <time>2026-06-20T10:58:55.000Z</time>
        <extensions>
          <ns3:TrackPointExtension>
            <ns3:atemp>21.0</ns3:atemp>
          </ns3:TrackPointExtension>
        </extensions>
      </trkpt>
      <trkpt lat="42.50035260803997516632080078125" lon="20.1696310937404632568359375">
        <ele>2132</ele>
        <time>2026-06-20T10:58:56.000Z</time>
        <extensions>
          <ns3:TrackPointExtension>
            <ns3:atemp>21.0</ns3:atemp>
          </ns3:TrackPointExtension>
        </extensions>
      </trkpt>
      <trkpt lat="42.50035260803997516632080078125" lon="20.1696310937404632568359375">
        <ele>2131.800048828125</ele>
        <time>2026-06-20T10:58:57.000Z</time>
        <extensions>
          <ns3:TrackPointExtension>
            <ns3:atemp>21.0</ns3:atemp>
          </ns3:TrackPointExtension>
        </extensions>
      </trkpt>
      <trkpt lat="42.50035260803997516632080078125" lon="20.1696310937404632568359375">
        <ele>2131.800048828125</ele>
        <time>2026-06-20T10:58:58.000Z</time>
        <extensions>
          <ns3:TrackPointExtension>
            <ns3:atemp>21.0</ns3:atemp>
          </ns3:TrackPointExtension>
        </extensions>
      </trkpt>
      <trkpt lat="42.50035260803997516632080078125" lon="20.1696310937404632568359375">
        <ele>2131.800048828125</ele>
        <time>2026-06-20T10:58:59.000Z</time>
        <extensions>
          <ns3:TrackPointExtension>
            <ns3:atemp>21.0</ns3:atemp>
          </ns3:TrackPointExtension>
        </extensions>
      </trkpt>
      <trkpt lat="42.50035260803997516632080078125" lon="20.1696310937404632568359375">
        <ele>2131.800048828125</ele>
        <time>2026-06-20T10:59:00.000Z</time>
        <extensions>
          <ns3:TrackPointExtension>
            <ns3:atemp>21.0</ns3:atemp>
          </ns3:TrackPointExtension>
        </extensions>
      </trkpt>
      <trkpt lat="42.50035260803997516632080078125" lon="20.1696310937404632568359375">
        <ele>2131.800048828125</ele>
        <time>2026-06-20T10:59:01.000Z</time>
        <extensions>
          <ns3:TrackPointExtension>
            <ns3:atemp>21.0</ns3:atemp>
          </ns3:TrackPointExtension>
        </extensions>
      </trkpt>
      <trkpt lat="42.50035260803997516632080078125" lon="20.1696310937404632568359375">
        <ele>2131.800048828125</ele>
        <time>2026-06-20T10:59:02.000Z</time>
        <extensions>
          <ns3:TrackPointExtension>
            <ns3:atemp>21.0</ns3:atemp>
          </ns3:TrackPointExtension>
        </extensions>
      </trkpt>
      <trkpt lat="42.50035260803997516632080078125" lon="20.1696310937404632568359375">
        <ele>2131.800048828125</ele>
        <time>2026-06-20T10:59:03.000Z</time>
        <extensions>
          <ns3:TrackPointExtension>
            <ns3:atemp>21.0</ns3:atemp>
          </ns3:TrackPointExtension>
        </extensions>
      </trkpt>
      <trkpt lat="42.50035260803997516632080078125" lon="20.1696310937404632568359375">
        <ele>2132</ele>
        <time>2026-06-20T10:59:04.000Z</time>
        <extensions>
          <ns3:TrackPointExtension>
            <ns3:atemp>21.0</ns3:atemp>
          </ns3:TrackPointExtension>
        </extensions>
      </trkpt>
      <trkpt lat="42.50035260803997516632080078125" lon="20.1696310937404632568359375">
        <ele>2132</ele>
        <time>2026-06-20T10:59:05.000Z</time>
        <extensions>
          <ns3:TrackPointExtension>
            <ns3:atemp>21.0</ns3:atemp>
          </ns3:TrackPointExtension>
        </extensions>
      </trkpt>
      <trkpt lat="42.50035260803997516632080078125" lon="20.1696310937404632568359375">
        <ele>2132</ele>
        <time>2026-06-20T10:59:06.000Z</time>
        <extensions>
          <ns3:TrackPointExtension>
            <ns3:atemp>21.0</ns3:atemp>
          </ns3:TrackPointExtension>
        </extensions>
      </trkpt>
      <trkpt lat="42.50035260803997516632080078125" lon="20.1696310937404632568359375">
        <ele>2132</ele>
        <time>2026-06-20T10:59:07.000Z</time>
        <extensions>
          <ns3:TrackPointExtension>
            <ns3:atemp>21.0</ns3:atemp>
          </ns3:TrackPointExtension>
        </extensions>
      </trkpt>
      <trkpt lat="42.50035260803997516632080078125" lon="20.1696310937404632568359375">
        <ele>2132</ele>
        <time>2026-06-20T10:59:08.000Z</time>
        <extensions>
          <ns3:TrackPointExtension>
            <ns3:atemp>21.0</ns3:atemp>
          </ns3:TrackPointExtension>
        </extensions>
      </trkpt>
      <trkpt lat="42.50035260803997516632080078125" lon="20.1696310937404632568359375">
        <ele>2132</ele>
        <time>2026-06-20T10:59:09.000Z</time>
        <extensions>
          <ns3:TrackPointExtension>
            <ns3:atemp>21.0</ns3:atemp>
          </ns3:TrackPointExtension>
        </extensions>
      </trkpt>
      <trkpt lat="42.50035260803997516632080078125" lon="20.1696310937404632568359375">
        <ele>2132</ele>
        <time>2026-06-20T10:59:10.000Z</time>
        <extensions>
          <ns3:TrackPointExtension>
            <ns3:atemp>21.0</ns3:atemp>
          </ns3:TrackPointExtension>
        </extensions>
      </trkpt>
      <trkpt lat="42.50035260803997516632080078125" lon="20.1696310937404632568359375">
        <ele>2132</ele>
        <time>2026-06-20T10:59:11.000Z</time>
        <extensions>
          <ns3:TrackPointExtension>
            <ns3:atemp>21.0</ns3:atemp>
          </ns3:TrackPointExtension>
        </extensions>
      </trkpt>
      <trkpt lat="42.50035260803997516632080078125" lon="20.1696310937404632568359375">
        <ele>2132</ele>
        <time>2026-06-20T10:59:12.000Z</time>
        <extensions>
          <ns3:TrackPointExtension>
            <ns3:atemp>21.0</ns3:atemp>
          </ns3:TrackPointExtension>
        </extensions>
      </trkpt>
      <trkpt lat="42.50035260803997516632080078125" lon="20.1696310937404632568359375">
        <ele>2132</ele>
        <time>2026-06-20T10:59:13.000Z</time>
        <extensions>
          <ns3:TrackPointExtension>
            <ns3:atemp>21.0</ns3:atemp>
          </ns3:TrackPointExtension>
        </extensions>
      </trkpt>
      <trkpt lat="42.50035260803997516632080078125" lon="20.1696310937404632568359375">
        <ele>2132</ele>
        <time>2026-06-20T10:59:14.000Z</time>
        <extensions>
          <ns3:TrackPointExtension>
            <ns3:atemp>21.0</ns3:atemp>
          </ns3:TrackPointExtension>
        </extensions>
      </trkpt>
      <trkpt lat="42.50035260803997516632080078125" lon="20.1696310937404632568359375">
        <ele>2132</ele>
        <time>2026-06-20T10:59:15.000Z</time>
        <extensions>
          <ns3:TrackPointExtension>
            <ns3:atemp>21.0</ns3:atemp>
          </ns3:TrackPointExtension>
        </extensions>
      </trkpt>
      <trkpt lat="42.50035260803997516632080078125" lon="20.1696310937404632568359375">
        <ele>2132.199951171875</ele>
        <time>2026-06-20T10:59:16.000Z</time>
        <extensions>
          <ns3:TrackPointExtension>
            <ns3:atemp>21.0</ns3:atemp>
          </ns3:TrackPointExtension>
        </extensions>
      </trkpt>
      <trkpt lat="42.50035260803997516632080078125" lon="20.1696310937404632568359375">
        <ele>2132.199951171875</ele>
        <time>2026-06-20T10:59:17.000Z</time>
        <extensions>
          <ns3:TrackPointExtension>
            <ns3:atemp>21.0</ns3:atemp>
          </ns3:TrackPointExtension>
        </extensions>
      </trkpt>
      <trkpt lat="42.50035260803997516632080078125" lon="20.1696310937404632568359375">
        <ele>2132.199951171875</ele>
        <time>2026-06-20T10:59:18.000Z</time>
        <extensions>
          <ns3:TrackPointExtension>
            <ns3:atemp>21.0</ns3:atemp>
          </ns3:TrackPointExtension>
        </extensions>
      </trkpt>
      <trkpt lat="42.50035260803997516632080078125" lon="20.1696310937404632568359375">
        <ele>2132.199951171875</ele>
        <time>2026-06-20T10:59:19.000Z</time>
        <extensions>
          <ns3:TrackPointExtension>
            <ns3:atemp>21.0</ns3:atemp>
          </ns3:TrackPointExtension>
        </extensions>
      </trkpt>
      <trkpt lat="42.50035260803997516632080078125" lon="20.1696310937404632568359375">
        <ele>2132.199951171875</ele>
        <time>2026-06-20T10:59:20.000Z</time>
        <extensions>
          <ns3:TrackPointExtension>
            <ns3:atemp>21.0</ns3:atemp>
          </ns3:TrackPointExtension>
        </extensions>
      </trkpt>
      <trkpt lat="42.50035260803997516632080078125" lon="20.1696310937404632568359375">
        <ele>2132.199951171875</ele>
        <time>2026-06-20T10:59:21.000Z</time>
        <extensions>
          <ns3:TrackPointExtension>
            <ns3:atemp>21.0</ns3:atemp>
          </ns3:TrackPointExtension>
        </extensions>
      </trkpt>
      <trkpt lat="42.50035260803997516632080078125" lon="20.1696310937404632568359375">
        <ele>2132.199951171875</ele>
        <time>2026-06-20T10:59:22.000Z</time>
        <extensions>
          <ns3:TrackPointExtension>
            <ns3:atemp>21.0</ns3:atemp>
          </ns3:TrackPointExtension>
        </extensions>
      </trkpt>
      <trkpt lat="42.50035260803997516632080078125" lon="20.1696310937404632568359375">
        <ele>2132</ele>
        <time>2026-06-20T10:59:23.000Z</time>
        <extensions>
          <ns3:TrackPointExtension>
            <ns3:atemp>21.0</ns3:atemp>
          </ns3:TrackPointExtension>
        </extensions>
      </trkpt>
      <trkpt lat="42.50035260803997516632080078125" lon="20.1696310937404632568359375">
        <ele>2132</ele>
        <time>2026-06-20T10:59:24.000Z</time>
        <extensions>
          <ns3:TrackPointExtension>
            <ns3:atemp>21.0</ns3:atemp>
          </ns3:TrackPointExtension>
        </extensions>
      </trkpt>
      <trkpt lat="42.50035260803997516632080078125" lon="20.1696310937404632568359375">
        <ele>2132</ele>
        <time>2026-06-20T10:59:25.000Z</time>
        <extensions>
          <ns3:TrackPointExtension>
            <ns3:atemp>21.0</ns3:atemp>
          </ns3:TrackPointExtension>
        </extensions>
      </trkpt>
      <trkpt lat="42.50035260803997516632080078125" lon="20.1696310937404632568359375">
        <ele>2132</ele>
        <time>2026-06-20T10:59:26.000Z</time>
        <extensions>
          <ns3:TrackPointExtension>
            <ns3:atemp>21.0</ns3:atemp>
          </ns3:TrackPointExtension>
        </extensions>
      </trkpt>
      <trkpt lat="42.50035260803997516632080078125" lon="20.1696310937404632568359375">
        <ele>2132</ele>
        <time>2026-06-20T10:59:27.000Z</time>
        <extensions>
          <ns3:TrackPointExtension>
            <ns3:atemp>21.0</ns3:atemp>
          </ns3:TrackPointExtension>
        </extensions>
      </trkpt>
      <trkpt lat="42.50035260803997516632080078125" lon="20.1696310937404632568359375">
        <ele>2132</ele>
        <time>2026-06-20T10:59:28.000Z</time>
        <extensions>
          <ns3:TrackPointExtension>
            <ns3:atemp>21.0</ns3:atemp>
          </ns3:TrackPointExtension>
        </extensions>
      </trkpt>
      <trkpt lat="42.50035260803997516632080078125" lon="20.1696310937404632568359375">
        <ele>2132</ele>
        <time>2026-06-20T10:59:29.000Z</time>
        <extensions>
          <ns3:TrackPointExtension>
            <ns3:atemp>21.0</ns3:atemp>
          </ns3:TrackPointExtension>
        </extensions>
      </trkpt>
      <trkpt lat="42.50035260803997516632080078125" lon="20.1696310937404632568359375">
        <ele>2132</ele>
        <time>2026-06-20T10:59:30.000Z</time>
        <extensions>
          <ns3:TrackPointExtension>
            <ns3:atemp>21.0</ns3:atemp>
          </ns3:TrackPointExtension>
        </extensions>
      </trkpt>
      <trkpt lat="42.50035260803997516632080078125" lon="20.1696310937404632568359375">
        <ele>2132</ele>
        <time>2026-06-20T10:59:31.000Z</time>
        <extensions>
          <ns3:TrackPointExtension>
            <ns3:atemp>21.0</ns3:atemp>
          </ns3:TrackPointExtension>
        </extensions>
      </trkpt>
      <trkpt lat="42.50035260803997516632080078125" lon="20.1696310937404632568359375">
        <ele>2132</ele>
        <time>2026-06-20T10:59:32.000Z</time>
        <extensions>
          <ns3:TrackPointExtension>
            <ns3:atemp>21.0</ns3:atemp>
          </ns3:TrackPointExtension>
        </extensions>
      </trkpt>
      <trkpt lat="42.50035260803997516632080078125" lon="20.1696310937404632568359375">
        <ele>2132</ele>
        <time>2026-06-20T10:59:33.000Z</time>
        <extensions>
          <ns3:TrackPointExtension>
            <ns3:atemp>21.0</ns3:atemp>
          </ns3:TrackPointExtension>
        </extensions>
      </trkpt>
      <trkpt lat="42.50035260803997516632080078125" lon="20.1696310937404632568359375">
        <ele>2132</ele>
        <time>2026-06-20T10:59:34.000Z</time>
        <extensions>
          <ns3:TrackPointExtension>
            <ns3:atemp>21.0</ns3:atemp>
          </ns3:TrackPointExtension>
        </extensions>
      </trkpt>
      <trkpt lat="42.50035260803997516632080078125" lon="20.1696310937404632568359375">
        <ele>2132</ele>
        <time>2026-06-20T10:59:35.000Z</time>
        <extensions>
          <ns3:TrackPointExtension>
            <ns3:atemp>21.0</ns3:atemp>
          </ns3:TrackPointExtension>
        </extensions>
      </trkpt>
      <trkpt lat="42.50035260803997516632080078125" lon="20.1696310937404632568359375">
        <ele>2132</ele>
        <time>2026-06-20T10:59:36.000Z</time>
        <extensions>
          <ns3:TrackPointExtension>
            <ns3:atemp>21.0</ns3:atemp>
          </ns3:TrackPointExtension>
        </extensions>
      </trkpt>
      <trkpt lat="42.50035260803997516632080078125" lon="20.1696310937404632568359375">
        <ele>2132</ele>
        <time>2026-06-20T10:59:37.000Z</time>
        <extensions>
          <ns3:TrackPointExtension>
            <ns3:atemp>21.0</ns3:atemp>
          </ns3:TrackPointExtension>
        </extensions>
      </trkpt>
      <trkpt lat="42.50035260803997516632080078125" lon="20.1696310937404632568359375">
        <ele>2132</ele>
        <time>2026-06-20T10:59:38.000Z</time>
        <extensions>
          <ns3:TrackPointExtension>
            <ns3:atemp>21.0</ns3:atemp>
          </ns3:TrackPointExtension>
        </extensions>
      </trkpt>
      <trkpt lat="42.50035260803997516632080078125" lon="20.1696310937404632568359375">
        <ele>2132</ele>
        <time>2026-06-20T10:59:39.000Z</time>
        <extensions>
          <ns3:TrackPointExtension>
            <ns3:atemp>21.0</ns3:atemp>
          </ns3:TrackPointExtension>
        </extensions>
      </trkpt>
      <trkpt lat="42.50035260803997516632080078125" lon="20.1696310937404632568359375">
        <ele>2132</ele>
        <time>2026-06-20T10:59:40.000Z</time>
        <extensions>
          <ns3:TrackPointExtension>
            <ns3:atemp>21.0</ns3:atemp>
          </ns3:TrackPointExtension>
        </extensions>
      </trkpt>
      <trkpt lat="42.50035260803997516632080078125" lon="20.1696310937404632568359375">
        <ele>2132</ele>
        <time>2026-06-20T10:59:41.000Z</time>
        <extensions>
          <ns3:TrackPointExtension>
            <ns3:atemp>21.0</ns3:atemp>
          </ns3:TrackPointExtension>
        </extensions>
      </trkpt>
      <trkpt lat="42.50035260803997516632080078125" lon="20.1696310937404632568359375">
        <ele>2132</ele>
        <time>2026-06-20T10:59:42.000Z</time>
        <extensions>
          <ns3:TrackPointExtension>
            <ns3:atemp>21.0</ns3:atemp>
          </ns3:TrackPointExtension>
        </extensions>
      </trkpt>
      <trkpt lat="42.50035260803997516632080078125" lon="20.1696310937404632568359375">
        <ele>2132</ele>
        <time>2026-06-20T10:59:43.000Z</time>
        <extensions>
          <ns3:TrackPointExtension>
            <ns3:atemp>21.0</ns3:atemp>
          </ns3:TrackPointExtension>
        </extensions>
      </trkpt>
      <trkpt lat="42.50035260803997516632080078125" lon="20.1696310937404632568359375">
        <ele>2132</ele>
        <time>2026-06-20T10:59:44.000Z</time>
        <extensions>
          <ns3:TrackPointExtension>
            <ns3:atemp>21.0</ns3:atemp>
          </ns3:TrackPointExtension>
        </extensions>
      </trkpt>
      <trkpt lat="42.50035260803997516632080078125" lon="20.1696310937404632568359375">
        <ele>2132</ele>
        <time>2026-06-20T10:59:45.000Z</time>
        <extensions>
          <ns3:TrackPointExtension>
            <ns3:atemp>21.0</ns3:atemp>
          </ns3:TrackPointExtension>
        </extensions>
      </trkpt>
      <trkpt lat="42.50035260803997516632080078125" lon="20.1696310937404632568359375">
        <ele>2132</ele>
        <time>2026-06-20T10:59:46.000Z</time>
        <extensions>
          <ns3:TrackPointExtension>
            <ns3:atemp>21.0</ns3:atemp>
          </ns3:TrackPointExtension>
        </extensions>
      </trkpt>
      <trkpt lat="42.50035260803997516632080078125" lon="20.1696310937404632568359375">
        <ele>2132</ele>
        <time>2026-06-20T10:59:47.000Z</time>
        <extensions>
          <ns3:TrackPointExtension>
            <ns3:atemp>21.0</ns3:atemp>
          </ns3:TrackPointExtension>
        </extensions>
      </trkpt>
      <trkpt lat="42.50035260803997516632080078125" lon="20.1696310937404632568359375">
        <ele>2132</ele>
        <time>2026-06-20T10:59:48.000Z</time>
        <extensions>
          <ns3:TrackPointExtension>
            <ns3:atemp>21.0</ns3:atemp>
          </ns3:TrackPointExtension>
        </extensions>
      </trkpt>
      <trkpt lat="42.50035260803997516632080078125" lon="20.1696310937404632568359375">
        <ele>2132</ele>
        <time>2026-06-20T10:59:49.000Z</time>
        <extensions>
          <ns3:TrackPointExtension>
            <ns3:atemp>21.0</ns3:atemp>
          </ns3:TrackPointExtension>
        </extensions>
      </trkpt>
      <trkpt lat="42.50035260803997516632080078125" lon="20.1696310937404632568359375">
        <ele>2132</ele>
        <time>2026-06-20T10:59:50.000Z</time>
        <extensions>
          <ns3:TrackPointExtension>
            <ns3:atemp>21.0</ns3:atemp>
          </ns3:TrackPointExtension>
        </extensions>
      </trkpt>
      <trkpt lat="42.50035260803997516632080078125" lon="20.1696310937404632568359375">
        <ele>2132</ele>
        <time>2026-06-20T10:59:51.000Z</time>
        <extensions>
          <ns3:TrackPointExtension>
            <ns3:atemp>21.0</ns3:atemp>
          </ns3:TrackPointExtension>
        </extensions>
      </trkpt>
      <trkpt lat="42.50035260803997516632080078125" lon="20.1696310937404632568359375">
        <ele>2132</ele>
        <time>2026-06-20T10:59:52.000Z</time>
        <extensions>
          <ns3:TrackPointExtension>
            <ns3:atemp>21.0</ns3:atemp>
          </ns3:TrackPointExtension>
        </extensions>
      </trkpt>
      <trkpt lat="42.50035260803997516632080078125" lon="20.1696310937404632568359375">
        <ele>2132</ele>
        <time>2026-06-20T10:59:53.000Z</time>
        <extensions>
          <ns3:TrackPointExtension>
            <ns3:atemp>21.0</ns3:atemp>
          </ns3:TrackPointExtension>
        </extensions>
      </trkpt>
      <trkpt lat="42.50035260803997516632080078125" lon="20.1696310937404632568359375">
        <ele>2132</ele>
        <time>2026-06-20T10:59:54.000Z</time>
        <extensions>
          <ns3:TrackPointExtension>
            <ns3:atemp>21.0</ns3:atemp>
          </ns3:TrackPointExtension>
        </extensions>
      </trkpt>
      <trkpt lat="42.50035260803997516632080078125" lon="20.1696310937404632568359375">
        <ele>2132</ele>
        <time>2026-06-20T10:59:55.000Z</time>
        <extensions>
          <ns3:TrackPointExtension>
            <ns3:atemp>21.0</ns3:atemp>
          </ns3:TrackPointExtension>
        </extensions>
      </trkpt>
      <trkpt lat="42.50035260803997516632080078125" lon="20.1696310937404632568359375">
        <ele>2132</ele>
        <time>2026-06-20T10:59:56.000Z</time>
        <extensions>
          <ns3:TrackPointExtension>
            <ns3:atemp>21.0</ns3:atemp>
          </ns3:TrackPointExtension>
        </extensions>
      </trkpt>
      <trkpt lat="42.50035260803997516632080078125" lon="20.1696310937404632568359375">
        <ele>2132</ele>
        <time>2026-06-20T10:59:57.000Z</time>
        <extensions>
          <ns3:TrackPointExtension>
            <ns3:atemp>21.0</ns3:atemp>
          </ns3:TrackPointExtension>
        </extensions>
      </trkpt>
      <trkpt lat="42.50035260803997516632080078125" lon="20.1696310937404632568359375">
        <ele>2132</ele>
        <time>2026-06-20T10:59:58.000Z</time>
        <extensions>
          <ns3:TrackPointExtension>
            <ns3:atemp>21.0</ns3:atemp>
          </ns3:TrackPointExtension>
        </extensions>
      </trkpt>
      <trkpt lat="42.50035260803997516632080078125" lon="20.1696310937404632568359375">
        <ele>2132</ele>
        <time>2026-06-20T10:59:59.000Z</time>
        <extensions>
          <ns3:TrackPointExtension>
            <ns3:atemp>21.0</ns3:atemp>
          </ns3:TrackPointExtension>
        </extensions>
      </trkpt>
      <trkpt lat="42.50035260803997516632080078125" lon="20.1696310937404632568359375">
        <ele>2132</ele>
        <time>2026-06-20T11:00:00.000Z</time>
        <extensions>
          <ns3:TrackPointExtension>
            <ns3:atemp>21.0</ns3:atemp>
          </ns3:TrackPointExtension>
        </extensions>
      </trkpt>
      <trkpt lat="42.50035260803997516632080078125" lon="20.1696310937404632568359375">
        <ele>2132</ele>
        <time>2026-06-20T11:00:01.000Z</time>
        <extensions>
          <ns3:TrackPointExtension>
            <ns3:atemp>21.0</ns3:atemp>
          </ns3:TrackPointExtension>
        </extensions>
      </trkpt>
      <trkpt lat="42.50035260803997516632080078125" lon="20.1696310937404632568359375">
        <ele>2132</ele>
        <time>2026-06-20T11:00:02.000Z</time>
        <extensions>
          <ns3:TrackPointExtension>
            <ns3:atemp>21.0</ns3:atemp>
          </ns3:TrackPointExtension>
        </extensions>
      </trkpt>
      <trkpt lat="42.50035260803997516632080078125" lon="20.1696310937404632568359375">
        <ele>2132</ele>
        <time>2026-06-20T11:00:03.000Z</time>
        <extensions>
          <ns3:TrackPointExtension>
            <ns3:atemp>21.0</ns3:atemp>
          </ns3:TrackPointExtension>
        </extensions>
      </trkpt>
      <trkpt lat="42.50035260803997516632080078125" lon="20.1696310937404632568359375">
        <ele>2132</ele>
        <time>2026-06-20T11:00:04.000Z</time>
        <extensions>
          <ns3:TrackPointExtension>
            <ns3:atemp>21.0</ns3:atemp>
          </ns3:TrackPointExtension>
        </extensions>
      </trkpt>
      <trkpt lat="42.50035260803997516632080078125" lon="20.1696310937404632568359375">
        <ele>2132</ele>
        <time>2026-06-20T11:00:05.000Z</time>
        <extensions>
          <ns3:TrackPointExtension>
            <ns3:atemp>21.0</ns3:atemp>
          </ns3:TrackPointExtension>
        </extensions>
      </trkpt>
      <trkpt lat="42.50035260803997516632080078125" lon="20.1696310937404632568359375">
        <ele>2132</ele>
        <time>2026-06-20T11:00:06.000Z</time>
        <extensions>
          <ns3:TrackPointExtension>
            <ns3:atemp>21.0</ns3:atemp>
          </ns3:TrackPointExtension>
        </extensions>
      </trkpt>
      <trkpt lat="42.50035260803997516632080078125" lon="20.1696310937404632568359375">
        <ele>2132</ele>
        <time>2026-06-20T11:00:07.000Z</time>
        <extensions>
          <ns3:TrackPointExtension>
            <ns3:atemp>21.0</ns3:atemp>
          </ns3:TrackPointExtension>
        </extensions>
      </trkpt>
      <trkpt lat="42.50035260803997516632080078125" lon="20.1696310937404632568359375">
        <ele>2132</ele>
        <time>2026-06-20T11:00:08.000Z</time>
        <extensions>
          <ns3:TrackPointExtension>
            <ns3:atemp>21.0</ns3:atemp>
          </ns3:TrackPointExtension>
        </extensions>
      </trkpt>
      <trkpt lat="42.50035260803997516632080078125" lon="20.1696310937404632568359375">
        <ele>2132</ele>
        <time>2026-06-20T11:00:09.000Z</time>
        <extensions>
          <ns3:TrackPointExtension>
            <ns3:atemp>21.0</ns3:atemp>
          </ns3:TrackPointExtension>
        </extensions>
      </trkpt>
      <trkpt lat="42.50035260803997516632080078125" lon="20.1696310937404632568359375">
        <ele>2132</ele>
        <time>2026-06-20T11:00:10.000Z</time>
        <extensions>
          <ns3:TrackPointExtension>
            <ns3:atemp>21.0</ns3:atemp>
          </ns3:TrackPointExtension>
        </extensions>
      </trkpt>
      <trkpt lat="42.50035260803997516632080078125" lon="20.1696310937404632568359375">
        <ele>2132</ele>
        <time>2026-06-20T11:00:11.000Z</time>
        <extensions>
          <ns3:TrackPointExtension>
            <ns3:atemp>21.0</ns3:atemp>
          </ns3:TrackPointExtension>
        </extensions>
      </trkpt>
      <trkpt lat="42.50035260803997516632080078125" lon="20.1696310937404632568359375">
        <ele>2132</ele>
        <time>2026-06-20T11:00:12.000Z</time>
        <extensions>
          <ns3:TrackPointExtension>
            <ns3:atemp>21.0</ns3:atemp>
          </ns3:TrackPointExtension>
        </extensions>
      </trkpt>
      <trkpt lat="42.50035260803997516632080078125" lon="20.1696310937404632568359375">
        <ele>2132</ele>
        <time>2026-06-20T11:00:13.000Z</time>
        <extensions>
          <ns3:TrackPointExtension>
            <ns3:atemp>21.0</ns3:atemp>
          </ns3:TrackPointExtension>
        </extensions>
      </trkpt>
      <trkpt lat="42.50035260803997516632080078125" lon="20.1696310937404632568359375">
        <ele>2132</ele>
        <time>2026-06-20T11:00:14.000Z</time>
        <extensions>
          <ns3:TrackPointExtension>
            <ns3:atemp>21.0</ns3:atemp>
          </ns3:TrackPointExtension>
        </extensions>
      </trkpt>
      <trkpt lat="42.50035260803997516632080078125" lon="20.1696310937404632568359375">
        <ele>2132</ele>
        <time>2026-06-20T11:00:15.000Z</time>
        <extensions>
          <ns3:TrackPointExtension>
            <ns3:atemp>21.0</ns3:atemp>
          </ns3:TrackPointExtension>
        </extensions>
      </trkpt>
      <trkpt lat="42.50035260803997516632080078125" lon="20.1696310937404632568359375">
        <ele>2132</ele>
        <time>2026-06-20T11:00:16.000Z</time>
        <extensions>
          <ns3:TrackPointExtension>
            <ns3:atemp>21.0</ns3:atemp>
          </ns3:TrackPointExtension>
        </extensions>
      </trkpt>
      <trkpt lat="42.50035260803997516632080078125" lon="20.1696310937404632568359375">
        <ele>2132</ele>
        <time>2026-06-20T11:00:17.000Z</time>
        <extensions>
          <ns3:TrackPointExtension>
            <ns3:atemp>21.0</ns3:atemp>
          </ns3:TrackPointExtension>
        </extensions>
      </trkpt>
      <trkpt lat="42.50035260803997516632080078125" lon="20.1696310937404632568359375">
        <ele>2132</ele>
        <time>2026-06-20T11:00:18.000Z</time>
        <extensions>
          <ns3:TrackPointExtension>
            <ns3:atemp>21.0</ns3:atemp>
          </ns3:TrackPointExtension>
        </extensions>
      </trkpt>
      <trkpt lat="42.50035260803997516632080078125" lon="20.1696310937404632568359375">
        <ele>2132</ele>
        <time>2026-06-20T11:00:19.000Z</time>
        <extensions>
          <ns3:TrackPointExtension>
            <ns3:atemp>21.0</ns3:atemp>
          </ns3:TrackPointExtension>
        </extensions>
      </trkpt>
      <trkpt lat="42.50035260803997516632080078125" lon="20.1696310937404632568359375">
        <ele>2132</ele>
        <time>2026-06-20T11:00:20.000Z</time>
        <extensions>
          <ns3:TrackPointExtension>
            <ns3:atemp>21.0</ns3:atemp>
          </ns3:TrackPointExtension>
        </extensions>
      </trkpt>
      <trkpt lat="42.50035260803997516632080078125" lon="20.1696310937404632568359375">
        <ele>2132</ele>
        <time>2026-06-20T11:00:21.000Z</time>
        <extensions>
          <ns3:TrackPointExtension>
            <ns3:atemp>21.0</ns3:atemp>
          </ns3:TrackPointExtension>
        </extensions>
      </trkpt>
      <trkpt lat="42.50035260803997516632080078125" lon="20.1696310937404632568359375">
        <ele>2132</ele>
        <time>2026-06-20T11:00:22.000Z</time>
        <extensions>
          <ns3:TrackPointExtension>
            <ns3:atemp>21.0</ns3:atemp>
          </ns3:TrackPointExtension>
        </extensions>
      </trkpt>
      <trkpt lat="42.50035260803997516632080078125" lon="20.1696310937404632568359375">
        <ele>2132</ele>
        <time>2026-06-20T11:00:23.000Z</time>
        <extensions>
          <ns3:TrackPointExtension>
            <ns3:atemp>21.0</ns3:atemp>
          </ns3:TrackPointExtension>
        </extensions>
      </trkpt>
      <trkpt lat="42.50035260803997516632080078125" lon="20.1696310937404632568359375">
        <ele>2132</ele>
        <time>2026-06-20T11:00:24.000Z</time>
        <extensions>
          <ns3:TrackPointExtension>
            <ns3:atemp>21.0</ns3:atemp>
          </ns3:TrackPointExtension>
        </extensions>
      </trkpt>
      <trkpt lat="42.50035260803997516632080078125" lon="20.1696310937404632568359375">
        <ele>2132</ele>
        <time>2026-06-20T11:00:25.000Z</time>
        <extensions>
          <ns3:TrackPointExtension>
            <ns3:atemp>21.0</ns3:atemp>
          </ns3:TrackPointExtension>
        </extensions>
      </trkpt>
      <trkpt lat="42.50035260803997516632080078125" lon="20.1696310937404632568359375">
        <ele>2132</ele>
        <time>2026-06-20T11:00:26.000Z</time>
        <extensions>
          <ns3:TrackPointExtension>
            <ns3:atemp>21.0</ns3:atemp>
          </ns3:TrackPointExtension>
        </extensions>
      </trkpt>
      <trkpt lat="42.50035260803997516632080078125" lon="20.1696310937404632568359375">
        <ele>2132</ele>
        <time>2026-06-20T11:00:27.000Z</time>
        <extensions>
          <ns3:TrackPointExtension>
            <ns3:atemp>21.0</ns3:atemp>
          </ns3:TrackPointExtension>
        </extensions>
      </trkpt>
      <trkpt lat="42.50035260803997516632080078125" lon="20.1696310937404632568359375">
        <ele>2132</ele>
        <time>2026-06-20T11:00:28.000Z</time>
        <extensions>
          <ns3:TrackPointExtension>
            <ns3:atemp>21.0</ns3:atemp>
          </ns3:TrackPointExtension>
        </extensions>
      </trkpt>
      <trkpt lat="42.50035260803997516632080078125" lon="20.1696310937404632568359375">
        <ele>2132</ele>
        <time>2026-06-20T11:00:29.000Z</time>
        <extensions>
          <ns3:TrackPointExtension>
            <ns3:atemp>21.0</ns3:atemp>
          </ns3:TrackPointExtension>
        </extensions>
      </trkpt>
      <trkpt lat="42.50035260803997516632080078125" lon="20.1696310937404632568359375">
        <ele>2132</ele>
        <time>2026-06-20T11:00:30.000Z</time>
        <extensions>
          <ns3:TrackPointExtension>
            <ns3:atemp>21.0</ns3:atemp>
          </ns3:TrackPointExtension>
        </extensions>
      </trkpt>
      <trkpt lat="42.50035260803997516632080078125" lon="20.1696310937404632568359375">
        <ele>2132</ele>
        <time>2026-06-20T11:00:31.000Z</time>
        <extensions>
          <ns3:TrackPointExtension>
            <ns3:atemp>22.0</ns3:atemp>
          </ns3:TrackPointExtension>
        </extensions>
      </trkpt>
      <trkpt lat="42.50035260803997516632080078125" lon="20.1696310937404632568359375">
        <ele>2132</ele>
        <time>2026-06-20T11:00:32.000Z</time>
        <extensions>
          <ns3:TrackPointExtension>
            <ns3:atemp>21.0</ns3:atemp>
          </ns3:TrackPointExtension>
        </extensions>
      </trkpt>
      <trkpt lat="42.50035260803997516632080078125" lon="20.1696310937404632568359375">
        <ele>2132</ele>
        <time>2026-06-20T11:00:33.000Z</time>
        <extensions>
          <ns3:TrackPointExtension>
            <ns3:atemp>22.0</ns3:atemp>
          </ns3:TrackPointExtension>
        </extensions>
      </trkpt>
      <trkpt lat="42.50035260803997516632080078125" lon="20.1696310937404632568359375">
        <ele>2132</ele>
        <time>2026-06-20T11:00:34.000Z</time>
        <extensions>
          <ns3:TrackPointExtension>
            <ns3:atemp>22.0</ns3:atemp>
          </ns3:TrackPointExtension>
        </extensions>
      </trkpt>
      <trkpt lat="42.50035260803997516632080078125" lon="20.1696310937404632568359375">
        <ele>2132</ele>
        <time>2026-06-20T11:00:35.000Z</time>
        <extensions>
          <ns3:TrackPointExtension>
            <ns3:atemp>22.0</ns3:atemp>
          </ns3:TrackPointExtension>
        </extensions>
      </trkpt>
      <trkpt lat="42.50035260803997516632080078125" lon="20.1696310937404632568359375">
        <ele>2132</ele>
        <time>2026-06-20T11:00:36.000Z</time>
        <extensions>
          <ns3:TrackPointExtension>
            <ns3:atemp>22.0</ns3:atemp>
          </ns3:TrackPointExtension>
        </extensions>
      </trkpt>
      <trkpt lat="42.50035260803997516632080078125" lon="20.1696310937404632568359375">
        <ele>2132</ele>
        <time>2026-06-20T11:00:37.000Z</time>
        <extensions>
          <ns3:TrackPointExtension>
            <ns3:atemp>22.0</ns3:atemp>
          </ns3:TrackPointExtension>
        </extensions>
      </trkpt>
      <trkpt lat="42.50035260803997516632080078125" lon="20.1696310937404632568359375">
        <ele>2132</ele>
        <time>2026-06-20T11:00:38.000Z</time>
        <extensions>
          <ns3:TrackPointExtension>
            <ns3:atemp>22.0</ns3:atemp>
          </ns3:TrackPointExtension>
        </extensions>
      </trkpt>
      <trkpt lat="42.50035260803997516632080078125" lon="20.1696310937404632568359375">
        <ele>2132</ele>
        <time>2026-06-20T11:00:39.000Z</time>
        <extensions>
          <ns3:TrackPointExtension>
            <ns3:atemp>22.0</ns3:atemp>
          </ns3:TrackPointExtension>
        </extensions>
      </trkpt>
      <trkpt lat="42.50035260803997516632080078125" lon="20.1696310937404632568359375">
        <ele>2132</ele>
        <time>2026-06-20T11:00:40.000Z</time>
        <extensions>
          <ns3:TrackPointExtension>
            <ns3:atemp>22.0</ns3:atemp>
          </ns3:TrackPointExtension>
        </extensions>
      </trkpt>
      <trkpt lat="42.50035260803997516632080078125" lon="20.1696310937404632568359375">
        <ele>2132</ele>
        <time>2026-06-20T11:00:41.000Z</time>
        <extensions>
          <ns3:TrackPointExtension>
            <ns3:atemp>22.0</ns3:atemp>
          </ns3:TrackPointExtension>
        </extensions>
      </trkpt>
      <trkpt lat="42.50035260803997516632080078125" lon="20.1696310937404632568359375">
        <ele>2132</ele>
        <time>2026-06-20T11:00:42.000Z</time>
        <extensions>
          <ns3:TrackPointExtension>
            <ns3:atemp>22.0</ns3:atemp>
          </ns3:TrackPointExtension>
        </extensions>
      </trkpt>
      <trkpt lat="42.50035260803997516632080078125" lon="20.1696310937404632568359375">
        <ele>2132</ele>
        <time>2026-06-20T11:00:43.000Z</time>
        <extensions>
          <ns3:TrackPointExtension>
            <ns3:atemp>22.0</ns3:atemp>
          </ns3:TrackPointExtension>
        </extensions>
      </trkpt>
      <trkpt lat="42.50035260803997516632080078125" lon="20.1696310937404632568359375">
        <ele>2132</ele>
        <time>2026-06-20T11:00:44.000Z</time>
        <extensions>
          <ns3:TrackPointExtension>
            <ns3:atemp>22.0</ns3:atemp>
          </ns3:TrackPointExtension>
        </extensions>
      </trkpt>
      <trkpt lat="42.50035260803997516632080078125" lon="20.1696310937404632568359375">
        <ele>2132</ele>
        <time>2026-06-20T11:00:45.000Z</time>
        <extensions>
          <ns3:TrackPointExtension>
            <ns3:atemp>22.0</ns3:atemp>
          </ns3:TrackPointExtension>
        </extensions>
      </trkpt>
      <trkpt lat="42.50035260803997516632080078125" lon="20.1696310937404632568359375">
        <ele>2132</ele>
        <time>2026-06-20T11:00:46.000Z</time>
        <extensions>
          <ns3:TrackPointExtension>
            <ns3:atemp>22.0</ns3:atemp>
          </ns3:TrackPointExtension>
        </extensions>
      </trkpt>
      <trkpt lat="42.50035260803997516632080078125" lon="20.1696310937404632568359375">
        <ele>2132</ele>
        <time>2026-06-20T11:00:47.000Z</time>
        <extensions>
          <ns3:TrackPointExtension>
            <ns3:atemp>22.0</ns3:atemp>
          </ns3:TrackPointExtension>
        </extensions>
      </trkpt>
      <trkpt lat="42.50035260803997516632080078125" lon="20.1696310937404632568359375">
        <ele>2132</ele>
        <time>2026-06-20T11:00:48.000Z</time>
        <extensions>
          <ns3:TrackPointExtension>
            <ns3:atemp>22.0</ns3:atemp>
          </ns3:TrackPointExtension>
        </extensions>
      </trkpt>
      <trkpt lat="42.50035260803997516632080078125" lon="20.1696310937404632568359375">
        <ele>2132</ele>
        <time>2026-06-20T11:00:49.000Z</time>
        <extensions>
          <ns3:TrackPointExtension>
            <ns3:atemp>22.0</ns3:atemp>
          </ns3:TrackPointExtension>
        </extensions>
      </trkpt>
      <trkpt lat="42.50035260803997516632080078125" lon="20.1696310937404632568359375">
        <ele>2132</ele>
        <time>2026-06-20T11:00:50.000Z</time>
        <extensions>
          <ns3:TrackPointExtension>
            <ns3:atemp>22.0</ns3:atemp>
          </ns3:TrackPointExtension>
        </extensions>
      </trkpt>
      <trkpt lat="42.50035260803997516632080078125" lon="20.1696310937404632568359375">
        <ele>2132</ele>
        <time>2026-06-20T11:00:51.000Z</time>
        <extensions>
          <ns3:TrackPointExtension>
            <ns3:atemp>22.0</ns3:atemp>
          </ns3:TrackPointExtension>
        </extensions>
      </trkpt>
      <trkpt lat="42.50035260803997516632080078125" lon="20.1696310937404632568359375">
        <ele>2132</ele>
        <time>2026-06-20T11:00:52.000Z</time>
        <extensions>
          <ns3:TrackPointExtension>
            <ns3:atemp>22.0</ns3:atemp>
          </ns3:TrackPointExtension>
        </extensions>
      </trkpt>
      <trkpt lat="42.50035260803997516632080078125" lon="20.1696310937404632568359375">
        <ele>2132</ele>
        <time>2026-06-20T11:00:53.000Z</time>
        <extensions>
          <ns3:TrackPointExtension>
            <ns3:atemp>22.0</ns3:atemp>
          </ns3:TrackPointExtension>
        </extensions>
      </trkpt>
      <trkpt lat="42.50035260803997516632080078125" lon="20.1696310937404632568359375">
        <ele>2132</ele>
        <time>2026-06-20T11:00:54.000Z</time>
        <extensions>
          <ns3:TrackPointExtension>
            <ns3:atemp>22.0</ns3:atemp>
          </ns3:TrackPointExtension>
        </extensions>
      </trkpt>
      <trkpt lat="42.50035260803997516632080078125" lon="20.1696310937404632568359375">
        <ele>2132</ele>
        <time>2026-06-20T11:00:55.000Z</time>
        <extensions>
          <ns3:TrackPointExtension>
            <ns3:atemp>22.0</ns3:atemp>
          </ns3:TrackPointExtension>
        </extensions>
      </trkpt>
      <trkpt lat="42.50035260803997516632080078125" lon="20.1696310937404632568359375">
        <ele>2132</ele>
        <time>2026-06-20T11:00:56.000Z</time>
        <extensions>
          <ns3:TrackPointExtension>
            <ns3:atemp>22.0</ns3:atemp>
          </ns3:TrackPointExtension>
        </extensions>
      </trkpt>
      <trkpt lat="42.50035260803997516632080078125" lon="20.1696310937404632568359375">
        <ele>2132</ele>
        <time>2026-06-20T11:00:57.000Z</time>
        <extensions>
          <ns3:TrackPointExtension>
            <ns3:atemp>22.0</ns3:atemp>
          </ns3:TrackPointExtension>
        </extensions>
      </trkpt>
      <trkpt lat="42.50035260803997516632080078125" lon="20.1696310937404632568359375">
        <ele>2132</ele>
        <time>2026-06-20T11:00:58.000Z</time>
        <extensions>
          <ns3:TrackPointExtension>
            <ns3:atemp>22.0</ns3:atemp>
          </ns3:TrackPointExtension>
        </extensions>
      </trkpt>
      <trkpt lat="42.50035260803997516632080078125" lon="20.1696310937404632568359375">
        <ele>2132</ele>
        <time>2026-06-20T11:00:59.000Z</time>
        <extensions>
          <ns3:TrackPointExtension>
            <ns3:atemp>22.0</ns3:atemp>
          </ns3:TrackPointExtension>
        </extensions>
      </trkpt>
      <trkpt lat="42.50035260803997516632080078125" lon="20.1696310937404632568359375">
        <ele>2132</ele>
        <time>2026-06-20T11:01:00.000Z</time>
        <extensions>
          <ns3:TrackPointExtension>
            <ns3:atemp>22.0</ns3:atemp>
          </ns3:TrackPointExtension>
        </extensions>
      </trkpt>
      <trkpt lat="42.50035260803997516632080078125" lon="20.1696310937404632568359375">
        <ele>2132</ele>
        <time>2026-06-20T11:01:01.000Z</time>
        <extensions>
          <ns3:TrackPointExtension>
            <ns3:atemp>22.0</ns3:atemp>
          </ns3:TrackPointExtension>
        </extensions>
      </trkpt>
      <trkpt lat="42.50035260803997516632080078125" lon="20.1696310937404632568359375">
        <ele>2132</ele>
        <time>2026-06-20T11:01:02.000Z</time>
        <extensions>
          <ns3:TrackPointExtension>
            <ns3:atemp>22.0</ns3:atemp>
          </ns3:TrackPointExtension>
        </extensions>
      </trkpt>
      <trkpt lat="42.50035260803997516632080078125" lon="20.1696310937404632568359375">
        <ele>2132</ele>
        <time>2026-06-20T11:01:03.000Z</time>
        <extensions>
          <ns3:TrackPointExtension>
            <ns3:atemp>22.0</ns3:atemp>
          </ns3:TrackPointExtension>
        </extensions>
      </trkpt>
      <trkpt lat="42.50035260803997516632080078125" lon="20.1696310937404632568359375">
        <ele>2132</ele>
        <time>2026-06-20T11:01:04.000Z</time>
        <extensions>
          <ns3:TrackPointExtension>
            <ns3:atemp>22.0</ns3:atemp>
          </ns3:TrackPointExtension>
        </extensions>
      </trkpt>
      <trkpt lat="42.50035260803997516632080078125" lon="20.1696310937404632568359375">
        <ele>2132</ele>
        <time>2026-06-20T11:01:05.000Z</time>
        <extensions>
          <ns3:TrackPointExtension>
            <ns3:atemp>22.0</ns3:atemp>
          </ns3:TrackPointExtension>
        </extensions>
      </trkpt>
      <trkpt lat="42.50035260803997516632080078125" lon="20.1696310937404632568359375">
        <ele>2132</ele>
        <time>2026-06-20T11:01:06.000Z</time>
        <extensions>
          <ns3:TrackPointExtension>
            <ns3:atemp>22.0</ns3:atemp>
          </ns3:TrackPointExtension>
        </extensions>
      </trkpt>
      <trkpt lat="42.50035260803997516632080078125" lon="20.1696310937404632568359375">
        <ele>2132</ele>
        <time>2026-06-20T11:01:07.000Z</time>
        <extensions>
          <ns3:TrackPointExtension>
            <ns3:atemp>22.0</ns3:atemp>
          </ns3:TrackPointExtension>
        </extensions>
      </trkpt>
      <trkpt lat="42.50035260803997516632080078125" lon="20.1696310937404632568359375">
        <ele>2132</ele>
        <time>2026-06-20T11:01:08.000Z</time>
        <extensions>
          <ns3:TrackPointExtension>
            <ns3:atemp>22.0</ns3:atemp>
          </ns3:TrackPointExtension>
        </extensions>
      </trkpt>
      <trkpt lat="42.50035260803997516632080078125" lon="20.1696310937404632568359375">
        <ele>2132</ele>
        <time>2026-06-20T11:01:09.000Z</time>
        <extensions>
          <ns3:TrackPointExtension>
            <ns3:atemp>22.0</ns3:atemp>
          </ns3:TrackPointExtension>
        </extensions>
      </trkpt>
      <trkpt lat="42.50035260803997516632080078125" lon="20.1696310937404632568359375">
        <ele>2132</ele>
        <time>2026-06-20T11:01:10.000Z</time>
        <extensions>
          <ns3:TrackPointExtension>
            <ns3:atemp>22.0</ns3:atemp>
          </ns3:TrackPointExtension>
        </extensions>
      </trkpt>
      <trkpt lat="42.50035260803997516632080078125" lon="20.1696310937404632568359375">
        <ele>2132</ele>
        <time>2026-06-20T11:01:11.000Z</time>
        <extensions>
          <ns3:TrackPointExtension>
            <ns3:atemp>22.0</ns3:atemp>
          </ns3:TrackPointExtension>
        </extensions>
      </trkpt>
      <trkpt lat="42.50035260803997516632080078125" lon="20.1696310937404632568359375">
        <ele>2132</ele>
        <time>2026-06-20T11:01:12.000Z</time>
        <extensions>
          <ns3:TrackPointExtension>
            <ns3:atemp>22.0</ns3:atemp>
          </ns3:TrackPointExtension>
        </extensions>
      </trkpt>
      <trkpt lat="42.50035260803997516632080078125" lon="20.1696310937404632568359375">
        <ele>2132</ele>
        <time>2026-06-20T11:01:13.000Z</time>
        <extensions>
          <ns3:TrackPointExtension>
            <ns3:atemp>22.0</ns3:atemp>
          </ns3:TrackPointExtension>
        </extensions>
      </trkpt>
      <trkpt lat="42.50035260803997516632080078125" lon="20.1696310937404632568359375">
        <ele>2132</ele>
        <time>2026-06-20T11:01:14.000Z</time>
        <extensions>
          <ns3:TrackPointExtension>
            <ns3:atemp>22.0</ns3:atemp>
          </ns3:TrackPointExtension>
        </extensions>
      </trkpt>
      <trkpt lat="42.50035260803997516632080078125" lon="20.1696310937404632568359375">
        <ele>2132</ele>
        <time>2026-06-20T11:01:15.000Z</time>
        <extensions>
          <ns3:TrackPointExtension>
            <ns3:atemp>22.0</ns3:atemp>
          </ns3:TrackPointExtension>
        </extensions>
      </trkpt>
      <trkpt lat="42.50035260803997516632080078125" lon="20.1696310937404632568359375">
        <ele>2132</ele>
        <time>2026-06-20T11:01:16.000Z</time>
        <extensions>
          <ns3:TrackPointExtension>
            <ns3:atemp>22.0</ns3:atemp>
          </ns3:TrackPointExtension>
        </extensions>
      </trkpt>
      <trkpt lat="42.50035260803997516632080078125" lon="20.1696310937404632568359375">
        <ele>2132</ele>
        <time>2026-06-20T11:01:17.000Z</time>
        <extensions>
          <ns3:TrackPointExtension>
            <ns3:atemp>22.0</ns3:atemp>
          </ns3:TrackPointExtension>
        </extensions>
      </trkpt>
      <trkpt lat="42.50035260803997516632080078125" lon="20.1696310937404632568359375">
        <ele>2132</ele>
        <time>2026-06-20T11:01:18.000Z</time>
        <extensions>
          <ns3:TrackPointExtension>
            <ns3:atemp>22.0</ns3:atemp>
          </ns3:TrackPointExtension>
        </extensions>
      </trkpt>
      <trkpt lat="42.50035260803997516632080078125" lon="20.1696310937404632568359375">
        <ele>2132</ele>
        <time>2026-06-20T11:01:19.000Z</time>
        <extensions>
          <ns3:TrackPointExtension>
            <ns3:atemp>22.0</ns3:atemp>
          </ns3:TrackPointExtension>
        </extensions>
      </trkpt>
      <trkpt lat="42.50035260803997516632080078125" lon="20.1696310937404632568359375">
        <ele>2132</ele>
        <time>2026-06-20T11:01:20.000Z</time>
        <extensions>
          <ns3:TrackPointExtension>
            <ns3:atemp>22.0</ns3:atemp>
          </ns3:TrackPointExtension>
        </extensions>
      </trkpt>
      <trkpt lat="42.50035260803997516632080078125" lon="20.1696310937404632568359375">
        <ele>2132</ele>
        <time>2026-06-20T11:01:21.000Z</time>
        <extensions>
          <ns3:TrackPointExtension>
            <ns3:atemp>22.0</ns3:atemp>
          </ns3:TrackPointExtension>
        </extensions>
      </trkpt>
      <trkpt lat="42.50035260803997516632080078125" lon="20.1696310937404632568359375">
        <ele>2132</ele>
        <time>2026-06-20T11:01:22.000Z</time>
        <extensions>
          <ns3:TrackPointExtension>
            <ns3:atemp>22.0</ns3:atemp>
          </ns3:TrackPointExtension>
        </extensions>
      </trkpt>
      <trkpt lat="42.50035260803997516632080078125" lon="20.1696310937404632568359375">
        <ele>2132</ele>
        <time>2026-06-20T11:01:23.000Z</time>
        <extensions>
          <ns3:TrackPointExtension>
            <ns3:atemp>22.0</ns3:atemp>
          </ns3:TrackPointExtension>
        </extensions>
      </trkpt>
      <trkpt lat="42.50035260803997516632080078125" lon="20.1696310937404632568359375">
        <ele>2132</ele>
        <time>2026-06-20T11:01:24.000Z</time>
        <extensions>
          <ns3:TrackPointExtension>
            <ns3:atemp>22.0</ns3:atemp>
          </ns3:TrackPointExtension>
        </extensions>
      </trkpt>
      <trkpt lat="42.50035260803997516632080078125" lon="20.1696310937404632568359375">
        <ele>2132</ele>
        <time>2026-06-20T11:01:25.000Z</time>
        <extensions>
          <ns3:TrackPointExtension>
            <ns3:atemp>22.0</ns3:atemp>
          </ns3:TrackPointExtension>
        </extensions>
      </trkpt>
      <trkpt lat="42.50035260803997516632080078125" lon="20.1696310937404632568359375">
        <ele>2132</ele>
        <time>2026-06-20T11:01:26.000Z</time>
        <extensions>
          <ns3:TrackPointExtension>
            <ns3:atemp>22.0</ns3:atemp>
          </ns3:TrackPointExtension>
        </extensions>
      </trkpt>
      <trkpt lat="42.50035260803997516632080078125" lon="20.1696310937404632568359375">
        <ele>2132</ele>
        <time>2026-06-20T11:01:27.000Z</time>
        <extensions>
          <ns3:TrackPointExtension>
            <ns3:atemp>22.0</ns3:atemp>
          </ns3:TrackPointExtension>
        </extensions>
      </trkpt>
      <trkpt lat="42.50035260803997516632080078125" lon="20.1696310937404632568359375">
        <ele>2132</ele>
        <time>2026-06-20T11:01:28.000Z</time>
        <extensions>
          <ns3:TrackPointExtension>
            <ns3:atemp>22.0</ns3:atemp>
          </ns3:TrackPointExtension>
        </extensions>
      </trkpt>
      <trkpt lat="42.50035260803997516632080078125" lon="20.1696310937404632568359375">
        <ele>2132</ele>
        <time>2026-06-20T11:01:29.000Z</time>
        <extensions>
          <ns3:TrackPointExtension>
            <ns3:atemp>22.0</ns3:atemp>
          </ns3:TrackPointExtension>
        </extensions>
      </trkpt>
      <trkpt lat="42.50035260803997516632080078125" lon="20.1696310937404632568359375">
        <ele>2132</ele>
        <time>2026-06-20T11:01:30.000Z</time>
        <extensions>
          <ns3:TrackPointExtension>
            <ns3:atemp>22.0</ns3:atemp>
          </ns3:TrackPointExtension>
        </extensions>
      </trkpt>
      <trkpt lat="42.50035260803997516632080078125" lon="20.1696310937404632568359375">
        <ele>2132</ele>
        <time>2026-06-20T11:01:31.000Z</time>
        <extensions>
          <ns3:TrackPointExtension>
            <ns3:atemp>22.0</ns3:atemp>
          </ns3:TrackPointExtension>
        </extensions>
      </trkpt>
      <trkpt lat="42.50035260803997516632080078125" lon="20.1696310937404632568359375">
        <ele>2132</ele>
        <time>2026-06-20T11:01:32.000Z</time>
        <extensions>
          <ns3:TrackPointExtension>
            <ns3:atemp>22.0</ns3:atemp>
          </ns3:TrackPointExtension>
        </extensions>
      </trkpt>
      <trkpt lat="42.50035260803997516632080078125" lon="20.1696310937404632568359375">
        <ele>2132</ele>
        <time>2026-06-20T11:01:33.000Z</time>
        <extensions>
          <ns3:TrackPointExtension>
            <ns3:atemp>22.0</ns3:atemp>
          </ns3:TrackPointExtension>
        </extensions>
      </trkpt>
      <trkpt lat="42.50035260803997516632080078125" lon="20.1696310937404632568359375">
        <ele>2132</ele>
        <time>2026-06-20T11:01:34.000Z</time>
        <extensions>
          <ns3:TrackPointExtension>
            <ns3:atemp>22.0</ns3:atemp>
          </ns3:TrackPointExtension>
        </extensions>
      </trkpt>
      <trkpt lat="42.50035260803997516632080078125" lon="20.1696310937404632568359375">
        <ele>2132</ele>
        <time>2026-06-20T11:01:35.000Z</time>
        <extensions>
          <ns3:TrackPointExtension>
            <ns3:atemp>22.0</ns3:atemp>
          </ns3:TrackPointExtension>
        </extensions>
      </trkpt>
      <trkpt lat="42.50035260803997516632080078125" lon="20.1696310937404632568359375">
        <ele>2132</ele>
        <time>2026-06-20T11:01:36.000Z</time>
        <extensions>
          <ns3:TrackPointExtension>
            <ns3:atemp>22.0</ns3:atemp>
          </ns3:TrackPointExtension>
        </extensions>
      </trkpt>
      <trkpt lat="42.50035260803997516632080078125" lon="20.1696310937404632568359375">
        <ele>2132</ele>
        <time>2026-06-20T11:01:37.000Z</time>
        <extensions>
          <ns3:TrackPointExtension>
            <ns3:atemp>22.0</ns3:atemp>
          </ns3:TrackPointExtension>
        </extensions>
      </trkpt>
      <trkpt lat="42.50035260803997516632080078125" lon="20.1696310937404632568359375">
        <ele>2132</ele>
        <time>2026-06-20T11:01:38.000Z</time>
        <extensions>
          <ns3:TrackPointExtension>
            <ns3:atemp>22.0</ns3:atemp>
          </ns3:TrackPointExtension>
        </extensions>
      </trkpt>
      <trkpt lat="42.50035260803997516632080078125" lon="20.1696310937404632568359375">
        <ele>2132</ele>
        <time>2026-06-20T11:01:39.000Z</time>
        <extensions>
          <ns3:TrackPointExtension>
            <ns3:atemp>22.0</ns3:atemp>
          </ns3:TrackPointExtension>
        </extensions>
      </trkpt>
      <trkpt lat="42.50035260803997516632080078125" lon="20.1696310937404632568359375">
        <ele>2132</ele>
        <time>2026-06-20T11:01:40.000Z</time>
        <extensions>
          <ns3:TrackPointExtension>
            <ns3:atemp>22.0</ns3:atemp>
          </ns3:TrackPointExtension>
        </extensions>
      </trkpt>
      <trkpt lat="42.50035260803997516632080078125" lon="20.1696310937404632568359375">
        <ele>2132</ele>
        <time>2026-06-20T11:01:41.000Z</time>
        <extensions>
          <ns3:TrackPointExtension>
            <ns3:atemp>22.0</ns3:atemp>
          </ns3:TrackPointExtension>
        </extensions>
      </trkpt>
      <trkpt lat="42.50035260803997516632080078125" lon="20.1696310937404632568359375">
        <ele>2132</ele>
        <time>2026-06-20T11:01:42.000Z</time>
        <extensions>
          <ns3:TrackPointExtension>
            <ns3:atemp>22.0</ns3:atemp>
          </ns3:TrackPointExtension>
        </extensions>
      </trkpt>
      <trkpt lat="42.50035260803997516632080078125" lon="20.1696310937404632568359375">
        <ele>2132</ele>
        <time>2026-06-20T11:01:43.000Z</time>
        <extensions>
          <ns3:TrackPointExtension>
            <ns3:atemp>22.0</ns3:atemp>
          </ns3:TrackPointExtension>
        </extensions>
      </trkpt>
      <trkpt lat="42.50035260803997516632080078125" lon="20.1696310937404632568359375">
        <ele>2132</ele>
        <time>2026-06-20T11:01:44.000Z</time>
        <extensions>
          <ns3:TrackPointExtension>
            <ns3:atemp>22.0</ns3:atemp>
          </ns3:TrackPointExtension>
        </extensions>
      </trkpt>
      <trkpt lat="42.50035260803997516632080078125" lon="20.1696310937404632568359375">
        <ele>2132</ele>
        <time>2026-06-20T11:01:45.000Z</time>
        <extensions>
          <ns3:TrackPointExtension>
            <ns3:atemp>22.0</ns3:atemp>
          </ns3:TrackPointExtension>
        </extensions>
      </trkpt>
      <trkpt lat="42.50035260803997516632080078125" lon="20.1696310937404632568359375">
        <ele>2132</ele>
        <time>2026-06-20T11:01:46.000Z</time>
        <extensions>
          <ns3:TrackPointExtension>
            <ns3:atemp>22.0</ns3:atemp>
          </ns3:TrackPointExtension>
        </extensions>
      </trkpt>
      <trkpt lat="42.50035260803997516632080078125" lon="20.1696310937404632568359375">
        <ele>2132</ele>
        <time>2026-06-20T11:01:47.000Z</time>
        <extensions>
          <ns3:TrackPointExtension>
            <ns3:atemp>22.0</ns3:atemp>
          </ns3:TrackPointExtension>
        </extensions>
      </trkpt>
      <trkpt lat="42.50035260803997516632080078125" lon="20.1696310937404632568359375">
        <ele>2132</ele>
        <time>2026-06-20T11:01:48.000Z</time>
        <extensions>
          <ns3:TrackPointExtension>
            <ns3:atemp>22.0</ns3:atemp>
          </ns3:TrackPointExtension>
        </extensions>
      </trkpt>
      <trkpt lat="42.50035260803997516632080078125" lon="20.1696310937404632568359375">
        <ele>2132</ele>
        <time>2026-06-20T11:01:49.000Z</time>
        <extensions>
          <ns3:TrackPointExtension>
            <ns3:atemp>22.0</ns3:atemp>
          </ns3:TrackPointExtension>
        </extensions>
      </trkpt>
      <trkpt lat="42.50035260803997516632080078125" lon="20.1696310937404632568359375">
        <ele>2132</ele>
        <time>2026-06-20T11:01:50.000Z</time>
        <extensions>
          <ns3:TrackPointExtension>
            <ns3:atemp>22.0</ns3:atemp>
          </ns3:TrackPointExtension>
        </extensions>
      </trkpt>
      <trkpt lat="42.50035260803997516632080078125" lon="20.1696310937404632568359375">
        <ele>2132</ele>
        <time>2026-06-20T11:01:51.000Z</time>
        <extensions>
          <ns3:TrackPointExtension>
            <ns3:atemp>22.0</ns3:atemp>
          </ns3:TrackPointExtension>
        </extensions>
      </trkpt>
      <trkpt lat="42.50035260803997516632080078125" lon="20.1696310937404632568359375">
        <ele>2132</ele>
        <time>2026-06-20T11:01:52.000Z</time>
        <extensions>
          <ns3:TrackPointExtension>
            <ns3:atemp>22.0</ns3:atemp>
          </ns3:TrackPointExtension>
        </extensions>
      </trkpt>
      <trkpt lat="42.50035260803997516632080078125" lon="20.1696310937404632568359375">
        <ele>2132</ele>
        <time>2026-06-20T11:01:53.000Z</time>
        <extensions>
          <ns3:TrackPointExtension>
            <ns3:atemp>22.0</ns3:atemp>
          </ns3:TrackPointExtension>
        </extensions>
      </trkpt>
      <trkpt lat="42.50035260803997516632080078125" lon="20.1696310937404632568359375">
        <ele>2132</ele>
        <time>2026-06-20T11:01:54.000Z</time>
        <extensions>
          <ns3:TrackPointExtension>
            <ns3:atemp>22.0</ns3:atemp>
          </ns3:TrackPointExtension>
        </extensions>
      </trkpt>
      <trkpt lat="42.50035260803997516632080078125" lon="20.1696310937404632568359375">
        <ele>2132</ele>
        <time>2026-06-20T11:01:55.000Z</time>
        <extensions>
          <ns3:TrackPointExtension>
            <ns3:atemp>22.0</ns3:atemp>
          </ns3:TrackPointExtension>
        </extensions>
      </trkpt>
      <trkpt lat="42.50035260803997516632080078125" lon="20.1696310937404632568359375">
        <ele>2132</ele>
        <time>2026-06-20T11:01:56.000Z</time>
        <extensions>
          <ns3:TrackPointExtension>
            <ns3:atemp>22.0</ns3:atemp>
          </ns3:TrackPointExtension>
        </extensions>
      </trkpt>
      <trkpt lat="42.50035260803997516632080078125" lon="20.1696310937404632568359375">
        <ele>2132</ele>
        <time>2026-06-20T11:01:57.000Z</time>
        <extensions>
          <ns3:TrackPointExtension>
            <ns3:atemp>22.0</ns3:atemp>
          </ns3:TrackPointExtension>
        </extensions>
      </trkpt>
      <trkpt lat="42.50035260803997516632080078125" lon="20.1696310937404632568359375">
        <ele>2132</ele>
        <time>2026-06-20T11:01:58.000Z</time>
        <extensions>
          <ns3:TrackPointExtension>
            <ns3:atemp>22.0</ns3:atemp>
          </ns3:TrackPointExtension>
        </extensions>
      </trkpt>
      <trkpt lat="42.50035260803997516632080078125" lon="20.1696310937404632568359375">
        <ele>2132</ele>
        <time>2026-06-20T11:01:59.000Z</time>
        <extensions>
          <ns3:TrackPointExtension>
            <ns3:atemp>22.0</ns3:atemp>
          </ns3:TrackPointExtension>
        </extensions>
      </trkpt>
      <trkpt lat="42.50035260803997516632080078125" lon="20.1696310937404632568359375">
        <ele>2132</ele>
        <time>2026-06-20T11:02:00.000Z</time>
        <extensions>
          <ns3:TrackPointExtension>
            <ns3:atemp>22.0</ns3:atemp>
          </ns3:TrackPointExtension>
        </extensions>
      </trkpt>
      <trkpt lat="42.50035260803997516632080078125" lon="20.1696310937404632568359375">
        <ele>2132</ele>
        <time>2026-06-20T11:02:01.000Z</time>
        <extensions>
          <ns3:TrackPointExtension>
            <ns3:atemp>22.0</ns3:atemp>
          </ns3:TrackPointExtension>
        </extensions>
      </trkpt>
      <trkpt lat="42.50035260803997516632080078125" lon="20.1696310937404632568359375">
        <ele>2132</ele>
        <time>2026-06-20T11:02:02.000Z</time>
        <extensions>
          <ns3:TrackPointExtension>
            <ns3:atemp>22.0</ns3:atemp>
          </ns3:TrackPointExtension>
        </extensions>
      </trkpt>
      <trkpt lat="42.50035260803997516632080078125" lon="20.1696310937404632568359375">
        <ele>2132</ele>
        <time>2026-06-20T11:02:03.000Z</time>
        <extensions>
          <ns3:TrackPointExtension>
            <ns3:atemp>22.0</ns3:atemp>
          </ns3:TrackPointExtension>
        </extensions>
      </trkpt>
      <trkpt lat="42.50035260803997516632080078125" lon="20.1696310937404632568359375">
        <ele>2132</ele>
        <time>2026-06-20T11:02:04.000Z</time>
        <extensions>
          <ns3:TrackPointExtension>
            <ns3:atemp>22.0</ns3:atemp>
          </ns3:TrackPointExtension>
        </extensions>
      </trkpt>
      <trkpt lat="42.50035260803997516632080078125" lon="20.1696310937404632568359375">
        <ele>2132</ele>
        <time>2026-06-20T11:02:05.000Z</time>
        <extensions>
          <ns3:TrackPointExtension>
            <ns3:atemp>22.0</ns3:atemp>
          </ns3:TrackPointExtension>
        </extensions>
      </trkpt>
      <trkpt lat="42.50035260803997516632080078125" lon="20.1696310937404632568359375">
        <ele>2132</ele>
        <time>2026-06-20T11:02:06.000Z</time>
        <extensions>
          <ns3:TrackPointExtension>
            <ns3:atemp>22.0</ns3:atemp>
          </ns3:TrackPointExtension>
        </extensions>
      </trkpt>
      <trkpt lat="42.50035260803997516632080078125" lon="20.1696310937404632568359375">
        <ele>2132</ele>
        <time>2026-06-20T11:02:07.000Z</time>
        <extensions>
          <ns3:TrackPointExtension>
            <ns3:atemp>22.0</ns3:atemp>
          </ns3:TrackPointExtension>
        </extensions>
      </trkpt>
      <trkpt lat="42.50035260803997516632080078125" lon="20.1696310937404632568359375">
        <ele>2132</ele>
        <time>2026-06-20T11:02:08.000Z</time>
        <extensions>
          <ns3:TrackPointExtension>
            <ns3:atemp>22.0</ns3:atemp>
          </ns3:TrackPointExtension>
        </extensions>
      </trkpt>
      <trkpt lat="42.50035260803997516632080078125" lon="20.1696310937404632568359375">
        <ele>2132</ele>
        <time>2026-06-20T11:02:09.000Z</time>
        <extensions>
          <ns3:TrackPointExtension>
            <ns3:atemp>22.0</ns3:atemp>
          </ns3:TrackPointExtension>
        </extensions>
      </trkpt>
      <trkpt lat="42.50035260803997516632080078125" lon="20.1696310937404632568359375">
        <ele>2132</ele>
        <time>2026-06-20T11:02:10.000Z</time>
        <extensions>
          <ns3:TrackPointExtension>
            <ns3:atemp>22.0</ns3:atemp>
          </ns3:TrackPointExtension>
        </extensions>
      </trkpt>
      <trkpt lat="42.50035260803997516632080078125" lon="20.1696310937404632568359375">
        <ele>2132</ele>
        <time>2026-06-20T11:02:11.000Z</time>
        <extensions>
          <ns3:TrackPointExtension>
            <ns3:atemp>22.0</ns3:atemp>
          </ns3:TrackPointExtension>
        </extensions>
      </trkpt>
      <trkpt lat="42.50035260803997516632080078125" lon="20.1696310937404632568359375">
        <ele>2132</ele>
        <time>2026-06-20T11:02:12.000Z</time>
        <extensions>
          <ns3:TrackPointExtension>
            <ns3:atemp>22.0</ns3:atemp>
          </ns3:TrackPointExtension>
        </extensions>
      </trkpt>
      <trkpt lat="42.50035260803997516632080078125" lon="20.1696310937404632568359375">
        <ele>2132</ele>
        <time>2026-06-20T11:02:13.000Z</time>
        <extensions>
          <ns3:TrackPointExtension>
            <ns3:atemp>22.0</ns3:atemp>
          </ns3:TrackPointExtension>
        </extensions>
      </trkpt>
      <trkpt lat="42.50035260803997516632080078125" lon="20.1696310937404632568359375">
        <ele>2132</ele>
        <time>2026-06-20T11:02:14.000Z</time>
        <extensions>
          <ns3:TrackPointExtension>
            <ns3:atemp>22.0</ns3:atemp>
          </ns3:TrackPointExtension>
        </extensions>
      </trkpt>
      <trkpt lat="42.50035260803997516632080078125" lon="20.1696310937404632568359375">
        <ele>2132</ele>
        <time>2026-06-20T11:02:15.000Z</time>
        <extensions>
          <ns3:TrackPointExtension>
            <ns3:atemp>22.0</ns3:atemp>
          </ns3:TrackPointExtension>
        </extensions>
      </trkpt>
      <trkpt lat="42.50035260803997516632080078125" lon="20.1696310937404632568359375">
        <ele>2132</ele>
        <time>2026-06-20T11:02:16.000Z</time>
        <extensions>
          <ns3:TrackPointExtension>
            <ns3:atemp>22.0</ns3:atemp>
          </ns3:TrackPointExtension>
        </extensions>
      </trkpt>
      <trkpt lat="42.50035260803997516632080078125" lon="20.1696310937404632568359375">
        <ele>2132</ele>
        <time>2026-06-20T11:02:17.000Z</time>
        <extensions>
          <ns3:TrackPointExtension>
            <ns3:atemp>22.0</ns3:atemp>
          </ns3:TrackPointExtension>
        </extensions>
      </trkpt>
      <trkpt lat="42.50035260803997516632080078125" lon="20.1696310937404632568359375">
        <ele>2132</ele>
        <time>2026-06-20T11:02:18.000Z</time>
        <extensions>
          <ns3:TrackPointExtension>
            <ns3:atemp>22.0</ns3:atemp>
          </ns3:TrackPointExtension>
        </extensions>
      </trkpt>
      <trkpt lat="42.50035260803997516632080078125" lon="20.1696310937404632568359375">
        <ele>2132</ele>
        <time>2026-06-20T11:02:19.000Z</time>
        <extensions>
          <ns3:TrackPointExtension>
            <ns3:atemp>22.0</ns3:atemp>
          </ns3:TrackPointExtension>
        </extensions>
      </trkpt>
      <trkpt lat="42.50035260803997516632080078125" lon="20.1696310937404632568359375">
        <ele>2132</ele>
        <time>2026-06-20T11:02:20.000Z</time>
        <extensions>
          <ns3:TrackPointExtension>
            <ns3:atemp>22.0</ns3:atemp>
          </ns3:TrackPointExtension>
        </extensions>
      </trkpt>
      <trkpt lat="42.50035260803997516632080078125" lon="20.1696310937404632568359375">
        <ele>2132</ele>
        <time>2026-06-20T11:02:21.000Z</time>
        <extensions>
          <ns3:TrackPointExtension>
            <ns3:atemp>22.0</ns3:atemp>
          </ns3:TrackPointExtension>
        </extensions>
      </trkpt>
      <trkpt lat="42.50035260803997516632080078125" lon="20.1696310937404632568359375">
        <ele>2132</ele>
        <time>2026-06-20T11:02:22.000Z</time>
        <extensions>
          <ns3:TrackPointExtension>
            <ns3:atemp>22.0</ns3:atemp>
          </ns3:TrackPointExtension>
        </extensions>
      </trkpt>
      <trkpt lat="42.50035260803997516632080078125" lon="20.1696310937404632568359375">
        <ele>2132</ele>
        <time>2026-06-20T11:02:23.000Z</time>
        <extensions>
          <ns3:TrackPointExtension>
            <ns3:atemp>22.0</ns3:atemp>
          </ns3:TrackPointExtension>
        </extensions>
      </trkpt>
      <trkpt lat="42.50035260803997516632080078125" lon="20.1696310937404632568359375">
        <ele>2132</ele>
        <time>2026-06-20T11:02:24.000Z</time>
        <extensions>
          <ns3:TrackPointExtension>
            <ns3:atemp>22.0</ns3:atemp>
          </ns3:TrackPointExtension>
        </extensions>
      </trkpt>
      <trkpt lat="42.50035260803997516632080078125" lon="20.1696310937404632568359375">
        <ele>2132</ele>
        <time>2026-06-20T11:02:25.000Z</time>
        <extensions>
          <ns3:TrackPointExtension>
            <ns3:atemp>22.0</ns3:atemp>
          </ns3:TrackPointExtension>
        </extensions>
      </trkpt>
      <trkpt lat="42.50035260803997516632080078125" lon="20.1696310937404632568359375">
        <ele>2132</ele>
        <time>2026-06-20T11:02:26.000Z</time>
        <extensions>
          <ns3:TrackPointExtension>
            <ns3:atemp>22.0</ns3:atemp>
          </ns3:TrackPointExtension>
        </extensions>
      </trkpt>
      <trkpt lat="42.50035260803997516632080078125" lon="20.1696310937404632568359375">
        <ele>2132</ele>
        <time>2026-06-20T11:02:27.000Z</time>
        <extensions>
          <ns3:TrackPointExtension>
            <ns3:atemp>23.0</ns3:atemp>
          </ns3:TrackPointExtension>
        </extensions>
      </trkpt>
      <trkpt lat="42.50035260803997516632080078125" lon="20.1696310937404632568359375">
        <ele>2132</ele>
        <time>2026-06-20T11:02:28.000Z</time>
        <extensions>
          <ns3:TrackPointExtension>
            <ns3:atemp>23.0</ns3:atemp>
          </ns3:TrackPointExtension>
        </extensions>
      </trkpt>
      <trkpt lat="42.50035260803997516632080078125" lon="20.1696310937404632568359375">
        <ele>2132</ele>
        <time>2026-06-20T11:02:29.000Z</time>
        <extensions>
          <ns3:TrackPointExtension>
            <ns3:atemp>23.0</ns3:atemp>
          </ns3:TrackPointExtension>
        </extensions>
      </trkpt>
      <trkpt lat="42.50035260803997516632080078125" lon="20.1696310937404632568359375">
        <ele>2132</ele>
        <time>2026-06-20T11:02:30.000Z</time>
        <extensions>
          <ns3:TrackPointExtension>
            <ns3:atemp>23.0</ns3:atemp>
          </ns3:TrackPointExtension>
        </extensions>
      </trkpt>
      <trkpt lat="42.50035260803997516632080078125" lon="20.1696310937404632568359375">
        <ele>2132</ele>
        <time>2026-06-20T11:02:31.000Z</time>
        <extensions>
          <ns3:TrackPointExtension>
            <ns3:atemp>23.0</ns3:atemp>
          </ns3:TrackPointExtension>
        </extensions>
      </trkpt>
      <trkpt lat="42.50035260803997516632080078125" lon="20.1696310937404632568359375">
        <ele>2132</ele>
        <time>2026-06-20T11:02:32.000Z</time>
        <extensions>
          <ns3:TrackPointExtension>
            <ns3:atemp>23.0</ns3:atemp>
          </ns3:TrackPointExtension>
        </extensions>
      </trkpt>
      <trkpt lat="42.50035260803997516632080078125" lon="20.1696310937404632568359375">
        <ele>2132</ele>
        <time>2026-06-20T11:02:33.000Z</time>
        <extensions>
          <ns3:TrackPointExtension>
            <ns3:atemp>23.0</ns3:atemp>
          </ns3:TrackPointExtension>
        </extensions>
      </trkpt>
      <trkpt lat="42.50035260803997516632080078125" lon="20.1696310937404632568359375">
        <ele>2132</ele>
        <time>2026-06-20T11:02:34.000Z</time>
        <extensions>
          <ns3:TrackPointExtension>
            <ns3:atemp>23.0</ns3:atemp>
          </ns3:TrackPointExtension>
        </extensions>
      </trkpt>
      <trkpt lat="42.50035260803997516632080078125" lon="20.1696310937404632568359375">
        <ele>2132</ele>
        <time>2026-06-20T11:02:35.000Z</time>
        <extensions>
          <ns3:TrackPointExtension>
            <ns3:atemp>23.0</ns3:atemp>
          </ns3:TrackPointExtension>
        </extensions>
      </trkpt>
      <trkpt lat="42.50035260803997516632080078125" lon="20.1696310937404632568359375">
        <ele>2132</ele>
        <time>2026-06-20T11:02:36.000Z</time>
        <extensions>
          <ns3:TrackPointExtension>
            <ns3:atemp>23.0</ns3:atemp>
          </ns3:TrackPointExtension>
        </extensions>
      </trkpt>
      <trkpt lat="42.50035260803997516632080078125" lon="20.1696310937404632568359375">
        <ele>2132</ele>
        <time>2026-06-20T11:02:37.000Z</time>
        <extensions>
          <ns3:TrackPointExtension>
            <ns3:atemp>23.0</ns3:atemp>
          </ns3:TrackPointExtension>
        </extensions>
      </trkpt>
      <trkpt lat="42.50035260803997516632080078125" lon="20.1696310937404632568359375">
        <ele>2132</ele>
        <time>2026-06-20T11:02:38.000Z</time>
        <extensions>
          <ns3:TrackPointExtension>
            <ns3:atemp>23.0</ns3:atemp>
          </ns3:TrackPointExtension>
        </extensions>
      </trkpt>
      <trkpt lat="42.50035260803997516632080078125" lon="20.1696310937404632568359375">
        <ele>2132</ele>
        <time>2026-06-20T11:02:39.000Z</time>
        <extensions>
          <ns3:TrackPointExtension>
            <ns3:atemp>23.0</ns3:atemp>
          </ns3:TrackPointExtension>
        </extensions>
      </trkpt>
      <trkpt lat="42.50035260803997516632080078125" lon="20.1696310937404632568359375">
        <ele>2132</ele>
        <time>2026-06-20T11:02:40.000Z</time>
        <extensions>
          <ns3:TrackPointExtension>
            <ns3:atemp>23.0</ns3:atemp>
          </ns3:TrackPointExtension>
        </extensions>
      </trkpt>
      <trkpt lat="42.50035260803997516632080078125" lon="20.1696310937404632568359375">
        <ele>2132</ele>
        <time>2026-06-20T11:02:41.000Z</time>
        <extensions>
          <ns3:TrackPointExtension>
            <ns3:atemp>23.0</ns3:atemp>
          </ns3:TrackPointExtension>
        </extensions>
      </trkpt>
      <trkpt lat="42.50035260803997516632080078125" lon="20.1696310937404632568359375">
        <ele>2132</ele>
        <time>2026-06-20T11:02:42.000Z</time>
        <extensions>
          <ns3:TrackPointExtension>
            <ns3:atemp>23.0</ns3:atemp>
          </ns3:TrackPointExtension>
        </extensions>
      </trkpt>
      <trkpt lat="42.50035260803997516632080078125" lon="20.1696310937404632568359375">
        <ele>2132</ele>
        <time>2026-06-20T11:02:43.000Z</time>
        <extensions>
          <ns3:TrackPointExtension>
            <ns3:atemp>23.0</ns3:atemp>
          </ns3:TrackPointExtension>
        </extensions>
      </trkpt>
      <trkpt lat="42.50035260803997516632080078125" lon="20.1696310937404632568359375">
        <ele>2132</ele>
        <time>2026-06-20T11:02:44.000Z</time>
        <extensions>
          <ns3:TrackPointExtension>
            <ns3:atemp>23.0</ns3:atemp>
          </ns3:TrackPointExtension>
        </extensions>
      </trkpt>
      <trkpt lat="42.50035260803997516632080078125" lon="20.1696310937404632568359375">
        <ele>2132</ele>
        <time>2026-06-20T11:02:45.000Z</time>
        <extensions>
          <ns3:TrackPointExtension>
            <ns3:atemp>23.0</ns3:atemp>
          </ns3:TrackPointExtension>
        </extensions>
      </trkpt>
      <trkpt lat="42.50035260803997516632080078125" lon="20.1696310937404632568359375">
        <ele>2132</ele>
        <time>2026-06-20T11:02:46.000Z</time>
        <extensions>
          <ns3:TrackPointExtension>
            <ns3:atemp>23.0</ns3:atemp>
          </ns3:TrackPointExtension>
        </extensions>
      </trkpt>
      <trkpt lat="42.50035260803997516632080078125" lon="20.1696310937404632568359375">
        <ele>2132</ele>
        <time>2026-06-20T11:02:47.000Z</time>
        <extensions>
          <ns3:TrackPointExtension>
            <ns3:atemp>23.0</ns3:atemp>
          </ns3:TrackPointExtension>
        </extensions>
      </trkpt>
      <trkpt lat="42.50035260803997516632080078125" lon="20.1696310937404632568359375">
        <ele>2132</ele>
        <time>2026-06-20T11:02:48.000Z</time>
        <extensions>
          <ns3:TrackPointExtension>
            <ns3:atemp>23.0</ns3:atemp>
          </ns3:TrackPointExtension>
        </extensions>
      </trkpt>
      <trkpt lat="42.50035260803997516632080078125" lon="20.1696310937404632568359375">
        <ele>2132</ele>
        <time>2026-06-20T11:02:49.000Z</time>
        <extensions>
          <ns3:TrackPointExtension>
            <ns3:atemp>23.0</ns3:atemp>
          </ns3:TrackPointExtension>
        </extensions>
      </trkpt>
      <trkpt lat="42.50035260803997516632080078125" lon="20.1696310937404632568359375">
        <ele>2132</ele>
        <time>2026-06-20T11:02:50.000Z</time>
        <extensions>
          <ns3:TrackPointExtension>
            <ns3:atemp>23.0</ns3:atemp>
          </ns3:TrackPointExtension>
        </extensions>
      </trkpt>
      <trkpt lat="42.50035260803997516632080078125" lon="20.1696310937404632568359375">
        <ele>2132</ele>
        <time>2026-06-20T11:02:51.000Z</time>
        <extensions>
          <ns3:TrackPointExtension>
            <ns3:atemp>23.0</ns3:atemp>
          </ns3:TrackPointExtension>
        </extensions>
      </trkpt>
      <trkpt lat="42.50035260803997516632080078125" lon="20.1696310937404632568359375">
        <ele>2132</ele>
        <time>2026-06-20T11:02:52.000Z</time>
        <extensions>
          <ns3:TrackPointExtension>
            <ns3:atemp>23.0</ns3:atemp>
          </ns3:TrackPointExtension>
        </extensions>
      </trkpt>
      <trkpt lat="42.50035260803997516632080078125" lon="20.1696310937404632568359375">
        <ele>2132</ele>
        <time>2026-06-20T11:02:53.000Z</time>
        <extensions>
          <ns3:TrackPointExtension>
            <ns3:atemp>23.0</ns3:atemp>
          </ns3:TrackPointExtension>
        </extensions>
      </trkpt>
      <trkpt lat="42.50035260803997516632080078125" lon="20.1696310937404632568359375">
        <ele>2132</ele>
        <time>2026-06-20T11:02:54.000Z</time>
        <extensions>
          <ns3:TrackPointExtension>
            <ns3:atemp>23.0</ns3:atemp>
          </ns3:TrackPointExtension>
        </extensions>
      </trkpt>
      <trkpt lat="42.50035260803997516632080078125" lon="20.1696310937404632568359375">
        <ele>2132</ele>
        <time>2026-06-20T11:02:55.000Z</time>
        <extensions>
          <ns3:TrackPointExtension>
            <ns3:atemp>23.0</ns3:atemp>
          </ns3:TrackPointExtension>
        </extensions>
      </trkpt>
      <trkpt lat="42.50035260803997516632080078125" lon="20.1696310937404632568359375">
        <ele>2132</ele>
        <time>2026-06-20T11:02:56.000Z</time>
        <extensions>
          <ns3:TrackPointExtension>
            <ns3:atemp>23.0</ns3:atemp>
          </ns3:TrackPointExtension>
        </extensions>
      </trkpt>
      <trkpt lat="42.50035260803997516632080078125" lon="20.1696310937404632568359375">
        <ele>2132</ele>
        <time>2026-06-20T11:02:57.000Z</time>
        <extensions>
          <ns3:TrackPointExtension>
            <ns3:atemp>23.0</ns3:atemp>
          </ns3:TrackPointExtension>
        </extensions>
      </trkpt>
      <trkpt lat="42.50035260803997516632080078125" lon="20.1696310937404632568359375">
        <ele>2132</ele>
        <time>2026-06-20T11:02:58.000Z</time>
        <extensions>
          <ns3:TrackPointExtension>
            <ns3:atemp>23.0</ns3:atemp>
          </ns3:TrackPointExtension>
        </extensions>
      </trkpt>
      <trkpt lat="42.50035260803997516632080078125" lon="20.1696310937404632568359375">
        <ele>2132</ele>
        <time>2026-06-20T11:02:59.000Z</time>
        <extensions>
          <ns3:TrackPointExtension>
            <ns3:atemp>23.0</ns3:atemp>
          </ns3:TrackPointExtension>
        </extensions>
      </trkpt>
      <trkpt lat="42.50035260803997516632080078125" lon="20.1696310937404632568359375">
        <ele>2132</ele>
        <time>2026-06-20T11:03:00.000Z</time>
        <extensions>
          <ns3:TrackPointExtension>
            <ns3:atemp>23.0</ns3:atemp>
          </ns3:TrackPointExtension>
        </extensions>
      </trkpt>
      <trkpt lat="42.50035260803997516632080078125" lon="20.1696310937404632568359375">
        <ele>2132</ele>
        <time>2026-06-20T11:03:01.000Z</time>
        <extensions>
          <ns3:TrackPointExtension>
            <ns3:atemp>23.0</ns3:atemp>
          </ns3:TrackPointExtension>
        </extensions>
      </trkpt>
      <trkpt lat="42.50035260803997516632080078125" lon="20.1696310937404632568359375">
        <ele>2132</ele>
        <time>2026-06-20T11:03:02.000Z</time>
        <extensions>
          <ns3:TrackPointExtension>
            <ns3:atemp>23.0</ns3:atemp>
          </ns3:TrackPointExtension>
        </extensions>
      </trkpt>
      <trkpt lat="42.50035260803997516632080078125" lon="20.1696310937404632568359375">
        <ele>2132</ele>
        <time>2026-06-20T11:03:03.000Z</time>
        <extensions>
          <ns3:TrackPointExtension>
            <ns3:atemp>23.0</ns3:atemp>
          </ns3:TrackPointExtension>
        </extensions>
      </trkpt>
      <trkpt lat="42.50035260803997516632080078125" lon="20.1696310937404632568359375">
        <ele>2132</ele>
        <time>2026-06-20T11:03:04.000Z</time>
        <extensions>
          <ns3:TrackPointExtension>
            <ns3:atemp>23.0</ns3:atemp>
          </ns3:TrackPointExtension>
        </extensions>
      </trkpt>
      <trkpt lat="42.50035260803997516632080078125" lon="20.1696310937404632568359375">
        <ele>2132</ele>
        <time>2026-06-20T11:03:05.000Z</time>
        <extensions>
          <ns3:TrackPointExtension>
            <ns3:atemp>23.0</ns3:atemp>
          </ns3:TrackPointExtension>
        </extensions>
      </trkpt>
      <trkpt lat="42.50035260803997516632080078125" lon="20.1696310937404632568359375">
        <ele>2132</ele>
        <time>2026-06-20T11:03:06.000Z</time>
        <extensions>
          <ns3:TrackPointExtension>
            <ns3:atemp>23.0</ns3:atemp>
          </ns3:TrackPointExtension>
        </extensions>
      </trkpt>
      <trkpt lat="42.50035260803997516632080078125" lon="20.1696310937404632568359375">
        <ele>2132</ele>
        <time>2026-06-20T11:03:07.000Z</time>
        <extensions>
          <ns3:TrackPointExtension>
            <ns3:atemp>23.0</ns3:atemp>
          </ns3:TrackPointExtension>
        </extensions>
      </trkpt>
      <trkpt lat="42.50035260803997516632080078125" lon="20.1696310937404632568359375">
        <ele>2132</ele>
        <time>2026-06-20T11:03:08.000Z</time>
        <extensions>
          <ns3:TrackPointExtension>
            <ns3:atemp>23.0</ns3:atemp>
          </ns3:TrackPointExtension>
        </extensions>
      </trkpt>
      <trkpt lat="42.50035260803997516632080078125" lon="20.1696310937404632568359375">
        <ele>2132</ele>
        <time>2026-06-20T11:03:09.000Z</time>
        <extensions>
          <ns3:TrackPointExtension>
            <ns3:atemp>23.0</ns3:atemp>
          </ns3:TrackPointExtension>
        </extensions>
      </trkpt>
      <trkpt lat="42.50035260803997516632080078125" lon="20.1696310937404632568359375">
        <ele>2132</ele>
        <time>2026-06-20T11:03:10.000Z</time>
        <extensions>
          <ns3:TrackPointExtension>
            <ns3:atemp>23.0</ns3:atemp>
          </ns3:TrackPointExtension>
        </extensions>
      </trkpt>
      <trkpt lat="42.50035260803997516632080078125" lon="20.1696310937404632568359375">
        <ele>2132</ele>
        <time>2026-06-20T11:03:11.000Z</time>
        <extensions>
          <ns3:TrackPointExtension>
            <ns3:atemp>23.0</ns3:atemp>
          </ns3:TrackPointExtension>
        </extensions>
      </trkpt>
      <trkpt lat="42.50035260803997516632080078125" lon="20.1696310937404632568359375">
        <ele>2132</ele>
        <time>2026-06-20T11:03:12.000Z</time>
        <extensions>
          <ns3:TrackPointExtension>
            <ns3:atemp>23.0</ns3:atemp>
          </ns3:TrackPointExtension>
        </extensions>
      </trkpt>
      <trkpt lat="42.50035260803997516632080078125" lon="20.1696310937404632568359375">
        <ele>2132</ele>
        <time>2026-06-20T11:03:13.000Z</time>
        <extensions>
          <ns3:TrackPointExtension>
            <ns3:atemp>23.0</ns3:atemp>
          </ns3:TrackPointExtension>
        </extensions>
      </trkpt>
      <trkpt lat="42.50035260803997516632080078125" lon="20.1696310937404632568359375">
        <ele>2132</ele>
        <time>2026-06-20T11:03:14.000Z</time>
        <extensions>
          <ns3:TrackPointExtension>
            <ns3:atemp>23.0</ns3:atemp>
          </ns3:TrackPointExtension>
        </extensions>
      </trkpt>
      <trkpt lat="42.50035260803997516632080078125" lon="20.1696310937404632568359375">
        <ele>2132</ele>
        <time>2026-06-20T11:03:15.000Z</time>
        <extensions>
          <ns3:TrackPointExtension>
            <ns3:atemp>23.0</ns3:atemp>
          </ns3:TrackPointExtension>
        </extensions>
      </trkpt>
      <trkpt lat="42.50035260803997516632080078125" lon="20.1696310937404632568359375">
        <ele>2132</ele>
        <time>2026-06-20T11:03:16.000Z</time>
        <extensions>
          <ns3:TrackPointExtension>
            <ns3:atemp>23.0</ns3:atemp>
          </ns3:TrackPointExtension>
        </extensions>
      </trkpt>
      <trkpt lat="42.50035260803997516632080078125" lon="20.1696310937404632568359375">
        <ele>2132</ele>
        <time>2026-06-20T11:03:17.000Z</time>
        <extensions>
          <ns3:TrackPointExtension>
            <ns3:atemp>23.0</ns3:atemp>
          </ns3:TrackPointExtension>
        </extensions>
      </trkpt>
      <trkpt lat="42.50035260803997516632080078125" lon="20.1696310937404632568359375">
        <ele>2132</ele>
        <time>2026-06-20T11:03:18.000Z</time>
        <extensions>
          <ns3:TrackPointExtension>
            <ns3:atemp>23.0</ns3:atemp>
          </ns3:TrackPointExtension>
        </extensions>
      </trkpt>
      <trkpt lat="42.50035260803997516632080078125" lon="20.1696310937404632568359375">
        <ele>2132</ele>
        <time>2026-06-20T11:03:19.000Z</time>
        <extensions>
          <ns3:TrackPointExtension>
            <ns3:atemp>23.0</ns3:atemp>
          </ns3:TrackPointExtension>
        </extensions>
      </trkpt>
      <trkpt lat="42.50035260803997516632080078125" lon="20.1696310937404632568359375">
        <ele>2132</ele>
        <time>2026-06-20T11:03:20.000Z</time>
        <extensions>
          <ns3:TrackPointExtension>
            <ns3:atemp>23.0</ns3:atemp>
          </ns3:TrackPointExtension>
        </extensions>
      </trkpt>
      <trkpt lat="42.50035260803997516632080078125" lon="20.1696310937404632568359375">
        <ele>2132</ele>
        <time>2026-06-20T11:03:21.000Z</time>
        <extensions>
          <ns3:TrackPointExtension>
            <ns3:atemp>23.0</ns3:atemp>
          </ns3:TrackPointExtension>
        </extensions>
      </trkpt>
      <trkpt lat="42.50035260803997516632080078125" lon="20.1696310937404632568359375">
        <ele>2132</ele>
        <time>2026-06-20T11:03:22.000Z</time>
        <extensions>
          <ns3:TrackPointExtension>
            <ns3:atemp>23.0</ns3:atemp>
          </ns3:TrackPointExtension>
        </extensions>
      </trkpt>
      <trkpt lat="42.50035260803997516632080078125" lon="20.1696310937404632568359375">
        <ele>2132</ele>
        <time>2026-06-20T11:03:23.000Z</time>
        <extensions>
          <ns3:TrackPointExtension>
            <ns3:atemp>23.0</ns3:atemp>
          </ns3:TrackPointExtension>
        </extensions>
      </trkpt>
      <trkpt lat="42.50035260803997516632080078125" lon="20.1696310937404632568359375">
        <ele>2132</ele>
        <time>2026-06-20T11:03:24.000Z</time>
        <extensions>
          <ns3:TrackPointExtension>
            <ns3:atemp>23.0</ns3:atemp>
          </ns3:TrackPointExtension>
        </extensions>
      </trkpt>
      <trkpt lat="42.50035260803997516632080078125" lon="20.1696310937404632568359375">
        <ele>2132</ele>
        <time>2026-06-20T11:03:25.000Z</time>
        <extensions>
          <ns3:TrackPointExtension>
            <ns3:atemp>23.0</ns3:atemp>
          </ns3:TrackPointExtension>
        </extensions>
      </trkpt>
      <trkpt lat="42.50035260803997516632080078125" lon="20.1696310937404632568359375">
        <ele>2132</ele>
        <time>2026-06-20T11:03:26.000Z</time>
        <extensions>
          <ns3:TrackPointExtension>
            <ns3:atemp>23.0</ns3:atemp>
          </ns3:TrackPointExtension>
        </extensions>
      </trkpt>
      <trkpt lat="42.50035260803997516632080078125" lon="20.1696310937404632568359375">
        <ele>2132</ele>
        <time>2026-06-20T11:03:27.000Z</time>
        <extensions>
          <ns3:TrackPointExtension>
            <ns3:atemp>23.0</ns3:atemp>
          </ns3:TrackPointExtension>
        </extensions>
      </trkpt>
      <trkpt lat="42.50035260803997516632080078125" lon="20.1696310937404632568359375">
        <ele>2132</ele>
        <time>2026-06-20T11:03:28.000Z</time>
        <extensions>
          <ns3:TrackPointExtension>
            <ns3:atemp>23.0</ns3:atemp>
          </ns3:TrackPointExtension>
        </extensions>
      </trkpt>
      <trkpt lat="42.50035260803997516632080078125" lon="20.1696310937404632568359375">
        <ele>2132</ele>
        <time>2026-06-20T11:03:29.000Z</time>
        <extensions>
          <ns3:TrackPointExtension>
            <ns3:atemp>23.0</ns3:atemp>
          </ns3:TrackPointExtension>
        </extensions>
      </trkpt>
      <trkpt lat="42.50035260803997516632080078125" lon="20.1696310937404632568359375">
        <ele>2132</ele>
        <time>2026-06-20T11:03:30.000Z</time>
        <extensions>
          <ns3:TrackPointExtension>
            <ns3:atemp>23.0</ns3:atemp>
          </ns3:TrackPointExtension>
        </extensions>
      </trkpt>
      <trkpt lat="42.50035260803997516632080078125" lon="20.1696310937404632568359375">
        <ele>2132</ele>
        <time>2026-06-20T11:03:31.000Z</time>
        <extensions>
          <ns3:TrackPointExtension>
            <ns3:atemp>23.0</ns3:atemp>
          </ns3:TrackPointExtension>
        </extensions>
      </trkpt>
      <trkpt lat="42.50035260803997516632080078125" lon="20.1696310937404632568359375">
        <ele>2132</ele>
        <time>2026-06-20T11:03:32.000Z</time>
        <extensions>
          <ns3:TrackPointExtension>
            <ns3:atemp>23.0</ns3:atemp>
          </ns3:TrackPointExtension>
        </extensions>
      </trkpt>
      <trkpt lat="42.50035260803997516632080078125" lon="20.1696310937404632568359375">
        <ele>2132</ele>
        <time>2026-06-20T11:03:33.000Z</time>
        <extensions>
          <ns3:TrackPointExtension>
            <ns3:atemp>23.0</ns3:atemp>
          </ns3:TrackPointExtension>
        </extensions>
      </trkpt>
      <trkpt lat="42.50035260803997516632080078125" lon="20.1696310937404632568359375">
        <ele>2132</ele>
        <time>2026-06-20T11:03:34.000Z</time>
        <extensions>
          <ns3:TrackPointExtension>
            <ns3:atemp>23.0</ns3:atemp>
          </ns3:TrackPointExtension>
        </extensions>
      </trkpt>
      <trkpt lat="42.50035260803997516632080078125" lon="20.1696310937404632568359375">
        <ele>2132</ele>
        <time>2026-06-20T11:03:35.000Z</time>
        <extensions>
          <ns3:TrackPointExtension>
            <ns3:atemp>23.0</ns3:atemp>
          </ns3:TrackPointExtension>
        </extensions>
      </trkpt>
      <trkpt lat="42.50035260803997516632080078125" lon="20.1696310937404632568359375">
        <ele>2132</ele>
        <time>2026-06-20T11:03:36.000Z</time>
        <extensions>
          <ns3:TrackPointExtension>
            <ns3:atemp>23.0</ns3:atemp>
          </ns3:TrackPointExtension>
        </extensions>
      </trkpt>
      <trkpt lat="42.50035260803997516632080078125" lon="20.1696310937404632568359375">
        <ele>2132</ele>
        <time>2026-06-20T11:03:37.000Z</time>
        <extensions>
          <ns3:TrackPointExtension>
            <ns3:atemp>23.0</ns3:atemp>
          </ns3:TrackPointExtension>
        </extensions>
      </trkpt>
      <trkpt lat="42.50035260803997516632080078125" lon="20.1696310937404632568359375">
        <ele>2132</ele>
        <time>2026-06-20T11:03:38.000Z</time>
        <extensions>
          <ns3:TrackPointExtension>
            <ns3:atemp>23.0</ns3:atemp>
          </ns3:TrackPointExtension>
        </extensions>
      </trkpt>
      <trkpt lat="42.50035260803997516632080078125" lon="20.1696310937404632568359375">
        <ele>2132</ele>
        <time>2026-06-20T11:03:39.000Z</time>
        <extensions>
          <ns3:TrackPointExtension>
            <ns3:atemp>23.0</ns3:atemp>
          </ns3:TrackPointExtension>
        </extensions>
      </trkpt>
      <trkpt lat="42.50035260803997516632080078125" lon="20.1696310937404632568359375">
        <ele>2132</ele>
        <time>2026-06-20T11:03:40.000Z</time>
        <extensions>
          <ns3:TrackPointExtension>
            <ns3:atemp>23.0</ns3:atemp>
          </ns3:TrackPointExtension>
        </extensions>
      </trkpt>
      <trkpt lat="42.50035260803997516632080078125" lon="20.1696310937404632568359375">
        <ele>2132</ele>
        <time>2026-06-20T11:03:41.000Z</time>
        <extensions>
          <ns3:TrackPointExtension>
            <ns3:atemp>23.0</ns3:atemp>
          </ns3:TrackPointExtension>
        </extensions>
      </trkpt>
      <trkpt lat="42.50035260803997516632080078125" lon="20.1696310937404632568359375">
        <ele>2132</ele>
        <time>2026-06-20T11:03:42.000Z</time>
        <extensions>
          <ns3:TrackPointExtension>
            <ns3:atemp>23.0</ns3:atemp>
          </ns3:TrackPointExtension>
        </extensions>
      </trkpt>
      <trkpt lat="42.50035260803997516632080078125" lon="20.1696310937404632568359375">
        <ele>2132</ele>
        <time>2026-06-20T11:03:43.000Z</time>
        <extensions>
          <ns3:TrackPointExtension>
            <ns3:atemp>23.0</ns3:atemp>
          </ns3:TrackPointExtension>
        </extensions>
      </trkpt>
      <trkpt lat="42.50035260803997516632080078125" lon="20.1696310937404632568359375">
        <ele>2132</ele>
        <time>2026-06-20T11:03:44.000Z</time>
        <extensions>
          <ns3:TrackPointExtension>
            <ns3:atemp>23.0</ns3:atemp>
          </ns3:TrackPointExtension>
        </extensions>
      </trkpt>
      <trkpt lat="42.50035260803997516632080078125" lon="20.1696310937404632568359375">
        <ele>2132</ele>
        <time>2026-06-20T11:03:45.000Z</time>
        <extensions>
          <ns3:TrackPointExtension>
            <ns3:atemp>23.0</ns3:atemp>
          </ns3:TrackPointExtension>
        </extensions>
      </trkpt>
      <trkpt lat="42.50035260803997516632080078125" lon="20.1696310937404632568359375">
        <ele>2132</ele>
        <time>2026-06-20T11:03:46.000Z</time>
        <extensions>
          <ns3:TrackPointExtension>
            <ns3:atemp>23.0</ns3:atemp>
          </ns3:TrackPointExtension>
        </extensions>
      </trkpt>
      <trkpt lat="42.50035260803997516632080078125" lon="20.1696310937404632568359375">
        <ele>2132</ele>
        <time>2026-06-20T11:03:47.000Z</time>
        <extensions>
          <ns3:TrackPointExtension>
            <ns3:atemp>23.0</ns3:atemp>
          </ns3:TrackPointExtension>
        </extensions>
      </trkpt>
      <trkpt lat="42.50035260803997516632080078125" lon="20.1696310937404632568359375">
        <ele>2132</ele>
        <time>2026-06-20T11:03:48.000Z</time>
        <extensions>
          <ns3:TrackPointExtension>
            <ns3:atemp>23.0</ns3:atemp>
          </ns3:TrackPointExtension>
        </extensions>
      </trkpt>
      <trkpt lat="42.50035260803997516632080078125" lon="20.1696310937404632568359375">
        <ele>2132</ele>
        <time>2026-06-20T11:03:49.000Z</time>
        <extensions>
          <ns3:TrackPointExtension>
            <ns3:atemp>23.0</ns3:atemp>
          </ns3:TrackPointExtension>
        </extensions>
      </trkpt>
      <trkpt lat="42.50035260803997516632080078125" lon="20.1696310937404632568359375">
        <ele>2132</ele>
        <time>2026-06-20T11:03:50.000Z</time>
        <extensions>
          <ns3:TrackPointExtension>
            <ns3:atemp>23.0</ns3:atemp>
          </ns3:TrackPointExtension>
        </extensions>
      </trkpt>
      <trkpt lat="42.50035260803997516632080078125" lon="20.1696310937404632568359375">
        <ele>2132</ele>
        <time>2026-06-20T11:03:51.000Z</time>
        <extensions>
          <ns3:TrackPointExtension>
            <ns3:atemp>23.0</ns3:atemp>
          </ns3:TrackPointExtension>
        </extensions>
      </trkpt>
      <trkpt lat="42.50035260803997516632080078125" lon="20.1696310937404632568359375">
        <ele>2132</ele>
        <time>2026-06-20T11:03:52.000Z</time>
        <extensions>
          <ns3:TrackPointExtension>
            <ns3:atemp>23.0</ns3:atemp>
          </ns3:TrackPointExtension>
        </extensions>
      </trkpt>
      <trkpt lat="42.50035260803997516632080078125" lon="20.1696310937404632568359375">
        <ele>2132</ele>
        <time>2026-06-20T11:03:53.000Z</time>
        <extensions>
          <ns3:TrackPointExtension>
            <ns3:atemp>23.0</ns3:atemp>
          </ns3:TrackPointExtension>
        </extensions>
      </trkpt>
      <trkpt lat="42.50035260803997516632080078125" lon="20.1696310937404632568359375">
        <ele>2132</ele>
        <time>2026-06-20T11:03:54.000Z</time>
        <extensions>
          <ns3:TrackPointExtension>
            <ns3:atemp>23.0</ns3:atemp>
          </ns3:TrackPointExtension>
        </extensions>
      </trkpt>
      <trkpt lat="42.50035260803997516632080078125" lon="20.1696310937404632568359375">
        <ele>2132</ele>
        <time>2026-06-20T11:03:55.000Z</time>
        <extensions>
          <ns3:TrackPointExtension>
            <ns3:atemp>23.0</ns3:atemp>
          </ns3:TrackPointExtension>
        </extensions>
      </trkpt>
      <trkpt lat="42.50035260803997516632080078125" lon="20.1696310937404632568359375">
        <ele>2132</ele>
        <time>2026-06-20T11:03:56.000Z</time>
        <extensions>
          <ns3:TrackPointExtension>
            <ns3:atemp>23.0</ns3:atemp>
          </ns3:TrackPointExtension>
        </extensions>
      </trkpt>
      <trkpt lat="42.50035260803997516632080078125" lon="20.1696310937404632568359375">
        <ele>2132</ele>
        <time>2026-06-20T11:03:57.000Z</time>
        <extensions>
          <ns3:TrackPointExtension>
            <ns3:atemp>23.0</ns3:atemp>
          </ns3:TrackPointExtension>
        </extensions>
      </trkpt>
      <trkpt lat="42.50035260803997516632080078125" lon="20.1696310937404632568359375">
        <ele>2132</ele>
        <time>2026-06-20T11:03:58.000Z</time>
        <extensions>
          <ns3:TrackPointExtension>
            <ns3:atemp>23.0</ns3:atemp>
          </ns3:TrackPointExtension>
        </extensions>
      </trkpt>
      <trkpt lat="42.50035260803997516632080078125" lon="20.1696310937404632568359375">
        <ele>2132</ele>
        <time>2026-06-20T11:03:59.000Z</time>
        <extensions>
          <ns3:TrackPointExtension>
            <ns3:atemp>23.0</ns3:atemp>
          </ns3:TrackPointExtension>
        </extensions>
      </trkpt>
      <trkpt lat="42.50035260803997516632080078125" lon="20.1696310937404632568359375">
        <ele>2132</ele>
        <time>2026-06-20T11:04:00.000Z</time>
        <extensions>
          <ns3:TrackPointExtension>
            <ns3:atemp>23.0</ns3:atemp>
          </ns3:TrackPointExtension>
        </extensions>
      </trkpt>
      <trkpt lat="42.50035260803997516632080078125" lon="20.1696310937404632568359375">
        <ele>2132</ele>
        <time>2026-06-20T11:04:01.000Z</time>
        <extensions>
          <ns3:TrackPointExtension>
            <ns3:atemp>23.0</ns3:atemp>
          </ns3:TrackPointExtension>
        </extensions>
      </trkpt>
      <trkpt lat="42.50035260803997516632080078125" lon="20.1696310937404632568359375">
        <ele>2132</ele>
        <time>2026-06-20T11:04:02.000Z</time>
        <extensions>
          <ns3:TrackPointExtension>
            <ns3:atemp>23.0</ns3:atemp>
          </ns3:TrackPointExtension>
        </extensions>
      </trkpt>
      <trkpt lat="42.50035260803997516632080078125" lon="20.1696310937404632568359375">
        <ele>2132</ele>
        <time>2026-06-20T11:04:03.000Z</time>
        <extensions>
          <ns3:TrackPointExtension>
            <ns3:atemp>23.0</ns3:atemp>
          </ns3:TrackPointExtension>
        </extensions>
      </trkpt>
      <trkpt lat="42.50035260803997516632080078125" lon="20.1696310937404632568359375">
        <ele>2132</ele>
        <time>2026-06-20T11:04:04.000Z</time>
        <extensions>
          <ns3:TrackPointExtension>
            <ns3:atemp>23.0</ns3:atemp>
          </ns3:TrackPointExtension>
        </extensions>
      </trkpt>
      <trkpt lat="42.50035260803997516632080078125" lon="20.1696310937404632568359375">
        <ele>2132</ele>
        <time>2026-06-20T11:04:05.000Z</time>
        <extensions>
          <ns3:TrackPointExtension>
            <ns3:atemp>23.0</ns3:atemp>
          </ns3:TrackPointExtension>
        </extensions>
      </trkpt>
      <trkpt lat="42.50035260803997516632080078125" lon="20.1696310937404632568359375">
        <ele>2132</ele>
        <time>2026-06-20T11:04:06.000Z</time>
        <extensions>
          <ns3:TrackPointExtension>
            <ns3:atemp>23.0</ns3:atemp>
          </ns3:TrackPointExtension>
        </extensions>
      </trkpt>
      <trkpt lat="42.50035260803997516632080078125" lon="20.1696310937404632568359375">
        <ele>2132</ele>
        <time>2026-06-20T11:04:07.000Z</time>
        <extensions>
          <ns3:TrackPointExtension>
            <ns3:atemp>23.0</ns3:atemp>
          </ns3:TrackPointExtension>
        </extensions>
      </trkpt>
      <trkpt lat="42.50035260803997516632080078125" lon="20.1696310937404632568359375">
        <ele>2132</ele>
        <time>2026-06-20T11:04:08.000Z</time>
        <extensions>
          <ns3:TrackPointExtension>
            <ns3:atemp>23.0</ns3:atemp>
          </ns3:TrackPointExtension>
        </extensions>
      </trkpt>
      <trkpt lat="42.50035260803997516632080078125" lon="20.1696310937404632568359375">
        <ele>2132</ele>
        <time>2026-06-20T11:04:09.000Z</time>
        <extensions>
          <ns3:TrackPointExtension>
            <ns3:atemp>23.0</ns3:atemp>
          </ns3:TrackPointExtension>
        </extensions>
      </trkpt>
      <trkpt lat="42.50035260803997516632080078125" lon="20.1696310937404632568359375">
        <ele>2132</ele>
        <time>2026-06-20T11:04:10.000Z</time>
        <extensions>
          <ns3:TrackPointExtension>
            <ns3:atemp>23.0</ns3:atemp>
          </ns3:TrackPointExtension>
        </extensions>
      </trkpt>
      <trkpt lat="42.50035260803997516632080078125" lon="20.1696310937404632568359375">
        <ele>2132</ele>
        <time>2026-06-20T11:04:11.000Z</time>
        <extensions>
          <ns3:TrackPointExtension>
            <ns3:atemp>23.0</ns3:atemp>
          </ns3:TrackPointExtension>
        </extensions>
      </trkpt>
      <trkpt lat="42.50035260803997516632080078125" lon="20.1696310937404632568359375">
        <ele>2132</ele>
        <time>2026-06-20T11:04:12.000Z</time>
        <extensions>
          <ns3:TrackPointExtension>
            <ns3:atemp>23.0</ns3:atemp>
          </ns3:TrackPointExtension>
        </extensions>
      </trkpt>
      <trkpt lat="42.50035260803997516632080078125" lon="20.1696310937404632568359375">
        <ele>2132</ele>
        <time>2026-06-20T11:04:13.000Z</time>
        <extensions>
          <ns3:TrackPointExtension>
            <ns3:atemp>23.0</ns3:atemp>
          </ns3:TrackPointExtension>
        </extensions>
      </trkpt>
      <trkpt lat="42.50035260803997516632080078125" lon="20.1696310937404632568359375">
        <ele>2132</ele>
        <time>2026-06-20T11:04:14.000Z</time>
        <extensions>
          <ns3:TrackPointExtension>
            <ns3:atemp>23.0</ns3:atemp>
          </ns3:TrackPointExtension>
        </extensions>
      </trkpt>
      <trkpt lat="42.50035260803997516632080078125" lon="20.1696310937404632568359375">
        <ele>2132</ele>
        <time>2026-06-20T11:04:15.000Z</time>
        <extensions>
          <ns3:TrackPointExtension>
            <ns3:atemp>23.0</ns3:atemp>
          </ns3:TrackPointExtension>
        </extensions>
      </trkpt>
      <trkpt lat="42.50035260803997516632080078125" lon="20.1696310937404632568359375">
        <ele>2132</ele>
        <time>2026-06-20T11:04:16.000Z</time>
        <extensions>
          <ns3:TrackPointExtension>
            <ns3:atemp>23.0</ns3:atemp>
          </ns3:TrackPointExtension>
        </extensions>
      </trkpt>
      <trkpt lat="42.50035260803997516632080078125" lon="20.1696310937404632568359375">
        <ele>2132</ele>
        <time>2026-06-20T11:04:17.000Z</time>
        <extensions>
          <ns3:TrackPointExtension>
            <ns3:atemp>23.0</ns3:atemp>
          </ns3:TrackPointExtension>
        </extensions>
      </trkpt>
      <trkpt lat="42.50035260803997516632080078125" lon="20.1696310937404632568359375">
        <ele>2132</ele>
        <time>2026-06-20T11:04:18.000Z</time>
        <extensions>
          <ns3:TrackPointExtension>
            <ns3:atemp>23.0</ns3:atemp>
          </ns3:TrackPointExtension>
        </extensions>
      </trkpt>
      <trkpt lat="42.50035260803997516632080078125" lon="20.1696310937404632568359375">
        <ele>2132</ele>
        <time>2026-06-20T11:04:19.000Z</time>
        <extensions>
          <ns3:TrackPointExtension>
            <ns3:atemp>23.0</ns3:atemp>
          </ns3:TrackPointExtension>
        </extensions>
      </trkpt>
      <trkpt lat="42.50035260803997516632080078125" lon="20.1696310937404632568359375">
        <ele>2132</ele>
        <time>2026-06-20T11:04:20.000Z</time>
        <extensions>
          <ns3:TrackPointExtension>
            <ns3:atemp>23.0</ns3:atemp>
          </ns3:TrackPointExtension>
        </extensions>
      </trkpt>
      <trkpt lat="42.50035260803997516632080078125" lon="20.1696310937404632568359375">
        <ele>2132</ele>
        <time>2026-06-20T11:04:21.000Z</time>
        <extensions>
          <ns3:TrackPointExtension>
            <ns3:atemp>23.0</ns3:atemp>
          </ns3:TrackPointExtension>
        </extensions>
      </trkpt>
      <trkpt lat="42.50035260803997516632080078125" lon="20.1696310937404632568359375">
        <ele>2132</ele>
        <time>2026-06-20T11:04:22.000Z</time>
        <extensions>
          <ns3:TrackPointExtension>
            <ns3:atemp>23.0</ns3:atemp>
          </ns3:TrackPointExtension>
        </extensions>
      </trkpt>
      <trkpt lat="42.50035260803997516632080078125" lon="20.1696310937404632568359375">
        <ele>2132</ele>
        <time>2026-06-20T11:04:23.000Z</time>
        <extensions>
          <ns3:TrackPointExtension>
            <ns3:atemp>23.0</ns3:atemp>
          </ns3:TrackPointExtension>
        </extensions>
      </trkpt>
      <trkpt lat="42.50035260803997516632080078125" lon="20.1696310937404632568359375">
        <ele>2132</ele>
        <time>2026-06-20T11:04:24.000Z</time>
        <extensions>
          <ns3:TrackPointExtension>
            <ns3:atemp>23.0</ns3:atemp>
          </ns3:TrackPointExtension>
        </extensions>
      </trkpt>
      <trkpt lat="42.50035260803997516632080078125" lon="20.1696310937404632568359375">
        <ele>2132</ele>
        <time>2026-06-20T11:04:25.000Z</time>
        <extensions>
          <ns3:TrackPointExtension>
            <ns3:atemp>23.0</ns3:atemp>
          </ns3:TrackPointExtension>
        </extensions>
      </trkpt>
      <trkpt lat="42.50035260803997516632080078125" lon="20.1696310937404632568359375">
        <ele>2132</ele>
        <time>2026-06-20T11:04:26.000Z</time>
        <extensions>
          <ns3:TrackPointExtension>
            <ns3:atemp>23.0</ns3:atemp>
          </ns3:TrackPointExtension>
        </extensions>
      </trkpt>
      <trkpt lat="42.50035260803997516632080078125" lon="20.1696310937404632568359375">
        <ele>2132</ele>
        <time>2026-06-20T11:04:27.000Z</time>
        <extensions>
          <ns3:TrackPointExtension>
            <ns3:atemp>23.0</ns3:atemp>
          </ns3:TrackPointExtension>
        </extensions>
      </trkpt>
      <trkpt lat="42.50035260803997516632080078125" lon="20.1696310937404632568359375">
        <ele>2132</ele>
        <time>2026-06-20T11:04:28.000Z</time>
        <extensions>
          <ns3:TrackPointExtension>
            <ns3:atemp>23.0</ns3:atemp>
          </ns3:TrackPointExtension>
        </extensions>
      </trkpt>
      <trkpt lat="42.50035260803997516632080078125" lon="20.1696310937404632568359375">
        <ele>2132</ele>
        <time>2026-06-20T11:04:29.000Z</time>
        <extensions>
          <ns3:TrackPointExtension>
            <ns3:atemp>23.0</ns3:atemp>
          </ns3:TrackPointExtension>
        </extensions>
      </trkpt>
      <trkpt lat="42.50035260803997516632080078125" lon="20.1696310937404632568359375">
        <ele>2132</ele>
        <time>2026-06-20T11:04:30.000Z</time>
        <extensions>
          <ns3:TrackPointExtension>
            <ns3:atemp>23.0</ns3:atemp>
          </ns3:TrackPointExtension>
        </extensions>
      </trkpt>
      <trkpt lat="42.50035260803997516632080078125" lon="20.1696310937404632568359375">
        <ele>2132</ele>
        <time>2026-06-20T11:04:31.000Z</time>
        <extensions>
          <ns3:TrackPointExtension>
            <ns3:atemp>23.0</ns3:atemp>
          </ns3:TrackPointExtension>
        </extensions>
      </trkpt>
      <trkpt lat="42.50035260803997516632080078125" lon="20.1696310937404632568359375">
        <ele>2132</ele>
        <time>2026-06-20T11:04:32.000Z</time>
        <extensions>
          <ns3:TrackPointExtension>
            <ns3:atemp>23.0</ns3:atemp>
          </ns3:TrackPointExtension>
        </extensions>
      </trkpt>
      <trkpt lat="42.50035260803997516632080078125" lon="20.1696310937404632568359375">
        <ele>2132</ele>
        <time>2026-06-20T11:04:33.000Z</time>
        <extensions>
          <ns3:TrackPointExtension>
            <ns3:atemp>23.0</ns3:atemp>
          </ns3:TrackPointExtension>
        </extensions>
      </trkpt>
      <trkpt lat="42.50035260803997516632080078125" lon="20.1696310937404632568359375">
        <ele>2132</ele>
        <time>2026-06-20T11:04:34.000Z</time>
        <extensions>
          <ns3:TrackPointExtension>
            <ns3:atemp>23.0</ns3:atemp>
          </ns3:TrackPointExtension>
        </extensions>
      </trkpt>
      <trkpt lat="42.50035260803997516632080078125" lon="20.1696310937404632568359375">
        <ele>2132</ele>
        <time>2026-06-20T11:04:35.000Z</time>
        <extensions>
          <ns3:TrackPointExtension>
            <ns3:atemp>23.0</ns3:atemp>
          </ns3:TrackPointExtension>
        </extensions>
      </trkpt>
      <trkpt lat="42.50035260803997516632080078125" lon="20.1696310937404632568359375">
        <ele>2132</ele>
        <time>2026-06-20T11:04:36.000Z</time>
        <extensions>
          <ns3:TrackPointExtension>
            <ns3:atemp>23.0</ns3:atemp>
          </ns3:TrackPointExtension>
        </extensions>
      </trkpt>
      <trkpt lat="42.50035260803997516632080078125" lon="20.1696310937404632568359375">
        <ele>2132</ele>
        <time>2026-06-20T11:04:37.000Z</time>
        <extensions>
          <ns3:TrackPointExtension>
            <ns3:atemp>23.0</ns3:atemp>
          </ns3:TrackPointExtension>
        </extensions>
      </trkpt>
      <trkpt lat="42.50035260803997516632080078125" lon="20.1696310937404632568359375">
        <ele>2132</ele>
        <time>2026-06-20T11:04:38.000Z</time>
        <extensions>
          <ns3:TrackPointExtension>
            <ns3:atemp>23.0</ns3:atemp>
          </ns3:TrackPointExtension>
        </extensions>
      </trkpt>
      <trkpt lat="42.50035260803997516632080078125" lon="20.1696310937404632568359375">
        <ele>2132</ele>
        <time>2026-06-20T11:04:39.000Z</time>
        <extensions>
          <ns3:TrackPointExtension>
            <ns3:atemp>23.0</ns3:atemp>
          </ns3:TrackPointExtension>
        </extensions>
      </trkpt>
      <trkpt lat="42.50035260803997516632080078125" lon="20.1696310937404632568359375">
        <ele>2132</ele>
        <time>2026-06-20T11:04:40.000Z</time>
        <extensions>
          <ns3:TrackPointExtension>
            <ns3:atemp>23.0</ns3:atemp>
          </ns3:TrackPointExtension>
        </extensions>
      </trkpt>
      <trkpt lat="42.50035260803997516632080078125" lon="20.1696310937404632568359375">
        <ele>2132</ele>
        <time>2026-06-20T11:04:41.000Z</time>
        <extensions>
          <ns3:TrackPointExtension>
            <ns3:atemp>23.0</ns3:atemp>
          </ns3:TrackPointExtension>
        </extensions>
      </trkpt>
      <trkpt lat="42.50035260803997516632080078125" lon="20.1696310937404632568359375">
        <ele>2132</ele>
        <time>2026-06-20T11:04:42.000Z</time>
        <extensions>
          <ns3:TrackPointExtension>
            <ns3:atemp>23.0</ns3:atemp>
          </ns3:TrackPointExtension>
        </extensions>
      </trkpt>
      <trkpt lat="42.50035260803997516632080078125" lon="20.1696310937404632568359375">
        <ele>2132</ele>
        <time>2026-06-20T11:04:43.000Z</time>
        <extensions>
          <ns3:TrackPointExtension>
            <ns3:atemp>23.0</ns3:atemp>
          </ns3:TrackPointExtension>
        </extensions>
      </trkpt>
      <trkpt lat="42.50036031939089298248291015625" lon="20.169636122882366180419921875">
        <ele>2132</ele>
        <time>2026-06-20T11:04:44.000Z</time>
        <extensions>
          <ns3:TrackPointExtension>
            <ns3:atemp>24.0</ns3:atemp>
          </ns3:TrackPointExtension>
        </extensions>
      </trkpt>
      <trkpt lat="42.50035260803997516632080078125" lon="20.1696310937404632568359375">
        <ele>2132</ele>
        <time>2026-06-20T11:04:45.000Z</time>
        <extensions>
          <ns3:TrackPointExtension>
            <ns3:atemp>24.0</ns3:atemp>
          </ns3:TrackPointExtension>
        </extensions>
      </trkpt>
      <trkpt lat="42.50035260803997516632080078125" lon="20.1696310937404632568359375">
        <ele>2132</ele>
        <time>2026-06-20T11:04:46.000Z</time>
        <extensions>
          <ns3:TrackPointExtension>
            <ns3:atemp>24.0</ns3:atemp>
          </ns3:TrackPointExtension>
        </extensions>
      </trkpt>
      <trkpt lat="42.50035260803997516632080078125" lon="20.1696310937404632568359375">
        <ele>2132</ele>
        <time>2026-06-20T11:04:47.000Z</time>
        <extensions>
          <ns3:TrackPointExtension>
            <ns3:atemp>24.0</ns3:atemp>
          </ns3:TrackPointExtension>
        </extensions>
      </trkpt>
      <trkpt lat="42.50035260803997516632080078125" lon="20.1696310937404632568359375">
        <ele>2132</ele>
        <time>2026-06-20T11:04:48.000Z</time>
        <extensions>
          <ns3:TrackPointExtension>
            <ns3:atemp>24.0</ns3:atemp>
          </ns3:TrackPointExtension>
        </extensions>
      </trkpt>
      <trkpt lat="42.50035260803997516632080078125" lon="20.1696310937404632568359375">
        <ele>2132</ele>
        <time>2026-06-20T11:04:49.000Z</time>
        <extensions>
          <ns3:TrackPointExtension>
            <ns3:atemp>24.0</ns3:atemp>
          </ns3:TrackPointExtension>
        </extensions>
      </trkpt>
      <trkpt lat="42.50035260803997516632080078125" lon="20.1696310937404632568359375">
        <ele>2132</ele>
        <time>2026-06-20T11:04:50.000Z</time>
        <extensions>
          <ns3:TrackPointExtension>
            <ns3:atemp>24.0</ns3:atemp>
          </ns3:TrackPointExtension>
        </extensions>
      </trkpt>
      <trkpt lat="42.50035260803997516632080078125" lon="20.1696310937404632568359375">
        <ele>2132</ele>
        <time>2026-06-20T11:04:51.000Z</time>
        <extensions>
          <ns3:TrackPointExtension>
            <ns3:atemp>24.0</ns3:atemp>
          </ns3:TrackPointExtension>
        </extensions>
      </trkpt>
      <trkpt lat="42.50035260803997516632080078125" lon="20.1696310937404632568359375">
        <ele>2132</ele>
        <time>2026-06-20T11:04:52.000Z</time>
        <extensions>
          <ns3:TrackPointExtension>
            <ns3:atemp>24.0</ns3:atemp>
          </ns3:TrackPointExtension>
        </extensions>
      </trkpt>
      <trkpt lat="42.50035260803997516632080078125" lon="20.1696310937404632568359375">
        <ele>2132</ele>
        <time>2026-06-20T11:04:53.000Z</time>
        <extensions>
          <ns3:TrackPointExtension>
            <ns3:atemp>24.0</ns3:atemp>
          </ns3:TrackPointExtension>
        </extensions>
      </trkpt>
      <trkpt lat="42.50035260803997516632080078125" lon="20.1696310937404632568359375">
        <ele>2132</ele>
        <time>2026-06-20T11:04:54.000Z</time>
        <extensions>
          <ns3:TrackPointExtension>
            <ns3:atemp>24.0</ns3:atemp>
          </ns3:TrackPointExtension>
        </extensions>
      </trkpt>
      <trkpt lat="42.50035260803997516632080078125" lon="20.1696310937404632568359375">
        <ele>2132</ele>
        <time>2026-06-20T11:04:55.000Z</time>
        <extensions>
          <ns3:TrackPointExtension>
            <ns3:atemp>24.0</ns3:atemp>
          </ns3:TrackPointExtension>
        </extensions>
      </trkpt>
      <trkpt lat="42.50035260803997516632080078125" lon="20.1696310937404632568359375">
        <ele>2132</ele>
        <time>2026-06-20T11:04:56.000Z</time>
        <extensions>
          <ns3:TrackPointExtension>
            <ns3:atemp>24.0</ns3:atemp>
          </ns3:TrackPointExtension>
        </extensions>
      </trkpt>
      <trkpt lat="42.50035260803997516632080078125" lon="20.1696310937404632568359375">
        <ele>2132</ele>
        <time>2026-06-20T11:04:57.000Z</time>
        <extensions>
          <ns3:TrackPointExtension>
            <ns3:atemp>24.0</ns3:atemp>
          </ns3:TrackPointExtension>
        </extensions>
      </trkpt>
      <trkpt lat="42.50035260803997516632080078125" lon="20.1696310937404632568359375">
        <ele>2132</ele>
        <time>2026-06-20T11:04:58.000Z</time>
        <extensions>
          <ns3:TrackPointExtension>
            <ns3:atemp>24.0</ns3:atemp>
          </ns3:TrackPointExtension>
        </extensions>
      </trkpt>
      <trkpt lat="42.50035260803997516632080078125" lon="20.1696310937404632568359375">
        <ele>2132</ele>
        <time>2026-06-20T11:04:59.000Z</time>
        <extensions>
          <ns3:TrackPointExtension>
            <ns3:atemp>24.0</ns3:atemp>
          </ns3:TrackPointExtension>
        </extensions>
      </trkpt>
      <trkpt lat="42.50035260803997516632080078125" lon="20.1696310937404632568359375">
        <ele>2132</ele>
        <time>2026-06-20T11:05:00.000Z</time>
        <extensions>
          <ns3:TrackPointExtension>
            <ns3:atemp>24.0</ns3:atemp>
          </ns3:TrackPointExtension>
        </extensions>
      </trkpt>
      <trkpt lat="42.50035260803997516632080078125" lon="20.1696310937404632568359375">
        <ele>2132</ele>
        <time>2026-06-20T11:05:01.000Z</time>
        <extensions>
          <ns3:TrackPointExtension>
            <ns3:atemp>24.0</ns3:atemp>
          </ns3:TrackPointExtension>
        </extensions>
      </trkpt>
      <trkpt lat="42.50035260803997516632080078125" lon="20.1696310937404632568359375">
        <ele>2132</ele>
        <time>2026-06-20T11:05:02.000Z</time>
        <extensions>
          <ns3:TrackPointExtension>
            <ns3:atemp>24.0</ns3:atemp>
          </ns3:TrackPointExtension>
        </extensions>
      </trkpt>
      <trkpt lat="42.50035260803997516632080078125" lon="20.1696310937404632568359375">
        <ele>2132</ele>
        <time>2026-06-20T11:05:03.000Z</time>
        <extensions>
          <ns3:TrackPointExtension>
            <ns3:atemp>24.0</ns3:atemp>
          </ns3:TrackPointExtension>
        </extensions>
      </trkpt>
      <trkpt lat="42.50035260803997516632080078125" lon="20.1696310937404632568359375">
        <ele>2132</ele>
        <time>2026-06-20T11:05:04.000Z</time>
        <extensions>
          <ns3:TrackPointExtension>
            <ns3:atemp>24.0</ns3:atemp>
          </ns3:TrackPointExtension>
        </extensions>
      </trkpt>
      <trkpt lat="42.50035260803997516632080078125" lon="20.1696310937404632568359375">
        <ele>2132</ele>
        <time>2026-06-20T11:05:05.000Z</time>
        <extensions>
          <ns3:TrackPointExtension>
            <ns3:atemp>24.0</ns3:atemp>
          </ns3:TrackPointExtension>
        </extensions>
      </trkpt>
      <trkpt lat="42.50035260803997516632080078125" lon="20.1696310937404632568359375">
        <ele>2132</ele>
        <time>2026-06-20T11:05:06.000Z</time>
        <extensions>
          <ns3:TrackPointExtension>
            <ns3:atemp>24.0</ns3:atemp>
          </ns3:TrackPointExtension>
        </extensions>
      </trkpt>
      <trkpt lat="42.50035260803997516632080078125" lon="20.1696310937404632568359375">
        <ele>2132</ele>
        <time>2026-06-20T11:05:07.000Z</time>
        <extensions>
          <ns3:TrackPointExtension>
            <ns3:atemp>24.0</ns3:atemp>
          </ns3:TrackPointExtension>
        </extensions>
      </trkpt>
      <trkpt lat="42.50035260803997516632080078125" lon="20.1696310937404632568359375">
        <ele>2132</ele>
        <time>2026-06-20T11:05:08.000Z</time>
        <extensions>
          <ns3:TrackPointExtension>
            <ns3:atemp>24.0</ns3:atemp>
          </ns3:TrackPointExtension>
        </extensions>
      </trkpt>
      <trkpt lat="42.50035260803997516632080078125" lon="20.1696310937404632568359375">
        <ele>2132</ele>
        <time>2026-06-20T11:05:09.000Z</time>
        <extensions>
          <ns3:TrackPointExtension>
            <ns3:atemp>24.0</ns3:atemp>
          </ns3:TrackPointExtension>
        </extensions>
      </trkpt>
      <trkpt lat="42.50035260803997516632080078125" lon="20.1696310937404632568359375">
        <ele>2132</ele>
        <time>2026-06-20T11:05:10.000Z</time>
        <extensions>
          <ns3:TrackPointExtension>
            <ns3:atemp>24.0</ns3:atemp>
          </ns3:TrackPointExtension>
        </extensions>
      </trkpt>
      <trkpt lat="42.50035260803997516632080078125" lon="20.1696310937404632568359375">
        <ele>2132</ele>
        <time>2026-06-20T11:05:11.000Z</time>
        <extensions>
          <ns3:TrackPointExtension>
            <ns3:atemp>24.0</ns3:atemp>
          </ns3:TrackPointExtension>
        </extensions>
      </trkpt>
      <trkpt lat="42.50035260803997516632080078125" lon="20.1696310937404632568359375">
        <ele>2132</ele>
        <time>2026-06-20T11:05:12.000Z</time>
        <extensions>
          <ns3:TrackPointExtension>
            <ns3:atemp>24.0</ns3:atemp>
          </ns3:TrackPointExtension>
        </extensions>
      </trkpt>
      <trkpt lat="42.50035260803997516632080078125" lon="20.1696310937404632568359375">
        <ele>2132</ele>
        <time>2026-06-20T11:05:13.000Z</time>
        <extensions>
          <ns3:TrackPointExtension>
            <ns3:atemp>24.0</ns3:atemp>
          </ns3:TrackPointExtension>
        </extensions>
      </trkpt>
      <trkpt lat="42.50035260803997516632080078125" lon="20.1696310937404632568359375">
        <ele>2132</ele>
        <time>2026-06-20T11:05:14.000Z</time>
        <extensions>
          <ns3:TrackPointExtension>
            <ns3:atemp>24.0</ns3:atemp>
          </ns3:TrackPointExtension>
        </extensions>
      </trkpt>
      <trkpt lat="42.50035260803997516632080078125" lon="20.1696310937404632568359375">
        <ele>2132</ele>
        <time>2026-06-20T11:05:15.000Z</time>
        <extensions>
          <ns3:TrackPointExtension>
            <ns3:atemp>24.0</ns3:atemp>
          </ns3:TrackPointExtension>
        </extensions>
      </trkpt>
      <trkpt lat="42.50035260803997516632080078125" lon="20.1696310937404632568359375">
        <ele>2132</ele>
        <time>2026-06-20T11:05:16.000Z</time>
        <extensions>
          <ns3:TrackPointExtension>
            <ns3:atemp>24.0</ns3:atemp>
          </ns3:TrackPointExtension>
        </extensions>
      </trkpt>
      <trkpt lat="42.50035260803997516632080078125" lon="20.1696310937404632568359375">
        <ele>2132</ele>
        <time>2026-06-20T11:05:17.000Z</time>
        <extensions>
          <ns3:TrackPointExtension>
            <ns3:atemp>24.0</ns3:atemp>
          </ns3:TrackPointExtension>
        </extensions>
      </trkpt>
      <trkpt lat="42.50035260803997516632080078125" lon="20.1696310937404632568359375">
        <ele>2132</ele>
        <time>2026-06-20T11:05:18.000Z</time>
        <extensions>
          <ns3:TrackPointExtension>
            <ns3:atemp>24.0</ns3:atemp>
          </ns3:TrackPointExtension>
        </extensions>
      </trkpt>
      <trkpt lat="42.50035260803997516632080078125" lon="20.1696310937404632568359375">
        <ele>2132</ele>
        <time>2026-06-20T11:05:19.000Z</time>
        <extensions>
          <ns3:TrackPointExtension>
            <ns3:atemp>24.0</ns3:atemp>
          </ns3:TrackPointExtension>
        </extensions>
      </trkpt>
      <trkpt lat="42.5003536976873874664306640625" lon="20.16962698660790920257568359375">
        <ele>2132</ele>
        <time>2026-06-20T11:05:20.000Z</time>
        <extensions>
          <ns3:TrackPointExtension>
            <ns3:atemp>24.0</ns3:atemp>
          </ns3:TrackPointExtension>
        </extensions>
      </trkpt>
      <trkpt lat="42.5003456510603427886962890625" lon="20.16962505877017974853515625">
        <ele>2132</ele>
        <time>2026-06-20T11:05:21.000Z</time>
        <extensions>
          <ns3:TrackPointExtension>
            <ns3:atemp>24.0</ns3:atemp>
          </ns3:TrackPointExtension>
        </extensions>
      </trkpt>
      <trkpt lat="42.50034238211810588836669921875" lon="20.16962883062660694122314453125">
        <ele>2132</ele>
        <time>2026-06-20T11:05:22.000Z</time>
        <extensions>
          <ns3:TrackPointExtension>
            <ns3:atemp>24.0</ns3:atemp>
          </ns3:TrackPointExtension>
        </extensions>
      </trkpt>
      <trkpt lat="42.500330395996570587158203125" lon="20.1696305908262729644775390625">
        <ele>2132</ele>
        <time>2026-06-20T11:05:23.000Z</time>
        <extensions>
          <ns3:TrackPointExtension>
            <ns3:atemp>24.0</ns3:atemp>
          </ns3:TrackPointExtension>
        </extensions>
      </trkpt>
      <trkpt lat="42.50031505711376667022705078125" lon="20.16963872127234935760498046875">
        <ele>2132.39990234375</ele>
        <time>2026-06-20T11:05:24.000Z</time>
        <extensions>
          <ns3:TrackPointExtension>
            <ns3:atemp>24.0</ns3:atemp>
          </ns3:TrackPointExtension>
        </extensions>
      </trkpt>
      <trkpt lat="42.500296533107757568359375" lon="20.16964844428002834320068359375">
        <ele>2132.199951171875</ele>
        <time>2026-06-20T11:05:25.000Z</time>
        <extensions>
          <ns3:TrackPointExtension>
            <ns3:atemp>24.0</ns3:atemp>
          </ns3:TrackPointExtension>
        </extensions>
      </trkpt>
      <trkpt lat="42.5002749077975749969482421875" lon="20.1696525514125823974609375">
        <ele>2132</ele>
        <time>2026-06-20T11:05:26.000Z</time>
        <extensions>
          <ns3:TrackPointExtension>
            <ns3:atemp>24.0</ns3:atemp>
          </ns3:TrackPointExtension>
        </extensions>
      </trkpt>
      <trkpt lat="42.50025093555450439453125" lon="20.169662944972515106201171875">
        <ele>2131.800048828125</ele>
        <time>2026-06-20T11:05:27.000Z</time>
        <extensions>
          <ns3:TrackPointExtension>
            <ns3:atemp>24.0</ns3:atemp>
          </ns3:TrackPointExtension>
        </extensions>
      </trkpt>
      <trkpt lat="42.50023257918655872344970703125" lon="20.16968465410172939300537109375">
        <ele>2131.60009765625</ele>
        <time>2026-06-20T11:05:28.000Z</time>
        <extensions>
          <ns3:TrackPointExtension>
            <ns3:atemp>24.0</ns3:atemp>
          </ns3:TrackPointExtension>
        </extensions>
      </trkpt>
      <trkpt lat="42.50021807849407196044921875" lon="20.16971264965832233428955078125">
        <ele>2131.39990234375</ele>
        <time>2026-06-20T11:05:29.000Z</time>
        <extensions>
          <ns3:TrackPointExtension>
            <ns3:atemp>24.0</ns3:atemp>
          </ns3:TrackPointExtension>
        </extensions>
      </trkpt>
      <trkpt lat="42.50019569881260395050048828125" lon="20.16974450089037418365478515625">
        <ele>2131</ele>
        <time>2026-06-20T11:05:30.000Z</time>
        <extensions>
          <ns3:TrackPointExtension>
            <ns3:atemp>24.0</ns3:atemp>
          </ns3:TrackPointExtension>
        </extensions>
      </trkpt>
      <trkpt lat="42.50017784535884857177734375" lon="20.16976830549538135528564453125">
        <ele>2130.800048828125</ele>
        <time>2026-06-20T11:05:31.000Z</time>
        <extensions>
          <ns3:TrackPointExtension>
            <ns3:atemp>24.0</ns3:atemp>
          </ns3:TrackPointExtension>
        </extensions>
      </trkpt>
      <trkpt lat="42.500147335231304168701171875" lon="20.169787667691707611083984375">
        <ele>2130.199951171875</ele>
        <time>2026-06-20T11:05:32.000Z</time>
        <extensions>
          <ns3:TrackPointExtension>
            <ns3:atemp>24.0</ns3:atemp>
          </ns3:TrackPointExtension>
        </extensions>
      </trkpt>
      <trkpt lat="42.50011674128472805023193359375" lon="20.16981557942926883697509765625">
        <ele>2129.800048828125</ele>
        <time>2026-06-20T11:05:33.000Z</time>
        <extensions>
          <ns3:TrackPointExtension>
            <ns3:atemp>24.0</ns3:atemp>
          </ns3:TrackPointExtension>
        </extensions>
      </trkpt>
      <trkpt lat="42.50009327195584774017333984375" lon="20.16985011287033557891845703125">
        <ele>2129.39990234375</ele>
        <time>2026-06-20T11:05:34.000Z</time>
        <extensions>
          <ns3:TrackPointExtension>
            <ns3:atemp>24.0</ns3:atemp>
          </ns3:TrackPointExtension>
        </extensions>
      </trkpt>
      <trkpt lat="42.50006644986569881439208984375" lon="20.16989168711006641387939453125">
        <ele>2128.800048828125</ele>
        <time>2026-06-20T11:05:35.000Z</time>
        <extensions>
          <ns3:TrackPointExtension>
            <ns3:atemp>24.0</ns3:atemp>
          </ns3:TrackPointExtension>
        </extensions>
      </trkpt>
      <trkpt lat="42.50004046596586704254150390625" lon="20.16993175260722637176513671875">
        <ele>2128.199951171875</ele>
        <time>2026-06-20T11:05:36.000Z</time>
        <extensions>
          <ns3:TrackPointExtension>
            <ns3:atemp>24.0</ns3:atemp>
          </ns3:TrackPointExtension>
        </extensions>
      </trkpt>
      <trkpt lat="42.5000187568366527557373046875" lon="20.1699759252369403839111328125">
        <ele>2127.800048828125</ele>
        <time>2026-06-20T11:05:37.000Z</time>
        <extensions>
          <ns3:TrackPointExtension>
            <ns3:atemp>24.0</ns3:atemp>
          </ns3:TrackPointExtension>
        </extensions>
      </trkpt>
      <trkpt lat="42.500002495944499969482421875" lon="20.1700079441070556640625">
        <ele>2127.199951171875</ele>
        <time>2026-06-20T11:05:38.000Z</time>
        <extensions>
          <ns3:TrackPointExtension>
            <ns3:atemp>24.0</ns3:atemp>
          </ns3:TrackPointExtension>
        </extensions>
      </trkpt>
      <trkpt lat="42.49998631887137889862060546875" lon="20.17003619112074375152587890625">
        <ele>2126.800048828125</ele>
        <time>2026-06-20T11:05:39.000Z</time>
        <extensions>
          <ns3:TrackPointExtension>
            <ns3:atemp>24.0</ns3:atemp>
          </ns3:TrackPointExtension>
        </extensions>
      </trkpt>
      <trkpt lat="42.49997056089341640472412109375" lon="20.1700644381344318389892578125">
        <ele>2126.39990234375</ele>
        <time>2026-06-20T11:05:40.000Z</time>
        <extensions>
          <ns3:TrackPointExtension>
            <ns3:atemp>24.0</ns3:atemp>
          </ns3:TrackPointExtension>
        </extensions>
      </trkpt>
      <trkpt lat="42.49995815567672252655029296875" lon="20.1701006479561328887939453125">
        <ele>2125.800048828125</ele>
        <time>2026-06-20T11:05:41.000Z</time>
        <extensions>
          <ns3:TrackPointExtension>
            <ns3:atemp>24.0</ns3:atemp>
          </ns3:TrackPointExtension>
        </extensions>
      </trkpt>
      <trkpt lat="42.49994005076587200164794921875" lon="20.1701455749571323394775390625">
        <ele>2125.39990234375</ele>
        <time>2026-06-20T11:05:42.000Z</time>
        <extensions>
          <ns3:TrackPointExtension>
            <ns3:atemp>24.0</ns3:atemp>
          </ns3:TrackPointExtension>
        </extensions>
      </trkpt>
      <trkpt lat="42.49993133358657360076904296875" lon="20.17019502818584442138671875">
        <ele>2124.800048828125</ele>
        <time>2026-06-20T11:05:43.000Z</time>
        <extensions>
          <ns3:TrackPointExtension>
            <ns3:atemp>24.0</ns3:atemp>
          </ns3:TrackPointExtension>
        </extensions>
      </trkpt>
      <trkpt lat="42.49992881901562213897705078125" lon="20.17025127075612545013427734375">
        <ele>2124</ele>
        <time>2026-06-20T11:05:44.000Z</time>
        <extensions>
          <ns3:TrackPointExtension>
            <ns3:atemp>24.0</ns3:atemp>
          </ns3:TrackPointExtension>
        </extensions>
      </trkpt>
      <trkpt lat="42.499921359121799468994140625" lon="20.170304663479328155517578125">
        <ele>2123.39990234375</ele>
        <time>2026-06-20T11:05:45.000Z</time>
        <extensions>
          <ns3:TrackPointExtension>
            <ns3:atemp>24.0</ns3:atemp>
          </ns3:TrackPointExtension>
        </extensions>
      </trkpt>
      <trkpt lat="42.499915324151515960693359375" lon="20.1703517697751522064208984375">
        <ele>2123</ele>
        <time>2026-06-20T11:05:46.000Z</time>
        <extensions>
          <ns3:TrackPointExtension>
            <ns3:atemp>24.0</ns3:atemp>
          </ns3:TrackPointExtension>
        </extensions>
      </trkpt>
      <trkpt lat="42.4999121390283107757568359375" lon="20.1704080961644649505615234375">
        <ele>2122.199951171875</ele>
        <time>2026-06-20T11:05:47.000Z</time>
        <extensions>
          <ns3:TrackPointExtension>
            <ns3:atemp>24.0</ns3:atemp>
          </ns3:TrackPointExtension>
        </extensions>
      </trkpt>
      <trkpt lat="42.4999017454683780670166015625" lon="20.1704607345163822174072265625">
        <ele>2121.39990234375</ele>
        <time>2026-06-20T11:05:48.000Z</time>
        <extensions>
          <ns3:TrackPointExtension>
            <ns3:atemp>24.0</ns3:atemp>
          </ns3:TrackPointExtension>
        </extensions>
      </trkpt>
      <trkpt lat="42.49989881180226802825927734375" lon="20.17052217386662960052490234375">
        <ele>2120.60009765625</ele>
        <time>2026-06-20T11:05:49.000Z</time>
        <extensions>
          <ns3:TrackPointExtension>
            <ns3:atemp>24.0</ns3:atemp>
          </ns3:TrackPointExtension>
        </extensions>
      </trkpt>
      <trkpt lat="42.4998926930129528045654296875" lon="20.170576907694339752197265625">
        <ele>2119.800048828125</ele>
        <time>2026-06-20T11:05:50.000Z</time>
        <extensions>
          <ns3:TrackPointExtension>
            <ns3:atemp>24.0</ns3:atemp>
          </ns3:TrackPointExtension>
        </extensions>
      </trkpt>
      <trkpt lat="42.4998829700052738189697265625" lon="20.1706377603113651275634765625">
        <ele>2119</ele>
        <time>2026-06-20T11:05:51.000Z</time>
        <extensions>
          <ns3:TrackPointExtension>
            <ns3:atemp>24.0</ns3:atemp>
          </ns3:TrackPointExtension>
        </extensions>
      </trkpt>
      <trkpt lat="42.49987064860761165618896484375" lon="20.1707044802606105804443359375">
        <ele>2118.39990234375</ele>
        <time>2026-06-20T11:05:52.000Z</time>
        <extensions>
          <ns3:TrackPointExtension>
            <ns3:atemp>24.0</ns3:atemp>
          </ns3:TrackPointExtension>
        </extensions>
      </trkpt>
      <trkpt lat="42.49986293725669384002685546875" lon="20.1707790791988372802734375">
        <ele>2117.60009765625</ele>
        <time>2026-06-20T11:05:53.000Z</time>
        <extensions>
          <ns3:TrackPointExtension>
            <ns3:atemp>24.0</ns3:atemp>
          </ns3:TrackPointExtension>
        </extensions>
      </trkpt>
      <trkpt lat="42.499865703284740447998046875" lon="20.1708550192415714263916015625">
        <ele>2116.60009765625</ele>
        <time>2026-06-20T11:05:54.000Z</time>
        <extensions>
          <ns3:TrackPointExtension>
            <ns3:atemp>24.0</ns3:atemp>
          </ns3:TrackPointExtension>
        </extensions>
      </trkpt>
      <trkpt lat="42.499870397150516510009765625" lon="20.17093070782721042633056640625">
        <ele>2115.800048828125</ele>
        <time>2026-06-20T11:05:55.000Z</time>
        <extensions>
          <ns3:TrackPointExtension>
            <ns3:atemp>24.0</ns3:atemp>
          </ns3:TrackPointExtension>
        </extensions>
      </trkpt>
      <trkpt lat="42.499865703284740447998046875" lon="20.17101234756410121917724609375">
        <ele>2115.199951171875</ele>
        <time>2026-06-20T11:05:56.000Z</time>
        <extensions>
          <ns3:TrackPointExtension>
            <ns3:atemp>24.0</ns3:atemp>
          </ns3:TrackPointExtension>
        </extensions>
      </trkpt>
      <trkpt lat="42.49985271133482456207275390625" lon="20.17109516076743602752685546875">
        <ele>2114.800048828125</ele>
        <time>2026-06-20T11:05:57.000Z</time>
        <extensions>
          <ns3:TrackPointExtension>
            <ns3:atemp>24.0</ns3:atemp>
          </ns3:TrackPointExtension>
        </extensions>
      </trkpt>
      <trkpt lat="42.4998273141682147979736328125" lon="20.1711755432188510894775390625">
        <ele>2114</ele>
        <time>2026-06-20T11:05:58.000Z</time>
        <extensions>
          <ns3:TrackPointExtension>
            <ns3:atemp>24.0</ns3:atemp>
          </ns3:TrackPointExtension>
        </extensions>
      </trkpt>
      <trkpt lat="42.499794624745845794677734375" lon="20.17125542275607585906982421875">
        <ele>2113.199951171875</ele>
        <time>2026-06-20T11:05:59.000Z</time>
        <extensions>
          <ns3:TrackPointExtension>
            <ns3:atemp>24.0</ns3:atemp>
          </ns3:TrackPointExtension>
        </extensions>
      </trkpt>
      <trkpt lat="42.49976168386638164520263671875" lon="20.171335637569427490234375">
        <ele>2111.800048828125</ele>
        <time>2026-06-20T11:06:00.000Z</time>
        <extensions>
          <ns3:TrackPointExtension>
            <ns3:atemp>24.0</ns3:atemp>
          </ns3:TrackPointExtension>
        </extensions>
      </trkpt>
      <trkpt lat="42.499722875654697418212890625" lon="20.17141032032668590545654296875">
        <ele>2111.199951171875</ele>
        <time>2026-06-20T11:06:01.000Z</time>
        <extensions>
          <ns3:TrackPointExtension>
            <ns3:atemp>24.0</ns3:atemp>
          </ns3:TrackPointExtension>
        </extensions>
      </trkpt>
      <trkpt lat="42.49968373216688632965087890625" lon="20.171478800475597381591796875">
        <ele>2110.39990234375</ele>
        <time>2026-06-20T11:06:02.000Z</time>
        <extensions>
          <ns3:TrackPointExtension>
            <ns3:atemp>24.0</ns3:atemp>
          </ns3:TrackPointExtension>
        </extensions>
      </trkpt>
      <trkpt lat="42.49965372495353221893310546875" lon="20.17154007218778133392333984375">
        <ele>2110</ele>
        <time>2026-06-20T11:06:03.000Z</time>
        <extensions>
          <ns3:TrackPointExtension>
            <ns3:atemp>24.0</ns3:atemp>
          </ns3:TrackPointExtension>
        </extensions>
      </trkpt>
      <trkpt lat="42.4996328540146350860595703125" lon="20.1715892739593982696533203125">
        <ele>2109.800048828125</ele>
        <time>2026-06-20T11:06:04.000Z</time>
        <extensions>
          <ns3:TrackPointExtension>
            <ns3:atemp>24.0</ns3:atemp>
          </ns3:TrackPointExtension>
        </extensions>
      </trkpt>
      <trkpt lat="42.499616928398609161376953125" lon="20.171637050807476043701171875">
        <ele>2109.199951171875</ele>
        <time>2026-06-20T11:06:05.000Z</time>
        <extensions>
          <ns3:TrackPointExtension>
            <ns3:atemp>24.0</ns3:atemp>
          </ns3:TrackPointExtension>
        </extensions>
      </trkpt>
      <trkpt lat="42.4996080435812473297119140625" lon="20.171690694987773895263671875">
        <ele>2108.800048828125</ele>
        <time>2026-06-20T11:06:06.000Z</time>
        <extensions>
          <ns3:TrackPointExtension>
            <ns3:atemp>24.0</ns3:atemp>
          </ns3:TrackPointExtension>
        </extensions>
      </trkpt>
      <trkpt lat="42.4996031820774078369140625" lon="20.17174878157675266265869140625">
        <ele>2108.199951171875</ele>
        <time>2026-06-20T11:06:07.000Z</time>
        <extensions>
          <ns3:TrackPointExtension>
            <ns3:atemp>24.0</ns3:atemp>
          </ns3:TrackPointExtension>
        </extensions>
      </trkpt>
      <trkpt lat="42.499601840972900390625" lon="20.1718095503747463226318359375">
        <ele>2107.800048828125</ele>
        <time>2026-06-20T11:06:08.000Z</time>
        <extensions>
          <ns3:TrackPointExtension>
            <ns3:atemp>24.0</ns3:atemp>
          </ns3:TrackPointExtension>
        </extensions>
      </trkpt>
      <trkpt lat="42.49959890730679035186767578125" lon="20.1718626916408538818359375">
        <ele>2107.199951171875</ele>
        <time>2026-06-20T11:06:09.000Z</time>
        <extensions>
          <ns3:TrackPointExtension>
            <ns3:atemp>24.0</ns3:atemp>
          </ns3:TrackPointExtension>
        </extensions>
      </trkpt>
      <trkpt lat="42.49959454871714115142822265625" lon="20.17191491089761257171630859375">
        <ele>2106.60009765625</ele>
        <time>2026-06-20T11:06:10.000Z</time>
        <extensions>
          <ns3:TrackPointExtension>
            <ns3:atemp>24.0</ns3:atemp>
          </ns3:TrackPointExtension>
        </extensions>
      </trkpt>
      <trkpt lat="42.499595470726490020751953125" lon="20.17197190783917903900146484375">
        <ele>2106</ele>
        <time>2026-06-20T11:06:11.000Z</time>
        <extensions>
          <ns3:TrackPointExtension>
            <ns3:atemp>24.0</ns3:atemp>
          </ns3:TrackPointExtension>
        </extensions>
      </trkpt>
      <trkpt lat="42.4995979852974414825439453125" lon="20.17203141935169696807861328125">
        <ele>2105.60009765625</ele>
        <time>2026-06-20T11:06:12.000Z</time>
        <extensions>
          <ns3:TrackPointExtension>
            <ns3:atemp>24.0</ns3:atemp>
          </ns3:TrackPointExtension>
        </extensions>
      </trkpt>
      <trkpt lat="42.49959806911647319793701171875" lon="20.172091014683246612548828125">
        <ele>2105</ele>
        <time>2026-06-20T11:06:13.000Z</time>
        <extensions>
          <ns3:TrackPointExtension>
            <ns3:atemp>24.0</ns3:atemp>
          </ns3:TrackPointExtension>
        </extensions>
      </trkpt>
      <trkpt lat="42.4995993264019489288330078125" lon="20.1721498556435108184814453125">
        <ele>2104.60009765625</ele>
        <time>2026-06-20T11:06:14.000Z</time>
        <extensions>
          <ns3:TrackPointExtension>
            <ns3:atemp>24.0</ns3:atemp>
          </ns3:TrackPointExtension>
        </extensions>
      </trkpt>
      <trkpt lat="42.49960712157189846038818359375" lon="20.172204673290252685546875">
        <ele>2104</ele>
        <time>2026-06-20T11:06:15.000Z</time>
        <extensions>
          <ns3:TrackPointExtension>
            <ns3:atemp>24.0</ns3:atemp>
          </ns3:TrackPointExtension>
        </extensions>
      </trkpt>
      <trkpt lat="42.4996154196560382843017578125" lon="20.17225630581378936767578125">
        <ele>2103.39990234375</ele>
        <time>2026-06-20T11:06:16.000Z</time>
        <extensions>
          <ns3:TrackPointExtension>
            <ns3:atemp>24.0</ns3:atemp>
          </ns3:TrackPointExtension>
        </extensions>
      </trkpt>
      <trkpt lat="42.49962053261697292327880859375" lon="20.172306932508945465087890625">
        <ele>2103</ele>
        <time>2026-06-20T11:06:17.000Z</time>
        <extensions>
          <ns3:TrackPointExtension>
            <ns3:atemp>24.0</ns3:atemp>
          </ns3:TrackPointExtension>
        </extensions>
      </trkpt>
      <trkpt lat="42.49962975271046161651611328125" lon="20.17235311679542064666748046875">
        <ele>2102.199951171875</ele>
        <time>2026-06-20T11:06:18.000Z</time>
        <extensions>
          <ns3:TrackPointExtension>
            <ns3:atemp>24.0</ns3:atemp>
          </ns3:TrackPointExtension>
        </extensions>
      </trkpt>
      <trkpt lat="42.4996380507946014404296875" lon="20.1724060066044330596923828125">
        <ele>2101.800048828125</ele>
        <time>2026-06-20T11:06:19.000Z</time>
        <extensions>
          <ns3:TrackPointExtension>
            <ns3:atemp>24.0</ns3:atemp>
          </ns3:TrackPointExtension>
        </extensions>
      </trkpt>
      <trkpt lat="42.4996382184326648712158203125" lon="20.1724608242511749267578125">
        <ele>2101</ele>
        <time>2026-06-20T11:06:20.000Z</time>
        <extensions>
          <ns3:TrackPointExtension>
            <ns3:atemp>24.0</ns3:atemp>
          </ns3:TrackPointExtension>
        </extensions>
      </trkpt>
      <trkpt lat="42.49963712878525257110595703125" lon="20.1725169830024242401123046875">
        <ele>2100.39990234375</ele>
        <time>2026-06-20T11:06:21.000Z</time>
        <extensions>
          <ns3:TrackPointExtension>
            <ns3:atemp>24.0</ns3:atemp>
          </ns3:TrackPointExtension>
        </extensions>
      </trkpt>
      <trkpt lat="42.4996331892907619476318359375" lon="20.17257439903914928436279296875">
        <ele>2099.60009765625</ele>
        <time>2026-06-20T11:06:22.000Z</time>
        <extensions>
          <ns3:TrackPointExtension>
            <ns3:atemp>24.0</ns3:atemp>
          </ns3:TrackPointExtension>
        </extensions>
      </trkpt>
      <trkpt lat="42.49962036497890949249267578125" lon="20.17262603156268596649169921875">
        <ele>2099.199951171875</ele>
        <time>2026-06-20T11:06:23.000Z</time>
        <extensions>
          <ns3:TrackPointExtension>
            <ns3:atemp>24.0</ns3:atemp>
          </ns3:TrackPointExtension>
        </extensions>
      </trkpt>
      <trkpt lat="42.499614246189594268798828125" lon="20.17267934046685695648193359375">
        <ele>2098.60009765625</ele>
        <time>2026-06-20T11:06:24.000Z</time>
        <extensions>
          <ns3:TrackPointExtension>
            <ns3:atemp>24.0</ns3:atemp>
          </ns3:TrackPointExtension>
        </extensions>
      </trkpt>
      <trkpt lat="42.49960720539093017578125" lon="20.17273097299039363861083984375">
        <ele>2097.800048828125</ele>
        <time>2026-06-20T11:06:25.000Z</time>
        <extensions>
          <ns3:TrackPointExtension>
            <ns3:atemp>24.0</ns3:atemp>
          </ns3:TrackPointExtension>
        </extensions>
      </trkpt>
      <trkpt lat="42.4995978176593780517578125" lon="20.17278227023780345916748046875">
        <ele>2097.39990234375</ele>
        <time>2026-06-20T11:06:26.000Z</time>
        <extensions>
          <ns3:TrackPointExtension>
            <ns3:atemp>24.0</ns3:atemp>
          </ns3:TrackPointExtension>
        </extensions>
      </trkpt>
      <trkpt lat="42.49958650209009647369384765625" lon="20.17283138819038867950439453125">
        <ele>2096.800048828125</ele>
        <time>2026-06-20T11:06:27.000Z</time>
        <extensions>
          <ns3:TrackPointExtension>
            <ns3:atemp>24.0</ns3:atemp>
          </ns3:TrackPointExtension>
        </extensions>
      </trkpt>
      <trkpt lat="42.49957812018692493438720703125" lon="20.17288260161876678466796875">
        <ele>2096.199951171875</ele>
        <time>2026-06-20T11:06:28.000Z</time>
        <extensions>
          <ns3:TrackPointExtension>
            <ns3:atemp>24.0</ns3:atemp>
          </ns3:TrackPointExtension>
        </extensions>
      </trkpt>
      <trkpt lat="42.49957300722599029541015625" lon="20.17293490469455718994140625">
        <ele>2095.39990234375</ele>
        <time>2026-06-20T11:06:29.000Z</time>
        <extensions>
          <ns3:TrackPointExtension>
            <ns3:atemp>24.0</ns3:atemp>
          </ns3:TrackPointExtension>
        </extensions>
      </trkpt>
      <trkpt lat="42.49956739135086536407470703125" lon="20.17299584113061428070068359375">
        <ele>2094.39990234375</ele>
        <time>2026-06-20T11:06:30.000Z</time>
        <extensions>
          <ns3:TrackPointExtension>
            <ns3:atemp>24.0</ns3:atemp>
          </ns3:TrackPointExtension>
        </extensions>
      </trkpt>
      <trkpt lat="42.49956018291413784027099609375" lon="20.17305837012827396392822265625">
        <ele>2093.800048828125</ele>
        <time>2026-06-20T11:06:31.000Z</time>
        <extensions>
          <ns3:TrackPointExtension>
            <ns3:atemp>24.0</ns3:atemp>
          </ns3:TrackPointExtension>
        </extensions>
      </trkpt>
      <trkpt lat="42.49954643659293651580810546875" lon="20.17312425188720226287841796875">
        <ele>2093</ele>
        <time>2026-06-20T11:06:32.000Z</time>
        <extensions>
          <ns3:TrackPointExtension>
            <ns3:atemp>24.0</ns3:atemp>
          </ns3:TrackPointExtension>
        </extensions>
      </trkpt>
      <trkpt lat="42.49953252263367176055908203125" lon="20.1731932349503040313720703125">
        <ele>2092.199951171875</ele>
        <time>2026-06-20T11:06:33.000Z</time>
        <extensions>
          <ns3:TrackPointExtension>
            <ns3:atemp>24.0</ns3:atemp>
          </ns3:TrackPointExtension>
        </extensions>
      </trkpt>
      <trkpt lat="42.49952598474919795989990234375" lon="20.17326883971691131591796875">
        <ele>2091.60009765625</ele>
        <time>2026-06-20T11:06:34.000Z</time>
        <extensions>
          <ns3:TrackPointExtension>
            <ns3:atemp>24.0</ns3:atemp>
          </ns3:TrackPointExtension>
        </extensions>
      </trkpt>
      <trkpt lat="42.49952062033116817474365234375" lon="20.173345617949962615966796875">
        <ele>2091</ele>
        <time>2026-06-20T11:06:35.000Z</time>
        <extensions>
          <ns3:TrackPointExtension>
            <ns3:atemp>24.0</ns3:atemp>
          </ns3:TrackPointExtension>
        </extensions>
      </trkpt>
      <trkpt lat="42.49951911158859729766845703125" lon="20.17342532984912395477294921875">
        <ele>2090</ele>
        <time>2026-06-20T11:06:36.000Z</time>
        <extensions>
          <ns3:TrackPointExtension>
            <ns3:atemp>24.0</ns3:atemp>
          </ns3:TrackPointExtension>
        </extensions>
      </trkpt>
      <trkpt lat="42.49951575882732868194580078125" lon="20.17350596375763416290283203125">
        <ele>2089.39990234375</ele>
        <time>2026-06-20T11:06:37.000Z</time>
        <extensions>
          <ns3:TrackPointExtension>
            <ns3:atemp>24.0</ns3:atemp>
          </ns3:TrackPointExtension>
        </extensions>
      </trkpt>
      <trkpt lat="42.4995077960193157196044921875" lon="20.1735848374664783477783203125">
        <ele>2088.39990234375</ele>
        <time>2026-06-20T11:06:38.000Z</time>
        <extensions>
          <ns3:TrackPointExtension>
            <ns3:atemp>24.0</ns3:atemp>
          </ns3:TrackPointExtension>
        </extensions>
      </trkpt>
      <trkpt lat="42.499496899545192718505859375" lon="20.17366438172757625579833984375">
        <ele>2087.39990234375</ele>
        <time>2026-06-20T11:06:39.000Z</time>
        <extensions>
          <ns3:TrackPointExtension>
            <ns3:atemp>24.0</ns3:atemp>
          </ns3:TrackPointExtension>
        </extensions>
      </trkpt>
      <trkpt lat="42.49948658980429172515869140625" lon="20.173737891018390655517578125">
        <ele>2086.199951171875</ele>
        <time>2026-06-20T11:06:40.000Z</time>
        <extensions>
          <ns3:TrackPointExtension>
            <ns3:atemp>24.0</ns3:atemp>
          </ns3:TrackPointExtension>
        </extensions>
      </trkpt>
      <trkpt lat="42.49948181211948394775390625" lon="20.17381777055561542510986328125">
        <ele>2085.39990234375</ele>
        <time>2026-06-20T11:06:41.000Z</time>
        <extensions>
          <ns3:TrackPointExtension>
            <ns3:atemp>24.0</ns3:atemp>
          </ns3:TrackPointExtension>
        </extensions>
      </trkpt>
      <trkpt lat="42.4994722567498683929443359375" lon="20.17389857210218906402587890625">
        <ele>2084.39990234375</ele>
        <time>2026-06-20T11:06:42.000Z</time>
        <extensions>
          <ns3:TrackPointExtension>
            <ns3:atemp>24.0</ns3:atemp>
          </ns3:TrackPointExtension>
        </extensions>
      </trkpt>
      <trkpt lat="42.49946680851280689239501953125" lon="20.17397903837263584136962890625">
        <ele>2083.39990234375</ele>
        <time>2026-06-20T11:06:43.000Z</time>
        <extensions>
          <ns3:TrackPointExtension>
            <ns3:atemp>24.0</ns3:atemp>
          </ns3:TrackPointExtension>
        </extensions>
      </trkpt>
      <trkpt lat="42.49945892952382564544677734375" lon="20.17406411468982696533203125">
        <ele>2082.39990234375</ele>
        <time>2026-06-20T11:06:44.000Z</time>
        <extensions>
          <ns3:TrackPointExtension>
            <ns3:atemp>24.0</ns3:atemp>
          </ns3:TrackPointExtension>
        </extensions>
      </trkpt>
      <trkpt lat="42.499447949230670928955078125" lon="20.1741548068821430206298828125">
        <ele>2081</ele>
        <time>2026-06-20T11:06:45.000Z</time>
        <extensions>
          <ns3:TrackPointExtension>
            <ns3:atemp>24.0</ns3:atemp>
          </ns3:TrackPointExtension>
        </extensions>
      </trkpt>
      <trkpt lat="42.499433197081089019775390625" lon="20.1742560602724552154541015625">
        <ele>2080</ele>
        <time>2026-06-20T11:06:46.000Z</time>
        <extensions>
          <ns3:TrackPointExtension>
            <ns3:atemp>24.0</ns3:atemp>
          </ns3:TrackPointExtension>
        </extensions>
      </trkpt>
      <trkpt lat="42.49941073358058929443359375" lon="20.17436049878597259521484375">
        <ele>2079</ele>
        <time>2026-06-20T11:06:47.000Z</time>
        <extensions>
          <ns3:TrackPointExtension>
            <ns3:atemp>24.0</ns3:atemp>
          </ns3:TrackPointExtension>
        </extensions>
      </trkpt>
      <trkpt lat="42.49938919208943843841552734375" lon="20.1744652725756168365478515625">
        <ele>2078</ele>
        <time>2026-06-20T11:06:48.000Z</time>
        <extensions>
          <ns3:TrackPointExtension>
            <ns3:atemp>24.0</ns3:atemp>
          </ns3:TrackPointExtension>
        </extensions>
      </trkpt>
      <trkpt lat="42.49937159009277820587158203125" lon="20.1745608262717723846435546875">
        <ele>2077</ele>
        <time>2026-06-20T11:06:49.000Z</time>
        <extensions>
          <ns3:TrackPointExtension>
            <ns3:atemp>24.0</ns3:atemp>
          </ns3:TrackPointExtension>
        </extensions>
      </trkpt>
      <trkpt lat="42.4993549101054668426513671875" lon="20.17464422620832920074462890625">
        <ele>2075.60009765625</ele>
        <time>2026-06-20T11:06:50.000Z</time>
        <extensions>
          <ns3:TrackPointExtension>
            <ns3:atemp>24.0</ns3:atemp>
          </ns3:TrackPointExtension>
        </extensions>
      </trkpt>
      <trkpt lat="42.49935801140964031219482421875" lon="20.1747237704694271087646484375">
        <ele>2074.39990234375</ele>
        <time>2026-06-20T11:06:51.000Z</time>
        <extensions>
          <ns3:TrackPointExtension>
            <ns3:atemp>24.0</ns3:atemp>
          </ns3:TrackPointExtension>
        </extensions>
      </trkpt>
      <trkpt lat="42.4993562512099742889404296875" lon="20.17480172216892242431640625">
        <ele>2073.60009765625</ele>
        <time>2026-06-20T11:06:52.000Z</time>
        <extensions>
          <ns3:TrackPointExtension>
            <ns3:atemp>24.0</ns3:atemp>
          </ns3:TrackPointExtension>
        </extensions>
      </trkpt>
      <trkpt lat="42.499336637556552886962890625" lon="20.17486752010881900787353515625">
        <ele>2073.39990234375</ele>
        <time>2026-06-20T11:06:53.000Z</time>
        <extensions>
          <ns3:TrackPointExtension>
            <ns3:atemp>24.0</ns3:atemp>
          </ns3:TrackPointExtension>
        </extensions>
      </trkpt>
      <trkpt lat="42.4993143416941165924072265625" lon="20.1749230921268463134765625">
        <ele>2073.199951171875</ele>
        <time>2026-06-20T11:06:54.000Z</time>
        <extensions>
          <ns3:TrackPointExtension>
            <ns3:atemp>24.0</ns3:atemp>
          </ns3:TrackPointExtension>
        </extensions>
      </trkpt>
      <trkpt lat="42.49928626231849193572998046875" lon="20.1749765686690807342529296875">
        <ele>2072.60009765625</ele>
        <time>2026-06-20T11:06:55.000Z</time>
        <extensions>
          <ns3:TrackPointExtension>
            <ns3:atemp>24.0</ns3:atemp>
          </ns3:TrackPointExtension>
        </extensions>
      </trkpt>
      <trkpt lat="42.499261535704135894775390625" lon="20.17503214068710803985595703125">
        <ele>2072.199951171875</ele>
        <time>2026-06-20T11:06:56.000Z</time>
        <extensions>
          <ns3:TrackPointExtension>
            <ns3:atemp>24.0</ns3:atemp>
          </ns3:TrackPointExtension>
        </extensions>
      </trkpt>
      <trkpt lat="42.49923312105238437652587890625" lon="20.17509215511381626129150390625">
        <ele>2071.800048828125</ele>
        <time>2026-06-20T11:06:57.000Z</time>
        <extensions>
          <ns3:TrackPointExtension>
            <ns3:atemp>24.0</ns3:atemp>
          </ns3:TrackPointExtension>
        </extensions>
      </trkpt>
      <trkpt lat="42.499208562076091766357421875" lon="20.17515418119728565216064453125">
        <ele>2071.39990234375</ele>
        <time>2026-06-20T11:06:58.000Z</time>
        <extensions>
          <ns3:TrackPointExtension>
            <ns3:atemp>24.0</ns3:atemp>
          </ns3:TrackPointExtension>
        </extensions>
      </trkpt>
      <trkpt lat="42.499191127717494964599609375" lon="20.17521788366138935089111328125">
        <ele>2070.800048828125</ele>
        <time>2026-06-20T11:06:59.000Z</time>
        <extensions>
          <ns3:TrackPointExtension>
            <ns3:atemp>24.0</ns3:atemp>
          </ns3:TrackPointExtension>
        </extensions>
      </trkpt>
      <trkpt lat="42.4991798959672451019287109375" lon="20.17529181204736232757568359375">
        <ele>2070.199951171875</ele>
        <time>2026-06-20T11:07:00.000Z</time>
        <extensions>
          <ns3:TrackPointExtension>
            <ns3:atemp>24.0</ns3:atemp>
          </ns3:TrackPointExtension>
        </extensions>
      </trkpt>
      <trkpt lat="42.49916170723736286163330078125" lon="20.1753683388233184814453125">
        <ele>2069.60009765625</ele>
        <time>2026-06-20T11:07:01.000Z</time>
        <extensions>
          <ns3:TrackPointExtension>
            <ns3:atemp>24.0</ns3:atemp>
          </ns3:TrackPointExtension>
        </extensions>
      </trkpt>
      <trkpt lat="42.4991440214216709136962890625" lon="20.17544553615152835845947265625">
        <ele>2069</ele>
        <time>2026-06-20T11:07:02.000Z</time>
        <extensions>
          <ns3:TrackPointExtension>
            <ns3:atemp>24.0</ns3:atemp>
          </ns3:TrackPointExtension>
        </extensions>
      </trkpt>
      <trkpt lat="42.49912667088210582733154296875" lon="20.1755354739725589752197265625">
        <ele>2068</ele>
        <time>2026-06-20T11:07:03.000Z</time>
        <extensions>
          <ns3:TrackPointExtension>
            <ns3:atemp>24.0</ns3:atemp>
          </ns3:TrackPointExtension>
        </extensions>
      </trkpt>
      <trkpt lat="42.499109990894794464111328125" lon="20.17562876455485820770263671875">
        <ele>2067.199951171875</ele>
        <time>2026-06-20T11:07:04.000Z</time>
        <extensions>
          <ns3:TrackPointExtension>
            <ns3:atemp>24.0</ns3:atemp>
          </ns3:TrackPointExtension>
        </extensions>
      </trkpt>
      <trkpt lat="42.4990980885922908782958984375" lon="20.17572037875652313232421875">
        <ele>2066.39990234375</ele>
        <time>2026-06-20T11:07:05.000Z</time>
        <extensions>
          <ns3:TrackPointExtension>
            <ns3:atemp>24.0</ns3:atemp>
          </ns3:TrackPointExtension>
        </extensions>
      </trkpt>
      <trkpt lat="42.49907637946307659149169921875" lon="20.17579874955117702484130859375">
        <ele>2065.800048828125</ele>
        <time>2026-06-20T11:07:06.000Z</time>
        <extensions>
          <ns3:TrackPointExtension>
            <ns3:atemp>24.0</ns3:atemp>
          </ns3:TrackPointExtension>
        </extensions>
      </trkpt>
      <trkpt lat="42.4990555085241794586181640625" lon="20.17586194910109043121337890625">
        <ele>2065.39990234375</ele>
        <time>2026-06-20T11:07:07.000Z</time>
        <extensions>
          <ns3:TrackPointExtension>
            <ns3:atemp>23.0</ns3:atemp>
          </ns3:TrackPointExtension>
        </extensions>
      </trkpt>
      <trkpt lat="42.49903195537626743316650390625" lon="20.175900757312774658203125">
        <ele>2065.199951171875</ele>
        <time>2026-06-20T11:07:08.000Z</time>
        <extensions>
          <ns3:TrackPointExtension>
            <ns3:atemp>24.0</ns3:atemp>
          </ns3:TrackPointExtension>
        </extensions>
      </trkpt>
      <trkpt lat="42.49901066534221172332763671875" lon="20.17593738622963428497314453125">
        <ele>2064.60009765625</ele>
        <time>2026-06-20T11:07:09.000Z</time>
        <extensions>
          <ns3:TrackPointExtension>
            <ns3:atemp>23.0</ns3:atemp>
          </ns3:TrackPointExtension>
        </extensions>
      </trkpt>
      <trkpt lat="42.49900228343904018402099609375" lon="20.17598466016352176666259765625">
        <ele>2064</ele>
        <time>2026-06-20T11:07:10.000Z</time>
        <extensions>
          <ns3:TrackPointExtension>
            <ns3:atemp>23.0</ns3:atemp>
          </ns3:TrackPointExtension>
        </extensions>
      </trkpt>
      <trkpt lat="42.49900010414421558380126953125" lon="20.17603176645934581756591796875">
        <ele>2063.800048828125</ele>
        <time>2026-06-20T11:07:11.000Z</time>
        <extensions>
          <ns3:TrackPointExtension>
            <ns3:atemp>23.0</ns3:atemp>
          </ns3:TrackPointExtension>
        </extensions>
      </trkpt>
      <trkpt lat="42.4989908002316951751708984375" lon="20.17608189024031162261962890625">
        <ele>2063.39990234375</ele>
        <time>2026-06-20T11:07:12.000Z</time>
        <extensions>
          <ns3:TrackPointExtension>
            <ns3:atemp>23.0</ns3:atemp>
          </ns3:TrackPointExtension>
        </extensions>
      </trkpt>
      <trkpt lat="42.49898049049079418182373046875" lon="20.17613704316318035125732421875">
        <ele>2062.60009765625</ele>
        <time>2026-06-20T11:07:13.000Z</time>
        <extensions>
          <ns3:TrackPointExtension>
            <ns3:atemp>23.0</ns3:atemp>
          </ns3:TrackPointExtension>
        </extensions>
      </trkpt>
      <trkpt lat="42.4989567697048187255859375" lon="20.17619387246668338775634765625">
        <ele>2061.800048828125</ele>
        <time>2026-06-20T11:07:14.000Z</time>
        <extensions>
          <ns3:TrackPointExtension>
            <ns3:atemp>23.0</ns3:atemp>
          </ns3:TrackPointExtension>
        </extensions>
      </trkpt>
      <trkpt lat="42.498934976756572723388671875" lon="20.17625472508370876312255859375">
        <ele>2061.199951171875</ele>
        <time>2026-06-20T11:07:15.000Z</time>
        <extensions>
          <ns3:TrackPointExtension>
            <ns3:atemp>23.0</ns3:atemp>
          </ns3:TrackPointExtension>
        </extensions>
      </trkpt>
      <trkpt lat="42.49890974722802639007568359375" lon="20.1763210259377956390380859375">
        <ele>2060.60009765625</ele>
        <time>2026-06-20T11:07:16.000Z</time>
        <extensions>
          <ns3:TrackPointExtension>
            <ns3:atemp>23.0</ns3:atemp>
          </ns3:TrackPointExtension>
        </extensions>
      </trkpt>
      <trkpt lat="42.4988816678524017333984375" lon="20.1763921044766902923583984375">
        <ele>2060</ele>
        <time>2026-06-20T11:07:17.000Z</time>
        <extensions>
          <ns3:TrackPointExtension>
            <ns3:atemp>23.0</ns3:atemp>
          </ns3:TrackPointExtension>
        </extensions>
      </trkpt>
      <trkpt lat="42.49885442666709423065185546875" lon="20.17645957879722118377685546875">
        <ele>2059.60009765625</ele>
        <time>2026-06-20T11:07:18.000Z</time>
        <extensions>
          <ns3:TrackPointExtension>
            <ns3:atemp>23.0</ns3:atemp>
          </ns3:TrackPointExtension>
        </extensions>
      </trkpt>
      <trkpt lat="42.49883548356592655181884765625" lon="20.17652210779488086700439453125">
        <ele>2059</ele>
        <time>2026-06-20T11:07:19.000Z</time>
        <extensions>
          <ns3:TrackPointExtension>
            <ns3:atemp>23.0</ns3:atemp>
          </ns3:TrackPointExtension>
        </extensions>
      </trkpt>
      <trkpt lat="42.49883464537560939788818359375" lon="20.1765835471451282501220703125">
        <ele>2058.60009765625</ele>
        <time>2026-06-20T11:07:20.000Z</time>
        <extensions>
          <ns3:TrackPointExtension>
            <ns3:atemp>23.0</ns3:atemp>
          </ns3:TrackPointExtension>
        </extensions>
      </trkpt>
      <trkpt lat="42.49884621240198612213134765625" lon="20.1766343414783477783203125">
        <ele>2058</ele>
        <time>2026-06-20T11:07:21.000Z</time>
        <extensions>
          <ns3:TrackPointExtension>
            <ns3:atemp>23.0</ns3:atemp>
          </ns3:TrackPointExtension>
        </extensions>
      </trkpt>
      <trkpt lat="42.49885551631450653076171875" lon="20.1766772568225860595703125">
        <ele>2057.800048828125</ele>
        <time>2026-06-20T11:07:22.000Z</time>
        <extensions>
          <ns3:TrackPointExtension>
            <ns3:atemp>23.0</ns3:atemp>
          </ns3:TrackPointExtension>
        </extensions>
      </trkpt>
      <trkpt lat="42.49885618686676025390625" lon="20.17671941779553890228271484375">
        <ele>2057.60009765625</ele>
        <time>2026-06-20T11:07:23.000Z</time>
        <extensions>
          <ns3:TrackPointExtension>
            <ns3:atemp>23.0</ns3:atemp>
          </ns3:TrackPointExtension>
        </extensions>
      </trkpt>
      <trkpt lat="42.49885174445807933807373046875" lon="20.17676250077784061431884765625">
        <ele>2057.60009765625</ele>
        <time>2026-06-20T11:07:24.000Z</time>
        <extensions>
          <ns3:TrackPointExtension>
            <ns3:atemp>23.0</ns3:atemp>
          </ns3:TrackPointExtension>
        </extensions>
      </trkpt>
      <trkpt lat="42.4988479726016521453857421875" lon="20.176799632608890533447265625">
        <ele>2057.60009765625</ele>
        <time>2026-06-20T11:07:25.000Z</time>
        <extensions>
          <ns3:TrackPointExtension>
            <ns3:atemp>23.0</ns3:atemp>
          </ns3:TrackPointExtension>
        </extensions>
      </trkpt>
      <trkpt lat="42.49883900396525859832763671875" lon="20.1768346689641475677490234375">
        <ele>2057.39990234375</ele>
        <time>2026-06-20T11:07:26.000Z</time>
        <extensions>
          <ns3:TrackPointExtension>
            <ns3:atemp>23.0</ns3:atemp>
          </ns3:TrackPointExtension>
        </extensions>
      </trkpt>
      <trkpt lat="42.498833723366260528564453125" lon="20.1768795959651470184326171875">
        <ele>2056.800048828125</ele>
        <time>2026-06-20T11:07:27.000Z</time>
        <extensions>
          <ns3:TrackPointExtension>
            <ns3:atemp>23.0</ns3:atemp>
          </ns3:TrackPointExtension>
        </extensions>
      </trkpt>
      <trkpt lat="42.49882844276726245880126953125" lon="20.1769268698990345001220703125">
        <ele>2056.199951171875</ele>
        <time>2026-06-20T11:07:28.000Z</time>
        <extensions>
          <ns3:TrackPointExtension>
            <ns3:atemp>23.0</ns3:atemp>
          </ns3:TrackPointExtension>
        </extensions>
      </trkpt>
      <trkpt lat="42.49882643111050128936767578125" lon="20.17698076553642749786376953125">
        <ele>2055.39990234375</ele>
        <time>2026-06-20T11:07:29.000Z</time>
        <extensions>
          <ns3:TrackPointExtension>
            <ns3:atemp>23.0</ns3:atemp>
          </ns3:TrackPointExtension>
        </extensions>
      </trkpt>
      <trkpt lat="42.49882475472986698150634765625" lon="20.17704262398183345794677734375">
        <ele>2054.800048828125</ele>
        <time>2026-06-20T11:07:30.000Z</time>
        <extensions>
          <ns3:TrackPointExtension>
            <ns3:atemp>23.0</ns3:atemp>
          </ns3:TrackPointExtension>
        </extensions>
      </trkpt>
      <trkpt lat="42.49883783049881458282470703125" lon="20.1771010458469390869140625">
        <ele>2054</ele>
        <time>2026-06-20T11:07:31.000Z</time>
        <extensions>
          <ns3:TrackPointExtension>
            <ns3:atemp>23.0</ns3:atemp>
          </ns3:TrackPointExtension>
        </extensions>
      </trkpt>
      <trkpt lat="42.4988328851759433746337890625" lon="20.17714605666697025299072265625">
        <ele>2053.800048828125</ele>
        <time>2026-06-20T11:07:32.000Z</time>
        <extensions>
          <ns3:TrackPointExtension>
            <ns3:atemp>23.0</ns3:atemp>
          </ns3:TrackPointExtension>
        </extensions>
      </trkpt>
      <trkpt lat="42.49881754629313945770263671875" lon="20.17719165422022342681884765625">
        <ele>2053.800048828125</ele>
        <time>2026-06-20T11:07:33.000Z</time>
        <extensions>
          <ns3:TrackPointExtension>
            <ns3:atemp>23.0</ns3:atemp>
          </ns3:TrackPointExtension>
        </extensions>
      </trkpt>
      <trkpt lat="42.49880321323871612548828125" lon="20.17724110744893550872802734375">
        <ele>2053.800048828125</ele>
        <time>2026-06-20T11:07:34.000Z</time>
        <extensions>
          <ns3:TrackPointExtension>
            <ns3:atemp>23.0</ns3:atemp>
          </ns3:TrackPointExtension>
        </extensions>
      </trkpt>
      <trkpt lat="42.49878452159464359283447265625" lon="20.17728284932672977447509765625">
        <ele>2053.60009765625</ele>
        <time>2026-06-20T11:07:35.000Z</time>
        <extensions>
          <ns3:TrackPointExtension>
            <ns3:atemp>23.0</ns3:atemp>
          </ns3:TrackPointExtension>
        </extensions>
      </trkpt>
      <trkpt lat="42.498765997588634490966796875" lon="20.17732509411871433258056640625">
        <ele>2053.199951171875</ele>
        <time>2026-06-20T11:07:36.000Z</time>
        <extensions>
          <ns3:TrackPointExtension>
            <ns3:atemp>23.0</ns3:atemp>
          </ns3:TrackPointExtension>
        </extensions>
      </trkpt>
      <trkpt lat="42.498745881021022796630859375" lon="20.1773654110729694366455078125">
        <ele>2052.800048828125</ele>
        <time>2026-06-20T11:07:37.000Z</time>
        <extensions>
          <ns3:TrackPointExtension>
            <ns3:atemp>23.0</ns3:atemp>
          </ns3:TrackPointExtension>
        </extensions>
      </trkpt>
      <trkpt lat="42.49872568063437938690185546875" lon="20.17739717848598957061767578125">
        <ele>2052.39990234375</ele>
        <time>2026-06-20T11:07:38.000Z</time>
        <extensions>
          <ns3:TrackPointExtension>
            <ns3:atemp>23.0</ns3:atemp>
          </ns3:TrackPointExtension>
        </extensions>
      </trkpt>
      <trkpt lat="42.49870673753321170806884765625" lon="20.17742383293807506561279296875">
        <ele>2052.199951171875</ele>
        <time>2026-06-20T11:07:39.000Z</time>
        <extensions>
          <ns3:TrackPointExtension>
            <ns3:atemp>23.0</ns3:atemp>
          </ns3:TrackPointExtension>
        </extensions>
      </trkpt>
      <trkpt lat="42.4986900575459003448486328125" lon="20.1774552650749683380126953125">
        <ele>2051.800048828125</ele>
        <time>2026-06-20T11:07:40.000Z</time>
        <extensions>
          <ns3:TrackPointExtension>
            <ns3:atemp>23.0</ns3:atemp>
          </ns3:TrackPointExtension>
        </extensions>
      </trkpt>
      <trkpt lat="42.49867505393922328948974609375" lon="20.17748988233506679534912109375">
        <ele>2051.60009765625</ele>
        <time>2026-06-20T11:07:41.000Z</time>
        <extensions>
          <ns3:TrackPointExtension>
            <ns3:atemp>23.0</ns3:atemp>
          </ns3:TrackPointExtension>
        </extensions>
      </trkpt>
      <trkpt lat="42.4986575357615947723388671875" lon="20.17752106301486492156982421875">
        <ele>2051.39990234375</ele>
        <time>2026-06-20T11:07:42.000Z</time>
        <extensions>
          <ns3:TrackPointExtension>
            <ns3:atemp>23.0</ns3:atemp>
          </ns3:TrackPointExtension>
        </extensions>
      </trkpt>
      <trkpt lat="42.49864228069782257080078125" lon="20.177548639476299285888671875">
        <ele>2051</ele>
        <time>2026-06-20T11:07:43.000Z</time>
        <extensions>
          <ns3:TrackPointExtension>
            <ns3:atemp>23.0</ns3:atemp>
          </ns3:TrackPointExtension>
        </extensions>
      </trkpt>
      <trkpt lat="42.49862928874790668487548828125" lon="20.1775749586522579193115234375">
        <ele>2051</ele>
        <time>2026-06-20T11:07:44.000Z</time>
        <extensions>
          <ns3:TrackPointExtension>
            <ns3:atemp>23.0</ns3:atemp>
          </ns3:TrackPointExtension>
        </extensions>
      </trkpt>
      <trkpt lat="42.4986136145889759063720703125" lon="20.17760169692337512969970703125">
        <ele>2050.800048828125</ele>
        <time>2026-06-20T11:07:45.000Z</time>
        <extensions>
          <ns3:TrackPointExtension>
            <ns3:atemp>23.0</ns3:atemp>
          </ns3:TrackPointExtension>
        </extensions>
      </trkpt>
      <trkpt lat="42.49859928153455257415771484375" lon="20.17762969247996807098388671875">
        <ele>2050.800048828125</ele>
        <time>2026-06-20T11:07:46.000Z</time>
        <extensions>
          <ns3:TrackPointExtension>
            <ns3:atemp>23.0</ns3:atemp>
          </ns3:TrackPointExtension>
        </extensions>
      </trkpt>
      <trkpt lat="42.49858100898563861846923828125" lon="20.177656598389148712158203125">
        <ele>2050.800048828125</ele>
        <time>2026-06-20T11:07:47.000Z</time>
        <extensions>
          <ns3:TrackPointExtension>
            <ns3:atemp>23.0</ns3:atemp>
          </ns3:TrackPointExtension>
        </extensions>
      </trkpt>
      <trkpt lat="42.49856156297028064727783203125" lon="20.17768484540283679962158203125">
        <ele>2050.60009765625</ele>
        <time>2026-06-20T11:07:48.000Z</time>
        <extensions>
          <ns3:TrackPointExtension>
            <ns3:atemp>23.0</ns3:atemp>
          </ns3:TrackPointExtension>
        </extensions>
      </trkpt>
      <trkpt lat="42.49854060821235179901123046875" lon="20.17771661281585693359375">
        <ele>2050.60009765625</ele>
        <time>2026-06-20T11:07:49.000Z</time>
        <extensions>
          <ns3:TrackPointExtension>
            <ns3:atemp>23.0</ns3:atemp>
          </ns3:TrackPointExtension>
        </extensions>
      </trkpt>
      <trkpt lat="42.49852283857762813568115234375" lon="20.1777476258575916290283203125">
        <ele>2050.39990234375</ele>
        <time>2026-06-20T11:07:50.000Z</time>
        <extensions>
          <ns3:TrackPointExtension>
            <ns3:atemp>23.0</ns3:atemp>
          </ns3:TrackPointExtension>
        </extensions>
      </trkpt>
      <trkpt lat="42.49850624240934848785400390625" lon="20.17777855508029460906982421875">
        <ele>2050.199951171875</ele>
        <time>2026-06-20T11:07:51.000Z</time>
        <extensions>
          <ns3:TrackPointExtension>
            <ns3:atemp>23.0</ns3:atemp>
          </ns3:TrackPointExtension>
        </extensions>
      </trkpt>
      <trkpt lat="42.49848595820367336273193359375" lon="20.17780923284590244293212890625">
        <ele>2050</ele>
        <time>2026-06-20T11:07:52.000Z</time>
        <extensions>
          <ns3:TrackPointExtension>
            <ns3:atemp>23.0</ns3:atemp>
          </ns3:TrackPointExtension>
        </extensions>
      </trkpt>
      <trkpt lat="42.49846030957996845245361328125" lon="20.1778358034789562225341796875">
        <ele>2049.800048828125</ele>
        <time>2026-06-20T11:07:53.000Z</time>
        <extensions>
          <ns3:TrackPointExtension>
            <ns3:atemp>23.0</ns3:atemp>
          </ns3:TrackPointExtension>
        </extensions>
      </trkpt>
      <trkpt lat="42.498433403670787811279296875" lon="20.17787226475775241851806640625">
        <ele>2049.39990234375</ele>
        <time>2026-06-20T11:07:54.000Z</time>
        <extensions>
          <ns3:TrackPointExtension>
            <ns3:atemp>23.0</ns3:atemp>
          </ns3:TrackPointExtension>
        </extensions>
      </trkpt>
      <trkpt lat="42.49839593656361103057861328125" lon="20.1779162697494029998779296875">
        <ele>2048.800048828125</ele>
        <time>2026-06-20T11:07:55.000Z</time>
        <extensions>
          <ns3:TrackPointExtension>
            <ns3:atemp>23.0</ns3:atemp>
          </ns3:TrackPointExtension>
        </extensions>
      </trkpt>
      <trkpt lat="42.4983588047325611114501953125" lon="20.1779638789594173431396484375">
        <ele>2048.39990234375</ele>
        <time>2026-06-20T11:07:56.000Z</time>
        <extensions>
          <ns3:TrackPointExtension>
            <ns3:atemp>23.0</ns3:atemp>
          </ns3:TrackPointExtension>
        </extensions>
      </trkpt>
      <trkpt lat="42.49832318164408206939697265625" lon="20.1780148409307003021240234375">
        <ele>2047.5999755859375</ele>
        <time>2026-06-20T11:07:57.000Z</time>
        <extensions>
          <ns3:TrackPointExtension>
            <ns3:atemp>23.0</ns3:atemp>
          </ns3:TrackPointExtension>
        </extensions>
      </trkpt>
      <trkpt lat="42.498292587697505950927734375" lon="20.17806286923587322235107421875">
        <ele>2047</ele>
        <time>2026-06-20T11:07:58.000Z</time>
        <extensions>
          <ns3:TrackPointExtension>
            <ns3:atemp>23.0</ns3:atemp>
          </ns3:TrackPointExtension>
        </extensions>
      </trkpt>
      <trkpt lat="42.4982666037976741790771484375" lon="20.1781103946268558502197265625">
        <ele>2046.5999755859375</ele>
        <time>2026-06-20T11:07:59.000Z</time>
        <extensions>
          <ns3:TrackPointExtension>
            <ns3:atemp>23.0</ns3:atemp>
          </ns3:TrackPointExtension>
        </extensions>
      </trkpt>
      <trkpt lat="42.49824170954525470733642578125" lon="20.178154818713665008544921875">
        <ele>2046.4000244140625</ele>
        <time>2026-06-20T11:08:00.000Z</time>
        <extensions>
          <ns3:TrackPointExtension>
            <ns3:atemp>23.0</ns3:atemp>
          </ns3:TrackPointExtension>
        </extensions>
      </trkpt>
      <trkpt lat="42.49822611920535564422607421875" lon="20.1782059483230113983154296875">
        <ele>2046</ele>
        <time>2026-06-20T11:08:01.000Z</time>
        <extensions>
          <ns3:TrackPointExtension>
            <ns3:atemp>23.0</ns3:atemp>
          </ns3:TrackPointExtension>
        </extensions>
      </trkpt>
      <trkpt lat="42.4982086010277271270751953125" lon="20.17825582064688205718994140625">
        <ele>2045.800048828125</ele>
        <time>2026-06-20T11:08:02.000Z</time>
        <extensions>
          <ns3:TrackPointExtension>
            <ns3:atemp>23.0</ns3:atemp>
          </ns3:TrackPointExtension>
        </extensions>
      </trkpt>
      <trkpt lat="42.4981968663632869720458984375" lon="20.17830510623753070831298828125">
        <ele>2045.800048828125</ele>
        <time>2026-06-20T11:08:03.000Z</time>
        <extensions>
          <ns3:TrackPointExtension>
            <ns3:atemp>23.0</ns3:atemp>
          </ns3:TrackPointExtension>
        </extensions>
      </trkpt>
      <trkpt lat="42.49818538315594196319580078125" lon="20.1783477701246738433837890625">
        <ele>2045.5999755859375</ele>
        <time>2026-06-20T11:08:04.000Z</time>
        <extensions>
          <ns3:TrackPointExtension>
            <ns3:atemp>23.0</ns3:atemp>
          </ns3:TrackPointExtension>
        </extensions>
      </trkpt>
      <trkpt lat="42.49818035401403903961181640625" lon="20.178384147584438323974609375">
        <ele>2045.5999755859375</ele>
        <time>2026-06-20T11:08:05.000Z</time>
        <extensions>
          <ns3:TrackPointExtension>
            <ns3:atemp>23.0</ns3:atemp>
          </ns3:TrackPointExtension>
        </extensions>
      </trkpt>
      <trkpt lat="42.498172558844089508056640625" lon="20.178419016301631927490234375">
        <ele>2045.5999755859375</ele>
        <time>2026-06-20T11:08:06.000Z</time>
        <extensions>
          <ns3:TrackPointExtension>
            <ns3:atemp>23.0</ns3:atemp>
          </ns3:TrackPointExtension>
        </extensions>
      </trkpt>
      <trkpt lat="42.498166859149932861328125" lon="20.17845598049461841583251953125">
        <ele>2045.5999755859375</ele>
        <time>2026-06-20T11:08:07.000Z</time>
        <extensions>
          <ns3:TrackPointExtension>
            <ns3:atemp>23.0</ns3:atemp>
          </ns3:TrackPointExtension>
        </extensions>
      </trkpt>
      <trkpt lat="42.4981603212654590606689453125" lon="20.178492106497287750244140625">
        <ele>2045.5999755859375</ele>
        <time>2026-06-20T11:08:08.000Z</time>
        <extensions>
          <ns3:TrackPointExtension>
            <ns3:atemp>23.0</ns3:atemp>
          </ns3:TrackPointExtension>
        </extensions>
      </trkpt>
      <trkpt lat="42.49815118499100208282470703125" lon="20.1785211078822612762451171875">
        <ele>2045.5999755859375</ele>
        <time>2026-06-20T11:08:09.000Z</time>
        <extensions>
          <ns3:TrackPointExtension>
            <ns3:atemp>23.0</ns3:atemp>
          </ns3:TrackPointExtension>
        </extensions>
      </trkpt>
      <trkpt lat="42.49813978560268878936767578125" lon="20.17855052836239337921142578125">
        <ele>2045.4000244140625</ele>
        <time>2026-06-20T11:08:10.000Z</time>
        <extensions>
          <ns3:TrackPointExtension>
            <ns3:atemp>23.0</ns3:atemp>
          </ns3:TrackPointExtension>
        </extensions>
      </trkpt>
      <trkpt lat="42.49812318943440914154052734375" lon="20.17859344370663166046142578125">
        <ele>2045.4000244140625</ele>
        <time>2026-06-20T11:08:11.000Z</time>
        <extensions>
          <ns3:TrackPointExtension>
            <ns3:atemp>23.0</ns3:atemp>
          </ns3:TrackPointExtension>
        </extensions>
      </trkpt>
      <trkpt lat="42.498098798096179962158203125" lon="20.1786441542208194732666015625">
        <ele>2045.199951171875</ele>
        <time>2026-06-20T11:08:12.000Z</time>
        <extensions>
          <ns3:TrackPointExtension>
            <ns3:atemp>23.0</ns3:atemp>
          </ns3:TrackPointExtension>
        </extensions>
      </trkpt>
      <trkpt lat="42.49807055108249187469482421875" lon="20.17869017086923122406005859375">
        <ele>2045</ele>
        <time>2026-06-20T11:08:13.000Z</time>
        <extensions>
          <ns3:TrackPointExtension>
            <ns3:atemp>23.0</ns3:atemp>
          </ns3:TrackPointExtension>
        </extensions>
      </trkpt>
      <trkpt lat="42.4980412982404232025146484375" lon="20.1787371933460235595703125">
        <ele>2044.800048828125</ele>
        <time>2026-06-20T11:08:14.000Z</time>
        <extensions>
          <ns3:TrackPointExtension>
            <ns3:atemp>23.0</ns3:atemp>
          </ns3:TrackPointExtension>
        </extensions>
      </trkpt>
      <trkpt lat="42.49801824800670146942138671875" lon="20.178785137832164764404296875">
        <ele>2044.800048828125</ele>
        <time>2026-06-20T11:08:15.000Z</time>
        <extensions>
          <ns3:TrackPointExtension>
            <ns3:atemp>23.0</ns3:atemp>
          </ns3:TrackPointExtension>
        </extensions>
      </trkpt>
      <trkpt lat="42.49799276702105998992919921875" lon="20.17882947809994220733642578125">
        <ele>2044.5999755859375</ele>
        <time>2026-06-20T11:08:16.000Z</time>
        <extensions>
          <ns3:TrackPointExtension>
            <ns3:atemp>23.0</ns3:atemp>
          </ns3:TrackPointExtension>
        </extensions>
      </trkpt>
      <trkpt lat="42.49796292744576930999755859375" lon="20.1788793504238128662109375">
        <ele>2044.4000244140625</ele>
        <time>2026-06-20T11:08:17.000Z</time>
        <extensions>
          <ns3:TrackPointExtension>
            <ns3:atemp>23.0</ns3:atemp>
          </ns3:TrackPointExtension>
        </extensions>
      </trkpt>
      <trkpt lat="42.4979323334991931915283203125" lon="20.17892964184284210205078125">
        <ele>2044.199951171875</ele>
        <time>2026-06-20T11:08:18.000Z</time>
        <extensions>
          <ns3:TrackPointExtension>
            <ns3:atemp>23.0</ns3:atemp>
          </ns3:TrackPointExtension>
        </extensions>
      </trkpt>
      <trkpt lat="42.4978972971439361572265625" lon="20.178974568843841552734375">
        <ele>2044</ele>
        <time>2026-06-20T11:08:19.000Z</time>
        <extensions>
          <ns3:TrackPointExtension>
            <ns3:atemp>23.0</ns3:atemp>
          </ns3:TrackPointExtension>
        </extensions>
      </trkpt>
      <trkpt lat="42.4978649429976940155029296875" lon="20.17901287414133548736572265625">
        <ele>2044</ele>
        <time>2026-06-20T11:08:20.000Z</time>
        <extensions>
          <ns3:TrackPointExtension>
            <ns3:atemp>23.0</ns3:atemp>
          </ns3:TrackPointExtension>
        </extensions>
      </trkpt>
      <trkpt lat="42.4978357739746570587158203125" lon="20.17905143089592456817626953125">
        <ele>2043.800048828125</ele>
        <time>2026-06-20T11:08:21.000Z</time>
        <extensions>
          <ns3:TrackPointExtension>
            <ns3:atemp>23.0</ns3:atemp>
          </ns3:TrackPointExtension>
        </extensions>
      </trkpt>
      <trkpt lat="42.49780786223709583282470703125" lon="20.179084874689579010009765625">
        <ele>2043.800048828125</ele>
        <time>2026-06-20T11:08:22.000Z</time>
        <extensions>
          <ns3:TrackPointExtension>
            <ns3:atemp>23.0</ns3:atemp>
          </ns3:TrackPointExtension>
        </extensions>
      </trkpt>
      <trkpt lat="42.49778539873659610748291015625" lon="20.1791155524551868438720703125">
        <ele>2044</ele>
        <time>2026-06-20T11:08:23.000Z</time>
        <extensions>
          <ns3:TrackPointExtension>
            <ns3:atemp>23.0</ns3:atemp>
          </ns3:TrackPointExtension>
        </extensions>
      </trkpt>
      <trkpt lat="42.49776628799736499786376953125" lon="20.17914078198373317718505859375">
        <ele>2044</ele>
        <time>2026-06-20T11:08:24.000Z</time>
        <extensions>
          <ns3:TrackPointExtension>
            <ns3:atemp>23.0</ns3:atemp>
          </ns3:TrackPointExtension>
        </extensions>
      </trkpt>
      <trkpt lat="42.49775237403810024261474609375" lon="20.179164670407772064208984375">
        <ele>2044.199951171875</ele>
        <time>2026-06-20T11:08:25.000Z</time>
        <extensions>
          <ns3:TrackPointExtension>
            <ns3:atemp>23.0</ns3:atemp>
          </ns3:TrackPointExtension>
        </extensions>
      </trkpt>
      <trkpt lat="42.4977385438978672027587890625" lon="20.17918587662279605865478515625">
        <ele>2044.4000244140625</ele>
        <time>2026-06-20T11:08:26.000Z</time>
        <extensions>
          <ns3:TrackPointExtension>
            <ns3:atemp>23.0</ns3:atemp>
          </ns3:TrackPointExtension>
        </extensions>
      </trkpt>
      <trkpt lat="42.4977264739573001861572265625" lon="20.17920012585818767547607421875">
        <ele>2044.4000244140625</ele>
        <time>2026-06-20T11:08:27.000Z</time>
        <extensions>
          <ns3:TrackPointExtension>
            <ns3:atemp>23.0</ns3:atemp>
          </ns3:TrackPointExtension>
        </extensions>
      </trkpt>
      <trkpt lat="42.497705519199371337890625" lon="20.17921320162713527679443359375">
        <ele>2044.4000244140625</ele>
        <time>2026-06-20T11:08:28.000Z</time>
        <extensions>
          <ns3:TrackPointExtension>
            <ns3:atemp>23.0</ns3:atemp>
          </ns3:TrackPointExtension>
        </extensions>
      </trkpt>
      <trkpt lat="42.49768112786114215850830078125" lon="20.17922678031027317047119140625">
        <ele>2044.4000244140625</ele>
        <time>2026-06-20T11:08:29.000Z</time>
        <extensions>
          <ns3:TrackPointExtension>
            <ns3:atemp>23.0</ns3:atemp>
          </ns3:TrackPointExtension>
        </extensions>
      </trkpt>
      <trkpt lat="42.49766704626381397247314453125" lon="20.179247148334980010986328125">
        <ele>2044.199951171875</ele>
        <time>2026-06-20T11:08:30.000Z</time>
        <extensions>
          <ns3:TrackPointExtension>
            <ns3:atemp>23.0</ns3:atemp>
          </ns3:TrackPointExtension>
        </extensions>
      </trkpt>
      <trkpt lat="42.49765983782708644866943359375" lon="20.17925226129591464996337890625">
        <ele>2044.199951171875</ele>
        <time>2026-06-20T11:08:31.000Z</time>
        <extensions>
          <ns3:TrackPointExtension>
            <ns3:atemp>23.0</ns3:atemp>
          </ns3:TrackPointExtension>
        </extensions>
      </trkpt>
      <trkpt lat="42.497650198638439178466796875" lon="20.179249830543994903564453125">
        <ele>2044</ele>
        <time>2026-06-20T11:08:32.000Z</time>
        <extensions>
          <ns3:TrackPointExtension>
            <ns3:atemp>23.0</ns3:atemp>
          </ns3:TrackPointExtension>
        </extensions>
      </trkpt>
      <trkpt lat="42.4976451694965362548828125" lon="20.17925360240042209625244140625">
        <ele>2044</ele>
        <time>2026-06-20T11:08:33.000Z</time>
        <extensions>
          <ns3:TrackPointExtension>
            <ns3:atemp>23.0</ns3:atemp>
          </ns3:TrackPointExtension>
        </extensions>
      </trkpt>
      <trkpt lat="42.497644163668155670166015625" lon="20.17925142310559749603271484375">
        <ele>2044</ele>
        <time>2026-06-20T11:08:34.000Z</time>
        <extensions>
          <ns3:TrackPointExtension>
            <ns3:atemp>23.0</ns3:atemp>
          </ns3:TrackPointExtension>
        </extensions>
      </trkpt>
      <trkpt lat="42.49764407984912395477294921875" lon="20.1792513392865657806396484375">
        <ele>2043.800048828125</ele>
        <time>2026-06-20T11:08:35.000Z</time>
        <extensions>
          <ns3:TrackPointExtension>
            <ns3:atemp>23.0</ns3:atemp>
          </ns3:TrackPointExtension>
        </extensions>
      </trkpt>
      <trkpt lat="42.49762647785246372222900390625" lon="20.179246477782726287841796875">
        <ele>2043.5999755859375</ele>
        <time>2026-06-20T11:08:36.000Z</time>
        <extensions>
          <ns3:TrackPointExtension>
            <ns3:atemp>23.0</ns3:atemp>
          </ns3:TrackPointExtension>
        </extensions>
      </trkpt>
      <trkpt lat="42.4976081214845180511474609375" lon="20.1792332343757152557373046875">
        <ele>2043.199951171875</ele>
        <time>2026-06-20T11:08:37.000Z</time>
        <extensions>
          <ns3:TrackPointExtension>
            <ns3:atemp>23.0</ns3:atemp>
          </ns3:TrackPointExtension>
        </extensions>
      </trkpt>
      <trkpt lat="42.4975742585957050323486328125" lon="20.1792171411216259002685546875">
        <ele>2042.5999755859375</ele>
        <time>2026-06-20T11:08:38.000Z</time>
        <extensions>
          <ns3:TrackPointExtension>
            <ns3:atemp>23.0</ns3:atemp>
          </ns3:TrackPointExtension>
        </extensions>
      </trkpt>
      <trkpt lat="42.49751952476799488067626953125" lon="20.17920590937137603759765625">
        <ele>2042</ele>
        <time>2026-06-20T11:08:39.000Z</time>
        <extensions>
          <ns3:TrackPointExtension>
            <ns3:atemp>23.0</ns3:atemp>
          </ns3:TrackPointExtension>
        </extensions>
      </trkpt>
      <trkpt lat="42.4974569119513034820556640625" lon="20.17921906895935535430908203125">
        <ele>2041</ele>
        <time>2026-06-20T11:08:40.000Z</time>
        <extensions>
          <ns3:TrackPointExtension>
            <ns3:atemp>23.0</ns3:atemp>
          </ns3:TrackPointExtension>
        </extensions>
      </trkpt>
      <trkpt lat="42.49739446677267551422119140625" lon="20.1792543567717075347900390625">
        <ele>2040</ele>
        <time>2026-06-20T11:08:41.000Z</time>
        <extensions>
          <ns3:TrackPointExtension>
            <ns3:atemp>23.0</ns3:atemp>
          </ns3:TrackPointExtension>
        </extensions>
      </trkpt>
      <trkpt lat="42.4973331950604915618896484375" lon="20.17930909059941768646240234375">
        <ele>2039</ele>
        <time>2026-06-20T11:08:42.000Z</time>
        <extensions>
          <ns3:TrackPointExtension>
            <ns3:atemp>23.0</ns3:atemp>
          </ns3:TrackPointExtension>
        </extensions>
      </trkpt>
      <trkpt lat="42.4972611106932163238525390625" lon="20.17936927266418933868408203125">
        <ele>2037.5999755859375</ele>
        <time>2026-06-20T11:08:43.000Z</time>
        <extensions>
          <ns3:TrackPointExtension>
            <ns3:atemp>23.0</ns3:atemp>
          </ns3:TrackPointExtension>
        </extensions>
      </trkpt>
      <trkpt lat="42.4971759505569934844970703125" lon="20.17939961515367031097412109375">
        <ele>2036.4000244140625</ele>
        <time>2026-06-20T11:08:44.000Z</time>
        <extensions>
          <ns3:TrackPointExtension>
            <ns3:atemp>23.0</ns3:atemp>
          </ns3:TrackPointExtension>
        </extensions>
      </trkpt>
      <trkpt lat="42.4970954842865467071533203125" lon="20.17943548969924449920654296875">
        <ele>2035.5999755859375</ele>
        <time>2026-06-20T11:08:45.000Z</time>
        <extensions>
          <ns3:TrackPointExtension>
            <ns3:atemp>23.0</ns3:atemp>
          </ns3:TrackPointExtension>
        </extensions>
      </trkpt>
      <trkpt lat="42.49701895751059055328369140625" lon="20.1794924028217792510986328125">
        <ele>2034.5999755859375</ele>
        <time>2026-06-20T11:08:46.000Z</time>
        <extensions>
          <ns3:TrackPointExtension>
            <ns3:atemp>23.0</ns3:atemp>
          </ns3:TrackPointExtension>
        </extensions>
      </trkpt>
      <trkpt lat="42.49694502912461757659912109375" lon="20.17955459654331207275390625">
        <ele>2033.4000244140625</ele>
        <time>2026-06-20T11:08:47.000Z</time>
        <extensions>
          <ns3:TrackPointExtension>
            <ns3:atemp>23.0</ns3:atemp>
          </ns3:TrackPointExtension>
        </extensions>
      </trkpt>
      <trkpt lat="42.4968834221363067626953125" lon="20.17961653880774974822998046875">
        <ele>2032.4000244140625</ele>
        <time>2026-06-20T11:08:48.000Z</time>
        <extensions>
          <ns3:TrackPointExtension>
            <ns3:atemp>23.0</ns3:atemp>
          </ns3:TrackPointExtension>
        </extensions>
      </trkpt>
      <trkpt lat="42.4968292750418186187744140625" lon="20.17966984771192073822021484375">
        <ele>2031.800048828125</ele>
        <time>2026-06-20T11:08:49.000Z</time>
        <extensions>
          <ns3:TrackPointExtension>
            <ns3:atemp>23.0</ns3:atemp>
          </ns3:TrackPointExtension>
        </extensions>
      </trkpt>
      <trkpt lat="42.49678510241210460662841796875" lon="20.1797133497893810272216796875">
        <ele>2031.199951171875</ele>
        <time>2026-06-20T11:08:50.000Z</time>
        <extensions>
          <ns3:TrackPointExtension>
            <ns3:atemp>23.0</ns3:atemp>
          </ns3:TrackPointExtension>
        </extensions>
      </trkpt>
      <trkpt lat="42.49675308354198932647705078125" lon="20.1797465421259403228759765625">
        <ele>2031.199951171875</ele>
        <time>2026-06-20T11:08:51.000Z</time>
        <extensions>
          <ns3:TrackPointExtension>
            <ns3:atemp>23.0</ns3:atemp>
          </ns3:TrackPointExtension>
        </extensions>
      </trkpt>
      <trkpt lat="42.4967276863753795623779296875" lon="20.1797783933579921722412109375">
        <ele>2031.4000244140625</ele>
        <time>2026-06-20T11:08:52.000Z</time>
        <extensions>
          <ns3:TrackPointExtension>
            <ns3:atemp>23.0</ns3:atemp>
          </ns3:TrackPointExtension>
        </extensions>
      </trkpt>
      <trkpt lat="42.49670530669391155242919921875" lon="20.1798141002655029296875">
        <ele>2031.800048828125</ele>
        <time>2026-06-20T11:08:53.000Z</time>
        <extensions>
          <ns3:TrackPointExtension>
            <ns3:atemp>23.0</ns3:atemp>
          </ns3:TrackPointExtension>
        </extensions>
      </trkpt>
      <trkpt lat="42.49668334610760211944580078125" lon="20.179858021438121795654296875">
        <ele>2032</ele>
        <time>2026-06-20T11:08:54.000Z</time>
        <extensions>
          <ns3:TrackPointExtension>
            <ns3:atemp>23.0</ns3:atemp>
          </ns3:TrackPointExtension>
        </extensions>
      </trkpt>
      <trkpt lat="42.4966576136648654937744140625" lon="20.179896913468837738037109375">
        <ele>2032</ele>
        <time>2026-06-20T11:08:55.000Z</time>
        <extensions>
          <ns3:TrackPointExtension>
            <ns3:atemp>23.0</ns3:atemp>
          </ns3:TrackPointExtension>
        </extensions>
      </trkpt>
      <trkpt lat="42.49663305468857288360595703125" lon="20.1799239031970500946044921875">
        <ele>2032</ele>
        <time>2026-06-20T11:08:56.000Z</time>
        <extensions>
          <ns3:TrackPointExtension>
            <ns3:atemp>23.0</ns3:atemp>
          </ns3:TrackPointExtension>
        </extensions>
      </trkpt>
      <trkpt lat="42.4966153688728809356689453125" lon="20.17994393594563007354736328125">
        <ele>2032</ele>
        <time>2026-06-20T11:08:57.000Z</time>
        <extensions>
          <ns3:TrackPointExtension>
            <ns3:atemp>23.0</ns3:atemp>
          </ns3:TrackPointExtension>
        </extensions>
      </trkpt>
      <trkpt lat="42.49659768305718898773193359375" lon="20.17995349131524562835693359375">
        <ele>2031.800048828125</ele>
        <time>2026-06-20T11:08:58.000Z</time>
        <extensions>
          <ns3:TrackPointExtension>
            <ns3:atemp>23.0</ns3:atemp>
          </ns3:TrackPointExtension>
        </extensions>
      </trkpt>
      <trkpt lat="42.4965808354318141937255859375" lon="20.17996120266616344451904296875">
        <ele>2031.800048828125</ele>
        <time>2026-06-20T11:08:59.000Z</time>
        <extensions>
          <ns3:TrackPointExtension>
            <ns3:atemp>23.0</ns3:atemp>
          </ns3:TrackPointExtension>
        </extensions>
      </trkpt>
      <trkpt lat="42.49655962921679019927978515625" lon="20.17996690236032009124755859375">
        <ele>2032</ele>
        <time>2026-06-20T11:09:00.000Z</time>
        <extensions>
          <ns3:TrackPointExtension>
            <ns3:atemp>23.0</ns3:atemp>
          </ns3:TrackPointExtension>
        </extensions>
      </trkpt>
      <trkpt lat="42.49653364531695842742919921875" lon="20.1799691654741764068603515625">
        <ele>2031.800048828125</ele>
        <time>2026-06-20T11:09:01.000Z</time>
        <extensions>
          <ns3:TrackPointExtension>
            <ns3:atemp>23.0</ns3:atemp>
          </ns3:TrackPointExtension>
        </extensions>
      </trkpt>
      <trkpt lat="42.49650724232196807861328125" lon="20.17997712828218936920166015625">
        <ele>2031.5999755859375</ele>
        <time>2026-06-20T11:09:02.000Z</time>
        <extensions>
          <ns3:TrackPointExtension>
            <ns3:atemp>23.0</ns3:atemp>
          </ns3:TrackPointExtension>
        </extensions>
      </trkpt>
      <trkpt lat="42.4964738823473453521728515625" lon="20.17999179661273956298828125">
        <ele>2031.4000244140625</ele>
        <time>2026-06-20T11:09:03.000Z</time>
        <extensions>
          <ns3:TrackPointExtension>
            <ns3:atemp>23.0</ns3:atemp>
          </ns3:TrackPointExtension>
        </extensions>
      </trkpt>
      <trkpt lat="42.4964427016675472259521484375" lon="20.1800023578107357025146484375">
        <ele>2031.199951171875</ele>
        <time>2026-06-20T11:09:04.000Z</time>
        <extensions>
          <ns3:TrackPointExtension>
            <ns3:atemp>23.0</ns3:atemp>
          </ns3:TrackPointExtension>
        </extensions>
      </trkpt>
      <trkpt lat="42.4964101798832416534423828125" lon="20.18001954071223735809326171875">
        <ele>2030.800048828125</ele>
        <time>2026-06-20T11:09:05.000Z</time>
        <extensions>
          <ns3:TrackPointExtension>
            <ns3:atemp>23.0</ns3:atemp>
          </ns3:TrackPointExtension>
        </extensions>
      </trkpt>
      <trkpt lat="42.49638545326888561248779296875" lon="20.18004250712692737579345703125">
        <ele>2030.5999755859375</ele>
        <time>2026-06-20T11:09:06.000Z</time>
        <extensions>
          <ns3:TrackPointExtension>
            <ns3:atemp>23.0</ns3:atemp>
          </ns3:TrackPointExtension>
        </extensions>
      </trkpt>
      <trkpt lat="42.496362738311290740966796875" lon="20.18006555736064910888671875">
        <ele>2030.4000244140625</ele>
        <time>2026-06-20T11:09:07.000Z</time>
        <extensions>
          <ns3:TrackPointExtension>
            <ns3:atemp>23.0</ns3:atemp>
          </ns3:TrackPointExtension>
        </extensions>
      </trkpt>
      <trkpt lat="42.4963414482772350311279296875" lon="20.1800905354321002960205078125">
        <ele>2030.199951171875</ele>
        <time>2026-06-20T11:09:08.000Z</time>
        <extensions>
          <ns3:TrackPointExtension>
            <ns3:atemp>23.0</ns3:atemp>
          </ns3:TrackPointExtension>
        </extensions>
      </trkpt>
      <trkpt lat="42.49631688930094242095947265625" lon="20.18010822124779224395751953125">
        <ele>2029.800048828125</ele>
        <time>2026-06-20T11:09:09.000Z</time>
        <extensions>
          <ns3:TrackPointExtension>
            <ns3:atemp>23.0</ns3:atemp>
          </ns3:TrackPointExtension>
        </extensions>
      </trkpt>
      <trkpt lat="42.49629291705787181854248046875" lon="20.18011920154094696044921875">
        <ele>2029.5999755859375</ele>
        <time>2026-06-20T11:09:10.000Z</time>
        <extensions>
          <ns3:TrackPointExtension>
            <ns3:atemp>23.0</ns3:atemp>
          </ns3:TrackPointExtension>
        </extensions>
      </trkpt>
      <trkpt lat="42.49626810662448406219482421875" lon="20.1801337860524654388427734375">
        <ele>2029.4000244140625</ele>
        <time>2026-06-20T11:09:11.000Z</time>
        <extensions>
          <ns3:TrackPointExtension>
            <ns3:atemp>23.0</ns3:atemp>
          </ns3:TrackPointExtension>
        </extensions>
      </trkpt>
      <trkpt lat="42.4962418712675571441650390625" lon="20.18014811910688877105712890625">
        <ele>2029.199951171875</ele>
        <time>2026-06-20T11:09:12.000Z</time>
        <extensions>
          <ns3:TrackPointExtension>
            <ns3:atemp>23.0</ns3:atemp>
          </ns3:TrackPointExtension>
        </extensions>
      </trkpt>
      <trkpt lat="42.49621228314936161041259765625" lon="20.1801575906574726104736328125">
        <ele>2029</ele>
        <time>2026-06-20T11:09:13.000Z</time>
        <extensions>
          <ns3:TrackPointExtension>
            <ns3:atemp>23.0</ns3:atemp>
          </ns3:TrackPointExtension>
        </extensions>
      </trkpt>
      <trkpt lat="42.49618411995470523834228515625" lon="20.1801629550755023956298828125">
        <ele>2028.5999755859375</ele>
        <time>2026-06-20T11:09:14.000Z</time>
        <extensions>
          <ns3:TrackPointExtension>
            <ns3:atemp>23.0</ns3:atemp>
          </ns3:TrackPointExtension>
        </extensions>
      </trkpt>
      <trkpt lat="42.49615796841681003570556640625" lon="20.1801710017025470733642578125">
        <ele>2028.199951171875</ele>
        <time>2026-06-20T11:09:15.000Z</time>
        <extensions>
          <ns3:TrackPointExtension>
            <ns3:atemp>23.0</ns3:atemp>
          </ns3:TrackPointExtension>
        </extensions>
      </trkpt>
      <trkpt lat="42.49613617546856403350830078125" lon="20.180183909833431243896484375">
        <ele>2027.800048828125</ele>
        <time>2026-06-20T11:09:16.000Z</time>
        <extensions>
          <ns3:TrackPointExtension>
            <ns3:atemp>23.0</ns3:atemp>
          </ns3:TrackPointExtension>
        </extensions>
      </trkpt>
      <trkpt lat="42.49611563980579376220703125" lon="20.1801941357553005218505859375">
        <ele>2027.4000244140625</ele>
        <time>2026-06-20T11:09:17.000Z</time>
        <extensions>
          <ns3:TrackPointExtension>
            <ns3:atemp>23.0</ns3:atemp>
          </ns3:TrackPointExtension>
        </extensions>
      </trkpt>
      <trkpt lat="42.49609175138175487518310546875" lon="20.180210731923580169677734375">
        <ele>2027</ele>
        <time>2026-06-20T11:09:18.000Z</time>
        <extensions>
          <ns3:TrackPointExtension>
            <ns3:atemp>23.0</ns3:atemp>
          </ns3:TrackPointExtension>
        </extensions>
      </trkpt>
      <trkpt lat="42.4960638396441936492919921875" lon="20.18023210577666759490966796875">
        <ele>2026.5999755859375</ele>
        <time>2026-06-20T11:09:19.000Z</time>
        <extensions>
          <ns3:TrackPointExtension>
            <ns3:atemp>23.0</ns3:atemp>
          </ns3:TrackPointExtension>
        </extensions>
      </trkpt>
      <trkpt lat="42.49602922238409519195556640625" lon="20.18025440163910388946533203125">
        <ele>2026.199951171875</ele>
        <time>2026-06-20T11:09:20.000Z</time>
        <extensions>
          <ns3:TrackPointExtension>
            <ns3:atemp>23.0</ns3:atemp>
          </ns3:TrackPointExtension>
        </extensions>
      </trkpt>
      <trkpt lat="42.49598932452499866485595703125" lon="20.18027317710220813751220703125">
        <ele>2025.800048828125</ele>
        <time>2026-06-20T11:09:21.000Z</time>
        <extensions>
          <ns3:TrackPointExtension>
            <ns3:atemp>22.0</ns3:atemp>
          </ns3:TrackPointExtension>
        </extensions>
      </trkpt>
      <trkpt lat="42.495949007570743560791015625" lon="20.18029027618467807769775390625">
        <ele>2025.4000244140625</ele>
        <time>2026-06-20T11:09:22.000Z</time>
        <extensions>
          <ns3:TrackPointExtension>
            <ns3:atemp>23.0</ns3:atemp>
          </ns3:TrackPointExtension>
        </extensions>
      </trkpt>
      <trkpt lat="42.49590952880680561065673828125" lon="20.1803088001906871795654296875">
        <ele>2025</ele>
        <time>2026-06-20T11:09:23.000Z</time>
        <extensions>
          <ns3:TrackPointExtension>
            <ns3:atemp>23.0</ns3:atemp>
          </ns3:TrackPointExtension>
        </extensions>
      </trkpt>
      <trkpt lat="42.49586996622383594512939453125" lon="20.180330760776996612548828125">
        <ele>2024.4000244140625</ele>
        <time>2026-06-20T11:09:24.000Z</time>
        <extensions>
          <ns3:TrackPointExtension>
            <ns3:atemp>23.0</ns3:atemp>
          </ns3:TrackPointExtension>
        </extensions>
      </trkpt>
      <trkpt lat="42.49583208002150058746337890625" lon="20.18036353401839733123779296875">
        <ele>2024.199951171875</ele>
        <time>2026-06-20T11:09:25.000Z</time>
        <extensions>
          <ns3:TrackPointExtension>
            <ns3:atemp>23.0</ns3:atemp>
          </ns3:TrackPointExtension>
        </extensions>
      </trkpt>
      <trkpt lat="42.49579218216240406036376953125" lon="20.1803946308791637420654296875">
        <ele>2023.800048828125</ele>
        <time>2026-06-20T11:09:26.000Z</time>
        <extensions>
          <ns3:TrackPointExtension>
            <ns3:atemp>23.0</ns3:atemp>
          </ns3:TrackPointExtension>
        </extensions>
      </trkpt>
      <trkpt lat="42.49575463123619556427001953125" lon="20.180422626435756683349609375">
        <ele>2023.4000244140625</ele>
        <time>2026-06-20T11:09:27.000Z</time>
        <extensions>
          <ns3:TrackPointExtension>
            <ns3:atemp>23.0</ns3:atemp>
          </ns3:TrackPointExtension>
        </extensions>
      </trkpt>
      <trkpt lat="42.4957248754799365997314453125" lon="20.18043058924376964569091796875">
        <ele>2023.199951171875</ele>
        <time>2026-06-20T11:09:28.000Z</time>
        <extensions>
          <ns3:TrackPointExtension>
            <ns3:atemp>23.0</ns3:atemp>
          </ns3:TrackPointExtension>
        </extensions>
      </trkpt>
      <trkpt lat="42.495702914893627166748046875" lon="20.18043528310954570770263671875">
        <ele>2023</ele>
        <time>2026-06-20T11:09:29.000Z</time>
        <extensions>
          <ns3:TrackPointExtension>
            <ns3:atemp>23.0</ns3:atemp>
          </ns3:TrackPointExtension>
        </extensions>
      </trkpt>
      <trkpt lat="42.4956893362104892730712890625" lon="20.1804496161639690399169921875">
        <ele>2023</ele>
        <time>2026-06-20T11:09:30.000Z</time>
        <extensions>
          <ns3:TrackPointExtension>
            <ns3:atemp>22.0</ns3:atemp>
          </ns3:TrackPointExtension>
        </extensions>
      </trkpt>
      <trkpt lat="42.4956866540014743804931640625" lon="20.1804573275148868560791015625">
        <ele>2022.800048828125</ele>
        <time>2026-06-20T11:09:31.000Z</time>
        <extensions>
          <ns3:TrackPointExtension>
            <ns3:atemp>22.0</ns3:atemp>
          </ns3:TrackPointExtension>
        </extensions>
      </trkpt>
      <trkpt lat="42.49569226987659931182861328125" lon="20.1804563216865062713623046875">
        <ele>2022.800048828125</ele>
        <time>2026-06-20T11:09:32.000Z</time>
        <extensions>
          <ns3:TrackPointExtension>
            <ns3:atemp>22.0</ns3:atemp>
          </ns3:TrackPointExtension>
        </extensions>
      </trkpt>
      <trkpt lat="42.49569042585790157318115234375" lon="20.1804538071155548095703125">
        <ele>2022.800048828125</ele>
        <time>2026-06-20T11:09:33.000Z</time>
        <extensions>
          <ns3:TrackPointExtension>
            <ns3:atemp>22.0</ns3:atemp>
          </ns3:TrackPointExtension>
        </extensions>
      </trkpt>
      <trkpt lat="42.495686821639537811279296875" lon="20.18045154400169849395751953125">
        <ele>2022.800048828125</ele>
        <time>2026-06-20T11:09:34.000Z</time>
        <extensions>
          <ns3:TrackPointExtension>
            <ns3:atemp>22.0</ns3:atemp>
          </ns3:TrackPointExtension>
        </extensions>
      </trkpt>
      <trkpt lat="42.495685480535030364990234375" lon="20.180450789630413055419921875">
        <ele>2022.5999755859375</ele>
        <time>2026-06-20T11:09:35.000Z</time>
        <extensions>
          <ns3:TrackPointExtension>
            <ns3:atemp>22.0</ns3:atemp>
          </ns3:TrackPointExtension>
        </extensions>
      </trkpt>
      <trkpt lat="42.495685480535030364990234375" lon="20.180450789630413055419921875">
        <ele>2022.5999755859375</ele>
        <time>2026-06-20T11:09:36.000Z</time>
        <extensions>
          <ns3:TrackPointExtension>
            <ns3:atemp>22.0</ns3:atemp>
          </ns3:TrackPointExtension>
        </extensions>
      </trkpt>
      <trkpt lat="42.495685480535030364990234375" lon="20.180450789630413055419921875">
        <ele>2022.4000244140625</ele>
        <time>2026-06-20T11:09:37.000Z</time>
        <extensions>
          <ns3:TrackPointExtension>
            <ns3:atemp>22.0</ns3:atemp>
          </ns3:TrackPointExtension>
        </extensions>
      </trkpt>
      <trkpt lat="42.495685480535030364990234375" lon="20.180450789630413055419921875">
        <ele>2022.199951171875</ele>
        <time>2026-06-20T11:09:38.000Z</time>
        <extensions>
          <ns3:TrackPointExtension>
            <ns3:atemp>22.0</ns3:atemp>
          </ns3:TrackPointExtension>
        </extensions>
      </trkpt>
      <trkpt lat="42.495685480535030364990234375" lon="20.180450789630413055419921875">
        <ele>2022.199951171875</ele>
        <time>2026-06-20T11:09:39.000Z</time>
        <extensions>
          <ns3:TrackPointExtension>
            <ns3:atemp>22.0</ns3:atemp>
          </ns3:TrackPointExtension>
        </extensions>
      </trkpt>
      <trkpt lat="42.495685480535030364990234375" lon="20.180450789630413055419921875">
        <ele>2021.800048828125</ele>
        <time>2026-06-20T11:09:40.000Z</time>
        <extensions>
          <ns3:TrackPointExtension>
            <ns3:atemp>22.0</ns3:atemp>
          </ns3:TrackPointExtension>
        </extensions>
      </trkpt>
      <trkpt lat="42.495685480535030364990234375" lon="20.180450789630413055419921875">
        <ele>2021.800048828125</ele>
        <time>2026-06-20T11:09:41.000Z</time>
        <extensions>
          <ns3:TrackPointExtension>
            <ns3:atemp>22.0</ns3:atemp>
          </ns3:TrackPointExtension>
        </extensions>
      </trkpt>
      <trkpt lat="42.495685480535030364990234375" lon="20.180450789630413055419921875">
        <ele>2021.5999755859375</ele>
        <time>2026-06-20T11:09:42.000Z</time>
        <extensions>
          <ns3:TrackPointExtension>
            <ns3:atemp>22.0</ns3:atemp>
          </ns3:TrackPointExtension>
        </extensions>
      </trkpt>
      <trkpt lat="42.495685480535030364990234375" lon="20.180450789630413055419921875">
        <ele>2021.4000244140625</ele>
        <time>2026-06-20T11:09:43.000Z</time>
        <extensions>
          <ns3:TrackPointExtension>
            <ns3:atemp>22.0</ns3:atemp>
          </ns3:TrackPointExtension>
        </extensions>
      </trkpt>
      <trkpt lat="42.49568573199212551116943359375" lon="20.1804516278207302093505859375">
        <ele>2021.4000244140625</ele>
        <time>2026-06-20T11:09:44.000Z</time>
        <extensions>
          <ns3:TrackPointExtension>
            <ns3:atemp>22.0</ns3:atemp>
          </ns3:TrackPointExtension>
        </extensions>
      </trkpt>
      <trkpt lat="42.4956786073744297027587890625" lon="20.18046579323709011077880859375">
        <ele>2021.199951171875</ele>
        <time>2026-06-20T11:09:45.000Z</time>
        <extensions>
          <ns3:TrackPointExtension>
            <ns3:atemp>22.0</ns3:atemp>
          </ns3:TrackPointExtension>
        </extensions>
      </trkpt>
      <trkpt lat="42.4956656992435455322265625" lon="20.18048356287181377410888671875">
        <ele>2021.199951171875</ele>
        <time>2026-06-20T11:09:46.000Z</time>
        <extensions>
          <ns3:TrackPointExtension>
            <ns3:atemp>22.0</ns3:atemp>
          </ns3:TrackPointExtension>
        </extensions>
      </trkpt>
      <trkpt lat="42.495645917952060699462890625" lon="20.1805020868778228759765625">
        <ele>2021</ele>
        <time>2026-06-20T11:09:47.000Z</time>
        <extensions>
          <ns3:TrackPointExtension>
            <ns3:atemp>22.0</ns3:atemp>
          </ns3:TrackPointExtension>
        </extensions>
      </trkpt>
      <trkpt lat="42.49562077224254608154296875" lon="20.18051491118967533111572265625">
        <ele>2020.800048828125</ele>
        <time>2026-06-20T11:09:48.000Z</time>
        <extensions>
          <ns3:TrackPointExtension>
            <ns3:atemp>22.0</ns3:atemp>
          </ns3:TrackPointExtension>
        </extensions>
      </trkpt>
      <trkpt lat="42.495595626533031463623046875" lon="20.180518515408039093017578125">
        <ele>2020.5999755859375</ele>
        <time>2026-06-20T11:09:49.000Z</time>
        <extensions>
          <ns3:TrackPointExtension>
            <ns3:atemp>22.0</ns3:atemp>
          </ns3:TrackPointExtension>
        </extensions>
      </trkpt>
      <trkpt lat="42.49557324685156345367431640625" lon="20.1805089600384235382080078125">
        <ele>2020.4000244140625</ele>
        <time>2026-06-20T11:09:50.000Z</time>
        <extensions>
          <ns3:TrackPointExtension>
            <ns3:atemp>22.0</ns3:atemp>
          </ns3:TrackPointExtension>
        </extensions>
      </trkpt>
      <trkpt lat="42.49555313028395175933837890625" lon="20.1804955489933490753173828125">
        <ele>2020.199951171875</ele>
        <time>2026-06-20T11:09:51.000Z</time>
        <extensions>
          <ns3:TrackPointExtension>
            <ns3:atemp>22.0</ns3:atemp>
          </ns3:TrackPointExtension>
        </extensions>
      </trkpt>
      <trkpt lat="42.4955351091921329498291015625" lon="20.18047920428216457366943359375">
        <ele>2020</ele>
        <time>2026-06-20T11:09:52.000Z</time>
        <extensions>
          <ns3:TrackPointExtension>
            <ns3:atemp>22.0</ns3:atemp>
          </ns3:TrackPointExtension>
        </extensions>
      </trkpt>
      <trkpt lat="42.49552245251834392547607421875" lon="20.1804623566567897796630859375">
        <ele>2019.800048828125</ele>
        <time>2026-06-20T11:09:53.000Z</time>
        <extensions>
          <ns3:TrackPointExtension>
            <ns3:atemp>22.0</ns3:atemp>
          </ns3:TrackPointExtension>
        </extensions>
      </trkpt>
      <trkpt lat="42.4955200217664241790771484375" lon="20.18045607022941112518310546875">
        <ele>2019.4000244140625</ele>
        <time>2026-06-20T11:09:54.000Z</time>
        <extensions>
          <ns3:TrackPointExtension>
            <ns3:atemp>22.0</ns3:atemp>
          </ns3:TrackPointExtension>
        </extensions>
      </trkpt>
      <trkpt lat="42.49552262015640735626220703125" lon="20.18045715987682342529296875">
        <ele>2019.199951171875</ele>
        <time>2026-06-20T11:09:55.000Z</time>
        <extensions>
          <ns3:TrackPointExtension>
            <ns3:atemp>22.0</ns3:atemp>
          </ns3:TrackPointExtension>
        </extensions>
      </trkpt>
      <trkpt lat="42.49552245251834392547607421875" lon="20.18045707605779170989990234375">
        <ele>2018.800048828125</ele>
        <time>2026-06-20T11:09:56.000Z</time>
        <extensions>
          <ns3:TrackPointExtension>
            <ns3:atemp>22.0</ns3:atemp>
          </ns3:TrackPointExtension>
        </extensions>
      </trkpt>
      <trkpt lat="42.49552245251834392547607421875" lon="20.18045707605779170989990234375">
        <ele>2018.800048828125</ele>
        <time>2026-06-20T11:09:57.000Z</time>
        <extensions>
          <ns3:TrackPointExtension>
            <ns3:atemp>22.0</ns3:atemp>
          </ns3:TrackPointExtension>
        </extensions>
      </trkpt>
      <trkpt lat="42.49552245251834392547607421875" lon="20.18045707605779170989990234375">
        <ele>2018.5999755859375</ele>
        <time>2026-06-20T11:09:58.000Z</time>
        <extensions>
          <ns3:TrackPointExtension>
            <ns3:atemp>22.0</ns3:atemp>
          </ns3:TrackPointExtension>
        </extensions>
      </trkpt>
      <trkpt lat="42.49552245251834392547607421875" lon="20.18045707605779170989990234375">
        <ele>2018.5999755859375</ele>
        <time>2026-06-20T11:09:59.000Z</time>
        <extensions>
          <ns3:TrackPointExtension>
            <ns3:atemp>22.0</ns3:atemp>
          </ns3:TrackPointExtension>
        </extensions>
      </trkpt>
      <trkpt lat="42.49552245251834392547607421875" lon="20.18045707605779170989990234375">
        <ele>2018.800048828125</ele>
        <time>2026-06-20T11:10:00.000Z</time>
        <extensions>
          <ns3:TrackPointExtension>
            <ns3:atemp>22.0</ns3:atemp>
          </ns3:TrackPointExtension>
        </extensions>
      </trkpt>
      <trkpt lat="42.49552245251834392547607421875" lon="20.18045707605779170989990234375">
        <ele>2018.800048828125</ele>
        <time>2026-06-20T11:10:01.000Z</time>
        <extensions>
          <ns3:TrackPointExtension>
            <ns3:atemp>22.0</ns3:atemp>
          </ns3:TrackPointExtension>
        </extensions>
      </trkpt>
      <trkpt lat="42.49552245251834392547607421875" lon="20.18045707605779170989990234375">
        <ele>2018.800048828125</ele>
        <time>2026-06-20T11:10:02.000Z</time>
        <extensions>
          <ns3:TrackPointExtension>
            <ns3:atemp>22.0</ns3:atemp>
          </ns3:TrackPointExtension>
        </extensions>
      </trkpt>
      <trkpt lat="42.49552245251834392547607421875" lon="20.18045707605779170989990234375">
        <ele>2018.800048828125</ele>
        <time>2026-06-20T11:10:03.000Z</time>
        <extensions>
          <ns3:TrackPointExtension>
            <ns3:atemp>22.0</ns3:atemp>
          </ns3:TrackPointExtension>
        </extensions>
      </trkpt>
      <trkpt lat="42.49552245251834392547607421875" lon="20.18045707605779170989990234375">
        <ele>2018.800048828125</ele>
        <time>2026-06-20T11:10:04.000Z</time>
        <extensions>
          <ns3:TrackPointExtension>
            <ns3:atemp>22.0</ns3:atemp>
          </ns3:TrackPointExtension>
        </extensions>
      </trkpt>
      <trkpt lat="42.49552245251834392547607421875" lon="20.18045707605779170989990234375">
        <ele>2018.800048828125</ele>
        <time>2026-06-20T11:10:05.000Z</time>
        <extensions>
          <ns3:TrackPointExtension>
            <ns3:atemp>22.0</ns3:atemp>
          </ns3:TrackPointExtension>
        </extensions>
      </trkpt>
      <trkpt lat="42.49552245251834392547607421875" lon="20.18045707605779170989990234375">
        <ele>2018.5999755859375</ele>
        <time>2026-06-20T11:10:06.000Z</time>
        <extensions>
          <ns3:TrackPointExtension>
            <ns3:atemp>22.0</ns3:atemp>
          </ns3:TrackPointExtension>
        </extensions>
      </trkpt>
      <trkpt lat="42.49552245251834392547607421875" lon="20.18045707605779170989990234375">
        <ele>2018.5999755859375</ele>
        <time>2026-06-20T11:10:07.000Z</time>
        <extensions>
          <ns3:TrackPointExtension>
            <ns3:atemp>22.0</ns3:atemp>
          </ns3:TrackPointExtension>
        </extensions>
      </trkpt>
      <trkpt lat="42.49552077613770961761474609375" lon="20.18045707605779170989990234375">
        <ele>2018.4000244140625</ele>
        <time>2026-06-20T11:10:08.000Z</time>
        <extensions>
          <ns3:TrackPointExtension>
            <ns3:atemp>22.0</ns3:atemp>
          </ns3:TrackPointExtension>
        </extensions>
      </trkpt>
      <trkpt lat="42.49550686217844486236572265625" lon="20.180453471839427947998046875">
        <ele>2018.4000244140625</ele>
        <time>2026-06-20T11:10:09.000Z</time>
        <extensions>
          <ns3:TrackPointExtension>
            <ns3:atemp>22.0</ns3:atemp>
          </ns3:TrackPointExtension>
        </extensions>
      </trkpt>
      <trkpt lat="42.49549579806625843048095703125" lon="20.18044911324977874755859375">
        <ele>2018.199951171875</ele>
        <time>2026-06-20T11:10:10.000Z</time>
        <extensions>
          <ns3:TrackPointExtension>
            <ns3:atemp>22.0</ns3:atemp>
          </ns3:TrackPointExtension>
        </extensions>
      </trkpt>
      <trkpt lat="42.4954806268215179443359375" lon="20.180449448525905609130859375">
        <ele>2017.800048828125</ele>
        <time>2026-06-20T11:10:11.000Z</time>
        <extensions>
          <ns3:TrackPointExtension>
            <ns3:atemp>22.0</ns3:atemp>
          </ns3:TrackPointExtension>
        </extensions>
      </trkpt>
      <trkpt lat="42.49547056853771209716796875" lon="20.18045959062874317169189453125">
        <ele>2017.5999755859375</ele>
        <time>2026-06-20T11:10:12.000Z</time>
        <extensions>
          <ns3:TrackPointExtension>
            <ns3:atemp>22.0</ns3:atemp>
          </ns3:TrackPointExtension>
        </extensions>
      </trkpt>
      <trkpt lat="42.4954590015113353729248046875" lon="20.18047115765511989593505859375">
        <ele>2017.4000244140625</ele>
        <time>2026-06-20T11:10:13.000Z</time>
        <extensions>
          <ns3:TrackPointExtension>
            <ns3:atemp>22.0</ns3:atemp>
          </ns3:TrackPointExtension>
        </extensions>
      </trkpt>
      <trkpt lat="42.4954529665410518646240234375" lon="20.180491022765636444091796875">
        <ele>2017</ele>
        <time>2026-06-20T11:10:14.000Z</time>
        <extensions>
          <ns3:TrackPointExtension>
            <ns3:atemp>22.0</ns3:atemp>
          </ns3:TrackPointExtension>
        </extensions>
      </trkpt>
      <trkpt lat="42.49544198624789714813232421875" lon="20.18051139079034328460693359375">
        <ele>2016.800048828125</ele>
        <time>2026-06-20T11:10:15.000Z</time>
        <extensions>
          <ns3:TrackPointExtension>
            <ns3:atemp>22.0</ns3:atemp>
          </ns3:TrackPointExtension>
        </extensions>
      </trkpt>
      <trkpt lat="42.4954298324882984161376953125" lon="20.18053486011922359466552734375">
        <ele>2016.4000244140625</ele>
        <time>2026-06-20T11:10:16.000Z</time>
        <extensions>
          <ns3:TrackPointExtension>
            <ns3:atemp>22.0</ns3:atemp>
          </ns3:TrackPointExtension>
        </extensions>
      </trkpt>
      <trkpt lat="42.49541432596743106842041015625" lon="20.18056687898933887481689453125">
        <ele>2015.800048828125</ele>
        <time>2026-06-20T11:10:17.000Z</time>
        <extensions>
          <ns3:TrackPointExtension>
            <ns3:atemp>22.0</ns3:atemp>
          </ns3:TrackPointExtension>
        </extensions>
      </trkpt>
      <trkpt lat="42.49539957381784915924072265625" lon="20.18060065805912017822265625">
        <ele>2015.4000244140625</ele>
        <time>2026-06-20T11:10:18.000Z</time>
        <extensions>
          <ns3:TrackPointExtension>
            <ns3:atemp>22.0</ns3:atemp>
          </ns3:TrackPointExtension>
        </extensions>
      </trkpt>
      <trkpt lat="42.49538012780249118804931640625" lon="20.1806266419589519500732421875">
        <ele>2014.800048828125</ele>
        <time>2026-06-20T11:10:19.000Z</time>
        <extensions>
          <ns3:TrackPointExtension>
            <ns3:atemp>22.0</ns3:atemp>
          </ns3:TrackPointExtension>
        </extensions>
      </trkpt>
      <trkpt lat="42.49536185525357723236083984375" lon="20.18064650706946849822998046875">
        <ele>2014.4000244140625</ele>
        <time>2026-06-20T11:10:20.000Z</time>
        <extensions>
          <ns3:TrackPointExtension>
            <ns3:atemp>22.0</ns3:atemp>
          </ns3:TrackPointExtension>
        </extensions>
      </trkpt>
      <trkpt lat="42.4953440017998218536376953125" lon="20.18066897056996822357177734375">
        <ele>2014</ele>
        <time>2026-06-20T11:10:21.000Z</time>
        <extensions>
          <ns3:TrackPointExtension>
            <ns3:atemp>22.0</ns3:atemp>
          </ns3:TrackPointExtension>
        </extensions>
      </trkpt>
      <trkpt lat="42.4953262321650981903076171875" lon="20.180692858994007110595703125">
        <ele>2013.5999755859375</ele>
        <time>2026-06-20T11:10:22.000Z</time>
        <extensions>
          <ns3:TrackPointExtension>
            <ns3:atemp>22.0</ns3:atemp>
          </ns3:TrackPointExtension>
        </extensions>
      </trkpt>
      <trkpt lat="42.495309971272945404052734375" lon="20.180707611143589019775390625">
        <ele>2013.199951171875</ele>
        <time>2026-06-20T11:10:23.000Z</time>
        <extensions>
          <ns3:TrackPointExtension>
            <ns3:atemp>22.0</ns3:atemp>
          </ns3:TrackPointExtension>
        </extensions>
      </trkpt>
      <trkpt lat="42.495301254093647003173828125" lon="20.18072068691253662109375">
        <ele>2012.800048828125</ele>
        <time>2026-06-20T11:10:24.000Z</time>
        <extensions>
          <ns3:TrackPointExtension>
            <ns3:atemp>22.0</ns3:atemp>
          </ns3:TrackPointExtension>
        </extensions>
      </trkpt>
      <trkpt lat="42.4952883459627628326416015625" lon="20.1807339303195476531982421875">
        <ele>2012.4000244140625</ele>
        <time>2026-06-20T11:10:25.000Z</time>
        <extensions>
          <ns3:TrackPointExtension>
            <ns3:atemp>22.0</ns3:atemp>
          </ns3:TrackPointExtension>
        </extensions>
      </trkpt>
      <trkpt lat="42.49527937732636928558349609375" lon="20.18074004910886287689208984375">
        <ele>2012</ele>
        <time>2026-06-20T11:10:26.000Z</time>
        <extensions>
          <ns3:TrackPointExtension>
            <ns3:atemp>22.0</ns3:atemp>
          </ns3:TrackPointExtension>
        </extensions>
      </trkpt>
      <trkpt lat="42.49526881612837314605712890625" lon="20.18074373714625835418701171875">
        <ele>2011.5999755859375</ele>
        <time>2026-06-20T11:10:27.000Z</time>
        <extensions>
          <ns3:TrackPointExtension>
            <ns3:atemp>22.0</ns3:atemp>
          </ns3:TrackPointExtension>
        </extensions>
      </trkpt>
      <trkpt lat="42.49526001513004302978515625" lon="20.1807413063943386077880859375">
        <ele>2011.199951171875</ele>
        <time>2026-06-20T11:10:28.000Z</time>
        <extensions>
          <ns3:TrackPointExtension>
            <ns3:atemp>22.0</ns3:atemp>
          </ns3:TrackPointExtension>
        </extensions>
      </trkpt>
      <trkpt lat="42.49524937011301517486572265625" lon="20.1807339303195476531982421875">
        <ele>2010.800048828125</ele>
        <time>2026-06-20T11:10:29.000Z</time>
        <extensions>
          <ns3:TrackPointExtension>
            <ns3:atemp>22.0</ns3:atemp>
          </ns3:TrackPointExtension>
        </extensions>
      </trkpt>
      <trkpt lat="42.49523780308663845062255859375" lon="20.18072194419801235198974609375">
        <ele>2010.199951171875</ele>
        <time>2026-06-20T11:10:30.000Z</time>
        <extensions>
          <ns3:TrackPointExtension>
            <ns3:atemp>22.0</ns3:atemp>
          </ns3:TrackPointExtension>
        </extensions>
      </trkpt>
      <trkpt lat="42.49522246420383453369140625" lon="20.18070668913424015045166015625">
        <ele>2009.5999755859375</ele>
        <time>2026-06-20T11:10:31.000Z</time>
        <extensions>
          <ns3:TrackPointExtension>
            <ns3:atemp>22.0</ns3:atemp>
          </ns3:TrackPointExtension>
        </extensions>
      </trkpt>
      <trkpt lat="42.49520502984523773193359375" lon="20.18068724311888217926025390625">
        <ele>2008.5999755859375</ele>
        <time>2026-06-20T11:10:32.000Z</time>
        <extensions>
          <ns3:TrackPointExtension>
            <ns3:atemp>22.0</ns3:atemp>
          </ns3:TrackPointExtension>
        </extensions>
      </trkpt>
      <trkpt lat="42.49518893659114837646484375" lon="20.180672742426395416259765625">
        <ele>2007.800048828125</ele>
        <time>2026-06-20T11:10:33.000Z</time>
        <extensions>
          <ns3:TrackPointExtension>
            <ns3:atemp>22.0</ns3:atemp>
          </ns3:TrackPointExtension>
        </extensions>
      </trkpt>
      <trkpt lat="42.495169825851917266845703125" lon="20.1806522905826568603515625">
        <ele>2006.800048828125</ele>
        <time>2026-06-20T11:10:34.000Z</time>
        <extensions>
          <ns3:TrackPointExtension>
            <ns3:atemp>22.0</ns3:atemp>
          </ns3:TrackPointExtension>
        </extensions>
      </trkpt>
      <trkpt lat="42.4951508827507495880126953125" lon="20.180630497634410858154296875">
        <ele>2005.800048828125</ele>
        <time>2026-06-20T11:10:35.000Z</time>
        <extensions>
          <ns3:TrackPointExtension>
            <ns3:atemp>22.0</ns3:atemp>
          </ns3:TrackPointExtension>
        </extensions>
      </trkpt>
      <trkpt lat="42.49512917362153530120849609375" lon="20.18061515875160694122314453125">
        <ele>2004.800048828125</ele>
        <time>2026-06-20T11:10:36.000Z</time>
        <extensions>
          <ns3:TrackPointExtension>
            <ns3:atemp>22.0</ns3:atemp>
          </ns3:TrackPointExtension>
        </extensions>
      </trkpt>
      <trkpt lat="42.49510402791202068328857421875" lon="20.18060459755361080169677734375">
        <ele>2003.4000244140625</ele>
        <time>2026-06-20T11:10:37.000Z</time>
        <extensions>
          <ns3:TrackPointExtension>
            <ns3:atemp>22.0</ns3:atemp>
          </ns3:TrackPointExtension>
        </extensions>
      </trkpt>
      <trkpt lat="42.4950836598873138427734375" lon="20.18059663474559783935546875">
        <ele>2002.4000244140625</ele>
        <time>2026-06-20T11:10:38.000Z</time>
        <extensions>
          <ns3:TrackPointExtension>
            <ns3:atemp>22.0</ns3:atemp>
          </ns3:TrackPointExtension>
        </extensions>
      </trkpt>
      <trkpt lat="42.4950613640248775482177734375" lon="20.18058724701404571533203125">
        <ele>2001.4000244140625</ele>
        <time>2026-06-20T11:10:39.000Z</time>
        <extensions>
          <ns3:TrackPointExtension>
            <ns3:atemp>22.0</ns3:atemp>
          </ns3:TrackPointExtension>
        </extensions>
      </trkpt>
      <trkpt lat="42.49503630213439464569091796875" lon="20.18057224340736865997314453125">
        <ele>2000.199951171875</ele>
        <time>2026-06-20T11:10:40.000Z</time>
        <extensions>
          <ns3:TrackPointExtension>
            <ns3:atemp>22.0</ns3:atemp>
          </ns3:TrackPointExtension>
        </extensions>
      </trkpt>
      <trkpt lat="42.49501786194741725921630859375" lon="20.18056352622807025909423828125">
        <ele>1999.199951171875</ele>
        <time>2026-06-20T11:10:41.000Z</time>
        <extensions>
          <ns3:TrackPointExtension>
            <ns3:atemp>22.0</ns3:atemp>
          </ns3:TrackPointExtension>
        </extensions>
      </trkpt>
      <trkpt lat="42.4949959851801395416259765625" lon="20.180546343326568603515625">
        <ele>1998</ele>
        <time>2026-06-20T11:10:42.000Z</time>
        <extensions>
          <ns3:TrackPointExtension>
            <ns3:atemp>22.0</ns3:atemp>
          </ns3:TrackPointExtension>
        </extensions>
      </trkpt>
      <trkpt lat="42.4949710071086883544921875" lon="20.1805300824344158172607421875">
        <ele>1996.5999755859375</ele>
        <time>2026-06-20T11:10:43.000Z</time>
        <extensions>
          <ns3:TrackPointExtension>
            <ns3:atemp>22.0</ns3:atemp>
          </ns3:TrackPointExtension>
        </extensions>
      </trkpt>
      <trkpt lat="42.4949463643133640289306640625" lon="20.180523879826068878173828125">
        <ele>1995.5999755859375</ele>
        <time>2026-06-20T11:10:44.000Z</time>
        <extensions>
          <ns3:TrackPointExtension>
            <ns3:atemp>22.0</ns3:atemp>
          </ns3:TrackPointExtension>
        </extensions>
      </trkpt>
      <trkpt lat="42.49494024552404880523681640625" lon="20.18053452484309673309326171875">
        <ele>1994.5999755859375</ele>
        <time>2026-06-20T11:10:45.000Z</time>
        <extensions>
          <ns3:TrackPointExtension>
            <ns3:atemp>22.0</ns3:atemp>
          </ns3:TrackPointExtension>
        </extensions>
      </trkpt>
      <trkpt lat="42.494939155876636505126953125" lon="20.18053184263408184051513671875">
        <ele>1994</ele>
        <time>2026-06-20T11:10:46.000Z</time>
        <extensions>
          <ns3:TrackPointExtension>
            <ns3:atemp>22.0</ns3:atemp>
          </ns3:TrackPointExtension>
        </extensions>
      </trkpt>
      <trkpt lat="42.49494292773306369781494140625" lon="20.18052823841571807861328125">
        <ele>1993.4000244140625</ele>
        <time>2026-06-20T11:10:47.000Z</time>
        <extensions>
          <ns3:TrackPointExtension>
            <ns3:atemp>22.0</ns3:atemp>
          </ns3:TrackPointExtension>
        </extensions>
      </trkpt>
      <trkpt lat="42.4949430115520954132080078125" lon="20.1805280707776546478271484375">
        <ele>1993</ele>
        <time>2026-06-20T11:10:48.000Z</time>
        <extensions>
          <ns3:TrackPointExtension>
            <ns3:atemp>22.0</ns3:atemp>
          </ns3:TrackPointExtension>
        </extensions>
      </trkpt>
      <trkpt lat="42.4949430115520954132080078125" lon="20.1805280707776546478271484375">
        <ele>1992.5999755859375</ele>
        <time>2026-06-20T11:10:49.000Z</time>
        <extensions>
          <ns3:TrackPointExtension>
            <ns3:atemp>22.0</ns3:atemp>
          </ns3:TrackPointExtension>
        </extensions>
      </trkpt>
      <trkpt lat="42.4949430115520954132080078125" lon="20.1805280707776546478271484375">
        <ele>1992</ele>
        <time>2026-06-20T11:10:50.000Z</time>
        <extensions>
          <ns3:TrackPointExtension>
            <ns3:atemp>22.0</ns3:atemp>
          </ns3:TrackPointExtension>
        </extensions>
      </trkpt>
      <trkpt lat="42.4949430115520954132080078125" lon="20.1805280707776546478271484375">
        <ele>1991.4000244140625</ele>
        <time>2026-06-20T11:10:51.000Z</time>
        <extensions>
          <ns3:TrackPointExtension>
            <ns3:atemp>22.0</ns3:atemp>
          </ns3:TrackPointExtension>
        </extensions>
      </trkpt>
      <trkpt lat="42.4949430115520954132080078125" lon="20.1805280707776546478271484375">
        <ele>1991</ele>
        <time>2026-06-20T11:10:52.000Z</time>
        <extensions>
          <ns3:TrackPointExtension>
            <ns3:atemp>22.0</ns3:atemp>
          </ns3:TrackPointExtension>
        </extensions>
      </trkpt>
      <trkpt lat="42.4949430115520954132080078125" lon="20.1805280707776546478271484375">
        <ele>1990.5999755859375</ele>
        <time>2026-06-20T11:10:53.000Z</time>
        <extensions>
          <ns3:TrackPointExtension>
            <ns3:atemp>22.0</ns3:atemp>
          </ns3:TrackPointExtension>
        </extensions>
      </trkpt>
      <trkpt lat="42.4949430115520954132080078125" lon="20.18052664585411548614501953125">
        <ele>1990.4000244140625</ele>
        <time>2026-06-20T11:10:54.000Z</time>
        <extensions>
          <ns3:TrackPointExtension>
            <ns3:atemp>22.0</ns3:atemp>
          </ns3:TrackPointExtension>
        </extensions>
      </trkpt>
      <trkpt lat="42.4949282594025135040283203125" lon="20.18050887621939182281494140625">
        <ele>1990.199951171875</ele>
        <time>2026-06-20T11:10:55.000Z</time>
        <extensions>
          <ns3:TrackPointExtension>
            <ns3:atemp>22.0</ns3:atemp>
          </ns3:TrackPointExtension>
        </extensions>
      </trkpt>
      <trkpt lat="42.49490789137780666351318359375" lon="20.180499069392681121826171875">
        <ele>1989.800048828125</ele>
        <time>2026-06-20T11:10:56.000Z</time>
        <extensions>
          <ns3:TrackPointExtension>
            <ns3:atemp>22.0</ns3:atemp>
          </ns3:TrackPointExtension>
        </extensions>
      </trkpt>
      <trkpt lat="42.494883835315704345703125" lon="20.18049211241304874420166015625">
        <ele>1989.4000244140625</ele>
        <time>2026-06-20T11:10:57.000Z</time>
        <extensions>
          <ns3:TrackPointExtension>
            <ns3:atemp>22.0</ns3:atemp>
          </ns3:TrackPointExtension>
        </extensions>
      </trkpt>
      <trkpt lat="42.494856677949428558349609375" lon="20.18048305995762348175048828125">
        <ele>1988.5999755859375</ele>
        <time>2026-06-20T11:10:58.000Z</time>
        <extensions>
          <ns3:TrackPointExtension>
            <ns3:atemp>22.0</ns3:atemp>
          </ns3:TrackPointExtension>
        </extensions>
      </trkpt>
      <trkpt lat="42.49483563937246799468994140625" lon="20.1804699003696441650390625">
        <ele>1988</ele>
        <time>2026-06-20T11:10:59.000Z</time>
        <extensions>
          <ns3:TrackPointExtension>
            <ns3:atemp>22.0</ns3:atemp>
          </ns3:TrackPointExtension>
        </extensions>
      </trkpt>
      <trkpt lat="42.49480848200619220733642578125" lon="20.18045456148684024810791015625">
        <ele>1987.199951171875</ele>
        <time>2026-06-20T11:11:00.000Z</time>
        <extensions>
          <ns3:TrackPointExtension>
            <ns3:atemp>22.0</ns3:atemp>
          </ns3:TrackPointExtension>
        </extensions>
      </trkpt>
      <trkpt lat="42.49478518031537532806396484375" lon="20.18044265918433666229248046875">
        <ele>1986.4000244140625</ele>
        <time>2026-06-20T11:11:01.000Z</time>
        <extensions>
          <ns3:TrackPointExtension>
            <ns3:atemp>22.0</ns3:atemp>
          </ns3:TrackPointExtension>
        </extensions>
      </trkpt>
      <trkpt lat="42.4947591125965118408203125" lon="20.18042874522507190704345703125">
        <ele>1985.5999755859375</ele>
        <time>2026-06-20T11:11:02.000Z</time>
        <extensions>
          <ns3:TrackPointExtension>
            <ns3:atemp>22.0</ns3:atemp>
          </ns3:TrackPointExtension>
        </extensions>
      </trkpt>
      <trkpt lat="42.49473371542990207672119140625" lon="20.180417932569980621337890625">
        <ele>1984.800048828125</ele>
        <time>2026-06-20T11:11:03.000Z</time>
        <extensions>
          <ns3:TrackPointExtension>
            <ns3:atemp>22.0</ns3:atemp>
          </ns3:TrackPointExtension>
        </extensions>
      </trkpt>
      <trkpt lat="42.49470890499651432037353515625" lon="20.18041214905679225921630859375">
        <ele>1983.4000244140625</ele>
        <time>2026-06-20T11:11:04.000Z</time>
        <extensions>
          <ns3:TrackPointExtension>
            <ns3:atemp>22.0</ns3:atemp>
          </ns3:TrackPointExtension>
        </extensions>
      </trkpt>
      <trkpt lat="42.49469113536179065704345703125" lon="20.18040728755295276641845703125">
        <ele>1982.5999755859375</ele>
        <time>2026-06-20T11:11:05.000Z</time>
        <extensions>
          <ns3:TrackPointExtension>
            <ns3:atemp>22.0</ns3:atemp>
          </ns3:TrackPointExtension>
        </extensions>
      </trkpt>
      <trkpt lat="42.49466598965227603912353515625" lon="20.1804036833345890045166015625">
        <ele>1981.5999755859375</ele>
        <time>2026-06-20T11:11:06.000Z</time>
        <extensions>
          <ns3:TrackPointExtension>
            <ns3:atemp>22.0</ns3:atemp>
          </ns3:TrackPointExtension>
        </extensions>
      </trkpt>
      <trkpt lat="42.494642436504364013671875" lon="20.18040359951555728912353515625">
        <ele>1980.4000244140625</ele>
        <time>2026-06-20T11:11:07.000Z</time>
        <extensions>
          <ns3:TrackPointExtension>
            <ns3:atemp>22.0</ns3:atemp>
          </ns3:TrackPointExtension>
        </extensions>
      </trkpt>
      <trkpt lat="42.49462039209902286529541015625" lon="20.1803989894688129425048828125">
        <ele>1979.4000244140625</ele>
        <time>2026-06-20T11:11:08.000Z</time>
        <extensions>
          <ns3:TrackPointExtension>
            <ns3:atemp>22.0</ns3:atemp>
          </ns3:TrackPointExtension>
        </extensions>
      </trkpt>
      <trkpt lat="42.49459591694176197052001953125" lon="20.1803936250507831573486328125">
        <ele>1978.199951171875</ele>
        <time>2026-06-20T11:11:09.000Z</time>
        <extensions>
          <ns3:TrackPointExtension>
            <ns3:atemp>22.0</ns3:atemp>
          </ns3:TrackPointExtension>
        </extensions>
      </trkpt>
      <trkpt lat="42.49456875957548618316650390625" lon="20.18039303831756114959716796875">
        <ele>1977</ele>
        <time>2026-06-20T11:11:10.000Z</time>
        <extensions>
          <ns3:TrackPointExtension>
            <ns3:atemp>22.0</ns3:atemp>
          </ns3:TrackPointExtension>
        </extensions>
      </trkpt>
      <trkpt lat="42.4945279397070407867431640625" lon="20.1803912781178951263427734375">
        <ele>1975.800048828125</ele>
        <time>2026-06-20T11:11:11.000Z</time>
        <extensions>
          <ns3:TrackPointExtension>
            <ns3:atemp>22.0</ns3:atemp>
          </ns3:TrackPointExtension>
        </extensions>
      </trkpt>
      <trkpt lat="42.49448494054377079010009765625" lon="20.18039002083241939544677734375">
        <ele>1974.800048828125</ele>
        <time>2026-06-20T11:11:12.000Z</time>
        <extensions>
          <ns3:TrackPointExtension>
            <ns3:atemp>22.0</ns3:atemp>
          </ns3:TrackPointExtension>
        </extensions>
      </trkpt>
      <trkpt lat="42.4944407679140567779541015625" lon="20.18038767389953136444091796875">
        <ele>1973.5999755859375</ele>
        <time>2026-06-20T11:11:13.000Z</time>
        <extensions>
          <ns3:TrackPointExtension>
            <ns3:atemp>22.0</ns3:atemp>
          </ns3:TrackPointExtension>
        </extensions>
      </trkpt>
      <trkpt lat="42.49439156614243984222412109375" lon="20.1803993247449398040771484375">
        <ele>1972</ele>
        <time>2026-06-20T11:11:14.000Z</time>
        <extensions>
          <ns3:TrackPointExtension>
            <ns3:atemp>22.0</ns3:atemp>
          </ns3:TrackPointExtension>
        </extensions>
      </trkpt>
      <trkpt lat="42.49434781260788440704345703125" lon="20.18040619790554046630859375">
        <ele>1970.800048828125</ele>
        <time>2026-06-20T11:11:15.000Z</time>
        <extensions>
          <ns3:TrackPointExtension>
            <ns3:atemp>22.0</ns3:atemp>
          </ns3:TrackPointExtension>
        </extensions>
      </trkpt>
      <trkpt lat="42.49430389143526554107666015625" lon="20.18041583709418773651123046875">
        <ele>1969.5999755859375</ele>
        <time>2026-06-20T11:11:16.000Z</time>
        <extensions>
          <ns3:TrackPointExtension>
            <ns3:atemp>22.0</ns3:atemp>
          </ns3:TrackPointExtension>
        </extensions>
      </trkpt>
      <trkpt lat="42.4942593835294246673583984375" lon="20.18044282682240009307861328125">
        <ele>1968.4000244140625</ele>
        <time>2026-06-20T11:11:17.000Z</time>
        <extensions>
          <ns3:TrackPointExtension>
            <ns3:atemp>22.0</ns3:atemp>
          </ns3:TrackPointExtension>
        </extensions>
      </trkpt>
      <trkpt lat="42.4942168034613132476806640625" lon="20.18048666417598724365234375">
        <ele>1967.4000244140625</ele>
        <time>2026-06-20T11:11:18.000Z</time>
        <extensions>
          <ns3:TrackPointExtension>
            <ns3:atemp>22.0</ns3:atemp>
          </ns3:TrackPointExtension>
        </extensions>
      </trkpt>
      <trkpt lat="42.4941799230873584747314453125" lon="20.1805347763001918792724609375">
        <ele>1966.4000244140625</ele>
        <time>2026-06-20T11:11:19.000Z</time>
        <extensions>
          <ns3:TrackPointExtension>
            <ns3:atemp>22.0</ns3:atemp>
          </ns3:TrackPointExtension>
        </extensions>
      </trkpt>
      <trkpt lat="42.49414689838886260986328125" lon="20.1805756799876689910888671875">
        <ele>1965.5999755859375</ele>
        <time>2026-06-20T11:11:20.000Z</time>
        <extensions>
          <ns3:TrackPointExtension>
            <ns3:atemp>22.0</ns3:atemp>
          </ns3:TrackPointExtension>
        </extensions>
      </trkpt>
      <trkpt lat="42.49411580152809619903564453125" lon="20.18059856258332729339599609375">
        <ele>1965.199951171875</ele>
        <time>2026-06-20T11:11:21.000Z</time>
        <extensions>
          <ns3:TrackPointExtension>
            <ns3:atemp>22.0</ns3:atemp>
          </ns3:TrackPointExtension>
        </extensions>
      </trkpt>
      <trkpt lat="42.49410909600555896759033203125" lon="20.18060426227748394012451171875">
        <ele>1964.800048828125</ele>
        <time>2026-06-20T11:11:22.000Z</time>
        <extensions>
          <ns3:TrackPointExtension>
            <ns3:atemp>22.0</ns3:atemp>
          </ns3:TrackPointExtension>
        </extensions>
      </trkpt>
      <trkpt lat="42.49410909600555896759033203125" lon="20.18060426227748394012451171875">
        <ele>1964.800048828125</ele>
        <time>2026-06-20T11:11:23.000Z</time>
        <extensions>
          <ns3:TrackPointExtension>
            <ns3:atemp>22.0</ns3:atemp>
          </ns3:TrackPointExtension>
        </extensions>
      </trkpt>
      <trkpt lat="42.49410909600555896759033203125" lon="20.18060426227748394012451171875">
        <ele>1964.5999755859375</ele>
        <time>2026-06-20T11:11:24.000Z</time>
        <extensions>
          <ns3:TrackPointExtension>
            <ns3:atemp>22.0</ns3:atemp>
          </ns3:TrackPointExtension>
        </extensions>
      </trkpt>
      <trkpt lat="42.49410909600555896759033203125" lon="20.18060426227748394012451171875">
        <ele>1964.5999755859375</ele>
        <time>2026-06-20T11:11:25.000Z</time>
        <extensions>
          <ns3:TrackPointExtension>
            <ns3:atemp>22.0</ns3:atemp>
          </ns3:TrackPointExtension>
        </extensions>
      </trkpt>
      <trkpt lat="42.49410909600555896759033203125" lon="20.18060426227748394012451171875">
        <ele>1964.5999755859375</ele>
        <time>2026-06-20T11:11:26.000Z</time>
        <extensions>
          <ns3:TrackPointExtension>
            <ns3:atemp>22.0</ns3:atemp>
          </ns3:TrackPointExtension>
        </extensions>
      </trkpt>
      <trkpt lat="42.49410909600555896759033203125" lon="20.18060426227748394012451171875">
        <ele>1964.5999755859375</ele>
        <time>2026-06-20T11:11:27.000Z</time>
        <extensions>
          <ns3:TrackPointExtension>
            <ns3:atemp>22.0</ns3:atemp>
          </ns3:TrackPointExtension>
        </extensions>
      </trkpt>
      <trkpt lat="42.49410909600555896759033203125" lon="20.18060426227748394012451171875">
        <ele>1964.4000244140625</ele>
        <time>2026-06-20T11:11:28.000Z</time>
        <extensions>
          <ns3:TrackPointExtension>
            <ns3:atemp>22.0</ns3:atemp>
          </ns3:TrackPointExtension>
        </extensions>
      </trkpt>
      <trkpt lat="42.49410909600555896759033203125" lon="20.18060426227748394012451171875">
        <ele>1964.199951171875</ele>
        <time>2026-06-20T11:11:29.000Z</time>
        <extensions>
          <ns3:TrackPointExtension>
            <ns3:atemp>22.0</ns3:atemp>
          </ns3:TrackPointExtension>
        </extensions>
      </trkpt>
      <trkpt lat="42.49410909600555896759033203125" lon="20.18060426227748394012451171875">
        <ele>1964.199951171875</ele>
        <time>2026-06-20T11:11:30.000Z</time>
        <extensions>
          <ns3:TrackPointExtension>
            <ns3:atemp>22.0</ns3:atemp>
          </ns3:TrackPointExtension>
        </extensions>
      </trkpt>
      <trkpt lat="42.49410909600555896759033203125" lon="20.18060426227748394012451171875">
        <ele>1964</ele>
        <time>2026-06-20T11:11:31.000Z</time>
        <extensions>
          <ns3:TrackPointExtension>
            <ns3:atemp>22.0</ns3:atemp>
          </ns3:TrackPointExtension>
        </extensions>
      </trkpt>
      <trkpt lat="42.49410909600555896759033203125" lon="20.18060426227748394012451171875">
        <ele>1964</ele>
        <time>2026-06-20T11:11:32.000Z</time>
        <extensions>
          <ns3:TrackPointExtension>
            <ns3:atemp>22.0</ns3:atemp>
          </ns3:TrackPointExtension>
        </extensions>
      </trkpt>
      <trkpt lat="42.49410800635814666748046875" lon="20.18060375936329364776611328125">
        <ele>1964</ele>
        <time>2026-06-20T11:11:33.000Z</time>
        <extensions>
          <ns3:TrackPointExtension>
            <ns3:atemp>22.0</ns3:atemp>
          </ns3:TrackPointExtension>
        </extensions>
      </trkpt>
      <trkpt lat="42.4940873868763446807861328125" lon="20.18061004579067230224609375">
        <ele>1963.800048828125</ele>
        <time>2026-06-20T11:11:34.000Z</time>
        <extensions>
          <ns3:TrackPointExtension>
            <ns3:atemp>22.0</ns3:atemp>
          </ns3:TrackPointExtension>
        </extensions>
      </trkpt>
      <trkpt lat="42.49407020397484302520751953125" lon="20.1806239597499370574951171875">
        <ele>1963.5999755859375</ele>
        <time>2026-06-20T11:11:35.000Z</time>
        <extensions>
          <ns3:TrackPointExtension>
            <ns3:atemp>22.0</ns3:atemp>
          </ns3:TrackPointExtension>
        </extensions>
      </trkpt>
      <trkpt lat="42.49405310489237308502197265625" lon="20.18064030446112155914306640625">
        <ele>1963.4000244140625</ele>
        <time>2026-06-20T11:11:36.000Z</time>
        <extensions>
          <ns3:TrackPointExtension>
            <ns3:atemp>22.0</ns3:atemp>
          </ns3:TrackPointExtension>
        </extensions>
      </trkpt>
      <trkpt lat="42.49403902329504489898681640625" lon="20.1806544698774814605712890625">
        <ele>1963.199951171875</ele>
        <time>2026-06-20T11:11:37.000Z</time>
        <extensions>
          <ns3:TrackPointExtension>
            <ns3:atemp>22.0</ns3:atemp>
          </ns3:TrackPointExtension>
        </extensions>
      </trkpt>
      <trkpt lat="42.49401605688035488128662109375" lon="20.18065966665744781494140625">
        <ele>1963</ele>
        <time>2026-06-20T11:11:38.000Z</time>
        <extensions>
          <ns3:TrackPointExtension>
            <ns3:atemp>22.0</ns3:atemp>
          </ns3:TrackPointExtension>
        </extensions>
      </trkpt>
      <trkpt lat="42.4939824454486370086669921875" lon="20.18066528253257274627685546875">
        <ele>1962.800048828125</ele>
        <time>2026-06-20T11:11:39.000Z</time>
        <extensions>
          <ns3:TrackPointExtension>
            <ns3:atemp>22.0</ns3:atemp>
          </ns3:TrackPointExtension>
        </extensions>
      </trkpt>
      <trkpt lat="42.49393827281892299652099609375" lon="20.18067483790218830108642578125">
        <ele>1962.5999755859375</ele>
        <time>2026-06-20T11:11:40.000Z</time>
        <extensions>
          <ns3:TrackPointExtension>
            <ns3:atemp>22.0</ns3:atemp>
          </ns3:TrackPointExtension>
        </extensions>
      </trkpt>
      <trkpt lat="42.49388135969638824462890625" lon="20.18070249818265438079833984375">
        <ele>1962.199951171875</ele>
        <time>2026-06-20T11:11:41.000Z</time>
        <extensions>
          <ns3:TrackPointExtension>
            <ns3:atemp>22.0</ns3:atemp>
          </ns3:TrackPointExtension>
        </extensions>
      </trkpt>
      <trkpt lat="42.49381891451776027679443359375" lon="20.1807349361479282379150390625">
        <ele>1961.5999755859375</ele>
        <time>2026-06-20T11:11:42.000Z</time>
        <extensions>
          <ns3:TrackPointExtension>
            <ns3:atemp>22.0</ns3:atemp>
          </ns3:TrackPointExtension>
        </extensions>
      </trkpt>
      <trkpt lat="42.4937521107494831085205078125" lon="20.1807718165218830108642578125">
        <ele>1961</ele>
        <time>2026-06-20T11:11:43.000Z</time>
        <extensions>
          <ns3:TrackPointExtension>
            <ns3:atemp>22.0</ns3:atemp>
          </ns3:TrackPointExtension>
        </extensions>
      </trkpt>
      <trkpt lat="42.49368530698120594024658203125" lon="20.180806852877140045166015625">
        <ele>1960</ele>
        <time>2026-06-20T11:11:44.000Z</time>
        <extensions>
          <ns3:TrackPointExtension>
            <ns3:atemp>22.0</ns3:atemp>
          </ns3:TrackPointExtension>
        </extensions>
      </trkpt>
      <trkpt lat="42.49361582100391387939453125" lon="20.180841051042079925537109375">
        <ele>1958.800048828125</ele>
        <time>2026-06-20T11:11:45.000Z</time>
        <extensions>
          <ns3:TrackPointExtension>
            <ns3:atemp>22.0</ns3:atemp>
          </ns3:TrackPointExtension>
        </extensions>
      </trkpt>
      <trkpt lat="42.4935469217598438262939453125" lon="20.180880613625049591064453125">
        <ele>1957.199951171875</ele>
        <time>2026-06-20T11:11:46.000Z</time>
        <extensions>
          <ns3:TrackPointExtension>
            <ns3:atemp>22.0</ns3:atemp>
          </ns3:TrackPointExtension>
        </extensions>
      </trkpt>
      <trkpt lat="42.49348296783864498138427734375" lon="20.180908776819705963134765625">
        <ele>1956</ele>
        <time>2026-06-20T11:11:47.000Z</time>
        <extensions>
          <ns3:TrackPointExtension>
            <ns3:atemp>22.0</ns3:atemp>
          </ns3:TrackPointExtension>
        </extensions>
      </trkpt>
      <trkpt lat="42.49342513270676136016845703125" lon="20.18092629499733448028564453125">
        <ele>1955</ele>
        <time>2026-06-20T11:11:48.000Z</time>
        <extensions>
          <ns3:TrackPointExtension>
            <ns3:atemp>22.0</ns3:atemp>
          </ns3:TrackPointExtension>
        </extensions>
      </trkpt>
      <trkpt lat="42.4933792836964130401611328125" lon="20.18092830665409564971923828125">
        <ele>1954.199951171875</ele>
        <time>2026-06-20T11:11:49.000Z</time>
        <extensions>
          <ns3:TrackPointExtension>
            <ns3:atemp>22.0</ns3:atemp>
          </ns3:TrackPointExtension>
        </extensions>
      </trkpt>
      <trkpt lat="42.49333209358155727386474609375" lon="20.1809277199208736419677734375">
        <ele>1953.4000244140625</ele>
        <time>2026-06-20T11:11:50.000Z</time>
        <extensions>
          <ns3:TrackPointExtension>
            <ns3:atemp>22.0</ns3:atemp>
          </ns3:TrackPointExtension>
        </extensions>
      </trkpt>
      <trkpt lat="42.49328599311411380767822265625" lon="20.180930234491825103759765625">
        <ele>1952.800048828125</ele>
        <time>2026-06-20T11:11:51.000Z</time>
        <extensions>
          <ns3:TrackPointExtension>
            <ns3:atemp>22.0</ns3:atemp>
          </ns3:TrackPointExtension>
        </extensions>
      </trkpt>
      <trkpt lat="42.49324626289308071136474609375" lon="20.1809257082641124725341796875">
        <ele>1952.5999755859375</ele>
        <time>2026-06-20T11:11:52.000Z</time>
        <extensions>
          <ns3:TrackPointExtension>
            <ns3:atemp>22.0</ns3:atemp>
          </ns3:TrackPointExtension>
        </extensions>
      </trkpt>
      <trkpt lat="42.49320737086236476898193359375" lon="20.1809233613312244415283203125">
        <ele>1952.199951171875</ele>
        <time>2026-06-20T11:11:53.000Z</time>
        <extensions>
          <ns3:TrackPointExtension>
            <ns3:atemp>22.0</ns3:atemp>
          </ns3:TrackPointExtension>
        </extensions>
      </trkpt>
      <trkpt lat="42.4931730888783931732177734375" lon="20.180920846760272979736328125">
        <ele>1951.5999755859375</ele>
        <time>2026-06-20T11:11:54.000Z</time>
        <extensions>
          <ns3:TrackPointExtension>
            <ns3:atemp>22.0</ns3:atemp>
          </ns3:TrackPointExtension>
        </extensions>
      </trkpt>
      <trkpt lat="42.49313830398023128509521484375" lon="20.1809186674654483795166015625">
        <ele>1950.800048828125</ele>
        <time>2026-06-20T11:11:55.000Z</time>
        <extensions>
          <ns3:TrackPointExtension>
            <ns3:atemp>22.0</ns3:atemp>
          </ns3:TrackPointExtension>
        </extensions>
      </trkpt>
      <trkpt lat="42.49310309998691082000732421875" lon="20.1809163205325603485107421875">
        <ele>1950.199951171875</ele>
        <time>2026-06-20T11:11:56.000Z</time>
        <extensions>
          <ns3:TrackPointExtension>
            <ns3:atemp>22.0</ns3:atemp>
          </ns3:TrackPointExtension>
        </extensions>
      </trkpt>
      <trkpt lat="42.493066303431987762451171875" lon="20.18091439269483089447021484375">
        <ele>1949.199951171875</ele>
        <time>2026-06-20T11:11:57.000Z</time>
        <extensions>
          <ns3:TrackPointExtension>
            <ns3:atemp>22.0</ns3:atemp>
          </ns3:TrackPointExtension>
        </extensions>
      </trkpt>
      <trkpt lat="42.4930305965244770050048828125" lon="20.18091422505676746368408203125">
        <ele>1948.4000244140625</ele>
        <time>2026-06-20T11:11:58.000Z</time>
        <extensions>
          <ns3:TrackPointExtension>
            <ns3:atemp>22.0</ns3:atemp>
          </ns3:TrackPointExtension>
        </extensions>
      </trkpt>
      <trkpt lat="42.4929880164563655853271484375" lon="20.1809169910848140716552734375">
        <ele>1947.5999755859375</ele>
        <time>2026-06-20T11:11:59.000Z</time>
        <extensions>
          <ns3:TrackPointExtension>
            <ns3:atemp>22.0</ns3:atemp>
          </ns3:TrackPointExtension>
        </extensions>
      </trkpt>
      <trkpt lat="42.492938898503780364990234375" lon="20.18092654645442962646484375">
        <ele>1946.4000244140625</ele>
        <time>2026-06-20T11:12:00.000Z</time>
        <extensions>
          <ns3:TrackPointExtension>
            <ns3:atemp>22.0</ns3:atemp>
          </ns3:TrackPointExtension>
        </extensions>
      </trkpt>
      <trkpt lat="42.49287846498191356658935546875" lon="20.180944986641407012939453125">
        <ele>1945.199951171875</ele>
        <time>2026-06-20T11:12:01.000Z</time>
        <extensions>
          <ns3:TrackPointExtension>
            <ns3:atemp>22.0</ns3:atemp>
          </ns3:TrackPointExtension>
        </extensions>
      </trkpt>
      <trkpt lat="42.49281157739460468292236328125" lon="20.180971808731555938720703125">
        <ele>1943.800048828125</ele>
        <time>2026-06-20T11:12:02.000Z</time>
        <extensions>
          <ns3:TrackPointExtension>
            <ns3:atemp>22.0</ns3:atemp>
          </ns3:TrackPointExtension>
        </extensions>
      </trkpt>
      <trkpt lat="42.49273714609444141387939453125" lon="20.18099485896527767181396484375">
        <ele>1942.4000244140625</ele>
        <time>2026-06-20T11:12:03.000Z</time>
        <extensions>
          <ns3:TrackPointExtension>
            <ns3:atemp>22.0</ns3:atemp>
          </ns3:TrackPointExtension>
        </extensions>
      </trkpt>
      <trkpt lat="42.4926638044416904449462890625" lon="20.1810189150273799896240234375">
        <ele>1941</ele>
        <time>2026-06-20T11:12:04.000Z</time>
        <extensions>
          <ns3:TrackPointExtension>
            <ns3:atemp>22.0</ns3:atemp>
          </ns3:TrackPointExtension>
        </extensions>
      </trkpt>
      <trkpt lat="42.4925937317311763763427734375" lon="20.181040875613689422607421875">
        <ele>1940</ele>
        <time>2026-06-20T11:12:05.000Z</time>
        <extensions>
          <ns3:TrackPointExtension>
            <ns3:atemp>22.0</ns3:atemp>
          </ns3:TrackPointExtension>
        </extensions>
      </trkpt>
      <trkpt lat="42.4925303645431995391845703125" lon="20.18106727860867977142333984375">
        <ele>1939</ele>
        <time>2026-06-20T11:12:06.000Z</time>
        <extensions>
          <ns3:TrackPointExtension>
            <ns3:atemp>22.0</ns3:atemp>
          </ns3:TrackPointExtension>
        </extensions>
      </trkpt>
      <trkpt lat="42.49246758408844470977783203125" lon="20.18109158612787723541259765625">
        <ele>1938.4000244140625</ele>
        <time>2026-06-20T11:12:07.000Z</time>
        <extensions>
          <ns3:TrackPointExtension>
            <ns3:atemp>22.0</ns3:atemp>
          </ns3:TrackPointExtension>
        </extensions>
      </trkpt>
      <trkpt lat="42.49240287579596042633056640625" lon="20.18111589364707469940185546875">
        <ele>1937.800048828125</ele>
        <time>2026-06-20T11:12:08.000Z</time>
        <extensions>
          <ns3:TrackPointExtension>
            <ns3:atemp>22.0</ns3:atemp>
          </ns3:TrackPointExtension>
        </extensions>
      </trkpt>
      <trkpt lat="42.49233464710414409637451171875" lon="20.18113173544406890869140625">
        <ele>1937</ele>
        <time>2026-06-20T11:12:09.000Z</time>
        <extensions>
          <ns3:TrackPointExtension>
            <ns3:atemp>22.0</ns3:atemp>
          </ns3:TrackPointExtension>
        </extensions>
      </trkpt>
      <trkpt lat="42.4922619760036468505859375" lon="20.18113751895725727081298828125">
        <ele>1936</ele>
        <time>2026-06-20T11:12:10.000Z</time>
        <extensions>
          <ns3:TrackPointExtension>
            <ns3:atemp>22.0</ns3:atemp>
          </ns3:TrackPointExtension>
        </extensions>
      </trkpt>
      <trkpt lat="42.4921890534460544586181640625" lon="20.18114112317562103271484375">
        <ele>1935</ele>
        <time>2026-06-20T11:12:11.000Z</time>
        <extensions>
          <ns3:TrackPointExtension>
            <ns3:atemp>22.0</ns3:atemp>
          </ns3:TrackPointExtension>
        </extensions>
      </trkpt>
      <trkpt lat="42.49211403541266918182373046875" lon="20.18114112317562103271484375">
        <ele>1934.199951171875</ele>
        <time>2026-06-20T11:12:12.000Z</time>
        <extensions>
          <ns3:TrackPointExtension>
            <ns3:atemp>22.0</ns3:atemp>
          </ns3:TrackPointExtension>
        </extensions>
      </trkpt>
      <trkpt lat="42.49203910119831562042236328125" lon="20.181139446794986724853515625">
        <ele>1933.5999755859375</ele>
        <time>2026-06-20T11:12:13.000Z</time>
        <extensions>
          <ns3:TrackPointExtension>
            <ns3:atemp>22.0</ns3:atemp>
          </ns3:TrackPointExtension>
        </extensions>
      </trkpt>
      <trkpt lat="42.49197338707745075225830078125" lon="20.18112234771251678466796875">
        <ele>1933</ele>
        <time>2026-06-20T11:12:14.000Z</time>
        <extensions>
          <ns3:TrackPointExtension>
            <ns3:atemp>22.0</ns3:atemp>
          </ns3:TrackPointExtension>
        </extensions>
      </trkpt>
      <trkpt lat="42.4919050745666027069091796875" lon="20.1811023987829685211181640625">
        <ele>1932.4000244140625</ele>
        <time>2026-06-20T11:12:15.000Z</time>
        <extensions>
          <ns3:TrackPointExtension>
            <ns3:atemp>22.0</ns3:atemp>
          </ns3:TrackPointExtension>
        </extensions>
      </trkpt>
      <trkpt lat="42.49183625914156436920166015625" lon="20.1810879819095134735107421875">
        <ele>1931.4000244140625</ele>
        <time>2026-06-20T11:12:16.000Z</time>
        <extensions>
          <ns3:TrackPointExtension>
            <ns3:atemp>22.0</ns3:atemp>
          </ns3:TrackPointExtension>
        </extensions>
      </trkpt>
      <trkpt lat="42.49177314341068267822265625" lon="20.18107675015926361083984375">
        <ele>1931</ele>
        <time>2026-06-20T11:12:17.000Z</time>
        <extensions>
          <ns3:TrackPointExtension>
            <ns3:atemp>22.0</ns3:atemp>
          </ns3:TrackPointExtension>
        </extensions>
      </trkpt>
      <trkpt lat="42.49171187169849872589111328125" lon="20.18107063136994838714599609375">
        <ele>1930.199951171875</ele>
        <time>2026-06-20T11:12:18.000Z</time>
        <extensions>
          <ns3:TrackPointExtension>
            <ns3:atemp>22.0</ns3:atemp>
          </ns3:TrackPointExtension>
        </extensions>
      </trkpt>
      <trkpt lat="42.49165370129048824310302734375" lon="20.1810604892671108245849609375">
        <ele>1929.4000244140625</ele>
        <time>2026-06-20T11:12:19.000Z</time>
        <extensions>
          <ns3:TrackPointExtension>
            <ns3:atemp>22.0</ns3:atemp>
          </ns3:TrackPointExtension>
        </extensions>
      </trkpt>
      <trkpt lat="42.4915967881679534912109375" lon="20.18105252645909786224365234375">
        <ele>1928.800048828125</ele>
        <time>2026-06-20T11:12:20.000Z</time>
        <extensions>
          <ns3:TrackPointExtension>
            <ns3:atemp>22.0</ns3:atemp>
          </ns3:TrackPointExtension>
        </extensions>
      </trkpt>
      <trkpt lat="42.49154289253056049346923828125" lon="20.18103878013789653778076171875">
        <ele>1927.800048828125</ele>
        <time>2026-06-20T11:12:21.000Z</time>
        <extensions>
          <ns3:TrackPointExtension>
            <ns3:atemp>22.0</ns3:atemp>
          </ns3:TrackPointExtension>
        </extensions>
      </trkpt>
      <trkpt lat="42.49148522503674030303955078125" lon="20.18101497553288936614990234375">
        <ele>1927.199951171875</ele>
        <time>2026-06-20T11:12:22.000Z</time>
        <extensions>
          <ns3:TrackPointExtension>
            <ns3:atemp>22.0</ns3:atemp>
          </ns3:TrackPointExtension>
        </extensions>
      </trkpt>
      <trkpt lat="42.49142638407647609710693359375" lon="20.1809930987656116485595703125">
        <ele>1926.800048828125</ele>
        <time>2026-06-20T11:12:23.000Z</time>
        <extensions>
          <ns3:TrackPointExtension>
            <ns3:atemp>22.0</ns3:atemp>
          </ns3:TrackPointExtension>
        </extensions>
      </trkpt>
      <trkpt lat="42.4913750030100345611572265625" lon="20.18095462583005428314208984375">
        <ele>1925.800048828125</ele>
        <time>2026-06-20T11:12:24.000Z</time>
        <extensions>
          <ns3:TrackPointExtension>
            <ns3:atemp>22.0</ns3:atemp>
          </ns3:TrackPointExtension>
        </extensions>
      </trkpt>
      <trkpt lat="42.49131775461137294769287109375" lon="20.180924870073795318603515625">
        <ele>1925</ele>
        <time>2026-06-20T11:12:25.000Z</time>
        <extensions>
          <ns3:TrackPointExtension>
            <ns3:atemp>22.0</ns3:atemp>
          </ns3:TrackPointExtension>
        </extensions>
      </trkpt>
      <trkpt lat="42.4912588298320770263671875" lon="20.18090181984007358551025390625">
        <ele>1924</ele>
        <time>2026-06-20T11:12:26.000Z</time>
        <extensions>
          <ns3:TrackPointExtension>
            <ns3:atemp>22.0</ns3:atemp>
          </ns3:TrackPointExtension>
        </extensions>
      </trkpt>
      <trkpt lat="42.49119973741471767425537109375" lon="20.18088405020534992218017578125">
        <ele>1923.199951171875</ele>
        <time>2026-06-20T11:12:27.000Z</time>
        <extensions>
          <ns3:TrackPointExtension>
            <ns3:atemp>22.0</ns3:atemp>
          </ns3:TrackPointExtension>
        </extensions>
      </trkpt>
      <trkpt lat="42.49113653786480426788330078125" lon="20.18086443655192852020263671875">
        <ele>1922.800048828125</ele>
        <time>2026-06-20T11:12:28.000Z</time>
        <extensions>
          <ns3:TrackPointExtension>
            <ns3:atemp>22.0</ns3:atemp>
          </ns3:TrackPointExtension>
        </extensions>
      </trkpt>
      <trkpt lat="42.49108138494193553924560546875" lon="20.18084633164107799530029296875">
        <ele>1922.199951171875</ele>
        <time>2026-06-20T11:12:29.000Z</time>
        <extensions>
          <ns3:TrackPointExtension>
            <ns3:atemp>22.0</ns3:atemp>
          </ns3:TrackPointExtension>
        </extensions>
      </trkpt>
      <trkpt lat="42.49103109352290630340576171875" lon="20.18082018010318279266357421875">
        <ele>1921.5999755859375</ele>
        <time>2026-06-20T11:12:30.000Z</time>
        <extensions>
          <ns3:TrackPointExtension>
            <ns3:atemp>22.0</ns3:atemp>
          </ns3:TrackPointExtension>
        </extensions>
      </trkpt>
      <trkpt lat="42.49097778461873531341552734375" lon="20.1807889156043529510498046875">
        <ele>1920.800048828125</ele>
        <time>2026-06-20T11:12:31.000Z</time>
        <extensions>
          <ns3:TrackPointExtension>
            <ns3:atemp>22.0</ns3:atemp>
          </ns3:TrackPointExtension>
        </extensions>
      </trkpt>
      <trkpt lat="42.4909235537052154541015625" lon="20.18075044266879558563232421875">
        <ele>1919.800048828125</ele>
        <time>2026-06-20T11:12:32.000Z</time>
        <extensions>
          <ns3:TrackPointExtension>
            <ns3:atemp>22.0</ns3:atemp>
          </ns3:TrackPointExtension>
        </extensions>
      </trkpt>
      <trkpt lat="42.49086387455463409423828125" lon="20.18071456812322139739990234375">
        <ele>1918.800048828125</ele>
        <time>2026-06-20T11:12:33.000Z</time>
        <extensions>
          <ns3:TrackPointExtension>
            <ns3:atemp>22.0</ns3:atemp>
          </ns3:TrackPointExtension>
        </extensions>
      </trkpt>
      <trkpt lat="42.49080545268952846527099609375" lon="20.1806871592998504638671875">
        <ele>1918</ele>
        <time>2026-06-20T11:12:34.000Z</time>
        <extensions>
          <ns3:TrackPointExtension>
            <ns3:atemp>22.0</ns3:atemp>
          </ns3:TrackPointExtension>
        </extensions>
      </trkpt>
      <trkpt lat="42.49075951986014842987060546875" lon="20.180674754083156585693359375">
        <ele>1917.199951171875</ele>
        <time>2026-06-20T11:12:35.000Z</time>
        <extensions>
          <ns3:TrackPointExtension>
            <ns3:atemp>22.0</ns3:atemp>
          </ns3:TrackPointExtension>
        </extensions>
      </trkpt>
      <trkpt lat="42.49072515405714511871337890625" lon="20.18065296113491058349609375">
        <ele>1916.5999755859375</ele>
        <time>2026-06-20T11:12:36.000Z</time>
        <extensions>
          <ns3:TrackPointExtension>
            <ns3:atemp>22.0</ns3:atemp>
          </ns3:TrackPointExtension>
        </extensions>
      </trkpt>
      <trkpt lat="42.4907017685472965240478515625" lon="20.18062924034893512725830078125">
        <ele>1915.800048828125</ele>
        <time>2026-06-20T11:12:37.000Z</time>
        <extensions>
          <ns3:TrackPointExtension>
            <ns3:atemp>22.0</ns3:atemp>
          </ns3:TrackPointExtension>
        </extensions>
      </trkpt>
      <trkpt lat="42.4906863458454608917236328125" lon="20.180589258670806884765625">
        <ele>1915.199951171875</ele>
        <time>2026-06-20T11:12:38.000Z</time>
        <extensions>
          <ns3:TrackPointExtension>
            <ns3:atemp>22.0</ns3:atemp>
          </ns3:TrackPointExtension>
        </extensions>
      </trkpt>
      <trkpt lat="42.49066715128719806671142578125" lon="20.18054156564176082611083984375">
        <ele>1914.5999755859375</ele>
        <time>2026-06-20T11:12:39.000Z</time>
        <extensions>
          <ns3:TrackPointExtension>
            <ns3:atemp>22.0</ns3:atemp>
          </ns3:TrackPointExtension>
        </extensions>
      </trkpt>
      <trkpt lat="42.49063454568386077880859375" lon="20.18048934638500213623046875">
        <ele>1913.800048828125</ele>
        <time>2026-06-20T11:12:40.000Z</time>
        <extensions>
          <ns3:TrackPointExtension>
            <ns3:atemp>22.0</ns3:atemp>
          </ns3:TrackPointExtension>
        </extensions>
      </trkpt>
      <trkpt lat="42.49059724621474742889404296875" lon="20.18043494783341884613037109375">
        <ele>1912.5999755859375</ele>
        <time>2026-06-20T11:12:41.000Z</time>
        <extensions>
          <ns3:TrackPointExtension>
            <ns3:atemp>22.0</ns3:atemp>
          </ns3:TrackPointExtension>
        </extensions>
      </trkpt>
      <trkpt lat="42.490553073585033416748046875" lon="20.1803761906921863555908203125">
        <ele>1911.199951171875</ele>
        <time>2026-06-20T11:12:42.000Z</time>
        <extensions>
          <ns3:TrackPointExtension>
            <ns3:atemp>22.0</ns3:atemp>
          </ns3:TrackPointExtension>
        </extensions>
      </trkpt>
      <trkpt lat="42.49050118960440158843994140625" lon="20.1803222112357616424560546875">
        <ele>1910</ele>
        <time>2026-06-20T11:12:43.000Z</time>
        <extensions>
          <ns3:TrackPointExtension>
            <ns3:atemp>22.0</ns3:atemp>
          </ns3:TrackPointExtension>
        </extensions>
      </trkpt>
      <trkpt lat="42.4904459528625011444091796875" lon="20.18027166835963726043701171875">
        <ele>1908.4000244140625</ele>
        <time>2026-06-20T11:12:44.000Z</time>
        <extensions>
          <ns3:TrackPointExtension>
            <ns3:atemp>22.0</ns3:atemp>
          </ns3:TrackPointExtension>
        </extensions>
      </trkpt>
      <trkpt lat="42.49039239250123500823974609375" lon="20.180220790207386016845703125">
        <ele>1907</ele>
        <time>2026-06-20T11:12:45.000Z</time>
        <extensions>
          <ns3:TrackPointExtension>
            <ns3:atemp>22.0</ns3:atemp>
          </ns3:TrackPointExtension>
        </extensions>
      </trkpt>
      <trkpt lat="42.4903441965579986572265625" lon="20.18017745576798915863037109375">
        <ele>1905.5999755859375</ele>
        <time>2026-06-20T11:12:46.000Z</time>
        <extensions>
          <ns3:TrackPointExtension>
            <ns3:atemp>22.0</ns3:atemp>
          </ns3:TrackPointExtension>
        </extensions>
      </trkpt>
      <trkpt lat="42.49030354432761669158935546875" lon="20.1801515556871891021728515625">
        <ele>1904</ele>
        <time>2026-06-20T11:12:47.000Z</time>
        <extensions>
          <ns3:TrackPointExtension>
            <ns3:atemp>22.0</ns3:atemp>
          </ns3:TrackPointExtension>
        </extensions>
      </trkpt>
      <trkpt lat="42.4902664124965667724609375" lon="20.180130936205387115478515625">
        <ele>1903.4000244140625</ele>
        <time>2026-06-20T11:12:48.000Z</time>
        <extensions>
          <ns3:TrackPointExtension>
            <ns3:atemp>22.0</ns3:atemp>
          </ns3:TrackPointExtension>
        </extensions>
      </trkpt>
      <trkpt lat="42.4902327172458171844482421875" lon="20.18010302446782588958740234375">
        <ele>1902.800048828125</ele>
        <time>2026-06-20T11:12:49.000Z</time>
        <extensions>
          <ns3:TrackPointExtension>
            <ns3:atemp>22.0</ns3:atemp>
          </ns3:TrackPointExtension>
        </extensions>
      </trkpt>
      <trkpt lat="42.49020011164247989654541015625" lon="20.18007150851190090179443359375">
        <ele>1902</ele>
        <time>2026-06-20T11:12:50.000Z</time>
        <extensions>
          <ns3:TrackPointExtension>
            <ns3:atemp>22.0</ns3:atemp>
          </ns3:TrackPointExtension>
        </extensions>
      </trkpt>
      <trkpt lat="42.49015686102211475372314453125" lon="20.18002373166382312774658203125">
        <ele>1901.199951171875</ele>
        <time>2026-06-20T11:12:51.000Z</time>
        <extensions>
          <ns3:TrackPointExtension>
            <ns3:atemp>22.0</ns3:atemp>
          </ns3:TrackPointExtension>
        </extensions>
      </trkpt>
      <trkpt lat="42.4901039712131023406982421875" lon="20.17997411079704761505126953125">
        <ele>1900</ele>
        <time>2026-06-20T11:12:52.000Z</time>
        <extensions>
          <ns3:TrackPointExtension>
            <ns3:atemp>22.0</ns3:atemp>
          </ns3:TrackPointExtension>
        </extensions>
      </trkpt>
      <trkpt lat="42.490054182708263397216796875" lon="20.179935805499553680419921875">
        <ele>1898.800048828125</ele>
        <time>2026-06-20T11:12:53.000Z</time>
        <extensions>
          <ns3:TrackPointExtension>
            <ns3:atemp>22.0</ns3:atemp>
          </ns3:TrackPointExtension>
        </extensions>
      </trkpt>
      <trkpt lat="42.49001302756369113922119140625" lon="20.179901607334613800048828125">
        <ele>1898</ele>
        <time>2026-06-20T11:12:54.000Z</time>
        <extensions>
          <ns3:TrackPointExtension>
            <ns3:atemp>22.0</ns3:atemp>
          </ns3:TrackPointExtension>
        </extensions>
      </trkpt>
      <trkpt lat="42.4899903126060962677001953125" lon="20.17986162565648555755615234375">
        <ele>1897.199951171875</ele>
        <time>2026-06-20T11:12:55.000Z</time>
        <extensions>
          <ns3:TrackPointExtension>
            <ns3:atemp>22.0</ns3:atemp>
          </ns3:TrackPointExtension>
        </extensions>
      </trkpt>
      <trkpt lat="42.489975392818450927734375" lon="20.17982239834964275360107421875">
        <ele>1897</ele>
        <time>2026-06-20T11:12:56.000Z</time>
        <extensions>
          <ns3:TrackPointExtension>
            <ns3:atemp>22.0</ns3:atemp>
          </ns3:TrackPointExtension>
        </extensions>
      </trkpt>
      <trkpt lat="42.48996776528656482696533203125" lon="20.17978937365114688873291015625">
        <ele>1896.5999755859375</ele>
        <time>2026-06-20T11:12:57.000Z</time>
        <extensions>
          <ns3:TrackPointExtension>
            <ns3:atemp>22.0</ns3:atemp>
          </ns3:TrackPointExtension>
        </extensions>
      </trkpt>
      <trkpt lat="42.48996105976402759552001953125" lon="20.17976640723645687103271484375">
        <ele>1896.4000244140625</ele>
        <time>2026-06-20T11:12:58.000Z</time>
        <extensions>
          <ns3:TrackPointExtension>
            <ns3:atemp>22.0</ns3:atemp>
          </ns3:TrackPointExtension>
        </extensions>
      </trkpt>
      <trkpt lat="42.4899525940418243408203125" lon="20.179756768047809600830078125">
        <ele>1896.4000244140625</ele>
        <time>2026-06-20T11:12:59.000Z</time>
        <extensions>
          <ns3:TrackPointExtension>
            <ns3:atemp>22.0</ns3:atemp>
          </ns3:TrackPointExtension>
        </extensions>
      </trkpt>
      <trkpt lat="42.48994111083447933197021484375" lon="20.17974796704947948455810546875">
        <ele>1896.199951171875</ele>
        <time>2026-06-20T11:13:00.000Z</time>
        <extensions>
          <ns3:TrackPointExtension>
            <ns3:atemp>22.0</ns3:atemp>
          </ns3:TrackPointExtension>
        </extensions>
      </trkpt>
      <trkpt lat="42.48992937617003917694091796875" lon="20.17973304726183414459228515625">
        <ele>1896.199951171875</ele>
        <time>2026-06-20T11:13:01.000Z</time>
        <extensions>
          <ns3:TrackPointExtension>
            <ns3:atemp>22.0</ns3:atemp>
          </ns3:TrackPointExtension>
        </extensions>
      </trkpt>
      <trkpt lat="42.489914707839488983154296875" lon="20.17971158958971500396728515625">
        <ele>1896.199951171875</ele>
        <time>2026-06-20T11:13:02.000Z</time>
        <extensions>
          <ns3:TrackPointExtension>
            <ns3:atemp>22.0</ns3:atemp>
          </ns3:TrackPointExtension>
        </extensions>
      </trkpt>
      <trkpt lat="42.48989517800509929656982421875" lon="20.1796969212591648101806640625">
        <ele>1896.199951171875</ele>
        <time>2026-06-20T11:13:03.000Z</time>
        <extensions>
          <ns3:TrackPointExtension>
            <ns3:atemp>22.0</ns3:atemp>
          </ns3:TrackPointExtension>
        </extensions>
      </trkpt>
      <trkpt lat="42.489878498017787933349609375" lon="20.1796771399676799774169921875">
        <ele>1896</ele>
        <time>2026-06-20T11:13:04.000Z</time>
        <extensions>
          <ns3:TrackPointExtension>
            <ns3:atemp>22.0</ns3:atemp>
          </ns3:TrackPointExtension>
        </extensions>
      </trkpt>
      <trkpt lat="42.48985678888857364654541015625" lon="20.17966515384614467620849609375">
        <ele>1896</ele>
        <time>2026-06-20T11:13:05.000Z</time>
        <extensions>
          <ns3:TrackPointExtension>
            <ns3:atemp>22.0</ns3:atemp>
          </ns3:TrackPointExtension>
        </extensions>
      </trkpt>
      <trkpt lat="42.48983315192162990570068359375" lon="20.17965643666684627532958984375">
        <ele>1895.800048828125</ele>
        <time>2026-06-20T11:13:06.000Z</time>
        <extensions>
          <ns3:TrackPointExtension>
            <ns3:atemp>22.0</ns3:atemp>
          </ns3:TrackPointExtension>
        </extensions>
      </trkpt>
      <trkpt lat="42.48981052078306674957275390625" lon="20.1796518266201019287109375">
        <ele>1895.5999755859375</ele>
        <time>2026-06-20T11:13:07.000Z</time>
        <extensions>
          <ns3:TrackPointExtension>
            <ns3:atemp>22.0</ns3:atemp>
          </ns3:TrackPointExtension>
        </extensions>
      </trkpt>
      <trkpt lat="42.48978939838707447052001953125" lon="20.179643444716930389404296875">
        <ele>1895.4000244140625</ele>
        <time>2026-06-20T11:13:08.000Z</time>
        <extensions>
          <ns3:TrackPointExtension>
            <ns3:atemp>22.0</ns3:atemp>
          </ns3:TrackPointExtension>
        </extensions>
      </trkpt>
      <trkpt lat="42.48976676724851131439208984375" lon="20.17963095568120479583740234375">
        <ele>1895.199951171875</ele>
        <time>2026-06-20T11:13:09.000Z</time>
        <extensions>
          <ns3:TrackPointExtension>
            <ns3:atemp>22.0</ns3:atemp>
          </ns3:TrackPointExtension>
        </extensions>
      </trkpt>
      <trkpt lat="42.48974279500544071197509765625" lon="20.179626680910587310791015625">
        <ele>1895</ele>
        <time>2026-06-20T11:13:10.000Z</time>
        <extensions>
          <ns3:TrackPointExtension>
            <ns3:atemp>22.0</ns3:atemp>
          </ns3:TrackPointExtension>
        </extensions>
      </trkpt>
      <trkpt lat="42.48972251079976558685302734375" lon="20.179632715880870819091796875">
        <ele>1895</ele>
        <time>2026-06-20T11:13:11.000Z</time>
        <extensions>
          <ns3:TrackPointExtension>
            <ns3:atemp>22.0</ns3:atemp>
          </ns3:TrackPointExtension>
        </extensions>
      </trkpt>
      <trkpt lat="42.48970574699342250823974609375" lon="20.179633386433124542236328125">
        <ele>1895</ele>
        <time>2026-06-20T11:13:12.000Z</time>
        <extensions>
          <ns3:TrackPointExtension>
            <ns3:atemp>22.0</ns3:atemp>
          </ns3:TrackPointExtension>
        </extensions>
      </trkpt>
      <trkpt lat="42.48969040811061859130859375" lon="20.17962290905416011810302734375">
        <ele>1895</ele>
        <time>2026-06-20T11:13:13.000Z</time>
        <extensions>
          <ns3:TrackPointExtension>
            <ns3:atemp>22.0</ns3:atemp>
          </ns3:TrackPointExtension>
        </extensions>
      </trkpt>
      <trkpt lat="42.4896741472184658050537109375" lon="20.17960983328521251678466796875">
        <ele>1895</ele>
        <time>2026-06-20T11:13:14.000Z</time>
        <extensions>
          <ns3:TrackPointExtension>
            <ns3:atemp>22.0</ns3:atemp>
          </ns3:TrackPointExtension>
        </extensions>
      </trkpt>
      <trkpt lat="42.48965981416404247283935546875" lon="20.17959214746952056884765625">
        <ele>1895</ele>
        <time>2026-06-20T11:13:15.000Z</time>
        <extensions>
          <ns3:TrackPointExtension>
            <ns3:atemp>22.0</ns3:atemp>
          </ns3:TrackPointExtension>
        </extensions>
      </trkpt>
      <trkpt lat="42.48964590020477771759033203125" lon="20.17957898788154125213623046875">
        <ele>1894.800048828125</ele>
        <time>2026-06-20T11:13:16.000Z</time>
        <extensions>
          <ns3:TrackPointExtension>
            <ns3:atemp>22.0</ns3:atemp>
          </ns3:TrackPointExtension>
        </extensions>
      </trkpt>
      <trkpt lat="42.48963818885385990142822265625" lon="20.1795708574354648590087890625">
        <ele>1894.800048828125</ele>
        <time>2026-06-20T11:13:17.000Z</time>
        <extensions>
          <ns3:TrackPointExtension>
            <ns3:atemp>22.0</ns3:atemp>
          </ns3:TrackPointExtension>
        </extensions>
      </trkpt>
      <trkpt lat="42.4896386079490184783935546875" lon="20.17956373281776905059814453125">
        <ele>1894.800048828125</ele>
        <time>2026-06-20T11:13:18.000Z</time>
        <extensions>
          <ns3:TrackPointExtension>
            <ns3:atemp>22.0</ns3:atemp>
          </ns3:TrackPointExtension>
        </extensions>
      </trkpt>
      <trkpt lat="42.48963533900678157806396484375" lon="20.17956289462745189666748046875">
        <ele>1894.5999755859375</ele>
        <time>2026-06-20T11:13:19.000Z</time>
        <extensions>
          <ns3:TrackPointExtension>
            <ns3:atemp>22.0</ns3:atemp>
          </ns3:TrackPointExtension>
        </extensions>
      </trkpt>
      <trkpt lat="42.48963533900678157806396484375" lon="20.179562978446483612060546875">
        <ele>1894.5999755859375</ele>
        <time>2026-06-20T11:13:20.000Z</time>
        <extensions>
          <ns3:TrackPointExtension>
            <ns3:atemp>22.0</ns3:atemp>
          </ns3:TrackPointExtension>
        </extensions>
      </trkpt>
      <trkpt lat="42.48963533900678157806396484375" lon="20.179562978446483612060546875">
        <ele>1894.5999755859375</ele>
        <time>2026-06-20T11:13:21.000Z</time>
        <extensions>
          <ns3:TrackPointExtension>
            <ns3:atemp>22.0</ns3:atemp>
          </ns3:TrackPointExtension>
        </extensions>
      </trkpt>
      <trkpt lat="42.48963533900678157806396484375" lon="20.179562978446483612060546875">
        <ele>1894.800048828125</ele>
        <time>2026-06-20T11:13:22.000Z</time>
        <extensions>
          <ns3:TrackPointExtension>
            <ns3:atemp>22.0</ns3:atemp>
          </ns3:TrackPointExtension>
        </extensions>
      </trkpt>
      <trkpt lat="42.48963533900678157806396484375" lon="20.179562978446483612060546875">
        <ele>1894.800048828125</ele>
        <time>2026-06-20T11:13:23.000Z</time>
        <extensions>
          <ns3:TrackPointExtension>
            <ns3:atemp>22.0</ns3:atemp>
          </ns3:TrackPointExtension>
        </extensions>
      </trkpt>
      <trkpt lat="42.48963533900678157806396484375" lon="20.179562978446483612060546875">
        <ele>1894.5999755859375</ele>
        <time>2026-06-20T11:13:24.000Z</time>
        <extensions>
          <ns3:TrackPointExtension>
            <ns3:atemp>22.0</ns3:atemp>
          </ns3:TrackPointExtension>
        </extensions>
      </trkpt>
      <trkpt lat="42.48963567428290843963623046875" lon="20.1795638166368007659912109375">
        <ele>1894.5999755859375</ele>
        <time>2026-06-20T11:13:25.000Z</time>
        <extensions>
          <ns3:TrackPointExtension>
            <ns3:atemp>22.0</ns3:atemp>
          </ns3:TrackPointExtension>
        </extensions>
      </trkpt>
      <trkpt lat="42.48963198624551296234130859375" lon="20.17955719493329524993896484375">
        <ele>1894.4000244140625</ele>
        <time>2026-06-20T11:13:26.000Z</time>
        <extensions>
          <ns3:TrackPointExtension>
            <ns3:atemp>22.0</ns3:atemp>
          </ns3:TrackPointExtension>
        </extensions>
      </trkpt>
      <trkpt lat="42.48962444253265857696533203125" lon="20.17954386770725250244140625">
        <ele>1894.4000244140625</ele>
        <time>2026-06-20T11:13:27.000Z</time>
        <extensions>
          <ns3:TrackPointExtension>
            <ns3:atemp>22.0</ns3:atemp>
          </ns3:TrackPointExtension>
        </extensions>
      </trkpt>
      <trkpt lat="42.48961656354367733001708984375" lon="20.179511345922946929931640625">
        <ele>1894.199951171875</ele>
        <time>2026-06-20T11:13:28.000Z</time>
        <extensions>
          <ns3:TrackPointExtension>
            <ns3:atemp>22.0</ns3:atemp>
          </ns3:TrackPointExtension>
        </extensions>
      </trkpt>
      <trkpt lat="42.48961086384952068328857421875" lon="20.1794843561947345733642578125">
        <ele>1894.199951171875</ele>
        <time>2026-06-20T11:13:29.000Z</time>
        <extensions>
          <ns3:TrackPointExtension>
            <ns3:atemp>22.0</ns3:atemp>
          </ns3:TrackPointExtension>
        </extensions>
      </trkpt>
      <trkpt lat="42.48960197903215885162353515625" lon="20.1794645749032497406005859375">
        <ele>1894</ele>
        <time>2026-06-20T11:13:30.000Z</time>
        <extensions>
          <ns3:TrackPointExtension>
            <ns3:atemp>22.0</ns3:atemp>
          </ns3:TrackPointExtension>
        </extensions>
      </trkpt>
      <trkpt lat="42.4895940162241458892822265625" lon="20.17943599261343479156494140625">
        <ele>1894</ele>
        <time>2026-06-20T11:13:31.000Z</time>
        <extensions>
          <ns3:TrackPointExtension>
            <ns3:atemp>22.0</ns3:atemp>
          </ns3:TrackPointExtension>
        </extensions>
      </trkpt>
      <trkpt lat="42.48958110809326171875" lon="20.17940447665750980377197265625">
        <ele>1893.800048828125</ele>
        <time>2026-06-20T11:13:32.000Z</time>
        <extensions>
          <ns3:TrackPointExtension>
            <ns3:atemp>22.0</ns3:atemp>
          </ns3:TrackPointExtension>
        </extensions>
      </trkpt>
      <trkpt lat="42.48956493102014064788818359375" lon="20.17937530763447284698486328125">
        <ele>1893.800048828125</ele>
        <time>2026-06-20T11:13:33.000Z</time>
        <extensions>
          <ns3:TrackPointExtension>
            <ns3:atemp>22.0</ns3:atemp>
          </ns3:TrackPointExtension>
        </extensions>
      </trkpt>
      <trkpt lat="42.48954867012798786163330078125" lon="20.17934060655534267425537109375">
        <ele>1893.5999755859375</ele>
        <time>2026-06-20T11:13:34.000Z</time>
        <extensions>
          <ns3:TrackPointExtension>
            <ns3:atemp>22.0</ns3:atemp>
          </ns3:TrackPointExtension>
        </extensions>
      </trkpt>
      <trkpt lat="42.4895269609987735748291015625" lon="20.17930171452462673187255859375">
        <ele>1893.4000244140625</ele>
        <time>2026-06-20T11:13:35.000Z</time>
        <extensions>
          <ns3:TrackPointExtension>
            <ns3:atemp>22.0</ns3:atemp>
          </ns3:TrackPointExtension>
        </extensions>
      </trkpt>
      <trkpt lat="42.48950810171663761138916015625" lon="20.17927036620676517486572265625">
        <ele>1893.199951171875</ele>
        <time>2026-06-20T11:13:36.000Z</time>
        <extensions>
          <ns3:TrackPointExtension>
            <ns3:atemp>22.0</ns3:atemp>
          </ns3:TrackPointExtension>
        </extensions>
      </trkpt>
      <trkpt lat="42.48949058353900909423828125" lon="20.17923935316503047943115234375">
        <ele>1893</ele>
        <time>2026-06-20T11:13:37.000Z</time>
        <extensions>
          <ns3:TrackPointExtension>
            <ns3:atemp>22.0</ns3:atemp>
          </ns3:TrackPointExtension>
        </extensions>
      </trkpt>
      <trkpt lat="42.4894733168184757232666015625" lon="20.1792117767035961151123046875">
        <ele>1893</ele>
        <time>2026-06-20T11:13:38.000Z</time>
        <extensions>
          <ns3:TrackPointExtension>
            <ns3:atemp>22.0</ns3:atemp>
          </ns3:TrackPointExtension>
        </extensions>
      </trkpt>
      <trkpt lat="42.489451356232166290283203125" lon="20.17917833290994167327880859375">
        <ele>1892.800048828125</ele>
        <time>2026-06-20T11:13:39.000Z</time>
        <extensions>
          <ns3:TrackPointExtension>
            <ns3:atemp>22.0</ns3:atemp>
          </ns3:TrackPointExtension>
        </extensions>
      </trkpt>
      <trkpt lat="42.48943082056939601898193359375" lon="20.17914346419274806976318359375">
        <ele>1892.5999755859375</ele>
        <time>2026-06-20T11:13:40.000Z</time>
        <extensions>
          <ns3:TrackPointExtension>
            <ns3:atemp>22.0</ns3:atemp>
          </ns3:TrackPointExtension>
        </extensions>
      </trkpt>
      <trkpt lat="42.48939947225153446197509765625" lon="20.1791098527610301971435546875">
        <ele>1892.4000244140625</ele>
        <time>2026-06-20T11:13:41.000Z</time>
        <extensions>
          <ns3:TrackPointExtension>
            <ns3:atemp>22.0</ns3:atemp>
          </ns3:TrackPointExtension>
        </extensions>
      </trkpt>
      <trkpt lat="42.48936762101948261260986328125" lon="20.17909518443048000335693359375">
        <ele>1892.199951171875</ele>
        <time>2026-06-20T11:13:42.000Z</time>
        <extensions>
          <ns3:TrackPointExtension>
            <ns3:atemp>22.0</ns3:atemp>
          </ns3:TrackPointExtension>
        </extensions>
      </trkpt>
      <trkpt lat="42.4893385358154773712158203125" lon="20.17908562906086444854736328125">
        <ele>1892.199951171875</ele>
        <time>2026-06-20T11:13:43.000Z</time>
        <extensions>
          <ns3:TrackPointExtension>
            <ns3:atemp>22.0</ns3:atemp>
          </ns3:TrackPointExtension>
        </extensions>
      </trkpt>
      <trkpt lat="42.48931028880178928375244140625" lon="20.17907355912029743194580078125">
        <ele>1892</ele>
        <time>2026-06-20T11:13:44.000Z</time>
        <extensions>
          <ns3:TrackPointExtension>
            <ns3:atemp>22.0</ns3:atemp>
          </ns3:TrackPointExtension>
        </extensions>
      </trkpt>
      <trkpt lat="42.48928564600646495819091796875" lon="20.179057382047176361083984375">
        <ele>1892</ele>
        <time>2026-06-20T11:13:45.000Z</time>
        <extensions>
          <ns3:TrackPointExtension>
            <ns3:atemp>22.0</ns3:atemp>
          </ns3:TrackPointExtension>
        </extensions>
      </trkpt>
      <trkpt lat="42.48926636762917041778564453125" lon="20.17903148196637630462646484375">
        <ele>1892</ele>
        <time>2026-06-20T11:13:46.000Z</time>
        <extensions>
          <ns3:TrackPointExtension>
            <ns3:atemp>22.0</ns3:atemp>
          </ns3:TrackPointExtension>
        </extensions>
      </trkpt>
      <trkpt lat="42.48924742452800273895263671875" lon="20.17900080420076847076416015625">
        <ele>1891.800048828125</ele>
        <time>2026-06-20T11:13:47.000Z</time>
        <extensions>
          <ns3:TrackPointExtension>
            <ns3:atemp>22.0</ns3:atemp>
          </ns3:TrackPointExtension>
        </extensions>
      </trkpt>
      <trkpt lat="42.4892272241413593292236328125" lon="20.1789666898548603057861328125">
        <ele>1891.5999755859375</ele>
        <time>2026-06-20T11:13:48.000Z</time>
        <extensions>
          <ns3:TrackPointExtension>
            <ns3:atemp>22.0</ns3:atemp>
          </ns3:TrackPointExtension>
        </extensions>
      </trkpt>
      <trkpt lat="42.48921372927725315093994140625" lon="20.17893224023282527923583984375">
        <ele>1891.5999755859375</ele>
        <time>2026-06-20T11:13:49.000Z</time>
        <extensions>
          <ns3:TrackPointExtension>
            <ns3:atemp>22.0</ns3:atemp>
          </ns3:TrackPointExtension>
        </extensions>
      </trkpt>
      <trkpt lat="42.489202916622161865234375" lon="20.17889519222080707550048828125">
        <ele>1891.4000244140625</ele>
        <time>2026-06-20T11:13:50.000Z</time>
        <extensions>
          <ns3:TrackPointExtension>
            <ns3:atemp>22.0</ns3:atemp>
          </ns3:TrackPointExtension>
        </extensions>
      </trkpt>
      <trkpt lat="42.48918724246323108673095703125" lon="20.1788597367703914642333984375">
        <ele>1891.199951171875</ele>
        <time>2026-06-20T11:13:51.000Z</time>
        <extensions>
          <ns3:TrackPointExtension>
            <ns3:atemp>22.0</ns3:atemp>
          </ns3:TrackPointExtension>
        </extensions>
      </trkpt>
      <trkpt lat="42.48916603624820709228515625" lon="20.17883417196571826934814453125">
        <ele>1891.199951171875</ele>
        <time>2026-06-20T11:13:52.000Z</time>
        <extensions>
          <ns3:TrackPointExtension>
            <ns3:atemp>22.0</ns3:atemp>
          </ns3:TrackPointExtension>
        </extensions>
      </trkpt>
      <trkpt lat="42.4891474284231662750244140625" lon="20.17881724052131175994873046875">
        <ele>1891.199951171875</ele>
        <time>2026-06-20T11:13:53.000Z</time>
        <extensions>
          <ns3:TrackPointExtension>
            <ns3:atemp>22.0</ns3:atemp>
          </ns3:TrackPointExtension>
        </extensions>
      </trkpt>
      <trkpt lat="42.4891514517366886138916015625" lon="20.1788138039410114288330078125">
        <ele>1891.199951171875</ele>
        <time>2026-06-20T11:13:54.000Z</time>
        <extensions>
          <ns3:TrackPointExtension>
            <ns3:atemp>22.0</ns3:atemp>
          </ns3:TrackPointExtension>
        </extensions>
      </trkpt>
      <trkpt lat="42.4891514517366886138916015625" lon="20.1788138039410114288330078125">
        <ele>1891.4000244140625</ele>
        <time>2026-06-20T11:13:55.000Z</time>
        <extensions>
          <ns3:TrackPointExtension>
            <ns3:atemp>22.0</ns3:atemp>
          </ns3:TrackPointExtension>
        </extensions>
      </trkpt>
      <trkpt lat="42.4891514517366886138916015625" lon="20.1788138039410114288330078125">
        <ele>1891.4000244140625</ele>
        <time>2026-06-20T11:13:56.000Z</time>
        <extensions>
          <ns3:TrackPointExtension>
            <ns3:atemp>22.0</ns3:atemp>
          </ns3:TrackPointExtension>
        </extensions>
      </trkpt>
      <trkpt lat="42.4891514517366886138916015625" lon="20.1788138039410114288330078125">
        <ele>1891.5999755859375</ele>
        <time>2026-06-20T11:13:57.000Z</time>
        <extensions>
          <ns3:TrackPointExtension>
            <ns3:atemp>22.0</ns3:atemp>
          </ns3:TrackPointExtension>
        </extensions>
      </trkpt>
      <trkpt lat="42.4891514517366886138916015625" lon="20.1788138039410114288330078125">
        <ele>1891.5999755859375</ele>
        <time>2026-06-20T11:13:58.000Z</time>
        <extensions>
          <ns3:TrackPointExtension>
            <ns3:atemp>22.0</ns3:atemp>
          </ns3:TrackPointExtension>
        </extensions>
      </trkpt>
      <trkpt lat="42.4891514517366886138916015625" lon="20.1788138039410114288330078125">
        <ele>1891.5999755859375</ele>
        <time>2026-06-20T11:13:59.000Z</time>
        <extensions>
          <ns3:TrackPointExtension>
            <ns3:atemp>22.0</ns3:atemp>
          </ns3:TrackPointExtension>
        </extensions>
      </trkpt>
      <trkpt lat="42.4891514517366886138916015625" lon="20.1788138039410114288330078125">
        <ele>1891.4000244140625</ele>
        <time>2026-06-20T11:14:00.000Z</time>
        <extensions>
          <ns3:TrackPointExtension>
            <ns3:atemp>22.0</ns3:atemp>
          </ns3:TrackPointExtension>
        </extensions>
      </trkpt>
      <trkpt lat="42.4891514517366886138916015625" lon="20.1788138039410114288330078125">
        <ele>1891.4000244140625</ele>
        <time>2026-06-20T11:14:01.000Z</time>
        <extensions>
          <ns3:TrackPointExtension>
            <ns3:atemp>22.0</ns3:atemp>
          </ns3:TrackPointExtension>
        </extensions>
      </trkpt>
      <trkpt lat="42.4891514517366886138916015625" lon="20.1788138039410114288330078125">
        <ele>1891.199951171875</ele>
        <time>2026-06-20T11:14:02.000Z</time>
        <extensions>
          <ns3:TrackPointExtension>
            <ns3:atemp>22.0</ns3:atemp>
          </ns3:TrackPointExtension>
        </extensions>
      </trkpt>
      <trkpt lat="42.4891514517366886138916015625" lon="20.1788138039410114288330078125">
        <ele>1891.199951171875</ele>
        <time>2026-06-20T11:14:03.000Z</time>
        <extensions>
          <ns3:TrackPointExtension>
            <ns3:atemp>22.0</ns3:atemp>
          </ns3:TrackPointExtension>
        </extensions>
      </trkpt>
      <trkpt lat="42.4891514517366886138916015625" lon="20.1788138039410114288330078125">
        <ele>1891.199951171875</ele>
        <time>2026-06-20T11:14:04.000Z</time>
        <extensions>
          <ns3:TrackPointExtension>
            <ns3:atemp>22.0</ns3:atemp>
          </ns3:TrackPointExtension>
        </extensions>
      </trkpt>
      <trkpt lat="42.4891514517366886138916015625" lon="20.1788138039410114288330078125">
        <ele>1891</ele>
        <time>2026-06-20T11:14:05.000Z</time>
        <extensions>
          <ns3:TrackPointExtension>
            <ns3:atemp>22.0</ns3:atemp>
          </ns3:TrackPointExtension>
        </extensions>
      </trkpt>
      <trkpt lat="42.4891514517366886138916015625" lon="20.1788138039410114288330078125">
        <ele>1891</ele>
        <time>2026-06-20T11:14:06.000Z</time>
        <extensions>
          <ns3:TrackPointExtension>
            <ns3:atemp>22.0</ns3:atemp>
          </ns3:TrackPointExtension>
        </extensions>
      </trkpt>
      <trkpt lat="42.4891514517366886138916015625" lon="20.1788138039410114288330078125">
        <ele>1891</ele>
        <time>2026-06-20T11:14:07.000Z</time>
        <extensions>
          <ns3:TrackPointExtension>
            <ns3:atemp>22.0</ns3:atemp>
          </ns3:TrackPointExtension>
        </extensions>
      </trkpt>
      <trkpt lat="42.4891514517366886138916015625" lon="20.1788138039410114288330078125">
        <ele>1890.800048828125</ele>
        <time>2026-06-20T11:14:08.000Z</time>
        <extensions>
          <ns3:TrackPointExtension>
            <ns3:atemp>22.0</ns3:atemp>
          </ns3:TrackPointExtension>
        </extensions>
      </trkpt>
      <trkpt lat="42.4891514517366886138916015625" lon="20.1788138039410114288330078125">
        <ele>1890.800048828125</ele>
        <time>2026-06-20T11:14:09.000Z</time>
        <extensions>
          <ns3:TrackPointExtension>
            <ns3:atemp>22.0</ns3:atemp>
          </ns3:TrackPointExtension>
        </extensions>
      </trkpt>
      <trkpt lat="42.4891514517366886138916015625" lon="20.1788138039410114288330078125">
        <ele>1890.800048828125</ele>
        <time>2026-06-20T11:14:10.000Z</time>
        <extensions>
          <ns3:TrackPointExtension>
            <ns3:atemp>22.0</ns3:atemp>
          </ns3:TrackPointExtension>
        </extensions>
      </trkpt>
      <trkpt lat="42.4891514517366886138916015625" lon="20.1788138039410114288330078125">
        <ele>1890.5999755859375</ele>
        <time>2026-06-20T11:14:11.000Z</time>
        <extensions>
          <ns3:TrackPointExtension>
            <ns3:atemp>22.0</ns3:atemp>
          </ns3:TrackPointExtension>
        </extensions>
      </trkpt>
      <trkpt lat="42.4891514517366886138916015625" lon="20.1788138039410114288330078125">
        <ele>1890.800048828125</ele>
        <time>2026-06-20T11:14:12.000Z</time>
        <extensions>
          <ns3:TrackPointExtension>
            <ns3:atemp>22.0</ns3:atemp>
          </ns3:TrackPointExtension>
        </extensions>
      </trkpt>
      <trkpt lat="42.4891514517366886138916015625" lon="20.1788138039410114288330078125">
        <ele>1890.800048828125</ele>
        <time>2026-06-20T11:14:13.000Z</time>
        <extensions>
          <ns3:TrackPointExtension>
            <ns3:atemp>22.0</ns3:atemp>
          </ns3:TrackPointExtension>
        </extensions>
      </trkpt>
      <trkpt lat="42.4891514517366886138916015625" lon="20.1788138039410114288330078125">
        <ele>1890.800048828125</ele>
        <time>2026-06-20T11:14:14.000Z</time>
        <extensions>
          <ns3:TrackPointExtension>
            <ns3:atemp>22.0</ns3:atemp>
          </ns3:TrackPointExtension>
        </extensions>
      </trkpt>
      <trkpt lat="42.4891514517366886138916015625" lon="20.1788138039410114288330078125">
        <ele>1890.800048828125</ele>
        <time>2026-06-20T11:14:15.000Z</time>
        <extensions>
          <ns3:TrackPointExtension>
            <ns3:atemp>22.0</ns3:atemp>
          </ns3:TrackPointExtension>
        </extensions>
      </trkpt>
      <trkpt lat="42.4891514517366886138916015625" lon="20.1788138039410114288330078125">
        <ele>1890.800048828125</ele>
        <time>2026-06-20T11:14:16.000Z</time>
        <extensions>
          <ns3:TrackPointExtension>
            <ns3:atemp>22.0</ns3:atemp>
          </ns3:TrackPointExtension>
        </extensions>
      </trkpt>
      <trkpt lat="42.4891514517366886138916015625" lon="20.1788138039410114288330078125">
        <ele>1890.800048828125</ele>
        <time>2026-06-20T11:14:17.000Z</time>
        <extensions>
          <ns3:TrackPointExtension>
            <ns3:atemp>22.0</ns3:atemp>
          </ns3:TrackPointExtension>
        </extensions>
      </trkpt>
      <trkpt lat="42.4891514517366886138916015625" lon="20.1788138039410114288330078125">
        <ele>1890.800048828125</ele>
        <time>2026-06-20T11:14:18.000Z</time>
        <extensions>
          <ns3:TrackPointExtension>
            <ns3:atemp>22.0</ns3:atemp>
          </ns3:TrackPointExtension>
        </extensions>
      </trkpt>
      <trkpt lat="42.4891514517366886138916015625" lon="20.1788138039410114288330078125">
        <ele>1890.800048828125</ele>
        <time>2026-06-20T11:14:19.000Z</time>
        <extensions>
          <ns3:TrackPointExtension>
            <ns3:atemp>22.0</ns3:atemp>
          </ns3:TrackPointExtension>
        </extensions>
      </trkpt>
      <trkpt lat="42.4891514517366886138916015625" lon="20.1788138039410114288330078125">
        <ele>1890.800048828125</ele>
        <time>2026-06-20T11:14:20.000Z</time>
        <extensions>
          <ns3:TrackPointExtension>
            <ns3:atemp>22.0</ns3:atemp>
          </ns3:TrackPointExtension>
        </extensions>
      </trkpt>
      <trkpt lat="42.4891514517366886138916015625" lon="20.1788138039410114288330078125">
        <ele>1890.800048828125</ele>
        <time>2026-06-20T11:14:21.000Z</time>
        <extensions>
          <ns3:TrackPointExtension>
            <ns3:atemp>22.0</ns3:atemp>
          </ns3:TrackPointExtension>
        </extensions>
      </trkpt>
      <trkpt lat="42.4891514517366886138916015625" lon="20.1788138039410114288330078125">
        <ele>1890.800048828125</ele>
        <time>2026-06-20T11:14:22.000Z</time>
        <extensions>
          <ns3:TrackPointExtension>
            <ns3:atemp>22.0</ns3:atemp>
          </ns3:TrackPointExtension>
        </extensions>
      </trkpt>
      <trkpt lat="42.4891514517366886138916015625" lon="20.1788138039410114288330078125">
        <ele>1890.800048828125</ele>
        <time>2026-06-20T11:14:23.000Z</time>
        <extensions>
          <ns3:TrackPointExtension>
            <ns3:atemp>22.0</ns3:atemp>
          </ns3:TrackPointExtension>
        </extensions>
      </trkpt>
      <trkpt lat="42.4891514517366886138916015625" lon="20.1788138039410114288330078125">
        <ele>1890.800048828125</ele>
        <time>2026-06-20T11:14:24.000Z</time>
        <extensions>
          <ns3:TrackPointExtension>
            <ns3:atemp>22.0</ns3:atemp>
          </ns3:TrackPointExtension>
        </extensions>
      </trkpt>
      <trkpt lat="42.4891514517366886138916015625" lon="20.1788138039410114288330078125">
        <ele>1890.800048828125</ele>
        <time>2026-06-20T11:14:25.000Z</time>
        <extensions>
          <ns3:TrackPointExtension>
            <ns3:atemp>22.0</ns3:atemp>
          </ns3:TrackPointExtension>
        </extensions>
      </trkpt>
      <trkpt lat="42.4891514517366886138916015625" lon="20.1788138039410114288330078125">
        <ele>1890.5999755859375</ele>
        <time>2026-06-20T11:14:26.000Z</time>
        <extensions>
          <ns3:TrackPointExtension>
            <ns3:atemp>22.0</ns3:atemp>
          </ns3:TrackPointExtension>
        </extensions>
      </trkpt>
      <trkpt lat="42.4891514517366886138916015625" lon="20.1788138039410114288330078125">
        <ele>1890.5999755859375</ele>
        <time>2026-06-20T11:14:27.000Z</time>
        <extensions>
          <ns3:TrackPointExtension>
            <ns3:atemp>22.0</ns3:atemp>
          </ns3:TrackPointExtension>
        </extensions>
      </trkpt>
      <trkpt lat="42.4891514517366886138916015625" lon="20.1788138039410114288330078125">
        <ele>1890.5999755859375</ele>
        <time>2026-06-20T11:14:28.000Z</time>
        <extensions>
          <ns3:TrackPointExtension>
            <ns3:atemp>22.0</ns3:atemp>
          </ns3:TrackPointExtension>
        </extensions>
      </trkpt>
      <trkpt lat="42.4891514517366886138916015625" lon="20.1788138039410114288330078125">
        <ele>1890.4000244140625</ele>
        <time>2026-06-20T11:14:29.000Z</time>
        <extensions>
          <ns3:TrackPointExtension>
            <ns3:atemp>22.0</ns3:atemp>
          </ns3:TrackPointExtension>
        </extensions>
      </trkpt>
      <trkpt lat="42.4891514517366886138916015625" lon="20.1788138039410114288330078125">
        <ele>1890.4000244140625</ele>
        <time>2026-06-20T11:14:30.000Z</time>
        <extensions>
          <ns3:TrackPointExtension>
            <ns3:atemp>22.0</ns3:atemp>
          </ns3:TrackPointExtension>
        </extensions>
      </trkpt>
      <trkpt lat="42.4891514517366886138916015625" lon="20.1788138039410114288330078125">
        <ele>1890.4000244140625</ele>
        <time>2026-06-20T11:14:31.000Z</time>
        <extensions>
          <ns3:TrackPointExtension>
            <ns3:atemp>22.0</ns3:atemp>
          </ns3:TrackPointExtension>
        </extensions>
      </trkpt>
      <trkpt lat="42.4891514517366886138916015625" lon="20.1788138039410114288330078125">
        <ele>1890.4000244140625</ele>
        <time>2026-06-20T11:14:32.000Z</time>
        <extensions>
          <ns3:TrackPointExtension>
            <ns3:atemp>22.0</ns3:atemp>
          </ns3:TrackPointExtension>
        </extensions>
      </trkpt>
      <trkpt lat="42.4891514517366886138916015625" lon="20.1788138039410114288330078125">
        <ele>1890.4000244140625</ele>
        <time>2026-06-20T11:14:33.000Z</time>
        <extensions>
          <ns3:TrackPointExtension>
            <ns3:atemp>22.0</ns3:atemp>
          </ns3:TrackPointExtension>
        </extensions>
      </trkpt>
      <trkpt lat="42.4891514517366886138916015625" lon="20.1788138039410114288330078125">
        <ele>1890.5999755859375</ele>
        <time>2026-06-20T11:14:34.000Z</time>
        <extensions>
          <ns3:TrackPointExtension>
            <ns3:atemp>22.0</ns3:atemp>
          </ns3:TrackPointExtension>
        </extensions>
      </trkpt>
      <trkpt lat="42.4891514517366886138916015625" lon="20.1788138039410114288330078125">
        <ele>1890.5999755859375</ele>
        <time>2026-06-20T11:14:35.000Z</time>
        <extensions>
          <ns3:TrackPointExtension>
            <ns3:atemp>22.0</ns3:atemp>
          </ns3:TrackPointExtension>
        </extensions>
      </trkpt>
      <trkpt lat="42.4891514517366886138916015625" lon="20.1788138039410114288330078125">
        <ele>1890.5999755859375</ele>
        <time>2026-06-20T11:14:36.000Z</time>
        <extensions>
          <ns3:TrackPointExtension>
            <ns3:atemp>22.0</ns3:atemp>
          </ns3:TrackPointExtension>
        </extensions>
      </trkpt>
      <trkpt lat="42.4891514517366886138916015625" lon="20.1788138039410114288330078125">
        <ele>1890.5999755859375</ele>
        <time>2026-06-20T11:14:37.000Z</time>
        <extensions>
          <ns3:TrackPointExtension>
            <ns3:atemp>22.0</ns3:atemp>
          </ns3:TrackPointExtension>
        </extensions>
      </trkpt>
      <trkpt lat="42.4891514517366886138916015625" lon="20.1788138039410114288330078125">
        <ele>1890.5999755859375</ele>
        <time>2026-06-20T11:14:38.000Z</time>
        <extensions>
          <ns3:TrackPointExtension>
            <ns3:atemp>22.0</ns3:atemp>
          </ns3:TrackPointExtension>
        </extensions>
      </trkpt>
      <trkpt lat="42.4891514517366886138916015625" lon="20.1788138039410114288330078125">
        <ele>1890.5999755859375</ele>
        <time>2026-06-20T11:14:39.000Z</time>
        <extensions>
          <ns3:TrackPointExtension>
            <ns3:atemp>22.0</ns3:atemp>
          </ns3:TrackPointExtension>
        </extensions>
      </trkpt>
      <trkpt lat="42.4891514517366886138916015625" lon="20.1788138039410114288330078125">
        <ele>1890.5999755859375</ele>
        <time>2026-06-20T11:14:40.000Z</time>
        <extensions>
          <ns3:TrackPointExtension>
            <ns3:atemp>22.0</ns3:atemp>
          </ns3:TrackPointExtension>
        </extensions>
      </trkpt>
      <trkpt lat="42.4891514517366886138916015625" lon="20.1788138039410114288330078125">
        <ele>1890.5999755859375</ele>
        <time>2026-06-20T11:14:41.000Z</time>
        <extensions>
          <ns3:TrackPointExtension>
            <ns3:atemp>22.0</ns3:atemp>
          </ns3:TrackPointExtension>
        </extensions>
      </trkpt>
      <trkpt lat="42.4891514517366886138916015625" lon="20.1788138039410114288330078125">
        <ele>1890.5999755859375</ele>
        <time>2026-06-20T11:14:42.000Z</time>
        <extensions>
          <ns3:TrackPointExtension>
            <ns3:atemp>22.0</ns3:atemp>
          </ns3:TrackPointExtension>
        </extensions>
      </trkpt>
      <trkpt lat="42.4891514517366886138916015625" lon="20.1788138039410114288330078125">
        <ele>1890.5999755859375</ele>
        <time>2026-06-20T11:14:43.000Z</time>
        <extensions>
          <ns3:TrackPointExtension>
            <ns3:atemp>22.0</ns3:atemp>
          </ns3:TrackPointExtension>
        </extensions>
      </trkpt>
      <trkpt lat="42.4891514517366886138916015625" lon="20.1788138039410114288330078125">
        <ele>1890.5999755859375</ele>
        <time>2026-06-20T11:14:44.000Z</time>
        <extensions>
          <ns3:TrackPointExtension>
            <ns3:atemp>22.0</ns3:atemp>
          </ns3:TrackPointExtension>
        </extensions>
      </trkpt>
      <trkpt lat="42.4891514517366886138916015625" lon="20.1788138039410114288330078125">
        <ele>1890.5999755859375</ele>
        <time>2026-06-20T11:14:45.000Z</time>
        <extensions>
          <ns3:TrackPointExtension>
            <ns3:atemp>22.0</ns3:atemp>
          </ns3:TrackPointExtension>
        </extensions>
      </trkpt>
      <trkpt lat="42.4891514517366886138916015625" lon="20.1788138039410114288330078125">
        <ele>1890.5999755859375</ele>
        <time>2026-06-20T11:14:46.000Z</time>
        <extensions>
          <ns3:TrackPointExtension>
            <ns3:atemp>22.0</ns3:atemp>
          </ns3:TrackPointExtension>
        </extensions>
      </trkpt>
      <trkpt lat="42.4891514517366886138916015625" lon="20.1788138039410114288330078125">
        <ele>1890.5999755859375</ele>
        <time>2026-06-20T11:14:47.000Z</time>
        <extensions>
          <ns3:TrackPointExtension>
            <ns3:atemp>22.0</ns3:atemp>
          </ns3:TrackPointExtension>
        </extensions>
      </trkpt>
      <trkpt lat="42.4891514517366886138916015625" lon="20.1788138039410114288330078125">
        <ele>1890.5999755859375</ele>
        <time>2026-06-20T11:14:48.000Z</time>
        <extensions>
          <ns3:TrackPointExtension>
            <ns3:atemp>22.0</ns3:atemp>
          </ns3:TrackPointExtension>
        </extensions>
      </trkpt>
      <trkpt lat="42.4891514517366886138916015625" lon="20.1788138039410114288330078125">
        <ele>1890.5999755859375</ele>
        <time>2026-06-20T11:14:49.000Z</time>
        <extensions>
          <ns3:TrackPointExtension>
            <ns3:atemp>22.0</ns3:atemp>
          </ns3:TrackPointExtension>
        </extensions>
      </trkpt>
      <trkpt lat="42.4891514517366886138916015625" lon="20.1788138039410114288330078125">
        <ele>1890.800048828125</ele>
        <time>2026-06-20T11:14:50.000Z</time>
        <extensions>
          <ns3:TrackPointExtension>
            <ns3:atemp>22.0</ns3:atemp>
          </ns3:TrackPointExtension>
        </extensions>
      </trkpt>
      <trkpt lat="42.4891514517366886138916015625" lon="20.1788138039410114288330078125">
        <ele>1890.800048828125</ele>
        <time>2026-06-20T11:14:51.000Z</time>
        <extensions>
          <ns3:TrackPointExtension>
            <ns3:atemp>22.0</ns3:atemp>
          </ns3:TrackPointExtension>
        </extensions>
      </trkpt>
      <trkpt lat="42.4891514517366886138916015625" lon="20.1788138039410114288330078125">
        <ele>1890.800048828125</ele>
        <time>2026-06-20T11:14:52.000Z</time>
        <extensions>
          <ns3:TrackPointExtension>
            <ns3:atemp>22.0</ns3:atemp>
          </ns3:TrackPointExtension>
        </extensions>
      </trkpt>
      <trkpt lat="42.4891514517366886138916015625" lon="20.1788138039410114288330078125">
        <ele>1890.800048828125</ele>
        <time>2026-06-20T11:14:53.000Z</time>
        <extensions>
          <ns3:TrackPointExtension>
            <ns3:atemp>22.0</ns3:atemp>
          </ns3:TrackPointExtension>
        </extensions>
      </trkpt>
      <trkpt lat="42.4891514517366886138916015625" lon="20.1788138039410114288330078125">
        <ele>1890.800048828125</ele>
        <time>2026-06-20T11:14:54.000Z</time>
        <extensions>
          <ns3:TrackPointExtension>
            <ns3:atemp>22.0</ns3:atemp>
          </ns3:TrackPointExtension>
        </extensions>
      </trkpt>
      <trkpt lat="42.4891514517366886138916015625" lon="20.1788138039410114288330078125">
        <ele>1890.5999755859375</ele>
        <time>2026-06-20T11:14:55.000Z</time>
        <extensions>
          <ns3:TrackPointExtension>
            <ns3:atemp>22.0</ns3:atemp>
          </ns3:TrackPointExtension>
        </extensions>
      </trkpt>
      <trkpt lat="42.4891514517366886138916015625" lon="20.1788138039410114288330078125">
        <ele>1890.5999755859375</ele>
        <time>2026-06-20T11:14:56.000Z</time>
        <extensions>
          <ns3:TrackPointExtension>
            <ns3:atemp>22.0</ns3:atemp>
          </ns3:TrackPointExtension>
        </extensions>
      </trkpt>
      <trkpt lat="42.4891514517366886138916015625" lon="20.1788138039410114288330078125">
        <ele>1890.5999755859375</ele>
        <time>2026-06-20T11:14:57.000Z</time>
        <extensions>
          <ns3:TrackPointExtension>
            <ns3:atemp>22.0</ns3:atemp>
          </ns3:TrackPointExtension>
        </extensions>
      </trkpt>
      <trkpt lat="42.4891514517366886138916015625" lon="20.1788138039410114288330078125">
        <ele>1890.800048828125</ele>
        <time>2026-06-20T11:14:58.000Z</time>
        <extensions>
          <ns3:TrackPointExtension>
            <ns3:atemp>22.0</ns3:atemp>
          </ns3:TrackPointExtension>
        </extensions>
      </trkpt>
      <trkpt lat="42.4891514517366886138916015625" lon="20.1788138039410114288330078125">
        <ele>1890.800048828125</ele>
        <time>2026-06-20T11:14:59.000Z</time>
        <extensions>
          <ns3:TrackPointExtension>
            <ns3:atemp>22.0</ns3:atemp>
          </ns3:TrackPointExtension>
        </extensions>
      </trkpt>
      <trkpt lat="42.4891514517366886138916015625" lon="20.1788138039410114288330078125">
        <ele>1890.800048828125</ele>
        <time>2026-06-20T11:15:00.000Z</time>
        <extensions>
          <ns3:TrackPointExtension>
            <ns3:atemp>22.0</ns3:atemp>
          </ns3:TrackPointExtension>
        </extensions>
      </trkpt>
      <trkpt lat="42.4891514517366886138916015625" lon="20.1788138039410114288330078125">
        <ele>1890.800048828125</ele>
        <time>2026-06-20T11:15:01.000Z</time>
        <extensions>
          <ns3:TrackPointExtension>
            <ns3:atemp>22.0</ns3:atemp>
          </ns3:TrackPointExtension>
        </extensions>
      </trkpt>
      <trkpt lat="42.4891514517366886138916015625" lon="20.1788138039410114288330078125">
        <ele>1890.800048828125</ele>
        <time>2026-06-20T11:15:02.000Z</time>
        <extensions>
          <ns3:TrackPointExtension>
            <ns3:atemp>22.0</ns3:atemp>
          </ns3:TrackPointExtension>
        </extensions>
      </trkpt>
      <trkpt lat="42.4891514517366886138916015625" lon="20.1788138039410114288330078125">
        <ele>1890.800048828125</ele>
        <time>2026-06-20T11:15:03.000Z</time>
        <extensions>
          <ns3:TrackPointExtension>
            <ns3:atemp>22.0</ns3:atemp>
          </ns3:TrackPointExtension>
        </extensions>
      </trkpt>
      <trkpt lat="42.4891514517366886138916015625" lon="20.1788138039410114288330078125">
        <ele>1890.800048828125</ele>
        <time>2026-06-20T11:15:04.000Z</time>
        <extensions>
          <ns3:TrackPointExtension>
            <ns3:atemp>22.0</ns3:atemp>
          </ns3:TrackPointExtension>
        </extensions>
      </trkpt>
      <trkpt lat="42.4891514517366886138916015625" lon="20.1788138039410114288330078125">
        <ele>1890.800048828125</ele>
        <time>2026-06-20T11:15:05.000Z</time>
        <extensions>
          <ns3:TrackPointExtension>
            <ns3:atemp>22.0</ns3:atemp>
          </ns3:TrackPointExtension>
        </extensions>
      </trkpt>
      <trkpt lat="42.4891514517366886138916015625" lon="20.1788138039410114288330078125">
        <ele>1890.800048828125</ele>
        <time>2026-06-20T11:15:06.000Z</time>
        <extensions>
          <ns3:TrackPointExtension>
            <ns3:atemp>22.0</ns3:atemp>
          </ns3:TrackPointExtension>
        </extensions>
      </trkpt>
      <trkpt lat="42.4891514517366886138916015625" lon="20.1788138039410114288330078125">
        <ele>1890.800048828125</ele>
        <time>2026-06-20T11:15:07.000Z</time>
        <extensions>
          <ns3:TrackPointExtension>
            <ns3:atemp>22.0</ns3:atemp>
          </ns3:TrackPointExtension>
        </extensions>
      </trkpt>
      <trkpt lat="42.4891514517366886138916015625" lon="20.1788138039410114288330078125">
        <ele>1890.800048828125</ele>
        <time>2026-06-20T11:15:08.000Z</time>
        <extensions>
          <ns3:TrackPointExtension>
            <ns3:atemp>22.0</ns3:atemp>
          </ns3:TrackPointExtension>
        </extensions>
      </trkpt>
      <trkpt lat="42.4891514517366886138916015625" lon="20.1788138039410114288330078125">
        <ele>1890.800048828125</ele>
        <time>2026-06-20T11:15:09.000Z</time>
        <extensions>
          <ns3:TrackPointExtension>
            <ns3:atemp>22.0</ns3:atemp>
          </ns3:TrackPointExtension>
        </extensions>
      </trkpt>
      <trkpt lat="42.4891514517366886138916015625" lon="20.1788138039410114288330078125">
        <ele>1890.800048828125</ele>
        <time>2026-06-20T11:15:10.000Z</time>
        <extensions>
          <ns3:TrackPointExtension>
            <ns3:atemp>22.0</ns3:atemp>
          </ns3:TrackPointExtension>
        </extensions>
      </trkpt>
      <trkpt lat="42.4891514517366886138916015625" lon="20.1788138039410114288330078125">
        <ele>1890.800048828125</ele>
        <time>2026-06-20T11:15:11.000Z</time>
        <extensions>
          <ns3:TrackPointExtension>
            <ns3:atemp>22.0</ns3:atemp>
          </ns3:TrackPointExtension>
        </extensions>
      </trkpt>
      <trkpt lat="42.4891514517366886138916015625" lon="20.1788138039410114288330078125">
        <ele>1890.800048828125</ele>
        <time>2026-06-20T11:15:12.000Z</time>
        <extensions>
          <ns3:TrackPointExtension>
            <ns3:atemp>22.0</ns3:atemp>
          </ns3:TrackPointExtension>
        </extensions>
      </trkpt>
      <trkpt lat="42.4891514517366886138916015625" lon="20.1788138039410114288330078125">
        <ele>1890.800048828125</ele>
        <time>2026-06-20T11:15:13.000Z</time>
        <extensions>
          <ns3:TrackPointExtension>
            <ns3:atemp>22.0</ns3:atemp>
          </ns3:TrackPointExtension>
        </extensions>
      </trkpt>
      <trkpt lat="42.4891514517366886138916015625" lon="20.1788138039410114288330078125">
        <ele>1890.800048828125</ele>
        <time>2026-06-20T11:15:14.000Z</time>
        <extensions>
          <ns3:TrackPointExtension>
            <ns3:atemp>22.0</ns3:atemp>
          </ns3:TrackPointExtension>
        </extensions>
      </trkpt>
      <trkpt lat="42.4891514517366886138916015625" lon="20.1788138039410114288330078125">
        <ele>1890.800048828125</ele>
        <time>2026-06-20T11:15:15.000Z</time>
        <extensions>
          <ns3:TrackPointExtension>
            <ns3:atemp>22.0</ns3:atemp>
          </ns3:TrackPointExtension>
        </extensions>
      </trkpt>
      <trkpt lat="42.4891514517366886138916015625" lon="20.1788138039410114288330078125">
        <ele>1890.800048828125</ele>
        <time>2026-06-20T11:15:16.000Z</time>
        <extensions>
          <ns3:TrackPointExtension>
            <ns3:atemp>22.0</ns3:atemp>
          </ns3:TrackPointExtension>
        </extensions>
      </trkpt>
      <trkpt lat="42.4891514517366886138916015625" lon="20.1788138039410114288330078125">
        <ele>1890.5999755859375</ele>
        <time>2026-06-20T11:15:17.000Z</time>
        <extensions>
          <ns3:TrackPointExtension>
            <ns3:atemp>22.0</ns3:atemp>
          </ns3:TrackPointExtension>
        </extensions>
      </trkpt>
      <trkpt lat="42.4891514517366886138916015625" lon="20.1788138039410114288330078125">
        <ele>1890.5999755859375</ele>
        <time>2026-06-20T11:15:18.000Z</time>
        <extensions>
          <ns3:TrackPointExtension>
            <ns3:atemp>22.0</ns3:atemp>
          </ns3:TrackPointExtension>
        </extensions>
      </trkpt>
      <trkpt lat="42.4891514517366886138916015625" lon="20.1788138039410114288330078125">
        <ele>1890.5999755859375</ele>
        <time>2026-06-20T11:15:19.000Z</time>
        <extensions>
          <ns3:TrackPointExtension>
            <ns3:atemp>22.0</ns3:atemp>
          </ns3:TrackPointExtension>
        </extensions>
      </trkpt>
      <trkpt lat="42.4891514517366886138916015625" lon="20.1788138039410114288330078125">
        <ele>1890.800048828125</ele>
        <time>2026-06-20T11:15:20.000Z</time>
        <extensions>
          <ns3:TrackPointExtension>
            <ns3:atemp>22.0</ns3:atemp>
          </ns3:TrackPointExtension>
        </extensions>
      </trkpt>
      <trkpt lat="42.4891514517366886138916015625" lon="20.1788138039410114288330078125">
        <ele>1890.800048828125</ele>
        <time>2026-06-20T11:15:21.000Z</time>
        <extensions>
          <ns3:TrackPointExtension>
            <ns3:atemp>22.0</ns3:atemp>
          </ns3:TrackPointExtension>
        </extensions>
      </trkpt>
      <trkpt lat="42.4891514517366886138916015625" lon="20.1788138039410114288330078125">
        <ele>1890.800048828125</ele>
        <time>2026-06-20T11:15:22.000Z</time>
        <extensions>
          <ns3:TrackPointExtension>
            <ns3:atemp>22.0</ns3:atemp>
          </ns3:TrackPointExtension>
        </extensions>
      </trkpt>
      <trkpt lat="42.4891514517366886138916015625" lon="20.1788138039410114288330078125">
        <ele>1890.800048828125</ele>
        <time>2026-06-20T11:15:23.000Z</time>
        <extensions>
          <ns3:TrackPointExtension>
            <ns3:atemp>22.0</ns3:atemp>
          </ns3:TrackPointExtension>
        </extensions>
      </trkpt>
      <trkpt lat="42.4891514517366886138916015625" lon="20.1788138039410114288330078125">
        <ele>1890.800048828125</ele>
        <time>2026-06-20T11:15:24.000Z</time>
        <extensions>
          <ns3:TrackPointExtension>
            <ns3:atemp>22.0</ns3:atemp>
          </ns3:TrackPointExtension>
        </extensions>
      </trkpt>
      <trkpt lat="42.4891514517366886138916015625" lon="20.1788138039410114288330078125">
        <ele>1890.800048828125</ele>
        <time>2026-06-20T11:15:25.000Z</time>
        <extensions>
          <ns3:TrackPointExtension>
            <ns3:atemp>22.0</ns3:atemp>
          </ns3:TrackPointExtension>
        </extensions>
      </trkpt>
      <trkpt lat="42.4891514517366886138916015625" lon="20.1788138039410114288330078125">
        <ele>1890.800048828125</ele>
        <time>2026-06-20T11:15:26.000Z</time>
        <extensions>
          <ns3:TrackPointExtension>
            <ns3:atemp>22.0</ns3:atemp>
          </ns3:TrackPointExtension>
        </extensions>
      </trkpt>
      <trkpt lat="42.4891514517366886138916015625" lon="20.1788138039410114288330078125">
        <ele>1890.800048828125</ele>
        <time>2026-06-20T11:15:27.000Z</time>
        <extensions>
          <ns3:TrackPointExtension>
            <ns3:atemp>22.0</ns3:atemp>
          </ns3:TrackPointExtension>
        </extensions>
      </trkpt>
      <trkpt lat="42.4891514517366886138916015625" lon="20.1788138039410114288330078125">
        <ele>1890.800048828125</ele>
        <time>2026-06-20T11:15:28.000Z</time>
        <extensions>
          <ns3:TrackPointExtension>
            <ns3:atemp>22.0</ns3:atemp>
          </ns3:TrackPointExtension>
        </extensions>
      </trkpt>
      <trkpt lat="42.4891514517366886138916015625" lon="20.1788138039410114288330078125">
        <ele>1890.800048828125</ele>
        <time>2026-06-20T11:15:29.000Z</time>
        <extensions>
          <ns3:TrackPointExtension>
            <ns3:atemp>22.0</ns3:atemp>
          </ns3:TrackPointExtension>
        </extensions>
      </trkpt>
      <trkpt lat="42.4891514517366886138916015625" lon="20.1788138039410114288330078125">
        <ele>1890.800048828125</ele>
        <time>2026-06-20T11:15:30.000Z</time>
        <extensions>
          <ns3:TrackPointExtension>
            <ns3:atemp>22.0</ns3:atemp>
          </ns3:TrackPointExtension>
        </extensions>
      </trkpt>
      <trkpt lat="42.4891514517366886138916015625" lon="20.1788138039410114288330078125">
        <ele>1890.800048828125</ele>
        <time>2026-06-20T11:15:31.000Z</time>
        <extensions>
          <ns3:TrackPointExtension>
            <ns3:atemp>22.0</ns3:atemp>
          </ns3:TrackPointExtension>
        </extensions>
      </trkpt>
      <trkpt lat="42.4891514517366886138916015625" lon="20.1788138039410114288330078125">
        <ele>1890.800048828125</ele>
        <time>2026-06-20T11:15:32.000Z</time>
        <extensions>
          <ns3:TrackPointExtension>
            <ns3:atemp>22.0</ns3:atemp>
          </ns3:TrackPointExtension>
        </extensions>
      </trkpt>
      <trkpt lat="42.4891514517366886138916015625" lon="20.1788138039410114288330078125">
        <ele>1890.800048828125</ele>
        <time>2026-06-20T11:15:33.000Z</time>
        <extensions>
          <ns3:TrackPointExtension>
            <ns3:atemp>22.0</ns3:atemp>
          </ns3:TrackPointExtension>
        </extensions>
      </trkpt>
      <trkpt lat="42.4891514517366886138916015625" lon="20.1788138039410114288330078125">
        <ele>1890.800048828125</ele>
        <time>2026-06-20T11:15:34.000Z</time>
        <extensions>
          <ns3:TrackPointExtension>
            <ns3:atemp>22.0</ns3:atemp>
          </ns3:TrackPointExtension>
        </extensions>
      </trkpt>
      <trkpt lat="42.4891514517366886138916015625" lon="20.1788138039410114288330078125">
        <ele>1890.800048828125</ele>
        <time>2026-06-20T11:15:35.000Z</time>
        <extensions>
          <ns3:TrackPointExtension>
            <ns3:atemp>22.0</ns3:atemp>
          </ns3:TrackPointExtension>
        </extensions>
      </trkpt>
      <trkpt lat="42.4891514517366886138916015625" lon="20.1788138039410114288330078125">
        <ele>1890.800048828125</ele>
        <time>2026-06-20T11:15:36.000Z</time>
        <extensions>
          <ns3:TrackPointExtension>
            <ns3:atemp>22.0</ns3:atemp>
          </ns3:TrackPointExtension>
        </extensions>
      </trkpt>
      <trkpt lat="42.4891514517366886138916015625" lon="20.1788138039410114288330078125">
        <ele>1890.800048828125</ele>
        <time>2026-06-20T11:15:37.000Z</time>
        <extensions>
          <ns3:TrackPointExtension>
            <ns3:atemp>22.0</ns3:atemp>
          </ns3:TrackPointExtension>
        </extensions>
      </trkpt>
      <trkpt lat="42.4891514517366886138916015625" lon="20.1788138039410114288330078125">
        <ele>1890.800048828125</ele>
        <time>2026-06-20T11:15:38.000Z</time>
        <extensions>
          <ns3:TrackPointExtension>
            <ns3:atemp>22.0</ns3:atemp>
          </ns3:TrackPointExtension>
        </extensions>
      </trkpt>
      <trkpt lat="42.4891514517366886138916015625" lon="20.1788138039410114288330078125">
        <ele>1890.800048828125</ele>
        <time>2026-06-20T11:15:39.000Z</time>
        <extensions>
          <ns3:TrackPointExtension>
            <ns3:atemp>22.0</ns3:atemp>
          </ns3:TrackPointExtension>
        </extensions>
      </trkpt>
      <trkpt lat="42.4891514517366886138916015625" lon="20.1788138039410114288330078125">
        <ele>1890.800048828125</ele>
        <time>2026-06-20T11:15:40.000Z</time>
        <extensions>
          <ns3:TrackPointExtension>
            <ns3:atemp>22.0</ns3:atemp>
          </ns3:TrackPointExtension>
        </extensions>
      </trkpt>
      <trkpt lat="42.4891514517366886138916015625" lon="20.1788138039410114288330078125">
        <ele>1890.800048828125</ele>
        <time>2026-06-20T11:15:41.000Z</time>
        <extensions>
          <ns3:TrackPointExtension>
            <ns3:atemp>22.0</ns3:atemp>
          </ns3:TrackPointExtension>
        </extensions>
      </trkpt>
      <trkpt lat="42.4891514517366886138916015625" lon="20.1788138039410114288330078125">
        <ele>1890.800048828125</ele>
        <time>2026-06-20T11:15:42.000Z</time>
        <extensions>
          <ns3:TrackPointExtension>
            <ns3:atemp>22.0</ns3:atemp>
          </ns3:TrackPointExtension>
        </extensions>
      </trkpt>
      <trkpt lat="42.4891514517366886138916015625" lon="20.1788138039410114288330078125">
        <ele>1890.800048828125</ele>
        <time>2026-06-20T11:15:43.000Z</time>
        <extensions>
          <ns3:TrackPointExtension>
            <ns3:atemp>23.0</ns3:atemp>
          </ns3:TrackPointExtension>
        </extensions>
      </trkpt>
      <trkpt lat="42.4891514517366886138916015625" lon="20.1788138039410114288330078125">
        <ele>1890.800048828125</ele>
        <time>2026-06-20T11:15:44.000Z</time>
        <extensions>
          <ns3:TrackPointExtension>
            <ns3:atemp>23.0</ns3:atemp>
          </ns3:TrackPointExtension>
        </extensions>
      </trkpt>
      <trkpt lat="42.4891514517366886138916015625" lon="20.1788138039410114288330078125">
        <ele>1890.800048828125</ele>
        <time>2026-06-20T11:15:45.000Z</time>
        <extensions>
          <ns3:TrackPointExtension>
            <ns3:atemp>23.0</ns3:atemp>
          </ns3:TrackPointExtension>
        </extensions>
      </trkpt>
      <trkpt lat="42.4891514517366886138916015625" lon="20.1788138039410114288330078125">
        <ele>1890.800048828125</ele>
        <time>2026-06-20T11:15:46.000Z</time>
        <extensions>
          <ns3:TrackPointExtension>
            <ns3:atemp>23.0</ns3:atemp>
          </ns3:TrackPointExtension>
        </extensions>
      </trkpt>
      <trkpt lat="42.4891514517366886138916015625" lon="20.1788138039410114288330078125">
        <ele>1890.800048828125</ele>
        <time>2026-06-20T11:15:47.000Z</time>
        <extensions>
          <ns3:TrackPointExtension>
            <ns3:atemp>23.0</ns3:atemp>
          </ns3:TrackPointExtension>
        </extensions>
      </trkpt>
      <trkpt lat="42.4891514517366886138916015625" lon="20.1788138039410114288330078125">
        <ele>1890.800048828125</ele>
        <time>2026-06-20T11:15:48.000Z</time>
        <extensions>
          <ns3:TrackPointExtension>
            <ns3:atemp>23.0</ns3:atemp>
          </ns3:TrackPointExtension>
        </extensions>
      </trkpt>
      <trkpt lat="42.4891514517366886138916015625" lon="20.1788138039410114288330078125">
        <ele>1890.800048828125</ele>
        <time>2026-06-20T11:15:49.000Z</time>
        <extensions>
          <ns3:TrackPointExtension>
            <ns3:atemp>22.0</ns3:atemp>
          </ns3:TrackPointExtension>
        </extensions>
      </trkpt>
      <trkpt lat="42.4891514517366886138916015625" lon="20.1788138039410114288330078125">
        <ele>1890.800048828125</ele>
        <time>2026-06-20T11:15:50.000Z</time>
        <extensions>
          <ns3:TrackPointExtension>
            <ns3:atemp>22.0</ns3:atemp>
          </ns3:TrackPointExtension>
        </extensions>
      </trkpt>
      <trkpt lat="42.4891514517366886138916015625" lon="20.1788138039410114288330078125">
        <ele>1890.800048828125</ele>
        <time>2026-06-20T11:15:51.000Z</time>
        <extensions>
          <ns3:TrackPointExtension>
            <ns3:atemp>23.0</ns3:atemp>
          </ns3:TrackPointExtension>
        </extensions>
      </trkpt>
      <trkpt lat="42.4891514517366886138916015625" lon="20.1788138039410114288330078125">
        <ele>1890.800048828125</ele>
        <time>2026-06-20T11:15:52.000Z</time>
        <extensions>
          <ns3:TrackPointExtension>
            <ns3:atemp>22.0</ns3:atemp>
          </ns3:TrackPointExtension>
        </extensions>
      </trkpt>
      <trkpt lat="42.4891514517366886138916015625" lon="20.1788138039410114288330078125">
        <ele>1890.800048828125</ele>
        <time>2026-06-20T11:15:53.000Z</time>
        <extensions>
          <ns3:TrackPointExtension>
            <ns3:atemp>23.0</ns3:atemp>
          </ns3:TrackPointExtension>
        </extensions>
      </trkpt>
      <trkpt lat="42.4891514517366886138916015625" lon="20.1788138039410114288330078125">
        <ele>1890.800048828125</ele>
        <time>2026-06-20T11:15:54.000Z</time>
        <extensions>
          <ns3:TrackPointExtension>
            <ns3:atemp>23.0</ns3:atemp>
          </ns3:TrackPointExtension>
        </extensions>
      </trkpt>
      <trkpt lat="42.4891514517366886138916015625" lon="20.1788138039410114288330078125">
        <ele>1890.800048828125</ele>
        <time>2026-06-20T11:15:55.000Z</time>
        <extensions>
          <ns3:TrackPointExtension>
            <ns3:atemp>23.0</ns3:atemp>
          </ns3:TrackPointExtension>
        </extensions>
      </trkpt>
      <trkpt lat="42.4891514517366886138916015625" lon="20.1788138039410114288330078125">
        <ele>1890.800048828125</ele>
        <time>2026-06-20T11:15:56.000Z</time>
        <extensions>
          <ns3:TrackPointExtension>
            <ns3:atemp>23.0</ns3:atemp>
          </ns3:TrackPointExtension>
        </extensions>
      </trkpt>
      <trkpt lat="42.4891514517366886138916015625" lon="20.1788138039410114288330078125">
        <ele>1890.800048828125</ele>
        <time>2026-06-20T11:15:57.000Z</time>
        <extensions>
          <ns3:TrackPointExtension>
            <ns3:atemp>23.0</ns3:atemp>
          </ns3:TrackPointExtension>
        </extensions>
      </trkpt>
      <trkpt lat="42.4891514517366886138916015625" lon="20.1788138039410114288330078125">
        <ele>1890.800048828125</ele>
        <time>2026-06-20T11:15:58.000Z</time>
        <extensions>
          <ns3:TrackPointExtension>
            <ns3:atemp>23.0</ns3:atemp>
          </ns3:TrackPointExtension>
        </extensions>
      </trkpt>
      <trkpt lat="42.4891514517366886138916015625" lon="20.1788138039410114288330078125">
        <ele>1890.800048828125</ele>
        <time>2026-06-20T11:15:59.000Z</time>
        <extensions>
          <ns3:TrackPointExtension>
            <ns3:atemp>23.0</ns3:atemp>
          </ns3:TrackPointExtension>
        </extensions>
      </trkpt>
      <trkpt lat="42.4891514517366886138916015625" lon="20.1788138039410114288330078125">
        <ele>1890.800048828125</ele>
        <time>2026-06-20T11:16:00.000Z</time>
        <extensions>
          <ns3:TrackPointExtension>
            <ns3:atemp>23.0</ns3:atemp>
          </ns3:TrackPointExtension>
        </extensions>
      </trkpt>
      <trkpt lat="42.4891514517366886138916015625" lon="20.1788138039410114288330078125">
        <ele>1890.800048828125</ele>
        <time>2026-06-20T11:16:01.000Z</time>
        <extensions>
          <ns3:TrackPointExtension>
            <ns3:atemp>23.0</ns3:atemp>
          </ns3:TrackPointExtension>
        </extensions>
      </trkpt>
      <trkpt lat="42.4891514517366886138916015625" lon="20.1788138039410114288330078125">
        <ele>1890.800048828125</ele>
        <time>2026-06-20T11:16:02.000Z</time>
        <extensions>
          <ns3:TrackPointExtension>
            <ns3:atemp>23.0</ns3:atemp>
          </ns3:TrackPointExtension>
        </extensions>
      </trkpt>
      <trkpt lat="42.4891514517366886138916015625" lon="20.1788138039410114288330078125">
        <ele>1890.800048828125</ele>
        <time>2026-06-20T11:16:03.000Z</time>
        <extensions>
          <ns3:TrackPointExtension>
            <ns3:atemp>23.0</ns3:atemp>
          </ns3:TrackPointExtension>
        </extensions>
      </trkpt>
      <trkpt lat="42.4891514517366886138916015625" lon="20.1788138039410114288330078125">
        <ele>1890.800048828125</ele>
        <time>2026-06-20T11:16:04.000Z</time>
        <extensions>
          <ns3:TrackPointExtension>
            <ns3:atemp>23.0</ns3:atemp>
          </ns3:TrackPointExtension>
        </extensions>
      </trkpt>
      <trkpt lat="42.4891514517366886138916015625" lon="20.1788138039410114288330078125">
        <ele>1890.800048828125</ele>
        <time>2026-06-20T11:16:05.000Z</time>
        <extensions>
          <ns3:TrackPointExtension>
            <ns3:atemp>23.0</ns3:atemp>
          </ns3:TrackPointExtension>
        </extensions>
      </trkpt>
      <trkpt lat="42.4891514517366886138916015625" lon="20.1788138039410114288330078125">
        <ele>1890.800048828125</ele>
        <time>2026-06-20T11:16:06.000Z</time>
        <extensions>
          <ns3:TrackPointExtension>
            <ns3:atemp>23.0</ns3:atemp>
          </ns3:TrackPointExtension>
        </extensions>
      </trkpt>
      <trkpt lat="42.4891514517366886138916015625" lon="20.1788138039410114288330078125">
        <ele>1890.800048828125</ele>
        <time>2026-06-20T11:16:07.000Z</time>
        <extensions>
          <ns3:TrackPointExtension>
            <ns3:atemp>23.0</ns3:atemp>
          </ns3:TrackPointExtension>
        </extensions>
      </trkpt>
      <trkpt lat="42.4891514517366886138916015625" lon="20.1788138039410114288330078125">
        <ele>1890.800048828125</ele>
        <time>2026-06-20T11:16:08.000Z</time>
        <extensions>
          <ns3:TrackPointExtension>
            <ns3:atemp>23.0</ns3:atemp>
          </ns3:TrackPointExtension>
        </extensions>
      </trkpt>
      <trkpt lat="42.4891514517366886138916015625" lon="20.1788138039410114288330078125">
        <ele>1890.800048828125</ele>
        <time>2026-06-20T11:16:09.000Z</time>
        <extensions>
          <ns3:TrackPointExtension>
            <ns3:atemp>23.0</ns3:atemp>
          </ns3:TrackPointExtension>
        </extensions>
      </trkpt>
      <trkpt lat="42.4891514517366886138916015625" lon="20.1788138039410114288330078125">
        <ele>1890.800048828125</ele>
        <time>2026-06-20T11:16:10.000Z</time>
        <extensions>
          <ns3:TrackPointExtension>
            <ns3:atemp>23.0</ns3:atemp>
          </ns3:TrackPointExtension>
        </extensions>
      </trkpt>
      <trkpt lat="42.4891514517366886138916015625" lon="20.1788138039410114288330078125">
        <ele>1890.800048828125</ele>
        <time>2026-06-20T11:16:11.000Z</time>
        <extensions>
          <ns3:TrackPointExtension>
            <ns3:atemp>23.0</ns3:atemp>
          </ns3:TrackPointExtension>
        </extensions>
      </trkpt>
      <trkpt lat="42.4891514517366886138916015625" lon="20.1788138039410114288330078125">
        <ele>1890.800048828125</ele>
        <time>2026-06-20T11:16:12.000Z</time>
        <extensions>
          <ns3:TrackPointExtension>
            <ns3:atemp>23.0</ns3:atemp>
          </ns3:TrackPointExtension>
        </extensions>
      </trkpt>
      <trkpt lat="42.4891514517366886138916015625" lon="20.1788138039410114288330078125">
        <ele>1890.800048828125</ele>
        <time>2026-06-20T11:16:13.000Z</time>
        <extensions>
          <ns3:TrackPointExtension>
            <ns3:atemp>23.0</ns3:atemp>
          </ns3:TrackPointExtension>
        </extensions>
      </trkpt>
      <trkpt lat="42.4891514517366886138916015625" lon="20.1788138039410114288330078125">
        <ele>1890.800048828125</ele>
        <time>2026-06-20T11:16:14.000Z</time>
        <extensions>
          <ns3:TrackPointExtension>
            <ns3:atemp>23.0</ns3:atemp>
          </ns3:TrackPointExtension>
        </extensions>
      </trkpt>
      <trkpt lat="42.4891514517366886138916015625" lon="20.1788138039410114288330078125">
        <ele>1890.800048828125</ele>
        <time>2026-06-20T11:16:15.000Z</time>
        <extensions>
          <ns3:TrackPointExtension>
            <ns3:atemp>23.0</ns3:atemp>
          </ns3:TrackPointExtension>
        </extensions>
      </trkpt>
      <trkpt lat="42.4891514517366886138916015625" lon="20.1788138039410114288330078125">
        <ele>1890.800048828125</ele>
        <time>2026-06-20T11:16:16.000Z</time>
        <extensions>
          <ns3:TrackPointExtension>
            <ns3:atemp>23.0</ns3:atemp>
          </ns3:TrackPointExtension>
        </extensions>
      </trkpt>
      <trkpt lat="42.4891514517366886138916015625" lon="20.1788138039410114288330078125">
        <ele>1890.800048828125</ele>
        <time>2026-06-20T11:16:17.000Z</time>
        <extensions>
          <ns3:TrackPointExtension>
            <ns3:atemp>23.0</ns3:atemp>
          </ns3:TrackPointExtension>
        </extensions>
      </trkpt>
      <trkpt lat="42.4891514517366886138916015625" lon="20.1788138039410114288330078125">
        <ele>1890.800048828125</ele>
        <time>2026-06-20T11:16:18.000Z</time>
        <extensions>
          <ns3:TrackPointExtension>
            <ns3:atemp>23.0</ns3:atemp>
          </ns3:TrackPointExtension>
        </extensions>
      </trkpt>
      <trkpt lat="42.4891514517366886138916015625" lon="20.1788138039410114288330078125">
        <ele>1890.800048828125</ele>
        <time>2026-06-20T11:16:19.000Z</time>
        <extensions>
          <ns3:TrackPointExtension>
            <ns3:atemp>23.0</ns3:atemp>
          </ns3:TrackPointExtension>
        </extensions>
      </trkpt>
      <trkpt lat="42.4891514517366886138916015625" lon="20.1788138039410114288330078125">
        <ele>1890.800048828125</ele>
        <time>2026-06-20T11:16:20.000Z</time>
        <extensions>
          <ns3:TrackPointExtension>
            <ns3:atemp>23.0</ns3:atemp>
          </ns3:TrackPointExtension>
        </extensions>
      </trkpt>
      <trkpt lat="42.4891514517366886138916015625" lon="20.1788138039410114288330078125">
        <ele>1890.800048828125</ele>
        <time>2026-06-20T11:16:21.000Z</time>
        <extensions>
          <ns3:TrackPointExtension>
            <ns3:atemp>23.0</ns3:atemp>
          </ns3:TrackPointExtension>
        </extensions>
      </trkpt>
      <trkpt lat="42.4891514517366886138916015625" lon="20.1788138039410114288330078125">
        <ele>1890.800048828125</ele>
        <time>2026-06-20T11:16:22.000Z</time>
        <extensions>
          <ns3:TrackPointExtension>
            <ns3:atemp>23.0</ns3:atemp>
          </ns3:TrackPointExtension>
        </extensions>
      </trkpt>
      <trkpt lat="42.4891514517366886138916015625" lon="20.1788138039410114288330078125">
        <ele>1890.800048828125</ele>
        <time>2026-06-20T11:16:23.000Z</time>
        <extensions>
          <ns3:TrackPointExtension>
            <ns3:atemp>23.0</ns3:atemp>
          </ns3:TrackPointExtension>
        </extensions>
      </trkpt>
      <trkpt lat="42.4891514517366886138916015625" lon="20.1788138039410114288330078125">
        <ele>1890.800048828125</ele>
        <time>2026-06-20T11:16:24.000Z</time>
        <extensions>
          <ns3:TrackPointExtension>
            <ns3:atemp>23.0</ns3:atemp>
          </ns3:TrackPointExtension>
        </extensions>
      </trkpt>
      <trkpt lat="42.4891514517366886138916015625" lon="20.1788138039410114288330078125">
        <ele>1890.800048828125</ele>
        <time>2026-06-20T11:16:25.000Z</time>
        <extensions>
          <ns3:TrackPointExtension>
            <ns3:atemp>23.0</ns3:atemp>
          </ns3:TrackPointExtension>
        </extensions>
      </trkpt>
      <trkpt lat="42.4891514517366886138916015625" lon="20.1788138039410114288330078125">
        <ele>1890.800048828125</ele>
        <time>2026-06-20T11:16:26.000Z</time>
        <extensions>
          <ns3:TrackPointExtension>
            <ns3:atemp>23.0</ns3:atemp>
          </ns3:TrackPointExtension>
        </extensions>
      </trkpt>
      <trkpt lat="42.4891514517366886138916015625" lon="20.1788138039410114288330078125">
        <ele>1890.800048828125</ele>
        <time>2026-06-20T11:16:27.000Z</time>
        <extensions>
          <ns3:TrackPointExtension>
            <ns3:atemp>23.0</ns3:atemp>
          </ns3:TrackPointExtension>
        </extensions>
      </trkpt>
      <trkpt lat="42.4891514517366886138916015625" lon="20.1788138039410114288330078125">
        <ele>1890.800048828125</ele>
        <time>2026-06-20T11:16:28.000Z</time>
        <extensions>
          <ns3:TrackPointExtension>
            <ns3:atemp>23.0</ns3:atemp>
          </ns3:TrackPointExtension>
        </extensions>
      </trkpt>
      <trkpt lat="42.4891514517366886138916015625" lon="20.1788138039410114288330078125">
        <ele>1890.800048828125</ele>
        <time>2026-06-20T11:16:29.000Z</time>
        <extensions>
          <ns3:TrackPointExtension>
            <ns3:atemp>23.0</ns3:atemp>
          </ns3:TrackPointExtension>
        </extensions>
      </trkpt>
      <trkpt lat="42.4891514517366886138916015625" lon="20.1788138039410114288330078125">
        <ele>1890.800048828125</ele>
        <time>2026-06-20T11:16:30.000Z</time>
        <extensions>
          <ns3:TrackPointExtension>
            <ns3:atemp>23.0</ns3:atemp>
          </ns3:TrackPointExtension>
        </extensions>
      </trkpt>
      <trkpt lat="42.4891514517366886138916015625" lon="20.1788138039410114288330078125">
        <ele>1890.800048828125</ele>
        <time>2026-06-20T11:16:31.000Z</time>
        <extensions>
          <ns3:TrackPointExtension>
            <ns3:atemp>23.0</ns3:atemp>
          </ns3:TrackPointExtension>
        </extensions>
      </trkpt>
      <trkpt lat="42.4891514517366886138916015625" lon="20.1788138039410114288330078125">
        <ele>1890.800048828125</ele>
        <time>2026-06-20T11:16:32.000Z</time>
        <extensions>
          <ns3:TrackPointExtension>
            <ns3:atemp>23.0</ns3:atemp>
          </ns3:TrackPointExtension>
        </extensions>
      </trkpt>
      <trkpt lat="42.4891514517366886138916015625" lon="20.1788138039410114288330078125">
        <ele>1890.800048828125</ele>
        <time>2026-06-20T11:16:33.000Z</time>
        <extensions>
          <ns3:TrackPointExtension>
            <ns3:atemp>23.0</ns3:atemp>
          </ns3:TrackPointExtension>
        </extensions>
      </trkpt>
      <trkpt lat="42.4891514517366886138916015625" lon="20.1788138039410114288330078125">
        <ele>1890.800048828125</ele>
        <time>2026-06-20T11:16:34.000Z</time>
        <extensions>
          <ns3:TrackPointExtension>
            <ns3:atemp>23.0</ns3:atemp>
          </ns3:TrackPointExtension>
        </extensions>
      </trkpt>
      <trkpt lat="42.4891514517366886138916015625" lon="20.1788138039410114288330078125">
        <ele>1890.800048828125</ele>
        <time>2026-06-20T11:16:35.000Z</time>
        <extensions>
          <ns3:TrackPointExtension>
            <ns3:atemp>23.0</ns3:atemp>
          </ns3:TrackPointExtension>
        </extensions>
      </trkpt>
      <trkpt lat="42.4891514517366886138916015625" lon="20.1788138039410114288330078125">
        <ele>1890.800048828125</ele>
        <time>2026-06-20T11:16:36.000Z</time>
        <extensions>
          <ns3:TrackPointExtension>
            <ns3:atemp>23.0</ns3:atemp>
          </ns3:TrackPointExtension>
        </extensions>
      </trkpt>
      <trkpt lat="42.4891514517366886138916015625" lon="20.1788138039410114288330078125">
        <ele>1890.800048828125</ele>
        <time>2026-06-20T11:16:37.000Z</time>
        <extensions>
          <ns3:TrackPointExtension>
            <ns3:atemp>23.0</ns3:atemp>
          </ns3:TrackPointExtension>
        </extensions>
      </trkpt>
      <trkpt lat="42.4891514517366886138916015625" lon="20.1788138039410114288330078125">
        <ele>1890.800048828125</ele>
        <time>2026-06-20T11:16:38.000Z</time>
        <extensions>
          <ns3:TrackPointExtension>
            <ns3:atemp>23.0</ns3:atemp>
          </ns3:TrackPointExtension>
        </extensions>
      </trkpt>
      <trkpt lat="42.4891514517366886138916015625" lon="20.1788138039410114288330078125">
        <ele>1890.800048828125</ele>
        <time>2026-06-20T11:16:39.000Z</time>
        <extensions>
          <ns3:TrackPointExtension>
            <ns3:atemp>23.0</ns3:atemp>
          </ns3:TrackPointExtension>
        </extensions>
      </trkpt>
      <trkpt lat="42.4891514517366886138916015625" lon="20.1788138039410114288330078125">
        <ele>1890.800048828125</ele>
        <time>2026-06-20T11:16:40.000Z</time>
        <extensions>
          <ns3:TrackPointExtension>
            <ns3:atemp>23.0</ns3:atemp>
          </ns3:TrackPointExtension>
        </extensions>
      </trkpt>
      <trkpt lat="42.4891514517366886138916015625" lon="20.1788138039410114288330078125">
        <ele>1890.800048828125</ele>
        <time>2026-06-20T11:16:41.000Z</time>
        <extensions>
          <ns3:TrackPointExtension>
            <ns3:atemp>23.0</ns3:atemp>
          </ns3:TrackPointExtension>
        </extensions>
      </trkpt>
      <trkpt lat="42.4891514517366886138916015625" lon="20.1788138039410114288330078125">
        <ele>1890.800048828125</ele>
        <time>2026-06-20T11:16:42.000Z</time>
        <extensions>
          <ns3:TrackPointExtension>
            <ns3:atemp>23.0</ns3:atemp>
          </ns3:TrackPointExtension>
        </extensions>
      </trkpt>
      <trkpt lat="42.4891514517366886138916015625" lon="20.1788138039410114288330078125">
        <ele>1890.800048828125</ele>
        <time>2026-06-20T11:16:43.000Z</time>
        <extensions>
          <ns3:TrackPointExtension>
            <ns3:atemp>23.0</ns3:atemp>
          </ns3:TrackPointExtension>
        </extensions>
      </trkpt>
      <trkpt lat="42.4891514517366886138916015625" lon="20.1788138039410114288330078125">
        <ele>1890.800048828125</ele>
        <time>2026-06-20T11:16:44.000Z</time>
        <extensions>
          <ns3:TrackPointExtension>
            <ns3:atemp>23.0</ns3:atemp>
          </ns3:TrackPointExtension>
        </extensions>
      </trkpt>
      <trkpt lat="42.4891514517366886138916015625" lon="20.1788138039410114288330078125">
        <ele>1890.800048828125</ele>
        <time>2026-06-20T11:16:45.000Z</time>
        <extensions>
          <ns3:TrackPointExtension>
            <ns3:atemp>23.0</ns3:atemp>
          </ns3:TrackPointExtension>
        </extensions>
      </trkpt>
      <trkpt lat="42.4891514517366886138916015625" lon="20.1788138039410114288330078125">
        <ele>1890.800048828125</ele>
        <time>2026-06-20T11:16:46.000Z</time>
        <extensions>
          <ns3:TrackPointExtension>
            <ns3:atemp>23.0</ns3:atemp>
          </ns3:TrackPointExtension>
        </extensions>
      </trkpt>
      <trkpt lat="42.4891514517366886138916015625" lon="20.1788138039410114288330078125">
        <ele>1890.800048828125</ele>
        <time>2026-06-20T11:16:47.000Z</time>
        <extensions>
          <ns3:TrackPointExtension>
            <ns3:atemp>23.0</ns3:atemp>
          </ns3:TrackPointExtension>
        </extensions>
      </trkpt>
      <trkpt lat="42.4891514517366886138916015625" lon="20.1788138039410114288330078125">
        <ele>1890.800048828125</ele>
        <time>2026-06-20T11:16:48.000Z</time>
        <extensions>
          <ns3:TrackPointExtension>
            <ns3:atemp>23.0</ns3:atemp>
          </ns3:TrackPointExtension>
        </extensions>
      </trkpt>
      <trkpt lat="42.4891514517366886138916015625" lon="20.1788138039410114288330078125">
        <ele>1890.800048828125</ele>
        <time>2026-06-20T11:16:49.000Z</time>
        <extensions>
          <ns3:TrackPointExtension>
            <ns3:atemp>23.0</ns3:atemp>
          </ns3:TrackPointExtension>
        </extensions>
      </trkpt>
      <trkpt lat="42.4891514517366886138916015625" lon="20.1788138039410114288330078125">
        <ele>1890.800048828125</ele>
        <time>2026-06-20T11:16:50.000Z</time>
        <extensions>
          <ns3:TrackPointExtension>
            <ns3:atemp>23.0</ns3:atemp>
          </ns3:TrackPointExtension>
        </extensions>
      </trkpt>
      <trkpt lat="42.4891514517366886138916015625" lon="20.1788138039410114288330078125">
        <ele>1890.800048828125</ele>
        <time>2026-06-20T11:16:51.000Z</time>
        <extensions>
          <ns3:TrackPointExtension>
            <ns3:atemp>23.0</ns3:atemp>
          </ns3:TrackPointExtension>
        </extensions>
      </trkpt>
      <trkpt lat="42.4891514517366886138916015625" lon="20.1788138039410114288330078125">
        <ele>1890.800048828125</ele>
        <time>2026-06-20T11:16:52.000Z</time>
        <extensions>
          <ns3:TrackPointExtension>
            <ns3:atemp>23.0</ns3:atemp>
          </ns3:TrackPointExtension>
        </extensions>
      </trkpt>
      <trkpt lat="42.4891514517366886138916015625" lon="20.1788138039410114288330078125">
        <ele>1890.800048828125</ele>
        <time>2026-06-20T11:16:53.000Z</time>
        <extensions>
          <ns3:TrackPointExtension>
            <ns3:atemp>23.0</ns3:atemp>
          </ns3:TrackPointExtension>
        </extensions>
      </trkpt>
      <trkpt lat="42.4891514517366886138916015625" lon="20.1788138039410114288330078125">
        <ele>1890.800048828125</ele>
        <time>2026-06-20T11:16:54.000Z</time>
        <extensions>
          <ns3:TrackPointExtension>
            <ns3:atemp>23.0</ns3:atemp>
          </ns3:TrackPointExtension>
        </extensions>
      </trkpt>
      <trkpt lat="42.4891514517366886138916015625" lon="20.1788138039410114288330078125">
        <ele>1890.800048828125</ele>
        <time>2026-06-20T11:16:55.000Z</time>
        <extensions>
          <ns3:TrackPointExtension>
            <ns3:atemp>23.0</ns3:atemp>
          </ns3:TrackPointExtension>
        </extensions>
      </trkpt>
      <trkpt lat="42.4891514517366886138916015625" lon="20.1788138039410114288330078125">
        <ele>1890.800048828125</ele>
        <time>2026-06-20T11:16:56.000Z</time>
        <extensions>
          <ns3:TrackPointExtension>
            <ns3:atemp>23.0</ns3:atemp>
          </ns3:TrackPointExtension>
        </extensions>
      </trkpt>
      <trkpt lat="42.4891514517366886138916015625" lon="20.1788138039410114288330078125">
        <ele>1890.800048828125</ele>
        <time>2026-06-20T11:16:57.000Z</time>
        <extensions>
          <ns3:TrackPointExtension>
            <ns3:atemp>23.0</ns3:atemp>
          </ns3:TrackPointExtension>
        </extensions>
      </trkpt>
      <trkpt lat="42.4891514517366886138916015625" lon="20.1788138039410114288330078125">
        <ele>1890.800048828125</ele>
        <time>2026-06-20T11:16:58.000Z</time>
        <extensions>
          <ns3:TrackPointExtension>
            <ns3:atemp>23.0</ns3:atemp>
          </ns3:TrackPointExtension>
        </extensions>
      </trkpt>
      <trkpt lat="42.4891514517366886138916015625" lon="20.1788138039410114288330078125">
        <ele>1890.800048828125</ele>
        <time>2026-06-20T11:16:59.000Z</time>
        <extensions>
          <ns3:TrackPointExtension>
            <ns3:atemp>23.0</ns3:atemp>
          </ns3:TrackPointExtension>
        </extensions>
      </trkpt>
      <trkpt lat="42.4891514517366886138916015625" lon="20.1788138039410114288330078125">
        <ele>1890.800048828125</ele>
        <time>2026-06-20T11:17:00.000Z</time>
        <extensions>
          <ns3:TrackPointExtension>
            <ns3:atemp>23.0</ns3:atemp>
          </ns3:TrackPointExtension>
        </extensions>
      </trkpt>
      <trkpt lat="42.4891514517366886138916015625" lon="20.1788138039410114288330078125">
        <ele>1890.800048828125</ele>
        <time>2026-06-20T11:17:01.000Z</time>
        <extensions>
          <ns3:TrackPointExtension>
            <ns3:atemp>23.0</ns3:atemp>
          </ns3:TrackPointExtension>
        </extensions>
      </trkpt>
      <trkpt lat="42.4891514517366886138916015625" lon="20.1788138039410114288330078125">
        <ele>1890.800048828125</ele>
        <time>2026-06-20T11:17:02.000Z</time>
        <extensions>
          <ns3:TrackPointExtension>
            <ns3:atemp>23.0</ns3:atemp>
          </ns3:TrackPointExtension>
        </extensions>
      </trkpt>
      <trkpt lat="42.4891514517366886138916015625" lon="20.1788138039410114288330078125">
        <ele>1890.800048828125</ele>
        <time>2026-06-20T11:17:03.000Z</time>
        <extensions>
          <ns3:TrackPointExtension>
            <ns3:atemp>23.0</ns3:atemp>
          </ns3:TrackPointExtension>
        </extensions>
      </trkpt>
      <trkpt lat="42.4891514517366886138916015625" lon="20.1788138039410114288330078125">
        <ele>1890.800048828125</ele>
        <time>2026-06-20T11:17:04.000Z</time>
        <extensions>
          <ns3:TrackPointExtension>
            <ns3:atemp>23.0</ns3:atemp>
          </ns3:TrackPointExtension>
        </extensions>
      </trkpt>
      <trkpt lat="42.4891514517366886138916015625" lon="20.1788138039410114288330078125">
        <ele>1890.800048828125</ele>
        <time>2026-06-20T11:17:05.000Z</time>
        <extensions>
          <ns3:TrackPointExtension>
            <ns3:atemp>23.0</ns3:atemp>
          </ns3:TrackPointExtension>
        </extensions>
      </trkpt>
      <trkpt lat="42.4891514517366886138916015625" lon="20.1788138039410114288330078125">
        <ele>1890.800048828125</ele>
        <time>2026-06-20T11:17:06.000Z</time>
        <extensions>
          <ns3:TrackPointExtension>
            <ns3:atemp>23.0</ns3:atemp>
          </ns3:TrackPointExtension>
        </extensions>
      </trkpt>
      <trkpt lat="42.4891514517366886138916015625" lon="20.1788138039410114288330078125">
        <ele>1890.800048828125</ele>
        <time>2026-06-20T11:17:07.000Z</time>
        <extensions>
          <ns3:TrackPointExtension>
            <ns3:atemp>23.0</ns3:atemp>
          </ns3:TrackPointExtension>
        </extensions>
      </trkpt>
      <trkpt lat="42.4891514517366886138916015625" lon="20.1788138039410114288330078125">
        <ele>1890.800048828125</ele>
        <time>2026-06-20T11:17:08.000Z</time>
        <extensions>
          <ns3:TrackPointExtension>
            <ns3:atemp>23.0</ns3:atemp>
          </ns3:TrackPointExtension>
        </extensions>
      </trkpt>
      <trkpt lat="42.4891514517366886138916015625" lon="20.1788138039410114288330078125">
        <ele>1890.800048828125</ele>
        <time>2026-06-20T11:17:09.000Z</time>
        <extensions>
          <ns3:TrackPointExtension>
            <ns3:atemp>23.0</ns3:atemp>
          </ns3:TrackPointExtension>
        </extensions>
      </trkpt>
      <trkpt lat="42.4891514517366886138916015625" lon="20.1788138039410114288330078125">
        <ele>1890.800048828125</ele>
        <time>2026-06-20T11:17:10.000Z</time>
        <extensions>
          <ns3:TrackPointExtension>
            <ns3:atemp>23.0</ns3:atemp>
          </ns3:TrackPointExtension>
        </extensions>
      </trkpt>
      <trkpt lat="42.4891514517366886138916015625" lon="20.1788138039410114288330078125">
        <ele>1890.800048828125</ele>
        <time>2026-06-20T11:17:11.000Z</time>
        <extensions>
          <ns3:TrackPointExtension>
            <ns3:atemp>23.0</ns3:atemp>
          </ns3:TrackPointExtension>
        </extensions>
      </trkpt>
      <trkpt lat="42.4891514517366886138916015625" lon="20.1788138039410114288330078125">
        <ele>1890.800048828125</ele>
        <time>2026-06-20T11:17:12.000Z</time>
        <extensions>
          <ns3:TrackPointExtension>
            <ns3:atemp>23.0</ns3:atemp>
          </ns3:TrackPointExtension>
        </extensions>
      </trkpt>
      <trkpt lat="42.4891514517366886138916015625" lon="20.1788138039410114288330078125">
        <ele>1890.800048828125</ele>
        <time>2026-06-20T11:17:13.000Z</time>
        <extensions>
          <ns3:TrackPointExtension>
            <ns3:atemp>23.0</ns3:atemp>
          </ns3:TrackPointExtension>
        </extensions>
      </trkpt>
      <trkpt lat="42.4891514517366886138916015625" lon="20.1788138039410114288330078125">
        <ele>1890.800048828125</ele>
        <time>2026-06-20T11:17:14.000Z</time>
        <extensions>
          <ns3:TrackPointExtension>
            <ns3:atemp>23.0</ns3:atemp>
          </ns3:TrackPointExtension>
        </extensions>
      </trkpt>
      <trkpt lat="42.4891514517366886138916015625" lon="20.1788138039410114288330078125">
        <ele>1890.800048828125</ele>
        <time>2026-06-20T11:17:15.000Z</time>
        <extensions>
          <ns3:TrackPointExtension>
            <ns3:atemp>23.0</ns3:atemp>
          </ns3:TrackPointExtension>
        </extensions>
      </trkpt>
      <trkpt lat="42.4891514517366886138916015625" lon="20.1788138039410114288330078125">
        <ele>1890.800048828125</ele>
        <time>2026-06-20T11:17:16.000Z</time>
        <extensions>
          <ns3:TrackPointExtension>
            <ns3:atemp>23.0</ns3:atemp>
          </ns3:TrackPointExtension>
        </extensions>
      </trkpt>
      <trkpt lat="42.4891514517366886138916015625" lon="20.1788138039410114288330078125">
        <ele>1890.800048828125</ele>
        <time>2026-06-20T11:17:17.000Z</time>
        <extensions>
          <ns3:TrackPointExtension>
            <ns3:atemp>23.0</ns3:atemp>
          </ns3:TrackPointExtension>
        </extensions>
      </trkpt>
      <trkpt lat="42.4891514517366886138916015625" lon="20.1788138039410114288330078125">
        <ele>1890.800048828125</ele>
        <time>2026-06-20T11:17:18.000Z</time>
        <extensions>
          <ns3:TrackPointExtension>
            <ns3:atemp>23.0</ns3:atemp>
          </ns3:TrackPointExtension>
        </extensions>
      </trkpt>
      <trkpt lat="42.4891514517366886138916015625" lon="20.1788138039410114288330078125">
        <ele>1890.800048828125</ele>
        <time>2026-06-20T11:17:19.000Z</time>
        <extensions>
          <ns3:TrackPointExtension>
            <ns3:atemp>23.0</ns3:atemp>
          </ns3:TrackPointExtension>
        </extensions>
      </trkpt>
      <trkpt lat="42.4891514517366886138916015625" lon="20.1788138039410114288330078125">
        <ele>1890.800048828125</ele>
        <time>2026-06-20T11:17:20.000Z</time>
        <extensions>
          <ns3:TrackPointExtension>
            <ns3:atemp>23.0</ns3:atemp>
          </ns3:TrackPointExtension>
        </extensions>
      </trkpt>
      <trkpt lat="42.4891514517366886138916015625" lon="20.1788138039410114288330078125">
        <ele>1890.800048828125</ele>
        <time>2026-06-20T11:17:21.000Z</time>
        <extensions>
          <ns3:TrackPointExtension>
            <ns3:atemp>23.0</ns3:atemp>
          </ns3:TrackPointExtension>
        </extensions>
      </trkpt>
      <trkpt lat="42.4891514517366886138916015625" lon="20.1788138039410114288330078125">
        <ele>1890.800048828125</ele>
        <time>2026-06-20T11:17:22.000Z</time>
        <extensions>
          <ns3:TrackPointExtension>
            <ns3:atemp>23.0</ns3:atemp>
          </ns3:TrackPointExtension>
        </extensions>
      </trkpt>
      <trkpt lat="42.4891514517366886138916015625" lon="20.1788138039410114288330078125">
        <ele>1890.800048828125</ele>
        <time>2026-06-20T11:17:23.000Z</time>
        <extensions>
          <ns3:TrackPointExtension>
            <ns3:atemp>23.0</ns3:atemp>
          </ns3:TrackPointExtension>
        </extensions>
      </trkpt>
      <trkpt lat="42.4891514517366886138916015625" lon="20.1788138039410114288330078125">
        <ele>1890.800048828125</ele>
        <time>2026-06-20T11:17:24.000Z</time>
        <extensions>
          <ns3:TrackPointExtension>
            <ns3:atemp>23.0</ns3:atemp>
          </ns3:TrackPointExtension>
        </extensions>
      </trkpt>
      <trkpt lat="42.4891514517366886138916015625" lon="20.1788138039410114288330078125">
        <ele>1890.800048828125</ele>
        <time>2026-06-20T11:17:25.000Z</time>
        <extensions>
          <ns3:TrackPointExtension>
            <ns3:atemp>23.0</ns3:atemp>
          </ns3:TrackPointExtension>
        </extensions>
      </trkpt>
      <trkpt lat="42.4891514517366886138916015625" lon="20.1788138039410114288330078125">
        <ele>1890.800048828125</ele>
        <time>2026-06-20T11:17:26.000Z</time>
        <extensions>
          <ns3:TrackPointExtension>
            <ns3:atemp>23.0</ns3:atemp>
          </ns3:TrackPointExtension>
        </extensions>
      </trkpt>
      <trkpt lat="42.4891514517366886138916015625" lon="20.1788138039410114288330078125">
        <ele>1890.800048828125</ele>
        <time>2026-06-20T11:17:27.000Z</time>
        <extensions>
          <ns3:TrackPointExtension>
            <ns3:atemp>23.0</ns3:atemp>
          </ns3:TrackPointExtension>
        </extensions>
      </trkpt>
      <trkpt lat="42.4891514517366886138916015625" lon="20.1788138039410114288330078125">
        <ele>1890.800048828125</ele>
        <time>2026-06-20T11:17:28.000Z</time>
        <extensions>
          <ns3:TrackPointExtension>
            <ns3:atemp>23.0</ns3:atemp>
          </ns3:TrackPointExtension>
        </extensions>
      </trkpt>
      <trkpt lat="42.4891514517366886138916015625" lon="20.1788138039410114288330078125">
        <ele>1890.800048828125</ele>
        <time>2026-06-20T11:17:29.000Z</time>
        <extensions>
          <ns3:TrackPointExtension>
            <ns3:atemp>23.0</ns3:atemp>
          </ns3:TrackPointExtension>
        </extensions>
      </trkpt>
      <trkpt lat="42.4891514517366886138916015625" lon="20.1788138039410114288330078125">
        <ele>1890.800048828125</ele>
        <time>2026-06-20T11:17:30.000Z</time>
        <extensions>
          <ns3:TrackPointExtension>
            <ns3:atemp>23.0</ns3:atemp>
          </ns3:TrackPointExtension>
        </extensions>
      </trkpt>
      <trkpt lat="42.4891514517366886138916015625" lon="20.1788138039410114288330078125">
        <ele>1890.800048828125</ele>
        <time>2026-06-20T11:17:31.000Z</time>
        <extensions>
          <ns3:TrackPointExtension>
            <ns3:atemp>23.0</ns3:atemp>
          </ns3:TrackPointExtension>
        </extensions>
      </trkpt>
      <trkpt lat="42.4891514517366886138916015625" lon="20.1788138039410114288330078125">
        <ele>1890.800048828125</ele>
        <time>2026-06-20T11:17:32.000Z</time>
        <extensions>
          <ns3:TrackPointExtension>
            <ns3:atemp>23.0</ns3:atemp>
          </ns3:TrackPointExtension>
        </extensions>
      </trkpt>
      <trkpt lat="42.4891514517366886138916015625" lon="20.1788138039410114288330078125">
        <ele>1890.800048828125</ele>
        <time>2026-06-20T11:17:33.000Z</time>
        <extensions>
          <ns3:TrackPointExtension>
            <ns3:atemp>23.0</ns3:atemp>
          </ns3:TrackPointExtension>
        </extensions>
      </trkpt>
      <trkpt lat="42.4891514517366886138916015625" lon="20.1788138039410114288330078125">
        <ele>1890.800048828125</ele>
        <time>2026-06-20T11:17:34.000Z</time>
        <extensions>
          <ns3:TrackPointExtension>
            <ns3:atemp>23.0</ns3:atemp>
          </ns3:TrackPointExtension>
        </extensions>
      </trkpt>
      <trkpt lat="42.4891514517366886138916015625" lon="20.1788138039410114288330078125">
        <ele>1890.800048828125</ele>
        <time>2026-06-20T11:17:35.000Z</time>
        <extensions>
          <ns3:TrackPointExtension>
            <ns3:atemp>23.0</ns3:atemp>
          </ns3:TrackPointExtension>
        </extensions>
      </trkpt>
      <trkpt lat="42.4891514517366886138916015625" lon="20.1788138039410114288330078125">
        <ele>1890.800048828125</ele>
        <time>2026-06-20T11:17:36.000Z</time>
        <extensions>
          <ns3:TrackPointExtension>
            <ns3:atemp>23.0</ns3:atemp>
          </ns3:TrackPointExtension>
        </extensions>
      </trkpt>
      <trkpt lat="42.4891514517366886138916015625" lon="20.1788138039410114288330078125">
        <ele>1890.800048828125</ele>
        <time>2026-06-20T11:17:37.000Z</time>
        <extensions>
          <ns3:TrackPointExtension>
            <ns3:atemp>23.0</ns3:atemp>
          </ns3:TrackPointExtension>
        </extensions>
      </trkpt>
      <trkpt lat="42.4891514517366886138916015625" lon="20.1788138039410114288330078125">
        <ele>1890.800048828125</ele>
        <time>2026-06-20T11:17:38.000Z</time>
        <extensions>
          <ns3:TrackPointExtension>
            <ns3:atemp>23.0</ns3:atemp>
          </ns3:TrackPointExtension>
        </extensions>
      </trkpt>
      <trkpt lat="42.4891514517366886138916015625" lon="20.1788138039410114288330078125">
        <ele>1890.800048828125</ele>
        <time>2026-06-20T11:17:39.000Z</time>
        <extensions>
          <ns3:TrackPointExtension>
            <ns3:atemp>23.0</ns3:atemp>
          </ns3:TrackPointExtension>
        </extensions>
      </trkpt>
      <trkpt lat="42.4891514517366886138916015625" lon="20.1788138039410114288330078125">
        <ele>1890.800048828125</ele>
        <time>2026-06-20T11:17:40.000Z</time>
        <extensions>
          <ns3:TrackPointExtension>
            <ns3:atemp>23.0</ns3:atemp>
          </ns3:TrackPointExtension>
        </extensions>
      </trkpt>
      <trkpt lat="42.4891514517366886138916015625" lon="20.1788138039410114288330078125">
        <ele>1890.800048828125</ele>
        <time>2026-06-20T11:17:41.000Z</time>
        <extensions>
          <ns3:TrackPointExtension>
            <ns3:atemp>23.0</ns3:atemp>
          </ns3:TrackPointExtension>
        </extensions>
      </trkpt>
      <trkpt lat="42.4891514517366886138916015625" lon="20.1788138039410114288330078125">
        <ele>1890.800048828125</ele>
        <time>2026-06-20T11:17:42.000Z</time>
        <extensions>
          <ns3:TrackPointExtension>
            <ns3:atemp>23.0</ns3:atemp>
          </ns3:TrackPointExtension>
        </extensions>
      </trkpt>
      <trkpt lat="42.4891514517366886138916015625" lon="20.1788138039410114288330078125">
        <ele>1890.800048828125</ele>
        <time>2026-06-20T11:17:43.000Z</time>
        <extensions>
          <ns3:TrackPointExtension>
            <ns3:atemp>23.0</ns3:atemp>
          </ns3:TrackPointExtension>
        </extensions>
      </trkpt>
      <trkpt lat="42.4891514517366886138916015625" lon="20.1788138039410114288330078125">
        <ele>1890.800048828125</ele>
        <time>2026-06-20T11:17:44.000Z</time>
        <extensions>
          <ns3:TrackPointExtension>
            <ns3:atemp>23.0</ns3:atemp>
          </ns3:TrackPointExtension>
        </extensions>
      </trkpt>
      <trkpt lat="42.4891514517366886138916015625" lon="20.1788138039410114288330078125">
        <ele>1890.800048828125</ele>
        <time>2026-06-20T11:17:45.000Z</time>
        <extensions>
          <ns3:TrackPointExtension>
            <ns3:atemp>23.0</ns3:atemp>
          </ns3:TrackPointExtension>
        </extensions>
      </trkpt>
      <trkpt lat="42.4891514517366886138916015625" lon="20.1788138039410114288330078125">
        <ele>1890.800048828125</ele>
        <time>2026-06-20T11:17:46.000Z</time>
        <extensions>
          <ns3:TrackPointExtension>
            <ns3:atemp>23.0</ns3:atemp>
          </ns3:TrackPointExtension>
        </extensions>
      </trkpt>
      <trkpt lat="42.4891514517366886138916015625" lon="20.1788138039410114288330078125">
        <ele>1890.800048828125</ele>
        <time>2026-06-20T11:17:47.000Z</time>
        <extensions>
          <ns3:TrackPointExtension>
            <ns3:atemp>23.0</ns3:atemp>
          </ns3:TrackPointExtension>
        </extensions>
      </trkpt>
      <trkpt lat="42.4891514517366886138916015625" lon="20.1788138039410114288330078125">
        <ele>1890.800048828125</ele>
        <time>2026-06-20T11:17:48.000Z</time>
        <extensions>
          <ns3:TrackPointExtension>
            <ns3:atemp>23.0</ns3:atemp>
          </ns3:TrackPointExtension>
        </extensions>
      </trkpt>
      <trkpt lat="42.4891514517366886138916015625" lon="20.1788138039410114288330078125">
        <ele>1890.800048828125</ele>
        <time>2026-06-20T11:17:49.000Z</time>
        <extensions>
          <ns3:TrackPointExtension>
            <ns3:atemp>23.0</ns3:atemp>
          </ns3:TrackPointExtension>
        </extensions>
      </trkpt>
      <trkpt lat="42.4891514517366886138916015625" lon="20.1788138039410114288330078125">
        <ele>1890.800048828125</ele>
        <time>2026-06-20T11:17:50.000Z</time>
        <extensions>
          <ns3:TrackPointExtension>
            <ns3:atemp>23.0</ns3:atemp>
          </ns3:TrackPointExtension>
        </extensions>
      </trkpt>
      <trkpt lat="42.4891514517366886138916015625" lon="20.1788138039410114288330078125">
        <ele>1890.800048828125</ele>
        <time>2026-06-20T11:17:51.000Z</time>
        <extensions>
          <ns3:TrackPointExtension>
            <ns3:atemp>23.0</ns3:atemp>
          </ns3:TrackPointExtension>
        </extensions>
      </trkpt>
      <trkpt lat="42.4891514517366886138916015625" lon="20.1788138039410114288330078125">
        <ele>1890.800048828125</ele>
        <time>2026-06-20T11:17:52.000Z</time>
        <extensions>
          <ns3:TrackPointExtension>
            <ns3:atemp>23.0</ns3:atemp>
          </ns3:TrackPointExtension>
        </extensions>
      </trkpt>
      <trkpt lat="42.4891514517366886138916015625" lon="20.1788138039410114288330078125">
        <ele>1890.800048828125</ele>
        <time>2026-06-20T11:17:53.000Z</time>
        <extensions>
          <ns3:TrackPointExtension>
            <ns3:atemp>23.0</ns3:atemp>
          </ns3:TrackPointExtension>
        </extensions>
      </trkpt>
      <trkpt lat="42.4891514517366886138916015625" lon="20.1788138039410114288330078125">
        <ele>1890.800048828125</ele>
        <time>2026-06-20T11:17:54.000Z</time>
        <extensions>
          <ns3:TrackPointExtension>
            <ns3:atemp>23.0</ns3:atemp>
          </ns3:TrackPointExtension>
        </extensions>
      </trkpt>
      <trkpt lat="42.4891514517366886138916015625" lon="20.1788138039410114288330078125">
        <ele>1890.800048828125</ele>
        <time>2026-06-20T11:17:55.000Z</time>
        <extensions>
          <ns3:TrackPointExtension>
            <ns3:atemp>23.0</ns3:atemp>
          </ns3:TrackPointExtension>
        </extensions>
      </trkpt>
      <trkpt lat="42.4891514517366886138916015625" lon="20.1788138039410114288330078125">
        <ele>1890.800048828125</ele>
        <time>2026-06-20T11:17:56.000Z</time>
        <extensions>
          <ns3:TrackPointExtension>
            <ns3:atemp>23.0</ns3:atemp>
          </ns3:TrackPointExtension>
        </extensions>
      </trkpt>
      <trkpt lat="42.4891514517366886138916015625" lon="20.1788138039410114288330078125">
        <ele>1890.800048828125</ele>
        <time>2026-06-20T11:17:57.000Z</time>
        <extensions>
          <ns3:TrackPointExtension>
            <ns3:atemp>23.0</ns3:atemp>
          </ns3:TrackPointExtension>
        </extensions>
      </trkpt>
      <trkpt lat="42.4891514517366886138916015625" lon="20.1788138039410114288330078125">
        <ele>1890.800048828125</ele>
        <time>2026-06-20T11:17:58.000Z</time>
        <extensions>
          <ns3:TrackPointExtension>
            <ns3:atemp>23.0</ns3:atemp>
          </ns3:TrackPointExtension>
        </extensions>
      </trkpt>
      <trkpt lat="42.4891514517366886138916015625" lon="20.1788138039410114288330078125">
        <ele>1890.800048828125</ele>
        <time>2026-06-20T11:17:59.000Z</time>
        <extensions>
          <ns3:TrackPointExtension>
            <ns3:atemp>23.0</ns3:atemp>
          </ns3:TrackPointExtension>
        </extensions>
      </trkpt>
      <trkpt lat="42.4891514517366886138916015625" lon="20.1788138039410114288330078125">
        <ele>1890.800048828125</ele>
        <time>2026-06-20T11:18:00.000Z</time>
        <extensions>
          <ns3:TrackPointExtension>
            <ns3:atemp>23.0</ns3:atemp>
          </ns3:TrackPointExtension>
        </extensions>
      </trkpt>
      <trkpt lat="42.4891514517366886138916015625" lon="20.1788138039410114288330078125">
        <ele>1890.800048828125</ele>
        <time>2026-06-20T11:18:01.000Z</time>
        <extensions>
          <ns3:TrackPointExtension>
            <ns3:atemp>23.0</ns3:atemp>
          </ns3:TrackPointExtension>
        </extensions>
      </trkpt>
      <trkpt lat="42.4891514517366886138916015625" lon="20.1788138039410114288330078125">
        <ele>1890.800048828125</ele>
        <time>2026-06-20T11:18:02.000Z</time>
        <extensions>
          <ns3:TrackPointExtension>
            <ns3:atemp>23.0</ns3:atemp>
          </ns3:TrackPointExtension>
        </extensions>
      </trkpt>
      <trkpt lat="42.4891514517366886138916015625" lon="20.1788138039410114288330078125">
        <ele>1890.800048828125</ele>
        <time>2026-06-20T11:18:03.000Z</time>
        <extensions>
          <ns3:TrackPointExtension>
            <ns3:atemp>23.0</ns3:atemp>
          </ns3:TrackPointExtension>
        </extensions>
      </trkpt>
      <trkpt lat="42.4891514517366886138916015625" lon="20.1788138039410114288330078125">
        <ele>1890.800048828125</ele>
        <time>2026-06-20T11:18:04.000Z</time>
        <extensions>
          <ns3:TrackPointExtension>
            <ns3:atemp>23.0</ns3:atemp>
          </ns3:TrackPointExtension>
        </extensions>
      </trkpt>
      <trkpt lat="42.4891514517366886138916015625" lon="20.1788138039410114288330078125">
        <ele>1890.800048828125</ele>
        <time>2026-06-20T11:18:05.000Z</time>
        <extensions>
          <ns3:TrackPointExtension>
            <ns3:atemp>23.0</ns3:atemp>
          </ns3:TrackPointExtension>
        </extensions>
      </trkpt>
      <trkpt lat="42.4891514517366886138916015625" lon="20.1788138039410114288330078125">
        <ele>1890.800048828125</ele>
        <time>2026-06-20T11:18:06.000Z</time>
        <extensions>
          <ns3:TrackPointExtension>
            <ns3:atemp>23.0</ns3:atemp>
          </ns3:TrackPointExtension>
        </extensions>
      </trkpt>
      <trkpt lat="42.4891514517366886138916015625" lon="20.1788138039410114288330078125">
        <ele>1890.800048828125</ele>
        <time>2026-06-20T11:18:07.000Z</time>
        <extensions>
          <ns3:TrackPointExtension>
            <ns3:atemp>23.0</ns3:atemp>
          </ns3:TrackPointExtension>
        </extensions>
      </trkpt>
      <trkpt lat="42.4891514517366886138916015625" lon="20.1788138039410114288330078125">
        <ele>1890.800048828125</ele>
        <time>2026-06-20T11:18:08.000Z</time>
        <extensions>
          <ns3:TrackPointExtension>
            <ns3:atemp>23.0</ns3:atemp>
          </ns3:TrackPointExtension>
        </extensions>
      </trkpt>
      <trkpt lat="42.4891514517366886138916015625" lon="20.1788138039410114288330078125">
        <ele>1890.800048828125</ele>
        <time>2026-06-20T11:18:09.000Z</time>
        <extensions>
          <ns3:TrackPointExtension>
            <ns3:atemp>23.0</ns3:atemp>
          </ns3:TrackPointExtension>
        </extensions>
      </trkpt>
      <trkpt lat="42.4891514517366886138916015625" lon="20.1788138039410114288330078125">
        <ele>1890.800048828125</ele>
        <time>2026-06-20T11:18:10.000Z</time>
        <extensions>
          <ns3:TrackPointExtension>
            <ns3:atemp>23.0</ns3:atemp>
          </ns3:TrackPointExtension>
        </extensions>
      </trkpt>
      <trkpt lat="42.4891514517366886138916015625" lon="20.1788138039410114288330078125">
        <ele>1890.800048828125</ele>
        <time>2026-06-20T11:18:11.000Z</time>
        <extensions>
          <ns3:TrackPointExtension>
            <ns3:atemp>23.0</ns3:atemp>
          </ns3:TrackPointExtension>
        </extensions>
      </trkpt>
      <trkpt lat="42.4891514517366886138916015625" lon="20.1788138039410114288330078125">
        <ele>1890.800048828125</ele>
        <time>2026-06-20T11:18:12.000Z</time>
        <extensions>
          <ns3:TrackPointExtension>
            <ns3:atemp>23.0</ns3:atemp>
          </ns3:TrackPointExtension>
        </extensions>
      </trkpt>
      <trkpt lat="42.4891514517366886138916015625" lon="20.1788138039410114288330078125">
        <ele>1890.800048828125</ele>
        <time>2026-06-20T11:18:13.000Z</time>
        <extensions>
          <ns3:TrackPointExtension>
            <ns3:atemp>23.0</ns3:atemp>
          </ns3:TrackPointExtension>
        </extensions>
      </trkpt>
      <trkpt lat="42.4891514517366886138916015625" lon="20.1788138039410114288330078125">
        <ele>1890.800048828125</ele>
        <time>2026-06-20T11:18:14.000Z</time>
        <extensions>
          <ns3:TrackPointExtension>
            <ns3:atemp>23.0</ns3:atemp>
          </ns3:TrackPointExtension>
        </extensions>
      </trkpt>
      <trkpt lat="42.4891514517366886138916015625" lon="20.1788138039410114288330078125">
        <ele>1890.800048828125</ele>
        <time>2026-06-20T11:18:15.000Z</time>
        <extensions>
          <ns3:TrackPointExtension>
            <ns3:atemp>23.0</ns3:atemp>
          </ns3:TrackPointExtension>
        </extensions>
      </trkpt>
      <trkpt lat="42.4891514517366886138916015625" lon="20.1788138039410114288330078125">
        <ele>1890.800048828125</ele>
        <time>2026-06-20T11:18:16.000Z</time>
        <extensions>
          <ns3:TrackPointExtension>
            <ns3:atemp>23.0</ns3:atemp>
          </ns3:TrackPointExtension>
        </extensions>
      </trkpt>
      <trkpt lat="42.4891514517366886138916015625" lon="20.1788138039410114288330078125">
        <ele>1890.800048828125</ele>
        <time>2026-06-20T11:18:17.000Z</time>
        <extensions>
          <ns3:TrackPointExtension>
            <ns3:atemp>23.0</ns3:atemp>
          </ns3:TrackPointExtension>
        </extensions>
      </trkpt>
      <trkpt lat="42.4891514517366886138916015625" lon="20.1788138039410114288330078125">
        <ele>1890.800048828125</ele>
        <time>2026-06-20T11:18:18.000Z</time>
        <extensions>
          <ns3:TrackPointExtension>
            <ns3:atemp>23.0</ns3:atemp>
          </ns3:TrackPointExtension>
        </extensions>
      </trkpt>
      <trkpt lat="42.4891514517366886138916015625" lon="20.1788138039410114288330078125">
        <ele>1890.800048828125</ele>
        <time>2026-06-20T11:18:19.000Z</time>
        <extensions>
          <ns3:TrackPointExtension>
            <ns3:atemp>23.0</ns3:atemp>
          </ns3:TrackPointExtension>
        </extensions>
      </trkpt>
      <trkpt lat="42.4891514517366886138916015625" lon="20.1788138039410114288330078125">
        <ele>1890.800048828125</ele>
        <time>2026-06-20T11:18:20.000Z</time>
        <extensions>
          <ns3:TrackPointExtension>
            <ns3:atemp>23.0</ns3:atemp>
          </ns3:TrackPointExtension>
        </extensions>
      </trkpt>
      <trkpt lat="42.4891514517366886138916015625" lon="20.1788138039410114288330078125">
        <ele>1890.800048828125</ele>
        <time>2026-06-20T11:18:21.000Z</time>
        <extensions>
          <ns3:TrackPointExtension>
            <ns3:atemp>23.0</ns3:atemp>
          </ns3:TrackPointExtension>
        </extensions>
      </trkpt>
      <trkpt lat="42.4891514517366886138916015625" lon="20.1788138039410114288330078125">
        <ele>1890.800048828125</ele>
        <time>2026-06-20T11:18:22.000Z</time>
        <extensions>
          <ns3:TrackPointExtension>
            <ns3:atemp>23.0</ns3:atemp>
          </ns3:TrackPointExtension>
        </extensions>
      </trkpt>
      <trkpt lat="42.4891514517366886138916015625" lon="20.1788138039410114288330078125">
        <ele>1890.800048828125</ele>
        <time>2026-06-20T11:18:23.000Z</time>
        <extensions>
          <ns3:TrackPointExtension>
            <ns3:atemp>23.0</ns3:atemp>
          </ns3:TrackPointExtension>
        </extensions>
      </trkpt>
      <trkpt lat="42.4891514517366886138916015625" lon="20.1788138039410114288330078125">
        <ele>1890.800048828125</ele>
        <time>2026-06-20T11:18:24.000Z</time>
        <extensions>
          <ns3:TrackPointExtension>
            <ns3:atemp>23.0</ns3:atemp>
          </ns3:TrackPointExtension>
        </extensions>
      </trkpt>
      <trkpt lat="42.4891514517366886138916015625" lon="20.1788138039410114288330078125">
        <ele>1890.800048828125</ele>
        <time>2026-06-20T11:18:25.000Z</time>
        <extensions>
          <ns3:TrackPointExtension>
            <ns3:atemp>23.0</ns3:atemp>
          </ns3:TrackPointExtension>
        </extensions>
      </trkpt>
      <trkpt lat="42.4891514517366886138916015625" lon="20.1788138039410114288330078125">
        <ele>1890.800048828125</ele>
        <time>2026-06-20T11:18:26.000Z</time>
        <extensions>
          <ns3:TrackPointExtension>
            <ns3:atemp>23.0</ns3:atemp>
          </ns3:TrackPointExtension>
        </extensions>
      </trkpt>
      <trkpt lat="42.4891514517366886138916015625" lon="20.1788138039410114288330078125">
        <ele>1890.800048828125</ele>
        <time>2026-06-20T11:18:27.000Z</time>
        <extensions>
          <ns3:TrackPointExtension>
            <ns3:atemp>23.0</ns3:atemp>
          </ns3:TrackPointExtension>
        </extensions>
      </trkpt>
      <trkpt lat="42.4891514517366886138916015625" lon="20.1788138039410114288330078125">
        <ele>1890.800048828125</ele>
        <time>2026-06-20T11:18:28.000Z</time>
        <extensions>
          <ns3:TrackPointExtension>
            <ns3:atemp>23.0</ns3:atemp>
          </ns3:TrackPointExtension>
        </extensions>
      </trkpt>
      <trkpt lat="42.4891514517366886138916015625" lon="20.1788138039410114288330078125">
        <ele>1890.800048828125</ele>
        <time>2026-06-20T11:18:29.000Z</time>
        <extensions>
          <ns3:TrackPointExtension>
            <ns3:atemp>23.0</ns3:atemp>
          </ns3:TrackPointExtension>
        </extensions>
      </trkpt>
      <trkpt lat="42.4891514517366886138916015625" lon="20.1788138039410114288330078125">
        <ele>1890.800048828125</ele>
        <time>2026-06-20T11:18:30.000Z</time>
        <extensions>
          <ns3:TrackPointExtension>
            <ns3:atemp>23.0</ns3:atemp>
          </ns3:TrackPointExtension>
        </extensions>
      </trkpt>
      <trkpt lat="42.4891514517366886138916015625" lon="20.1788138039410114288330078125">
        <ele>1890.800048828125</ele>
        <time>2026-06-20T11:18:31.000Z</time>
        <extensions>
          <ns3:TrackPointExtension>
            <ns3:atemp>23.0</ns3:atemp>
          </ns3:TrackPointExtension>
        </extensions>
      </trkpt>
      <trkpt lat="42.4891514517366886138916015625" lon="20.1788138039410114288330078125">
        <ele>1890.800048828125</ele>
        <time>2026-06-20T11:18:32.000Z</time>
        <extensions>
          <ns3:TrackPointExtension>
            <ns3:atemp>23.0</ns3:atemp>
          </ns3:TrackPointExtension>
        </extensions>
      </trkpt>
      <trkpt lat="42.4891514517366886138916015625" lon="20.1788138039410114288330078125">
        <ele>1890.800048828125</ele>
        <time>2026-06-20T11:18:33.000Z</time>
        <extensions>
          <ns3:TrackPointExtension>
            <ns3:atemp>23.0</ns3:atemp>
          </ns3:TrackPointExtension>
        </extensions>
      </trkpt>
      <trkpt lat="42.4891514517366886138916015625" lon="20.1788138039410114288330078125">
        <ele>1890.800048828125</ele>
        <time>2026-06-20T11:18:34.000Z</time>
        <extensions>
          <ns3:TrackPointExtension>
            <ns3:atemp>23.0</ns3:atemp>
          </ns3:TrackPointExtension>
        </extensions>
      </trkpt>
      <trkpt lat="42.4891514517366886138916015625" lon="20.1788138039410114288330078125">
        <ele>1890.800048828125</ele>
        <time>2026-06-20T11:18:35.000Z</time>
        <extensions>
          <ns3:TrackPointExtension>
            <ns3:atemp>23.0</ns3:atemp>
          </ns3:TrackPointExtension>
        </extensions>
      </trkpt>
      <trkpt lat="42.4891514517366886138916015625" lon="20.1788138039410114288330078125">
        <ele>1890.800048828125</ele>
        <time>2026-06-20T11:18:36.000Z</time>
        <extensions>
          <ns3:TrackPointExtension>
            <ns3:atemp>23.0</ns3:atemp>
          </ns3:TrackPointExtension>
        </extensions>
      </trkpt>
      <trkpt lat="42.4891514517366886138916015625" lon="20.1788138039410114288330078125">
        <ele>1890.800048828125</ele>
        <time>2026-06-20T11:18:37.000Z</time>
        <extensions>
          <ns3:TrackPointExtension>
            <ns3:atemp>23.0</ns3:atemp>
          </ns3:TrackPointExtension>
        </extensions>
      </trkpt>
      <trkpt lat="42.4891514517366886138916015625" lon="20.1788138039410114288330078125">
        <ele>1890.800048828125</ele>
        <time>2026-06-20T11:18:38.000Z</time>
        <extensions>
          <ns3:TrackPointExtension>
            <ns3:atemp>23.0</ns3:atemp>
          </ns3:TrackPointExtension>
        </extensions>
      </trkpt>
      <trkpt lat="42.4891514517366886138916015625" lon="20.1788138039410114288330078125">
        <ele>1890.800048828125</ele>
        <time>2026-06-20T11:18:39.000Z</time>
        <extensions>
          <ns3:TrackPointExtension>
            <ns3:atemp>23.0</ns3:atemp>
          </ns3:TrackPointExtension>
        </extensions>
      </trkpt>
      <trkpt lat="42.4891514517366886138916015625" lon="20.1788138039410114288330078125">
        <ele>1890.800048828125</ele>
        <time>2026-06-20T11:18:40.000Z</time>
        <extensions>
          <ns3:TrackPointExtension>
            <ns3:atemp>23.0</ns3:atemp>
          </ns3:TrackPointExtension>
        </extensions>
      </trkpt>
      <trkpt lat="42.4891514517366886138916015625" lon="20.1788138039410114288330078125">
        <ele>1890.800048828125</ele>
        <time>2026-06-20T11:18:41.000Z</time>
        <extensions>
          <ns3:TrackPointExtension>
            <ns3:atemp>23.0</ns3:atemp>
          </ns3:TrackPointExtension>
        </extensions>
      </trkpt>
      <trkpt lat="42.4891514517366886138916015625" lon="20.1788138039410114288330078125">
        <ele>1890.800048828125</ele>
        <time>2026-06-20T11:18:42.000Z</time>
        <extensions>
          <ns3:TrackPointExtension>
            <ns3:atemp>23.0</ns3:atemp>
          </ns3:TrackPointExtension>
        </extensions>
      </trkpt>
      <trkpt lat="42.4891514517366886138916015625" lon="20.1788138039410114288330078125">
        <ele>1890.800048828125</ele>
        <time>2026-06-20T11:18:43.000Z</time>
        <extensions>
          <ns3:TrackPointExtension>
            <ns3:atemp>23.0</ns3:atemp>
          </ns3:TrackPointExtension>
        </extensions>
      </trkpt>
      <trkpt lat="42.4891514517366886138916015625" lon="20.1788138039410114288330078125">
        <ele>1890.800048828125</ele>
        <time>2026-06-20T11:18:44.000Z</time>
        <extensions>
          <ns3:TrackPointExtension>
            <ns3:atemp>24.0</ns3:atemp>
          </ns3:TrackPointExtension>
        </extensions>
      </trkpt>
      <trkpt lat="42.4891514517366886138916015625" lon="20.1788138039410114288330078125">
        <ele>1890.800048828125</ele>
        <time>2026-06-20T11:18:45.000Z</time>
        <extensions>
          <ns3:TrackPointExtension>
            <ns3:atemp>23.0</ns3:atemp>
          </ns3:TrackPointExtension>
        </extensions>
      </trkpt>
      <trkpt lat="42.4891514517366886138916015625" lon="20.1788138039410114288330078125">
        <ele>1890.800048828125</ele>
        <time>2026-06-20T11:18:46.000Z</time>
        <extensions>
          <ns3:TrackPointExtension>
            <ns3:atemp>24.0</ns3:atemp>
          </ns3:TrackPointExtension>
        </extensions>
      </trkpt>
      <trkpt lat="42.4891514517366886138916015625" lon="20.1788138039410114288330078125">
        <ele>1890.800048828125</ele>
        <time>2026-06-20T11:18:47.000Z</time>
        <extensions>
          <ns3:TrackPointExtension>
            <ns3:atemp>23.0</ns3:atemp>
          </ns3:TrackPointExtension>
        </extensions>
      </trkpt>
      <trkpt lat="42.4891514517366886138916015625" lon="20.1788138039410114288330078125">
        <ele>1890.800048828125</ele>
        <time>2026-06-20T11:18:48.000Z</time>
        <extensions>
          <ns3:TrackPointExtension>
            <ns3:atemp>23.0</ns3:atemp>
          </ns3:TrackPointExtension>
        </extensions>
      </trkpt>
      <trkpt lat="42.4891514517366886138916015625" lon="20.1788138039410114288330078125">
        <ele>1890.800048828125</ele>
        <time>2026-06-20T11:18:49.000Z</time>
        <extensions>
          <ns3:TrackPointExtension>
            <ns3:atemp>23.0</ns3:atemp>
          </ns3:TrackPointExtension>
        </extensions>
      </trkpt>
      <trkpt lat="42.4891514517366886138916015625" lon="20.1788138039410114288330078125">
        <ele>1890.800048828125</ele>
        <time>2026-06-20T11:18:50.000Z</time>
        <extensions>
          <ns3:TrackPointExtension>
            <ns3:atemp>24.0</ns3:atemp>
          </ns3:TrackPointExtension>
        </extensions>
      </trkpt>
      <trkpt lat="42.4891514517366886138916015625" lon="20.1788138039410114288330078125">
        <ele>1890.800048828125</ele>
        <time>2026-06-20T11:18:51.000Z</time>
        <extensions>
          <ns3:TrackPointExtension>
            <ns3:atemp>24.0</ns3:atemp>
          </ns3:TrackPointExtension>
        </extensions>
      </trkpt>
      <trkpt lat="42.4891514517366886138916015625" lon="20.1788138039410114288330078125">
        <ele>1890.800048828125</ele>
        <time>2026-06-20T11:18:52.000Z</time>
        <extensions>
          <ns3:TrackPointExtension>
            <ns3:atemp>24.0</ns3:atemp>
          </ns3:TrackPointExtension>
        </extensions>
      </trkpt>
      <trkpt lat="42.4891514517366886138916015625" lon="20.1788138039410114288330078125">
        <ele>1890.800048828125</ele>
        <time>2026-06-20T11:18:53.000Z</time>
        <extensions>
          <ns3:TrackPointExtension>
            <ns3:atemp>24.0</ns3:atemp>
          </ns3:TrackPointExtension>
        </extensions>
      </trkpt>
      <trkpt lat="42.4891514517366886138916015625" lon="20.1788138039410114288330078125">
        <ele>1890.800048828125</ele>
        <time>2026-06-20T11:18:54.000Z</time>
        <extensions>
          <ns3:TrackPointExtension>
            <ns3:atemp>24.0</ns3:atemp>
          </ns3:TrackPointExtension>
        </extensions>
      </trkpt>
      <trkpt lat="42.4891514517366886138916015625" lon="20.1788138039410114288330078125">
        <ele>1890.800048828125</ele>
        <time>2026-06-20T11:18:55.000Z</time>
        <extensions>
          <ns3:TrackPointExtension>
            <ns3:atemp>24.0</ns3:atemp>
          </ns3:TrackPointExtension>
        </extensions>
      </trkpt>
      <trkpt lat="42.4891514517366886138916015625" lon="20.1788138039410114288330078125">
        <ele>1890.800048828125</ele>
        <time>2026-06-20T11:18:56.000Z</time>
        <extensions>
          <ns3:TrackPointExtension>
            <ns3:atemp>24.0</ns3:atemp>
          </ns3:TrackPointExtension>
        </extensions>
      </trkpt>
      <trkpt lat="42.4891514517366886138916015625" lon="20.1788138039410114288330078125">
        <ele>1890.800048828125</ele>
        <time>2026-06-20T11:18:57.000Z</time>
        <extensions>
          <ns3:TrackPointExtension>
            <ns3:atemp>24.0</ns3:atemp>
          </ns3:TrackPointExtension>
        </extensions>
      </trkpt>
      <trkpt lat="42.4891514517366886138916015625" lon="20.1788138039410114288330078125">
        <ele>1890.800048828125</ele>
        <time>2026-06-20T11:18:58.000Z</time>
        <extensions>
          <ns3:TrackPointExtension>
            <ns3:atemp>24.0</ns3:atemp>
          </ns3:TrackPointExtension>
        </extensions>
      </trkpt>
      <trkpt lat="42.4891514517366886138916015625" lon="20.1788138039410114288330078125">
        <ele>1890.800048828125</ele>
        <time>2026-06-20T11:18:59.000Z</time>
        <extensions>
          <ns3:TrackPointExtension>
            <ns3:atemp>24.0</ns3:atemp>
          </ns3:TrackPointExtension>
        </extensions>
      </trkpt>
      <trkpt lat="42.4891514517366886138916015625" lon="20.1788138039410114288330078125">
        <ele>1890.800048828125</ele>
        <time>2026-06-20T11:19:00.000Z</time>
        <extensions>
          <ns3:TrackPointExtension>
            <ns3:atemp>24.0</ns3:atemp>
          </ns3:TrackPointExtension>
        </extensions>
      </trkpt>
      <trkpt lat="42.4891514517366886138916015625" lon="20.1788138039410114288330078125">
        <ele>1890.800048828125</ele>
        <time>2026-06-20T11:19:01.000Z</time>
        <extensions>
          <ns3:TrackPointExtension>
            <ns3:atemp>24.0</ns3:atemp>
          </ns3:TrackPointExtension>
        </extensions>
      </trkpt>
      <trkpt lat="42.4891514517366886138916015625" lon="20.1788138039410114288330078125">
        <ele>1890.800048828125</ele>
        <time>2026-06-20T11:19:02.000Z</time>
        <extensions>
          <ns3:TrackPointExtension>
            <ns3:atemp>24.0</ns3:atemp>
          </ns3:TrackPointExtension>
        </extensions>
      </trkpt>
      <trkpt lat="42.4891514517366886138916015625" lon="20.1788138039410114288330078125">
        <ele>1890.800048828125</ele>
        <time>2026-06-20T11:19:03.000Z</time>
        <extensions>
          <ns3:TrackPointExtension>
            <ns3:atemp>24.0</ns3:atemp>
          </ns3:TrackPointExtension>
        </extensions>
      </trkpt>
      <trkpt lat="42.4891514517366886138916015625" lon="20.1788138039410114288330078125">
        <ele>1890.800048828125</ele>
        <time>2026-06-20T11:19:04.000Z</time>
        <extensions>
          <ns3:TrackPointExtension>
            <ns3:atemp>24.0</ns3:atemp>
          </ns3:TrackPointExtension>
        </extensions>
      </trkpt>
      <trkpt lat="42.4891514517366886138916015625" lon="20.1788138039410114288330078125">
        <ele>1890.800048828125</ele>
        <time>2026-06-20T11:19:05.000Z</time>
        <extensions>
          <ns3:TrackPointExtension>
            <ns3:atemp>24.0</ns3:atemp>
          </ns3:TrackPointExtension>
        </extensions>
      </trkpt>
      <trkpt lat="42.4891514517366886138916015625" lon="20.1788138039410114288330078125">
        <ele>1890.800048828125</ele>
        <time>2026-06-20T11:19:06.000Z</time>
        <extensions>
          <ns3:TrackPointExtension>
            <ns3:atemp>24.0</ns3:atemp>
          </ns3:TrackPointExtension>
        </extensions>
      </trkpt>
      <trkpt lat="42.4891514517366886138916015625" lon="20.1788138039410114288330078125">
        <ele>1890.800048828125</ele>
        <time>2026-06-20T11:19:07.000Z</time>
        <extensions>
          <ns3:TrackPointExtension>
            <ns3:atemp>24.0</ns3:atemp>
          </ns3:TrackPointExtension>
        </extensions>
      </trkpt>
      <trkpt lat="42.4891514517366886138916015625" lon="20.1788138039410114288330078125">
        <ele>1890.800048828125</ele>
        <time>2026-06-20T11:19:08.000Z</time>
        <extensions>
          <ns3:TrackPointExtension>
            <ns3:atemp>24.0</ns3:atemp>
          </ns3:TrackPointExtension>
        </extensions>
      </trkpt>
      <trkpt lat="42.4891514517366886138916015625" lon="20.1788138039410114288330078125">
        <ele>1890.800048828125</ele>
        <time>2026-06-20T11:19:09.000Z</time>
        <extensions>
          <ns3:TrackPointExtension>
            <ns3:atemp>24.0</ns3:atemp>
          </ns3:TrackPointExtension>
        </extensions>
      </trkpt>
      <trkpt lat="42.4891514517366886138916015625" lon="20.1788138039410114288330078125">
        <ele>1890.800048828125</ele>
        <time>2026-06-20T11:19:10.000Z</time>
        <extensions>
          <ns3:TrackPointExtension>
            <ns3:atemp>24.0</ns3:atemp>
          </ns3:TrackPointExtension>
        </extensions>
      </trkpt>
      <trkpt lat="42.4891514517366886138916015625" lon="20.1788138039410114288330078125">
        <ele>1890.800048828125</ele>
        <time>2026-06-20T11:19:11.000Z</time>
        <extensions>
          <ns3:TrackPointExtension>
            <ns3:atemp>24.0</ns3:atemp>
          </ns3:TrackPointExtension>
        </extensions>
      </trkpt>
      <trkpt lat="42.4891514517366886138916015625" lon="20.1788138039410114288330078125">
        <ele>1890.800048828125</ele>
        <time>2026-06-20T11:19:12.000Z</time>
        <extensions>
          <ns3:TrackPointExtension>
            <ns3:atemp>24.0</ns3:atemp>
          </ns3:TrackPointExtension>
        </extensions>
      </trkpt>
      <trkpt lat="42.4891514517366886138916015625" lon="20.1788138039410114288330078125">
        <ele>1890.800048828125</ele>
        <time>2026-06-20T11:19:13.000Z</time>
        <extensions>
          <ns3:TrackPointExtension>
            <ns3:atemp>24.0</ns3:atemp>
          </ns3:TrackPointExtension>
        </extensions>
      </trkpt>
      <trkpt lat="42.4891514517366886138916015625" lon="20.1788138039410114288330078125">
        <ele>1890.800048828125</ele>
        <time>2026-06-20T11:19:14.000Z</time>
        <extensions>
          <ns3:TrackPointExtension>
            <ns3:atemp>24.0</ns3:atemp>
          </ns3:TrackPointExtension>
        </extensions>
      </trkpt>
      <trkpt lat="42.4891514517366886138916015625" lon="20.1788138039410114288330078125">
        <ele>1890.800048828125</ele>
        <time>2026-06-20T11:19:15.000Z</time>
        <extensions>
          <ns3:TrackPointExtension>
            <ns3:atemp>24.0</ns3:atemp>
          </ns3:TrackPointExtension>
        </extensions>
      </trkpt>
      <trkpt lat="42.4891514517366886138916015625" lon="20.1788138039410114288330078125">
        <ele>1890.800048828125</ele>
        <time>2026-06-20T11:19:16.000Z</time>
        <extensions>
          <ns3:TrackPointExtension>
            <ns3:atemp>24.0</ns3:atemp>
          </ns3:TrackPointExtension>
        </extensions>
      </trkpt>
      <trkpt lat="42.4891514517366886138916015625" lon="20.1788138039410114288330078125">
        <ele>1890.800048828125</ele>
        <time>2026-06-20T11:19:17.000Z</time>
        <extensions>
          <ns3:TrackPointExtension>
            <ns3:atemp>24.0</ns3:atemp>
          </ns3:TrackPointExtension>
        </extensions>
      </trkpt>
      <trkpt lat="42.4891514517366886138916015625" lon="20.1788138039410114288330078125">
        <ele>1890.800048828125</ele>
        <time>2026-06-20T11:19:18.000Z</time>
        <extensions>
          <ns3:TrackPointExtension>
            <ns3:atemp>24.0</ns3:atemp>
          </ns3:TrackPointExtension>
        </extensions>
      </trkpt>
      <trkpt lat="42.4891514517366886138916015625" lon="20.1788138039410114288330078125">
        <ele>1890.800048828125</ele>
        <time>2026-06-20T11:19:19.000Z</time>
        <extensions>
          <ns3:TrackPointExtension>
            <ns3:atemp>24.0</ns3:atemp>
          </ns3:TrackPointExtension>
        </extensions>
      </trkpt>
      <trkpt lat="42.4891514517366886138916015625" lon="20.1788138039410114288330078125">
        <ele>1890.800048828125</ele>
        <time>2026-06-20T11:19:20.000Z</time>
        <extensions>
          <ns3:TrackPointExtension>
            <ns3:atemp>24.0</ns3:atemp>
          </ns3:TrackPointExtension>
        </extensions>
      </trkpt>
      <trkpt lat="42.4891514517366886138916015625" lon="20.1788138039410114288330078125">
        <ele>1890.800048828125</ele>
        <time>2026-06-20T11:19:21.000Z</time>
        <extensions>
          <ns3:TrackPointExtension>
            <ns3:atemp>24.0</ns3:atemp>
          </ns3:TrackPointExtension>
        </extensions>
      </trkpt>
      <trkpt lat="42.4891514517366886138916015625" lon="20.1788138039410114288330078125">
        <ele>1890.800048828125</ele>
        <time>2026-06-20T11:19:22.000Z</time>
        <extensions>
          <ns3:TrackPointExtension>
            <ns3:atemp>24.0</ns3:atemp>
          </ns3:TrackPointExtension>
        </extensions>
      </trkpt>
      <trkpt lat="42.4891514517366886138916015625" lon="20.1788138039410114288330078125">
        <ele>1890.800048828125</ele>
        <time>2026-06-20T11:19:23.000Z</time>
        <extensions>
          <ns3:TrackPointExtension>
            <ns3:atemp>24.0</ns3:atemp>
          </ns3:TrackPointExtension>
        </extensions>
      </trkpt>
      <trkpt lat="42.4891514517366886138916015625" lon="20.1788138039410114288330078125">
        <ele>1890.800048828125</ele>
        <time>2026-06-20T11:19:24.000Z</time>
        <extensions>
          <ns3:TrackPointExtension>
            <ns3:atemp>24.0</ns3:atemp>
          </ns3:TrackPointExtension>
        </extensions>
      </trkpt>
      <trkpt lat="42.4891514517366886138916015625" lon="20.1788138039410114288330078125">
        <ele>1890.800048828125</ele>
        <time>2026-06-20T11:19:25.000Z</time>
        <extensions>
          <ns3:TrackPointExtension>
            <ns3:atemp>24.0</ns3:atemp>
          </ns3:TrackPointExtension>
        </extensions>
      </trkpt>
      <trkpt lat="42.4891514517366886138916015625" lon="20.1788138039410114288330078125">
        <ele>1890.800048828125</ele>
        <time>2026-06-20T11:19:26.000Z</time>
        <extensions>
          <ns3:TrackPointExtension>
            <ns3:atemp>24.0</ns3:atemp>
          </ns3:TrackPointExtension>
        </extensions>
      </trkpt>
      <trkpt lat="42.4891514517366886138916015625" lon="20.1788138039410114288330078125">
        <ele>1890.800048828125</ele>
        <time>2026-06-20T11:19:27.000Z</time>
        <extensions>
          <ns3:TrackPointExtension>
            <ns3:atemp>24.0</ns3:atemp>
          </ns3:TrackPointExtension>
        </extensions>
      </trkpt>
      <trkpt lat="42.4891514517366886138916015625" lon="20.1788138039410114288330078125">
        <ele>1890.800048828125</ele>
        <time>2026-06-20T11:19:28.000Z</time>
        <extensions>
          <ns3:TrackPointExtension>
            <ns3:atemp>24.0</ns3:atemp>
          </ns3:TrackPointExtension>
        </extensions>
      </trkpt>
      <trkpt lat="42.4891514517366886138916015625" lon="20.1788138039410114288330078125">
        <ele>1890.800048828125</ele>
        <time>2026-06-20T11:19:29.000Z</time>
        <extensions>
          <ns3:TrackPointExtension>
            <ns3:atemp>24.0</ns3:atemp>
          </ns3:TrackPointExtension>
        </extensions>
      </trkpt>
      <trkpt lat="42.4891514517366886138916015625" lon="20.1788138039410114288330078125">
        <ele>1890.800048828125</ele>
        <time>2026-06-20T11:19:30.000Z</time>
        <extensions>
          <ns3:TrackPointExtension>
            <ns3:atemp>24.0</ns3:atemp>
          </ns3:TrackPointExtension>
        </extensions>
      </trkpt>
      <trkpt lat="42.4891514517366886138916015625" lon="20.1788138039410114288330078125">
        <ele>1890.800048828125</ele>
        <time>2026-06-20T11:19:31.000Z</time>
        <extensions>
          <ns3:TrackPointExtension>
            <ns3:atemp>24.0</ns3:atemp>
          </ns3:TrackPointExtension>
        </extensions>
      </trkpt>
      <trkpt lat="42.4891514517366886138916015625" lon="20.1788138039410114288330078125">
        <ele>1890.800048828125</ele>
        <time>2026-06-20T11:19:32.000Z</time>
        <extensions>
          <ns3:TrackPointExtension>
            <ns3:atemp>24.0</ns3:atemp>
          </ns3:TrackPointExtension>
        </extensions>
      </trkpt>
      <trkpt lat="42.4891514517366886138916015625" lon="20.1788138039410114288330078125">
        <ele>1890.800048828125</ele>
        <time>2026-06-20T11:19:33.000Z</time>
        <extensions>
          <ns3:TrackPointExtension>
            <ns3:atemp>24.0</ns3:atemp>
          </ns3:TrackPointExtension>
        </extensions>
      </trkpt>
      <trkpt lat="42.4891514517366886138916015625" lon="20.1788138039410114288330078125">
        <ele>1890.800048828125</ele>
        <time>2026-06-20T11:19:34.000Z</time>
        <extensions>
          <ns3:TrackPointExtension>
            <ns3:atemp>24.0</ns3:atemp>
          </ns3:TrackPointExtension>
        </extensions>
      </trkpt>
      <trkpt lat="42.4891514517366886138916015625" lon="20.1788138039410114288330078125">
        <ele>1890.800048828125</ele>
        <time>2026-06-20T11:19:35.000Z</time>
        <extensions>
          <ns3:TrackPointExtension>
            <ns3:atemp>24.0</ns3:atemp>
          </ns3:TrackPointExtension>
        </extensions>
      </trkpt>
      <trkpt lat="42.4891514517366886138916015625" lon="20.1788138039410114288330078125">
        <ele>1890.800048828125</ele>
        <time>2026-06-20T11:19:36.000Z</time>
        <extensions>
          <ns3:TrackPointExtension>
            <ns3:atemp>24.0</ns3:atemp>
          </ns3:TrackPointExtension>
        </extensions>
      </trkpt>
      <trkpt lat="42.4891514517366886138916015625" lon="20.1788138039410114288330078125">
        <ele>1890.800048828125</ele>
        <time>2026-06-20T11:19:37.000Z</time>
        <extensions>
          <ns3:TrackPointExtension>
            <ns3:atemp>24.0</ns3:atemp>
          </ns3:TrackPointExtension>
        </extensions>
      </trkpt>
      <trkpt lat="42.4891514517366886138916015625" lon="20.1788138039410114288330078125">
        <ele>1890.800048828125</ele>
        <time>2026-06-20T11:19:38.000Z</time>
        <extensions>
          <ns3:TrackPointExtension>
            <ns3:atemp>24.0</ns3:atemp>
          </ns3:TrackPointExtension>
        </extensions>
      </trkpt>
      <trkpt lat="42.4891514517366886138916015625" lon="20.1788138039410114288330078125">
        <ele>1890.800048828125</ele>
        <time>2026-06-20T11:19:39.000Z</time>
        <extensions>
          <ns3:TrackPointExtension>
            <ns3:atemp>24.0</ns3:atemp>
          </ns3:TrackPointExtension>
        </extensions>
      </trkpt>
      <trkpt lat="42.4891514517366886138916015625" lon="20.1788138039410114288330078125">
        <ele>1890.800048828125</ele>
        <time>2026-06-20T11:19:40.000Z</time>
        <extensions>
          <ns3:TrackPointExtension>
            <ns3:atemp>24.0</ns3:atemp>
          </ns3:TrackPointExtension>
        </extensions>
      </trkpt>
      <trkpt lat="42.4891514517366886138916015625" lon="20.1788138039410114288330078125">
        <ele>1890.800048828125</ele>
        <time>2026-06-20T11:19:41.000Z</time>
        <extensions>
          <ns3:TrackPointExtension>
            <ns3:atemp>24.0</ns3:atemp>
          </ns3:TrackPointExtension>
        </extensions>
      </trkpt>
      <trkpt lat="42.4891514517366886138916015625" lon="20.1788138039410114288330078125">
        <ele>1890.800048828125</ele>
        <time>2026-06-20T11:19:42.000Z</time>
        <extensions>
          <ns3:TrackPointExtension>
            <ns3:atemp>24.0</ns3:atemp>
          </ns3:TrackPointExtension>
        </extensions>
      </trkpt>
      <trkpt lat="42.4891514517366886138916015625" lon="20.1788138039410114288330078125">
        <ele>1890.800048828125</ele>
        <time>2026-06-20T11:19:43.000Z</time>
        <extensions>
          <ns3:TrackPointExtension>
            <ns3:atemp>24.0</ns3:atemp>
          </ns3:TrackPointExtension>
        </extensions>
      </trkpt>
      <trkpt lat="42.4891514517366886138916015625" lon="20.1788138039410114288330078125">
        <ele>1890.800048828125</ele>
        <time>2026-06-20T11:19:44.000Z</time>
        <extensions>
          <ns3:TrackPointExtension>
            <ns3:atemp>24.0</ns3:atemp>
          </ns3:TrackPointExtension>
        </extensions>
      </trkpt>
      <trkpt lat="42.4891514517366886138916015625" lon="20.1788138039410114288330078125">
        <ele>1890.800048828125</ele>
        <time>2026-06-20T11:19:45.000Z</time>
        <extensions>
          <ns3:TrackPointExtension>
            <ns3:atemp>24.0</ns3:atemp>
          </ns3:TrackPointExtension>
        </extensions>
      </trkpt>
      <trkpt lat="42.4891514517366886138916015625" lon="20.1788138039410114288330078125">
        <ele>1890.800048828125</ele>
        <time>2026-06-20T11:19:46.000Z</time>
        <extensions>
          <ns3:TrackPointExtension>
            <ns3:atemp>24.0</ns3:atemp>
          </ns3:TrackPointExtension>
        </extensions>
      </trkpt>
      <trkpt lat="42.4891514517366886138916015625" lon="20.1788138039410114288330078125">
        <ele>1890.800048828125</ele>
        <time>2026-06-20T11:19:47.000Z</time>
        <extensions>
          <ns3:TrackPointExtension>
            <ns3:atemp>24.0</ns3:atemp>
          </ns3:TrackPointExtension>
        </extensions>
      </trkpt>
      <trkpt lat="42.4891514517366886138916015625" lon="20.1788138039410114288330078125">
        <ele>1890.800048828125</ele>
        <time>2026-06-20T11:19:48.000Z</time>
        <extensions>
          <ns3:TrackPointExtension>
            <ns3:atemp>24.0</ns3:atemp>
          </ns3:TrackPointExtension>
        </extensions>
      </trkpt>
      <trkpt lat="42.4891514517366886138916015625" lon="20.1788138039410114288330078125">
        <ele>1890.800048828125</ele>
        <time>2026-06-20T11:19:49.000Z</time>
        <extensions>
          <ns3:TrackPointExtension>
            <ns3:atemp>24.0</ns3:atemp>
          </ns3:TrackPointExtension>
        </extensions>
      </trkpt>
      <trkpt lat="42.4891514517366886138916015625" lon="20.1788138039410114288330078125">
        <ele>1890.800048828125</ele>
        <time>2026-06-20T11:19:50.000Z</time>
        <extensions>
          <ns3:TrackPointExtension>
            <ns3:atemp>24.0</ns3:atemp>
          </ns3:TrackPointExtension>
        </extensions>
      </trkpt>
      <trkpt lat="42.4891514517366886138916015625" lon="20.1788138039410114288330078125">
        <ele>1890.800048828125</ele>
        <time>2026-06-20T11:19:51.000Z</time>
        <extensions>
          <ns3:TrackPointExtension>
            <ns3:atemp>24.0</ns3:atemp>
          </ns3:TrackPointExtension>
        </extensions>
      </trkpt>
      <trkpt lat="42.4891514517366886138916015625" lon="20.1788138039410114288330078125">
        <ele>1890.800048828125</ele>
        <time>2026-06-20T11:19:52.000Z</time>
        <extensions>
          <ns3:TrackPointExtension>
            <ns3:atemp>24.0</ns3:atemp>
          </ns3:TrackPointExtension>
        </extensions>
      </trkpt>
      <trkpt lat="42.4891514517366886138916015625" lon="20.1788138039410114288330078125">
        <ele>1890.800048828125</ele>
        <time>2026-06-20T11:19:53.000Z</time>
        <extensions>
          <ns3:TrackPointExtension>
            <ns3:atemp>24.0</ns3:atemp>
          </ns3:TrackPointExtension>
        </extensions>
      </trkpt>
      <trkpt lat="42.4891514517366886138916015625" lon="20.1788138039410114288330078125">
        <ele>1890.800048828125</ele>
        <time>2026-06-20T11:19:54.000Z</time>
        <extensions>
          <ns3:TrackPointExtension>
            <ns3:atemp>24.0</ns3:atemp>
          </ns3:TrackPointExtension>
        </extensions>
      </trkpt>
      <trkpt lat="42.4891514517366886138916015625" lon="20.1788138039410114288330078125">
        <ele>1890.800048828125</ele>
        <time>2026-06-20T11:19:55.000Z</time>
        <extensions>
          <ns3:TrackPointExtension>
            <ns3:atemp>24.0</ns3:atemp>
          </ns3:TrackPointExtension>
        </extensions>
      </trkpt>
      <trkpt lat="42.4891514517366886138916015625" lon="20.1788138039410114288330078125">
        <ele>1890.800048828125</ele>
        <time>2026-06-20T11:19:56.000Z</time>
        <extensions>
          <ns3:TrackPointExtension>
            <ns3:atemp>24.0</ns3:atemp>
          </ns3:TrackPointExtension>
        </extensions>
      </trkpt>
      <trkpt lat="42.4891514517366886138916015625" lon="20.1788138039410114288330078125">
        <ele>1890.800048828125</ele>
        <time>2026-06-20T11:19:57.000Z</time>
        <extensions>
          <ns3:TrackPointExtension>
            <ns3:atemp>24.0</ns3:atemp>
          </ns3:TrackPointExtension>
        </extensions>
      </trkpt>
      <trkpt lat="42.4891514517366886138916015625" lon="20.1788138039410114288330078125">
        <ele>1890.800048828125</ele>
        <time>2026-06-20T11:19:58.000Z</time>
        <extensions>
          <ns3:TrackPointExtension>
            <ns3:atemp>24.0</ns3:atemp>
          </ns3:TrackPointExtension>
        </extensions>
      </trkpt>
      <trkpt lat="42.4891514517366886138916015625" lon="20.1788138039410114288330078125">
        <ele>1890.800048828125</ele>
        <time>2026-06-20T11:19:59.000Z</time>
        <extensions>
          <ns3:TrackPointExtension>
            <ns3:atemp>24.0</ns3:atemp>
          </ns3:TrackPointExtension>
        </extensions>
      </trkpt>
      <trkpt lat="42.4891514517366886138916015625" lon="20.1788138039410114288330078125">
        <ele>1890.800048828125</ele>
        <time>2026-06-20T11:20:00.000Z</time>
        <extensions>
          <ns3:TrackPointExtension>
            <ns3:atemp>24.0</ns3:atemp>
          </ns3:TrackPointExtension>
        </extensions>
      </trkpt>
      <trkpt lat="42.4891514517366886138916015625" lon="20.1788138039410114288330078125">
        <ele>1890.800048828125</ele>
        <time>2026-06-20T11:20:01.000Z</time>
        <extensions>
          <ns3:TrackPointExtension>
            <ns3:atemp>24.0</ns3:atemp>
          </ns3:TrackPointExtension>
        </extensions>
      </trkpt>
      <trkpt lat="42.4891514517366886138916015625" lon="20.1788138039410114288330078125">
        <ele>1890.800048828125</ele>
        <time>2026-06-20T11:20:02.000Z</time>
        <extensions>
          <ns3:TrackPointExtension>
            <ns3:atemp>24.0</ns3:atemp>
          </ns3:TrackPointExtension>
        </extensions>
      </trkpt>
      <trkpt lat="42.4891514517366886138916015625" lon="20.1788138039410114288330078125">
        <ele>1890.800048828125</ele>
        <time>2026-06-20T11:20:03.000Z</time>
        <extensions>
          <ns3:TrackPointExtension>
            <ns3:atemp>24.0</ns3:atemp>
          </ns3:TrackPointExtension>
        </extensions>
      </trkpt>
      <trkpt lat="42.4891514517366886138916015625" lon="20.1788138039410114288330078125">
        <ele>1890.800048828125</ele>
        <time>2026-06-20T11:20:04.000Z</time>
        <extensions>
          <ns3:TrackPointExtension>
            <ns3:atemp>24.0</ns3:atemp>
          </ns3:TrackPointExtension>
        </extensions>
      </trkpt>
      <trkpt lat="42.4891514517366886138916015625" lon="20.1788138039410114288330078125">
        <ele>1890.800048828125</ele>
        <time>2026-06-20T11:20:05.000Z</time>
        <extensions>
          <ns3:TrackPointExtension>
            <ns3:atemp>24.0</ns3:atemp>
          </ns3:TrackPointExtension>
        </extensions>
      </trkpt>
      <trkpt lat="42.4891514517366886138916015625" lon="20.1788138039410114288330078125">
        <ele>1890.800048828125</ele>
        <time>2026-06-20T11:20:06.000Z</time>
        <extensions>
          <ns3:TrackPointExtension>
            <ns3:atemp>24.0</ns3:atemp>
          </ns3:TrackPointExtension>
        </extensions>
      </trkpt>
      <trkpt lat="42.4891514517366886138916015625" lon="20.1788138039410114288330078125">
        <ele>1890.800048828125</ele>
        <time>2026-06-20T11:20:07.000Z</time>
        <extensions>
          <ns3:TrackPointExtension>
            <ns3:atemp>24.0</ns3:atemp>
          </ns3:TrackPointExtension>
        </extensions>
      </trkpt>
      <trkpt lat="42.4891514517366886138916015625" lon="20.1788138039410114288330078125">
        <ele>1890.800048828125</ele>
        <time>2026-06-20T11:20:08.000Z</time>
        <extensions>
          <ns3:TrackPointExtension>
            <ns3:atemp>24.0</ns3:atemp>
          </ns3:TrackPointExtension>
        </extensions>
      </trkpt>
      <trkpt lat="42.4891514517366886138916015625" lon="20.1788138039410114288330078125">
        <ele>1890.800048828125</ele>
        <time>2026-06-20T11:20:09.000Z</time>
        <extensions>
          <ns3:TrackPointExtension>
            <ns3:atemp>24.0</ns3:atemp>
          </ns3:TrackPointExtension>
        </extensions>
      </trkpt>
      <trkpt lat="42.4891514517366886138916015625" lon="20.1788138039410114288330078125">
        <ele>1890.800048828125</ele>
        <time>2026-06-20T11:20:10.000Z</time>
        <extensions>
          <ns3:TrackPointExtension>
            <ns3:atemp>24.0</ns3:atemp>
          </ns3:TrackPointExtension>
        </extensions>
      </trkpt>
      <trkpt lat="42.4891514517366886138916015625" lon="20.1788138039410114288330078125">
        <ele>1890.800048828125</ele>
        <time>2026-06-20T11:20:11.000Z</time>
        <extensions>
          <ns3:TrackPointExtension>
            <ns3:atemp>24.0</ns3:atemp>
          </ns3:TrackPointExtension>
        </extensions>
      </trkpt>
      <trkpt lat="42.4891514517366886138916015625" lon="20.1788138039410114288330078125">
        <ele>1890.800048828125</ele>
        <time>2026-06-20T11:20:12.000Z</time>
        <extensions>
          <ns3:TrackPointExtension>
            <ns3:atemp>24.0</ns3:atemp>
          </ns3:TrackPointExtension>
        </extensions>
      </trkpt>
      <trkpt lat="42.4891514517366886138916015625" lon="20.1788138039410114288330078125">
        <ele>1890.800048828125</ele>
        <time>2026-06-20T11:20:13.000Z</time>
        <extensions>
          <ns3:TrackPointExtension>
            <ns3:atemp>24.0</ns3:atemp>
          </ns3:TrackPointExtension>
        </extensions>
      </trkpt>
      <trkpt lat="42.4891514517366886138916015625" lon="20.1788138039410114288330078125">
        <ele>1890.800048828125</ele>
        <time>2026-06-20T11:20:14.000Z</time>
        <extensions>
          <ns3:TrackPointExtension>
            <ns3:atemp>24.0</ns3:atemp>
          </ns3:TrackPointExtension>
        </extensions>
      </trkpt>
      <trkpt lat="42.4891514517366886138916015625" lon="20.1788138039410114288330078125">
        <ele>1890.800048828125</ele>
        <time>2026-06-20T11:20:15.000Z</time>
        <extensions>
          <ns3:TrackPointExtension>
            <ns3:atemp>24.0</ns3:atemp>
          </ns3:TrackPointExtension>
        </extensions>
      </trkpt>
      <trkpt lat="42.4891514517366886138916015625" lon="20.1788138039410114288330078125">
        <ele>1890.800048828125</ele>
        <time>2026-06-20T11:20:16.000Z</time>
        <extensions>
          <ns3:TrackPointExtension>
            <ns3:atemp>24.0</ns3:atemp>
          </ns3:TrackPointExtension>
        </extensions>
      </trkpt>
      <trkpt lat="42.4891514517366886138916015625" lon="20.1788138039410114288330078125">
        <ele>1890.800048828125</ele>
        <time>2026-06-20T11:20:17.000Z</time>
        <extensions>
          <ns3:TrackPointExtension>
            <ns3:atemp>24.0</ns3:atemp>
          </ns3:TrackPointExtension>
        </extensions>
      </trkpt>
      <trkpt lat="42.4891514517366886138916015625" lon="20.1788138039410114288330078125">
        <ele>1890.800048828125</ele>
        <time>2026-06-20T11:20:18.000Z</time>
        <extensions>
          <ns3:TrackPointExtension>
            <ns3:atemp>24.0</ns3:atemp>
          </ns3:TrackPointExtension>
        </extensions>
      </trkpt>
      <trkpt lat="42.4891514517366886138916015625" lon="20.1788138039410114288330078125">
        <ele>1890.800048828125</ele>
        <time>2026-06-20T11:20:19.000Z</time>
        <extensions>
          <ns3:TrackPointExtension>
            <ns3:atemp>24.0</ns3:atemp>
          </ns3:TrackPointExtension>
        </extensions>
      </trkpt>
      <trkpt lat="42.4891514517366886138916015625" lon="20.1788138039410114288330078125">
        <ele>1890.800048828125</ele>
        <time>2026-06-20T11:20:20.000Z</time>
        <extensions>
          <ns3:TrackPointExtension>
            <ns3:atemp>24.0</ns3:atemp>
          </ns3:TrackPointExtension>
        </extensions>
      </trkpt>
      <trkpt lat="42.4891514517366886138916015625" lon="20.1788138039410114288330078125">
        <ele>1890.800048828125</ele>
        <time>2026-06-20T11:20:21.000Z</time>
        <extensions>
          <ns3:TrackPointExtension>
            <ns3:atemp>24.0</ns3:atemp>
          </ns3:TrackPointExtension>
        </extensions>
      </trkpt>
      <trkpt lat="42.4891514517366886138916015625" lon="20.1788138039410114288330078125">
        <ele>1890.800048828125</ele>
        <time>2026-06-20T11:20:22.000Z</time>
        <extensions>
          <ns3:TrackPointExtension>
            <ns3:atemp>24.0</ns3:atemp>
          </ns3:TrackPointExtension>
        </extensions>
      </trkpt>
      <trkpt lat="42.4891514517366886138916015625" lon="20.1788138039410114288330078125">
        <ele>1890.800048828125</ele>
        <time>2026-06-20T11:20:23.000Z</time>
        <extensions>
          <ns3:TrackPointExtension>
            <ns3:atemp>24.0</ns3:atemp>
          </ns3:TrackPointExtension>
        </extensions>
      </trkpt>
      <trkpt lat="42.4891514517366886138916015625" lon="20.1788138039410114288330078125">
        <ele>1890.800048828125</ele>
        <time>2026-06-20T11:20:24.000Z</time>
        <extensions>
          <ns3:TrackPointExtension>
            <ns3:atemp>24.0</ns3:atemp>
          </ns3:TrackPointExtension>
        </extensions>
      </trkpt>
      <trkpt lat="42.4891514517366886138916015625" lon="20.1788138039410114288330078125">
        <ele>1890.800048828125</ele>
        <time>2026-06-20T11:20:25.000Z</time>
        <extensions>
          <ns3:TrackPointExtension>
            <ns3:atemp>24.0</ns3:atemp>
          </ns3:TrackPointExtension>
        </extensions>
      </trkpt>
      <trkpt lat="42.4891514517366886138916015625" lon="20.1788138039410114288330078125">
        <ele>1890.800048828125</ele>
        <time>2026-06-20T11:20:26.000Z</time>
        <extensions>
          <ns3:TrackPointExtension>
            <ns3:atemp>24.0</ns3:atemp>
          </ns3:TrackPointExtension>
        </extensions>
      </trkpt>
      <trkpt lat="42.4891514517366886138916015625" lon="20.1788138039410114288330078125">
        <ele>1890.800048828125</ele>
        <time>2026-06-20T11:20:27.000Z</time>
        <extensions>
          <ns3:TrackPointExtension>
            <ns3:atemp>24.0</ns3:atemp>
          </ns3:TrackPointExtension>
        </extensions>
      </trkpt>
      <trkpt lat="42.4891514517366886138916015625" lon="20.1788138039410114288330078125">
        <ele>1890.800048828125</ele>
        <time>2026-06-20T11:20:28.000Z</time>
        <extensions>
          <ns3:TrackPointExtension>
            <ns3:atemp>24.0</ns3:atemp>
          </ns3:TrackPointExtension>
        </extensions>
      </trkpt>
      <trkpt lat="42.4891514517366886138916015625" lon="20.1788138039410114288330078125">
        <ele>1890.800048828125</ele>
        <time>2026-06-20T11:20:29.000Z</time>
        <extensions>
          <ns3:TrackPointExtension>
            <ns3:atemp>24.0</ns3:atemp>
          </ns3:TrackPointExtension>
        </extensions>
      </trkpt>
      <trkpt lat="42.4891514517366886138916015625" lon="20.1788138039410114288330078125">
        <ele>1890.800048828125</ele>
        <time>2026-06-20T11:20:30.000Z</time>
        <extensions>
          <ns3:TrackPointExtension>
            <ns3:atemp>24.0</ns3:atemp>
          </ns3:TrackPointExtension>
        </extensions>
      </trkpt>
      <trkpt lat="42.4891514517366886138916015625" lon="20.1788138039410114288330078125">
        <ele>1890.800048828125</ele>
        <time>2026-06-20T11:20:31.000Z</time>
        <extensions>
          <ns3:TrackPointExtension>
            <ns3:atemp>24.0</ns3:atemp>
          </ns3:TrackPointExtension>
        </extensions>
      </trkpt>
      <trkpt lat="42.4891514517366886138916015625" lon="20.1788138039410114288330078125">
        <ele>1890.800048828125</ele>
        <time>2026-06-20T11:20:32.000Z</time>
        <extensions>
          <ns3:TrackPointExtension>
            <ns3:atemp>24.0</ns3:atemp>
          </ns3:TrackPointExtension>
        </extensions>
      </trkpt>
      <trkpt lat="42.4891514517366886138916015625" lon="20.1788138039410114288330078125">
        <ele>1890.800048828125</ele>
        <time>2026-06-20T11:20:33.000Z</time>
        <extensions>
          <ns3:TrackPointExtension>
            <ns3:atemp>24.0</ns3:atemp>
          </ns3:TrackPointExtension>
        </extensions>
      </trkpt>
      <trkpt lat="42.4891514517366886138916015625" lon="20.1788138039410114288330078125">
        <ele>1890.800048828125</ele>
        <time>2026-06-20T11:20:34.000Z</time>
        <extensions>
          <ns3:TrackPointExtension>
            <ns3:atemp>24.0</ns3:atemp>
          </ns3:TrackPointExtension>
        </extensions>
      </trkpt>
      <trkpt lat="42.4891514517366886138916015625" lon="20.1788138039410114288330078125">
        <ele>1890.800048828125</ele>
        <time>2026-06-20T11:20:35.000Z</time>
        <extensions>
          <ns3:TrackPointExtension>
            <ns3:atemp>24.0</ns3:atemp>
          </ns3:TrackPointExtension>
        </extensions>
      </trkpt>
      <trkpt lat="42.4891514517366886138916015625" lon="20.1788138039410114288330078125">
        <ele>1890.800048828125</ele>
        <time>2026-06-20T11:20:36.000Z</time>
        <extensions>
          <ns3:TrackPointExtension>
            <ns3:atemp>24.0</ns3:atemp>
          </ns3:TrackPointExtension>
        </extensions>
      </trkpt>
      <trkpt lat="42.4891514517366886138916015625" lon="20.1788138039410114288330078125">
        <ele>1890.800048828125</ele>
        <time>2026-06-20T11:20:37.000Z</time>
        <extensions>
          <ns3:TrackPointExtension>
            <ns3:atemp>24.0</ns3:atemp>
          </ns3:TrackPointExtension>
        </extensions>
      </trkpt>
      <trkpt lat="42.4891514517366886138916015625" lon="20.1788138039410114288330078125">
        <ele>1890.800048828125</ele>
        <time>2026-06-20T11:20:38.000Z</time>
        <extensions>
          <ns3:TrackPointExtension>
            <ns3:atemp>24.0</ns3:atemp>
          </ns3:TrackPointExtension>
        </extensions>
      </trkpt>
      <trkpt lat="42.4891514517366886138916015625" lon="20.1788138039410114288330078125">
        <ele>1890.800048828125</ele>
        <time>2026-06-20T11:20:39.000Z</time>
        <extensions>
          <ns3:TrackPointExtension>
            <ns3:atemp>24.0</ns3:atemp>
          </ns3:TrackPointExtension>
        </extensions>
      </trkpt>
      <trkpt lat="42.4891514517366886138916015625" lon="20.1788138039410114288330078125">
        <ele>1890.800048828125</ele>
        <time>2026-06-20T11:20:40.000Z</time>
        <extensions>
          <ns3:TrackPointExtension>
            <ns3:atemp>24.0</ns3:atemp>
          </ns3:TrackPointExtension>
        </extensions>
      </trkpt>
      <trkpt lat="42.4891514517366886138916015625" lon="20.1788138039410114288330078125">
        <ele>1890.800048828125</ele>
        <time>2026-06-20T11:20:41.000Z</time>
        <extensions>
          <ns3:TrackPointExtension>
            <ns3:atemp>24.0</ns3:atemp>
          </ns3:TrackPointExtension>
        </extensions>
      </trkpt>
      <trkpt lat="42.4891514517366886138916015625" lon="20.1788138039410114288330078125">
        <ele>1890.800048828125</ele>
        <time>2026-06-20T11:20:42.000Z</time>
        <extensions>
          <ns3:TrackPointExtension>
            <ns3:atemp>24.0</ns3:atemp>
          </ns3:TrackPointExtension>
        </extensions>
      </trkpt>
      <trkpt lat="42.4891514517366886138916015625" lon="20.1788138039410114288330078125">
        <ele>1890.800048828125</ele>
        <time>2026-06-20T11:20:43.000Z</time>
        <extensions>
          <ns3:TrackPointExtension>
            <ns3:atemp>24.0</ns3:atemp>
          </ns3:TrackPointExtension>
        </extensions>
      </trkpt>
      <trkpt lat="42.4891514517366886138916015625" lon="20.1788138039410114288330078125">
        <ele>1890.800048828125</ele>
        <time>2026-06-20T11:20:44.000Z</time>
        <extensions>
          <ns3:TrackPointExtension>
            <ns3:atemp>24.0</ns3:atemp>
          </ns3:TrackPointExtension>
        </extensions>
      </trkpt>
      <trkpt lat="42.4891514517366886138916015625" lon="20.1788138039410114288330078125">
        <ele>1890.800048828125</ele>
        <time>2026-06-20T11:20:45.000Z</time>
        <extensions>
          <ns3:TrackPointExtension>
            <ns3:atemp>24.0</ns3:atemp>
          </ns3:TrackPointExtension>
        </extensions>
      </trkpt>
      <trkpt lat="42.4891514517366886138916015625" lon="20.1788138039410114288330078125">
        <ele>1890.800048828125</ele>
        <time>2026-06-20T11:20:46.000Z</time>
        <extensions>
          <ns3:TrackPointExtension>
            <ns3:atemp>24.0</ns3:atemp>
          </ns3:TrackPointExtension>
        </extensions>
      </trkpt>
      <trkpt lat="42.4891514517366886138916015625" lon="20.1788138039410114288330078125">
        <ele>1890.800048828125</ele>
        <time>2026-06-20T11:20:47.000Z</time>
        <extensions>
          <ns3:TrackPointExtension>
            <ns3:atemp>24.0</ns3:atemp>
          </ns3:TrackPointExtension>
        </extensions>
      </trkpt>
      <trkpt lat="42.4891514517366886138916015625" lon="20.1788138039410114288330078125">
        <ele>1890.800048828125</ele>
        <time>2026-06-20T11:20:48.000Z</time>
        <extensions>
          <ns3:TrackPointExtension>
            <ns3:atemp>24.0</ns3:atemp>
          </ns3:TrackPointExtension>
        </extensions>
      </trkpt>
      <trkpt lat="42.4891514517366886138916015625" lon="20.1788138039410114288330078125">
        <ele>1890.800048828125</ele>
        <time>2026-06-20T11:20:49.000Z</time>
        <extensions>
          <ns3:TrackPointExtension>
            <ns3:atemp>24.0</ns3:atemp>
          </ns3:TrackPointExtension>
        </extensions>
      </trkpt>
      <trkpt lat="42.4891514517366886138916015625" lon="20.1788138039410114288330078125">
        <ele>1890.800048828125</ele>
        <time>2026-06-20T11:20:50.000Z</time>
        <extensions>
          <ns3:TrackPointExtension>
            <ns3:atemp>24.0</ns3:atemp>
          </ns3:TrackPointExtension>
        </extensions>
      </trkpt>
      <trkpt lat="42.4891514517366886138916015625" lon="20.1788138039410114288330078125">
        <ele>1890.800048828125</ele>
        <time>2026-06-20T11:20:51.000Z</time>
        <extensions>
          <ns3:TrackPointExtension>
            <ns3:atemp>24.0</ns3:atemp>
          </ns3:TrackPointExtension>
        </extensions>
      </trkpt>
      <trkpt lat="42.4891514517366886138916015625" lon="20.1788138039410114288330078125">
        <ele>1890.800048828125</ele>
        <time>2026-06-20T11:20:52.000Z</time>
        <extensions>
          <ns3:TrackPointExtension>
            <ns3:atemp>24.0</ns3:atemp>
          </ns3:TrackPointExtension>
        </extensions>
      </trkpt>
      <trkpt lat="42.4891514517366886138916015625" lon="20.1788138039410114288330078125">
        <ele>1890.800048828125</ele>
        <time>2026-06-20T11:20:53.000Z</time>
        <extensions>
          <ns3:TrackPointExtension>
            <ns3:atemp>24.0</ns3:atemp>
          </ns3:TrackPointExtension>
        </extensions>
      </trkpt>
      <trkpt lat="42.4891514517366886138916015625" lon="20.1788138039410114288330078125">
        <ele>1890.800048828125</ele>
        <time>2026-06-20T11:20:54.000Z</time>
        <extensions>
          <ns3:TrackPointExtension>
            <ns3:atemp>24.0</ns3:atemp>
          </ns3:TrackPointExtension>
        </extensions>
      </trkpt>
      <trkpt lat="42.4891514517366886138916015625" lon="20.1788138039410114288330078125">
        <ele>1890.800048828125</ele>
        <time>2026-06-20T11:20:55.000Z</time>
        <extensions>
          <ns3:TrackPointExtension>
            <ns3:atemp>24.0</ns3:atemp>
          </ns3:TrackPointExtension>
        </extensions>
      </trkpt>
      <trkpt lat="42.4891514517366886138916015625" lon="20.1788138039410114288330078125">
        <ele>1890.800048828125</ele>
        <time>2026-06-20T11:20:56.000Z</time>
        <extensions>
          <ns3:TrackPointExtension>
            <ns3:atemp>24.0</ns3:atemp>
          </ns3:TrackPointExtension>
        </extensions>
      </trkpt>
      <trkpt lat="42.4891514517366886138916015625" lon="20.1788138039410114288330078125">
        <ele>1890.800048828125</ele>
        <time>2026-06-20T11:20:57.000Z</time>
        <extensions>
          <ns3:TrackPointExtension>
            <ns3:atemp>24.0</ns3:atemp>
          </ns3:TrackPointExtension>
        </extensions>
      </trkpt>
      <trkpt lat="42.4891514517366886138916015625" lon="20.1788138039410114288330078125">
        <ele>1890.800048828125</ele>
        <time>2026-06-20T11:20:58.000Z</time>
        <extensions>
          <ns3:TrackPointExtension>
            <ns3:atemp>24.0</ns3:atemp>
          </ns3:TrackPointExtension>
        </extensions>
      </trkpt>
      <trkpt lat="42.4891514517366886138916015625" lon="20.1788138039410114288330078125">
        <ele>1890.800048828125</ele>
        <time>2026-06-20T11:20:59.000Z</time>
        <extensions>
          <ns3:TrackPointExtension>
            <ns3:atemp>24.0</ns3:atemp>
          </ns3:TrackPointExtension>
        </extensions>
      </trkpt>
      <trkpt lat="42.4891514517366886138916015625" lon="20.1788138039410114288330078125">
        <ele>1890.800048828125</ele>
        <time>2026-06-20T11:21:00.000Z</time>
        <extensions>
          <ns3:TrackPointExtension>
            <ns3:atemp>24.0</ns3:atemp>
          </ns3:TrackPointExtension>
        </extensions>
      </trkpt>
      <trkpt lat="42.4891514517366886138916015625" lon="20.1788138039410114288330078125">
        <ele>1890.800048828125</ele>
        <time>2026-06-20T11:21:01.000Z</time>
        <extensions>
          <ns3:TrackPointExtension>
            <ns3:atemp>24.0</ns3:atemp>
          </ns3:TrackPointExtension>
        </extensions>
      </trkpt>
      <trkpt lat="42.4891514517366886138916015625" lon="20.1788138039410114288330078125">
        <ele>1890.800048828125</ele>
        <time>2026-06-20T11:21:02.000Z</time>
        <extensions>
          <ns3:TrackPointExtension>
            <ns3:atemp>24.0</ns3:atemp>
          </ns3:TrackPointExtension>
        </extensions>
      </trkpt>
      <trkpt lat="42.4891514517366886138916015625" lon="20.1788138039410114288330078125">
        <ele>1890.800048828125</ele>
        <time>2026-06-20T11:21:03.000Z</time>
        <extensions>
          <ns3:TrackPointExtension>
            <ns3:atemp>24.0</ns3:atemp>
          </ns3:TrackPointExtension>
        </extensions>
      </trkpt>
      <trkpt lat="42.4891514517366886138916015625" lon="20.1788138039410114288330078125">
        <ele>1890.800048828125</ele>
        <time>2026-06-20T11:21:04.000Z</time>
        <extensions>
          <ns3:TrackPointExtension>
            <ns3:atemp>24.0</ns3:atemp>
          </ns3:TrackPointExtension>
        </extensions>
      </trkpt>
      <trkpt lat="42.4891514517366886138916015625" lon="20.1788138039410114288330078125">
        <ele>1890.800048828125</ele>
        <time>2026-06-20T11:21:05.000Z</time>
        <extensions>
          <ns3:TrackPointExtension>
            <ns3:atemp>24.0</ns3:atemp>
          </ns3:TrackPointExtension>
        </extensions>
      </trkpt>
      <trkpt lat="42.4891514517366886138916015625" lon="20.1788138039410114288330078125">
        <ele>1890.800048828125</ele>
        <time>2026-06-20T11:21:06.000Z</time>
        <extensions>
          <ns3:TrackPointExtension>
            <ns3:atemp>24.0</ns3:atemp>
          </ns3:TrackPointExtension>
        </extensions>
      </trkpt>
      <trkpt lat="42.4891514517366886138916015625" lon="20.1788138039410114288330078125">
        <ele>1890.800048828125</ele>
        <time>2026-06-20T11:21:07.000Z</time>
        <extensions>
          <ns3:TrackPointExtension>
            <ns3:atemp>24.0</ns3:atemp>
          </ns3:TrackPointExtension>
        </extensions>
      </trkpt>
      <trkpt lat="42.4891514517366886138916015625" lon="20.1788138039410114288330078125">
        <ele>1890.800048828125</ele>
        <time>2026-06-20T11:21:08.000Z</time>
        <extensions>
          <ns3:TrackPointExtension>
            <ns3:atemp>24.0</ns3:atemp>
          </ns3:TrackPointExtension>
        </extensions>
      </trkpt>
      <trkpt lat="42.4891514517366886138916015625" lon="20.1788138039410114288330078125">
        <ele>1890.800048828125</ele>
        <time>2026-06-20T11:21:09.000Z</time>
        <extensions>
          <ns3:TrackPointExtension>
            <ns3:atemp>24.0</ns3:atemp>
          </ns3:TrackPointExtension>
        </extensions>
      </trkpt>
      <trkpt lat="42.4891514517366886138916015625" lon="20.1788138039410114288330078125">
        <ele>1890.800048828125</ele>
        <time>2026-06-20T11:21:10.000Z</time>
        <extensions>
          <ns3:TrackPointExtension>
            <ns3:atemp>24.0</ns3:atemp>
          </ns3:TrackPointExtension>
        </extensions>
      </trkpt>
      <trkpt lat="42.4891514517366886138916015625" lon="20.1788138039410114288330078125">
        <ele>1890.800048828125</ele>
        <time>2026-06-20T11:21:11.000Z</time>
        <extensions>
          <ns3:TrackPointExtension>
            <ns3:atemp>24.0</ns3:atemp>
          </ns3:TrackPointExtension>
        </extensions>
      </trkpt>
      <trkpt lat="42.4891514517366886138916015625" lon="20.1788138039410114288330078125">
        <ele>1890.800048828125</ele>
        <time>2026-06-20T11:21:12.000Z</time>
        <extensions>
          <ns3:TrackPointExtension>
            <ns3:atemp>25.0</ns3:atemp>
          </ns3:TrackPointExtension>
        </extensions>
      </trkpt>
      <trkpt lat="42.4891514517366886138916015625" lon="20.1788138039410114288330078125">
        <ele>1890.800048828125</ele>
        <time>2026-06-20T11:21:13.000Z</time>
        <extensions>
          <ns3:TrackPointExtension>
            <ns3:atemp>25.0</ns3:atemp>
          </ns3:TrackPointExtension>
        </extensions>
      </trkpt>
      <trkpt lat="42.4891514517366886138916015625" lon="20.1788138039410114288330078125">
        <ele>1890.800048828125</ele>
        <time>2026-06-20T11:21:14.000Z</time>
        <extensions>
          <ns3:TrackPointExtension>
            <ns3:atemp>25.0</ns3:atemp>
          </ns3:TrackPointExtension>
        </extensions>
      </trkpt>
      <trkpt lat="42.4891514517366886138916015625" lon="20.1788138039410114288330078125">
        <ele>1890.800048828125</ele>
        <time>2026-06-20T11:21:15.000Z</time>
        <extensions>
          <ns3:TrackPointExtension>
            <ns3:atemp>25.0</ns3:atemp>
          </ns3:TrackPointExtension>
        </extensions>
      </trkpt>
      <trkpt lat="42.4891514517366886138916015625" lon="20.1788138039410114288330078125">
        <ele>1890.800048828125</ele>
        <time>2026-06-20T11:21:16.000Z</time>
        <extensions>
          <ns3:TrackPointExtension>
            <ns3:atemp>25.0</ns3:atemp>
          </ns3:TrackPointExtension>
        </extensions>
      </trkpt>
      <trkpt lat="42.4891514517366886138916015625" lon="20.1788138039410114288330078125">
        <ele>1890.800048828125</ele>
        <time>2026-06-20T11:21:17.000Z</time>
        <extensions>
          <ns3:TrackPointExtension>
            <ns3:atemp>25.0</ns3:atemp>
          </ns3:TrackPointExtension>
        </extensions>
      </trkpt>
      <trkpt lat="42.4891514517366886138916015625" lon="20.1788138039410114288330078125">
        <ele>1890.800048828125</ele>
        <time>2026-06-20T11:21:18.000Z</time>
        <extensions>
          <ns3:TrackPointExtension>
            <ns3:atemp>25.0</ns3:atemp>
          </ns3:TrackPointExtension>
        </extensions>
      </trkpt>
      <trkpt lat="42.4891514517366886138916015625" lon="20.1788138039410114288330078125">
        <ele>1890.800048828125</ele>
        <time>2026-06-20T11:21:19.000Z</time>
        <extensions>
          <ns3:TrackPointExtension>
            <ns3:atemp>25.0</ns3:atemp>
          </ns3:TrackPointExtension>
        </extensions>
      </trkpt>
      <trkpt lat="42.4891514517366886138916015625" lon="20.1788138039410114288330078125">
        <ele>1890.800048828125</ele>
        <time>2026-06-20T11:21:20.000Z</time>
        <extensions>
          <ns3:TrackPointExtension>
            <ns3:atemp>25.0</ns3:atemp>
          </ns3:TrackPointExtension>
        </extensions>
      </trkpt>
      <trkpt lat="42.4891514517366886138916015625" lon="20.1788138039410114288330078125">
        <ele>1890.800048828125</ele>
        <time>2026-06-20T11:21:21.000Z</time>
        <extensions>
          <ns3:TrackPointExtension>
            <ns3:atemp>25.0</ns3:atemp>
          </ns3:TrackPointExtension>
        </extensions>
      </trkpt>
      <trkpt lat="42.4891514517366886138916015625" lon="20.1788138039410114288330078125">
        <ele>1890.800048828125</ele>
        <time>2026-06-20T11:21:22.000Z</time>
        <extensions>
          <ns3:TrackPointExtension>
            <ns3:atemp>25.0</ns3:atemp>
          </ns3:TrackPointExtension>
        </extensions>
      </trkpt>
      <trkpt lat="42.4891514517366886138916015625" lon="20.1788138039410114288330078125">
        <ele>1890.800048828125</ele>
        <time>2026-06-20T11:21:23.000Z</time>
        <extensions>
          <ns3:TrackPointExtension>
            <ns3:atemp>25.0</ns3:atemp>
          </ns3:TrackPointExtension>
        </extensions>
      </trkpt>
      <trkpt lat="42.4891514517366886138916015625" lon="20.1788138039410114288330078125">
        <ele>1890.800048828125</ele>
        <time>2026-06-20T11:21:24.000Z</time>
        <extensions>
          <ns3:TrackPointExtension>
            <ns3:atemp>25.0</ns3:atemp>
          </ns3:TrackPointExtension>
        </extensions>
      </trkpt>
      <trkpt lat="42.4891514517366886138916015625" lon="20.1788138039410114288330078125">
        <ele>1890.800048828125</ele>
        <time>2026-06-20T11:21:25.000Z</time>
        <extensions>
          <ns3:TrackPointExtension>
            <ns3:atemp>25.0</ns3:atemp>
          </ns3:TrackPointExtension>
        </extensions>
      </trkpt>
      <trkpt lat="42.4891514517366886138916015625" lon="20.1788138039410114288330078125">
        <ele>1890.800048828125</ele>
        <time>2026-06-20T11:21:26.000Z</time>
        <extensions>
          <ns3:TrackPointExtension>
            <ns3:atemp>25.0</ns3:atemp>
          </ns3:TrackPointExtension>
        </extensions>
      </trkpt>
      <trkpt lat="42.4891514517366886138916015625" lon="20.1788138039410114288330078125">
        <ele>1890.800048828125</ele>
        <time>2026-06-20T11:21:27.000Z</time>
        <extensions>
          <ns3:TrackPointExtension>
            <ns3:atemp>25.0</ns3:atemp>
          </ns3:TrackPointExtension>
        </extensions>
      </trkpt>
      <trkpt lat="42.4891514517366886138916015625" lon="20.1788138039410114288330078125">
        <ele>1890.800048828125</ele>
        <time>2026-06-20T11:21:28.000Z</time>
        <extensions>
          <ns3:TrackPointExtension>
            <ns3:atemp>25.0</ns3:atemp>
          </ns3:TrackPointExtension>
        </extensions>
      </trkpt>
      <trkpt lat="42.4891514517366886138916015625" lon="20.1788138039410114288330078125">
        <ele>1890.800048828125</ele>
        <time>2026-06-20T11:21:29.000Z</time>
        <extensions>
          <ns3:TrackPointExtension>
            <ns3:atemp>25.0</ns3:atemp>
          </ns3:TrackPointExtension>
        </extensions>
      </trkpt>
      <trkpt lat="42.4891514517366886138916015625" lon="20.1788138039410114288330078125">
        <ele>1890.800048828125</ele>
        <time>2026-06-20T11:21:30.000Z</time>
        <extensions>
          <ns3:TrackPointExtension>
            <ns3:atemp>25.0</ns3:atemp>
          </ns3:TrackPointExtension>
        </extensions>
      </trkpt>
      <trkpt lat="42.4891514517366886138916015625" lon="20.1788138039410114288330078125">
        <ele>1890.800048828125</ele>
        <time>2026-06-20T11:21:31.000Z</time>
        <extensions>
          <ns3:TrackPointExtension>
            <ns3:atemp>25.0</ns3:atemp>
          </ns3:TrackPointExtension>
        </extensions>
      </trkpt>
      <trkpt lat="42.4891514517366886138916015625" lon="20.1788138039410114288330078125">
        <ele>1890.800048828125</ele>
        <time>2026-06-20T11:21:32.000Z</time>
        <extensions>
          <ns3:TrackPointExtension>
            <ns3:atemp>25.0</ns3:atemp>
          </ns3:TrackPointExtension>
        </extensions>
      </trkpt>
      <trkpt lat="42.4891514517366886138916015625" lon="20.1788138039410114288330078125">
        <ele>1890.800048828125</ele>
        <time>2026-06-20T11:21:33.000Z</time>
        <extensions>
          <ns3:TrackPointExtension>
            <ns3:atemp>25.0</ns3:atemp>
          </ns3:TrackPointExtension>
        </extensions>
      </trkpt>
      <trkpt lat="42.4891514517366886138916015625" lon="20.1788138039410114288330078125">
        <ele>1890.800048828125</ele>
        <time>2026-06-20T11:21:34.000Z</time>
        <extensions>
          <ns3:TrackPointExtension>
            <ns3:atemp>25.0</ns3:atemp>
          </ns3:TrackPointExtension>
        </extensions>
      </trkpt>
      <trkpt lat="42.4891514517366886138916015625" lon="20.1788138039410114288330078125">
        <ele>1890.800048828125</ele>
        <time>2026-06-20T11:21:35.000Z</time>
        <extensions>
          <ns3:TrackPointExtension>
            <ns3:atemp>25.0</ns3:atemp>
          </ns3:TrackPointExtension>
        </extensions>
      </trkpt>
      <trkpt lat="42.4891514517366886138916015625" lon="20.1788138039410114288330078125">
        <ele>1890.800048828125</ele>
        <time>2026-06-20T11:21:36.000Z</time>
        <extensions>
          <ns3:TrackPointExtension>
            <ns3:atemp>25.0</ns3:atemp>
          </ns3:TrackPointExtension>
        </extensions>
      </trkpt>
      <trkpt lat="42.4891514517366886138916015625" lon="20.1788138039410114288330078125">
        <ele>1890.800048828125</ele>
        <time>2026-06-20T11:21:37.000Z</time>
        <extensions>
          <ns3:TrackPointExtension>
            <ns3:atemp>25.0</ns3:atemp>
          </ns3:TrackPointExtension>
        </extensions>
      </trkpt>
      <trkpt lat="42.4891514517366886138916015625" lon="20.1788138039410114288330078125">
        <ele>1890.800048828125</ele>
        <time>2026-06-20T11:21:38.000Z</time>
        <extensions>
          <ns3:TrackPointExtension>
            <ns3:atemp>25.0</ns3:atemp>
          </ns3:TrackPointExtension>
        </extensions>
      </trkpt>
      <trkpt lat="42.4891514517366886138916015625" lon="20.1788138039410114288330078125">
        <ele>1890.800048828125</ele>
        <time>2026-06-20T11:21:39.000Z</time>
        <extensions>
          <ns3:TrackPointExtension>
            <ns3:atemp>25.0</ns3:atemp>
          </ns3:TrackPointExtension>
        </extensions>
      </trkpt>
      <trkpt lat="42.4891514517366886138916015625" lon="20.1788138039410114288330078125">
        <ele>1890.800048828125</ele>
        <time>2026-06-20T11:21:40.000Z</time>
        <extensions>
          <ns3:TrackPointExtension>
            <ns3:atemp>25.0</ns3:atemp>
          </ns3:TrackPointExtension>
        </extensions>
      </trkpt>
      <trkpt lat="42.4891514517366886138916015625" lon="20.1788138039410114288330078125">
        <ele>1890.800048828125</ele>
        <time>2026-06-20T11:21:41.000Z</time>
        <extensions>
          <ns3:TrackPointExtension>
            <ns3:atemp>25.0</ns3:atemp>
          </ns3:TrackPointExtension>
        </extensions>
      </trkpt>
      <trkpt lat="42.4891514517366886138916015625" lon="20.1788138039410114288330078125">
        <ele>1890.800048828125</ele>
        <time>2026-06-20T11:21:42.000Z</time>
        <extensions>
          <ns3:TrackPointExtension>
            <ns3:atemp>25.0</ns3:atemp>
          </ns3:TrackPointExtension>
        </extensions>
      </trkpt>
      <trkpt lat="42.4891514517366886138916015625" lon="20.1788138039410114288330078125">
        <ele>1890.800048828125</ele>
        <time>2026-06-20T11:21:43.000Z</time>
        <extensions>
          <ns3:TrackPointExtension>
            <ns3:atemp>25.0</ns3:atemp>
          </ns3:TrackPointExtension>
        </extensions>
      </trkpt>
      <trkpt lat="42.4891514517366886138916015625" lon="20.1788138039410114288330078125">
        <ele>1890.800048828125</ele>
        <time>2026-06-20T11:21:44.000Z</time>
        <extensions>
          <ns3:TrackPointExtension>
            <ns3:atemp>25.0</ns3:atemp>
          </ns3:TrackPointExtension>
        </extensions>
      </trkpt>
      <trkpt lat="42.4891514517366886138916015625" lon="20.1788138039410114288330078125">
        <ele>1890.800048828125</ele>
        <time>2026-06-20T11:21:45.000Z</time>
        <extensions>
          <ns3:TrackPointExtension>
            <ns3:atemp>25.0</ns3:atemp>
          </ns3:TrackPointExtension>
        </extensions>
      </trkpt>
      <trkpt lat="42.4891514517366886138916015625" lon="20.1788138039410114288330078125">
        <ele>1890.800048828125</ele>
        <time>2026-06-20T11:21:46.000Z</time>
        <extensions>
          <ns3:TrackPointExtension>
            <ns3:atemp>25.0</ns3:atemp>
          </ns3:TrackPointExtension>
        </extensions>
      </trkpt>
      <trkpt lat="42.4891514517366886138916015625" lon="20.1788138039410114288330078125">
        <ele>1890.800048828125</ele>
        <time>2026-06-20T11:21:47.000Z</time>
        <extensions>
          <ns3:TrackPointExtension>
            <ns3:atemp>25.0</ns3:atemp>
          </ns3:TrackPointExtension>
        </extensions>
      </trkpt>
      <trkpt lat="42.4891514517366886138916015625" lon="20.1788138039410114288330078125">
        <ele>1890.800048828125</ele>
        <time>2026-06-20T11:21:48.000Z</time>
        <extensions>
          <ns3:TrackPointExtension>
            <ns3:atemp>25.0</ns3:atemp>
          </ns3:TrackPointExtension>
        </extensions>
      </trkpt>
      <trkpt lat="42.4891514517366886138916015625" lon="20.1788138039410114288330078125">
        <ele>1890.800048828125</ele>
        <time>2026-06-20T11:21:49.000Z</time>
        <extensions>
          <ns3:TrackPointExtension>
            <ns3:atemp>25.0</ns3:atemp>
          </ns3:TrackPointExtension>
        </extensions>
      </trkpt>
      <trkpt lat="42.4891514517366886138916015625" lon="20.1788138039410114288330078125">
        <ele>1890.800048828125</ele>
        <time>2026-06-20T11:21:50.000Z</time>
        <extensions>
          <ns3:TrackPointExtension>
            <ns3:atemp>25.0</ns3:atemp>
          </ns3:TrackPointExtension>
        </extensions>
      </trkpt>
      <trkpt lat="42.4891514517366886138916015625" lon="20.1788138039410114288330078125">
        <ele>1890.800048828125</ele>
        <time>2026-06-20T11:21:51.000Z</time>
        <extensions>
          <ns3:TrackPointExtension>
            <ns3:atemp>25.0</ns3:atemp>
          </ns3:TrackPointExtension>
        </extensions>
      </trkpt>
      <trkpt lat="42.4891514517366886138916015625" lon="20.1788138039410114288330078125">
        <ele>1890.800048828125</ele>
        <time>2026-06-20T11:21:52.000Z</time>
        <extensions>
          <ns3:TrackPointExtension>
            <ns3:atemp>25.0</ns3:atemp>
          </ns3:TrackPointExtension>
        </extensions>
      </trkpt>
      <trkpt lat="42.4891514517366886138916015625" lon="20.1788138039410114288330078125">
        <ele>1890.800048828125</ele>
        <time>2026-06-20T11:21:53.000Z</time>
        <extensions>
          <ns3:TrackPointExtension>
            <ns3:atemp>25.0</ns3:atemp>
          </ns3:TrackPointExtension>
        </extensions>
      </trkpt>
      <trkpt lat="42.4891514517366886138916015625" lon="20.1788138039410114288330078125">
        <ele>1890.800048828125</ele>
        <time>2026-06-20T11:21:54.000Z</time>
        <extensions>
          <ns3:TrackPointExtension>
            <ns3:atemp>25.0</ns3:atemp>
          </ns3:TrackPointExtension>
        </extensions>
      </trkpt>
      <trkpt lat="42.4891514517366886138916015625" lon="20.1788138039410114288330078125">
        <ele>1890.800048828125</ele>
        <time>2026-06-20T11:21:55.000Z</time>
        <extensions>
          <ns3:TrackPointExtension>
            <ns3:atemp>25.0</ns3:atemp>
          </ns3:TrackPointExtension>
        </extensions>
      </trkpt>
      <trkpt lat="42.4891514517366886138916015625" lon="20.1788138039410114288330078125">
        <ele>1890.800048828125</ele>
        <time>2026-06-20T11:21:56.000Z</time>
        <extensions>
          <ns3:TrackPointExtension>
            <ns3:atemp>25.0</ns3:atemp>
          </ns3:TrackPointExtension>
        </extensions>
      </trkpt>
      <trkpt lat="42.4891514517366886138916015625" lon="20.1788138039410114288330078125">
        <ele>1890.800048828125</ele>
        <time>2026-06-20T11:21:57.000Z</time>
        <extensions>
          <ns3:TrackPointExtension>
            <ns3:atemp>25.0</ns3:atemp>
          </ns3:TrackPointExtension>
        </extensions>
      </trkpt>
      <trkpt lat="42.4891514517366886138916015625" lon="20.1788138039410114288330078125">
        <ele>1890.800048828125</ele>
        <time>2026-06-20T11:21:58.000Z</time>
        <extensions>
          <ns3:TrackPointExtension>
            <ns3:atemp>25.0</ns3:atemp>
          </ns3:TrackPointExtension>
        </extensions>
      </trkpt>
      <trkpt lat="42.4891514517366886138916015625" lon="20.1788138039410114288330078125">
        <ele>1890.800048828125</ele>
        <time>2026-06-20T11:21:59.000Z</time>
        <extensions>
          <ns3:TrackPointExtension>
            <ns3:atemp>25.0</ns3:atemp>
          </ns3:TrackPointExtension>
        </extensions>
      </trkpt>
      <trkpt lat="42.4891514517366886138916015625" lon="20.1788138039410114288330078125">
        <ele>1890.800048828125</ele>
        <time>2026-06-20T11:22:00.000Z</time>
        <extensions>
          <ns3:TrackPointExtension>
            <ns3:atemp>25.0</ns3:atemp>
          </ns3:TrackPointExtension>
        </extensions>
      </trkpt>
      <trkpt lat="42.4891514517366886138916015625" lon="20.1788138039410114288330078125">
        <ele>1890.800048828125</ele>
        <time>2026-06-20T11:22:01.000Z</time>
        <extensions>
          <ns3:TrackPointExtension>
            <ns3:atemp>25.0</ns3:atemp>
          </ns3:TrackPointExtension>
        </extensions>
      </trkpt>
      <trkpt lat="42.4891514517366886138916015625" lon="20.1788138039410114288330078125">
        <ele>1890.800048828125</ele>
        <time>2026-06-20T11:22:02.000Z</time>
        <extensions>
          <ns3:TrackPointExtension>
            <ns3:atemp>25.0</ns3:atemp>
          </ns3:TrackPointExtension>
        </extensions>
      </trkpt>
      <trkpt lat="42.4891514517366886138916015625" lon="20.1788138039410114288330078125">
        <ele>1890.800048828125</ele>
        <time>2026-06-20T11:22:03.000Z</time>
        <extensions>
          <ns3:TrackPointExtension>
            <ns3:atemp>25.0</ns3:atemp>
          </ns3:TrackPointExtension>
        </extensions>
      </trkpt>
      <trkpt lat="42.48914885334670543670654296875" lon="20.17881439067423343658447265625">
        <ele>1890.800048828125</ele>
        <time>2026-06-20T11:22:04.000Z</time>
        <extensions>
          <ns3:TrackPointExtension>
            <ns3:atemp>25.0</ns3:atemp>
          </ns3:TrackPointExtension>
        </extensions>
      </trkpt>
      <trkpt lat="42.48913091607391834259033203125" lon="20.1787997223436832427978515625">
        <ele>1891</ele>
        <time>2026-06-20T11:22:05.000Z</time>
        <extensions>
          <ns3:TrackPointExtension>
            <ns3:atemp>25.0</ns3:atemp>
          </ns3:TrackPointExtension>
        </extensions>
      </trkpt>
      <trkpt lat="42.48911147005856037139892578125" lon="20.178787149488925933837890625">
        <ele>1890.800048828125</ele>
        <time>2026-06-20T11:22:06.000Z</time>
        <extensions>
          <ns3:TrackPointExtension>
            <ns3:atemp>25.0</ns3:atemp>
          </ns3:TrackPointExtension>
        </extensions>
      </trkpt>
      <trkpt lat="42.489092610776424407958984375" lon="20.17877633683383464813232421875">
        <ele>1890.5999755859375</ele>
        <time>2026-06-20T11:22:07.000Z</time>
        <extensions>
          <ns3:TrackPointExtension>
            <ns3:atemp>25.0</ns3:atemp>
          </ns3:TrackPointExtension>
        </extensions>
      </trkpt>
      <trkpt lat="42.48907794244587421417236328125" lon="20.17876476980745792388916015625">
        <ele>1890.5999755859375</ele>
        <time>2026-06-20T11:22:08.000Z</time>
        <extensions>
          <ns3:TrackPointExtension>
            <ns3:atemp>25.0</ns3:atemp>
          </ns3:TrackPointExtension>
        </extensions>
      </trkpt>
      <trkpt lat="42.48905916698276996612548828125" lon="20.17875521443784236907958984375">
        <ele>1890.800048828125</ele>
        <time>2026-06-20T11:22:09.000Z</time>
        <extensions>
          <ns3:TrackPointExtension>
            <ns3:atemp>25.0</ns3:atemp>
          </ns3:TrackPointExtension>
        </extensions>
      </trkpt>
      <trkpt lat="42.4890357814729213714599609375" lon="20.1787517778575420379638671875">
        <ele>1890.800048828125</ele>
        <time>2026-06-20T11:22:10.000Z</time>
        <extensions>
          <ns3:TrackPointExtension>
            <ns3:atemp>25.0</ns3:atemp>
          </ns3:TrackPointExtension>
        </extensions>
      </trkpt>
      <trkpt lat="42.48900912702083587646484375" lon="20.178750939667224884033203125">
        <ele>1891</ele>
        <time>2026-06-20T11:22:11.000Z</time>
        <extensions>
          <ns3:TrackPointExtension>
            <ns3:atemp>25.0</ns3:atemp>
          </ns3:TrackPointExtension>
        </extensions>
      </trkpt>
      <trkpt lat="42.4889854900538921356201171875" lon="20.1787611655890941619873046875">
        <ele>1891.199951171875</ele>
        <time>2026-06-20T11:22:12.000Z</time>
        <extensions>
          <ns3:TrackPointExtension>
            <ns3:atemp>25.0</ns3:atemp>
          </ns3:TrackPointExtension>
        </extensions>
      </trkpt>
      <trkpt lat="42.488966546952724456787109375" lon="20.17877566628158092498779296875">
        <ele>1891.199951171875</ele>
        <time>2026-06-20T11:22:13.000Z</time>
        <extensions>
          <ns3:TrackPointExtension>
            <ns3:atemp>25.0</ns3:atemp>
          </ns3:TrackPointExtension>
        </extensions>
      </trkpt>
      <trkpt lat="42.48894986696541309356689453125" lon="20.17879678867757320404052734375">
        <ele>1891.199951171875</ele>
        <time>2026-06-20T11:22:14.000Z</time>
        <extensions>
          <ns3:TrackPointExtension>
            <ns3:atemp>25.0</ns3:atemp>
          </ns3:TrackPointExtension>
        </extensions>
      </trkpt>
      <trkpt lat="42.48892975039780139923095703125" lon="20.17881992273032665252685546875">
        <ele>1891.199951171875</ele>
        <time>2026-06-20T11:22:15.000Z</time>
        <extensions>
          <ns3:TrackPointExtension>
            <ns3:atemp>25.0</ns3:atemp>
          </ns3:TrackPointExtension>
        </extensions>
      </trkpt>
      <trkpt lat="42.48890493996441364288330078125" lon="20.17884037457406520843505859375">
        <ele>1891.4000244140625</ele>
        <time>2026-06-20T11:22:16.000Z</time>
        <extensions>
          <ns3:TrackPointExtension>
            <ns3:atemp>25.0</ns3:atemp>
          </ns3:TrackPointExtension>
        </extensions>
      </trkpt>
      <trkpt lat="42.4888797104358673095703125" lon="20.17885311506688594818115234375">
        <ele>1891.4000244140625</ele>
        <time>2026-06-20T11:22:17.000Z</time>
        <extensions>
          <ns3:TrackPointExtension>
            <ns3:atemp>25.0</ns3:atemp>
          </ns3:TrackPointExtension>
        </extensions>
      </trkpt>
      <trkpt lat="42.48885598964989185333251953125" lon="20.17886166460812091827392578125">
        <ele>1891.800048828125</ele>
        <time>2026-06-20T11:22:18.000Z</time>
        <extensions>
          <ns3:TrackPointExtension>
            <ns3:atemp>25.0</ns3:atemp>
          </ns3:TrackPointExtension>
        </extensions>
      </trkpt>
      <trkpt lat="42.48883302323520183563232421875" lon="20.178865604102611541748046875">
        <ele>1892.199951171875</ele>
        <time>2026-06-20T11:22:19.000Z</time>
        <extensions>
          <ns3:TrackPointExtension>
            <ns3:atemp>25.0</ns3:atemp>
          </ns3:TrackPointExtension>
        </extensions>
      </trkpt>
      <trkpt lat="42.48880930244922637939453125" lon="20.1788686215877532958984375">
        <ele>1892.5999755859375</ele>
        <time>2026-06-20T11:22:20.000Z</time>
        <extensions>
          <ns3:TrackPointExtension>
            <ns3:atemp>25.0</ns3:atemp>
          </ns3:TrackPointExtension>
        </extensions>
      </trkpt>
      <trkpt lat="42.48878742568194866180419921875" lon="20.17886686138808727264404296875">
        <ele>1893</ele>
        <time>2026-06-20T11:22:21.000Z</time>
        <extensions>
          <ns3:TrackPointExtension>
            <ns3:atemp>25.0</ns3:atemp>
          </ns3:TrackPointExtension>
        </extensions>
      </trkpt>
      <trkpt lat="42.488768063485622406005859375" lon="20.17886459827423095703125">
        <ele>1893.4000244140625</ele>
        <time>2026-06-20T11:22:22.000Z</time>
        <extensions>
          <ns3:TrackPointExtension>
            <ns3:atemp>25.0</ns3:atemp>
          </ns3:TrackPointExtension>
        </extensions>
      </trkpt>
      <trkpt lat="42.488749288022518157958984375" lon="20.17886887304484844207763671875">
        <ele>1893.5999755859375</ele>
        <time>2026-06-20T11:22:23.000Z</time>
        <extensions>
          <ns3:TrackPointExtension>
            <ns3:atemp>25.0</ns3:atemp>
          </ns3:TrackPointExtension>
        </extensions>
      </trkpt>
      <trkpt lat="42.48872481286525726318359375" lon="20.1788711361587047576904296875">
        <ele>1894</ele>
        <time>2026-06-20T11:22:24.000Z</time>
        <extensions>
          <ns3:TrackPointExtension>
            <ns3:atemp>25.0</ns3:atemp>
          </ns3:TrackPointExtension>
        </extensions>
      </trkpt>
      <trkpt lat="42.4887015111744403839111328125" lon="20.17887876369059085845947265625">
        <ele>1894</ele>
        <time>2026-06-20T11:22:25.000Z</time>
        <extensions>
          <ns3:TrackPointExtension>
            <ns3:atemp>25.0</ns3:atemp>
          </ns3:TrackPointExtension>
        </extensions>
      </trkpt>
      <trkpt lat="42.48867862857878208160400390625" lon="20.17888865433633327484130859375">
        <ele>1894.199951171875</ele>
        <time>2026-06-20T11:22:26.000Z</time>
        <extensions>
          <ns3:TrackPointExtension>
            <ns3:atemp>25.0</ns3:atemp>
          </ns3:TrackPointExtension>
        </extensions>
      </trkpt>
      <trkpt lat="42.48865800909698009490966796875" lon="20.17890240065753459930419921875">
        <ele>1894.5999755859375</ele>
        <time>2026-06-20T11:22:27.000Z</time>
        <extensions>
          <ns3:TrackPointExtension>
            <ns3:atemp>25.0</ns3:atemp>
          </ns3:TrackPointExtension>
        </extensions>
      </trkpt>
      <trkpt lat="42.48863705433905124664306640625" lon="20.17891212366521358489990234375">
        <ele>1894.800048828125</ele>
        <time>2026-06-20T11:22:28.000Z</time>
        <extensions>
          <ns3:TrackPointExtension>
            <ns3:atemp>25.0</ns3:atemp>
          </ns3:TrackPointExtension>
        </extensions>
      </trkpt>
      <trkpt lat="42.48861216008663177490234375" lon="20.1789170689880847930908203125">
        <ele>1895.199951171875</ele>
        <time>2026-06-20T11:22:29.000Z</time>
        <extensions>
          <ns3:TrackPointExtension>
            <ns3:atemp>25.0</ns3:atemp>
          </ns3:TrackPointExtension>
        </extensions>
      </trkpt>
      <trkpt lat="42.4885905347764492034912109375" lon="20.17891623079776763916015625">
        <ele>1895.5999755859375</ele>
        <time>2026-06-20T11:22:30.000Z</time>
        <extensions>
          <ns3:TrackPointExtension>
            <ns3:atemp>25.0</ns3:atemp>
          </ns3:TrackPointExtension>
        </extensions>
      </trkpt>
      <trkpt lat="42.48857402242720127105712890625" lon="20.17891480587422847747802734375">
        <ele>1896</ele>
        <time>2026-06-20T11:22:31.000Z</time>
        <extensions>
          <ns3:TrackPointExtension>
            <ns3:atemp>25.0</ns3:atemp>
          </ns3:TrackPointExtension>
        </extensions>
      </trkpt>
      <trkpt lat="42.48855491168797016143798828125" lon="20.1789174042642116546630859375">
        <ele>1896.4000244140625</ele>
        <time>2026-06-20T11:22:32.000Z</time>
        <extensions>
          <ns3:TrackPointExtension>
            <ns3:atemp>25.0</ns3:atemp>
          </ns3:TrackPointExtension>
        </extensions>
      </trkpt>
      <trkpt lat="42.48853563331067562103271484375" lon="20.17891765572130680084228515625">
        <ele>1896.5999755859375</ele>
        <time>2026-06-20T11:22:33.000Z</time>
        <extensions>
          <ns3:TrackPointExtension>
            <ns3:atemp>25.0</ns3:atemp>
          </ns3:TrackPointExtension>
        </extensions>
      </trkpt>
      <trkpt lat="42.48851534910500049591064453125" lon="20.1789150573313236236572265625">
        <ele>1897</ele>
        <time>2026-06-20T11:22:34.000Z</time>
        <extensions>
          <ns3:TrackPointExtension>
            <ns3:atemp>25.0</ns3:atemp>
          </ns3:TrackPointExtension>
        </extensions>
      </trkpt>
      <trkpt lat="42.48849506489932537078857421875" lon="20.17891262657940387725830078125">
        <ele>1897.199951171875</ele>
        <time>2026-06-20T11:22:35.000Z</time>
        <extensions>
          <ns3:TrackPointExtension>
            <ns3:atemp>25.0</ns3:atemp>
          </ns3:TrackPointExtension>
        </extensions>
      </trkpt>
      <trkpt lat="42.4884758703410625457763671875" lon="20.17891027964651584625244140625">
        <ele>1897.4000244140625</ele>
        <time>2026-06-20T11:22:36.000Z</time>
        <extensions>
          <ns3:TrackPointExtension>
            <ns3:atemp>25.0</ns3:atemp>
          </ns3:TrackPointExtension>
        </extensions>
      </trkpt>
      <trkpt lat="42.48845449648797512054443359375" lon="20.17891380004584789276123046875">
        <ele>1897.5999755859375</ele>
        <time>2026-06-20T11:22:37.000Z</time>
        <extensions>
          <ns3:TrackPointExtension>
            <ns3:atemp>25.0</ns3:atemp>
          </ns3:TrackPointExtension>
        </extensions>
      </trkpt>
      <trkpt lat="42.4884326197206974029541015625" lon="20.17891899682581424713134765625">
        <ele>1897.800048828125</ele>
        <time>2026-06-20T11:22:38.000Z</time>
        <extensions>
          <ns3:TrackPointExtension>
            <ns3:atemp>25.0</ns3:atemp>
          </ns3:TrackPointExtension>
        </extensions>
      </trkpt>
      <trkpt lat="42.48841158114373683929443359375" lon="20.17892117612063884735107421875">
        <ele>1897.800048828125</ele>
        <time>2026-06-20T11:22:39.000Z</time>
        <extensions>
          <ns3:TrackPointExtension>
            <ns3:atemp>25.0</ns3:atemp>
          </ns3:TrackPointExtension>
        </extensions>
      </trkpt>
      <trkpt lat="42.48838777653872966766357421875" lon="20.178922601044178009033203125">
        <ele>1898</ele>
        <time>2026-06-20T11:22:40.000Z</time>
        <extensions>
          <ns3:TrackPointExtension>
            <ns3:atemp>25.0</ns3:atemp>
          </ns3:TrackPointExtension>
        </extensions>
      </trkpt>
      <trkpt lat="42.4883645586669445037841796875" lon="20.17892888747155666351318359375">
        <ele>1898.199951171875</ele>
        <time>2026-06-20T11:22:41.000Z</time>
        <extensions>
          <ns3:TrackPointExtension>
            <ns3:atemp>25.0</ns3:atemp>
          </ns3:TrackPointExtension>
        </extensions>
      </trkpt>
      <trkpt lat="42.48834167607128620147705078125" lon="20.17893291078507900238037109375">
        <ele>1898.4000244140625</ele>
        <time>2026-06-20T11:22:42.000Z</time>
        <extensions>
          <ns3:TrackPointExtension>
            <ns3:atemp>25.0</ns3:atemp>
          </ns3:TrackPointExtension>
        </extensions>
      </trkpt>
      <trkpt lat="42.4883186258375644683837890625" lon="20.178935341536998748779296875">
        <ele>1898.5999755859375</ele>
        <time>2026-06-20T11:22:43.000Z</time>
        <extensions>
          <ns3:TrackPointExtension>
            <ns3:atemp>25.0</ns3:atemp>
          </ns3:TrackPointExtension>
        </extensions>
      </trkpt>
      <trkpt lat="42.4882934801280498504638671875" lon="20.1789391972124576568603515625">
        <ele>1898.800048828125</ele>
        <time>2026-06-20T11:22:44.000Z</time>
        <extensions>
          <ns3:TrackPointExtension>
            <ns3:atemp>25.0</ns3:atemp>
          </ns3:TrackPointExtension>
        </extensions>
      </trkpt>
      <trkpt lat="42.48827160336077213287353515625" lon="20.17894900403916835784912109375">
        <ele>1899.199951171875</ele>
        <time>2026-06-20T11:22:45.000Z</time>
        <extensions>
          <ns3:TrackPointExtension>
            <ns3:atemp>25.0</ns3:atemp>
          </ns3:TrackPointExtension>
        </extensions>
      </trkpt>
      <trkpt lat="42.48824796639382839202880859375" lon="20.1789544522762298583984375">
        <ele>1899.4000244140625</ele>
        <time>2026-06-20T11:22:46.000Z</time>
        <extensions>
          <ns3:TrackPointExtension>
            <ns3:atemp>25.0</ns3:atemp>
          </ns3:TrackPointExtension>
        </extensions>
      </trkpt>
      <trkpt lat="42.488220892846584320068359375" lon="20.17896107397973537445068359375">
        <ele>1899.5999755859375</ele>
        <time>2026-06-20T11:22:47.000Z</time>
        <extensions>
          <ns3:TrackPointExtension>
            <ns3:atemp>25.0</ns3:atemp>
          </ns3:TrackPointExtension>
        </extensions>
      </trkpt>
      <trkpt lat="42.488191388547420501708984375" lon="20.17896375618875026702880859375">
        <ele>1899.800048828125</ele>
        <time>2026-06-20T11:22:48.000Z</time>
        <extensions>
          <ns3:TrackPointExtension>
            <ns3:atemp>25.0</ns3:atemp>
          </ns3:TrackPointExtension>
        </extensions>
      </trkpt>
      <trkpt lat="42.4881635606288909912109375" lon="20.17896358855068683624267578125">
        <ele>1900</ele>
        <time>2026-06-20T11:22:49.000Z</time>
        <extensions>
          <ns3:TrackPointExtension>
            <ns3:atemp>25.0</ns3:atemp>
          </ns3:TrackPointExtension>
        </extensions>
      </trkpt>
      <trkpt lat="42.4881362356245517730712890625" lon="20.1789646781980991363525390625">
        <ele>1900</ele>
        <time>2026-06-20T11:22:50.000Z</time>
        <extensions>
          <ns3:TrackPointExtension>
            <ns3:atemp>25.0</ns3:atemp>
          </ns3:TrackPointExtension>
        </extensions>
      </trkpt>
      <trkpt lat="42.48811058700084686279296875" lon="20.17896476201713085174560546875">
        <ele>1900.199951171875</ele>
        <time>2026-06-20T11:22:51.000Z</time>
        <extensions>
          <ns3:TrackPointExtension>
            <ns3:atemp>25.0</ns3:atemp>
          </ns3:TrackPointExtension>
        </extensions>
      </trkpt>
      <trkpt lat="42.4880852736532688140869140625" lon="20.17896124161779880523681640625">
        <ele>1900.4000244140625</ele>
        <time>2026-06-20T11:22:52.000Z</time>
        <extensions>
          <ns3:TrackPointExtension>
            <ns3:atemp>25.0</ns3:atemp>
          </ns3:TrackPointExtension>
        </extensions>
      </trkpt>
      <trkpt lat="42.48805820010602474212646484375" lon="20.1789539493620395660400390625">
        <ele>1900.4000244140625</ele>
        <time>2026-06-20T11:22:53.000Z</time>
        <extensions>
          <ns3:TrackPointExtension>
            <ns3:atemp>25.0</ns3:atemp>
          </ns3:TrackPointExtension>
        </extensions>
      </trkpt>
      <trkpt lat="42.48803238384425640106201171875" lon="20.17894171178340911865234375">
        <ele>1900.5999755859375</ele>
        <time>2026-06-20T11:22:54.000Z</time>
        <extensions>
          <ns3:TrackPointExtension>
            <ns3:atemp>25.0</ns3:atemp>
          </ns3:TrackPointExtension>
        </extensions>
      </trkpt>
      <trkpt lat="42.4880141951143741607666015625" lon="20.17892369069159030914306640625">
        <ele>1900.800048828125</ele>
        <time>2026-06-20T11:22:55.000Z</time>
        <extensions>
          <ns3:TrackPointExtension>
            <ns3:atemp>25.0</ns3:atemp>
          </ns3:TrackPointExtension>
        </extensions>
      </trkpt>
      <trkpt lat="42.48799365945160388946533203125" lon="20.17890307120978832244873046875">
        <ele>1900.800048828125</ele>
        <time>2026-06-20T11:22:56.000Z</time>
        <extensions>
          <ns3:TrackPointExtension>
            <ns3:atemp>25.0</ns3:atemp>
          </ns3:TrackPointExtension>
        </extensions>
      </trkpt>
      <trkpt lat="42.487978823482990264892578125" lon="20.17887842841446399688720703125">
        <ele>1901</ele>
        <time>2026-06-20T11:22:57.000Z</time>
        <extensions>
          <ns3:TrackPointExtension>
            <ns3:atemp>25.0</ns3:atemp>
          </ns3:TrackPointExtension>
        </extensions>
      </trkpt>
      <trkpt lat="42.48796440660953521728515625" lon="20.17885412089526653289794921875">
        <ele>1901.199951171875</ele>
        <time>2026-06-20T11:22:58.000Z</time>
        <extensions>
          <ns3:TrackPointExtension>
            <ns3:atemp>25.0</ns3:atemp>
          </ns3:TrackPointExtension>
        </extensions>
      </trkpt>
      <trkpt lat="42.48795359395444393157958984375" lon="20.17882646061480045318603515625">
        <ele>1901.4000244140625</ele>
        <time>2026-06-20T11:22:59.000Z</time>
        <extensions>
          <ns3:TrackPointExtension>
            <ns3:atemp>25.0</ns3:atemp>
          </ns3:TrackPointExtension>
        </extensions>
      </trkpt>
      <trkpt lat="42.4879427812993526458740234375" lon="20.1787988841533660888671875">
        <ele>1901.4000244140625</ele>
        <time>2026-06-20T11:23:00.000Z</time>
        <extensions>
          <ns3:TrackPointExtension>
            <ns3:atemp>25.0</ns3:atemp>
          </ns3:TrackPointExtension>
        </extensions>
      </trkpt>
      <trkpt lat="42.4879307113587856292724609375" lon="20.17877130769193172454833984375">
        <ele>1901.5999755859375</ele>
        <time>2026-06-20T11:23:01.000Z</time>
        <extensions>
          <ns3:TrackPointExtension>
            <ns3:atemp>25.0</ns3:atemp>
          </ns3:TrackPointExtension>
        </extensions>
      </trkpt>
      <trkpt lat="42.48792107217013835906982421875" lon="20.1787457428872585296630859375">
        <ele>1901.800048828125</ele>
        <time>2026-06-20T11:23:02.000Z</time>
        <extensions>
          <ns3:TrackPointExtension>
            <ns3:atemp>25.0</ns3:atemp>
          </ns3:TrackPointExtension>
        </extensions>
      </trkpt>
      <trkpt lat="42.48791034333407878875732421875" lon="20.178718753159046173095703125">
        <ele>1902</ele>
        <time>2026-06-20T11:23:03.000Z</time>
        <extensions>
          <ns3:TrackPointExtension>
            <ns3:atemp>25.0</ns3:atemp>
          </ns3:TrackPointExtension>
        </extensions>
      </trkpt>
      <trkpt lat="42.48789860866963863372802734375" lon="20.17868983559310436248779296875">
        <ele>1902.199951171875</ele>
        <time>2026-06-20T11:23:04.000Z</time>
        <extensions>
          <ns3:TrackPointExtension>
            <ns3:atemp>25.0</ns3:atemp>
          </ns3:TrackPointExtension>
        </extensions>
      </trkpt>
      <trkpt lat="42.4878888018429279327392578125" lon="20.17865471541881561279296875">
        <ele>1902.199951171875</ele>
        <time>2026-06-20T11:23:05.000Z</time>
        <extensions>
          <ns3:TrackPointExtension>
            <ns3:atemp>25.0</ns3:atemp>
          </ns3:TrackPointExtension>
        </extensions>
      </trkpt>
      <trkpt lat="42.4878794141113758087158203125" lon="20.1786196790635585784912109375">
        <ele>1902.4000244140625</ele>
        <time>2026-06-20T11:23:06.000Z</time>
        <extensions>
          <ns3:TrackPointExtension>
            <ns3:atemp>25.0</ns3:atemp>
          </ns3:TrackPointExtension>
        </extensions>
      </trkpt>
      <trkpt lat="42.48787044547498226165771484375" lon="20.17858673818409442901611328125">
        <ele>1902.5999755859375</ele>
        <time>2026-06-20T11:23:07.000Z</time>
        <extensions>
          <ns3:TrackPointExtension>
            <ns3:atemp>25.0</ns3:atemp>
          </ns3:TrackPointExtension>
        </extensions>
      </trkpt>
      <trkpt lat="42.4878604710102081298828125" lon="20.178553126752376556396484375">
        <ele>1902.5999755859375</ele>
        <time>2026-06-20T11:23:08.000Z</time>
        <extensions>
          <ns3:TrackPointExtension>
            <ns3:atemp>25.0</ns3:atemp>
          </ns3:TrackPointExtension>
        </extensions>
      </trkpt>
      <trkpt lat="42.48784982599318027496337890625" lon="20.17852152697741985321044921875">
        <ele>1902.800048828125</ele>
        <time>2026-06-20T11:23:09.000Z</time>
        <extensions>
          <ns3:TrackPointExtension>
            <ns3:atemp>25.0</ns3:atemp>
          </ns3:TrackPointExtension>
        </extensions>
      </trkpt>
      <trkpt lat="42.4878421984612941741943359375" lon="20.1784919388592243194580078125">
        <ele>1903</ele>
        <time>2026-06-20T11:23:10.000Z</time>
        <extensions>
          <ns3:TrackPointExtension>
            <ns3:atemp>25.0</ns3:atemp>
          </ns3:TrackPointExtension>
        </extensions>
      </trkpt>
      <trkpt lat="42.487823925912380218505859375" lon="20.17847157083451747894287109375">
        <ele>1903.199951171875</ele>
        <time>2026-06-20T11:23:11.000Z</time>
        <extensions>
          <ns3:TrackPointExtension>
            <ns3:atemp>25.0</ns3:atemp>
          </ns3:TrackPointExtension>
        </extensions>
      </trkpt>
      <trkpt lat="42.487801127135753631591796875" lon="20.1784691400825977325439453125">
        <ele>1903.4000244140625</ele>
        <time>2026-06-20T11:23:12.000Z</time>
        <extensions>
          <ns3:TrackPointExtension>
            <ns3:atemp>25.0</ns3:atemp>
          </ns3:TrackPointExtension>
        </extensions>
      </trkpt>
      <trkpt lat="42.48777841217815876007080078125" lon="20.1784743368625640869140625">
        <ele>1903.5999755859375</ele>
        <time>2026-06-20T11:23:13.000Z</time>
        <extensions>
          <ns3:TrackPointExtension>
            <ns3:atemp>25.0</ns3:atemp>
          </ns3:TrackPointExtension>
        </extensions>
      </trkpt>
      <trkpt lat="42.487757541239261627197265625" lon="20.17847903072834014892578125">
        <ele>1903.800048828125</ele>
        <time>2026-06-20T11:23:14.000Z</time>
        <extensions>
          <ns3:TrackPointExtension>
            <ns3:atemp>25.0</ns3:atemp>
          </ns3:TrackPointExtension>
        </extensions>
      </trkpt>
      <trkpt lat="42.48773482628166675567626953125" lon="20.17848598770797252655029296875">
        <ele>1904</ele>
        <time>2026-06-20T11:23:15.000Z</time>
        <extensions>
          <ns3:TrackPointExtension>
            <ns3:atemp>25.0</ns3:atemp>
          </ns3:TrackPointExtension>
        </extensions>
      </trkpt>
      <trkpt lat="42.4877144582569599151611328125" lon="20.17849721945822238922119140625">
        <ele>1904.199951171875</ele>
        <time>2026-06-20T11:23:16.000Z</time>
        <extensions>
          <ns3:TrackPointExtension>
            <ns3:atemp>25.0</ns3:atemp>
          </ns3:TrackPointExtension>
        </extensions>
      </trkpt>
      <trkpt lat="42.4876960180699825286865234375" lon="20.17850962467491626739501953125">
        <ele>1904.4000244140625</ele>
        <time>2026-06-20T11:23:17.000Z</time>
        <extensions>
          <ns3:TrackPointExtension>
            <ns3:atemp>25.0</ns3:atemp>
          </ns3:TrackPointExtension>
        </extensions>
      </trkpt>
      <trkpt lat="42.4876772426068782806396484375" lon="20.17851834185421466827392578125">
        <ele>1904.5999755859375</ele>
        <time>2026-06-20T11:23:18.000Z</time>
        <extensions>
          <ns3:TrackPointExtension>
            <ns3:atemp>25.0</ns3:atemp>
          </ns3:TrackPointExtension>
        </extensions>
      </trkpt>
      <trkpt lat="42.487658299505710601806640625" lon="20.17853192053735256195068359375">
        <ele>1904.800048828125</ele>
        <time>2026-06-20T11:23:19.000Z</time>
        <extensions>
          <ns3:TrackPointExtension>
            <ns3:atemp>25.0</ns3:atemp>
          </ns3:TrackPointExtension>
        </extensions>
      </trkpt>
      <trkpt lat="42.4876349978148937225341796875" lon="20.17854918725788593292236328125">
        <ele>1905</ele>
        <time>2026-06-20T11:23:20.000Z</time>
        <extensions>
          <ns3:TrackPointExtension>
            <ns3:atemp>25.0</ns3:atemp>
          </ns3:TrackPointExtension>
        </extensions>
      </trkpt>
      <trkpt lat="42.4876158870756626129150390625" lon="20.1785735785961151123046875">
        <ele>1905.199951171875</ele>
        <time>2026-06-20T11:23:21.000Z</time>
        <extensions>
          <ns3:TrackPointExtension>
            <ns3:atemp>25.0</ns3:atemp>
          </ns3:TrackPointExtension>
        </extensions>
      </trkpt>
      <trkpt lat="42.48759694397449493408203125" lon="20.17860400490462779998779296875">
        <ele>1905.4000244140625</ele>
        <time>2026-06-20T11:23:22.000Z</time>
        <extensions>
          <ns3:TrackPointExtension>
            <ns3:atemp>25.0</ns3:atemp>
          </ns3:TrackPointExtension>
        </extensions>
      </trkpt>
      <trkpt lat="42.487579174339771270751953125" lon="20.17863283865153789520263671875">
        <ele>1905.5999755859375</ele>
        <time>2026-06-20T11:23:23.000Z</time>
        <extensions>
          <ns3:TrackPointExtension>
            <ns3:atemp>25.0</ns3:atemp>
          </ns3:TrackPointExtension>
        </extensions>
      </trkpt>
      <trkpt lat="42.487561404705047607421875" lon="20.1786579005420207977294921875">
        <ele>1905.800048828125</ele>
        <time>2026-06-20T11:23:24.000Z</time>
        <extensions>
          <ns3:TrackPointExtension>
            <ns3:atemp>25.0</ns3:atemp>
          </ns3:TrackPointExtension>
        </extensions>
      </trkpt>
      <trkpt lat="42.487544305622577667236328125" lon="20.17868497408926486968994140625">
        <ele>1906</ele>
        <time>2026-06-20T11:23:25.000Z</time>
        <extensions>
          <ns3:TrackPointExtension>
            <ns3:atemp>25.0</ns3:atemp>
          </ns3:TrackPointExtension>
        </extensions>
      </trkpt>
      <trkpt lat="42.48752729035913944244384765625" lon="20.178710706532001495361328125">
        <ele>1906.199951171875</ele>
        <time>2026-06-20T11:23:26.000Z</time>
        <extensions>
          <ns3:TrackPointExtension>
            <ns3:atemp>25.0</ns3:atemp>
          </ns3:TrackPointExtension>
        </extensions>
      </trkpt>
      <trkpt lat="42.4875116162002086639404296875" lon="20.1787333376705646514892578125">
        <ele>1906.5999755859375</ele>
        <time>2026-06-20T11:23:27.000Z</time>
        <extensions>
          <ns3:TrackPointExtension>
            <ns3:atemp>25.0</ns3:atemp>
          </ns3:TrackPointExtension>
        </extensions>
      </trkpt>
      <trkpt lat="42.487496025860309600830078125" lon="20.1787521131336688995361328125">
        <ele>1906.5999755859375</ele>
        <time>2026-06-20T11:23:28.000Z</time>
        <extensions>
          <ns3:TrackPointExtension>
            <ns3:atemp>25.0</ns3:atemp>
          </ns3:TrackPointExtension>
        </extensions>
      </trkpt>
      <trkpt lat="42.48748370446264743804931640625" lon="20.1787625066936016082763671875">
        <ele>1906.800048828125</ele>
        <time>2026-06-20T11:23:29.000Z</time>
        <extensions>
          <ns3:TrackPointExtension>
            <ns3:atemp>25.0</ns3:atemp>
          </ns3:TrackPointExtension>
        </extensions>
      </trkpt>
      <trkpt lat="42.48748169280588626861572265625" lon="20.1787571422755718231201171875">
        <ele>1907</ele>
        <time>2026-06-20T11:23:30.000Z</time>
        <extensions>
          <ns3:TrackPointExtension>
            <ns3:atemp>25.0</ns3:atemp>
          </ns3:TrackPointExtension>
        </extensions>
      </trkpt>
      <trkpt lat="42.4874794296920299530029296875" lon="20.17875420860946178436279296875">
        <ele>1907.199951171875</ele>
        <time>2026-06-20T11:23:31.000Z</time>
        <extensions>
          <ns3:TrackPointExtension>
            <ns3:atemp>25.0</ns3:atemp>
          </ns3:TrackPointExtension>
        </extensions>
      </trkpt>
      <trkpt lat="42.4874794296920299530029296875" lon="20.1787541247904300689697265625">
        <ele>1907.4000244140625</ele>
        <time>2026-06-20T11:23:32.000Z</time>
        <extensions>
          <ns3:TrackPointExtension>
            <ns3:atemp>25.0</ns3:atemp>
          </ns3:TrackPointExtension>
        </extensions>
      </trkpt>
      <trkpt lat="42.4874794296920299530029296875" lon="20.1787541247904300689697265625">
        <ele>1907.4000244140625</ele>
        <time>2026-06-20T11:23:33.000Z</time>
        <extensions>
          <ns3:TrackPointExtension>
            <ns3:atemp>25.0</ns3:atemp>
          </ns3:TrackPointExtension>
        </extensions>
      </trkpt>
      <trkpt lat="42.4874794296920299530029296875" lon="20.1787541247904300689697265625">
        <ele>1907.199951171875</ele>
        <time>2026-06-20T11:23:34.000Z</time>
        <extensions>
          <ns3:TrackPointExtension>
            <ns3:atemp>25.0</ns3:atemp>
          </ns3:TrackPointExtension>
        </extensions>
      </trkpt>
      <trkpt lat="42.4874794296920299530029296875" lon="20.1787541247904300689697265625">
        <ele>1907.199951171875</ele>
        <time>2026-06-20T11:23:35.000Z</time>
        <extensions>
          <ns3:TrackPointExtension>
            <ns3:atemp>25.0</ns3:atemp>
          </ns3:TrackPointExtension>
        </extensions>
      </trkpt>
      <trkpt lat="42.4874794296920299530029296875" lon="20.1787541247904300689697265625">
        <ele>1907</ele>
        <time>2026-06-20T11:23:36.000Z</time>
        <extensions>
          <ns3:TrackPointExtension>
            <ns3:atemp>25.0</ns3:atemp>
          </ns3:TrackPointExtension>
        </extensions>
      </trkpt>
      <trkpt lat="42.4874794296920299530029296875" lon="20.1787541247904300689697265625">
        <ele>1906.800048828125</ele>
        <time>2026-06-20T11:23:37.000Z</time>
        <extensions>
          <ns3:TrackPointExtension>
            <ns3:atemp>25.0</ns3:atemp>
          </ns3:TrackPointExtension>
        </extensions>
      </trkpt>
      <trkpt lat="42.4874794296920299530029296875" lon="20.1787541247904300689697265625">
        <ele>1906.800048828125</ele>
        <time>2026-06-20T11:23:38.000Z</time>
        <extensions>
          <ns3:TrackPointExtension>
            <ns3:atemp>25.0</ns3:atemp>
          </ns3:TrackPointExtension>
        </extensions>
      </trkpt>
      <trkpt lat="42.4874794296920299530029296875" lon="20.1787541247904300689697265625">
        <ele>1906.800048828125</ele>
        <time>2026-06-20T11:23:39.000Z</time>
        <extensions>
          <ns3:TrackPointExtension>
            <ns3:atemp>25.0</ns3:atemp>
          </ns3:TrackPointExtension>
        </extensions>
      </trkpt>
      <trkpt lat="42.4874794296920299530029296875" lon="20.1787541247904300689697265625">
        <ele>1906.800048828125</ele>
        <time>2026-06-20T11:23:40.000Z</time>
        <extensions>
          <ns3:TrackPointExtension>
            <ns3:atemp>25.0</ns3:atemp>
          </ns3:TrackPointExtension>
        </extensions>
      </trkpt>
      <trkpt lat="42.4874794296920299530029296875" lon="20.1787541247904300689697265625">
        <ele>1906.800048828125</ele>
        <time>2026-06-20T11:23:41.000Z</time>
        <extensions>
          <ns3:TrackPointExtension>
            <ns3:atemp>25.0</ns3:atemp>
          </ns3:TrackPointExtension>
        </extensions>
      </trkpt>
      <trkpt lat="42.4874794296920299530029296875" lon="20.1787541247904300689697265625">
        <ele>1906.800048828125</ele>
        <time>2026-06-20T11:23:42.000Z</time>
        <extensions>
          <ns3:TrackPointExtension>
            <ns3:atemp>25.0</ns3:atemp>
          </ns3:TrackPointExtension>
        </extensions>
      </trkpt>
      <trkpt lat="42.4874794296920299530029296875" lon="20.1787541247904300689697265625">
        <ele>1906.800048828125</ele>
        <time>2026-06-20T11:23:43.000Z</time>
        <extensions>
          <ns3:TrackPointExtension>
            <ns3:atemp>25.0</ns3:atemp>
          </ns3:TrackPointExtension>
        </extensions>
      </trkpt>
      <trkpt lat="42.4874794296920299530029296875" lon="20.1787541247904300689697265625">
        <ele>1906.5999755859375</ele>
        <time>2026-06-20T11:23:44.000Z</time>
        <extensions>
          <ns3:TrackPointExtension>
            <ns3:atemp>25.0</ns3:atemp>
          </ns3:TrackPointExtension>
        </extensions>
      </trkpt>
      <trkpt lat="42.4874794296920299530029296875" lon="20.1787541247904300689697265625">
        <ele>1906.5999755859375</ele>
        <time>2026-06-20T11:23:45.000Z</time>
        <extensions>
          <ns3:TrackPointExtension>
            <ns3:atemp>25.0</ns3:atemp>
          </ns3:TrackPointExtension>
        </extensions>
      </trkpt>
      <trkpt lat="42.4874794296920299530029296875" lon="20.1787541247904300689697265625">
        <ele>1906.4000244140625</ele>
        <time>2026-06-20T11:23:46.000Z</time>
        <extensions>
          <ns3:TrackPointExtension>
            <ns3:atemp>25.0</ns3:atemp>
          </ns3:TrackPointExtension>
        </extensions>
      </trkpt>
      <trkpt lat="42.4874794296920299530029296875" lon="20.1787541247904300689697265625">
        <ele>1906.4000244140625</ele>
        <time>2026-06-20T11:23:47.000Z</time>
        <extensions>
          <ns3:TrackPointExtension>
            <ns3:atemp>25.0</ns3:atemp>
          </ns3:TrackPointExtension>
        </extensions>
      </trkpt>
      <trkpt lat="42.4874794296920299530029296875" lon="20.1787541247904300689697265625">
        <ele>1906.4000244140625</ele>
        <time>2026-06-20T11:23:48.000Z</time>
        <extensions>
          <ns3:TrackPointExtension>
            <ns3:atemp>25.0</ns3:atemp>
          </ns3:TrackPointExtension>
        </extensions>
      </trkpt>
      <trkpt lat="42.4874794296920299530029296875" lon="20.1787541247904300689697265625">
        <ele>1906.4000244140625</ele>
        <time>2026-06-20T11:23:49.000Z</time>
        <extensions>
          <ns3:TrackPointExtension>
            <ns3:atemp>25.0</ns3:atemp>
          </ns3:TrackPointExtension>
        </extensions>
      </trkpt>
      <trkpt lat="42.4874794296920299530029296875" lon="20.1787541247904300689697265625">
        <ele>1906.199951171875</ele>
        <time>2026-06-20T11:23:50.000Z</time>
        <extensions>
          <ns3:TrackPointExtension>
            <ns3:atemp>25.0</ns3:atemp>
          </ns3:TrackPointExtension>
        </extensions>
      </trkpt>
      <trkpt lat="42.4874794296920299530029296875" lon="20.1787541247904300689697265625">
        <ele>1906.199951171875</ele>
        <time>2026-06-20T11:23:51.000Z</time>
        <extensions>
          <ns3:TrackPointExtension>
            <ns3:atemp>25.0</ns3:atemp>
          </ns3:TrackPointExtension>
        </extensions>
      </trkpt>
      <trkpt lat="42.4874794296920299530029296875" lon="20.1787541247904300689697265625">
        <ele>1906.199951171875</ele>
        <time>2026-06-20T11:23:52.000Z</time>
        <extensions>
          <ns3:TrackPointExtension>
            <ns3:atemp>25.0</ns3:atemp>
          </ns3:TrackPointExtension>
        </extensions>
      </trkpt>
      <trkpt lat="42.4874794296920299530029296875" lon="20.1787541247904300689697265625">
        <ele>1906.199951171875</ele>
        <time>2026-06-20T11:23:53.000Z</time>
        <extensions>
          <ns3:TrackPointExtension>
            <ns3:atemp>25.0</ns3:atemp>
          </ns3:TrackPointExtension>
        </extensions>
      </trkpt>
      <trkpt lat="42.4874794296920299530029296875" lon="20.1787541247904300689697265625">
        <ele>1906.199951171875</ele>
        <time>2026-06-20T11:23:54.000Z</time>
        <extensions>
          <ns3:TrackPointExtension>
            <ns3:atemp>25.0</ns3:atemp>
          </ns3:TrackPointExtension>
        </extensions>
      </trkpt>
      <trkpt lat="42.4874794296920299530029296875" lon="20.1787541247904300689697265625">
        <ele>1906</ele>
        <time>2026-06-20T11:23:55.000Z</time>
        <extensions>
          <ns3:TrackPointExtension>
            <ns3:atemp>25.0</ns3:atemp>
          </ns3:TrackPointExtension>
        </extensions>
      </trkpt>
      <trkpt lat="42.4874794296920299530029296875" lon="20.1787541247904300689697265625">
        <ele>1906</ele>
        <time>2026-06-20T11:23:56.000Z</time>
        <extensions>
          <ns3:TrackPointExtension>
            <ns3:atemp>25.0</ns3:atemp>
          </ns3:TrackPointExtension>
        </extensions>
      </trkpt>
      <trkpt lat="42.4874794296920299530029296875" lon="20.1787541247904300689697265625">
        <ele>1906</ele>
        <time>2026-06-20T11:23:57.000Z</time>
        <extensions>
          <ns3:TrackPointExtension>
            <ns3:atemp>25.0</ns3:atemp>
          </ns3:TrackPointExtension>
        </extensions>
      </trkpt>
      <trkpt lat="42.4874794296920299530029296875" lon="20.1787541247904300689697265625">
        <ele>1905.800048828125</ele>
        <time>2026-06-20T11:23:58.000Z</time>
        <extensions>
          <ns3:TrackPointExtension>
            <ns3:atemp>25.0</ns3:atemp>
          </ns3:TrackPointExtension>
        </extensions>
      </trkpt>
      <trkpt lat="42.4874794296920299530029296875" lon="20.1787541247904300689697265625">
        <ele>1905.800048828125</ele>
        <time>2026-06-20T11:23:59.000Z</time>
        <extensions>
          <ns3:TrackPointExtension>
            <ns3:atemp>25.0</ns3:atemp>
          </ns3:TrackPointExtension>
        </extensions>
      </trkpt>
      <trkpt lat="42.4874794296920299530029296875" lon="20.1787541247904300689697265625">
        <ele>1905.800048828125</ele>
        <time>2026-06-20T11:24:00.000Z</time>
        <extensions>
          <ns3:TrackPointExtension>
            <ns3:atemp>25.0</ns3:atemp>
          </ns3:TrackPointExtension>
        </extensions>
      </trkpt>
      <trkpt lat="42.4874794296920299530029296875" lon="20.1787541247904300689697265625">
        <ele>1905.5999755859375</ele>
        <time>2026-06-20T11:24:01.000Z</time>
        <extensions>
          <ns3:TrackPointExtension>
            <ns3:atemp>25.0</ns3:atemp>
          </ns3:TrackPointExtension>
        </extensions>
      </trkpt>
      <trkpt lat="42.4874794296920299530029296875" lon="20.1787541247904300689697265625">
        <ele>1905.5999755859375</ele>
        <time>2026-06-20T11:24:02.000Z</time>
        <extensions>
          <ns3:TrackPointExtension>
            <ns3:atemp>25.0</ns3:atemp>
          </ns3:TrackPointExtension>
        </extensions>
      </trkpt>
      <trkpt lat="42.4874794296920299530029296875" lon="20.1787541247904300689697265625">
        <ele>1905.5999755859375</ele>
        <time>2026-06-20T11:24:03.000Z</time>
        <extensions>
          <ns3:TrackPointExtension>
            <ns3:atemp>25.0</ns3:atemp>
          </ns3:TrackPointExtension>
        </extensions>
      </trkpt>
      <trkpt lat="42.4874794296920299530029296875" lon="20.1787541247904300689697265625">
        <ele>1905.5999755859375</ele>
        <time>2026-06-20T11:24:04.000Z</time>
        <extensions>
          <ns3:TrackPointExtension>
            <ns3:atemp>25.0</ns3:atemp>
          </ns3:TrackPointExtension>
        </extensions>
      </trkpt>
      <trkpt lat="42.4874794296920299530029296875" lon="20.1787541247904300689697265625">
        <ele>1905.5999755859375</ele>
        <time>2026-06-20T11:24:05.000Z</time>
        <extensions>
          <ns3:TrackPointExtension>
            <ns3:atemp>25.0</ns3:atemp>
          </ns3:TrackPointExtension>
        </extensions>
      </trkpt>
      <trkpt lat="42.4874794296920299530029296875" lon="20.1787541247904300689697265625">
        <ele>1905.4000244140625</ele>
        <time>2026-06-20T11:24:06.000Z</time>
        <extensions>
          <ns3:TrackPointExtension>
            <ns3:atemp>25.0</ns3:atemp>
          </ns3:TrackPointExtension>
        </extensions>
      </trkpt>
      <trkpt lat="42.4874794296920299530029296875" lon="20.1787541247904300689697265625">
        <ele>1905.4000244140625</ele>
        <time>2026-06-20T11:24:07.000Z</time>
        <extensions>
          <ns3:TrackPointExtension>
            <ns3:atemp>25.0</ns3:atemp>
          </ns3:TrackPointExtension>
        </extensions>
      </trkpt>
      <trkpt lat="42.48748026788234710693359375" lon="20.17875705845654010772705078125">
        <ele>1905.4000244140625</ele>
        <time>2026-06-20T11:24:08.000Z</time>
        <extensions>
          <ns3:TrackPointExtension>
            <ns3:atemp>25.0</ns3:atemp>
          </ns3:TrackPointExtension>
        </extensions>
      </trkpt>
      <trkpt lat="42.48747062869369983673095703125" lon="20.17878220416605472564697265625">
        <ele>1905.4000244140625</ele>
        <time>2026-06-20T11:24:09.000Z</time>
        <extensions>
          <ns3:TrackPointExtension>
            <ns3:atemp>25.0</ns3:atemp>
          </ns3:TrackPointExtension>
        </extensions>
      </trkpt>
      <trkpt lat="42.48745654709637165069580078125" lon="20.1787988841533660888671875">
        <ele>1905.4000244140625</ele>
        <time>2026-06-20T11:24:10.000Z</time>
        <extensions>
          <ns3:TrackPointExtension>
            <ns3:atemp>25.0</ns3:atemp>
          </ns3:TrackPointExtension>
        </extensions>
      </trkpt>
      <trkpt lat="42.487433664500713348388671875" lon="20.178817994892597198486328125">
        <ele>1905.4000244140625</ele>
        <time>2026-06-20T11:24:11.000Z</time>
        <extensions>
          <ns3:TrackPointExtension>
            <ns3:atemp>25.0</ns3:atemp>
          </ns3:TrackPointExtension>
        </extensions>
      </trkpt>
      <trkpt lat="42.487406171858310699462890625" lon="20.17884037457406520843505859375">
        <ele>1905.199951171875</ele>
        <time>2026-06-20T11:24:12.000Z</time>
        <extensions>
          <ns3:TrackPointExtension>
            <ns3:atemp>25.0</ns3:atemp>
          </ns3:TrackPointExtension>
        </extensions>
      </trkpt>
      <trkpt lat="42.4873748235404491424560546875" lon="20.17886258661746978759765625">
        <ele>1905.199951171875</ele>
        <time>2026-06-20T11:24:13.000Z</time>
        <extensions>
          <ns3:TrackPointExtension>
            <ns3:atemp>25.0</ns3:atemp>
          </ns3:TrackPointExtension>
        </extensions>
      </trkpt>
      <trkpt lat="42.48733702115714550018310546875" lon="20.17888312228024005889892578125">
        <ele>1905</ele>
        <time>2026-06-20T11:24:14.000Z</time>
        <extensions>
          <ns3:TrackPointExtension>
            <ns3:atemp>25.0</ns3:atemp>
          </ns3:TrackPointExtension>
        </extensions>
      </trkpt>
      <trkpt lat="42.487293519079685211181640625" lon="20.1789103634655475616455078125">
        <ele>1904.5999755859375</ele>
        <time>2026-06-20T11:24:15.000Z</time>
        <extensions>
          <ns3:TrackPointExtension>
            <ns3:atemp>25.0</ns3:atemp>
          </ns3:TrackPointExtension>
        </extensions>
      </trkpt>
      <trkpt lat="42.4872551299631595611572265625" lon="20.178956799209117889404296875">
        <ele>1904.199951171875</ele>
        <time>2026-06-20T11:24:16.000Z</time>
        <extensions>
          <ns3:TrackPointExtension>
            <ns3:atemp>25.0</ns3:atemp>
          </ns3:TrackPointExtension>
        </extensions>
      </trkpt>
      <trkpt lat="42.48722604475915431976318359375" lon="20.1790080964565277099609375">
        <ele>1904</ele>
        <time>2026-06-20T11:24:17.000Z</time>
        <extensions>
          <ns3:TrackPointExtension>
            <ns3:atemp>25.0</ns3:atemp>
          </ns3:TrackPointExtension>
        </extensions>
      </trkpt>
      <trkpt lat="42.48719972558319568634033203125" lon="20.179055035114288330078125">
        <ele>1903.5999755859375</ele>
        <time>2026-06-20T11:24:18.000Z</time>
        <extensions>
          <ns3:TrackPointExtension>
            <ns3:atemp>25.0</ns3:atemp>
          </ns3:TrackPointExtension>
        </extensions>
      </trkpt>
      <trkpt lat="42.48717055656015872955322265625" lon="20.17909325659275054931640625">
        <ele>1903.5999755859375</ele>
        <time>2026-06-20T11:24:19.000Z</time>
        <extensions>
          <ns3:TrackPointExtension>
            <ns3:atemp>25.0</ns3:atemp>
          </ns3:TrackPointExtension>
        </extensions>
      </trkpt>
      <trkpt lat="42.48714155517518520355224609375" lon="20.1791219227015972137451171875">
        <ele>1903.5999755859375</ele>
        <time>2026-06-20T11:24:20.000Z</time>
        <extensions>
          <ns3:TrackPointExtension>
            <ns3:atemp>25.0</ns3:atemp>
          </ns3:TrackPointExtension>
        </extensions>
      </trkpt>
      <trkpt lat="42.48711372725665569305419921875" lon="20.17914312891662120819091796875">
        <ele>1903.800048828125</ele>
        <time>2026-06-20T11:24:21.000Z</time>
        <extensions>
          <ns3:TrackPointExtension>
            <ns3:atemp>25.0</ns3:atemp>
          </ns3:TrackPointExtension>
        </extensions>
      </trkpt>
      <trkpt lat="42.4870878271758556365966796875" lon="20.179152600467205047607421875">
        <ele>1904</ele>
        <time>2026-06-20T11:24:22.000Z</time>
        <extensions>
          <ns3:TrackPointExtension>
            <ns3:atemp>25.0</ns3:atemp>
          </ns3:TrackPointExtension>
        </extensions>
      </trkpt>
      <trkpt lat="42.48706184327602386474609375" lon="20.17915117554366588592529296875">
        <ele>1904.199951171875</ele>
        <time>2026-06-20T11:24:23.000Z</time>
        <extensions>
          <ns3:TrackPointExtension>
            <ns3:atemp>25.0</ns3:atemp>
          </ns3:TrackPointExtension>
        </extensions>
      </trkpt>
      <trkpt lat="42.487032674252986907958984375" lon="20.1791561208665370941162109375">
        <ele>1904.4000244140625</ele>
        <time>2026-06-20T11:24:24.000Z</time>
        <extensions>
          <ns3:TrackPointExtension>
            <ns3:atemp>25.0</ns3:atemp>
          </ns3:TrackPointExtension>
        </extensions>
      </trkpt>
      <trkpt lat="42.4870016612112522125244140625" lon="20.17916374839842319488525390625">
        <ele>1904.199951171875</ele>
        <time>2026-06-20T11:24:25.000Z</time>
        <extensions>
          <ns3:TrackPointExtension>
            <ns3:atemp>25.0</ns3:atemp>
          </ns3:TrackPointExtension>
        </extensions>
      </trkpt>
      <trkpt lat="42.4869688041508197784423828125" lon="20.1791732199490070343017578125">
        <ele>1904</ele>
        <time>2026-06-20T11:24:26.000Z</time>
        <extensions>
          <ns3:TrackPointExtension>
            <ns3:atemp>25.0</ns3:atemp>
          </ns3:TrackPointExtension>
        </extensions>
      </trkpt>
      <trkpt lat="42.48693720437586307525634765625" lon="20.1791822724044322967529296875">
        <ele>1903.800048828125</ele>
        <time>2026-06-20T11:24:27.000Z</time>
        <extensions>
          <ns3:TrackPointExtension>
            <ns3:atemp>25.0</ns3:atemp>
          </ns3:TrackPointExtension>
        </extensions>
      </trkpt>
      <trkpt lat="42.48690225183963775634765625" lon="20.17918981611728668212890625">
        <ele>1903.4000244140625</ele>
        <time>2026-06-20T11:24:28.000Z</time>
        <extensions>
          <ns3:TrackPointExtension>
            <ns3:atemp>25.0</ns3:atemp>
          </ns3:TrackPointExtension>
        </extensions>
      </trkpt>
      <trkpt lat="42.48686763457953929901123046875" lon="20.17919459380209445953369140625">
        <ele>1903.199951171875</ele>
        <time>2026-06-20T11:24:29.000Z</time>
        <extensions>
          <ns3:TrackPointExtension>
            <ns3:atemp>25.0</ns3:atemp>
          </ns3:TrackPointExtension>
        </extensions>
      </trkpt>
      <trkpt lat="42.48683813028037548065185546875" lon="20.179198198020458221435546875">
        <ele>1903</ele>
        <time>2026-06-20T11:24:30.000Z</time>
        <extensions>
          <ns3:TrackPointExtension>
            <ns3:atemp>25.0</ns3:atemp>
          </ns3:TrackPointExtension>
        </extensions>
      </trkpt>
      <trkpt lat="42.48681331984698772430419921875" lon="20.1791953481733798980712890625">
        <ele>1903</ele>
        <time>2026-06-20T11:24:31.000Z</time>
        <extensions>
          <ns3:TrackPointExtension>
            <ns3:atemp>25.0</ns3:atemp>
          </ns3:TrackPointExtension>
        </extensions>
      </trkpt>
      <trkpt lat="42.4867911078035831451416015625" lon="20.179184116423130035400390625">
        <ele>1903</ele>
        <time>2026-06-20T11:24:32.000Z</time>
        <extensions>
          <ns3:TrackPointExtension>
            <ns3:atemp>25.0</ns3:atemp>
          </ns3:TrackPointExtension>
        </extensions>
      </trkpt>
      <trkpt lat="42.48676956631243228912353515625" lon="20.1791708730161190032958984375">
        <ele>1903</ele>
        <time>2026-06-20T11:24:33.000Z</time>
        <extensions>
          <ns3:TrackPointExtension>
            <ns3:atemp>25.0</ns3:atemp>
          </ns3:TrackPointExtension>
        </extensions>
      </trkpt>
      <trkpt lat="42.48674576170742511749267578125" lon="20.1791588030755519866943359375">
        <ele>1903</ele>
        <time>2026-06-20T11:24:34.000Z</time>
        <extensions>
          <ns3:TrackPointExtension>
            <ns3:atemp>25.0</ns3:atemp>
          </ns3:TrackPointExtension>
        </extensions>
      </trkpt>
      <trkpt lat="42.4867203645408153533935546875" lon="20.1791494153439998626708984375">
        <ele>1902.800048828125</ele>
        <time>2026-06-20T11:24:35.000Z</time>
        <extensions>
          <ns3:TrackPointExtension>
            <ns3:atemp>25.0</ns3:atemp>
          </ns3:TrackPointExtension>
        </extensions>
      </trkpt>
      <trkpt lat="42.486693374812602996826171875" lon="20.1791393570601940155029296875">
        <ele>1902.5999755859375</ele>
        <time>2026-06-20T11:24:36.000Z</time>
        <extensions>
          <ns3:TrackPointExtension>
            <ns3:atemp>25.0</ns3:atemp>
          </ns3:TrackPointExtension>
        </extensions>
      </trkpt>
      <trkpt lat="42.48666764236986637115478515625" lon="20.17912921495735645294189453125">
        <ele>1902.4000244140625</ele>
        <time>2026-06-20T11:24:37.000Z</time>
        <extensions>
          <ns3:TrackPointExtension>
            <ns3:atemp>25.0</ns3:atemp>
          </ns3:TrackPointExtension>
        </extensions>
      </trkpt>
      <trkpt lat="42.4866347014904022216796875" lon="20.17911781556904315948486328125">
        <ele>1902.199951171875</ele>
        <time>2026-06-20T11:24:38.000Z</time>
        <extensions>
          <ns3:TrackPointExtension>
            <ns3:atemp>25.0</ns3:atemp>
          </ns3:TrackPointExtension>
        </extensions>
      </trkpt>
      <trkpt lat="42.48659656383097171783447265625" lon="20.179103650152683258056640625">
        <ele>1902</ele>
        <time>2026-06-20T11:24:39.000Z</time>
        <extensions>
          <ns3:TrackPointExtension>
            <ns3:atemp>25.0</ns3:atemp>
          </ns3:TrackPointExtension>
        </extensions>
      </trkpt>
      <trkpt lat="42.4865577556192874908447265625" lon="20.1790870539844036102294921875">
        <ele>1901.800048828125</ele>
        <time>2026-06-20T11:24:40.000Z</time>
        <extensions>
          <ns3:TrackPointExtension>
            <ns3:atemp>25.0</ns3:atemp>
          </ns3:TrackPointExtension>
        </extensions>
      </trkpt>
      <trkpt lat="42.4865202046930789947509765625" lon="20.17906869761645793914794921875">
        <ele>1901.800048828125</ele>
        <time>2026-06-20T11:24:41.000Z</time>
        <extensions>
          <ns3:TrackPointExtension>
            <ns3:atemp>25.0</ns3:atemp>
          </ns3:TrackPointExtension>
        </extensions>
      </trkpt>
      <trkpt lat="42.48648340813815593719482421875" lon="20.17905243672430515289306640625">
        <ele>1901.5999755859375</ele>
        <time>2026-06-20T11:24:42.000Z</time>
        <extensions>
          <ns3:TrackPointExtension>
            <ns3:atemp>25.0</ns3:atemp>
          </ns3:TrackPointExtension>
        </extensions>
      </trkpt>
      <trkpt lat="42.48645038343966007232666015625" lon="20.1790357567369937896728515625">
        <ele>1901.4000244140625</ele>
        <time>2026-06-20T11:24:43.000Z</time>
        <extensions>
          <ns3:TrackPointExtension>
            <ns3:atemp>25.0</ns3:atemp>
          </ns3:TrackPointExtension>
        </extensions>
      </trkpt>
      <trkpt lat="42.4864219687879085540771484375" lon="20.1790223456919193267822265625">
        <ele>1901.5999755859375</ele>
        <time>2026-06-20T11:24:44.000Z</time>
        <extensions>
          <ns3:TrackPointExtension>
            <ns3:atemp>25.0</ns3:atemp>
          </ns3:TrackPointExtension>
        </extensions>
      </trkpt>
      <trkpt lat="42.4863968230783939361572265625" lon="20.17901354469358921051025390625">
        <ele>1901.5999755859375</ele>
        <time>2026-06-20T11:24:45.000Z</time>
        <extensions>
          <ns3:TrackPointExtension>
            <ns3:atemp>25.0</ns3:atemp>
          </ns3:TrackPointExtension>
        </extensions>
      </trkpt>
      <trkpt lat="42.48637410812079906463623046875" lon="20.1790054142475128173828125">
        <ele>1901.800048828125</ele>
        <time>2026-06-20T11:24:46.000Z</time>
        <extensions>
          <ns3:TrackPointExtension>
            <ns3:atemp>25.0</ns3:atemp>
          </ns3:TrackPointExtension>
        </extensions>
      </trkpt>
      <trkpt lat="42.4863575957715511322021484375" lon="20.1789987087249755859375">
        <ele>1901.800048828125</ele>
        <time>2026-06-20T11:24:47.000Z</time>
        <extensions>
          <ns3:TrackPointExtension>
            <ns3:atemp>25.0</ns3:atemp>
          </ns3:TrackPointExtension>
        </extensions>
      </trkpt>
      <trkpt lat="42.486348040401935577392578125" lon="20.1789961941540241241455078125">
        <ele>1901.5999755859375</ele>
        <time>2026-06-20T11:24:48.000Z</time>
        <extensions>
          <ns3:TrackPointExtension>
            <ns3:atemp>25.0</ns3:atemp>
          </ns3:TrackPointExtension>
        </extensions>
      </trkpt>
      <trkpt lat="42.486350052058696746826171875" lon="20.17899342812597751617431640625">
        <ele>1901.5999755859375</ele>
        <time>2026-06-20T11:24:49.000Z</time>
        <extensions>
          <ns3:TrackPointExtension>
            <ns3:atemp>25.0</ns3:atemp>
          </ns3:TrackPointExtension>
        </extensions>
      </trkpt>
      <trkpt lat="42.48634996823966503143310546875" lon="20.17899342812597751617431640625">
        <ele>1901.4000244140625</ele>
        <time>2026-06-20T11:24:50.000Z</time>
        <extensions>
          <ns3:TrackPointExtension>
            <ns3:atemp>25.0</ns3:atemp>
          </ns3:TrackPointExtension>
        </extensions>
      </trkpt>
      <trkpt lat="42.48634996823966503143310546875" lon="20.17899342812597751617431640625">
        <ele>1901.4000244140625</ele>
        <time>2026-06-20T11:24:51.000Z</time>
        <extensions>
          <ns3:TrackPointExtension>
            <ns3:atemp>25.0</ns3:atemp>
          </ns3:TrackPointExtension>
        </extensions>
      </trkpt>
      <trkpt lat="42.48634996823966503143310546875" lon="20.17899342812597751617431640625">
        <ele>1901.4000244140625</ele>
        <time>2026-06-20T11:24:52.000Z</time>
        <extensions>
          <ns3:TrackPointExtension>
            <ns3:atemp>25.0</ns3:atemp>
          </ns3:TrackPointExtension>
        </extensions>
      </trkpt>
      <trkpt lat="42.48634996823966503143310546875" lon="20.17899342812597751617431640625">
        <ele>1901.5999755859375</ele>
        <time>2026-06-20T11:24:53.000Z</time>
        <extensions>
          <ns3:TrackPointExtension>
            <ns3:atemp>25.0</ns3:atemp>
          </ns3:TrackPointExtension>
        </extensions>
      </trkpt>
      <trkpt lat="42.48634996823966503143310546875" lon="20.17899342812597751617431640625">
        <ele>1901.4000244140625</ele>
        <time>2026-06-20T11:24:54.000Z</time>
        <extensions>
          <ns3:TrackPointExtension>
            <ns3:atemp>25.0</ns3:atemp>
          </ns3:TrackPointExtension>
        </extensions>
      </trkpt>
      <trkpt lat="42.48634996823966503143310546875" lon="20.17899342812597751617431640625">
        <ele>1901.4000244140625</ele>
        <time>2026-06-20T11:24:55.000Z</time>
        <extensions>
          <ns3:TrackPointExtension>
            <ns3:atemp>25.0</ns3:atemp>
          </ns3:TrackPointExtension>
        </extensions>
      </trkpt>
      <trkpt lat="42.48634996823966503143310546875" lon="20.17899342812597751617431640625">
        <ele>1901.4000244140625</ele>
        <time>2026-06-20T11:24:56.000Z</time>
        <extensions>
          <ns3:TrackPointExtension>
            <ns3:atemp>25.0</ns3:atemp>
          </ns3:TrackPointExtension>
        </extensions>
      </trkpt>
      <trkpt lat="42.48634996823966503143310546875" lon="20.17899342812597751617431640625">
        <ele>1901.199951171875</ele>
        <time>2026-06-20T11:24:57.000Z</time>
        <extensions>
          <ns3:TrackPointExtension>
            <ns3:atemp>25.0</ns3:atemp>
          </ns3:TrackPointExtension>
        </extensions>
      </trkpt>
      <trkpt lat="42.48634996823966503143310546875" lon="20.17899342812597751617431640625">
        <ele>1901.199951171875</ele>
        <time>2026-06-20T11:24:58.000Z</time>
        <extensions>
          <ns3:TrackPointExtension>
            <ns3:atemp>25.0</ns3:atemp>
          </ns3:TrackPointExtension>
        </extensions>
      </trkpt>
      <trkpt lat="42.48634996823966503143310546875" lon="20.17899342812597751617431640625">
        <ele>1901.199951171875</ele>
        <time>2026-06-20T11:24:59.000Z</time>
        <extensions>
          <ns3:TrackPointExtension>
            <ns3:atemp>25.0</ns3:atemp>
          </ns3:TrackPointExtension>
        </extensions>
      </trkpt>
      <trkpt lat="42.48634996823966503143310546875" lon="20.17899342812597751617431640625">
        <ele>1901.199951171875</ele>
        <time>2026-06-20T11:25:00.000Z</time>
        <extensions>
          <ns3:TrackPointExtension>
            <ns3:atemp>25.0</ns3:atemp>
          </ns3:TrackPointExtension>
        </extensions>
      </trkpt>
      <trkpt lat="42.48634996823966503143310546875" lon="20.17899342812597751617431640625">
        <ele>1901.199951171875</ele>
        <time>2026-06-20T11:25:01.000Z</time>
        <extensions>
          <ns3:TrackPointExtension>
            <ns3:atemp>25.0</ns3:atemp>
          </ns3:TrackPointExtension>
        </extensions>
      </trkpt>
      <trkpt lat="42.48634996823966503143310546875" lon="20.17899342812597751617431640625">
        <ele>1901.199951171875</ele>
        <time>2026-06-20T11:25:02.000Z</time>
        <extensions>
          <ns3:TrackPointExtension>
            <ns3:atemp>25.0</ns3:atemp>
          </ns3:TrackPointExtension>
        </extensions>
      </trkpt>
      <trkpt lat="42.48634996823966503143310546875" lon="20.17899342812597751617431640625">
        <ele>1901</ele>
        <time>2026-06-20T11:25:03.000Z</time>
        <extensions>
          <ns3:TrackPointExtension>
            <ns3:atemp>25.0</ns3:atemp>
          </ns3:TrackPointExtension>
        </extensions>
      </trkpt>
      <trkpt lat="42.48634996823966503143310546875" lon="20.17899342812597751617431640625">
        <ele>1901</ele>
        <time>2026-06-20T11:25:04.000Z</time>
        <extensions>
          <ns3:TrackPointExtension>
            <ns3:atemp>25.0</ns3:atemp>
          </ns3:TrackPointExtension>
        </extensions>
      </trkpt>
      <trkpt lat="42.48634996823966503143310546875" lon="20.17899342812597751617431640625">
        <ele>1901</ele>
        <time>2026-06-20T11:25:05.000Z</time>
        <extensions>
          <ns3:TrackPointExtension>
            <ns3:atemp>25.0</ns3:atemp>
          </ns3:TrackPointExtension>
        </extensions>
      </trkpt>
      <trkpt lat="42.486349381506443023681640625" lon="20.1789920032024383544921875">
        <ele>1901</ele>
        <time>2026-06-20T11:25:06.000Z</time>
        <extensions>
          <ns3:TrackPointExtension>
            <ns3:atemp>25.0</ns3:atemp>
          </ns3:TrackPointExtension>
        </extensions>
      </trkpt>
      <trkpt lat="42.486332617700099945068359375" lon="20.17898504622280597686767578125">
        <ele>1901</ele>
        <time>2026-06-20T11:25:07.000Z</time>
        <extensions>
          <ns3:TrackPointExtension>
            <ns3:atemp>25.0</ns3:atemp>
          </ns3:TrackPointExtension>
        </extensions>
      </trkpt>
      <trkpt lat="42.486316524446010589599609375" lon="20.1789821125566959381103515625">
        <ele>1900.800048828125</ele>
        <time>2026-06-20T11:25:08.000Z</time>
        <extensions>
          <ns3:TrackPointExtension>
            <ns3:atemp>25.0</ns3:atemp>
          </ns3:TrackPointExtension>
        </extensions>
      </trkpt>
      <trkpt lat="42.48630009591579437255859375" lon="20.17897012643516063690185546875">
        <ele>1900.5999755859375</ele>
        <time>2026-06-20T11:25:09.000Z</time>
        <extensions>
          <ns3:TrackPointExtension>
            <ns3:atemp>25.0</ns3:atemp>
          </ns3:TrackPointExtension>
        </extensions>
      </trkpt>
      <trkpt lat="42.48627461493015289306640625" lon="20.17896073870360851287841796875">
        <ele>1900.4000244140625</ele>
        <time>2026-06-20T11:25:10.000Z</time>
        <extensions>
          <ns3:TrackPointExtension>
            <ns3:atemp>25.0</ns3:atemp>
          </ns3:TrackPointExtension>
        </extensions>
      </trkpt>
      <trkpt lat="42.48624267987906932830810546875" lon="20.17894548363983631134033203125">
        <ele>1900.199951171875</ele>
        <time>2026-06-20T11:25:11.000Z</time>
        <extensions>
          <ns3:TrackPointExtension>
            <ns3:atemp>25.0</ns3:atemp>
          </ns3:TrackPointExtension>
        </extensions>
      </trkpt>
      <trkpt lat="42.48620848171412944793701171875" lon="20.17893039621412754058837890625">
        <ele>1899.800048828125</ele>
        <time>2026-06-20T11:25:12.000Z</time>
        <extensions>
          <ns3:TrackPointExtension>
            <ns3:atemp>25.0</ns3:atemp>
          </ns3:TrackPointExtension>
        </extensions>
      </trkpt>
      <trkpt lat="42.4861731939017772674560546875" lon="20.1789184100925922393798828125">
        <ele>1899.4000244140625</ele>
        <time>2026-06-20T11:25:13.000Z</time>
        <extensions>
          <ns3:TrackPointExtension>
            <ns3:atemp>25.0</ns3:atemp>
          </ns3:TrackPointExtension>
        </extensions>
      </trkpt>
      <trkpt lat="42.4861359782516956329345703125" lon="20.17891488969326019287109375">
        <ele>1899</ele>
        <time>2026-06-20T11:25:14.000Z</time>
        <extensions>
          <ns3:TrackPointExtension>
            <ns3:atemp>25.0</ns3:atemp>
          </ns3:TrackPointExtension>
        </extensions>
      </trkpt>
      <trkpt lat="42.48610069043934345245361328125" lon="20.178916566073894500732421875">
        <ele>1898.5999755859375</ele>
        <time>2026-06-20T11:25:15.000Z</time>
        <extensions>
          <ns3:TrackPointExtension>
            <ns3:atemp>25.0</ns3:atemp>
          </ns3:TrackPointExtension>
        </extensions>
      </trkpt>
      <trkpt lat="42.48606582172214984893798828125" lon="20.17892025411128997802734375">
        <ele>1898.4000244140625</ele>
        <time>2026-06-20T11:25:16.000Z</time>
        <extensions>
          <ns3:TrackPointExtension>
            <ns3:atemp>25.0</ns3:atemp>
          </ns3:TrackPointExtension>
        </extensions>
      </trkpt>
      <trkpt lat="42.48602642677724361419677734375" lon="20.1789328269660472869873046875">
        <ele>1898.199951171875</ele>
        <time>2026-06-20T11:25:17.000Z</time>
        <extensions>
          <ns3:TrackPointExtension>
            <ns3:atemp>25.0</ns3:atemp>
          </ns3:TrackPointExtension>
        </extensions>
      </trkpt>
      <trkpt lat="42.4859824217855930328369140625" lon="20.1789472438395023345947265625">
        <ele>1897.800048828125</ele>
        <time>2026-06-20T11:25:18.000Z</time>
        <extensions>
          <ns3:TrackPointExtension>
            <ns3:atemp>25.0</ns3:atemp>
          </ns3:TrackPointExtension>
        </extensions>
      </trkpt>
      <trkpt lat="42.48593422584235668182373046875" lon="20.17895990051329135894775390625">
        <ele>1897.199951171875</ele>
        <time>2026-06-20T11:25:19.000Z</time>
        <extensions>
          <ns3:TrackPointExtension>
            <ns3:atemp>25.0</ns3:atemp>
          </ns3:TrackPointExtension>
        </extensions>
      </trkpt>
      <trkpt lat="42.4858848564326763153076171875" lon="20.17896761186420917510986328125">
        <ele>1896.800048828125</ele>
        <time>2026-06-20T11:25:20.000Z</time>
        <extensions>
          <ns3:TrackPointExtension>
            <ns3:atemp>25.0</ns3:atemp>
          </ns3:TrackPointExtension>
        </extensions>
      </trkpt>
      <trkpt lat="42.4858375824987888336181640625" lon="20.17895990051329135894775390625">
        <ele>1896.4000244140625</ele>
        <time>2026-06-20T11:25:21.000Z</time>
        <extensions>
          <ns3:TrackPointExtension>
            <ns3:atemp>25.0</ns3:atemp>
          </ns3:TrackPointExtension>
        </extensions>
      </trkpt>
      <trkpt lat="42.48579240404069423675537109375" lon="20.1789388619363307952880859375">
        <ele>1896</ele>
        <time>2026-06-20T11:25:22.000Z</time>
        <extensions>
          <ns3:TrackPointExtension>
            <ns3:atemp>25.0</ns3:atemp>
          </ns3:TrackPointExtension>
        </extensions>
      </trkpt>
      <trkpt lat="42.48574764467775821685791015625" lon="20.178915224969387054443359375">
        <ele>1895.800048828125</ele>
        <time>2026-06-20T11:25:23.000Z</time>
        <extensions>
          <ns3:TrackPointExtension>
            <ns3:atemp>25.0</ns3:atemp>
          </ns3:TrackPointExtension>
        </extensions>
      </trkpt>
      <trkpt lat="42.485710680484771728515625" lon="20.17888144589960575103759765625">
        <ele>1895.4000244140625</ele>
        <time>2026-06-20T11:25:24.000Z</time>
        <extensions>
          <ns3:TrackPointExtension>
            <ns3:atemp>25.0</ns3:atemp>
          </ns3:TrackPointExtension>
        </extensions>
      </trkpt>
      <trkpt lat="42.48568746261298656463623046875" lon="20.17884691245853900909423828125">
        <ele>1895.199951171875</ele>
        <time>2026-06-20T11:25:25.000Z</time>
        <extensions>
          <ns3:TrackPointExtension>
            <ns3:atemp>25.0</ns3:atemp>
          </ns3:TrackPointExtension>
        </extensions>
      </trkpt>
      <trkpt lat="42.4856635741889476776123046875" lon="20.1788114570081233978271484375">
        <ele>1895</ele>
        <time>2026-06-20T11:25:26.000Z</time>
        <extensions>
          <ns3:TrackPointExtension>
            <ns3:atemp>25.0</ns3:atemp>
          </ns3:TrackPointExtension>
        </extensions>
      </trkpt>
      <trkpt lat="42.48563918285071849822998046875" lon="20.17877600155770778656005859375">
        <ele>1894.800048828125</ele>
        <time>2026-06-20T11:25:27.000Z</time>
        <extensions>
          <ns3:TrackPointExtension>
            <ns3:atemp>25.0</ns3:atemp>
          </ns3:TrackPointExtension>
        </extensions>
      </trkpt>
      <trkpt lat="42.4856152944266796112060546875" lon="20.178738869726657867431640625">
        <ele>1894.4000244140625</ele>
        <time>2026-06-20T11:25:28.000Z</time>
        <extensions>
          <ns3:TrackPointExtension>
            <ns3:atemp>25.0</ns3:atemp>
          </ns3:TrackPointExtension>
        </extensions>
      </trkpt>
      <trkpt lat="42.485592998564243316650390625" lon="20.17870031297206878662109375">
        <ele>1894.199951171875</ele>
        <time>2026-06-20T11:25:29.000Z</time>
        <extensions>
          <ns3:TrackPointExtension>
            <ns3:atemp>25.0</ns3:atemp>
          </ns3:TrackPointExtension>
        </extensions>
      </trkpt>
      <trkpt lat="42.48556760139763355255126953125" lon="20.17866485752165317535400390625">
        <ele>1893.800048828125</ele>
        <time>2026-06-20T11:25:30.000Z</time>
        <extensions>
          <ns3:TrackPointExtension>
            <ns3:atemp>25.0</ns3:atemp>
          </ns3:TrackPointExtension>
        </extensions>
      </trkpt>
      <trkpt lat="42.48554262332618236541748046875" lon="20.17862923443317413330078125">
        <ele>1893.4000244140625</ele>
        <time>2026-06-20T11:25:31.000Z</time>
        <extensions>
          <ns3:TrackPointExtension>
            <ns3:atemp>25.0</ns3:atemp>
          </ns3:TrackPointExtension>
        </extensions>
      </trkpt>
      <trkpt lat="42.48551563359797000885009765625" lon="20.178586654365062713623046875">
        <ele>1893</ele>
        <time>2026-06-20T11:25:32.000Z</time>
        <extensions>
          <ns3:TrackPointExtension>
            <ns3:atemp>25.0</ns3:atemp>
          </ns3:TrackPointExtension>
        </extensions>
      </trkpt>
      <trkpt lat="42.48548059724271297454833984375" lon="20.17854072153568267822265625">
        <ele>1892.199951171875</ele>
        <time>2026-06-20T11:25:33.000Z</time>
        <extensions>
          <ns3:TrackPointExtension>
            <ns3:atemp>25.0</ns3:atemp>
          </ns3:TrackPointExtension>
        </extensions>
      </trkpt>
      <trkpt lat="42.48543365858495235443115234375" lon="20.17850191332399845123291015625">
        <ele>1891.800048828125</ele>
        <time>2026-06-20T11:25:34.000Z</time>
        <extensions>
          <ns3:TrackPointExtension>
            <ns3:atemp>25.0</ns3:atemp>
          </ns3:TrackPointExtension>
        </extensions>
      </trkpt>
      <trkpt lat="42.48537666164338588714599609375" lon="20.17847358249127864837646484375">
        <ele>1891</ele>
        <time>2026-06-20T11:25:35.000Z</time>
        <extensions>
          <ns3:TrackPointExtension>
            <ns3:atemp>25.0</ns3:atemp>
          </ns3:TrackPointExtension>
        </extensions>
      </trkpt>
      <trkpt lat="42.48531782068312168121337890625" lon="20.17845631577074527740478515625">
        <ele>1890.199951171875</ele>
        <time>2026-06-20T11:25:36.000Z</time>
        <extensions>
          <ns3:TrackPointExtension>
            <ns3:atemp>25.0</ns3:atemp>
          </ns3:TrackPointExtension>
        </extensions>
      </trkpt>
      <trkpt lat="42.48525311239063739776611328125" lon="20.17845698632299900054931640625">
        <ele>1889.199951171875</ele>
        <time>2026-06-20T11:25:37.000Z</time>
        <extensions>
          <ns3:TrackPointExtension>
            <ns3:atemp>25.0</ns3:atemp>
          </ns3:TrackPointExtension>
        </extensions>
      </trkpt>
      <trkpt lat="42.4851931817829608917236328125" lon="20.1784761808812618255615234375">
        <ele>1888.199951171875</ele>
        <time>2026-06-20T11:25:38.000Z</time>
        <extensions>
          <ns3:TrackPointExtension>
            <ns3:atemp>25.0</ns3:atemp>
          </ns3:TrackPointExtension>
        </extensions>
      </trkpt>
      <trkpt lat="42.48514406383037567138671875" lon="20.17851247452199459075927734375">
        <ele>1887.4000244140625</ele>
        <time>2026-06-20T11:25:39.000Z</time>
        <extensions>
          <ns3:TrackPointExtension>
            <ns3:atemp>25.0</ns3:atemp>
          </ns3:TrackPointExtension>
        </extensions>
      </trkpt>
      <trkpt lat="42.48509687371551990509033203125" lon="20.1785559765994548797607421875">
        <ele>1886.5999755859375</ele>
        <time>2026-06-20T11:25:40.000Z</time>
        <extensions>
          <ns3:TrackPointExtension>
            <ns3:atemp>25.0</ns3:atemp>
          </ns3:TrackPointExtension>
        </extensions>
      </trkpt>
      <trkpt lat="42.48505446128547191619873046875" lon="20.17860643565654754638671875">
        <ele>1886</ele>
        <time>2026-06-20T11:25:41.000Z</time>
        <extensions>
          <ns3:TrackPointExtension>
            <ns3:atemp>25.0</ns3:atemp>
          </ns3:TrackPointExtension>
        </extensions>
      </trkpt>
      <trkpt lat="42.485023699700832366943359375" lon="20.1786686293780803680419921875">
        <ele>1885.199951171875</ele>
        <time>2026-06-20T11:25:42.000Z</time>
        <extensions>
          <ns3:TrackPointExtension>
            <ns3:atemp>25.0</ns3:atemp>
          </ns3:TrackPointExtension>
        </extensions>
      </trkpt>
      <trkpt lat="42.4850030802190303802490234375" lon="20.17872956581413745880126953125">
        <ele>1884.4000244140625</ele>
        <time>2026-06-20T11:25:43.000Z</time>
        <extensions>
          <ns3:TrackPointExtension>
            <ns3:atemp>25.0</ns3:atemp>
          </ns3:TrackPointExtension>
        </extensions>
      </trkpt>
      <trkpt lat="42.48498204164206981658935546875" lon="20.17879175953567028045654296875">
        <ele>1883.5999755859375</ele>
        <time>2026-06-20T11:25:44.000Z</time>
        <extensions>
          <ns3:TrackPointExtension>
            <ns3:atemp>25.0</ns3:atemp>
          </ns3:TrackPointExtension>
        </extensions>
      </trkpt>
      <trkpt lat="42.48495521955192089080810546875" lon="20.17886468209326267242431640625">
        <ele>1882.800048828125</ele>
        <time>2026-06-20T11:25:45.000Z</time>
        <extensions>
          <ns3:TrackPointExtension>
            <ns3:atemp>25.0</ns3:atemp>
          </ns3:TrackPointExtension>
        </extensions>
      </trkpt>
      <trkpt lat="42.48492336831986904144287109375" lon="20.17895353026688098907470703125">
        <ele>1881.800048828125</ele>
        <time>2026-06-20T11:25:46.000Z</time>
        <extensions>
          <ns3:TrackPointExtension>
            <ns3:atemp>25.0</ns3:atemp>
          </ns3:TrackPointExtension>
        </extensions>
      </trkpt>
      <trkpt lat="42.4848807044327259063720703125" lon="20.1790454797446727752685546875">
        <ele>1880.800048828125</ele>
        <time>2026-06-20T11:25:47.000Z</time>
        <extensions>
          <ns3:TrackPointExtension>
            <ns3:atemp>25.0</ns3:atemp>
          </ns3:TrackPointExtension>
        </extensions>
      </trkpt>
      <trkpt lat="42.4848282337188720703125" lon="20.17912150360643863677978515625">
        <ele>1879.5999755859375</ele>
        <time>2026-06-20T11:25:48.000Z</time>
        <extensions>
          <ns3:TrackPointExtension>
            <ns3:atemp>25.0</ns3:atemp>
          </ns3:TrackPointExtension>
        </extensions>
      </trkpt>
      <trkpt lat="42.48476662673056125640869140625" lon="20.17917162738740444183349609375">
        <ele>1878.5999755859375</ele>
        <time>2026-06-20T11:25:49.000Z</time>
        <extensions>
          <ns3:TrackPointExtension>
            <ns3:atemp>25.0</ns3:atemp>
          </ns3:TrackPointExtension>
        </extensions>
      </trkpt>
      <trkpt lat="42.4846956320106983184814453125" lon="20.179188139736652374267578125">
        <ele>1877.5999755859375</ele>
        <time>2026-06-20T11:25:50.000Z</time>
        <extensions>
          <ns3:TrackPointExtension>
            <ns3:atemp>25.0</ns3:atemp>
          </ns3:TrackPointExtension>
        </extensions>
      </trkpt>
      <trkpt lat="42.48462731949985027313232421875" lon="20.1792214997112751007080078125">
        <ele>1876.5999755859375</ele>
        <time>2026-06-20T11:25:51.000Z</time>
        <extensions>
          <ns3:TrackPointExtension>
            <ns3:atemp>25.0</ns3:atemp>
          </ns3:TrackPointExtension>
        </extensions>
      </trkpt>
      <trkpt lat="42.48456009663641452789306640625" lon="20.1792543567717075347900390625">
        <ele>1876.199951171875</ele>
        <time>2026-06-20T11:25:52.000Z</time>
        <extensions>
          <ns3:TrackPointExtension>
            <ns3:atemp>25.0</ns3:atemp>
          </ns3:TrackPointExtension>
        </extensions>
      </trkpt>
      <trkpt lat="42.4844974838197231292724609375" lon="20.17926768399775028228759765625">
        <ele>1875.800048828125</ele>
        <time>2026-06-20T11:25:53.000Z</time>
        <extensions>
          <ns3:TrackPointExtension>
            <ns3:atemp>25.0</ns3:atemp>
          </ns3:TrackPointExtension>
        </extensions>
      </trkpt>
      <trkpt lat="42.48444534838199615478515625" lon="20.17927153967320919036865234375">
        <ele>1875.199951171875</ele>
        <time>2026-06-20T11:25:54.000Z</time>
        <extensions>
          <ns3:TrackPointExtension>
            <ns3:atemp>25.0</ns3:atemp>
          </ns3:TrackPointExtension>
        </extensions>
      </trkpt>
      <trkpt lat="42.4844057857990264892578125" lon="20.179269947111606597900390625">
        <ele>1875.199951171875</ele>
        <time>2026-06-20T11:25:55.000Z</time>
        <extensions>
          <ns3:TrackPointExtension>
            <ns3:atemp>25.0</ns3:atemp>
          </ns3:TrackPointExtension>
        </extensions>
      </trkpt>
      <trkpt lat="42.48437284491956233978271484375" lon="20.17926885746419429779052734375">
        <ele>1875.199951171875</ele>
        <time>2026-06-20T11:25:56.000Z</time>
        <extensions>
          <ns3:TrackPointExtension>
            <ns3:atemp>25.0</ns3:atemp>
          </ns3:TrackPointExtension>
        </extensions>
      </trkpt>
      <trkpt lat="42.48434166423976421356201171875" lon="20.17926634289324283599853515625">
        <ele>1875.4000244140625</ele>
        <time>2026-06-20T11:25:57.000Z</time>
        <extensions>
          <ns3:TrackPointExtension>
            <ns3:atemp>25.0</ns3:atemp>
          </ns3:TrackPointExtension>
        </extensions>
      </trkpt>
      <trkpt lat="42.48431660234928131103515625" lon="20.17926382832229137420654296875">
        <ele>1875.800048828125</ele>
        <time>2026-06-20T11:25:58.000Z</time>
        <extensions>
          <ns3:TrackPointExtension>
            <ns3:atemp>25.0</ns3:atemp>
          </ns3:TrackPointExtension>
        </extensions>
      </trkpt>
      <trkpt lat="42.48429112136363983154296875" lon="20.17926215194165706634521484375">
        <ele>1876</ele>
        <time>2026-06-20T11:25:59.000Z</time>
        <extensions>
          <ns3:TrackPointExtension>
            <ns3:atemp>25.0</ns3:atemp>
          </ns3:TrackPointExtension>
        </extensions>
      </trkpt>
      <trkpt lat="42.48426656238734722137451171875" lon="20.1792602241039276123046875">
        <ele>1876.199951171875</ele>
        <time>2026-06-20T11:26:00.000Z</time>
        <extensions>
          <ns3:TrackPointExtension>
            <ns3:atemp>25.0</ns3:atemp>
          </ns3:TrackPointExtension>
        </extensions>
      </trkpt>
      <trkpt lat="42.48423974029719829559326171875" lon="20.17925821244716644287109375">
        <ele>1876.4000244140625</ele>
        <time>2026-06-20T11:26:01.000Z</time>
        <extensions>
          <ns3:TrackPointExtension>
            <ns3:atemp>25.0</ns3:atemp>
          </ns3:TrackPointExtension>
        </extensions>
      </trkpt>
      <trkpt lat="42.48421107418835163116455078125" lon="20.17926014028489589691162109375">
        <ele>1876.5999755859375</ele>
        <time>2026-06-20T11:26:02.000Z</time>
        <extensions>
          <ns3:TrackPointExtension>
            <ns3:atemp>25.0</ns3:atemp>
          </ns3:TrackPointExtension>
        </extensions>
      </trkpt>
      <trkpt lat="42.48418006114661693572998046875" lon="20.17925628460943698883056640625">
        <ele>1876.800048828125</ele>
        <time>2026-06-20T11:26:03.000Z</time>
        <extensions>
          <ns3:TrackPointExtension>
            <ns3:atemp>25.0</ns3:atemp>
          </ns3:TrackPointExtension>
        </extensions>
      </trkpt>
      <trkpt lat="42.48414787463843822479248046875" lon="20.17925125546753406524658203125">
        <ele>1876.800048828125</ele>
        <time>2026-06-20T11:26:04.000Z</time>
        <extensions>
          <ns3:TrackPointExtension>
            <ns3:atemp>25.0</ns3:atemp>
          </ns3:TrackPointExtension>
        </extensions>
      </trkpt>
      <trkpt lat="42.48411543667316436767578125" lon="20.17924555577337741851806640625">
        <ele>1876.800048828125</ele>
        <time>2026-06-20T11:26:05.000Z</time>
        <extensions>
          <ns3:TrackPointExtension>
            <ns3:atemp>25.0</ns3:atemp>
          </ns3:TrackPointExtension>
        </extensions>
      </trkpt>
      <trkpt lat="42.48408216051757335662841796875" lon="20.17923868261277675628662109375">
        <ele>1876.800048828125</ele>
        <time>2026-06-20T11:26:06.000Z</time>
        <extensions>
          <ns3:TrackPointExtension>
            <ns3:atemp>25.0</ns3:atemp>
          </ns3:TrackPointExtension>
        </extensions>
      </trkpt>
      <trkpt lat="42.48404796235263347625732421875" lon="20.179231055080890655517578125">
        <ele>1877</ele>
        <time>2026-06-20T11:26:07.000Z</time>
        <extensions>
          <ns3:TrackPointExtension>
            <ns3:atemp>25.0</ns3:atemp>
          </ns3:TrackPointExtension>
        </extensions>
      </trkpt>
      <trkpt lat="42.48401359654963016510009765625" lon="20.17922761850059032440185546875">
        <ele>1877</ele>
        <time>2026-06-20T11:26:08.000Z</time>
        <extensions>
          <ns3:TrackPointExtension>
            <ns3:atemp>25.0</ns3:atemp>
          </ns3:TrackPointExtension>
        </extensions>
      </trkpt>
      <trkpt lat="42.4839791469275951385498046875" lon="20.179226361215114593505859375">
        <ele>1877.199951171875</ele>
        <time>2026-06-20T11:26:09.000Z</time>
        <extensions>
          <ns3:TrackPointExtension>
            <ns3:atemp>25.0</ns3:atemp>
          </ns3:TrackPointExtension>
        </extensions>
      </trkpt>
      <trkpt lat="42.48394511640071868896484375" lon="20.17922527156770229339599609375">
        <ele>1877.4000244140625</ele>
        <time>2026-06-20T11:26:10.000Z</time>
        <extensions>
          <ns3:TrackPointExtension>
            <ns3:atemp>25.0</ns3:atemp>
          </ns3:TrackPointExtension>
        </extensions>
      </trkpt>
      <trkpt lat="42.48391200788319110870361328125" lon="20.17922627739608287811279296875">
        <ele>1877.5999755859375</ele>
        <time>2026-06-20T11:26:11.000Z</time>
        <extensions>
          <ns3:TrackPointExtension>
            <ns3:atemp>25.0</ns3:atemp>
          </ns3:TrackPointExtension>
        </extensions>
      </trkpt>
      <trkpt lat="42.4838782288134098052978515625" lon="20.1792231760919094085693359375">
        <ele>1877.800048828125</ele>
        <time>2026-06-20T11:26:12.000Z</time>
        <extensions>
          <ns3:TrackPointExtension>
            <ns3:atemp>25.0</ns3:atemp>
          </ns3:TrackPointExtension>
        </extensions>
      </trkpt>
      <trkpt lat="42.48384780250489711761474609375" lon="20.17922091297805309295654296875">
        <ele>1878</ele>
        <time>2026-06-20T11:26:13.000Z</time>
        <extensions>
          <ns3:TrackPointExtension>
            <ns3:atemp>25.0</ns3:atemp>
          </ns3:TrackPointExtension>
        </extensions>
      </trkpt>
      <trkpt lat="42.48381771147251129150390625" lon="20.17921395599842071533203125">
        <ele>1878.199951171875</ele>
        <time>2026-06-20T11:26:14.000Z</time>
        <extensions>
          <ns3:TrackPointExtension>
            <ns3:atemp>25.0</ns3:atemp>
          </ns3:TrackPointExtension>
        </extensions>
      </trkpt>
      <trkpt lat="42.4837835133075714111328125" lon="20.179209597408771514892578125">
        <ele>1878.4000244140625</ele>
        <time>2026-06-20T11:26:15.000Z</time>
        <extensions>
          <ns3:TrackPointExtension>
            <ns3:atemp>25.0</ns3:atemp>
          </ns3:TrackPointExtension>
        </extensions>
      </trkpt>
      <trkpt lat="42.48374923132359981536865234375" lon="20.1792067475616931915283203125">
        <ele>1878.5999755859375</ele>
        <time>2026-06-20T11:26:16.000Z</time>
        <extensions>
          <ns3:TrackPointExtension>
            <ns3:atemp>25.0</ns3:atemp>
          </ns3:TrackPointExtension>
        </extensions>
      </trkpt>
      <trkpt lat="42.48371721245348453521728515625" lon="20.1792040653526782989501953125">
        <ele>1879</ele>
        <time>2026-06-20T11:26:17.000Z</time>
        <extensions>
          <ns3:TrackPointExtension>
            <ns3:atemp>25.0</ns3:atemp>
          </ns3:TrackPointExtension>
        </extensions>
      </trkpt>
      <trkpt lat="42.4836881272494792938232421875" lon="20.17919342033565044403076171875">
        <ele>1879.199951171875</ele>
        <time>2026-06-20T11:26:18.000Z</time>
        <extensions>
          <ns3:TrackPointExtension>
            <ns3:atemp>25.0</ns3:atemp>
          </ns3:TrackPointExtension>
        </extensions>
      </trkpt>
      <trkpt lat="42.4836606346070766448974609375" lon="20.17917699180543422698974609375">
        <ele>1879.4000244140625</ele>
        <time>2026-06-20T11:26:19.000Z</time>
        <extensions>
          <ns3:TrackPointExtension>
            <ns3:atemp>25.0</ns3:atemp>
          </ns3:TrackPointExtension>
        </extensions>
      </trkpt>
      <trkpt lat="42.48363473452627658843994140625" lon="20.17915586940944194793701171875">
        <ele>1879.5999755859375</ele>
        <time>2026-06-20T11:26:20.000Z</time>
        <extensions>
          <ns3:TrackPointExtension>
            <ns3:atemp>25.0</ns3:atemp>
          </ns3:TrackPointExtension>
        </extensions>
      </trkpt>
      <trkpt lat="42.483607493340969085693359375" lon="20.17913139425218105316162109375">
        <ele>1879.800048828125</ele>
        <time>2026-06-20T11:26:21.000Z</time>
        <extensions>
          <ns3:TrackPointExtension>
            <ns3:atemp>25.0</ns3:atemp>
          </ns3:TrackPointExtension>
        </extensions>
      </trkpt>
      <trkpt lat="42.48357824049890041351318359375" lon="20.17910859547555446624755859375">
        <ele>1880</ele>
        <time>2026-06-20T11:26:22.000Z</time>
        <extensions>
          <ns3:TrackPointExtension>
            <ns3:atemp>25.0</ns3:atemp>
          </ns3:TrackPointExtension>
        </extensions>
      </trkpt>
      <trkpt lat="42.48354890383780002593994140625" lon="20.179091580212116241455078125">
        <ele>1880.199951171875</ele>
        <time>2026-06-20T11:26:23.000Z</time>
        <extensions>
          <ns3:TrackPointExtension>
            <ns3:atemp>25.0</ns3:atemp>
          </ns3:TrackPointExtension>
        </extensions>
      </trkpt>
      <trkpt lat="42.48351654969155788421630859375" lon="20.179074145853519439697265625">
        <ele>1880.4000244140625</ele>
        <time>2026-06-20T11:26:24.000Z</time>
        <extensions>
          <ns3:TrackPointExtension>
            <ns3:atemp>25.0</ns3:atemp>
          </ns3:TrackPointExtension>
        </extensions>
      </trkpt>
      <trkpt lat="42.4834849499166011810302734375" lon="20.17905612476170063018798828125">
        <ele>1880.5999755859375</ele>
        <time>2026-06-20T11:26:25.000Z</time>
        <extensions>
          <ns3:TrackPointExtension>
            <ns3:atemp>25.0</ns3:atemp>
          </ns3:TrackPointExtension>
        </extensions>
      </trkpt>
      <trkpt lat="42.48345552943646907806396484375" lon="20.1790370978415012359619140625">
        <ele>1880.5999755859375</ele>
        <time>2026-06-20T11:26:26.000Z</time>
        <extensions>
          <ns3:TrackPointExtension>
            <ns3:atemp>25.0</ns3:atemp>
          </ns3:TrackPointExtension>
        </extensions>
      </trkpt>
      <trkpt lat="42.48343004845082759857177734375" lon="20.17901823855936527252197265625">
        <ele>1880.800048828125</ele>
        <time>2026-06-20T11:26:27.000Z</time>
        <extensions>
          <ns3:TrackPointExtension>
            <ns3:atemp>25.0</ns3:atemp>
          </ns3:TrackPointExtension>
        </extensions>
      </trkpt>
      <trkpt lat="42.4834031425416469573974609375" lon="20.17899778671562671661376953125">
        <ele>1880.800048828125</ele>
        <time>2026-06-20T11:26:28.000Z</time>
        <extensions>
          <ns3:TrackPointExtension>
            <ns3:atemp>24.0</ns3:atemp>
          </ns3:TrackPointExtension>
        </extensions>
      </trkpt>
      <trkpt lat="42.48337472788989543914794921875" lon="20.17897364683449268341064453125">
        <ele>1880.800048828125</ele>
        <time>2026-06-20T11:26:29.000Z</time>
        <extensions>
          <ns3:TrackPointExtension>
            <ns3:atemp>24.0</ns3:atemp>
          </ns3:TrackPointExtension>
        </extensions>
      </trkpt>
      <trkpt lat="42.483344636857509613037109375" lon="20.17895638011395931243896484375">
        <ele>1880.800048828125</ele>
        <time>2026-06-20T11:26:30.000Z</time>
        <extensions>
          <ns3:TrackPointExtension>
            <ns3:atemp>25.0</ns3:atemp>
          </ns3:TrackPointExtension>
        </extensions>
      </trkpt>
      <trkpt lat="42.4833183176815509796142578125" lon="20.1789455674588680267333984375">
        <ele>1880.800048828125</ele>
        <time>2026-06-20T11:26:31.000Z</time>
        <extensions>
          <ns3:TrackPointExtension>
            <ns3:atemp>24.0</ns3:atemp>
          </ns3:TrackPointExtension>
        </extensions>
      </trkpt>
      <trkpt lat="42.48329468071460723876953125" lon="20.17893693409860134124755859375">
        <ele>1881</ele>
        <time>2026-06-20T11:26:32.000Z</time>
        <extensions>
          <ns3:TrackPointExtension>
            <ns3:atemp>24.0</ns3:atemp>
          </ns3:TrackPointExtension>
        </extensions>
      </trkpt>
      <trkpt lat="42.48327364213764667510986328125" lon="20.17893240787088871002197265625">
        <ele>1881</ele>
        <time>2026-06-20T11:26:33.000Z</time>
        <extensions>
          <ns3:TrackPointExtension>
            <ns3:atemp>24.0</ns3:atemp>
          </ns3:TrackPointExtension>
        </extensions>
      </trkpt>
      <trkpt lat="42.483258135616779327392578125" lon="20.17893274314701557159423828125">
        <ele>1881</ele>
        <time>2026-06-20T11:26:34.000Z</time>
        <extensions>
          <ns3:TrackPointExtension>
            <ns3:atemp>24.0</ns3:atemp>
          </ns3:TrackPointExtension>
        </extensions>
      </trkpt>
      <trkpt lat="42.48324640095233917236328125" lon="20.1789358444511890411376953125">
        <ele>1881.199951171875</ele>
        <time>2026-06-20T11:26:35.000Z</time>
        <extensions>
          <ns3:TrackPointExtension>
            <ns3:atemp>24.0</ns3:atemp>
          </ns3:TrackPointExtension>
        </extensions>
      </trkpt>
      <trkpt lat="42.48323567211627960205078125" lon="20.1789356768131256103515625">
        <ele>1881.199951171875</ele>
        <time>2026-06-20T11:26:36.000Z</time>
        <extensions>
          <ns3:TrackPointExtension>
            <ns3:atemp>24.0</ns3:atemp>
          </ns3:TrackPointExtension>
        </extensions>
      </trkpt>
      <trkpt lat="42.483222596347332000732421875" lon="20.178938694298267364501953125">
        <ele>1881.4000244140625</ele>
        <time>2026-06-20T11:26:37.000Z</time>
        <extensions>
          <ns3:TrackPointExtension>
            <ns3:atemp>24.0</ns3:atemp>
          </ns3:TrackPointExtension>
        </extensions>
      </trkpt>
      <trkpt lat="42.48320885002613067626953125" lon="20.17894062213599681854248046875">
        <ele>1881.4000244140625</ele>
        <time>2026-06-20T11:26:38.000Z</time>
        <extensions>
          <ns3:TrackPointExtension>
            <ns3:atemp>24.0</ns3:atemp>
          </ns3:TrackPointExtension>
        </extensions>
      </trkpt>
      <trkpt lat="42.483191080391407012939453125" lon="20.17893995158374309539794921875">
        <ele>1881.4000244140625</ele>
        <time>2026-06-20T11:26:39.000Z</time>
        <extensions>
          <ns3:TrackPointExtension>
            <ns3:atemp>24.0</ns3:atemp>
          </ns3:TrackPointExtension>
        </extensions>
      </trkpt>
      <trkpt lat="42.48317138291895389556884765625" lon="20.17893928103148937225341796875">
        <ele>1881.5999755859375</ele>
        <time>2026-06-20T11:26:40.000Z</time>
        <extensions>
          <ns3:TrackPointExtension>
            <ns3:atemp>24.0</ns3:atemp>
          </ns3:TrackPointExtension>
        </extensions>
      </trkpt>
      <trkpt lat="42.48315227217972278594970703125" lon="20.17894397489726543426513671875">
        <ele>1881.5999755859375</ele>
        <time>2026-06-20T11:26:41.000Z</time>
        <extensions>
          <ns3:TrackPointExtension>
            <ns3:atemp>24.0</ns3:atemp>
          </ns3:TrackPointExtension>
        </extensions>
      </trkpt>
      <trkpt lat="42.483136095106601715087890625" lon="20.17895135097205638885498046875">
        <ele>1881.5999755859375</ele>
        <time>2026-06-20T11:26:42.000Z</time>
        <extensions>
          <ns3:TrackPointExtension>
            <ns3:atemp>24.0</ns3:atemp>
          </ns3:TrackPointExtension>
        </extensions>
      </trkpt>
      <trkpt lat="42.4831154756247997283935546875" lon="20.1789557933807373046875">
        <ele>1881.800048828125</ele>
        <time>2026-06-20T11:26:43.000Z</time>
        <extensions>
          <ns3:TrackPointExtension>
            <ns3:atemp>24.0</ns3:atemp>
          </ns3:TrackPointExtension>
        </extensions>
      </trkpt>
      <trkpt lat="42.48309544287621974945068359375" lon="20.178960151970386505126953125">
        <ele>1882</ele>
        <time>2026-06-20T11:26:44.000Z</time>
        <extensions>
          <ns3:TrackPointExtension>
            <ns3:atemp>24.0</ns3:atemp>
          </ns3:TrackPointExtension>
        </extensions>
      </trkpt>
      <trkpt lat="42.4830742366611957550048828125" lon="20.17896140925586223602294921875">
        <ele>1882.199951171875</ele>
        <time>2026-06-20T11:26:45.000Z</time>
        <extensions>
          <ns3:TrackPointExtension>
            <ns3:atemp>24.0</ns3:atemp>
          </ns3:TrackPointExtension>
        </extensions>
      </trkpt>
      <trkpt lat="42.4830524437129497528076171875" lon="20.17896643839776515960693359375">
        <ele>1882.4000244140625</ele>
        <time>2026-06-20T11:26:46.000Z</time>
        <extensions>
          <ns3:TrackPointExtension>
            <ns3:atemp>24.0</ns3:atemp>
          </ns3:TrackPointExtension>
        </extensions>
      </trkpt>
      <trkpt lat="42.4830319918692111968994140625" lon="20.17897616140544414520263671875">
        <ele>1882.5999755859375</ele>
        <time>2026-06-20T11:26:47.000Z</time>
        <extensions>
          <ns3:TrackPointExtension>
            <ns3:atemp>24.0</ns3:atemp>
          </ns3:TrackPointExtension>
        </extensions>
      </trkpt>
      <trkpt lat="42.48301028273999691009521484375" lon="20.17898269928991794586181640625">
        <ele>1882.800048828125</ele>
        <time>2026-06-20T11:26:48.000Z</time>
        <extensions>
          <ns3:TrackPointExtension>
            <ns3:atemp>24.0</ns3:atemp>
          </ns3:TrackPointExtension>
        </extensions>
      </trkpt>
      <trkpt lat="42.4829884059727191925048828125" lon="20.1789894886314868927001953125">
        <ele>1883</ele>
        <time>2026-06-20T11:26:49.000Z</time>
        <extensions>
          <ns3:TrackPointExtension>
            <ns3:atemp>24.0</ns3:atemp>
          </ns3:TrackPointExtension>
        </extensions>
      </trkpt>
      <trkpt lat="42.48296753503382205963134765625" lon="20.17899845726788043975830078125">
        <ele>1883</ele>
        <time>2026-06-20T11:26:50.000Z</time>
        <extensions>
          <ns3:TrackPointExtension>
            <ns3:atemp>24.0</ns3:atemp>
          </ns3:TrackPointExtension>
        </extensions>
      </trkpt>
      <trkpt lat="42.48294389806687831878662109375" lon="20.17900834791362285614013671875">
        <ele>1883.4000244140625</ele>
        <time>2026-06-20T11:26:51.000Z</time>
        <extensions>
          <ns3:TrackPointExtension>
            <ns3:atemp>24.0</ns3:atemp>
          </ns3:TrackPointExtension>
        </extensions>
      </trkpt>
      <trkpt lat="42.482922188937664031982421875" lon="20.17901622690260410308837890625">
        <ele>1883.5999755859375</ele>
        <time>2026-06-20T11:26:52.000Z</time>
        <extensions>
          <ns3:TrackPointExtension>
            <ns3:atemp>24.0</ns3:atemp>
          </ns3:TrackPointExtension>
        </extensions>
      </trkpt>
      <trkpt lat="42.48290148563683032989501953125" lon="20.1790206693112850189208984375">
        <ele>1883.800048828125</ele>
        <time>2026-06-20T11:26:53.000Z</time>
        <extensions>
          <ns3:TrackPointExtension>
            <ns3:atemp>24.0</ns3:atemp>
          </ns3:TrackPointExtension>
        </extensions>
      </trkpt>
      <trkpt lat="42.48288086615502834320068359375" lon="20.1790320686995983123779296875">
        <ele>1884</ele>
        <time>2026-06-20T11:26:54.000Z</time>
        <extensions>
          <ns3:TrackPointExtension>
            <ns3:atemp>24.0</ns3:atemp>
          </ns3:TrackPointExtension>
        </extensions>
      </trkpt>
      <trkpt lat="42.4828613363206386566162109375" lon="20.179043971002101898193359375">
        <ele>1884.4000244140625</ele>
        <time>2026-06-20T11:26:55.000Z</time>
        <extensions>
          <ns3:TrackPointExtension>
            <ns3:atemp>24.0</ns3:atemp>
          </ns3:TrackPointExtension>
        </extensions>
      </trkpt>
      <trkpt lat="42.4828412197530269622802734375" lon="20.17905327491462230682373046875">
        <ele>1884.800048828125</ele>
        <time>2026-06-20T11:26:56.000Z</time>
        <extensions>
          <ns3:TrackPointExtension>
            <ns3:atemp>24.0</ns3:atemp>
          </ns3:TrackPointExtension>
        </extensions>
      </trkpt>
      <trkpt lat="42.48281934298574924468994140625" lon="20.17906081862747669219970703125">
        <ele>1885</ele>
        <time>2026-06-20T11:26:57.000Z</time>
        <extensions>
          <ns3:TrackPointExtension>
            <ns3:atemp>24.0</ns3:atemp>
          </ns3:TrackPointExtension>
        </extensions>
      </trkpt>
      <trkpt lat="42.48279604129493236541748046875" lon="20.179065428674221038818359375">
        <ele>1885.4000244140625</ele>
        <time>2026-06-20T11:26:58.000Z</time>
        <extensions>
          <ns3:TrackPointExtension>
            <ns3:atemp>24.0</ns3:atemp>
          </ns3:TrackPointExtension>
        </extensions>
      </trkpt>
      <trkpt lat="42.4827731586992740631103515625" lon="20.179071463644504547119140625">
        <ele>1885.800048828125</ele>
        <time>2026-06-20T11:26:59.000Z</time>
        <extensions>
          <ns3:TrackPointExtension>
            <ns3:atemp>24.0</ns3:atemp>
          </ns3:TrackPointExtension>
        </extensions>
      </trkpt>
      <trkpt lat="42.482747845351696014404296875" lon="20.17907473258674144744873046875">
        <ele>1886.199951171875</ele>
        <time>2026-06-20T11:27:00.000Z</time>
        <extensions>
          <ns3:TrackPointExtension>
            <ns3:atemp>24.0</ns3:atemp>
          </ns3:TrackPointExtension>
        </extensions>
      </trkpt>
      <trkpt lat="42.48272378928959369659423828125" lon="20.179072804749011993408203125">
        <ele>1886.4000244140625</ele>
        <time>2026-06-20T11:27:01.000Z</time>
        <extensions>
          <ns3:TrackPointExtension>
            <ns3:atemp>24.0</ns3:atemp>
          </ns3:TrackPointExtension>
        </extensions>
      </trkpt>
      <trkpt lat="42.48269897885620594024658203125" lon="20.1790679432451725006103515625">
        <ele>1886.800048828125</ele>
        <time>2026-06-20T11:27:02.000Z</time>
        <extensions>
          <ns3:TrackPointExtension>
            <ns3:atemp>24.0</ns3:atemp>
          </ns3:TrackPointExtension>
        </extensions>
      </trkpt>
      <trkpt lat="42.482670061290264129638671875" lon="20.179070793092250823974609375">
        <ele>1887.199951171875</ele>
        <time>2026-06-20T11:27:03.000Z</time>
        <extensions>
          <ns3:TrackPointExtension>
            <ns3:atemp>24.0</ns3:atemp>
          </ns3:TrackPointExtension>
        </extensions>
      </trkpt>
      <trkpt lat="42.4826501123607158660888671875" lon="20.17908428795635700225830078125">
        <ele>1887.4000244140625</ele>
        <time>2026-06-20T11:27:04.000Z</time>
        <extensions>
          <ns3:TrackPointExtension>
            <ns3:atemp>24.0</ns3:atemp>
          </ns3:TrackPointExtension>
        </extensions>
      </trkpt>
      <trkpt lat="42.4826350249350070953369140625" lon="20.17910272814333438873291015625">
        <ele>1887.800048828125</ele>
        <time>2026-06-20T11:27:05.000Z</time>
        <extensions>
          <ns3:TrackPointExtension>
            <ns3:atemp>24.0</ns3:atemp>
          </ns3:TrackPointExtension>
        </extensions>
      </trkpt>
      <trkpt lat="42.4826167523860931396484375" lon="20.17911605536937713623046875">
        <ele>1888.199951171875</ele>
        <time>2026-06-20T11:27:06.000Z</time>
        <extensions>
          <ns3:TrackPointExtension>
            <ns3:atemp>24.0</ns3:atemp>
          </ns3:TrackPointExtension>
        </extensions>
      </trkpt>
      <trkpt lat="42.48259655199944972991943359375" lon="20.1791219227015972137451171875">
        <ele>1888.4000244140625</ele>
        <time>2026-06-20T11:27:07.000Z</time>
        <extensions>
          <ns3:TrackPointExtension>
            <ns3:atemp>24.0</ns3:atemp>
          </ns3:TrackPointExtension>
        </extensions>
      </trkpt>
      <trkpt lat="42.48257895000278949737548828125" lon="20.179125107824802398681640625">
        <ele>1888.800048828125</ele>
        <time>2026-06-20T11:27:08.000Z</time>
        <extensions>
          <ns3:TrackPointExtension>
            <ns3:atemp>24.0</ns3:atemp>
          </ns3:TrackPointExtension>
        </extensions>
      </trkpt>
      <trkpt lat="42.48256185092031955718994140625" lon="20.17913256771862506866455078125">
        <ele>1889.199951171875</ele>
        <time>2026-06-20T11:27:09.000Z</time>
        <extensions>
          <ns3:TrackPointExtension>
            <ns3:atemp>24.0</ns3:atemp>
          </ns3:TrackPointExtension>
        </extensions>
      </trkpt>
      <trkpt lat="42.4825428240001201629638671875" lon="20.17914061434566974639892578125">
        <ele>1889.5999755859375</ele>
        <time>2026-06-20T11:27:10.000Z</time>
        <extensions>
          <ns3:TrackPointExtension>
            <ns3:atemp>24.0</ns3:atemp>
          </ns3:TrackPointExtension>
        </extensions>
      </trkpt>
      <trkpt lat="42.4825263954699039459228515625" lon="20.17914312891662120819091796875">
        <ele>1890</ele>
        <time>2026-06-20T11:27:11.000Z</time>
        <extensions>
          <ns3:TrackPointExtension>
            <ns3:atemp>24.0</ns3:atemp>
          </ns3:TrackPointExtension>
        </extensions>
      </trkpt>
      <trkpt lat="42.482508458197116851806640625" lon="20.17915151081979274749755859375">
        <ele>1890.199951171875</ele>
        <time>2026-06-20T11:27:12.000Z</time>
        <extensions>
          <ns3:TrackPointExtension>
            <ns3:atemp>24.0</ns3:atemp>
          </ns3:TrackPointExtension>
        </extensions>
      </trkpt>
      <trkpt lat="42.482491694390773773193359375" lon="20.17915905453264713287353515625">
        <ele>1890.5999755859375</ele>
        <time>2026-06-20T11:27:13.000Z</time>
        <extensions>
          <ns3:TrackPointExtension>
            <ns3:atemp>24.0</ns3:atemp>
          </ns3:TrackPointExtension>
        </extensions>
      </trkpt>
      <trkpt lat="42.482470907270908355712890625" lon="20.1791651733219623565673828125">
        <ele>1891</ele>
        <time>2026-06-20T11:27:14.000Z</time>
        <extensions>
          <ns3:TrackPointExtension>
            <ns3:atemp>24.0</ns3:atemp>
          </ns3:TrackPointExtension>
        </extensions>
      </trkpt>
      <trkpt lat="42.4824522994458675384521484375" lon="20.17916710115969181060791015625">
        <ele>1891.199951171875</ele>
        <time>2026-06-20T11:27:15.000Z</time>
        <extensions>
          <ns3:TrackPointExtension>
            <ns3:atemp>24.0</ns3:atemp>
          </ns3:TrackPointExtension>
        </extensions>
      </trkpt>
      <trkpt lat="42.48243176378309726715087890625" lon="20.1791678555309772491455078125">
        <ele>1891.5999755859375</ele>
        <time>2026-06-20T11:27:16.000Z</time>
        <extensions>
          <ns3:TrackPointExtension>
            <ns3:atemp>24.0</ns3:atemp>
          </ns3:TrackPointExtension>
        </extensions>
      </trkpt>
      <trkpt lat="42.48241315595805644989013671875" lon="20.17916676588356494903564453125">
        <ele>1892</ele>
        <time>2026-06-20T11:27:17.000Z</time>
        <extensions>
          <ns3:TrackPointExtension>
            <ns3:atemp>24.0</ns3:atemp>
          </ns3:TrackPointExtension>
        </extensions>
      </trkpt>
      <trkpt lat="42.482396475970745086669921875" lon="20.17916793935000896453857421875">
        <ele>1892.4000244140625</ele>
        <time>2026-06-20T11:27:18.000Z</time>
        <extensions>
          <ns3:TrackPointExtension>
            <ns3:atemp>24.0</ns3:atemp>
          </ns3:TrackPointExtension>
        </extensions>
      </trkpt>
      <trkpt lat="42.48237979598343372344970703125" lon="20.17916207201778888702392578125">
        <ele>1892.800048828125</ele>
        <time>2026-06-20T11:27:19.000Z</time>
        <extensions>
          <ns3:TrackPointExtension>
            <ns3:atemp>24.0</ns3:atemp>
          </ns3:TrackPointExtension>
        </extensions>
      </trkpt>
      <trkpt lat="42.4823634512722492218017578125" lon="20.1791574619710445404052734375">
        <ele>1893</ele>
        <time>2026-06-20T11:27:20.000Z</time>
        <extensions>
          <ns3:TrackPointExtension>
            <ns3:atemp>24.0</ns3:atemp>
          </ns3:TrackPointExtension>
        </extensions>
      </trkpt>
      <trkpt lat="42.48234576545655727386474609375" lon="20.17915234901010990142822265625">
        <ele>1893.4000244140625</ele>
        <time>2026-06-20T11:27:21.000Z</time>
        <extensions>
          <ns3:TrackPointExtension>
            <ns3:atemp>24.0</ns3:atemp>
          </ns3:TrackPointExtension>
        </extensions>
      </trkpt>
      <trkpt lat="42.482327409088611602783203125" lon="20.17914614640176296234130859375">
        <ele>1893.800048828125</ele>
        <time>2026-06-20T11:27:22.000Z</time>
        <extensions>
          <ns3:TrackPointExtension>
            <ns3:atemp>24.0</ns3:atemp>
          </ns3:TrackPointExtension>
        </extensions>
      </trkpt>
      <trkpt lat="42.48230771161615848541259765625" lon="20.17913759686052799224853515625">
        <ele>1894.199951171875</ele>
        <time>2026-06-20T11:27:23.000Z</time>
        <extensions>
          <ns3:TrackPointExtension>
            <ns3:atemp>24.0</ns3:atemp>
          </ns3:TrackPointExtension>
        </extensions>
      </trkpt>
      <trkpt lat="42.48228751122951507568359375" lon="20.17912502400577068328857421875">
        <ele>1894.5999755859375</ele>
        <time>2026-06-20T11:27:24.000Z</time>
        <extensions>
          <ns3:TrackPointExtension>
            <ns3:atemp>24.0</ns3:atemp>
          </ns3:TrackPointExtension>
        </extensions>
      </trkpt>
      <trkpt lat="42.48226865194737911224365234375" lon="20.17911999486386775970458984375">
        <ele>1895</ele>
        <time>2026-06-20T11:27:25.000Z</time>
        <extensions>
          <ns3:TrackPointExtension>
            <ns3:atemp>24.0</ns3:atemp>
          </ns3:TrackPointExtension>
        </extensions>
      </trkpt>
      <trkpt lat="42.48224987648427486419677734375" lon="20.17911748029291629791259765625">
        <ele>1895.4000244140625</ele>
        <time>2026-06-20T11:27:26.000Z</time>
        <extensions>
          <ns3:TrackPointExtension>
            <ns3:atemp>24.0</ns3:atemp>
          </ns3:TrackPointExtension>
        </extensions>
      </trkpt>
      <trkpt lat="42.482233531773090362548828125" lon="20.1791158877313137054443359375">
        <ele>1895.800048828125</ele>
        <time>2026-06-20T11:27:27.000Z</time>
        <extensions>
          <ns3:TrackPointExtension>
            <ns3:atemp>24.0</ns3:atemp>
          </ns3:TrackPointExtension>
        </extensions>
      </trkpt>
      <trkpt lat="42.4822176061570644378662109375" lon="20.17911027185618877410888671875">
        <ele>1896</ele>
        <time>2026-06-20T11:27:28.000Z</time>
        <extensions>
          <ns3:TrackPointExtension>
            <ns3:atemp>24.0</ns3:atemp>
          </ns3:TrackPointExtension>
        </extensions>
      </trkpt>
      <trkpt lat="42.4821984954178333282470703125" lon="20.17909769900143146514892578125">
        <ele>1896.4000244140625</ele>
        <time>2026-06-20T11:27:29.000Z</time>
        <extensions>
          <ns3:TrackPointExtension>
            <ns3:atemp>24.0</ns3:atemp>
          </ns3:TrackPointExtension>
        </extensions>
      </trkpt>
      <trkpt lat="42.48217795975506305694580078125" lon="20.17908697016537189483642578125">
        <ele>1896.5999755859375</ele>
        <time>2026-06-20T11:27:30.000Z</time>
        <extensions>
          <ns3:TrackPointExtension>
            <ns3:atemp>24.0</ns3:atemp>
          </ns3:TrackPointExtension>
        </extensions>
      </trkpt>
      <trkpt lat="42.48215784318745136260986328125" lon="20.17908629961311817169189453125">
        <ele>1897</ele>
        <time>2026-06-20T11:27:31.000Z</time>
        <extensions>
          <ns3:TrackPointExtension>
            <ns3:atemp>24.0</ns3:atemp>
          </ns3:TrackPointExtension>
        </extensions>
      </trkpt>
      <trkpt lat="42.48213588260114192962646484375" lon="20.179083533585071563720703125">
        <ele>1897.199951171875</ele>
        <time>2026-06-20T11:27:32.000Z</time>
        <extensions>
          <ns3:TrackPointExtension>
            <ns3:atemp>24.0</ns3:atemp>
          </ns3:TrackPointExtension>
        </extensions>
      </trkpt>
      <trkpt lat="42.482114173471927642822265625" lon="20.179075486958026885986328125">
        <ele>1897.4000244140625</ele>
        <time>2026-06-20T11:27:33.000Z</time>
        <extensions>
          <ns3:TrackPointExtension>
            <ns3:atemp>24.0</ns3:atemp>
          </ns3:TrackPointExtension>
        </extensions>
      </trkpt>
      <trkpt lat="42.48209380544722080230712890625" lon="20.17906685359776020050048828125">
        <ele>1897.5999755859375</ele>
        <time>2026-06-20T11:27:34.000Z</time>
        <extensions>
          <ns3:TrackPointExtension>
            <ns3:atemp>24.0</ns3:atemp>
          </ns3:TrackPointExtension>
        </extensions>
      </trkpt>
      <trkpt lat="42.48207695782184600830078125" lon="20.17906048335134983062744140625">
        <ele>1897.800048828125</ele>
        <time>2026-06-20T11:27:35.000Z</time>
        <extensions>
          <ns3:TrackPointExtension>
            <ns3:atemp>24.0</ns3:atemp>
          </ns3:TrackPointExtension>
        </extensions>
      </trkpt>
      <trkpt lat="42.48205927200615406036376953125" lon="20.17905126325786113739013671875">
        <ele>1898</ele>
        <time>2026-06-20T11:27:36.000Z</time>
        <extensions>
          <ns3:TrackPointExtension>
            <ns3:atemp>24.0</ns3:atemp>
          </ns3:TrackPointExtension>
        </extensions>
      </trkpt>
      <trkpt lat="42.48204116709530353546142578125" lon="20.17904321663081645965576171875">
        <ele>1898.199951171875</ele>
        <time>2026-06-20T11:27:37.000Z</time>
        <extensions>
          <ns3:TrackPointExtension>
            <ns3:atemp>24.0</ns3:atemp>
          </ns3:TrackPointExtension>
        </extensions>
      </trkpt>
      <trkpt lat="42.48202239163219928741455078125" lon="20.179031901061534881591796875">
        <ele>1898.4000244140625</ele>
        <time>2026-06-20T11:27:38.000Z</time>
        <extensions>
          <ns3:TrackPointExtension>
            <ns3:atemp>24.0</ns3:atemp>
          </ns3:TrackPointExtension>
        </extensions>
      </trkpt>
      <trkpt lat="42.48200177215039730072021484375" lon="20.17901957966387271881103515625">
        <ele>1898.5999755859375</ele>
        <time>2026-06-20T11:27:39.000Z</time>
        <extensions>
          <ns3:TrackPointExtension>
            <ns3:atemp>24.0</ns3:atemp>
          </ns3:TrackPointExtension>
        </extensions>
      </trkpt>
      <trkpt lat="42.481982074677944183349609375" lon="20.179009102284908294677734375">
        <ele>1898.800048828125</ele>
        <time>2026-06-20T11:27:40.000Z</time>
        <extensions>
          <ns3:TrackPointExtension>
            <ns3:atemp>24.0</ns3:atemp>
          </ns3:TrackPointExtension>
        </extensions>
      </trkpt>
      <trkpt lat="42.48196153901517391204833984375" lon="20.17899409867823123931884765625">
        <ele>1899</ele>
        <time>2026-06-20T11:27:41.000Z</time>
        <extensions>
          <ns3:TrackPointExtension>
            <ns3:atemp>24.0</ns3:atemp>
          </ns3:TrackPointExtension>
        </extensions>
      </trkpt>
      <trkpt lat="42.481937818229198455810546875" lon="20.1789666898548603057861328125">
        <ele>1899</ele>
        <time>2026-06-20T11:27:42.000Z</time>
        <extensions>
          <ns3:TrackPointExtension>
            <ns3:atemp>24.0</ns3:atemp>
          </ns3:TrackPointExtension>
        </extensions>
      </trkpt>
      <trkpt lat="42.48191778548061847686767578125" lon="20.178937017917633056640625">
        <ele>1899</ele>
        <time>2026-06-20T11:27:43.000Z</time>
        <extensions>
          <ns3:TrackPointExtension>
            <ns3:atemp>24.0</ns3:atemp>
          </ns3:TrackPointExtension>
        </extensions>
      </trkpt>
      <trkpt lat="42.48189833946526050567626953125" lon="20.1789110340178012847900390625">
        <ele>1899</ele>
        <time>2026-06-20T11:27:44.000Z</time>
        <extensions>
          <ns3:TrackPointExtension>
            <ns3:atemp>24.0</ns3:atemp>
          </ns3:TrackPointExtension>
        </extensions>
      </trkpt>
      <trkpt lat="42.481879480183124542236328125" lon="20.17888982780277729034423828125">
        <ele>1898.800048828125</ele>
        <time>2026-06-20T11:27:45.000Z</time>
        <extensions>
          <ns3:TrackPointExtension>
            <ns3:atemp>24.0</ns3:atemp>
          </ns3:TrackPointExtension>
        </extensions>
      </trkpt>
      <trkpt lat="42.4818605370819568634033203125" lon="20.178869627416133880615234375">
        <ele>1898.800048828125</ele>
        <time>2026-06-20T11:27:46.000Z</time>
        <extensions>
          <ns3:TrackPointExtension>
            <ns3:atemp>24.0</ns3:atemp>
          </ns3:TrackPointExtension>
        </extensions>
      </trkpt>
      <trkpt lat="42.48183958232402801513671875" lon="20.17884892411530017852783203125">
        <ele>1899</ele>
        <time>2026-06-20T11:27:47.000Z</time>
        <extensions>
          <ns3:TrackPointExtension>
            <ns3:atemp>24.0</ns3:atemp>
          </ns3:TrackPointExtension>
        </extensions>
      </trkpt>
      <trkpt lat="42.48181879520416259765625" lon="20.17882771790027618408203125">
        <ele>1899</ele>
        <time>2026-06-20T11:27:48.000Z</time>
        <extensions>
          <ns3:TrackPointExtension>
            <ns3:atemp>24.0</ns3:atemp>
          </ns3:TrackPointExtension>
        </extensions>
      </trkpt>
      <trkpt lat="42.481794990599155426025390625" lon="20.178813636302947998046875">
        <ele>1899</ele>
        <time>2026-06-20T11:27:49.000Z</time>
        <extensions>
          <ns3:TrackPointExtension>
            <ns3:atemp>24.0</ns3:atemp>
          </ns3:TrackPointExtension>
        </extensions>
      </trkpt>
      <trkpt lat="42.4817693419754505157470703125" lon="20.1788047514855861663818359375">
        <ele>1899.199951171875</ele>
        <time>2026-06-20T11:27:50.000Z</time>
        <extensions>
          <ns3:TrackPointExtension>
            <ns3:atemp>24.0</ns3:atemp>
          </ns3:TrackPointExtension>
        </extensions>
      </trkpt>
      <trkpt lat="42.48174360953271389007568359375" lon="20.17880047671496868133544921875">
        <ele>1899.4000244140625</ele>
        <time>2026-06-20T11:27:51.000Z</time>
        <extensions>
          <ns3:TrackPointExtension>
            <ns3:atemp>24.0</ns3:atemp>
          </ns3:TrackPointExtension>
        </extensions>
      </trkpt>
      <trkpt lat="42.48172097839415073394775390625" lon="20.178791172802448272705078125">
        <ele>1899.5999755859375</ele>
        <time>2026-06-20T11:27:52.000Z</time>
        <extensions>
          <ns3:TrackPointExtension>
            <ns3:atemp>24.0</ns3:atemp>
          </ns3:TrackPointExtension>
        </extensions>
      </trkpt>
      <trkpt lat="42.481697760522365570068359375" lon="20.1787849701941013336181640625">
        <ele>1900</ele>
        <time>2026-06-20T11:27:53.000Z</time>
        <extensions>
          <ns3:TrackPointExtension>
            <ns3:atemp>24.0</ns3:atemp>
          </ns3:TrackPointExtension>
        </extensions>
      </trkpt>
      <trkpt lat="42.481676638126373291015625" lon="20.17877851612865924835205078125">
        <ele>1900.199951171875</ele>
        <time>2026-06-20T11:27:54.000Z</time>
        <extensions>
          <ns3:TrackPointExtension>
            <ns3:atemp>24.0</ns3:atemp>
          </ns3:TrackPointExtension>
        </extensions>
      </trkpt>
      <trkpt lat="42.48165459372103214263916015625" lon="20.1787685416638851165771484375">
        <ele>1900.5999755859375</ele>
        <time>2026-06-20T11:27:55.000Z</time>
        <extensions>
          <ns3:TrackPointExtension>
            <ns3:atemp>24.0</ns3:atemp>
          </ns3:TrackPointExtension>
        </extensions>
      </trkpt>
      <trkpt lat="42.481628023087978363037109375" lon="20.1787591539323329925537109375">
        <ele>1900.5999755859375</ele>
        <time>2026-06-20T11:27:56.000Z</time>
        <extensions>
          <ns3:TrackPointExtension>
            <ns3:atemp>24.0</ns3:atemp>
          </ns3:TrackPointExtension>
        </extensions>
      </trkpt>
      <trkpt lat="42.48160220682621002197265625" lon="20.17874993383884429931640625">
        <ele>1900.5999755859375</ele>
        <time>2026-06-20T11:27:57.000Z</time>
        <extensions>
          <ns3:TrackPointExtension>
            <ns3:atemp>24.0</ns3:atemp>
          </ns3:TrackPointExtension>
        </extensions>
      </trkpt>
      <trkpt lat="42.4815778993070125579833984375" lon="20.1787454076111316680908203125">
        <ele>1900.800048828125</ele>
        <time>2026-06-20T11:27:58.000Z</time>
        <extensions>
          <ns3:TrackPointExtension>
            <ns3:atemp>24.0</ns3:atemp>
          </ns3:TrackPointExtension>
        </extensions>
      </trkpt>
      <trkpt lat="42.4815530888736248016357421875" lon="20.1787430606782436370849609375">
        <ele>1900.800048828125</ele>
        <time>2026-06-20T11:27:59.000Z</time>
        <extensions>
          <ns3:TrackPointExtension>
            <ns3:atemp>24.0</ns3:atemp>
          </ns3:TrackPointExtension>
        </extensions>
      </trkpt>
      <trkpt lat="42.4815255962312221527099609375" lon="20.1787400431931018829345703125">
        <ele>1901</ele>
        <time>2026-06-20T11:28:00.000Z</time>
        <extensions>
          <ns3:TrackPointExtension>
            <ns3:atemp>24.0</ns3:atemp>
          </ns3:TrackPointExtension>
        </extensions>
      </trkpt>
      <trkpt lat="42.48149869032204151153564453125" lon="20.1787319965660572052001953125">
        <ele>1901</ele>
        <time>2026-06-20T11:28:01.000Z</time>
        <extensions>
          <ns3:TrackPointExtension>
            <ns3:atemp>24.0</ns3:atemp>
          </ns3:TrackPointExtension>
        </extensions>
      </trkpt>
      <trkpt lat="42.4814709462225437164306640625" lon="20.17872135154902935028076171875">
        <ele>1901.199951171875</ele>
        <time>2026-06-20T11:28:02.000Z</time>
        <extensions>
          <ns3:TrackPointExtension>
            <ns3:atemp>24.0</ns3:atemp>
          </ns3:TrackPointExtension>
        </extensions>
      </trkpt>
      <trkpt lat="42.481443621218204498291015625" lon="20.17871104180812835693359375">
        <ele>1901.199951171875</ele>
        <time>2026-06-20T11:28:03.000Z</time>
        <extensions>
          <ns3:TrackPointExtension>
            <ns3:atemp>24.0</ns3:atemp>
          </ns3:TrackPointExtension>
        </extensions>
      </trkpt>
      <trkpt lat="42.48141470365226268768310546875" lon="20.17869587056338787078857421875">
        <ele>1901.199951171875</ele>
        <time>2026-06-20T11:28:04.000Z</time>
        <extensions>
          <ns3:TrackPointExtension>
            <ns3:atemp>24.0</ns3:atemp>
          </ns3:TrackPointExtension>
        </extensions>
      </trkpt>
      <trkpt lat="42.48138922266662120819091796875" lon="20.1786753349006175994873046875">
        <ele>1901.199951171875</ele>
        <time>2026-06-20T11:28:05.000Z</time>
        <extensions>
          <ns3:TrackPointExtension>
            <ns3:atemp>24.0</ns3:atemp>
          </ns3:TrackPointExtension>
        </extensions>
      </trkpt>
      <trkpt lat="42.48137027956545352935791015625" lon="20.17865027301013469696044921875">
        <ele>1901.199951171875</ele>
        <time>2026-06-20T11:28:06.000Z</time>
        <extensions>
          <ns3:TrackPointExtension>
            <ns3:atemp>24.0</ns3:atemp>
          </ns3:TrackPointExtension>
        </extensions>
      </trkpt>
      <trkpt lat="42.48135318048298358917236328125" lon="20.17862361855804920196533203125">
        <ele>1901</ele>
        <time>2026-06-20T11:28:07.000Z</time>
        <extensions>
          <ns3:TrackPointExtension>
            <ns3:atemp>24.0</ns3:atemp>
          </ns3:TrackPointExtension>
        </extensions>
      </trkpt>
      <trkpt lat="42.481337003409862518310546875" lon="20.17859981395304203033447265625">
        <ele>1901</ele>
        <time>2026-06-20T11:28:08.000Z</time>
        <extensions>
          <ns3:TrackPointExtension>
            <ns3:atemp>24.0</ns3:atemp>
          </ns3:TrackPointExtension>
        </extensions>
      </trkpt>
      <trkpt lat="42.48132191598415374755859375" lon="20.1785777695477008819580078125">
        <ele>1901</ele>
        <time>2026-06-20T11:28:09.000Z</time>
        <extensions>
          <ns3:TrackPointExtension>
            <ns3:atemp>24.0</ns3:atemp>
          </ns3:TrackPointExtension>
        </extensions>
      </trkpt>
      <trkpt lat="42.48131261207163333892822265625" lon="20.1785536296665668487548828125">
        <ele>1901</ele>
        <time>2026-06-20T11:28:10.000Z</time>
        <extensions>
          <ns3:TrackPointExtension>
            <ns3:atemp>24.0</ns3:atemp>
          </ns3:TrackPointExtension>
        </extensions>
      </trkpt>
      <trkpt lat="42.481304816901683807373046875" lon="20.178524963557720184326171875">
        <ele>1901.199951171875</ele>
        <time>2026-06-20T11:28:11.000Z</time>
        <extensions>
          <ns3:TrackPointExtension>
            <ns3:atemp>24.0</ns3:atemp>
          </ns3:TrackPointExtension>
        </extensions>
      </trkpt>
      <trkpt lat="42.48129752464592456817626953125" lon="20.1784979738295078277587890625">
        <ele>1901.199951171875</ele>
        <time>2026-06-20T11:28:12.000Z</time>
        <extensions>
          <ns3:TrackPointExtension>
            <ns3:atemp>24.0</ns3:atemp>
          </ns3:TrackPointExtension>
        </extensions>
      </trkpt>
      <trkpt lat="42.4812996201217174530029296875" lon="20.17847274430096149444580078125">
        <ele>1901.4000244140625</ele>
        <time>2026-06-20T11:28:13.000Z</time>
        <extensions>
          <ns3:TrackPointExtension>
            <ns3:atemp>24.0</ns3:atemp>
          </ns3:TrackPointExtension>
        </extensions>
      </trkpt>
      <trkpt lat="42.48130640946328639984130859375" lon="20.1784413121640682220458984375">
        <ele>1901.5999755859375</ele>
        <time>2026-06-20T11:28:14.000Z</time>
        <extensions>
          <ns3:TrackPointExtension>
            <ns3:atemp>24.0</ns3:atemp>
          </ns3:TrackPointExtension>
        </extensions>
      </trkpt>
      <trkpt lat="42.4813158810138702392578125" lon="20.17841197550296783447265625">
        <ele>1901.5999755859375</ele>
        <time>2026-06-20T11:28:15.000Z</time>
        <extensions>
          <ns3:TrackPointExtension>
            <ns3:atemp>24.0</ns3:atemp>
          </ns3:TrackPointExtension>
        </extensions>
      </trkpt>
      <trkpt lat="42.4813214130699634552001953125" lon="20.1783819682896137237548828125">
        <ele>1901.800048828125</ele>
        <time>2026-06-20T11:28:16.000Z</time>
        <extensions>
          <ns3:TrackPointExtension>
            <ns3:atemp>24.0</ns3:atemp>
          </ns3:TrackPointExtension>
        </extensions>
      </trkpt>
      <trkpt lat="42.48132887296378612518310546875" lon="20.17835472710430622100830078125">
        <ele>1902</ele>
        <time>2026-06-20T11:28:17.000Z</time>
        <extensions>
          <ns3:TrackPointExtension>
            <ns3:atemp>24.0</ns3:atemp>
          </ns3:TrackPointExtension>
        </extensions>
      </trkpt>
      <trkpt lat="42.48133691959083080291748046875" lon="20.17831667326390743255615234375">
        <ele>1902.199951171875</ele>
        <time>2026-06-20T11:28:18.000Z</time>
        <extensions>
          <ns3:TrackPointExtension>
            <ns3:atemp>24.0</ns3:atemp>
          </ns3:TrackPointExtension>
        </extensions>
      </trkpt>
      <trkpt lat="42.4813495762646198272705078125" lon="20.178275518119335174560546875">
        <ele>1902.4000244140625</ele>
        <time>2026-06-20T11:28:19.000Z</time>
        <extensions>
          <ns3:TrackPointExtension>
            <ns3:atemp>24.0</ns3:atemp>
          </ns3:TrackPointExtension>
        </extensions>
      </trkpt>
      <trkpt lat="42.4813587963581085205078125" lon="20.1782448403537273406982421875">
        <ele>1902.5999755859375</ele>
        <time>2026-06-20T11:28:20.000Z</time>
        <extensions>
          <ns3:TrackPointExtension>
            <ns3:atemp>24.0</ns3:atemp>
          </ns3:TrackPointExtension>
        </extensions>
      </trkpt>
      <trkpt lat="42.481362484395503997802734375" lon="20.1782200299203395843505859375">
        <ele>1903</ele>
        <time>2026-06-20T11:28:21.000Z</time>
        <extensions>
          <ns3:TrackPointExtension>
            <ns3:atemp>24.0</ns3:atemp>
          </ns3:TrackPointExtension>
        </extensions>
      </trkpt>
      <trkpt lat="42.4813619814813137054443359375" lon="20.178193710744380950927734375">
        <ele>1903.199951171875</ele>
        <time>2026-06-20T11:28:22.000Z</time>
        <extensions>
          <ns3:TrackPointExtension>
            <ns3:atemp>24.0</ns3:atemp>
          </ns3:TrackPointExtension>
        </extensions>
      </trkpt>
      <trkpt lat="42.4813643284142017364501953125" lon="20.17817770130932331085205078125">
        <ele>1903.4000244140625</ele>
        <time>2026-06-20T11:28:23.000Z</time>
        <extensions>
          <ns3:TrackPointExtension>
            <ns3:atemp>24.0</ns3:atemp>
          </ns3:TrackPointExtension>
        </extensions>
      </trkpt>
      <trkpt lat="42.48136927373707294464111328125" lon="20.17817887477576732635498046875">
        <ele>1903.800048828125</ele>
        <time>2026-06-20T11:28:24.000Z</time>
        <extensions>
          <ns3:TrackPointExtension>
            <ns3:atemp>24.0</ns3:atemp>
          </ns3:TrackPointExtension>
        </extensions>
      </trkpt>
      <trkpt lat="42.48136323876678943634033203125" lon="20.178174935281276702880859375">
        <ele>1904.199951171875</ele>
        <time>2026-06-20T11:28:25.000Z</time>
        <extensions>
          <ns3:TrackPointExtension>
            <ns3:atemp>24.0</ns3:atemp>
          </ns3:TrackPointExtension>
        </extensions>
      </trkpt>
      <trkpt lat="42.4813641607761383056640625" lon="20.1781714148819446563720703125">
        <ele>1904.5999755859375</ele>
        <time>2026-06-20T11:28:26.000Z</time>
        <extensions>
          <ns3:TrackPointExtension>
            <ns3:atemp>24.0</ns3:atemp>
          </ns3:TrackPointExtension>
        </extensions>
      </trkpt>
      <trkpt lat="42.4813641607761383056640625" lon="20.1781714148819446563720703125">
        <ele>1905</ele>
        <time>2026-06-20T11:28:27.000Z</time>
        <extensions>
          <ns3:TrackPointExtension>
            <ns3:atemp>24.0</ns3:atemp>
          </ns3:TrackPointExtension>
        </extensions>
      </trkpt>
      <trkpt lat="42.4813641607761383056640625" lon="20.1781714148819446563720703125">
        <ele>1905.199951171875</ele>
        <time>2026-06-20T11:28:28.000Z</time>
        <extensions>
          <ns3:TrackPointExtension>
            <ns3:atemp>24.0</ns3:atemp>
          </ns3:TrackPointExtension>
        </extensions>
      </trkpt>
      <trkpt lat="42.4813641607761383056640625" lon="20.1781714148819446563720703125">
        <ele>1905.4000244140625</ele>
        <time>2026-06-20T11:28:29.000Z</time>
        <extensions>
          <ns3:TrackPointExtension>
            <ns3:atemp>24.0</ns3:atemp>
          </ns3:TrackPointExtension>
        </extensions>
      </trkpt>
      <trkpt lat="42.4813641607761383056640625" lon="20.1781714148819446563720703125">
        <ele>1905.4000244140625</ele>
        <time>2026-06-20T11:28:30.000Z</time>
        <extensions>
          <ns3:TrackPointExtension>
            <ns3:atemp>24.0</ns3:atemp>
          </ns3:TrackPointExtension>
        </extensions>
      </trkpt>
      <trkpt lat="42.4813641607761383056640625" lon="20.1781714148819446563720703125">
        <ele>1905.5999755859375</ele>
        <time>2026-06-20T11:28:31.000Z</time>
        <extensions>
          <ns3:TrackPointExtension>
            <ns3:atemp>24.0</ns3:atemp>
          </ns3:TrackPointExtension>
        </extensions>
      </trkpt>
      <trkpt lat="42.4813641607761383056640625" lon="20.1781714148819446563720703125">
        <ele>1905.5999755859375</ele>
        <time>2026-06-20T11:28:32.000Z</time>
        <extensions>
          <ns3:TrackPointExtension>
            <ns3:atemp>24.0</ns3:atemp>
          </ns3:TrackPointExtension>
        </extensions>
      </trkpt>
      <trkpt lat="42.4813641607761383056640625" lon="20.1781714148819446563720703125">
        <ele>1905.5999755859375</ele>
        <time>2026-06-20T11:28:33.000Z</time>
        <extensions>
          <ns3:TrackPointExtension>
            <ns3:atemp>24.0</ns3:atemp>
          </ns3:TrackPointExtension>
        </extensions>
      </trkpt>
      <trkpt lat="42.4813641607761383056640625" lon="20.1781714148819446563720703125">
        <ele>1905.5999755859375</ele>
        <time>2026-06-20T11:28:34.000Z</time>
        <extensions>
          <ns3:TrackPointExtension>
            <ns3:atemp>24.0</ns3:atemp>
          </ns3:TrackPointExtension>
        </extensions>
      </trkpt>
      <trkpt lat="42.4813641607761383056640625" lon="20.1781714148819446563720703125">
        <ele>1905.5999755859375</ele>
        <time>2026-06-20T11:28:35.000Z</time>
        <extensions>
          <ns3:TrackPointExtension>
            <ns3:atemp>24.0</ns3:atemp>
          </ns3:TrackPointExtension>
        </extensions>
      </trkpt>
      <trkpt lat="42.4813641607761383056640625" lon="20.1781714148819446563720703125">
        <ele>1905.5999755859375</ele>
        <time>2026-06-20T11:28:36.000Z</time>
        <extensions>
          <ns3:TrackPointExtension>
            <ns3:atemp>24.0</ns3:atemp>
          </ns3:TrackPointExtension>
        </extensions>
      </trkpt>
      <trkpt lat="42.4813641607761383056640625" lon="20.1781714148819446563720703125">
        <ele>1905.4000244140625</ele>
        <time>2026-06-20T11:28:37.000Z</time>
        <extensions>
          <ns3:TrackPointExtension>
            <ns3:atemp>24.0</ns3:atemp>
          </ns3:TrackPointExtension>
        </extensions>
      </trkpt>
      <trkpt lat="42.4813641607761383056640625" lon="20.1781714148819446563720703125">
        <ele>1905.4000244140625</ele>
        <time>2026-06-20T11:28:38.000Z</time>
        <extensions>
          <ns3:TrackPointExtension>
            <ns3:atemp>24.0</ns3:atemp>
          </ns3:TrackPointExtension>
        </extensions>
      </trkpt>
      <trkpt lat="42.4813641607761383056640625" lon="20.1781714148819446563720703125">
        <ele>1905.199951171875</ele>
        <time>2026-06-20T11:28:39.000Z</time>
        <extensions>
          <ns3:TrackPointExtension>
            <ns3:atemp>24.0</ns3:atemp>
          </ns3:TrackPointExtension>
        </extensions>
      </trkpt>
      <trkpt lat="42.4813641607761383056640625" lon="20.1781714148819446563720703125">
        <ele>1905</ele>
        <time>2026-06-20T11:28:40.000Z</time>
        <extensions>
          <ns3:TrackPointExtension>
            <ns3:atemp>24.0</ns3:atemp>
          </ns3:TrackPointExtension>
        </extensions>
      </trkpt>
      <trkpt lat="42.4813641607761383056640625" lon="20.1781714148819446563720703125">
        <ele>1905</ele>
        <time>2026-06-20T11:28:41.000Z</time>
        <extensions>
          <ns3:TrackPointExtension>
            <ns3:atemp>24.0</ns3:atemp>
          </ns3:TrackPointExtension>
        </extensions>
      </trkpt>
      <trkpt lat="42.4813641607761383056640625" lon="20.1781714148819446563720703125">
        <ele>1904.800048828125</ele>
        <time>2026-06-20T11:28:42.000Z</time>
        <extensions>
          <ns3:TrackPointExtension>
            <ns3:atemp>24.0</ns3:atemp>
          </ns3:TrackPointExtension>
        </extensions>
      </trkpt>
      <trkpt lat="42.4813641607761383056640625" lon="20.1781714148819446563720703125">
        <ele>1904.800048828125</ele>
        <time>2026-06-20T11:28:43.000Z</time>
        <extensions>
          <ns3:TrackPointExtension>
            <ns3:atemp>24.0</ns3:atemp>
          </ns3:TrackPointExtension>
        </extensions>
      </trkpt>
      <trkpt lat="42.4813641607761383056640625" lon="20.1781714148819446563720703125">
        <ele>1904.800048828125</ele>
        <time>2026-06-20T11:28:44.000Z</time>
        <extensions>
          <ns3:TrackPointExtension>
            <ns3:atemp>24.0</ns3:atemp>
          </ns3:TrackPointExtension>
        </extensions>
      </trkpt>
      <trkpt lat="42.4813641607761383056640625" lon="20.1781714148819446563720703125">
        <ele>1904.800048828125</ele>
        <time>2026-06-20T11:28:45.000Z</time>
        <extensions>
          <ns3:TrackPointExtension>
            <ns3:atemp>24.0</ns3:atemp>
          </ns3:TrackPointExtension>
        </extensions>
      </trkpt>
      <trkpt lat="42.4813641607761383056640625" lon="20.1781714148819446563720703125">
        <ele>1904.800048828125</ele>
        <time>2026-06-20T11:28:46.000Z</time>
        <extensions>
          <ns3:TrackPointExtension>
            <ns3:atemp>24.0</ns3:atemp>
          </ns3:TrackPointExtension>
        </extensions>
      </trkpt>
      <trkpt lat="42.4813641607761383056640625" lon="20.1781714148819446563720703125">
        <ele>1904.800048828125</ele>
        <time>2026-06-20T11:28:47.000Z</time>
        <extensions>
          <ns3:TrackPointExtension>
            <ns3:atemp>24.0</ns3:atemp>
          </ns3:TrackPointExtension>
        </extensions>
      </trkpt>
      <trkpt lat="42.4813641607761383056640625" lon="20.1781714148819446563720703125">
        <ele>1904.5999755859375</ele>
        <time>2026-06-20T11:28:48.000Z</time>
        <extensions>
          <ns3:TrackPointExtension>
            <ns3:atemp>24.0</ns3:atemp>
          </ns3:TrackPointExtension>
        </extensions>
      </trkpt>
      <trkpt lat="42.4813641607761383056640625" lon="20.1781714148819446563720703125">
        <ele>1904.5999755859375</ele>
        <time>2026-06-20T11:28:49.000Z</time>
        <extensions>
          <ns3:TrackPointExtension>
            <ns3:atemp>24.0</ns3:atemp>
          </ns3:TrackPointExtension>
        </extensions>
      </trkpt>
      <trkpt lat="42.4813641607761383056640625" lon="20.1781714148819446563720703125">
        <ele>1904.5999755859375</ele>
        <time>2026-06-20T11:28:50.000Z</time>
        <extensions>
          <ns3:TrackPointExtension>
            <ns3:atemp>24.0</ns3:atemp>
          </ns3:TrackPointExtension>
        </extensions>
      </trkpt>
      <trkpt lat="42.4813641607761383056640625" lon="20.1781714148819446563720703125">
        <ele>1904.4000244140625</ele>
        <time>2026-06-20T11:28:51.000Z</time>
        <extensions>
          <ns3:TrackPointExtension>
            <ns3:atemp>24.0</ns3:atemp>
          </ns3:TrackPointExtension>
        </extensions>
      </trkpt>
      <trkpt lat="42.4813641607761383056640625" lon="20.1781714148819446563720703125">
        <ele>1904.5999755859375</ele>
        <time>2026-06-20T11:28:52.000Z</time>
        <extensions>
          <ns3:TrackPointExtension>
            <ns3:atemp>24.0</ns3:atemp>
          </ns3:TrackPointExtension>
        </extensions>
      </trkpt>
      <trkpt lat="42.4813641607761383056640625" lon="20.1781714148819446563720703125">
        <ele>1904.5999755859375</ele>
        <time>2026-06-20T11:28:53.000Z</time>
        <extensions>
          <ns3:TrackPointExtension>
            <ns3:atemp>24.0</ns3:atemp>
          </ns3:TrackPointExtension>
        </extensions>
      </trkpt>
      <trkpt lat="42.4813641607761383056640625" lon="20.1781714148819446563720703125">
        <ele>1904.5999755859375</ele>
        <time>2026-06-20T11:28:54.000Z</time>
        <extensions>
          <ns3:TrackPointExtension>
            <ns3:atemp>24.0</ns3:atemp>
          </ns3:TrackPointExtension>
        </extensions>
      </trkpt>
      <trkpt lat="42.4813641607761383056640625" lon="20.1781714148819446563720703125">
        <ele>1904.800048828125</ele>
        <time>2026-06-20T11:28:55.000Z</time>
        <extensions>
          <ns3:TrackPointExtension>
            <ns3:atemp>24.0</ns3:atemp>
          </ns3:TrackPointExtension>
        </extensions>
      </trkpt>
      <trkpt lat="42.4813641607761383056640625" lon="20.1781714148819446563720703125">
        <ele>1904.800048828125</ele>
        <time>2026-06-20T11:28:56.000Z</time>
        <extensions>
          <ns3:TrackPointExtension>
            <ns3:atemp>24.0</ns3:atemp>
          </ns3:TrackPointExtension>
        </extensions>
      </trkpt>
      <trkpt lat="42.4813641607761383056640625" lon="20.1781714148819446563720703125">
        <ele>1904.800048828125</ele>
        <time>2026-06-20T11:28:57.000Z</time>
        <extensions>
          <ns3:TrackPointExtension>
            <ns3:atemp>24.0</ns3:atemp>
          </ns3:TrackPointExtension>
        </extensions>
      </trkpt>
      <trkpt lat="42.4813641607761383056640625" lon="20.1781714148819446563720703125">
        <ele>1904.800048828125</ele>
        <time>2026-06-20T11:28:58.000Z</time>
        <extensions>
          <ns3:TrackPointExtension>
            <ns3:atemp>24.0</ns3:atemp>
          </ns3:TrackPointExtension>
        </extensions>
      </trkpt>
      <trkpt lat="42.4813641607761383056640625" lon="20.1781714148819446563720703125">
        <ele>1904.800048828125</ele>
        <time>2026-06-20T11:28:59.000Z</time>
        <extensions>
          <ns3:TrackPointExtension>
            <ns3:atemp>24.0</ns3:atemp>
          </ns3:TrackPointExtension>
        </extensions>
      </trkpt>
      <trkpt lat="42.4813641607761383056640625" lon="20.1781714148819446563720703125">
        <ele>1904.800048828125</ele>
        <time>2026-06-20T11:29:00.000Z</time>
        <extensions>
          <ns3:TrackPointExtension>
            <ns3:atemp>24.0</ns3:atemp>
          </ns3:TrackPointExtension>
        </extensions>
      </trkpt>
      <trkpt lat="42.4813641607761383056640625" lon="20.1781714148819446563720703125">
        <ele>1904.800048828125</ele>
        <time>2026-06-20T11:29:01.000Z</time>
        <extensions>
          <ns3:TrackPointExtension>
            <ns3:atemp>24.0</ns3:atemp>
          </ns3:TrackPointExtension>
        </extensions>
      </trkpt>
      <trkpt lat="42.4813641607761383056640625" lon="20.1781714148819446563720703125">
        <ele>1904.800048828125</ele>
        <time>2026-06-20T11:29:02.000Z</time>
        <extensions>
          <ns3:TrackPointExtension>
            <ns3:atemp>24.0</ns3:atemp>
          </ns3:TrackPointExtension>
        </extensions>
      </trkpt>
      <trkpt lat="42.4813641607761383056640625" lon="20.1781714148819446563720703125">
        <ele>1904.5999755859375</ele>
        <time>2026-06-20T11:29:03.000Z</time>
        <extensions>
          <ns3:TrackPointExtension>
            <ns3:atemp>24.0</ns3:atemp>
          </ns3:TrackPointExtension>
        </extensions>
      </trkpt>
      <trkpt lat="42.4813641607761383056640625" lon="20.1781714148819446563720703125">
        <ele>1904.5999755859375</ele>
        <time>2026-06-20T11:29:04.000Z</time>
        <extensions>
          <ns3:TrackPointExtension>
            <ns3:atemp>24.0</ns3:atemp>
          </ns3:TrackPointExtension>
        </extensions>
      </trkpt>
      <trkpt lat="42.4813641607761383056640625" lon="20.1781714148819446563720703125">
        <ele>1904.4000244140625</ele>
        <time>2026-06-20T11:29:05.000Z</time>
        <extensions>
          <ns3:TrackPointExtension>
            <ns3:atemp>24.0</ns3:atemp>
          </ns3:TrackPointExtension>
        </extensions>
      </trkpt>
      <trkpt lat="42.4813641607761383056640625" lon="20.1781714148819446563720703125">
        <ele>1904.199951171875</ele>
        <time>2026-06-20T11:29:06.000Z</time>
        <extensions>
          <ns3:TrackPointExtension>
            <ns3:atemp>24.0</ns3:atemp>
          </ns3:TrackPointExtension>
        </extensions>
      </trkpt>
      <trkpt lat="42.4813641607761383056640625" lon="20.1781714148819446563720703125">
        <ele>1904.199951171875</ele>
        <time>2026-06-20T11:29:07.000Z</time>
        <extensions>
          <ns3:TrackPointExtension>
            <ns3:atemp>24.0</ns3:atemp>
          </ns3:TrackPointExtension>
        </extensions>
      </trkpt>
      <trkpt lat="42.4813641607761383056640625" lon="20.1781714148819446563720703125">
        <ele>1904.199951171875</ele>
        <time>2026-06-20T11:29:08.000Z</time>
        <extensions>
          <ns3:TrackPointExtension>
            <ns3:atemp>24.0</ns3:atemp>
          </ns3:TrackPointExtension>
        </extensions>
      </trkpt>
      <trkpt lat="42.4813641607761383056640625" lon="20.1781714148819446563720703125">
        <ele>1904.199951171875</ele>
        <time>2026-06-20T11:29:09.000Z</time>
        <extensions>
          <ns3:TrackPointExtension>
            <ns3:atemp>24.0</ns3:atemp>
          </ns3:TrackPointExtension>
        </extensions>
      </trkpt>
      <trkpt lat="42.4813641607761383056640625" lon="20.1781714148819446563720703125">
        <ele>1904</ele>
        <time>2026-06-20T11:29:10.000Z</time>
        <extensions>
          <ns3:TrackPointExtension>
            <ns3:atemp>24.0</ns3:atemp>
          </ns3:TrackPointExtension>
        </extensions>
      </trkpt>
      <trkpt lat="42.4813641607761383056640625" lon="20.1781714148819446563720703125">
        <ele>1904</ele>
        <time>2026-06-20T11:29:11.000Z</time>
        <extensions>
          <ns3:TrackPointExtension>
            <ns3:atemp>24.0</ns3:atemp>
          </ns3:TrackPointExtension>
        </extensions>
      </trkpt>
      <trkpt lat="42.4813641607761383056640625" lon="20.1781714148819446563720703125">
        <ele>1904</ele>
        <time>2026-06-20T11:29:12.000Z</time>
        <extensions>
          <ns3:TrackPointExtension>
            <ns3:atemp>24.0</ns3:atemp>
          </ns3:TrackPointExtension>
        </extensions>
      </trkpt>
      <trkpt lat="42.4813641607761383056640625" lon="20.1781714148819446563720703125">
        <ele>1904</ele>
        <time>2026-06-20T11:29:13.000Z</time>
        <extensions>
          <ns3:TrackPointExtension>
            <ns3:atemp>24.0</ns3:atemp>
          </ns3:TrackPointExtension>
        </extensions>
      </trkpt>
      <trkpt lat="42.4813641607761383056640625" lon="20.1781714148819446563720703125">
        <ele>1904</ele>
        <time>2026-06-20T11:29:14.000Z</time>
        <extensions>
          <ns3:TrackPointExtension>
            <ns3:atemp>24.0</ns3:atemp>
          </ns3:TrackPointExtension>
        </extensions>
      </trkpt>
      <trkpt lat="42.4813641607761383056640625" lon="20.1781714148819446563720703125">
        <ele>1904</ele>
        <time>2026-06-20T11:29:15.000Z</time>
        <extensions>
          <ns3:TrackPointExtension>
            <ns3:atemp>24.0</ns3:atemp>
          </ns3:TrackPointExtension>
        </extensions>
      </trkpt>
      <trkpt lat="42.4813641607761383056640625" lon="20.1781714148819446563720703125">
        <ele>1904.199951171875</ele>
        <time>2026-06-20T11:29:16.000Z</time>
        <extensions>
          <ns3:TrackPointExtension>
            <ns3:atemp>24.0</ns3:atemp>
          </ns3:TrackPointExtension>
        </extensions>
      </trkpt>
      <trkpt lat="42.4813641607761383056640625" lon="20.1781714148819446563720703125">
        <ele>1904.199951171875</ele>
        <time>2026-06-20T11:29:17.000Z</time>
        <extensions>
          <ns3:TrackPointExtension>
            <ns3:atemp>24.0</ns3:atemp>
          </ns3:TrackPointExtension>
        </extensions>
      </trkpt>
      <trkpt lat="42.4813641607761383056640625" lon="20.1781714148819446563720703125">
        <ele>1904.199951171875</ele>
        <time>2026-06-20T11:29:18.000Z</time>
        <extensions>
          <ns3:TrackPointExtension>
            <ns3:atemp>24.0</ns3:atemp>
          </ns3:TrackPointExtension>
        </extensions>
      </trkpt>
      <trkpt lat="42.4813641607761383056640625" lon="20.1781714148819446563720703125">
        <ele>1904</ele>
        <time>2026-06-20T11:29:19.000Z</time>
        <extensions>
          <ns3:TrackPointExtension>
            <ns3:atemp>24.0</ns3:atemp>
          </ns3:TrackPointExtension>
        </extensions>
      </trkpt>
      <trkpt lat="42.4813641607761383056640625" lon="20.1781714148819446563720703125">
        <ele>1904</ele>
        <time>2026-06-20T11:29:20.000Z</time>
        <extensions>
          <ns3:TrackPointExtension>
            <ns3:atemp>24.0</ns3:atemp>
          </ns3:TrackPointExtension>
        </extensions>
      </trkpt>
      <trkpt lat="42.4813641607761383056640625" lon="20.1781714148819446563720703125">
        <ele>1904</ele>
        <time>2026-06-20T11:29:21.000Z</time>
        <extensions>
          <ns3:TrackPointExtension>
            <ns3:atemp>24.0</ns3:atemp>
          </ns3:TrackPointExtension>
        </extensions>
      </trkpt>
      <trkpt lat="42.4813641607761383056640625" lon="20.1781714148819446563720703125">
        <ele>1904</ele>
        <time>2026-06-20T11:29:22.000Z</time>
        <extensions>
          <ns3:TrackPointExtension>
            <ns3:atemp>24.0</ns3:atemp>
          </ns3:TrackPointExtension>
        </extensions>
      </trkpt>
      <trkpt lat="42.4813641607761383056640625" lon="20.1781714148819446563720703125">
        <ele>1904</ele>
        <time>2026-06-20T11:29:23.000Z</time>
        <extensions>
          <ns3:TrackPointExtension>
            <ns3:atemp>24.0</ns3:atemp>
          </ns3:TrackPointExtension>
        </extensions>
      </trkpt>
      <trkpt lat="42.4813641607761383056640625" lon="20.1781714148819446563720703125">
        <ele>1903.800048828125</ele>
        <time>2026-06-20T11:29:24.000Z</time>
        <extensions>
          <ns3:TrackPointExtension>
            <ns3:atemp>24.0</ns3:atemp>
          </ns3:TrackPointExtension>
        </extensions>
      </trkpt>
      <trkpt lat="42.4813641607761383056640625" lon="20.1781714148819446563720703125">
        <ele>1903.800048828125</ele>
        <time>2026-06-20T11:29:25.000Z</time>
        <extensions>
          <ns3:TrackPointExtension>
            <ns3:atemp>24.0</ns3:atemp>
          </ns3:TrackPointExtension>
        </extensions>
      </trkpt>
      <trkpt lat="42.4813641607761383056640625" lon="20.1781714148819446563720703125">
        <ele>1903.800048828125</ele>
        <time>2026-06-20T11:29:26.000Z</time>
        <extensions>
          <ns3:TrackPointExtension>
            <ns3:atemp>24.0</ns3:atemp>
          </ns3:TrackPointExtension>
        </extensions>
      </trkpt>
      <trkpt lat="42.4813641607761383056640625" lon="20.1781714148819446563720703125">
        <ele>1903.800048828125</ele>
        <time>2026-06-20T11:29:27.000Z</time>
        <extensions>
          <ns3:TrackPointExtension>
            <ns3:atemp>24.0</ns3:atemp>
          </ns3:TrackPointExtension>
        </extensions>
      </trkpt>
      <trkpt lat="42.4813641607761383056640625" lon="20.1781714148819446563720703125">
        <ele>1903.800048828125</ele>
        <time>2026-06-20T11:29:28.000Z</time>
        <extensions>
          <ns3:TrackPointExtension>
            <ns3:atemp>24.0</ns3:atemp>
          </ns3:TrackPointExtension>
        </extensions>
      </trkpt>
      <trkpt lat="42.4813641607761383056640625" lon="20.1781714148819446563720703125">
        <ele>1903.800048828125</ele>
        <time>2026-06-20T11:29:29.000Z</time>
        <extensions>
          <ns3:TrackPointExtension>
            <ns3:atemp>24.0</ns3:atemp>
          </ns3:TrackPointExtension>
        </extensions>
      </trkpt>
      <trkpt lat="42.4813641607761383056640625" lon="20.1781714148819446563720703125">
        <ele>1904</ele>
        <time>2026-06-20T11:29:30.000Z</time>
        <extensions>
          <ns3:TrackPointExtension>
            <ns3:atemp>24.0</ns3:atemp>
          </ns3:TrackPointExtension>
        </extensions>
      </trkpt>
      <trkpt lat="42.4813641607761383056640625" lon="20.1781714148819446563720703125">
        <ele>1904</ele>
        <time>2026-06-20T11:29:31.000Z</time>
        <extensions>
          <ns3:TrackPointExtension>
            <ns3:atemp>24.0</ns3:atemp>
          </ns3:TrackPointExtension>
        </extensions>
      </trkpt>
      <trkpt lat="42.4813641607761383056640625" lon="20.1781714148819446563720703125">
        <ele>1904</ele>
        <time>2026-06-20T11:29:32.000Z</time>
        <extensions>
          <ns3:TrackPointExtension>
            <ns3:atemp>24.0</ns3:atemp>
          </ns3:TrackPointExtension>
        </extensions>
      </trkpt>
      <trkpt lat="42.4813641607761383056640625" lon="20.1781714148819446563720703125">
        <ele>1904</ele>
        <time>2026-06-20T11:29:33.000Z</time>
        <extensions>
          <ns3:TrackPointExtension>
            <ns3:atemp>24.0</ns3:atemp>
          </ns3:TrackPointExtension>
        </extensions>
      </trkpt>
      <trkpt lat="42.4813641607761383056640625" lon="20.1781714148819446563720703125">
        <ele>1903.800048828125</ele>
        <time>2026-06-20T11:29:34.000Z</time>
        <extensions>
          <ns3:TrackPointExtension>
            <ns3:atemp>24.0</ns3:atemp>
          </ns3:TrackPointExtension>
        </extensions>
      </trkpt>
      <trkpt lat="42.4813641607761383056640625" lon="20.1781714148819446563720703125">
        <ele>1903.800048828125</ele>
        <time>2026-06-20T11:29:35.000Z</time>
        <extensions>
          <ns3:TrackPointExtension>
            <ns3:atemp>24.0</ns3:atemp>
          </ns3:TrackPointExtension>
        </extensions>
      </trkpt>
      <trkpt lat="42.4813641607761383056640625" lon="20.1781714148819446563720703125">
        <ele>1903.800048828125</ele>
        <time>2026-06-20T11:29:36.000Z</time>
        <extensions>
          <ns3:TrackPointExtension>
            <ns3:atemp>24.0</ns3:atemp>
          </ns3:TrackPointExtension>
        </extensions>
      </trkpt>
      <trkpt lat="42.4813641607761383056640625" lon="20.1781714148819446563720703125">
        <ele>1903.5999755859375</ele>
        <time>2026-06-20T11:29:37.000Z</time>
        <extensions>
          <ns3:TrackPointExtension>
            <ns3:atemp>24.0</ns3:atemp>
          </ns3:TrackPointExtension>
        </extensions>
      </trkpt>
      <trkpt lat="42.4813641607761383056640625" lon="20.1781714148819446563720703125">
        <ele>1903.5999755859375</ele>
        <time>2026-06-20T11:29:38.000Z</time>
        <extensions>
          <ns3:TrackPointExtension>
            <ns3:atemp>24.0</ns3:atemp>
          </ns3:TrackPointExtension>
        </extensions>
      </trkpt>
      <trkpt lat="42.4813641607761383056640625" lon="20.1781714148819446563720703125">
        <ele>1903.4000244140625</ele>
        <time>2026-06-20T11:29:39.000Z</time>
        <extensions>
          <ns3:TrackPointExtension>
            <ns3:atemp>24.0</ns3:atemp>
          </ns3:TrackPointExtension>
        </extensions>
      </trkpt>
      <trkpt lat="42.4813641607761383056640625" lon="20.1781714148819446563720703125">
        <ele>1903.4000244140625</ele>
        <time>2026-06-20T11:29:40.000Z</time>
        <extensions>
          <ns3:TrackPointExtension>
            <ns3:atemp>24.0</ns3:atemp>
          </ns3:TrackPointExtension>
        </extensions>
      </trkpt>
      <trkpt lat="42.4813641607761383056640625" lon="20.1781714148819446563720703125">
        <ele>1903.199951171875</ele>
        <time>2026-06-20T11:29:41.000Z</time>
        <extensions>
          <ns3:TrackPointExtension>
            <ns3:atemp>24.0</ns3:atemp>
          </ns3:TrackPointExtension>
        </extensions>
      </trkpt>
      <trkpt lat="42.4813641607761383056640625" lon="20.1781714148819446563720703125">
        <ele>1903.199951171875</ele>
        <time>2026-06-20T11:29:42.000Z</time>
        <extensions>
          <ns3:TrackPointExtension>
            <ns3:atemp>24.0</ns3:atemp>
          </ns3:TrackPointExtension>
        </extensions>
      </trkpt>
      <trkpt lat="42.4813641607761383056640625" lon="20.1781714148819446563720703125">
        <ele>1903.199951171875</ele>
        <time>2026-06-20T11:29:43.000Z</time>
        <extensions>
          <ns3:TrackPointExtension>
            <ns3:atemp>24.0</ns3:atemp>
          </ns3:TrackPointExtension>
        </extensions>
      </trkpt>
      <trkpt lat="42.4813641607761383056640625" lon="20.1781714148819446563720703125">
        <ele>1903.199951171875</ele>
        <time>2026-06-20T11:29:44.000Z</time>
        <extensions>
          <ns3:TrackPointExtension>
            <ns3:atemp>24.0</ns3:atemp>
          </ns3:TrackPointExtension>
        </extensions>
      </trkpt>
      <trkpt lat="42.4813641607761383056640625" lon="20.1781714148819446563720703125">
        <ele>1903</ele>
        <time>2026-06-20T11:29:45.000Z</time>
        <extensions>
          <ns3:TrackPointExtension>
            <ns3:atemp>24.0</ns3:atemp>
          </ns3:TrackPointExtension>
        </extensions>
      </trkpt>
      <trkpt lat="42.4813641607761383056640625" lon="20.1781714148819446563720703125">
        <ele>1903</ele>
        <time>2026-06-20T11:29:46.000Z</time>
        <extensions>
          <ns3:TrackPointExtension>
            <ns3:atemp>24.0</ns3:atemp>
          </ns3:TrackPointExtension>
        </extensions>
      </trkpt>
      <trkpt lat="42.4813641607761383056640625" lon="20.1781714148819446563720703125">
        <ele>1903</ele>
        <time>2026-06-20T11:29:47.000Z</time>
        <extensions>
          <ns3:TrackPointExtension>
            <ns3:atemp>24.0</ns3:atemp>
          </ns3:TrackPointExtension>
        </extensions>
      </trkpt>
      <trkpt lat="42.4813641607761383056640625" lon="20.1781714148819446563720703125">
        <ele>1903</ele>
        <time>2026-06-20T11:29:48.000Z</time>
        <extensions>
          <ns3:TrackPointExtension>
            <ns3:atemp>24.0</ns3:atemp>
          </ns3:TrackPointExtension>
        </extensions>
      </trkpt>
      <trkpt lat="42.4813641607761383056640625" lon="20.1781714148819446563720703125">
        <ele>1903</ele>
        <time>2026-06-20T11:29:49.000Z</time>
        <extensions>
          <ns3:TrackPointExtension>
            <ns3:atemp>24.0</ns3:atemp>
          </ns3:TrackPointExtension>
        </extensions>
      </trkpt>
      <trkpt lat="42.4813641607761383056640625" lon="20.1781714148819446563720703125">
        <ele>1903</ele>
        <time>2026-06-20T11:29:50.000Z</time>
        <extensions>
          <ns3:TrackPointExtension>
            <ns3:atemp>24.0</ns3:atemp>
          </ns3:TrackPointExtension>
        </extensions>
      </trkpt>
      <trkpt lat="42.4813641607761383056640625" lon="20.1781714148819446563720703125">
        <ele>1903</ele>
        <time>2026-06-20T11:29:51.000Z</time>
        <extensions>
          <ns3:TrackPointExtension>
            <ns3:atemp>24.0</ns3:atemp>
          </ns3:TrackPointExtension>
        </extensions>
      </trkpt>
      <trkpt lat="42.4813641607761383056640625" lon="20.1781714148819446563720703125">
        <ele>1903</ele>
        <time>2026-06-20T11:29:52.000Z</time>
        <extensions>
          <ns3:TrackPointExtension>
            <ns3:atemp>24.0</ns3:atemp>
          </ns3:TrackPointExtension>
        </extensions>
      </trkpt>
      <trkpt lat="42.4813641607761383056640625" lon="20.1781714148819446563720703125">
        <ele>1903</ele>
        <time>2026-06-20T11:29:53.000Z</time>
        <extensions>
          <ns3:TrackPointExtension>
            <ns3:atemp>24.0</ns3:atemp>
          </ns3:TrackPointExtension>
        </extensions>
      </trkpt>
      <trkpt lat="42.4813641607761383056640625" lon="20.1781714148819446563720703125">
        <ele>1903</ele>
        <time>2026-06-20T11:29:54.000Z</time>
        <extensions>
          <ns3:TrackPointExtension>
            <ns3:atemp>24.0</ns3:atemp>
          </ns3:TrackPointExtension>
        </extensions>
      </trkpt>
      <trkpt lat="42.4813641607761383056640625" lon="20.1781714148819446563720703125">
        <ele>1903</ele>
        <time>2026-06-20T11:29:55.000Z</time>
        <extensions>
          <ns3:TrackPointExtension>
            <ns3:atemp>24.0</ns3:atemp>
          </ns3:TrackPointExtension>
        </extensions>
      </trkpt>
      <trkpt lat="42.4813641607761383056640625" lon="20.1781714148819446563720703125">
        <ele>1902.800048828125</ele>
        <time>2026-06-20T11:29:56.000Z</time>
        <extensions>
          <ns3:TrackPointExtension>
            <ns3:atemp>24.0</ns3:atemp>
          </ns3:TrackPointExtension>
        </extensions>
      </trkpt>
      <trkpt lat="42.4813641607761383056640625" lon="20.1781714148819446563720703125">
        <ele>1902.800048828125</ele>
        <time>2026-06-20T11:29:57.000Z</time>
        <extensions>
          <ns3:TrackPointExtension>
            <ns3:atemp>24.0</ns3:atemp>
          </ns3:TrackPointExtension>
        </extensions>
      </trkpt>
      <trkpt lat="42.4813641607761383056640625" lon="20.1781714148819446563720703125">
        <ele>1902.800048828125</ele>
        <time>2026-06-20T11:29:58.000Z</time>
        <extensions>
          <ns3:TrackPointExtension>
            <ns3:atemp>24.0</ns3:atemp>
          </ns3:TrackPointExtension>
        </extensions>
      </trkpt>
      <trkpt lat="42.4813641607761383056640625" lon="20.1781714148819446563720703125">
        <ele>1902.800048828125</ele>
        <time>2026-06-20T11:29:59.000Z</time>
        <extensions>
          <ns3:TrackPointExtension>
            <ns3:atemp>24.0</ns3:atemp>
          </ns3:TrackPointExtension>
        </extensions>
      </trkpt>
      <trkpt lat="42.4813641607761383056640625" lon="20.1781714148819446563720703125">
        <ele>1902.5999755859375</ele>
        <time>2026-06-20T11:30:00.000Z</time>
        <extensions>
          <ns3:TrackPointExtension>
            <ns3:atemp>24.0</ns3:atemp>
          </ns3:TrackPointExtension>
        </extensions>
      </trkpt>
      <trkpt lat="42.4813641607761383056640625" lon="20.1781714148819446563720703125">
        <ele>1902.5999755859375</ele>
        <time>2026-06-20T11:30:01.000Z</time>
        <extensions>
          <ns3:TrackPointExtension>
            <ns3:atemp>24.0</ns3:atemp>
          </ns3:TrackPointExtension>
        </extensions>
      </trkpt>
      <trkpt lat="42.4813641607761383056640625" lon="20.1781714148819446563720703125">
        <ele>1902.5999755859375</ele>
        <time>2026-06-20T11:30:02.000Z</time>
        <extensions>
          <ns3:TrackPointExtension>
            <ns3:atemp>24.0</ns3:atemp>
          </ns3:TrackPointExtension>
        </extensions>
      </trkpt>
      <trkpt lat="42.4813641607761383056640625" lon="20.1781714148819446563720703125">
        <ele>1902.5999755859375</ele>
        <time>2026-06-20T11:30:03.000Z</time>
        <extensions>
          <ns3:TrackPointExtension>
            <ns3:atemp>24.0</ns3:atemp>
          </ns3:TrackPointExtension>
        </extensions>
      </trkpt>
      <trkpt lat="42.4813641607761383056640625" lon="20.1781714148819446563720703125">
        <ele>1902.5999755859375</ele>
        <time>2026-06-20T11:30:04.000Z</time>
        <extensions>
          <ns3:TrackPointExtension>
            <ns3:atemp>24.0</ns3:atemp>
          </ns3:TrackPointExtension>
        </extensions>
      </trkpt>
      <trkpt lat="42.4813641607761383056640625" lon="20.1781714148819446563720703125">
        <ele>1902.5999755859375</ele>
        <time>2026-06-20T11:30:05.000Z</time>
        <extensions>
          <ns3:TrackPointExtension>
            <ns3:atemp>24.0</ns3:atemp>
          </ns3:TrackPointExtension>
        </extensions>
      </trkpt>
      <trkpt lat="42.4813641607761383056640625" lon="20.1781714148819446563720703125">
        <ele>1902.5999755859375</ele>
        <time>2026-06-20T11:30:06.000Z</time>
        <extensions>
          <ns3:TrackPointExtension>
            <ns3:atemp>24.0</ns3:atemp>
          </ns3:TrackPointExtension>
        </extensions>
      </trkpt>
      <trkpt lat="42.4813641607761383056640625" lon="20.1781714148819446563720703125">
        <ele>1902.5999755859375</ele>
        <time>2026-06-20T11:30:07.000Z</time>
        <extensions>
          <ns3:TrackPointExtension>
            <ns3:atemp>24.0</ns3:atemp>
          </ns3:TrackPointExtension>
        </extensions>
      </trkpt>
      <trkpt lat="42.4813641607761383056640625" lon="20.1781714148819446563720703125">
        <ele>1902.5999755859375</ele>
        <time>2026-06-20T11:30:08.000Z</time>
        <extensions>
          <ns3:TrackPointExtension>
            <ns3:atemp>24.0</ns3:atemp>
          </ns3:TrackPointExtension>
        </extensions>
      </trkpt>
      <trkpt lat="42.4813641607761383056640625" lon="20.1781714148819446563720703125">
        <ele>1902.4000244140625</ele>
        <time>2026-06-20T11:30:09.000Z</time>
        <extensions>
          <ns3:TrackPointExtension>
            <ns3:atemp>24.0</ns3:atemp>
          </ns3:TrackPointExtension>
        </extensions>
      </trkpt>
      <trkpt lat="42.4813641607761383056640625" lon="20.1781714148819446563720703125">
        <ele>1902.4000244140625</ele>
        <time>2026-06-20T11:30:10.000Z</time>
        <extensions>
          <ns3:TrackPointExtension>
            <ns3:atemp>24.0</ns3:atemp>
          </ns3:TrackPointExtension>
        </extensions>
      </trkpt>
      <trkpt lat="42.4813641607761383056640625" lon="20.1781714148819446563720703125">
        <ele>1902.4000244140625</ele>
        <time>2026-06-20T11:30:11.000Z</time>
        <extensions>
          <ns3:TrackPointExtension>
            <ns3:atemp>24.0</ns3:atemp>
          </ns3:TrackPointExtension>
        </extensions>
      </trkpt>
      <trkpt lat="42.4813641607761383056640625" lon="20.1781714148819446563720703125">
        <ele>1902.199951171875</ele>
        <time>2026-06-20T11:30:12.000Z</time>
        <extensions>
          <ns3:TrackPointExtension>
            <ns3:atemp>24.0</ns3:atemp>
          </ns3:TrackPointExtension>
        </extensions>
      </trkpt>
      <trkpt lat="42.4813641607761383056640625" lon="20.1781714148819446563720703125">
        <ele>1902.199951171875</ele>
        <time>2026-06-20T11:30:13.000Z</time>
        <extensions>
          <ns3:TrackPointExtension>
            <ns3:atemp>24.0</ns3:atemp>
          </ns3:TrackPointExtension>
        </extensions>
      </trkpt>
      <trkpt lat="42.4813641607761383056640625" lon="20.1781714148819446563720703125">
        <ele>1902.199951171875</ele>
        <time>2026-06-20T11:30:14.000Z</time>
        <extensions>
          <ns3:TrackPointExtension>
            <ns3:atemp>24.0</ns3:atemp>
          </ns3:TrackPointExtension>
        </extensions>
      </trkpt>
      <trkpt lat="42.4813641607761383056640625" lon="20.1781714148819446563720703125">
        <ele>1902</ele>
        <time>2026-06-20T11:30:15.000Z</time>
        <extensions>
          <ns3:TrackPointExtension>
            <ns3:atemp>24.0</ns3:atemp>
          </ns3:TrackPointExtension>
        </extensions>
      </trkpt>
      <trkpt lat="42.4813641607761383056640625" lon="20.1781714148819446563720703125">
        <ele>1902</ele>
        <time>2026-06-20T11:30:16.000Z</time>
        <extensions>
          <ns3:TrackPointExtension>
            <ns3:atemp>24.0</ns3:atemp>
          </ns3:TrackPointExtension>
        </extensions>
      </trkpt>
      <trkpt lat="42.4813641607761383056640625" lon="20.1781714148819446563720703125">
        <ele>1902</ele>
        <time>2026-06-20T11:30:17.000Z</time>
        <extensions>
          <ns3:TrackPointExtension>
            <ns3:atemp>24.0</ns3:atemp>
          </ns3:TrackPointExtension>
        </extensions>
      </trkpt>
      <trkpt lat="42.4813641607761383056640625" lon="20.1781714148819446563720703125">
        <ele>1902</ele>
        <time>2026-06-20T11:30:18.000Z</time>
        <extensions>
          <ns3:TrackPointExtension>
            <ns3:atemp>24.0</ns3:atemp>
          </ns3:TrackPointExtension>
        </extensions>
      </trkpt>
      <trkpt lat="42.4813641607761383056640625" lon="20.1781714148819446563720703125">
        <ele>1902</ele>
        <time>2026-06-20T11:30:19.000Z</time>
        <extensions>
          <ns3:TrackPointExtension>
            <ns3:atemp>24.0</ns3:atemp>
          </ns3:TrackPointExtension>
        </extensions>
      </trkpt>
      <trkpt lat="42.4813641607761383056640625" lon="20.1781714148819446563720703125">
        <ele>1901.800048828125</ele>
        <time>2026-06-20T11:30:20.000Z</time>
        <extensions>
          <ns3:TrackPointExtension>
            <ns3:atemp>24.0</ns3:atemp>
          </ns3:TrackPointExtension>
        </extensions>
      </trkpt>
      <trkpt lat="42.4813641607761383056640625" lon="20.1781714148819446563720703125">
        <ele>1901.800048828125</ele>
        <time>2026-06-20T11:30:21.000Z</time>
        <extensions>
          <ns3:TrackPointExtension>
            <ns3:atemp>24.0</ns3:atemp>
          </ns3:TrackPointExtension>
        </extensions>
      </trkpt>
      <trkpt lat="42.4813641607761383056640625" lon="20.1781714148819446563720703125">
        <ele>1901.800048828125</ele>
        <time>2026-06-20T11:30:22.000Z</time>
        <extensions>
          <ns3:TrackPointExtension>
            <ns3:atemp>24.0</ns3:atemp>
          </ns3:TrackPointExtension>
        </extensions>
      </trkpt>
      <trkpt lat="42.4813641607761383056640625" lon="20.1781714148819446563720703125">
        <ele>1901.5999755859375</ele>
        <time>2026-06-20T11:30:23.000Z</time>
        <extensions>
          <ns3:TrackPointExtension>
            <ns3:atemp>24.0</ns3:atemp>
          </ns3:TrackPointExtension>
        </extensions>
      </trkpt>
      <trkpt lat="42.4813641607761383056640625" lon="20.1781714148819446563720703125">
        <ele>1901.5999755859375</ele>
        <time>2026-06-20T11:30:24.000Z</time>
        <extensions>
          <ns3:TrackPointExtension>
            <ns3:atemp>24.0</ns3:atemp>
          </ns3:TrackPointExtension>
        </extensions>
      </trkpt>
      <trkpt lat="42.4813641607761383056640625" lon="20.1781714148819446563720703125">
        <ele>1901.5999755859375</ele>
        <time>2026-06-20T11:30:25.000Z</time>
        <extensions>
          <ns3:TrackPointExtension>
            <ns3:atemp>24.0</ns3:atemp>
          </ns3:TrackPointExtension>
        </extensions>
      </trkpt>
      <trkpt lat="42.4813641607761383056640625" lon="20.1781714148819446563720703125">
        <ele>1901.800048828125</ele>
        <time>2026-06-20T11:30:26.000Z</time>
        <extensions>
          <ns3:TrackPointExtension>
            <ns3:atemp>24.0</ns3:atemp>
          </ns3:TrackPointExtension>
        </extensions>
      </trkpt>
      <trkpt lat="42.4813641607761383056640625" lon="20.1781714148819446563720703125">
        <ele>1901.800048828125</ele>
        <time>2026-06-20T11:30:27.000Z</time>
        <extensions>
          <ns3:TrackPointExtension>
            <ns3:atemp>24.0</ns3:atemp>
          </ns3:TrackPointExtension>
        </extensions>
      </trkpt>
      <trkpt lat="42.4813641607761383056640625" lon="20.1781714148819446563720703125">
        <ele>1901.800048828125</ele>
        <time>2026-06-20T11:30:28.000Z</time>
        <extensions>
          <ns3:TrackPointExtension>
            <ns3:atemp>24.0</ns3:atemp>
          </ns3:TrackPointExtension>
        </extensions>
      </trkpt>
      <trkpt lat="42.4813641607761383056640625" lon="20.1781714148819446563720703125">
        <ele>1901.800048828125</ele>
        <time>2026-06-20T11:30:29.000Z</time>
        <extensions>
          <ns3:TrackPointExtension>
            <ns3:atemp>24.0</ns3:atemp>
          </ns3:TrackPointExtension>
        </extensions>
      </trkpt>
      <trkpt lat="42.4813641607761383056640625" lon="20.1781714148819446563720703125">
        <ele>1901.800048828125</ele>
        <time>2026-06-20T11:30:30.000Z</time>
        <extensions>
          <ns3:TrackPointExtension>
            <ns3:atemp>24.0</ns3:atemp>
          </ns3:TrackPointExtension>
        </extensions>
      </trkpt>
      <trkpt lat="42.4813641607761383056640625" lon="20.1781714148819446563720703125">
        <ele>1901.800048828125</ele>
        <time>2026-06-20T11:30:31.000Z</time>
        <extensions>
          <ns3:TrackPointExtension>
            <ns3:atemp>24.0</ns3:atemp>
          </ns3:TrackPointExtension>
        </extensions>
      </trkpt>
      <trkpt lat="42.4813641607761383056640625" lon="20.1781714148819446563720703125">
        <ele>1901.800048828125</ele>
        <time>2026-06-20T11:30:32.000Z</time>
        <extensions>
          <ns3:TrackPointExtension>
            <ns3:atemp>24.0</ns3:atemp>
          </ns3:TrackPointExtension>
        </extensions>
      </trkpt>
      <trkpt lat="42.4813641607761383056640625" lon="20.1781714148819446563720703125">
        <ele>1901.800048828125</ele>
        <time>2026-06-20T11:30:33.000Z</time>
        <extensions>
          <ns3:TrackPointExtension>
            <ns3:atemp>24.0</ns3:atemp>
          </ns3:TrackPointExtension>
        </extensions>
      </trkpt>
      <trkpt lat="42.4813641607761383056640625" lon="20.1781714148819446563720703125">
        <ele>1901.800048828125</ele>
        <time>2026-06-20T11:30:34.000Z</time>
        <extensions>
          <ns3:TrackPointExtension>
            <ns3:atemp>24.0</ns3:atemp>
          </ns3:TrackPointExtension>
        </extensions>
      </trkpt>
      <trkpt lat="42.4813641607761383056640625" lon="20.1781714148819446563720703125">
        <ele>1901.800048828125</ele>
        <time>2026-06-20T11:30:35.000Z</time>
        <extensions>
          <ns3:TrackPointExtension>
            <ns3:atemp>24.0</ns3:atemp>
          </ns3:TrackPointExtension>
        </extensions>
      </trkpt>
      <trkpt lat="42.4813641607761383056640625" lon="20.1781714148819446563720703125">
        <ele>1901.800048828125</ele>
        <time>2026-06-20T11:30:36.000Z</time>
        <extensions>
          <ns3:TrackPointExtension>
            <ns3:atemp>24.0</ns3:atemp>
          </ns3:TrackPointExtension>
        </extensions>
      </trkpt>
      <trkpt lat="42.4813641607761383056640625" lon="20.1781714148819446563720703125">
        <ele>1901.800048828125</ele>
        <time>2026-06-20T11:30:37.000Z</time>
        <extensions>
          <ns3:TrackPointExtension>
            <ns3:atemp>24.0</ns3:atemp>
          </ns3:TrackPointExtension>
        </extensions>
      </trkpt>
      <trkpt lat="42.4813641607761383056640625" lon="20.1781714148819446563720703125">
        <ele>1901.800048828125</ele>
        <time>2026-06-20T11:30:38.000Z</time>
        <extensions>
          <ns3:TrackPointExtension>
            <ns3:atemp>24.0</ns3:atemp>
          </ns3:TrackPointExtension>
        </extensions>
      </trkpt>
      <trkpt lat="42.4813641607761383056640625" lon="20.1781714148819446563720703125">
        <ele>1901.800048828125</ele>
        <time>2026-06-20T11:30:39.000Z</time>
        <extensions>
          <ns3:TrackPointExtension>
            <ns3:atemp>24.0</ns3:atemp>
          </ns3:TrackPointExtension>
        </extensions>
      </trkpt>
      <trkpt lat="42.4813641607761383056640625" lon="20.1781714148819446563720703125">
        <ele>1901.800048828125</ele>
        <time>2026-06-20T11:30:40.000Z</time>
        <extensions>
          <ns3:TrackPointExtension>
            <ns3:atemp>24.0</ns3:atemp>
          </ns3:TrackPointExtension>
        </extensions>
      </trkpt>
      <trkpt lat="42.4813641607761383056640625" lon="20.1781714148819446563720703125">
        <ele>1901.800048828125</ele>
        <time>2026-06-20T11:30:41.000Z</time>
        <extensions>
          <ns3:TrackPointExtension>
            <ns3:atemp>24.0</ns3:atemp>
          </ns3:TrackPointExtension>
        </extensions>
      </trkpt>
      <trkpt lat="42.4813641607761383056640625" lon="20.1781714148819446563720703125">
        <ele>1901.800048828125</ele>
        <time>2026-06-20T11:30:42.000Z</time>
        <extensions>
          <ns3:TrackPointExtension>
            <ns3:atemp>24.0</ns3:atemp>
          </ns3:TrackPointExtension>
        </extensions>
      </trkpt>
      <trkpt lat="42.4813641607761383056640625" lon="20.1781714148819446563720703125">
        <ele>1902</ele>
        <time>2026-06-20T11:30:43.000Z</time>
        <extensions>
          <ns3:TrackPointExtension>
            <ns3:atemp>24.0</ns3:atemp>
          </ns3:TrackPointExtension>
        </extensions>
      </trkpt>
      <trkpt lat="42.4813641607761383056640625" lon="20.1781714148819446563720703125">
        <ele>1902</ele>
        <time>2026-06-20T11:30:44.000Z</time>
        <extensions>
          <ns3:TrackPointExtension>
            <ns3:atemp>24.0</ns3:atemp>
          </ns3:TrackPointExtension>
        </extensions>
      </trkpt>
      <trkpt lat="42.4813641607761383056640625" lon="20.1781714148819446563720703125">
        <ele>1902</ele>
        <time>2026-06-20T11:30:45.000Z</time>
        <extensions>
          <ns3:TrackPointExtension>
            <ns3:atemp>24.0</ns3:atemp>
          </ns3:TrackPointExtension>
        </extensions>
      </trkpt>
      <trkpt lat="42.4813641607761383056640625" lon="20.1781714148819446563720703125">
        <ele>1902.199951171875</ele>
        <time>2026-06-20T11:30:46.000Z</time>
        <extensions>
          <ns3:TrackPointExtension>
            <ns3:atemp>24.0</ns3:atemp>
          </ns3:TrackPointExtension>
        </extensions>
      </trkpt>
      <trkpt lat="42.4813641607761383056640625" lon="20.1781714148819446563720703125">
        <ele>1902.199951171875</ele>
        <time>2026-06-20T11:30:47.000Z</time>
        <extensions>
          <ns3:TrackPointExtension>
            <ns3:atemp>24.0</ns3:atemp>
          </ns3:TrackPointExtension>
        </extensions>
      </trkpt>
      <trkpt lat="42.4813641607761383056640625" lon="20.1781714148819446563720703125">
        <ele>1902</ele>
        <time>2026-06-20T11:30:48.000Z</time>
        <extensions>
          <ns3:TrackPointExtension>
            <ns3:atemp>24.0</ns3:atemp>
          </ns3:TrackPointExtension>
        </extensions>
      </trkpt>
      <trkpt lat="42.4813641607761383056640625" lon="20.1781714148819446563720703125">
        <ele>1902</ele>
        <time>2026-06-20T11:30:49.000Z</time>
        <extensions>
          <ns3:TrackPointExtension>
            <ns3:atemp>24.0</ns3:atemp>
          </ns3:TrackPointExtension>
        </extensions>
      </trkpt>
      <trkpt lat="42.4813641607761383056640625" lon="20.1781714148819446563720703125">
        <ele>1902</ele>
        <time>2026-06-20T11:30:50.000Z</time>
        <extensions>
          <ns3:TrackPointExtension>
            <ns3:atemp>24.0</ns3:atemp>
          </ns3:TrackPointExtension>
        </extensions>
      </trkpt>
      <trkpt lat="42.4813641607761383056640625" lon="20.1781714148819446563720703125">
        <ele>1902</ele>
        <time>2026-06-20T11:30:51.000Z</time>
        <extensions>
          <ns3:TrackPointExtension>
            <ns3:atemp>24.0</ns3:atemp>
          </ns3:TrackPointExtension>
        </extensions>
      </trkpt>
      <trkpt lat="42.4813641607761383056640625" lon="20.1781714148819446563720703125">
        <ele>1901.800048828125</ele>
        <time>2026-06-20T11:30:52.000Z</time>
        <extensions>
          <ns3:TrackPointExtension>
            <ns3:atemp>24.0</ns3:atemp>
          </ns3:TrackPointExtension>
        </extensions>
      </trkpt>
      <trkpt lat="42.4813641607761383056640625" lon="20.1781714148819446563720703125">
        <ele>1901.800048828125</ele>
        <time>2026-06-20T11:30:53.000Z</time>
        <extensions>
          <ns3:TrackPointExtension>
            <ns3:atemp>24.0</ns3:atemp>
          </ns3:TrackPointExtension>
        </extensions>
      </trkpt>
      <trkpt lat="42.4813641607761383056640625" lon="20.1781714148819446563720703125">
        <ele>1901.5999755859375</ele>
        <time>2026-06-20T11:30:54.000Z</time>
        <extensions>
          <ns3:TrackPointExtension>
            <ns3:atemp>24.0</ns3:atemp>
          </ns3:TrackPointExtension>
        </extensions>
      </trkpt>
      <trkpt lat="42.4813641607761383056640625" lon="20.1781714148819446563720703125">
        <ele>1901.5999755859375</ele>
        <time>2026-06-20T11:30:55.000Z</time>
        <extensions>
          <ns3:TrackPointExtension>
            <ns3:atemp>24.0</ns3:atemp>
          </ns3:TrackPointExtension>
        </extensions>
      </trkpt>
      <trkpt lat="42.4813641607761383056640625" lon="20.1781714148819446563720703125">
        <ele>1901.5999755859375</ele>
        <time>2026-06-20T11:30:56.000Z</time>
        <extensions>
          <ns3:TrackPointExtension>
            <ns3:atemp>24.0</ns3:atemp>
          </ns3:TrackPointExtension>
        </extensions>
      </trkpt>
      <trkpt lat="42.4813641607761383056640625" lon="20.1781714148819446563720703125">
        <ele>1901.800048828125</ele>
        <time>2026-06-20T11:30:57.000Z</time>
        <extensions>
          <ns3:TrackPointExtension>
            <ns3:atemp>24.0</ns3:atemp>
          </ns3:TrackPointExtension>
        </extensions>
      </trkpt>
      <trkpt lat="42.4813641607761383056640625" lon="20.1781714148819446563720703125">
        <ele>1901.800048828125</ele>
        <time>2026-06-20T11:30:58.000Z</time>
        <extensions>
          <ns3:TrackPointExtension>
            <ns3:atemp>24.0</ns3:atemp>
          </ns3:TrackPointExtension>
        </extensions>
      </trkpt>
      <trkpt lat="42.4813641607761383056640625" lon="20.1781714148819446563720703125">
        <ele>1901.800048828125</ele>
        <time>2026-06-20T11:30:59.000Z</time>
        <extensions>
          <ns3:TrackPointExtension>
            <ns3:atemp>24.0</ns3:atemp>
          </ns3:TrackPointExtension>
        </extensions>
      </trkpt>
      <trkpt lat="42.4813641607761383056640625" lon="20.1781714148819446563720703125">
        <ele>1901.800048828125</ele>
        <time>2026-06-20T11:31:00.000Z</time>
        <extensions>
          <ns3:TrackPointExtension>
            <ns3:atemp>24.0</ns3:atemp>
          </ns3:TrackPointExtension>
        </extensions>
      </trkpt>
      <trkpt lat="42.4813641607761383056640625" lon="20.1781714148819446563720703125">
        <ele>1901.800048828125</ele>
        <time>2026-06-20T11:31:01.000Z</time>
        <extensions>
          <ns3:TrackPointExtension>
            <ns3:atemp>24.0</ns3:atemp>
          </ns3:TrackPointExtension>
        </extensions>
      </trkpt>
      <trkpt lat="42.4813641607761383056640625" lon="20.1781714148819446563720703125">
        <ele>1901.800048828125</ele>
        <time>2026-06-20T11:31:02.000Z</time>
        <extensions>
          <ns3:TrackPointExtension>
            <ns3:atemp>24.0</ns3:atemp>
          </ns3:TrackPointExtension>
        </extensions>
      </trkpt>
      <trkpt lat="42.4813641607761383056640625" lon="20.1781714148819446563720703125">
        <ele>1901.800048828125</ele>
        <time>2026-06-20T11:31:03.000Z</time>
        <extensions>
          <ns3:TrackPointExtension>
            <ns3:atemp>24.0</ns3:atemp>
          </ns3:TrackPointExtension>
        </extensions>
      </trkpt>
      <trkpt lat="42.4813641607761383056640625" lon="20.1781714148819446563720703125">
        <ele>1901.800048828125</ele>
        <time>2026-06-20T11:31:04.000Z</time>
        <extensions>
          <ns3:TrackPointExtension>
            <ns3:atemp>24.0</ns3:atemp>
          </ns3:TrackPointExtension>
        </extensions>
      </trkpt>
      <trkpt lat="42.4813641607761383056640625" lon="20.1781714148819446563720703125">
        <ele>1902</ele>
        <time>2026-06-20T11:31:05.000Z</time>
        <extensions>
          <ns3:TrackPointExtension>
            <ns3:atemp>24.0</ns3:atemp>
          </ns3:TrackPointExtension>
        </extensions>
      </trkpt>
      <trkpt lat="42.4813641607761383056640625" lon="20.1781714148819446563720703125">
        <ele>1902</ele>
        <time>2026-06-20T11:31:06.000Z</time>
        <extensions>
          <ns3:TrackPointExtension>
            <ns3:atemp>24.0</ns3:atemp>
          </ns3:TrackPointExtension>
        </extensions>
      </trkpt>
      <trkpt lat="42.4813641607761383056640625" lon="20.1781714148819446563720703125">
        <ele>1902</ele>
        <time>2026-06-20T11:31:07.000Z</time>
        <extensions>
          <ns3:TrackPointExtension>
            <ns3:atemp>24.0</ns3:atemp>
          </ns3:TrackPointExtension>
        </extensions>
      </trkpt>
      <trkpt lat="42.4813641607761383056640625" lon="20.1781714148819446563720703125">
        <ele>1902</ele>
        <time>2026-06-20T11:31:08.000Z</time>
        <extensions>
          <ns3:TrackPointExtension>
            <ns3:atemp>24.0</ns3:atemp>
          </ns3:TrackPointExtension>
        </extensions>
      </trkpt>
      <trkpt lat="42.4813641607761383056640625" lon="20.1781714148819446563720703125">
        <ele>1902.199951171875</ele>
        <time>2026-06-20T11:31:09.000Z</time>
        <extensions>
          <ns3:TrackPointExtension>
            <ns3:atemp>24.0</ns3:atemp>
          </ns3:TrackPointExtension>
        </extensions>
      </trkpt>
      <trkpt lat="42.4813641607761383056640625" lon="20.1781714148819446563720703125">
        <ele>1902.199951171875</ele>
        <time>2026-06-20T11:31:10.000Z</time>
        <extensions>
          <ns3:TrackPointExtension>
            <ns3:atemp>24.0</ns3:atemp>
          </ns3:TrackPointExtension>
        </extensions>
      </trkpt>
      <trkpt lat="42.4813641607761383056640625" lon="20.1781714148819446563720703125">
        <ele>1902.199951171875</ele>
        <time>2026-06-20T11:31:11.000Z</time>
        <extensions>
          <ns3:TrackPointExtension>
            <ns3:atemp>24.0</ns3:atemp>
          </ns3:TrackPointExtension>
        </extensions>
      </trkpt>
      <trkpt lat="42.4813641607761383056640625" lon="20.1781714148819446563720703125">
        <ele>1902.199951171875</ele>
        <time>2026-06-20T11:31:12.000Z</time>
        <extensions>
          <ns3:TrackPointExtension>
            <ns3:atemp>24.0</ns3:atemp>
          </ns3:TrackPointExtension>
        </extensions>
      </trkpt>
      <trkpt lat="42.4813641607761383056640625" lon="20.1781714148819446563720703125">
        <ele>1902.199951171875</ele>
        <time>2026-06-20T11:31:13.000Z</time>
        <extensions>
          <ns3:TrackPointExtension>
            <ns3:atemp>24.0</ns3:atemp>
          </ns3:TrackPointExtension>
        </extensions>
      </trkpt>
      <trkpt lat="42.4813641607761383056640625" lon="20.1781714148819446563720703125">
        <ele>1902.199951171875</ele>
        <time>2026-06-20T11:31:14.000Z</time>
        <extensions>
          <ns3:TrackPointExtension>
            <ns3:atemp>24.0</ns3:atemp>
          </ns3:TrackPointExtension>
        </extensions>
      </trkpt>
      <trkpt lat="42.4813641607761383056640625" lon="20.1781714148819446563720703125">
        <ele>1902.199951171875</ele>
        <time>2026-06-20T11:31:15.000Z</time>
        <extensions>
          <ns3:TrackPointExtension>
            <ns3:atemp>24.0</ns3:atemp>
          </ns3:TrackPointExtension>
        </extensions>
      </trkpt>
      <trkpt lat="42.4813641607761383056640625" lon="20.1781714148819446563720703125">
        <ele>1902.199951171875</ele>
        <time>2026-06-20T11:31:16.000Z</time>
        <extensions>
          <ns3:TrackPointExtension>
            <ns3:atemp>24.0</ns3:atemp>
          </ns3:TrackPointExtension>
        </extensions>
      </trkpt>
      <trkpt lat="42.4813641607761383056640625" lon="20.1781714148819446563720703125">
        <ele>1902.199951171875</ele>
        <time>2026-06-20T11:31:17.000Z</time>
        <extensions>
          <ns3:TrackPointExtension>
            <ns3:atemp>24.0</ns3:atemp>
          </ns3:TrackPointExtension>
        </extensions>
      </trkpt>
      <trkpt lat="42.4813641607761383056640625" lon="20.1781714148819446563720703125">
        <ele>1902.199951171875</ele>
        <time>2026-06-20T11:31:18.000Z</time>
        <extensions>
          <ns3:TrackPointExtension>
            <ns3:atemp>24.0</ns3:atemp>
          </ns3:TrackPointExtension>
        </extensions>
      </trkpt>
      <trkpt lat="42.4813641607761383056640625" lon="20.1781714148819446563720703125">
        <ele>1902.199951171875</ele>
        <time>2026-06-20T11:31:19.000Z</time>
        <extensions>
          <ns3:TrackPointExtension>
            <ns3:atemp>24.0</ns3:atemp>
          </ns3:TrackPointExtension>
        </extensions>
      </trkpt>
      <trkpt lat="42.4813641607761383056640625" lon="20.1781714148819446563720703125">
        <ele>1902.199951171875</ele>
        <time>2026-06-20T11:31:20.000Z</time>
        <extensions>
          <ns3:TrackPointExtension>
            <ns3:atemp>24.0</ns3:atemp>
          </ns3:TrackPointExtension>
        </extensions>
      </trkpt>
      <trkpt lat="42.4813641607761383056640625" lon="20.1781714148819446563720703125">
        <ele>1902.199951171875</ele>
        <time>2026-06-20T11:31:21.000Z</time>
        <extensions>
          <ns3:TrackPointExtension>
            <ns3:atemp>24.0</ns3:atemp>
          </ns3:TrackPointExtension>
        </extensions>
      </trkpt>
      <trkpt lat="42.4813641607761383056640625" lon="20.1781714148819446563720703125">
        <ele>1902.199951171875</ele>
        <time>2026-06-20T11:31:22.000Z</time>
        <extensions>
          <ns3:TrackPointExtension>
            <ns3:atemp>24.0</ns3:atemp>
          </ns3:TrackPointExtension>
        </extensions>
      </trkpt>
      <trkpt lat="42.4813641607761383056640625" lon="20.1781714148819446563720703125">
        <ele>1902.199951171875</ele>
        <time>2026-06-20T11:31:23.000Z</time>
        <extensions>
          <ns3:TrackPointExtension>
            <ns3:atemp>24.0</ns3:atemp>
          </ns3:TrackPointExtension>
        </extensions>
      </trkpt>
      <trkpt lat="42.4813641607761383056640625" lon="20.1781714148819446563720703125">
        <ele>1902.199951171875</ele>
        <time>2026-06-20T11:31:24.000Z</time>
        <extensions>
          <ns3:TrackPointExtension>
            <ns3:atemp>24.0</ns3:atemp>
          </ns3:TrackPointExtension>
        </extensions>
      </trkpt>
      <trkpt lat="42.4813641607761383056640625" lon="20.1781714148819446563720703125">
        <ele>1902.199951171875</ele>
        <time>2026-06-20T11:31:25.000Z</time>
        <extensions>
          <ns3:TrackPointExtension>
            <ns3:atemp>24.0</ns3:atemp>
          </ns3:TrackPointExtension>
        </extensions>
      </trkpt>
      <trkpt lat="42.4813641607761383056640625" lon="20.1781714148819446563720703125">
        <ele>1902.199951171875</ele>
        <time>2026-06-20T11:31:26.000Z</time>
        <extensions>
          <ns3:TrackPointExtension>
            <ns3:atemp>24.0</ns3:atemp>
          </ns3:TrackPointExtension>
        </extensions>
      </trkpt>
      <trkpt lat="42.4813641607761383056640625" lon="20.1781714148819446563720703125">
        <ele>1902</ele>
        <time>2026-06-20T11:31:27.000Z</time>
        <extensions>
          <ns3:TrackPointExtension>
            <ns3:atemp>24.0</ns3:atemp>
          </ns3:TrackPointExtension>
        </extensions>
      </trkpt>
      <trkpt lat="42.4813641607761383056640625" lon="20.1781714148819446563720703125">
        <ele>1902</ele>
        <time>2026-06-20T11:31:28.000Z</time>
        <extensions>
          <ns3:TrackPointExtension>
            <ns3:atemp>24.0</ns3:atemp>
          </ns3:TrackPointExtension>
        </extensions>
      </trkpt>
      <trkpt lat="42.4813641607761383056640625" lon="20.1781714148819446563720703125">
        <ele>1902</ele>
        <time>2026-06-20T11:31:29.000Z</time>
        <extensions>
          <ns3:TrackPointExtension>
            <ns3:atemp>24.0</ns3:atemp>
          </ns3:TrackPointExtension>
        </extensions>
      </trkpt>
      <trkpt lat="42.4813641607761383056640625" lon="20.1781714148819446563720703125">
        <ele>1902</ele>
        <time>2026-06-20T11:31:30.000Z</time>
        <extensions>
          <ns3:TrackPointExtension>
            <ns3:atemp>24.0</ns3:atemp>
          </ns3:TrackPointExtension>
        </extensions>
      </trkpt>
      <trkpt lat="42.4813641607761383056640625" lon="20.1781714148819446563720703125">
        <ele>1902</ele>
        <time>2026-06-20T11:31:31.000Z</time>
        <extensions>
          <ns3:TrackPointExtension>
            <ns3:atemp>24.0</ns3:atemp>
          </ns3:TrackPointExtension>
        </extensions>
      </trkpt>
      <trkpt lat="42.4813641607761383056640625" lon="20.1781714148819446563720703125">
        <ele>1902</ele>
        <time>2026-06-20T11:31:32.000Z</time>
        <extensions>
          <ns3:TrackPointExtension>
            <ns3:atemp>24.0</ns3:atemp>
          </ns3:TrackPointExtension>
        </extensions>
      </trkpt>
      <trkpt lat="42.4813641607761383056640625" lon="20.1781714148819446563720703125">
        <ele>1902</ele>
        <time>2026-06-20T11:31:33.000Z</time>
        <extensions>
          <ns3:TrackPointExtension>
            <ns3:atemp>24.0</ns3:atemp>
          </ns3:TrackPointExtension>
        </extensions>
      </trkpt>
      <trkpt lat="42.4813641607761383056640625" lon="20.1781714148819446563720703125">
        <ele>1902</ele>
        <time>2026-06-20T11:31:34.000Z</time>
        <extensions>
          <ns3:TrackPointExtension>
            <ns3:atemp>24.0</ns3:atemp>
          </ns3:TrackPointExtension>
        </extensions>
      </trkpt>
      <trkpt lat="42.4813641607761383056640625" lon="20.1781714148819446563720703125">
        <ele>1902</ele>
        <time>2026-06-20T11:31:35.000Z</time>
        <extensions>
          <ns3:TrackPointExtension>
            <ns3:atemp>24.0</ns3:atemp>
          </ns3:TrackPointExtension>
        </extensions>
      </trkpt>
      <trkpt lat="42.4813641607761383056640625" lon="20.1781714148819446563720703125">
        <ele>1902</ele>
        <time>2026-06-20T11:31:36.000Z</time>
        <extensions>
          <ns3:TrackPointExtension>
            <ns3:atemp>24.0</ns3:atemp>
          </ns3:TrackPointExtension>
        </extensions>
      </trkpt>
      <trkpt lat="42.4813641607761383056640625" lon="20.1781714148819446563720703125">
        <ele>1902</ele>
        <time>2026-06-20T11:31:37.000Z</time>
        <extensions>
          <ns3:TrackPointExtension>
            <ns3:atemp>24.0</ns3:atemp>
          </ns3:TrackPointExtension>
        </extensions>
      </trkpt>
      <trkpt lat="42.4813641607761383056640625" lon="20.1781714148819446563720703125">
        <ele>1902</ele>
        <time>2026-06-20T11:31:38.000Z</time>
        <extensions>
          <ns3:TrackPointExtension>
            <ns3:atemp>24.0</ns3:atemp>
          </ns3:TrackPointExtension>
        </extensions>
      </trkpt>
      <trkpt lat="42.4813641607761383056640625" lon="20.1781714148819446563720703125">
        <ele>1902</ele>
        <time>2026-06-20T11:31:39.000Z</time>
        <extensions>
          <ns3:TrackPointExtension>
            <ns3:atemp>24.0</ns3:atemp>
          </ns3:TrackPointExtension>
        </extensions>
      </trkpt>
      <trkpt lat="42.4813641607761383056640625" lon="20.1781714148819446563720703125">
        <ele>1902</ele>
        <time>2026-06-20T11:31:40.000Z</time>
        <extensions>
          <ns3:TrackPointExtension>
            <ns3:atemp>24.0</ns3:atemp>
          </ns3:TrackPointExtension>
        </extensions>
      </trkpt>
      <trkpt lat="42.4813641607761383056640625" lon="20.1781714148819446563720703125">
        <ele>1902</ele>
        <time>2026-06-20T11:31:41.000Z</time>
        <extensions>
          <ns3:TrackPointExtension>
            <ns3:atemp>24.0</ns3:atemp>
          </ns3:TrackPointExtension>
        </extensions>
      </trkpt>
      <trkpt lat="42.4813641607761383056640625" lon="20.1781714148819446563720703125">
        <ele>1902</ele>
        <time>2026-06-20T11:31:42.000Z</time>
        <extensions>
          <ns3:TrackPointExtension>
            <ns3:atemp>24.0</ns3:atemp>
          </ns3:TrackPointExtension>
        </extensions>
      </trkpt>
      <trkpt lat="42.4813641607761383056640625" lon="20.1781714148819446563720703125">
        <ele>1902</ele>
        <time>2026-06-20T11:31:43.000Z</time>
        <extensions>
          <ns3:TrackPointExtension>
            <ns3:atemp>24.0</ns3:atemp>
          </ns3:TrackPointExtension>
        </extensions>
      </trkpt>
      <trkpt lat="42.4813641607761383056640625" lon="20.1781714148819446563720703125">
        <ele>1902</ele>
        <time>2026-06-20T11:31:44.000Z</time>
        <extensions>
          <ns3:TrackPointExtension>
            <ns3:atemp>24.0</ns3:atemp>
          </ns3:TrackPointExtension>
        </extensions>
      </trkpt>
      <trkpt lat="42.4813641607761383056640625" lon="20.1781714148819446563720703125">
        <ele>1902</ele>
        <time>2026-06-20T11:31:45.000Z</time>
        <extensions>
          <ns3:TrackPointExtension>
            <ns3:atemp>24.0</ns3:atemp>
          </ns3:TrackPointExtension>
        </extensions>
      </trkpt>
      <trkpt lat="42.4813641607761383056640625" lon="20.1781714148819446563720703125">
        <ele>1902</ele>
        <time>2026-06-20T11:31:46.000Z</time>
        <extensions>
          <ns3:TrackPointExtension>
            <ns3:atemp>24.0</ns3:atemp>
          </ns3:TrackPointExtension>
        </extensions>
      </trkpt>
      <trkpt lat="42.4813641607761383056640625" lon="20.1781714148819446563720703125">
        <ele>1902</ele>
        <time>2026-06-20T11:31:47.000Z</time>
        <extensions>
          <ns3:TrackPointExtension>
            <ns3:atemp>24.0</ns3:atemp>
          </ns3:TrackPointExtension>
        </extensions>
      </trkpt>
      <trkpt lat="42.4813641607761383056640625" lon="20.1781714148819446563720703125">
        <ele>1902</ele>
        <time>2026-06-20T11:31:48.000Z</time>
        <extensions>
          <ns3:TrackPointExtension>
            <ns3:atemp>24.0</ns3:atemp>
          </ns3:TrackPointExtension>
        </extensions>
      </trkpt>
      <trkpt lat="42.4813641607761383056640625" lon="20.1781714148819446563720703125">
        <ele>1902</ele>
        <time>2026-06-20T11:31:49.000Z</time>
        <extensions>
          <ns3:TrackPointExtension>
            <ns3:atemp>24.0</ns3:atemp>
          </ns3:TrackPointExtension>
        </extensions>
      </trkpt>
      <trkpt lat="42.4813641607761383056640625" lon="20.1781714148819446563720703125">
        <ele>1902</ele>
        <time>2026-06-20T11:31:50.000Z</time>
        <extensions>
          <ns3:TrackPointExtension>
            <ns3:atemp>24.0</ns3:atemp>
          </ns3:TrackPointExtension>
        </extensions>
      </trkpt>
      <trkpt lat="42.4813641607761383056640625" lon="20.1781714148819446563720703125">
        <ele>1902</ele>
        <time>2026-06-20T11:31:51.000Z</time>
        <extensions>
          <ns3:TrackPointExtension>
            <ns3:atemp>24.0</ns3:atemp>
          </ns3:TrackPointExtension>
        </extensions>
      </trkpt>
      <trkpt lat="42.4813641607761383056640625" lon="20.1781714148819446563720703125">
        <ele>1902</ele>
        <time>2026-06-20T11:31:52.000Z</time>
        <extensions>
          <ns3:TrackPointExtension>
            <ns3:atemp>24.0</ns3:atemp>
          </ns3:TrackPointExtension>
        </extensions>
      </trkpt>
      <trkpt lat="42.4813641607761383056640625" lon="20.1781714148819446563720703125">
        <ele>1902</ele>
        <time>2026-06-20T11:31:53.000Z</time>
        <extensions>
          <ns3:TrackPointExtension>
            <ns3:atemp>24.0</ns3:atemp>
          </ns3:TrackPointExtension>
        </extensions>
      </trkpt>
      <trkpt lat="42.4813641607761383056640625" lon="20.1781714148819446563720703125">
        <ele>1902</ele>
        <time>2026-06-20T11:31:54.000Z</time>
        <extensions>
          <ns3:TrackPointExtension>
            <ns3:atemp>24.0</ns3:atemp>
          </ns3:TrackPointExtension>
        </extensions>
      </trkpt>
      <trkpt lat="42.4813641607761383056640625" lon="20.1781714148819446563720703125">
        <ele>1902</ele>
        <time>2026-06-20T11:31:55.000Z</time>
        <extensions>
          <ns3:TrackPointExtension>
            <ns3:atemp>24.0</ns3:atemp>
          </ns3:TrackPointExtension>
        </extensions>
      </trkpt>
      <trkpt lat="42.48136223293840885162353515625" lon="20.17817149870097637176513671875">
        <ele>1902</ele>
        <time>2026-06-20T11:31:56.000Z</time>
        <extensions>
          <ns3:TrackPointExtension>
            <ns3:atemp>24.0</ns3:atemp>
          </ns3:TrackPointExtension>
        </extensions>
      </trkpt>
      <trkpt lat="42.4813626520335674285888671875" lon="20.1781797967851161956787109375">
        <ele>1902</ele>
        <time>2026-06-20T11:31:57.000Z</time>
        <extensions>
          <ns3:TrackPointExtension>
            <ns3:atemp>24.0</ns3:atemp>
          </ns3:TrackPointExtension>
        </extensions>
      </trkpt>
      <trkpt lat="42.4813606403768062591552734375" lon="20.17817971296608448028564453125">
        <ele>1902</ele>
        <time>2026-06-20T11:31:58.000Z</time>
        <extensions>
          <ns3:TrackPointExtension>
            <ns3:atemp>24.0</ns3:atemp>
          </ns3:TrackPointExtension>
        </extensions>
      </trkpt>
      <trkpt lat="42.4813534319400787353515625" lon="20.1781905256211757659912109375">
        <ele>1902</ele>
        <time>2026-06-20T11:31:59.000Z</time>
        <extensions>
          <ns3:TrackPointExtension>
            <ns3:atemp>24.0</ns3:atemp>
          </ns3:TrackPointExtension>
        </extensions>
      </trkpt>
      <trkpt lat="42.4813472293317317962646484375" lon="20.17819915898144245147705078125">
        <ele>1902</ele>
        <time>2026-06-20T11:32:00.000Z</time>
        <extensions>
          <ns3:TrackPointExtension>
            <ns3:atemp>24.0</ns3:atemp>
          </ns3:TrackPointExtension>
        </extensions>
      </trkpt>
      <trkpt lat="42.48134714551270008087158203125" lon="20.178199075162410736083984375">
        <ele>1902</ele>
        <time>2026-06-20T11:32:01.000Z</time>
        <extensions>
          <ns3:TrackPointExtension>
            <ns3:atemp>24.0</ns3:atemp>
          </ns3:TrackPointExtension>
        </extensions>
      </trkpt>
      <trkpt lat="42.4813472293317317962646484375" lon="20.17819915898144245147705078125">
        <ele>1900</ele>
        <time>2026-06-20T11:32:02.000Z</time>
        <extensions>
          <ns3:TrackPointExtension>
            <ns3:atemp>24.0</ns3:atemp>
          </ns3:TrackPointExtension>
        </extensions>
      </trkpt>
      <trkpt lat="42.48134731315076351165771484375" lon="20.17819932661950588226318359375">
        <ele>1899.800048828125</ele>
        <time>2026-06-20T11:32:03.000Z</time>
        <extensions>
          <ns3:TrackPointExtension>
            <ns3:atemp>24.0</ns3:atemp>
          </ns3:TrackPointExtension>
        </extensions>
      </trkpt>
      <trkpt lat="42.481348402798175811767578125" lon="20.178217180073261260986328125">
        <ele>1899.4000244140625</ele>
        <time>2026-06-20T11:32:04.000Z</time>
        <extensions>
          <ns3:TrackPointExtension>
            <ns3:atemp>24.0</ns3:atemp>
          </ns3:TrackPointExtension>
        </extensions>
      </trkpt>
      <trkpt lat="42.48134664259850978851318359375" lon="20.1782302558422088623046875">
        <ele>1899.199951171875</ele>
        <time>2026-06-20T11:32:05.000Z</time>
        <extensions>
          <ns3:TrackPointExtension>
            <ns3:atemp>24.0</ns3:atemp>
          </ns3:TrackPointExtension>
        </extensions>
      </trkpt>
      <trkpt lat="42.48134605586528778076171875" lon="20.178230591118335723876953125">
        <ele>1899</ele>
        <time>2026-06-20T11:32:06.000Z</time>
        <extensions>
          <ns3:TrackPointExtension>
            <ns3:atemp>24.0</ns3:atemp>
          </ns3:TrackPointExtension>
        </extensions>
      </trkpt>
      <trkpt lat="42.48134597204625606536865234375" lon="20.17823067493736743927001953125">
        <ele>1898.800048828125</ele>
        <time>2026-06-20T11:32:07.000Z</time>
        <extensions>
          <ns3:TrackPointExtension>
            <ns3:atemp>24.0</ns3:atemp>
          </ns3:TrackPointExtension>
        </extensions>
      </trkpt>
      <trkpt lat="42.48134597204625606536865234375" lon="20.17823067493736743927001953125">
        <ele>1898.800048828125</ele>
        <time>2026-06-20T11:32:08.000Z</time>
        <extensions>
          <ns3:TrackPointExtension>
            <ns3:atemp>24.0</ns3:atemp>
          </ns3:TrackPointExtension>
        </extensions>
      </trkpt>
      <trkpt lat="42.48134597204625606536865234375" lon="20.17823067493736743927001953125">
        <ele>1898.800048828125</ele>
        <time>2026-06-20T11:32:09.000Z</time>
        <extensions>
          <ns3:TrackPointExtension>
            <ns3:atemp>24.0</ns3:atemp>
          </ns3:TrackPointExtension>
        </extensions>
      </trkpt>
      <trkpt lat="42.48134597204625606536865234375" lon="20.17823067493736743927001953125">
        <ele>1898.800048828125</ele>
        <time>2026-06-20T11:32:10.000Z</time>
        <extensions>
          <ns3:TrackPointExtension>
            <ns3:atemp>24.0</ns3:atemp>
          </ns3:TrackPointExtension>
        </extensions>
      </trkpt>
      <trkpt lat="42.48134597204625606536865234375" lon="20.17823067493736743927001953125">
        <ele>1898.800048828125</ele>
        <time>2026-06-20T11:32:11.000Z</time>
        <extensions>
          <ns3:TrackPointExtension>
            <ns3:atemp>24.0</ns3:atemp>
          </ns3:TrackPointExtension>
        </extensions>
      </trkpt>
      <trkpt lat="42.48134597204625606536865234375" lon="20.17823067493736743927001953125">
        <ele>1899</ele>
        <time>2026-06-20T11:32:12.000Z</time>
        <extensions>
          <ns3:TrackPointExtension>
            <ns3:atemp>24.0</ns3:atemp>
          </ns3:TrackPointExtension>
        </extensions>
      </trkpt>
      <trkpt lat="42.48134597204625606536865234375" lon="20.17823067493736743927001953125">
        <ele>1899</ele>
        <time>2026-06-20T11:32:13.000Z</time>
        <extensions>
          <ns3:TrackPointExtension>
            <ns3:atemp>24.0</ns3:atemp>
          </ns3:TrackPointExtension>
        </extensions>
      </trkpt>
      <trkpt lat="42.48134597204625606536865234375" lon="20.17823067493736743927001953125">
        <ele>1899</ele>
        <time>2026-06-20T11:32:14.000Z</time>
        <extensions>
          <ns3:TrackPointExtension>
            <ns3:atemp>24.0</ns3:atemp>
          </ns3:TrackPointExtension>
        </extensions>
      </trkpt>
      <trkpt lat="42.48134597204625606536865234375" lon="20.17823067493736743927001953125">
        <ele>1899</ele>
        <time>2026-06-20T11:32:15.000Z</time>
        <extensions>
          <ns3:TrackPointExtension>
            <ns3:atemp>24.0</ns3:atemp>
          </ns3:TrackPointExtension>
        </extensions>
      </trkpt>
      <trkpt lat="42.48134597204625606536865234375" lon="20.17823067493736743927001953125">
        <ele>1898.800048828125</ele>
        <time>2026-06-20T11:32:16.000Z</time>
        <extensions>
          <ns3:TrackPointExtension>
            <ns3:atemp>24.0</ns3:atemp>
          </ns3:TrackPointExtension>
        </extensions>
      </trkpt>
      <trkpt lat="42.48134597204625606536865234375" lon="20.17823067493736743927001953125">
        <ele>1898.800048828125</ele>
        <time>2026-06-20T11:32:17.000Z</time>
        <extensions>
          <ns3:TrackPointExtension>
            <ns3:atemp>24.0</ns3:atemp>
          </ns3:TrackPointExtension>
        </extensions>
      </trkpt>
      <trkpt lat="42.48134597204625606536865234375" lon="20.17823067493736743927001953125">
        <ele>1898.800048828125</ele>
        <time>2026-06-20T11:32:18.000Z</time>
        <extensions>
          <ns3:TrackPointExtension>
            <ns3:atemp>24.0</ns3:atemp>
          </ns3:TrackPointExtension>
        </extensions>
      </trkpt>
      <trkpt lat="42.48134597204625606536865234375" lon="20.17823067493736743927001953125">
        <ele>1898.800048828125</ele>
        <time>2026-06-20T11:32:19.000Z</time>
        <extensions>
          <ns3:TrackPointExtension>
            <ns3:atemp>24.0</ns3:atemp>
          </ns3:TrackPointExtension>
        </extensions>
      </trkpt>
      <trkpt lat="42.48134597204625606536865234375" lon="20.17823067493736743927001953125">
        <ele>1898.5999755859375</ele>
        <time>2026-06-20T11:32:20.000Z</time>
        <extensions>
          <ns3:TrackPointExtension>
            <ns3:atemp>24.0</ns3:atemp>
          </ns3:TrackPointExtension>
        </extensions>
      </trkpt>
      <trkpt lat="42.48134597204625606536865234375" lon="20.17823067493736743927001953125">
        <ele>1898.5999755859375</ele>
        <time>2026-06-20T11:32:21.000Z</time>
        <extensions>
          <ns3:TrackPointExtension>
            <ns3:atemp>24.0</ns3:atemp>
          </ns3:TrackPointExtension>
        </extensions>
      </trkpt>
      <trkpt lat="42.48134597204625606536865234375" lon="20.17823067493736743927001953125">
        <ele>1898.5999755859375</ele>
        <time>2026-06-20T11:32:22.000Z</time>
        <extensions>
          <ns3:TrackPointExtension>
            <ns3:atemp>24.0</ns3:atemp>
          </ns3:TrackPointExtension>
        </extensions>
      </trkpt>
      <trkpt lat="42.48134630732238292694091796875" lon="20.17823268659412860870361328125">
        <ele>1898.5999755859375</ele>
        <time>2026-06-20T11:32:23.000Z</time>
        <extensions>
          <ns3:TrackPointExtension>
            <ns3:atemp>24.0</ns3:atemp>
          </ns3:TrackPointExtension>
        </extensions>
      </trkpt>
      <trkpt lat="42.48133976943790912628173828125" lon="20.17825112678110599517822265625">
        <ele>1898.5999755859375</ele>
        <time>2026-06-20T11:32:24.000Z</time>
        <extensions>
          <ns3:TrackPointExtension>
            <ns3:atemp>24.0</ns3:atemp>
          </ns3:TrackPointExtension>
        </extensions>
      </trkpt>
      <trkpt lat="42.48133071698248386383056640625" lon="20.17826487310230731964111328125">
        <ele>1898.800048828125</ele>
        <time>2026-06-20T11:32:25.000Z</time>
        <extensions>
          <ns3:TrackPointExtension>
            <ns3:atemp>24.0</ns3:atemp>
          </ns3:TrackPointExtension>
        </extensions>
      </trkpt>
      <trkpt lat="42.48131931759417057037353515625" lon="20.17828448675572872161865234375">
        <ele>1898.800048828125</ele>
        <time>2026-06-20T11:32:26.000Z</time>
        <extensions>
          <ns3:TrackPointExtension>
            <ns3:atemp>24.0</ns3:atemp>
          </ns3:TrackPointExtension>
        </extensions>
      </trkpt>
      <trkpt lat="42.48130582273006439208984375" lon="20.17830058000981807708740234375">
        <ele>1898.5999755859375</ele>
        <time>2026-06-20T11:32:27.000Z</time>
        <extensions>
          <ns3:TrackPointExtension>
            <ns3:atemp>24.0</ns3:atemp>
          </ns3:TrackPointExtension>
        </extensions>
      </trkpt>
      <trkpt lat="42.481290400028228759765625" lon="20.1783149130642414093017578125">
        <ele>1898.5999755859375</ele>
        <time>2026-06-20T11:32:28.000Z</time>
        <extensions>
          <ns3:TrackPointExtension>
            <ns3:atemp>24.0</ns3:atemp>
          </ns3:TrackPointExtension>
        </extensions>
      </trkpt>
      <trkpt lat="42.481270618736743927001953125" lon="20.1783249713480472564697265625">
        <ele>1898.4000244140625</ele>
        <time>2026-06-20T11:32:29.000Z</time>
        <extensions>
          <ns3:TrackPointExtension>
            <ns3:atemp>24.0</ns3:atemp>
          </ns3:TrackPointExtension>
        </extensions>
      </trkpt>
      <trkpt lat="42.48124773614108562469482421875" lon="20.1783273182809352874755859375">
        <ele>1898.4000244140625</ele>
        <time>2026-06-20T11:32:30.000Z</time>
        <extensions>
          <ns3:TrackPointExtension>
            <ns3:atemp>24.0</ns3:atemp>
          </ns3:TrackPointExtension>
        </extensions>
      </trkpt>
      <trkpt lat="42.48122208751738071441650390625" lon="20.17833125777542591094970703125">
        <ele>1898.4000244140625</ele>
        <time>2026-06-20T11:32:31.000Z</time>
        <extensions>
          <ns3:TrackPointExtension>
            <ns3:atemp>24.0</ns3:atemp>
          </ns3:TrackPointExtension>
        </extensions>
      </trkpt>
      <trkpt lat="42.48119459487497806549072265625" lon="20.17833662219345569610595703125">
        <ele>1898.4000244140625</ele>
        <time>2026-06-20T11:32:32.000Z</time>
        <extensions>
          <ns3:TrackPointExtension>
            <ns3:atemp>24.0</ns3:atemp>
          </ns3:TrackPointExtension>
        </extensions>
      </trkpt>
      <trkpt lat="42.48116894625127315521240234375" lon="20.17835657112300395965576171875">
        <ele>1898.4000244140625</ele>
        <time>2026-06-20T11:32:33.000Z</time>
        <extensions>
          <ns3:TrackPointExtension>
            <ns3:atemp>24.0</ns3:atemp>
          </ns3:TrackPointExtension>
        </extensions>
      </trkpt>
      <trkpt lat="42.48114623129367828369140625" lon="20.17838439904153347015380859375">
        <ele>1898.199951171875</ele>
        <time>2026-06-20T11:32:34.000Z</time>
        <extensions>
          <ns3:TrackPointExtension>
            <ns3:atemp>24.0</ns3:atemp>
          </ns3:TrackPointExtension>
        </extensions>
      </trkpt>
      <trkpt lat="42.48112955130636692047119140625" lon="20.178412981331348419189453125">
        <ele>1898.199951171875</ele>
        <time>2026-06-20T11:32:35.000Z</time>
        <extensions>
          <ns3:TrackPointExtension>
            <ns3:atemp>24.0</ns3:atemp>
          </ns3:TrackPointExtension>
        </extensions>
      </trkpt>
      <trkpt lat="42.481113038957118988037109375" lon="20.17843586392700672149658203125">
        <ele>1898</ele>
        <time>2026-06-20T11:32:36.000Z</time>
        <extensions>
          <ns3:TrackPointExtension>
            <ns3:atemp>23.0</ns3:atemp>
          </ns3:TrackPointExtension>
        </extensions>
      </trkpt>
      <trkpt lat="42.48109585605561733245849609375" lon="20.1784527115523815155029296875">
        <ele>1897.800048828125</ele>
        <time>2026-06-20T11:32:37.000Z</time>
        <extensions>
          <ns3:TrackPointExtension>
            <ns3:atemp>23.0</ns3:atemp>
          </ns3:TrackPointExtension>
        </extensions>
      </trkpt>
      <trkpt lat="42.4810759909451007843017578125" lon="20.178475677967071533203125">
        <ele>1897.800048828125</ele>
        <time>2026-06-20T11:32:38.000Z</time>
        <extensions>
          <ns3:TrackPointExtension>
            <ns3:atemp>24.0</ns3:atemp>
          </ns3:TrackPointExtension>
        </extensions>
      </trkpt>
      <trkpt lat="42.48105310834944248199462890625" lon="20.178498812019824981689453125">
        <ele>1897.5999755859375</ele>
        <time>2026-06-20T11:32:39.000Z</time>
        <extensions>
          <ns3:TrackPointExtension>
            <ns3:atemp>23.0</ns3:atemp>
          </ns3:TrackPointExtension>
        </extensions>
      </trkpt>
      <trkpt lat="42.4810290522873401641845703125" lon="20.178520269691944122314453125">
        <ele>1897.4000244140625</ele>
        <time>2026-06-20T11:32:40.000Z</time>
        <extensions>
          <ns3:TrackPointExtension>
            <ns3:atemp>23.0</ns3:atemp>
          </ns3:TrackPointExtension>
        </extensions>
      </trkpt>
      <trkpt lat="42.4810045771300792694091796875" lon="20.17853795550763607025146484375">
        <ele>1897.4000244140625</ele>
        <time>2026-06-20T11:32:41.000Z</time>
        <extensions>
          <ns3:TrackPointExtension>
            <ns3:atemp>23.0</ns3:atemp>
          </ns3:TrackPointExtension>
        </extensions>
      </trkpt>
      <trkpt lat="42.480980269610881805419921875" lon="20.1785532943904399871826171875">
        <ele>1897.4000244140625</ele>
        <time>2026-06-20T11:32:42.000Z</time>
        <extensions>
          <ns3:TrackPointExtension>
            <ns3:atemp>23.0</ns3:atemp>
          </ns3:TrackPointExtension>
        </extensions>
      </trkpt>
      <trkpt lat="42.48095721937716007232666015625" lon="20.178566873073577880859375">
        <ele>1897.4000244140625</ele>
        <time>2026-06-20T11:32:43.000Z</time>
        <extensions>
          <ns3:TrackPointExtension>
            <ns3:atemp>23.0</ns3:atemp>
          </ns3:TrackPointExtension>
        </extensions>
      </trkpt>
      <trkpt lat="42.48093240894377231597900390625" lon="20.17856888473033905029296875">
        <ele>1897.4000244140625</ele>
        <time>2026-06-20T11:32:44.000Z</time>
        <extensions>
          <ns3:TrackPointExtension>
            <ns3:atemp>23.0</ns3:atemp>
          </ns3:TrackPointExtension>
        </extensions>
      </trkpt>
      <trkpt lat="42.4809070117771625518798828125" lon="20.17856419086456298828125">
        <ele>1897.4000244140625</ele>
        <time>2026-06-20T11:32:45.000Z</time>
        <extensions>
          <ns3:TrackPointExtension>
            <ns3:atemp>23.0</ns3:atemp>
          </ns3:TrackPointExtension>
        </extensions>
      </trkpt>
      <trkpt lat="42.48088144697248935699462890625" lon="20.17854667268693447113037109375">
        <ele>1897.4000244140625</ele>
        <time>2026-06-20T11:32:46.000Z</time>
        <extensions>
          <ns3:TrackPointExtension>
            <ns3:atemp>23.0</ns3:atemp>
          </ns3:TrackPointExtension>
        </extensions>
      </trkpt>
      <trkpt lat="42.4808577261865139007568359375" lon="20.17853108234703540802001953125">
        <ele>1897.4000244140625</ele>
        <time>2026-06-20T11:32:47.000Z</time>
        <extensions>
          <ns3:TrackPointExtension>
            <ns3:atemp>23.0</ns3:atemp>
          </ns3:TrackPointExtension>
        </extensions>
      </trkpt>
      <trkpt lat="42.48083501122891902923583984375" lon="20.17853259108960628509521484375">
        <ele>1897.4000244140625</ele>
        <time>2026-06-20T11:32:48.000Z</time>
        <extensions>
          <ns3:TrackPointExtension>
            <ns3:atemp>23.0</ns3:atemp>
          </ns3:TrackPointExtension>
        </extensions>
      </trkpt>
      <trkpt lat="42.48081388883292675018310546875" lon="20.17853133380413055419921875">
        <ele>1897.4000244140625</ele>
        <time>2026-06-20T11:32:49.000Z</time>
        <extensions>
          <ns3:TrackPointExtension>
            <ns3:atemp>23.0</ns3:atemp>
          </ns3:TrackPointExtension>
        </extensions>
      </trkpt>
      <trkpt lat="42.4807916767895221710205078125" lon="20.17852722667157649993896484375">
        <ele>1897.4000244140625</ele>
        <time>2026-06-20T11:32:50.000Z</time>
        <extensions>
          <ns3:TrackPointExtension>
            <ns3:atemp>23.0</ns3:atemp>
          </ns3:TrackPointExtension>
        </extensions>
      </trkpt>
      <trkpt lat="42.480766363441944122314453125" lon="20.17852555029094219207763671875">
        <ele>1897.199951171875</ele>
        <time>2026-06-20T11:32:51.000Z</time>
        <extensions>
          <ns3:TrackPointExtension>
            <ns3:atemp>23.0</ns3:atemp>
          </ns3:TrackPointExtension>
        </extensions>
      </trkpt>
      <trkpt lat="42.48074113391339778900146484375" lon="20.17852555029094219207763671875">
        <ele>1897</ele>
        <time>2026-06-20T11:32:52.000Z</time>
        <extensions>
          <ns3:TrackPointExtension>
            <ns3:atemp>23.0</ns3:atemp>
          </ns3:TrackPointExtension>
        </extensions>
      </trkpt>
      <trkpt lat="42.480722106993198394775390625" lon="20.1785167492926120758056640625">
        <ele>1897</ele>
        <time>2026-06-20T11:32:53.000Z</time>
        <extensions>
          <ns3:TrackPointExtension>
            <ns3:atemp>23.0</ns3:atemp>
          </ns3:TrackPointExtension>
        </extensions>
      </trkpt>
      <trkpt lat="42.480701990425586700439453125" lon="20.17851113341748714447021484375">
        <ele>1896.800048828125</ele>
        <time>2026-06-20T11:32:54.000Z</time>
        <extensions>
          <ns3:TrackPointExtension>
            <ns3:atemp>23.0</ns3:atemp>
          </ns3:TrackPointExtension>
        </extensions>
      </trkpt>
      <trkpt lat="42.48068028129637241363525390625" lon="20.17851121723651885986328125">
        <ele>1896.800048828125</ele>
        <time>2026-06-20T11:32:55.000Z</time>
        <extensions>
          <ns3:TrackPointExtension>
            <ns3:atemp>23.0</ns3:atemp>
          </ns3:TrackPointExtension>
        </extensions>
      </trkpt>
      <trkpt lat="42.480655051767826080322265625" lon="20.178507529199123382568359375">
        <ele>1896.800048828125</ele>
        <time>2026-06-20T11:32:56.000Z</time>
        <extensions>
          <ns3:TrackPointExtension>
            <ns3:atemp>23.0</ns3:atemp>
          </ns3:TrackPointExtension>
        </extensions>
      </trkpt>
      <trkpt lat="42.480624206364154815673828125" lon="20.17850660718977451324462890625">
        <ele>1896.5999755859375</ele>
        <time>2026-06-20T11:32:57.000Z</time>
        <extensions>
          <ns3:TrackPointExtension>
            <ns3:atemp>23.0</ns3:atemp>
          </ns3:TrackPointExtension>
        </extensions>
      </trkpt>
      <trkpt lat="42.4805881641805171966552734375" lon="20.1785092055797576904296875">
        <ele>1896.5999755859375</ele>
        <time>2026-06-20T11:32:58.000Z</time>
        <extensions>
          <ns3:TrackPointExtension>
            <ns3:atemp>23.0</ns3:atemp>
          </ns3:TrackPointExtension>
        </extensions>
      </trkpt>
      <trkpt lat="42.48054835014045238494873046875" lon="20.17850811593234539031982421875">
        <ele>1896.4000244140625</ele>
        <time>2026-06-20T11:32:59.000Z</time>
        <extensions>
          <ns3:TrackPointExtension>
            <ns3:atemp>23.0</ns3:atemp>
          </ns3:TrackPointExtension>
        </extensions>
      </trkpt>
      <trkpt lat="42.4805053509771823883056640625" lon="20.1785080321133136749267578125">
        <ele>1896</ele>
        <time>2026-06-20T11:33:00.000Z</time>
        <extensions>
          <ns3:TrackPointExtension>
            <ns3:atemp>23.0</ns3:atemp>
          </ns3:TrackPointExtension>
        </extensions>
      </trkpt>
      <trkpt lat="42.48046335764229297637939453125" lon="20.17851063050329685211181640625">
        <ele>1895.800048828125</ele>
        <time>2026-06-20T11:33:01.000Z</time>
        <extensions>
          <ns3:TrackPointExtension>
            <ns3:atemp>23.0</ns3:atemp>
          </ns3:TrackPointExtension>
        </extensions>
      </trkpt>
      <trkpt lat="42.48043720610439777374267578125" lon="20.1785118877887725830078125">
        <ele>1895.5999755859375</ele>
        <time>2026-06-20T11:33:02.000Z</time>
        <extensions>
          <ns3:TrackPointExtension>
            <ns3:atemp>23.0</ns3:atemp>
          </ns3:TrackPointExtension>
        </extensions>
      </trkpt>
      <trkpt lat="42.4804222024977207183837890625" lon="20.178507864475250244140625">
        <ele>1895.5999755859375</ele>
        <time>2026-06-20T11:33:03.000Z</time>
        <extensions>
          <ns3:TrackPointExtension>
            <ns3:atemp>23.0</ns3:atemp>
          </ns3:TrackPointExtension>
        </extensions>
      </trkpt>
      <trkpt lat="42.48040585778653621673583984375" lon="20.178504846990108489990234375">
        <ele>1895.5999755859375</ele>
        <time>2026-06-20T11:33:04.000Z</time>
        <extensions>
          <ns3:TrackPointExtension>
            <ns3:atemp>23.0</ns3:atemp>
          </ns3:TrackPointExtension>
        </extensions>
      </trkpt>
      <trkpt lat="42.4803873337805271148681640625" lon="20.17851113341748714447021484375">
        <ele>1895.800048828125</ele>
        <time>2026-06-20T11:33:05.000Z</time>
        <extensions>
          <ns3:TrackPointExtension>
            <ns3:atemp>23.0</ns3:atemp>
          </ns3:TrackPointExtension>
        </extensions>
      </trkpt>
      <trkpt lat="42.48036897741258144378662109375" lon="20.1785150729119777679443359375">
        <ele>1895.800048828125</ele>
        <time>2026-06-20T11:33:06.000Z</time>
        <extensions>
          <ns3:TrackPointExtension>
            <ns3:atemp>23.0</ns3:atemp>
          </ns3:TrackPointExtension>
        </extensions>
      </trkpt>
      <trkpt lat="42.48034751974046230316162109375" lon="20.17851850949227809906005859375">
        <ele>1896</ele>
        <time>2026-06-20T11:33:07.000Z</time>
        <extensions>
          <ns3:TrackPointExtension>
            <ns3:atemp>23.0</ns3:atemp>
          </ns3:TrackPointExtension>
        </extensions>
      </trkpt>
      <trkpt lat="42.480324469506740570068359375" lon="20.17852923832833766937255859375">
        <ele>1895.800048828125</ele>
        <time>2026-06-20T11:33:08.000Z</time>
        <extensions>
          <ns3:TrackPointExtension>
            <ns3:atemp>23.0</ns3:atemp>
          </ns3:TrackPointExtension>
        </extensions>
      </trkpt>
      <trkpt lat="42.48029789887368679046630859375" lon="20.17854030244052410125732421875">
        <ele>1895.800048828125</ele>
        <time>2026-06-20T11:33:09.000Z</time>
        <extensions>
          <ns3:TrackPointExtension>
            <ns3:atemp>23.0</ns3:atemp>
          </ns3:TrackPointExtension>
        </extensions>
      </trkpt>
      <trkpt lat="42.480269484221935272216796875" lon="20.1785429008305072784423828125">
        <ele>1895.800048828125</ele>
        <time>2026-06-20T11:33:10.000Z</time>
        <extensions>
          <ns3:TrackPointExtension>
            <ns3:atemp>23.0</ns3:atemp>
          </ns3:TrackPointExtension>
        </extensions>
      </trkpt>
      <trkpt lat="42.480239979922771453857421875" lon="20.17854315228760242462158203125">
        <ele>1895.800048828125</ele>
        <time>2026-06-20T11:33:11.000Z</time>
        <extensions>
          <ns3:TrackPointExtension>
            <ns3:atemp>23.0</ns3:atemp>
          </ns3:TrackPointExtension>
        </extensions>
      </trkpt>
      <trkpt lat="42.48021072708070278167724609375" lon="20.17854114063084125518798828125">
        <ele>1895.800048828125</ele>
        <time>2026-06-20T11:33:12.000Z</time>
        <extensions>
          <ns3:TrackPointExtension>
            <ns3:atemp>23.0</ns3:atemp>
          </ns3:TrackPointExtension>
        </extensions>
      </trkpt>
      <trkpt lat="42.480187006294727325439453125" lon="20.1785338483750820159912109375">
        <ele>1895.800048828125</ele>
        <time>2026-06-20T11:33:13.000Z</time>
        <extensions>
          <ns3:TrackPointExtension>
            <ns3:atemp>23.0</ns3:atemp>
          </ns3:TrackPointExtension>
        </extensions>
      </trkpt>
      <trkpt lat="42.480161190032958984375" lon="20.17853443510830402374267578125">
        <ele>1896</ele>
        <time>2026-06-20T11:33:14.000Z</time>
        <extensions>
          <ns3:TrackPointExtension>
            <ns3:atemp>23.0</ns3:atemp>
          </ns3:TrackPointExtension>
        </extensions>
      </trkpt>
      <trkpt lat="42.48013797216117382049560546875" lon="20.17853594385087490081787109375">
        <ele>1896</ele>
        <time>2026-06-20T11:33:15.000Z</time>
        <extensions>
          <ns3:TrackPointExtension>
            <ns3:atemp>23.0</ns3:atemp>
          </ns3:TrackPointExtension>
        </extensions>
      </trkpt>
      <trkpt lat="42.480116598308086395263671875" lon="20.17853979952633380889892578125">
        <ele>1896.199951171875</ele>
        <time>2026-06-20T11:33:16.000Z</time>
        <extensions>
          <ns3:TrackPointExtension>
            <ns3:atemp>23.0</ns3:atemp>
          </ns3:TrackPointExtension>
        </extensions>
      </trkpt>
      <trkpt lat="42.48009338043630123138427734375" lon="20.1785365305840969085693359375">
        <ele>1896.4000244140625</ele>
        <time>2026-06-20T11:33:17.000Z</time>
        <extensions>
          <ns3:TrackPointExtension>
            <ns3:atemp>23.0</ns3:atemp>
          </ns3:TrackPointExtension>
        </extensions>
      </trkpt>
      <trkpt lat="42.4800688214600086212158203125" lon="20.17853376455605030059814453125">
        <ele>1896.5999755859375</ele>
        <time>2026-06-20T11:33:18.000Z</time>
        <extensions>
          <ns3:TrackPointExtension>
            <ns3:atemp>23.0</ns3:atemp>
          </ns3:TrackPointExtension>
        </extensions>
      </trkpt>
      <trkpt lat="42.48003923334181308746337890625" lon="20.17853661440312862396240234375">
        <ele>1896.800048828125</ele>
        <time>2026-06-20T11:33:19.000Z</time>
        <extensions>
          <ns3:TrackPointExtension>
            <ns3:atemp>23.0</ns3:atemp>
          </ns3:TrackPointExtension>
        </extensions>
      </trkpt>
      <trkpt lat="42.48001123778522014617919921875" lon="20.17854499630630016326904296875">
        <ele>1897</ele>
        <time>2026-06-20T11:33:20.000Z</time>
        <extensions>
          <ns3:TrackPointExtension>
            <ns3:atemp>23.0</ns3:atemp>
          </ns3:TrackPointExtension>
        </extensions>
      </trkpt>
      <trkpt lat="42.47998592443764209747314453125" lon="20.1785502769052982330322265625">
        <ele>1897.199951171875</ele>
        <time>2026-06-20T11:33:21.000Z</time>
        <extensions>
          <ns3:TrackPointExtension>
            <ns3:atemp>23.0</ns3:atemp>
          </ns3:TrackPointExtension>
        </extensions>
      </trkpt>
      <trkpt lat="42.479959018528461456298828125" lon="20.17854969017207622528076171875">
        <ele>1897</ele>
        <time>2026-06-20T11:33:22.000Z</time>
        <extensions>
          <ns3:TrackPointExtension>
            <ns3:atemp>23.0</ns3:atemp>
          </ns3:TrackPointExtension>
        </extensions>
      </trkpt>
      <trkpt lat="42.4799318611621856689453125" lon="20.17854868434369564056396484375">
        <ele>1897</ele>
        <time>2026-06-20T11:33:23.000Z</time>
        <extensions>
          <ns3:TrackPointExtension>
            <ns3:atemp>23.0</ns3:atemp>
          </ns3:TrackPointExtension>
        </extensions>
      </trkpt>
      <trkpt lat="42.47990428470075130462646484375" lon="20.1785467565059661865234375">
        <ele>1897</ele>
        <time>2026-06-20T11:33:24.000Z</time>
        <extensions>
          <ns3:TrackPointExtension>
            <ns3:atemp>23.0</ns3:atemp>
          </ns3:TrackPointExtension>
        </extensions>
      </trkpt>
      <trkpt lat="42.47987478040158748626708984375" lon="20.1785496063530445098876953125">
        <ele>1897</ele>
        <time>2026-06-20T11:33:25.000Z</time>
        <extensions>
          <ns3:TrackPointExtension>
            <ns3:atemp>23.0</ns3:atemp>
          </ns3:TrackPointExtension>
        </extensions>
      </trkpt>
      <trkpt lat="42.47984829358756542205810546875" lon="20.17855547368526458740234375">
        <ele>1897</ele>
        <time>2026-06-20T11:33:26.000Z</time>
        <extensions>
          <ns3:TrackPointExtension>
            <ns3:atemp>23.0</ns3:atemp>
          </ns3:TrackPointExtension>
        </extensions>
      </trkpt>
      <trkpt lat="42.4798227287828922271728515625" lon="20.17856217920780181884765625">
        <ele>1897.199951171875</ele>
        <time>2026-06-20T11:33:27.000Z</time>
        <extensions>
          <ns3:TrackPointExtension>
            <ns3:atemp>23.0</ns3:atemp>
          </ns3:TrackPointExtension>
        </extensions>
      </trkpt>
      <trkpt lat="42.4798004329204559326171875" lon="20.17856578342616558074951171875">
        <ele>1897.199951171875</ele>
        <time>2026-06-20T11:33:28.000Z</time>
        <extensions>
          <ns3:TrackPointExtension>
            <ns3:atemp>23.0</ns3:atemp>
          </ns3:TrackPointExtension>
        </extensions>
      </trkpt>
      <trkpt lat="42.47978232800960540771484375" lon="20.178556479513645172119140625">
        <ele>1897.4000244140625</ele>
        <time>2026-06-20T11:33:29.000Z</time>
        <extensions>
          <ns3:TrackPointExtension>
            <ns3:atemp>23.0</ns3:atemp>
          </ns3:TrackPointExtension>
        </extensions>
      </trkpt>
      <trkpt lat="42.4797570146620273590087890625" lon="20.1785435713827610015869140625">
        <ele>1897.199951171875</ele>
        <time>2026-06-20T11:33:30.000Z</time>
        <extensions>
          <ns3:TrackPointExtension>
            <ns3:atemp>23.0</ns3:atemp>
          </ns3:TrackPointExtension>
        </extensions>
      </trkpt>
      <trkpt lat="42.4797298572957515716552734375" lon="20.17854114063084125518798828125">
        <ele>1897.199951171875</ele>
        <time>2026-06-20T11:33:31.000Z</time>
        <extensions>
          <ns3:TrackPointExtension>
            <ns3:atemp>23.0</ns3:atemp>
          </ns3:TrackPointExtension>
        </extensions>
      </trkpt>
      <trkpt lat="42.47970378957688808441162109375" lon="20.1785486005246639251708984375">
        <ele>1897.199951171875</ele>
        <time>2026-06-20T11:33:32.000Z</time>
        <extensions>
          <ns3:TrackPointExtension>
            <ns3:atemp>23.0</ns3:atemp>
          </ns3:TrackPointExtension>
        </extensions>
      </trkpt>
      <trkpt lat="42.47967612929642200469970703125" lon="20.17855186946690082550048828125">
        <ele>1897</ele>
        <time>2026-06-20T11:33:33.000Z</time>
        <extensions>
          <ns3:TrackPointExtension>
            <ns3:atemp>23.0</ns3:atemp>
          </ns3:TrackPointExtension>
        </extensions>
      </trkpt>
      <trkpt lat="42.479648888111114501953125" lon="20.178549773991107940673828125">
        <ele>1897</ele>
        <time>2026-06-20T11:33:34.000Z</time>
        <extensions>
          <ns3:TrackPointExtension>
            <ns3:atemp>23.0</ns3:atemp>
          </ns3:TrackPointExtension>
        </extensions>
      </trkpt>
      <trkpt lat="42.47962432913482189178466796875" lon="20.1785459183156490325927734375">
        <ele>1897</ele>
        <time>2026-06-20T11:33:35.000Z</time>
        <extensions>
          <ns3:TrackPointExtension>
            <ns3:atemp>23.0</ns3:atemp>
          </ns3:TrackPointExtension>
        </extensions>
      </trkpt>
      <trkpt lat="42.47960370965301990509033203125" lon="20.1785548031330108642578125">
        <ele>1897</ele>
        <time>2026-06-20T11:33:36.000Z</time>
        <extensions>
          <ns3:TrackPointExtension>
            <ns3:atemp>23.0</ns3:atemp>
          </ns3:TrackPointExtension>
        </extensions>
      </trkpt>
      <trkpt lat="42.4795823357999324798583984375" lon="20.17855941317975521087646484375">
        <ele>1897.199951171875</ele>
        <time>2026-06-20T11:33:37.000Z</time>
        <extensions>
          <ns3:TrackPointExtension>
            <ns3:atemp>23.0</ns3:atemp>
          </ns3:TrackPointExtension>
        </extensions>
      </trkpt>
      <trkpt lat="42.47956096194684505462646484375" lon="20.1785599999129772186279296875">
        <ele>1897.199951171875</ele>
        <time>2026-06-20T11:33:38.000Z</time>
        <extensions>
          <ns3:TrackPointExtension>
            <ns3:atemp>23.0</ns3:atemp>
          </ns3:TrackPointExtension>
        </extensions>
      </trkpt>
      <trkpt lat="42.47953891754150390625" lon="20.17855924554169178009033203125">
        <ele>1897.199951171875</ele>
        <time>2026-06-20T11:33:39.000Z</time>
        <extensions>
          <ns3:TrackPointExtension>
            <ns3:atemp>23.0</ns3:atemp>
          </ns3:TrackPointExtension>
        </extensions>
      </trkpt>
      <trkpt lat="42.47951368801295757293701171875" lon="20.17855689860880374908447265625">
        <ele>1897.199951171875</ele>
        <time>2026-06-20T11:33:40.000Z</time>
        <extensions>
          <ns3:TrackPointExtension>
            <ns3:atemp>23.0</ns3:atemp>
          </ns3:TrackPointExtension>
        </extensions>
      </trkpt>
      <trkpt lat="42.47948996722698211669921875" lon="20.17855656333267688751220703125">
        <ele>1897.199951171875</ele>
        <time>2026-06-20T11:33:41.000Z</time>
        <extensions>
          <ns3:TrackPointExtension>
            <ns3:atemp>23.0</ns3:atemp>
          </ns3:TrackPointExtension>
        </extensions>
      </trkpt>
      <trkpt lat="42.479464150965213775634765625" lon="20.178557820618152618408203125">
        <ele>1897.199951171875</ele>
        <time>2026-06-20T11:33:42.000Z</time>
        <extensions>
          <ns3:TrackPointExtension>
            <ns3:atemp>23.0</ns3:atemp>
          </ns3:TrackPointExtension>
        </extensions>
      </trkpt>
      <trkpt lat="42.4794371612370014190673828125" lon="20.17855656333267688751220703125">
        <ele>1897.199951171875</ele>
        <time>2026-06-20T11:33:43.000Z</time>
        <extensions>
          <ns3:TrackPointExtension>
            <ns3:atemp>23.0</ns3:atemp>
          </ns3:TrackPointExtension>
        </extensions>
      </trkpt>
      <trkpt lat="42.479416541755199432373046875" lon="20.17855681478977203369140625">
        <ele>1897</ele>
        <time>2026-06-20T11:33:44.000Z</time>
        <extensions>
          <ns3:TrackPointExtension>
            <ns3:atemp>23.0</ns3:atemp>
          </ns3:TrackPointExtension>
        </extensions>
      </trkpt>
      <trkpt lat="42.47939818538725376129150390625" lon="20.17856226302683353424072265625">
        <ele>1897</ele>
        <time>2026-06-20T11:33:45.000Z</time>
        <extensions>
          <ns3:TrackPointExtension>
            <ns3:atemp>23.0</ns3:atemp>
          </ns3:TrackPointExtension>
        </extensions>
      </trkpt>
      <trkpt lat="42.4793781526386737823486328125" lon="20.17856980673968791961669921875">
        <ele>1897</ele>
        <time>2026-06-20T11:33:46.000Z</time>
        <extensions>
          <ns3:TrackPointExtension>
            <ns3:atemp>23.0</ns3:atemp>
          </ns3:TrackPointExtension>
        </extensions>
      </trkpt>
      <trkpt lat="42.4793563596904277801513671875" lon="20.17857701517641544342041015625">
        <ele>1897.199951171875</ele>
        <time>2026-06-20T11:33:47.000Z</time>
        <extensions>
          <ns3:TrackPointExtension>
            <ns3:atemp>23.0</ns3:atemp>
          </ns3:TrackPointExtension>
        </extensions>
      </trkpt>
      <trkpt lat="42.4793352372944355010986328125" lon="20.178582631051540374755859375">
        <ele>1897.199951171875</ele>
        <time>2026-06-20T11:33:48.000Z</time>
        <extensions>
          <ns3:TrackPointExtension>
            <ns3:atemp>23.0</ns3:atemp>
          </ns3:TrackPointExtension>
        </extensions>
      </trkpt>
      <trkpt lat="42.47931294143199920654296875" lon="20.17858640290796756744384765625">
        <ele>1897.199951171875</ele>
        <time>2026-06-20T11:33:49.000Z</time>
        <extensions>
          <ns3:TrackPointExtension>
            <ns3:atemp>23.0</ns3:atemp>
          </ns3:TrackPointExtension>
        </extensions>
      </trkpt>
      <trkpt lat="42.47929039411246776580810546875" lon="20.17859729938209056854248046875">
        <ele>1897.199951171875</ele>
        <time>2026-06-20T11:33:50.000Z</time>
        <extensions>
          <ns3:TrackPointExtension>
            <ns3:atemp>23.0</ns3:atemp>
          </ns3:TrackPointExtension>
        </extensions>
      </trkpt>
      <trkpt lat="42.4792654998600482940673828125" lon="20.17860216088593006134033203125">
        <ele>1897.199951171875</ele>
        <time>2026-06-20T11:33:51.000Z</time>
        <extensions>
          <ns3:TrackPointExtension>
            <ns3:atemp>23.0</ns3:atemp>
          </ns3:TrackPointExtension>
        </extensions>
      </trkpt>
      <trkpt lat="42.47923918068408966064453125" lon="20.1786124706268310546875">
        <ele>1897.4000244140625</ele>
        <time>2026-06-20T11:33:52.000Z</time>
        <extensions>
          <ns3:TrackPointExtension>
            <ns3:atemp>23.0</ns3:atemp>
          </ns3:TrackPointExtension>
        </extensions>
      </trkpt>
      <trkpt lat="42.4792158789932727813720703125" lon="20.17861993052065372467041015625">
        <ele>1897.4000244140625</ele>
        <time>2026-06-20T11:33:53.000Z</time>
        <extensions>
          <ns3:TrackPointExtension>
            <ns3:atemp>23.0</ns3:atemp>
          </ns3:TrackPointExtension>
        </extensions>
      </trkpt>
      <trkpt lat="42.479192577302455902099609375" lon="20.178626887500286102294921875">
        <ele>1897.4000244140625</ele>
        <time>2026-06-20T11:33:54.000Z</time>
        <extensions>
          <ns3:TrackPointExtension>
            <ns3:atemp>23.0</ns3:atemp>
          </ns3:TrackPointExtension>
        </extensions>
      </trkpt>
      <trkpt lat="42.4791672639548778533935546875" lon="20.1786397956311702728271484375">
        <ele>1897.199951171875</ele>
        <time>2026-06-20T11:33:55.000Z</time>
        <extensions>
          <ns3:TrackPointExtension>
            <ns3:atemp>23.0</ns3:atemp>
          </ns3:TrackPointExtension>
        </extensions>
      </trkpt>
      <trkpt lat="42.47914270497858524322509765625" lon="20.17865463159978389739990234375">
        <ele>1897.199951171875</ele>
        <time>2026-06-20T11:33:56.000Z</time>
        <extensions>
          <ns3:TrackPointExtension>
            <ns3:atemp>23.0</ns3:atemp>
          </ns3:TrackPointExtension>
        </extensions>
      </trkpt>
      <trkpt lat="42.47911714017391204833984375" lon="20.1786669529974460601806640625">
        <ele>1897.199951171875</ele>
        <time>2026-06-20T11:33:57.000Z</time>
        <extensions>
          <ns3:TrackPointExtension>
            <ns3:atemp>23.0</ns3:atemp>
          </ns3:TrackPointExtension>
        </extensions>
      </trkpt>
      <trkpt lat="42.47909207828342914581298828125" lon="20.17867960967123508453369140625">
        <ele>1897</ele>
        <time>2026-06-20T11:33:58.000Z</time>
        <extensions>
          <ns3:TrackPointExtension>
            <ns3:atemp>23.0</ns3:atemp>
          </ns3:TrackPointExtension>
        </extensions>
      </trkpt>
      <trkpt lat="42.47906525619328022003173828125" lon="20.17868882976472377777099609375">
        <ele>1897</ele>
        <time>2026-06-20T11:33:59.000Z</time>
        <extensions>
          <ns3:TrackPointExtension>
            <ns3:atemp>23.0</ns3:atemp>
          </ns3:TrackPointExtension>
        </extensions>
      </trkpt>
      <trkpt lat="42.479037679731845855712890625" lon="20.17869804985821247100830078125">
        <ele>1897</ele>
        <time>2026-06-20T11:34:00.000Z</time>
        <extensions>
          <ns3:TrackPointExtension>
            <ns3:atemp>23.0</ns3:atemp>
          </ns3:TrackPointExtension>
        </extensions>
      </trkpt>
      <trkpt lat="42.47901379130780696868896484375" lon="20.17870961688458919525146484375">
        <ele>1896.800048828125</ele>
        <time>2026-06-20T11:34:01.000Z</time>
        <extensions>
          <ns3:TrackPointExtension>
            <ns3:atemp>23.0</ns3:atemp>
          </ns3:TrackPointExtension>
        </extensions>
      </trkpt>
      <trkpt lat="42.47898931615054607391357421875" lon="20.17872185446321964263916015625">
        <ele>1896.800048828125</ele>
        <time>2026-06-20T11:34:02.000Z</time>
        <extensions>
          <ns3:TrackPointExtension>
            <ns3:atemp>23.0</ns3:atemp>
          </ns3:TrackPointExtension>
        </extensions>
      </trkpt>
      <trkpt lat="42.47896634973585605621337890625" lon="20.17873677425086498260498046875">
        <ele>1896.5999755859375</ele>
        <time>2026-06-20T11:34:03.000Z</time>
        <extensions>
          <ns3:TrackPointExtension>
            <ns3:atemp>23.0</ns3:atemp>
          </ns3:TrackPointExtension>
        </extensions>
      </trkpt>
      <trkpt lat="42.47894204221665859222412109375" lon="20.17875471152365207672119140625">
        <ele>1896.5999755859375</ele>
        <time>2026-06-20T11:34:04.000Z</time>
        <extensions>
          <ns3:TrackPointExtension>
            <ns3:atemp>23.0</ns3:atemp>
          </ns3:TrackPointExtension>
        </extensions>
      </trkpt>
      <trkpt lat="42.4789137952029705047607421875" lon="20.1787678711116313934326171875">
        <ele>1896.4000244140625</ele>
        <time>2026-06-20T11:34:05.000Z</time>
        <extensions>
          <ns3:TrackPointExtension>
            <ns3:atemp>23.0</ns3:atemp>
          </ns3:TrackPointExtension>
        </extensions>
      </trkpt>
      <trkpt lat="42.47888571582734584808349609375" lon="20.178775079548358917236328125">
        <ele>1896.199951171875</ele>
        <time>2026-06-20T11:34:06.000Z</time>
        <extensions>
          <ns3:TrackPointExtension>
            <ns3:atemp>23.0</ns3:atemp>
          </ns3:TrackPointExtension>
        </extensions>
      </trkpt>
      <trkpt lat="42.4788527749478816986083984375" lon="20.17878614366054534912109375">
        <ele>1896</ele>
        <time>2026-06-20T11:34:07.000Z</time>
        <extensions>
          <ns3:TrackPointExtension>
            <ns3:atemp>23.0</ns3:atemp>
          </ns3:TrackPointExtension>
        </extensions>
      </trkpt>
      <trkpt lat="42.47882519848644733428955078125" lon="20.17880315892398357391357421875">
        <ele>1896</ele>
        <time>2026-06-20T11:34:08.000Z</time>
        <extensions>
          <ns3:TrackPointExtension>
            <ns3:atemp>23.0</ns3:atemp>
          </ns3:TrackPointExtension>
        </extensions>
      </trkpt>
      <trkpt lat="42.47879837639629840850830078125" lon="20.1788195036351680755615234375">
        <ele>1895.800048828125</ele>
        <time>2026-06-20T11:34:09.000Z</time>
        <extensions>
          <ns3:TrackPointExtension>
            <ns3:atemp>23.0</ns3:atemp>
          </ns3:TrackPointExtension>
        </extensions>
      </trkpt>
      <trkpt lat="42.4787706322968006134033203125" lon="20.17883777618408203125">
        <ele>1895.800048828125</ele>
        <time>2026-06-20T11:34:10.000Z</time>
        <extensions>
          <ns3:TrackPointExtension>
            <ns3:atemp>23.0</ns3:atemp>
          </ns3:TrackPointExtension>
        </extensions>
      </trkpt>
      <trkpt lat="42.478740625083446502685546875" lon="20.17884758301079273223876953125">
        <ele>1895.800048828125</ele>
        <time>2026-06-20T11:34:11.000Z</time>
        <extensions>
          <ns3:TrackPointExtension>
            <ns3:atemp>23.0</ns3:atemp>
          </ns3:TrackPointExtension>
        </extensions>
      </trkpt>
      <trkpt lat="42.47871388681232929229736328125" lon="20.17885663546621799468994140625">
        <ele>1895.800048828125</ele>
        <time>2026-06-20T11:34:12.000Z</time>
        <extensions>
          <ns3:TrackPointExtension>
            <ns3:atemp>23.0</ns3:atemp>
          </ns3:TrackPointExtension>
        </extensions>
      </trkpt>
      <trkpt lat="42.47869008220732212066650390625" lon="20.1788640953600406646728515625">
        <ele>1895.800048828125</ele>
        <time>2026-06-20T11:34:13.000Z</time>
        <extensions>
          <ns3:TrackPointExtension>
            <ns3:atemp>23.0</ns3:atemp>
          </ns3:TrackPointExtension>
        </extensions>
      </trkpt>
      <trkpt lat="42.47866862453520298004150390625" lon="20.1788751594722270965576171875">
        <ele>1895.800048828125</ele>
        <time>2026-06-20T11:34:14.000Z</time>
        <extensions>
          <ns3:TrackPointExtension>
            <ns3:atemp>23.0</ns3:atemp>
          </ns3:TrackPointExtension>
        </extensions>
      </trkpt>
      <trkpt lat="42.4786455743014812469482421875" lon="20.17888781614601612091064453125">
        <ele>1895.5999755859375</ele>
        <time>2026-06-20T11:34:15.000Z</time>
        <extensions>
          <ns3:TrackPointExtension>
            <ns3:atemp>23.0</ns3:atemp>
          </ns3:TrackPointExtension>
        </extensions>
      </trkpt>
      <trkpt lat="42.47862160205841064453125" lon="20.17890642397105693817138671875">
        <ele>1895.5999755859375</ele>
        <time>2026-06-20T11:34:16.000Z</time>
        <extensions>
          <ns3:TrackPointExtension>
            <ns3:atemp>23.0</ns3:atemp>
          </ns3:TrackPointExtension>
        </extensions>
      </trkpt>
      <trkpt lat="42.478597126901149749755859375" lon="20.1789222657680511474609375">
        <ele>1895.5999755859375</ele>
        <time>2026-06-20T11:34:17.000Z</time>
        <extensions>
          <ns3:TrackPointExtension>
            <ns3:atemp>23.0</ns3:atemp>
          </ns3:TrackPointExtension>
        </extensions>
      </trkpt>
      <trkpt lat="42.47857131063938140869140625" lon="20.17893861047923564910888671875">
        <ele>1895.5999755859375</ele>
        <time>2026-06-20T11:34:18.000Z</time>
        <extensions>
          <ns3:TrackPointExtension>
            <ns3:atemp>23.0</ns3:atemp>
          </ns3:TrackPointExtension>
        </extensions>
      </trkpt>
      <trkpt lat="42.47854591347277164459228515625" lon="20.17895068041980266571044921875">
        <ele>1895.5999755859375</ele>
        <time>2026-06-20T11:34:19.000Z</time>
        <extensions>
          <ns3:TrackPointExtension>
            <ns3:atemp>23.0</ns3:atemp>
          </ns3:TrackPointExtension>
        </extensions>
      </trkpt>
      <trkpt lat="42.47852043248713016510009765625" lon="20.17896291799843311309814453125">
        <ele>1895.5999755859375</ele>
        <time>2026-06-20T11:34:20.000Z</time>
        <extensions>
          <ns3:TrackPointExtension>
            <ns3:atemp>23.0</ns3:atemp>
          </ns3:TrackPointExtension>
        </extensions>
      </trkpt>
      <trkpt lat="42.47849444858729839324951171875" lon="20.17897180281579494476318359375">
        <ele>1895.5999755859375</ele>
        <time>2026-06-20T11:34:21.000Z</time>
        <extensions>
          <ns3:TrackPointExtension>
            <ns3:atemp>23.0</ns3:atemp>
          </ns3:TrackPointExtension>
        </extensions>
      </trkpt>
      <trkpt lat="42.47846662066876888275146484375" lon="20.178980939090251922607421875">
        <ele>1895.5999755859375</ele>
        <time>2026-06-20T11:34:22.000Z</time>
        <extensions>
          <ns3:TrackPointExtension>
            <ns3:atemp>23.0</ns3:atemp>
          </ns3:TrackPointExtension>
        </extensions>
      </trkpt>
      <trkpt lat="42.47843929566442966461181640625" lon="20.1789911650121212005615234375">
        <ele>1895.800048828125</ele>
        <time>2026-06-20T11:34:23.000Z</time>
        <extensions>
          <ns3:TrackPointExtension>
            <ns3:atemp>23.0</ns3:atemp>
          </ns3:TrackPointExtension>
        </extensions>
      </trkpt>
      <trkpt lat="42.47841230593621730804443359375" lon="20.17899803817272186279296875">
        <ele>1895.800048828125</ele>
        <time>2026-06-20T11:34:24.000Z</time>
        <extensions>
          <ns3:TrackPointExtension>
            <ns3:atemp>23.0</ns3:atemp>
          </ns3:TrackPointExtension>
        </extensions>
      </trkpt>
      <trkpt lat="42.4783890880644321441650390625" lon="20.17900533042848110198974609375">
        <ele>1895.800048828125</ele>
        <time>2026-06-20T11:34:25.000Z</time>
        <extensions>
          <ns3:TrackPointExtension>
            <ns3:atemp>23.0</ns3:atemp>
          </ns3:TrackPointExtension>
        </extensions>
      </trkpt>
      <trkpt lat="42.47836880385875701904296875" lon="20.17901387996971607208251953125">
        <ele>1895.800048828125</ele>
        <time>2026-06-20T11:34:26.000Z</time>
        <extensions>
          <ns3:TrackPointExtension>
            <ns3:atemp>23.0</ns3:atemp>
          </ns3:TrackPointExtension>
        </extensions>
      </trkpt>
      <trkpt lat="42.4783478491008281707763671875" lon="20.179020501673221588134765625">
        <ele>1895.800048828125</ele>
        <time>2026-06-20T11:34:27.000Z</time>
        <extensions>
          <ns3:TrackPointExtension>
            <ns3:atemp>23.0</ns3:atemp>
          </ns3:TrackPointExtension>
        </extensions>
      </trkpt>
      <trkpt lat="42.478326223790645599365234375" lon="20.179023854434490203857421875">
        <ele>1896</ele>
        <time>2026-06-20T11:34:28.000Z</time>
        <extensions>
          <ns3:TrackPointExtension>
            <ns3:atemp>23.0</ns3:atemp>
          </ns3:TrackPointExtension>
        </extensions>
      </trkpt>
      <trkpt lat="42.47830183245241641998291015625" lon="20.179027877748012542724609375">
        <ele>1896</ele>
        <time>2026-06-20T11:34:29.000Z</time>
        <extensions>
          <ns3:TrackPointExtension>
            <ns3:atemp>23.0</ns3:atemp>
          </ns3:TrackPointExtension>
        </extensions>
      </trkpt>
      <trkpt lat="42.47827534563839435577392578125" lon="20.17903424799442291259765625">
        <ele>1896</ele>
        <time>2026-06-20T11:34:30.000Z</time>
        <extensions>
          <ns3:TrackPointExtension>
            <ns3:atemp>23.0</ns3:atemp>
          </ns3:TrackPointExtension>
        </extensions>
      </trkpt>
      <trkpt lat="42.47825522907078266143798828125" lon="20.17904204316437244415283203125">
        <ele>1896</ele>
        <time>2026-06-20T11:34:31.000Z</time>
        <extensions>
          <ns3:TrackPointExtension>
            <ns3:atemp>23.0</ns3:atemp>
          </ns3:TrackPointExtension>
        </extensions>
      </trkpt>
      <trkpt lat="42.478233017027378082275390625" lon="20.1790511794388294219970703125">
        <ele>1895.800048828125</ele>
        <time>2026-06-20T11:34:32.000Z</time>
        <extensions>
          <ns3:TrackPointExtension>
            <ns3:atemp>23.0</ns3:atemp>
          </ns3:TrackPointExtension>
        </extensions>
      </trkpt>
      <trkpt lat="42.4782083742320537567138671875" lon="20.1790639199316501617431640625">
        <ele>1895.5999755859375</ele>
        <time>2026-06-20T11:34:33.000Z</time>
        <extensions>
          <ns3:TrackPointExtension>
            <ns3:atemp>23.0</ns3:atemp>
          </ns3:TrackPointExtension>
        </extensions>
      </trkpt>
      <trkpt lat="42.4781835637986660003662109375" lon="20.1790831983089447021484375">
        <ele>1895.5999755859375</ele>
        <time>2026-06-20T11:34:34.000Z</time>
        <extensions>
          <ns3:TrackPointExtension>
            <ns3:atemp>23.0</ns3:atemp>
          </ns3:TrackPointExtension>
        </extensions>
      </trkpt>
      <trkpt lat="42.47816026210784912109375" lon="20.17910121940076351165771484375">
        <ele>1895.4000244140625</ele>
        <time>2026-06-20T11:34:35.000Z</time>
        <extensions>
          <ns3:TrackPointExtension>
            <ns3:atemp>23.0</ns3:atemp>
          </ns3:TrackPointExtension>
        </extensions>
      </trkpt>
      <trkpt lat="42.4781362898647785186767578125" lon="20.17912452109158039093017578125">
        <ele>1895.199951171875</ele>
        <time>2026-06-20T11:34:36.000Z</time>
        <extensions>
          <ns3:TrackPointExtension>
            <ns3:atemp>23.0</ns3:atemp>
          </ns3:TrackPointExtension>
        </extensions>
      </trkpt>
      <trkpt lat="42.478110976517200469970703125" lon="20.17914765514433383941650390625">
        <ele>1895</ele>
        <time>2026-06-20T11:34:37.000Z</time>
        <extensions>
          <ns3:TrackPointExtension>
            <ns3:atemp>23.0</ns3:atemp>
          </ns3:TrackPointExtension>
        </extensions>
      </trkpt>
      <trkpt lat="42.4780876748263835906982421875" lon="20.17916877754032611846923828125">
        <ele>1895</ele>
        <time>2026-06-20T11:34:38.000Z</time>
        <extensions>
          <ns3:TrackPointExtension>
            <ns3:atemp>23.0</ns3:atemp>
          </ns3:TrackPointExtension>
        </extensions>
      </trkpt>
      <trkpt lat="42.47806412167847156524658203125" lon="20.17919057048857212066650390625">
        <ele>1894.800048828125</ele>
        <time>2026-06-20T11:34:39.000Z</time>
        <extensions>
          <ns3:TrackPointExtension>
            <ns3:atemp>23.0</ns3:atemp>
          </ns3:TrackPointExtension>
        </extensions>
      </trkpt>
      <trkpt lat="42.478038556873798370361328125" lon="20.17920917831361293792724609375">
        <ele>1894.5999755859375</ele>
        <time>2026-06-20T11:34:40.000Z</time>
        <extensions>
          <ns3:TrackPointExtension>
            <ns3:atemp>23.0</ns3:atemp>
          </ns3:TrackPointExtension>
        </extensions>
      </trkpt>
      <trkpt lat="42.478013746440410614013671875" lon="20.179226361215114593505859375">
        <ele>1894.5999755859375</ele>
        <time>2026-06-20T11:34:41.000Z</time>
        <extensions>
          <ns3:TrackPointExtension>
            <ns3:atemp>23.0</ns3:atemp>
          </ns3:TrackPointExtension>
        </extensions>
      </trkpt>
      <trkpt lat="42.4779864214360713958740234375" lon="20.1792414486408233642578125">
        <ele>1894.5999755859375</ele>
        <time>2026-06-20T11:34:42.000Z</time>
        <extensions>
          <ns3:TrackPointExtension>
            <ns3:atemp>23.0</ns3:atemp>
          </ns3:TrackPointExtension>
        </extensions>
      </trkpt>
      <trkpt lat="42.47795582748949527740478515625" lon="20.1792546920478343963623046875">
        <ele>1894.4000244140625</ele>
        <time>2026-06-20T11:34:43.000Z</time>
        <extensions>
          <ns3:TrackPointExtension>
            <ns3:atemp>23.0</ns3:atemp>
          </ns3:TrackPointExtension>
        </extensions>
      </trkpt>
      <trkpt lat="42.4779257364571094512939453125" lon="20.1792607270181179046630859375">
        <ele>1894.4000244140625</ele>
        <time>2026-06-20T11:34:44.000Z</time>
        <extensions>
          <ns3:TrackPointExtension>
            <ns3:atemp>23.0</ns3:atemp>
          </ns3:TrackPointExtension>
        </extensions>
      </trkpt>
      <trkpt lat="42.477890364825725555419921875" lon="20.17927053384482860565185546875">
        <ele>1894.199951171875</ele>
        <time>2026-06-20T11:34:45.000Z</time>
        <extensions>
          <ns3:TrackPointExtension>
            <ns3:atemp>23.0</ns3:atemp>
          </ns3:TrackPointExtension>
        </extensions>
      </trkpt>
      <trkpt lat="42.477864883840084075927734375" lon="20.179277993738651275634765625">
        <ele>1894</ele>
        <time>2026-06-20T11:34:46.000Z</time>
        <extensions>
          <ns3:TrackPointExtension>
            <ns3:atemp>23.0</ns3:atemp>
          </ns3:TrackPointExtension>
        </extensions>
      </trkpt>
      <trkpt lat="42.47784485109150409698486328125" lon="20.179277323186397552490234375">
        <ele>1893.800048828125</ele>
        <time>2026-06-20T11:34:47.000Z</time>
        <extensions>
          <ns3:TrackPointExtension>
            <ns3:atemp>23.0</ns3:atemp>
          </ns3:TrackPointExtension>
        </extensions>
      </trkpt>
      <trkpt lat="42.47782406397163867950439453125" lon="20.17926969565451145172119140625">
        <ele>1893.5999755859375</ele>
        <time>2026-06-20T11:34:48.000Z</time>
        <extensions>
          <ns3:TrackPointExtension>
            <ns3:atemp>23.0</ns3:atemp>
          </ns3:TrackPointExtension>
        </extensions>
      </trkpt>
      <trkpt lat="42.47780461795628070831298828125" lon="20.17925293184816837310791015625">
        <ele>1893.4000244140625</ele>
        <time>2026-06-20T11:34:49.000Z</time>
        <extensions>
          <ns3:TrackPointExtension>
            <ns3:atemp>23.0</ns3:atemp>
          </ns3:TrackPointExtension>
        </extensions>
      </trkpt>
      <trkpt lat="42.47778098098933696746826171875" lon="20.17923315055668354034423828125">
        <ele>1892.800048828125</ele>
        <time>2026-06-20T11:34:50.000Z</time>
        <extensions>
          <ns3:TrackPointExtension>
            <ns3:atemp>23.0</ns3:atemp>
          </ns3:TrackPointExtension>
        </extensions>
      </trkpt>
      <trkpt lat="42.4777574278414249420166015625" lon="20.179213620722293853759765625">
        <ele>1892.4000244140625</ele>
        <time>2026-06-20T11:34:51.000Z</time>
        <extensions>
          <ns3:TrackPointExtension>
            <ns3:atemp>23.0</ns3:atemp>
          </ns3:TrackPointExtension>
        </extensions>
      </trkpt>
      <trkpt lat="42.47774208895862102508544921875" lon="20.179199539124965667724609375">
        <ele>1891.800048828125</ele>
        <time>2026-06-20T11:34:52.000Z</time>
        <extensions>
          <ns3:TrackPointExtension>
            <ns3:atemp>23.0</ns3:atemp>
          </ns3:TrackPointExtension>
        </extensions>
      </trkpt>
      <trkpt lat="42.477728426456451416015625" lon="20.17917933873832225799560546875">
        <ele>1891.199951171875</ele>
        <time>2026-06-20T11:34:53.000Z</time>
        <extensions>
          <ns3:TrackPointExtension>
            <ns3:atemp>23.0</ns3:atemp>
          </ns3:TrackPointExtension>
        </extensions>
      </trkpt>
      <trkpt lat="42.47770638205111026763916015625" lon="20.17916911281645298004150390625">
        <ele>1890.5999755859375</ele>
        <time>2026-06-20T11:34:54.000Z</time>
        <extensions>
          <ns3:TrackPointExtension>
            <ns3:atemp>23.0</ns3:atemp>
          </ns3:TrackPointExtension>
        </extensions>
      </trkpt>
      <trkpt lat="42.4776836670935153961181640625" lon="20.179176069796085357666015625">
        <ele>1889.800048828125</ele>
        <time>2026-06-20T11:34:55.000Z</time>
        <extensions>
          <ns3:TrackPointExtension>
            <ns3:atemp>23.0</ns3:atemp>
          </ns3:TrackPointExtension>
        </extensions>
      </trkpt>
      <trkpt lat="42.47766966931521892547607421875" lon="20.17918713390827178955078125">
        <ele>1889.4000244140625</ele>
        <time>2026-06-20T11:34:56.000Z</time>
        <extensions>
          <ns3:TrackPointExtension>
            <ns3:atemp>23.0</ns3:atemp>
          </ns3:TrackPointExtension>
        </extensions>
      </trkpt>
      <trkpt lat="42.4776538275182247161865234375" lon="20.17919844947755336761474609375">
        <ele>1889</ele>
        <time>2026-06-20T11:34:57.000Z</time>
        <extensions>
          <ns3:TrackPointExtension>
            <ns3:atemp>23.0</ns3:atemp>
          </ns3:TrackPointExtension>
        </extensions>
      </trkpt>
      <trkpt lat="42.47763966210186481475830078125" lon="20.17921219579875469207763671875">
        <ele>1888.800048828125</ele>
        <time>2026-06-20T11:34:58.000Z</time>
        <extensions>
          <ns3:TrackPointExtension>
            <ns3:atemp>23.0</ns3:atemp>
          </ns3:TrackPointExtension>
        </extensions>
      </trkpt>
      <trkpt lat="42.4776253290474414825439453125" lon="20.17923273146152496337890625">
        <ele>1888.5999755859375</ele>
        <time>2026-06-20T11:34:59.000Z</time>
        <extensions>
          <ns3:TrackPointExtension>
            <ns3:atemp>23.0</ns3:atemp>
          </ns3:TrackPointExtension>
        </extensions>
      </trkpt>
      <trkpt lat="42.4776085652410984039306640625" lon="20.17925276421010494232177734375">
        <ele>1888.5999755859375</ele>
        <time>2026-06-20T11:35:00.000Z</time>
        <extensions>
          <ns3:TrackPointExtension>
            <ns3:atemp>23.0</ns3:atemp>
          </ns3:TrackPointExtension>
        </extensions>
      </trkpt>
      <trkpt lat="42.47758434154093265533447265625" lon="20.17926156520843505859375">
        <ele>1888.5999755859375</ele>
        <time>2026-06-20T11:35:01.000Z</time>
        <extensions>
          <ns3:TrackPointExtension>
            <ns3:atemp>23.0</ns3:atemp>
          </ns3:TrackPointExtension>
        </extensions>
      </trkpt>
      <trkpt lat="42.477553077042102813720703125" lon="20.1792684383690357208251953125">
        <ele>1888.5999755859375</ele>
        <time>2026-06-20T11:35:02.000Z</time>
        <extensions>
          <ns3:TrackPointExtension>
            <ns3:atemp>23.0</ns3:atemp>
          </ns3:TrackPointExtension>
        </extensions>
      </trkpt>
      <trkpt lat="42.47751896269619464874267578125" lon="20.17927229404449462890625">
        <ele>1888.4000244140625</ele>
        <time>2026-06-20T11:35:03.000Z</time>
        <extensions>
          <ns3:TrackPointExtension>
            <ns3:atemp>23.0</ns3:atemp>
          </ns3:TrackPointExtension>
        </extensions>
      </trkpt>
      <trkpt lat="42.47748208232223987579345703125" lon="20.17927774228155612945556640625">
        <ele>1888.199951171875</ele>
        <time>2026-06-20T11:35:04.000Z</time>
        <extensions>
          <ns3:TrackPointExtension>
            <ns3:atemp>23.0</ns3:atemp>
          </ns3:TrackPointExtension>
        </extensions>
      </trkpt>
      <trkpt lat="42.47744478285312652587890625" lon="20.179287381470203399658203125">
        <ele>1888</ele>
        <time>2026-06-20T11:35:05.000Z</time>
        <extensions>
          <ns3:TrackPointExtension>
            <ns3:atemp>23.0</ns3:atemp>
          </ns3:TrackPointExtension>
        </extensions>
      </trkpt>
      <trkpt lat="42.47741200961172580718994140625" lon="20.1792976073920726776123046875">
        <ele>1888</ele>
        <time>2026-06-20T11:35:06.000Z</time>
        <extensions>
          <ns3:TrackPointExtension>
            <ns3:atemp>23.0</ns3:atemp>
          </ns3:TrackPointExtension>
        </extensions>
      </trkpt>
      <trkpt lat="42.47738585807383060455322265625" lon="20.179312527179718017578125">
        <ele>1887.800048828125</ele>
        <time>2026-06-20T11:35:07.000Z</time>
        <extensions>
          <ns3:TrackPointExtension>
            <ns3:atemp>23.0</ns3:atemp>
          </ns3:TrackPointExtension>
        </extensions>
      </trkpt>
      <trkpt lat="42.4773601256310939788818359375" lon="20.1793264411389827728271484375">
        <ele>1887.800048828125</ele>
        <time>2026-06-20T11:35:08.000Z</time>
        <extensions>
          <ns3:TrackPointExtension>
            <ns3:atemp>23.0</ns3:atemp>
          </ns3:TrackPointExtension>
        </extensions>
      </trkpt>
      <trkpt lat="42.47733120806515216827392578125" lon="20.17933222465217113494873046875">
        <ele>1887.800048828125</ele>
        <time>2026-06-20T11:35:09.000Z</time>
        <extensions>
          <ns3:TrackPointExtension>
            <ns3:atemp>23.0</ns3:atemp>
          </ns3:TrackPointExtension>
        </extensions>
      </trkpt>
      <trkpt lat="42.47730170376598834991455078125" lon="20.17934261821210384368896484375">
        <ele>1887.800048828125</ele>
        <time>2026-06-20T11:35:10.000Z</time>
        <extensions>
          <ns3:TrackPointExtension>
            <ns3:atemp>23.0</ns3:atemp>
          </ns3:TrackPointExtension>
        </extensions>
      </trkpt>
      <trkpt lat="42.47727102600038051605224609375" lon="20.17935602925717830657958984375">
        <ele>1888</ele>
        <time>2026-06-20T11:35:11.000Z</time>
        <extensions>
          <ns3:TrackPointExtension>
            <ns3:atemp>23.0</ns3:atemp>
          </ns3:TrackPointExtension>
        </extensions>
      </trkpt>
      <trkpt lat="42.47723951004445552825927734375" lon="20.17936994321644306182861328125">
        <ele>1888</ele>
        <time>2026-06-20T11:35:12.000Z</time>
        <extensions>
          <ns3:TrackPointExtension>
            <ns3:atemp>23.0</ns3:atemp>
          </ns3:TrackPointExtension>
        </extensions>
      </trkpt>
      <trkpt lat="42.47720832936465740203857421875" lon="20.17938067205250263214111328125">
        <ele>1888.199951171875</ele>
        <time>2026-06-20T11:35:13.000Z</time>
        <extensions>
          <ns3:TrackPointExtension>
            <ns3:atemp>23.0</ns3:atemp>
          </ns3:TrackPointExtension>
        </extensions>
      </trkpt>
      <trkpt lat="42.47717714868485927581787109375" lon="20.17939022742211818695068359375">
        <ele>1888.199951171875</ele>
        <time>2026-06-20T11:35:14.000Z</time>
        <extensions>
          <ns3:TrackPointExtension>
            <ns3:atemp>23.0</ns3:atemp>
          </ns3:TrackPointExtension>
        </extensions>
      </trkpt>
      <trkpt lat="42.47714848257601261138916015625" lon="20.17939643003046512603759765625">
        <ele>1888.199951171875</ele>
        <time>2026-06-20T11:35:15.000Z</time>
        <extensions>
          <ns3:TrackPointExtension>
            <ns3:atemp>23.0</ns3:atemp>
          </ns3:TrackPointExtension>
        </extensions>
      </trkpt>
      <trkpt lat="42.47711889445781707763671875" lon="20.17940447665750980377197265625">
        <ele>1888.199951171875</ele>
        <time>2026-06-20T11:35:16.000Z</time>
        <extensions>
          <ns3:TrackPointExtension>
            <ns3:atemp>23.0</ns3:atemp>
          </ns3:TrackPointExtension>
        </extensions>
      </trkpt>
      <trkpt lat="42.47709265910089015960693359375" lon="20.17941654659807682037353515625">
        <ele>1888.199951171875</ele>
        <time>2026-06-20T11:35:17.000Z</time>
        <extensions>
          <ns3:TrackPointExtension>
            <ns3:atemp>23.0</ns3:atemp>
          </ns3:TrackPointExtension>
        </extensions>
      </trkpt>
      <trkpt lat="42.477070279419422149658203125" lon="20.1794330589473247528076171875">
        <ele>1888.199951171875</ele>
        <time>2026-06-20T11:35:18.000Z</time>
        <extensions>
          <ns3:TrackPointExtension>
            <ns3:atemp>23.0</ns3:atemp>
          </ns3:TrackPointExtension>
        </extensions>
      </trkpt>
      <trkpt lat="42.47704823501408100128173828125" lon="20.17945225350558757781982421875">
        <ele>1888.199951171875</ele>
        <time>2026-06-20T11:35:19.000Z</time>
        <extensions>
          <ns3:TrackPointExtension>
            <ns3:atemp>23.0</ns3:atemp>
          </ns3:TrackPointExtension>
        </extensions>
      </trkpt>
      <trkpt lat="42.47702208347618579864501953125" lon="20.1794665865600109100341796875">
        <ele>1888.199951171875</ele>
        <time>2026-06-20T11:35:20.000Z</time>
        <extensions>
          <ns3:TrackPointExtension>
            <ns3:atemp>23.0</ns3:atemp>
          </ns3:TrackPointExtension>
        </extensions>
      </trkpt>
      <trkpt lat="42.47699090279638767242431640625" lon="20.1794763095676898956298828125">
        <ele>1888.199951171875</ele>
        <time>2026-06-20T11:35:21.000Z</time>
        <extensions>
          <ns3:TrackPointExtension>
            <ns3:atemp>23.0</ns3:atemp>
          </ns3:TrackPointExtension>
        </extensions>
      </trkpt>
      <trkpt lat="42.476960308849811553955078125" lon="20.17948527820408344268798828125">
        <ele>1888.199951171875</ele>
        <time>2026-06-20T11:35:22.000Z</time>
        <extensions>
          <ns3:TrackPointExtension>
            <ns3:atemp>23.0</ns3:atemp>
          </ns3:TrackPointExtension>
        </extensions>
      </trkpt>
      <trkpt lat="42.47693407349288463592529296875" lon="20.1794940792024135589599609375">
        <ele>1888.199951171875</ele>
        <time>2026-06-20T11:35:23.000Z</time>
        <extensions>
          <ns3:TrackPointExtension>
            <ns3:atemp>23.0</ns3:atemp>
          </ns3:TrackPointExtension>
        </extensions>
      </trkpt>
      <trkpt lat="42.4769121967256069183349609375" lon="20.17950371839106082916259765625">
        <ele>1888.199951171875</ele>
        <time>2026-06-20T11:35:24.000Z</time>
        <extensions>
          <ns3:TrackPointExtension>
            <ns3:atemp>23.0</ns3:atemp>
          </ns3:TrackPointExtension>
        </extensions>
      </trkpt>
      <trkpt lat="42.47689400799572467803955078125" lon="20.17951578833162784576416015625">
        <ele>1888</ele>
        <time>2026-06-20T11:35:25.000Z</time>
        <extensions>
          <ns3:TrackPointExtension>
            <ns3:atemp>23.0</ns3:atemp>
          </ns3:TrackPointExtension>
        </extensions>
      </trkpt>
      <trkpt lat="42.47687322087585926055908203125" lon="20.17952182330191135406494140625">
        <ele>1887.800048828125</ele>
        <time>2026-06-20T11:35:26.000Z</time>
        <extensions>
          <ns3:TrackPointExtension>
            <ns3:atemp>23.0</ns3:atemp>
          </ns3:TrackPointExtension>
        </extensions>
      </trkpt>
      <trkpt lat="42.47684790752828121185302734375" lon="20.17952383495867252349853515625">
        <ele>1887.800048828125</ele>
        <time>2026-06-20T11:35:27.000Z</time>
        <extensions>
          <ns3:TrackPointExtension>
            <ns3:atemp>23.0</ns3:atemp>
          </ns3:TrackPointExtension>
        </extensions>
      </trkpt>
      <trkpt lat="42.47681907378137111663818359375" lon="20.1795232482254505157470703125">
        <ele>1887.5999755859375</ele>
        <time>2026-06-20T11:35:28.000Z</time>
        <extensions>
          <ns3:TrackPointExtension>
            <ns3:atemp>23.0</ns3:atemp>
          </ns3:TrackPointExtension>
        </extensions>
      </trkpt>
      <trkpt lat="42.47678923420608043670654296875" lon="20.1795239187777042388916015625">
        <ele>1887.5999755859375</ele>
        <time>2026-06-20T11:35:29.000Z</time>
        <extensions>
          <ns3:TrackPointExtension>
            <ns3:atemp>23.0</ns3:atemp>
          </ns3:TrackPointExtension>
        </extensions>
      </trkpt>
      <trkpt lat="42.476762495934963226318359375" lon="20.17953355796635150909423828125">
        <ele>1887.4000244140625</ele>
        <time>2026-06-20T11:35:30.000Z</time>
        <extensions>
          <ns3:TrackPointExtension>
            <ns3:atemp>23.0</ns3:atemp>
          </ns3:TrackPointExtension>
        </extensions>
      </trkpt>
      <trkpt lat="42.47674296610057353973388671875" lon="20.17953406088054180145263671875">
        <ele>1887.199951171875</ele>
        <time>2026-06-20T11:35:31.000Z</time>
        <extensions>
          <ns3:TrackPointExtension>
            <ns3:atemp>23.0</ns3:atemp>
          </ns3:TrackPointExtension>
        </extensions>
      </trkpt>
      <trkpt lat="42.4767224304378032684326171875" lon="20.17953137867152690887451171875">
        <ele>1887.199951171875</ele>
        <time>2026-06-20T11:35:32.000Z</time>
        <extensions>
          <ns3:TrackPointExtension>
            <ns3:atemp>23.0</ns3:atemp>
          </ns3:TrackPointExtension>
        </extensions>
      </trkpt>
      <trkpt lat="42.4766992963850498199462890625" lon="20.1795292831957340240478515625">
        <ele>1887</ele>
        <time>2026-06-20T11:35:33.000Z</time>
        <extensions>
          <ns3:TrackPointExtension>
            <ns3:atemp>23.0</ns3:atemp>
          </ns3:TrackPointExtension>
        </extensions>
      </trkpt>
      <trkpt lat="42.47667230665683746337890625" lon="20.17952785827219486236572265625">
        <ele>1886.800048828125</ele>
        <time>2026-06-20T11:35:34.000Z</time>
        <extensions>
          <ns3:TrackPointExtension>
            <ns3:atemp>23.0</ns3:atemp>
          </ns3:TrackPointExtension>
        </extensions>
      </trkpt>
      <trkpt lat="42.476644814014434814453125" lon="20.1795266009867191314697265625">
        <ele>1886.5999755859375</ele>
        <time>2026-06-20T11:35:35.000Z</time>
        <extensions>
          <ns3:TrackPointExtension>
            <ns3:atemp>23.0</ns3:atemp>
          </ns3:TrackPointExtension>
        </extensions>
      </trkpt>
      <trkpt lat="42.47661472298204898834228515625" lon="20.17952718771994113922119140625">
        <ele>1886.199951171875</ele>
        <time>2026-06-20T11:35:36.000Z</time>
        <extensions>
          <ns3:TrackPointExtension>
            <ns3:atemp>23.0</ns3:atemp>
          </ns3:TrackPointExtension>
        </extensions>
      </trkpt>
      <trkpt lat="42.47658471576869487762451171875" lon="20.17953104339540004730224609375">
        <ele>1886</ele>
        <time>2026-06-20T11:35:37.000Z</time>
        <extensions>
          <ns3:TrackPointExtension>
            <ns3:atemp>23.0</ns3:atemp>
          </ns3:TrackPointExtension>
        </extensions>
      </trkpt>
      <trkpt lat="42.4765604920685291290283203125" lon="20.17953506670892238616943359375">
        <ele>1885.800048828125</ele>
        <time>2026-06-20T11:35:38.000Z</time>
        <extensions>
          <ns3:TrackPointExtension>
            <ns3:atemp>23.0</ns3:atemp>
          </ns3:TrackPointExtension>
        </extensions>
      </trkpt>
      <trkpt lat="42.4765376932919025421142578125" lon="20.17953506670892238616943359375">
        <ele>1885.5999755859375</ele>
        <time>2026-06-20T11:35:39.000Z</time>
        <extensions>
          <ns3:TrackPointExtension>
            <ns3:atemp>23.0</ns3:atemp>
          </ns3:TrackPointExtension>
        </extensions>
      </trkpt>
      <trkpt lat="42.47651162557303905487060546875" lon="20.1795311272144317626953125">
        <ele>1885.5999755859375</ele>
        <time>2026-06-20T11:35:40.000Z</time>
        <extensions>
          <ns3:TrackPointExtension>
            <ns3:atemp>23.0</ns3:atemp>
          </ns3:TrackPointExtension>
        </extensions>
      </trkpt>
      <trkpt lat="42.47648396529257297515869140625" lon="20.17953137867152690887451171875">
        <ele>1885.5999755859375</ele>
        <time>2026-06-20T11:35:41.000Z</time>
        <extensions>
          <ns3:TrackPointExtension>
            <ns3:atemp>23.0</ns3:atemp>
          </ns3:TrackPointExtension>
        </extensions>
      </trkpt>
      <trkpt lat="42.4764528684318065643310546875" lon="20.1795369945466518402099609375">
        <ele>1885.5999755859375</ele>
        <time>2026-06-20T11:35:42.000Z</time>
        <extensions>
          <ns3:TrackPointExtension>
            <ns3:atemp>23.0</ns3:atemp>
          </ns3:TrackPointExtension>
        </extensions>
      </trkpt>
      <trkpt lat="42.47641975991427898406982421875" lon="20.1795410178601741790771484375">
        <ele>1885.4000244140625</ele>
        <time>2026-06-20T11:35:43.000Z</time>
        <extensions>
          <ns3:TrackPointExtension>
            <ns3:atemp>23.0</ns3:atemp>
          </ns3:TrackPointExtension>
        </extensions>
      </trkpt>
      <trkpt lat="42.47638371773064136505126953125" lon="20.179545544087886810302734375">
        <ele>1885.199951171875</ele>
        <time>2026-06-20T11:35:44.000Z</time>
        <extensions>
          <ns3:TrackPointExtension>
            <ns3:atemp>23.0</ns3:atemp>
          </ns3:TrackPointExtension>
        </extensions>
      </trkpt>
      <trkpt lat="42.47634641826152801513671875" lon="20.1795524172484874725341796875">
        <ele>1885.199951171875</ele>
        <time>2026-06-20T11:35:45.000Z</time>
        <extensions>
          <ns3:TrackPointExtension>
            <ns3:atemp>23.0</ns3:atemp>
          </ns3:TrackPointExtension>
        </extensions>
      </trkpt>
      <trkpt lat="42.476305849850177764892578125" lon="20.17955836839973926544189453125">
        <ele>1885</ele>
        <time>2026-06-20T11:35:46.000Z</time>
        <extensions>
          <ns3:TrackPointExtension>
            <ns3:atemp>23.0</ns3:atemp>
          </ns3:TrackPointExtension>
        </extensions>
      </trkpt>
      <trkpt lat="42.476263605058193206787109375" lon="20.17956725321710109710693359375">
        <ele>1884.800048828125</ele>
        <time>2026-06-20T11:35:47.000Z</time>
        <extensions>
          <ns3:TrackPointExtension>
            <ns3:atemp>23.0</ns3:atemp>
          </ns3:TrackPointExtension>
        </extensions>
      </trkpt>
      <trkpt lat="42.476224042475223541259765625" lon="20.1795752160251140594482421875">
        <ele>1884.5999755859375</ele>
        <time>2026-06-20T11:35:48.000Z</time>
        <extensions>
          <ns3:TrackPointExtension>
            <ns3:atemp>23.0</ns3:atemp>
          </ns3:TrackPointExtension>
        </extensions>
      </trkpt>
      <trkpt lat="42.47618556953966617584228515625" lon="20.17958410084247589111328125">
        <ele>1884.5999755859375</ele>
        <time>2026-06-20T11:35:49.000Z</time>
        <extensions>
          <ns3:TrackPointExtension>
            <ns3:atemp>23.0</ns3:atemp>
          </ns3:TrackPointExtension>
        </extensions>
      </trkpt>
      <trkpt lat="42.47615254484117031097412109375" lon="20.17959021963179111480712890625">
        <ele>1884.5999755859375</ele>
        <time>2026-06-20T11:35:50.000Z</time>
        <extensions>
          <ns3:TrackPointExtension>
            <ns3:atemp>23.0</ns3:atemp>
          </ns3:TrackPointExtension>
        </extensions>
      </trkpt>
      <trkpt lat="42.47611977159976959228515625" lon="20.17959122546017169952392578125">
        <ele>1884.5999755859375</ele>
        <time>2026-06-20T11:35:51.000Z</time>
        <extensions>
          <ns3:TrackPointExtension>
            <ns3:atemp>23.0</ns3:atemp>
          </ns3:TrackPointExtension>
        </extensions>
      </trkpt>
      <trkpt lat="42.4760874174535274505615234375" lon="20.17958971671760082244873046875">
        <ele>1884.4000244140625</ele>
        <time>2026-06-20T11:35:52.000Z</time>
        <extensions>
          <ns3:TrackPointExtension>
            <ns3:atemp>23.0</ns3:atemp>
          </ns3:TrackPointExtension>
        </extensions>
      </trkpt>
      <trkpt lat="42.47605481185019016265869140625" lon="20.1795872859656810760498046875">
        <ele>1884.4000244140625</ele>
        <time>2026-06-20T11:35:53.000Z</time>
        <extensions>
          <ns3:TrackPointExtension>
            <ns3:atemp>23.0</ns3:atemp>
          </ns3:TrackPointExtension>
        </extensions>
      </trkpt>
      <trkpt lat="42.4760213680565357208251953125" lon="20.17958971671760082244873046875">
        <ele>1884.5999755859375</ele>
        <time>2026-06-20T11:35:54.000Z</time>
        <extensions>
          <ns3:TrackPointExtension>
            <ns3:atemp>23.0</ns3:atemp>
          </ns3:TrackPointExtension>
        </extensions>
      </trkpt>
      <trkpt lat="42.4759942106902599334716796875" lon="20.1795928180217742919921875">
        <ele>1884.5999755859375</ele>
        <time>2026-06-20T11:35:55.000Z</time>
        <extensions>
          <ns3:TrackPointExtension>
            <ns3:atemp>23.0</ns3:atemp>
          </ns3:TrackPointExtension>
        </extensions>
      </trkpt>
      <trkpt lat="42.47597359120845794677734375" lon="20.17959441058337688446044921875">
        <ele>1884.5999755859375</ele>
        <time>2026-06-20T11:35:56.000Z</time>
        <extensions>
          <ns3:TrackPointExtension>
            <ns3:atemp>23.0</ns3:atemp>
          </ns3:TrackPointExtension>
        </extensions>
      </trkpt>
      <trkpt lat="42.4759519658982753753662109375" lon="20.1795990206301212310791015625">
        <ele>1884.5999755859375</ele>
        <time>2026-06-20T11:35:57.000Z</time>
        <extensions>
          <ns3:TrackPointExtension>
            <ns3:atemp>23.0</ns3:atemp>
          </ns3:TrackPointExtension>
        </extensions>
      </trkpt>
      <trkpt lat="42.47592958621680736541748046875" lon="20.1795973442494869232177734375">
        <ele>1884.800048828125</ele>
        <time>2026-06-20T11:35:58.000Z</time>
        <extensions>
          <ns3:TrackPointExtension>
            <ns3:atemp>23.0</ns3:atemp>
          </ns3:TrackPointExtension>
        </extensions>
      </trkpt>
      <trkpt lat="42.475905530154705047607421875" lon="20.17959591932594776153564453125">
        <ele>1884.800048828125</ele>
        <time>2026-06-20T11:35:59.000Z</time>
        <extensions>
          <ns3:TrackPointExtension>
            <ns3:atemp>23.0</ns3:atemp>
          </ns3:TrackPointExtension>
        </extensions>
      </trkpt>
      <trkpt lat="42.4758792109787464141845703125" lon="20.1795946620404720306396484375">
        <ele>1884.800048828125</ele>
        <time>2026-06-20T11:36:00.000Z</time>
        <extensions>
          <ns3:TrackPointExtension>
            <ns3:atemp>23.0</ns3:atemp>
          </ns3:TrackPointExtension>
        </extensions>
      </trkpt>
      <trkpt lat="42.47585431672632694244384765625" lon="20.17959524877369403839111328125">
        <ele>1884.800048828125</ele>
        <time>2026-06-20T11:36:01.000Z</time>
        <extensions>
          <ns3:TrackPointExtension>
            <ns3:atemp>23.0</ns3:atemp>
          </ns3:TrackPointExtension>
        </extensions>
      </trkpt>
      <trkpt lat="42.4758279137313365936279296875" lon="20.17959625460207462310791015625">
        <ele>1884.5999755859375</ele>
        <time>2026-06-20T11:36:02.000Z</time>
        <extensions>
          <ns3:TrackPointExtension>
            <ns3:atemp>23.0</ns3:atemp>
          </ns3:TrackPointExtension>
        </extensions>
      </trkpt>
      <trkpt lat="42.475800253450870513916015625" lon="20.1795946620404720306396484375">
        <ele>1884.5999755859375</ele>
        <time>2026-06-20T11:36:03.000Z</time>
        <extensions>
          <ns3:TrackPointExtension>
            <ns3:atemp>23.0</ns3:atemp>
          </ns3:TrackPointExtension>
        </extensions>
      </trkpt>
      <trkpt lat="42.4757735989987850189208984375" lon="20.1795973442494869232177734375">
        <ele>1884.5999755859375</ele>
        <time>2026-06-20T11:36:04.000Z</time>
        <extensions>
          <ns3:TrackPointExtension>
            <ns3:atemp>23.0</ns3:atemp>
          </ns3:TrackPointExtension>
        </extensions>
      </trkpt>
      <trkpt lat="42.4757474474608898162841796875" lon="20.17959658987820148468017578125">
        <ele>1884.4000244140625</ele>
        <time>2026-06-20T11:36:05.000Z</time>
        <extensions>
          <ns3:TrackPointExtension>
            <ns3:atemp>23.0</ns3:atemp>
          </ns3:TrackPointExtension>
        </extensions>
      </trkpt>
      <trkpt lat="42.4757202900946140289306640625" lon="20.1795899681746959686279296875">
        <ele>1884.4000244140625</ele>
        <time>2026-06-20T11:36:06.000Z</time>
        <extensions>
          <ns3:TrackPointExtension>
            <ns3:atemp>23.0</ns3:atemp>
          </ns3:TrackPointExtension>
        </extensions>
      </trkpt>
      <trkpt lat="42.47569321654736995697021484375" lon="20.17958301119506359100341796875">
        <ele>1884.4000244140625</ele>
        <time>2026-06-20T11:36:07.000Z</time>
        <extensions>
          <ns3:TrackPointExtension>
            <ns3:atemp>23.0</ns3:atemp>
          </ns3:TrackPointExtension>
        </extensions>
      </trkpt>
      <trkpt lat="42.47566656209528446197509765625" lon="20.17957068979740142822265625">
        <ele>1884.199951171875</ele>
        <time>2026-06-20T11:36:08.000Z</time>
        <extensions>
          <ns3:TrackPointExtension>
            <ns3:atemp>23.0</ns3:atemp>
          </ns3:TrackPointExtension>
        </extensions>
      </trkpt>
      <trkpt lat="42.475635297596454620361328125" lon="20.17955099232494831085205078125">
        <ele>1884</ele>
        <time>2026-06-20T11:36:09.000Z</time>
        <extensions>
          <ns3:TrackPointExtension>
            <ns3:atemp>23.0</ns3:atemp>
          </ns3:TrackPointExtension>
        </extensions>
      </trkpt>
      <trkpt lat="42.47560235671699047088623046875" lon="20.179530121386051177978515625">
        <ele>1883.800048828125</ele>
        <time>2026-06-20T11:36:10.000Z</time>
        <extensions>
          <ns3:TrackPointExtension>
            <ns3:atemp>23.0</ns3:atemp>
          </ns3:TrackPointExtension>
        </extensions>
      </trkpt>
      <trkpt lat="42.47556765563786029815673828125" lon="20.1795061491429805755615234375">
        <ele>1883.4000244140625</ele>
        <time>2026-06-20T11:36:11.000Z</time>
        <extensions>
          <ns3:TrackPointExtension>
            <ns3:atemp>23.0</ns3:atemp>
          </ns3:TrackPointExtension>
        </extensions>
      </trkpt>
      <trkpt lat="42.47553094290196895599365234375" lon="20.1794870384037494659423828125">
        <ele>1883</ele>
        <time>2026-06-20T11:36:12.000Z</time>
        <extensions>
          <ns3:TrackPointExtension>
            <ns3:atemp>23.0</ns3:atemp>
          </ns3:TrackPointExtension>
        </extensions>
      </trkpt>
      <trkpt lat="42.47549825347959995269775390625" lon="20.179470442235469818115234375">
        <ele>1882.5999755859375</ele>
        <time>2026-06-20T11:36:13.000Z</time>
        <extensions>
          <ns3:TrackPointExtension>
            <ns3:atemp>23.0</ns3:atemp>
          </ns3:TrackPointExtension>
        </extensions>
      </trkpt>
      <trkpt lat="42.4754674918949604034423828125" lon="20.17945627681910991668701171875">
        <ele>1882.4000244140625</ele>
        <time>2026-06-20T11:36:14.000Z</time>
        <extensions>
          <ns3:TrackPointExtension>
            <ns3:atemp>23.0</ns3:atemp>
          </ns3:TrackPointExtension>
        </extensions>
      </trkpt>
      <trkpt lat="42.47543580830097198486328125" lon="20.17944864928722381591796875">
        <ele>1882</ele>
        <time>2026-06-20T11:36:15.000Z</time>
        <extensions>
          <ns3:TrackPointExtension>
            <ns3:atemp>23.0</ns3:atemp>
          </ns3:TrackPointExtension>
        </extensions>
      </trkpt>
      <trkpt lat="42.475402615964412689208984375" lon="20.17944320105016231536865234375">
        <ele>1881.5999755859375</ele>
        <time>2026-06-20T11:36:16.000Z</time>
        <extensions>
          <ns3:TrackPointExtension>
            <ns3:atemp>23.0</ns3:atemp>
          </ns3:TrackPointExtension>
        </extensions>
      </trkpt>
      <trkpt lat="42.4753692559897899627685546875" lon="20.17944185994565486907958984375">
        <ele>1881.199951171875</ele>
        <time>2026-06-20T11:36:17.000Z</time>
        <extensions>
          <ns3:TrackPointExtension>
            <ns3:atemp>23.0</ns3:atemp>
          </ns3:TrackPointExtension>
        </extensions>
      </trkpt>
      <trkpt lat="42.4753399193286895751953125" lon="20.1794407702982425689697265625">
        <ele>1880.800048828125</ele>
        <time>2026-06-20T11:36:18.000Z</time>
        <extensions>
          <ns3:TrackPointExtension>
            <ns3:atemp>23.0</ns3:atemp>
          </ns3:TrackPointExtension>
        </extensions>
      </trkpt>
      <trkpt lat="42.475316114723682403564453125" lon="20.17944060266017913818359375">
        <ele>1880.4000244140625</ele>
        <time>2026-06-20T11:36:19.000Z</time>
        <extensions>
          <ns3:TrackPointExtension>
            <ns3:atemp>23.0</ns3:atemp>
          </ns3:TrackPointExtension>
        </extensions>
      </trkpt>
      <trkpt lat="42.4752931483089923858642578125" lon="20.1794451288878917694091796875">
        <ele>1880</ele>
        <time>2026-06-20T11:36:20.000Z</time>
        <extensions>
          <ns3:TrackPointExtension>
            <ns3:atemp>23.0</ns3:atemp>
          </ns3:TrackPointExtension>
        </extensions>
      </trkpt>
      <trkpt lat="42.4752706848084926605224609375" lon="20.17945325933396816253662109375">
        <ele>1879.800048828125</ele>
        <time>2026-06-20T11:36:21.000Z</time>
        <extensions>
          <ns3:TrackPointExtension>
            <ns3:atemp>23.0</ns3:atemp>
          </ns3:TrackPointExtension>
        </extensions>
      </trkpt>
      <trkpt lat="42.47524428181350231170654296875" lon="20.17945979721844196319580078125">
        <ele>1879.199951171875</ele>
        <time>2026-06-20T11:36:22.000Z</time>
        <extensions>
          <ns3:TrackPointExtension>
            <ns3:atemp>23.0</ns3:atemp>
          </ns3:TrackPointExtension>
        </extensions>
      </trkpt>
      <trkpt lat="42.47521226294338703155517578125" lon="20.179468430578708648681640625">
        <ele>1879</ele>
        <time>2026-06-20T11:36:23.000Z</time>
        <extensions>
          <ns3:TrackPointExtension>
            <ns3:atemp>23.0</ns3:atemp>
          </ns3:TrackPointExtension>
        </extensions>
      </trkpt>
      <trkpt lat="42.47518108226358890533447265625" lon="20.1794773153960704803466796875">
        <ele>1878.5999755859375</ele>
        <time>2026-06-20T11:36:24.000Z</time>
        <extensions>
          <ns3:TrackPointExtension>
            <ns3:atemp>23.0</ns3:atemp>
          </ns3:TrackPointExtension>
        </extensions>
      </trkpt>
      <trkpt lat="42.47515560127794742584228515625" lon="20.17948980443179607391357421875">
        <ele>1878.4000244140625</ele>
        <time>2026-06-20T11:36:25.000Z</time>
        <extensions>
          <ns3:TrackPointExtension>
            <ns3:atemp>23.0</ns3:atemp>
          </ns3:TrackPointExtension>
        </extensions>
      </trkpt>
      <trkpt lat="42.47512928210198879241943359375" lon="20.1795058138668537139892578125">
        <ele>1878.199951171875</ele>
        <time>2026-06-20T11:36:26.000Z</time>
        <extensions>
          <ns3:TrackPointExtension>
            <ns3:atemp>23.0</ns3:atemp>
          </ns3:TrackPointExtension>
        </extensions>
      </trkpt>
      <trkpt lat="42.475100867450237274169921875" lon="20.1795205660164356231689453125">
        <ele>1878</ele>
        <time>2026-06-20T11:36:27.000Z</time>
        <extensions>
          <ns3:TrackPointExtension>
            <ns3:atemp>23.0</ns3:atemp>
          </ns3:TrackPointExtension>
        </extensions>
      </trkpt>
      <trkpt lat="42.4750732071697711944580078125" lon="20.1795356534421443939208984375">
        <ele>1878</ele>
        <time>2026-06-20T11:36:28.000Z</time>
        <extensions>
          <ns3:TrackPointExtension>
            <ns3:atemp>23.0</ns3:atemp>
          </ns3:TrackPointExtension>
        </extensions>
      </trkpt>
      <trkpt lat="42.4750448763370513916015625" lon="20.1795499026775360107421875">
        <ele>1877.800048828125</ele>
        <time>2026-06-20T11:36:29.000Z</time>
        <extensions>
          <ns3:TrackPointExtension>
            <ns3:atemp>23.0</ns3:atemp>
          </ns3:TrackPointExtension>
        </extensions>
      </trkpt>
      <trkpt lat="42.4750168807804584503173828125" lon="20.17956155352294445037841796875">
        <ele>1877.800048828125</ele>
        <time>2026-06-20T11:36:30.000Z</time>
        <extensions>
          <ns3:TrackPointExtension>
            <ns3:atemp>23.0</ns3:atemp>
          </ns3:TrackPointExtension>
        </extensions>
      </trkpt>
      <trkpt lat="42.47499064542353153228759765625" lon="20.179571695625782012939453125">
        <ele>1877.800048828125</ele>
        <time>2026-06-20T11:36:31.000Z</time>
        <extensions>
          <ns3:TrackPointExtension>
            <ns3:atemp>23.0</ns3:atemp>
          </ns3:TrackPointExtension>
        </extensions>
      </trkpt>
      <trkpt lat="42.474968768656253814697265625" lon="20.179579071700572967529296875">
        <ele>1878</ele>
        <time>2026-06-20T11:36:32.000Z</time>
        <extensions>
          <ns3:TrackPointExtension>
            <ns3:atemp>23.0</ns3:atemp>
          </ns3:TrackPointExtension>
        </extensions>
      </trkpt>
      <trkpt lat="42.4749458022415637969970703125" lon="20.17958351410925388336181640625">
        <ele>1878</ele>
        <time>2026-06-20T11:36:33.000Z</time>
        <extensions>
          <ns3:TrackPointExtension>
            <ns3:atemp>23.0</ns3:atemp>
          </ns3:TrackPointExtension>
        </extensions>
      </trkpt>
      <trkpt lat="42.4749230034649372100830078125" lon="20.17958921380341053009033203125">
        <ele>1878</ele>
        <time>2026-06-20T11:36:34.000Z</time>
        <extensions>
          <ns3:TrackPointExtension>
            <ns3:atemp>23.0</ns3:atemp>
          </ns3:TrackPointExtension>
        </extensions>
      </trkpt>
      <trkpt lat="42.4748985283076763153076171875" lon="20.17959206365048885345458984375">
        <ele>1878</ele>
        <time>2026-06-20T11:36:35.000Z</time>
        <extensions>
          <ns3:TrackPointExtension>
            <ns3:atemp>23.0</ns3:atemp>
          </ns3:TrackPointExtension>
        </extensions>
      </trkpt>
      <trkpt lat="42.47487430460751056671142578125" lon="20.179591476917266845703125">
        <ele>1878</ele>
        <time>2026-06-20T11:36:36.000Z</time>
        <extensions>
          <ns3:TrackPointExtension>
            <ns3:atemp>23.0</ns3:atemp>
          </ns3:TrackPointExtension>
        </extensions>
      </trkpt>
      <trkpt lat="42.47484706342220306396484375" lon="20.17959005199372768402099609375">
        <ele>1877.800048828125</ele>
        <time>2026-06-20T11:36:37.000Z</time>
        <extensions>
          <ns3:TrackPointExtension>
            <ns3:atemp>23.0</ns3:atemp>
          </ns3:TrackPointExtension>
        </extensions>
      </trkpt>
      <trkpt lat="42.4748147092759609222412109375" lon="20.17958141863346099853515625">
        <ele>1877.4000244140625</ele>
        <time>2026-06-20T11:36:38.000Z</time>
        <extensions>
          <ns3:TrackPointExtension>
            <ns3:atemp>23.0</ns3:atemp>
          </ns3:TrackPointExtension>
        </extensions>
      </trkpt>
      <trkpt lat="42.4747758172452449798583984375" lon="20.1795780658721923828125">
        <ele>1877</ele>
        <time>2026-06-20T11:36:39.000Z</time>
        <extensions>
          <ns3:TrackPointExtension>
            <ns3:atemp>23.0</ns3:atemp>
          </ns3:TrackPointExtension>
        </extensions>
      </trkpt>
      <trkpt lat="42.47473843395709991455078125" lon="20.17957949079573154449462890625">
        <ele>1876.5999755859375</ele>
        <time>2026-06-20T11:36:40.000Z</time>
        <extensions>
          <ns3:TrackPointExtension>
            <ns3:atemp>23.0</ns3:atemp>
          </ns3:TrackPointExtension>
        </extensions>
      </trkpt>
      <trkpt lat="42.474705241620540618896484375" lon="20.17958904616534709930419921875">
        <ele>1876.199951171875</ele>
        <time>2026-06-20T11:36:41.000Z</time>
        <extensions>
          <ns3:TrackPointExtension>
            <ns3:atemp>23.0</ns3:atemp>
          </ns3:TrackPointExtension>
        </extensions>
      </trkpt>
      <trkpt lat="42.47467816807329654693603515625" lon="20.17960966564714908599853515625">
        <ele>1875.800048828125</ele>
        <time>2026-06-20T11:36:42.000Z</time>
        <extensions>
          <ns3:TrackPointExtension>
            <ns3:atemp>23.0</ns3:atemp>
          </ns3:TrackPointExtension>
        </extensions>
      </trkpt>
      <trkpt lat="42.47465939261019229888916015625" lon="20.17963883467018604278564453125">
        <ele>1875.4000244140625</ele>
        <time>2026-06-20T11:36:43.000Z</time>
        <extensions>
          <ns3:TrackPointExtension>
            <ns3:atemp>23.0</ns3:atemp>
          </ns3:TrackPointExtension>
        </extensions>
      </trkpt>
      <trkpt lat="42.47464455664157867431640625" lon="20.17966431565582752227783203125">
        <ele>1875.4000244140625</ele>
        <time>2026-06-20T11:36:44.000Z</time>
        <extensions>
          <ns3:TrackPointExtension>
            <ns3:atemp>23.0</ns3:atemp>
          </ns3:TrackPointExtension>
        </extensions>
      </trkpt>
      <trkpt lat="42.47462972067296504974365234375" lon="20.1796902157366275787353515625">
        <ele>1875.199951171875</ele>
        <time>2026-06-20T11:36:45.000Z</time>
        <extensions>
          <ns3:TrackPointExtension>
            <ns3:atemp>23.0</ns3:atemp>
          </ns3:TrackPointExtension>
        </extensions>
      </trkpt>
      <trkpt lat="42.47461102902889251708984375" lon="20.1797140203416347503662109375">
        <ele>1875.199951171875</ele>
        <time>2026-06-20T11:36:46.000Z</time>
        <extensions>
          <ns3:TrackPointExtension>
            <ns3:atemp>23.0</ns3:atemp>
          </ns3:TrackPointExtension>
        </extensions>
      </trkpt>
      <trkpt lat="42.47459133155643939971923828125" lon="20.1797338016331195831298828125">
        <ele>1875.199951171875</ele>
        <time>2026-06-20T11:36:47.000Z</time>
        <extensions>
          <ns3:TrackPointExtension>
            <ns3:atemp>23.0</ns3:atemp>
          </ns3:TrackPointExtension>
        </extensions>
      </trkpt>
      <trkpt lat="42.4745666049420833587646484375" lon="20.17974696122109889984130859375">
        <ele>1875.4000244140625</ele>
        <time>2026-06-20T11:36:48.000Z</time>
        <extensions>
          <ns3:TrackPointExtension>
            <ns3:atemp>23.0</ns3:atemp>
          </ns3:TrackPointExtension>
        </extensions>
      </trkpt>
      <trkpt lat="42.47453886084258556365966796875" lon="20.1797596178948879241943359375">
        <ele>1875.800048828125</ele>
        <time>2026-06-20T11:36:49.000Z</time>
        <extensions>
          <ns3:TrackPointExtension>
            <ns3:atemp>23.0</ns3:atemp>
          </ns3:TrackPointExtension>
        </extensions>
      </trkpt>
      <trkpt lat="42.47451086528599262237548828125" lon="20.1797679997980594635009765625">
        <ele>1875.800048828125</ele>
        <time>2026-06-20T11:36:50.000Z</time>
        <extensions>
          <ns3:TrackPointExtension>
            <ns3:atemp>23.0</ns3:atemp>
          </ns3:TrackPointExtension>
        </extensions>
      </trkpt>
      <trkpt lat="42.47448270209133625030517578125" lon="20.17977654933929443359375">
        <ele>1876</ele>
        <time>2026-06-20T11:36:51.000Z</time>
        <extensions>
          <ns3:TrackPointExtension>
            <ns3:atemp>23.0</ns3:atemp>
          </ns3:TrackPointExtension>
        </extensions>
      </trkpt>
      <trkpt lat="42.4744521081447601318359375" lon="20.17978727817535400390625">
        <ele>1876</ele>
        <time>2026-06-20T11:36:52.000Z</time>
        <extensions>
          <ns3:TrackPointExtension>
            <ns3:atemp>23.0</ns3:atemp>
          </ns3:TrackPointExtension>
        </extensions>
      </trkpt>
      <trkpt lat="42.47442101128399372100830078125" lon="20.179797001183032989501953125">
        <ele>1876</ele>
        <time>2026-06-20T11:36:53.000Z</time>
        <extensions>
          <ns3:TrackPointExtension>
            <ns3:atemp>23.0</ns3:atemp>
          </ns3:TrackPointExtension>
        </extensions>
      </trkpt>
      <trkpt lat="42.4743892438709735870361328125" lon="20.17980144359171390533447265625">
        <ele>1875.800048828125</ele>
        <time>2026-06-20T11:36:54.000Z</time>
        <extensions>
          <ns3:TrackPointExtension>
            <ns3:atemp>23.0</ns3:atemp>
          </ns3:TrackPointExtension>
        </extensions>
      </trkpt>
      <trkpt lat="42.47435680590569972991943359375" lon="20.17980194650590419769287109375">
        <ele>1875.800048828125</ele>
        <time>2026-06-20T11:36:55.000Z</time>
        <extensions>
          <ns3:TrackPointExtension>
            <ns3:atemp>23.0</ns3:atemp>
          </ns3:TrackPointExtension>
        </extensions>
      </trkpt>
      <trkpt lat="42.4743211828172206878662109375" lon="20.17979742027819156646728515625">
        <ele>1876</ele>
        <time>2026-06-20T11:36:56.000Z</time>
        <extensions>
          <ns3:TrackPointExtension>
            <ns3:atemp>23.0</ns3:atemp>
          </ns3:TrackPointExtension>
        </extensions>
      </trkpt>
      <trkpt lat="42.47428572736680507659912109375" lon="20.17979239113628864288330078125">
        <ele>1876</ele>
        <time>2026-06-20T11:36:57.000Z</time>
        <extensions>
          <ns3:TrackPointExtension>
            <ns3:atemp>23.0</ns3:atemp>
          </ns3:TrackPointExtension>
        </extensions>
      </trkpt>
      <trkpt lat="42.47425102628767490386962890625" lon="20.1797894574701786041259765625">
        <ele>1876</ele>
        <time>2026-06-20T11:36:58.000Z</time>
        <extensions>
          <ns3:TrackPointExtension>
            <ns3:atemp>23.0</ns3:atemp>
          </ns3:TrackPointExtension>
        </extensions>
      </trkpt>
      <trkpt lat="42.474214732646942138671875" lon="20.1797859370708465576171875">
        <ele>1876</ele>
        <time>2026-06-20T11:36:59.000Z</time>
        <extensions>
          <ns3:TrackPointExtension>
            <ns3:atemp>23.0</ns3:atemp>
          </ns3:TrackPointExtension>
        </extensions>
      </trkpt>
      <trkpt lat="42.4741823785006999969482421875" lon="20.1797814108431339263916015625">
        <ele>1876</ele>
        <time>2026-06-20T11:37:00.000Z</time>
        <extensions>
          <ns3:TrackPointExtension>
            <ns3:atemp>23.0</ns3:atemp>
          </ns3:TrackPointExtension>
        </extensions>
      </trkpt>
      <trkpt lat="42.4741515330970287322998046875" lon="20.17977797426283359527587890625">
        <ele>1876.199951171875</ele>
        <time>2026-06-20T11:37:01.000Z</time>
        <extensions>
          <ns3:TrackPointExtension>
            <ns3:atemp>23.0</ns3:atemp>
          </ns3:TrackPointExtension>
        </extensions>
      </trkpt>
      <trkpt lat="42.47411943040788173675537109375" lon="20.179779231548309326171875">
        <ele>1876.199951171875</ele>
        <time>2026-06-20T11:37:02.000Z</time>
        <extensions>
          <ns3:TrackPointExtension>
            <ns3:atemp>23.0</ns3:atemp>
          </ns3:TrackPointExtension>
        </extensions>
      </trkpt>
      <trkpt lat="42.4740858189761638641357421875" lon="20.179778225719928741455078125">
        <ele>1876.4000244140625</ele>
        <time>2026-06-20T11:37:03.000Z</time>
        <extensions>
          <ns3:TrackPointExtension>
            <ns3:atemp>23.0</ns3:atemp>
          </ns3:TrackPointExtension>
        </extensions>
      </trkpt>
      <trkpt lat="42.4740549735724925994873046875" lon="20.17977587878704071044921875">
        <ele>1876.5999755859375</ele>
        <time>2026-06-20T11:37:04.000Z</time>
        <extensions>
          <ns3:TrackPointExtension>
            <ns3:atemp>23.0</ns3:atemp>
          </ns3:TrackPointExtension>
        </extensions>
      </trkpt>
      <trkpt lat="42.47402220033109188079833984375" lon="20.179777555167675018310546875">
        <ele>1876.800048828125</ele>
        <time>2026-06-20T11:37:05.000Z</time>
        <extensions>
          <ns3:TrackPointExtension>
            <ns3:atemp>23.0</ns3:atemp>
          </ns3:TrackPointExtension>
        </extensions>
      </trkpt>
      <trkpt lat="42.47398741543292999267578125" lon="20.17977914772927761077880859375">
        <ele>1876.800048828125</ele>
        <time>2026-06-20T11:37:06.000Z</time>
        <extensions>
          <ns3:TrackPointExtension>
            <ns3:atemp>23.0</ns3:atemp>
          </ns3:TrackPointExtension>
        </extensions>
      </trkpt>
      <trkpt lat="42.47395145706832408905029296875" lon="20.1797814108431339263916015625">
        <ele>1876.800048828125</ele>
        <time>2026-06-20T11:37:07.000Z</time>
        <extensions>
          <ns3:TrackPointExtension>
            <ns3:atemp>23.0</ns3:atemp>
          </ns3:TrackPointExtension>
        </extensions>
      </trkpt>
      <trkpt lat="42.473917342722415924072265625" lon="20.17978501506149768829345703125">
        <ele>1876.800048828125</ele>
        <time>2026-06-20T11:37:08.000Z</time>
        <extensions>
          <ns3:TrackPointExtension>
            <ns3:atemp>23.0</ns3:atemp>
          </ns3:TrackPointExtension>
        </extensions>
      </trkpt>
      <trkpt lat="42.4738846533000469207763671875" lon="20.1797859370708465576171875">
        <ele>1876.800048828125</ele>
        <time>2026-06-20T11:37:09.000Z</time>
        <extensions>
          <ns3:TrackPointExtension>
            <ns3:atemp>23.0</ns3:atemp>
          </ns3:TrackPointExtension>
        </extensions>
      </trkpt>
      <trkpt lat="42.4738524667918682098388671875" lon="20.179784595966339111328125">
        <ele>1876.800048828125</ele>
        <time>2026-06-20T11:37:10.000Z</time>
        <extensions>
          <ns3:TrackPointExtension>
            <ns3:atemp>23.0</ns3:atemp>
          </ns3:TrackPointExtension>
        </extensions>
      </trkpt>
      <trkpt lat="42.47381935827434062957763671875" lon="20.17978250049054622650146484375">
        <ele>1877</ele>
        <time>2026-06-20T11:37:11.000Z</time>
        <extensions>
          <ns3:TrackPointExtension>
            <ns3:atemp>23.0</ns3:atemp>
          </ns3:TrackPointExtension>
        </extensions>
      </trkpt>
      <trkpt lat="42.4737850762903690338134765625" lon="20.1797757111489772796630859375">
        <ele>1877.199951171875</ele>
        <time>2026-06-20T11:37:12.000Z</time>
        <extensions>
          <ns3:TrackPointExtension>
            <ns3:atemp>23.0</ns3:atemp>
          </ns3:TrackPointExtension>
        </extensions>
      </trkpt>
      <trkpt lat="42.4737478606402873992919921875" lon="20.17976691015064716339111328125">
        <ele>1877.199951171875</ele>
        <time>2026-06-20T11:37:13.000Z</time>
        <extensions>
          <ns3:TrackPointExtension>
            <ns3:atemp>23.0</ns3:atemp>
          </ns3:TrackPointExtension>
        </extensions>
      </trkpt>
      <trkpt lat="42.47370989061892032623291015625" lon="20.17975282855331897735595703125">
        <ele>1877.199951171875</ele>
        <time>2026-06-20T11:37:14.000Z</time>
        <extensions>
          <ns3:TrackPointExtension>
            <ns3:atemp>23.0</ns3:atemp>
          </ns3:TrackPointExtension>
        </extensions>
      </trkpt>
      <trkpt lat="42.47367384843528270721435546875" lon="20.1797348074615001678466796875">
        <ele>1877.199951171875</ele>
        <time>2026-06-20T11:37:15.000Z</time>
        <extensions>
          <ns3:TrackPointExtension>
            <ns3:atemp>23.0</ns3:atemp>
          </ns3:TrackPointExtension>
        </extensions>
      </trkpt>
      <trkpt lat="42.47364216484129428863525390625" lon="20.17971795983612537384033203125">
        <ele>1877.199951171875</ele>
        <time>2026-06-20T11:37:16.000Z</time>
        <extensions>
          <ns3:TrackPointExtension>
            <ns3:atemp>23.0</ns3:atemp>
          </ns3:TrackPointExtension>
        </extensions>
      </trkpt>
      <trkpt lat="42.4736164323985576629638671875" lon="20.1797069795429706573486328125">
        <ele>1877.199951171875</ele>
        <time>2026-06-20T11:37:17.000Z</time>
        <extensions>
          <ns3:TrackPointExtension>
            <ns3:atemp>23.0</ns3:atemp>
          </ns3:TrackPointExtension>
        </extensions>
      </trkpt>
      <trkpt lat="42.47358701191842555999755859375" lon="20.17970069311559200286865234375">
        <ele>1877.4000244140625</ele>
        <time>2026-06-20T11:37:18.000Z</time>
        <extensions>
          <ns3:TrackPointExtension>
            <ns3:atemp>23.0</ns3:atemp>
          </ns3:TrackPointExtension>
        </extensions>
      </trkpt>
      <trkpt lat="42.4735544063150882720947265625" lon="20.17969918437302112579345703125">
        <ele>1877.4000244140625</ele>
        <time>2026-06-20T11:37:19.000Z</time>
        <extensions>
          <ns3:TrackPointExtension>
            <ns3:atemp>23.0</ns3:atemp>
          </ns3:TrackPointExtension>
        </extensions>
      </trkpt>
      <trkpt lat="42.4735240638256072998046875" lon="20.17970371060073375701904296875">
        <ele>1877.5999755859375</ele>
        <time>2026-06-20T11:37:20.000Z</time>
        <extensions>
          <ns3:TrackPointExtension>
            <ns3:atemp>23.0</ns3:atemp>
          </ns3:TrackPointExtension>
        </extensions>
      </trkpt>
      <trkpt lat="42.47349162586033344268798828125" lon="20.17970806919038295745849609375">
        <ele>1877.800048828125</ele>
        <time>2026-06-20T11:37:21.000Z</time>
        <extensions>
          <ns3:TrackPointExtension>
            <ns3:atemp>23.0</ns3:atemp>
          </ns3:TrackPointExtension>
        </extensions>
      </trkpt>
      <trkpt lat="42.47346295975148677825927734375" lon="20.1797108352184295654296875">
        <ele>1877.800048828125</ele>
        <time>2026-06-20T11:37:22.000Z</time>
        <extensions>
          <ns3:TrackPointExtension>
            <ns3:atemp>23.0</ns3:atemp>
          </ns3:TrackPointExtension>
        </extensions>
      </trkpt>
      <trkpt lat="42.473433874547481536865234375" lon="20.17971795983612537384033203125">
        <ele>1878</ele>
        <time>2026-06-20T11:37:23.000Z</time>
        <extensions>
          <ns3:TrackPointExtension>
            <ns3:atemp>23.0</ns3:atemp>
          </ns3:TrackPointExtension>
        </extensions>
      </trkpt>
      <trkpt lat="42.47340143658220767974853515625" lon="20.17972759902477264404296875">
        <ele>1878.199951171875</ele>
        <time>2026-06-20T11:37:24.000Z</time>
        <extensions>
          <ns3:TrackPointExtension>
            <ns3:atemp>23.0</ns3:atemp>
          </ns3:TrackPointExtension>
        </extensions>
      </trkpt>
      <trkpt lat="42.47336447238922119140625" lon="20.17973556183278560638427734375">
        <ele>1878.4000244140625</ele>
        <time>2026-06-20T11:37:25.000Z</time>
        <extensions>
          <ns3:TrackPointExtension>
            <ns3:atemp>23.0</ns3:atemp>
          </ns3:TrackPointExtension>
        </extensions>
      </trkpt>
      <trkpt lat="42.47333052568137645721435546875" lon="20.1797430217266082763671875">
        <ele>1878.4000244140625</ele>
        <time>2026-06-20T11:37:26.000Z</time>
        <extensions>
          <ns3:TrackPointExtension>
            <ns3:atemp>23.0</ns3:atemp>
          </ns3:TrackPointExtension>
        </extensions>
      </trkpt>
      <trkpt lat="42.47329565696418285369873046875" lon="20.1797462068498134613037109375">
        <ele>1878.5999755859375</ele>
        <time>2026-06-20T11:37:27.000Z</time>
        <extensions>
          <ns3:TrackPointExtension>
            <ns3:atemp>23.0</ns3:atemp>
          </ns3:TrackPointExtension>
        </extensions>
      </trkpt>
      <trkpt lat="42.47325827367603778839111328125" lon="20.17974679358303546905517578125">
        <ele>1878.5999755859375</ele>
        <time>2026-06-20T11:37:28.000Z</time>
        <extensions>
          <ns3:TrackPointExtension>
            <ns3:atemp>23.0</ns3:atemp>
          </ns3:TrackPointExtension>
        </extensions>
      </trkpt>
      <trkpt lat="42.47322357259690761566162109375" lon="20.1797445304691791534423828125">
        <ele>1878.5999755859375</ele>
        <time>2026-06-20T11:37:29.000Z</time>
        <extensions>
          <ns3:TrackPointExtension>
            <ns3:atemp>23.0</ns3:atemp>
          </ns3:TrackPointExtension>
        </extensions>
      </trkpt>
      <trkpt lat="42.4731892906129360198974609375" lon="20.17974008806049823760986328125">
        <ele>1878.5999755859375</ele>
        <time>2026-06-20T11:37:30.000Z</time>
        <extensions>
          <ns3:TrackPointExtension>
            <ns3:atemp>23.0</ns3:atemp>
          </ns3:TrackPointExtension>
        </extensions>
      </trkpt>
      <trkpt lat="42.47315383516252040863037109375" lon="20.17973606474697589874267578125">
        <ele>1878.800048828125</ele>
        <time>2026-06-20T11:37:31.000Z</time>
        <extensions>
          <ns3:TrackPointExtension>
            <ns3:atemp>23.0</ns3:atemp>
          </ns3:TrackPointExtension>
        </extensions>
      </trkpt>
      <trkpt lat="42.47311712242662906646728515625" lon="20.17973137088119983673095703125">
        <ele>1878.800048828125</ele>
        <time>2026-06-20T11:37:32.000Z</time>
        <extensions>
          <ns3:TrackPointExtension>
            <ns3:atemp>23.0</ns3:atemp>
          </ns3:TrackPointExtension>
        </extensions>
      </trkpt>
      <trkpt lat="42.47307957150042057037353515625" lon="20.17972785048186779022216796875">
        <ele>1878.800048828125</ele>
        <time>2026-06-20T11:37:33.000Z</time>
        <extensions>
          <ns3:TrackPointExtension>
            <ns3:atemp>23.0</ns3:atemp>
          </ns3:TrackPointExtension>
        </extensions>
      </trkpt>
      <trkpt lat="42.47304260730743408203125" lon="20.17972349189221858978271484375">
        <ele>1879</ele>
        <time>2026-06-20T11:37:34.000Z</time>
        <extensions>
          <ns3:TrackPointExtension>
            <ns3:atemp>23.0</ns3:atemp>
          </ns3:TrackPointExtension>
        </extensions>
      </trkpt>
      <trkpt lat="42.47300706803798675537109375" lon="20.1797217316925525665283203125">
        <ele>1879.199951171875</ele>
        <time>2026-06-20T11:37:35.000Z</time>
        <extensions>
          <ns3:TrackPointExtension>
            <ns3:atemp>23.0</ns3:atemp>
          </ns3:TrackPointExtension>
        </extensions>
      </trkpt>
      <trkpt lat="42.4729703553020954132080078125" lon="20.17972215078771114349365234375">
        <ele>1879.4000244140625</ele>
        <time>2026-06-20T11:37:36.000Z</time>
        <extensions>
          <ns3:TrackPointExtension>
            <ns3:atemp>23.0</ns3:atemp>
          </ns3:TrackPointExtension>
        </extensions>
      </trkpt>
      <trkpt lat="42.47293422929942607879638671875" lon="20.17972315661609172821044921875">
        <ele>1879.5999755859375</ele>
        <time>2026-06-20T11:37:37.000Z</time>
        <extensions>
          <ns3:TrackPointExtension>
            <ns3:atemp>23.0</ns3:atemp>
          </ns3:TrackPointExtension>
        </extensions>
      </trkpt>
      <trkpt lat="42.472899444401264190673828125" lon="20.179723910987377166748046875">
        <ele>1879.800048828125</ele>
        <time>2026-06-20T11:37:38.000Z</time>
        <extensions>
          <ns3:TrackPointExtension>
            <ns3:atemp>23.0</ns3:atemp>
          </ns3:TrackPointExtension>
        </extensions>
      </trkpt>
      <trkpt lat="42.4728642404079437255859375" lon="20.1797270961105823516845703125">
        <ele>1880</ele>
        <time>2026-06-20T11:37:39.000Z</time>
        <extensions>
          <ns3:TrackPointExtension>
            <ns3:atemp>23.0</ns3:atemp>
          </ns3:TrackPointExtension>
        </extensions>
      </trkpt>
      <trkpt lat="42.4728275276720523834228515625" lon="20.17973170615732669830322265625">
        <ele>1880</ele>
        <time>2026-06-20T11:37:40.000Z</time>
        <extensions>
          <ns3:TrackPointExtension>
            <ns3:atemp>23.0</ns3:atemp>
          </ns3:TrackPointExtension>
        </extensions>
      </trkpt>
      <trkpt lat="42.47279115021228790283203125" lon="20.17973656766116619110107421875">
        <ele>1880.199951171875</ele>
        <time>2026-06-20T11:37:41.000Z</time>
        <extensions>
          <ns3:TrackPointExtension>
            <ns3:atemp>23.0</ns3:atemp>
          </ns3:TrackPointExtension>
        </extensions>
      </trkpt>
      <trkpt lat="42.47275485657155513763427734375" lon="20.17973832786083221435546875">
        <ele>1880.199951171875</ele>
        <time>2026-06-20T11:37:42.000Z</time>
        <extensions>
          <ns3:TrackPointExtension>
            <ns3:atemp>23.0</ns3:atemp>
          </ns3:TrackPointExtension>
        </extensions>
      </trkpt>
      <trkpt lat="42.4727168865501880645751953125" lon="20.17973757348954677581787109375">
        <ele>1880.199951171875</ele>
        <time>2026-06-20T11:37:43.000Z</time>
        <extensions>
          <ns3:TrackPointExtension>
            <ns3:atemp>23.0</ns3:atemp>
          </ns3:TrackPointExtension>
        </extensions>
      </trkpt>
      <trkpt lat="42.47267891652882099151611328125" lon="20.1797361485660076141357421875">
        <ele>1880.4000244140625</ele>
        <time>2026-06-20T11:37:44.000Z</time>
        <extensions>
          <ns3:TrackPointExtension>
            <ns3:atemp>23.0</ns3:atemp>
          </ns3:TrackPointExtension>
        </extensions>
      </trkpt>
      <trkpt lat="42.47264086268842220306396484375" lon="20.17973589710891246795654296875">
        <ele>1880.4000244140625</ele>
        <time>2026-06-20T11:37:45.000Z</time>
        <extensions>
          <ns3:TrackPointExtension>
            <ns3:atemp>23.0</ns3:atemp>
          </ns3:TrackPointExtension>
        </extensions>
      </trkpt>
      <trkpt lat="42.472602389752864837646484375" lon="20.1797389984130859375">
        <ele>1880.4000244140625</ele>
        <time>2026-06-20T11:37:46.000Z</time>
        <extensions>
          <ns3:TrackPointExtension>
            <ns3:atemp>23.0</ns3:atemp>
          </ns3:TrackPointExtension>
        </extensions>
      </trkpt>
      <trkpt lat="42.47256743721663951873779296875" lon="20.17974327318370342254638671875">
        <ele>1880.5999755859375</ele>
        <time>2026-06-20T11:37:47.000Z</time>
        <extensions>
          <ns3:TrackPointExtension>
            <ns3:atemp>23.0</ns3:atemp>
          </ns3:TrackPointExtension>
        </extensions>
      </trkpt>
      <trkpt lat="42.47253105975687503814697265625" lon="20.1797529123723506927490234375">
        <ele>1880.5999755859375</ele>
        <time>2026-06-20T11:37:48.000Z</time>
        <extensions>
          <ns3:TrackPointExtension>
            <ns3:atemp>23.0</ns3:atemp>
          </ns3:TrackPointExtension>
        </extensions>
      </trkpt>
      <trkpt lat="42.4724935926496982574462890625" lon="20.1797633059322834014892578125">
        <ele>1880.5999755859375</ele>
        <time>2026-06-20T11:37:49.000Z</time>
        <extensions>
          <ns3:TrackPointExtension>
            <ns3:atemp>23.0</ns3:atemp>
          </ns3:TrackPointExtension>
        </extensions>
      </trkpt>
      <trkpt lat="42.47245713137090206146240234375" lon="20.1797736994922161102294921875">
        <ele>1880.5999755859375</ele>
        <time>2026-06-20T11:37:50.000Z</time>
        <extensions>
          <ns3:TrackPointExtension>
            <ns3:atemp>23.0</ns3:atemp>
          </ns3:TrackPointExtension>
        </extensions>
      </trkpt>
      <trkpt lat="42.47242058627307415008544921875" lon="20.17978434450924396514892578125">
        <ele>1880.5999755859375</ele>
        <time>2026-06-20T11:37:51.000Z</time>
        <extensions>
          <ns3:TrackPointExtension>
            <ns3:atemp>23.0</ns3:atemp>
          </ns3:TrackPointExtension>
        </extensions>
      </trkpt>
      <trkpt lat="42.47238370589911937713623046875" lon="20.17980177886784076690673828125">
        <ele>1880.5999755859375</ele>
        <time>2026-06-20T11:37:52.000Z</time>
        <extensions>
          <ns3:TrackPointExtension>
            <ns3:atemp>23.0</ns3:atemp>
          </ns3:TrackPointExtension>
        </extensions>
      </trkpt>
      <trkpt lat="42.47235302813351154327392578125" lon="20.17982021905481815338134765625">
        <ele>1880.5999755859375</ele>
        <time>2026-06-20T11:37:53.000Z</time>
        <extensions>
          <ns3:TrackPointExtension>
            <ns3:atemp>24.0</ns3:atemp>
          </ns3:TrackPointExtension>
        </extensions>
      </trkpt>
      <trkpt lat="42.47232176363468170166015625" lon="20.17983798868954181671142578125">
        <ele>1880.800048828125</ele>
        <time>2026-06-20T11:37:54.000Z</time>
        <extensions>
          <ns3:TrackPointExtension>
            <ns3:atemp>23.0</ns3:atemp>
          </ns3:TrackPointExtension>
        </extensions>
      </trkpt>
      <trkpt lat="42.47228932566940784454345703125" lon="20.17985307611525058746337890625">
        <ele>1880.800048828125</ele>
        <time>2026-06-20T11:37:55.000Z</time>
        <extensions>
          <ns3:TrackPointExtension>
            <ns3:atemp>23.0</ns3:atemp>
          </ns3:TrackPointExtension>
        </extensions>
      </trkpt>
      <trkpt lat="42.4722595699131488800048828125" lon="20.17986975610256195068359375">
        <ele>1880.800048828125</ele>
        <time>2026-06-20T11:37:56.000Z</time>
        <extensions>
          <ns3:TrackPointExtension>
            <ns3:atemp>23.0</ns3:atemp>
          </ns3:TrackPointExtension>
        </extensions>
      </trkpt>
      <trkpt lat="42.47223048470914363861083984375" lon="20.17988719046115875244140625">
        <ele>1880.800048828125</ele>
        <time>2026-06-20T11:37:57.000Z</time>
        <extensions>
          <ns3:TrackPointExtension>
            <ns3:atemp>23.0</ns3:atemp>
          </ns3:TrackPointExtension>
        </extensions>
      </trkpt>
      <trkpt lat="42.47219972312450408935546875" lon="20.17990051768720149993896484375">
        <ele>1880.800048828125</ele>
        <time>2026-06-20T11:37:58.000Z</time>
        <extensions>
          <ns3:TrackPointExtension>
            <ns3:atemp>23.0</ns3:atemp>
          </ns3:TrackPointExtension>
        </extensions>
      </trkpt>
      <trkpt lat="42.47216510586440563201904296875" lon="20.17991141416132450103759765625">
        <ele>1881</ele>
        <time>2026-06-20T11:37:59.000Z</time>
        <extensions>
          <ns3:TrackPointExtension>
            <ns3:atemp>23.0</ns3:atemp>
          </ns3:TrackPointExtension>
        </extensions>
      </trkpt>
      <trkpt lat="42.4721291474997997283935546875" lon="20.17992398701608180999755859375">
        <ele>1881.199951171875</ele>
        <time>2026-06-20T11:38:00.000Z</time>
        <extensions>
          <ns3:TrackPointExtension>
            <ns3:atemp>23.0</ns3:atemp>
          </ns3:TrackPointExtension>
        </extensions>
      </trkpt>
      <trkpt lat="42.472094111144542694091796875" lon="20.1799393258988857269287109375">
        <ele>1881.4000244140625</ele>
        <time>2026-06-20T11:38:01.000Z</time>
        <extensions>
          <ns3:TrackPointExtension>
            <ns3:atemp>23.0</ns3:atemp>
          </ns3:TrackPointExtension>
        </extensions>
      </trkpt>
      <trkpt lat="42.47205999679863452911376953125" lon="20.179953910410404205322265625">
        <ele>1881.5999755859375</ele>
        <time>2026-06-20T11:38:02.000Z</time>
        <extensions>
          <ns3:TrackPointExtension>
            <ns3:atemp>23.0</ns3:atemp>
          </ns3:TrackPointExtension>
        </extensions>
      </trkpt>
      <trkpt lat="42.47202713973820209503173828125" lon="20.17996606417000293731689453125">
        <ele>1882</ele>
        <time>2026-06-20T11:38:03.000Z</time>
        <extensions>
          <ns3:TrackPointExtension>
            <ns3:atemp>23.0</ns3:atemp>
          </ns3:TrackPointExtension>
        </extensions>
      </trkpt>
      <trkpt lat="42.47199260629713535308837890625" lon="20.179974697530269622802734375">
        <ele>1882.199951171875</ele>
        <time>2026-06-20T11:38:04.000Z</time>
        <extensions>
          <ns3:TrackPointExtension>
            <ns3:atemp>23.0</ns3:atemp>
          </ns3:TrackPointExtension>
        </extensions>
      </trkpt>
      <trkpt lat="42.471959330141544342041015625" lon="20.17998601309955120086669921875">
        <ele>1882.4000244140625</ele>
        <time>2026-06-20T11:38:05.000Z</time>
        <extensions>
          <ns3:TrackPointExtension>
            <ns3:atemp>23.0</ns3:atemp>
          </ns3:TrackPointExtension>
        </extensions>
      </trkpt>
      <trkpt lat="42.47192555107176303863525390625" lon="20.17999489791691303253173828125">
        <ele>1882.5999755859375</ele>
        <time>2026-06-20T11:38:06.000Z</time>
        <extensions>
          <ns3:TrackPointExtension>
            <ns3:atemp>23.0</ns3:atemp>
          </ns3:TrackPointExtension>
        </extensions>
      </trkpt>
      <trkpt lat="42.4718907661736011505126953125" lon="20.18000252544879913330078125">
        <ele>1882.800048828125</ele>
        <time>2026-06-20T11:38:07.000Z</time>
        <extensions>
          <ns3:TrackPointExtension>
            <ns3:atemp>23.0</ns3:atemp>
          </ns3:TrackPointExtension>
        </extensions>
      </trkpt>
      <trkpt lat="42.47185363434255123138427734375" lon="20.18000788986682891845703125">
        <ele>1883</ele>
        <time>2026-06-20T11:38:08.000Z</time>
        <extensions>
          <ns3:TrackPointExtension>
            <ns3:atemp>23.0</ns3:atemp>
          </ns3:TrackPointExtension>
        </extensions>
      </trkpt>
      <trkpt lat="42.47181884944438934326171875" lon="20.1800144277513027191162109375">
        <ele>1883.199951171875</ele>
        <time>2026-06-20T11:38:09.000Z</time>
        <extensions>
          <ns3:TrackPointExtension>
            <ns3:atemp>23.0</ns3:atemp>
          </ns3:TrackPointExtension>
        </extensions>
      </trkpt>
      <trkpt lat="42.47178624384105205535888671875" lon="20.1800219714641571044921875">
        <ele>1883.4000244140625</ele>
        <time>2026-06-20T11:38:10.000Z</time>
        <extensions>
          <ns3:TrackPointExtension>
            <ns3:atemp>23.0</ns3:atemp>
          </ns3:TrackPointExtension>
        </extensions>
      </trkpt>
      <trkpt lat="42.47175338678061962127685546875" lon="20.18003211356699466705322265625">
        <ele>1883.5999755859375</ele>
        <time>2026-06-20T11:38:11.000Z</time>
        <extensions>
          <ns3:TrackPointExtension>
            <ns3:atemp>23.0</ns3:atemp>
          </ns3:TrackPointExtension>
        </extensions>
      </trkpt>
      <trkpt lat="42.47172421775758266448974609375" lon="20.18004887737333774566650390625">
        <ele>1883.5999755859375</ele>
        <time>2026-06-20T11:38:12.000Z</time>
        <extensions>
          <ns3:TrackPointExtension>
            <ns3:atemp>23.0</ns3:atemp>
          </ns3:TrackPointExtension>
        </extensions>
      </trkpt>
      <trkpt lat="42.47169454582035541534423828125" lon="20.18006782047450542449951171875">
        <ele>1883.800048828125</ele>
        <time>2026-06-20T11:38:13.000Z</time>
        <extensions>
          <ns3:TrackPointExtension>
            <ns3:atemp>23.0</ns3:atemp>
          </ns3:TrackPointExtension>
        </extensions>
      </trkpt>
      <trkpt lat="42.47166470624506473541259765625" lon="20.18008709885179996490478515625">
        <ele>1884</ele>
        <time>2026-06-20T11:38:14.000Z</time>
        <extensions>
          <ns3:TrackPointExtension>
            <ns3:atemp>23.0</ns3:atemp>
          </ns3:TrackPointExtension>
        </extensions>
      </trkpt>
      <trkpt lat="42.47163738124072551727294921875" lon="20.1801072992384433746337890625">
        <ele>1884.4000244140625</ele>
        <time>2026-06-20T11:38:15.000Z</time>
        <extensions>
          <ns3:TrackPointExtension>
            <ns3:atemp>23.0</ns3:atemp>
          </ns3:TrackPointExtension>
        </extensions>
      </trkpt>
      <trkpt lat="42.47161055915057659149169921875" lon="20.1801264099776744842529296875">
        <ele>1884.5999755859375</ele>
        <time>2026-06-20T11:38:16.000Z</time>
        <extensions>
          <ns3:TrackPointExtension>
            <ns3:atemp>23.0</ns3:atemp>
          </ns3:TrackPointExtension>
        </extensions>
      </trkpt>
      <trkpt lat="42.47158507816493511199951171875" lon="20.180148370563983917236328125">
        <ele>1884.800048828125</ele>
        <time>2026-06-20T11:38:17.000Z</time>
        <extensions>
          <ns3:TrackPointExtension>
            <ns3:atemp>23.0</ns3:atemp>
          </ns3:TrackPointExtension>
        </extensions>
      </trkpt>
      <trkpt lat="42.47155859135091304779052734375" lon="20.180171839892864227294921875">
        <ele>1885</ele>
        <time>2026-06-20T11:38:18.000Z</time>
        <extensions>
          <ns3:TrackPointExtension>
            <ns3:atemp>23.0</ns3:atemp>
          </ns3:TrackPointExtension>
        </extensions>
      </trkpt>
      <trkpt lat="42.47153042815625667572021484375" lon="20.1801963150501251220703125">
        <ele>1885.199951171875</ele>
        <time>2026-06-20T11:38:19.000Z</time>
        <extensions>
          <ns3:TrackPointExtension>
            <ns3:atemp>23.0</ns3:atemp>
          </ns3:TrackPointExtension>
        </extensions>
      </trkpt>
      <trkpt lat="42.471502684056758880615234375" lon="20.1802199520170688629150390625">
        <ele>1885.199951171875</ele>
        <time>2026-06-20T11:38:20.000Z</time>
        <extensions>
          <ns3:TrackPointExtension>
            <ns3:atemp>23.0</ns3:atemp>
          </ns3:TrackPointExtension>
        </extensions>
      </trkpt>
      <trkpt lat="42.4714720062911510467529296875" lon="20.180233530700206756591796875">
        <ele>1885.199951171875</ele>
        <time>2026-06-20T11:38:21.000Z</time>
        <extensions>
          <ns3:TrackPointExtension>
            <ns3:atemp>23.0</ns3:atemp>
          </ns3:TrackPointExtension>
        </extensions>
      </trkpt>
      <trkpt lat="42.4714448489248752593994140625" lon="20.18024032004177570343017578125">
        <ele>1885.199951171875</ele>
        <time>2026-06-20T11:38:22.000Z</time>
        <extensions>
          <ns3:TrackPointExtension>
            <ns3:atemp>23.0</ns3:atemp>
          </ns3:TrackPointExtension>
        </extensions>
      </trkpt>
      <trkpt lat="42.47141760773956775665283203125" lon="20.18024618737399578094482421875">
        <ele>1885.199951171875</ele>
        <time>2026-06-20T11:38:23.000Z</time>
        <extensions>
          <ns3:TrackPointExtension>
            <ns3:atemp>24.0</ns3:atemp>
          </ns3:TrackPointExtension>
        </extensions>
      </trkpt>
      <trkpt lat="42.4713985808193683624267578125" lon="20.18025423400104045867919921875">
        <ele>1885</ele>
        <time>2026-06-20T11:38:24.000Z</time>
        <extensions>
          <ns3:TrackPointExtension>
            <ns3:atemp>23.0</ns3:atemp>
          </ns3:TrackPointExtension>
        </extensions>
      </trkpt>
      <trkpt lat="42.47138776816427707672119140625" lon="20.1802648790180683135986328125">
        <ele>1885</ele>
        <time>2026-06-20T11:38:25.000Z</time>
        <extensions>
          <ns3:TrackPointExtension>
            <ns3:atemp>23.0</ns3:atemp>
          </ns3:TrackPointExtension>
        </extensions>
      </trkpt>
      <trkpt lat="42.47138500213623046875" lon="20.1802660524845123291015625">
        <ele>1885</ele>
        <time>2026-06-20T11:38:26.000Z</time>
        <extensions>
          <ns3:TrackPointExtension>
            <ns3:atemp>23.0</ns3:atemp>
          </ns3:TrackPointExtension>
        </extensions>
      </trkpt>
      <trkpt lat="42.47138500213623046875" lon="20.1802660524845123291015625">
        <ele>1885</ele>
        <time>2026-06-20T11:38:27.000Z</time>
        <extensions>
          <ns3:TrackPointExtension>
            <ns3:atemp>23.0</ns3:atemp>
          </ns3:TrackPointExtension>
        </extensions>
      </trkpt>
      <trkpt lat="42.47138500213623046875" lon="20.1802660524845123291015625">
        <ele>1885</ele>
        <time>2026-06-20T11:38:28.000Z</time>
        <extensions>
          <ns3:TrackPointExtension>
            <ns3:atemp>23.0</ns3:atemp>
          </ns3:TrackPointExtension>
        </extensions>
      </trkpt>
      <trkpt lat="42.47138500213623046875" lon="20.1802660524845123291015625">
        <ele>1885</ele>
        <time>2026-06-20T11:38:29.000Z</time>
        <extensions>
          <ns3:TrackPointExtension>
            <ns3:atemp>23.0</ns3:atemp>
          </ns3:TrackPointExtension>
        </extensions>
      </trkpt>
      <trkpt lat="42.47138500213623046875" lon="20.1802660524845123291015625">
        <ele>1884.800048828125</ele>
        <time>2026-06-20T11:38:30.000Z</time>
        <extensions>
          <ns3:TrackPointExtension>
            <ns3:atemp>23.0</ns3:atemp>
          </ns3:TrackPointExtension>
        </extensions>
      </trkpt>
      <trkpt lat="42.47138500213623046875" lon="20.1802660524845123291015625">
        <ele>1884.800048828125</ele>
        <time>2026-06-20T11:38:31.000Z</time>
        <extensions>
          <ns3:TrackPointExtension>
            <ns3:atemp>23.0</ns3:atemp>
          </ns3:TrackPointExtension>
        </extensions>
      </trkpt>
      <trkpt lat="42.47138500213623046875" lon="20.1802660524845123291015625">
        <ele>1884.5999755859375</ele>
        <time>2026-06-20T11:38:32.000Z</time>
        <extensions>
          <ns3:TrackPointExtension>
            <ns3:atemp>23.0</ns3:atemp>
          </ns3:TrackPointExtension>
        </extensions>
      </trkpt>
      <trkpt lat="42.47138500213623046875" lon="20.1802660524845123291015625">
        <ele>1884.5999755859375</ele>
        <time>2026-06-20T11:38:33.000Z</time>
        <extensions>
          <ns3:TrackPointExtension>
            <ns3:atemp>23.0</ns3:atemp>
          </ns3:TrackPointExtension>
        </extensions>
      </trkpt>
      <trkpt lat="42.47138500213623046875" lon="20.1802660524845123291015625">
        <ele>1884.5999755859375</ele>
        <time>2026-06-20T11:38:34.000Z</time>
        <extensions>
          <ns3:TrackPointExtension>
            <ns3:atemp>23.0</ns3:atemp>
          </ns3:TrackPointExtension>
        </extensions>
      </trkpt>
      <trkpt lat="42.47138500213623046875" lon="20.1802660524845123291015625">
        <ele>1884.5999755859375</ele>
        <time>2026-06-20T11:38:35.000Z</time>
        <extensions>
          <ns3:TrackPointExtension>
            <ns3:atemp>23.0</ns3:atemp>
          </ns3:TrackPointExtension>
        </extensions>
      </trkpt>
      <trkpt lat="42.47138500213623046875" lon="20.1802660524845123291015625">
        <ele>1884.4000244140625</ele>
        <time>2026-06-20T11:38:36.000Z</time>
        <extensions>
          <ns3:TrackPointExtension>
            <ns3:atemp>23.0</ns3:atemp>
          </ns3:TrackPointExtension>
        </extensions>
      </trkpt>
      <trkpt lat="42.47138500213623046875" lon="20.1802660524845123291015625">
        <ele>1884.4000244140625</ele>
        <time>2026-06-20T11:38:37.000Z</time>
        <extensions>
          <ns3:TrackPointExtension>
            <ns3:atemp>23.0</ns3:atemp>
          </ns3:TrackPointExtension>
        </extensions>
      </trkpt>
      <trkpt lat="42.47138500213623046875" lon="20.1802660524845123291015625">
        <ele>1884.5999755859375</ele>
        <time>2026-06-20T11:38:38.000Z</time>
        <extensions>
          <ns3:TrackPointExtension>
            <ns3:atemp>23.0</ns3:atemp>
          </ns3:TrackPointExtension>
        </extensions>
      </trkpt>
      <trkpt lat="42.47138500213623046875" lon="20.1802660524845123291015625">
        <ele>1884.5999755859375</ele>
        <time>2026-06-20T11:38:39.000Z</time>
        <extensions>
          <ns3:TrackPointExtension>
            <ns3:atemp>23.0</ns3:atemp>
          </ns3:TrackPointExtension>
        </extensions>
      </trkpt>
      <trkpt lat="42.47138500213623046875" lon="20.1802660524845123291015625">
        <ele>1884.5999755859375</ele>
        <time>2026-06-20T11:38:40.000Z</time>
        <extensions>
          <ns3:TrackPointExtension>
            <ns3:atemp>23.0</ns3:atemp>
          </ns3:TrackPointExtension>
        </extensions>
      </trkpt>
      <trkpt lat="42.47138500213623046875" lon="20.1802660524845123291015625">
        <ele>1884.800048828125</ele>
        <time>2026-06-20T11:38:41.000Z</time>
        <extensions>
          <ns3:TrackPointExtension>
            <ns3:atemp>23.0</ns3:atemp>
          </ns3:TrackPointExtension>
        </extensions>
      </trkpt>
      <trkpt lat="42.47138500213623046875" lon="20.1802660524845123291015625">
        <ele>1884.800048828125</ele>
        <time>2026-06-20T11:38:42.000Z</time>
        <extensions>
          <ns3:TrackPointExtension>
            <ns3:atemp>23.0</ns3:atemp>
          </ns3:TrackPointExtension>
        </extensions>
      </trkpt>
      <trkpt lat="42.47138500213623046875" lon="20.1802660524845123291015625">
        <ele>1885</ele>
        <time>2026-06-20T11:38:43.000Z</time>
        <extensions>
          <ns3:TrackPointExtension>
            <ns3:atemp>23.0</ns3:atemp>
          </ns3:TrackPointExtension>
        </extensions>
      </trkpt>
      <trkpt lat="42.47138500213623046875" lon="20.1802660524845123291015625">
        <ele>1885</ele>
        <time>2026-06-20T11:38:44.000Z</time>
        <extensions>
          <ns3:TrackPointExtension>
            <ns3:atemp>23.0</ns3:atemp>
          </ns3:TrackPointExtension>
        </extensions>
      </trkpt>
      <trkpt lat="42.47138500213623046875" lon="20.1802660524845123291015625">
        <ele>1885</ele>
        <time>2026-06-20T11:38:45.000Z</time>
        <extensions>
          <ns3:TrackPointExtension>
            <ns3:atemp>23.0</ns3:atemp>
          </ns3:TrackPointExtension>
        </extensions>
      </trkpt>
      <trkpt lat="42.47138500213623046875" lon="20.1802660524845123291015625">
        <ele>1884.800048828125</ele>
        <time>2026-06-20T11:38:46.000Z</time>
        <extensions>
          <ns3:TrackPointExtension>
            <ns3:atemp>23.0</ns3:atemp>
          </ns3:TrackPointExtension>
        </extensions>
      </trkpt>
      <trkpt lat="42.47138500213623046875" lon="20.1802660524845123291015625">
        <ele>1884.5999755859375</ele>
        <time>2026-06-20T11:38:47.000Z</time>
        <extensions>
          <ns3:TrackPointExtension>
            <ns3:atemp>23.0</ns3:atemp>
          </ns3:TrackPointExtension>
        </extensions>
      </trkpt>
      <trkpt lat="42.47138500213623046875" lon="20.1802660524845123291015625">
        <ele>1884.4000244140625</ele>
        <time>2026-06-20T11:38:48.000Z</time>
        <extensions>
          <ns3:TrackPointExtension>
            <ns3:atemp>23.0</ns3:atemp>
          </ns3:TrackPointExtension>
        </extensions>
      </trkpt>
      <trkpt lat="42.47138500213623046875" lon="20.1802660524845123291015625">
        <ele>1884.199951171875</ele>
        <time>2026-06-20T11:38:49.000Z</time>
        <extensions>
          <ns3:TrackPointExtension>
            <ns3:atemp>23.0</ns3:atemp>
          </ns3:TrackPointExtension>
        </extensions>
      </trkpt>
      <trkpt lat="42.47138500213623046875" lon="20.1802660524845123291015625">
        <ele>1884</ele>
        <time>2026-06-20T11:38:50.000Z</time>
        <extensions>
          <ns3:TrackPointExtension>
            <ns3:atemp>23.0</ns3:atemp>
          </ns3:TrackPointExtension>
        </extensions>
      </trkpt>
      <trkpt lat="42.47138500213623046875" lon="20.1802660524845123291015625">
        <ele>1884</ele>
        <time>2026-06-20T11:38:51.000Z</time>
        <extensions>
          <ns3:TrackPointExtension>
            <ns3:atemp>24.0</ns3:atemp>
          </ns3:TrackPointExtension>
        </extensions>
      </trkpt>
      <trkpt lat="42.47138500213623046875" lon="20.1802660524845123291015625">
        <ele>1883.800048828125</ele>
        <time>2026-06-20T11:38:52.000Z</time>
        <extensions>
          <ns3:TrackPointExtension>
            <ns3:atemp>24.0</ns3:atemp>
          </ns3:TrackPointExtension>
        </extensions>
      </trkpt>
      <trkpt lat="42.47138500213623046875" lon="20.1802660524845123291015625">
        <ele>1883.800048828125</ele>
        <time>2026-06-20T11:38:53.000Z</time>
        <extensions>
          <ns3:TrackPointExtension>
            <ns3:atemp>23.0</ns3:atemp>
          </ns3:TrackPointExtension>
        </extensions>
      </trkpt>
      <trkpt lat="42.471382655203342437744140625" lon="20.18026479519903659820556640625">
        <ele>1883.800048828125</ele>
        <time>2026-06-20T11:38:54.000Z</time>
        <extensions>
          <ns3:TrackPointExtension>
            <ns3:atemp>24.0</ns3:atemp>
          </ns3:TrackPointExtension>
        </extensions>
      </trkpt>
      <trkpt lat="42.4713724292814731597900390625" lon="20.180264376103878021240234375">
        <ele>1883.800048828125</ele>
        <time>2026-06-20T11:38:55.000Z</time>
        <extensions>
          <ns3:TrackPointExtension>
            <ns3:atemp>24.0</ns3:atemp>
          </ns3:TrackPointExtension>
        </extensions>
      </trkpt>
      <trkpt lat="42.47138500213623046875" lon="20.1802660524845123291015625">
        <ele>1883.5999755859375</ele>
        <time>2026-06-20T11:38:56.000Z</time>
        <extensions>
          <ns3:TrackPointExtension>
            <ns3:atemp>24.0</ns3:atemp>
          </ns3:TrackPointExtension>
        </extensions>
      </trkpt>
      <trkpt lat="42.47138500213623046875" lon="20.1802660524845123291015625">
        <ele>1883.5999755859375</ele>
        <time>2026-06-20T11:38:57.000Z</time>
        <extensions>
          <ns3:TrackPointExtension>
            <ns3:atemp>24.0</ns3:atemp>
          </ns3:TrackPointExtension>
        </extensions>
      </trkpt>
      <trkpt lat="42.47138500213623046875" lon="20.1802660524845123291015625">
        <ele>1883.5999755859375</ele>
        <time>2026-06-20T11:38:58.000Z</time>
        <extensions>
          <ns3:TrackPointExtension>
            <ns3:atemp>24.0</ns3:atemp>
          </ns3:TrackPointExtension>
        </extensions>
      </trkpt>
      <trkpt lat="42.47138500213623046875" lon="20.1802660524845123291015625">
        <ele>1883.5999755859375</ele>
        <time>2026-06-20T11:38:59.000Z</time>
        <extensions>
          <ns3:TrackPointExtension>
            <ns3:atemp>24.0</ns3:atemp>
          </ns3:TrackPointExtension>
        </extensions>
      </trkpt>
      <trkpt lat="42.47138500213623046875" lon="20.1802660524845123291015625">
        <ele>1883.800048828125</ele>
        <time>2026-06-20T11:39:00.000Z</time>
        <extensions>
          <ns3:TrackPointExtension>
            <ns3:atemp>24.0</ns3:atemp>
          </ns3:TrackPointExtension>
        </extensions>
      </trkpt>
      <trkpt lat="42.47138500213623046875" lon="20.1802660524845123291015625">
        <ele>1883.800048828125</ele>
        <time>2026-06-20T11:39:01.000Z</time>
        <extensions>
          <ns3:TrackPointExtension>
            <ns3:atemp>24.0</ns3:atemp>
          </ns3:TrackPointExtension>
        </extensions>
      </trkpt>
      <trkpt lat="42.47138500213623046875" lon="20.1802660524845123291015625">
        <ele>1883.800048828125</ele>
        <time>2026-06-20T11:39:02.000Z</time>
        <extensions>
          <ns3:TrackPointExtension>
            <ns3:atemp>24.0</ns3:atemp>
          </ns3:TrackPointExtension>
        </extensions>
      </trkpt>
      <trkpt lat="42.47138500213623046875" lon="20.1802660524845123291015625">
        <ele>1883.800048828125</ele>
        <time>2026-06-20T11:39:03.000Z</time>
        <extensions>
          <ns3:TrackPointExtension>
            <ns3:atemp>24.0</ns3:atemp>
          </ns3:TrackPointExtension>
        </extensions>
      </trkpt>
      <trkpt lat="42.47138500213623046875" lon="20.1802660524845123291015625">
        <ele>1883.800048828125</ele>
        <time>2026-06-20T11:39:04.000Z</time>
        <extensions>
          <ns3:TrackPointExtension>
            <ns3:atemp>24.0</ns3:atemp>
          </ns3:TrackPointExtension>
        </extensions>
      </trkpt>
      <trkpt lat="42.47138500213623046875" lon="20.1802660524845123291015625">
        <ele>1883.800048828125</ele>
        <time>2026-06-20T11:39:05.000Z</time>
        <extensions>
          <ns3:TrackPointExtension>
            <ns3:atemp>24.0</ns3:atemp>
          </ns3:TrackPointExtension>
        </extensions>
      </trkpt>
      <trkpt lat="42.47138500213623046875" lon="20.1802660524845123291015625">
        <ele>1883.800048828125</ele>
        <time>2026-06-20T11:39:06.000Z</time>
        <extensions>
          <ns3:TrackPointExtension>
            <ns3:atemp>24.0</ns3:atemp>
          </ns3:TrackPointExtension>
        </extensions>
      </trkpt>
      <trkpt lat="42.47138500213623046875" lon="20.1802660524845123291015625">
        <ele>1883.800048828125</ele>
        <time>2026-06-20T11:39:07.000Z</time>
        <extensions>
          <ns3:TrackPointExtension>
            <ns3:atemp>24.0</ns3:atemp>
          </ns3:TrackPointExtension>
        </extensions>
      </trkpt>
      <trkpt lat="42.47138500213623046875" lon="20.1802660524845123291015625">
        <ele>1883.5999755859375</ele>
        <time>2026-06-20T11:39:08.000Z</time>
        <extensions>
          <ns3:TrackPointExtension>
            <ns3:atemp>23.0</ns3:atemp>
          </ns3:TrackPointExtension>
        </extensions>
      </trkpt>
      <trkpt lat="42.47138500213623046875" lon="20.1802660524845123291015625">
        <ele>1883.5999755859375</ele>
        <time>2026-06-20T11:39:09.000Z</time>
        <extensions>
          <ns3:TrackPointExtension>
            <ns3:atemp>24.0</ns3:atemp>
          </ns3:TrackPointExtension>
        </extensions>
      </trkpt>
      <trkpt lat="42.47138500213623046875" lon="20.1802660524845123291015625">
        <ele>1883.5999755859375</ele>
        <time>2026-06-20T11:39:10.000Z</time>
        <extensions>
          <ns3:TrackPointExtension>
            <ns3:atemp>24.0</ns3:atemp>
          </ns3:TrackPointExtension>
        </extensions>
      </trkpt>
      <trkpt lat="42.47138500213623046875" lon="20.1802660524845123291015625">
        <ele>1883.4000244140625</ele>
        <time>2026-06-20T11:39:11.000Z</time>
        <extensions>
          <ns3:TrackPointExtension>
            <ns3:atemp>23.0</ns3:atemp>
          </ns3:TrackPointExtension>
        </extensions>
      </trkpt>
      <trkpt lat="42.47138500213623046875" lon="20.1802660524845123291015625">
        <ele>1883.4000244140625</ele>
        <time>2026-06-20T11:39:12.000Z</time>
        <extensions>
          <ns3:TrackPointExtension>
            <ns3:atemp>23.0</ns3:atemp>
          </ns3:TrackPointExtension>
        </extensions>
      </trkpt>
      <trkpt lat="42.47138500213623046875" lon="20.1802660524845123291015625">
        <ele>1883.4000244140625</ele>
        <time>2026-06-20T11:39:13.000Z</time>
        <extensions>
          <ns3:TrackPointExtension>
            <ns3:atemp>24.0</ns3:atemp>
          </ns3:TrackPointExtension>
        </extensions>
      </trkpt>
      <trkpt lat="42.47138500213623046875" lon="20.1802660524845123291015625">
        <ele>1883.4000244140625</ele>
        <time>2026-06-20T11:39:14.000Z</time>
        <extensions>
          <ns3:TrackPointExtension>
            <ns3:atemp>24.0</ns3:atemp>
          </ns3:TrackPointExtension>
        </extensions>
      </trkpt>
      <trkpt lat="42.47138500213623046875" lon="20.1802660524845123291015625">
        <ele>1883.4000244140625</ele>
        <time>2026-06-20T11:39:15.000Z</time>
        <extensions>
          <ns3:TrackPointExtension>
            <ns3:atemp>23.0</ns3:atemp>
          </ns3:TrackPointExtension>
        </extensions>
      </trkpt>
      <trkpt lat="42.47138500213623046875" lon="20.1802660524845123291015625">
        <ele>1883.4000244140625</ele>
        <time>2026-06-20T11:39:16.000Z</time>
        <extensions>
          <ns3:TrackPointExtension>
            <ns3:atemp>23.0</ns3:atemp>
          </ns3:TrackPointExtension>
        </extensions>
      </trkpt>
      <trkpt lat="42.47138500213623046875" lon="20.1802660524845123291015625">
        <ele>1883.4000244140625</ele>
        <time>2026-06-20T11:39:17.000Z</time>
        <extensions>
          <ns3:TrackPointExtension>
            <ns3:atemp>23.0</ns3:atemp>
          </ns3:TrackPointExtension>
        </extensions>
      </trkpt>
      <trkpt lat="42.47138500213623046875" lon="20.1802660524845123291015625">
        <ele>1883.5999755859375</ele>
        <time>2026-06-20T11:39:18.000Z</time>
        <extensions>
          <ns3:TrackPointExtension>
            <ns3:atemp>23.0</ns3:atemp>
          </ns3:TrackPointExtension>
        </extensions>
      </trkpt>
      <trkpt lat="42.47138500213623046875" lon="20.1802660524845123291015625">
        <ele>1883.5999755859375</ele>
        <time>2026-06-20T11:39:19.000Z</time>
        <extensions>
          <ns3:TrackPointExtension>
            <ns3:atemp>23.0</ns3:atemp>
          </ns3:TrackPointExtension>
        </extensions>
      </trkpt>
      <trkpt lat="42.47138500213623046875" lon="20.1802660524845123291015625">
        <ele>1883.5999755859375</ele>
        <time>2026-06-20T11:39:20.000Z</time>
        <extensions>
          <ns3:TrackPointExtension>
            <ns3:atemp>23.0</ns3:atemp>
          </ns3:TrackPointExtension>
        </extensions>
      </trkpt>
      <trkpt lat="42.47138500213623046875" lon="20.1802660524845123291015625">
        <ele>1883.5999755859375</ele>
        <time>2026-06-20T11:39:21.000Z</time>
        <extensions>
          <ns3:TrackPointExtension>
            <ns3:atemp>23.0</ns3:atemp>
          </ns3:TrackPointExtension>
        </extensions>
      </trkpt>
      <trkpt lat="42.47138500213623046875" lon="20.1802660524845123291015625">
        <ele>1883.5999755859375</ele>
        <time>2026-06-20T11:39:22.000Z</time>
        <extensions>
          <ns3:TrackPointExtension>
            <ns3:atemp>23.0</ns3:atemp>
          </ns3:TrackPointExtension>
        </extensions>
      </trkpt>
      <trkpt lat="42.47138500213623046875" lon="20.1802660524845123291015625">
        <ele>1883.5999755859375</ele>
        <time>2026-06-20T11:39:23.000Z</time>
        <extensions>
          <ns3:TrackPointExtension>
            <ns3:atemp>24.0</ns3:atemp>
          </ns3:TrackPointExtension>
        </extensions>
      </trkpt>
      <trkpt lat="42.47138500213623046875" lon="20.1802660524845123291015625">
        <ele>1883.5999755859375</ele>
        <time>2026-06-20T11:39:24.000Z</time>
        <extensions>
          <ns3:TrackPointExtension>
            <ns3:atemp>23.0</ns3:atemp>
          </ns3:TrackPointExtension>
        </extensions>
      </trkpt>
      <trkpt lat="42.47138500213623046875" lon="20.1802660524845123291015625">
        <ele>1883.5999755859375</ele>
        <time>2026-06-20T11:39:25.000Z</time>
        <extensions>
          <ns3:TrackPointExtension>
            <ns3:atemp>23.0</ns3:atemp>
          </ns3:TrackPointExtension>
        </extensions>
      </trkpt>
      <trkpt lat="42.47138500213623046875" lon="20.1802660524845123291015625">
        <ele>1883.800048828125</ele>
        <time>2026-06-20T11:39:26.000Z</time>
        <extensions>
          <ns3:TrackPointExtension>
            <ns3:atemp>23.0</ns3:atemp>
          </ns3:TrackPointExtension>
        </extensions>
      </trkpt>
      <trkpt lat="42.47138500213623046875" lon="20.1802660524845123291015625">
        <ele>1883.800048828125</ele>
        <time>2026-06-20T11:39:27.000Z</time>
        <extensions>
          <ns3:TrackPointExtension>
            <ns3:atemp>23.0</ns3:atemp>
          </ns3:TrackPointExtension>
        </extensions>
      </trkpt>
      <trkpt lat="42.47138500213623046875" lon="20.1802660524845123291015625">
        <ele>1884</ele>
        <time>2026-06-20T11:39:28.000Z</time>
        <extensions>
          <ns3:TrackPointExtension>
            <ns3:atemp>23.0</ns3:atemp>
          </ns3:TrackPointExtension>
        </extensions>
      </trkpt>
      <trkpt lat="42.47138500213623046875" lon="20.1802660524845123291015625">
        <ele>1884</ele>
        <time>2026-06-20T11:39:29.000Z</time>
        <extensions>
          <ns3:TrackPointExtension>
            <ns3:atemp>23.0</ns3:atemp>
          </ns3:TrackPointExtension>
        </extensions>
      </trkpt>
      <trkpt lat="42.47138500213623046875" lon="20.1802660524845123291015625">
        <ele>1883.800048828125</ele>
        <time>2026-06-20T11:39:30.000Z</time>
        <extensions>
          <ns3:TrackPointExtension>
            <ns3:atemp>23.0</ns3:atemp>
          </ns3:TrackPointExtension>
        </extensions>
      </trkpt>
      <trkpt lat="42.47138500213623046875" lon="20.1802660524845123291015625">
        <ele>1883.800048828125</ele>
        <time>2026-06-20T11:39:31.000Z</time>
        <extensions>
          <ns3:TrackPointExtension>
            <ns3:atemp>23.0</ns3:atemp>
          </ns3:TrackPointExtension>
        </extensions>
      </trkpt>
      <trkpt lat="42.47138500213623046875" lon="20.1802660524845123291015625">
        <ele>1883.5999755859375</ele>
        <time>2026-06-20T11:39:32.000Z</time>
        <extensions>
          <ns3:TrackPointExtension>
            <ns3:atemp>23.0</ns3:atemp>
          </ns3:TrackPointExtension>
        </extensions>
      </trkpt>
      <trkpt lat="42.47138500213623046875" lon="20.1802660524845123291015625">
        <ele>1883.4000244140625</ele>
        <time>2026-06-20T11:39:33.000Z</time>
        <extensions>
          <ns3:TrackPointExtension>
            <ns3:atemp>24.0</ns3:atemp>
          </ns3:TrackPointExtension>
        </extensions>
      </trkpt>
      <trkpt lat="42.47138500213623046875" lon="20.1802660524845123291015625">
        <ele>1883.4000244140625</ele>
        <time>2026-06-20T11:39:34.000Z</time>
        <extensions>
          <ns3:TrackPointExtension>
            <ns3:atemp>24.0</ns3:atemp>
          </ns3:TrackPointExtension>
        </extensions>
      </trkpt>
      <trkpt lat="42.47138500213623046875" lon="20.1802660524845123291015625">
        <ele>1883.4000244140625</ele>
        <time>2026-06-20T11:39:35.000Z</time>
        <extensions>
          <ns3:TrackPointExtension>
            <ns3:atemp>24.0</ns3:atemp>
          </ns3:TrackPointExtension>
        </extensions>
      </trkpt>
      <trkpt lat="42.47138500213623046875" lon="20.1802660524845123291015625">
        <ele>1883.4000244140625</ele>
        <time>2026-06-20T11:39:36.000Z</time>
        <extensions>
          <ns3:TrackPointExtension>
            <ns3:atemp>24.0</ns3:atemp>
          </ns3:TrackPointExtension>
        </extensions>
      </trkpt>
      <trkpt lat="42.47138500213623046875" lon="20.1802660524845123291015625">
        <ele>1883.5999755859375</ele>
        <time>2026-06-20T11:39:37.000Z</time>
        <extensions>
          <ns3:TrackPointExtension>
            <ns3:atemp>23.0</ns3:atemp>
          </ns3:TrackPointExtension>
        </extensions>
      </trkpt>
      <trkpt lat="42.47138500213623046875" lon="20.1802660524845123291015625">
        <ele>1883.4000244140625</ele>
        <time>2026-06-20T11:39:38.000Z</time>
        <extensions>
          <ns3:TrackPointExtension>
            <ns3:atemp>23.0</ns3:atemp>
          </ns3:TrackPointExtension>
        </extensions>
      </trkpt>
      <trkpt lat="42.47138500213623046875" lon="20.1802660524845123291015625">
        <ele>1883.5999755859375</ele>
        <time>2026-06-20T11:39:39.000Z</time>
        <extensions>
          <ns3:TrackPointExtension>
            <ns3:atemp>23.0</ns3:atemp>
          </ns3:TrackPointExtension>
        </extensions>
      </trkpt>
      <trkpt lat="42.47138500213623046875" lon="20.1802660524845123291015625">
        <ele>1883.5999755859375</ele>
        <time>2026-06-20T11:39:40.000Z</time>
        <extensions>
          <ns3:TrackPointExtension>
            <ns3:atemp>24.0</ns3:atemp>
          </ns3:TrackPointExtension>
        </extensions>
      </trkpt>
      <trkpt lat="42.47138500213623046875" lon="20.1802660524845123291015625">
        <ele>1883.5999755859375</ele>
        <time>2026-06-20T11:39:41.000Z</time>
        <extensions>
          <ns3:TrackPointExtension>
            <ns3:atemp>23.0</ns3:atemp>
          </ns3:TrackPointExtension>
        </extensions>
      </trkpt>
      <trkpt lat="42.47138500213623046875" lon="20.1802660524845123291015625">
        <ele>1883.5999755859375</ele>
        <time>2026-06-20T11:39:42.000Z</time>
        <extensions>
          <ns3:TrackPointExtension>
            <ns3:atemp>23.0</ns3:atemp>
          </ns3:TrackPointExtension>
        </extensions>
      </trkpt>
      <trkpt lat="42.47138500213623046875" lon="20.1802660524845123291015625">
        <ele>1883.5999755859375</ele>
        <time>2026-06-20T11:39:43.000Z</time>
        <extensions>
          <ns3:TrackPointExtension>
            <ns3:atemp>23.0</ns3:atemp>
          </ns3:TrackPointExtension>
        </extensions>
      </trkpt>
      <trkpt lat="42.47138500213623046875" lon="20.1802660524845123291015625">
        <ele>1883.5999755859375</ele>
        <time>2026-06-20T11:39:44.000Z</time>
        <extensions>
          <ns3:TrackPointExtension>
            <ns3:atemp>23.0</ns3:atemp>
          </ns3:TrackPointExtension>
        </extensions>
      </trkpt>
      <trkpt lat="42.47138500213623046875" lon="20.1802660524845123291015625">
        <ele>1883.5999755859375</ele>
        <time>2026-06-20T11:39:45.000Z</time>
        <extensions>
          <ns3:TrackPointExtension>
            <ns3:atemp>23.0</ns3:atemp>
          </ns3:TrackPointExtension>
        </extensions>
      </trkpt>
      <trkpt lat="42.47138500213623046875" lon="20.1802660524845123291015625">
        <ele>1883.5999755859375</ele>
        <time>2026-06-20T11:39:46.000Z</time>
        <extensions>
          <ns3:TrackPointExtension>
            <ns3:atemp>23.0</ns3:atemp>
          </ns3:TrackPointExtension>
        </extensions>
      </trkpt>
      <trkpt lat="42.47138500213623046875" lon="20.1802660524845123291015625">
        <ele>1883.5999755859375</ele>
        <time>2026-06-20T11:39:47.000Z</time>
        <extensions>
          <ns3:TrackPointExtension>
            <ns3:atemp>23.0</ns3:atemp>
          </ns3:TrackPointExtension>
        </extensions>
      </trkpt>
      <trkpt lat="42.47138500213623046875" lon="20.1802660524845123291015625">
        <ele>1883.5999755859375</ele>
        <time>2026-06-20T11:39:48.000Z</time>
        <extensions>
          <ns3:TrackPointExtension>
            <ns3:atemp>23.0</ns3:atemp>
          </ns3:TrackPointExtension>
        </extensions>
      </trkpt>
      <trkpt lat="42.47138500213623046875" lon="20.1802660524845123291015625">
        <ele>1883.5999755859375</ele>
        <time>2026-06-20T11:39:49.000Z</time>
        <extensions>
          <ns3:TrackPointExtension>
            <ns3:atemp>23.0</ns3:atemp>
          </ns3:TrackPointExtension>
        </extensions>
      </trkpt>
      <trkpt lat="42.47138500213623046875" lon="20.1802660524845123291015625">
        <ele>1883.5999755859375</ele>
        <time>2026-06-20T11:39:50.000Z</time>
        <extensions>
          <ns3:TrackPointExtension>
            <ns3:atemp>23.0</ns3:atemp>
          </ns3:TrackPointExtension>
        </extensions>
      </trkpt>
      <trkpt lat="42.47138500213623046875" lon="20.1802660524845123291015625">
        <ele>1883.5999755859375</ele>
        <time>2026-06-20T11:39:51.000Z</time>
        <extensions>
          <ns3:TrackPointExtension>
            <ns3:atemp>23.0</ns3:atemp>
          </ns3:TrackPointExtension>
        </extensions>
      </trkpt>
      <trkpt lat="42.47138500213623046875" lon="20.1802660524845123291015625">
        <ele>1883.5999755859375</ele>
        <time>2026-06-20T11:39:52.000Z</time>
        <extensions>
          <ns3:TrackPointExtension>
            <ns3:atemp>23.0</ns3:atemp>
          </ns3:TrackPointExtension>
        </extensions>
      </trkpt>
      <trkpt lat="42.47138500213623046875" lon="20.1802660524845123291015625">
        <ele>1883.5999755859375</ele>
        <time>2026-06-20T11:39:53.000Z</time>
        <extensions>
          <ns3:TrackPointExtension>
            <ns3:atemp>23.0</ns3:atemp>
          </ns3:TrackPointExtension>
        </extensions>
      </trkpt>
      <trkpt lat="42.47138500213623046875" lon="20.1802660524845123291015625">
        <ele>1883.5999755859375</ele>
        <time>2026-06-20T11:39:54.000Z</time>
        <extensions>
          <ns3:TrackPointExtension>
            <ns3:atemp>23.0</ns3:atemp>
          </ns3:TrackPointExtension>
        </extensions>
      </trkpt>
      <trkpt lat="42.47138500213623046875" lon="20.1802660524845123291015625">
        <ele>1883.5999755859375</ele>
        <time>2026-06-20T11:39:55.000Z</time>
        <extensions>
          <ns3:TrackPointExtension>
            <ns3:atemp>23.0</ns3:atemp>
          </ns3:TrackPointExtension>
        </extensions>
      </trkpt>
      <trkpt lat="42.47138500213623046875" lon="20.1802660524845123291015625">
        <ele>1883.5999755859375</ele>
        <time>2026-06-20T11:39:56.000Z</time>
        <extensions>
          <ns3:TrackPointExtension>
            <ns3:atemp>23.0</ns3:atemp>
          </ns3:TrackPointExtension>
        </extensions>
      </trkpt>
      <trkpt lat="42.47138500213623046875" lon="20.1802660524845123291015625">
        <ele>1883.5999755859375</ele>
        <time>2026-06-20T11:39:57.000Z</time>
        <extensions>
          <ns3:TrackPointExtension>
            <ns3:atemp>23.0</ns3:atemp>
          </ns3:TrackPointExtension>
        </extensions>
      </trkpt>
      <trkpt lat="42.47138500213623046875" lon="20.1802660524845123291015625">
        <ele>1883.5999755859375</ele>
        <time>2026-06-20T11:39:58.000Z</time>
        <extensions>
          <ns3:TrackPointExtension>
            <ns3:atemp>23.0</ns3:atemp>
          </ns3:TrackPointExtension>
        </extensions>
      </trkpt>
      <trkpt lat="42.47138500213623046875" lon="20.1802660524845123291015625">
        <ele>1883.5999755859375</ele>
        <time>2026-06-20T11:39:59.000Z</time>
        <extensions>
          <ns3:TrackPointExtension>
            <ns3:atemp>23.0</ns3:atemp>
          </ns3:TrackPointExtension>
        </extensions>
      </trkpt>
      <trkpt lat="42.47138500213623046875" lon="20.1802660524845123291015625">
        <ele>1883.4000244140625</ele>
        <time>2026-06-20T11:40:00.000Z</time>
        <extensions>
          <ns3:TrackPointExtension>
            <ns3:atemp>23.0</ns3:atemp>
          </ns3:TrackPointExtension>
        </extensions>
      </trkpt>
      <trkpt lat="42.47138500213623046875" lon="20.1802660524845123291015625">
        <ele>1883.4000244140625</ele>
        <time>2026-06-20T11:40:01.000Z</time>
        <extensions>
          <ns3:TrackPointExtension>
            <ns3:atemp>23.0</ns3:atemp>
          </ns3:TrackPointExtension>
        </extensions>
      </trkpt>
      <trkpt lat="42.47138500213623046875" lon="20.1802660524845123291015625">
        <ele>1883.4000244140625</ele>
        <time>2026-06-20T11:40:02.000Z</time>
        <extensions>
          <ns3:TrackPointExtension>
            <ns3:atemp>23.0</ns3:atemp>
          </ns3:TrackPointExtension>
        </extensions>
      </trkpt>
      <trkpt lat="42.47138500213623046875" lon="20.1802660524845123291015625">
        <ele>1883.199951171875</ele>
        <time>2026-06-20T11:40:03.000Z</time>
        <extensions>
          <ns3:TrackPointExtension>
            <ns3:atemp>23.0</ns3:atemp>
          </ns3:TrackPointExtension>
        </extensions>
      </trkpt>
      <trkpt lat="42.47138500213623046875" lon="20.1802660524845123291015625">
        <ele>1883.199951171875</ele>
        <time>2026-06-20T11:40:04.000Z</time>
        <extensions>
          <ns3:TrackPointExtension>
            <ns3:atemp>23.0</ns3:atemp>
          </ns3:TrackPointExtension>
        </extensions>
      </trkpt>
      <trkpt lat="42.47138500213623046875" lon="20.1802660524845123291015625">
        <ele>1883.199951171875</ele>
        <time>2026-06-20T11:40:05.000Z</time>
        <extensions>
          <ns3:TrackPointExtension>
            <ns3:atemp>23.0</ns3:atemp>
          </ns3:TrackPointExtension>
        </extensions>
      </trkpt>
      <trkpt lat="42.47138500213623046875" lon="20.1802660524845123291015625">
        <ele>1883.199951171875</ele>
        <time>2026-06-20T11:40:06.000Z</time>
        <extensions>
          <ns3:TrackPointExtension>
            <ns3:atemp>23.0</ns3:atemp>
          </ns3:TrackPointExtension>
        </extensions>
      </trkpt>
      <trkpt lat="42.47138500213623046875" lon="20.1802660524845123291015625">
        <ele>1883.199951171875</ele>
        <time>2026-06-20T11:40:07.000Z</time>
        <extensions>
          <ns3:TrackPointExtension>
            <ns3:atemp>23.0</ns3:atemp>
          </ns3:TrackPointExtension>
        </extensions>
      </trkpt>
      <trkpt lat="42.47138500213623046875" lon="20.1802660524845123291015625">
        <ele>1883.199951171875</ele>
        <time>2026-06-20T11:40:08.000Z</time>
        <extensions>
          <ns3:TrackPointExtension>
            <ns3:atemp>23.0</ns3:atemp>
          </ns3:TrackPointExtension>
        </extensions>
      </trkpt>
      <trkpt lat="42.47138500213623046875" lon="20.1802660524845123291015625">
        <ele>1883.199951171875</ele>
        <time>2026-06-20T11:40:09.000Z</time>
        <extensions>
          <ns3:TrackPointExtension>
            <ns3:atemp>23.0</ns3:atemp>
          </ns3:TrackPointExtension>
        </extensions>
      </trkpt>
      <trkpt lat="42.47138500213623046875" lon="20.1802660524845123291015625">
        <ele>1883.199951171875</ele>
        <time>2026-06-20T11:40:10.000Z</time>
        <extensions>
          <ns3:TrackPointExtension>
            <ns3:atemp>23.0</ns3:atemp>
          </ns3:TrackPointExtension>
        </extensions>
      </trkpt>
      <trkpt lat="42.47138500213623046875" lon="20.1802660524845123291015625">
        <ele>1883.199951171875</ele>
        <time>2026-06-20T11:40:11.000Z</time>
        <extensions>
          <ns3:TrackPointExtension>
            <ns3:atemp>23.0</ns3:atemp>
          </ns3:TrackPointExtension>
        </extensions>
      </trkpt>
      <trkpt lat="42.47138500213623046875" lon="20.1802660524845123291015625">
        <ele>1883.199951171875</ele>
        <time>2026-06-20T11:40:12.000Z</time>
        <extensions>
          <ns3:TrackPointExtension>
            <ns3:atemp>23.0</ns3:atemp>
          </ns3:TrackPointExtension>
        </extensions>
      </trkpt>
      <trkpt lat="42.47138500213623046875" lon="20.1802660524845123291015625">
        <ele>1883.199951171875</ele>
        <time>2026-06-20T11:40:13.000Z</time>
        <extensions>
          <ns3:TrackPointExtension>
            <ns3:atemp>23.0</ns3:atemp>
          </ns3:TrackPointExtension>
        </extensions>
      </trkpt>
      <trkpt lat="42.47138500213623046875" lon="20.1802660524845123291015625">
        <ele>1883.199951171875</ele>
        <time>2026-06-20T11:40:14.000Z</time>
        <extensions>
          <ns3:TrackPointExtension>
            <ns3:atemp>23.0</ns3:atemp>
          </ns3:TrackPointExtension>
        </extensions>
      </trkpt>
      <trkpt lat="42.47138500213623046875" lon="20.1802660524845123291015625">
        <ele>1883.199951171875</ele>
        <time>2026-06-20T11:40:15.000Z</time>
        <extensions>
          <ns3:TrackPointExtension>
            <ns3:atemp>23.0</ns3:atemp>
          </ns3:TrackPointExtension>
        </extensions>
      </trkpt>
      <trkpt lat="42.47138500213623046875" lon="20.1802660524845123291015625">
        <ele>1883.4000244140625</ele>
        <time>2026-06-20T11:40:16.000Z</time>
        <extensions>
          <ns3:TrackPointExtension>
            <ns3:atemp>23.0</ns3:atemp>
          </ns3:TrackPointExtension>
        </extensions>
      </trkpt>
      <trkpt lat="42.47138500213623046875" lon="20.1802660524845123291015625">
        <ele>1883.4000244140625</ele>
        <time>2026-06-20T11:40:17.000Z</time>
        <extensions>
          <ns3:TrackPointExtension>
            <ns3:atemp>23.0</ns3:atemp>
          </ns3:TrackPointExtension>
        </extensions>
      </trkpt>
      <trkpt lat="42.47138500213623046875" lon="20.1802660524845123291015625">
        <ele>1883.4000244140625</ele>
        <time>2026-06-20T11:40:18.000Z</time>
        <extensions>
          <ns3:TrackPointExtension>
            <ns3:atemp>23.0</ns3:atemp>
          </ns3:TrackPointExtension>
        </extensions>
      </trkpt>
      <trkpt lat="42.47138500213623046875" lon="20.1802660524845123291015625">
        <ele>1883.5999755859375</ele>
        <time>2026-06-20T11:40:19.000Z</time>
        <extensions>
          <ns3:TrackPointExtension>
            <ns3:atemp>23.0</ns3:atemp>
          </ns3:TrackPointExtension>
        </extensions>
      </trkpt>
      <trkpt lat="42.47138500213623046875" lon="20.1802660524845123291015625">
        <ele>1883.5999755859375</ele>
        <time>2026-06-20T11:40:20.000Z</time>
        <extensions>
          <ns3:TrackPointExtension>
            <ns3:atemp>23.0</ns3:atemp>
          </ns3:TrackPointExtension>
        </extensions>
      </trkpt>
      <trkpt lat="42.47138500213623046875" lon="20.1802660524845123291015625">
        <ele>1883.5999755859375</ele>
        <time>2026-06-20T11:40:21.000Z</time>
        <extensions>
          <ns3:TrackPointExtension>
            <ns3:atemp>23.0</ns3:atemp>
          </ns3:TrackPointExtension>
        </extensions>
      </trkpt>
      <trkpt lat="42.47138500213623046875" lon="20.1802660524845123291015625">
        <ele>1883.4000244140625</ele>
        <time>2026-06-20T11:40:22.000Z</time>
        <extensions>
          <ns3:TrackPointExtension>
            <ns3:atemp>23.0</ns3:atemp>
          </ns3:TrackPointExtension>
        </extensions>
      </trkpt>
      <trkpt lat="42.47138500213623046875" lon="20.1802660524845123291015625">
        <ele>1883.199951171875</ele>
        <time>2026-06-20T11:40:23.000Z</time>
        <extensions>
          <ns3:TrackPointExtension>
            <ns3:atemp>23.0</ns3:atemp>
          </ns3:TrackPointExtension>
        </extensions>
      </trkpt>
      <trkpt lat="42.47138500213623046875" lon="20.1802660524845123291015625">
        <ele>1883</ele>
        <time>2026-06-20T11:40:24.000Z</time>
        <extensions>
          <ns3:TrackPointExtension>
            <ns3:atemp>23.0</ns3:atemp>
          </ns3:TrackPointExtension>
        </extensions>
      </trkpt>
      <trkpt lat="42.47138500213623046875" lon="20.1802660524845123291015625">
        <ele>1882.800048828125</ele>
        <time>2026-06-20T11:40:25.000Z</time>
        <extensions>
          <ns3:TrackPointExtension>
            <ns3:atemp>23.0</ns3:atemp>
          </ns3:TrackPointExtension>
        </extensions>
      </trkpt>
      <trkpt lat="42.47138500213623046875" lon="20.1802660524845123291015625">
        <ele>1882.800048828125</ele>
        <time>2026-06-20T11:40:26.000Z</time>
        <extensions>
          <ns3:TrackPointExtension>
            <ns3:atemp>23.0</ns3:atemp>
          </ns3:TrackPointExtension>
        </extensions>
      </trkpt>
      <trkpt lat="42.47138500213623046875" lon="20.1802660524845123291015625">
        <ele>1882.800048828125</ele>
        <time>2026-06-20T11:40:27.000Z</time>
        <extensions>
          <ns3:TrackPointExtension>
            <ns3:atemp>23.0</ns3:atemp>
          </ns3:TrackPointExtension>
        </extensions>
      </trkpt>
      <trkpt lat="42.47138500213623046875" lon="20.1802660524845123291015625">
        <ele>1882.800048828125</ele>
        <time>2026-06-20T11:40:28.000Z</time>
        <extensions>
          <ns3:TrackPointExtension>
            <ns3:atemp>23.0</ns3:atemp>
          </ns3:TrackPointExtension>
        </extensions>
      </trkpt>
      <trkpt lat="42.47138500213623046875" lon="20.1802660524845123291015625">
        <ele>1883</ele>
        <time>2026-06-20T11:40:29.000Z</time>
        <extensions>
          <ns3:TrackPointExtension>
            <ns3:atemp>23.0</ns3:atemp>
          </ns3:TrackPointExtension>
        </extensions>
      </trkpt>
      <trkpt lat="42.47138500213623046875" lon="20.1802660524845123291015625">
        <ele>1883</ele>
        <time>2026-06-20T11:40:30.000Z</time>
        <extensions>
          <ns3:TrackPointExtension>
            <ns3:atemp>23.0</ns3:atemp>
          </ns3:TrackPointExtension>
        </extensions>
      </trkpt>
      <trkpt lat="42.47138500213623046875" lon="20.1802660524845123291015625">
        <ele>1883.199951171875</ele>
        <time>2026-06-20T11:40:31.000Z</time>
        <extensions>
          <ns3:TrackPointExtension>
            <ns3:atemp>23.0</ns3:atemp>
          </ns3:TrackPointExtension>
        </extensions>
      </trkpt>
      <trkpt lat="42.47138500213623046875" lon="20.1802660524845123291015625">
        <ele>1883.199951171875</ele>
        <time>2026-06-20T11:40:32.000Z</time>
        <extensions>
          <ns3:TrackPointExtension>
            <ns3:atemp>23.0</ns3:atemp>
          </ns3:TrackPointExtension>
        </extensions>
      </trkpt>
      <trkpt lat="42.47138500213623046875" lon="20.1802660524845123291015625">
        <ele>1883.199951171875</ele>
        <time>2026-06-20T11:40:33.000Z</time>
        <extensions>
          <ns3:TrackPointExtension>
            <ns3:atemp>23.0</ns3:atemp>
          </ns3:TrackPointExtension>
        </extensions>
      </trkpt>
      <trkpt lat="42.47138500213623046875" lon="20.1802660524845123291015625">
        <ele>1883</ele>
        <time>2026-06-20T11:40:34.000Z</time>
        <extensions>
          <ns3:TrackPointExtension>
            <ns3:atemp>23.0</ns3:atemp>
          </ns3:TrackPointExtension>
        </extensions>
      </trkpt>
      <trkpt lat="42.47138500213623046875" lon="20.1802660524845123291015625">
        <ele>1883</ele>
        <time>2026-06-20T11:40:35.000Z</time>
        <extensions>
          <ns3:TrackPointExtension>
            <ns3:atemp>23.0</ns3:atemp>
          </ns3:TrackPointExtension>
        </extensions>
      </trkpt>
      <trkpt lat="42.47138500213623046875" lon="20.1802660524845123291015625">
        <ele>1883</ele>
        <time>2026-06-20T11:40:36.000Z</time>
        <extensions>
          <ns3:TrackPointExtension>
            <ns3:atemp>23.0</ns3:atemp>
          </ns3:TrackPointExtension>
        </extensions>
      </trkpt>
      <trkpt lat="42.47138500213623046875" lon="20.1802660524845123291015625">
        <ele>1883.199951171875</ele>
        <time>2026-06-20T11:40:37.000Z</time>
        <extensions>
          <ns3:TrackPointExtension>
            <ns3:atemp>23.0</ns3:atemp>
          </ns3:TrackPointExtension>
        </extensions>
      </trkpt>
      <trkpt lat="42.47138500213623046875" lon="20.1802660524845123291015625">
        <ele>1883</ele>
        <time>2026-06-20T11:40:38.000Z</time>
        <extensions>
          <ns3:TrackPointExtension>
            <ns3:atemp>23.0</ns3:atemp>
          </ns3:TrackPointExtension>
        </extensions>
      </trkpt>
      <trkpt lat="42.47138500213623046875" lon="20.1802660524845123291015625">
        <ele>1883</ele>
        <time>2026-06-20T11:40:39.000Z</time>
        <extensions>
          <ns3:TrackPointExtension>
            <ns3:atemp>23.0</ns3:atemp>
          </ns3:TrackPointExtension>
        </extensions>
      </trkpt>
      <trkpt lat="42.47137226164340972900390625" lon="20.18026345409452915191650390625">
        <ele>1883</ele>
        <time>2026-06-20T11:40:40.000Z</time>
        <extensions>
          <ns3:TrackPointExtension>
            <ns3:atemp>23.0</ns3:atemp>
          </ns3:TrackPointExtension>
        </extensions>
      </trkpt>
      <trkpt lat="42.4713630415499210357666015625" lon="20.1802719198167324066162109375">
        <ele>1882.800048828125</ele>
        <time>2026-06-20T11:40:41.000Z</time>
        <extensions>
          <ns3:TrackPointExtension>
            <ns3:atemp>23.0</ns3:atemp>
          </ns3:TrackPointExtension>
        </extensions>
      </trkpt>
      <trkpt lat="42.47135692276060581207275390625" lon="20.1802906952798366546630859375">
        <ele>1882.5999755859375</ele>
        <time>2026-06-20T11:40:42.000Z</time>
        <extensions>
          <ns3:TrackPointExtension>
            <ns3:atemp>23.0</ns3:atemp>
          </ns3:TrackPointExtension>
        </extensions>
      </trkpt>
      <trkpt lat="42.47135893441736698150634765625" lon="20.180321373045444488525390625">
        <ele>1882.4000244140625</ele>
        <time>2026-06-20T11:40:43.000Z</time>
        <extensions>
          <ns3:TrackPointExtension>
            <ns3:atemp>23.0</ns3:atemp>
          </ns3:TrackPointExtension>
        </extensions>
      </trkpt>
      <trkpt lat="42.47136421501636505126953125" lon="20.1803560741245746612548828125">
        <ele>1882.199951171875</ele>
        <time>2026-06-20T11:40:44.000Z</time>
        <extensions>
          <ns3:TrackPointExtension>
            <ns3:atemp>23.0</ns3:atemp>
          </ns3:TrackPointExtension>
        </extensions>
      </trkpt>
      <trkpt lat="42.47137016616761684417724609375" lon="20.1803909428417682647705078125">
        <ele>1882</ele>
        <time>2026-06-20T11:40:45.000Z</time>
        <extensions>
          <ns3:TrackPointExtension>
            <ns3:atemp>23.0</ns3:atemp>
          </ns3:TrackPointExtension>
        </extensions>
      </trkpt>
      <trkpt lat="42.4713704176247119903564453125" lon="20.18042857758700847625732421875">
        <ele>1881.5999755859375</ele>
        <time>2026-06-20T11:40:46.000Z</time>
        <extensions>
          <ns3:TrackPointExtension>
            <ns3:atemp>23.0</ns3:atemp>
          </ns3:TrackPointExtension>
        </extensions>
      </trkpt>
      <trkpt lat="42.471368573606014251708984375" lon="20.1804700680077075958251953125">
        <ele>1881.199951171875</ele>
        <time>2026-06-20T11:40:47.000Z</time>
        <extensions>
          <ns3:TrackPointExtension>
            <ns3:atemp>23.0</ns3:atemp>
          </ns3:TrackPointExtension>
        </extensions>
      </trkpt>
      <trkpt lat="42.4713648855686187744140625" lon="20.18051080405712127685546875">
        <ele>1880.5999755859375</ele>
        <time>2026-06-20T11:40:48.000Z</time>
        <extensions>
          <ns3:TrackPointExtension>
            <ns3:atemp>23.0</ns3:atemp>
          </ns3:TrackPointExtension>
        </extensions>
      </trkpt>
      <trkpt lat="42.47135910205543041229248046875" lon="20.1805512048304080963134765625">
        <ele>1880.199951171875</ele>
        <time>2026-06-20T11:40:49.000Z</time>
        <extensions>
          <ns3:TrackPointExtension>
            <ns3:atemp>23.0</ns3:atemp>
          </ns3:TrackPointExtension>
        </extensions>
      </trkpt>
      <trkpt lat="42.47135742567479610443115234375" lon="20.1805941201746463775634765625">
        <ele>1879.5999755859375</ele>
        <time>2026-06-20T11:40:50.000Z</time>
        <extensions>
          <ns3:TrackPointExtension>
            <ns3:atemp>23.0</ns3:atemp>
          </ns3:TrackPointExtension>
        </extensions>
      </trkpt>
      <trkpt lat="42.47135507874190807342529296875" lon="20.1806415617465972900390625">
        <ele>1879.199951171875</ele>
        <time>2026-06-20T11:40:51.000Z</time>
        <extensions>
          <ns3:TrackPointExtension>
            <ns3:atemp>23.0</ns3:atemp>
          </ns3:TrackPointExtension>
        </extensions>
      </trkpt>
      <trkpt lat="42.4713523127138614654541015625" lon="20.180691517889499664306640625">
        <ele>1879</ele>
        <time>2026-06-20T11:40:52.000Z</time>
        <extensions>
          <ns3:TrackPointExtension>
            <ns3:atemp>23.0</ns3:atemp>
          </ns3:TrackPointExtension>
        </extensions>
      </trkpt>
      <trkpt lat="42.47135424055159091949462890625" lon="20.1807476766407489776611328125">
        <ele>1878.4000244140625</ele>
        <time>2026-06-20T11:40:53.000Z</time>
        <extensions>
          <ns3:TrackPointExtension>
            <ns3:atemp>23.0</ns3:atemp>
          </ns3:TrackPointExtension>
        </extensions>
      </trkpt>
      <trkpt lat="42.47136228717863559722900390625" lon="20.18080626614391803741455078125">
        <ele>1878</ele>
        <time>2026-06-20T11:40:54.000Z</time>
        <extensions>
          <ns3:TrackPointExtension>
            <ns3:atemp>23.0</ns3:atemp>
          </ns3:TrackPointExtension>
        </extensions>
      </trkpt>
      <trkpt lat="42.471370585262775421142578125" lon="20.180865190923213958740234375">
        <ele>1877.4000244140625</ele>
        <time>2026-06-20T11:40:55.000Z</time>
        <extensions>
          <ns3:TrackPointExtension>
            <ns3:atemp>23.0</ns3:atemp>
          </ns3:TrackPointExtension>
        </extensions>
      </trkpt>
      <trkpt lat="42.47137628495693206787109375" lon="20.18092922866344451904296875">
        <ele>1876.800048828125</ele>
        <time>2026-06-20T11:40:56.000Z</time>
        <extensions>
          <ns3:TrackPointExtension>
            <ns3:atemp>23.0</ns3:atemp>
          </ns3:TrackPointExtension>
        </extensions>
      </trkpt>
      <trkpt lat="42.4713838286697864532470703125" lon="20.18098429776728153228759765625">
        <ele>1876</ele>
        <time>2026-06-20T11:40:57.000Z</time>
        <extensions>
          <ns3:TrackPointExtension>
            <ns3:atemp>23.0</ns3:atemp>
          </ns3:TrackPointExtension>
        </extensions>
      </trkpt>
      <trkpt lat="42.47139967046678066253662109375" lon="20.18103651702404022216796875">
        <ele>1875.199951171875</ele>
        <time>2026-06-20T11:40:58.000Z</time>
        <extensions>
          <ns3:TrackPointExtension>
            <ns3:atemp>23.0</ns3:atemp>
          </ns3:TrackPointExtension>
        </extensions>
      </trkpt>
      <trkpt lat="42.4714136682450771331787109375" lon="20.1810869760811328887939453125">
        <ele>1874.5999755859375</ele>
        <time>2026-06-20T11:40:59.000Z</time>
        <extensions>
          <ns3:TrackPointExtension>
            <ns3:atemp>23.0</ns3:atemp>
          </ns3:TrackPointExtension>
        </extensions>
      </trkpt>
      <trkpt lat="42.47143101878464221954345703125" lon="20.18113768659532070159912109375">
        <ele>1874</ele>
        <time>2026-06-20T11:41:00.000Z</time>
        <extensions>
          <ns3:TrackPointExtension>
            <ns3:atemp>23.0</ns3:atemp>
          </ns3:TrackPointExtension>
        </extensions>
      </trkpt>
      <trkpt lat="42.4714539013803005218505859375" lon="20.18118764273822307586669921875">
        <ele>1873.5999755859375</ele>
        <time>2026-06-20T11:41:01.000Z</time>
        <extensions>
          <ns3:TrackPointExtension>
            <ns3:atemp>23.0</ns3:atemp>
          </ns3:TrackPointExtension>
        </extensions>
      </trkpt>
      <trkpt lat="42.4714649654924869537353515625" lon="20.18123793415725231170654296875">
        <ele>1873.4000244140625</ele>
        <time>2026-06-20T11:41:02.000Z</time>
        <extensions>
          <ns3:TrackPointExtension>
            <ns3:atemp>23.0</ns3:atemp>
          </ns3:TrackPointExtension>
        </extensions>
      </trkpt>
      <trkpt lat="42.47146035544574260711669921875" lon="20.1812834478914737701416015625">
        <ele>1873.199951171875</ele>
        <time>2026-06-20T11:41:03.000Z</time>
        <extensions>
          <ns3:TrackPointExtension>
            <ns3:atemp>23.0</ns3:atemp>
          </ns3:TrackPointExtension>
        </extensions>
      </trkpt>
      <trkpt lat="42.47144208289682865142822265625" lon="20.1813233457505702972412109375">
        <ele>1872.800048828125</ele>
        <time>2026-06-20T11:41:04.000Z</time>
        <extensions>
          <ns3:TrackPointExtension>
            <ns3:atemp>23.0</ns3:atemp>
          </ns3:TrackPointExtension>
        </extensions>
      </trkpt>
      <trkpt lat="42.47141961939632892608642578125" lon="20.18135326914489269256591796875">
        <ele>1872.199951171875</ele>
        <time>2026-06-20T11:41:05.000Z</time>
        <extensions>
          <ns3:TrackPointExtension>
            <ns3:atemp>23.0</ns3:atemp>
          </ns3:TrackPointExtension>
        </extensions>
      </trkpt>
      <trkpt lat="42.47138592414557933807373046875" lon="20.1813766546547412872314453125">
        <ele>1871.5999755859375</ele>
        <time>2026-06-20T11:41:06.000Z</time>
        <extensions>
          <ns3:TrackPointExtension>
            <ns3:atemp>23.0</ns3:atemp>
          </ns3:TrackPointExtension>
        </extensions>
      </trkpt>
      <trkpt lat="42.47134636156260967254638671875" lon="20.18139056861400604248046875">
        <ele>1870.800048828125</ele>
        <time>2026-06-20T11:41:07.000Z</time>
        <extensions>
          <ns3:TrackPointExtension>
            <ns3:atemp>23.0</ns3:atemp>
          </ns3:TrackPointExtension>
        </extensions>
      </trkpt>
      <trkpt lat="42.4713114090263843536376953125" lon="20.181395597755908966064453125">
        <ele>1869.800048828125</ele>
        <time>2026-06-20T11:41:08.000Z</time>
        <extensions>
          <ns3:TrackPointExtension>
            <ns3:atemp>23.0</ns3:atemp>
          </ns3:TrackPointExtension>
        </extensions>
      </trkpt>
      <trkpt lat="42.47127628885209560394287109375" lon="20.1814101822674274444580078125">
        <ele>1869</ele>
        <time>2026-06-20T11:41:09.000Z</time>
        <extensions>
          <ns3:TrackPointExtension>
            <ns3:atemp>23.0</ns3:atemp>
          </ns3:TrackPointExtension>
        </extensions>
      </trkpt>
      <trkpt lat="42.47123957611620426177978515625" lon="20.18142837099730968475341796875">
        <ele>1868.199951171875</ele>
        <time>2026-06-20T11:41:10.000Z</time>
        <extensions>
          <ns3:TrackPointExtension>
            <ns3:atemp>23.0</ns3:atemp>
          </ns3:TrackPointExtension>
        </extensions>
      </trkpt>
      <trkpt lat="42.4712041206657886505126953125" lon="20.18146709538996219635009765625">
        <ele>1867.199951171875</ele>
        <time>2026-06-20T11:41:11.000Z</time>
        <extensions>
          <ns3:TrackPointExtension>
            <ns3:atemp>23.0</ns3:atemp>
          </ns3:TrackPointExtension>
        </extensions>
      </trkpt>
      <trkpt lat="42.4711793102324008941650390625" lon="20.181510932743549346923828125">
        <ele>1866.199951171875</ele>
        <time>2026-06-20T11:41:12.000Z</time>
        <extensions>
          <ns3:TrackPointExtension>
            <ns3:atemp>23.0</ns3:atemp>
          </ns3:TrackPointExtension>
        </extensions>
      </trkpt>
      <trkpt lat="42.47116598300635814666748046875" lon="20.18155409954488277435302734375">
        <ele>1865.199951171875</ele>
        <time>2026-06-20T11:41:13.000Z</time>
        <extensions>
          <ns3:TrackPointExtension>
            <ns3:atemp>23.0</ns3:atemp>
          </ns3:TrackPointExtension>
        </extensions>
      </trkpt>
      <trkpt lat="42.47115190140902996063232421875" lon="20.181600116193294525146484375">
        <ele>1864.4000244140625</ele>
        <time>2026-06-20T11:41:14.000Z</time>
        <extensions>
          <ns3:TrackPointExtension>
            <ns3:atemp>23.0</ns3:atemp>
          </ns3:TrackPointExtension>
        </extensions>
      </trkpt>
      <trkpt lat="42.47114100493490695953369140625" lon="20.1816452108323574066162109375">
        <ele>1863.4000244140625</ele>
        <time>2026-06-20T11:41:15.000Z</time>
        <extensions>
          <ns3:TrackPointExtension>
            <ns3:atemp>23.0</ns3:atemp>
          </ns3:TrackPointExtension>
        </extensions>
      </trkpt>
      <trkpt lat="42.4711306951940059661865234375" lon="20.18169558607041835784912109375">
        <ele>1862.5999755859375</ele>
        <time>2026-06-20T11:41:16.000Z</time>
        <extensions>
          <ns3:TrackPointExtension>
            <ns3:atemp>23.0</ns3:atemp>
          </ns3:TrackPointExtension>
        </extensions>
      </trkpt>
      <trkpt lat="42.4711162783205509185791015625" lon="20.181748978793621063232421875">
        <ele>1861.4000244140625</ele>
        <time>2026-06-20T11:41:17.000Z</time>
        <extensions>
          <ns3:TrackPointExtension>
            <ns3:atemp>23.0</ns3:atemp>
          </ns3:TrackPointExtension>
        </extensions>
      </trkpt>
      <trkpt lat="42.47110269963741302490234375" lon="20.181804634630680084228515625">
        <ele>1860.199951171875</ele>
        <time>2026-06-20T11:41:18.000Z</time>
        <extensions>
          <ns3:TrackPointExtension>
            <ns3:atemp>23.0</ns3:atemp>
          </ns3:TrackPointExtension>
        </extensions>
      </trkpt>
      <trkpt lat="42.47108685784041881561279296875" lon="20.18186121247708797454833984375">
        <ele>1859.199951171875</ele>
        <time>2026-06-20T11:41:19.000Z</time>
        <extensions>
          <ns3:TrackPointExtension>
            <ns3:atemp>23.0</ns3:atemp>
          </ns3:TrackPointExtension>
        </extensions>
      </trkpt>
      <trkpt lat="42.47107026167213916778564453125" lon="20.181918628513813018798828125">
        <ele>1858.199951171875</ele>
        <time>2026-06-20T11:41:20.000Z</time>
        <extensions>
          <ns3:TrackPointExtension>
            <ns3:atemp>23.0</ns3:atemp>
          </ns3:TrackPointExtension>
        </extensions>
      </trkpt>
      <trkpt lat="42.471049726009368896484375" lon="20.18197931349277496337890625">
        <ele>1857.4000244140625</ele>
        <time>2026-06-20T11:41:21.000Z</time>
        <extensions>
          <ns3:TrackPointExtension>
            <ns3:atemp>23.0</ns3:atemp>
          </ns3:TrackPointExtension>
        </extensions>
      </trkpt>
      <trkpt lat="42.471028603613376617431640625" lon="20.1820443570613861083984375">
        <ele>1856.199951171875</ele>
        <time>2026-06-20T11:41:22.000Z</time>
        <extensions>
          <ns3:TrackPointExtension>
            <ns3:atemp>23.0</ns3:atemp>
          </ns3:TrackPointExtension>
        </extensions>
      </trkpt>
      <trkpt lat="42.4710173718631267547607421875" lon="20.18210546113550662994384765625">
        <ele>1855.199951171875</ele>
        <time>2026-06-20T11:41:23.000Z</time>
        <extensions>
          <ns3:TrackPointExtension>
            <ns3:atemp>23.0</ns3:atemp>
          </ns3:TrackPointExtension>
        </extensions>
      </trkpt>
      <trkpt lat="42.47101494111120700836181640625" lon="20.1821595244109630584716796875">
        <ele>1854.4000244140625</ele>
        <time>2026-06-20T11:41:24.000Z</time>
        <extensions>
          <ns3:TrackPointExtension>
            <ns3:atemp>23.0</ns3:atemp>
          </ns3:TrackPointExtension>
        </extensions>
      </trkpt>
      <trkpt lat="42.47100572101771831512451171875" lon="20.18221224658191204071044921875">
        <ele>1853.5999755859375</ele>
        <time>2026-06-20T11:41:25.000Z</time>
        <extensions>
          <ns3:TrackPointExtension>
            <ns3:atemp>23.0</ns3:atemp>
          </ns3:TrackPointExtension>
        </extensions>
      </trkpt>
      <trkpt lat="42.47099029831588268280029296875" lon="20.1822641305625438690185546875">
        <ele>1852.4000244140625</ele>
        <time>2026-06-20T11:41:26.000Z</time>
        <extensions>
          <ns3:TrackPointExtension>
            <ns3:atemp>23.0</ns3:atemp>
          </ns3:TrackPointExtension>
        </extensions>
      </trkpt>
      <trkpt lat="42.47096724808216094970703125" lon="20.18230729736387729644775390625">
        <ele>1851.199951171875</ele>
        <time>2026-06-20T11:41:27.000Z</time>
        <extensions>
          <ns3:TrackPointExtension>
            <ns3:atemp>23.0</ns3:atemp>
          </ns3:TrackPointExtension>
        </extensions>
      </trkpt>
      <trkpt lat="42.4709325470030307769775390625" lon="20.18233931623399257659912109375">
        <ele>1850.199951171875</ele>
        <time>2026-06-20T11:41:28.000Z</time>
        <extensions>
          <ns3:TrackPointExtension>
            <ns3:atemp>23.0</ns3:atemp>
          </ns3:TrackPointExtension>
        </extensions>
      </trkpt>
      <trkpt lat="42.47089977376163005828857421875" lon="20.1823580078780651092529296875">
        <ele>1849.199951171875</ele>
        <time>2026-06-20T11:41:29.000Z</time>
        <extensions>
          <ns3:TrackPointExtension>
            <ns3:atemp>23.0</ns3:atemp>
          </ns3:TrackPointExtension>
        </extensions>
      </trkpt>
      <trkpt lat="42.47085903771221637725830078125" lon="20.18236010335385799407958984375">
        <ele>1848.199951171875</ele>
        <time>2026-06-20T11:41:30.000Z</time>
        <extensions>
          <ns3:TrackPointExtension>
            <ns3:atemp>23.0</ns3:atemp>
          </ns3:TrackPointExtension>
        </extensions>
      </trkpt>
      <trkpt lat="42.47081042267382144927978515625" lon="20.18235272727906703948974609375">
        <ele>1847.4000244140625</ele>
        <time>2026-06-20T11:41:31.000Z</time>
        <extensions>
          <ns3:TrackPointExtension>
            <ns3:atemp>23.0</ns3:atemp>
          </ns3:TrackPointExtension>
        </extensions>
      </trkpt>
      <trkpt lat="42.47075937688350677490234375" lon="20.18236010335385799407958984375">
        <ele>1846.4000244140625</ele>
        <time>2026-06-20T11:41:32.000Z</time>
        <extensions>
          <ns3:TrackPointExtension>
            <ns3:atemp>23.0</ns3:atemp>
          </ns3:TrackPointExtension>
        </extensions>
      </trkpt>
      <trkpt lat="42.47071369551122188568115234375" lon="20.18239312805235385894775390625">
        <ele>1845.5999755859375</ele>
        <time>2026-06-20T11:41:33.000Z</time>
        <extensions>
          <ns3:TrackPointExtension>
            <ns3:atemp>23.0</ns3:atemp>
          </ns3:TrackPointExtension>
        </extensions>
      </trkpt>
      <trkpt lat="42.47067664749920368194580078125" lon="20.1824528910219669342041015625">
        <ele>1844.5999755859375</ele>
        <time>2026-06-20T11:41:34.000Z</time>
        <extensions>
          <ns3:TrackPointExtension>
            <ns3:atemp>23.0</ns3:atemp>
          </ns3:TrackPointExtension>
        </extensions>
      </trkpt>
      <trkpt lat="42.47065250761806964874267578125" lon="20.182536877691745758056640625">
        <ele>1843.800048828125</ele>
        <time>2026-06-20T11:41:35.000Z</time>
        <extensions>
          <ns3:TrackPointExtension>
            <ns3:atemp>23.0</ns3:atemp>
          </ns3:TrackPointExtension>
        </extensions>
      </trkpt>
      <trkpt lat="42.47064479626715183258056640625" lon="20.1826325990259647369384765625">
        <ele>1842.5999755859375</ele>
        <time>2026-06-20T11:41:36.000Z</time>
        <extensions>
          <ns3:TrackPointExtension>
            <ns3:atemp>23.0</ns3:atemp>
          </ns3:TrackPointExtension>
        </extensions>
      </trkpt>
      <trkpt lat="42.47064228169620037078857421875" lon="20.18272018991410732269287109375">
        <ele>1841.199951171875</ele>
        <time>2026-06-20T11:41:37.000Z</time>
        <extensions>
          <ns3:TrackPointExtension>
            <ns3:atemp>23.0</ns3:atemp>
          </ns3:TrackPointExtension>
        </extensions>
      </trkpt>
      <trkpt lat="42.4706385098397731781005859375" lon="20.18280811607837677001953125">
        <ele>1840</ele>
        <time>2026-06-20T11:41:38.000Z</time>
        <extensions>
          <ns3:TrackPointExtension>
            <ns3:atemp>23.0</ns3:atemp>
          </ns3:TrackPointExtension>
        </extensions>
      </trkpt>
      <trkpt lat="42.470630966126918792724609375" lon="20.18289101310074329376220703125">
        <ele>1838.5999755859375</ele>
        <time>2026-06-20T11:41:39.000Z</time>
        <extensions>
          <ns3:TrackPointExtension>
            <ns3:atemp>23.0</ns3:atemp>
          </ns3:TrackPointExtension>
        </extensions>
      </trkpt>
      <trkpt lat="42.4706237576901912689208984375" lon="20.1829732395708560943603515625">
        <ele>1837.4000244140625</ele>
        <time>2026-06-20T11:41:40.000Z</time>
        <extensions>
          <ns3:TrackPointExtension>
            <ns3:atemp>23.0</ns3:atemp>
          </ns3:TrackPointExtension>
        </extensions>
      </trkpt>
      <trkpt lat="42.4706193991005420684814453125" lon="20.18305898644030094146728515625">
        <ele>1836.4000244140625</ele>
        <time>2026-06-20T11:41:41.000Z</time>
        <extensions>
          <ns3:TrackPointExtension>
            <ns3:atemp>23.0</ns3:atemp>
          </ns3:TrackPointExtension>
        </extensions>
      </trkpt>
      <trkpt lat="42.4706180579960346221923828125" lon="20.18314213491976261138916015625">
        <ele>1834.800048828125</ele>
        <time>2026-06-20T11:41:42.000Z</time>
        <extensions>
          <ns3:TrackPointExtension>
            <ns3:atemp>23.0</ns3:atemp>
          </ns3:TrackPointExtension>
        </extensions>
      </trkpt>
      <trkpt lat="42.47062635608017444610595703125" lon="20.18321857787668704986572265625">
        <ele>1833.800048828125</ele>
        <time>2026-06-20T11:41:43.000Z</time>
        <extensions>
          <ns3:TrackPointExtension>
            <ns3:atemp>23.0</ns3:atemp>
          </ns3:TrackPointExtension>
        </extensions>
      </trkpt>
      <trkpt lat="42.47063658200204372406005859375" lon="20.18328663893043994903564453125">
        <ele>1833</ele>
        <time>2026-06-20T11:41:44.000Z</time>
        <extensions>
          <ns3:TrackPointExtension>
            <ns3:atemp>23.0</ns3:atemp>
          </ns3:TrackPointExtension>
        </extensions>
      </trkpt>
      <trkpt lat="42.4706398509442806243896484375" lon="20.183354951441287994384765625">
        <ele>1832.199951171875</ele>
        <time>2026-06-20T11:41:45.000Z</time>
        <extensions>
          <ns3:TrackPointExtension>
            <ns3:atemp>23.0</ns3:atemp>
          </ns3:TrackPointExtension>
        </extensions>
      </trkpt>
      <trkpt lat="42.470641694962978363037109375" lon="20.18342628143727779388427734375">
        <ele>1831.4000244140625</ele>
        <time>2026-06-20T11:41:46.000Z</time>
        <extensions>
          <ns3:TrackPointExtension>
            <ns3:atemp>23.0</ns3:atemp>
          </ns3:TrackPointExtension>
        </extensions>
      </trkpt>
      <trkpt lat="42.47064664028584957122802734375" lon="20.18350892700254917144775390625">
        <ele>1830.4000244140625</ele>
        <time>2026-06-20T11:41:47.000Z</time>
        <extensions>
          <ns3:TrackPointExtension>
            <ns3:atemp>23.0</ns3:atemp>
          </ns3:TrackPointExtension>
        </extensions>
      </trkpt>
      <trkpt lat="42.47065451927483081817626953125" lon="20.18359626643359661102294921875">
        <ele>1829.199951171875</ele>
        <time>2026-06-20T11:41:48.000Z</time>
        <extensions>
          <ns3:TrackPointExtension>
            <ns3:atemp>23.0</ns3:atemp>
          </ns3:TrackPointExtension>
        </extensions>
      </trkpt>
      <trkpt lat="42.47064747847616672515869140625" lon="20.18368544988334178924560546875">
        <ele>1828.199951171875</ele>
        <time>2026-06-20T11:41:49.000Z</time>
        <extensions>
          <ns3:TrackPointExtension>
            <ns3:atemp>23.0</ns3:atemp>
          </ns3:TrackPointExtension>
        </extensions>
      </trkpt>
      <trkpt lat="42.470632977783679962158203125" lon="20.183770693838596343994140625">
        <ele>1827</ele>
        <time>2026-06-20T11:41:50.000Z</time>
        <extensions>
          <ns3:TrackPointExtension>
            <ns3:atemp>23.0</ns3:atemp>
          </ns3:TrackPointExtension>
        </extensions>
      </trkpt>
      <trkpt lat="42.47063599526882171630859375" lon="20.18385811708867549896240234375">
        <ele>1825.800048828125</ele>
        <time>2026-06-20T11:41:51.000Z</time>
        <extensions>
          <ns3:TrackPointExtension>
            <ns3:atemp>23.0</ns3:atemp>
          </ns3:TrackPointExtension>
        </extensions>
      </trkpt>
      <trkpt lat="42.47065049596130847930908203125" lon="20.1839488931000232696533203125">
        <ele>1824.4000244140625</ele>
        <time>2026-06-20T11:41:52.000Z</time>
        <extensions>
          <ns3:TrackPointExtension>
            <ns3:atemp>23.0</ns3:atemp>
          </ns3:TrackPointExtension>
        </extensions>
      </trkpt>
      <trkpt lat="42.4706670083105564117431640625" lon="20.1840461231768131256103515625">
        <ele>1823.199951171875</ele>
        <time>2026-06-20T11:41:53.000Z</time>
        <extensions>
          <ns3:TrackPointExtension>
            <ns3:atemp>23.0</ns3:atemp>
          </ns3:TrackPointExtension>
        </extensions>
      </trkpt>
      <trkpt lat="42.4706743843853473663330078125" lon="20.18414310179650783538818359375">
        <ele>1822</ele>
        <time>2026-06-20T11:41:54.000Z</time>
        <extensions>
          <ns3:TrackPointExtension>
            <ns3:atemp>23.0</ns3:atemp>
          </ns3:TrackPointExtension>
        </extensions>
      </trkpt>
      <trkpt lat="42.47068938799202442169189453125" lon="20.184226669371128082275390625">
        <ele>1821</ele>
        <time>2026-06-20T11:41:55.000Z</time>
        <extensions>
          <ns3:TrackPointExtension>
            <ns3:atemp>23.0</ns3:atemp>
          </ns3:TrackPointExtension>
        </extensions>
      </trkpt>
      <trkpt lat="42.47071922756731510162353515625" lon="20.1842902041971683502197265625">
        <ele>1820</ele>
        <time>2026-06-20T11:41:56.000Z</time>
        <extensions>
          <ns3:TrackPointExtension>
            <ns3:atemp>23.0</ns3:atemp>
          </ns3:TrackPointExtension>
        </extensions>
      </trkpt>
      <trkpt lat="42.47075946070253849029541015625" lon="20.18433202989399433135986328125">
        <ele>1819</ele>
        <time>2026-06-20T11:41:57.000Z</time>
        <extensions>
          <ns3:TrackPointExtension>
            <ns3:atemp>23.0</ns3:atemp>
          </ns3:TrackPointExtension>
        </extensions>
      </trkpt>
      <trkpt lat="42.47080572880804538726806640625" lon="20.184360444545745849609375">
        <ele>1818.199951171875</ele>
        <time>2026-06-20T11:41:58.000Z</time>
        <extensions>
          <ns3:TrackPointExtension>
            <ns3:atemp>23.0</ns3:atemp>
          </ns3:TrackPointExtension>
        </extensions>
      </trkpt>
      <trkpt lat="42.47084654867649078369140625" lon="20.18438500352203845977783203125">
        <ele>1817.5999755859375</ele>
        <time>2026-06-20T11:41:59.000Z</time>
        <extensions>
          <ns3:TrackPointExtension>
            <ns3:atemp>23.0</ns3:atemp>
          </ns3:TrackPointExtension>
        </extensions>
      </trkpt>
      <trkpt lat="42.47087764553725719451904296875" lon="20.18440528772771358489990234375">
        <ele>1817</ele>
        <time>2026-06-20T11:42:00.000Z</time>
        <extensions>
          <ns3:TrackPointExtension>
            <ns3:atemp>23.0</ns3:atemp>
          </ns3:TrackPointExtension>
        </extensions>
      </trkpt>
      <trkpt lat="42.4709047190845012664794921875" lon="20.18443596549332141876220703125">
        <ele>1816.4000244140625</ele>
        <time>2026-06-20T11:42:01.000Z</time>
        <extensions>
          <ns3:TrackPointExtension>
            <ns3:atemp>23.0</ns3:atemp>
          </ns3:TrackPointExtension>
        </extensions>
      </trkpt>
      <trkpt lat="42.4709027074277400970458984375" lon="20.184467732906341552734375">
        <ele>1815.5999755859375</ele>
        <time>2026-06-20T11:42:02.000Z</time>
        <extensions>
          <ns3:TrackPointExtension>
            <ns3:atemp>23.0</ns3:atemp>
          </ns3:TrackPointExtension>
        </extensions>
      </trkpt>
      <trkpt lat="42.4709023721516132354736328125" lon="20.18450058996677398681640625">
        <ele>1815.199951171875</ele>
        <time>2026-06-20T11:42:03.000Z</time>
        <extensions>
          <ns3:TrackPointExtension>
            <ns3:atemp>23.0</ns3:atemp>
          </ns3:TrackPointExtension>
        </extensions>
      </trkpt>
      <trkpt lat="42.470898516476154327392578125" lon="20.18453638069331645965576171875">
        <ele>1814.800048828125</ele>
        <time>2026-06-20T11:42:04.000Z</time>
        <extensions>
          <ns3:TrackPointExtension>
            <ns3:atemp>23.0</ns3:atemp>
          </ns3:TrackPointExtension>
        </extensions>
      </trkpt>
      <trkpt lat="42.4708886258304119110107421875" lon="20.18458197824656963348388671875">
        <ele>1814.4000244140625</ele>
        <time>2026-06-20T11:42:05.000Z</time>
        <extensions>
          <ns3:TrackPointExtension>
            <ns3:atemp>23.0</ns3:atemp>
          </ns3:TrackPointExtension>
        </extensions>
      </trkpt>
      <trkpt lat="42.47087202966213226318359375" lon="20.18463243730366230010986328125">
        <ele>1814</ele>
        <time>2026-06-20T11:42:06.000Z</time>
        <extensions>
          <ns3:TrackPointExtension>
            <ns3:atemp>23.0</ns3:atemp>
          </ns3:TrackPointExtension>
        </extensions>
      </trkpt>
      <trkpt lat="42.47085853479802608489990234375" lon="20.18469681032001972198486328125">
        <ele>1813.199951171875</ele>
        <time>2026-06-20T11:42:07.000Z</time>
        <extensions>
          <ns3:TrackPointExtension>
            <ns3:atemp>23.0</ns3:atemp>
          </ns3:TrackPointExtension>
        </extensions>
      </trkpt>
      <trkpt lat="42.4708581157028675079345703125" lon="20.1847694814205169677734375">
        <ele>1812.5999755859375</ele>
        <time>2026-06-20T11:42:08.000Z</time>
        <extensions>
          <ns3:TrackPointExtension>
            <ns3:atemp>23.0</ns3:atemp>
          </ns3:TrackPointExtension>
        </extensions>
      </trkpt>
      <trkpt lat="42.47086465358734130859375" lon="20.18484902568161487579345703125">
        <ele>1812</ele>
        <time>2026-06-20T11:42:09.000Z</time>
        <extensions>
          <ns3:TrackPointExtension>
            <ns3:atemp>23.0</ns3:atemp>
          </ns3:TrackPointExtension>
        </extensions>
      </trkpt>
      <trkpt lat="42.47087378986179828643798828125" lon="20.184932090342044830322265625">
        <ele>1811.4000244140625</ele>
        <time>2026-06-20T11:42:10.000Z</time>
        <extensions>
          <ns3:TrackPointExtension>
            <ns3:atemp>23.0</ns3:atemp>
          </ns3:TrackPointExtension>
        </extensions>
      </trkpt>
      <trkpt lat="42.470881082117557525634765625" lon="20.18501557409763336181640625">
        <ele>1811</ele>
        <time>2026-06-20T11:42:11.000Z</time>
        <extensions>
          <ns3:TrackPointExtension>
            <ns3:atemp>23.0</ns3:atemp>
          </ns3:TrackPointExtension>
        </extensions>
      </trkpt>
      <trkpt lat="42.4708966724574565887451171875" lon="20.18509335815906524658203125">
        <ele>1810.5999755859375</ele>
        <time>2026-06-20T11:42:12.000Z</time>
        <extensions>
          <ns3:TrackPointExtension>
            <ns3:atemp>23.0</ns3:atemp>
          </ns3:TrackPointExtension>
        </extensions>
      </trkpt>
      <trkpt lat="42.4709134362637996673583984375" lon="20.185174830257892608642578125">
        <ele>1809.800048828125</ele>
        <time>2026-06-20T11:42:13.000Z</time>
        <extensions>
          <ns3:TrackPointExtension>
            <ns3:atemp>23.0</ns3:atemp>
          </ns3:TrackPointExtension>
        </extensions>
      </trkpt>
      <trkpt lat="42.4709250032901763916015625" lon="20.18525504507124423980712890625">
        <ele>1808.800048828125</ele>
        <time>2026-06-20T11:42:14.000Z</time>
        <extensions>
          <ns3:TrackPointExtension>
            <ns3:atemp>23.0</ns3:atemp>
          </ns3:TrackPointExtension>
        </extensions>
      </trkpt>
      <trkpt lat="42.47094352729618549346923828125" lon="20.185334421694278717041015625">
        <ele>1807.5999755859375</ele>
        <time>2026-06-20T11:42:15.000Z</time>
        <extensions>
          <ns3:TrackPointExtension>
            <ns3:atemp>23.0</ns3:atemp>
          </ns3:TrackPointExtension>
        </extensions>
      </trkpt>
      <trkpt lat="42.47094905935227870941162109375" lon="20.185416229069232940673828125">
        <ele>1806.800048828125</ele>
        <time>2026-06-20T11:42:16.000Z</time>
        <extensions>
          <ns3:TrackPointExtension>
            <ns3:atemp>23.0</ns3:atemp>
          </ns3:TrackPointExtension>
        </extensions>
      </trkpt>
      <trkpt lat="42.47095308266580104827880859375" lon="20.1855002157390117645263671875">
        <ele>1806.199951171875</ele>
        <time>2026-06-20T11:42:17.000Z</time>
        <extensions>
          <ns3:TrackPointExtension>
            <ns3:atemp>23.0</ns3:atemp>
          </ns3:TrackPointExtension>
        </extensions>
      </trkpt>
      <trkpt lat="42.4709486402571201324462890625" lon="20.18558780662715435028076171875">
        <ele>1805.5999755859375</ele>
        <time>2026-06-20T11:42:18.000Z</time>
        <extensions>
          <ns3:TrackPointExtension>
            <ns3:atemp>23.0</ns3:atemp>
          </ns3:TrackPointExtension>
        </extensions>
      </trkpt>
      <trkpt lat="42.470938749611377716064453125" lon="20.1856671832501888275146484375">
        <ele>1805.199951171875</ele>
        <time>2026-06-20T11:42:19.000Z</time>
        <extensions>
          <ns3:TrackPointExtension>
            <ns3:atemp>23.0</ns3:atemp>
          </ns3:TrackPointExtension>
        </extensions>
      </trkpt>
      <trkpt lat="42.47092743404209613800048828125" lon="20.18573717214167118072509765625">
        <ele>1804.800048828125</ele>
        <time>2026-06-20T11:42:20.000Z</time>
        <extensions>
          <ns3:TrackPointExtension>
            <ns3:atemp>23.0</ns3:atemp>
          </ns3:TrackPointExtension>
        </extensions>
      </trkpt>
      <trkpt lat="42.47091896831989288330078125" lon="20.18579500727355480194091796875">
        <ele>1804.199951171875</ele>
        <time>2026-06-20T11:42:21.000Z</time>
        <extensions>
          <ns3:TrackPointExtension>
            <ns3:atemp>23.0</ns3:atemp>
          </ns3:TrackPointExtension>
        </extensions>
      </trkpt>
      <trkpt lat="42.47091150842607021331787109375" lon="20.1858579553663730621337890625">
        <ele>1803.5999755859375</ele>
        <time>2026-06-20T11:42:22.000Z</time>
        <extensions>
          <ns3:TrackPointExtension>
            <ns3:atemp>23.0</ns3:atemp>
          </ns3:TrackPointExtension>
        </extensions>
      </trkpt>
      <trkpt lat="42.47090714983642101287841796875" lon="20.18593649379909038543701171875">
        <ele>1803</ele>
        <time>2026-06-20T11:42:23.000Z</time>
        <extensions>
          <ns3:TrackPointExtension>
            <ns3:atemp>23.0</ns3:atemp>
          </ns3:TrackPointExtension>
        </extensions>
      </trkpt>
      <trkpt lat="42.47090077959001064300537109375" lon="20.18601737916469573974609375">
        <ele>1802.4000244140625</ele>
        <time>2026-06-20T11:42:24.000Z</time>
        <extensions>
          <ns3:TrackPointExtension>
            <ns3:atemp>23.0</ns3:atemp>
          </ns3:TrackPointExtension>
        </extensions>
      </trkpt>
      <trkpt lat="42.47089558281004428863525390625" lon="20.1861063949763774871826171875">
        <ele>1801.5999755859375</ele>
        <time>2026-06-20T11:42:25.000Z</time>
        <extensions>
          <ns3:TrackPointExtension>
            <ns3:atemp>23.0</ns3:atemp>
          </ns3:TrackPointExtension>
        </extensions>
      </trkpt>
      <trkpt lat="42.47089725919067859649658203125" lon="20.18620236776769161224365234375">
        <ele>1800.5999755859375</ele>
        <time>2026-06-20T11:42:26.000Z</time>
        <extensions>
          <ns3:TrackPointExtension>
            <ns3:atemp>23.0</ns3:atemp>
          </ns3:TrackPointExtension>
        </extensions>
      </trkpt>
      <trkpt lat="42.470893152058124542236328125" lon="20.186305381357669830322265625">
        <ele>1799.199951171875</ele>
        <time>2026-06-20T11:42:27.000Z</time>
        <extensions>
          <ns3:TrackPointExtension>
            <ns3:atemp>23.0</ns3:atemp>
          </ns3:TrackPointExtension>
        </extensions>
      </trkpt>
      <trkpt lat="42.47088133357465267181396484375" lon="20.1864054612815380096435546875">
        <ele>1798</ele>
        <time>2026-06-20T11:42:28.000Z</time>
        <extensions>
          <ns3:TrackPointExtension>
            <ns3:atemp>23.0</ns3:atemp>
          </ns3:TrackPointExtension>
        </extensions>
      </trkpt>
      <trkpt lat="42.4708799086511135101318359375" lon="20.18650026060640811920166015625">
        <ele>1796.800048828125</ele>
        <time>2026-06-20T11:42:29.000Z</time>
        <extensions>
          <ns3:TrackPointExtension>
            <ns3:atemp>23.0</ns3:atemp>
          </ns3:TrackPointExtension>
        </extensions>
      </trkpt>
      <trkpt lat="42.470879070460796356201171875" lon="20.1865992508828639984130859375">
        <ele>1795.199951171875</ele>
        <time>2026-06-20T11:42:30.000Z</time>
        <extensions>
          <ns3:TrackPointExtension>
            <ns3:atemp>23.0</ns3:atemp>
          </ns3:TrackPointExtension>
        </extensions>
      </trkpt>
      <trkpt lat="42.470873706042766571044921875" lon="20.18669866025447845458984375">
        <ele>1793.800048828125</ele>
        <time>2026-06-20T11:42:31.000Z</time>
        <extensions>
          <ns3:TrackPointExtension>
            <ns3:atemp>23.0</ns3:atemp>
          </ns3:TrackPointExtension>
        </extensions>
      </trkpt>
      <trkpt lat="42.4708591215312480926513671875" lon="20.18679119646549224853515625">
        <ele>1792.199951171875</ele>
        <time>2026-06-20T11:42:32.000Z</time>
        <extensions>
          <ns3:TrackPointExtension>
            <ns3:atemp>23.0</ns3:atemp>
          </ns3:TrackPointExtension>
        </extensions>
      </trkpt>
      <trkpt lat="42.470843531191349029541015625" lon="20.18687845207750797271728515625">
        <ele>1791</ele>
        <time>2026-06-20T11:42:33.000Z</time>
        <extensions>
          <ns3:TrackPointExtension>
            <ns3:atemp>23.0</ns3:atemp>
          </ns3:TrackPointExtension>
        </extensions>
      </trkpt>
      <trkpt lat="42.4708265997469425201416015625" lon="20.18696285784244537353515625">
        <ele>1790</ele>
        <time>2026-06-20T11:42:34.000Z</time>
        <extensions>
          <ns3:TrackPointExtension>
            <ns3:atemp>23.0</ns3:atemp>
          </ns3:TrackPointExtension>
        </extensions>
      </trkpt>
      <trkpt lat="42.47081100940704345703125" lon="20.187044329941272735595703125">
        <ele>1788.5999755859375</ele>
        <time>2026-06-20T11:42:35.000Z</time>
        <extensions>
          <ns3:TrackPointExtension>
            <ns3:atemp>23.0</ns3:atemp>
          </ns3:TrackPointExtension>
        </extensions>
      </trkpt>
      <trkpt lat="42.47079265303909778594970703125" lon="20.18712152726948261260986328125">
        <ele>1787.199951171875</ele>
        <time>2026-06-20T11:42:36.000Z</time>
        <extensions>
          <ns3:TrackPointExtension>
            <ns3:atemp>23.0</ns3:atemp>
          </ns3:TrackPointExtension>
        </extensions>
      </trkpt>
      <trkpt lat="42.4707801640033721923828125" lon="20.18719813786447048187255859375">
        <ele>1786</ele>
        <time>2026-06-20T11:42:37.000Z</time>
        <extensions>
          <ns3:TrackPointExtension>
            <ns3:atemp>23.0</ns3:atemp>
          </ns3:TrackPointExtension>
        </extensions>
      </trkpt>
      <trkpt lat="42.47078008018434047698974609375" lon="20.18727592192590236663818359375">
        <ele>1785</ele>
        <time>2026-06-20T11:42:38.000Z</time>
        <extensions>
          <ns3:TrackPointExtension>
            <ns3:atemp>23.0</ns3:atemp>
          </ns3:TrackPointExtension>
        </extensions>
      </trkpt>
      <trkpt lat="42.47078418731689453125" lon="20.1873546279966831207275390625">
        <ele>1784</ele>
        <time>2026-06-20T11:42:39.000Z</time>
        <extensions>
          <ns3:TrackPointExtension>
            <ns3:atemp>23.0</ns3:atemp>
          </ns3:TrackPointExtension>
        </extensions>
      </trkpt>
      <trkpt lat="42.470789887011051177978515625" lon="20.18743718974292278289794921875">
        <ele>1782.800048828125</ele>
        <time>2026-06-20T11:42:40.000Z</time>
        <extensions>
          <ns3:TrackPointExtension>
            <ns3:atemp>23.0</ns3:atemp>
          </ns3:TrackPointExtension>
        </extensions>
      </trkpt>
      <trkpt lat="42.47079801745712757110595703125" lon="20.1875212602317333221435546875">
        <ele>1781.5999755859375</ele>
        <time>2026-06-20T11:42:41.000Z</time>
        <extensions>
          <ns3:TrackPointExtension>
            <ns3:atemp>23.0</ns3:atemp>
          </ns3:TrackPointExtension>
        </extensions>
      </trkpt>
      <trkpt lat="42.47080321423709392547607421875" lon="20.18760658800601959228515625">
        <ele>1781</ele>
        <time>2026-06-20T11:42:42.000Z</time>
        <extensions>
          <ns3:TrackPointExtension>
            <ns3:atemp>23.0</ns3:atemp>
          </ns3:TrackPointExtension>
        </extensions>
      </trkpt>
      <trkpt lat="42.4707981012761592864990234375" lon="20.18769375979900360107421875">
        <ele>1779.800048828125</ele>
        <time>2026-06-20T11:42:43.000Z</time>
        <extensions>
          <ns3:TrackPointExtension>
            <ns3:atemp>23.0</ns3:atemp>
          </ns3:TrackPointExtension>
        </extensions>
      </trkpt>
      <trkpt lat="42.470781169831752777099609375" lon="20.18778218887746334075927734375">
        <ele>1778.800048828125</ele>
        <time>2026-06-20T11:42:44.000Z</time>
        <extensions>
          <ns3:TrackPointExtension>
            <ns3:atemp>23.0</ns3:atemp>
          </ns3:TrackPointExtension>
        </extensions>
      </trkpt>
      <trkpt lat="42.47075074352324008941650390625" lon="20.18786852248013019561767578125">
        <ele>1777.5999755859375</ele>
        <time>2026-06-20T11:42:45.000Z</time>
        <extensions>
          <ns3:TrackPointExtension>
            <ns3:atemp>23.0</ns3:atemp>
          </ns3:TrackPointExtension>
        </extensions>
      </trkpt>
      <trkpt lat="42.47071671299636363983154296875" lon="20.18793876282870769500732421875">
        <ele>1776.5999755859375</ele>
        <time>2026-06-20T11:42:46.000Z</time>
        <extensions>
          <ns3:TrackPointExtension>
            <ns3:atemp>23.0</ns3:atemp>
          </ns3:TrackPointExtension>
        </extensions>
      </trkpt>
      <trkpt lat="42.47068100608885288238525390625" lon="20.1879903115332126617431640625">
        <ele>1775.5999755859375</ele>
        <time>2026-06-20T11:42:47.000Z</time>
        <extensions>
          <ns3:TrackPointExtension>
            <ns3:atemp>23.0</ns3:atemp>
          </ns3:TrackPointExtension>
        </extensions>
      </trkpt>
      <trkpt lat="42.470639012753963470458984375" lon="20.18803917802870273590087890625">
        <ele>1774.800048828125</ele>
        <time>2026-06-20T11:42:48.000Z</time>
        <extensions>
          <ns3:TrackPointExtension>
            <ns3:atemp>23.0</ns3:atemp>
          </ns3:TrackPointExtension>
        </extensions>
      </trkpt>
      <trkpt lat="42.47059115208685398101806640625" lon="20.18808376975357532501220703125">
        <ele>1774</ele>
        <time>2026-06-20T11:42:49.000Z</time>
        <extensions>
          <ns3:TrackPointExtension>
            <ns3:atemp>23.0</ns3:atemp>
          </ns3:TrackPointExtension>
        </extensions>
      </trkpt>
      <trkpt lat="42.470540106296539306640625" lon="20.1881100051105022430419921875">
        <ele>1773</ele>
        <time>2026-06-20T11:42:50.000Z</time>
        <extensions>
          <ns3:TrackPointExtension>
            <ns3:atemp>23.0</ns3:atemp>
          </ns3:TrackPointExtension>
        </extensions>
      </trkpt>
      <trkpt lat="42.47048654593527317047119140625" lon="20.188131630420684814453125">
        <ele>1772.199951171875</ele>
        <time>2026-06-20T11:42:51.000Z</time>
        <extensions>
          <ns3:TrackPointExtension>
            <ns3:atemp>23.0</ns3:atemp>
          </ns3:TrackPointExtension>
        </extensions>
      </trkpt>
      <trkpt lat="42.47043658979237079620361328125" lon="20.1881613023579120635986328125">
        <ele>1771.199951171875</ele>
        <time>2026-06-20T11:42:52.000Z</time>
        <extensions>
          <ns3:TrackPointExtension>
            <ns3:atemp>23.0</ns3:atemp>
          </ns3:TrackPointExtension>
        </extensions>
      </trkpt>
      <trkpt lat="42.4703870527446269989013671875" lon="20.188203044235706329345703125">
        <ele>1770</ele>
        <time>2026-06-20T11:42:53.000Z</time>
        <extensions>
          <ns3:TrackPointExtension>
            <ns3:atemp>23.0</ns3:atemp>
          </ns3:TrackPointExtension>
        </extensions>
      </trkpt>
      <trkpt lat="42.470333576202392578125" lon="20.18825442530214786529541015625">
        <ele>1769</ele>
        <time>2026-06-20T11:42:54.000Z</time>
        <extensions>
          <ns3:TrackPointExtension>
            <ns3:atemp>23.0</ns3:atemp>
          </ns3:TrackPointExtension>
        </extensions>
      </trkpt>
      <trkpt lat="42.4702861346304416656494140625" lon="20.18831779249012470245361328125">
        <ele>1767.5999755859375</ele>
        <time>2026-06-20T11:42:55.000Z</time>
        <extensions>
          <ns3:TrackPointExtension>
            <ns3:atemp>23.0</ns3:atemp>
          </ns3:TrackPointExtension>
        </extensions>
      </trkpt>
      <trkpt lat="42.4702462367713451385498046875" lon="20.1883939839899539947509765625">
        <ele>1766.199951171875</ele>
        <time>2026-06-20T11:42:56.000Z</time>
        <extensions>
          <ns3:TrackPointExtension>
            <ns3:atemp>23.0</ns3:atemp>
          </ns3:TrackPointExtension>
        </extensions>
      </trkpt>
      <trkpt lat="42.47021111659705638885498046875" lon="20.18847830593585968017578125">
        <ele>1764.5999755859375</ele>
        <time>2026-06-20T11:42:57.000Z</time>
        <extensions>
          <ns3:TrackPointExtension>
            <ns3:atemp>23.0</ns3:atemp>
          </ns3:TrackPointExtension>
        </extensions>
      </trkpt>
      <trkpt lat="42.470184378325939178466796875" lon="20.1885666511952877044677734375">
        <ele>1763</ele>
        <time>2026-06-20T11:42:58.000Z</time>
        <extensions>
          <ns3:TrackPointExtension>
            <ns3:atemp>23.0</ns3:atemp>
          </ns3:TrackPointExtension>
        </extensions>
      </trkpt>
      <trkpt lat="42.47015747241675853729248046875" lon="20.18865323625504970550537109375">
        <ele>1761.800048828125</ele>
        <time>2026-06-20T11:42:59.000Z</time>
        <extensions>
          <ns3:TrackPointExtension>
            <ns3:atemp>23.0</ns3:atemp>
          </ns3:TrackPointExtension>
        </extensions>
      </trkpt>
      <trkpt lat="42.47012260369956493377685546875" lon="20.18873043358325958251953125">
        <ele>1760.5999755859375</ele>
        <time>2026-06-20T11:43:00.000Z</time>
        <extensions>
          <ns3:TrackPointExtension>
            <ns3:atemp>23.0</ns3:atemp>
          </ns3:TrackPointExtension>
        </extensions>
      </trkpt>
      <trkpt lat="42.47007516212761402130126953125" lon="20.18877930007874965667724609375">
        <ele>1759.5999755859375</ele>
        <time>2026-06-20T11:43:01.000Z</time>
        <extensions>
          <ns3:TrackPointExtension>
            <ns3:atemp>23.0</ns3:atemp>
          </ns3:TrackPointExtension>
        </extensions>
      </trkpt>
      <trkpt lat="42.47002017684280872344970703125" lon="20.18882489763200283050537109375">
        <ele>1758.199951171875</ele>
        <time>2026-06-20T11:43:02.000Z</time>
        <extensions>
          <ns3:TrackPointExtension>
            <ns3:atemp>23.0</ns3:atemp>
          </ns3:TrackPointExtension>
        </extensions>
      </trkpt>
      <trkpt lat="42.4699793569743633270263671875" lon="20.18888809718191623687744140625">
        <ele>1757.199951171875</ele>
        <time>2026-06-20T11:43:03.000Z</time>
        <extensions>
          <ns3:TrackPointExtension>
            <ns3:atemp>23.0</ns3:atemp>
          </ns3:TrackPointExtension>
        </extensions>
      </trkpt>
      <trkpt lat="42.46992948465049266815185546875" lon="20.18895833753049373626708984375">
        <ele>1755.800048828125</ele>
        <time>2026-06-20T11:43:04.000Z</time>
        <extensions>
          <ns3:TrackPointExtension>
            <ns3:atemp>23.0</ns3:atemp>
          </ns3:TrackPointExtension>
        </extensions>
      </trkpt>
      <trkpt lat="42.4698740802705287933349609375" lon="20.18902991898357868194580078125">
        <ele>1754.4000244140625</ele>
        <time>2026-06-20T11:43:05.000Z</time>
        <extensions>
          <ns3:TrackPointExtension>
            <ns3:atemp>23.0</ns3:atemp>
          </ns3:TrackPointExtension>
        </extensions>
      </trkpt>
      <trkpt lat="42.46981515549123287200927734375" lon="20.18910451792180538177490234375">
        <ele>1753</ele>
        <time>2026-06-20T11:43:06.000Z</time>
        <extensions>
          <ns3:TrackPointExtension>
            <ns3:atemp>23.0</ns3:atemp>
          </ns3:TrackPointExtension>
        </extensions>
      </trkpt>
      <trkpt lat="42.46975597925484180450439453125" lon="20.1891768537461757659912109375">
        <ele>1751</ele>
        <time>2026-06-20T11:43:07.000Z</time>
        <extensions>
          <ns3:TrackPointExtension>
            <ns3:atemp>23.0</ns3:atemp>
          </ns3:TrackPointExtension>
        </extensions>
      </trkpt>
      <trkpt lat="42.46969998814165592193603515625" lon="20.18925187177956104278564453125">
        <ele>1750</ele>
        <time>2026-06-20T11:43:08.000Z</time>
        <extensions>
          <ns3:TrackPointExtension>
            <ns3:atemp>23.0</ns3:atemp>
          </ns3:TrackPointExtension>
        </extensions>
      </trkpt>
      <trkpt lat="42.46965036727488040924072265625" lon="20.1893346011638641357421875">
        <ele>1748.800048828125</ele>
        <time>2026-06-20T11:43:09.000Z</time>
        <extensions>
          <ns3:TrackPointExtension>
            <ns3:atemp>23.0</ns3:atemp>
          </ns3:TrackPointExtension>
        </extensions>
      </trkpt>
      <trkpt lat="42.46960979886353015899658203125" lon="20.18942110240459442138671875">
        <ele>1747.5999755859375</ele>
        <time>2026-06-20T11:43:10.000Z</time>
        <extensions>
          <ns3:TrackPointExtension>
            <ns3:atemp>23.0</ns3:atemp>
          </ns3:TrackPointExtension>
        </extensions>
      </trkpt>
      <trkpt lat="42.46957275085151195526123046875" lon="20.18951372243463993072509765625">
        <ele>1746.4000244140625</ele>
        <time>2026-06-20T11:43:11.000Z</time>
        <extensions>
          <ns3:TrackPointExtension>
            <ns3:atemp>23.0</ns3:atemp>
          </ns3:TrackPointExtension>
        </extensions>
      </trkpt>
      <trkpt lat="42.4695448391139507293701171875" lon="20.18960759975016117095947265625">
        <ele>1745</ele>
        <time>2026-06-20T11:43:12.000Z</time>
        <extensions>
          <ns3:TrackPointExtension>
            <ns3:atemp>23.0</ns3:atemp>
          </ns3:TrackPointExtension>
        </extensions>
      </trkpt>
      <trkpt lat="42.46953494846820831298828125" lon="20.189684964716434478759765625">
        <ele>1743.800048828125</ele>
        <time>2026-06-20T11:43:13.000Z</time>
        <extensions>
          <ns3:TrackPointExtension>
            <ns3:atemp>23.0</ns3:atemp>
          </ns3:TrackPointExtension>
        </extensions>
      </trkpt>
      <trkpt lat="42.46952690184116363525390625" lon="20.189764089882373809814453125">
        <ele>1742.800048828125</ele>
        <time>2026-06-20T11:43:14.000Z</time>
        <extensions>
          <ns3:TrackPointExtension>
            <ns3:atemp>23.0</ns3:atemp>
          </ns3:TrackPointExtension>
        </extensions>
      </trkpt>
      <trkpt lat="42.469523213803768157958984375" lon="20.18984179012477397918701171875">
        <ele>1741.800048828125</ele>
        <time>2026-06-20T11:43:15.000Z</time>
        <extensions>
          <ns3:TrackPointExtension>
            <ns3:atemp>23.0</ns3:atemp>
          </ns3:TrackPointExtension>
        </extensions>
      </trkpt>
      <trkpt lat="42.46953268535435199737548828125" lon="20.18991907127201557159423828125">
        <ele>1740.800048828125</ele>
        <time>2026-06-20T11:43:16.000Z</time>
        <extensions>
          <ns3:TrackPointExtension>
            <ns3:atemp>23.0</ns3:atemp>
          </ns3:TrackPointExtension>
        </extensions>
      </trkpt>
      <trkpt lat="42.46955263428390026092529296875" lon="20.18999316729605197906494140625">
        <ele>1739.5999755859375</ele>
        <time>2026-06-20T11:43:17.000Z</time>
        <extensions>
          <ns3:TrackPointExtension>
            <ns3:atemp>23.0</ns3:atemp>
          </ns3:TrackPointExtension>
        </extensions>
      </trkpt>
      <trkpt lat="42.469568140804767608642578125" lon="20.1900666765868663787841796875">
        <ele>1739</ele>
        <time>2026-06-20T11:43:18.000Z</time>
        <extensions>
          <ns3:TrackPointExtension>
            <ns3:atemp>23.0</ns3:atemp>
          </ns3:TrackPointExtension>
        </extensions>
      </trkpt>
      <trkpt lat="42.46956218965351581573486328125" lon="20.1901377551257610321044921875">
        <ele>1738.4000244140625</ele>
        <time>2026-06-20T11:43:19.000Z</time>
        <extensions>
          <ns3:TrackPointExtension>
            <ns3:atemp>23.0</ns3:atemp>
          </ns3:TrackPointExtension>
        </extensions>
      </trkpt>
      <trkpt lat="42.469541989266872406005859375" lon="20.19020455889403820037841796875">
        <ele>1737.5999755859375</ele>
        <time>2026-06-20T11:43:20.000Z</time>
        <extensions>
          <ns3:TrackPointExtension>
            <ns3:atemp>23.0</ns3:atemp>
          </ns3:TrackPointExtension>
        </extensions>
      </trkpt>
      <trkpt lat="42.469511814415454864501953125" lon="20.19025702960789203643798828125">
        <ele>1736.4000244140625</ele>
        <time>2026-06-20T11:43:21.000Z</time>
        <extensions>
          <ns3:TrackPointExtension>
            <ns3:atemp>23.0</ns3:atemp>
          </ns3:TrackPointExtension>
        </extensions>
      </trkpt>
      <trkpt lat="42.46948524378240108489990234375" lon="20.1903055608272552490234375">
        <ele>1735.4000244140625</ele>
        <time>2026-06-20T11:43:22.000Z</time>
        <extensions>
          <ns3:TrackPointExtension>
            <ns3:atemp>23.0</ns3:atemp>
          </ns3:TrackPointExtension>
        </extensions>
      </trkpt>
      <trkpt lat="42.46946043334901332855224609375" lon="20.19035291858017444610595703125">
        <ele>1734.199951171875</ele>
        <time>2026-06-20T11:43:23.000Z</time>
        <extensions>
          <ns3:TrackPointExtension>
            <ns3:atemp>23.0</ns3:atemp>
          </ns3:TrackPointExtension>
        </extensions>
      </trkpt>
      <trkpt lat="42.46943394653499126434326171875" lon="20.19039667211472988128662109375">
        <ele>1733</ele>
        <time>2026-06-20T11:43:24.000Z</time>
        <extensions>
          <ns3:TrackPointExtension>
            <ns3:atemp>23.0</ns3:atemp>
          </ns3:TrackPointExtension>
        </extensions>
      </trkpt>
      <trkpt lat="42.4694040231406688690185546875" lon="20.19043858163058757781982421875">
        <ele>1732</ele>
        <time>2026-06-20T11:43:25.000Z</time>
        <extensions>
          <ns3:TrackPointExtension>
            <ns3:atemp>23.0</ns3:atemp>
          </ns3:TrackPointExtension>
        </extensions>
      </trkpt>
      <trkpt lat="42.46937208808958530426025390625" lon="20.19047252833843231201171875">
        <ele>1731.199951171875</ele>
        <time>2026-06-20T11:43:26.000Z</time>
        <extensions>
          <ns3:TrackPointExtension>
            <ns3:atemp>23.0</ns3:atemp>
          </ns3:TrackPointExtension>
        </extensions>
      </trkpt>
      <trkpt lat="42.46933520771563053131103515625" lon="20.1905082352459430694580078125">
        <ele>1730.199951171875</ele>
        <time>2026-06-20T11:43:27.000Z</time>
        <extensions>
          <ns3:TrackPointExtension>
            <ns3:atemp>23.0</ns3:atemp>
          </ns3:TrackPointExtension>
        </extensions>
      </trkpt>
      <trkpt lat="42.46929430402815341949462890625" lon="20.19053329713642597198486328125">
        <ele>1729</ele>
        <time>2026-06-20T11:43:28.000Z</time>
        <extensions>
          <ns3:TrackPointExtension>
            <ns3:atemp>23.0</ns3:atemp>
          </ns3:TrackPointExtension>
        </extensions>
      </trkpt>
      <trkpt lat="42.46925323270261287689208984375" lon="20.19052625633776187896728515625">
        <ele>1728.199951171875</ele>
        <time>2026-06-20T11:43:29.000Z</time>
        <extensions>
          <ns3:TrackPointExtension>
            <ns3:atemp>23.0</ns3:atemp>
          </ns3:TrackPointExtension>
        </extensions>
      </trkpt>
      <trkpt lat="42.46921903453767299652099609375" lon="20.19049775786697864532470703125">
        <ele>1727.199951171875</ele>
        <time>2026-06-20T11:43:30.000Z</time>
        <extensions>
          <ns3:TrackPointExtension>
            <ns3:atemp>23.0</ns3:atemp>
          </ns3:TrackPointExtension>
        </extensions>
      </trkpt>
      <trkpt lat="42.4691907875239849090576171875" lon="20.19046842120587825775146484375">
        <ele>1726.5999755859375</ele>
        <time>2026-06-20T11:43:31.000Z</time>
        <extensions>
          <ns3:TrackPointExtension>
            <ns3:atemp>23.0</ns3:atemp>
          </ns3:TrackPointExtension>
        </extensions>
      </trkpt>
      <trkpt lat="42.4691683240234851837158203125" lon="20.19045450724661350250244140625">
        <ele>1726.199951171875</ele>
        <time>2026-06-20T11:43:32.000Z</time>
        <extensions>
          <ns3:TrackPointExtension>
            <ns3:atemp>23.0</ns3:atemp>
          </ns3:TrackPointExtension>
        </extensions>
      </trkpt>
      <trkpt lat="42.46914342977106571197509765625" lon="20.1904388330876827239990234375">
        <ele>1725.4000244140625</ele>
        <time>2026-06-20T11:43:33.000Z</time>
        <extensions>
          <ns3:TrackPointExtension>
            <ns3:atemp>23.0</ns3:atemp>
          </ns3:TrackPointExtension>
        </extensions>
      </trkpt>
      <trkpt lat="42.46911560185253620147705078125" lon="20.1904136873781681060791015625">
        <ele>1724.5999755859375</ele>
        <time>2026-06-20T11:43:34.000Z</time>
        <extensions>
          <ns3:TrackPointExtension>
            <ns3:atemp>23.0</ns3:atemp>
          </ns3:TrackPointExtension>
        </extensions>
      </trkpt>
      <trkpt lat="42.469084002077579498291015625" lon="20.1903820037841796875">
        <ele>1724</ele>
        <time>2026-06-20T11:43:35.000Z</time>
        <extensions>
          <ns3:TrackPointExtension>
            <ns3:atemp>23.0</ns3:atemp>
          </ns3:TrackPointExtension>
        </extensions>
      </trkpt>
      <trkpt lat="42.469048798084259033203125" lon="20.19034554250538349151611328125">
        <ele>1723</ele>
        <time>2026-06-20T11:43:36.000Z</time>
        <extensions>
          <ns3:TrackPointExtension>
            <ns3:atemp>23.0</ns3:atemp>
          </ns3:TrackPointExtension>
        </extensions>
      </trkpt>
      <trkpt lat="42.4690100736916065216064453125" lon="20.19030329771339893341064453125">
        <ele>1722.199951171875</ele>
        <time>2026-06-20T11:43:37.000Z</time>
        <extensions>
          <ns3:TrackPointExtension>
            <ns3:atemp>23.0</ns3:atemp>
          </ns3:TrackPointExtension>
        </extensions>
      </trkpt>
      <trkpt lat="42.46896372176706790924072265625" lon="20.1902733743190765380859375">
        <ele>1721</ele>
        <time>2026-06-20T11:43:38.000Z</time>
        <extensions>
          <ns3:TrackPointExtension>
            <ns3:atemp>23.0</ns3:atemp>
          </ns3:TrackPointExtension>
        </extensions>
      </trkpt>
      <trkpt lat="42.46891007758677005767822265625" lon="20.1902665011584758758544921875">
        <ele>1720.199951171875</ele>
        <time>2026-06-20T11:43:39.000Z</time>
        <extensions>
          <ns3:TrackPointExtension>
            <ns3:atemp>23.0</ns3:atemp>
          </ns3:TrackPointExtension>
        </extensions>
      </trkpt>
      <trkpt lat="42.46886431239545345306396484375" lon="20.19029474817216396331787109375">
        <ele>1719.199951171875</ele>
        <time>2026-06-20T11:43:40.000Z</time>
        <extensions>
          <ns3:TrackPointExtension>
            <ns3:atemp>23.0</ns3:atemp>
          </ns3:TrackPointExtension>
        </extensions>
      </trkpt>
      <trkpt lat="42.4688307009637355804443359375" lon="20.19035442732274532318115234375">
        <ele>1718.199951171875</ele>
        <time>2026-06-20T11:43:41.000Z</time>
        <extensions>
          <ns3:TrackPointExtension>
            <ns3:atemp>23.0</ns3:atemp>
          </ns3:TrackPointExtension>
        </extensions>
      </trkpt>
      <trkpt lat="42.468799687922000885009765625" lon="20.19042961299419403076171875">
        <ele>1717.199951171875</ele>
        <time>2026-06-20T11:43:42.000Z</time>
        <extensions>
          <ns3:TrackPointExtension>
            <ns3:atemp>23.0</ns3:atemp>
          </ns3:TrackPointExtension>
        </extensions>
      </trkpt>
      <trkpt lat="42.4687703512609004974365234375" lon="20.1905052177608013153076171875">
        <ele>1715.800048828125</ele>
        <time>2026-06-20T11:43:43.000Z</time>
        <extensions>
          <ns3:TrackPointExtension>
            <ns3:atemp>23.0</ns3:atemp>
          </ns3:TrackPointExtension>
        </extensions>
      </trkpt>
      <trkpt lat="42.46874503791332244873046875" lon="20.190586186945438385009765625">
        <ele>1714.5999755859375</ele>
        <time>2026-06-20T11:43:44.000Z</time>
        <extensions>
          <ns3:TrackPointExtension>
            <ns3:atemp>23.0</ns3:atemp>
          </ns3:TrackPointExtension>
        </extensions>
      </trkpt>
      <trkpt lat="42.46873942203819751739501953125" lon="20.19066439010202884674072265625">
        <ele>1713.5999755859375</ele>
        <time>2026-06-20T11:43:45.000Z</time>
        <extensions>
          <ns3:TrackPointExtension>
            <ns3:atemp>23.0</ns3:atemp>
          </ns3:TrackPointExtension>
        </extensions>
      </trkpt>
      <trkpt lat="42.46874327771365642547607421875" lon="20.19074016250669956207275390625">
        <ele>1712.4000244140625</ele>
        <time>2026-06-20T11:43:46.000Z</time>
        <extensions>
          <ns3:TrackPointExtension>
            <ns3:atemp>23.0</ns3:atemp>
          </ns3:TrackPointExtension>
        </extensions>
      </trkpt>
      <trkpt lat="42.4687475524842739105224609375" lon="20.1908160187304019927978515625">
        <ele>1711.5999755859375</ele>
        <time>2026-06-20T11:43:47.000Z</time>
        <extensions>
          <ns3:TrackPointExtension>
            <ns3:atemp>23.0</ns3:atemp>
          </ns3:TrackPointExtension>
        </extensions>
      </trkpt>
      <trkpt lat="42.46875417418777942657470703125" lon="20.1908941380679607391357421875">
        <ele>1710.4000244140625</ele>
        <time>2026-06-20T11:43:48.000Z</time>
        <extensions>
          <ns3:TrackPointExtension>
            <ns3:atemp>23.0</ns3:atemp>
          </ns3:TrackPointExtension>
        </extensions>
      </trkpt>
      <trkpt lat="42.46874042786657810211181640625" lon="20.19097284413874149322509765625">
        <ele>1709.800048828125</ele>
        <time>2026-06-20T11:43:49.000Z</time>
        <extensions>
          <ns3:TrackPointExtension>
            <ns3:atemp>23.0</ns3:atemp>
          </ns3:TrackPointExtension>
        </extensions>
      </trkpt>
      <trkpt lat="42.4687076546251773834228515625" lon="20.19103939644992351531982421875">
        <ele>1709.4000244140625</ele>
        <time>2026-06-20T11:43:50.000Z</time>
        <extensions>
          <ns3:TrackPointExtension>
            <ns3:atemp>23.0</ns3:atemp>
          </ns3:TrackPointExtension>
        </extensions>
      </trkpt>
      <trkpt lat="42.46865929104387760162353515625" lon="20.1910808868706226348876953125">
        <ele>1708.5999755859375</ele>
        <time>2026-06-20T11:43:51.000Z</time>
        <extensions>
          <ns3:TrackPointExtension>
            <ns3:atemp>23.0</ns3:atemp>
          </ns3:TrackPointExtension>
        </extensions>
      </trkpt>
      <trkpt lat="42.46859927661716938018798828125" lon="20.19110418856143951416015625">
        <ele>1707.800048828125</ele>
        <time>2026-06-20T11:43:52.000Z</time>
        <extensions>
          <ns3:TrackPointExtension>
            <ns3:atemp>23.0</ns3:atemp>
          </ns3:TrackPointExtension>
        </extensions>
      </trkpt>
      <trkpt lat="42.46853741817176342010498046875" lon="20.1911124028265476226806640625">
        <ele>1706.5999755859375</ele>
        <time>2026-06-20T11:43:53.000Z</time>
        <extensions>
          <ns3:TrackPointExtension>
            <ns3:atemp>23.0</ns3:atemp>
          </ns3:TrackPointExtension>
        </extensions>
      </trkpt>
      <trkpt lat="42.4684830196201801300048828125" lon="20.1911137439310550689697265625">
        <ele>1705.5999755859375</ele>
        <time>2026-06-20T11:43:54.000Z</time>
        <extensions>
          <ns3:TrackPointExtension>
            <ns3:atemp>23.0</ns3:atemp>
          </ns3:TrackPointExtension>
        </extensions>
      </trkpt>
      <trkpt lat="42.46843390166759490966796875" lon="20.19109345972537994384765625">
        <ele>1704.5999755859375</ele>
        <time>2026-06-20T11:43:55.000Z</time>
        <extensions>
          <ns3:TrackPointExtension>
            <ns3:atemp>23.0</ns3:atemp>
          </ns3:TrackPointExtension>
        </extensions>
      </trkpt>
      <trkpt lat="42.46839375235140323638916015625" lon="20.191064290702342987060546875">
        <ele>1703.4000244140625</ele>
        <time>2026-06-20T11:43:56.000Z</time>
        <extensions>
          <ns3:TrackPointExtension>
            <ns3:atemp>23.0</ns3:atemp>
          </ns3:TrackPointExtension>
        </extensions>
      </trkpt>
      <trkpt lat="42.468359135091304779052734375" lon="20.191056244075298309326171875">
        <ele>1702.800048828125</ele>
        <time>2026-06-20T11:43:57.000Z</time>
        <extensions>
          <ns3:TrackPointExtension>
            <ns3:atemp>23.0</ns3:atemp>
          </ns3:TrackPointExtension>
        </extensions>
      </trkpt>
      <trkpt lat="42.46832820586860179901123046875" lon="20.19107200205326080322265625">
        <ele>1702</ele>
        <time>2026-06-20T11:43:58.000Z</time>
        <extensions>
          <ns3:TrackPointExtension>
            <ns3:atemp>23.0</ns3:atemp>
          </ns3:TrackPointExtension>
        </extensions>
      </trkpt>
      <trkpt lat="42.46830247342586517333984375" lon="20.1910912804305553436279296875">
        <ele>1701.199951171875</ele>
        <time>2026-06-20T11:43:59.000Z</time>
        <extensions>
          <ns3:TrackPointExtension>
            <ns3:atemp>23.0</ns3:atemp>
          </ns3:TrackPointExtension>
        </extensions>
      </trkpt>
      <trkpt lat="42.46826467104256153106689453125" lon="20.1911113969981670379638671875">
        <ele>1700.4000244140625</ele>
        <time>2026-06-20T11:44:00.000Z</time>
        <extensions>
          <ns3:TrackPointExtension>
            <ns3:atemp>23.0</ns3:atemp>
          </ns3:TrackPointExtension>
        </extensions>
      </trkpt>
      <trkpt lat="42.46822091750800609588623046875" lon="20.19112698733806610107421875">
        <ele>1699.5999755859375</ele>
        <time>2026-06-20T11:44:01.000Z</time>
        <extensions>
          <ns3:TrackPointExtension>
            <ns3:atemp>23.0</ns3:atemp>
          </ns3:TrackPointExtension>
        </extensions>
      </trkpt>
      <trkpt lat="42.4681715480983257293701171875" lon="20.19113905727863311767578125">
        <ele>1698.800048828125</ele>
        <time>2026-06-20T11:44:02.000Z</time>
        <extensions>
          <ns3:TrackPointExtension>
            <ns3:atemp>23.0</ns3:atemp>
          </ns3:TrackPointExtension>
        </extensions>
      </trkpt>
      <trkpt lat="42.46811161749064922332763671875" lon="20.1911492832005023956298828125">
        <ele>1698</ele>
        <time>2026-06-20T11:44:03.000Z</time>
        <extensions>
          <ns3:TrackPointExtension>
            <ns3:atemp>23.0</ns3:atemp>
          </ns3:TrackPointExtension>
        </extensions>
      </trkpt>
      <trkpt lat="42.468041963875293731689453125" lon="20.19116663374006748199462890625">
        <ele>1697</ele>
        <time>2026-06-20T11:44:04.000Z</time>
        <extensions>
          <ns3:TrackPointExtension>
            <ns3:atemp>23.0</ns3:atemp>
          </ns3:TrackPointExtension>
        </extensions>
      </trkpt>
      <trkpt lat="42.46797868050634860992431640625" lon="20.191203765571117401123046875">
        <ele>1696</ele>
        <time>2026-06-20T11:44:05.000Z</time>
        <extensions>
          <ns3:TrackPointExtension>
            <ns3:atemp>23.0</ns3:atemp>
          </ns3:TrackPointExtension>
        </extensions>
      </trkpt>
      <trkpt lat="42.4679147265851497650146484375" lon="20.1912371255457401275634765625">
        <ele>1694.800048828125</ele>
        <time>2026-06-20T11:44:06.000Z</time>
        <extensions>
          <ns3:TrackPointExtension>
            <ns3:atemp>23.0</ns3:atemp>
          </ns3:TrackPointExtension>
        </extensions>
      </trkpt>
      <trkpt lat="42.467858903110027313232421875" lon="20.19125766120851039886474609375">
        <ele>1693.4000244140625</ele>
        <time>2026-06-20T11:44:07.000Z</time>
        <extensions>
          <ns3:TrackPointExtension>
            <ns3:atemp>23.0</ns3:atemp>
          </ns3:TrackPointExtension>
        </extensions>
      </trkpt>
      <trkpt lat="42.4678029119968414306640625" lon="20.19126688130199909210205078125">
        <ele>1691.5999755859375</ele>
        <time>2026-06-20T11:44:08.000Z</time>
        <extensions>
          <ns3:TrackPointExtension>
            <ns3:atemp>23.0</ns3:atemp>
          </ns3:TrackPointExtension>
        </extensions>
      </trkpt>
      <trkpt lat="42.46774499304592609405517578125" lon="20.19126352854073047637939453125">
        <ele>1690.199951171875</ele>
        <time>2026-06-20T11:44:09.000Z</time>
        <extensions>
          <ns3:TrackPointExtension>
            <ns3:atemp>23.0</ns3:atemp>
          </ns3:TrackPointExtension>
        </extensions>
      </trkpt>
      <trkpt lat="42.46768430806696414947509765625" lon="20.191256068646907806396484375">
        <ele>1689</ele>
        <time>2026-06-20T11:44:10.000Z</time>
        <extensions>
          <ns3:TrackPointExtension>
            <ns3:atemp>23.0</ns3:atemp>
          </ns3:TrackPointExtension>
        </extensions>
      </trkpt>
      <trkpt lat="42.4676257185637950897216796875" lon="20.19125279970467090606689453125">
        <ele>1687.800048828125</ele>
        <time>2026-06-20T11:44:11.000Z</time>
        <extensions>
          <ns3:TrackPointExtension>
            <ns3:atemp>23.0</ns3:atemp>
          </ns3:TrackPointExtension>
        </extensions>
      </trkpt>
      <trkpt lat="42.46757333166897296905517578125" lon="20.191264785826206207275390625">
        <ele>1686.5999755859375</ele>
        <time>2026-06-20T11:44:12.000Z</time>
        <extensions>
          <ns3:TrackPointExtension>
            <ns3:atemp>23.0</ns3:atemp>
          </ns3:TrackPointExtension>
        </extensions>
      </trkpt>
      <trkpt lat="42.46752488426864147186279296875" lon="20.19129420630633831024169921875">
        <ele>1685.4000244140625</ele>
        <time>2026-06-20T11:44:13.000Z</time>
        <extensions>
          <ns3:TrackPointExtension>
            <ns3:atemp>23.0</ns3:atemp>
          </ns3:TrackPointExtension>
        </extensions>
      </trkpt>
      <trkpt lat="42.46749437414109706878662109375" lon="20.19134315662086009979248046875">
        <ele>1684.199951171875</ele>
        <time>2026-06-20T11:44:14.000Z</time>
        <extensions>
          <ns3:TrackPointExtension>
            <ns3:atemp>23.0</ns3:atemp>
          </ns3:TrackPointExtension>
        </extensions>
      </trkpt>
      <trkpt lat="42.4674738384783267974853515625" lon="20.191403590142726898193359375">
        <ele>1683.199951171875</ele>
        <time>2026-06-20T11:44:15.000Z</time>
        <extensions>
          <ns3:TrackPointExtension>
            <ns3:atemp>23.0</ns3:atemp>
          </ns3:TrackPointExtension>
        </extensions>
      </trkpt>
      <trkpt lat="42.4674758501350879669189453125" lon="20.19146335311233997344970703125">
        <ele>1682.5999755859375</ele>
        <time>2026-06-20T11:44:16.000Z</time>
        <extensions>
          <ns3:TrackPointExtension>
            <ns3:atemp>23.0</ns3:atemp>
          </ns3:TrackPointExtension>
        </extensions>
      </trkpt>
      <trkpt lat="42.46749202720820903778076171875" lon="20.1915251277387142181396484375">
        <ele>1681.800048828125</ele>
        <time>2026-06-20T11:44:17.000Z</time>
        <extensions>
          <ns3:TrackPointExtension>
            <ns3:atemp>23.0</ns3:atemp>
          </ns3:TrackPointExtension>
        </extensions>
      </trkpt>
      <trkpt lat="42.46750124730169773101806640625" lon="20.19159293733537197113037109375">
        <ele>1681.199951171875</ele>
        <time>2026-06-20T11:44:18.000Z</time>
        <extensions>
          <ns3:TrackPointExtension>
            <ns3:atemp>23.0</ns3:atemp>
          </ns3:TrackPointExtension>
        </extensions>
      </trkpt>
      <trkpt lat="42.46750644408166408538818359375" lon="20.191664434969425201416015625">
        <ele>1680.4000244140625</ele>
        <time>2026-06-20T11:44:19.000Z</time>
        <extensions>
          <ns3:TrackPointExtension>
            <ns3:atemp>23.0</ns3:atemp>
          </ns3:TrackPointExtension>
        </extensions>
      </trkpt>
      <trkpt lat="42.46750744991004467010498046875" lon="20.19174029119312763214111328125">
        <ele>1679.5999755859375</ele>
        <time>2026-06-20T11:44:20.000Z</time>
        <extensions>
          <ns3:TrackPointExtension>
            <ns3:atemp>23.0</ns3:atemp>
          </ns3:TrackPointExtension>
        </extensions>
      </trkpt>
      <trkpt lat="42.4675051867961883544921875" lon="20.19181908108294010162353515625">
        <ele>1678.800048828125</ele>
        <time>2026-06-20T11:44:21.000Z</time>
        <extensions>
          <ns3:TrackPointExtension>
            <ns3:atemp>23.0</ns3:atemp>
          </ns3:TrackPointExtension>
        </extensions>
      </trkpt>
      <trkpt lat="42.4675006605684757232666015625" lon="20.19189233891665935516357421875">
        <ele>1677.5999755859375</ele>
        <time>2026-06-20T11:44:22.000Z</time>
        <extensions>
          <ns3:TrackPointExtension>
            <ns3:atemp>23.0</ns3:atemp>
          </ns3:TrackPointExtension>
        </extensions>
      </trkpt>
      <trkpt lat="42.46748884208500385284423828125" lon="20.1919586397707462310791015625">
        <ele>1676.5999755859375</ele>
        <time>2026-06-20T11:44:23.000Z</time>
        <extensions>
          <ns3:TrackPointExtension>
            <ns3:atemp>23.0</ns3:atemp>
          </ns3:TrackPointExtension>
        </extensions>
      </trkpt>
      <trkpt lat="42.46747291646897792816162109375" lon="20.192025192081928253173828125">
        <ele>1675</ele>
        <time>2026-06-20T11:44:24.000Z</time>
        <extensions>
          <ns3:TrackPointExtension>
            <ns3:atemp>23.0</ns3:atemp>
          </ns3:TrackPointExtension>
        </extensions>
      </trkpt>
      <trkpt lat="42.4674569070339202880859375" lon="20.192083530128002166748046875">
        <ele>1673.5999755859375</ele>
        <time>2026-06-20T11:44:25.000Z</time>
        <extensions>
          <ns3:TrackPointExtension>
            <ns3:atemp>23.0</ns3:atemp>
          </ns3:TrackPointExtension>
        </extensions>
      </trkpt>
      <trkpt lat="42.467433772981166839599609375" lon="20.192125774919986724853515625">
        <ele>1672.5999755859375</ele>
        <time>2026-06-20T11:44:26.000Z</time>
        <extensions>
          <ns3:TrackPointExtension>
            <ns3:atemp>23.0</ns3:atemp>
          </ns3:TrackPointExtension>
        </extensions>
      </trkpt>
      <trkpt lat="42.4674032628536224365234375" lon="20.1921685226261615753173828125">
        <ele>1671.5999755859375</ele>
        <time>2026-06-20T11:44:27.000Z</time>
        <extensions>
          <ns3:TrackPointExtension>
            <ns3:atemp>23.0</ns3:atemp>
          </ns3:TrackPointExtension>
        </extensions>
      </trkpt>
      <trkpt lat="42.46736772358417510986328125" lon="20.1922023855149745941162109375">
        <ele>1670.5999755859375</ele>
        <time>2026-06-20T11:44:28.000Z</time>
        <extensions>
          <ns3:TrackPointExtension>
            <ns3:atemp>23.0</ns3:atemp>
          </ns3:TrackPointExtension>
        </extensions>
      </trkpt>
      <trkpt lat="42.4673206172883510589599609375" lon="20.19222669303417205810546875">
        <ele>1669.4000244140625</ele>
        <time>2026-06-20T11:44:29.000Z</time>
        <extensions>
          <ns3:TrackPointExtension>
            <ns3:atemp>23.0</ns3:atemp>
          </ns3:TrackPointExtension>
        </extensions>
      </trkpt>
      <trkpt lat="42.46727124787867069244384765625" lon="20.19221772439777851104736328125">
        <ele>1668.4000244140625</ele>
        <time>2026-06-20T11:44:30.000Z</time>
        <extensions>
          <ns3:TrackPointExtension>
            <ns3:atemp>23.0</ns3:atemp>
          </ns3:TrackPointExtension>
        </extensions>
      </trkpt>
      <trkpt lat="42.46722548268735408782958984375" lon="20.1921933330595493316650390625">
        <ele>1667.5999755859375</ele>
        <time>2026-06-20T11:44:31.000Z</time>
        <extensions>
          <ns3:TrackPointExtension>
            <ns3:atemp>23.0</ns3:atemp>
          </ns3:TrackPointExtension>
        </extensions>
      </trkpt>
      <trkpt lat="42.467180304229259490966796875" lon="20.19215770997107028961181640625">
        <ele>1666.5999755859375</ele>
        <time>2026-06-20T11:44:32.000Z</time>
        <extensions>
          <ns3:TrackPointExtension>
            <ns3:atemp>23.0</ns3:atemp>
          </ns3:TrackPointExtension>
        </extensions>
      </trkpt>
      <trkpt lat="42.46713479049503803253173828125" lon="20.1921105198562145233154296875">
        <ele>1665.5999755859375</ele>
        <time>2026-06-20T11:44:33.000Z</time>
        <extensions>
          <ns3:TrackPointExtension>
            <ns3:atemp>23.0</ns3:atemp>
          </ns3:TrackPointExtension>
        </extensions>
      </trkpt>
      <trkpt lat="42.4670899473130702972412109375" lon="20.19205427728593349456787109375">
        <ele>1664.4000244140625</ele>
        <time>2026-06-20T11:44:34.000Z</time>
        <extensions>
          <ns3:TrackPointExtension>
            <ns3:atemp>23.0</ns3:atemp>
          </ns3:TrackPointExtension>
        </extensions>
      </trkpt>
      <trkpt lat="42.46705130673944950103759765625" lon="20.19199359230697154998779296875">
        <ele>1663.4000244140625</ele>
        <time>2026-06-20T11:44:35.000Z</time>
        <extensions>
          <ns3:TrackPointExtension>
            <ns3:atemp>23.0</ns3:atemp>
          </ns3:TrackPointExtension>
        </extensions>
      </trkpt>
      <trkpt lat="42.467001266777515411376953125" lon="20.19194900058209896087646484375">
        <ele>1662.199951171875</ele>
        <time>2026-06-20T11:44:36.000Z</time>
        <extensions>
          <ns3:TrackPointExtension>
            <ns3:atemp>23.0</ns3:atemp>
          </ns3:TrackPointExtension>
        </extensions>
      </trkpt>
      <trkpt lat="42.4669494666159152984619140625" lon="20.19194430671632289886474609375">
        <ele>1661</ele>
        <time>2026-06-20T11:44:37.000Z</time>
        <extensions>
          <ns3:TrackPointExtension>
            <ns3:atemp>23.0</ns3:atemp>
          </ns3:TrackPointExtension>
        </extensions>
      </trkpt>
      <trkpt lat="42.46690646745264530181884765625" lon="20.19196811132133007049560546875">
        <ele>1660</ele>
        <time>2026-06-20T11:44:38.000Z</time>
        <extensions>
          <ns3:TrackPointExtension>
            <ns3:atemp>23.0</ns3:atemp>
          </ns3:TrackPointExtension>
        </extensions>
      </trkpt>
      <trkpt lat="42.466881573200225830078125" lon="20.19202552735805511474609375">
        <ele>1658.5999755859375</ele>
        <time>2026-06-20T11:44:39.000Z</time>
        <extensions>
          <ns3:TrackPointExtension>
            <ns3:atemp>23.0</ns3:atemp>
          </ns3:TrackPointExtension>
        </extensions>
      </trkpt>
      <trkpt lat="42.46686506085097789764404296875" lon="20.19209501333534717559814453125">
        <ele>1657.4000244140625</ele>
        <time>2026-06-20T11:44:40.000Z</time>
        <extensions>
          <ns3:TrackPointExtension>
            <ns3:atemp>23.0</ns3:atemp>
          </ns3:TrackPointExtension>
        </extensions>
      </trkpt>
      <trkpt lat="42.46685483492910861968994140625" lon="20.1921723783016204833984375">
        <ele>1656.4000244140625</ele>
        <time>2026-06-20T11:44:41.000Z</time>
        <extensions>
          <ns3:TrackPointExtension>
            <ns3:atemp>23.0</ns3:atemp>
          </ns3:TrackPointExtension>
        </extensions>
      </trkpt>
      <trkpt lat="42.466830946505069732666015625" lon="20.192246474325656890869140625">
        <ele>1655</ele>
        <time>2026-06-20T11:44:42.000Z</time>
        <extensions>
          <ns3:TrackPointExtension>
            <ns3:atemp>23.0</ns3:atemp>
          </ns3:TrackPointExtension>
        </extensions>
      </trkpt>
      <trkpt lat="42.4667959101498126983642578125" lon="20.19229735247790813446044921875">
        <ele>1653.800048828125</ele>
        <time>2026-06-20T11:44:43.000Z</time>
        <extensions>
          <ns3:TrackPointExtension>
            <ns3:atemp>23.0</ns3:atemp>
          </ns3:TrackPointExtension>
        </extensions>
      </trkpt>
      <trkpt lat="42.46675752103328704833984375" lon="20.1923261024057865142822265625">
        <ele>1652</ele>
        <time>2026-06-20T11:44:44.000Z</time>
        <extensions>
          <ns3:TrackPointExtension>
            <ns3:atemp>23.0</ns3:atemp>
          </ns3:TrackPointExtension>
        </extensions>
      </trkpt>
      <trkpt lat="42.4667218141257762908935546875" lon="20.19234445877373218536376953125">
        <ele>1650.800048828125</ele>
        <time>2026-06-20T11:44:45.000Z</time>
        <extensions>
          <ns3:TrackPointExtension>
            <ns3:atemp>23.0</ns3:atemp>
          </ns3:TrackPointExtension>
        </extensions>
      </trkpt>
      <trkpt lat="42.46668535284698009490966796875" lon="20.19234605133533477783203125">
        <ele>1649.5999755859375</ele>
        <time>2026-06-20T11:44:46.000Z</time>
        <extensions>
          <ns3:TrackPointExtension>
            <ns3:atemp>23.0</ns3:atemp>
          </ns3:TrackPointExtension>
        </extensions>
      </trkpt>
      <trkpt lat="42.466645203530788421630859375" lon="20.19234663806855678558349609375">
        <ele>1648.4000244140625</ele>
        <time>2026-06-20T11:44:47.000Z</time>
        <extensions>
          <ns3:TrackPointExtension>
            <ns3:atemp>23.0</ns3:atemp>
          </ns3:TrackPointExtension>
        </extensions>
      </trkpt>
      <trkpt lat="42.4665980972349643707275390625" lon="20.19235334359109401702880859375">
        <ele>1647.199951171875</ele>
        <time>2026-06-20T11:44:48.000Z</time>
        <extensions>
          <ns3:TrackPointExtension>
            <ns3:atemp>23.0</ns3:atemp>
          </ns3:TrackPointExtension>
        </extensions>
      </trkpt>
      <trkpt lat="42.466549985110759735107421875" lon="20.19236139021813869476318359375">
        <ele>1645.5999755859375</ele>
        <time>2026-06-20T11:44:49.000Z</time>
        <extensions>
          <ns3:TrackPointExtension>
            <ns3:atemp>23.0</ns3:atemp>
          </ns3:TrackPointExtension>
        </extensions>
      </trkpt>
      <trkpt lat="42.46650178916752338409423828125" lon="20.19237999804317951202392578125">
        <ele>1644.199951171875</ele>
        <time>2026-06-20T11:44:50.000Z</time>
        <extensions>
          <ns3:TrackPointExtension>
            <ns3:atemp>23.0</ns3:atemp>
          </ns3:TrackPointExtension>
        </extensions>
      </trkpt>
      <trkpt lat="42.4664485640823841094970703125" lon="20.1923841051757335662841796875">
        <ele>1642.800048828125</ele>
        <time>2026-06-20T11:44:51.000Z</time>
        <extensions>
          <ns3:TrackPointExtension>
            <ns3:atemp>23.0</ns3:atemp>
          </ns3:TrackPointExtension>
        </extensions>
      </trkpt>
      <trkpt lat="42.466393075883388519287109375" lon="20.1923911459743976593017578125">
        <ele>1641.4000244140625</ele>
        <time>2026-06-20T11:44:52.000Z</time>
        <extensions>
          <ns3:TrackPointExtension>
            <ns3:atemp>23.0</ns3:atemp>
          </ns3:TrackPointExtension>
        </extensions>
      </trkpt>
      <trkpt lat="42.4663357436656951904296875" lon="20.19239625893533229827880859375">
        <ele>1640</ele>
        <time>2026-06-20T11:44:53.000Z</time>
        <extensions>
          <ns3:TrackPointExtension>
            <ns3:atemp>23.0</ns3:atemp>
          </ns3:TrackPointExtension>
        </extensions>
      </trkpt>
      <trkpt lat="42.46627740561962127685546875" lon="20.1924035511910915374755859375">
        <ele>1638.199951171875</ele>
        <time>2026-06-20T11:44:54.000Z</time>
        <extensions>
          <ns3:TrackPointExtension>
            <ns3:atemp>23.0</ns3:atemp>
          </ns3:TrackPointExtension>
        </extensions>
      </trkpt>
      <trkpt lat="42.4662209115922451019287109375" lon="20.19241017289459705352783203125">
        <ele>1636.800048828125</ele>
        <time>2026-06-20T11:44:55.000Z</time>
        <extensions>
          <ns3:TrackPointExtension>
            <ns3:atemp>23.0</ns3:atemp>
          </ns3:TrackPointExtension>
        </extensions>
      </trkpt>
      <trkpt lat="42.46616919524967670440673828125" lon="20.19241712987422943115234375">
        <ele>1635.4000244140625</ele>
        <time>2026-06-20T11:44:56.000Z</time>
        <extensions>
          <ns3:TrackPointExtension>
            <ns3:atemp>23.0</ns3:atemp>
          </ns3:TrackPointExtension>
        </extensions>
      </trkpt>
      <trkpt lat="42.46611203067004680633544921875" lon="20.192420147359371185302734375">
        <ele>1634</ele>
        <time>2026-06-20T11:44:57.000Z</time>
        <extensions>
          <ns3:TrackPointExtension>
            <ns3:atemp>23.0</ns3:atemp>
          </ns3:TrackPointExtension>
        </extensions>
      </trkpt>
      <trkpt lat="42.46604966931045055389404296875" lon="20.1924229972064495086669921875">
        <ele>1632.5999755859375</ele>
        <time>2026-06-20T11:44:58.000Z</time>
        <extensions>
          <ns3:TrackPointExtension>
            <ns3:atemp>23.0</ns3:atemp>
          </ns3:TrackPointExtension>
        </extensions>
      </trkpt>
      <trkpt lat="42.46598294936120510101318359375" lon="20.19242408685386180877685546875">
        <ele>1631</ele>
        <time>2026-06-20T11:44:59.000Z</time>
        <extensions>
          <ns3:TrackPointExtension>
            <ns3:atemp>23.0</ns3:atemp>
          </ns3:TrackPointExtension>
        </extensions>
      </trkpt>
      <trkpt lat="42.46591891162097454071044921875" lon="20.19242811016738414764404296875">
        <ele>1628.800048828125</ele>
        <time>2026-06-20T11:45:00.000Z</time>
        <extensions>
          <ns3:TrackPointExtension>
            <ns3:atemp>23.0</ns3:atemp>
          </ns3:TrackPointExtension>
        </extensions>
      </trkpt>
      <trkpt lat="42.4658504314720630645751953125" lon="20.1924317143857479095458984375">
        <ele>1627</ele>
        <time>2026-06-20T11:45:01.000Z</time>
        <extensions>
          <ns3:TrackPointExtension>
            <ns3:atemp>23.0</ns3:atemp>
          </ns3:TrackPointExtension>
        </extensions>
      </trkpt>
      <trkpt lat="42.465778179466724395751953125" lon="20.19244730472564697265625">
        <ele>1625.199951171875</ele>
        <time>2026-06-20T11:45:02.000Z</time>
        <extensions>
          <ns3:TrackPointExtension>
            <ns3:atemp>23.0</ns3:atemp>
          </ns3:TrackPointExtension>
        </extensions>
      </trkpt>
      <trkpt lat="42.4657082743942737579345703125" lon="20.192468427121639251708984375">
        <ele>1623.199951171875</ele>
        <time>2026-06-20T11:45:03.000Z</time>
        <extensions>
          <ns3:TrackPointExtension>
            <ns3:atemp>23.0</ns3:atemp>
          </ns3:TrackPointExtension>
        </extensions>
      </trkpt>
      <trkpt lat="42.46564448811113834381103515625" lon="20.19249566830694675445556640625">
        <ele>1621.4000244140625</ele>
        <time>2026-06-20T11:45:04.000Z</time>
        <extensions>
          <ns3:TrackPointExtension>
            <ns3:atemp>23.0</ns3:atemp>
          </ns3:TrackPointExtension>
        </extensions>
      </trkpt>
      <trkpt lat="42.465589754283428192138671875" lon="20.19253388978540897369384765625">
        <ele>1619</ele>
        <time>2026-06-20T11:45:05.000Z</time>
        <extensions>
          <ns3:TrackPointExtension>
            <ns3:atemp>23.0</ns3:atemp>
          </ns3:TrackPointExtension>
        </extensions>
      </trkpt>
      <trkpt lat="42.46554491110146045684814453125" lon="20.19258937798440456390380859375">
        <ele>1617</ele>
        <time>2026-06-20T11:45:06.000Z</time>
        <extensions>
          <ns3:TrackPointExtension>
            <ns3:atemp>23.0</ns3:atemp>
          </ns3:TrackPointExtension>
        </extensions>
      </trkpt>
      <trkpt lat="42.46550752781331539154052734375" lon="20.1926700957119464874267578125">
        <ele>1615</ele>
        <time>2026-06-20T11:45:07.000Z</time>
        <extensions>
          <ns3:TrackPointExtension>
            <ns3:atemp>23.0</ns3:atemp>
          </ns3:TrackPointExtension>
        </extensions>
      </trkpt>
      <trkpt lat="42.46546578593552112579345703125" lon="20.19275550730526447296142578125">
        <ele>1613.199951171875</ele>
        <time>2026-06-20T11:45:08.000Z</time>
        <extensions>
          <ns3:TrackPointExtension>
            <ns3:atemp>23.0</ns3:atemp>
          </ns3:TrackPointExtension>
        </extensions>
      </trkpt>
      <trkpt lat="42.46542119421064853668212890625" lon="20.19283664412796497344970703125">
        <ele>1611.5999755859375</ele>
        <time>2026-06-20T11:45:09.000Z</time>
        <extensions>
          <ns3:TrackPointExtension>
            <ns3:atemp>23.0</ns3:atemp>
          </ns3:TrackPointExtension>
        </extensions>
      </trkpt>
      <trkpt lat="42.46537090279161930084228515625" lon="20.1929000951349735260009765625">
        <ele>1609.5999755859375</ele>
        <time>2026-06-20T11:45:10.000Z</time>
        <extensions>
          <ns3:TrackPointExtension>
            <ns3:atemp>23.0</ns3:atemp>
          </ns3:TrackPointExtension>
        </extensions>
      </trkpt>
      <trkpt lat="42.46531994082033634185791015625" lon="20.1929513923823833465576171875">
        <ele>1608.4000244140625</ele>
        <time>2026-06-20T11:45:11.000Z</time>
        <extensions>
          <ns3:TrackPointExtension>
            <ns3:atemp>23.0</ns3:atemp>
          </ns3:TrackPointExtension>
        </extensions>
      </trkpt>
      <trkpt lat="42.465269900858402252197265625" lon="20.1930100657045841217041015625">
        <ele>1607.199951171875</ele>
        <time>2026-06-20T11:45:12.000Z</time>
        <extensions>
          <ns3:TrackPointExtension>
            <ns3:atemp>23.0</ns3:atemp>
          </ns3:TrackPointExtension>
        </extensions>
      </trkpt>
      <trkpt lat="42.4652301706373691558837890625" lon="20.193069241940975189208984375">
        <ele>1606</ele>
        <time>2026-06-20T11:45:13.000Z</time>
        <extensions>
          <ns3:TrackPointExtension>
            <ns3:atemp>23.0</ns3:atemp>
          </ns3:TrackPointExtension>
        </extensions>
      </trkpt>
      <trkpt lat="42.465200163424015045166015625" lon="20.19313420169055461883544921875">
        <ele>1604.5999755859375</ele>
        <time>2026-06-20T11:45:14.000Z</time>
        <extensions>
          <ns3:TrackPointExtension>
            <ns3:atemp>23.0</ns3:atemp>
          </ns3:TrackPointExtension>
        </extensions>
      </trkpt>
      <trkpt lat="42.46517476625740528106689453125" lon="20.1931964792311191558837890625">
        <ele>1603.199951171875</ele>
        <time>2026-06-20T11:45:15.000Z</time>
        <extensions>
          <ns3:TrackPointExtension>
            <ns3:atemp>23.0</ns3:atemp>
          </ns3:TrackPointExtension>
        </extensions>
      </trkpt>
      <trkpt lat="42.46514149010181427001953125" lon="20.19323478452861309051513671875">
        <ele>1602</ele>
        <time>2026-06-20T11:45:16.000Z</time>
        <extensions>
          <ns3:TrackPointExtension>
            <ns3:atemp>23.0</ns3:atemp>
          </ns3:TrackPointExtension>
        </extensions>
      </trkpt>
      <trkpt lat="42.46510586701333522796630859375" lon="20.19324115477502346038818359375">
        <ele>1600.800048828125</ele>
        <time>2026-06-20T11:45:17.000Z</time>
        <extensions>
          <ns3:TrackPointExtension>
            <ns3:atemp>23.0</ns3:atemp>
          </ns3:TrackPointExtension>
        </extensions>
      </trkpt>
      <trkpt lat="42.4650635384023189544677734375" lon="20.19322338514029979705810546875">
        <ele>1599.5999755859375</ele>
        <time>2026-06-20T11:45:18.000Z</time>
        <extensions>
          <ns3:TrackPointExtension>
            <ns3:atemp>23.0</ns3:atemp>
          </ns3:TrackPointExtension>
        </extensions>
      </trkpt>
      <trkpt lat="42.465014420449733734130859375" lon="20.19318692386150360107421875">
        <ele>1598.800048828125</ele>
        <time>2026-06-20T11:45:19.000Z</time>
        <extensions>
          <ns3:TrackPointExtension>
            <ns3:atemp>23.0</ns3:atemp>
          </ns3:TrackPointExtension>
        </extensions>
      </trkpt>
      <trkpt lat="42.464972175657749176025390625" lon="20.1931344531476497650146484375">
        <ele>1597.4000244140625</ele>
        <time>2026-06-20T11:45:20.000Z</time>
        <extensions>
          <ns3:TrackPointExtension>
            <ns3:atemp>23.0</ns3:atemp>
          </ns3:TrackPointExtension>
        </extensions>
      </trkpt>
      <trkpt lat="42.46494526974856853485107421875" lon="20.19307636655867099761962890625">
        <ele>1596.4000244140625</ele>
        <time>2026-06-20T11:45:21.000Z</time>
        <extensions>
          <ns3:TrackPointExtension>
            <ns3:atemp>23.0</ns3:atemp>
          </ns3:TrackPointExtension>
        </extensions>
      </trkpt>
      <trkpt lat="42.464939653873443603515625" lon="20.193012244999408721923828125">
        <ele>1595.5999755859375</ele>
        <time>2026-06-20T11:45:22.000Z</time>
        <extensions>
          <ns3:TrackPointExtension>
            <ns3:atemp>23.0</ns3:atemp>
          </ns3:TrackPointExtension>
        </extensions>
      </trkpt>
      <trkpt lat="42.46495163999497890472412109375" lon="20.19295415841042995452880859375">
        <ele>1594.800048828125</ele>
        <time>2026-06-20T11:45:23.000Z</time>
        <extensions>
          <ns3:TrackPointExtension>
            <ns3:atemp>23.0</ns3:atemp>
          </ns3:TrackPointExtension>
        </extensions>
      </trkpt>
      <trkpt lat="42.464982904493808746337890625" lon="20.19290302880108356475830078125">
        <ele>1594</ele>
        <time>2026-06-20T11:45:24.000Z</time>
        <extensions>
          <ns3:TrackPointExtension>
            <ns3:atemp>23.0</ns3:atemp>
          </ns3:TrackPointExtension>
        </extensions>
      </trkpt>
      <trkpt lat="42.46500612236559391021728515625" lon="20.192837901413440704345703125">
        <ele>1593</ele>
        <time>2026-06-20T11:45:25.000Z</time>
        <extensions>
          <ns3:TrackPointExtension>
            <ns3:atemp>23.0</ns3:atemp>
          </ns3:TrackPointExtension>
        </extensions>
      </trkpt>
      <trkpt lat="42.4650233052670955657958984375" lon="20.1927666552364826202392578125">
        <ele>1592.4000244140625</ele>
        <time>2026-06-20T11:45:26.000Z</time>
        <extensions>
          <ns3:TrackPointExtension>
            <ns3:atemp>23.0</ns3:atemp>
          </ns3:TrackPointExtension>
        </extensions>
      </trkpt>
      <trkpt lat="42.4650202877819538116455078125" lon="20.19269406795501708984375">
        <ele>1591.4000244140625</ele>
        <time>2026-06-20T11:45:27.000Z</time>
        <extensions>
          <ns3:TrackPointExtension>
            <ns3:atemp>23.0</ns3:atemp>
          </ns3:TrackPointExtension>
        </extensions>
      </trkpt>
      <trkpt lat="42.4649919569492340087890625" lon="20.1926573552191257476806640625">
        <ele>1590.4000244140625</ele>
        <time>2026-06-20T11:45:28.000Z</time>
        <extensions>
          <ns3:TrackPointExtension>
            <ns3:atemp>23.0</ns3:atemp>
          </ns3:TrackPointExtension>
        </extensions>
      </trkpt>
      <trkpt lat="42.46495968662202358245849609375" lon="20.19265852868556976318359375">
        <ele>1589.4000244140625</ele>
        <time>2026-06-20T11:45:29.000Z</time>
        <extensions>
          <ns3:TrackPointExtension>
            <ns3:atemp>23.0</ns3:atemp>
          </ns3:TrackPointExtension>
        </extensions>
      </trkpt>
      <trkpt lat="42.464939653873443603515625" lon="20.19268711097538471221923828125">
        <ele>1588.199951171875</ele>
        <time>2026-06-20T11:45:30.000Z</time>
        <extensions>
          <ns3:TrackPointExtension>
            <ns3:atemp>24.0</ns3:atemp>
          </ns3:TrackPointExtension>
        </extensions>
      </trkpt>
      <trkpt lat="42.4649210460484027862548828125" lon="20.192721895873546600341796875">
        <ele>1587.199951171875</ele>
        <time>2026-06-20T11:45:31.000Z</time>
        <extensions>
          <ns3:TrackPointExtension>
            <ns3:atemp>24.0</ns3:atemp>
          </ns3:TrackPointExtension>
        </extensions>
      </trkpt>
      <trkpt lat="42.464895062148571014404296875" lon="20.1927653141319751739501953125">
        <ele>1586.5999755859375</ele>
        <time>2026-06-20T11:45:32.000Z</time>
        <extensions>
          <ns3:TrackPointExtension>
            <ns3:atemp>24.0</ns3:atemp>
          </ns3:TrackPointExtension>
        </extensions>
      </trkpt>
      <trkpt lat="42.4648578464984893798828125" lon="20.19280445761978626251220703125">
        <ele>1585.800048828125</ele>
        <time>2026-06-20T11:45:33.000Z</time>
        <extensions>
          <ns3:TrackPointExtension>
            <ns3:atemp>24.0</ns3:atemp>
          </ns3:TrackPointExtension>
        </extensions>
      </trkpt>
      <trkpt lat="42.4648150987923145294189453125" lon="20.192825160920619964599609375">
        <ele>1585.199951171875</ele>
        <time>2026-06-20T11:45:34.000Z</time>
        <extensions>
          <ns3:TrackPointExtension>
            <ns3:atemp>24.0</ns3:atemp>
          </ns3:TrackPointExtension>
        </extensions>
      </trkpt>
      <trkpt lat="42.46477126143872737884521484375" lon="20.19283815287053585052490234375">
        <ele>1584.199951171875</ele>
        <time>2026-06-20T11:45:35.000Z</time>
        <extensions>
          <ns3:TrackPointExtension>
            <ns3:atemp>24.0</ns3:atemp>
          </ns3:TrackPointExtension>
        </extensions>
      </trkpt>
      <trkpt lat="42.4647316150367259979248046875" lon="20.1928571797907352447509765625">
        <ele>1583.4000244140625</ele>
        <time>2026-06-20T11:45:36.000Z</time>
        <extensions>
          <ns3:TrackPointExtension>
            <ns3:atemp>24.0</ns3:atemp>
          </ns3:TrackPointExtension>
        </extensions>
      </trkpt>
      <trkpt lat="42.46468819677829742431640625" lon="20.19288592971861362457275390625">
        <ele>1582.800048828125</ele>
        <time>2026-06-20T11:45:37.000Z</time>
        <extensions>
          <ns3:TrackPointExtension>
            <ns3:atemp>24.0</ns3:atemp>
          </ns3:TrackPointExtension>
        </extensions>
      </trkpt>
      <trkpt lat="42.4646451137959957122802734375" lon="20.19292767159640789031982421875">
        <ele>1581.800048828125</ele>
        <time>2026-06-20T11:45:38.000Z</time>
        <extensions>
          <ns3:TrackPointExtension>
            <ns3:atemp>24.0</ns3:atemp>
          </ns3:TrackPointExtension>
        </extensions>
      </trkpt>
      <trkpt lat="42.46460295282304286956787109375" lon="20.19297310151159763336181640625">
        <ele>1581</ele>
        <time>2026-06-20T11:45:39.000Z</time>
        <extensions>
          <ns3:TrackPointExtension>
            <ns3:atemp>24.0</ns3:atemp>
          </ns3:TrackPointExtension>
        </extensions>
      </trkpt>
      <trkpt lat="42.46456992812454700469970703125" lon="20.19302439875900745391845703125">
        <ele>1580.199951171875</ele>
        <time>2026-06-20T11:45:40.000Z</time>
        <extensions>
          <ns3:TrackPointExtension>
            <ns3:atemp>24.0</ns3:atemp>
          </ns3:TrackPointExtension>
        </extensions>
      </trkpt>
      <trkpt lat="42.46454310603439807891845703125" lon="20.19307854585349559783935546875">
        <ele>1579.199951171875</ele>
        <time>2026-06-20T11:45:41.000Z</time>
        <extensions>
          <ns3:TrackPointExtension>
            <ns3:atemp>24.0</ns3:atemp>
          </ns3:TrackPointExtension>
        </extensions>
      </trkpt>
      <trkpt lat="42.46451519429683685302734375" lon="20.19313671626150608062744140625">
        <ele>1578</ele>
        <time>2026-06-20T11:45:42.000Z</time>
        <extensions>
          <ns3:TrackPointExtension>
            <ns3:atemp>24.0</ns3:atemp>
          </ns3:TrackPointExtension>
        </extensions>
      </trkpt>
      <trkpt lat="42.46449314989149570465087890625" lon="20.1932058669626712799072265625">
        <ele>1576.800048828125</ele>
        <time>2026-06-20T11:45:43.000Z</time>
        <extensions>
          <ns3:TrackPointExtension>
            <ns3:atemp>24.0</ns3:atemp>
          </ns3:TrackPointExtension>
        </extensions>
      </trkpt>
      <trkpt lat="42.4644689261913299560546875" lon="20.19328054971992969512939453125">
        <ele>1575.5999755859375</ele>
        <time>2026-06-20T11:45:44.000Z</time>
        <extensions>
          <ns3:TrackPointExtension>
            <ns3:atemp>24.0</ns3:atemp>
          </ns3:TrackPointExtension>
        </extensions>
      </trkpt>
      <trkpt lat="42.4644394218921661376953125" lon="20.193355567753314971923828125">
        <ele>1574.4000244140625</ele>
        <time>2026-06-20T11:45:45.000Z</time>
        <extensions>
          <ns3:TrackPointExtension>
            <ns3:atemp>24.0</ns3:atemp>
          </ns3:TrackPointExtension>
        </extensions>
      </trkpt>
      <trkpt lat="42.46441335417330265045166015625" lon="20.1934368722140789031982421875">
        <ele>1572.800048828125</ele>
        <time>2026-06-20T11:45:46.000Z</time>
        <extensions>
          <ns3:TrackPointExtension>
            <ns3:atemp>24.0</ns3:atemp>
          </ns3:TrackPointExtension>
        </extensions>
      </trkpt>
      <trkpt lat="42.46439742855727672576904296875" lon="20.19352379254996776580810546875">
        <ele>1571.4000244140625</ele>
        <time>2026-06-20T11:45:47.000Z</time>
        <extensions>
          <ns3:TrackPointExtension>
            <ns3:atemp>24.0</ns3:atemp>
          </ns3:TrackPointExtension>
        </extensions>
      </trkpt>
      <trkpt lat="42.4643913097679615020751953125" lon="20.19360811449587345123291015625">
        <ele>1570.199951171875</ele>
        <time>2026-06-20T11:45:48.000Z</time>
        <extensions>
          <ns3:TrackPointExtension>
            <ns3:atemp>24.0</ns3:atemp>
          </ns3:TrackPointExtension>
        </extensions>
      </trkpt>
      <trkpt lat="42.464398853480815887451171875" lon="20.19368648529052734375">
        <ele>1569</ele>
        <time>2026-06-20T11:45:49.000Z</time>
        <extensions>
          <ns3:TrackPointExtension>
            <ns3:atemp>24.0</ns3:atemp>
          </ns3:TrackPointExtension>
        </extensions>
      </trkpt>
      <trkpt lat="42.46440631337463855743408203125" lon="20.19376418553292751312255859375">
        <ele>1567.5999755859375</ele>
        <time>2026-06-20T11:45:50.000Z</time>
        <extensions>
          <ns3:TrackPointExtension>
            <ns3:atemp>24.0</ns3:atemp>
          </ns3:TrackPointExtension>
        </extensions>
      </trkpt>
      <trkpt lat="42.464400194585323333740234375" lon="20.19383844919502735137939453125">
        <ele>1566.199951171875</ele>
        <time>2026-06-20T11:45:51.000Z</time>
        <extensions>
          <ns3:TrackPointExtension>
            <ns3:atemp>24.0</ns3:atemp>
          </ns3:TrackPointExtension>
        </extensions>
      </trkpt>
      <trkpt lat="42.464392483234405517578125" lon="20.19392788410186767578125">
        <ele>1565</ele>
        <time>2026-06-20T11:45:52.000Z</time>
        <extensions>
          <ns3:TrackPointExtension>
            <ns3:atemp>24.0</ns3:atemp>
          </ns3:TrackPointExtension>
        </extensions>
      </trkpt>
      <trkpt lat="42.4643866159021854400634765625" lon="20.19400960765779018402099609375">
        <ele>1563.5999755859375</ele>
        <time>2026-06-20T11:45:53.000Z</time>
        <extensions>
          <ns3:TrackPointExtension>
            <ns3:atemp>24.0</ns3:atemp>
          </ns3:TrackPointExtension>
        </extensions>
      </trkpt>
      <trkpt lat="42.46438133530318737030029296875" lon="20.194081775844097137451171875">
        <ele>1562.199951171875</ele>
        <time>2026-06-20T11:45:54.000Z</time>
        <extensions>
          <ns3:TrackPointExtension>
            <ns3:atemp>24.0</ns3:atemp>
          </ns3:TrackPointExtension>
        </extensions>
      </trkpt>
      <trkpt lat="42.4643732048571109771728515625" lon="20.19415092654526233673095703125">
        <ele>1560.800048828125</ele>
        <time>2026-06-20T11:45:55.000Z</time>
        <extensions>
          <ns3:TrackPointExtension>
            <ns3:atemp>24.0</ns3:atemp>
          </ns3:TrackPointExtension>
        </extensions>
      </trkpt>
      <trkpt lat="42.4643735401332378387451171875" lon="20.19421915523707866668701171875">
        <ele>1559.199951171875</ele>
        <time>2026-06-20T11:45:56.000Z</time>
        <extensions>
          <ns3:TrackPointExtension>
            <ns3:atemp>24.0</ns3:atemp>
          </ns3:TrackPointExtension>
        </extensions>
      </trkpt>
      <trkpt lat="42.4643777310848236083984375" lon="20.19429794512689113616943359375">
        <ele>1557.5999755859375</ele>
        <time>2026-06-20T11:45:57.000Z</time>
        <extensions>
          <ns3:TrackPointExtension>
            <ns3:atemp>24.0</ns3:atemp>
          </ns3:TrackPointExtension>
        </extensions>
      </trkpt>
      <trkpt lat="42.46437647379934787750244140625" lon="20.1943873800337314605712890625">
        <ele>1555.800048828125</ele>
        <time>2026-06-20T11:45:58.000Z</time>
        <extensions>
          <ns3:TrackPointExtension>
            <ns3:atemp>24.0</ns3:atemp>
          </ns3:TrackPointExtension>
        </extensions>
      </trkpt>
      <trkpt lat="42.464366666972637176513671875" lon="20.19447706639766693115234375">
        <ele>1554.199951171875</ele>
        <time>2026-06-20T11:45:59.000Z</time>
        <extensions>
          <ns3:TrackPointExtension>
            <ns3:atemp>24.0</ns3:atemp>
          </ns3:TrackPointExtension>
        </extensions>
      </trkpt>
      <trkpt lat="42.46434948407113552093505859375" lon="20.19455728121101856231689453125">
        <ele>1552.4000244140625</ele>
        <time>2026-06-20T11:46:00.000Z</time>
        <extensions>
          <ns3:TrackPointExtension>
            <ns3:atemp>24.0</ns3:atemp>
          </ns3:TrackPointExtension>
        </extensions>
      </trkpt>
      <trkpt lat="42.464333809912204742431640625" lon="20.1946260966360569000244140625">
        <ele>1550.5999755859375</ele>
        <time>2026-06-20T11:46:01.000Z</time>
        <extensions>
          <ns3:TrackPointExtension>
            <ns3:atemp>24.0</ns3:atemp>
          </ns3:TrackPointExtension>
        </extensions>
      </trkpt>
      <trkpt lat="42.4643249250948429107666015625" lon="20.1946891285479068756103515625">
        <ele>1548.800048828125</ele>
        <time>2026-06-20T11:46:02.000Z</time>
        <extensions>
          <ns3:TrackPointExtension>
            <ns3:atemp>24.0</ns3:atemp>
          </ns3:TrackPointExtension>
        </extensions>
      </trkpt>
      <trkpt lat="42.4643133580684661865234375" lon="20.194747634232044219970703125">
        <ele>1547.4000244140625</ele>
        <time>2026-06-20T11:46:03.000Z</time>
        <extensions>
          <ns3:TrackPointExtension>
            <ns3:atemp>24.0</ns3:atemp>
          </ns3:TrackPointExtension>
        </extensions>
      </trkpt>
      <trkpt lat="42.46430086903274059295654296875" lon="20.194799266755580902099609375">
        <ele>1546.199951171875</ele>
        <time>2026-06-20T11:46:04.000Z</time>
        <extensions>
          <ns3:TrackPointExtension>
            <ns3:atemp>24.0</ns3:atemp>
          </ns3:TrackPointExtension>
        </extensions>
      </trkpt>
      <trkpt lat="42.46428611688315868377685546875" lon="20.19486137665808200836181640625">
        <ele>1544.5999755859375</ele>
        <time>2026-06-20T11:46:05.000Z</time>
        <extensions>
          <ns3:TrackPointExtension>
            <ns3:atemp>24.0</ns3:atemp>
          </ns3:TrackPointExtension>
        </extensions>
      </trkpt>
      <trkpt lat="42.46426348574459552764892578125" lon="20.19493027590215206146240234375">
        <ele>1542.5999755859375</ele>
        <time>2026-06-20T11:46:06.000Z</time>
        <extensions>
          <ns3:TrackPointExtension>
            <ns3:atemp>24.0</ns3:atemp>
          </ns3:TrackPointExtension>
        </extensions>
      </trkpt>
      <trkpt lat="42.464240603148937225341796875" lon="20.19500219263136386871337890625">
        <ele>1540.800048828125</ele>
        <time>2026-06-20T11:46:07.000Z</time>
        <extensions>
          <ns3:TrackPointExtension>
            <ns3:atemp>24.0</ns3:atemp>
          </ns3:TrackPointExtension>
        </extensions>
      </trkpt>
      <trkpt lat="42.46421721763908863067626953125" lon="20.1950730197131633758544921875">
        <ele>1539</ele>
        <time>2026-06-20T11:46:08.000Z</time>
        <extensions>
          <ns3:TrackPointExtension>
            <ns3:atemp>24.0</ns3:atemp>
          </ns3:TrackPointExtension>
        </extensions>
      </trkpt>
      <trkpt lat="42.4641980230808258056640625" lon="20.19513412378728389739990234375">
        <ele>1537.800048828125</ele>
        <time>2026-06-20T11:46:09.000Z</time>
        <extensions>
          <ns3:TrackPointExtension>
            <ns3:atemp>24.0</ns3:atemp>
          </ns3:TrackPointExtension>
        </extensions>
      </trkpt>
      <trkpt lat="42.4641820974647998809814453125" lon="20.1951896958053112030029296875">
        <ele>1536.800048828125</ele>
        <time>2026-06-20T11:46:10.000Z</time>
        <extensions>
          <ns3:TrackPointExtension>
            <ns3:atemp>24.0</ns3:atemp>
          </ns3:TrackPointExtension>
        </extensions>
      </trkpt>
      <trkpt lat="42.46416105888783931732177734375" lon="20.1952346228063106536865234375">
        <ele>1535.4000244140625</ele>
        <time>2026-06-20T11:46:11.000Z</time>
        <extensions>
          <ns3:TrackPointExtension>
            <ns3:atemp>24.0</ns3:atemp>
          </ns3:TrackPointExtension>
        </extensions>
      </trkpt>
      <trkpt lat="42.464132644236087799072265625" lon="20.19527460448443889617919921875">
        <ele>1534.199951171875</ele>
        <time>2026-06-20T11:46:12.000Z</time>
        <extensions>
          <ns3:TrackPointExtension>
            <ns3:atemp>24.0</ns3:atemp>
          </ns3:TrackPointExtension>
        </extensions>
      </trkpt>
      <trkpt lat="42.464100457727909088134765625" lon="20.1953087188303470611572265625">
        <ele>1533.199951171875</ele>
        <time>2026-06-20T11:46:13.000Z</time>
        <extensions>
          <ns3:TrackPointExtension>
            <ns3:atemp>24.0</ns3:atemp>
          </ns3:TrackPointExtension>
        </extensions>
      </trkpt>
      <trkpt lat="42.464062906801700592041015625" lon="20.19535146653652191162109375">
        <ele>1532.199951171875</ele>
        <time>2026-06-20T11:46:14.000Z</time>
        <extensions>
          <ns3:TrackPointExtension>
            <ns3:atemp>24.0</ns3:atemp>
          </ns3:TrackPointExtension>
        </extensions>
      </trkpt>
      <trkpt lat="42.4640235118567943572998046875" lon="20.19540435634553432464599609375">
        <ele>1531.199951171875</ele>
        <time>2026-06-20T11:46:15.000Z</time>
        <extensions>
          <ns3:TrackPointExtension>
            <ns3:atemp>24.0</ns3:atemp>
          </ns3:TrackPointExtension>
        </extensions>
      </trkpt>
      <trkpt lat="42.4639809317886829376220703125" lon="20.19546546041965484619140625">
        <ele>1529.4000244140625</ele>
        <time>2026-06-20T11:46:16.000Z</time>
        <extensions>
          <ns3:TrackPointExtension>
            <ns3:atemp>24.0</ns3:atemp>
          </ns3:TrackPointExtension>
        </extensions>
      </trkpt>
      <trkpt lat="42.463933490216732025146484375" lon="20.19553125835955142974853515625">
        <ele>1528.199951171875</ele>
        <time>2026-06-20T11:46:17.000Z</time>
        <extensions>
          <ns3:TrackPointExtension>
            <ns3:atemp>24.0</ns3:atemp>
          </ns3:TrackPointExtension>
        </extensions>
      </trkpt>
      <trkpt lat="42.46388814412057399749755859375" lon="20.19560225307941436767578125">
        <ele>1526.800048828125</ele>
        <time>2026-06-20T11:46:18.000Z</time>
        <extensions>
          <ns3:TrackPointExtension>
            <ns3:atemp>24.0</ns3:atemp>
          </ns3:TrackPointExtension>
        </extensions>
      </trkpt>
      <trkpt lat="42.4638531915843486785888671875" lon="20.19567743875086307525634765625">
        <ele>1525.199951171875</ele>
        <time>2026-06-20T11:46:19.000Z</time>
        <extensions>
          <ns3:TrackPointExtension>
            <ns3:atemp>24.0</ns3:atemp>
          </ns3:TrackPointExtension>
        </extensions>
      </trkpt>
      <trkpt lat="42.46382578276097774505615234375" lon="20.19575086422264575958251953125">
        <ele>1523.800048828125</ele>
        <time>2026-06-20T11:46:20.000Z</time>
        <extensions>
          <ns3:TrackPointExtension>
            <ns3:atemp>24.0</ns3:atemp>
          </ns3:TrackPointExtension>
        </extensions>
      </trkpt>
      <trkpt lat="42.4638045765459537506103515625" lon="20.195814482867717742919921875">
        <ele>1522.4000244140625</ele>
        <time>2026-06-20T11:46:21.000Z</time>
        <extensions>
          <ns3:TrackPointExtension>
            <ns3:atemp>24.0</ns3:atemp>
          </ns3:TrackPointExtension>
        </extensions>
      </trkpt>
      <trkpt lat="42.4637750722467899322509765625" lon="20.19585446454584598541259765625">
        <ele>1521.199951171875</ele>
        <time>2026-06-20T11:46:22.000Z</time>
        <extensions>
          <ns3:TrackPointExtension>
            <ns3:atemp>24.0</ns3:atemp>
          </ns3:TrackPointExtension>
        </extensions>
      </trkpt>
      <trkpt lat="42.46374137699604034423828125" lon="20.19587256945669651031494140625">
        <ele>1520</ele>
        <time>2026-06-20T11:46:23.000Z</time>
        <extensions>
          <ns3:TrackPointExtension>
            <ns3:atemp>24.0</ns3:atemp>
          </ns3:TrackPointExtension>
        </extensions>
      </trkpt>
      <trkpt lat="42.46371933259069919586181640625" lon="20.19587189890444278717041015625">
        <ele>1519.199951171875</ele>
        <time>2026-06-20T11:46:24.000Z</time>
        <extensions>
          <ns3:TrackPointExtension>
            <ns3:atemp>24.0</ns3:atemp>
          </ns3:TrackPointExtension>
        </extensions>
      </trkpt>
      <trkpt lat="42.46370927430689334869384765625" lon="20.19587357528507709503173828125">
        <ele>1518.5999755859375</ele>
        <time>2026-06-20T11:46:25.000Z</time>
        <extensions>
          <ns3:TrackPointExtension>
            <ns3:atemp>24.0</ns3:atemp>
          </ns3:TrackPointExtension>
        </extensions>
      </trkpt>
      <trkpt lat="42.46370893903076648712158203125" lon="20.19586988724768161773681640625">
        <ele>1517.800048828125</ele>
        <time>2026-06-20T11:46:26.000Z</time>
        <extensions>
          <ns3:TrackPointExtension>
            <ns3:atemp>24.0</ns3:atemp>
          </ns3:TrackPointExtension>
        </extensions>
      </trkpt>
      <trkpt lat="42.46370977722108364105224609375" lon="20.1958693005144596099853515625">
        <ele>1517.4000244140625</ele>
        <time>2026-06-20T11:46:27.000Z</time>
        <extensions>
          <ns3:TrackPointExtension>
            <ns3:atemp>24.0</ns3:atemp>
          </ns3:TrackPointExtension>
        </extensions>
      </trkpt>
      <trkpt lat="42.46370910666882991790771484375" lon="20.1958719827234745025634765625">
        <ele>1517</ele>
        <time>2026-06-20T11:46:28.000Z</time>
        <extensions>
          <ns3:TrackPointExtension>
            <ns3:atemp>24.0</ns3:atemp>
          </ns3:TrackPointExtension>
        </extensions>
      </trkpt>
      <trkpt lat="42.46370910666882991790771484375" lon="20.1958719827234745025634765625">
        <ele>1516.800048828125</ele>
        <time>2026-06-20T11:46:29.000Z</time>
        <extensions>
          <ns3:TrackPointExtension>
            <ns3:atemp>24.0</ns3:atemp>
          </ns3:TrackPointExtension>
        </extensions>
      </trkpt>
      <trkpt lat="42.46370910666882991790771484375" lon="20.1958719827234745025634765625">
        <ele>1516.5999755859375</ele>
        <time>2026-06-20T11:46:30.000Z</time>
        <extensions>
          <ns3:TrackPointExtension>
            <ns3:atemp>24.0</ns3:atemp>
          </ns3:TrackPointExtension>
        </extensions>
      </trkpt>
      <trkpt lat="42.46370910666882991790771484375" lon="20.1958719827234745025634765625">
        <ele>1516.4000244140625</ele>
        <time>2026-06-20T11:46:31.000Z</time>
        <extensions>
          <ns3:TrackPointExtension>
            <ns3:atemp>24.0</ns3:atemp>
          </ns3:TrackPointExtension>
        </extensions>
      </trkpt>
      <trkpt lat="42.46370910666882991790771484375" lon="20.1958719827234745025634765625">
        <ele>1516</ele>
        <time>2026-06-20T11:46:32.000Z</time>
        <extensions>
          <ns3:TrackPointExtension>
            <ns3:atemp>24.0</ns3:atemp>
          </ns3:TrackPointExtension>
        </extensions>
      </trkpt>
      <trkpt lat="42.46370910666882991790771484375" lon="20.1958719827234745025634765625">
        <ele>1515.800048828125</ele>
        <time>2026-06-20T11:46:33.000Z</time>
        <extensions>
          <ns3:TrackPointExtension>
            <ns3:atemp>24.0</ns3:atemp>
          </ns3:TrackPointExtension>
        </extensions>
      </trkpt>
      <trkpt lat="42.46370910666882991790771484375" lon="20.1958719827234745025634765625">
        <ele>1515.5999755859375</ele>
        <time>2026-06-20T11:46:34.000Z</time>
        <extensions>
          <ns3:TrackPointExtension>
            <ns3:atemp>24.0</ns3:atemp>
          </ns3:TrackPointExtension>
        </extensions>
      </trkpt>
      <trkpt lat="42.46370910666882991790771484375" lon="20.1958719827234745025634765625">
        <ele>1515.5999755859375</ele>
        <time>2026-06-20T11:46:35.000Z</time>
        <extensions>
          <ns3:TrackPointExtension>
            <ns3:atemp>24.0</ns3:atemp>
          </ns3:TrackPointExtension>
        </extensions>
      </trkpt>
      <trkpt lat="42.46370910666882991790771484375" lon="20.1958719827234745025634765625">
        <ele>1515.4000244140625</ele>
        <time>2026-06-20T11:46:36.000Z</time>
        <extensions>
          <ns3:TrackPointExtension>
            <ns3:atemp>24.0</ns3:atemp>
          </ns3:TrackPointExtension>
        </extensions>
      </trkpt>
      <trkpt lat="42.46370910666882991790771484375" lon="20.1958719827234745025634765625">
        <ele>1515.4000244140625</ele>
        <time>2026-06-20T11:46:37.000Z</time>
        <extensions>
          <ns3:TrackPointExtension>
            <ns3:atemp>24.0</ns3:atemp>
          </ns3:TrackPointExtension>
        </extensions>
      </trkpt>
      <trkpt lat="42.46370910666882991790771484375" lon="20.1958719827234745025634765625">
        <ele>1515.4000244140625</ele>
        <time>2026-06-20T11:46:38.000Z</time>
        <extensions>
          <ns3:TrackPointExtension>
            <ns3:atemp>24.0</ns3:atemp>
          </ns3:TrackPointExtension>
        </extensions>
      </trkpt>
      <trkpt lat="42.46370910666882991790771484375" lon="20.1958719827234745025634765625">
        <ele>1515.199951171875</ele>
        <time>2026-06-20T11:46:39.000Z</time>
        <extensions>
          <ns3:TrackPointExtension>
            <ns3:atemp>24.0</ns3:atemp>
          </ns3:TrackPointExtension>
        </extensions>
      </trkpt>
      <trkpt lat="42.46370910666882991790771484375" lon="20.1958719827234745025634765625">
        <ele>1515.199951171875</ele>
        <time>2026-06-20T11:46:40.000Z</time>
        <extensions>
          <ns3:TrackPointExtension>
            <ns3:atemp>24.0</ns3:atemp>
          </ns3:TrackPointExtension>
        </extensions>
      </trkpt>
      <trkpt lat="42.46370910666882991790771484375" lon="20.1958719827234745025634765625">
        <ele>1515</ele>
        <time>2026-06-20T11:46:41.000Z</time>
        <extensions>
          <ns3:TrackPointExtension>
            <ns3:atemp>24.0</ns3:atemp>
          </ns3:TrackPointExtension>
        </extensions>
      </trkpt>
      <trkpt lat="42.46370910666882991790771484375" lon="20.1958719827234745025634765625">
        <ele>1515</ele>
        <time>2026-06-20T11:46:42.000Z</time>
        <extensions>
          <ns3:TrackPointExtension>
            <ns3:atemp>24.0</ns3:atemp>
          </ns3:TrackPointExtension>
        </extensions>
      </trkpt>
      <trkpt lat="42.46370910666882991790771484375" lon="20.1958719827234745025634765625">
        <ele>1515</ele>
        <time>2026-06-20T11:46:43.000Z</time>
        <extensions>
          <ns3:TrackPointExtension>
            <ns3:atemp>24.0</ns3:atemp>
          </ns3:TrackPointExtension>
        </extensions>
      </trkpt>
      <trkpt lat="42.46370910666882991790771484375" lon="20.1958719827234745025634765625">
        <ele>1514.800048828125</ele>
        <time>2026-06-20T11:46:44.000Z</time>
        <extensions>
          <ns3:TrackPointExtension>
            <ns3:atemp>24.0</ns3:atemp>
          </ns3:TrackPointExtension>
        </extensions>
      </trkpt>
      <trkpt lat="42.46370910666882991790771484375" lon="20.1958719827234745025634765625">
        <ele>1514.800048828125</ele>
        <time>2026-06-20T11:46:45.000Z</time>
        <extensions>
          <ns3:TrackPointExtension>
            <ns3:atemp>24.0</ns3:atemp>
          </ns3:TrackPointExtension>
        </extensions>
      </trkpt>
      <trkpt lat="42.46370910666882991790771484375" lon="20.1958719827234745025634765625">
        <ele>1514.5999755859375</ele>
        <time>2026-06-20T11:46:46.000Z</time>
        <extensions>
          <ns3:TrackPointExtension>
            <ns3:atemp>24.0</ns3:atemp>
          </ns3:TrackPointExtension>
        </extensions>
      </trkpt>
      <trkpt lat="42.46370910666882991790771484375" lon="20.1958719827234745025634765625">
        <ele>1514.5999755859375</ele>
        <time>2026-06-20T11:46:47.000Z</time>
        <extensions>
          <ns3:TrackPointExtension>
            <ns3:atemp>24.0</ns3:atemp>
          </ns3:TrackPointExtension>
        </extensions>
      </trkpt>
      <trkpt lat="42.46370910666882991790771484375" lon="20.1958719827234745025634765625">
        <ele>1514.5999755859375</ele>
        <time>2026-06-20T11:46:48.000Z</time>
        <extensions>
          <ns3:TrackPointExtension>
            <ns3:atemp>24.0</ns3:atemp>
          </ns3:TrackPointExtension>
        </extensions>
      </trkpt>
      <trkpt lat="42.46370910666882991790771484375" lon="20.1958719827234745025634765625">
        <ele>1514.4000244140625</ele>
        <time>2026-06-20T11:46:49.000Z</time>
        <extensions>
          <ns3:TrackPointExtension>
            <ns3:atemp>24.0</ns3:atemp>
          </ns3:TrackPointExtension>
        </extensions>
      </trkpt>
      <trkpt lat="42.46370910666882991790771484375" lon="20.1958719827234745025634765625">
        <ele>1514.4000244140625</ele>
        <time>2026-06-20T11:46:50.000Z</time>
        <extensions>
          <ns3:TrackPointExtension>
            <ns3:atemp>24.0</ns3:atemp>
          </ns3:TrackPointExtension>
        </extensions>
      </trkpt>
      <trkpt lat="42.46370910666882991790771484375" lon="20.1958719827234745025634765625">
        <ele>1514.4000244140625</ele>
        <time>2026-06-20T11:46:51.000Z</time>
        <extensions>
          <ns3:TrackPointExtension>
            <ns3:atemp>24.0</ns3:atemp>
          </ns3:TrackPointExtension>
        </extensions>
      </trkpt>
      <trkpt lat="42.46370910666882991790771484375" lon="20.1958719827234745025634765625">
        <ele>1514.199951171875</ele>
        <time>2026-06-20T11:46:52.000Z</time>
        <extensions>
          <ns3:TrackPointExtension>
            <ns3:atemp>24.0</ns3:atemp>
          </ns3:TrackPointExtension>
        </extensions>
      </trkpt>
      <trkpt lat="42.46370910666882991790771484375" lon="20.1958719827234745025634765625">
        <ele>1514.199951171875</ele>
        <time>2026-06-20T11:46:53.000Z</time>
        <extensions>
          <ns3:TrackPointExtension>
            <ns3:atemp>24.0</ns3:atemp>
          </ns3:TrackPointExtension>
        </extensions>
      </trkpt>
      <trkpt lat="42.46370910666882991790771484375" lon="20.1958719827234745025634765625">
        <ele>1514.199951171875</ele>
        <time>2026-06-20T11:46:54.000Z</time>
        <extensions>
          <ns3:TrackPointExtension>
            <ns3:atemp>24.0</ns3:atemp>
          </ns3:TrackPointExtension>
        </extensions>
      </trkpt>
      <trkpt lat="42.46370910666882991790771484375" lon="20.1958719827234745025634765625">
        <ele>1514.199951171875</ele>
        <time>2026-06-20T11:46:55.000Z</time>
        <extensions>
          <ns3:TrackPointExtension>
            <ns3:atemp>24.0</ns3:atemp>
          </ns3:TrackPointExtension>
        </extensions>
      </trkpt>
      <trkpt lat="42.46370910666882991790771484375" lon="20.1958719827234745025634765625">
        <ele>1514</ele>
        <time>2026-06-20T11:46:56.000Z</time>
        <extensions>
          <ns3:TrackPointExtension>
            <ns3:atemp>24.0</ns3:atemp>
          </ns3:TrackPointExtension>
        </extensions>
      </trkpt>
      <trkpt lat="42.46370910666882991790771484375" lon="20.1958719827234745025634765625">
        <ele>1514</ele>
        <time>2026-06-20T11:46:57.000Z</time>
        <extensions>
          <ns3:TrackPointExtension>
            <ns3:atemp>24.0</ns3:atemp>
          </ns3:TrackPointExtension>
        </extensions>
      </trkpt>
      <trkpt lat="42.46370910666882991790771484375" lon="20.1958719827234745025634765625">
        <ele>1514</ele>
        <time>2026-06-20T11:46:58.000Z</time>
        <extensions>
          <ns3:TrackPointExtension>
            <ns3:atemp>24.0</ns3:atemp>
          </ns3:TrackPointExtension>
        </extensions>
      </trkpt>
      <trkpt lat="42.46370910666882991790771484375" lon="20.1958719827234745025634765625">
        <ele>1513.800048828125</ele>
        <time>2026-06-20T11:46:59.000Z</time>
        <extensions>
          <ns3:TrackPointExtension>
            <ns3:atemp>24.0</ns3:atemp>
          </ns3:TrackPointExtension>
        </extensions>
      </trkpt>
      <trkpt lat="42.46370910666882991790771484375" lon="20.1958719827234745025634765625">
        <ele>1513.800048828125</ele>
        <time>2026-06-20T11:47:00.000Z</time>
        <extensions>
          <ns3:TrackPointExtension>
            <ns3:atemp>24.0</ns3:atemp>
          </ns3:TrackPointExtension>
        </extensions>
      </trkpt>
      <trkpt lat="42.46370910666882991790771484375" lon="20.1958719827234745025634765625">
        <ele>1513.800048828125</ele>
        <time>2026-06-20T11:47:01.000Z</time>
        <extensions>
          <ns3:TrackPointExtension>
            <ns3:atemp>24.0</ns3:atemp>
          </ns3:TrackPointExtension>
        </extensions>
      </trkpt>
      <trkpt lat="42.46370910666882991790771484375" lon="20.1958719827234745025634765625">
        <ele>1513.800048828125</ele>
        <time>2026-06-20T11:47:02.000Z</time>
        <extensions>
          <ns3:TrackPointExtension>
            <ns3:atemp>24.0</ns3:atemp>
          </ns3:TrackPointExtension>
        </extensions>
      </trkpt>
      <trkpt lat="42.46370910666882991790771484375" lon="20.1958719827234745025634765625">
        <ele>1513.800048828125</ele>
        <time>2026-06-20T11:47:03.000Z</time>
        <extensions>
          <ns3:TrackPointExtension>
            <ns3:atemp>24.0</ns3:atemp>
          </ns3:TrackPointExtension>
        </extensions>
      </trkpt>
      <trkpt lat="42.46370910666882991790771484375" lon="20.1958719827234745025634765625">
        <ele>1513.800048828125</ele>
        <time>2026-06-20T11:47:04.000Z</time>
        <extensions>
          <ns3:TrackPointExtension>
            <ns3:atemp>24.0</ns3:atemp>
          </ns3:TrackPointExtension>
        </extensions>
      </trkpt>
      <trkpt lat="42.46370910666882991790771484375" lon="20.1958719827234745025634765625">
        <ele>1513.800048828125</ele>
        <time>2026-06-20T11:47:05.000Z</time>
        <extensions>
          <ns3:TrackPointExtension>
            <ns3:atemp>24.0</ns3:atemp>
          </ns3:TrackPointExtension>
        </extensions>
      </trkpt>
      <trkpt lat="42.46370910666882991790771484375" lon="20.1958719827234745025634765625">
        <ele>1513.800048828125</ele>
        <time>2026-06-20T11:47:06.000Z</time>
        <extensions>
          <ns3:TrackPointExtension>
            <ns3:atemp>24.0</ns3:atemp>
          </ns3:TrackPointExtension>
        </extensions>
      </trkpt>
      <trkpt lat="42.46370910666882991790771484375" lon="20.1958719827234745025634765625">
        <ele>1513.800048828125</ele>
        <time>2026-06-20T11:47:07.000Z</time>
        <extensions>
          <ns3:TrackPointExtension>
            <ns3:atemp>24.0</ns3:atemp>
          </ns3:TrackPointExtension>
        </extensions>
      </trkpt>
      <trkpt lat="42.46370910666882991790771484375" lon="20.1958719827234745025634765625">
        <ele>1513.5999755859375</ele>
        <time>2026-06-20T11:47:08.000Z</time>
        <extensions>
          <ns3:TrackPointExtension>
            <ns3:atemp>24.0</ns3:atemp>
          </ns3:TrackPointExtension>
        </extensions>
      </trkpt>
      <trkpt lat="42.46370910666882991790771484375" lon="20.1958719827234745025634765625">
        <ele>1513.5999755859375</ele>
        <time>2026-06-20T11:47:09.000Z</time>
        <extensions>
          <ns3:TrackPointExtension>
            <ns3:atemp>24.0</ns3:atemp>
          </ns3:TrackPointExtension>
        </extensions>
      </trkpt>
      <trkpt lat="42.46370910666882991790771484375" lon="20.1958719827234745025634765625">
        <ele>1513.5999755859375</ele>
        <time>2026-06-20T11:47:10.000Z</time>
        <extensions>
          <ns3:TrackPointExtension>
            <ns3:atemp>24.0</ns3:atemp>
          </ns3:TrackPointExtension>
        </extensions>
      </trkpt>
      <trkpt lat="42.46370910666882991790771484375" lon="20.1958719827234745025634765625">
        <ele>1513.4000244140625</ele>
        <time>2026-06-20T11:47:11.000Z</time>
        <extensions>
          <ns3:TrackPointExtension>
            <ns3:atemp>24.0</ns3:atemp>
          </ns3:TrackPointExtension>
        </extensions>
      </trkpt>
      <trkpt lat="42.46370910666882991790771484375" lon="20.1958719827234745025634765625">
        <ele>1513.4000244140625</ele>
        <time>2026-06-20T11:47:12.000Z</time>
        <extensions>
          <ns3:TrackPointExtension>
            <ns3:atemp>24.0</ns3:atemp>
          </ns3:TrackPointExtension>
        </extensions>
      </trkpt>
      <trkpt lat="42.46370910666882991790771484375" lon="20.1958719827234745025634765625">
        <ele>1513.4000244140625</ele>
        <time>2026-06-20T11:47:13.000Z</time>
        <extensions>
          <ns3:TrackPointExtension>
            <ns3:atemp>24.0</ns3:atemp>
          </ns3:TrackPointExtension>
        </extensions>
      </trkpt>
      <trkpt lat="42.46370910666882991790771484375" lon="20.1958719827234745025634765625">
        <ele>1513.4000244140625</ele>
        <time>2026-06-20T11:47:14.000Z</time>
        <extensions>
          <ns3:TrackPointExtension>
            <ns3:atemp>24.0</ns3:atemp>
          </ns3:TrackPointExtension>
        </extensions>
      </trkpt>
      <trkpt lat="42.46370910666882991790771484375" lon="20.1958719827234745025634765625">
        <ele>1513.4000244140625</ele>
        <time>2026-06-20T11:47:15.000Z</time>
        <extensions>
          <ns3:TrackPointExtension>
            <ns3:atemp>24.0</ns3:atemp>
          </ns3:TrackPointExtension>
        </extensions>
      </trkpt>
      <trkpt lat="42.46370910666882991790771484375" lon="20.1958719827234745025634765625">
        <ele>1513.4000244140625</ele>
        <time>2026-06-20T11:47:16.000Z</time>
        <extensions>
          <ns3:TrackPointExtension>
            <ns3:atemp>24.0</ns3:atemp>
          </ns3:TrackPointExtension>
        </extensions>
      </trkpt>
      <trkpt lat="42.46370910666882991790771484375" lon="20.1958719827234745025634765625">
        <ele>1513.4000244140625</ele>
        <time>2026-06-20T11:47:17.000Z</time>
        <extensions>
          <ns3:TrackPointExtension>
            <ns3:atemp>24.0</ns3:atemp>
          </ns3:TrackPointExtension>
        </extensions>
      </trkpt>
      <trkpt lat="42.46370910666882991790771484375" lon="20.1958719827234745025634765625">
        <ele>1513.4000244140625</ele>
        <time>2026-06-20T11:47:18.000Z</time>
        <extensions>
          <ns3:TrackPointExtension>
            <ns3:atemp>24.0</ns3:atemp>
          </ns3:TrackPointExtension>
        </extensions>
      </trkpt>
      <trkpt lat="42.46370910666882991790771484375" lon="20.1958719827234745025634765625">
        <ele>1513.4000244140625</ele>
        <time>2026-06-20T11:47:19.000Z</time>
        <extensions>
          <ns3:TrackPointExtension>
            <ns3:atemp>24.0</ns3:atemp>
          </ns3:TrackPointExtension>
        </extensions>
      </trkpt>
      <trkpt lat="42.46370910666882991790771484375" lon="20.1958719827234745025634765625">
        <ele>1513.4000244140625</ele>
        <time>2026-06-20T11:47:20.000Z</time>
        <extensions>
          <ns3:TrackPointExtension>
            <ns3:atemp>24.0</ns3:atemp>
          </ns3:TrackPointExtension>
        </extensions>
      </trkpt>
      <trkpt lat="42.46370910666882991790771484375" lon="20.1958719827234745025634765625">
        <ele>1513.4000244140625</ele>
        <time>2026-06-20T11:47:21.000Z</time>
        <extensions>
          <ns3:TrackPointExtension>
            <ns3:atemp>24.0</ns3:atemp>
          </ns3:TrackPointExtension>
        </extensions>
      </trkpt>
      <trkpt lat="42.46370910666882991790771484375" lon="20.1958719827234745025634765625">
        <ele>1513.4000244140625</ele>
        <time>2026-06-20T11:47:22.000Z</time>
        <extensions>
          <ns3:TrackPointExtension>
            <ns3:atemp>24.0</ns3:atemp>
          </ns3:TrackPointExtension>
        </extensions>
      </trkpt>
      <trkpt lat="42.46370910666882991790771484375" lon="20.1958719827234745025634765625">
        <ele>1513.199951171875</ele>
        <time>2026-06-20T11:47:23.000Z</time>
        <extensions>
          <ns3:TrackPointExtension>
            <ns3:atemp>24.0</ns3:atemp>
          </ns3:TrackPointExtension>
        </extensions>
      </trkpt>
      <trkpt lat="42.46370910666882991790771484375" lon="20.1958719827234745025634765625">
        <ele>1513.199951171875</ele>
        <time>2026-06-20T11:47:24.000Z</time>
        <extensions>
          <ns3:TrackPointExtension>
            <ns3:atemp>24.0</ns3:atemp>
          </ns3:TrackPointExtension>
        </extensions>
      </trkpt>
      <trkpt lat="42.46370910666882991790771484375" lon="20.1958719827234745025634765625">
        <ele>1513.199951171875</ele>
        <time>2026-06-20T11:47:25.000Z</time>
        <extensions>
          <ns3:TrackPointExtension>
            <ns3:atemp>24.0</ns3:atemp>
          </ns3:TrackPointExtension>
        </extensions>
      </trkpt>
      <trkpt lat="42.46370910666882991790771484375" lon="20.1958719827234745025634765625">
        <ele>1513.199951171875</ele>
        <time>2026-06-20T11:47:26.000Z</time>
        <extensions>
          <ns3:TrackPointExtension>
            <ns3:atemp>24.0</ns3:atemp>
          </ns3:TrackPointExtension>
        </extensions>
      </trkpt>
      <trkpt lat="42.46370910666882991790771484375" lon="20.1958719827234745025634765625">
        <ele>1513</ele>
        <time>2026-06-20T11:47:27.000Z</time>
        <extensions>
          <ns3:TrackPointExtension>
            <ns3:atemp>24.0</ns3:atemp>
          </ns3:TrackPointExtension>
        </extensions>
      </trkpt>
      <trkpt lat="42.46370910666882991790771484375" lon="20.1958719827234745025634765625">
        <ele>1513</ele>
        <time>2026-06-20T11:47:28.000Z</time>
        <extensions>
          <ns3:TrackPointExtension>
            <ns3:atemp>24.0</ns3:atemp>
          </ns3:TrackPointExtension>
        </extensions>
      </trkpt>
      <trkpt lat="42.46370910666882991790771484375" lon="20.1958719827234745025634765625">
        <ele>1513</ele>
        <time>2026-06-20T11:47:29.000Z</time>
        <extensions>
          <ns3:TrackPointExtension>
            <ns3:atemp>24.0</ns3:atemp>
          </ns3:TrackPointExtension>
        </extensions>
      </trkpt>
      <trkpt lat="42.46370910666882991790771484375" lon="20.1958719827234745025634765625">
        <ele>1513</ele>
        <time>2026-06-20T11:47:30.000Z</time>
        <extensions>
          <ns3:TrackPointExtension>
            <ns3:atemp>24.0</ns3:atemp>
          </ns3:TrackPointExtension>
        </extensions>
      </trkpt>
      <trkpt lat="42.46370910666882991790771484375" lon="20.1958719827234745025634765625">
        <ele>1512.800048828125</ele>
        <time>2026-06-20T11:47:31.000Z</time>
        <extensions>
          <ns3:TrackPointExtension>
            <ns3:atemp>24.0</ns3:atemp>
          </ns3:TrackPointExtension>
        </extensions>
      </trkpt>
      <trkpt lat="42.46370910666882991790771484375" lon="20.1958719827234745025634765625">
        <ele>1512.800048828125</ele>
        <time>2026-06-20T11:47:32.000Z</time>
        <extensions>
          <ns3:TrackPointExtension>
            <ns3:atemp>24.0</ns3:atemp>
          </ns3:TrackPointExtension>
        </extensions>
      </trkpt>
      <trkpt lat="42.46370910666882991790771484375" lon="20.1958719827234745025634765625">
        <ele>1512.800048828125</ele>
        <time>2026-06-20T11:47:33.000Z</time>
        <extensions>
          <ns3:TrackPointExtension>
            <ns3:atemp>24.0</ns3:atemp>
          </ns3:TrackPointExtension>
        </extensions>
      </trkpt>
      <trkpt lat="42.46370910666882991790771484375" lon="20.1958719827234745025634765625">
        <ele>1512.800048828125</ele>
        <time>2026-06-20T11:47:34.000Z</time>
        <extensions>
          <ns3:TrackPointExtension>
            <ns3:atemp>24.0</ns3:atemp>
          </ns3:TrackPointExtension>
        </extensions>
      </trkpt>
      <trkpt lat="42.46370910666882991790771484375" lon="20.1958719827234745025634765625">
        <ele>1512.800048828125</ele>
        <time>2026-06-20T11:47:35.000Z</time>
        <extensions>
          <ns3:TrackPointExtension>
            <ns3:atemp>24.0</ns3:atemp>
          </ns3:TrackPointExtension>
        </extensions>
      </trkpt>
      <trkpt lat="42.46370910666882991790771484375" lon="20.1958719827234745025634765625">
        <ele>1512.800048828125</ele>
        <time>2026-06-20T11:47:36.000Z</time>
        <extensions>
          <ns3:TrackPointExtension>
            <ns3:atemp>24.0</ns3:atemp>
          </ns3:TrackPointExtension>
        </extensions>
      </trkpt>
      <trkpt lat="42.46370910666882991790771484375" lon="20.1958719827234745025634765625">
        <ele>1512.800048828125</ele>
        <time>2026-06-20T11:47:37.000Z</time>
        <extensions>
          <ns3:TrackPointExtension>
            <ns3:atemp>24.0</ns3:atemp>
          </ns3:TrackPointExtension>
        </extensions>
      </trkpt>
      <trkpt lat="42.46370910666882991790771484375" lon="20.1958719827234745025634765625">
        <ele>1512.800048828125</ele>
        <time>2026-06-20T11:47:38.000Z</time>
        <extensions>
          <ns3:TrackPointExtension>
            <ns3:atemp>24.0</ns3:atemp>
          </ns3:TrackPointExtension>
        </extensions>
      </trkpt>
      <trkpt lat="42.46370910666882991790771484375" lon="20.1958719827234745025634765625">
        <ele>1512.800048828125</ele>
        <time>2026-06-20T11:47:39.000Z</time>
        <extensions>
          <ns3:TrackPointExtension>
            <ns3:atemp>24.0</ns3:atemp>
          </ns3:TrackPointExtension>
        </extensions>
      </trkpt>
      <trkpt lat="42.46370910666882991790771484375" lon="20.1958719827234745025634765625">
        <ele>1512.800048828125</ele>
        <time>2026-06-20T11:47:40.000Z</time>
        <extensions>
          <ns3:TrackPointExtension>
            <ns3:atemp>24.0</ns3:atemp>
          </ns3:TrackPointExtension>
        </extensions>
      </trkpt>
      <trkpt lat="42.46370910666882991790771484375" lon="20.1958719827234745025634765625">
        <ele>1512.800048828125</ele>
        <time>2026-06-20T11:47:41.000Z</time>
        <extensions>
          <ns3:TrackPointExtension>
            <ns3:atemp>24.0</ns3:atemp>
          </ns3:TrackPointExtension>
        </extensions>
      </trkpt>
      <trkpt lat="42.46370910666882991790771484375" lon="20.1958719827234745025634765625">
        <ele>1512.800048828125</ele>
        <time>2026-06-20T11:47:42.000Z</time>
        <extensions>
          <ns3:TrackPointExtension>
            <ns3:atemp>24.0</ns3:atemp>
          </ns3:TrackPointExtension>
        </extensions>
      </trkpt>
      <trkpt lat="42.46370910666882991790771484375" lon="20.1958719827234745025634765625">
        <ele>1512.800048828125</ele>
        <time>2026-06-20T11:47:43.000Z</time>
        <extensions>
          <ns3:TrackPointExtension>
            <ns3:atemp>24.0</ns3:atemp>
          </ns3:TrackPointExtension>
        </extensions>
      </trkpt>
      <trkpt lat="42.46370910666882991790771484375" lon="20.1958719827234745025634765625">
        <ele>1512.800048828125</ele>
        <time>2026-06-20T11:47:44.000Z</time>
        <extensions>
          <ns3:TrackPointExtension>
            <ns3:atemp>24.0</ns3:atemp>
          </ns3:TrackPointExtension>
        </extensions>
      </trkpt>
      <trkpt lat="42.46370910666882991790771484375" lon="20.1958719827234745025634765625">
        <ele>1512.800048828125</ele>
        <time>2026-06-20T11:47:45.000Z</time>
        <extensions>
          <ns3:TrackPointExtension>
            <ns3:atemp>24.0</ns3:atemp>
          </ns3:TrackPointExtension>
        </extensions>
      </trkpt>
      <trkpt lat="42.46370910666882991790771484375" lon="20.1958719827234745025634765625">
        <ele>1512.800048828125</ele>
        <time>2026-06-20T11:47:46.000Z</time>
        <extensions>
          <ns3:TrackPointExtension>
            <ns3:atemp>24.0</ns3:atemp>
          </ns3:TrackPointExtension>
        </extensions>
      </trkpt>
      <trkpt lat="42.46370910666882991790771484375" lon="20.1958719827234745025634765625">
        <ele>1512.800048828125</ele>
        <time>2026-06-20T11:47:47.000Z</time>
        <extensions>
          <ns3:TrackPointExtension>
            <ns3:atemp>24.0</ns3:atemp>
          </ns3:TrackPointExtension>
        </extensions>
      </trkpt>
      <trkpt lat="42.46370784938335418701171875" lon="20.1958682946860790252685546875">
        <ele>1512.800048828125</ele>
        <time>2026-06-20T11:47:48.000Z</time>
        <extensions>
          <ns3:TrackPointExtension>
            <ns3:atemp>24.0</ns3:atemp>
          </ns3:TrackPointExtension>
        </extensions>
      </trkpt>
      <trkpt lat="42.46370910666882991790771484375" lon="20.1958719827234745025634765625">
        <ele>1512.5999755859375</ele>
        <time>2026-06-20T11:47:49.000Z</time>
        <extensions>
          <ns3:TrackPointExtension>
            <ns3:atemp>24.0</ns3:atemp>
          </ns3:TrackPointExtension>
        </extensions>
      </trkpt>
      <trkpt lat="42.46370910666882991790771484375" lon="20.1958719827234745025634765625">
        <ele>1512.5999755859375</ele>
        <time>2026-06-20T11:47:50.000Z</time>
        <extensions>
          <ns3:TrackPointExtension>
            <ns3:atemp>24.0</ns3:atemp>
          </ns3:TrackPointExtension>
        </extensions>
      </trkpt>
      <trkpt lat="42.46370910666882991790771484375" lon="20.1958719827234745025634765625">
        <ele>1512.5999755859375</ele>
        <time>2026-06-20T11:47:51.000Z</time>
        <extensions>
          <ns3:TrackPointExtension>
            <ns3:atemp>24.0</ns3:atemp>
          </ns3:TrackPointExtension>
        </extensions>
      </trkpt>
      <trkpt lat="42.46370910666882991790771484375" lon="20.1958719827234745025634765625">
        <ele>1512.5999755859375</ele>
        <time>2026-06-20T11:47:52.000Z</time>
        <extensions>
          <ns3:TrackPointExtension>
            <ns3:atemp>24.0</ns3:atemp>
          </ns3:TrackPointExtension>
        </extensions>
      </trkpt>
      <trkpt lat="42.4637026526033878326416015625" lon="20.195858739316463470458984375">
        <ele>1512.4000244140625</ele>
        <time>2026-06-20T11:47:53.000Z</time>
        <extensions>
          <ns3:TrackPointExtension>
            <ns3:atemp>24.0</ns3:atemp>
          </ns3:TrackPointExtension>
        </extensions>
      </trkpt>
      <trkpt lat="42.463689744472503662109375" lon="20.1958595775067806243896484375">
        <ele>1512.4000244140625</ele>
        <time>2026-06-20T11:47:54.000Z</time>
        <extensions>
          <ns3:TrackPointExtension>
            <ns3:atemp>24.0</ns3:atemp>
          </ns3:TrackPointExtension>
        </extensions>
      </trkpt>
      <trkpt lat="42.4636651016771793365478515625" lon="20.19587575457990169525146484375">
        <ele>1512.199951171875</ele>
        <time>2026-06-20T11:47:55.000Z</time>
        <extensions>
          <ns3:TrackPointExtension>
            <ns3:atemp>24.0</ns3:atemp>
          </ns3:TrackPointExtension>
        </extensions>
      </trkpt>
      <trkpt lat="42.46362813748419284820556640625" lon="20.19589922390878200531005859375">
        <ele>1511.800048828125</ele>
        <time>2026-06-20T11:47:56.000Z</time>
        <extensions>
          <ns3:TrackPointExtension>
            <ns3:atemp>24.0</ns3:atemp>
          </ns3:TrackPointExtension>
        </extensions>
      </trkpt>
      <trkpt lat="42.46358471922576427459716796875" lon="20.19593006931245326995849609375">
        <ele>1511</ele>
        <time>2026-06-20T11:47:57.000Z</time>
        <extensions>
          <ns3:TrackPointExtension>
            <ns3:atemp>24.0</ns3:atemp>
          </ns3:TrackPointExtension>
        </extensions>
      </trkpt>
      <trkpt lat="42.46353811584413051605224609375" lon="20.19596292637288570404052734375">
        <ele>1510.199951171875</ele>
        <time>2026-06-20T11:47:58.000Z</time>
        <extensions>
          <ns3:TrackPointExtension>
            <ns3:atemp>24.0</ns3:atemp>
          </ns3:TrackPointExtension>
        </extensions>
      </trkpt>
      <trkpt lat="42.4634910933673381805419921875" lon="20.19599829800426959991455078125">
        <ele>1509.5999755859375</ele>
        <time>2026-06-20T11:47:59.000Z</time>
        <extensions>
          <ns3:TrackPointExtension>
            <ns3:atemp>25.0</ns3:atemp>
          </ns3:TrackPointExtension>
        </extensions>
      </trkpt>
      <trkpt lat="42.463444657623767852783203125" lon="20.1960355974733829498291015625">
        <ele>1508.800048828125</ele>
        <time>2026-06-20T11:48:00.000Z</time>
        <extensions>
          <ns3:TrackPointExtension>
            <ns3:atemp>25.0</ns3:atemp>
          </ns3:TrackPointExtension>
        </extensions>
      </trkpt>
      <trkpt lat="42.46340115554630756378173828125" lon="20.19607407040894031524658203125">
        <ele>1508.199951171875</ele>
        <time>2026-06-20T11:48:01.000Z</time>
        <extensions>
          <ns3:TrackPointExtension>
            <ns3:atemp>25.0</ns3:atemp>
          </ns3:TrackPointExtension>
        </extensions>
      </trkpt>
      <trkpt lat="42.4633559770882129669189453125" lon="20.19610508345067501068115234375">
        <ele>1507.4000244140625</ele>
        <time>2026-06-20T11:48:02.000Z</time>
        <extensions>
          <ns3:TrackPointExtension>
            <ns3:atemp>25.0</ns3:atemp>
          </ns3:TrackPointExtension>
        </extensions>
      </trkpt>
      <trkpt lat="42.46330308727920055389404296875" lon="20.1961324922740459442138671875">
        <ele>1506.5999755859375</ele>
        <time>2026-06-20T11:48:03.000Z</time>
        <extensions>
          <ns3:TrackPointExtension>
            <ns3:atemp>25.0</ns3:atemp>
          </ns3:TrackPointExtension>
        </extensions>
      </trkpt>
      <trkpt lat="42.463244162499904632568359375" lon="20.1961656846106052398681640625">
        <ele>1505.5999755859375</ele>
        <time>2026-06-20T11:48:04.000Z</time>
        <extensions>
          <ns3:TrackPointExtension>
            <ns3:atemp>25.0</ns3:atemp>
          </ns3:TrackPointExtension>
        </extensions>
      </trkpt>
      <trkpt lat="42.46318213641643524169921875" lon="20.1961995474994182586669921875">
        <ele>1504.800048828125</ele>
        <time>2026-06-20T11:48:05.000Z</time>
        <extensions>
          <ns3:TrackPointExtension>
            <ns3:atemp>25.0</ns3:atemp>
          </ns3:TrackPointExtension>
        </extensions>
      </trkpt>
      <trkpt lat="42.463126815855503082275390625" lon="20.1962340809404850006103515625">
        <ele>1504</ele>
        <time>2026-06-20T11:48:06.000Z</time>
        <extensions>
          <ns3:TrackPointExtension>
            <ns3:atemp>25.0</ns3:atemp>
          </ns3:TrackPointExtension>
        </extensions>
      </trkpt>
      <trkpt lat="42.46307929046452045440673828125" lon="20.196267776191234588623046875">
        <ele>1503.199951171875</ele>
        <time>2026-06-20T11:48:07.000Z</time>
        <extensions>
          <ns3:TrackPointExtension>
            <ns3:atemp>25.0</ns3:atemp>
          </ns3:TrackPointExtension>
        </extensions>
      </trkpt>
      <trkpt lat="42.46302983723580837249755859375" lon="20.19629602320492267608642578125">
        <ele>1502.5999755859375</ele>
        <time>2026-06-20T11:48:08.000Z</time>
        <extensions>
          <ns3:TrackPointExtension>
            <ns3:atemp>25.0</ns3:atemp>
          </ns3:TrackPointExtension>
        </extensions>
      </trkpt>
      <trkpt lat="42.462984658777713775634765625" lon="20.1963235996663570404052734375">
        <ele>1501.800048828125</ele>
        <time>2026-06-20T11:48:09.000Z</time>
        <extensions>
          <ns3:TrackPointExtension>
            <ns3:atemp>25.0</ns3:atemp>
          </ns3:TrackPointExtension>
        </extensions>
      </trkpt>
      <trkpt lat="42.46293780393898487091064453125" lon="20.19635084085166454315185546875">
        <ele>1501.199951171875</ele>
        <time>2026-06-20T11:48:10.000Z</time>
        <extensions>
          <ns3:TrackPointExtension>
            <ns3:atemp>25.0</ns3:atemp>
          </ns3:TrackPointExtension>
        </extensions>
      </trkpt>
      <trkpt lat="42.462890781462192535400390625" lon="20.19637498073279857635498046875">
        <ele>1500.4000244140625</ele>
        <time>2026-06-20T11:48:11.000Z</time>
        <extensions>
          <ns3:TrackPointExtension>
            <ns3:atemp>25.0</ns3:atemp>
          </ns3:TrackPointExtension>
        </extensions>
      </trkpt>
      <trkpt lat="42.46284459717571735382080078125" lon="20.19639761187136173248291015625">
        <ele>1499.4000244140625</ele>
        <time>2026-06-20T11:48:12.000Z</time>
        <extensions>
          <ns3:TrackPointExtension>
            <ns3:atemp>25.0</ns3:atemp>
          </ns3:TrackPointExtension>
        </extensions>
      </trkpt>
      <trkpt lat="42.462799251079559326171875" lon="20.19642091356217861175537109375">
        <ele>1498.800048828125</ele>
        <time>2026-06-20T11:48:13.000Z</time>
        <extensions>
          <ns3:TrackPointExtension>
            <ns3:atemp>25.0</ns3:atemp>
          </ns3:TrackPointExtension>
        </extensions>
      </trkpt>
      <trkpt lat="42.46275792829692363739013671875" lon="20.196432061493396759033203125">
        <ele>1497.800048828125</ele>
        <time>2026-06-20T11:48:14.000Z</time>
        <extensions>
          <ns3:TrackPointExtension>
            <ns3:atemp>25.0</ns3:atemp>
          </ns3:TrackPointExtension>
        </extensions>
      </trkpt>
      <trkpt lat="42.46272481977939605712890625" lon="20.19644153304398059844970703125">
        <ele>1496.800048828125</ele>
        <time>2026-06-20T11:48:15.000Z</time>
        <extensions>
          <ns3:TrackPointExtension>
            <ns3:atemp>25.0</ns3:atemp>
          </ns3:TrackPointExtension>
        </extensions>
      </trkpt>
      <trkpt lat="42.4626921303570270538330078125" lon="20.19644438289105892181396484375">
        <ele>1495.800048828125</ele>
        <time>2026-06-20T11:48:16.000Z</time>
        <extensions>
          <ns3:TrackPointExtension>
            <ns3:atemp>25.0</ns3:atemp>
          </ns3:TrackPointExtension>
        </extensions>
      </trkpt>
      <trkpt lat="42.4626619555056095123291015625" lon="20.19645117223262786865234375">
        <ele>1494.5999755859375</ele>
        <time>2026-06-20T11:48:17.000Z</time>
        <extensions>
          <ns3:TrackPointExtension>
            <ns3:atemp>25.0</ns3:atemp>
          </ns3:TrackPointExtension>
        </extensions>
      </trkpt>
      <trkpt lat="42.46262549422681331634521484375" lon="20.1964520104229450225830078125">
        <ele>1494</ele>
        <time>2026-06-20T11:48:18.000Z</time>
        <extensions>
          <ns3:TrackPointExtension>
            <ns3:atemp>25.0</ns3:atemp>
          </ns3:TrackPointExtension>
        </extensions>
      </trkpt>
      <trkpt lat="42.46258341707289218902587890625" lon="20.1964603923261165618896484375">
        <ele>1493.199951171875</ele>
        <time>2026-06-20T11:48:19.000Z</time>
        <extensions>
          <ns3:TrackPointExtension>
            <ns3:atemp>25.0</ns3:atemp>
          </ns3:TrackPointExtension>
        </extensions>
      </trkpt>
      <trkpt lat="42.4625402502715587615966796875" lon="20.19647003151476383209228515625">
        <ele>1492.4000244140625</ele>
        <time>2026-06-20T11:48:20.000Z</time>
        <extensions>
          <ns3:TrackPointExtension>
            <ns3:atemp>25.0</ns3:atemp>
          </ns3:TrackPointExtension>
        </extensions>
      </trkpt>
      <trkpt lat="42.462493814527988433837890625" lon="20.19646860659122467041015625">
        <ele>1491.5999755859375</ele>
        <time>2026-06-20T11:48:21.000Z</time>
        <extensions>
          <ns3:TrackPointExtension>
            <ns3:atemp>25.0</ns3:atemp>
          </ns3:TrackPointExtension>
        </extensions>
      </trkpt>
      <trkpt lat="42.46244511567056179046630859375" lon="20.19646366126835346221923828125">
        <ele>1490.800048828125</ele>
        <time>2026-06-20T11:48:22.000Z</time>
        <extensions>
          <ns3:TrackPointExtension>
            <ns3:atemp>25.0</ns3:atemp>
          </ns3:TrackPointExtension>
        </extensions>
      </trkpt>
      <trkpt lat="42.4623977579176425933837890625" lon="20.1964473165571689605712890625">
        <ele>1490</ele>
        <time>2026-06-20T11:48:23.000Z</time>
        <extensions>
          <ns3:TrackPointExtension>
            <ns3:atemp>25.0</ns3:atemp>
          </ns3:TrackPointExtension>
        </extensions>
      </trkpt>
      <trkpt lat="42.4623545072972774505615234375" lon="20.1964238472282886505126953125">
        <ele>1489.199951171875</ele>
        <time>2026-06-20T11:48:24.000Z</time>
        <extensions>
          <ns3:TrackPointExtension>
            <ns3:atemp>25.0</ns3:atemp>
          </ns3:TrackPointExtension>
        </extensions>
      </trkpt>
      <trkpt lat="42.46231016702950000762939453125" lon="20.19639962352812290191650390625">
        <ele>1488.5999755859375</ele>
        <time>2026-06-20T11:48:25.000Z</time>
        <extensions>
          <ns3:TrackPointExtension>
            <ns3:atemp>25.0</ns3:atemp>
          </ns3:TrackPointExtension>
        </extensions>
      </trkpt>
      <trkpt lat="42.4622616358101367950439453125" lon="20.1963700354099273681640625">
        <ele>1487.800048828125</ele>
        <time>2026-06-20T11:48:26.000Z</time>
        <extensions>
          <ns3:TrackPointExtension>
            <ns3:atemp>25.0</ns3:atemp>
          </ns3:TrackPointExtension>
        </extensions>
      </trkpt>
      <trkpt lat="42.46220757253468036651611328125" lon="20.196347571909427642822265625">
        <ele>1486.800048828125</ele>
        <time>2026-06-20T11:48:27.000Z</time>
        <extensions>
          <ns3:TrackPointExtension>
            <ns3:atemp>25.0</ns3:atemp>
          </ns3:TrackPointExtension>
        </extensions>
      </trkpt>
      <trkpt lat="42.46214940212666988372802734375" lon="20.19632318057119846343994140625">
        <ele>1485.800048828125</ele>
        <time>2026-06-20T11:48:28.000Z</time>
        <extensions>
          <ns3:TrackPointExtension>
            <ns3:atemp>25.0</ns3:atemp>
          </ns3:TrackPointExtension>
        </extensions>
      </trkpt>
      <trkpt lat="42.46209089644253253936767578125" lon="20.19629702903330326080322265625">
        <ele>1484.800048828125</ele>
        <time>2026-06-20T11:48:29.000Z</time>
        <extensions>
          <ns3:TrackPointExtension>
            <ns3:atemp>25.0</ns3:atemp>
          </ns3:TrackPointExtension>
        </extensions>
      </trkpt>
      <trkpt lat="42.46203138493001461029052734375" lon="20.19627138040959835052490234375">
        <ele>1483.5999755859375</ele>
        <time>2026-06-20T11:48:30.000Z</time>
        <extensions>
          <ns3:TrackPointExtension>
            <ns3:atemp>25.0</ns3:atemp>
          </ns3:TrackPointExtension>
        </extensions>
      </trkpt>
      <trkpt lat="42.46198042295873165130615234375" lon="20.19625210203230381011962890625">
        <ele>1482.5999755859375</ele>
        <time>2026-06-20T11:48:31.000Z</time>
        <extensions>
          <ns3:TrackPointExtension>
            <ns3:atemp>25.0</ns3:atemp>
          </ns3:TrackPointExtension>
        </extensions>
      </trkpt>
      <trkpt lat="42.4619401060044765472412109375" lon="20.19623793661594390869140625">
        <ele>1481.199951171875</ele>
        <time>2026-06-20T11:48:32.000Z</time>
        <extensions>
          <ns3:TrackPointExtension>
            <ns3:atemp>25.0</ns3:atemp>
          </ns3:TrackPointExtension>
        </extensions>
      </trkpt>
      <trkpt lat="42.461901046335697174072265625" lon="20.1962246932089328765869140625">
        <ele>1480.4000244140625</ele>
        <time>2026-06-20T11:48:33.000Z</time>
        <extensions>
          <ns3:TrackPointExtension>
            <ns3:atemp>25.0</ns3:atemp>
          </ns3:TrackPointExtension>
        </extensions>
      </trkpt>
      <trkpt lat="42.46185586787760257720947265625" lon="20.1962065882980823516845703125">
        <ele>1479.4000244140625</ele>
        <time>2026-06-20T11:48:34.000Z</time>
        <extensions>
          <ns3:TrackPointExtension>
            <ns3:atemp>25.0</ns3:atemp>
          </ns3:TrackPointExtension>
        </extensions>
      </trkpt>
      <trkpt lat="42.4618002958595752716064453125" lon="20.19618554972112178802490234375">
        <ele>1478.4000244140625</ele>
        <time>2026-06-20T11:48:35.000Z</time>
        <extensions>
          <ns3:TrackPointExtension>
            <ns3:atemp>25.0</ns3:atemp>
          </ns3:TrackPointExtension>
        </extensions>
      </trkpt>
      <trkpt lat="42.46173508465290069580078125" lon="20.196178592741489410400390625">
        <ele>1477.4000244140625</ele>
        <time>2026-06-20T11:48:36.000Z</time>
        <extensions>
          <ns3:TrackPointExtension>
            <ns3:atemp>25.0</ns3:atemp>
          </ns3:TrackPointExtension>
        </extensions>
      </trkpt>
      <trkpt lat="42.46166241355240345001220703125" lon="20.1961904950439929962158203125">
        <ele>1475.800048828125</ele>
        <time>2026-06-20T11:48:37.000Z</time>
        <extensions>
          <ns3:TrackPointExtension>
            <ns3:atemp>25.0</ns3:atemp>
          </ns3:TrackPointExtension>
        </extensions>
      </trkpt>
      <trkpt lat="42.4615850485861301422119140625" lon="20.19619502127170562744140625">
        <ele>1475.199951171875</ele>
        <time>2026-06-20T11:48:38.000Z</time>
        <extensions>
          <ns3:TrackPointExtension>
            <ns3:atemp>25.0</ns3:atemp>
          </ns3:TrackPointExtension>
        </extensions>
      </trkpt>
      <trkpt lat="42.46151489205658435821533203125" lon="20.19619024358689785003662109375">
        <ele>1474.199951171875</ele>
        <time>2026-06-20T11:48:39.000Z</time>
        <extensions>
          <ns3:TrackPointExtension>
            <ns3:atemp>25.0</ns3:atemp>
          </ns3:TrackPointExtension>
        </extensions>
      </trkpt>
      <trkpt lat="42.46145236305892467498779296875" lon="20.19616828300058841705322265625">
        <ele>1473.199951171875</ele>
        <time>2026-06-20T11:48:40.000Z</time>
        <extensions>
          <ns3:TrackPointExtension>
            <ns3:atemp>25.0</ns3:atemp>
          </ns3:TrackPointExtension>
        </extensions>
      </trkpt>
      <trkpt lat="42.46138899587094783782958984375" lon="20.1961351744830608367919921875">
        <ele>1472.4000244140625</ele>
        <time>2026-06-20T11:48:41.000Z</time>
        <extensions>
          <ns3:TrackPointExtension>
            <ns3:atemp>25.0</ns3:atemp>
          </ns3:TrackPointExtension>
        </extensions>
      </trkpt>
      <trkpt lat="42.461321353912353515625" lon="20.19609955139458179473876953125">
        <ele>1471.199951171875</ele>
        <time>2026-06-20T11:48:42.000Z</time>
        <extensions>
          <ns3:TrackPointExtension>
            <ns3:atemp>25.0</ns3:atemp>
          </ns3:TrackPointExtension>
        </extensions>
      </trkpt>
      <trkpt lat="42.46125639416277408599853515625" lon="20.19605479203164577484130859375">
        <ele>1470.4000244140625</ele>
        <time>2026-06-20T11:48:43.000Z</time>
        <extensions>
          <ns3:TrackPointExtension>
            <ns3:atemp>25.0</ns3:atemp>
          </ns3:TrackPointExtension>
        </extensions>
      </trkpt>
      <trkpt lat="42.46118657290935516357421875" lon="20.196013636887073516845703125">
        <ele>1469.800048828125</ele>
        <time>2026-06-20T11:48:44.000Z</time>
        <extensions>
          <ns3:TrackPointExtension>
            <ns3:atemp>25.0</ns3:atemp>
          </ns3:TrackPointExtension>
        </extensions>
      </trkpt>
      <trkpt lat="42.46111960150301456451416015625" lon="20.195972062647342681884765625">
        <ele>1468.800048828125</ele>
        <time>2026-06-20T11:48:45.000Z</time>
        <extensions>
          <ns3:TrackPointExtension>
            <ns3:atemp>25.0</ns3:atemp>
          </ns3:TrackPointExtension>
        </extensions>
      </trkpt>
      <trkpt lat="42.46105003170669078826904296875" lon="20.19593794830143451690673828125">
        <ele>1468</ele>
        <time>2026-06-20T11:48:46.000Z</time>
        <extensions>
          <ns3:TrackPointExtension>
            <ns3:atemp>25.0</ns3:atemp>
          </ns3:TrackPointExtension>
        </extensions>
      </trkpt>
      <trkpt lat="42.46098498813807964324951171875" lon="20.19590274430811405181884765625">
        <ele>1467</ele>
        <time>2026-06-20T11:48:47.000Z</time>
        <extensions>
          <ns3:TrackPointExtension>
            <ns3:atemp>25.0</ns3:atemp>
          </ns3:TrackPointExtension>
        </extensions>
      </trkpt>
      <trkpt lat="42.46092296205461025238037109375" lon="20.19587256945669651031494140625">
        <ele>1466.199951171875</ele>
        <time>2026-06-20T11:48:48.000Z</time>
        <extensions>
          <ns3:TrackPointExtension>
            <ns3:atemp>25.0</ns3:atemp>
          </ns3:TrackPointExtension>
        </extensions>
      </trkpt>
      <trkpt lat="42.46085691265761852264404296875" lon="20.19584356807172298431396484375">
        <ele>1465.4000244140625</ele>
        <time>2026-06-20T11:48:49.000Z</time>
        <extensions>
          <ns3:TrackPointExtension>
            <ns3:atemp>25.0</ns3:atemp>
          </ns3:TrackPointExtension>
        </extensions>
      </trkpt>
      <trkpt lat="42.460783906280994415283203125" lon="20.1958139799535274505615234375">
        <ele>1464.199951171875</ele>
        <time>2026-06-20T11:48:50.000Z</time>
        <extensions>
          <ns3:TrackPointExtension>
            <ns3:atemp>25.0</ns3:atemp>
          </ns3:TrackPointExtension>
        </extensions>
      </trkpt>
      <trkpt lat="42.46070670895278453826904296875" lon="20.19578020088374614715576171875">
        <ele>1463</ele>
        <time>2026-06-20T11:48:51.000Z</time>
        <extensions>
          <ns3:TrackPointExtension>
            <ns3:atemp>25.0</ns3:atemp>
          </ns3:TrackPointExtension>
        </extensions>
      </trkpt>
      <trkpt lat="42.46062456630170345306396484375" lon="20.19575153477489948272705078125">
        <ele>1461.5999755859375</ele>
        <time>2026-06-20T11:48:52.000Z</time>
        <extensions>
          <ns3:TrackPointExtension>
            <ns3:atemp>25.0</ns3:atemp>
          </ns3:TrackPointExtension>
        </extensions>
      </trkpt>
      <trkpt lat="42.46054493822157382965087890625" lon="20.1957144029438495635986328125">
        <ele>1460</ele>
        <time>2026-06-20T11:48:53.000Z</time>
        <extensions>
          <ns3:TrackPointExtension>
            <ns3:atemp>25.0</ns3:atemp>
          </ns3:TrackPointExtension>
        </extensions>
      </trkpt>
      <trkpt lat="42.46047285385429859161376953125" lon="20.19569344818592071533203125">
        <ele>1459.199951171875</ele>
        <time>2026-06-20T11:48:54.000Z</time>
        <extensions>
          <ns3:TrackPointExtension>
            <ns3:atemp>25.0</ns3:atemp>
          </ns3:TrackPointExtension>
        </extensions>
      </trkpt>
      <trkpt lat="42.460409738123416900634765625" lon="20.1956610940396785736083984375">
        <ele>1458</ele>
        <time>2026-06-20T11:48:55.000Z</time>
        <extensions>
          <ns3:TrackPointExtension>
            <ns3:atemp>25.0</ns3:atemp>
          </ns3:TrackPointExtension>
        </extensions>
      </trkpt>
      <trkpt lat="42.46035349555313587188720703125" lon="20.1956185139715671539306640625">
        <ele>1456.800048828125</ele>
        <time>2026-06-20T11:48:56.000Z</time>
        <extensions>
          <ns3:TrackPointExtension>
            <ns3:atemp>25.0</ns3:atemp>
          </ns3:TrackPointExtension>
        </extensions>
      </trkpt>
      <trkpt lat="42.4603069759905338287353515625" lon="20.19557417370378971099853515625">
        <ele>1455.5999755859375</ele>
        <time>2026-06-20T11:48:57.000Z</time>
        <extensions>
          <ns3:TrackPointExtension>
            <ns3:atemp>25.0</ns3:atemp>
          </ns3:TrackPointExtension>
        </extensions>
      </trkpt>
      <trkpt lat="42.460262887179851531982421875" lon="20.19552773796021938323974609375">
        <ele>1454.5999755859375</ele>
        <time>2026-06-20T11:48:58.000Z</time>
        <extensions>
          <ns3:TrackPointExtension>
            <ns3:atemp>25.0</ns3:atemp>
          </ns3:TrackPointExtension>
        </extensions>
      </trkpt>
      <trkpt lat="42.4602234922349452972412109375" lon="20.1954699866473674774169921875">
        <ele>1453.4000244140625</ele>
        <time>2026-06-20T11:48:59.000Z</time>
        <extensions>
          <ns3:TrackPointExtension>
            <ns3:atemp>25.0</ns3:atemp>
          </ns3:TrackPointExtension>
        </extensions>
      </trkpt>
      <trkpt lat="42.460180409252643585205078125" lon="20.19541407935321331024169921875">
        <ele>1452.199951171875</ele>
        <time>2026-06-20T11:49:00.000Z</time>
        <extensions>
          <ns3:TrackPointExtension>
            <ns3:atemp>25.0</ns3:atemp>
          </ns3:TrackPointExtension>
        </extensions>
      </trkpt>
      <trkpt lat="42.46012969873845577239990234375" lon="20.1953838206827640533447265625">
        <ele>1451</ele>
        <time>2026-06-20T11:49:01.000Z</time>
        <extensions>
          <ns3:TrackPointExtension>
            <ns3:atemp>25.0</ns3:atemp>
          </ns3:TrackPointExtension>
        </extensions>
      </trkpt>
      <trkpt lat="42.4600830115377902984619140625" lon="20.1953472755849361419677734375">
        <ele>1449.800048828125</ele>
        <time>2026-06-20T11:49:02.000Z</time>
        <extensions>
          <ns3:TrackPointExtension>
            <ns3:atemp>25.0</ns3:atemp>
          </ns3:TrackPointExtension>
        </extensions>
      </trkpt>
      <trkpt lat="42.46003733016550540924072265625" lon="20.19530310295522212982177734375">
        <ele>1448.4000244140625</ele>
        <time>2026-06-20T11:49:03.000Z</time>
        <extensions>
          <ns3:TrackPointExtension>
            <ns3:atemp>25.0</ns3:atemp>
          </ns3:TrackPointExtension>
        </extensions>
      </trkpt>
      <trkpt lat="42.4599918164312839508056640625" lon="20.1952681504189968109130859375">
        <ele>1447.4000244140625</ele>
        <time>2026-06-20T11:49:04.000Z</time>
        <extensions>
          <ns3:TrackPointExtension>
            <ns3:atemp>25.0</ns3:atemp>
          </ns3:TrackPointExtension>
        </extensions>
      </trkpt>
      <trkpt lat="42.45994429104030132293701171875" lon="20.19523135386407375335693359375">
        <ele>1446.199951171875</ele>
        <time>2026-06-20T11:49:05.000Z</time>
        <extensions>
          <ns3:TrackPointExtension>
            <ns3:atemp>25.0</ns3:atemp>
          </ns3:TrackPointExtension>
        </extensions>
      </trkpt>
      <trkpt lat="42.45989534072577953338623046875" lon="20.19519262947142124176025390625">
        <ele>1444.800048828125</ele>
        <time>2026-06-20T11:49:06.000Z</time>
        <extensions>
          <ns3:TrackPointExtension>
            <ns3:atemp>25.0</ns3:atemp>
          </ns3:TrackPointExtension>
        </extensions>
      </trkpt>
      <trkpt lat="42.4598503299057483673095703125" lon="20.19514468498528003692626953125">
        <ele>1443.800048828125</ele>
        <time>2026-06-20T11:49:07.000Z</time>
        <extensions>
          <ns3:TrackPointExtension>
            <ns3:atemp>25.0</ns3:atemp>
          </ns3:TrackPointExtension>
        </extensions>
      </trkpt>
      <trkpt lat="42.4598067440092563629150390625" lon="20.1950954832136631011962890625">
        <ele>1442.5999755859375</ele>
        <time>2026-06-20T11:49:08.000Z</time>
        <extensions>
          <ns3:TrackPointExtension>
            <ns3:atemp>25.0</ns3:atemp>
          </ns3:TrackPointExtension>
        </extensions>
      </trkpt>
      <trkpt lat="42.45976030826568603515625" lon="20.19504376687109470367431640625">
        <ele>1441.199951171875</ele>
        <time>2026-06-20T11:49:09.000Z</time>
        <extensions>
          <ns3:TrackPointExtension>
            <ns3:atemp>25.0</ns3:atemp>
          </ns3:TrackPointExtension>
        </extensions>
      </trkpt>
      <trkpt lat="42.4597212485969066619873046875" lon="20.194993726909160614013671875">
        <ele>1439.800048828125</ele>
        <time>2026-06-20T11:49:10.000Z</time>
        <extensions>
          <ns3:TrackPointExtension>
            <ns3:atemp>25.0</ns3:atemp>
          </ns3:TrackPointExtension>
        </extensions>
      </trkpt>
      <trkpt lat="42.459682188928127288818359375" lon="20.19493513740599155426025390625">
        <ele>1438.199951171875</ele>
        <time>2026-06-20T11:49:11.000Z</time>
        <extensions>
          <ns3:TrackPointExtension>
            <ns3:atemp>25.0</ns3:atemp>
          </ns3:TrackPointExtension>
        </extensions>
      </trkpt>
      <trkpt lat="42.459642626345157623291015625" lon="20.19487562589347362518310546875">
        <ele>1437.4000244140625</ele>
        <time>2026-06-20T11:49:12.000Z</time>
        <extensions>
          <ns3:TrackPointExtension>
            <ns3:atemp>25.0</ns3:atemp>
          </ns3:TrackPointExtension>
        </extensions>
      </trkpt>
      <trkpt lat="42.4595931731164455413818359375" lon="20.1948319561779499053955078125">
        <ele>1436.4000244140625</ele>
        <time>2026-06-20T11:49:13.000Z</time>
        <extensions>
          <ns3:TrackPointExtension>
            <ns3:atemp>25.0</ns3:atemp>
          </ns3:TrackPointExtension>
        </extensions>
      </trkpt>
      <trkpt lat="42.45954011566936969757080078125" lon="20.19481628201901912689208984375">
        <ele>1435.4000244140625</ele>
        <time>2026-06-20T11:49:14.000Z</time>
        <extensions>
          <ns3:TrackPointExtension>
            <ns3:atemp>25.0</ns3:atemp>
          </ns3:TrackPointExtension>
        </extensions>
      </trkpt>
      <trkpt lat="42.45948747731745243072509765625" lon="20.19481611438095569610595703125">
        <ele>1434.4000244140625</ele>
        <time>2026-06-20T11:49:15.000Z</time>
        <extensions>
          <ns3:TrackPointExtension>
            <ns3:atemp>25.0</ns3:atemp>
          </ns3:TrackPointExtension>
        </extensions>
      </trkpt>
      <trkpt lat="42.4594396166503429412841796875" lon="20.19482298754155635833740234375">
        <ele>1433.199951171875</ele>
        <time>2026-06-20T11:49:16.000Z</time>
        <extensions>
          <ns3:TrackPointExtension>
            <ns3:atemp>25.0</ns3:atemp>
          </ns3:TrackPointExtension>
        </extensions>
      </trkpt>
      <trkpt lat="42.45939175598323345184326171875" lon="20.19482298754155635833740234375">
        <ele>1432.199951171875</ele>
        <time>2026-06-20T11:49:17.000Z</time>
        <extensions>
          <ns3:TrackPointExtension>
            <ns3:atemp>25.0</ns3:atemp>
          </ns3:TrackPointExtension>
        </extensions>
      </trkpt>
      <trkpt lat="42.45934884063899517059326171875" lon="20.1948115043342113494873046875">
        <ele>1431.4000244140625</ele>
        <time>2026-06-20T11:49:18.000Z</time>
        <extensions>
          <ns3:TrackPointExtension>
            <ns3:atemp>25.0</ns3:atemp>
          </ns3:TrackPointExtension>
        </extensions>
      </trkpt>
      <trkpt lat="42.45930894277989864349365234375" lon="20.194811336696147918701171875">
        <ele>1430.5999755859375</ele>
        <time>2026-06-20T11:49:19.000Z</time>
        <extensions>
          <ns3:TrackPointExtension>
            <ns3:atemp>25.0</ns3:atemp>
          </ns3:TrackPointExtension>
        </extensions>
      </trkpt>
      <trkpt lat="42.459272481501102447509765625" lon="20.1948078162968158721923828125">
        <ele>1429.800048828125</ele>
        <time>2026-06-20T11:49:20.000Z</time>
        <extensions>
          <ns3:TrackPointExtension>
            <ns3:atemp>25.0</ns3:atemp>
          </ns3:TrackPointExtension>
        </extensions>
      </trkpt>
      <trkpt lat="42.4592407979071140289306640625" lon="20.1948138512670993804931640625">
        <ele>1429</ele>
        <time>2026-06-20T11:49:21.000Z</time>
        <extensions>
          <ns3:TrackPointExtension>
            <ns3:atemp>25.0</ns3:atemp>
          </ns3:TrackPointExtension>
        </extensions>
      </trkpt>
      <trkpt lat="42.459216825664043426513671875" lon="20.19481661729514598846435546875">
        <ele>1428.4000244140625</ele>
        <time>2026-06-20T11:49:22.000Z</time>
        <extensions>
          <ns3:TrackPointExtension>
            <ns3:atemp>25.0</ns3:atemp>
          </ns3:TrackPointExtension>
        </extensions>
      </trkpt>
      <trkpt lat="42.45919377543032169342041015625" lon="20.19482164643704891204833984375">
        <ele>1427.800048828125</ele>
        <time>2026-06-20T11:49:23.000Z</time>
        <extensions>
          <ns3:TrackPointExtension>
            <ns3:atemp>25.0</ns3:atemp>
          </ns3:TrackPointExtension>
        </extensions>
      </trkpt>
      <trkpt lat="42.4591794423758983612060546875" lon="20.19482038915157318115234375">
        <ele>1427.199951171875</ele>
        <time>2026-06-20T11:49:24.000Z</time>
        <extensions>
          <ns3:TrackPointExtension>
            <ns3:atemp>25.0</ns3:atemp>
          </ns3:TrackPointExtension>
        </extensions>
      </trkpt>
      <trkpt lat="42.45916091836988925933837890625" lon="20.1948215626180171966552734375">
        <ele>1426.4000244140625</ele>
        <time>2026-06-20T11:49:25.000Z</time>
        <extensions>
          <ns3:TrackPointExtension>
            <ns3:atemp>25.0</ns3:atemp>
          </ns3:TrackPointExtension>
        </extensions>
      </trkpt>
      <trkpt lat="42.459139041602611541748046875" lon="20.1948259212076663970947265625">
        <ele>1425.4000244140625</ele>
        <time>2026-06-20T11:49:26.000Z</time>
        <extensions>
          <ns3:TrackPointExtension>
            <ns3:atemp>25.0</ns3:atemp>
          </ns3:TrackPointExtension>
        </extensions>
      </trkpt>
      <trkpt lat="42.4591133929789066314697265625" lon="20.1948344707489013671875">
        <ele>1424.4000244140625</ele>
        <time>2026-06-20T11:49:27.000Z</time>
        <extensions>
          <ns3:TrackPointExtension>
            <ns3:atemp>25.0</ns3:atemp>
          </ns3:TrackPointExtension>
        </extensions>
      </trkpt>
      <trkpt lat="42.45909042656421661376953125" lon="20.1948430202901363372802734375">
        <ele>1423.800048828125</ele>
        <time>2026-06-20T11:49:28.000Z</time>
        <extensions>
          <ns3:TrackPointExtension>
            <ns3:atemp>25.0</ns3:atemp>
          </ns3:TrackPointExtension>
        </extensions>
      </trkpt>
      <trkpt lat="42.45906829833984375" lon="20.1948453672230243682861328125">
        <ele>1423</ele>
        <time>2026-06-20T11:49:29.000Z</time>
        <extensions>
          <ns3:TrackPointExtension>
            <ns3:atemp>25.0</ns3:atemp>
          </ns3:TrackPointExtension>
        </extensions>
      </trkpt>
      <trkpt lat="42.459052540361881256103515625" lon="20.19483069889247417449951171875">
        <ele>1422.4000244140625</ele>
        <time>2026-06-20T11:49:30.000Z</time>
        <extensions>
          <ns3:TrackPointExtension>
            <ns3:atemp>25.0</ns3:atemp>
          </ns3:TrackPointExtension>
        </extensions>
      </trkpt>
      <trkpt lat="42.45904122479259967803955078125" lon="20.19481946714222431182861328125">
        <ele>1421.800048828125</ele>
        <time>2026-06-20T11:49:31.000Z</time>
        <extensions>
          <ns3:TrackPointExtension>
            <ns3:atemp>25.0</ns3:atemp>
          </ns3:TrackPointExtension>
        </extensions>
      </trkpt>
      <trkpt lat="42.45904206298291683197021484375" lon="20.1948222331702709197998046875">
        <ele>1421.4000244140625</ele>
        <time>2026-06-20T11:49:32.000Z</time>
        <extensions>
          <ns3:TrackPointExtension>
            <ns3:atemp>25.0</ns3:atemp>
          </ns3:TrackPointExtension>
        </extensions>
      </trkpt>
      <trkpt lat="42.4590419791638851165771484375" lon="20.1948222331702709197998046875">
        <ele>1421</ele>
        <time>2026-06-20T11:49:33.000Z</time>
        <extensions>
          <ns3:TrackPointExtension>
            <ns3:atemp>25.0</ns3:atemp>
          </ns3:TrackPointExtension>
        </extensions>
      </trkpt>
      <trkpt lat="42.4590419791638851165771484375" lon="20.1948222331702709197998046875">
        <ele>1420.5999755859375</ele>
        <time>2026-06-20T11:49:34.000Z</time>
        <extensions>
          <ns3:TrackPointExtension>
            <ns3:atemp>25.0</ns3:atemp>
          </ns3:TrackPointExtension>
        </extensions>
      </trkpt>
      <trkpt lat="42.45904189534485340118408203125" lon="20.194822065532207489013671875">
        <ele>1420.199951171875</ele>
        <time>2026-06-20T11:49:35.000Z</time>
        <extensions>
          <ns3:TrackPointExtension>
            <ns3:atemp>25.0</ns3:atemp>
          </ns3:TrackPointExtension>
        </extensions>
      </trkpt>
      <trkpt lat="42.45903267525136470794677734375" lon="20.19480035640299320220947265625">
        <ele>1419.800048828125</ele>
        <time>2026-06-20T11:49:36.000Z</time>
        <extensions>
          <ns3:TrackPointExtension>
            <ns3:atemp>25.0</ns3:atemp>
          </ns3:TrackPointExtension>
        </extensions>
      </trkpt>
      <trkpt lat="42.4590240418910980224609375" lon="20.19477688707411289215087890625">
        <ele>1419.4000244140625</ele>
        <time>2026-06-20T11:49:37.000Z</time>
        <extensions>
          <ns3:TrackPointExtension>
            <ns3:atemp>25.0</ns3:atemp>
          </ns3:TrackPointExtension>
        </extensions>
      </trkpt>
      <trkpt lat="42.4590228684246540069580078125" lon="20.19475341774523258209228515625">
        <ele>1419</ele>
        <time>2026-06-20T11:49:38.000Z</time>
        <extensions>
          <ns3:TrackPointExtension>
            <ns3:atemp>25.0</ns3:atemp>
          </ns3:TrackPointExtension>
        </extensions>
      </trkpt>
      <trkpt lat="42.45902831666171550750732421875" lon="20.19472961314022541046142578125">
        <ele>1418.5999755859375</ele>
        <time>2026-06-20T11:49:39.000Z</time>
        <extensions>
          <ns3:TrackPointExtension>
            <ns3:atemp>25.0</ns3:atemp>
          </ns3:TrackPointExtension>
        </extensions>
      </trkpt>
      <trkpt lat="42.459032423794269561767578125" lon="20.19470513798296451568603515625">
        <ele>1418</ele>
        <time>2026-06-20T11:49:40.000Z</time>
        <extensions>
          <ns3:TrackPointExtension>
            <ns3:atemp>25.0</ns3:atemp>
          </ns3:TrackPointExtension>
        </extensions>
      </trkpt>
      <trkpt lat="42.459040470421314239501953125" lon="20.19467529840767383575439453125">
        <ele>1417.4000244140625</ele>
        <time>2026-06-20T11:49:41.000Z</time>
        <extensions>
          <ns3:TrackPointExtension>
            <ns3:atemp>25.0</ns3:atemp>
          </ns3:TrackPointExtension>
        </extensions>
      </trkpt>
      <trkpt lat="42.45904323644936084747314453125" lon="20.1946418546140193939208984375">
        <ele>1416.800048828125</ele>
        <time>2026-06-20T11:49:42.000Z</time>
        <extensions>
          <ns3:TrackPointExtension>
            <ns3:atemp>25.0</ns3:atemp>
          </ns3:TrackPointExtension>
        </extensions>
      </trkpt>
      <trkpt lat="42.45904508046805858612060546875" lon="20.194614194333553314208984375">
        <ele>1416.199951171875</ele>
        <time>2026-06-20T11:49:43.000Z</time>
        <extensions>
          <ns3:TrackPointExtension>
            <ns3:atemp>25.0</ns3:atemp>
          </ns3:TrackPointExtension>
        </extensions>
      </trkpt>
      <trkpt lat="42.45904021896421909332275390625" lon="20.1945851929485797882080078125">
        <ele>1415.4000244140625</ele>
        <time>2026-06-20T11:49:44.000Z</time>
        <extensions>
          <ns3:TrackPointExtension>
            <ns3:atemp>25.0</ns3:atemp>
          </ns3:TrackPointExtension>
        </extensions>
      </trkpt>
      <trkpt lat="42.45902915485203266143798828125" lon="20.19456029869616031646728515625">
        <ele>1414.4000244140625</ele>
        <time>2026-06-20T11:49:45.000Z</time>
        <extensions>
          <ns3:TrackPointExtension>
            <ns3:atemp>25.0</ns3:atemp>
          </ns3:TrackPointExtension>
        </extensions>
      </trkpt>
      <trkpt lat="42.4590171687304973602294921875" lon="20.1945409364998340606689453125">
        <ele>1413.800048828125</ele>
        <time>2026-06-20T11:49:46.000Z</time>
        <extensions>
          <ns3:TrackPointExtension>
            <ns3:atemp>25.0</ns3:atemp>
          </ns3:TrackPointExtension>
        </extensions>
      </trkpt>
      <trkpt lat="42.45900233276188373565673828125" lon="20.194521658122539520263671875">
        <ele>1413</ele>
        <time>2026-06-20T11:49:47.000Z</time>
        <extensions>
          <ns3:TrackPointExtension>
            <ns3:atemp>25.0</ns3:atemp>
          </ns3:TrackPointExtension>
        </extensions>
      </trkpt>
      <trkpt lat="42.4589843116700649261474609375" lon="20.19450799562036991119384765625">
        <ele>1412</ele>
        <time>2026-06-20T11:49:48.000Z</time>
        <extensions>
          <ns3:TrackPointExtension>
            <ns3:atemp>25.0</ns3:atemp>
          </ns3:TrackPointExtension>
        </extensions>
      </trkpt>
      <trkpt lat="42.458974421024322509765625" lon="20.19449726678431034088134765625">
        <ele>1411.199951171875</ele>
        <time>2026-06-20T11:49:49.000Z</time>
        <extensions>
          <ns3:TrackPointExtension>
            <ns3:atemp>25.0</ns3:atemp>
          </ns3:TrackPointExtension>
        </extensions>
      </trkpt>
      <trkpt lat="42.45897081680595874786376953125" lon="20.19449475221335887908935546875">
        <ele>1410.4000244140625</ele>
        <time>2026-06-20T11:49:50.000Z</time>
        <extensions>
          <ns3:TrackPointExtension>
            <ns3:atemp>25.0</ns3:atemp>
          </ns3:TrackPointExtension>
        </extensions>
      </trkpt>
      <trkpt lat="42.4589709006249904632568359375" lon="20.1944950036704540252685546875">
        <ele>1409.800048828125</ele>
        <time>2026-06-20T11:49:51.000Z</time>
        <extensions>
          <ns3:TrackPointExtension>
            <ns3:atemp>25.0</ns3:atemp>
          </ns3:TrackPointExtension>
        </extensions>
      </trkpt>
      <trkpt lat="42.45895606465637683868408203125" lon="20.19449290819466114044189453125">
        <ele>1409.199951171875</ele>
        <time>2026-06-20T11:49:52.000Z</time>
        <extensions>
          <ns3:TrackPointExtension>
            <ns3:atemp>25.0</ns3:atemp>
          </ns3:TrackPointExtension>
        </extensions>
      </trkpt>
      <trkpt lat="42.45893896557390689849853515625" lon="20.194484777748584747314453125">
        <ele>1408.5999755859375</ele>
        <time>2026-06-20T11:49:53.000Z</time>
        <extensions>
          <ns3:TrackPointExtension>
            <ns3:atemp>25.0</ns3:atemp>
          </ns3:TrackPointExtension>
        </extensions>
      </trkpt>
      <trkpt lat="42.458919100463390350341796875" lon="20.1944742165505886077880859375">
        <ele>1408</ele>
        <time>2026-06-20T11:49:54.000Z</time>
        <extensions>
          <ns3:TrackPointExtension>
            <ns3:atemp>25.0</ns3:atemp>
          </ns3:TrackPointExtension>
        </extensions>
      </trkpt>
      <trkpt lat="42.45889890007674694061279296875" lon="20.194455273449420928955078125">
        <ele>1407</ele>
        <time>2026-06-20T11:49:55.000Z</time>
        <extensions>
          <ns3:TrackPointExtension>
            <ns3:atemp>25.0</ns3:atemp>
          </ns3:TrackPointExtension>
        </extensions>
      </trkpt>
      <trkpt lat="42.45887945406138896942138671875" lon="20.1944309659302234649658203125">
        <ele>1406.199951171875</ele>
        <time>2026-06-20T11:49:56.000Z</time>
        <extensions>
          <ns3:TrackPointExtension>
            <ns3:atemp>25.0</ns3:atemp>
          </ns3:TrackPointExtension>
        </extensions>
      </trkpt>
      <trkpt lat="42.45886336080729961395263671875" lon="20.1944004558026790618896484375">
        <ele>1405.5999755859375</ele>
        <time>2026-06-20T11:49:57.000Z</time>
        <extensions>
          <ns3:TrackPointExtension>
            <ns3:atemp>25.0</ns3:atemp>
          </ns3:TrackPointExtension>
        </extensions>
      </trkpt>
      <trkpt lat="42.4588465131819248199462890625" lon="20.19436734728515148162841796875">
        <ele>1405</ele>
        <time>2026-06-20T11:49:58.000Z</time>
        <extensions>
          <ns3:TrackPointExtension>
            <ns3:atemp>25.0</ns3:atemp>
          </ns3:TrackPointExtension>
        </extensions>
      </trkpt>
      <trkpt lat="42.45883620344102382659912109375" lon="20.194331221282482147216796875">
        <ele>1404.199951171875</ele>
        <time>2026-06-20T11:49:59.000Z</time>
        <extensions>
          <ns3:TrackPointExtension>
            <ns3:atemp>25.0</ns3:atemp>
          </ns3:TrackPointExtension>
        </extensions>
      </trkpt>
      <trkpt lat="42.458825893700122833251953125" lon="20.19429157488048076629638671875">
        <ele>1403.4000244140625</ele>
        <time>2026-06-20T11:50:00.000Z</time>
        <extensions>
          <ns3:TrackPointExtension>
            <ns3:atemp>25.0</ns3:atemp>
          </ns3:TrackPointExtension>
        </extensions>
      </trkpt>
      <trkpt lat="42.45881390757858753204345703125" lon="20.19426106475293636322021484375">
        <ele>1402.5999755859375</ele>
        <time>2026-06-20T11:50:01.000Z</time>
        <extensions>
          <ns3:TrackPointExtension>
            <ns3:atemp>25.0</ns3:atemp>
          </ns3:TrackPointExtension>
        </extensions>
      </trkpt>
      <trkpt lat="42.45879680849611759185791015625" lon="20.19423591904342174530029296875">
        <ele>1401.800048828125</ele>
        <time>2026-06-20T11:50:02.000Z</time>
        <extensions>
          <ns3:TrackPointExtension>
            <ns3:atemp>25.0</ns3:atemp>
          </ns3:TrackPointExtension>
        </extensions>
      </trkpt>
      <trkpt lat="42.45877082459628582000732421875" lon="20.1942269504070281982421875">
        <ele>1400.800048828125</ele>
        <time>2026-06-20T11:50:03.000Z</time>
        <extensions>
          <ns3:TrackPointExtension>
            <ns3:atemp>25.0</ns3:atemp>
          </ns3:TrackPointExtension>
        </extensions>
      </trkpt>
      <trkpt lat="42.45874819345772266387939453125" lon="20.19420540891587734222412109375">
        <ele>1399.5999755859375</ele>
        <time>2026-06-20T11:50:04.000Z</time>
        <extensions>
          <ns3:TrackPointExtension>
            <ns3:atemp>25.0</ns3:atemp>
          </ns3:TrackPointExtension>
        </extensions>
      </trkpt>
      <trkpt lat="42.4587249755859375" lon="20.19418026320636272430419921875">
        <ele>1398.5999755859375</ele>
        <time>2026-06-20T11:50:05.000Z</time>
        <extensions>
          <ns3:TrackPointExtension>
            <ns3:atemp>25.0</ns3:atemp>
          </ns3:TrackPointExtension>
        </extensions>
      </trkpt>
      <trkpt lat="42.458704523742198944091796875" lon="20.194155871868133544921875">
        <ele>1397.5999755859375</ele>
        <time>2026-06-20T11:50:06.000Z</time>
        <extensions>
          <ns3:TrackPointExtension>
            <ns3:atemp>25.0</ns3:atemp>
          </ns3:TrackPointExtension>
        </extensions>
      </trkpt>
      <trkpt lat="42.458681724965572357177734375" lon="20.19413374364376068115234375">
        <ele>1396.800048828125</ele>
        <time>2026-06-20T11:50:07.000Z</time>
        <extensions>
          <ns3:TrackPointExtension>
            <ns3:atemp>25.0</ns3:atemp>
          </ns3:TrackPointExtension>
        </extensions>
      </trkpt>
      <trkpt lat="42.458658255636692047119140625" lon="20.19413583911955356597900390625">
        <ele>1396.199951171875</ele>
        <time>2026-06-20T11:50:08.000Z</time>
        <extensions>
          <ns3:TrackPointExtension>
            <ns3:atemp>25.0</ns3:atemp>
          </ns3:TrackPointExtension>
        </extensions>
      </trkpt>
      <trkpt lat="42.45862766169011592864990234375" lon="20.1941399462521076202392578125">
        <ele>1395.199951171875</ele>
        <time>2026-06-20T11:50:09.000Z</time>
        <extensions>
          <ns3:TrackPointExtension>
            <ns3:atemp>25.0</ns3:atemp>
          </ns3:TrackPointExtension>
        </extensions>
      </trkpt>
      <trkpt lat="42.45860184542834758758544921875" lon="20.1941486634314060211181640625">
        <ele>1394.4000244140625</ele>
        <time>2026-06-20T11:50:10.000Z</time>
        <extensions>
          <ns3:TrackPointExtension>
            <ns3:atemp>25.0</ns3:atemp>
          </ns3:TrackPointExtension>
        </extensions>
      </trkpt>
      <trkpt lat="42.45857150293886661529541015625" lon="20.19413508474826812744140625">
        <ele>1393.5999755859375</ele>
        <time>2026-06-20T11:50:11.000Z</time>
        <extensions>
          <ns3:TrackPointExtension>
            <ns3:atemp>25.0</ns3:atemp>
          </ns3:TrackPointExtension>
        </extensions>
      </trkpt>
      <trkpt lat="42.45855121873319149017333984375" lon="20.194108597934246063232421875">
        <ele>1392.5999755859375</ele>
        <time>2026-06-20T11:50:12.000Z</time>
        <extensions>
          <ns3:TrackPointExtension>
            <ns3:atemp>25.0</ns3:atemp>
          </ns3:TrackPointExtension>
        </extensions>
      </trkpt>
      <trkpt lat="42.4585290066897869110107421875" lon="20.194069035351276397705078125">
        <ele>1391.4000244140625</ele>
        <time>2026-06-20T11:50:13.000Z</time>
        <extensions>
          <ns3:TrackPointExtension>
            <ns3:atemp>25.0</ns3:atemp>
          </ns3:TrackPointExtension>
        </extensions>
      </trkpt>
      <trkpt lat="42.458495981991291046142578125" lon="20.1940309815108776092529296875">
        <ele>1390</ele>
        <time>2026-06-20T11:50:14.000Z</time>
        <extensions>
          <ns3:TrackPointExtension>
            <ns3:atemp>25.0</ns3:atemp>
          </ns3:TrackPointExtension>
        </extensions>
      </trkpt>
      <trkpt lat="42.45845918543636798858642578125" lon="20.19399954937398433685302734375">
        <ele>1388.800048828125</ele>
        <time>2026-06-20T11:50:15.000Z</time>
        <extensions>
          <ns3:TrackPointExtension>
            <ns3:atemp>25.0</ns3:atemp>
          </ns3:TrackPointExtension>
        </extensions>
      </trkpt>
      <trkpt lat="42.458424903452396392822265625" lon="20.1940051652491092681884765625">
        <ele>1387.5999755859375</ele>
        <time>2026-06-20T11:50:16.000Z</time>
        <extensions>
          <ns3:TrackPointExtension>
            <ns3:atemp>25.0</ns3:atemp>
          </ns3:TrackPointExtension>
        </extensions>
      </trkpt>
      <trkpt lat="42.458385340869426727294921875" lon="20.1940071769058704376220703125">
        <ele>1386.4000244140625</ele>
        <time>2026-06-20T11:50:17.000Z</time>
        <extensions>
          <ns3:TrackPointExtension>
            <ns3:atemp>25.0</ns3:atemp>
          </ns3:TrackPointExtension>
        </extensions>
      </trkpt>
      <trkpt lat="42.45834049768745899200439453125" lon="20.1940021477639675140380859375">
        <ele>1385.4000244140625</ele>
        <time>2026-06-20T11:50:18.000Z</time>
        <extensions>
          <ns3:TrackPointExtension>
            <ns3:atemp>25.0</ns3:atemp>
          </ns3:TrackPointExtension>
        </extensions>
      </trkpt>
      <trkpt lat="42.4582980014383792877197265625" lon="20.193991251289844512939453125">
        <ele>1384</ele>
        <time>2026-06-20T11:50:19.000Z</time>
        <extensions>
          <ns3:TrackPointExtension>
            <ns3:atemp>25.0</ns3:atemp>
          </ns3:TrackPointExtension>
        </extensions>
      </trkpt>
      <trkpt lat="42.4582648091018199920654296875" lon="20.19396610558032989501953125">
        <ele>1383</ele>
        <time>2026-06-20T11:50:20.000Z</time>
        <extensions>
          <ns3:TrackPointExtension>
            <ns3:atemp>25.0</ns3:atemp>
          </ns3:TrackPointExtension>
        </extensions>
      </trkpt>
      <trkpt lat="42.4582359753549098968505859375" lon="20.19392319023609161376953125">
        <ele>1382</ele>
        <time>2026-06-20T11:50:21.000Z</time>
        <extensions>
          <ns3:TrackPointExtension>
            <ns3:atemp>25.0</ns3:atemp>
          </ns3:TrackPointExtension>
        </extensions>
      </trkpt>
      <trkpt lat="42.45820471085608005523681640625" lon="20.19389829598367214202880859375">
        <ele>1381.199951171875</ele>
        <time>2026-06-20T11:50:22.000Z</time>
        <extensions>
          <ns3:TrackPointExtension>
            <ns3:atemp>25.0</ns3:atemp>
          </ns3:TrackPointExtension>
        </extensions>
      </trkpt>
      <trkpt lat="42.45816280134022235870361328125" lon="20.1938861422240734100341796875">
        <ele>1380.4000244140625</ele>
        <time>2026-06-20T11:50:23.000Z</time>
        <extensions>
          <ns3:TrackPointExtension>
            <ns3:atemp>25.0</ns3:atemp>
          </ns3:TrackPointExtension>
        </extensions>
      </trkpt>
      <trkpt lat="42.45811502449214458465576171875" lon="20.19386351108551025390625">
        <ele>1379.4000244140625</ele>
        <time>2026-06-20T11:50:24.000Z</time>
        <extensions>
          <ns3:TrackPointExtension>
            <ns3:atemp>25.0</ns3:atemp>
          </ns3:TrackPointExtension>
        </extensions>
      </trkpt>
      <trkpt lat="42.4580718576908111572265625" lon="20.193836353719234466552734375">
        <ele>1378.800048828125</ele>
        <time>2026-06-20T11:50:25.000Z</time>
        <extensions>
          <ns3:TrackPointExtension>
            <ns3:atemp>25.0</ns3:atemp>
          </ns3:TrackPointExtension>
        </extensions>
      </trkpt>
      <trkpt lat="42.458038330078125" lon="20.19381112419068813323974609375">
        <ele>1378.199951171875</ele>
        <time>2026-06-20T11:50:26.000Z</time>
        <extensions>
          <ns3:TrackPointExtension>
            <ns3:atemp>25.0</ns3:atemp>
          </ns3:TrackPointExtension>
        </extensions>
      </trkpt>
      <trkpt lat="42.45802064426243305206298828125" lon="20.19380249083042144775390625">
        <ele>1377.800048828125</ele>
        <time>2026-06-20T11:50:27.000Z</time>
        <extensions>
          <ns3:TrackPointExtension>
            <ns3:atemp>25.0</ns3:atemp>
          </ns3:TrackPointExtension>
        </extensions>
      </trkpt>
      <trkpt lat="42.45801947079598903656005859375" lon="20.19379905425012111663818359375">
        <ele>1377.4000244140625</ele>
        <time>2026-06-20T11:50:28.000Z</time>
        <extensions>
          <ns3:TrackPointExtension>
            <ns3:atemp>25.0</ns3:atemp>
          </ns3:TrackPointExtension>
        </extensions>
      </trkpt>
      <trkpt lat="42.45801360346376895904541015625" lon="20.19379855133593082427978515625">
        <ele>1377.199951171875</ele>
        <time>2026-06-20T11:50:29.000Z</time>
        <extensions>
          <ns3:TrackPointExtension>
            <ns3:atemp>25.0</ns3:atemp>
          </ns3:TrackPointExtension>
        </extensions>
      </trkpt>
      <trkpt lat="42.45801360346376895904541015625" lon="20.19379855133593082427978515625">
        <ele>1377</ele>
        <time>2026-06-20T11:50:30.000Z</time>
        <extensions>
          <ns3:TrackPointExtension>
            <ns3:atemp>25.0</ns3:atemp>
          </ns3:TrackPointExtension>
        </extensions>
      </trkpt>
      <trkpt lat="42.45801360346376895904541015625" lon="20.19379855133593082427978515625">
        <ele>1376.800048828125</ele>
        <time>2026-06-20T11:50:31.000Z</time>
        <extensions>
          <ns3:TrackPointExtension>
            <ns3:atemp>25.0</ns3:atemp>
          </ns3:TrackPointExtension>
        </extensions>
      </trkpt>
      <trkpt lat="42.45801360346376895904541015625" lon="20.19379855133593082427978515625">
        <ele>1376.5999755859375</ele>
        <time>2026-06-20T11:50:32.000Z</time>
        <extensions>
          <ns3:TrackPointExtension>
            <ns3:atemp>25.0</ns3:atemp>
          </ns3:TrackPointExtension>
        </extensions>
      </trkpt>
      <trkpt lat="42.45801360346376895904541015625" lon="20.19379855133593082427978515625">
        <ele>1376.5999755859375</ele>
        <time>2026-06-20T11:50:33.000Z</time>
        <extensions>
          <ns3:TrackPointExtension>
            <ns3:atemp>25.0</ns3:atemp>
          </ns3:TrackPointExtension>
        </extensions>
      </trkpt>
      <trkpt lat="42.45801360346376895904541015625" lon="20.19379855133593082427978515625">
        <ele>1376.4000244140625</ele>
        <time>2026-06-20T11:50:34.000Z</time>
        <extensions>
          <ns3:TrackPointExtension>
            <ns3:atemp>25.0</ns3:atemp>
          </ns3:TrackPointExtension>
        </extensions>
      </trkpt>
      <trkpt lat="42.45801360346376895904541015625" lon="20.19379855133593082427978515625">
        <ele>1376.4000244140625</ele>
        <time>2026-06-20T11:50:35.000Z</time>
        <extensions>
          <ns3:TrackPointExtension>
            <ns3:atemp>25.0</ns3:atemp>
          </ns3:TrackPointExtension>
        </extensions>
      </trkpt>
      <trkpt lat="42.45801360346376895904541015625" lon="20.19379855133593082427978515625">
        <ele>1376.199951171875</ele>
        <time>2026-06-20T11:50:36.000Z</time>
        <extensions>
          <ns3:TrackPointExtension>
            <ns3:atemp>25.0</ns3:atemp>
          </ns3:TrackPointExtension>
        </extensions>
      </trkpt>
      <trkpt lat="42.45801360346376895904541015625" lon="20.19379855133593082427978515625">
        <ele>1376.4000244140625</ele>
        <time>2026-06-20T11:50:37.000Z</time>
        <extensions>
          <ns3:TrackPointExtension>
            <ns3:atemp>25.0</ns3:atemp>
          </ns3:TrackPointExtension>
        </extensions>
      </trkpt>
      <trkpt lat="42.45801360346376895904541015625" lon="20.19379855133593082427978515625">
        <ele>1376.4000244140625</ele>
        <time>2026-06-20T11:50:38.000Z</time>
        <extensions>
          <ns3:TrackPointExtension>
            <ns3:atemp>25.0</ns3:atemp>
          </ns3:TrackPointExtension>
        </extensions>
      </trkpt>
      <trkpt lat="42.458011843264102935791015625" lon="20.193796791136264801025390625">
        <ele>1376.4000244140625</ele>
        <time>2026-06-20T11:50:39.000Z</time>
        <extensions>
          <ns3:TrackPointExtension>
            <ns3:atemp>25.0</ns3:atemp>
          </ns3:TrackPointExtension>
        </extensions>
      </trkpt>
      <trkpt lat="42.4579918943345546722412109375" lon="20.193785391747951507568359375">
        <ele>1376.4000244140625</ele>
        <time>2026-06-20T11:50:40.000Z</time>
        <extensions>
          <ns3:TrackPointExtension>
            <ns3:atemp>25.0</ns3:atemp>
          </ns3:TrackPointExtension>
        </extensions>
      </trkpt>
      <trkpt lat="42.45797689072787761688232421875" lon="20.193774998188018798828125">
        <ele>1376.4000244140625</ele>
        <time>2026-06-20T11:50:41.000Z</time>
        <extensions>
          <ns3:TrackPointExtension>
            <ns3:atemp>25.0</ns3:atemp>
          </ns3:TrackPointExtension>
        </extensions>
      </trkpt>
      <trkpt lat="42.457962892949581146240234375" lon="20.19376234151422977447509765625">
        <ele>1376.199951171875</ele>
        <time>2026-06-20T11:50:42.000Z</time>
        <extensions>
          <ns3:TrackPointExtension>
            <ns3:atemp>25.0</ns3:atemp>
          </ns3:TrackPointExtension>
        </extensions>
      </trkpt>
      <trkpt lat="42.45795182883739471435546875" lon="20.1937470026314258575439453125">
        <ele>1376</ele>
        <time>2026-06-20T11:50:43.000Z</time>
        <extensions>
          <ns3:TrackPointExtension>
            <ns3:atemp>25.0</ns3:atemp>
          </ns3:TrackPointExtension>
        </extensions>
      </trkpt>
      <trkpt lat="42.45793632231652736663818359375" lon="20.1937161572277545928955078125">
        <ele>1375.800048828125</ele>
        <time>2026-06-20T11:50:44.000Z</time>
        <extensions>
          <ns3:TrackPointExtension>
            <ns3:atemp>25.0</ns3:atemp>
          </ns3:TrackPointExtension>
        </extensions>
      </trkpt>
      <trkpt lat="42.4579162895679473876953125" lon="20.19367508590221405029296875">
        <ele>1375.199951171875</ele>
        <time>2026-06-20T11:50:45.000Z</time>
        <extensions>
          <ns3:TrackPointExtension>
            <ns3:atemp>25.0</ns3:atemp>
          </ns3:TrackPointExtension>
        </extensions>
      </trkpt>
      <trkpt lat="42.4578869529068470001220703125" lon="20.193630494177341461181640625">
        <ele>1374.5999755859375</ele>
        <time>2026-06-20T11:50:46.000Z</time>
        <extensions>
          <ns3:TrackPointExtension>
            <ns3:atemp>25.0</ns3:atemp>
          </ns3:TrackPointExtension>
        </extensions>
      </trkpt>
      <trkpt lat="42.45784990489482879638671875" lon="20.1935796998441219329833984375">
        <ele>1373.800048828125</ele>
        <time>2026-06-20T11:50:47.000Z</time>
        <extensions>
          <ns3:TrackPointExtension>
            <ns3:atemp>26.0</ns3:atemp>
          </ns3:TrackPointExtension>
        </extensions>
      </trkpt>
      <trkpt lat="42.4578014574944972991943359375" lon="20.19354156218469142913818359375">
        <ele>1372.4000244140625</ele>
        <time>2026-06-20T11:50:48.000Z</time>
        <extensions>
          <ns3:TrackPointExtension>
            <ns3:atemp>25.0</ns3:atemp>
          </ns3:TrackPointExtension>
        </extensions>
      </trkpt>
      <trkpt lat="42.4577437900006771087646484375" lon="20.1934948749840259552001953125">
        <ele>1371.800048828125</ele>
        <time>2026-06-20T11:50:49.000Z</time>
        <extensions>
          <ns3:TrackPointExtension>
            <ns3:atemp>26.0</ns3:atemp>
          </ns3:TrackPointExtension>
        </extensions>
      </trkpt>
      <trkpt lat="42.45769257657229900360107421875" lon="20.1934566535055637359619140625">
        <ele>1370.800048828125</ele>
        <time>2026-06-20T11:50:50.000Z</time>
        <extensions>
          <ns3:TrackPointExtension>
            <ns3:atemp>26.0</ns3:atemp>
          </ns3:TrackPointExtension>
        </extensions>
      </trkpt>
      <trkpt lat="42.45763641782104969024658203125" lon="20.19340912811458110809326171875">
        <ele>1370.4000244140625</ele>
        <time>2026-06-20T11:50:51.000Z</time>
        <extensions>
          <ns3:TrackPointExtension>
            <ns3:atemp>26.0</ns3:atemp>
          </ns3:TrackPointExtension>
        </extensions>
      </trkpt>
      <trkpt lat="42.45757724158465862274169921875" lon="20.19336034543812274932861328125">
        <ele>1369</ele>
        <time>2026-06-20T11:50:52.000Z</time>
        <extensions>
          <ns3:TrackPointExtension>
            <ns3:atemp>26.0</ns3:atemp>
          </ns3:TrackPointExtension>
        </extensions>
      </trkpt>
      <trkpt lat="42.45751789771020412445068359375" lon="20.1933310925960540771484375">
        <ele>1367.800048828125</ele>
        <time>2026-06-20T11:50:53.000Z</time>
        <extensions>
          <ns3:TrackPointExtension>
            <ns3:atemp>26.0</ns3:atemp>
          </ns3:TrackPointExtension>
        </extensions>
      </trkpt>
      <trkpt lat="42.45745385996997356414794921875" lon="20.1932799629867076873779296875">
        <ele>1366.5999755859375</ele>
        <time>2026-06-20T11:50:54.000Z</time>
        <extensions>
          <ns3:TrackPointExtension>
            <ns3:atemp>26.0</ns3:atemp>
          </ns3:TrackPointExtension>
        </extensions>
      </trkpt>
      <trkpt lat="42.4574034847319126129150390625" lon="20.1932130753993988037109375">
        <ele>1365.4000244140625</ele>
        <time>2026-06-20T11:50:55.000Z</time>
        <extensions>
          <ns3:TrackPointExtension>
            <ns3:atemp>26.0</ns3:atemp>
          </ns3:TrackPointExtension>
        </extensions>
      </trkpt>
      <trkpt lat="42.45735771954059600830078125" lon="20.19313688389956951141357421875">
        <ele>1364.4000244140625</ele>
        <time>2026-06-20T11:50:56.000Z</time>
        <extensions>
          <ns3:TrackPointExtension>
            <ns3:atemp>26.0</ns3:atemp>
          </ns3:TrackPointExtension>
        </extensions>
      </trkpt>
      <trkpt lat="42.457324527204036712646484375" lon="20.19305960275232791900634765625">
        <ele>1363.4000244140625</ele>
        <time>2026-06-20T11:50:57.000Z</time>
        <extensions>
          <ns3:TrackPointExtension>
            <ns3:atemp>26.0</ns3:atemp>
          </ns3:TrackPointExtension>
        </extensions>
      </trkpt>
      <trkpt lat="42.45730097405612468719482421875" lon="20.1929959841072559356689453125">
        <ele>1362.4000244140625</ele>
        <time>2026-06-20T11:50:58.000Z</time>
        <extensions>
          <ns3:TrackPointExtension>
            <ns3:atemp>26.0</ns3:atemp>
          </ns3:TrackPointExtension>
        </extensions>
      </trkpt>
      <trkpt lat="42.45727188885211944580078125" lon="20.19294979982078075408935546875">
        <ele>1362</ele>
        <time>2026-06-20T11:50:59.000Z</time>
        <extensions>
          <ns3:TrackPointExtension>
            <ns3:atemp>26.0</ns3:atemp>
          </ns3:TrackPointExtension>
        </extensions>
      </trkpt>
      <trkpt lat="42.4572438932955265045166015625" lon="20.1929061301052570343017578125">
        <ele>1361.800048828125</ele>
        <time>2026-06-20T11:51:00.000Z</time>
        <extensions>
          <ns3:TrackPointExtension>
            <ns3:atemp>26.0</ns3:atemp>
          </ns3:TrackPointExtension>
        </extensions>
      </trkpt>
      <trkpt lat="42.45721665211021900177001953125" lon="20.19285189919173717498779296875">
        <ele>1361.4000244140625</ele>
        <time>2026-06-20T11:51:01.000Z</time>
        <extensions>
          <ns3:TrackPointExtension>
            <ns3:atemp>26.0</ns3:atemp>
          </ns3:TrackPointExtension>
        </extensions>
      </trkpt>
      <trkpt lat="42.45719603262841701507568359375" lon="20.192793644964694976806640625">
        <ele>1361.199951171875</ele>
        <time>2026-06-20T11:51:02.000Z</time>
        <extensions>
          <ns3:TrackPointExtension>
            <ns3:atemp>26.0</ns3:atemp>
          </ns3:TrackPointExtension>
        </extensions>
      </trkpt>
      <trkpt lat="42.4571661092340946197509765625" lon="20.19273589365184307098388671875">
        <ele>1360.800048828125</ele>
        <time>2026-06-20T11:51:03.000Z</time>
        <extensions>
          <ns3:TrackPointExtension>
            <ns3:atemp>26.0</ns3:atemp>
          </ns3:TrackPointExtension>
        </extensions>
      </trkpt>
      <trkpt lat="42.45713450945913791656494140625" lon="20.1926865242421627044677734375">
        <ele>1360</ele>
        <time>2026-06-20T11:51:04.000Z</time>
        <extensions>
          <ns3:TrackPointExtension>
            <ns3:atemp>26.0</ns3:atemp>
          </ns3:TrackPointExtension>
        </extensions>
      </trkpt>
      <trkpt lat="42.45709980838000774383544921875" lon="20.1926375739276409149169921875">
        <ele>1359.199951171875</ele>
        <time>2026-06-20T11:51:05.000Z</time>
        <extensions>
          <ns3:TrackPointExtension>
            <ns3:atemp>26.0</ns3:atemp>
          </ns3:TrackPointExtension>
        </extensions>
      </trkpt>
      <trkpt lat="42.45705706067383289337158203125" lon="20.19259373657405376434326171875">
        <ele>1358.199951171875</ele>
        <time>2026-06-20T11:51:06.000Z</time>
        <extensions>
          <ns3:TrackPointExtension>
            <ns3:atemp>26.0</ns3:atemp>
          </ns3:TrackPointExtension>
        </extensions>
      </trkpt>
      <trkpt lat="42.4570226110517978668212890625" lon="20.19254579208791255950927734375">
        <ele>1357.199951171875</ele>
        <time>2026-06-20T11:51:07.000Z</time>
        <extensions>
          <ns3:TrackPointExtension>
            <ns3:atemp>26.0</ns3:atemp>
          </ns3:TrackPointExtension>
        </extensions>
      </trkpt>
      <trkpt lat="42.456999309360980987548828125" lon="20.19248778931796550750732421875">
        <ele>1355.800048828125</ele>
        <time>2026-06-20T11:51:08.000Z</time>
        <extensions>
          <ns3:TrackPointExtension>
            <ns3:atemp>26.0</ns3:atemp>
          </ns3:TrackPointExtension>
        </extensions>
      </trkpt>
      <trkpt lat="42.45697508566081523895263671875" lon="20.192430876195430755615234375">
        <ele>1354.4000244140625</ele>
        <time>2026-06-20T11:51:09.000Z</time>
        <extensions>
          <ns3:TrackPointExtension>
            <ns3:atemp>26.0</ns3:atemp>
          </ns3:TrackPointExtension>
        </extensions>
      </trkpt>
      <trkpt lat="42.45694491080939769744873046875" lon="20.1923613063991069793701171875">
        <ele>1353.199951171875</ele>
        <time>2026-06-20T11:51:10.000Z</time>
        <extensions>
          <ns3:TrackPointExtension>
            <ns3:atemp>26.0</ns3:atemp>
          </ns3:TrackPointExtension>
        </extensions>
      </trkpt>
      <trkpt lat="42.4569118022918701171875" lon="20.19228796474635601043701171875">
        <ele>1351.800048828125</ele>
        <time>2026-06-20T11:51:11.000Z</time>
        <extensions>
          <ns3:TrackPointExtension>
            <ns3:atemp>26.0</ns3:atemp>
          </ns3:TrackPointExtension>
        </extensions>
      </trkpt>
      <trkpt lat="42.45688539929687976837158203125" lon="20.1922141201794147491455078125">
        <ele>1350.4000244140625</ele>
        <time>2026-06-20T11:51:12.000Z</time>
        <extensions>
          <ns3:TrackPointExtension>
            <ns3:atemp>26.0</ns3:atemp>
          </ns3:TrackPointExtension>
        </extensions>
      </trkpt>
      <trkpt lat="42.4568566493690013885498046875" lon="20.19214899279177188873291015625">
        <ele>1348.4000244140625</ele>
        <time>2026-06-20T11:51:13.000Z</time>
        <extensions>
          <ns3:TrackPointExtension>
            <ns3:atemp>26.0</ns3:atemp>
          </ns3:TrackPointExtension>
        </extensions>
      </trkpt>
      <trkpt lat="42.456833682954311370849609375" lon="20.192088223993778228759765625">
        <ele>1347</ele>
        <time>2026-06-20T11:51:14.000Z</time>
        <extensions>
          <ns3:TrackPointExtension>
            <ns3:atemp>26.0</ns3:atemp>
          </ns3:TrackPointExtension>
        </extensions>
      </trkpt>
      <trkpt lat="42.4568150751292705535888671875" lon="20.192027874290943145751953125">
        <ele>1345.5999755859375</ele>
        <time>2026-06-20T11:51:15.000Z</time>
        <extensions>
          <ns3:TrackPointExtension>
            <ns3:atemp>26.0</ns3:atemp>
          </ns3:TrackPointExtension>
        </extensions>
      </trkpt>
      <trkpt lat="42.45680023916065692901611328125" lon="20.1919713802635669708251953125">
        <ele>1344.199951171875</ele>
        <time>2026-06-20T11:51:16.000Z</time>
        <extensions>
          <ns3:TrackPointExtension>
            <ns3:atemp>26.0</ns3:atemp>
          </ns3:TrackPointExtension>
        </extensions>
      </trkpt>
      <trkpt lat="42.4567825533449649810791015625" lon="20.19191312603652477264404296875">
        <ele>1342.800048828125</ele>
        <time>2026-06-20T11:51:17.000Z</time>
        <extensions>
          <ns3:TrackPointExtension>
            <ns3:atemp>26.0</ns3:atemp>
          </ns3:TrackPointExtension>
        </extensions>
      </trkpt>
      <trkpt lat="42.45677257888019084930419921875" lon="20.19185378216207027435302734375">
        <ele>1341.5999755859375</ele>
        <time>2026-06-20T11:51:18.000Z</time>
        <extensions>
          <ns3:TrackPointExtension>
            <ns3:atemp>26.0</ns3:atemp>
          </ns3:TrackPointExtension>
        </extensions>
      </trkpt>
      <trkpt lat="42.45676092803478240966796875" lon="20.1917968690395355224609375">
        <ele>1340.4000244140625</ele>
        <time>2026-06-20T11:51:19.000Z</time>
        <extensions>
          <ns3:TrackPointExtension>
            <ns3:atemp>26.0</ns3:atemp>
          </ns3:TrackPointExtension>
        </extensions>
      </trkpt>
      <trkpt lat="42.4567495286464691162109375" lon="20.191738866269588470458984375">
        <ele>1339.199951171875</ele>
        <time>2026-06-20T11:51:20.000Z</time>
        <extensions>
          <ns3:TrackPointExtension>
            <ns3:atemp>26.0</ns3:atemp>
          </ns3:TrackPointExtension>
        </extensions>
      </trkpt>
      <trkpt lat="42.4567396380007266998291015625" lon="20.19167608581483364105224609375">
        <ele>1338</ele>
        <time>2026-06-20T11:51:21.000Z</time>
        <extensions>
          <ns3:TrackPointExtension>
            <ns3:atemp>26.0</ns3:atemp>
          </ns3:TrackPointExtension>
        </extensions>
      </trkpt>
      <trkpt lat="42.456722371280193328857421875" lon="20.19162696786224842071533203125">
        <ele>1336.5999755859375</ele>
        <time>2026-06-20T11:51:22.000Z</time>
        <extensions>
          <ns3:TrackPointExtension>
            <ns3:atemp>26.0</ns3:atemp>
          </ns3:TrackPointExtension>
        </extensions>
      </trkpt>
      <trkpt lat="42.456699572503566741943359375" lon="20.19159503281116485595703125">
        <ele>1335.4000244140625</ele>
        <time>2026-06-20T11:51:23.000Z</time>
        <extensions>
          <ns3:TrackPointExtension>
            <ns3:atemp>26.0</ns3:atemp>
          </ns3:TrackPointExtension>
        </extensions>
      </trkpt>
      <trkpt lat="42.45667040348052978515625" lon="20.19158698618412017822265625">
        <ele>1334.5999755859375</ele>
        <time>2026-06-20T11:51:24.000Z</time>
        <extensions>
          <ns3:TrackPointExtension>
            <ns3:atemp>26.0</ns3:atemp>
          </ns3:TrackPointExtension>
        </extensions>
      </trkpt>
      <trkpt lat="42.45665255002677440643310546875" lon="20.1915952004492282867431640625">
        <ele>1333.5999755859375</ele>
        <time>2026-06-20T11:51:25.000Z</time>
        <extensions>
          <ns3:TrackPointExtension>
            <ns3:atemp>26.0</ns3:atemp>
          </ns3:TrackPointExtension>
        </extensions>
      </trkpt>
      <trkpt lat="42.45663930661976337432861328125" lon="20.19161607138812541961669921875">
        <ele>1332.800048828125</ele>
        <time>2026-06-20T11:51:26.000Z</time>
        <extensions>
          <ns3:TrackPointExtension>
            <ns3:atemp>26.0</ns3:atemp>
          </ns3:TrackPointExtension>
        </extensions>
      </trkpt>
      <trkpt lat="42.456624470651149749755859375" lon="20.1916458271443843841552734375">
        <ele>1332</ele>
        <time>2026-06-20T11:51:27.000Z</time>
        <extensions>
          <ns3:TrackPointExtension>
            <ns3:atemp>26.0</ns3:atemp>
          </ns3:TrackPointExtension>
        </extensions>
      </trkpt>
      <trkpt lat="42.45661986060440540313720703125" lon="20.19167709164321422576904296875">
        <ele>1331.199951171875</ele>
        <time>2026-06-20T11:51:28.000Z</time>
        <extensions>
          <ns3:TrackPointExtension>
            <ns3:atemp>26.0</ns3:atemp>
          </ns3:TrackPointExtension>
        </extensions>
      </trkpt>
      <trkpt lat="42.456617094576358795166015625" lon="20.19169159233570098876953125">
        <ele>1330.5999755859375</ele>
        <time>2026-06-20T11:51:29.000Z</time>
        <extensions>
          <ns3:TrackPointExtension>
            <ns3:atemp>26.0</ns3:atemp>
          </ns3:TrackPointExtension>
        </extensions>
      </trkpt>
      <trkpt lat="42.4566145800054073333740234375" lon="20.19169536419212818145751953125">
        <ele>1330</ele>
        <time>2026-06-20T11:51:30.000Z</time>
        <extensions>
          <ns3:TrackPointExtension>
            <ns3:atemp>26.0</ns3:atemp>
          </ns3:TrackPointExtension>
        </extensions>
      </trkpt>
      <trkpt lat="42.45661701075732707977294921875" lon="20.1916941069066524505615234375">
        <ele>1329.4000244140625</ele>
        <time>2026-06-20T11:51:31.000Z</time>
        <extensions>
          <ns3:TrackPointExtension>
            <ns3:atemp>26.0</ns3:atemp>
          </ns3:TrackPointExtension>
        </extensions>
      </trkpt>
      <trkpt lat="42.45661684311926364898681640625" lon="20.19169419072568416595458984375">
        <ele>1328.800048828125</ele>
        <time>2026-06-20T11:51:32.000Z</time>
        <extensions>
          <ns3:TrackPointExtension>
            <ns3:atemp>26.0</ns3:atemp>
          </ns3:TrackPointExtension>
        </extensions>
      </trkpt>
      <trkpt lat="42.45661684311926364898681640625" lon="20.19169419072568416595458984375">
        <ele>1328.5999755859375</ele>
        <time>2026-06-20T11:51:33.000Z</time>
        <extensions>
          <ns3:TrackPointExtension>
            <ns3:atemp>26.0</ns3:atemp>
          </ns3:TrackPointExtension>
        </extensions>
      </trkpt>
      <trkpt lat="42.45661684311926364898681640625" lon="20.19169419072568416595458984375">
        <ele>1328.4000244140625</ele>
        <time>2026-06-20T11:51:34.000Z</time>
        <extensions>
          <ns3:TrackPointExtension>
            <ns3:atemp>26.0</ns3:atemp>
          </ns3:TrackPointExtension>
        </extensions>
      </trkpt>
      <trkpt lat="42.45661684311926364898681640625" lon="20.19169419072568416595458984375">
        <ele>1328</ele>
        <time>2026-06-20T11:51:35.000Z</time>
        <extensions>
          <ns3:TrackPointExtension>
            <ns3:atemp>26.0</ns3:atemp>
          </ns3:TrackPointExtension>
        </extensions>
      </trkpt>
      <trkpt lat="42.45661684311926364898681640625" lon="20.19169419072568416595458984375">
        <ele>1328</ele>
        <time>2026-06-20T11:51:36.000Z</time>
        <extensions>
          <ns3:TrackPointExtension>
            <ns3:atemp>26.0</ns3:atemp>
          </ns3:TrackPointExtension>
        </extensions>
      </trkpt>
      <trkpt lat="42.45661684311926364898681640625" lon="20.19169419072568416595458984375">
        <ele>1327.800048828125</ele>
        <time>2026-06-20T11:51:37.000Z</time>
        <extensions>
          <ns3:TrackPointExtension>
            <ns3:atemp>26.0</ns3:atemp>
          </ns3:TrackPointExtension>
        </extensions>
      </trkpt>
      <trkpt lat="42.45661684311926364898681640625" lon="20.19169419072568416595458984375">
        <ele>1327.800048828125</ele>
        <time>2026-06-20T11:51:38.000Z</time>
        <extensions>
          <ns3:TrackPointExtension>
            <ns3:atemp>26.0</ns3:atemp>
          </ns3:TrackPointExtension>
        </extensions>
      </trkpt>
      <trkpt lat="42.45661684311926364898681640625" lon="20.19169419072568416595458984375">
        <ele>1327.5999755859375</ele>
        <time>2026-06-20T11:51:39.000Z</time>
        <extensions>
          <ns3:TrackPointExtension>
            <ns3:atemp>26.0</ns3:atemp>
          </ns3:TrackPointExtension>
        </extensions>
      </trkpt>
      <trkpt lat="42.45661684311926364898681640625" lon="20.19169419072568416595458984375">
        <ele>1327.5999755859375</ele>
        <time>2026-06-20T11:51:40.000Z</time>
        <extensions>
          <ns3:TrackPointExtension>
            <ns3:atemp>26.0</ns3:atemp>
          </ns3:TrackPointExtension>
        </extensions>
      </trkpt>
      <trkpt lat="42.45661684311926364898681640625" lon="20.19169419072568416595458984375">
        <ele>1327.5999755859375</ele>
        <time>2026-06-20T11:51:41.000Z</time>
        <extensions>
          <ns3:TrackPointExtension>
            <ns3:atemp>26.0</ns3:atemp>
          </ns3:TrackPointExtension>
        </extensions>
      </trkpt>
      <trkpt lat="42.45661684311926364898681640625" lon="20.19169419072568416595458984375">
        <ele>1327.5999755859375</ele>
        <time>2026-06-20T11:51:42.000Z</time>
        <extensions>
          <ns3:TrackPointExtension>
            <ns3:atemp>26.0</ns3:atemp>
          </ns3:TrackPointExtension>
        </extensions>
      </trkpt>
      <trkpt lat="42.45661684311926364898681640625" lon="20.19169419072568416595458984375">
        <ele>1327.5999755859375</ele>
        <time>2026-06-20T11:51:43.000Z</time>
        <extensions>
          <ns3:TrackPointExtension>
            <ns3:atemp>26.0</ns3:atemp>
          </ns3:TrackPointExtension>
        </extensions>
      </trkpt>
      <trkpt lat="42.45661684311926364898681640625" lon="20.19169419072568416595458984375">
        <ele>1327.4000244140625</ele>
        <time>2026-06-20T11:51:44.000Z</time>
        <extensions>
          <ns3:TrackPointExtension>
            <ns3:atemp>26.0</ns3:atemp>
          </ns3:TrackPointExtension>
        </extensions>
      </trkpt>
      <trkpt lat="42.45661684311926364898681640625" lon="20.19169419072568416595458984375">
        <ele>1327.4000244140625</ele>
        <time>2026-06-20T11:51:45.000Z</time>
        <extensions>
          <ns3:TrackPointExtension>
            <ns3:atemp>26.0</ns3:atemp>
          </ns3:TrackPointExtension>
        </extensions>
      </trkpt>
      <trkpt lat="42.45661701075732707977294921875" lon="20.1916920952498912811279296875">
        <ele>1327.199951171875</ele>
        <time>2026-06-20T11:51:46.000Z</time>
        <extensions>
          <ns3:TrackPointExtension>
            <ns3:atemp>26.0</ns3:atemp>
          </ns3:TrackPointExtension>
        </extensions>
      </trkpt>
      <trkpt lat="42.456609047949314117431640625" lon="20.19171430729329586029052734375">
        <ele>1327.199951171875</ele>
        <time>2026-06-20T11:51:47.000Z</time>
        <extensions>
          <ns3:TrackPointExtension>
            <ns3:atemp>26.0</ns3:atemp>
          </ns3:TrackPointExtension>
        </extensions>
      </trkpt>
      <trkpt lat="42.45659186504781246185302734375" lon="20.191751606762409210205078125">
        <ele>1327</ele>
        <time>2026-06-20T11:51:48.000Z</time>
        <extensions>
          <ns3:TrackPointExtension>
            <ns3:atemp>26.0</ns3:atemp>
          </ns3:TrackPointExtension>
        </extensions>
      </trkpt>
      <trkpt lat="42.456569485366344451904296875" lon="20.19179779104888439178466796875">
        <ele>1326.800048828125</ele>
        <time>2026-06-20T11:51:49.000Z</time>
        <extensions>
          <ns3:TrackPointExtension>
            <ns3:atemp>26.0</ns3:atemp>
          </ns3:TrackPointExtension>
        </extensions>
      </trkpt>
      <trkpt lat="42.45654257945716381072998046875" lon="20.191849172115325927734375">
        <ele>1326.199951171875</ele>
        <time>2026-06-20T11:51:50.000Z</time>
        <extensions>
          <ns3:TrackPointExtension>
            <ns3:atemp>26.0</ns3:atemp>
          </ns3:TrackPointExtension>
        </extensions>
      </trkpt>
      <trkpt lat="42.4565203674137592315673828125" lon="20.19190055318176746368408203125">
        <ele>1325.5999755859375</ele>
        <time>2026-06-20T11:51:51.000Z</time>
        <extensions>
          <ns3:TrackPointExtension>
            <ns3:atemp>26.0</ns3:atemp>
          </ns3:TrackPointExtension>
        </extensions>
      </trkpt>
      <trkpt lat="42.45650519616901874542236328125" lon="20.19195771776139736175537109375">
        <ele>1324.800048828125</ele>
        <time>2026-06-20T11:51:52.000Z</time>
        <extensions>
          <ns3:TrackPointExtension>
            <ns3:atemp>26.0</ns3:atemp>
          </ns3:TrackPointExtension>
        </extensions>
      </trkpt>
      <trkpt lat="42.45648960582911968231201171875" lon="20.1920169778168201446533203125">
        <ele>1324</ele>
        <time>2026-06-20T11:51:53.000Z</time>
        <extensions>
          <ns3:TrackPointExtension>
            <ns3:atemp>26.0</ns3:atemp>
          </ns3:TrackPointExtension>
        </extensions>
      </trkpt>
      <trkpt lat="42.45647250674664974212646484375" lon="20.19207238219678401947021484375">
        <ele>1323.5999755859375</ele>
        <time>2026-06-20T11:51:54.000Z</time>
        <extensions>
          <ns3:TrackPointExtension>
            <ns3:atemp>26.0</ns3:atemp>
          </ns3:TrackPointExtension>
        </extensions>
      </trkpt>
      <trkpt lat="42.456447444856166839599609375" lon="20.1921168901026248931884765625">
        <ele>1322.800048828125</ele>
        <time>2026-06-20T11:51:55.000Z</time>
        <extensions>
          <ns3:TrackPointExtension>
            <ns3:atemp>26.0</ns3:atemp>
          </ns3:TrackPointExtension>
        </extensions>
      </trkpt>
      <trkpt lat="42.45641584508121013641357421875" lon="20.1921460591256618499755859375">
        <ele>1322</ele>
        <time>2026-06-20T11:51:56.000Z</time>
        <extensions>
          <ns3:TrackPointExtension>
            <ns3:atemp>26.0</ns3:atemp>
          </ns3:TrackPointExtension>
        </extensions>
      </trkpt>
      <trkpt lat="42.45638265274465084075927734375" lon="20.1921742223203182220458984375">
        <ele>1321</ele>
        <time>2026-06-20T11:51:57.000Z</time>
        <extensions>
          <ns3:TrackPointExtension>
            <ns3:atemp>26.0</ns3:atemp>
          </ns3:TrackPointExtension>
        </extensions>
      </trkpt>
      <trkpt lat="42.4563423357903957366943359375" lon="20.1921960152685642242431640625">
        <ele>1319.800048828125</ele>
        <time>2026-06-20T11:51:58.000Z</time>
        <extensions>
          <ns3:TrackPointExtension>
            <ns3:atemp>26.0</ns3:atemp>
          </ns3:TrackPointExtension>
        </extensions>
      </trkpt>
      <trkpt lat="42.4563027732074260711669921875" lon="20.19220330752432346343994140625">
        <ele>1318.5999755859375</ele>
        <time>2026-06-20T11:51:59.000Z</time>
        <extensions>
          <ns3:TrackPointExtension>
            <ns3:atemp>26.0</ns3:atemp>
          </ns3:TrackPointExtension>
        </extensions>
      </trkpt>
      <trkpt lat="42.4562611989676952362060546875" lon="20.192197859287261962890625">
        <ele>1317.5999755859375</ele>
        <time>2026-06-20T11:52:00.000Z</time>
        <extensions>
          <ns3:TrackPointExtension>
            <ns3:atemp>26.0</ns3:atemp>
          </ns3:TrackPointExtension>
        </extensions>
      </trkpt>
      <trkpt lat="42.4562184512615203857421875" lon="20.1921849511563777923583984375">
        <ele>1316.5999755859375</ele>
        <time>2026-06-20T11:52:01.000Z</time>
        <extensions>
          <ns3:TrackPointExtension>
            <ns3:atemp>26.0</ns3:atemp>
          </ns3:TrackPointExtension>
        </extensions>
      </trkpt>
      <trkpt lat="42.4561736918985843658447265625" lon="20.19217841327190399169921875">
        <ele>1315.199951171875</ele>
        <time>2026-06-20T11:52:02.000Z</time>
        <extensions>
          <ns3:TrackPointExtension>
            <ns3:atemp>26.0</ns3:atemp>
          </ns3:TrackPointExtension>
        </extensions>
      </trkpt>
      <trkpt lat="42.45612901635468006134033203125" lon="20.19218453206121921539306640625">
        <ele>1314</ele>
        <time>2026-06-20T11:52:03.000Z</time>
        <extensions>
          <ns3:TrackPointExtension>
            <ns3:atemp>26.0</ns3:atemp>
          </ns3:TrackPointExtension>
        </extensions>
      </trkpt>
      <trkpt lat="42.456081323325634002685546875" lon="20.19218738190829753875732421875">
        <ele>1313</ele>
        <time>2026-06-20T11:52:04.000Z</time>
        <extensions>
          <ns3:TrackPointExtension>
            <ns3:atemp>26.0</ns3:atemp>
          </ns3:TrackPointExtension>
        </extensions>
      </trkpt>
      <trkpt lat="42.45603614486753940582275390625" lon="20.192197524011135101318359375">
        <ele>1311.800048828125</ele>
        <time>2026-06-20T11:52:05.000Z</time>
        <extensions>
          <ns3:TrackPointExtension>
            <ns3:atemp>26.0</ns3:atemp>
          </ns3:TrackPointExtension>
        </extensions>
      </trkpt>
      <trkpt lat="42.4559902958571910858154296875" lon="20.19221319817006587982177734375">
        <ele>1310.4000244140625</ele>
        <time>2026-06-20T11:52:06.000Z</time>
        <extensions>
          <ns3:TrackPointExtension>
            <ns3:atemp>26.0</ns3:atemp>
          </ns3:TrackPointExtension>
        </extensions>
      </trkpt>
      <trkpt lat="42.45594813488423824310302734375" lon="20.19223851151764392852783203125">
        <ele>1308.800048828125</ele>
        <time>2026-06-20T11:52:07.000Z</time>
        <extensions>
          <ns3:TrackPointExtension>
            <ns3:atemp>26.0</ns3:atemp>
          </ns3:TrackPointExtension>
        </extensions>
      </trkpt>
      <trkpt lat="42.45590421371161937713623046875" lon="20.19225896336138248443603515625">
        <ele>1307.800048828125</ele>
        <time>2026-06-20T11:52:08.000Z</time>
        <extensions>
          <ns3:TrackPointExtension>
            <ns3:atemp>26.0</ns3:atemp>
          </ns3:TrackPointExtension>
        </extensions>
      </trkpt>
      <trkpt lat="42.4558524973690509796142578125" lon="20.19226558506488800048828125">
        <ele>1306.5999755859375</ele>
        <time>2026-06-20T11:52:09.000Z</time>
        <extensions>
          <ns3:TrackPointExtension>
            <ns3:atemp>26.0</ns3:atemp>
          </ns3:TrackPointExtension>
        </extensions>
      </trkpt>
      <trkpt lat="42.45579474605619907379150390625" lon="20.192262567579746246337890625">
        <ele>1305.4000244140625</ele>
        <time>2026-06-20T11:52:10.000Z</time>
        <extensions>
          <ns3:TrackPointExtension>
            <ns3:atemp>26.0</ns3:atemp>
          </ns3:TrackPointExtension>
        </extensions>
      </trkpt>
      <trkpt lat="42.45573498308658599853515625" lon="20.19225879572331905364990234375">
        <ele>1304.4000244140625</ele>
        <time>2026-06-20T11:52:11.000Z</time>
        <extensions>
          <ns3:TrackPointExtension>
            <ns3:atemp>26.0</ns3:atemp>
          </ns3:TrackPointExtension>
        </extensions>
      </trkpt>
      <trkpt lat="42.4556731246411800384521484375" lon="20.19225577823817729949951171875">
        <ele>1302.800048828125</ele>
        <time>2026-06-20T11:52:12.000Z</time>
        <extensions>
          <ns3:TrackPointExtension>
            <ns3:atemp>26.0</ns3:atemp>
          </ns3:TrackPointExtension>
        </extensions>
      </trkpt>
      <trkpt lat="42.45561696588993072509765625" lon="20.1922426186501979827880859375">
        <ele>1301.5999755859375</ele>
        <time>2026-06-20T11:52:13.000Z</time>
        <extensions>
          <ns3:TrackPointExtension>
            <ns3:atemp>26.0</ns3:atemp>
          </ns3:TrackPointExtension>
        </extensions>
      </trkpt>
      <trkpt lat="42.45556977577507495880126953125" lon="20.1922287046909332275390625">
        <ele>1300.4000244140625</ele>
        <time>2026-06-20T11:52:14.000Z</time>
        <extensions>
          <ns3:TrackPointExtension>
            <ns3:atemp>26.0</ns3:atemp>
          </ns3:TrackPointExtension>
        </extensions>
      </trkpt>
      <trkpt lat="42.45554010383784770965576171875" lon="20.1922124437987804412841796875">
        <ele>1299.4000244140625</ele>
        <time>2026-06-20T11:52:15.000Z</time>
        <extensions>
          <ns3:TrackPointExtension>
            <ns3:atemp>26.0</ns3:atemp>
          </ns3:TrackPointExtension>
        </extensions>
      </trkpt>
      <trkpt lat="42.45551261119544506072998046875" lon="20.1921926625072956085205078125">
        <ele>1298.5999755859375</ele>
        <time>2026-06-20T11:52:16.000Z</time>
        <extensions>
          <ns3:TrackPointExtension>
            <ns3:atemp>26.0</ns3:atemp>
          </ns3:TrackPointExtension>
        </extensions>
      </trkpt>
      <trkpt lat="42.45549215935170650482177734375" lon="20.192163996398448944091796875">
        <ele>1297.800048828125</ele>
        <time>2026-06-20T11:52:17.000Z</time>
        <extensions>
          <ns3:TrackPointExtension>
            <ns3:atemp>26.0</ns3:atemp>
          </ns3:TrackPointExtension>
        </extensions>
      </trkpt>
      <trkpt lat="42.45547774247825145721435546875" lon="20.1921321451663970947265625">
        <ele>1297.199951171875</ele>
        <time>2026-06-20T11:52:18.000Z</time>
        <extensions>
          <ns3:TrackPointExtension>
            <ns3:atemp>26.0</ns3:atemp>
          </ns3:TrackPointExtension>
        </extensions>
      </trkpt>
      <trkpt lat="42.45547958649694919586181640625" lon="20.192125774919986724853515625">
        <ele>1296.5999755859375</ele>
        <time>2026-06-20T11:52:19.000Z</time>
        <extensions>
          <ns3:TrackPointExtension>
            <ns3:atemp>26.0</ns3:atemp>
          </ns3:TrackPointExtension>
        </extensions>
      </trkpt>
      <trkpt lat="42.45548025704920291900634765625" lon="20.192117393016815185546875">
        <ele>1296.199951171875</ele>
        <time>2026-06-20T11:52:20.000Z</time>
        <extensions>
          <ns3:TrackPointExtension>
            <ns3:atemp>26.0</ns3:atemp>
          </ns3:TrackPointExtension>
        </extensions>
      </trkpt>
      <trkpt lat="42.45548025704920291900634765625" lon="20.19211747683584690093994140625">
        <ele>1295.5999755859375</ele>
        <time>2026-06-20T11:52:21.000Z</time>
        <extensions>
          <ns3:TrackPointExtension>
            <ns3:atemp>26.0</ns3:atemp>
          </ns3:TrackPointExtension>
        </extensions>
      </trkpt>
      <trkpt lat="42.45546801947057247161865234375" lon="20.19211110658943653106689453125">
        <ele>1295.4000244140625</ele>
        <time>2026-06-20T11:52:22.000Z</time>
        <extensions>
          <ns3:TrackPointExtension>
            <ns3:atemp>26.0</ns3:atemp>
          </ns3:TrackPointExtension>
        </extensions>
      </trkpt>
      <trkpt lat="42.45544262230396270751953125" lon="20.1921195723116397857666015625">
        <ele>1295</ele>
        <time>2026-06-20T11:52:23.000Z</time>
        <extensions>
          <ns3:TrackPointExtension>
            <ns3:atemp>26.0</ns3:atemp>
          </ns3:TrackPointExtension>
        </extensions>
      </trkpt>
      <trkpt lat="42.455412782728672027587890625" lon="20.192128121852874755859375">
        <ele>1294.5999755859375</ele>
        <time>2026-06-20T11:52:24.000Z</time>
        <extensions>
          <ns3:TrackPointExtension>
            <ns3:atemp>26.0</ns3:atemp>
          </ns3:TrackPointExtension>
        </extensions>
      </trkpt>
      <trkpt lat="42.45538520626723766326904296875" lon="20.19213818013668060302734375">
        <ele>1294</ele>
        <time>2026-06-20T11:52:25.000Z</time>
        <extensions>
          <ns3:TrackPointExtension>
            <ns3:atemp>26.0</ns3:atemp>
          </ns3:TrackPointExtension>
        </extensions>
      </trkpt>
      <trkpt lat="42.4553566239774227142333984375" lon="20.19214547239243984222412109375">
        <ele>1293.5999755859375</ele>
        <time>2026-06-20T11:52:26.000Z</time>
        <extensions>
          <ns3:TrackPointExtension>
            <ns3:atemp>26.0</ns3:atemp>
          </ns3:TrackPointExtension>
        </extensions>
      </trkpt>
      <trkpt lat="42.45532720349729061126708984375" lon="20.19215435720980167388916015625">
        <ele>1293.199951171875</ele>
        <time>2026-06-20T11:52:27.000Z</time>
        <extensions>
          <ns3:TrackPointExtension>
            <ns3:atemp>26.0</ns3:atemp>
          </ns3:TrackPointExtension>
        </extensions>
      </trkpt>
      <trkpt lat="42.45529501698911190032958984375" lon="20.1921589672565460205078125">
        <ele>1293.199951171875</ele>
        <time>2026-06-20T11:52:28.000Z</time>
        <extensions>
          <ns3:TrackPointExtension>
            <ns3:atemp>26.0</ns3:atemp>
          </ns3:TrackPointExtension>
        </extensions>
      </trkpt>
      <trkpt lat="42.4552590586245059967041015625" lon="20.19216525368392467498779296875">
        <ele>1293</ele>
        <time>2026-06-20T11:52:29.000Z</time>
        <extensions>
          <ns3:TrackPointExtension>
            <ns3:atemp>26.0</ns3:atemp>
          </ns3:TrackPointExtension>
        </extensions>
      </trkpt>
      <trkpt lat="42.45521907694637775421142578125" lon="20.19217480905354022979736328125">
        <ele>1292.800048828125</ele>
        <time>2026-06-20T11:52:30.000Z</time>
        <extensions>
          <ns3:TrackPointExtension>
            <ns3:atemp>26.0</ns3:atemp>
          </ns3:TrackPointExtension>
        </extensions>
      </trkpt>
      <trkpt lat="42.4551745690405368804931640625" lon="20.1921852864325046539306640625">
        <ele>1292.4000244140625</ele>
        <time>2026-06-20T11:52:31.000Z</time>
        <extensions>
          <ns3:TrackPointExtension>
            <ns3:atemp>26.0</ns3:atemp>
          </ns3:TrackPointExtension>
        </extensions>
      </trkpt>
      <trkpt lat="42.45512872003018856048583984375" lon="20.1921986974775791168212890625">
        <ele>1292.199951171875</ele>
        <time>2026-06-20T11:52:32.000Z</time>
        <extensions>
          <ns3:TrackPointExtension>
            <ns3:atemp>26.0</ns3:atemp>
          </ns3:TrackPointExtension>
        </extensions>
      </trkpt>
      <trkpt lat="42.4550820328295230865478515625" lon="20.19221118651330471038818359375">
        <ele>1292.199951171875</ele>
        <time>2026-06-20T11:52:33.000Z</time>
        <extensions>
          <ns3:TrackPointExtension>
            <ns3:atemp>26.0</ns3:atemp>
          </ns3:TrackPointExtension>
        </extensions>
      </trkpt>
      <trkpt lat="42.4550355970859527587890625" lon="20.19222543574869632720947265625">
        <ele>1291.800048828125</ele>
        <time>2026-06-20T11:52:34.000Z</time>
        <extensions>
          <ns3:TrackPointExtension>
            <ns3:atemp>26.0</ns3:atemp>
          </ns3:TrackPointExtension>
        </extensions>
      </trkpt>
      <trkpt lat="42.45499025098979473114013671875" lon="20.19223767332732677459716796875">
        <ele>1291.5999755859375</ele>
        <time>2026-06-20T11:52:35.000Z</time>
        <extensions>
          <ns3:TrackPointExtension>
            <ns3:atemp>26.0</ns3:atemp>
          </ns3:TrackPointExtension>
        </extensions>
      </trkpt>
      <trkpt lat="42.45494373142719268798828125" lon="20.192246474325656890869140625">
        <ele>1291.4000244140625</ele>
        <time>2026-06-20T11:52:36.000Z</time>
        <extensions>
          <ns3:TrackPointExtension>
            <ns3:atemp>26.0</ns3:atemp>
          </ns3:TrackPointExtension>
        </extensions>
      </trkpt>
      <trkpt lat="42.454895116388797760009765625" lon="20.1922577060759067535400390625">
        <ele>1291.199951171875</ele>
        <time>2026-06-20T11:52:37.000Z</time>
        <extensions>
          <ns3:TrackPointExtension>
            <ns3:atemp>26.0</ns3:atemp>
          </ns3:TrackPointExtension>
        </extensions>
      </trkpt>
      <trkpt lat="42.4548473395407199859619140625" lon="20.19226851873099803924560546875">
        <ele>1291</ele>
        <time>2026-06-20T11:52:38.000Z</time>
        <extensions>
          <ns3:TrackPointExtension>
            <ns3:atemp>26.0</ns3:atemp>
          </ns3:TrackPointExtension>
        </extensions>
      </trkpt>
      <trkpt lat="42.4548007361590862274169921875" lon="20.192275308072566986083984375">
        <ele>1290.800048828125</ele>
        <time>2026-06-20T11:52:39.000Z</time>
        <extensions>
          <ns3:TrackPointExtension>
            <ns3:atemp>26.0</ns3:atemp>
          </ns3:TrackPointExtension>
        </extensions>
      </trkpt>
      <trkpt lat="42.45475354604423046112060546875" lon="20.19228109158575534820556640625">
        <ele>1290.5999755859375</ele>
        <time>2026-06-20T11:52:40.000Z</time>
        <extensions>
          <ns3:TrackPointExtension>
            <ns3:atemp>26.0</ns3:atemp>
          </ns3:TrackPointExtension>
        </extensions>
      </trkpt>
      <trkpt lat="42.45470476336777210235595703125" lon="20.1922823488712310791015625">
        <ele>1290.4000244140625</ele>
        <time>2026-06-20T11:52:41.000Z</time>
        <extensions>
          <ns3:TrackPointExtension>
            <ns3:atemp>26.0</ns3:atemp>
          </ns3:TrackPointExtension>
        </extensions>
      </trkpt>
      <trkpt lat="42.45465539395809173583984375" lon="20.1922915689647197723388671875">
        <ele>1290.199951171875</ele>
        <time>2026-06-20T11:52:42.000Z</time>
        <extensions>
          <ns3:TrackPointExtension>
            <ns3:atemp>26.0</ns3:atemp>
          </ns3:TrackPointExtension>
        </extensions>
      </trkpt>
      <trkpt lat="42.4546146579086780548095703125" lon="20.1923126913607120513916015625">
        <ele>1290</ele>
        <time>2026-06-20T11:52:43.000Z</time>
        <extensions>
          <ns3:TrackPointExtension>
            <ns3:atemp>26.0</ns3:atemp>
          </ns3:TrackPointExtension>
        </extensions>
      </trkpt>
      <trkpt lat="42.45457903482019901275634765625" lon="20.192325599491596221923828125">
        <ele>1289.800048828125</ele>
        <time>2026-06-20T11:52:44.000Z</time>
        <extensions>
          <ns3:TrackPointExtension>
            <ns3:atemp>26.0</ns3:atemp>
          </ns3:TrackPointExtension>
        </extensions>
      </trkpt>
      <trkpt lat="42.45455774478614330291748046875" lon="20.19233322702348232269287109375">
        <ele>1289.800048828125</ele>
        <time>2026-06-20T11:52:45.000Z</time>
        <extensions>
          <ns3:TrackPointExtension>
            <ns3:atemp>26.0</ns3:atemp>
          </ns3:TrackPointExtension>
        </extensions>
      </trkpt>
      <trkpt lat="42.454550452530384063720703125" lon="20.192331969738006591796875">
        <ele>1289.800048828125</ele>
        <time>2026-06-20T11:52:46.000Z</time>
        <extensions>
          <ns3:TrackPointExtension>
            <ns3:atemp>26.0</ns3:atemp>
          </ns3:TrackPointExtension>
        </extensions>
      </trkpt>
      <trkpt lat="42.45454668067395687103271484375" lon="20.19232400692999362945556640625">
        <ele>1289.800048828125</ele>
        <time>2026-06-20T11:52:47.000Z</time>
        <extensions>
          <ns3:TrackPointExtension>
            <ns3:atemp>26.0</ns3:atemp>
          </ns3:TrackPointExtension>
        </extensions>
      </trkpt>
      <trkpt lat="42.45454316027462482452392578125" lon="20.1923207379877567291259765625">
        <ele>1289.800048828125</ele>
        <time>2026-06-20T11:52:48.000Z</time>
        <extensions>
          <ns3:TrackPointExtension>
            <ns3:atemp>26.0</ns3:atemp>
          </ns3:TrackPointExtension>
        </extensions>
      </trkpt>
      <trkpt lat="42.45453662239015102386474609375" lon="20.19232015125453472137451171875">
        <ele>1289.800048828125</ele>
        <time>2026-06-20T11:52:49.000Z</time>
        <extensions>
          <ns3:TrackPointExtension>
            <ns3:atemp>26.0</ns3:atemp>
          </ns3:TrackPointExtension>
        </extensions>
      </trkpt>
      <trkpt lat="42.454533688724040985107421875" lon="20.19232165999710559844970703125">
        <ele>1289.800048828125</ele>
        <time>2026-06-20T11:52:50.000Z</time>
        <extensions>
          <ns3:TrackPointExtension>
            <ns3:atemp>26.0</ns3:atemp>
          </ns3:TrackPointExtension>
        </extensions>
      </trkpt>
      <trkpt lat="42.45453075505793094635009765625" lon="20.1923304609954357147216796875">
        <ele>1289.5999755859375</ele>
        <time>2026-06-20T11:52:51.000Z</time>
        <extensions>
          <ns3:TrackPointExtension>
            <ns3:atemp>26.0</ns3:atemp>
          </ns3:TrackPointExtension>
        </extensions>
      </trkpt>
      <trkpt lat="42.4545301683247089385986328125" lon="20.19233088009059429168701171875">
        <ele>1289.4000244140625</ele>
        <time>2026-06-20T11:52:52.000Z</time>
        <extensions>
          <ns3:TrackPointExtension>
            <ns3:atemp>26.0</ns3:atemp>
          </ns3:TrackPointExtension>
        </extensions>
      </trkpt>
      <trkpt lat="42.4545301683247089385986328125" lon="20.19233088009059429168701171875">
        <ele>1289.199951171875</ele>
        <time>2026-06-20T11:52:53.000Z</time>
        <extensions>
          <ns3:TrackPointExtension>
            <ns3:atemp>26.0</ns3:atemp>
          </ns3:TrackPointExtension>
        </extensions>
      </trkpt>
      <trkpt lat="42.4545301683247089385986328125" lon="20.19233088009059429168701171875">
        <ele>1289</ele>
        <time>2026-06-20T11:52:54.000Z</time>
        <extensions>
          <ns3:TrackPointExtension>
            <ns3:atemp>26.0</ns3:atemp>
          </ns3:TrackPointExtension>
        </extensions>
      </trkpt>
      <trkpt lat="42.45453058741986751556396484375" lon="20.19233121536672115325927734375">
        <ele>1289</ele>
        <time>2026-06-20T11:52:55.000Z</time>
        <extensions>
          <ns3:TrackPointExtension>
            <ns3:atemp>26.0</ns3:atemp>
          </ns3:TrackPointExtension>
        </extensions>
      </trkpt>
      <trkpt lat="42.45452740229666233062744140625" lon="20.1923656649887561798095703125">
        <ele>1288.800048828125</ele>
        <time>2026-06-20T11:52:56.000Z</time>
        <extensions>
          <ns3:TrackPointExtension>
            <ns3:atemp>26.0</ns3:atemp>
          </ns3:TrackPointExtension>
        </extensions>
      </trkpt>
      <trkpt lat="42.45451323688030242919921875" lon="20.19238837994635105133056640625">
        <ele>1288.800048828125</ele>
        <time>2026-06-20T11:52:57.000Z</time>
        <extensions>
          <ns3:TrackPointExtension>
            <ns3:atemp>26.0</ns3:atemp>
          </ns3:TrackPointExtension>
        </extensions>
      </trkpt>
      <trkpt lat="42.45449756272137165069580078125" lon="20.192405395209789276123046875">
        <ele>1288.800048828125</ele>
        <time>2026-06-20T11:52:58.000Z</time>
        <extensions>
          <ns3:TrackPointExtension>
            <ns3:atemp>26.0</ns3:atemp>
          </ns3:TrackPointExtension>
        </extensions>
      </trkpt>
      <trkpt lat="42.454482056200504302978515625" lon="20.1924179680645465850830078125">
        <ele>1288.5999755859375</ele>
        <time>2026-06-20T11:52:59.000Z</time>
        <extensions>
          <ns3:TrackPointExtension>
            <ns3:atemp>26.0</ns3:atemp>
          </ns3:TrackPointExtension>
        </extensions>
      </trkpt>
      <trkpt lat="42.45446671731770038604736328125" lon="20.19243129529058933258056640625">
        <ele>1288.5999755859375</ele>
        <time>2026-06-20T11:53:00.000Z</time>
        <extensions>
          <ns3:TrackPointExtension>
            <ns3:atemp>26.0</ns3:atemp>
          </ns3:TrackPointExtension>
        </extensions>
      </trkpt>
      <trkpt lat="42.4544508755207061767578125" lon="20.1924367435276508331298828125">
        <ele>1288.5999755859375</ele>
        <time>2026-06-20T11:53:01.000Z</time>
        <extensions>
          <ns3:TrackPointExtension>
            <ns3:atemp>26.0</ns3:atemp>
          </ns3:TrackPointExtension>
        </extensions>
      </trkpt>
      <trkpt lat="42.45442849583923816680908203125" lon="20.1924367435276508331298828125">
        <ele>1288.4000244140625</ele>
        <time>2026-06-20T11:53:02.000Z</time>
        <extensions>
          <ns3:TrackPointExtension>
            <ns3:atemp>26.0</ns3:atemp>
          </ns3:TrackPointExtension>
        </extensions>
      </trkpt>
      <trkpt lat="42.45440435595810413360595703125" lon="20.19242425449192523956298828125">
        <ele>1288.199951171875</ele>
        <time>2026-06-20T11:53:03.000Z</time>
        <extensions>
          <ns3:TrackPointExtension>
            <ns3:atemp>26.0</ns3:atemp>
          </ns3:TrackPointExtension>
        </extensions>
      </trkpt>
      <trkpt lat="42.454379461705684661865234375" lon="20.19240547902882099151611328125">
        <ele>1288</ele>
        <time>2026-06-20T11:53:04.000Z</time>
        <extensions>
          <ns3:TrackPointExtension>
            <ns3:atemp>26.0</ns3:atemp>
          </ns3:TrackPointExtension>
        </extensions>
      </trkpt>
      <trkpt lat="42.45435238815844058990478515625" lon="20.1923884637653827667236328125">
        <ele>1287.800048828125</ele>
        <time>2026-06-20T11:53:05.000Z</time>
        <extensions>
          <ns3:TrackPointExtension>
            <ns3:atemp>26.0</ns3:atemp>
          </ns3:TrackPointExtension>
        </extensions>
      </trkpt>
      <trkpt lat="42.45432422496378421783447265625" lon="20.19237563945353031158447265625">
        <ele>1287.5999755859375</ele>
        <time>2026-06-20T11:53:06.000Z</time>
        <extensions>
          <ns3:TrackPointExtension>
            <ns3:atemp>26.0</ns3:atemp>
          </ns3:TrackPointExtension>
        </extensions>
      </trkpt>
      <trkpt lat="42.454296313226222991943359375" lon="20.19236080348491668701171875">
        <ele>1287.4000244140625</ele>
        <time>2026-06-20T11:53:07.000Z</time>
        <extensions>
          <ns3:TrackPointExtension>
            <ns3:atemp>26.0</ns3:atemp>
          </ns3:TrackPointExtension>
        </extensions>
      </trkpt>
      <trkpt lat="42.4542703293263912200927734375" lon="20.19235007464885711669921875">
        <ele>1287.199951171875</ele>
        <time>2026-06-20T11:53:08.000Z</time>
        <extensions>
          <ns3:TrackPointExtension>
            <ns3:atemp>26.0</ns3:atemp>
          </ns3:TrackPointExtension>
        </extensions>
      </trkpt>
      <trkpt lat="42.45424308814108371734619140625" lon="20.192341692745685577392578125">
        <ele>1287.199951171875</ele>
        <time>2026-06-20T11:53:09.000Z</time>
        <extensions>
          <ns3:TrackPointExtension>
            <ns3:atemp>26.0</ns3:atemp>
          </ns3:TrackPointExtension>
        </extensions>
      </trkpt>
      <trkpt lat="42.4542123265564441680908203125" lon="20.19233725033700466156005859375">
        <ele>1287</ele>
        <time>2026-06-20T11:53:10.000Z</time>
        <extensions>
          <ns3:TrackPointExtension>
            <ns3:atemp>26.0</ns3:atemp>
          </ns3:TrackPointExtension>
        </extensions>
      </trkpt>
      <trkpt lat="42.45418290607631206512451171875" lon="20.19232266582548618316650390625">
        <ele>1286.5999755859375</ele>
        <time>2026-06-20T11:53:11.000Z</time>
        <extensions>
          <ns3:TrackPointExtension>
            <ns3:atemp>26.0</ns3:atemp>
          </ns3:TrackPointExtension>
        </extensions>
      </trkpt>
      <trkpt lat="42.45415650308132171630859375" lon="20.19230321981012821197509765625">
        <ele>1286.199951171875</ele>
        <time>2026-06-20T11:53:12.000Z</time>
        <extensions>
          <ns3:TrackPointExtension>
            <ns3:atemp>26.0</ns3:atemp>
          </ns3:TrackPointExtension>
        </extensions>
      </trkpt>
      <trkpt lat="42.45412993244826793670654296875" lon="20.19229316152632236480712890625">
        <ele>1286</ele>
        <time>2026-06-20T11:53:13.000Z</time>
        <extensions>
          <ns3:TrackPointExtension>
            <ns3:atemp>26.0</ns3:atemp>
          </ns3:TrackPointExtension>
        </extensions>
      </trkpt>
      <trkpt lat="42.4541144259274005889892578125" lon="20.19229031167924404144287109375">
        <ele>1285.5999755859375</ele>
        <time>2026-06-20T11:53:14.000Z</time>
        <extensions>
          <ns3:TrackPointExtension>
            <ns3:atemp>26.0</ns3:atemp>
          </ns3:TrackPointExtension>
        </extensions>
      </trkpt>
      <trkpt lat="42.45411182753741741180419921875" lon="20.192294083535671234130859375">
        <ele>1285.4000244140625</ele>
        <time>2026-06-20T11:53:15.000Z</time>
        <extensions>
          <ns3:TrackPointExtension>
            <ns3:atemp>26.0</ns3:atemp>
          </ns3:TrackPointExtension>
        </extensions>
      </trkpt>
      <trkpt lat="42.45411501266062259674072265625" lon="20.19228964112699031829833984375">
        <ele>1285.199951171875</ele>
        <time>2026-06-20T11:53:16.000Z</time>
        <extensions>
          <ns3:TrackPointExtension>
            <ns3:atemp>26.0</ns3:atemp>
          </ns3:TrackPointExtension>
        </extensions>
      </trkpt>
      <trkpt lat="42.4541150964796543121337890625" lon="20.19228964112699031829833984375">
        <ele>1285</ele>
        <time>2026-06-20T11:53:17.000Z</time>
        <extensions>
          <ns3:TrackPointExtension>
            <ns3:atemp>26.0</ns3:atemp>
          </ns3:TrackPointExtension>
        </extensions>
      </trkpt>
      <trkpt lat="42.4541150964796543121337890625" lon="20.19228964112699031829833984375">
        <ele>1285</ele>
        <time>2026-06-20T11:53:18.000Z</time>
        <extensions>
          <ns3:TrackPointExtension>
            <ns3:atemp>26.0</ns3:atemp>
          </ns3:TrackPointExtension>
        </extensions>
      </trkpt>
      <trkpt lat="42.4541150964796543121337890625" lon="20.19228964112699031829833984375">
        <ele>1285</ele>
        <time>2026-06-20T11:53:19.000Z</time>
        <extensions>
          <ns3:TrackPointExtension>
            <ns3:atemp>26.0</ns3:atemp>
          </ns3:TrackPointExtension>
        </extensions>
      </trkpt>
      <trkpt lat="42.4541150964796543121337890625" lon="20.19228964112699031829833984375">
        <ele>1284.800048828125</ele>
        <time>2026-06-20T11:53:20.000Z</time>
        <extensions>
          <ns3:TrackPointExtension>
            <ns3:atemp>26.0</ns3:atemp>
          </ns3:TrackPointExtension>
        </extensions>
      </trkpt>
      <trkpt lat="42.4541150964796543121337890625" lon="20.19228964112699031829833984375">
        <ele>1284.5999755859375</ele>
        <time>2026-06-20T11:53:21.000Z</time>
        <extensions>
          <ns3:TrackPointExtension>
            <ns3:atemp>26.0</ns3:atemp>
          </ns3:TrackPointExtension>
        </extensions>
      </trkpt>
      <trkpt lat="42.4541150964796543121337890625" lon="20.19228964112699031829833984375">
        <ele>1284.5999755859375</ele>
        <time>2026-06-20T11:53:22.000Z</time>
        <extensions>
          <ns3:TrackPointExtension>
            <ns3:atemp>26.0</ns3:atemp>
          </ns3:TrackPointExtension>
        </extensions>
      </trkpt>
      <trkpt lat="42.4541150964796543121337890625" lon="20.19228964112699031829833984375">
        <ele>1284.4000244140625</ele>
        <time>2026-06-20T11:53:23.000Z</time>
        <extensions>
          <ns3:TrackPointExtension>
            <ns3:atemp>26.0</ns3:atemp>
          </ns3:TrackPointExtension>
        </extensions>
      </trkpt>
      <trkpt lat="42.4541150964796543121337890625" lon="20.19228964112699031829833984375">
        <ele>1284.4000244140625</ele>
        <time>2026-06-20T11:53:24.000Z</time>
        <extensions>
          <ns3:TrackPointExtension>
            <ns3:atemp>26.0</ns3:atemp>
          </ns3:TrackPointExtension>
        </extensions>
      </trkpt>
      <trkpt lat="42.4541150964796543121337890625" lon="20.19228964112699031829833984375">
        <ele>1284.199951171875</ele>
        <time>2026-06-20T11:53:25.000Z</time>
        <extensions>
          <ns3:TrackPointExtension>
            <ns3:atemp>26.0</ns3:atemp>
          </ns3:TrackPointExtension>
        </extensions>
      </trkpt>
      <trkpt lat="42.4541150964796543121337890625" lon="20.19228964112699031829833984375">
        <ele>1284.199951171875</ele>
        <time>2026-06-20T11:53:26.000Z</time>
        <extensions>
          <ns3:TrackPointExtension>
            <ns3:atemp>26.0</ns3:atemp>
          </ns3:TrackPointExtension>
        </extensions>
      </trkpt>
      <trkpt lat="42.4541150964796543121337890625" lon="20.19228964112699031829833984375">
        <ele>1284</ele>
        <time>2026-06-20T11:53:27.000Z</time>
        <extensions>
          <ns3:TrackPointExtension>
            <ns3:atemp>26.0</ns3:atemp>
          </ns3:TrackPointExtension>
        </extensions>
      </trkpt>
      <trkpt lat="42.4541150964796543121337890625" lon="20.19228964112699031829833984375">
        <ele>1284</ele>
        <time>2026-06-20T11:53:28.000Z</time>
        <extensions>
          <ns3:TrackPointExtension>
            <ns3:atemp>26.0</ns3:atemp>
          </ns3:TrackPointExtension>
        </extensions>
      </trkpt>
      <trkpt lat="42.4541150964796543121337890625" lon="20.19228964112699031829833984375">
        <ele>1284</ele>
        <time>2026-06-20T11:53:29.000Z</time>
        <extensions>
          <ns3:TrackPointExtension>
            <ns3:atemp>26.0</ns3:atemp>
          </ns3:TrackPointExtension>
        </extensions>
      </trkpt>
      <trkpt lat="42.4541150964796543121337890625" lon="20.19228964112699031829833984375">
        <ele>1284</ele>
        <time>2026-06-20T11:53:30.000Z</time>
        <extensions>
          <ns3:TrackPointExtension>
            <ns3:atemp>26.0</ns3:atemp>
          </ns3:TrackPointExtension>
        </extensions>
      </trkpt>
      <trkpt lat="42.4541150964796543121337890625" lon="20.19228964112699031829833984375">
        <ele>1284</ele>
        <time>2026-06-20T11:53:31.000Z</time>
        <extensions>
          <ns3:TrackPointExtension>
            <ns3:atemp>26.0</ns3:atemp>
          </ns3:TrackPointExtension>
        </extensions>
      </trkpt>
      <trkpt lat="42.4541150964796543121337890625" lon="20.19228964112699031829833984375">
        <ele>1284</ele>
        <time>2026-06-20T11:53:32.000Z</time>
        <extensions>
          <ns3:TrackPointExtension>
            <ns3:atemp>26.0</ns3:atemp>
          </ns3:TrackPointExtension>
        </extensions>
      </trkpt>
      <trkpt lat="42.4541150964796543121337890625" lon="20.19228964112699031829833984375">
        <ele>1284</ele>
        <time>2026-06-20T11:53:33.000Z</time>
        <extensions>
          <ns3:TrackPointExtension>
            <ns3:atemp>26.0</ns3:atemp>
          </ns3:TrackPointExtension>
        </extensions>
      </trkpt>
      <trkpt lat="42.4541150964796543121337890625" lon="20.19228964112699031829833984375">
        <ele>1284.199951171875</ele>
        <time>2026-06-20T11:53:34.000Z</time>
        <extensions>
          <ns3:TrackPointExtension>
            <ns3:atemp>26.0</ns3:atemp>
          </ns3:TrackPointExtension>
        </extensions>
      </trkpt>
      <trkpt lat="42.4541150964796543121337890625" lon="20.19228964112699031829833984375">
        <ele>1284.199951171875</ele>
        <time>2026-06-20T11:53:35.000Z</time>
        <extensions>
          <ns3:TrackPointExtension>
            <ns3:atemp>26.0</ns3:atemp>
          </ns3:TrackPointExtension>
        </extensions>
      </trkpt>
      <trkpt lat="42.4541150964796543121337890625" lon="20.19228964112699031829833984375">
        <ele>1284.199951171875</ele>
        <time>2026-06-20T11:53:36.000Z</time>
        <extensions>
          <ns3:TrackPointExtension>
            <ns3:atemp>26.0</ns3:atemp>
          </ns3:TrackPointExtension>
        </extensions>
      </trkpt>
      <trkpt lat="42.4541150964796543121337890625" lon="20.19228964112699031829833984375">
        <ele>1284</ele>
        <time>2026-06-20T11:53:37.000Z</time>
        <extensions>
          <ns3:TrackPointExtension>
            <ns3:atemp>26.0</ns3:atemp>
          </ns3:TrackPointExtension>
        </extensions>
      </trkpt>
      <trkpt lat="42.4541150964796543121337890625" lon="20.19228964112699031829833984375">
        <ele>1284</ele>
        <time>2026-06-20T11:53:38.000Z</time>
        <extensions>
          <ns3:TrackPointExtension>
            <ns3:atemp>26.0</ns3:atemp>
          </ns3:TrackPointExtension>
        </extensions>
      </trkpt>
      <trkpt lat="42.4541150964796543121337890625" lon="20.19228964112699031829833984375">
        <ele>1284</ele>
        <time>2026-06-20T11:53:39.000Z</time>
        <extensions>
          <ns3:TrackPointExtension>
            <ns3:atemp>26.0</ns3:atemp>
          </ns3:TrackPointExtension>
        </extensions>
      </trkpt>
      <trkpt lat="42.4541150964796543121337890625" lon="20.19228964112699031829833984375">
        <ele>1284</ele>
        <time>2026-06-20T11:53:40.000Z</time>
        <extensions>
          <ns3:TrackPointExtension>
            <ns3:atemp>26.0</ns3:atemp>
          </ns3:TrackPointExtension>
        </extensions>
      </trkpt>
      <trkpt lat="42.4541150964796543121337890625" lon="20.19228964112699031829833984375">
        <ele>1284.199951171875</ele>
        <time>2026-06-20T11:53:41.000Z</time>
        <extensions>
          <ns3:TrackPointExtension>
            <ns3:atemp>26.0</ns3:atemp>
          </ns3:TrackPointExtension>
        </extensions>
      </trkpt>
      <trkpt lat="42.4541150964796543121337890625" lon="20.19228964112699031829833984375">
        <ele>1284.199951171875</ele>
        <time>2026-06-20T11:53:42.000Z</time>
        <extensions>
          <ns3:TrackPointExtension>
            <ns3:atemp>26.0</ns3:atemp>
          </ns3:TrackPointExtension>
        </extensions>
      </trkpt>
      <trkpt lat="42.4541150964796543121337890625" lon="20.19228964112699031829833984375">
        <ele>1284.4000244140625</ele>
        <time>2026-06-20T11:53:43.000Z</time>
        <extensions>
          <ns3:TrackPointExtension>
            <ns3:atemp>26.0</ns3:atemp>
          </ns3:TrackPointExtension>
        </extensions>
      </trkpt>
      <trkpt lat="42.4541150964796543121337890625" lon="20.19228964112699031829833984375">
        <ele>1284.4000244140625</ele>
        <time>2026-06-20T11:53:44.000Z</time>
        <extensions>
          <ns3:TrackPointExtension>
            <ns3:atemp>26.0</ns3:atemp>
          </ns3:TrackPointExtension>
        </extensions>
      </trkpt>
      <trkpt lat="42.4541150964796543121337890625" lon="20.19228964112699031829833984375">
        <ele>1284.4000244140625</ele>
        <time>2026-06-20T11:53:45.000Z</time>
        <extensions>
          <ns3:TrackPointExtension>
            <ns3:atemp>26.0</ns3:atemp>
          </ns3:TrackPointExtension>
        </extensions>
      </trkpt>
      <trkpt lat="42.4541150964796543121337890625" lon="20.19228964112699031829833984375">
        <ele>1284.4000244140625</ele>
        <time>2026-06-20T11:53:46.000Z</time>
        <extensions>
          <ns3:TrackPointExtension>
            <ns3:atemp>26.0</ns3:atemp>
          </ns3:TrackPointExtension>
        </extensions>
      </trkpt>
      <trkpt lat="42.4541150964796543121337890625" lon="20.19228964112699031829833984375">
        <ele>1284.4000244140625</ele>
        <time>2026-06-20T11:53:47.000Z</time>
        <extensions>
          <ns3:TrackPointExtension>
            <ns3:atemp>26.0</ns3:atemp>
          </ns3:TrackPointExtension>
        </extensions>
      </trkpt>
      <trkpt lat="42.4541150964796543121337890625" lon="20.19228964112699031829833984375">
        <ele>1284.4000244140625</ele>
        <time>2026-06-20T11:53:48.000Z</time>
        <extensions>
          <ns3:TrackPointExtension>
            <ns3:atemp>26.0</ns3:atemp>
          </ns3:TrackPointExtension>
        </extensions>
      </trkpt>
      <trkpt lat="42.4541150964796543121337890625" lon="20.19228964112699031829833984375">
        <ele>1284.4000244140625</ele>
        <time>2026-06-20T11:53:49.000Z</time>
        <extensions>
          <ns3:TrackPointExtension>
            <ns3:atemp>26.0</ns3:atemp>
          </ns3:TrackPointExtension>
        </extensions>
      </trkpt>
      <trkpt lat="42.4541150964796543121337890625" lon="20.19228964112699031829833984375">
        <ele>1284.4000244140625</ele>
        <time>2026-06-20T11:53:50.000Z</time>
        <extensions>
          <ns3:TrackPointExtension>
            <ns3:atemp>26.0</ns3:atemp>
          </ns3:TrackPointExtension>
        </extensions>
      </trkpt>
      <trkpt lat="42.4541150964796543121337890625" lon="20.19228964112699031829833984375">
        <ele>1284.4000244140625</ele>
        <time>2026-06-20T11:53:51.000Z</time>
        <extensions>
          <ns3:TrackPointExtension>
            <ns3:atemp>26.0</ns3:atemp>
          </ns3:TrackPointExtension>
        </extensions>
      </trkpt>
      <trkpt lat="42.4541150964796543121337890625" lon="20.19228964112699031829833984375">
        <ele>1284.4000244140625</ele>
        <time>2026-06-20T11:53:52.000Z</time>
        <extensions>
          <ns3:TrackPointExtension>
            <ns3:atemp>26.0</ns3:atemp>
          </ns3:TrackPointExtension>
        </extensions>
      </trkpt>
      <trkpt lat="42.4541150964796543121337890625" lon="20.19228964112699031829833984375">
        <ele>1284.4000244140625</ele>
        <time>2026-06-20T11:53:53.000Z</time>
        <extensions>
          <ns3:TrackPointExtension>
            <ns3:atemp>26.0</ns3:atemp>
          </ns3:TrackPointExtension>
        </extensions>
      </trkpt>
      <trkpt lat="42.4541150964796543121337890625" lon="20.19228964112699031829833984375">
        <ele>1284.199951171875</ele>
        <time>2026-06-20T11:53:54.000Z</time>
        <extensions>
          <ns3:TrackPointExtension>
            <ns3:atemp>26.0</ns3:atemp>
          </ns3:TrackPointExtension>
        </extensions>
      </trkpt>
      <trkpt lat="42.4541150964796543121337890625" lon="20.19228964112699031829833984375">
        <ele>1284.199951171875</ele>
        <time>2026-06-20T11:53:55.000Z</time>
        <extensions>
          <ns3:TrackPointExtension>
            <ns3:atemp>26.0</ns3:atemp>
          </ns3:TrackPointExtension>
        </extensions>
      </trkpt>
      <trkpt lat="42.4541150964796543121337890625" lon="20.19228964112699031829833984375">
        <ele>1284.199951171875</ele>
        <time>2026-06-20T11:53:56.000Z</time>
        <extensions>
          <ns3:TrackPointExtension>
            <ns3:atemp>26.0</ns3:atemp>
          </ns3:TrackPointExtension>
        </extensions>
      </trkpt>
      <trkpt lat="42.4541150964796543121337890625" lon="20.19228964112699031829833984375">
        <ele>1284.199951171875</ele>
        <time>2026-06-20T11:53:57.000Z</time>
        <extensions>
          <ns3:TrackPointExtension>
            <ns3:atemp>26.0</ns3:atemp>
          </ns3:TrackPointExtension>
        </extensions>
      </trkpt>
      <trkpt lat="42.4541150964796543121337890625" lon="20.19228964112699031829833984375">
        <ele>1284.199951171875</ele>
        <time>2026-06-20T11:53:58.000Z</time>
        <extensions>
          <ns3:TrackPointExtension>
            <ns3:atemp>26.0</ns3:atemp>
          </ns3:TrackPointExtension>
        </extensions>
      </trkpt>
      <trkpt lat="42.4541150964796543121337890625" lon="20.19228964112699031829833984375">
        <ele>1284.199951171875</ele>
        <time>2026-06-20T11:53:59.000Z</time>
        <extensions>
          <ns3:TrackPointExtension>
            <ns3:atemp>26.0</ns3:atemp>
          </ns3:TrackPointExtension>
        </extensions>
      </trkpt>
      <trkpt lat="42.4541150964796543121337890625" lon="20.19228964112699031829833984375">
        <ele>1284.199951171875</ele>
        <time>2026-06-20T11:54:00.000Z</time>
        <extensions>
          <ns3:TrackPointExtension>
            <ns3:atemp>26.0</ns3:atemp>
          </ns3:TrackPointExtension>
        </extensions>
      </trkpt>
      <trkpt lat="42.4541150964796543121337890625" lon="20.19228964112699031829833984375">
        <ele>1284.199951171875</ele>
        <time>2026-06-20T11:54:01.000Z</time>
        <extensions>
          <ns3:TrackPointExtension>
            <ns3:atemp>26.0</ns3:atemp>
          </ns3:TrackPointExtension>
        </extensions>
      </trkpt>
      <trkpt lat="42.4541150964796543121337890625" lon="20.19228964112699031829833984375">
        <ele>1284.199951171875</ele>
        <time>2026-06-20T11:54:02.000Z</time>
        <extensions>
          <ns3:TrackPointExtension>
            <ns3:atemp>26.0</ns3:atemp>
          </ns3:TrackPointExtension>
        </extensions>
      </trkpt>
      <trkpt lat="42.4541150964796543121337890625" lon="20.19228964112699031829833984375">
        <ele>1284.199951171875</ele>
        <time>2026-06-20T11:54:03.000Z</time>
        <extensions>
          <ns3:TrackPointExtension>
            <ns3:atemp>26.0</ns3:atemp>
          </ns3:TrackPointExtension>
        </extensions>
      </trkpt>
      <trkpt lat="42.4541150964796543121337890625" lon="20.19228964112699031829833984375">
        <ele>1284</ele>
        <time>2026-06-20T11:54:04.000Z</time>
        <extensions>
          <ns3:TrackPointExtension>
            <ns3:atemp>26.0</ns3:atemp>
          </ns3:TrackPointExtension>
        </extensions>
      </trkpt>
      <trkpt lat="42.4541150964796543121337890625" lon="20.19228964112699031829833984375">
        <ele>1284</ele>
        <time>2026-06-20T11:54:05.000Z</time>
        <extensions>
          <ns3:TrackPointExtension>
            <ns3:atemp>26.0</ns3:atemp>
          </ns3:TrackPointExtension>
        </extensions>
      </trkpt>
      <trkpt lat="42.4541150964796543121337890625" lon="20.19228964112699031829833984375">
        <ele>1283.800048828125</ele>
        <time>2026-06-20T11:54:06.000Z</time>
        <extensions>
          <ns3:TrackPointExtension>
            <ns3:atemp>26.0</ns3:atemp>
          </ns3:TrackPointExtension>
        </extensions>
      </trkpt>
      <trkpt lat="42.4541150964796543121337890625" lon="20.19228964112699031829833984375">
        <ele>1283.800048828125</ele>
        <time>2026-06-20T11:54:07.000Z</time>
        <extensions>
          <ns3:TrackPointExtension>
            <ns3:atemp>26.0</ns3:atemp>
          </ns3:TrackPointExtension>
        </extensions>
      </trkpt>
      <trkpt lat="42.4541150964796543121337890625" lon="20.19228964112699031829833984375">
        <ele>1283.5999755859375</ele>
        <time>2026-06-20T11:54:08.000Z</time>
        <extensions>
          <ns3:TrackPointExtension>
            <ns3:atemp>26.0</ns3:atemp>
          </ns3:TrackPointExtension>
        </extensions>
      </trkpt>
      <trkpt lat="42.4541150964796543121337890625" lon="20.19228964112699031829833984375">
        <ele>1283.5999755859375</ele>
        <time>2026-06-20T11:54:09.000Z</time>
        <extensions>
          <ns3:TrackPointExtension>
            <ns3:atemp>26.0</ns3:atemp>
          </ns3:TrackPointExtension>
        </extensions>
      </trkpt>
      <trkpt lat="42.4541150964796543121337890625" lon="20.19228964112699031829833984375">
        <ele>1283.5999755859375</ele>
        <time>2026-06-20T11:54:10.000Z</time>
        <extensions>
          <ns3:TrackPointExtension>
            <ns3:atemp>26.0</ns3:atemp>
          </ns3:TrackPointExtension>
        </extensions>
      </trkpt>
      <trkpt lat="42.4541150964796543121337890625" lon="20.19228964112699031829833984375">
        <ele>1283.4000244140625</ele>
        <time>2026-06-20T11:54:11.000Z</time>
        <extensions>
          <ns3:TrackPointExtension>
            <ns3:atemp>26.0</ns3:atemp>
          </ns3:TrackPointExtension>
        </extensions>
      </trkpt>
      <trkpt lat="42.4541150964796543121337890625" lon="20.19228964112699031829833984375">
        <ele>1283.4000244140625</ele>
        <time>2026-06-20T11:54:12.000Z</time>
        <extensions>
          <ns3:TrackPointExtension>
            <ns3:atemp>26.0</ns3:atemp>
          </ns3:TrackPointExtension>
        </extensions>
      </trkpt>
      <trkpt lat="42.4541150964796543121337890625" lon="20.19228964112699031829833984375">
        <ele>1283.4000244140625</ele>
        <time>2026-06-20T11:54:13.000Z</time>
        <extensions>
          <ns3:TrackPointExtension>
            <ns3:atemp>26.0</ns3:atemp>
          </ns3:TrackPointExtension>
        </extensions>
      </trkpt>
      <trkpt lat="42.4541150964796543121337890625" lon="20.19228964112699031829833984375">
        <ele>1283.4000244140625</ele>
        <time>2026-06-20T11:54:14.000Z</time>
        <extensions>
          <ns3:TrackPointExtension>
            <ns3:atemp>26.0</ns3:atemp>
          </ns3:TrackPointExtension>
        </extensions>
      </trkpt>
      <trkpt lat="42.4541150964796543121337890625" lon="20.19228964112699031829833984375">
        <ele>1283.4000244140625</ele>
        <time>2026-06-20T11:54:15.000Z</time>
        <extensions>
          <ns3:TrackPointExtension>
            <ns3:atemp>26.0</ns3:atemp>
          </ns3:TrackPointExtension>
        </extensions>
      </trkpt>
      <trkpt lat="42.4541150964796543121337890625" lon="20.19228964112699031829833984375">
        <ele>1283.199951171875</ele>
        <time>2026-06-20T11:54:16.000Z</time>
        <extensions>
          <ns3:TrackPointExtension>
            <ns3:atemp>26.0</ns3:atemp>
          </ns3:TrackPointExtension>
        </extensions>
      </trkpt>
      <trkpt lat="42.4541150964796543121337890625" lon="20.19228964112699031829833984375">
        <ele>1283.199951171875</ele>
        <time>2026-06-20T11:54:17.000Z</time>
        <extensions>
          <ns3:TrackPointExtension>
            <ns3:atemp>26.0</ns3:atemp>
          </ns3:TrackPointExtension>
        </extensions>
      </trkpt>
      <trkpt lat="42.4541150964796543121337890625" lon="20.19228964112699031829833984375">
        <ele>1283.199951171875</ele>
        <time>2026-06-20T11:54:18.000Z</time>
        <extensions>
          <ns3:TrackPointExtension>
            <ns3:atemp>26.0</ns3:atemp>
          </ns3:TrackPointExtension>
        </extensions>
      </trkpt>
      <trkpt lat="42.4541150964796543121337890625" lon="20.19228964112699031829833984375">
        <ele>1283.199951171875</ele>
        <time>2026-06-20T11:54:19.000Z</time>
        <extensions>
          <ns3:TrackPointExtension>
            <ns3:atemp>26.0</ns3:atemp>
          </ns3:TrackPointExtension>
        </extensions>
      </trkpt>
      <trkpt lat="42.4541150964796543121337890625" lon="20.19228964112699031829833984375">
        <ele>1283.199951171875</ele>
        <time>2026-06-20T11:54:20.000Z</time>
        <extensions>
          <ns3:TrackPointExtension>
            <ns3:atemp>26.0</ns3:atemp>
          </ns3:TrackPointExtension>
        </extensions>
      </trkpt>
      <trkpt lat="42.4541150964796543121337890625" lon="20.19228964112699031829833984375">
        <ele>1283</ele>
        <time>2026-06-20T11:54:21.000Z</time>
        <extensions>
          <ns3:TrackPointExtension>
            <ns3:atemp>26.0</ns3:atemp>
          </ns3:TrackPointExtension>
        </extensions>
      </trkpt>
      <trkpt lat="42.4541150964796543121337890625" lon="20.19228964112699031829833984375">
        <ele>1283</ele>
        <time>2026-06-20T11:54:22.000Z</time>
        <extensions>
          <ns3:TrackPointExtension>
            <ns3:atemp>26.0</ns3:atemp>
          </ns3:TrackPointExtension>
        </extensions>
      </trkpt>
      <trkpt lat="42.4541150964796543121337890625" lon="20.19228964112699031829833984375">
        <ele>1283</ele>
        <time>2026-06-20T11:54:23.000Z</time>
        <extensions>
          <ns3:TrackPointExtension>
            <ns3:atemp>26.0</ns3:atemp>
          </ns3:TrackPointExtension>
        </extensions>
      </trkpt>
      <trkpt lat="42.4541150964796543121337890625" lon="20.19228964112699031829833984375">
        <ele>1283</ele>
        <time>2026-06-20T11:54:24.000Z</time>
        <extensions>
          <ns3:TrackPointExtension>
            <ns3:atemp>26.0</ns3:atemp>
          </ns3:TrackPointExtension>
        </extensions>
      </trkpt>
      <trkpt lat="42.4541150964796543121337890625" lon="20.19228964112699031829833984375">
        <ele>1283</ele>
        <time>2026-06-20T11:54:25.000Z</time>
        <extensions>
          <ns3:TrackPointExtension>
            <ns3:atemp>26.0</ns3:atemp>
          </ns3:TrackPointExtension>
        </extensions>
      </trkpt>
      <trkpt lat="42.4541150964796543121337890625" lon="20.19228964112699031829833984375">
        <ele>1283</ele>
        <time>2026-06-20T11:54:26.000Z</time>
        <extensions>
          <ns3:TrackPointExtension>
            <ns3:atemp>26.0</ns3:atemp>
          </ns3:TrackPointExtension>
        </extensions>
      </trkpt>
      <trkpt lat="42.4541150964796543121337890625" lon="20.19228964112699031829833984375">
        <ele>1283</ele>
        <time>2026-06-20T11:54:27.000Z</time>
        <extensions>
          <ns3:TrackPointExtension>
            <ns3:atemp>26.0</ns3:atemp>
          </ns3:TrackPointExtension>
        </extensions>
      </trkpt>
      <trkpt lat="42.4541150964796543121337890625" lon="20.19228964112699031829833984375">
        <ele>1282.800048828125</ele>
        <time>2026-06-20T11:54:28.000Z</time>
        <extensions>
          <ns3:TrackPointExtension>
            <ns3:atemp>26.0</ns3:atemp>
          </ns3:TrackPointExtension>
        </extensions>
      </trkpt>
      <trkpt lat="42.4541150964796543121337890625" lon="20.19228964112699031829833984375">
        <ele>1282.800048828125</ele>
        <time>2026-06-20T11:54:29.000Z</time>
        <extensions>
          <ns3:TrackPointExtension>
            <ns3:atemp>26.0</ns3:atemp>
          </ns3:TrackPointExtension>
        </extensions>
      </trkpt>
      <trkpt lat="42.4541150964796543121337890625" lon="20.19228964112699031829833984375">
        <ele>1282.800048828125</ele>
        <time>2026-06-20T11:54:30.000Z</time>
        <extensions>
          <ns3:TrackPointExtension>
            <ns3:atemp>26.0</ns3:atemp>
          </ns3:TrackPointExtension>
        </extensions>
      </trkpt>
      <trkpt lat="42.4541150964796543121337890625" lon="20.19228964112699031829833984375">
        <ele>1282.800048828125</ele>
        <time>2026-06-20T11:54:31.000Z</time>
        <extensions>
          <ns3:TrackPointExtension>
            <ns3:atemp>26.0</ns3:atemp>
          </ns3:TrackPointExtension>
        </extensions>
      </trkpt>
      <trkpt lat="42.4541150964796543121337890625" lon="20.19228964112699031829833984375">
        <ele>1282.5999755859375</ele>
        <time>2026-06-20T11:54:32.000Z</time>
        <extensions>
          <ns3:TrackPointExtension>
            <ns3:atemp>26.0</ns3:atemp>
          </ns3:TrackPointExtension>
        </extensions>
      </trkpt>
      <trkpt lat="42.4541147612035274505615234375" lon="20.19229098223149776458740234375">
        <ele>1282.5999755859375</ele>
        <time>2026-06-20T11:54:33.000Z</time>
        <extensions>
          <ns3:TrackPointExtension>
            <ns3:atemp>26.0</ns3:atemp>
          </ns3:TrackPointExtension>
        </extensions>
      </trkpt>
      <trkpt lat="42.45410277508199214935302734375" lon="20.192299783229827880859375">
        <ele>1282.4000244140625</ele>
        <time>2026-06-20T11:54:34.000Z</time>
        <extensions>
          <ns3:TrackPointExtension>
            <ns3:atemp>26.0</ns3:atemp>
          </ns3:TrackPointExtension>
        </extensions>
      </trkpt>
      <trkpt lat="42.4540922977030277252197265625" lon="20.19231663085520267486572265625">
        <ele>1282.199951171875</ele>
        <time>2026-06-20T11:54:35.000Z</time>
        <extensions>
          <ns3:TrackPointExtension>
            <ns3:atemp>26.0</ns3:atemp>
          </ns3:TrackPointExtension>
        </extensions>
      </trkpt>
      <trkpt lat="42.4540753662586212158203125" lon="20.19234110601246356964111328125">
        <ele>1282</ele>
        <time>2026-06-20T11:54:36.000Z</time>
        <extensions>
          <ns3:TrackPointExtension>
            <ns3:atemp>26.0</ns3:atemp>
          </ns3:TrackPointExtension>
        </extensions>
      </trkpt>
      <trkpt lat="42.4540510587394237518310546875" lon="20.1923639886081218719482421875">
        <ele>1281.800048828125</ele>
        <time>2026-06-20T11:54:37.000Z</time>
        <extensions>
          <ns3:TrackPointExtension>
            <ns3:atemp>26.0</ns3:atemp>
          </ns3:TrackPointExtension>
        </extensions>
      </trkpt>
      <trkpt lat="42.4540151841938495635986328125" lon="20.19238184206187725067138671875">
        <ele>1281.4000244140625</ele>
        <time>2026-06-20T11:54:38.000Z</time>
        <extensions>
          <ns3:TrackPointExtension>
            <ns3:atemp>26.0</ns3:atemp>
          </ns3:TrackPointExtension>
        </extensions>
      </trkpt>
      <trkpt lat="42.45397268794476985931396484375" lon="20.19239835441112518310546875">
        <ele>1281.199951171875</ele>
        <time>2026-06-20T11:54:39.000Z</time>
        <extensions>
          <ns3:TrackPointExtension>
            <ns3:atemp>26.0</ns3:atemp>
          </ns3:TrackPointExtension>
        </extensions>
      </trkpt>
      <trkpt lat="42.4539310298860073089599609375" lon="20.19240698777139186859130859375">
        <ele>1281</ele>
        <time>2026-06-20T11:54:40.000Z</time>
        <extensions>
          <ns3:TrackPointExtension>
            <ns3:atemp>26.0</ns3:atemp>
          </ns3:TrackPointExtension>
        </extensions>
      </trkpt>
      <trkpt lat="42.45389230549335479736328125" lon="20.1924152858555316925048828125">
        <ele>1280.800048828125</ele>
        <time>2026-06-20T11:54:41.000Z</time>
        <extensions>
          <ns3:TrackPointExtension>
            <ns3:atemp>26.0</ns3:atemp>
          </ns3:TrackPointExtension>
        </extensions>
      </trkpt>
      <trkpt lat="42.453856766223907470703125" lon="20.19241905771195888519287109375">
        <ele>1280.800048828125</ele>
        <time>2026-06-20T11:54:42.000Z</time>
        <extensions>
          <ns3:TrackPointExtension>
            <ns3:atemp>26.0</ns3:atemp>
          </ns3:TrackPointExtension>
        </extensions>
      </trkpt>
      <trkpt lat="42.45382298715412616729736328125" lon="20.19241721369326114654541015625">
        <ele>1280.5999755859375</ele>
        <time>2026-06-20T11:54:43.000Z</time>
        <extensions>
          <ns3:TrackPointExtension>
            <ns3:atemp>26.0</ns3:atemp>
          </ns3:TrackPointExtension>
        </extensions>
      </trkpt>
      <trkpt lat="42.45378208346664905548095703125" lon="20.19242090173065662384033203125">
        <ele>1280.199951171875</ele>
        <time>2026-06-20T11:54:44.000Z</time>
        <extensions>
          <ns3:TrackPointExtension>
            <ns3:atemp>26.0</ns3:atemp>
          </ns3:TrackPointExtension>
        </extensions>
      </trkpt>
      <trkpt lat="42.45373673737049102783203125" lon="20.19242660142481327056884765625">
        <ele>1279.800048828125</ele>
        <time>2026-06-20T11:54:45.000Z</time>
        <extensions>
          <ns3:TrackPointExtension>
            <ns3:atemp>26.0</ns3:atemp>
          </ns3:TrackPointExtension>
        </extensions>
      </trkpt>
      <trkpt lat="42.45369172655045986175537109375" lon="20.19242827780544757843017578125">
        <ele>1279</ele>
        <time>2026-06-20T11:54:46.000Z</time>
        <extensions>
          <ns3:TrackPointExtension>
            <ns3:atemp>26.0</ns3:atemp>
          </ns3:TrackPointExtension>
        </extensions>
      </trkpt>
      <trkpt lat="42.4536443687975406646728515625" lon="20.19243054091930389404296875">
        <ele>1278.4000244140625</ele>
        <time>2026-06-20T11:54:47.000Z</time>
        <extensions>
          <ns3:TrackPointExtension>
            <ns3:atemp>26.0</ns3:atemp>
          </ns3:TrackPointExtension>
        </extensions>
      </trkpt>
      <trkpt lat="42.4535924009978771209716796875" lon="20.19243548624217510223388671875">
        <ele>1277.4000244140625</ele>
        <time>2026-06-20T11:54:48.000Z</time>
        <extensions>
          <ns3:TrackPointExtension>
            <ns3:atemp>26.0</ns3:atemp>
          </ns3:TrackPointExtension>
        </extensions>
      </trkpt>
      <trkpt lat="42.45353917591273784637451171875" lon="20.192441605031490325927734375">
        <ele>1276.800048828125</ele>
        <time>2026-06-20T11:54:49.000Z</time>
        <extensions>
          <ns3:TrackPointExtension>
            <ns3:atemp>26.0</ns3:atemp>
          </ns3:TrackPointExtension>
        </extensions>
      </trkpt>
      <trkpt lat="42.453485615551471710205078125" lon="20.19244537688791751861572265625">
        <ele>1276</ele>
        <time>2026-06-20T11:54:50.000Z</time>
        <extensions>
          <ns3:TrackPointExtension>
            <ns3:atemp>26.0</ns3:atemp>
          </ns3:TrackPointExtension>
        </extensions>
      </trkpt>
      <trkpt lat="42.45343138463795185089111328125" lon="20.1924511604011058807373046875">
        <ele>1275.199951171875</ele>
        <time>2026-06-20T11:54:51.000Z</time>
        <extensions>
          <ns3:TrackPointExtension>
            <ns3:atemp>26.0</ns3:atemp>
          </ns3:TrackPointExtension>
        </extensions>
      </trkpt>
      <trkpt lat="42.45337991975247859954833984375" lon="20.19246918149292469024658203125">
        <ele>1274.5999755859375</ele>
        <time>2026-06-20T11:54:52.000Z</time>
        <extensions>
          <ns3:TrackPointExtension>
            <ns3:atemp>26.0</ns3:atemp>
          </ns3:TrackPointExtension>
        </extensions>
      </trkpt>
      <trkpt lat="42.45333231054246425628662109375" lon="20.1925041340291500091552734375">
        <ele>1273.800048828125</ele>
        <time>2026-06-20T11:54:53.000Z</time>
        <extensions>
          <ns3:TrackPointExtension>
            <ns3:atemp>26.0</ns3:atemp>
          </ns3:TrackPointExtension>
        </extensions>
      </trkpt>
      <trkpt lat="42.45329794473946094512939453125" lon="20.1925540901720523834228515625">
        <ele>1273</ele>
        <time>2026-06-20T11:54:54.000Z</time>
        <extensions>
          <ns3:TrackPointExtension>
            <ns3:atemp>26.0</ns3:atemp>
          </ns3:TrackPointExtension>
        </extensions>
      </trkpt>
      <trkpt lat="42.453269027173519134521484375" lon="20.19260480068624019622802734375">
        <ele>1272.4000244140625</ele>
        <time>2026-06-20T11:54:55.000Z</time>
        <extensions>
          <ns3:TrackPointExtension>
            <ns3:atemp>26.0</ns3:atemp>
          </ns3:TrackPointExtension>
        </extensions>
      </trkpt>
      <trkpt lat="42.4532460607588291168212890625" lon="20.192648805677890777587890625">
        <ele>1272</ele>
        <time>2026-06-20T11:54:56.000Z</time>
        <extensions>
          <ns3:TrackPointExtension>
            <ns3:atemp>26.0</ns3:atemp>
          </ns3:TrackPointExtension>
        </extensions>
      </trkpt>
      <trkpt lat="42.453227452933788299560546875" lon="20.1926791481673717498779296875">
        <ele>1271.800048828125</ele>
        <time>2026-06-20T11:54:57.000Z</time>
        <extensions>
          <ns3:TrackPointExtension>
            <ns3:atemp>26.0</ns3:atemp>
          </ns3:TrackPointExtension>
        </extensions>
      </trkpt>
      <trkpt lat="42.45321370661258697509765625" lon="20.192703120410442352294921875">
        <ele>1271.800048828125</ele>
        <time>2026-06-20T11:54:58.000Z</time>
        <extensions>
          <ns3:TrackPointExtension>
            <ns3:atemp>26.0</ns3:atemp>
          </ns3:TrackPointExtension>
        </extensions>
      </trkpt>
      <trkpt lat="42.45320565998554229736328125" lon="20.19272684119641780853271484375">
        <ele>1271.800048828125</ele>
        <time>2026-06-20T11:54:59.000Z</time>
        <extensions>
          <ns3:TrackPointExtension>
            <ns3:atemp>26.0</ns3:atemp>
          </ns3:TrackPointExtension>
        </extensions>
      </trkpt>
      <trkpt lat="42.453196607530117034912109375" lon="20.1927478797733783721923828125">
        <ele>1272</ele>
        <time>2026-06-20T11:55:00.000Z</time>
        <extensions>
          <ns3:TrackPointExtension>
            <ns3:atemp>26.0</ns3:atemp>
          </ns3:TrackPointExtension>
        </extensions>
      </trkpt>
      <trkpt lat="42.4531910754740238189697265625" lon="20.19276858307421207427978515625">
        <ele>1272</ele>
        <time>2026-06-20T11:55:01.000Z</time>
        <extensions>
          <ns3:TrackPointExtension>
            <ns3:atemp>26.0</ns3:atemp>
          </ns3:TrackPointExtension>
        </extensions>
      </trkpt>
      <trkpt lat="42.45318160392343997955322265625" lon="20.192784257233142852783203125">
        <ele>1272</ele>
        <time>2026-06-20T11:55:02.000Z</time>
        <extensions>
          <ns3:TrackPointExtension>
            <ns3:atemp>26.0</ns3:atemp>
          </ns3:TrackPointExtension>
        </extensions>
      </trkpt>
      <trkpt lat="42.4531729705631732940673828125" lon="20.1928112469613552093505859375">
        <ele>1272.199951171875</ele>
        <time>2026-06-20T11:55:03.000Z</time>
        <extensions>
          <ns3:TrackPointExtension>
            <ns3:atemp>26.0</ns3:atemp>
          </ns3:TrackPointExtension>
        </extensions>
      </trkpt>
      <trkpt lat="42.45316785760223865509033203125" lon="20.19284619949758052825927734375">
        <ele>1272</ele>
        <time>2026-06-20T11:55:04.000Z</time>
        <extensions>
          <ns3:TrackPointExtension>
            <ns3:atemp>26.0</ns3:atemp>
          </ns3:TrackPointExtension>
        </extensions>
      </trkpt>
      <trkpt lat="42.4531580507755279541015625" lon="20.19288090057671070098876953125">
        <ele>1272</ele>
        <time>2026-06-20T11:55:05.000Z</time>
        <extensions>
          <ns3:TrackPointExtension>
            <ns3:atemp>26.0</ns3:atemp>
          </ns3:TrackPointExtension>
        </extensions>
      </trkpt>
      <trkpt lat="42.45315603911876678466796875" lon="20.19291996024549007415771484375">
        <ele>1271.800048828125</ele>
        <time>2026-06-20T11:55:06.000Z</time>
        <extensions>
          <ns3:TrackPointExtension>
            <ns3:atemp>26.0</ns3:atemp>
          </ns3:TrackPointExtension>
        </extensions>
      </trkpt>
      <trkpt lat="42.45315796695649623870849609375" lon="20.1929580979049205780029296875">
        <ele>1271.5999755859375</ele>
        <time>2026-06-20T11:55:07.000Z</time>
        <extensions>
          <ns3:TrackPointExtension>
            <ns3:atemp>26.0</ns3:atemp>
          </ns3:TrackPointExtension>
        </extensions>
      </trkpt>
      <trkpt lat="42.45316006243228912353515625" lon="20.1929931342601776123046875">
        <ele>1271.5999755859375</ele>
        <time>2026-06-20T11:55:08.000Z</time>
        <extensions>
          <ns3:TrackPointExtension>
            <ns3:atemp>26.0</ns3:atemp>
          </ns3:TrackPointExtension>
        </extensions>
      </trkpt>
      <trkpt lat="42.45316014625132083892822265625" lon="20.19302909262478351593017578125">
        <ele>1271.4000244140625</ele>
        <time>2026-06-20T11:55:09.000Z</time>
        <extensions>
          <ns3:TrackPointExtension>
            <ns3:atemp>27.0</ns3:atemp>
          </ns3:TrackPointExtension>
        </extensions>
      </trkpt>
      <trkpt lat="42.45314790867269039154052734375" lon="20.1930590160191059112548828125">
        <ele>1271.4000244140625</ele>
        <time>2026-06-20T11:55:10.000Z</time>
        <extensions>
          <ns3:TrackPointExtension>
            <ns3:atemp>26.0</ns3:atemp>
          </ns3:TrackPointExtension>
        </extensions>
      </trkpt>
      <trkpt lat="42.4531290493905544281005859375" lon="20.19307318143546581268310546875">
        <ele>1271.4000244140625</ele>
        <time>2026-06-20T11:55:11.000Z</time>
        <extensions>
          <ns3:TrackPointExtension>
            <ns3:atemp>26.0</ns3:atemp>
          </ns3:TrackPointExtension>
        </extensions>
      </trkpt>
      <trkpt lat="42.453110776841640472412109375" lon="20.19307368434965610504150390625">
        <ele>1271.4000244140625</ele>
        <time>2026-06-20T11:55:12.000Z</time>
        <extensions>
          <ns3:TrackPointExtension>
            <ns3:atemp>26.0</ns3:atemp>
          </ns3:TrackPointExtension>
        </extensions>
      </trkpt>
      <trkpt lat="42.4530904926359653472900390625" lon="20.1930828206241130828857421875">
        <ele>1271.4000244140625</ele>
        <time>2026-06-20T11:55:13.000Z</time>
        <extensions>
          <ns3:TrackPointExtension>
            <ns3:atemp>26.0</ns3:atemp>
          </ns3:TrackPointExtension>
        </extensions>
      </trkpt>
      <trkpt lat="42.4530588090419769287109375" lon="20.19308491609990596771240234375">
        <ele>1271.199951171875</ele>
        <time>2026-06-20T11:55:14.000Z</time>
        <extensions>
          <ns3:TrackPointExtension>
            <ns3:atemp>26.0</ns3:atemp>
          </ns3:TrackPointExtension>
        </extensions>
      </trkpt>
      <trkpt lat="42.4530207552015781402587890625" lon="20.19309296272695064544677734375">
        <ele>1271</ele>
        <time>2026-06-20T11:55:15.000Z</time>
        <extensions>
          <ns3:TrackPointExtension>
            <ns3:atemp>27.0</ns3:atemp>
          </ns3:TrackPointExtension>
        </extensions>
      </trkpt>
      <trkpt lat="42.45297255925834178924560546875" lon="20.19309715367853641510009765625">
        <ele>1270.5999755859375</ele>
        <time>2026-06-20T11:55:16.000Z</time>
        <extensions>
          <ns3:TrackPointExtension>
            <ns3:atemp>27.0</ns3:atemp>
          </ns3:TrackPointExtension>
        </extensions>
      </trkpt>
      <trkpt lat="42.45292075909674167633056640625" lon="20.19310201518237590789794921875">
        <ele>1270</ele>
        <time>2026-06-20T11:55:17.000Z</time>
        <extensions>
          <ns3:TrackPointExtension>
            <ns3:atemp>27.0</ns3:atemp>
          </ns3:TrackPointExtension>
        </extensions>
      </trkpt>
      <trkpt lat="42.4528682045638561248779296875" lon="20.19311576150357723236083984375">
        <ele>1269.5999755859375</ele>
        <time>2026-06-20T11:55:18.000Z</time>
        <extensions>
          <ns3:TrackPointExtension>
            <ns3:atemp>27.0</ns3:atemp>
          </ns3:TrackPointExtension>
        </extensions>
      </trkpt>
      <trkpt lat="42.45282202027738094329833984375" lon="20.19312866963446140289306640625">
        <ele>1269.199951171875</ele>
        <time>2026-06-20T11:55:19.000Z</time>
        <extensions>
          <ns3:TrackPointExtension>
            <ns3:atemp>27.0</ns3:atemp>
          </ns3:TrackPointExtension>
        </extensions>
      </trkpt>
      <trkpt lat="42.4527763389050960540771484375" lon="20.19314400851726531982421875">
        <ele>1268.800048828125</ele>
        <time>2026-06-20T11:55:20.000Z</time>
        <extensions>
          <ns3:TrackPointExtension>
            <ns3:atemp>27.0</ns3:atemp>
          </ns3:TrackPointExtension>
        </extensions>
      </trkpt>
      <trkpt lat="42.4527350999414920806884765625" lon="20.1931542344391345977783203125">
        <ele>1268.5999755859375</ele>
        <time>2026-06-20T11:55:21.000Z</time>
        <extensions>
          <ns3:TrackPointExtension>
            <ns3:atemp>27.0</ns3:atemp>
          </ns3:TrackPointExtension>
        </extensions>
      </trkpt>
      <trkpt lat="42.452692687511444091796875" lon="20.1931582577526569366455078125">
        <ele>1268.5999755859375</ele>
        <time>2026-06-20T11:55:22.000Z</time>
        <extensions>
          <ns3:TrackPointExtension>
            <ns3:atemp>27.0</ns3:atemp>
          </ns3:TrackPointExtension>
        </extensions>
      </trkpt>
      <trkpt lat="42.4526475928723812103271484375" lon="20.19316387362778186798095703125">
        <ele>1268.4000244140625</ele>
        <time>2026-06-20T11:55:23.000Z</time>
        <extensions>
          <ns3:TrackPointExtension>
            <ns3:atemp>27.0</ns3:atemp>
          </ns3:TrackPointExtension>
        </extensions>
      </trkpt>
      <trkpt lat="42.4525969661772251129150390625" lon="20.19316622056066989898681640625">
        <ele>1268.4000244140625</ele>
        <time>2026-06-20T11:55:24.000Z</time>
        <extensions>
          <ns3:TrackPointExtension>
            <ns3:atemp>27.0</ns3:atemp>
          </ns3:TrackPointExtension>
        </extensions>
      </trkpt>
      <trkpt lat="42.45255564339458942413330078125" lon="20.19317141734063625335693359375">
        <ele>1268.4000244140625</ele>
        <time>2026-06-20T11:55:25.000Z</time>
        <extensions>
          <ns3:TrackPointExtension>
            <ns3:atemp>27.0</ns3:atemp>
          </ns3:TrackPointExtension>
        </extensions>
      </trkpt>
      <trkpt lat="42.45252714492380619049072265625" lon="20.19318466074764728546142578125">
        <ele>1268.4000244140625</ele>
        <time>2026-06-20T11:55:26.000Z</time>
        <extensions>
          <ns3:TrackPointExtension>
            <ns3:atemp>27.0</ns3:atemp>
          </ns3:TrackPointExtension>
        </extensions>
      </trkpt>
      <trkpt lat="42.4525154940783977508544921875" lon="20.19319639541208744049072265625">
        <ele>1268.4000244140625</ele>
        <time>2026-06-20T11:55:27.000Z</time>
        <extensions>
          <ns3:TrackPointExtension>
            <ns3:atemp>27.0</ns3:atemp>
          </ns3:TrackPointExtension>
        </extensions>
      </trkpt>
      <trkpt lat="42.452504597604274749755859375" lon="20.193210728466510772705078125">
        <ele>1268.4000244140625</ele>
        <time>2026-06-20T11:55:28.000Z</time>
        <extensions>
          <ns3:TrackPointExtension>
            <ns3:atemp>27.0</ns3:atemp>
          </ns3:TrackPointExtension>
        </extensions>
      </trkpt>
      <trkpt lat="42.4524987302720546722412109375" lon="20.19323042593896389007568359375">
        <ele>1268.199951171875</ele>
        <time>2026-06-20T11:55:29.000Z</time>
        <extensions>
          <ns3:TrackPointExtension>
            <ns3:atemp>27.0</ns3:atemp>
          </ns3:TrackPointExtension>
        </extensions>
      </trkpt>
      <trkpt lat="42.452497221529483795166015625" lon="20.193256996572017669677734375">
        <ele>1268</ele>
        <time>2026-06-20T11:55:30.000Z</time>
        <extensions>
          <ns3:TrackPointExtension>
            <ns3:atemp>27.0</ns3:atemp>
          </ns3:TrackPointExtension>
        </extensions>
      </trkpt>
      <trkpt lat="42.4524903483688831329345703125" lon="20.19328390248119831085205078125">
        <ele>1267.4000244140625</ele>
        <time>2026-06-20T11:55:31.000Z</time>
        <extensions>
          <ns3:TrackPointExtension>
            <ns3:atemp>27.0</ns3:atemp>
          </ns3:TrackPointExtension>
        </extensions>
      </trkpt>
      <trkpt lat="42.45248054154217243194580078125" lon="20.1933191902935504913330078125">
        <ele>1267</ele>
        <time>2026-06-20T11:55:32.000Z</time>
        <extensions>
          <ns3:TrackPointExtension>
            <ns3:atemp>27.0</ns3:atemp>
          </ns3:TrackPointExtension>
        </extensions>
      </trkpt>
      <trkpt lat="42.45245489291846752166748046875" lon="20.19338297657668590545654296875">
        <ele>1266.199951171875</ele>
        <time>2026-06-20T11:55:33.000Z</time>
        <extensions>
          <ns3:TrackPointExtension>
            <ns3:atemp>27.0</ns3:atemp>
          </ns3:TrackPointExtension>
        </extensions>
      </trkpt>
      <trkpt lat="42.45241164229810237884521484375" lon="20.19343595020473003387451171875">
        <ele>1265.4000244140625</ele>
        <time>2026-06-20T11:55:34.000Z</time>
        <extensions>
          <ns3:TrackPointExtension>
            <ns3:atemp>27.0</ns3:atemp>
          </ns3:TrackPointExtension>
        </extensions>
      </trkpt>
      <trkpt lat="42.45238129980862140655517578125" lon="20.193469226360321044921875">
        <ele>1264.4000244140625</ele>
        <time>2026-06-20T11:55:35.000Z</time>
        <extensions>
          <ns3:TrackPointExtension>
            <ns3:atemp>27.0</ns3:atemp>
          </ns3:TrackPointExtension>
        </extensions>
      </trkpt>
      <trkpt lat="42.452367804944515228271484375" lon="20.19349479116499423980712890625">
        <ele>1263.5999755859375</ele>
        <time>2026-06-20T11:55:36.000Z</time>
        <extensions>
          <ns3:TrackPointExtension>
            <ns3:atemp>27.0</ns3:atemp>
          </ns3:TrackPointExtension>
        </extensions>
      </trkpt>
      <trkpt lat="42.4523646198213100433349609375" lon="20.1934948749840259552001953125">
        <ele>1263.4000244140625</ele>
        <time>2026-06-20T11:55:37.000Z</time>
        <extensions>
          <ns3:TrackPointExtension>
            <ns3:atemp>27.0</ns3:atemp>
          </ns3:TrackPointExtension>
        </extensions>
      </trkpt>
      <trkpt lat="42.45235213078558444976806640625" lon="20.19350971095263957977294921875">
        <ele>1263.199951171875</ele>
        <time>2026-06-20T11:55:38.000Z</time>
        <extensions>
          <ns3:TrackPointExtension>
            <ns3:atemp>27.0</ns3:atemp>
          </ns3:TrackPointExtension>
        </extensions>
      </trkpt>
      <trkpt lat="42.45235213078558444976806640625" lon="20.1935096271336078643798828125">
        <ele>1263.199951171875</ele>
        <time>2026-06-20T11:55:39.000Z</time>
        <extensions>
          <ns3:TrackPointExtension>
            <ns3:atemp>27.0</ns3:atemp>
          </ns3:TrackPointExtension>
        </extensions>
      </trkpt>
      <trkpt lat="42.45235213078558444976806640625" lon="20.1935096271336078643798828125">
        <ele>1263.199951171875</ele>
        <time>2026-06-20T11:55:40.000Z</time>
        <extensions>
          <ns3:TrackPointExtension>
            <ns3:atemp>27.0</ns3:atemp>
          </ns3:TrackPointExtension>
        </extensions>
      </trkpt>
      <trkpt lat="42.45235213078558444976806640625" lon="20.1935096271336078643798828125">
        <ele>1263</ele>
        <time>2026-06-20T11:55:41.000Z</time>
        <extensions>
          <ns3:TrackPointExtension>
            <ns3:atemp>27.0</ns3:atemp>
          </ns3:TrackPointExtension>
        </extensions>
      </trkpt>
      <trkpt lat="42.45235213078558444976806640625" lon="20.1935096271336078643798828125">
        <ele>1263</ele>
        <time>2026-06-20T11:55:42.000Z</time>
        <extensions>
          <ns3:TrackPointExtension>
            <ns3:atemp>27.0</ns3:atemp>
          </ns3:TrackPointExtension>
        </extensions>
      </trkpt>
      <trkpt lat="42.45235213078558444976806640625" lon="20.1935096271336078643798828125">
        <ele>1262.800048828125</ele>
        <time>2026-06-20T11:55:43.000Z</time>
        <extensions>
          <ns3:TrackPointExtension>
            <ns3:atemp>27.0</ns3:atemp>
          </ns3:TrackPointExtension>
        </extensions>
      </trkpt>
      <trkpt lat="42.45235213078558444976806640625" lon="20.1935096271336078643798828125">
        <ele>1262.5999755859375</ele>
        <time>2026-06-20T11:55:44.000Z</time>
        <extensions>
          <ns3:TrackPointExtension>
            <ns3:atemp>27.0</ns3:atemp>
          </ns3:TrackPointExtension>
        </extensions>
      </trkpt>
      <trkpt lat="42.45235213078558444976806640625" lon="20.1935096271336078643798828125">
        <ele>1262.5999755859375</ele>
        <time>2026-06-20T11:55:45.000Z</time>
        <extensions>
          <ns3:TrackPointExtension>
            <ns3:atemp>27.0</ns3:atemp>
          </ns3:TrackPointExtension>
        </extensions>
      </trkpt>
      <trkpt lat="42.45235213078558444976806640625" lon="20.1935096271336078643798828125">
        <ele>1262.5999755859375</ele>
        <time>2026-06-20T11:55:46.000Z</time>
        <extensions>
          <ns3:TrackPointExtension>
            <ns3:atemp>27.0</ns3:atemp>
          </ns3:TrackPointExtension>
        </extensions>
      </trkpt>
      <trkpt lat="42.45235213078558444976806640625" lon="20.1935096271336078643798828125">
        <ele>1262.5999755859375</ele>
        <time>2026-06-20T11:55:47.000Z</time>
        <extensions>
          <ns3:TrackPointExtension>
            <ns3:atemp>27.0</ns3:atemp>
          </ns3:TrackPointExtension>
        </extensions>
      </trkpt>
      <trkpt lat="42.45235213078558444976806640625" lon="20.1935096271336078643798828125">
        <ele>1262.5999755859375</ele>
        <time>2026-06-20T11:55:48.000Z</time>
        <extensions>
          <ns3:TrackPointExtension>
            <ns3:atemp>27.0</ns3:atemp>
          </ns3:TrackPointExtension>
        </extensions>
      </trkpt>
      <trkpt lat="42.45235213078558444976806640625" lon="20.1935096271336078643798828125">
        <ele>1262.5999755859375</ele>
        <time>2026-06-20T11:55:49.000Z</time>
        <extensions>
          <ns3:TrackPointExtension>
            <ns3:atemp>27.0</ns3:atemp>
          </ns3:TrackPointExtension>
        </extensions>
      </trkpt>
      <trkpt lat="42.45235213078558444976806640625" lon="20.1935096271336078643798828125">
        <ele>1262.4000244140625</ele>
        <time>2026-06-20T11:55:50.000Z</time>
        <extensions>
          <ns3:TrackPointExtension>
            <ns3:atemp>27.0</ns3:atemp>
          </ns3:TrackPointExtension>
        </extensions>
      </trkpt>
      <trkpt lat="42.45235213078558444976806640625" lon="20.1935096271336078643798828125">
        <ele>1262.4000244140625</ele>
        <time>2026-06-20T11:55:51.000Z</time>
        <extensions>
          <ns3:TrackPointExtension>
            <ns3:atemp>27.0</ns3:atemp>
          </ns3:TrackPointExtension>
        </extensions>
      </trkpt>
      <trkpt lat="42.45235213078558444976806640625" lon="20.1935096271336078643798828125">
        <ele>1262.4000244140625</ele>
        <time>2026-06-20T11:55:52.000Z</time>
        <extensions>
          <ns3:TrackPointExtension>
            <ns3:atemp>27.0</ns3:atemp>
          </ns3:TrackPointExtension>
        </extensions>
      </trkpt>
      <trkpt lat="42.45235213078558444976806640625" lon="20.1935096271336078643798828125">
        <ele>1262.4000244140625</ele>
        <time>2026-06-20T11:55:53.000Z</time>
        <extensions>
          <ns3:TrackPointExtension>
            <ns3:atemp>27.0</ns3:atemp>
          </ns3:TrackPointExtension>
        </extensions>
      </trkpt>
      <trkpt lat="42.45235213078558444976806640625" lon="20.1935096271336078643798828125">
        <ele>1262.4000244140625</ele>
        <time>2026-06-20T11:55:54.000Z</time>
        <extensions>
          <ns3:TrackPointExtension>
            <ns3:atemp>27.0</ns3:atemp>
          </ns3:TrackPointExtension>
        </extensions>
      </trkpt>
      <trkpt lat="42.45235213078558444976806640625" lon="20.1935096271336078643798828125">
        <ele>1262.4000244140625</ele>
        <time>2026-06-20T11:55:55.000Z</time>
        <extensions>
          <ns3:TrackPointExtension>
            <ns3:atemp>27.0</ns3:atemp>
          </ns3:TrackPointExtension>
        </extensions>
      </trkpt>
      <trkpt lat="42.45235213078558444976806640625" lon="20.1935096271336078643798828125">
        <ele>1262.4000244140625</ele>
        <time>2026-06-20T11:55:56.000Z</time>
        <extensions>
          <ns3:TrackPointExtension>
            <ns3:atemp>27.0</ns3:atemp>
          </ns3:TrackPointExtension>
        </extensions>
      </trkpt>
      <trkpt lat="42.45235213078558444976806640625" lon="20.1935096271336078643798828125">
        <ele>1262.199951171875</ele>
        <time>2026-06-20T11:55:57.000Z</time>
        <extensions>
          <ns3:TrackPointExtension>
            <ns3:atemp>27.0</ns3:atemp>
          </ns3:TrackPointExtension>
        </extensions>
      </trkpt>
      <trkpt lat="42.45235213078558444976806640625" lon="20.1935096271336078643798828125">
        <ele>1262.199951171875</ele>
        <time>2026-06-20T11:55:58.000Z</time>
        <extensions>
          <ns3:TrackPointExtension>
            <ns3:atemp>27.0</ns3:atemp>
          </ns3:TrackPointExtension>
        </extensions>
      </trkpt>
      <trkpt lat="42.45235213078558444976806640625" lon="20.1935096271336078643798828125">
        <ele>1262.199951171875</ele>
        <time>2026-06-20T11:55:59.000Z</time>
        <extensions>
          <ns3:TrackPointExtension>
            <ns3:atemp>27.0</ns3:atemp>
          </ns3:TrackPointExtension>
        </extensions>
      </trkpt>
      <trkpt lat="42.45235213078558444976806640625" lon="20.1935096271336078643798828125">
        <ele>1262.199951171875</ele>
        <time>2026-06-20T11:56:00.000Z</time>
        <extensions>
          <ns3:TrackPointExtension>
            <ns3:atemp>27.0</ns3:atemp>
          </ns3:TrackPointExtension>
        </extensions>
      </trkpt>
      <trkpt lat="42.45235213078558444976806640625" lon="20.1935096271336078643798828125">
        <ele>1262.199951171875</ele>
        <time>2026-06-20T11:56:01.000Z</time>
        <extensions>
          <ns3:TrackPointExtension>
            <ns3:atemp>27.0</ns3:atemp>
          </ns3:TrackPointExtension>
        </extensions>
      </trkpt>
      <trkpt lat="42.4523471854627132415771484375" lon="20.19351591356098651885986328125">
        <ele>1262</ele>
        <time>2026-06-20T11:56:02.000Z</time>
        <extensions>
          <ns3:TrackPointExtension>
            <ns3:atemp>27.0</ns3:atemp>
          </ns3:TrackPointExtension>
        </extensions>
      </trkpt>
      <trkpt lat="42.45233687572181224822998046875" lon="20.193544663488864898681640625">
        <ele>1262</ele>
        <time>2026-06-20T11:56:03.000Z</time>
        <extensions>
          <ns3:TrackPointExtension>
            <ns3:atemp>27.0</ns3:atemp>
          </ns3:TrackPointExtension>
        </extensions>
      </trkpt>
      <trkpt lat="42.45233000256121158599853515625" lon="20.1935900934040546417236328125">
        <ele>1261.5999755859375</ele>
        <time>2026-06-20T11:56:04.000Z</time>
        <extensions>
          <ns3:TrackPointExtension>
            <ns3:atemp>27.0</ns3:atemp>
          </ns3:TrackPointExtension>
        </extensions>
      </trkpt>
      <trkpt lat="42.4523372948169708251953125" lon="20.19364465959370136260986328125">
        <ele>1261</ele>
        <time>2026-06-20T11:56:05.000Z</time>
        <extensions>
          <ns3:TrackPointExtension>
            <ns3:atemp>27.0</ns3:atemp>
          </ns3:TrackPointExtension>
        </extensions>
      </trkpt>
      <trkpt lat="42.452346347272396087646484375" lon="20.19368640147149562835693359375">
        <ele>1260.4000244140625</ele>
        <time>2026-06-20T11:56:06.000Z</time>
        <extensions>
          <ns3:TrackPointExtension>
            <ns3:atemp>27.0</ns3:atemp>
          </ns3:TrackPointExtension>
        </extensions>
      </trkpt>
      <trkpt lat="42.452356405556201934814453125" lon="20.19373476505279541015625">
        <ele>1259.5999755859375</ele>
        <time>2026-06-20T11:56:07.000Z</time>
        <extensions>
          <ns3:TrackPointExtension>
            <ns3:atemp>27.0</ns3:atemp>
          </ns3:TrackPointExtension>
        </extensions>
      </trkpt>
      <trkpt lat="42.4523709900677204132080078125" lon="20.1937869004905223846435546875">
        <ele>1258.800048828125</ele>
        <time>2026-06-20T11:56:08.000Z</time>
        <extensions>
          <ns3:TrackPointExtension>
            <ns3:atemp>27.0</ns3:atemp>
          </ns3:TrackPointExtension>
        </extensions>
      </trkpt>
      <trkpt lat="42.45240041054785251617431640625" lon="20.19383777864277362823486328125">
        <ele>1257.5999755859375</ele>
        <time>2026-06-20T11:56:09.000Z</time>
        <extensions>
          <ns3:TrackPointExtension>
            <ns3:atemp>27.0</ns3:atemp>
          </ns3:TrackPointExtension>
        </extensions>
      </trkpt>
      <trkpt lat="42.4524226225912570953369140625" lon="20.193883962929248809814453125">
        <ele>1256.800048828125</ele>
        <time>2026-06-20T11:56:10.000Z</time>
        <extensions>
          <ns3:TrackPointExtension>
            <ns3:atemp>27.0</ns3:atemp>
          </ns3:TrackPointExtension>
        </extensions>
      </trkpt>
      <trkpt lat="42.45245019905269145965576171875" lon="20.19392226822674274444580078125">
        <ele>1256</ele>
        <time>2026-06-20T11:56:11.000Z</time>
        <extensions>
          <ns3:TrackPointExtension>
            <ns3:atemp>27.0</ns3:atemp>
          </ns3:TrackPointExtension>
        </extensions>
      </trkpt>
      <trkpt lat="42.4524779431521892547607421875" lon="20.1939501799643039703369140625">
        <ele>1254.800048828125</ele>
        <time>2026-06-20T11:56:12.000Z</time>
        <extensions>
          <ns3:TrackPointExtension>
            <ns3:atemp>27.0</ns3:atemp>
          </ns3:TrackPointExtension>
        </extensions>
      </trkpt>
      <trkpt lat="42.45249898172914981842041015625" lon="20.1939726434648036956787109375">
        <ele>1253.5999755859375</ele>
        <time>2026-06-20T11:56:13.000Z</time>
        <extensions>
          <ns3:TrackPointExtension>
            <ns3:atemp>27.0</ns3:atemp>
          </ns3:TrackPointExtension>
        </extensions>
      </trkpt>
      <trkpt lat="42.45251490734517574310302734375" lon="20.19399602897465229034423828125">
        <ele>1252.199951171875</ele>
        <time>2026-06-20T11:56:14.000Z</time>
        <extensions>
          <ns3:TrackPointExtension>
            <ns3:atemp>27.0</ns3:atemp>
          </ns3:TrackPointExtension>
        </extensions>
      </trkpt>
      <trkpt lat="42.4525376223027706146240234375" lon="20.19402452744543552398681640625">
        <ele>1251.199951171875</ele>
        <time>2026-06-20T11:56:15.000Z</time>
        <extensions>
          <ns3:TrackPointExtension>
            <ns3:atemp>27.0</ns3:atemp>
          </ns3:TrackPointExtension>
        </extensions>
      </trkpt>
      <trkpt lat="42.45255262590944766998291015625" lon="20.19406073726713657379150390625">
        <ele>1250.199951171875</ele>
        <time>2026-06-20T11:56:16.000Z</time>
        <extensions>
          <ns3:TrackPointExtension>
            <ns3:atemp>27.0</ns3:atemp>
          </ns3:TrackPointExtension>
        </extensions>
      </trkpt>
      <trkpt lat="42.45255849324166774749755859375" lon="20.19410834647715091705322265625">
        <ele>1249.4000244140625</ele>
        <time>2026-06-20T11:56:17.000Z</time>
        <extensions>
          <ns3:TrackPointExtension>
            <ns3:atemp>27.0</ns3:atemp>
          </ns3:TrackPointExtension>
        </extensions>
      </trkpt>
      <trkpt lat="42.45256821624934673309326171875" lon="20.194145478308200836181640625">
        <ele>1248.5999755859375</ele>
        <time>2026-06-20T11:56:18.000Z</time>
        <extensions>
          <ns3:TrackPointExtension>
            <ns3:atemp>27.0</ns3:atemp>
          </ns3:TrackPointExtension>
        </extensions>
      </trkpt>
      <trkpt lat="42.45258732698857784271240234375" lon="20.1941835321485996246337890625">
        <ele>1247.5999755859375</ele>
        <time>2026-06-20T11:56:19.000Z</time>
        <extensions>
          <ns3:TrackPointExtension>
            <ns3:atemp>27.0</ns3:atemp>
          </ns3:TrackPointExtension>
        </extensions>
      </trkpt>
      <trkpt lat="42.45260911993682384490966796875" lon="20.19421798177063465118408203125">
        <ele>1246.800048828125</ele>
        <time>2026-06-20T11:56:20.000Z</time>
        <extensions>
          <ns3:TrackPointExtension>
            <ns3:atemp>27.0</ns3:atemp>
          </ns3:TrackPointExtension>
        </extensions>
      </trkpt>
      <trkpt lat="42.45262303389608860015869140625" lon="20.1942599751055240631103515625">
        <ele>1246.199951171875</ele>
        <time>2026-06-20T11:56:21.000Z</time>
        <extensions>
          <ns3:TrackPointExtension>
            <ns3:atemp>27.0</ns3:atemp>
          </ns3:TrackPointExtension>
        </extensions>
      </trkpt>
      <trkpt lat="42.45263661257922649383544921875" lon="20.19430951215326786041259765625">
        <ele>1245.5999755859375</ele>
        <time>2026-06-20T11:56:22.000Z</time>
        <extensions>
          <ns3:TrackPointExtension>
            <ns3:atemp>27.0</ns3:atemp>
          </ns3:TrackPointExtension>
        </extensions>
      </trkpt>
      <trkpt lat="42.45265270583331584930419921875" lon="20.1943632401525974273681640625">
        <ele>1244.4000244140625</ele>
        <time>2026-06-20T11:56:23.000Z</time>
        <extensions>
          <ns3:TrackPointExtension>
            <ns3:atemp>27.0</ns3:atemp>
          </ns3:TrackPointExtension>
        </extensions>
      </trkpt>
      <trkpt lat="42.45267927646636962890625" lon="20.194411017000675201416015625">
        <ele>1243.5999755859375</ele>
        <time>2026-06-20T11:56:24.000Z</time>
        <extensions>
          <ns3:TrackPointExtension>
            <ns3:atemp>27.0</ns3:atemp>
          </ns3:TrackPointExtension>
        </extensions>
      </trkpt>
      <trkpt lat="42.45271087624132633209228515625" lon="20.19446231424808502197265625">
        <ele>1242.4000244140625</ele>
        <time>2026-06-20T11:56:25.000Z</time>
        <extensions>
          <ns3:TrackPointExtension>
            <ns3:atemp>27.0</ns3:atemp>
          </ns3:TrackPointExtension>
        </extensions>
      </trkpt>
      <trkpt lat="42.4527481757104396820068359375" lon="20.1945023797452449798583984375">
        <ele>1241.4000244140625</ele>
        <time>2026-06-20T11:56:26.000Z</time>
        <extensions>
          <ns3:TrackPointExtension>
            <ns3:atemp>27.0</ns3:atemp>
          </ns3:TrackPointExtension>
        </extensions>
      </trkpt>
      <trkpt lat="42.4527964554727077484130859375" lon="20.19453213550150394439697265625">
        <ele>1240.4000244140625</ele>
        <time>2026-06-20T11:56:27.000Z</time>
        <extensions>
          <ns3:TrackPointExtension>
            <ns3:atemp>27.0</ns3:atemp>
          </ns3:TrackPointExtension>
        </extensions>
      </trkpt>
      <trkpt lat="42.45284817181527614593505859375" lon="20.19455359317362308502197265625">
        <ele>1239.199951171875</ele>
        <time>2026-06-20T11:56:28.000Z</time>
        <extensions>
          <ns3:TrackPointExtension>
            <ns3:atemp>27.0</ns3:atemp>
          </ns3:TrackPointExtension>
        </extensions>
      </trkpt>
      <trkpt lat="42.4528916738927364349365234375" lon="20.19457873888313770294189453125">
        <ele>1238.4000244140625</ele>
        <time>2026-06-20T11:56:29.000Z</time>
        <extensions>
          <ns3:TrackPointExtension>
            <ns3:atemp>27.0</ns3:atemp>
          </ns3:TrackPointExtension>
        </extensions>
      </trkpt>
      <trkpt lat="42.452922351658344268798828125" lon="20.1946240849792957305908203125">
        <ele>1237.5999755859375</ele>
        <time>2026-06-20T11:56:30.000Z</time>
        <extensions>
          <ns3:TrackPointExtension>
            <ns3:atemp>27.0</ns3:atemp>
          </ns3:TrackPointExtension>
        </extensions>
      </trkpt>
      <trkpt lat="42.4529285542666912078857421875" lon="20.19467026926577091217041015625">
        <ele>1237</ele>
        <time>2026-06-20T11:56:31.000Z</time>
        <extensions>
          <ns3:TrackPointExtension>
            <ns3:atemp>27.0</ns3:atemp>
          </ns3:TrackPointExtension>
        </extensions>
      </trkpt>
      <trkpt lat="42.45293433777987957000732421875" lon="20.1947105862200260162353515625">
        <ele>1236.5999755859375</ele>
        <time>2026-06-20T11:56:32.000Z</time>
        <extensions>
          <ns3:TrackPointExtension>
            <ns3:atemp>27.0</ns3:atemp>
          </ns3:TrackPointExtension>
        </extensions>
      </trkpt>
      <trkpt lat="42.4529469944536685943603515625" lon="20.1947472989559173583984375">
        <ele>1236.199951171875</ele>
        <time>2026-06-20T11:56:33.000Z</time>
        <extensions>
          <ns3:TrackPointExtension>
            <ns3:atemp>27.0</ns3:atemp>
          </ns3:TrackPointExtension>
        </extensions>
      </trkpt>
      <trkpt lat="42.45297591201961040496826171875" lon="20.1947689242660999298095703125">
        <ele>1235.800048828125</ele>
        <time>2026-06-20T11:56:34.000Z</time>
        <extensions>
          <ns3:TrackPointExtension>
            <ns3:atemp>27.0</ns3:atemp>
          </ns3:TrackPointExtension>
        </extensions>
      </trkpt>
      <trkpt lat="42.453000135719776153564453125" lon="20.19479163922369480133056640625">
        <ele>1235.5999755859375</ele>
        <time>2026-06-20T11:56:35.000Z</time>
        <extensions>
          <ns3:TrackPointExtension>
            <ns3:atemp>27.0</ns3:atemp>
          </ns3:TrackPointExtension>
        </extensions>
      </trkpt>
      <trkpt lat="42.45303307659924030303955078125" lon="20.1948383264243602752685546875">
        <ele>1235</ele>
        <time>2026-06-20T11:56:36.000Z</time>
        <extensions>
          <ns3:TrackPointExtension>
            <ns3:atemp>27.0</ns3:atemp>
          </ns3:TrackPointExtension>
        </extensions>
      </trkpt>
      <trkpt lat="42.45304497890174388885498046875" lon="20.1948963291943073272705078125">
        <ele>1234.5999755859375</ele>
        <time>2026-06-20T11:56:37.000Z</time>
        <extensions>
          <ns3:TrackPointExtension>
            <ns3:atemp>27.0</ns3:atemp>
          </ns3:TrackPointExtension>
        </extensions>
      </trkpt>
      <trkpt lat="42.453040368854999542236328125" lon="20.19494016654789447784423828125">
        <ele>1234.199951171875</ele>
        <time>2026-06-20T11:56:38.000Z</time>
        <extensions>
          <ns3:TrackPointExtension>
            <ns3:atemp>27.0</ns3:atemp>
          </ns3:TrackPointExtension>
        </extensions>
      </trkpt>
      <trkpt lat="42.4530234374105930328369140625" lon="20.1949677430093288421630859375">
        <ele>1234</ele>
        <time>2026-06-20T11:56:39.000Z</time>
        <extensions>
          <ns3:TrackPointExtension>
            <ns3:atemp>27.0</ns3:atemp>
          </ns3:TrackPointExtension>
        </extensions>
      </trkpt>
      <trkpt lat="42.453004159033298492431640625" lon="20.19500068388879299163818359375">
        <ele>1233.5999755859375</ele>
        <time>2026-06-20T11:56:40.000Z</time>
        <extensions>
          <ns3:TrackPointExtension>
            <ns3:atemp>27.0</ns3:atemp>
          </ns3:TrackPointExtension>
        </extensions>
      </trkpt>
      <trkpt lat="42.452978007495403289794921875" lon="20.19502985291182994842529296875">
        <ele>1233.4000244140625</ele>
        <time>2026-06-20T11:56:41.000Z</time>
        <extensions>
          <ns3:TrackPointExtension>
            <ns3:atemp>27.0</ns3:atemp>
          </ns3:TrackPointExtension>
        </extensions>
      </trkpt>
      <trkpt lat="42.45295110158622264862060546875" lon="20.195062458515167236328125">
        <ele>1233.199951171875</ele>
        <time>2026-06-20T11:56:42.000Z</time>
        <extensions>
          <ns3:TrackPointExtension>
            <ns3:atemp>27.0</ns3:atemp>
          </ns3:TrackPointExtension>
        </extensions>
      </trkpt>
      <trkpt lat="42.45292813517153263092041015625" lon="20.1950830779969692230224609375">
        <ele>1233</ele>
        <time>2026-06-20T11:56:43.000Z</time>
        <extensions>
          <ns3:TrackPointExtension>
            <ns3:atemp>27.0</ns3:atemp>
          </ns3:TrackPointExtension>
        </extensions>
      </trkpt>
      <trkpt lat="42.4529193341732025146484375" lon="20.1950881071388721466064453125">
        <ele>1232.800048828125</ele>
        <time>2026-06-20T11:56:44.000Z</time>
        <extensions>
          <ns3:TrackPointExtension>
            <ns3:atemp>27.0</ns3:atemp>
          </ns3:TrackPointExtension>
        </extensions>
      </trkpt>
      <trkpt lat="42.45290634222328662872314453125" lon="20.19509053789079189300537109375">
        <ele>1232.800048828125</ele>
        <time>2026-06-20T11:56:45.000Z</time>
        <extensions>
          <ns3:TrackPointExtension>
            <ns3:atemp>27.0</ns3:atemp>
          </ns3:TrackPointExtension>
        </extensions>
      </trkpt>
      <trkpt lat="42.45290667749941349029541015625" lon="20.19509254954755306243896484375">
        <ele>1232.800048828125</ele>
        <time>2026-06-20T11:56:46.000Z</time>
        <extensions>
          <ns3:TrackPointExtension>
            <ns3:atemp>27.0</ns3:atemp>
          </ns3:TrackPointExtension>
        </extensions>
      </trkpt>
      <trkpt lat="42.45290667749941349029541015625" lon="20.19509254954755306243896484375">
        <ele>1233</ele>
        <time>2026-06-20T11:56:47.000Z</time>
        <extensions>
          <ns3:TrackPointExtension>
            <ns3:atemp>27.0</ns3:atemp>
          </ns3:TrackPointExtension>
        </extensions>
      </trkpt>
      <trkpt lat="42.45290667749941349029541015625" lon="20.19509254954755306243896484375">
        <ele>1233.199951171875</ele>
        <time>2026-06-20T11:56:48.000Z</time>
        <extensions>
          <ns3:TrackPointExtension>
            <ns3:atemp>27.0</ns3:atemp>
          </ns3:TrackPointExtension>
        </extensions>
      </trkpt>
      <trkpt lat="42.45290667749941349029541015625" lon="20.19509254954755306243896484375">
        <ele>1233.199951171875</ele>
        <time>2026-06-20T11:56:49.000Z</time>
        <extensions>
          <ns3:TrackPointExtension>
            <ns3:atemp>27.0</ns3:atemp>
          </ns3:TrackPointExtension>
        </extensions>
      </trkpt>
      <trkpt lat="42.45290667749941349029541015625" lon="20.19509254954755306243896484375">
        <ele>1233.199951171875</ele>
        <time>2026-06-20T11:56:50.000Z</time>
        <extensions>
          <ns3:TrackPointExtension>
            <ns3:atemp>27.0</ns3:atemp>
          </ns3:TrackPointExtension>
        </extensions>
      </trkpt>
      <trkpt lat="42.45290667749941349029541015625" lon="20.19509254954755306243896484375">
        <ele>1233</ele>
        <time>2026-06-20T11:56:51.000Z</time>
        <extensions>
          <ns3:TrackPointExtension>
            <ns3:atemp>27.0</ns3:atemp>
          </ns3:TrackPointExtension>
        </extensions>
      </trkpt>
      <trkpt lat="42.45290667749941349029541015625" lon="20.19509254954755306243896484375">
        <ele>1233</ele>
        <time>2026-06-20T11:56:52.000Z</time>
        <extensions>
          <ns3:TrackPointExtension>
            <ns3:atemp>27.0</ns3:atemp>
          </ns3:TrackPointExtension>
        </extensions>
      </trkpt>
      <trkpt lat="42.45290667749941349029541015625" lon="20.19509254954755306243896484375">
        <ele>1233</ele>
        <time>2026-06-20T11:56:53.000Z</time>
        <extensions>
          <ns3:TrackPointExtension>
            <ns3:atemp>27.0</ns3:atemp>
          </ns3:TrackPointExtension>
        </extensions>
      </trkpt>
      <trkpt lat="42.45290667749941349029541015625" lon="20.19509254954755306243896484375">
        <ele>1232.800048828125</ele>
        <time>2026-06-20T11:56:54.000Z</time>
        <extensions>
          <ns3:TrackPointExtension>
            <ns3:atemp>27.0</ns3:atemp>
          </ns3:TrackPointExtension>
        </extensions>
      </trkpt>
      <trkpt lat="42.45290667749941349029541015625" lon="20.19509254954755306243896484375">
        <ele>1232.800048828125</ele>
        <time>2026-06-20T11:56:55.000Z</time>
        <extensions>
          <ns3:TrackPointExtension>
            <ns3:atemp>27.0</ns3:atemp>
          </ns3:TrackPointExtension>
        </extensions>
      </trkpt>
      <trkpt lat="42.45290667749941349029541015625" lon="20.19509254954755306243896484375">
        <ele>1232.800048828125</ele>
        <time>2026-06-20T11:56:56.000Z</time>
        <extensions>
          <ns3:TrackPointExtension>
            <ns3:atemp>27.0</ns3:atemp>
          </ns3:TrackPointExtension>
        </extensions>
      </trkpt>
      <trkpt lat="42.45290667749941349029541015625" lon="20.19509254954755306243896484375">
        <ele>1232.800048828125</ele>
        <time>2026-06-20T11:56:57.000Z</time>
        <extensions>
          <ns3:TrackPointExtension>
            <ns3:atemp>27.0</ns3:atemp>
          </ns3:TrackPointExtension>
        </extensions>
      </trkpt>
      <trkpt lat="42.45290667749941349029541015625" lon="20.19509254954755306243896484375">
        <ele>1232.800048828125</ele>
        <time>2026-06-20T11:56:58.000Z</time>
        <extensions>
          <ns3:TrackPointExtension>
            <ns3:atemp>27.0</ns3:atemp>
          </ns3:TrackPointExtension>
        </extensions>
      </trkpt>
      <trkpt lat="42.45290684513747692108154296875" lon="20.19509573467075824737548828125">
        <ele>1232.800048828125</ele>
        <time>2026-06-20T11:56:59.000Z</time>
        <extensions>
          <ns3:TrackPointExtension>
            <ns3:atemp>27.0</ns3:atemp>
          </ns3:TrackPointExtension>
        </extensions>
      </trkpt>
      <trkpt lat="42.45290583930909633636474609375" lon="20.1951035298407077789306640625">
        <ele>1232.800048828125</ele>
        <time>2026-06-20T11:57:00.000Z</time>
        <extensions>
          <ns3:TrackPointExtension>
            <ns3:atemp>27.0</ns3:atemp>
          </ns3:TrackPointExtension>
        </extensions>
      </trkpt>
      <trkpt lat="42.45290852151811122894287109375" lon="20.19511383958160877227783203125">
        <ele>1232.800048828125</ele>
        <time>2026-06-20T11:57:01.000Z</time>
        <extensions>
          <ns3:TrackPointExtension>
            <ns3:atemp>27.0</ns3:atemp>
          </ns3:TrackPointExtension>
        </extensions>
      </trkpt>
      <trkpt lat="42.4529086053371429443359375" lon="20.19511367194354534149169921875">
        <ele>1232.800048828125</ele>
        <time>2026-06-20T11:57:02.000Z</time>
        <extensions>
          <ns3:TrackPointExtension>
            <ns3:atemp>27.0</ns3:atemp>
          </ns3:TrackPointExtension>
        </extensions>
      </trkpt>
      <trkpt lat="42.4529086053371429443359375" lon="20.19511367194354534149169921875">
        <ele>1232.5999755859375</ele>
        <time>2026-06-20T11:57:03.000Z</time>
        <extensions>
          <ns3:TrackPointExtension>
            <ns3:atemp>27.0</ns3:atemp>
          </ns3:TrackPointExtension>
        </extensions>
      </trkpt>
      <trkpt lat="42.4529086053371429443359375" lon="20.19511367194354534149169921875">
        <ele>1232.5999755859375</ele>
        <time>2026-06-20T11:57:04.000Z</time>
        <extensions>
          <ns3:TrackPointExtension>
            <ns3:atemp>27.0</ns3:atemp>
          </ns3:TrackPointExtension>
        </extensions>
      </trkpt>
      <trkpt lat="42.4529086053371429443359375" lon="20.19511367194354534149169921875">
        <ele>1232.5999755859375</ele>
        <time>2026-06-20T11:57:05.000Z</time>
        <extensions>
          <ns3:TrackPointExtension>
            <ns3:atemp>27.0</ns3:atemp>
          </ns3:TrackPointExtension>
        </extensions>
      </trkpt>
      <trkpt lat="42.4529086053371429443359375" lon="20.1951129175722599029541015625">
        <ele>1232.5999755859375</ele>
        <time>2026-06-20T11:57:06.000Z</time>
        <extensions>
          <ns3:TrackPointExtension>
            <ns3:atemp>27.0</ns3:atemp>
          </ns3:TrackPointExtension>
        </extensions>
      </trkpt>
      <trkpt lat="42.4529081024229526519775390625" lon="20.19511434249579906463623046875">
        <ele>1232.4000244140625</ele>
        <time>2026-06-20T11:57:07.000Z</time>
        <extensions>
          <ns3:TrackPointExtension>
            <ns3:atemp>27.0</ns3:atemp>
          </ns3:TrackPointExtension>
        </extensions>
      </trkpt>
      <trkpt lat="42.45290701277554035186767578125" lon="20.19511484540998935699462890625">
        <ele>1232.4000244140625</ele>
        <time>2026-06-20T11:57:08.000Z</time>
        <extensions>
          <ns3:TrackPointExtension>
            <ns3:atemp>27.0</ns3:atemp>
          </ns3:TrackPointExtension>
        </extensions>
      </trkpt>
      <trkpt lat="42.4529086053371429443359375" lon="20.19511367194354534149169921875">
        <ele>1232.4000244140625</ele>
        <time>2026-06-20T11:57:09.000Z</time>
        <extensions>
          <ns3:TrackPointExtension>
            <ns3:atemp>27.0</ns3:atemp>
          </ns3:TrackPointExtension>
        </extensions>
      </trkpt>
      <trkpt lat="42.4529086053371429443359375" lon="20.19511367194354534149169921875">
        <ele>1232.4000244140625</ele>
        <time>2026-06-20T11:57:10.000Z</time>
        <extensions>
          <ns3:TrackPointExtension>
            <ns3:atemp>27.0</ns3:atemp>
          </ns3:TrackPointExtension>
        </extensions>
      </trkpt>
      <trkpt lat="42.4529086053371429443359375" lon="20.19511367194354534149169921875">
        <ele>1232.4000244140625</ele>
        <time>2026-06-20T11:57:11.000Z</time>
        <extensions>
          <ns3:TrackPointExtension>
            <ns3:atemp>27.0</ns3:atemp>
          </ns3:TrackPointExtension>
        </extensions>
      </trkpt>
      <trkpt lat="42.4529086053371429443359375" lon="20.19511367194354534149169921875">
        <ele>1232.4000244140625</ele>
        <time>2026-06-20T11:57:12.000Z</time>
        <extensions>
          <ns3:TrackPointExtension>
            <ns3:atemp>27.0</ns3:atemp>
          </ns3:TrackPointExtension>
        </extensions>
      </trkpt>
      <trkpt lat="42.4529086053371429443359375" lon="20.19511367194354534149169921875">
        <ele>1232.4000244140625</ele>
        <time>2026-06-20T11:57:13.000Z</time>
        <extensions>
          <ns3:TrackPointExtension>
            <ns3:atemp>27.0</ns3:atemp>
          </ns3:TrackPointExtension>
        </extensions>
      </trkpt>
      <trkpt lat="42.4529086053371429443359375" lon="20.19511367194354534149169921875">
        <ele>1232.4000244140625</ele>
        <time>2026-06-20T11:57:14.000Z</time>
        <extensions>
          <ns3:TrackPointExtension>
            <ns3:atemp>27.0</ns3:atemp>
          </ns3:TrackPointExtension>
        </extensions>
      </trkpt>
      <trkpt lat="42.4529086053371429443359375" lon="20.19511367194354534149169921875">
        <ele>1232.199951171875</ele>
        <time>2026-06-20T11:57:15.000Z</time>
        <extensions>
          <ns3:TrackPointExtension>
            <ns3:atemp>27.0</ns3:atemp>
          </ns3:TrackPointExtension>
        </extensions>
      </trkpt>
      <trkpt lat="42.4529086053371429443359375" lon="20.19511367194354534149169921875">
        <ele>1232.199951171875</ele>
        <time>2026-06-20T11:57:16.000Z</time>
        <extensions>
          <ns3:TrackPointExtension>
            <ns3:atemp>27.0</ns3:atemp>
          </ns3:TrackPointExtension>
        </extensions>
      </trkpt>
      <trkpt lat="42.4529020674526691436767578125" lon="20.19511274993419647216796875">
        <ele>1232.199951171875</ele>
        <time>2026-06-20T11:57:17.000Z</time>
        <extensions>
          <ns3:TrackPointExtension>
            <ns3:atemp>27.0</ns3:atemp>
          </ns3:TrackPointExtension>
        </extensions>
      </trkpt>
      <trkpt lat="42.45288723148405551910400390625" lon="20.195119120180606842041015625">
        <ele>1232.199951171875</ele>
        <time>2026-06-20T11:57:18.000Z</time>
        <extensions>
          <ns3:TrackPointExtension>
            <ns3:atemp>27.0</ns3:atemp>
          </ns3:TrackPointExtension>
        </extensions>
      </trkpt>
      <trkpt lat="42.45287147350609302520751953125" lon="20.1951313577592372894287109375">
        <ele>1232</ele>
        <time>2026-06-20T11:57:19.000Z</time>
        <extensions>
          <ns3:TrackPointExtension>
            <ns3:atemp>27.0</ns3:atemp>
          </ns3:TrackPointExtension>
        </extensions>
      </trkpt>
      <trkpt lat="42.4528621695935726165771484375" lon="20.1951447688043117523193359375">
        <ele>1232</ele>
        <time>2026-06-20T11:57:20.000Z</time>
        <extensions>
          <ns3:TrackPointExtension>
            <ns3:atemp>27.0</ns3:atemp>
          </ns3:TrackPointExtension>
        </extensions>
      </trkpt>
      <trkpt lat="42.45285320095717906951904296875" lon="20.19516044296324253082275390625">
        <ele>1231.800048828125</ele>
        <time>2026-06-20T11:57:21.000Z</time>
        <extensions>
          <ns3:TrackPointExtension>
            <ns3:atemp>27.0</ns3:atemp>
          </ns3:TrackPointExtension>
        </extensions>
      </trkpt>
      <trkpt lat="42.4528397060930728912353515625" lon="20.19517452456057071685791015625">
        <ele>1231.800048828125</ele>
        <time>2026-06-20T11:57:22.000Z</time>
        <extensions>
          <ns3:TrackPointExtension>
            <ns3:atemp>27.0</ns3:atemp>
          </ns3:TrackPointExtension>
        </extensions>
      </trkpt>
      <trkpt lat="42.4528308212757110595703125" lon="20.195192210376262664794921875">
        <ele>1231.5999755859375</ele>
        <time>2026-06-20T11:57:23.000Z</time>
        <extensions>
          <ns3:TrackPointExtension>
            <ns3:atemp>27.0</ns3:atemp>
          </ns3:TrackPointExtension>
        </extensions>
      </trkpt>
      <trkpt lat="42.45281917043030261993408203125" lon="20.195209980010986328125">
        <ele>1231.5999755859375</ele>
        <time>2026-06-20T11:57:24.000Z</time>
        <extensions>
          <ns3:TrackPointExtension>
            <ns3:atemp>27.0</ns3:atemp>
          </ns3:TrackPointExtension>
        </extensions>
      </trkpt>
      <trkpt lat="42.4528038315474987030029296875" lon="20.19523051567375659942626953125">
        <ele>1231.5999755859375</ele>
        <time>2026-06-20T11:57:25.000Z</time>
        <extensions>
          <ns3:TrackPointExtension>
            <ns3:atemp>27.0</ns3:atemp>
          </ns3:TrackPointExtension>
        </extensions>
      </trkpt>
      <trkpt lat="42.45278614573180675506591796875" lon="20.19524962641298770904541015625">
        <ele>1231.5999755859375</ele>
        <time>2026-06-20T11:57:26.000Z</time>
        <extensions>
          <ns3:TrackPointExtension>
            <ns3:atemp>27.0</ns3:atemp>
          </ns3:TrackPointExtension>
        </extensions>
      </trkpt>
      <trkpt lat="42.45277089066803455352783203125" lon="20.1952748559415340423583984375">
        <ele>1231.5999755859375</ele>
        <time>2026-06-20T11:57:27.000Z</time>
        <extensions>
          <ns3:TrackPointExtension>
            <ns3:atemp>27.0</ns3:atemp>
          </ns3:TrackPointExtension>
        </extensions>
      </trkpt>
      <trkpt lat="42.45275102555751800537109375" lon="20.195299498736858367919921875">
        <ele>1231.5999755859375</ele>
        <time>2026-06-20T11:57:28.000Z</time>
        <extensions>
          <ns3:TrackPointExtension>
            <ns3:atemp>27.0</ns3:atemp>
          </ns3:TrackPointExtension>
        </extensions>
      </trkpt>
      <trkpt lat="42.45273015461862087249755859375" lon="20.19532355479896068572998046875">
        <ele>1231.4000244140625</ele>
        <time>2026-06-20T11:57:29.000Z</time>
        <extensions>
          <ns3:TrackPointExtension>
            <ns3:atemp>27.0</ns3:atemp>
          </ns3:TrackPointExtension>
        </extensions>
      </trkpt>
      <trkpt lat="42.45270584709942340850830078125" lon="20.19534903578460216522216796875">
        <ele>1231.4000244140625</ele>
        <time>2026-06-20T11:57:30.000Z</time>
        <extensions>
          <ns3:TrackPointExtension>
            <ns3:atemp>27.0</ns3:atemp>
          </ns3:TrackPointExtension>
        </extensions>
      </trkpt>
      <trkpt lat="42.45268254540860652923583984375" lon="20.19537636078894138336181640625">
        <ele>1231.4000244140625</ele>
        <time>2026-06-20T11:57:31.000Z</time>
        <extensions>
          <ns3:TrackPointExtension>
            <ns3:atemp>27.0</ns3:atemp>
          </ns3:TrackPointExtension>
        </extensions>
      </trkpt>
      <trkpt lat="42.45265580713748931884765625" lon="20.1954072900116443634033203125">
        <ele>1231.199951171875</ele>
        <time>2026-06-20T11:57:32.000Z</time>
        <extensions>
          <ns3:TrackPointExtension>
            <ns3:atemp>27.0</ns3:atemp>
          </ns3:TrackPointExtension>
        </extensions>
      </trkpt>
      <trkpt lat="42.4526237882673740386962890625" lon="20.19543838687241077423095703125">
        <ele>1230.800048828125</ele>
        <time>2026-06-20T11:57:33.000Z</time>
        <extensions>
          <ns3:TrackPointExtension>
            <ns3:atemp>27.0</ns3:atemp>
          </ns3:TrackPointExtension>
        </extensions>
      </trkpt>
      <trkpt lat="42.4525922723114490509033203125" lon="20.19547308795154094696044921875">
        <ele>1230.5999755859375</ele>
        <time>2026-06-20T11:57:34.000Z</time>
        <extensions>
          <ns3:TrackPointExtension>
            <ns3:atemp>27.0</ns3:atemp>
          </ns3:TrackPointExtension>
        </extensions>
      </trkpt>
      <trkpt lat="42.4525580741465091705322265625" lon="20.1954983174800872802734375">
        <ele>1230.199951171875</ele>
        <time>2026-06-20T11:57:35.000Z</time>
        <extensions>
          <ns3:TrackPointExtension>
            <ns3:atemp>27.0</ns3:atemp>
          </ns3:TrackPointExtension>
        </extensions>
      </trkpt>
      <trkpt lat="42.45252127759158611297607421875" lon="20.1955263130366802215576171875">
        <ele>1229.5999755859375</ele>
        <time>2026-06-20T11:57:36.000Z</time>
        <extensions>
          <ns3:TrackPointExtension>
            <ns3:atemp>27.0</ns3:atemp>
          </ns3:TrackPointExtension>
        </extensions>
      </trkpt>
      <trkpt lat="42.45248355902731418609619140625" lon="20.19556679762899875640869140625">
        <ele>1229.199951171875</ele>
        <time>2026-06-20T11:57:37.000Z</time>
        <extensions>
          <ns3:TrackPointExtension>
            <ns3:atemp>27.0</ns3:atemp>
          </ns3:TrackPointExtension>
        </extensions>
      </trkpt>
      <trkpt lat="42.4524338543415069580078125" lon="20.19559931941330432891845703125">
        <ele>1228.5999755859375</ele>
        <time>2026-06-20T11:57:38.000Z</time>
        <extensions>
          <ns3:TrackPointExtension>
            <ns3:atemp>27.0</ns3:atemp>
          </ns3:TrackPointExtension>
        </extensions>
      </trkpt>
      <trkpt lat="42.45237811468541622161865234375" lon="20.1956299133598804473876953125">
        <ele>1228</ele>
        <time>2026-06-20T11:57:39.000Z</time>
        <extensions>
          <ns3:TrackPointExtension>
            <ns3:atemp>27.0</ns3:atemp>
          </ns3:TrackPointExtension>
        </extensions>
      </trkpt>
      <trkpt lat="42.4523206986486911773681640625" lon="20.19566419534385204315185546875">
        <ele>1227.4000244140625</ele>
        <time>2026-06-20T11:57:40.000Z</time>
        <extensions>
          <ns3:TrackPointExtension>
            <ns3:atemp>27.0</ns3:atemp>
          </ns3:TrackPointExtension>
        </extensions>
      </trkpt>
      <trkpt lat="42.4522673897445201873779296875" lon="20.19572588615119457244873046875">
        <ele>1226.800048828125</ele>
        <time>2026-06-20T11:57:41.000Z</time>
        <extensions>
          <ns3:TrackPointExtension>
            <ns3:atemp>27.0</ns3:atemp>
          </ns3:TrackPointExtension>
        </extensions>
      </trkpt>
      <trkpt lat="42.4522134102880954742431640625" lon="20.19579092971980571746826171875">
        <ele>1226.199951171875</ele>
        <time>2026-06-20T11:57:42.000Z</time>
        <extensions>
          <ns3:TrackPointExtension>
            <ns3:atemp>27.0</ns3:atemp>
          </ns3:TrackPointExtension>
        </extensions>
      </trkpt>
      <trkpt lat="42.4521885998547077178955078125" lon="20.19586385227739810943603515625">
        <ele>1225.800048828125</ele>
        <time>2026-06-20T11:57:43.000Z</time>
        <extensions>
          <ns3:TrackPointExtension>
            <ns3:atemp>27.0</ns3:atemp>
          </ns3:TrackPointExtension>
        </extensions>
      </trkpt>
      <trkpt lat="42.45217225514352321624755859375" lon="20.19593191333115100860595703125">
        <ele>1225.5999755859375</ele>
        <time>2026-06-20T11:57:44.000Z</time>
        <extensions>
          <ns3:TrackPointExtension>
            <ns3:atemp>27.0</ns3:atemp>
          </ns3:TrackPointExtension>
        </extensions>
      </trkpt>
      <trkpt lat="42.452161274850368499755859375" lon="20.19599880091845989227294921875">
        <ele>1225.5999755859375</ele>
        <time>2026-06-20T11:57:45.000Z</time>
        <extensions>
          <ns3:TrackPointExtension>
            <ns3:atemp>27.0</ns3:atemp>
          </ns3:TrackPointExtension>
        </extensions>
      </trkpt>
      <trkpt lat="42.45215465314686298370361328125" lon="20.196065939962863922119140625">
        <ele>1225.4000244140625</ele>
        <time>2026-06-20T11:57:46.000Z</time>
        <extensions>
          <ns3:TrackPointExtension>
            <ns3:atemp>27.0</ns3:atemp>
          </ns3:TrackPointExtension>
        </extensions>
      </trkpt>
      <trkpt lat="42.4521495401859283447265625" lon="20.19612721167504787445068359375">
        <ele>1225.4000244140625</ele>
        <time>2026-06-20T11:57:47.000Z</time>
        <extensions>
          <ns3:TrackPointExtension>
            <ns3:atemp>27.0</ns3:atemp>
          </ns3:TrackPointExtension>
        </extensions>
      </trkpt>
      <trkpt lat="42.45214476250112056732177734375" lon="20.19617632962763309478759765625">
        <ele>1225.5999755859375</ele>
        <time>2026-06-20T11:57:48.000Z</time>
        <extensions>
          <ns3:TrackPointExtension>
            <ns3:atemp>27.0</ns3:atemp>
          </ns3:TrackPointExtension>
        </extensions>
      </trkpt>
      <trkpt lat="42.45214073918759822845458984375" lon="20.19623131491243839263916015625">
        <ele>1225.5999755859375</ele>
        <time>2026-06-20T11:57:49.000Z</time>
        <extensions>
          <ns3:TrackPointExtension>
            <ns3:atemp>27.0</ns3:atemp>
          </ns3:TrackPointExtension>
        </extensions>
      </trkpt>
      <trkpt lat="42.4521275795996189117431640625" lon="20.19627490080893039703369140625">
        <ele>1225.5999755859375</ele>
        <time>2026-06-20T11:57:50.000Z</time>
        <extensions>
          <ns3:TrackPointExtension>
            <ns3:atemp>27.0</ns3:atemp>
          </ns3:TrackPointExtension>
        </extensions>
      </trkpt>
      <trkpt lat="42.4521161802113056182861328125" lon="20.19630993716418743133544921875">
        <ele>1225.5999755859375</ele>
        <time>2026-06-20T11:57:51.000Z</time>
        <extensions>
          <ns3:TrackPointExtension>
            <ns3:atemp>27.0</ns3:atemp>
          </ns3:TrackPointExtension>
        </extensions>
      </trkpt>
      <trkpt lat="42.45211257599294185638427734375" lon="20.19633986055850982666015625">
        <ele>1225.5999755859375</ele>
        <time>2026-06-20T11:57:52.000Z</time>
        <extensions>
          <ns3:TrackPointExtension>
            <ns3:atemp>27.0</ns3:atemp>
          </ns3:TrackPointExtension>
        </extensions>
      </trkpt>
      <trkpt lat="42.45211265981197357177734375" lon="20.1963688619434833526611328125">
        <ele>1225.5999755859375</ele>
        <time>2026-06-20T11:57:53.000Z</time>
        <extensions>
          <ns3:TrackPointExtension>
            <ns3:atemp>27.0</ns3:atemp>
          </ns3:TrackPointExtension>
        </extensions>
      </trkpt>
      <trkpt lat="42.45212246663868427276611328125" lon="20.19639124162495136260986328125">
        <ele>1225.5999755859375</ele>
        <time>2026-06-20T11:57:54.000Z</time>
        <extensions>
          <ns3:TrackPointExtension>
            <ns3:atemp>27.0</ns3:atemp>
          </ns3:TrackPointExtension>
        </extensions>
      </trkpt>
      <trkpt lat="42.4521173536777496337890625" lon="20.19642041064798831939697265625">
        <ele>1225.800048828125</ele>
        <time>2026-06-20T11:57:55.000Z</time>
        <extensions>
          <ns3:TrackPointExtension>
            <ns3:atemp>27.0</ns3:atemp>
          </ns3:TrackPointExtension>
        </extensions>
      </trkpt>
      <trkpt lat="42.45211257599294185638427734375" lon="20.19645175896584987640380859375">
        <ele>1225.800048828125</ele>
        <time>2026-06-20T11:57:56.000Z</time>
        <extensions>
          <ns3:TrackPointExtension>
            <ns3:atemp>27.0</ns3:atemp>
          </ns3:TrackPointExtension>
        </extensions>
      </trkpt>
      <trkpt lat="42.45211509056389331817626953125" lon="20.1964919082820415496826171875">
        <ele>1225.800048828125</ele>
        <time>2026-06-20T11:57:57.000Z</time>
        <extensions>
          <ns3:TrackPointExtension>
            <ns3:atemp>27.0</ns3:atemp>
          </ns3:TrackPointExtension>
        </extensions>
      </trkpt>
      <trkpt lat="42.45211131870746612548828125" lon="20.1965354941785335540771484375">
        <ele>1225.5999755859375</ele>
        <time>2026-06-20T11:57:58.000Z</time>
        <extensions>
          <ns3:TrackPointExtension>
            <ns3:atemp>27.0</ns3:atemp>
          </ns3:TrackPointExtension>
        </extensions>
      </trkpt>
      <trkpt lat="42.45210654102265834808349609375" lon="20.19657857716083526611328125">
        <ele>1225.4000244140625</ele>
        <time>2026-06-20T11:57:59.000Z</time>
        <extensions>
          <ns3:TrackPointExtension>
            <ns3:atemp>27.0</ns3:atemp>
          </ns3:TrackPointExtension>
        </extensions>
      </trkpt>
      <trkpt lat="42.45209648273885250091552734375" lon="20.19662358798086643218994140625">
        <ele>1225</ele>
        <time>2026-06-20T11:58:00.000Z</time>
        <extensions>
          <ns3:TrackPointExtension>
            <ns3:atemp>27.0</ns3:atemp>
          </ns3:TrackPointExtension>
        </extensions>
      </trkpt>
      <trkpt lat="42.45208173058927059173583984375" lon="20.19666935317218303680419921875">
        <ele>1224.800048828125</ele>
        <time>2026-06-20T11:58:01.000Z</time>
        <extensions>
          <ns3:TrackPointExtension>
            <ns3:atemp>27.0</ns3:atemp>
          </ns3:TrackPointExtension>
        </extensions>
      </trkpt>
      <trkpt lat="42.45206144638359546661376953125" lon="20.196716375648975372314453125">
        <ele>1224.5999755859375</ele>
        <time>2026-06-20T11:58:02.000Z</time>
        <extensions>
          <ns3:TrackPointExtension>
            <ns3:atemp>27.0</ns3:atemp>
          </ns3:TrackPointExtension>
        </extensions>
      </trkpt>
      <trkpt lat="42.45205339975655078887939453125" lon="20.1967551000416278839111328125">
        <ele>1224.4000244140625</ele>
        <time>2026-06-20T11:58:03.000Z</time>
        <extensions>
          <ns3:TrackPointExtension>
            <ns3:atemp>27.0</ns3:atemp>
          </ns3:TrackPointExtension>
        </extensions>
      </trkpt>
      <trkpt lat="42.4520266614854335784912109375" lon="20.19679583609104156494140625">
        <ele>1224.199951171875</ele>
        <time>2026-06-20T11:58:04.000Z</time>
        <extensions>
          <ns3:TrackPointExtension>
            <ns3:atemp>27.0</ns3:atemp>
          </ns3:TrackPointExtension>
        </extensions>
      </trkpt>
      <trkpt lat="42.45199556462466716766357421875" lon="20.19683196209371089935302734375">
        <ele>1224.199951171875</ele>
        <time>2026-06-20T11:58:05.000Z</time>
        <extensions>
          <ns3:TrackPointExtension>
            <ns3:atemp>27.0</ns3:atemp>
          </ns3:TrackPointExtension>
        </extensions>
      </trkpt>
      <trkpt lat="42.4519596062600612640380859375" lon="20.19685442559421062469482421875">
        <ele>1224.199951171875</ele>
        <time>2026-06-20T11:58:06.000Z</time>
        <extensions>
          <ns3:TrackPointExtension>
            <ns3:atemp>27.0</ns3:atemp>
          </ns3:TrackPointExtension>
        </extensions>
      </trkpt>
      <trkpt lat="42.451920546591281890869140625" lon="20.19687605090439319610595703125">
        <ele>1224</ele>
        <time>2026-06-20T11:58:07.000Z</time>
        <extensions>
          <ns3:TrackPointExtension>
            <ns3:atemp>27.0</ns3:atemp>
          </ns3:TrackPointExtension>
        </extensions>
      </trkpt>
      <trkpt lat="42.451879642903804779052734375" lon="20.19690287299454212188720703125">
        <ele>1223.800048828125</ele>
        <time>2026-06-20T11:58:08.000Z</time>
        <extensions>
          <ns3:TrackPointExtension>
            <ns3:atemp>27.0</ns3:atemp>
          </ns3:TrackPointExtension>
        </extensions>
      </trkpt>
      <trkpt lat="42.4518405832350254058837890625" lon="20.1969260908663272857666015625">
        <ele>1223.4000244140625</ele>
        <time>2026-06-20T11:58:09.000Z</time>
        <extensions>
          <ns3:TrackPointExtension>
            <ns3:atemp>27.0</ns3:atemp>
          </ns3:TrackPointExtension>
        </extensions>
      </trkpt>
      <trkpt lat="42.45180177502334117889404296875" lon="20.1969626359641551971435546875">
        <ele>1223.199951171875</ele>
        <time>2026-06-20T11:58:10.000Z</time>
        <extensions>
          <ns3:TrackPointExtension>
            <ns3:atemp>27.0</ns3:atemp>
          </ns3:TrackPointExtension>
        </extensions>
      </trkpt>
      <trkpt lat="42.45176254771649837493896484375" lon="20.19701451994478702545166015625">
        <ele>1222.4000244140625</ele>
        <time>2026-06-20T11:58:11.000Z</time>
        <extensions>
          <ns3:TrackPointExtension>
            <ns3:atemp>27.0</ns3:atemp>
          </ns3:TrackPointExtension>
        </extensions>
      </trkpt>
      <trkpt lat="42.4517259187996387481689453125" lon="20.19709984771907329559326171875">
        <ele>1221.5999755859375</ele>
        <time>2026-06-20T11:58:12.000Z</time>
        <extensions>
          <ns3:TrackPointExtension>
            <ns3:atemp>27.0</ns3:atemp>
          </ns3:TrackPointExtension>
        </extensions>
      </trkpt>
      <trkpt lat="42.45169582776725292205810546875" lon="20.19718299619853496551513671875">
        <ele>1221</ele>
        <time>2026-06-20T11:58:13.000Z</time>
        <extensions>
          <ns3:TrackPointExtension>
            <ns3:atemp>27.0</ns3:atemp>
          </ns3:TrackPointExtension>
        </extensions>
      </trkpt>
      <trkpt lat="42.45166950859129428863525390625" lon="20.19727234728634357452392578125">
        <ele>1220.199951171875</ele>
        <time>2026-06-20T11:58:14.000Z</time>
        <extensions>
          <ns3:TrackPointExtension>
            <ns3:atemp>27.0</ns3:atemp>
          </ns3:TrackPointExtension>
        </extensions>
      </trkpt>
      <trkpt lat="42.4516313709318637847900390625" lon="20.19736354239284992218017578125">
        <ele>1219.4000244140625</ele>
        <time>2026-06-20T11:58:15.000Z</time>
        <extensions>
          <ns3:TrackPointExtension>
            <ns3:atemp>27.0</ns3:atemp>
          </ns3:TrackPointExtension>
        </extensions>
      </trkpt>
      <trkpt lat="42.45159692130982875823974609375" lon="20.1974397338926792144775390625">
        <ele>1218.5999755859375</ele>
        <time>2026-06-20T11:58:16.000Z</time>
        <extensions>
          <ns3:TrackPointExtension>
            <ns3:atemp>27.0</ns3:atemp>
          </ns3:TrackPointExtension>
        </extensions>
      </trkpt>
      <trkpt lat="42.45155367068946361541748046875" lon="20.19751944579184055328369140625">
        <ele>1218</ele>
        <time>2026-06-20T11:58:17.000Z</time>
        <extensions>
          <ns3:TrackPointExtension>
            <ns3:atemp>27.0</ns3:atemp>
          </ns3:TrackPointExtension>
        </extensions>
      </trkpt>
      <trkpt lat="42.4515086598694324493408203125" lon="20.1975681446492671966552734375">
        <ele>1217.4000244140625</ele>
        <time>2026-06-20T11:58:18.000Z</time>
        <extensions>
          <ns3:TrackPointExtension>
            <ns3:atemp>27.0</ns3:atemp>
          </ns3:TrackPointExtension>
        </extensions>
      </trkpt>
      <trkpt lat="42.4514607153832912445068359375" lon="20.1976080425083637237548828125">
        <ele>1217</ele>
        <time>2026-06-20T11:58:19.000Z</time>
        <extensions>
          <ns3:TrackPointExtension>
            <ns3:atemp>27.0</ns3:atemp>
          </ns3:TrackPointExtension>
        </extensions>
      </trkpt>
      <trkpt lat="42.4514087475836277008056640625" lon="20.19763796590268611907958984375">
        <ele>1216.5999755859375</ele>
        <time>2026-06-20T11:58:20.000Z</time>
        <extensions>
          <ns3:TrackPointExtension>
            <ns3:atemp>27.0</ns3:atemp>
          </ns3:TrackPointExtension>
        </extensions>
      </trkpt>
      <trkpt lat="42.45135753415524959564208984375" lon="20.19764450378715991973876953125">
        <ele>1216</ele>
        <time>2026-06-20T11:58:21.000Z</time>
        <extensions>
          <ns3:TrackPointExtension>
            <ns3:atemp>27.0</ns3:atemp>
          </ns3:TrackPointExtension>
        </extensions>
      </trkpt>
      <trkpt lat="42.4513085000216960906982421875" lon="20.19761919043958187103271484375">
        <ele>1215.5999755859375</ele>
        <time>2026-06-20T11:58:22.000Z</time>
        <extensions>
          <ns3:TrackPointExtension>
            <ns3:atemp>27.0</ns3:atemp>
          </ns3:TrackPointExtension>
        </extensions>
      </trkpt>
      <trkpt lat="42.4512684345245361328125" lon="20.1975917816162109375">
        <ele>1215</ele>
        <time>2026-06-20T11:58:23.000Z</time>
        <extensions>
          <ns3:TrackPointExtension>
            <ns3:atemp>27.0</ns3:atemp>
          </ns3:TrackPointExtension>
        </extensions>
      </trkpt>
      <trkpt lat="42.45122929103672504425048828125" lon="20.19753721542656421661376953125">
        <ele>1214.199951171875</ele>
        <time>2026-06-20T11:58:24.000Z</time>
        <extensions>
          <ns3:TrackPointExtension>
            <ns3:atemp>27.0</ns3:atemp>
          </ns3:TrackPointExtension>
        </extensions>
      </trkpt>
      <trkpt lat="42.4511784128844738006591796875" lon="20.1974742673337459564208984375">
        <ele>1213.4000244140625</ele>
        <time>2026-06-20T11:58:25.000Z</time>
        <extensions>
          <ns3:TrackPointExtension>
            <ns3:atemp>27.0</ns3:atemp>
          </ns3:TrackPointExtension>
        </extensions>
      </trkpt>
      <trkpt lat="42.45112158358097076416015625" lon="20.1974192820489406585693359375">
        <ele>1212</ele>
        <time>2026-06-20T11:58:26.000Z</time>
        <extensions>
          <ns3:TrackPointExtension>
            <ns3:atemp>27.0</ns3:atemp>
          </ns3:TrackPointExtension>
        </extensions>
      </trkpt>
      <trkpt lat="42.45106249116361141204833984375" lon="20.1973780430853366851806640625">
        <ele>1211</ele>
        <time>2026-06-20T11:58:27.000Z</time>
        <extensions>
          <ns3:TrackPointExtension>
            <ns3:atemp>27.0</ns3:atemp>
          </ns3:TrackPointExtension>
        </extensions>
      </trkpt>
      <trkpt lat="42.45100515894591808319091796875" lon="20.19735239446163177490234375">
        <ele>1209.800048828125</ele>
        <time>2026-06-20T11:58:28.000Z</time>
        <extensions>
          <ns3:TrackPointExtension>
            <ns3:atemp>27.0</ns3:atemp>
          </ns3:TrackPointExtension>
        </extensions>
      </trkpt>
      <trkpt lat="42.45094933547079563140869140625" lon="20.197350718080997467041015625">
        <ele>1209</ele>
        <time>2026-06-20T11:58:29.000Z</time>
        <extensions>
          <ns3:TrackPointExtension>
            <ns3:atemp>27.0</ns3:atemp>
          </ns3:TrackPointExtension>
        </extensions>
      </trkpt>
      <trkpt lat="42.4508967809379100799560546875" lon="20.19735164009034633636474609375">
        <ele>1208.199951171875</ele>
        <time>2026-06-20T11:58:30.000Z</time>
        <extensions>
          <ns3:TrackPointExtension>
            <ns3:atemp>27.0</ns3:atemp>
          </ns3:TrackPointExtension>
        </extensions>
      </trkpt>
      <trkpt lat="42.45084791444242000579833984375" lon="20.19735331647098064422607421875">
        <ele>1207.4000244140625</ele>
        <time>2026-06-20T11:58:31.000Z</time>
        <extensions>
          <ns3:TrackPointExtension>
            <ns3:atemp>27.0</ns3:atemp>
          </ns3:TrackPointExtension>
        </extensions>
      </trkpt>
      <trkpt lat="42.45079091750085353851318359375" lon="20.197348706424236297607421875">
        <ele>1206.5999755859375</ele>
        <time>2026-06-20T11:58:32.000Z</time>
        <extensions>
          <ns3:TrackPointExtension>
            <ns3:atemp>27.0</ns3:atemp>
          </ns3:TrackPointExtension>
        </extensions>
      </trkpt>
      <trkpt lat="42.4507226049900054931640625" lon="20.19734392873942852020263671875">
        <ele>1205.800048828125</ele>
        <time>2026-06-20T11:58:33.000Z</time>
        <extensions>
          <ns3:TrackPointExtension>
            <ns3:atemp>27.0</ns3:atemp>
          </ns3:TrackPointExtension>
        </extensions>
      </trkpt>
      <trkpt lat="42.45067155919969081878662109375" lon="20.197378210723400115966796875">
        <ele>1205.199951171875</ele>
        <time>2026-06-20T11:58:34.000Z</time>
        <extensions>
          <ns3:TrackPointExtension>
            <ns3:atemp>27.0</ns3:atemp>
          </ns3:TrackPointExtension>
        </extensions>
      </trkpt>
      <trkpt lat="42.45062948204576969146728515625" lon="20.197421796619892120361328125">
        <ele>1204.5999755859375</ele>
        <time>2026-06-20T11:58:35.000Z</time>
        <extensions>
          <ns3:TrackPointExtension>
            <ns3:atemp>27.0</ns3:atemp>
          </ns3:TrackPointExtension>
        </extensions>
      </trkpt>
      <trkpt lat="42.45058723725378513336181640625" lon="20.197472088038921356201171875">
        <ele>1203.5999755859375</ele>
        <time>2026-06-20T11:58:36.000Z</time>
        <extensions>
          <ns3:TrackPointExtension>
            <ns3:atemp>27.0</ns3:atemp>
          </ns3:TrackPointExtension>
        </extensions>
      </trkpt>
      <trkpt lat="42.450531832873821258544921875" lon="20.19753268919885158538818359375">
        <ele>1202.5999755859375</ele>
        <time>2026-06-20T11:58:37.000Z</time>
        <extensions>
          <ns3:TrackPointExtension>
            <ns3:atemp>27.0</ns3:atemp>
          </ns3:TrackPointExtension>
        </extensions>
      </trkpt>
      <trkpt lat="42.45048413984477519989013671875" lon="20.1976011693477630615234375">
        <ele>1201.5999755859375</ele>
        <time>2026-06-20T11:58:38.000Z</time>
        <extensions>
          <ns3:TrackPointExtension>
            <ns3:atemp>27.0</ns3:atemp>
          </ns3:TrackPointExtension>
        </extensions>
      </trkpt>
      <trkpt lat="42.4504314176738262176513671875" lon="20.19766445271670818328857421875">
        <ele>1200.4000244140625</ele>
        <time>2026-06-20T11:58:39.000Z</time>
        <extensions>
          <ns3:TrackPointExtension>
            <ns3:atemp>27.0</ns3:atemp>
          </ns3:TrackPointExtension>
        </extensions>
      </trkpt>
      <trkpt lat="42.4503891728818416595458984375" lon="20.19772781990468502044677734375">
        <ele>1199.199951171875</ele>
        <time>2026-06-20T11:58:40.000Z</time>
        <extensions>
          <ns3:TrackPointExtension>
            <ns3:atemp>27.0</ns3:atemp>
          </ns3:TrackPointExtension>
        </extensions>
      </trkpt>
      <trkpt lat="42.4503442458808422088623046875" lon="20.1977917738258838653564453125">
        <ele>1197.800048828125</ele>
        <time>2026-06-20T11:58:41.000Z</time>
        <extensions>
          <ns3:TrackPointExtension>
            <ns3:atemp>27.0</ns3:atemp>
          </ns3:TrackPointExtension>
        </extensions>
      </trkpt>
      <trkpt lat="42.4502919428050518035888671875" lon="20.19784533418715000152587890625">
        <ele>1196.5999755859375</ele>
        <time>2026-06-20T11:58:42.000Z</time>
        <extensions>
          <ns3:TrackPointExtension>
            <ns3:atemp>27.0</ns3:atemp>
          </ns3:TrackPointExtension>
        </extensions>
      </trkpt>
      <trkpt lat="42.4502371251583099365234375" lon="20.1978859864175319671630859375">
        <ele>1195.5999755859375</ele>
        <time>2026-06-20T11:58:43.000Z</time>
        <extensions>
          <ns3:TrackPointExtension>
            <ns3:atemp>27.0</ns3:atemp>
          </ns3:TrackPointExtension>
        </extensions>
      </trkpt>
      <trkpt lat="42.45018071494996547698974609375" lon="20.1979255490005016326904296875">
        <ele>1194.4000244140625</ele>
        <time>2026-06-20T11:58:44.000Z</time>
        <extensions>
          <ns3:TrackPointExtension>
            <ns3:atemp>27.0</ns3:atemp>
          </ns3:TrackPointExtension>
        </extensions>
      </trkpt>
      <trkpt lat="42.45011533610522747039794921875" lon="20.19795279018580913543701171875">
        <ele>1193</ele>
        <time>2026-06-20T11:58:45.000Z</time>
        <extensions>
          <ns3:TrackPointExtension>
            <ns3:atemp>27.0</ns3:atemp>
          </ns3:TrackPointExtension>
        </extensions>
      </trkpt>
      <trkpt lat="42.45005674660205841064453125" lon="20.197973661124706268310546875">
        <ele>1191.4000244140625</ele>
        <time>2026-06-20T11:58:46.000Z</time>
        <extensions>
          <ns3:TrackPointExtension>
            <ns3:atemp>27.0</ns3:atemp>
          </ns3:TrackPointExtension>
        </extensions>
      </trkpt>
      <trkpt lat="42.45000980794429779052734375" lon="20.19801582209765911102294921875">
        <ele>1190.199951171875</ele>
        <time>2026-06-20T11:58:47.000Z</time>
        <extensions>
          <ns3:TrackPointExtension>
            <ns3:atemp>27.0</ns3:atemp>
          </ns3:TrackPointExtension>
        </extensions>
      </trkpt>
      <trkpt lat="42.44998105801641941070556640625" lon="20.19806443713605403900146484375">
        <ele>1189</ele>
        <time>2026-06-20T11:58:48.000Z</time>
        <extensions>
          <ns3:TrackPointExtension>
            <ns3:atemp>27.0</ns3:atemp>
          </ns3:TrackPointExtension>
        </extensions>
      </trkpt>
      <trkpt lat="42.44995071552693843841552734375" lon="20.1981015689671039581298828125">
        <ele>1187.800048828125</ele>
        <time>2026-06-20T11:58:49.000Z</time>
        <extensions>
          <ns3:TrackPointExtension>
            <ns3:atemp>27.0</ns3:atemp>
          </ns3:TrackPointExtension>
        </extensions>
      </trkpt>
      <trkpt lat="42.44991266168653964996337890625" lon="20.1981402933597564697265625">
        <ele>1187</ele>
        <time>2026-06-20T11:58:50.000Z</time>
        <extensions>
          <ns3:TrackPointExtension>
            <ns3:atemp>27.0</ns3:atemp>
          </ns3:TrackPointExtension>
        </extensions>
      </trkpt>
      <trkpt lat="42.449869997799396514892578125" lon="20.19817038439214229583740234375">
        <ele>1185.800048828125</ele>
        <time>2026-06-20T11:58:51.000Z</time>
        <extensions>
          <ns3:TrackPointExtension>
            <ns3:atemp>27.0</ns3:atemp>
          </ns3:TrackPointExtension>
        </extensions>
      </trkpt>
      <trkpt lat="42.44982649572193622589111328125" lon="20.19820391200482845306396484375">
        <ele>1185</ele>
        <time>2026-06-20T11:58:52.000Z</time>
        <extensions>
          <ns3:TrackPointExtension>
            <ns3:atemp>27.0</ns3:atemp>
          </ns3:TrackPointExtension>
        </extensions>
      </trkpt>
      <trkpt lat="42.44979732669889926910400390625" lon="20.19821447320282459259033203125">
        <ele>1184.199951171875</ele>
        <time>2026-06-20T11:58:53.000Z</time>
        <extensions>
          <ns3:TrackPointExtension>
            <ns3:atemp>27.0</ns3:atemp>
          </ns3:TrackPointExtension>
        </extensions>
      </trkpt>
      <trkpt lat="42.449770085513591766357421875" lon="20.19822168163955211639404296875">
        <ele>1183.800048828125</ele>
        <time>2026-06-20T11:58:54.000Z</time>
        <extensions>
          <ns3:TrackPointExtension>
            <ns3:atemp>27.0</ns3:atemp>
          </ns3:TrackPointExtension>
        </extensions>
      </trkpt>
      <trkpt lat="42.449744604527950286865234375" lon="20.19822947680950164794921875">
        <ele>1183.199951171875</ele>
        <time>2026-06-20T11:58:55.000Z</time>
        <extensions>
          <ns3:TrackPointExtension>
            <ns3:atemp>27.0</ns3:atemp>
          </ns3:TrackPointExtension>
        </extensions>
      </trkpt>
      <trkpt lat="42.44972557760775089263916015625" lon="20.19824464805424213409423828125">
        <ele>1182.800048828125</ele>
        <time>2026-06-20T11:58:56.000Z</time>
        <extensions>
          <ns3:TrackPointExtension>
            <ns3:atemp>27.0</ns3:atemp>
          </ns3:TrackPointExtension>
        </extensions>
      </trkpt>
      <trkpt lat="42.4497122503817081451416015625" lon="20.198259651660919189453125">
        <ele>1182.4000244140625</ele>
        <time>2026-06-20T11:58:57.000Z</time>
        <extensions>
          <ns3:TrackPointExtension>
            <ns3:atemp>27.0</ns3:atemp>
          </ns3:TrackPointExtension>
        </extensions>
      </trkpt>
      <trkpt lat="42.44970143772661685943603515625" lon="20.19827465526759624481201171875">
        <ele>1182.199951171875</ele>
        <time>2026-06-20T11:58:58.000Z</time>
        <extensions>
          <ns3:TrackPointExtension>
            <ns3:atemp>27.0</ns3:atemp>
          </ns3:TrackPointExtension>
        </extensions>
      </trkpt>
      <trkpt lat="42.44969087652862071990966796875" lon="20.19828689284622669219970703125">
        <ele>1181.800048828125</ele>
        <time>2026-06-20T11:58:59.000Z</time>
        <extensions>
          <ns3:TrackPointExtension>
            <ns3:atemp>27.0</ns3:atemp>
          </ns3:TrackPointExtension>
        </extensions>
      </trkpt>
      <trkpt lat="42.44967930950224399566650390625" lon="20.198298208415508270263671875">
        <ele>1181.5999755859375</ele>
        <time>2026-06-20T11:59:00.000Z</time>
        <extensions>
          <ns3:TrackPointExtension>
            <ns3:atemp>27.0</ns3:atemp>
          </ns3:TrackPointExtension>
        </extensions>
      </trkpt>
      <trkpt lat="42.44966405443847179412841796875" lon="20.19830550067126750946044921875">
        <ele>1181.4000244140625</ele>
        <time>2026-06-20T11:59:01.000Z</time>
        <extensions>
          <ns3:TrackPointExtension>
            <ns3:atemp>27.0</ns3:atemp>
          </ns3:TrackPointExtension>
        </extensions>
      </trkpt>
      <trkpt lat="42.449654079973697662353515625" lon="20.1983272098004817962646484375">
        <ele>1181</ele>
        <time>2026-06-20T11:59:02.000Z</time>
        <extensions>
          <ns3:TrackPointExtension>
            <ns3:atemp>27.0</ns3:atemp>
          </ns3:TrackPointExtension>
        </extensions>
      </trkpt>
      <trkpt lat="42.4496431834995746612548828125" lon="20.19835428334772586822509765625">
        <ele>1180.800048828125</ele>
        <time>2026-06-20T11:59:03.000Z</time>
        <extensions>
          <ns3:TrackPointExtension>
            <ns3:atemp>27.0</ns3:atemp>
          </ns3:TrackPointExtension>
        </extensions>
      </trkpt>
      <trkpt lat="42.4496363103389739990234375" lon="20.19838512875139713287353515625">
        <ele>1180.5999755859375</ele>
        <time>2026-06-20T11:59:04.000Z</time>
        <extensions>
          <ns3:TrackPointExtension>
            <ns3:atemp>27.0</ns3:atemp>
          </ns3:TrackPointExtension>
        </extensions>
      </trkpt>
      <trkpt lat="42.44963270612061023712158203125" lon="20.19841195084154605865478515625">
        <ele>1180.4000244140625</ele>
        <time>2026-06-20T11:59:05.000Z</time>
        <extensions>
          <ns3:TrackPointExtension>
            <ns3:atemp>27.0</ns3:atemp>
          </ns3:TrackPointExtension>
        </extensions>
      </trkpt>
      <trkpt lat="42.44963102973997592926025390625" lon="20.19843575544655323028564453125">
        <ele>1180.199951171875</ele>
        <time>2026-06-20T11:59:06.000Z</time>
        <extensions>
          <ns3:TrackPointExtension>
            <ns3:atemp>27.0</ns3:atemp>
          </ns3:TrackPointExtension>
        </extensions>
      </trkpt>
      <trkpt lat="42.4496280960738658905029296875" lon="20.1984623260796070098876953125">
        <ele>1180</ele>
        <time>2026-06-20T11:59:07.000Z</time>
        <extensions>
          <ns3:TrackPointExtension>
            <ns3:atemp>27.0</ns3:atemp>
          </ns3:TrackPointExtension>
        </extensions>
      </trkpt>
      <trkpt lat="42.44962499476969242095947265625" lon="20.19849711097776889801025390625">
        <ele>1180</ele>
        <time>2026-06-20T11:59:08.000Z</time>
        <extensions>
          <ns3:TrackPointExtension>
            <ns3:atemp>27.0</ns3:atemp>
          </ns3:TrackPointExtension>
        </extensions>
      </trkpt>
      <trkpt lat="42.4496180377900600433349609375" lon="20.19852661527693271636962890625">
        <ele>1179.800048828125</ele>
        <time>2026-06-20T11:59:09.000Z</time>
        <extensions>
          <ns3:TrackPointExtension>
            <ns3:atemp>27.0</ns3:atemp>
          </ns3:TrackPointExtension>
        </extensions>
      </trkpt>
      <trkpt lat="42.449613846838474273681640625" lon="20.1985582150518894195556640625">
        <ele>1179.5999755859375</ele>
        <time>2026-06-20T11:59:10.000Z</time>
        <extensions>
          <ns3:TrackPointExtension>
            <ns3:atemp>27.0</ns3:atemp>
          </ns3:TrackPointExtension>
        </extensions>
      </trkpt>
      <trkpt lat="42.44961393065750598907470703125" lon="20.1985904015600681304931640625">
        <ele>1179.4000244140625</ele>
        <time>2026-06-20T11:59:11.000Z</time>
        <extensions>
          <ns3:TrackPointExtension>
            <ns3:atemp>27.0</ns3:atemp>
          </ns3:TrackPointExtension>
        </extensions>
      </trkpt>
      <trkpt lat="42.44960554875433444976806640625" lon="20.19861697219312191009521484375">
        <ele>1179.199951171875</ele>
        <time>2026-06-20T11:59:12.000Z</time>
        <extensions>
          <ns3:TrackPointExtension>
            <ns3:atemp>27.0</ns3:atemp>
          </ns3:TrackPointExtension>
        </extensions>
      </trkpt>
      <trkpt lat="42.4495962448418140411376953125" lon="20.19864882342517375946044921875">
        <ele>1179</ele>
        <time>2026-06-20T11:59:13.000Z</time>
        <extensions>
          <ns3:TrackPointExtension>
            <ns3:atemp>27.0</ns3:atemp>
          </ns3:TrackPointExtension>
        </extensions>
      </trkpt>
      <trkpt lat="42.44958442635834217071533203125" lon="20.19868545234203338623046875">
        <ele>1178.800048828125</ele>
        <time>2026-06-20T11:59:14.000Z</time>
        <extensions>
          <ns3:TrackPointExtension>
            <ns3:atemp>27.0</ns3:atemp>
          </ns3:TrackPointExtension>
        </extensions>
      </trkpt>
      <trkpt lat="42.44956967420876026153564453125" lon="20.19872845150530338287353515625">
        <ele>1178.5999755859375</ele>
        <time>2026-06-20T11:59:15.000Z</time>
        <extensions>
          <ns3:TrackPointExtension>
            <ns3:atemp>27.0</ns3:atemp>
          </ns3:TrackPointExtension>
        </extensions>
      </trkpt>
      <trkpt lat="42.4495603702962398529052734375" lon="20.19877530634403228759765625">
        <ele>1178.199951171875</ele>
        <time>2026-06-20T11:59:16.000Z</time>
        <extensions>
          <ns3:TrackPointExtension>
            <ns3:atemp>27.0</ns3:atemp>
          </ns3:TrackPointExtension>
        </extensions>
      </trkpt>
      <trkpt lat="42.44955006055533885955810546875" lon="20.19882735796272754669189453125">
        <ele>1177.5999755859375</ele>
        <time>2026-06-20T11:59:17.000Z</time>
        <extensions>
          <ns3:TrackPointExtension>
            <ns3:atemp>27.0</ns3:atemp>
          </ns3:TrackPointExtension>
        </extensions>
      </trkpt>
      <trkpt lat="42.44953463785350322723388671875" lon="20.198872201144695281982421875">
        <ele>1177</ele>
        <time>2026-06-20T11:59:18.000Z</time>
        <extensions>
          <ns3:TrackPointExtension>
            <ns3:atemp>27.0</ns3:atemp>
          </ns3:TrackPointExtension>
        </extensions>
      </trkpt>
      <trkpt lat="42.4495191313326358795166015625" lon="20.1989149488508701324462890625">
        <ele>1176.4000244140625</ele>
        <time>2026-06-20T11:59:19.000Z</time>
        <extensions>
          <ns3:TrackPointExtension>
            <ns3:atemp>27.0</ns3:atemp>
          </ns3:TrackPointExtension>
        </extensions>
      </trkpt>
      <trkpt lat="42.4495057202875614166259765625" lon="20.19895710982382297515869140625">
        <ele>1175.5999755859375</ele>
        <time>2026-06-20T11:59:20.000Z</time>
        <extensions>
          <ns3:TrackPointExtension>
            <ns3:atemp>27.0</ns3:atemp>
          </ns3:TrackPointExtension>
        </extensions>
      </trkpt>
      <trkpt lat="42.4494866095483303070068359375" lon="20.19899901933968067169189453125">
        <ele>1174.800048828125</ele>
        <time>2026-06-20T11:59:21.000Z</time>
        <extensions>
          <ns3:TrackPointExtension>
            <ns3:atemp>26.0</ns3:atemp>
          </ns3:TrackPointExtension>
        </extensions>
      </trkpt>
      <trkpt lat="42.4494638107717037200927734375" lon="20.19903405569493770599365234375">
        <ele>1174</ele>
        <time>2026-06-20T11:59:22.000Z</time>
        <extensions>
          <ns3:TrackPointExtension>
            <ns3:atemp>27.0</ns3:atemp>
          </ns3:TrackPointExtension>
        </extensions>
      </trkpt>
      <trkpt lat="42.44943623431026935577392578125" lon="20.19907462410628795623779296875">
        <ele>1173.199951171875</ele>
        <time>2026-06-20T11:59:23.000Z</time>
        <extensions>
          <ns3:TrackPointExtension>
            <ns3:atemp>27.0</ns3:atemp>
          </ns3:TrackPointExtension>
        </extensions>
      </trkpt>
      <trkpt lat="42.44941075332462787628173828125" lon="20.19910362549126148223876953125">
        <ele>1172.5999755859375</ele>
        <time>2026-06-20T11:59:24.000Z</time>
        <extensions>
          <ns3:TrackPointExtension>
            <ns3:atemp>26.0</ns3:atemp>
          </ns3:TrackPointExtension>
        </extensions>
      </trkpt>
      <trkpt lat="42.449387200176715850830078125" lon="20.19913078285753726959228515625">
        <ele>1172.199951171875</ele>
        <time>2026-06-20T11:59:25.000Z</time>
        <extensions>
          <ns3:TrackPointExtension>
            <ns3:atemp>26.0</ns3:atemp>
          </ns3:TrackPointExtension>
        </extensions>
      </trkpt>
      <trkpt lat="42.44936917908489704132080078125" lon="20.1991650648415088653564453125">
        <ele>1171.800048828125</ele>
        <time>2026-06-20T11:59:26.000Z</time>
        <extensions>
          <ns3:TrackPointExtension>
            <ns3:atemp>26.0</ns3:atemp>
          </ns3:TrackPointExtension>
        </extensions>
      </trkpt>
      <trkpt lat="42.4493514932692050933837890625" lon="20.1992046274244785308837890625">
        <ele>1171.4000244140625</ele>
        <time>2026-06-20T11:59:27.000Z</time>
        <extensions>
          <ns3:TrackPointExtension>
            <ns3:atemp>26.0</ns3:atemp>
          </ns3:TrackPointExtension>
        </extensions>
      </trkpt>
      <trkpt lat="42.44933045469224452972412109375" lon="20.19924947060644626617431640625">
        <ele>1171</ele>
        <time>2026-06-20T11:59:28.000Z</time>
        <extensions>
          <ns3:TrackPointExtension>
            <ns3:atemp>26.0</ns3:atemp>
          </ns3:TrackPointExtension>
        </extensions>
      </trkpt>
      <trkpt lat="42.4493149481713771820068359375" lon="20.19928869791328907012939453125">
        <ele>1170.5999755859375</ele>
        <time>2026-06-20T11:59:29.000Z</time>
        <extensions>
          <ns3:TrackPointExtension>
            <ns3:atemp>26.0</ns3:atemp>
          </ns3:TrackPointExtension>
        </extensions>
      </trkpt>
      <trkpt lat="42.4492995254695415496826171875" lon="20.19932515919208526611328125">
        <ele>1170.4000244140625</ele>
        <time>2026-06-20T11:59:30.000Z</time>
        <extensions>
          <ns3:TrackPointExtension>
            <ns3:atemp>26.0</ns3:atemp>
          </ns3:TrackPointExtension>
        </extensions>
      </trkpt>
      <trkpt lat="42.449286617338657379150390625" lon="20.19936061464250087738037109375">
        <ele>1170</ele>
        <time>2026-06-20T11:59:31.000Z</time>
        <extensions>
          <ns3:TrackPointExtension>
            <ns3:atemp>26.0</ns3:atemp>
          </ns3:TrackPointExtension>
        </extensions>
      </trkpt>
      <trkpt lat="42.4492797441780567169189453125" lon="20.199398584663867950439453125">
        <ele>1169.800048828125</ele>
        <time>2026-06-20T11:59:32.000Z</time>
        <extensions>
          <ns3:TrackPointExtension>
            <ns3:atemp>26.0</ns3:atemp>
          </ns3:TrackPointExtension>
        </extensions>
      </trkpt>
      <trkpt lat="42.449266500771045684814453125" lon="20.19943756051361560821533203125">
        <ele>1169.4000244140625</ele>
        <time>2026-06-20T11:59:33.000Z</time>
        <extensions>
          <ns3:TrackPointExtension>
            <ns3:atemp>26.0</ns3:atemp>
          </ns3:TrackPointExtension>
        </extensions>
      </trkpt>
      <trkpt lat="42.4492348171770572662353515625" lon="20.19947938621044158935546875">
        <ele>1168.800048828125</ele>
        <time>2026-06-20T11:59:34.000Z</time>
        <extensions>
          <ns3:TrackPointExtension>
            <ns3:atemp>26.0</ns3:atemp>
          </ns3:TrackPointExtension>
        </extensions>
      </trkpt>
      <trkpt lat="42.4492224119603633880615234375" lon="20.1995285041630268096923828125">
        <ele>1168.4000244140625</ele>
        <time>2026-06-20T11:59:35.000Z</time>
        <extensions>
          <ns3:TrackPointExtension>
            <ns3:atemp>26.0</ns3:atemp>
          </ns3:TrackPointExtension>
        </extensions>
      </trkpt>
      <trkpt lat="42.449227608740329742431640625" lon="20.1995673961937427520751953125">
        <ele>1168</ele>
        <time>2026-06-20T11:59:36.000Z</time>
        <extensions>
          <ns3:TrackPointExtension>
            <ns3:atemp>26.0</ns3:atemp>
          </ns3:TrackPointExtension>
        </extensions>
      </trkpt>
      <trkpt lat="42.44923464953899383544921875" lon="20.19960184581577777862548828125">
        <ele>1167.5999755859375</ele>
        <time>2026-06-20T11:59:37.000Z</time>
        <extensions>
          <ns3:TrackPointExtension>
            <ns3:atemp>26.0</ns3:atemp>
          </ns3:TrackPointExtension>
        </extensions>
      </trkpt>
      <trkpt lat="42.44925233535468578338623046875" lon="20.19962062127888202667236328125">
        <ele>1167.4000244140625</ele>
        <time>2026-06-20T11:59:38.000Z</time>
        <extensions>
          <ns3:TrackPointExtension>
            <ns3:atemp>26.0</ns3:atemp>
          </ns3:TrackPointExtension>
        </extensions>
      </trkpt>
      <trkpt lat="42.449274547398090362548828125" lon="20.1996136642992496490478515625">
        <ele>1167</ele>
        <time>2026-06-20T11:59:39.000Z</time>
        <extensions>
          <ns3:TrackPointExtension>
            <ns3:atemp>26.0</ns3:atemp>
          </ns3:TrackPointExtension>
        </extensions>
      </trkpt>
      <trkpt lat="42.44929499924182891845703125" lon="20.19960142672061920166015625">
        <ele>1166.800048828125</ele>
        <time>2026-06-20T11:59:40.000Z</time>
        <extensions>
          <ns3:TrackPointExtension>
            <ns3:atemp>26.0</ns3:atemp>
          </ns3:TrackPointExtension>
        </extensions>
      </trkpt>
      <trkpt lat="42.44930916465818881988525390625" lon="20.199595056474208831787109375">
        <ele>1166.4000244140625</ele>
        <time>2026-06-20T11:59:41.000Z</time>
        <extensions>
          <ns3:TrackPointExtension>
            <ns3:atemp>26.0</ns3:atemp>
          </ns3:TrackPointExtension>
        </extensions>
      </trkpt>
      <trkpt lat="42.449326179921627044677734375" lon="20.1996026001870632171630859375">
        <ele>1165.800048828125</ele>
        <time>2026-06-20T11:59:42.000Z</time>
        <extensions>
          <ns3:TrackPointExtension>
            <ns3:atemp>26.0</ns3:atemp>
          </ns3:TrackPointExtension>
        </extensions>
      </trkpt>
      <trkpt lat="42.44932492263615131378173828125" lon="20.19960142672061920166015625">
        <ele>1165.4000244140625</ele>
        <time>2026-06-20T11:59:43.000Z</time>
        <extensions>
          <ns3:TrackPointExtension>
            <ns3:atemp>26.0</ns3:atemp>
          </ns3:TrackPointExtension>
        </extensions>
      </trkpt>
      <trkpt lat="42.4493250064551830291748046875" lon="20.19960151053965091705322265625">
        <ele>1165.199951171875</ele>
        <time>2026-06-20T11:59:44.000Z</time>
        <extensions>
          <ns3:TrackPointExtension>
            <ns3:atemp>26.0</ns3:atemp>
          </ns3:TrackPointExtension>
        </extensions>
      </trkpt>
      <trkpt lat="42.4493250064551830291748046875" lon="20.19960151053965091705322265625">
        <ele>1165</ele>
        <time>2026-06-20T11:59:45.000Z</time>
        <extensions>
          <ns3:TrackPointExtension>
            <ns3:atemp>26.0</ns3:atemp>
          </ns3:TrackPointExtension>
        </extensions>
      </trkpt>
      <trkpt lat="42.4493250064551830291748046875" lon="20.19960151053965091705322265625">
        <ele>1164.800048828125</ele>
        <time>2026-06-20T11:59:46.000Z</time>
        <extensions>
          <ns3:TrackPointExtension>
            <ns3:atemp>26.0</ns3:atemp>
          </ns3:TrackPointExtension>
        </extensions>
      </trkpt>
      <trkpt lat="42.4493250064551830291748046875" lon="20.19960151053965091705322265625">
        <ele>1164.800048828125</ele>
        <time>2026-06-20T11:59:47.000Z</time>
        <extensions>
          <ns3:TrackPointExtension>
            <ns3:atemp>26.0</ns3:atemp>
          </ns3:TrackPointExtension>
        </extensions>
      </trkpt>
      <trkpt lat="42.4493250064551830291748046875" lon="20.19960151053965091705322265625">
        <ele>1164.5999755859375</ele>
        <time>2026-06-20T11:59:48.000Z</time>
        <extensions>
          <ns3:TrackPointExtension>
            <ns3:atemp>26.0</ns3:atemp>
          </ns3:TrackPointExtension>
        </extensions>
      </trkpt>
      <trkpt lat="42.4493250064551830291748046875" lon="20.19960151053965091705322265625">
        <ele>1164.4000244140625</ele>
        <time>2026-06-20T11:59:49.000Z</time>
        <extensions>
          <ns3:TrackPointExtension>
            <ns3:atemp>26.0</ns3:atemp>
          </ns3:TrackPointExtension>
        </extensions>
      </trkpt>
      <trkpt lat="42.4493250064551830291748046875" lon="20.19960151053965091705322265625">
        <ele>1164.199951171875</ele>
        <time>2026-06-20T11:59:50.000Z</time>
        <extensions>
          <ns3:TrackPointExtension>
            <ns3:atemp>26.0</ns3:atemp>
          </ns3:TrackPointExtension>
        </extensions>
      </trkpt>
      <trkpt lat="42.4493250064551830291748046875" lon="20.19960151053965091705322265625">
        <ele>1164.199951171875</ele>
        <time>2026-06-20T11:59:51.000Z</time>
        <extensions>
          <ns3:TrackPointExtension>
            <ns3:atemp>26.0</ns3:atemp>
          </ns3:TrackPointExtension>
        </extensions>
      </trkpt>
      <trkpt lat="42.4493250064551830291748046875" lon="20.19960151053965091705322265625">
        <ele>1164.199951171875</ele>
        <time>2026-06-20T11:59:52.000Z</time>
        <extensions>
          <ns3:TrackPointExtension>
            <ns3:atemp>26.0</ns3:atemp>
          </ns3:TrackPointExtension>
        </extensions>
      </trkpt>
      <trkpt lat="42.4493250064551830291748046875" lon="20.19960151053965091705322265625">
        <ele>1164</ele>
        <time>2026-06-20T11:59:53.000Z</time>
        <extensions>
          <ns3:TrackPointExtension>
            <ns3:atemp>26.0</ns3:atemp>
          </ns3:TrackPointExtension>
        </extensions>
      </trkpt>
      <trkpt lat="42.4493250064551830291748046875" lon="20.19960151053965091705322265625">
        <ele>1164</ele>
        <time>2026-06-20T11:59:54.000Z</time>
        <extensions>
          <ns3:TrackPointExtension>
            <ns3:atemp>26.0</ns3:atemp>
          </ns3:TrackPointExtension>
        </extensions>
      </trkpt>
      <trkpt lat="42.4493250064551830291748046875" lon="20.19960151053965091705322265625">
        <ele>1164</ele>
        <time>2026-06-20T11:59:55.000Z</time>
        <extensions>
          <ns3:TrackPointExtension>
            <ns3:atemp>26.0</ns3:atemp>
          </ns3:TrackPointExtension>
        </extensions>
      </trkpt>
      <trkpt lat="42.4493250064551830291748046875" lon="20.19960151053965091705322265625">
        <ele>1163.800048828125</ele>
        <time>2026-06-20T11:59:56.000Z</time>
        <extensions>
          <ns3:TrackPointExtension>
            <ns3:atemp>26.0</ns3:atemp>
          </ns3:TrackPointExtension>
        </extensions>
      </trkpt>
      <trkpt lat="42.4493250064551830291748046875" lon="20.19960151053965091705322265625">
        <ele>1163.800048828125</ele>
        <time>2026-06-20T11:59:57.000Z</time>
        <extensions>
          <ns3:TrackPointExtension>
            <ns3:atemp>26.0</ns3:atemp>
          </ns3:TrackPointExtension>
        </extensions>
      </trkpt>
      <trkpt lat="42.4493250064551830291748046875" lon="20.19960151053965091705322265625">
        <ele>1163.800048828125</ele>
        <time>2026-06-20T11:59:58.000Z</time>
        <extensions>
          <ns3:TrackPointExtension>
            <ns3:atemp>26.0</ns3:atemp>
          </ns3:TrackPointExtension>
        </extensions>
      </trkpt>
      <trkpt lat="42.4493250064551830291748046875" lon="20.19960151053965091705322265625">
        <ele>1163.800048828125</ele>
        <time>2026-06-20T11:59:59.000Z</time>
        <extensions>
          <ns3:TrackPointExtension>
            <ns3:atemp>26.0</ns3:atemp>
          </ns3:TrackPointExtension>
        </extensions>
      </trkpt>
      <trkpt lat="42.4493250064551830291748046875" lon="20.19960151053965091705322265625">
        <ele>1163.800048828125</ele>
        <time>2026-06-20T12:00:00.000Z</time>
        <extensions>
          <ns3:TrackPointExtension>
            <ns3:atemp>26.0</ns3:atemp>
          </ns3:TrackPointExtension>
        </extensions>
      </trkpt>
      <trkpt lat="42.4493250064551830291748046875" lon="20.19960151053965091705322265625">
        <ele>1163.5999755859375</ele>
        <time>2026-06-20T12:00:01.000Z</time>
        <extensions>
          <ns3:TrackPointExtension>
            <ns3:atemp>26.0</ns3:atemp>
          </ns3:TrackPointExtension>
        </extensions>
      </trkpt>
      <trkpt lat="42.4493250064551830291748046875" lon="20.19960151053965091705322265625">
        <ele>1163.5999755859375</ele>
        <time>2026-06-20T12:00:02.000Z</time>
        <extensions>
          <ns3:TrackPointExtension>
            <ns3:atemp>26.0</ns3:atemp>
          </ns3:TrackPointExtension>
        </extensions>
      </trkpt>
      <trkpt lat="42.4493250064551830291748046875" lon="20.19960151053965091705322265625">
        <ele>1163.5999755859375</ele>
        <time>2026-06-20T12:00:03.000Z</time>
        <extensions>
          <ns3:TrackPointExtension>
            <ns3:atemp>26.0</ns3:atemp>
          </ns3:TrackPointExtension>
        </extensions>
      </trkpt>
      <trkpt lat="42.4493250064551830291748046875" lon="20.19960151053965091705322265625">
        <ele>1163.5999755859375</ele>
        <time>2026-06-20T12:00:04.000Z</time>
        <extensions>
          <ns3:TrackPointExtension>
            <ns3:atemp>26.0</ns3:atemp>
          </ns3:TrackPointExtension>
        </extensions>
      </trkpt>
      <trkpt lat="42.4493250064551830291748046875" lon="20.19960151053965091705322265625">
        <ele>1163.5999755859375</ele>
        <time>2026-06-20T12:00:05.000Z</time>
        <extensions>
          <ns3:TrackPointExtension>
            <ns3:atemp>26.0</ns3:atemp>
          </ns3:TrackPointExtension>
        </extensions>
      </trkpt>
      <trkpt lat="42.4493250064551830291748046875" lon="20.19960151053965091705322265625">
        <ele>1163.4000244140625</ele>
        <time>2026-06-20T12:00:06.000Z</time>
        <extensions>
          <ns3:TrackPointExtension>
            <ns3:atemp>26.0</ns3:atemp>
          </ns3:TrackPointExtension>
        </extensions>
      </trkpt>
      <trkpt lat="42.4493250064551830291748046875" lon="20.19960151053965091705322265625">
        <ele>1163.4000244140625</ele>
        <time>2026-06-20T12:00:07.000Z</time>
        <extensions>
          <ns3:TrackPointExtension>
            <ns3:atemp>26.0</ns3:atemp>
          </ns3:TrackPointExtension>
        </extensions>
      </trkpt>
      <trkpt lat="42.44932492263615131378173828125" lon="20.19960553385317325592041015625">
        <ele>1163.5999755859375</ele>
        <time>2026-06-20T12:00:08.000Z</time>
        <extensions>
          <ns3:TrackPointExtension>
            <ns3:atemp>26.0</ns3:atemp>
          </ns3:TrackPointExtension>
        </extensions>
      </trkpt>
      <trkpt lat="42.4493250064551830291748046875" lon="20.19960151053965091705322265625">
        <ele>1163.5999755859375</ele>
        <time>2026-06-20T12:00:09.000Z</time>
        <extensions>
          <ns3:TrackPointExtension>
            <ns3:atemp>26.0</ns3:atemp>
          </ns3:TrackPointExtension>
        </extensions>
      </trkpt>
      <trkpt lat="42.4493250064551830291748046875" lon="20.19960151053965091705322265625">
        <ele>1163.800048828125</ele>
        <time>2026-06-20T12:00:10.000Z</time>
        <extensions>
          <ns3:TrackPointExtension>
            <ns3:atemp>26.0</ns3:atemp>
          </ns3:TrackPointExtension>
        </extensions>
      </trkpt>
      <trkpt lat="42.4493250064551830291748046875" lon="20.19960151053965091705322265625">
        <ele>1164</ele>
        <time>2026-06-20T12:00:11.000Z</time>
        <extensions>
          <ns3:TrackPointExtension>
            <ns3:atemp>26.0</ns3:atemp>
          </ns3:TrackPointExtension>
        </extensions>
      </trkpt>
      <trkpt lat="42.44933162815868854522705078125" lon="20.199615843594074249267578125">
        <ele>1164.199951171875</ele>
        <time>2026-06-20T12:00:12.000Z</time>
        <extensions>
          <ns3:TrackPointExtension>
            <ns3:atemp>26.0</ns3:atemp>
          </ns3:TrackPointExtension>
        </extensions>
      </trkpt>
      <trkpt lat="42.44933833368122577667236328125" lon="20.19961743615567684173583984375">
        <ele>1164.199951171875</ele>
        <time>2026-06-20T12:00:13.000Z</time>
        <extensions>
          <ns3:TrackPointExtension>
            <ns3:atemp>26.0</ns3:atemp>
          </ns3:TrackPointExtension>
        </extensions>
      </trkpt>
      <trkpt lat="42.44933799840509891510009765625" lon="20.19962129183113574981689453125">
        <ele>1164</ele>
        <time>2026-06-20T12:00:14.000Z</time>
        <extensions>
          <ns3:TrackPointExtension>
            <ns3:atemp>26.0</ns3:atemp>
          </ns3:TrackPointExtension>
        </extensions>
      </trkpt>
      <trkpt lat="42.44933447800576686859130859375" lon="20.1996297575533390045166015625">
        <ele>1164</ele>
        <time>2026-06-20T12:00:15.000Z</time>
        <extensions>
          <ns3:TrackPointExtension>
            <ns3:atemp>26.0</ns3:atemp>
          </ns3:TrackPointExtension>
        </extensions>
      </trkpt>
      <trkpt lat="42.44933120906352996826171875" lon="20.19963562488555908203125">
        <ele>1164</ele>
        <time>2026-06-20T12:00:16.000Z</time>
        <extensions>
          <ns3:TrackPointExtension>
            <ns3:atemp>26.0</ns3:atemp>
          </ns3:TrackPointExtension>
        </extensions>
      </trkpt>
      <trkpt lat="42.449318468570709228515625" lon="20.19964375533163547515869140625">
        <ele>1164</ele>
        <time>2026-06-20T12:00:17.000Z</time>
        <extensions>
          <ns3:TrackPointExtension>
            <ns3:atemp>26.0</ns3:atemp>
          </ns3:TrackPointExtension>
        </extensions>
      </trkpt>
      <trkpt lat="42.44930564425885677337646484375" lon="20.1996471919119358062744140625">
        <ele>1164</ele>
        <time>2026-06-20T12:00:18.000Z</time>
        <extensions>
          <ns3:TrackPointExtension>
            <ns3:atemp>26.0</ns3:atemp>
          </ns3:TrackPointExtension>
        </extensions>
      </trkpt>
      <trkpt lat="42.4492898024618625640869140625" lon="20.19965104758739471435546875">
        <ele>1164</ele>
        <time>2026-06-20T12:00:19.000Z</time>
        <extensions>
          <ns3:TrackPointExtension>
            <ns3:atemp>26.0</ns3:atemp>
          </ns3:TrackPointExtension>
        </extensions>
      </trkpt>
      <trkpt lat="42.44927261956036090850830078125" lon="20.199652053415775299072265625">
        <ele>1164</ele>
        <time>2026-06-20T12:00:20.000Z</time>
        <extensions>
          <ns3:TrackPointExtension>
            <ns3:atemp>26.0</ns3:atemp>
          </ns3:TrackPointExtension>
        </extensions>
      </trkpt>
      <trkpt lat="42.44925208389759063720703125" lon="20.19964970648288726806640625">
        <ele>1164.199951171875</ele>
        <time>2026-06-20T12:00:21.000Z</time>
        <extensions>
          <ns3:TrackPointExtension>
            <ns3:atemp>26.0</ns3:atemp>
          </ns3:TrackPointExtension>
        </extensions>
      </trkpt>
      <trkpt lat="42.4492428638041019439697265625" lon="20.19963855855166912078857421875">
        <ele>1164.199951171875</ele>
        <time>2026-06-20T12:00:22.000Z</time>
        <extensions>
          <ns3:TrackPointExtension>
            <ns3:atemp>26.0</ns3:atemp>
          </ns3:TrackPointExtension>
        </extensions>
      </trkpt>
      <trkpt lat="42.44923205114901065826416015625" lon="20.19962196238338947296142578125">
        <ele>1164.4000244140625</ele>
        <time>2026-06-20T12:00:23.000Z</time>
        <extensions>
          <ns3:TrackPointExtension>
            <ns3:atemp>26.0</ns3:atemp>
          </ns3:TrackPointExtension>
        </extensions>
      </trkpt>
      <trkpt lat="42.4492281116545200347900390625" lon="20.1996103115379810333251953125">
        <ele>1164.800048828125</ele>
        <time>2026-06-20T12:00:24.000Z</time>
        <extensions>
          <ns3:TrackPointExtension>
            <ns3:atemp>26.0</ns3:atemp>
          </ns3:TrackPointExtension>
        </extensions>
      </trkpt>
      <trkpt lat="42.44922501035034656524658203125" lon="20.19959296099841594696044921875">
        <ele>1165.199951171875</ele>
        <time>2026-06-20T12:00:25.000Z</time>
        <extensions>
          <ns3:TrackPointExtension>
            <ns3:atemp>26.0</ns3:atemp>
          </ns3:TrackPointExtension>
        </extensions>
      </trkpt>
      <trkpt lat="42.44922199286520481109619140625" lon="20.199576281011104583740234375">
        <ele>1165.4000244140625</ele>
        <time>2026-06-20T12:00:26.000Z</time>
        <extensions>
          <ns3:TrackPointExtension>
            <ns3:atemp>26.0</ns3:atemp>
          </ns3:TrackPointExtension>
        </extensions>
      </trkpt>
      <trkpt lat="42.449224255979061126708984375" lon="20.199564881622791290283203125">
        <ele>1165.5999755859375</ele>
        <time>2026-06-20T12:00:27.000Z</time>
        <extensions>
          <ns3:TrackPointExtension>
            <ns3:atemp>26.0</ns3:atemp>
          </ns3:TrackPointExtension>
        </extensions>
      </trkpt>
      <trkpt lat="42.44922283105552196502685546875" lon="20.1995593495666980743408203125">
        <ele>1165.800048828125</ele>
        <time>2026-06-20T12:00:28.000Z</time>
        <extensions>
          <ns3:TrackPointExtension>
            <ns3:atemp>26.0</ns3:atemp>
          </ns3:TrackPointExtension>
        </extensions>
      </trkpt>
      <trkpt lat="42.4492224119603633880615234375" lon="20.1995538175106048583984375">
        <ele>1166</ele>
        <time>2026-06-20T12:00:29.000Z</time>
        <extensions>
          <ns3:TrackPointExtension>
            <ns3:atemp>26.0</ns3:atemp>
          </ns3:TrackPointExtension>
        </extensions>
      </trkpt>
      <trkpt lat="42.44922752492129802703857421875" lon="20.19954350776970386505126953125">
        <ele>1166</ele>
        <time>2026-06-20T12:00:30.000Z</time>
        <extensions>
          <ns3:TrackPointExtension>
            <ns3:atemp>26.0</ns3:atemp>
          </ns3:TrackPointExtension>
        </extensions>
      </trkpt>
      <trkpt lat="42.4492374993860721588134765625" lon="20.19953328184783458709716796875">
        <ele>1166.199951171875</ele>
        <time>2026-06-20T12:00:31.000Z</time>
        <extensions>
          <ns3:TrackPointExtension>
            <ns3:atemp>26.0</ns3:atemp>
          </ns3:TrackPointExtension>
        </extensions>
      </trkpt>
      <trkpt lat="42.44925032369792461395263671875" lon="20.19952121190726757049560546875">
        <ele>1166.199951171875</ele>
        <time>2026-06-20T12:00:32.000Z</time>
        <extensions>
          <ns3:TrackPointExtension>
            <ns3:atemp>26.0</ns3:atemp>
          </ns3:TrackPointExtension>
        </extensions>
      </trkpt>
      <trkpt lat="42.44926189072430133819580078125" lon="20.19950763322412967681884765625">
        <ele>1166.199951171875</ele>
        <time>2026-06-20T12:00:33.000Z</time>
        <extensions>
          <ns3:TrackPointExtension>
            <ns3:atemp>26.0</ns3:atemp>
          </ns3:TrackPointExtension>
        </extensions>
      </trkpt>
      <trkpt lat="42.449270524084568023681640625" lon="20.1994933001697063446044921875">
        <ele>1166.199951171875</ele>
        <time>2026-06-20T12:00:34.000Z</time>
        <extensions>
          <ns3:TrackPointExtension>
            <ns3:atemp>26.0</ns3:atemp>
          </ns3:TrackPointExtension>
        </extensions>
      </trkpt>
      <trkpt lat="42.44927228428423404693603515625" lon="20.19947913475334644317626953125">
        <ele>1166.199951171875</ele>
        <time>2026-06-20T12:00:35.000Z</time>
        <extensions>
          <ns3:TrackPointExtension>
            <ns3:atemp>26.0</ns3:atemp>
          </ns3:TrackPointExtension>
        </extensions>
      </trkpt>
      <trkpt lat="42.44927396066486835479736328125" lon="20.199468992650508880615234375">
        <ele>1166.199951171875</ele>
        <time>2026-06-20T12:00:36.000Z</time>
        <extensions>
          <ns3:TrackPointExtension>
            <ns3:atemp>26.0</ns3:atemp>
          </ns3:TrackPointExtension>
        </extensions>
      </trkpt>
      <trkpt lat="42.44927597232162952423095703125" lon="20.199456922709941864013671875">
        <ele>1166.4000244140625</ele>
        <time>2026-06-20T12:00:37.000Z</time>
        <extensions>
          <ns3:TrackPointExtension>
            <ns3:atemp>26.0</ns3:atemp>
          </ns3:TrackPointExtension>
        </extensions>
      </trkpt>
      <trkpt lat="42.44927362538874149322509765625" lon="20.19944845698773860931396484375">
        <ele>1166.4000244140625</ele>
        <time>2026-06-20T12:00:38.000Z</time>
        <extensions>
          <ns3:TrackPointExtension>
            <ns3:atemp>26.0</ns3:atemp>
          </ns3:TrackPointExtension>
        </extensions>
      </trkpt>
      <trkpt lat="42.4492713622748851776123046875" lon="20.19944644533097743988037109375">
        <ele>1166.5999755859375</ele>
        <time>2026-06-20T12:00:39.000Z</time>
        <extensions>
          <ns3:TrackPointExtension>
            <ns3:atemp>26.0</ns3:atemp>
          </ns3:TrackPointExtension>
        </extensions>
      </trkpt>
      <trkpt lat="42.4492713622748851776123046875" lon="20.1994463615119457244873046875">
        <ele>1166.800048828125</ele>
        <time>2026-06-20T12:00:40.000Z</time>
        <extensions>
          <ns3:TrackPointExtension>
            <ns3:atemp>26.0</ns3:atemp>
          </ns3:TrackPointExtension>
        </extensions>
      </trkpt>
      <trkpt lat="42.4492713622748851776123046875" lon="20.1994463615119457244873046875">
        <ele>1166.800048828125</ele>
        <time>2026-06-20T12:00:41.000Z</time>
        <extensions>
          <ns3:TrackPointExtension>
            <ns3:atemp>26.0</ns3:atemp>
          </ns3:TrackPointExtension>
        </extensions>
      </trkpt>
      <trkpt lat="42.4492713622748851776123046875" lon="20.1994463615119457244873046875">
        <ele>1166.800048828125</ele>
        <time>2026-06-20T12:00:42.000Z</time>
        <extensions>
          <ns3:TrackPointExtension>
            <ns3:atemp>26.0</ns3:atemp>
          </ns3:TrackPointExtension>
        </extensions>
      </trkpt>
      <trkpt lat="42.4492713622748851776123046875" lon="20.1994463615119457244873046875">
        <ele>1166.800048828125</ele>
        <time>2026-06-20T12:00:43.000Z</time>
        <extensions>
          <ns3:TrackPointExtension>
            <ns3:atemp>26.0</ns3:atemp>
          </ns3:TrackPointExtension>
        </extensions>
      </trkpt>
      <trkpt lat="42.4492713622748851776123046875" lon="20.1994463615119457244873046875">
        <ele>1166.5999755859375</ele>
        <time>2026-06-20T12:00:44.000Z</time>
        <extensions>
          <ns3:TrackPointExtension>
            <ns3:atemp>26.0</ns3:atemp>
          </ns3:TrackPointExtension>
        </extensions>
      </trkpt>
      <trkpt lat="42.4492713622748851776123046875" lon="20.1994463615119457244873046875">
        <ele>1166.5999755859375</ele>
        <time>2026-06-20T12:00:45.000Z</time>
        <extensions>
          <ns3:TrackPointExtension>
            <ns3:atemp>26.0</ns3:atemp>
          </ns3:TrackPointExtension>
        </extensions>
      </trkpt>
      <trkpt lat="42.4492706917226314544677734375" lon="20.199444852769374847412109375">
        <ele>1166.5999755859375</ele>
        <time>2026-06-20T12:00:46.000Z</time>
        <extensions>
          <ns3:TrackPointExtension>
            <ns3:atemp>26.0</ns3:atemp>
          </ns3:TrackPointExtension>
        </extensions>
      </trkpt>
      <trkpt lat="42.449267841875553131103515625" lon="20.1994329504668712615966796875">
        <ele>1166.5999755859375</ele>
        <time>2026-06-20T12:00:47.000Z</time>
        <extensions>
          <ns3:TrackPointExtension>
            <ns3:atemp>26.0</ns3:atemp>
          </ns3:TrackPointExtension>
        </extensions>
      </trkpt>
      <trkpt lat="42.4492634832859039306640625" lon="20.1994302682578563690185546875">
        <ele>1166.5999755859375</ele>
        <time>2026-06-20T12:00:48.000Z</time>
        <extensions>
          <ns3:TrackPointExtension>
            <ns3:atemp>26.0</ns3:atemp>
          </ns3:TrackPointExtension>
        </extensions>
      </trkpt>
      <trkpt lat="42.44926105253398418426513671875" lon="20.19941861741244792938232421875">
        <ele>1166.4000244140625</ele>
        <time>2026-06-20T12:00:49.000Z</time>
        <extensions>
          <ns3:TrackPointExtension>
            <ns3:atemp>26.0</ns3:atemp>
          </ns3:TrackPointExtension>
        </extensions>
      </trkpt>
      <trkpt lat="42.44926088489592075347900390625" lon="20.19940830767154693603515625">
        <ele>1166.4000244140625</ele>
        <time>2026-06-20T12:00:50.000Z</time>
        <extensions>
          <ns3:TrackPointExtension>
            <ns3:atemp>26.0</ns3:atemp>
          </ns3:TrackPointExtension>
        </extensions>
      </trkpt>
      <trkpt lat="42.4492608010768890380859375" lon="20.1994081400334835052490234375">
        <ele>1166.199951171875</ele>
        <time>2026-06-20T12:00:51.000Z</time>
        <extensions>
          <ns3:TrackPointExtension>
            <ns3:atemp>26.0</ns3:atemp>
          </ns3:TrackPointExtension>
        </extensions>
      </trkpt>
      <trkpt lat="42.4492608010768890380859375" lon="20.1994081400334835052490234375">
        <ele>1166.199951171875</ele>
        <time>2026-06-20T12:00:52.000Z</time>
        <extensions>
          <ns3:TrackPointExtension>
            <ns3:atemp>26.0</ns3:atemp>
          </ns3:TrackPointExtension>
        </extensions>
      </trkpt>
      <trkpt lat="42.4492608010768890380859375" lon="20.1994081400334835052490234375">
        <ele>1166.199951171875</ele>
        <time>2026-06-20T12:00:53.000Z</time>
        <extensions>
          <ns3:TrackPointExtension>
            <ns3:atemp>26.0</ns3:atemp>
          </ns3:TrackPointExtension>
        </extensions>
      </trkpt>
      <trkpt lat="42.4492608010768890380859375" lon="20.1994081400334835052490234375">
        <ele>1166.199951171875</ele>
        <time>2026-06-20T12:00:54.000Z</time>
        <extensions>
          <ns3:TrackPointExtension>
            <ns3:atemp>26.0</ns3:atemp>
          </ns3:TrackPointExtension>
        </extensions>
      </trkpt>
      <trkpt lat="42.4492606334388256072998046875" lon="20.19940738566219806671142578125">
        <ele>1166.199951171875</ele>
        <time>2026-06-20T12:00:55.000Z</time>
        <extensions>
          <ns3:TrackPointExtension>
            <ns3:atemp>26.0</ns3:atemp>
          </ns3:TrackPointExtension>
        </extensions>
      </trkpt>
      <trkpt lat="42.44926239363849163055419921875" lon="20.19940738566219806671142578125">
        <ele>1166.199951171875</ele>
        <time>2026-06-20T12:00:56.000Z</time>
        <extensions>
          <ns3:TrackPointExtension>
            <ns3:atemp>26.0</ns3:atemp>
          </ns3:TrackPointExtension>
        </extensions>
      </trkpt>
      <trkpt lat="42.44926490820944309234619140625" lon="20.19940202124416828155517578125">
        <ele>1166.4000244140625</ele>
        <time>2026-06-20T12:00:57.000Z</time>
        <extensions>
          <ns3:TrackPointExtension>
            <ns3:atemp>26.0</ns3:atemp>
          </ns3:TrackPointExtension>
        </extensions>
      </trkpt>
      <trkpt lat="42.4492608010768890380859375" lon="20.1994081400334835052490234375">
        <ele>1166.5999755859375</ele>
        <time>2026-06-20T12:00:58.000Z</time>
        <extensions>
          <ns3:TrackPointExtension>
            <ns3:atemp>26.0</ns3:atemp>
          </ns3:TrackPointExtension>
        </extensions>
      </trkpt>
      <trkpt lat="42.4492608010768890380859375" lon="20.1994081400334835052490234375">
        <ele>1166.800048828125</ele>
        <time>2026-06-20T12:00:59.000Z</time>
        <extensions>
          <ns3:TrackPointExtension>
            <ns3:atemp>26.0</ns3:atemp>
          </ns3:TrackPointExtension>
        </extensions>
      </trkpt>
      <trkpt lat="42.4492608010768890380859375" lon="20.1994081400334835052490234375">
        <ele>1166.800048828125</ele>
        <time>2026-06-20T12:01:00.000Z</time>
        <extensions>
          <ns3:TrackPointExtension>
            <ns3:atemp>26.0</ns3:atemp>
          </ns3:TrackPointExtension>
        </extensions>
      </trkpt>
      <trkpt lat="42.4492608010768890380859375" lon="20.1994081400334835052490234375">
        <ele>1166.800048828125</ele>
        <time>2026-06-20T12:01:01.000Z</time>
        <extensions>
          <ns3:TrackPointExtension>
            <ns3:atemp>26.0</ns3:atemp>
          </ns3:TrackPointExtension>
        </extensions>
      </trkpt>
      <trkpt lat="42.4492608010768890380859375" lon="20.1994081400334835052490234375">
        <ele>1166.800048828125</ele>
        <time>2026-06-20T12:01:02.000Z</time>
        <extensions>
          <ns3:TrackPointExtension>
            <ns3:atemp>26.0</ns3:atemp>
          </ns3:TrackPointExtension>
        </extensions>
      </trkpt>
      <trkpt lat="42.4492608010768890380859375" lon="20.1994081400334835052490234375">
        <ele>1166.5999755859375</ele>
        <time>2026-06-20T12:01:03.000Z</time>
        <extensions>
          <ns3:TrackPointExtension>
            <ns3:atemp>26.0</ns3:atemp>
          </ns3:TrackPointExtension>
        </extensions>
      </trkpt>
      <trkpt lat="42.4492608010768890380859375" lon="20.1994081400334835052490234375">
        <ele>1166.5999755859375</ele>
        <time>2026-06-20T12:01:04.000Z</time>
        <extensions>
          <ns3:TrackPointExtension>
            <ns3:atemp>26.0</ns3:atemp>
          </ns3:TrackPointExtension>
        </extensions>
      </trkpt>
      <trkpt lat="42.4492608010768890380859375" lon="20.1994081400334835052490234375">
        <ele>1166.5999755859375</ele>
        <time>2026-06-20T12:01:05.000Z</time>
        <extensions>
          <ns3:TrackPointExtension>
            <ns3:atemp>26.0</ns3:atemp>
          </ns3:TrackPointExtension>
        </extensions>
      </trkpt>
      <trkpt lat="42.4492608010768890380859375" lon="20.1994081400334835052490234375">
        <ele>1166.5999755859375</ele>
        <time>2026-06-20T12:01:06.000Z</time>
        <extensions>
          <ns3:TrackPointExtension>
            <ns3:atemp>26.0</ns3:atemp>
          </ns3:TrackPointExtension>
        </extensions>
      </trkpt>
      <trkpt lat="42.4492608010768890380859375" lon="20.1994081400334835052490234375">
        <ele>1166.5999755859375</ele>
        <time>2026-06-20T12:01:07.000Z</time>
        <extensions>
          <ns3:TrackPointExtension>
            <ns3:atemp>26.0</ns3:atemp>
          </ns3:TrackPointExtension>
        </extensions>
      </trkpt>
      <trkpt lat="42.4492608010768890380859375" lon="20.1994081400334835052490234375">
        <ele>1166.800048828125</ele>
        <time>2026-06-20T12:01:08.000Z</time>
        <extensions>
          <ns3:TrackPointExtension>
            <ns3:atemp>26.0</ns3:atemp>
          </ns3:TrackPointExtension>
        </extensions>
      </trkpt>
      <trkpt lat="42.4492608010768890380859375" lon="20.1994081400334835052490234375">
        <ele>1166.800048828125</ele>
        <time>2026-06-20T12:01:09.000Z</time>
        <extensions>
          <ns3:TrackPointExtension>
            <ns3:atemp>26.0</ns3:atemp>
          </ns3:TrackPointExtension>
        </extensions>
      </trkpt>
      <trkpt lat="42.4492608010768890380859375" lon="20.1994081400334835052490234375">
        <ele>1166.800048828125</ele>
        <time>2026-06-20T12:01:10.000Z</time>
        <extensions>
          <ns3:TrackPointExtension>
            <ns3:atemp>26.0</ns3:atemp>
          </ns3:TrackPointExtension>
        </extensions>
      </trkpt>
      <trkpt lat="42.4492608010768890380859375" lon="20.1994081400334835052490234375">
        <ele>1166.800048828125</ele>
        <time>2026-06-20T12:01:11.000Z</time>
        <extensions>
          <ns3:TrackPointExtension>
            <ns3:atemp>26.0</ns3:atemp>
          </ns3:TrackPointExtension>
        </extensions>
      </trkpt>
      <trkpt lat="42.4492608010768890380859375" lon="20.1994081400334835052490234375">
        <ele>1167</ele>
        <time>2026-06-20T12:01:12.000Z</time>
        <extensions>
          <ns3:TrackPointExtension>
            <ns3:atemp>26.0</ns3:atemp>
          </ns3:TrackPointExtension>
        </extensions>
      </trkpt>
      <trkpt lat="42.4492608010768890380859375" lon="20.1994081400334835052490234375">
        <ele>1167</ele>
        <time>2026-06-20T12:01:13.000Z</time>
        <extensions>
          <ns3:TrackPointExtension>
            <ns3:atemp>26.0</ns3:atemp>
          </ns3:TrackPointExtension>
        </extensions>
      </trkpt>
      <trkpt lat="42.4492608010768890380859375" lon="20.1994081400334835052490234375">
        <ele>1167</ele>
        <time>2026-06-20T12:01:14.000Z</time>
        <extensions>
          <ns3:TrackPointExtension>
            <ns3:atemp>26.0</ns3:atemp>
          </ns3:TrackPointExtension>
        </extensions>
      </trkpt>
      <trkpt lat="42.4492608010768890380859375" lon="20.1994081400334835052490234375">
        <ele>1167</ele>
        <time>2026-06-20T12:01:15.000Z</time>
        <extensions>
          <ns3:TrackPointExtension>
            <ns3:atemp>26.0</ns3:atemp>
          </ns3:TrackPointExtension>
        </extensions>
      </trkpt>
      <trkpt lat="42.4492608010768890380859375" lon="20.1994081400334835052490234375">
        <ele>1167</ele>
        <time>2026-06-20T12:01:16.000Z</time>
        <extensions>
          <ns3:TrackPointExtension>
            <ns3:atemp>26.0</ns3:atemp>
          </ns3:TrackPointExtension>
        </extensions>
      </trkpt>
      <trkpt lat="42.4492608010768890380859375" lon="20.1994081400334835052490234375">
        <ele>1167</ele>
        <time>2026-06-20T12:01:17.000Z</time>
        <extensions>
          <ns3:TrackPointExtension>
            <ns3:atemp>26.0</ns3:atemp>
          </ns3:TrackPointExtension>
        </extensions>
      </trkpt>
      <trkpt lat="42.4492608010768890380859375" lon="20.1994081400334835052490234375">
        <ele>1167</ele>
        <time>2026-06-20T12:01:18.000Z</time>
        <extensions>
          <ns3:TrackPointExtension>
            <ns3:atemp>26.0</ns3:atemp>
          </ns3:TrackPointExtension>
        </extensions>
      </trkpt>
      <trkpt lat="42.4492608010768890380859375" lon="20.1994081400334835052490234375">
        <ele>1167</ele>
        <time>2026-06-20T12:01:19.000Z</time>
        <extensions>
          <ns3:TrackPointExtension>
            <ns3:atemp>26.0</ns3:atemp>
          </ns3:TrackPointExtension>
        </extensions>
      </trkpt>
      <trkpt lat="42.4492608010768890380859375" lon="20.1994081400334835052490234375">
        <ele>1167</ele>
        <time>2026-06-20T12:01:20.000Z</time>
        <extensions>
          <ns3:TrackPointExtension>
            <ns3:atemp>26.0</ns3:atemp>
          </ns3:TrackPointExtension>
        </extensions>
      </trkpt>
      <trkpt lat="42.4492608010768890380859375" lon="20.1994081400334835052490234375">
        <ele>1167</ele>
        <time>2026-06-20T12:01:21.000Z</time>
        <extensions>
          <ns3:TrackPointExtension>
            <ns3:atemp>26.0</ns3:atemp>
          </ns3:TrackPointExtension>
        </extensions>
      </trkpt>
      <trkpt lat="42.4492608010768890380859375" lon="20.1994081400334835052490234375">
        <ele>1167</ele>
        <time>2026-06-20T12:01:22.000Z</time>
        <extensions>
          <ns3:TrackPointExtension>
            <ns3:atemp>26.0</ns3:atemp>
          </ns3:TrackPointExtension>
        </extensions>
      </trkpt>
      <trkpt lat="42.4492608010768890380859375" lon="20.1994081400334835052490234375">
        <ele>1167</ele>
        <time>2026-06-20T12:01:23.000Z</time>
        <extensions>
          <ns3:TrackPointExtension>
            <ns3:atemp>26.0</ns3:atemp>
          </ns3:TrackPointExtension>
        </extensions>
      </trkpt>
      <trkpt lat="42.4492608010768890380859375" lon="20.1994081400334835052490234375">
        <ele>1167</ele>
        <time>2026-06-20T12:01:24.000Z</time>
        <extensions>
          <ns3:TrackPointExtension>
            <ns3:atemp>26.0</ns3:atemp>
          </ns3:TrackPointExtension>
        </extensions>
      </trkpt>
      <trkpt lat="42.4492608010768890380859375" lon="20.1994081400334835052490234375">
        <ele>1167</ele>
        <time>2026-06-20T12:01:25.000Z</time>
        <extensions>
          <ns3:TrackPointExtension>
            <ns3:atemp>26.0</ns3:atemp>
          </ns3:TrackPointExtension>
        </extensions>
      </trkpt>
      <trkpt lat="42.4492608010768890380859375" lon="20.1994081400334835052490234375">
        <ele>1167</ele>
        <time>2026-06-20T12:01:26.000Z</time>
        <extensions>
          <ns3:TrackPointExtension>
            <ns3:atemp>26.0</ns3:atemp>
          </ns3:TrackPointExtension>
        </extensions>
      </trkpt>
      <trkpt lat="42.4492608010768890380859375" lon="20.1994081400334835052490234375">
        <ele>1167</ele>
        <time>2026-06-20T12:01:27.000Z</time>
        <extensions>
          <ns3:TrackPointExtension>
            <ns3:atemp>26.0</ns3:atemp>
          </ns3:TrackPointExtension>
        </extensions>
      </trkpt>
      <trkpt lat="42.4492608010768890380859375" lon="20.1994081400334835052490234375">
        <ele>1167</ele>
        <time>2026-06-20T12:01:28.000Z</time>
        <extensions>
          <ns3:TrackPointExtension>
            <ns3:atemp>26.0</ns3:atemp>
          </ns3:TrackPointExtension>
        </extensions>
      </trkpt>
      <trkpt lat="42.4492608010768890380859375" lon="20.1994081400334835052490234375">
        <ele>1167</ele>
        <time>2026-06-20T12:01:29.000Z</time>
        <extensions>
          <ns3:TrackPointExtension>
            <ns3:atemp>26.0</ns3:atemp>
          </ns3:TrackPointExtension>
        </extensions>
      </trkpt>
      <trkpt lat="42.4492608010768890380859375" lon="20.1994081400334835052490234375">
        <ele>1167</ele>
        <time>2026-06-20T12:01:30.000Z</time>
        <extensions>
          <ns3:TrackPointExtension>
            <ns3:atemp>26.0</ns3:atemp>
          </ns3:TrackPointExtension>
        </extensions>
      </trkpt>
      <trkpt lat="42.4492608010768890380859375" lon="20.1994081400334835052490234375">
        <ele>1167</ele>
        <time>2026-06-20T12:01:31.000Z</time>
        <extensions>
          <ns3:TrackPointExtension>
            <ns3:atemp>26.0</ns3:atemp>
          </ns3:TrackPointExtension>
        </extensions>
      </trkpt>
      <trkpt lat="42.4492608010768890380859375" lon="20.1994081400334835052490234375">
        <ele>1167</ele>
        <time>2026-06-20T12:01:32.000Z</time>
        <extensions>
          <ns3:TrackPointExtension>
            <ns3:atemp>26.0</ns3:atemp>
          </ns3:TrackPointExtension>
        </extensions>
      </trkpt>
      <trkpt lat="42.4492608010768890380859375" lon="20.1994081400334835052490234375">
        <ele>1167</ele>
        <time>2026-06-20T12:01:33.000Z</time>
        <extensions>
          <ns3:TrackPointExtension>
            <ns3:atemp>26.0</ns3:atemp>
          </ns3:TrackPointExtension>
        </extensions>
      </trkpt>
      <trkpt lat="42.4492608010768890380859375" lon="20.1994081400334835052490234375">
        <ele>1166.800048828125</ele>
        <time>2026-06-20T12:01:34.000Z</time>
        <extensions>
          <ns3:TrackPointExtension>
            <ns3:atemp>26.0</ns3:atemp>
          </ns3:TrackPointExtension>
        </extensions>
      </trkpt>
      <trkpt lat="42.4492608010768890380859375" lon="20.1994081400334835052490234375">
        <ele>1166.800048828125</ele>
        <time>2026-06-20T12:01:35.000Z</time>
        <extensions>
          <ns3:TrackPointExtension>
            <ns3:atemp>26.0</ns3:atemp>
          </ns3:TrackPointExtension>
        </extensions>
      </trkpt>
      <trkpt lat="42.4492608010768890380859375" lon="20.1994081400334835052490234375">
        <ele>1166.800048828125</ele>
        <time>2026-06-20T12:01:36.000Z</time>
        <extensions>
          <ns3:TrackPointExtension>
            <ns3:atemp>26.0</ns3:atemp>
          </ns3:TrackPointExtension>
        </extensions>
      </trkpt>
      <trkpt lat="42.4492608010768890380859375" lon="20.1994081400334835052490234375">
        <ele>1166.800048828125</ele>
        <time>2026-06-20T12:01:37.000Z</time>
        <extensions>
          <ns3:TrackPointExtension>
            <ns3:atemp>26.0</ns3:atemp>
          </ns3:TrackPointExtension>
        </extensions>
      </trkpt>
      <trkpt lat="42.4492608010768890380859375" lon="20.1994081400334835052490234375">
        <ele>1166.800048828125</ele>
        <time>2026-06-20T12:01:38.000Z</time>
        <extensions>
          <ns3:TrackPointExtension>
            <ns3:atemp>26.0</ns3:atemp>
          </ns3:TrackPointExtension>
        </extensions>
      </trkpt>
      <trkpt lat="42.4492608010768890380859375" lon="20.1994081400334835052490234375">
        <ele>1166.800048828125</ele>
        <time>2026-06-20T12:01:39.000Z</time>
        <extensions>
          <ns3:TrackPointExtension>
            <ns3:atemp>26.0</ns3:atemp>
          </ns3:TrackPointExtension>
        </extensions>
      </trkpt>
      <trkpt lat="42.4492608010768890380859375" lon="20.1994081400334835052490234375">
        <ele>1166.800048828125</ele>
        <time>2026-06-20T12:01:40.000Z</time>
        <extensions>
          <ns3:TrackPointExtension>
            <ns3:atemp>26.0</ns3:atemp>
          </ns3:TrackPointExtension>
        </extensions>
      </trkpt>
      <trkpt lat="42.4492608010768890380859375" lon="20.1994081400334835052490234375">
        <ele>1166.800048828125</ele>
        <time>2026-06-20T12:01:41.000Z</time>
        <extensions>
          <ns3:TrackPointExtension>
            <ns3:atemp>26.0</ns3:atemp>
          </ns3:TrackPointExtension>
        </extensions>
      </trkpt>
      <trkpt lat="42.4492608010768890380859375" lon="20.1994081400334835052490234375">
        <ele>1166.5999755859375</ele>
        <time>2026-06-20T12:01:42.000Z</time>
        <extensions>
          <ns3:TrackPointExtension>
            <ns3:atemp>26.0</ns3:atemp>
          </ns3:TrackPointExtension>
        </extensions>
      </trkpt>
      <trkpt lat="42.4492608010768890380859375" lon="20.1994081400334835052490234375">
        <ele>1166.5999755859375</ele>
        <time>2026-06-20T12:01:43.000Z</time>
        <extensions>
          <ns3:TrackPointExtension>
            <ns3:atemp>26.0</ns3:atemp>
          </ns3:TrackPointExtension>
        </extensions>
      </trkpt>
      <trkpt lat="42.4492608010768890380859375" lon="20.1994081400334835052490234375">
        <ele>1166.5999755859375</ele>
        <time>2026-06-20T12:01:44.000Z</time>
        <extensions>
          <ns3:TrackPointExtension>
            <ns3:atemp>26.0</ns3:atemp>
          </ns3:TrackPointExtension>
        </extensions>
      </trkpt>
      <trkpt lat="42.4492608010768890380859375" lon="20.1994081400334835052490234375">
        <ele>1166.5999755859375</ele>
        <time>2026-06-20T12:01:45.000Z</time>
        <extensions>
          <ns3:TrackPointExtension>
            <ns3:atemp>26.0</ns3:atemp>
          </ns3:TrackPointExtension>
        </extensions>
      </trkpt>
      <trkpt lat="42.4492608010768890380859375" lon="20.1994081400334835052490234375">
        <ele>1166.5999755859375</ele>
        <time>2026-06-20T12:01:46.000Z</time>
        <extensions>
          <ns3:TrackPointExtension>
            <ns3:atemp>26.0</ns3:atemp>
          </ns3:TrackPointExtension>
        </extensions>
      </trkpt>
      <trkpt lat="42.4492608010768890380859375" lon="20.1994081400334835052490234375">
        <ele>1166.5999755859375</ele>
        <time>2026-06-20T12:01:47.000Z</time>
        <extensions>
          <ns3:TrackPointExtension>
            <ns3:atemp>26.0</ns3:atemp>
          </ns3:TrackPointExtension>
        </extensions>
      </trkpt>
      <trkpt lat="42.4492608010768890380859375" lon="20.1994081400334835052490234375">
        <ele>1166.5999755859375</ele>
        <time>2026-06-20T12:01:48.000Z</time>
        <extensions>
          <ns3:TrackPointExtension>
            <ns3:atemp>26.0</ns3:atemp>
          </ns3:TrackPointExtension>
        </extensions>
      </trkpt>
      <trkpt lat="42.4492608010768890380859375" lon="20.1994081400334835052490234375">
        <ele>1166.5999755859375</ele>
        <time>2026-06-20T12:01:49.000Z</time>
        <extensions>
          <ns3:TrackPointExtension>
            <ns3:atemp>26.0</ns3:atemp>
          </ns3:TrackPointExtension>
        </extensions>
      </trkpt>
      <trkpt lat="42.4492608010768890380859375" lon="20.1994081400334835052490234375">
        <ele>1166.5999755859375</ele>
        <time>2026-06-20T12:01:50.000Z</time>
        <extensions>
          <ns3:TrackPointExtension>
            <ns3:atemp>26.0</ns3:atemp>
          </ns3:TrackPointExtension>
        </extensions>
      </trkpt>
      <trkpt lat="42.4492608010768890380859375" lon="20.1994081400334835052490234375">
        <ele>1166.5999755859375</ele>
        <time>2026-06-20T12:01:51.000Z</time>
        <extensions>
          <ns3:TrackPointExtension>
            <ns3:atemp>27.0</ns3:atemp>
          </ns3:TrackPointExtension>
        </extensions>
      </trkpt>
      <trkpt lat="42.4492608010768890380859375" lon="20.1994081400334835052490234375">
        <ele>1166.5999755859375</ele>
        <time>2026-06-20T12:01:52.000Z</time>
        <extensions>
          <ns3:TrackPointExtension>
            <ns3:atemp>27.0</ns3:atemp>
          </ns3:TrackPointExtension>
        </extensions>
      </trkpt>
      <trkpt lat="42.4492608010768890380859375" lon="20.1994081400334835052490234375">
        <ele>1166.5999755859375</ele>
        <time>2026-06-20T12:01:53.000Z</time>
        <extensions>
          <ns3:TrackPointExtension>
            <ns3:atemp>27.0</ns3:atemp>
          </ns3:TrackPointExtension>
        </extensions>
      </trkpt>
      <trkpt lat="42.4492608010768890380859375" lon="20.1994081400334835052490234375">
        <ele>1166.5999755859375</ele>
        <time>2026-06-20T12:01:54.000Z</time>
        <extensions>
          <ns3:TrackPointExtension>
            <ns3:atemp>27.0</ns3:atemp>
          </ns3:TrackPointExtension>
        </extensions>
      </trkpt>
      <trkpt lat="42.4492608010768890380859375" lon="20.1994081400334835052490234375">
        <ele>1166.5999755859375</ele>
        <time>2026-06-20T12:01:55.000Z</time>
        <extensions>
          <ns3:TrackPointExtension>
            <ns3:atemp>27.0</ns3:atemp>
          </ns3:TrackPointExtension>
        </extensions>
      </trkpt>
      <trkpt lat="42.4492608010768890380859375" lon="20.1994081400334835052490234375">
        <ele>1166.5999755859375</ele>
        <time>2026-06-20T12:01:56.000Z</time>
        <extensions>
          <ns3:TrackPointExtension>
            <ns3:atemp>27.0</ns3:atemp>
          </ns3:TrackPointExtension>
        </extensions>
      </trkpt>
      <trkpt lat="42.4492608010768890380859375" lon="20.1994081400334835052490234375">
        <ele>1166.5999755859375</ele>
        <time>2026-06-20T12:01:57.000Z</time>
        <extensions>
          <ns3:TrackPointExtension>
            <ns3:atemp>27.0</ns3:atemp>
          </ns3:TrackPointExtension>
        </extensions>
      </trkpt>
      <trkpt lat="42.4492608010768890380859375" lon="20.1994081400334835052490234375">
        <ele>1166.5999755859375</ele>
        <time>2026-06-20T12:01:58.000Z</time>
        <extensions>
          <ns3:TrackPointExtension>
            <ns3:atemp>27.0</ns3:atemp>
          </ns3:TrackPointExtension>
        </extensions>
      </trkpt>
      <trkpt lat="42.4492608010768890380859375" lon="20.1994081400334835052490234375">
        <ele>1166.5999755859375</ele>
        <time>2026-06-20T12:01:59.000Z</time>
        <extensions>
          <ns3:TrackPointExtension>
            <ns3:atemp>27.0</ns3:atemp>
          </ns3:TrackPointExtension>
        </extensions>
      </trkpt>
      <trkpt lat="42.4492608010768890380859375" lon="20.1994081400334835052490234375">
        <ele>1166.5999755859375</ele>
        <time>2026-06-20T12:02:00.000Z</time>
        <extensions>
          <ns3:TrackPointExtension>
            <ns3:atemp>27.0</ns3:atemp>
          </ns3:TrackPointExtension>
        </extensions>
      </trkpt>
      <trkpt lat="42.4492608010768890380859375" lon="20.1994081400334835052490234375">
        <ele>1166.5999755859375</ele>
        <time>2026-06-20T12:02:01.000Z</time>
        <extensions>
          <ns3:TrackPointExtension>
            <ns3:atemp>27.0</ns3:atemp>
          </ns3:TrackPointExtension>
        </extensions>
      </trkpt>
      <trkpt lat="42.4492608010768890380859375" lon="20.1994081400334835052490234375">
        <ele>1166.5999755859375</ele>
        <time>2026-06-20T12:02:02.000Z</time>
        <extensions>
          <ns3:TrackPointExtension>
            <ns3:atemp>27.0</ns3:atemp>
          </ns3:TrackPointExtension>
        </extensions>
      </trkpt>
      <trkpt lat="42.4492608010768890380859375" lon="20.1994081400334835052490234375">
        <ele>1166.5999755859375</ele>
        <time>2026-06-20T12:02:03.000Z</time>
        <extensions>
          <ns3:TrackPointExtension>
            <ns3:atemp>27.0</ns3:atemp>
          </ns3:TrackPointExtension>
        </extensions>
      </trkpt>
      <trkpt lat="42.4492608010768890380859375" lon="20.1994081400334835052490234375">
        <ele>1166.5999755859375</ele>
        <time>2026-06-20T12:02:04.000Z</time>
        <extensions>
          <ns3:TrackPointExtension>
            <ns3:atemp>27.0</ns3:atemp>
          </ns3:TrackPointExtension>
        </extensions>
      </trkpt>
      <trkpt lat="42.4492608010768890380859375" lon="20.1994081400334835052490234375">
        <ele>1166.5999755859375</ele>
        <time>2026-06-20T12:02:05.000Z</time>
        <extensions>
          <ns3:TrackPointExtension>
            <ns3:atemp>27.0</ns3:atemp>
          </ns3:TrackPointExtension>
        </extensions>
      </trkpt>
      <trkpt lat="42.4492608010768890380859375" lon="20.1994081400334835052490234375">
        <ele>1166.5999755859375</ele>
        <time>2026-06-20T12:02:06.000Z</time>
        <extensions>
          <ns3:TrackPointExtension>
            <ns3:atemp>27.0</ns3:atemp>
          </ns3:TrackPointExtension>
        </extensions>
      </trkpt>
      <trkpt lat="42.4492608010768890380859375" lon="20.1994081400334835052490234375">
        <ele>1166.5999755859375</ele>
        <time>2026-06-20T12:02:07.000Z</time>
        <extensions>
          <ns3:TrackPointExtension>
            <ns3:atemp>27.0</ns3:atemp>
          </ns3:TrackPointExtension>
        </extensions>
      </trkpt>
      <trkpt lat="42.4492608010768890380859375" lon="20.1994081400334835052490234375">
        <ele>1166.5999755859375</ele>
        <time>2026-06-20T12:02:08.000Z</time>
        <extensions>
          <ns3:TrackPointExtension>
            <ns3:atemp>27.0</ns3:atemp>
          </ns3:TrackPointExtension>
        </extensions>
      </trkpt>
      <trkpt lat="42.4492608010768890380859375" lon="20.1994081400334835052490234375">
        <ele>1166.5999755859375</ele>
        <time>2026-06-20T12:02:09.000Z</time>
        <extensions>
          <ns3:TrackPointExtension>
            <ns3:atemp>27.0</ns3:atemp>
          </ns3:TrackPointExtension>
        </extensions>
      </trkpt>
      <trkpt lat="42.4492608010768890380859375" lon="20.1994081400334835052490234375">
        <ele>1166.5999755859375</ele>
        <time>2026-06-20T12:02:10.000Z</time>
        <extensions>
          <ns3:TrackPointExtension>
            <ns3:atemp>27.0</ns3:atemp>
          </ns3:TrackPointExtension>
        </extensions>
      </trkpt>
      <trkpt lat="42.4492608010768890380859375" lon="20.1994081400334835052490234375">
        <ele>1166.5999755859375</ele>
        <time>2026-06-20T12:02:11.000Z</time>
        <extensions>
          <ns3:TrackPointExtension>
            <ns3:atemp>27.0</ns3:atemp>
          </ns3:TrackPointExtension>
        </extensions>
      </trkpt>
      <trkpt lat="42.4492608010768890380859375" lon="20.1994081400334835052490234375">
        <ele>1166.5999755859375</ele>
        <time>2026-06-20T12:02:12.000Z</time>
        <extensions>
          <ns3:TrackPointExtension>
            <ns3:atemp>27.0</ns3:atemp>
          </ns3:TrackPointExtension>
        </extensions>
      </trkpt>
      <trkpt lat="42.4492608010768890380859375" lon="20.1994081400334835052490234375">
        <ele>1166.5999755859375</ele>
        <time>2026-06-20T12:02:13.000Z</time>
        <extensions>
          <ns3:TrackPointExtension>
            <ns3:atemp>27.0</ns3:atemp>
          </ns3:TrackPointExtension>
        </extensions>
      </trkpt>
      <trkpt lat="42.4492608010768890380859375" lon="20.1994081400334835052490234375">
        <ele>1166.5999755859375</ele>
        <time>2026-06-20T12:02:14.000Z</time>
        <extensions>
          <ns3:TrackPointExtension>
            <ns3:atemp>27.0</ns3:atemp>
          </ns3:TrackPointExtension>
        </extensions>
      </trkpt>
      <trkpt lat="42.4492608010768890380859375" lon="20.1994081400334835052490234375">
        <ele>1166.5999755859375</ele>
        <time>2026-06-20T12:02:15.000Z</time>
        <extensions>
          <ns3:TrackPointExtension>
            <ns3:atemp>27.0</ns3:atemp>
          </ns3:TrackPointExtension>
        </extensions>
      </trkpt>
      <trkpt lat="42.4492608010768890380859375" lon="20.1994081400334835052490234375">
        <ele>1166.5999755859375</ele>
        <time>2026-06-20T12:02:16.000Z</time>
        <extensions>
          <ns3:TrackPointExtension>
            <ns3:atemp>27.0</ns3:atemp>
          </ns3:TrackPointExtension>
        </extensions>
      </trkpt>
      <trkpt lat="42.4492608010768890380859375" lon="20.1994081400334835052490234375">
        <ele>1166.5999755859375</ele>
        <time>2026-06-20T12:02:17.000Z</time>
        <extensions>
          <ns3:TrackPointExtension>
            <ns3:atemp>27.0</ns3:atemp>
          </ns3:TrackPointExtension>
        </extensions>
      </trkpt>
      <trkpt lat="42.4492608010768890380859375" lon="20.1994081400334835052490234375">
        <ele>1166.5999755859375</ele>
        <time>2026-06-20T12:02:18.000Z</time>
        <extensions>
          <ns3:TrackPointExtension>
            <ns3:atemp>27.0</ns3:atemp>
          </ns3:TrackPointExtension>
        </extensions>
      </trkpt>
      <trkpt lat="42.4492608010768890380859375" lon="20.1994081400334835052490234375">
        <ele>1166.5999755859375</ele>
        <time>2026-06-20T12:02:19.000Z</time>
        <extensions>
          <ns3:TrackPointExtension>
            <ns3:atemp>27.0</ns3:atemp>
          </ns3:TrackPointExtension>
        </extensions>
      </trkpt>
      <trkpt lat="42.4492608010768890380859375" lon="20.1994081400334835052490234375">
        <ele>1166.5999755859375</ele>
        <time>2026-06-20T12:02:20.000Z</time>
        <extensions>
          <ns3:TrackPointExtension>
            <ns3:atemp>27.0</ns3:atemp>
          </ns3:TrackPointExtension>
        </extensions>
      </trkpt>
      <trkpt lat="42.4492608010768890380859375" lon="20.1994081400334835052490234375">
        <ele>1166.5999755859375</ele>
        <time>2026-06-20T12:02:21.000Z</time>
        <extensions>
          <ns3:TrackPointExtension>
            <ns3:atemp>27.0</ns3:atemp>
          </ns3:TrackPointExtension>
        </extensions>
      </trkpt>
      <trkpt lat="42.4492608010768890380859375" lon="20.1994081400334835052490234375">
        <ele>1166.5999755859375</ele>
        <time>2026-06-20T12:02:22.000Z</time>
        <extensions>
          <ns3:TrackPointExtension>
            <ns3:atemp>27.0</ns3:atemp>
          </ns3:TrackPointExtension>
        </extensions>
      </trkpt>
      <trkpt lat="42.4492608010768890380859375" lon="20.1994081400334835052490234375">
        <ele>1166.5999755859375</ele>
        <time>2026-06-20T12:02:23.000Z</time>
        <extensions>
          <ns3:TrackPointExtension>
            <ns3:atemp>27.0</ns3:atemp>
          </ns3:TrackPointExtension>
        </extensions>
      </trkpt>
      <trkpt lat="42.4492608010768890380859375" lon="20.1994081400334835052490234375">
        <ele>1166.5999755859375</ele>
        <time>2026-06-20T12:02:24.000Z</time>
        <extensions>
          <ns3:TrackPointExtension>
            <ns3:atemp>27.0</ns3:atemp>
          </ns3:TrackPointExtension>
        </extensions>
      </trkpt>
      <trkpt lat="42.4492608010768890380859375" lon="20.1994081400334835052490234375">
        <ele>1166.5999755859375</ele>
        <time>2026-06-20T12:02:25.000Z</time>
        <extensions>
          <ns3:TrackPointExtension>
            <ns3:atemp>27.0</ns3:atemp>
          </ns3:TrackPointExtension>
        </extensions>
      </trkpt>
      <trkpt lat="42.4492608010768890380859375" lon="20.1994081400334835052490234375">
        <ele>1166.5999755859375</ele>
        <time>2026-06-20T12:02:26.000Z</time>
        <extensions>
          <ns3:TrackPointExtension>
            <ns3:atemp>27.0</ns3:atemp>
          </ns3:TrackPointExtension>
        </extensions>
      </trkpt>
      <trkpt lat="42.4492608010768890380859375" lon="20.1994081400334835052490234375">
        <ele>1166.5999755859375</ele>
        <time>2026-06-20T12:02:27.000Z</time>
        <extensions>
          <ns3:TrackPointExtension>
            <ns3:atemp>27.0</ns3:atemp>
          </ns3:TrackPointExtension>
        </extensions>
      </trkpt>
      <trkpt lat="42.4492608010768890380859375" lon="20.1994081400334835052490234375">
        <ele>1166.5999755859375</ele>
        <time>2026-06-20T12:02:28.000Z</time>
        <extensions>
          <ns3:TrackPointExtension>
            <ns3:atemp>27.0</ns3:atemp>
          </ns3:TrackPointExtension>
        </extensions>
      </trkpt>
      <trkpt lat="42.4492608010768890380859375" lon="20.1994081400334835052490234375">
        <ele>1166.5999755859375</ele>
        <time>2026-06-20T12:02:29.000Z</time>
        <extensions>
          <ns3:TrackPointExtension>
            <ns3:atemp>27.0</ns3:atemp>
          </ns3:TrackPointExtension>
        </extensions>
      </trkpt>
      <trkpt lat="42.4492608010768890380859375" lon="20.1994081400334835052490234375">
        <ele>1166.5999755859375</ele>
        <time>2026-06-20T12:02:30.000Z</time>
        <extensions>
          <ns3:TrackPointExtension>
            <ns3:atemp>27.0</ns3:atemp>
          </ns3:TrackPointExtension>
        </extensions>
      </trkpt>
      <trkpt lat="42.4492608010768890380859375" lon="20.1994081400334835052490234375">
        <ele>1166.5999755859375</ele>
        <time>2026-06-20T12:02:31.000Z</time>
        <extensions>
          <ns3:TrackPointExtension>
            <ns3:atemp>27.0</ns3:atemp>
          </ns3:TrackPointExtension>
        </extensions>
      </trkpt>
      <trkpt lat="42.4492608010768890380859375" lon="20.1994081400334835052490234375">
        <ele>1166.5999755859375</ele>
        <time>2026-06-20T12:02:32.000Z</time>
        <extensions>
          <ns3:TrackPointExtension>
            <ns3:atemp>27.0</ns3:atemp>
          </ns3:TrackPointExtension>
        </extensions>
      </trkpt>
      <trkpt lat="42.4492608010768890380859375" lon="20.1994081400334835052490234375">
        <ele>1166.5999755859375</ele>
        <time>2026-06-20T12:02:33.000Z</time>
        <extensions>
          <ns3:TrackPointExtension>
            <ns3:atemp>27.0</ns3:atemp>
          </ns3:TrackPointExtension>
        </extensions>
      </trkpt>
      <trkpt lat="42.4492608010768890380859375" lon="20.1994081400334835052490234375">
        <ele>1166.5999755859375</ele>
        <time>2026-06-20T12:02:34.000Z</time>
        <extensions>
          <ns3:TrackPointExtension>
            <ns3:atemp>27.0</ns3:atemp>
          </ns3:TrackPointExtension>
        </extensions>
      </trkpt>
      <trkpt lat="42.4492608010768890380859375" lon="20.1994081400334835052490234375">
        <ele>1166.5999755859375</ele>
        <time>2026-06-20T12:02:35.000Z</time>
        <extensions>
          <ns3:TrackPointExtension>
            <ns3:atemp>27.0</ns3:atemp>
          </ns3:TrackPointExtension>
        </extensions>
      </trkpt>
      <trkpt lat="42.4492608010768890380859375" lon="20.1994081400334835052490234375">
        <ele>1166.5999755859375</ele>
        <time>2026-06-20T12:02:36.000Z</time>
        <extensions>
          <ns3:TrackPointExtension>
            <ns3:atemp>27.0</ns3:atemp>
          </ns3:TrackPointExtension>
        </extensions>
      </trkpt>
      <trkpt lat="42.4492608010768890380859375" lon="20.1994081400334835052490234375">
        <ele>1166.5999755859375</ele>
        <time>2026-06-20T12:02:37.000Z</time>
        <extensions>
          <ns3:TrackPointExtension>
            <ns3:atemp>27.0</ns3:atemp>
          </ns3:TrackPointExtension>
        </extensions>
      </trkpt>
      <trkpt lat="42.4492608010768890380859375" lon="20.1994081400334835052490234375">
        <ele>1166.5999755859375</ele>
        <time>2026-06-20T12:02:38.000Z</time>
        <extensions>
          <ns3:TrackPointExtension>
            <ns3:atemp>27.0</ns3:atemp>
          </ns3:TrackPointExtension>
        </extensions>
      </trkpt>
      <trkpt lat="42.4492608010768890380859375" lon="20.1994081400334835052490234375">
        <ele>1166.5999755859375</ele>
        <time>2026-06-20T12:02:39.000Z</time>
        <extensions>
          <ns3:TrackPointExtension>
            <ns3:atemp>27.0</ns3:atemp>
          </ns3:TrackPointExtension>
        </extensions>
      </trkpt>
      <trkpt lat="42.4492608010768890380859375" lon="20.1994081400334835052490234375">
        <ele>1166.5999755859375</ele>
        <time>2026-06-20T12:02:40.000Z</time>
        <extensions>
          <ns3:TrackPointExtension>
            <ns3:atemp>27.0</ns3:atemp>
          </ns3:TrackPointExtension>
        </extensions>
      </trkpt>
      <trkpt lat="42.4492608010768890380859375" lon="20.1994081400334835052490234375">
        <ele>1166.5999755859375</ele>
        <time>2026-06-20T12:02:41.000Z</time>
        <extensions>
          <ns3:TrackPointExtension>
            <ns3:atemp>27.0</ns3:atemp>
          </ns3:TrackPointExtension>
        </extensions>
      </trkpt>
      <trkpt lat="42.4492608010768890380859375" lon="20.1994081400334835052490234375">
        <ele>1166.5999755859375</ele>
        <time>2026-06-20T12:02:42.000Z</time>
        <extensions>
          <ns3:TrackPointExtension>
            <ns3:atemp>27.0</ns3:atemp>
          </ns3:TrackPointExtension>
        </extensions>
      </trkpt>
      <trkpt lat="42.4492608010768890380859375" lon="20.1994081400334835052490234375">
        <ele>1166.5999755859375</ele>
        <time>2026-06-20T12:02:43.000Z</time>
        <extensions>
          <ns3:TrackPointExtension>
            <ns3:atemp>27.0</ns3:atemp>
          </ns3:TrackPointExtension>
        </extensions>
      </trkpt>
      <trkpt lat="42.4492608010768890380859375" lon="20.1994081400334835052490234375">
        <ele>1166.5999755859375</ele>
        <time>2026-06-20T12:02:44.000Z</time>
        <extensions>
          <ns3:TrackPointExtension>
            <ns3:atemp>27.0</ns3:atemp>
          </ns3:TrackPointExtension>
        </extensions>
      </trkpt>
      <trkpt lat="42.4492608010768890380859375" lon="20.1994081400334835052490234375">
        <ele>1166.5999755859375</ele>
        <time>2026-06-20T12:02:45.000Z</time>
        <extensions>
          <ns3:TrackPointExtension>
            <ns3:atemp>27.0</ns3:atemp>
          </ns3:TrackPointExtension>
        </extensions>
      </trkpt>
      <trkpt lat="42.4492608010768890380859375" lon="20.1994081400334835052490234375">
        <ele>1166.5999755859375</ele>
        <time>2026-06-20T12:02:46.000Z</time>
        <extensions>
          <ns3:TrackPointExtension>
            <ns3:atemp>27.0</ns3:atemp>
          </ns3:TrackPointExtension>
        </extensions>
      </trkpt>
      <trkpt lat="42.4492608010768890380859375" lon="20.1994081400334835052490234375">
        <ele>1166.5999755859375</ele>
        <time>2026-06-20T12:02:47.000Z</time>
        <extensions>
          <ns3:TrackPointExtension>
            <ns3:atemp>27.0</ns3:atemp>
          </ns3:TrackPointExtension>
        </extensions>
      </trkpt>
      <trkpt lat="42.4492608010768890380859375" lon="20.1994081400334835052490234375">
        <ele>1166.5999755859375</ele>
        <time>2026-06-20T12:02:48.000Z</time>
        <extensions>
          <ns3:TrackPointExtension>
            <ns3:atemp>27.0</ns3:atemp>
          </ns3:TrackPointExtension>
        </extensions>
      </trkpt>
      <trkpt lat="42.4492608010768890380859375" lon="20.1994081400334835052490234375">
        <ele>1166.5999755859375</ele>
        <time>2026-06-20T12:02:49.000Z</time>
        <extensions>
          <ns3:TrackPointExtension>
            <ns3:atemp>27.0</ns3:atemp>
          </ns3:TrackPointExtension>
        </extensions>
      </trkpt>
      <trkpt lat="42.4492608010768890380859375" lon="20.1994081400334835052490234375">
        <ele>1166.5999755859375</ele>
        <time>2026-06-20T12:02:50.000Z</time>
        <extensions>
          <ns3:TrackPointExtension>
            <ns3:atemp>27.0</ns3:atemp>
          </ns3:TrackPointExtension>
        </extensions>
      </trkpt>
      <trkpt lat="42.4492608010768890380859375" lon="20.1994081400334835052490234375">
        <ele>1166.5999755859375</ele>
        <time>2026-06-20T12:02:51.000Z</time>
        <extensions>
          <ns3:TrackPointExtension>
            <ns3:atemp>27.0</ns3:atemp>
          </ns3:TrackPointExtension>
        </extensions>
      </trkpt>
      <trkpt lat="42.4492608010768890380859375" lon="20.1994081400334835052490234375">
        <ele>1166.5999755859375</ele>
        <time>2026-06-20T12:02:52.000Z</time>
        <extensions>
          <ns3:TrackPointExtension>
            <ns3:atemp>27.0</ns3:atemp>
          </ns3:TrackPointExtension>
        </extensions>
      </trkpt>
      <trkpt lat="42.4492608010768890380859375" lon="20.1994081400334835052490234375">
        <ele>1166.5999755859375</ele>
        <time>2026-06-20T12:02:53.000Z</time>
        <extensions>
          <ns3:TrackPointExtension>
            <ns3:atemp>27.0</ns3:atemp>
          </ns3:TrackPointExtension>
        </extensions>
      </trkpt>
      <trkpt lat="42.4492608010768890380859375" lon="20.1994081400334835052490234375">
        <ele>1166.5999755859375</ele>
        <time>2026-06-20T12:02:54.000Z</time>
        <extensions>
          <ns3:TrackPointExtension>
            <ns3:atemp>27.0</ns3:atemp>
          </ns3:TrackPointExtension>
        </extensions>
      </trkpt>
      <trkpt lat="42.4492608010768890380859375" lon="20.1994081400334835052490234375">
        <ele>1166.5999755859375</ele>
        <time>2026-06-20T12:02:55.000Z</time>
        <extensions>
          <ns3:TrackPointExtension>
            <ns3:atemp>27.0</ns3:atemp>
          </ns3:TrackPointExtension>
        </extensions>
      </trkpt>
      <trkpt lat="42.4492608010768890380859375" lon="20.1994081400334835052490234375">
        <ele>1166.5999755859375</ele>
        <time>2026-06-20T12:02:56.000Z</time>
        <extensions>
          <ns3:TrackPointExtension>
            <ns3:atemp>27.0</ns3:atemp>
          </ns3:TrackPointExtension>
        </extensions>
      </trkpt>
      <trkpt lat="42.4492608010768890380859375" lon="20.1994081400334835052490234375">
        <ele>1166.5999755859375</ele>
        <time>2026-06-20T12:02:57.000Z</time>
        <extensions>
          <ns3:TrackPointExtension>
            <ns3:atemp>27.0</ns3:atemp>
          </ns3:TrackPointExtension>
        </extensions>
      </trkpt>
      <trkpt lat="42.4492608010768890380859375" lon="20.1994081400334835052490234375">
        <ele>1166.5999755859375</ele>
        <time>2026-06-20T12:02:58.000Z</time>
        <extensions>
          <ns3:TrackPointExtension>
            <ns3:atemp>27.0</ns3:atemp>
          </ns3:TrackPointExtension>
        </extensions>
      </trkpt>
      <trkpt lat="42.4492608010768890380859375" lon="20.1994081400334835052490234375">
        <ele>1166.5999755859375</ele>
        <time>2026-06-20T12:02:59.000Z</time>
        <extensions>
          <ns3:TrackPointExtension>
            <ns3:atemp>27.0</ns3:atemp>
          </ns3:TrackPointExtension>
        </extensions>
      </trkpt>
      <trkpt lat="42.4492608010768890380859375" lon="20.1994081400334835052490234375">
        <ele>1166.5999755859375</ele>
        <time>2026-06-20T12:03:00.000Z</time>
        <extensions>
          <ns3:TrackPointExtension>
            <ns3:atemp>27.0</ns3:atemp>
          </ns3:TrackPointExtension>
        </extensions>
      </trkpt>
      <trkpt lat="42.4492608010768890380859375" lon="20.1994081400334835052490234375">
        <ele>1166.5999755859375</ele>
        <time>2026-06-20T12:03:01.000Z</time>
        <extensions>
          <ns3:TrackPointExtension>
            <ns3:atemp>27.0</ns3:atemp>
          </ns3:TrackPointExtension>
        </extensions>
      </trkpt>
      <trkpt lat="42.4492608010768890380859375" lon="20.1994081400334835052490234375">
        <ele>1166.5999755859375</ele>
        <time>2026-06-20T12:03:02.000Z</time>
        <extensions>
          <ns3:TrackPointExtension>
            <ns3:atemp>27.0</ns3:atemp>
          </ns3:TrackPointExtension>
        </extensions>
      </trkpt>
      <trkpt lat="42.4492608010768890380859375" lon="20.1994081400334835052490234375">
        <ele>1166.5999755859375</ele>
        <time>2026-06-20T12:03:03.000Z</time>
        <extensions>
          <ns3:TrackPointExtension>
            <ns3:atemp>27.0</ns3:atemp>
          </ns3:TrackPointExtension>
        </extensions>
      </trkpt>
      <trkpt lat="42.4492608010768890380859375" lon="20.1994081400334835052490234375">
        <ele>1166.5999755859375</ele>
        <time>2026-06-20T12:03:04.000Z</time>
        <extensions>
          <ns3:TrackPointExtension>
            <ns3:atemp>27.0</ns3:atemp>
          </ns3:TrackPointExtension>
        </extensions>
      </trkpt>
      <trkpt lat="42.4492608010768890380859375" lon="20.1994081400334835052490234375">
        <ele>1166.5999755859375</ele>
        <time>2026-06-20T12:03:05.000Z</time>
        <extensions>
          <ns3:TrackPointExtension>
            <ns3:atemp>27.0</ns3:atemp>
          </ns3:TrackPointExtension>
        </extensions>
      </trkpt>
      <trkpt lat="42.4492608010768890380859375" lon="20.1994081400334835052490234375">
        <ele>1166.5999755859375</ele>
        <time>2026-06-20T12:03:06.000Z</time>
        <extensions>
          <ns3:TrackPointExtension>
            <ns3:atemp>27.0</ns3:atemp>
          </ns3:TrackPointExtension>
        </extensions>
      </trkpt>
      <trkpt lat="42.4492608010768890380859375" lon="20.1994081400334835052490234375">
        <ele>1166.5999755859375</ele>
        <time>2026-06-20T12:03:07.000Z</time>
        <extensions>
          <ns3:TrackPointExtension>
            <ns3:atemp>27.0</ns3:atemp>
          </ns3:TrackPointExtension>
        </extensions>
      </trkpt>
      <trkpt lat="42.4492608010768890380859375" lon="20.1994081400334835052490234375">
        <ele>1166.5999755859375</ele>
        <time>2026-06-20T12:03:08.000Z</time>
        <extensions>
          <ns3:TrackPointExtension>
            <ns3:atemp>27.0</ns3:atemp>
          </ns3:TrackPointExtension>
        </extensions>
      </trkpt>
      <trkpt lat="42.4492608010768890380859375" lon="20.1994081400334835052490234375">
        <ele>1166.5999755859375</ele>
        <time>2026-06-20T12:03:09.000Z</time>
        <extensions>
          <ns3:TrackPointExtension>
            <ns3:atemp>27.0</ns3:atemp>
          </ns3:TrackPointExtension>
        </extensions>
      </trkpt>
      <trkpt lat="42.4492608010768890380859375" lon="20.1994081400334835052490234375">
        <ele>1166.5999755859375</ele>
        <time>2026-06-20T12:03:10.000Z</time>
        <extensions>
          <ns3:TrackPointExtension>
            <ns3:atemp>27.0</ns3:atemp>
          </ns3:TrackPointExtension>
        </extensions>
      </trkpt>
      <trkpt lat="42.4492608010768890380859375" lon="20.1994081400334835052490234375">
        <ele>1166.5999755859375</ele>
        <time>2026-06-20T12:03:11.000Z</time>
        <extensions>
          <ns3:TrackPointExtension>
            <ns3:atemp>27.0</ns3:atemp>
          </ns3:TrackPointExtension>
        </extensions>
      </trkpt>
      <trkpt lat="42.4492608010768890380859375" lon="20.1994081400334835052490234375">
        <ele>1166.5999755859375</ele>
        <time>2026-06-20T12:03:12.000Z</time>
        <extensions>
          <ns3:TrackPointExtension>
            <ns3:atemp>27.0</ns3:atemp>
          </ns3:TrackPointExtension>
        </extensions>
      </trkpt>
      <trkpt lat="42.4492608010768890380859375" lon="20.1994081400334835052490234375">
        <ele>1166.5999755859375</ele>
        <time>2026-06-20T12:03:13.000Z</time>
        <extensions>
          <ns3:TrackPointExtension>
            <ns3:atemp>27.0</ns3:atemp>
          </ns3:TrackPointExtension>
        </extensions>
      </trkpt>
      <trkpt lat="42.4492608010768890380859375" lon="20.1994081400334835052490234375">
        <ele>1166.5999755859375</ele>
        <time>2026-06-20T12:03:14.000Z</time>
        <extensions>
          <ns3:TrackPointExtension>
            <ns3:atemp>27.0</ns3:atemp>
          </ns3:TrackPointExtension>
        </extensions>
      </trkpt>
      <trkpt lat="42.4492608010768890380859375" lon="20.1994081400334835052490234375">
        <ele>1166.5999755859375</ele>
        <time>2026-06-20T12:03:15.000Z</time>
        <extensions>
          <ns3:TrackPointExtension>
            <ns3:atemp>27.0</ns3:atemp>
          </ns3:TrackPointExtension>
        </extensions>
      </trkpt>
      <trkpt lat="42.4492608010768890380859375" lon="20.1994081400334835052490234375">
        <ele>1166.5999755859375</ele>
        <time>2026-06-20T12:03:16.000Z</time>
        <extensions>
          <ns3:TrackPointExtension>
            <ns3:atemp>27.0</ns3:atemp>
          </ns3:TrackPointExtension>
        </extensions>
      </trkpt>
      <trkpt lat="42.4492608010768890380859375" lon="20.1994081400334835052490234375">
        <ele>1166.5999755859375</ele>
        <time>2026-06-20T12:03:17.000Z</time>
        <extensions>
          <ns3:TrackPointExtension>
            <ns3:atemp>27.0</ns3:atemp>
          </ns3:TrackPointExtension>
        </extensions>
      </trkpt>
      <trkpt lat="42.4492608010768890380859375" lon="20.1994081400334835052490234375">
        <ele>1166.5999755859375</ele>
        <time>2026-06-20T12:03:18.000Z</time>
        <extensions>
          <ns3:TrackPointExtension>
            <ns3:atemp>27.0</ns3:atemp>
          </ns3:TrackPointExtension>
        </extensions>
      </trkpt>
      <trkpt lat="42.4492608010768890380859375" lon="20.1994081400334835052490234375">
        <ele>1166.5999755859375</ele>
        <time>2026-06-20T12:03:19.000Z</time>
        <extensions>
          <ns3:TrackPointExtension>
            <ns3:atemp>27.0</ns3:atemp>
          </ns3:TrackPointExtension>
        </extensions>
      </trkpt>
      <trkpt lat="42.4492608010768890380859375" lon="20.1994081400334835052490234375">
        <ele>1166.5999755859375</ele>
        <time>2026-06-20T12:03:20.000Z</time>
        <extensions>
          <ns3:TrackPointExtension>
            <ns3:atemp>27.0</ns3:atemp>
          </ns3:TrackPointExtension>
        </extensions>
      </trkpt>
      <trkpt lat="42.4492608010768890380859375" lon="20.1994081400334835052490234375">
        <ele>1166.5999755859375</ele>
        <time>2026-06-20T12:03:21.000Z</time>
        <extensions>
          <ns3:TrackPointExtension>
            <ns3:atemp>27.0</ns3:atemp>
          </ns3:TrackPointExtension>
        </extensions>
      </trkpt>
      <trkpt lat="42.4492608010768890380859375" lon="20.1994081400334835052490234375">
        <ele>1166.5999755859375</ele>
        <time>2026-06-20T12:03:22.000Z</time>
        <extensions>
          <ns3:TrackPointExtension>
            <ns3:atemp>27.0</ns3:atemp>
          </ns3:TrackPointExtension>
        </extensions>
      </trkpt>
      <trkpt lat="42.4492608010768890380859375" lon="20.1994081400334835052490234375">
        <ele>1166.5999755859375</ele>
        <time>2026-06-20T12:03:23.000Z</time>
        <extensions>
          <ns3:TrackPointExtension>
            <ns3:atemp>27.0</ns3:atemp>
          </ns3:TrackPointExtension>
        </extensions>
      </trkpt>
      <trkpt lat="42.4492608010768890380859375" lon="20.1994081400334835052490234375">
        <ele>1166.5999755859375</ele>
        <time>2026-06-20T12:03:24.000Z</time>
        <extensions>
          <ns3:TrackPointExtension>
            <ns3:atemp>27.0</ns3:atemp>
          </ns3:TrackPointExtension>
        </extensions>
      </trkpt>
      <trkpt lat="42.4492608010768890380859375" lon="20.1994081400334835052490234375">
        <ele>1166.5999755859375</ele>
        <time>2026-06-20T12:03:25.000Z</time>
        <extensions>
          <ns3:TrackPointExtension>
            <ns3:atemp>27.0</ns3:atemp>
          </ns3:TrackPointExtension>
        </extensions>
      </trkpt>
      <trkpt lat="42.4492608010768890380859375" lon="20.1994081400334835052490234375">
        <ele>1166.5999755859375</ele>
        <time>2026-06-20T12:03:26.000Z</time>
        <extensions>
          <ns3:TrackPointExtension>
            <ns3:atemp>27.0</ns3:atemp>
          </ns3:TrackPointExtension>
        </extensions>
      </trkpt>
      <trkpt lat="42.4492608010768890380859375" lon="20.1994081400334835052490234375">
        <ele>1166.5999755859375</ele>
        <time>2026-06-20T12:03:27.000Z</time>
        <extensions>
          <ns3:TrackPointExtension>
            <ns3:atemp>27.0</ns3:atemp>
          </ns3:TrackPointExtension>
        </extensions>
      </trkpt>
      <trkpt lat="42.4492608010768890380859375" lon="20.1994081400334835052490234375">
        <ele>1166.5999755859375</ele>
        <time>2026-06-20T12:03:28.000Z</time>
        <extensions>
          <ns3:TrackPointExtension>
            <ns3:atemp>27.0</ns3:atemp>
          </ns3:TrackPointExtension>
        </extensions>
      </trkpt>
      <trkpt lat="42.4492608010768890380859375" lon="20.1994081400334835052490234375">
        <ele>1166.5999755859375</ele>
        <time>2026-06-20T12:03:29.000Z</time>
        <extensions>
          <ns3:TrackPointExtension>
            <ns3:atemp>27.0</ns3:atemp>
          </ns3:TrackPointExtension>
        </extensions>
      </trkpt>
      <trkpt lat="42.4492608010768890380859375" lon="20.1994081400334835052490234375">
        <ele>1166.5999755859375</ele>
        <time>2026-06-20T12:03:30.000Z</time>
        <extensions>
          <ns3:TrackPointExtension>
            <ns3:atemp>27.0</ns3:atemp>
          </ns3:TrackPointExtension>
        </extensions>
      </trkpt>
      <trkpt lat="42.4492608010768890380859375" lon="20.1994081400334835052490234375">
        <ele>1166.5999755859375</ele>
        <time>2026-06-20T12:03:31.000Z</time>
        <extensions>
          <ns3:TrackPointExtension>
            <ns3:atemp>27.0</ns3:atemp>
          </ns3:TrackPointExtension>
        </extensions>
      </trkpt>
      <trkpt lat="42.4492608010768890380859375" lon="20.1994081400334835052490234375">
        <ele>1166.5999755859375</ele>
        <time>2026-06-20T12:03:32.000Z</time>
        <extensions>
          <ns3:TrackPointExtension>
            <ns3:atemp>27.0</ns3:atemp>
          </ns3:TrackPointExtension>
        </extensions>
      </trkpt>
      <trkpt lat="42.4492608010768890380859375" lon="20.1994081400334835052490234375">
        <ele>1166.5999755859375</ele>
        <time>2026-06-20T12:03:33.000Z</time>
        <extensions>
          <ns3:TrackPointExtension>
            <ns3:atemp>27.0</ns3:atemp>
          </ns3:TrackPointExtension>
        </extensions>
      </trkpt>
      <trkpt lat="42.4492608010768890380859375" lon="20.1994081400334835052490234375">
        <ele>1166.5999755859375</ele>
        <time>2026-06-20T12:03:34.000Z</time>
        <extensions>
          <ns3:TrackPointExtension>
            <ns3:atemp>27.0</ns3:atemp>
          </ns3:TrackPointExtension>
        </extensions>
      </trkpt>
      <trkpt lat="42.4492608010768890380859375" lon="20.1994081400334835052490234375">
        <ele>1166.5999755859375</ele>
        <time>2026-06-20T12:03:35.000Z</time>
        <extensions>
          <ns3:TrackPointExtension>
            <ns3:atemp>27.0</ns3:atemp>
          </ns3:TrackPointExtension>
        </extensions>
      </trkpt>
      <trkpt lat="42.4492608010768890380859375" lon="20.1994081400334835052490234375">
        <ele>1166.5999755859375</ele>
        <time>2026-06-20T12:03:36.000Z</time>
        <extensions>
          <ns3:TrackPointExtension>
            <ns3:atemp>27.0</ns3:atemp>
          </ns3:TrackPointExtension>
        </extensions>
      </trkpt>
      <trkpt lat="42.4492608010768890380859375" lon="20.1994081400334835052490234375">
        <ele>1166.5999755859375</ele>
        <time>2026-06-20T12:03:37.000Z</time>
        <extensions>
          <ns3:TrackPointExtension>
            <ns3:atemp>27.0</ns3:atemp>
          </ns3:TrackPointExtension>
        </extensions>
      </trkpt>
      <trkpt lat="42.4492608010768890380859375" lon="20.1994081400334835052490234375">
        <ele>1166.5999755859375</ele>
        <time>2026-06-20T12:03:38.000Z</time>
        <extensions>
          <ns3:TrackPointExtension>
            <ns3:atemp>27.0</ns3:atemp>
          </ns3:TrackPointExtension>
        </extensions>
      </trkpt>
      <trkpt lat="42.4492608010768890380859375" lon="20.1994081400334835052490234375">
        <ele>1166.5999755859375</ele>
        <time>2026-06-20T12:03:39.000Z</time>
        <extensions>
          <ns3:TrackPointExtension>
            <ns3:atemp>27.0</ns3:atemp>
          </ns3:TrackPointExtension>
        </extensions>
      </trkpt>
      <trkpt lat="42.4492608010768890380859375" lon="20.1994081400334835052490234375">
        <ele>1166.5999755859375</ele>
        <time>2026-06-20T12:03:40.000Z</time>
        <extensions>
          <ns3:TrackPointExtension>
            <ns3:atemp>27.0</ns3:atemp>
          </ns3:TrackPointExtension>
        </extensions>
      </trkpt>
      <trkpt lat="42.4492608010768890380859375" lon="20.1994081400334835052490234375">
        <ele>1166.5999755859375</ele>
        <time>2026-06-20T12:03:41.000Z</time>
        <extensions>
          <ns3:TrackPointExtension>
            <ns3:atemp>27.0</ns3:atemp>
          </ns3:TrackPointExtension>
        </extensions>
      </trkpt>
      <trkpt lat="42.4492608010768890380859375" lon="20.1994081400334835052490234375">
        <ele>1166.5999755859375</ele>
        <time>2026-06-20T12:03:42.000Z</time>
        <extensions>
          <ns3:TrackPointExtension>
            <ns3:atemp>27.0</ns3:atemp>
          </ns3:TrackPointExtension>
        </extensions>
      </trkpt>
      <trkpt lat="42.4492608010768890380859375" lon="20.1994081400334835052490234375">
        <ele>1166.5999755859375</ele>
        <time>2026-06-20T12:03:43.000Z</time>
        <extensions>
          <ns3:TrackPointExtension>
            <ns3:atemp>27.0</ns3:atemp>
          </ns3:TrackPointExtension>
        </extensions>
      </trkpt>
      <trkpt lat="42.4492608010768890380859375" lon="20.1994081400334835052490234375">
        <ele>1166.5999755859375</ele>
        <time>2026-06-20T12:03:44.000Z</time>
        <extensions>
          <ns3:TrackPointExtension>
            <ns3:atemp>27.0</ns3:atemp>
          </ns3:TrackPointExtension>
        </extensions>
      </trkpt>
      <trkpt lat="42.4492608010768890380859375" lon="20.1994081400334835052490234375">
        <ele>1166.5999755859375</ele>
        <time>2026-06-20T12:03:45.000Z</time>
        <extensions>
          <ns3:TrackPointExtension>
            <ns3:atemp>27.0</ns3:atemp>
          </ns3:TrackPointExtension>
        </extensions>
      </trkpt>
      <trkpt lat="42.4492608010768890380859375" lon="20.1994081400334835052490234375">
        <ele>1166.5999755859375</ele>
        <time>2026-06-20T12:03:46.000Z</time>
        <extensions>
          <ns3:TrackPointExtension>
            <ns3:atemp>27.0</ns3:atemp>
          </ns3:TrackPointExtension>
        </extensions>
      </trkpt>
      <trkpt lat="42.4492608010768890380859375" lon="20.1994081400334835052490234375">
        <ele>1166.5999755859375</ele>
        <time>2026-06-20T12:03:47.000Z</time>
        <extensions>
          <ns3:TrackPointExtension>
            <ns3:atemp>27.0</ns3:atemp>
          </ns3:TrackPointExtension>
        </extensions>
      </trkpt>
      <trkpt lat="42.4492608010768890380859375" lon="20.1994081400334835052490234375">
        <ele>1166.5999755859375</ele>
        <time>2026-06-20T12:03:48.000Z</time>
        <extensions>
          <ns3:TrackPointExtension>
            <ns3:atemp>27.0</ns3:atemp>
          </ns3:TrackPointExtension>
        </extensions>
      </trkpt>
      <trkpt lat="42.4492608010768890380859375" lon="20.1994081400334835052490234375">
        <ele>1166.5999755859375</ele>
        <time>2026-06-20T12:03:49.000Z</time>
        <extensions>
          <ns3:TrackPointExtension>
            <ns3:atemp>27.0</ns3:atemp>
          </ns3:TrackPointExtension>
        </extensions>
      </trkpt>
      <trkpt lat="42.4492608010768890380859375" lon="20.1994081400334835052490234375">
        <ele>1166.5999755859375</ele>
        <time>2026-06-20T12:03:50.000Z</time>
        <extensions>
          <ns3:TrackPointExtension>
            <ns3:atemp>27.0</ns3:atemp>
          </ns3:TrackPointExtension>
        </extensions>
      </trkpt>
      <trkpt lat="42.4492608010768890380859375" lon="20.1994081400334835052490234375">
        <ele>1166.5999755859375</ele>
        <time>2026-06-20T12:03:51.000Z</time>
        <extensions>
          <ns3:TrackPointExtension>
            <ns3:atemp>27.0</ns3:atemp>
          </ns3:TrackPointExtension>
        </extensions>
      </trkpt>
      <trkpt lat="42.4492608010768890380859375" lon="20.1994081400334835052490234375">
        <ele>1166.5999755859375</ele>
        <time>2026-06-20T12:03:52.000Z</time>
        <extensions>
          <ns3:TrackPointExtension>
            <ns3:atemp>27.0</ns3:atemp>
          </ns3:TrackPointExtension>
        </extensions>
      </trkpt>
      <trkpt lat="42.4492608010768890380859375" lon="20.1994081400334835052490234375">
        <ele>1166.5999755859375</ele>
        <time>2026-06-20T12:03:53.000Z</time>
        <extensions>
          <ns3:TrackPointExtension>
            <ns3:atemp>27.0</ns3:atemp>
          </ns3:TrackPointExtension>
        </extensions>
      </trkpt>
      <trkpt lat="42.4492608010768890380859375" lon="20.1994081400334835052490234375">
        <ele>1166.5999755859375</ele>
        <time>2026-06-20T12:03:54.000Z</time>
        <extensions>
          <ns3:TrackPointExtension>
            <ns3:atemp>27.0</ns3:atemp>
          </ns3:TrackPointExtension>
        </extensions>
      </trkpt>
      <trkpt lat="42.4492608010768890380859375" lon="20.1994081400334835052490234375">
        <ele>1166.5999755859375</ele>
        <time>2026-06-20T12:03:55.000Z</time>
        <extensions>
          <ns3:TrackPointExtension>
            <ns3:atemp>27.0</ns3:atemp>
          </ns3:TrackPointExtension>
        </extensions>
      </trkpt>
      <trkpt lat="42.4492608010768890380859375" lon="20.1994081400334835052490234375">
        <ele>1166.5999755859375</ele>
        <time>2026-06-20T12:03:56.000Z</time>
        <extensions>
          <ns3:TrackPointExtension>
            <ns3:atemp>27.0</ns3:atemp>
          </ns3:TrackPointExtension>
        </extensions>
      </trkpt>
      <trkpt lat="42.4492608010768890380859375" lon="20.1994081400334835052490234375">
        <ele>1166.5999755859375</ele>
        <time>2026-06-20T12:03:57.000Z</time>
        <extensions>
          <ns3:TrackPointExtension>
            <ns3:atemp>27.0</ns3:atemp>
          </ns3:TrackPointExtension>
        </extensions>
      </trkpt>
      <trkpt lat="42.4492608010768890380859375" lon="20.1994081400334835052490234375">
        <ele>1166.5999755859375</ele>
        <time>2026-06-20T12:03:58.000Z</time>
        <extensions>
          <ns3:TrackPointExtension>
            <ns3:atemp>27.0</ns3:atemp>
          </ns3:TrackPointExtension>
        </extensions>
      </trkpt>
      <trkpt lat="42.4492608010768890380859375" lon="20.1994081400334835052490234375">
        <ele>1166.5999755859375</ele>
        <time>2026-06-20T12:03:59.000Z</time>
        <extensions>
          <ns3:TrackPointExtension>
            <ns3:atemp>27.0</ns3:atemp>
          </ns3:TrackPointExtension>
        </extensions>
      </trkpt>
      <trkpt lat="42.4492608010768890380859375" lon="20.1994081400334835052490234375">
        <ele>1166.5999755859375</ele>
        <time>2026-06-20T12:04:00.000Z</time>
        <extensions>
          <ns3:TrackPointExtension>
            <ns3:atemp>27.0</ns3:atemp>
          </ns3:TrackPointExtension>
        </extensions>
      </trkpt>
      <trkpt lat="42.4492608010768890380859375" lon="20.1994081400334835052490234375">
        <ele>1166.5999755859375</ele>
        <time>2026-06-20T12:04:01.000Z</time>
        <extensions>
          <ns3:TrackPointExtension>
            <ns3:atemp>27.0</ns3:atemp>
          </ns3:TrackPointExtension>
        </extensions>
      </trkpt>
      <trkpt lat="42.4492608010768890380859375" lon="20.1994081400334835052490234375">
        <ele>1166.5999755859375</ele>
        <time>2026-06-20T12:04:02.000Z</time>
        <extensions>
          <ns3:TrackPointExtension>
            <ns3:atemp>27.0</ns3:atemp>
          </ns3:TrackPointExtension>
        </extensions>
      </trkpt>
      <trkpt lat="42.4492608010768890380859375" lon="20.1994081400334835052490234375">
        <ele>1166.5999755859375</ele>
        <time>2026-06-20T12:04:03.000Z</time>
        <extensions>
          <ns3:TrackPointExtension>
            <ns3:atemp>27.0</ns3:atemp>
          </ns3:TrackPointExtension>
        </extensions>
      </trkpt>
      <trkpt lat="42.4492608010768890380859375" lon="20.1994081400334835052490234375">
        <ele>1166.5999755859375</ele>
        <time>2026-06-20T12:04:04.000Z</time>
        <extensions>
          <ns3:TrackPointExtension>
            <ns3:atemp>27.0</ns3:atemp>
          </ns3:TrackPointExtension>
        </extensions>
      </trkpt>
      <trkpt lat="42.4492608010768890380859375" lon="20.1994081400334835052490234375">
        <ele>1166.5999755859375</ele>
        <time>2026-06-20T12:04:05.000Z</time>
        <extensions>
          <ns3:TrackPointExtension>
            <ns3:atemp>27.0</ns3:atemp>
          </ns3:TrackPointExtension>
        </extensions>
      </trkpt>
      <trkpt lat="42.4492608010768890380859375" lon="20.1994081400334835052490234375">
        <ele>1166.5999755859375</ele>
        <time>2026-06-20T12:04:06.000Z</time>
        <extensions>
          <ns3:TrackPointExtension>
            <ns3:atemp>27.0</ns3:atemp>
          </ns3:TrackPointExtension>
        </extensions>
      </trkpt>
      <trkpt lat="42.4492608010768890380859375" lon="20.1994081400334835052490234375">
        <ele>1166.5999755859375</ele>
        <time>2026-06-20T12:04:07.000Z</time>
        <extensions>
          <ns3:TrackPointExtension>
            <ns3:atemp>27.0</ns3:atemp>
          </ns3:TrackPointExtension>
        </extensions>
      </trkpt>
      <trkpt lat="42.4492608010768890380859375" lon="20.1994081400334835052490234375">
        <ele>1166.5999755859375</ele>
        <time>2026-06-20T12:04:08.000Z</time>
        <extensions>
          <ns3:TrackPointExtension>
            <ns3:atemp>27.0</ns3:atemp>
          </ns3:TrackPointExtension>
        </extensions>
      </trkpt>
      <trkpt lat="42.4492608010768890380859375" lon="20.1994081400334835052490234375">
        <ele>1166.5999755859375</ele>
        <time>2026-06-20T12:04:09.000Z</time>
        <extensions>
          <ns3:TrackPointExtension>
            <ns3:atemp>27.0</ns3:atemp>
          </ns3:TrackPointExtension>
        </extensions>
      </trkpt>
      <trkpt lat="42.4492608010768890380859375" lon="20.1994081400334835052490234375">
        <ele>1166.5999755859375</ele>
        <time>2026-06-20T12:04:10.000Z</time>
        <extensions>
          <ns3:TrackPointExtension>
            <ns3:atemp>27.0</ns3:atemp>
          </ns3:TrackPointExtension>
        </extensions>
      </trkpt>
      <trkpt lat="42.4492608010768890380859375" lon="20.1994081400334835052490234375">
        <ele>1166.5999755859375</ele>
        <time>2026-06-20T12:04:11.000Z</time>
        <extensions>
          <ns3:TrackPointExtension>
            <ns3:atemp>27.0</ns3:atemp>
          </ns3:TrackPointExtension>
        </extensions>
      </trkpt>
      <trkpt lat="42.4492608010768890380859375" lon="20.1994081400334835052490234375">
        <ele>1166.5999755859375</ele>
        <time>2026-06-20T12:04:12.000Z</time>
        <extensions>
          <ns3:TrackPointExtension>
            <ns3:atemp>27.0</ns3:atemp>
          </ns3:TrackPointExtension>
        </extensions>
      </trkpt>
      <trkpt lat="42.4492608010768890380859375" lon="20.1994081400334835052490234375">
        <ele>1166.5999755859375</ele>
        <time>2026-06-20T12:04:13.000Z</time>
        <extensions>
          <ns3:TrackPointExtension>
            <ns3:atemp>27.0</ns3:atemp>
          </ns3:TrackPointExtension>
        </extensions>
      </trkpt>
      <trkpt lat="42.4492608010768890380859375" lon="20.1994081400334835052490234375">
        <ele>1166.5999755859375</ele>
        <time>2026-06-20T12:04:14.000Z</time>
        <extensions>
          <ns3:TrackPointExtension>
            <ns3:atemp>27.0</ns3:atemp>
          </ns3:TrackPointExtension>
        </extensions>
      </trkpt>
      <trkpt lat="42.4492608010768890380859375" lon="20.1994081400334835052490234375">
        <ele>1166.5999755859375</ele>
        <time>2026-06-20T12:04:15.000Z</time>
        <extensions>
          <ns3:TrackPointExtension>
            <ns3:atemp>27.0</ns3:atemp>
          </ns3:TrackPointExtension>
        </extensions>
      </trkpt>
      <trkpt lat="42.4492608010768890380859375" lon="20.1994081400334835052490234375">
        <ele>1166.5999755859375</ele>
        <time>2026-06-20T12:04:16.000Z</time>
        <extensions>
          <ns3:TrackPointExtension>
            <ns3:atemp>27.0</ns3:atemp>
          </ns3:TrackPointExtension>
        </extensions>
      </trkpt>
      <trkpt lat="42.4492608010768890380859375" lon="20.1994081400334835052490234375">
        <ele>1166.5999755859375</ele>
        <time>2026-06-20T12:04:17.000Z</time>
        <extensions>
          <ns3:TrackPointExtension>
            <ns3:atemp>27.0</ns3:atemp>
          </ns3:TrackPointExtension>
        </extensions>
      </trkpt>
      <trkpt lat="42.4492608010768890380859375" lon="20.1994081400334835052490234375">
        <ele>1166.5999755859375</ele>
        <time>2026-06-20T12:04:18.000Z</time>
        <extensions>
          <ns3:TrackPointExtension>
            <ns3:atemp>27.0</ns3:atemp>
          </ns3:TrackPointExtension>
        </extensions>
      </trkpt>
      <trkpt lat="42.4492608010768890380859375" lon="20.1994081400334835052490234375">
        <ele>1166.5999755859375</ele>
        <time>2026-06-20T12:04:19.000Z</time>
        <extensions>
          <ns3:TrackPointExtension>
            <ns3:atemp>27.0</ns3:atemp>
          </ns3:TrackPointExtension>
        </extensions>
      </trkpt>
      <trkpt lat="42.4492608010768890380859375" lon="20.1994081400334835052490234375">
        <ele>1166.5999755859375</ele>
        <time>2026-06-20T12:04:20.000Z</time>
        <extensions>
          <ns3:TrackPointExtension>
            <ns3:atemp>27.0</ns3:atemp>
          </ns3:TrackPointExtension>
        </extensions>
      </trkpt>
      <trkpt lat="42.4492608010768890380859375" lon="20.1994081400334835052490234375">
        <ele>1166.5999755859375</ele>
        <time>2026-06-20T12:04:21.000Z</time>
        <extensions>
          <ns3:TrackPointExtension>
            <ns3:atemp>27.0</ns3:atemp>
          </ns3:TrackPointExtension>
        </extensions>
      </trkpt>
      <trkpt lat="42.4492608010768890380859375" lon="20.1994081400334835052490234375">
        <ele>1166.5999755859375</ele>
        <time>2026-06-20T12:04:22.000Z</time>
        <extensions>
          <ns3:TrackPointExtension>
            <ns3:atemp>27.0</ns3:atemp>
          </ns3:TrackPointExtension>
        </extensions>
      </trkpt>
      <trkpt lat="42.4492608010768890380859375" lon="20.1994081400334835052490234375">
        <ele>1166.5999755859375</ele>
        <time>2026-06-20T12:04:23.000Z</time>
        <extensions>
          <ns3:TrackPointExtension>
            <ns3:atemp>27.0</ns3:atemp>
          </ns3:TrackPointExtension>
        </extensions>
      </trkpt>
      <trkpt lat="42.4492608010768890380859375" lon="20.1994081400334835052490234375">
        <ele>1166.5999755859375</ele>
        <time>2026-06-20T12:04:24.000Z</time>
        <extensions>
          <ns3:TrackPointExtension>
            <ns3:atemp>27.0</ns3:atemp>
          </ns3:TrackPointExtension>
        </extensions>
      </trkpt>
      <trkpt lat="42.4492608010768890380859375" lon="20.1994081400334835052490234375">
        <ele>1166.5999755859375</ele>
        <time>2026-06-20T12:04:25.000Z</time>
        <extensions>
          <ns3:TrackPointExtension>
            <ns3:atemp>27.0</ns3:atemp>
          </ns3:TrackPointExtension>
        </extensions>
      </trkpt>
      <trkpt lat="42.4492608010768890380859375" lon="20.1994081400334835052490234375">
        <ele>1166.5999755859375</ele>
        <time>2026-06-20T12:04:26.000Z</time>
        <extensions>
          <ns3:TrackPointExtension>
            <ns3:atemp>27.0</ns3:atemp>
          </ns3:TrackPointExtension>
        </extensions>
      </trkpt>
      <trkpt lat="42.4492608010768890380859375" lon="20.1994081400334835052490234375">
        <ele>1166.5999755859375</ele>
        <time>2026-06-20T12:04:27.000Z</time>
        <extensions>
          <ns3:TrackPointExtension>
            <ns3:atemp>27.0</ns3:atemp>
          </ns3:TrackPointExtension>
        </extensions>
      </trkpt>
      <trkpt lat="42.4492608010768890380859375" lon="20.1994081400334835052490234375">
        <ele>1166.5999755859375</ele>
        <time>2026-06-20T12:04:28.000Z</time>
        <extensions>
          <ns3:TrackPointExtension>
            <ns3:atemp>27.0</ns3:atemp>
          </ns3:TrackPointExtension>
        </extensions>
      </trkpt>
      <trkpt lat="42.4492608010768890380859375" lon="20.1994081400334835052490234375">
        <ele>1166.5999755859375</ele>
        <time>2026-06-20T12:04:29.000Z</time>
        <extensions>
          <ns3:TrackPointExtension>
            <ns3:atemp>27.0</ns3:atemp>
          </ns3:TrackPointExtension>
        </extensions>
      </trkpt>
      <trkpt lat="42.4492608010768890380859375" lon="20.1994081400334835052490234375">
        <ele>1166.5999755859375</ele>
        <time>2026-06-20T12:04:30.000Z</time>
        <extensions>
          <ns3:TrackPointExtension>
            <ns3:atemp>27.0</ns3:atemp>
          </ns3:TrackPointExtension>
        </extensions>
      </trkpt>
      <trkpt lat="42.4492608010768890380859375" lon="20.1994081400334835052490234375">
        <ele>1166.5999755859375</ele>
        <time>2026-06-20T12:04:31.000Z</time>
        <extensions>
          <ns3:TrackPointExtension>
            <ns3:atemp>27.0</ns3:atemp>
          </ns3:TrackPointExtension>
        </extensions>
      </trkpt>
      <trkpt lat="42.4492608010768890380859375" lon="20.1994081400334835052490234375">
        <ele>1166.5999755859375</ele>
        <time>2026-06-20T12:04:32.000Z</time>
        <extensions>
          <ns3:TrackPointExtension>
            <ns3:atemp>27.0</ns3:atemp>
          </ns3:TrackPointExtension>
        </extensions>
      </trkpt>
      <trkpt lat="42.4492608010768890380859375" lon="20.1994081400334835052490234375">
        <ele>1166.5999755859375</ele>
        <time>2026-06-20T12:04:33.000Z</time>
        <extensions>
          <ns3:TrackPointExtension>
            <ns3:atemp>27.0</ns3:atemp>
          </ns3:TrackPointExtension>
        </extensions>
      </trkpt>
      <trkpt lat="42.4492608010768890380859375" lon="20.1994081400334835052490234375">
        <ele>1166.5999755859375</ele>
        <time>2026-06-20T12:04:34.000Z</time>
        <extensions>
          <ns3:TrackPointExtension>
            <ns3:atemp>27.0</ns3:atemp>
          </ns3:TrackPointExtension>
        </extensions>
      </trkpt>
      <trkpt lat="42.4492608010768890380859375" lon="20.1994081400334835052490234375">
        <ele>1166.5999755859375</ele>
        <time>2026-06-20T12:04:35.000Z</time>
        <extensions>
          <ns3:TrackPointExtension>
            <ns3:atemp>27.0</ns3:atemp>
          </ns3:TrackPointExtension>
        </extensions>
      </trkpt>
      <trkpt lat="42.4492608010768890380859375" lon="20.1994081400334835052490234375">
        <ele>1166.5999755859375</ele>
        <time>2026-06-20T12:04:36.000Z</time>
        <extensions>
          <ns3:TrackPointExtension>
            <ns3:atemp>27.0</ns3:atemp>
          </ns3:TrackPointExtension>
        </extensions>
      </trkpt>
      <trkpt lat="42.4492608010768890380859375" lon="20.1994081400334835052490234375">
        <ele>1166.5999755859375</ele>
        <time>2026-06-20T12:04:37.000Z</time>
        <extensions>
          <ns3:TrackPointExtension>
            <ns3:atemp>27.0</ns3:atemp>
          </ns3:TrackPointExtension>
        </extensions>
      </trkpt>
      <trkpt lat="42.4492608010768890380859375" lon="20.1994081400334835052490234375">
        <ele>1166.5999755859375</ele>
        <time>2026-06-20T12:04:38.000Z</time>
        <extensions>
          <ns3:TrackPointExtension>
            <ns3:atemp>27.0</ns3:atemp>
          </ns3:TrackPointExtension>
        </extensions>
      </trkpt>
      <trkpt lat="42.4492608010768890380859375" lon="20.1994081400334835052490234375">
        <ele>1166.5999755859375</ele>
        <time>2026-06-20T12:04:39.000Z</time>
        <extensions>
          <ns3:TrackPointExtension>
            <ns3:atemp>27.0</ns3:atemp>
          </ns3:TrackPointExtension>
        </extensions>
      </trkpt>
      <trkpt lat="42.4492608010768890380859375" lon="20.1994081400334835052490234375">
        <ele>1166.5999755859375</ele>
        <time>2026-06-20T12:04:40.000Z</time>
        <extensions>
          <ns3:TrackPointExtension>
            <ns3:atemp>27.0</ns3:atemp>
          </ns3:TrackPointExtension>
        </extensions>
      </trkpt>
      <trkpt lat="42.4492608010768890380859375" lon="20.1994081400334835052490234375">
        <ele>1166.5999755859375</ele>
        <time>2026-06-20T12:04:41.000Z</time>
        <extensions>
          <ns3:TrackPointExtension>
            <ns3:atemp>27.0</ns3:atemp>
          </ns3:TrackPointExtension>
        </extensions>
      </trkpt>
      <trkpt lat="42.4492608010768890380859375" lon="20.1994081400334835052490234375">
        <ele>1166.5999755859375</ele>
        <time>2026-06-20T12:04:42.000Z</time>
        <extensions>
          <ns3:TrackPointExtension>
            <ns3:atemp>27.0</ns3:atemp>
          </ns3:TrackPointExtension>
        </extensions>
      </trkpt>
      <trkpt lat="42.4492608010768890380859375" lon="20.1994081400334835052490234375">
        <ele>1166.5999755859375</ele>
        <time>2026-06-20T12:04:43.000Z</time>
        <extensions>
          <ns3:TrackPointExtension>
            <ns3:atemp>27.0</ns3:atemp>
          </ns3:TrackPointExtension>
        </extensions>
      </trkpt>
      <trkpt lat="42.4492608010768890380859375" lon="20.1994081400334835052490234375">
        <ele>1166.5999755859375</ele>
        <time>2026-06-20T12:04:44.000Z</time>
        <extensions>
          <ns3:TrackPointExtension>
            <ns3:atemp>27.0</ns3:atemp>
          </ns3:TrackPointExtension>
        </extensions>
      </trkpt>
      <trkpt lat="42.4492608010768890380859375" lon="20.1994081400334835052490234375">
        <ele>1166.5999755859375</ele>
        <time>2026-06-20T12:04:45.000Z</time>
        <extensions>
          <ns3:TrackPointExtension>
            <ns3:atemp>27.0</ns3:atemp>
          </ns3:TrackPointExtension>
        </extensions>
      </trkpt>
      <trkpt lat="42.4492608010768890380859375" lon="20.1994081400334835052490234375">
        <ele>1166.5999755859375</ele>
        <time>2026-06-20T12:04:46.000Z</time>
        <extensions>
          <ns3:TrackPointExtension>
            <ns3:atemp>27.0</ns3:atemp>
          </ns3:TrackPointExtension>
        </extensions>
      </trkpt>
      <trkpt lat="42.4492608010768890380859375" lon="20.1994081400334835052490234375">
        <ele>1166.5999755859375</ele>
        <time>2026-06-20T12:04:47.000Z</time>
        <extensions>
          <ns3:TrackPointExtension>
            <ns3:atemp>27.0</ns3:atemp>
          </ns3:TrackPointExtension>
        </extensions>
      </trkpt>
      <trkpt lat="42.4492608010768890380859375" lon="20.1994081400334835052490234375">
        <ele>1166.5999755859375</ele>
        <time>2026-06-20T12:04:48.000Z</time>
        <extensions>
          <ns3:TrackPointExtension>
            <ns3:atemp>27.0</ns3:atemp>
          </ns3:TrackPointExtension>
        </extensions>
      </trkpt>
      <trkpt lat="42.4492608010768890380859375" lon="20.1994081400334835052490234375">
        <ele>1166.5999755859375</ele>
        <time>2026-06-20T12:04:49.000Z</time>
        <extensions>
          <ns3:TrackPointExtension>
            <ns3:atemp>27.0</ns3:atemp>
          </ns3:TrackPointExtension>
        </extensions>
      </trkpt>
      <trkpt lat="42.4492608010768890380859375" lon="20.1994081400334835052490234375">
        <ele>1166.5999755859375</ele>
        <time>2026-06-20T12:04:50.000Z</time>
        <extensions>
          <ns3:TrackPointExtension>
            <ns3:atemp>27.0</ns3:atemp>
          </ns3:TrackPointExtension>
        </extensions>
      </trkpt>
      <trkpt lat="42.4492608010768890380859375" lon="20.1994081400334835052490234375">
        <ele>1166.5999755859375</ele>
        <time>2026-06-20T12:04:51.000Z</time>
        <extensions>
          <ns3:TrackPointExtension>
            <ns3:atemp>27.0</ns3:atemp>
          </ns3:TrackPointExtension>
        </extensions>
      </trkpt>
      <trkpt lat="42.4492608010768890380859375" lon="20.1994081400334835052490234375">
        <ele>1166.5999755859375</ele>
        <time>2026-06-20T12:04:52.000Z</time>
        <extensions>
          <ns3:TrackPointExtension>
            <ns3:atemp>27.0</ns3:atemp>
          </ns3:TrackPointExtension>
        </extensions>
      </trkpt>
      <trkpt lat="42.4492608010768890380859375" lon="20.1994081400334835052490234375">
        <ele>1166.5999755859375</ele>
        <time>2026-06-20T12:04:53.000Z</time>
        <extensions>
          <ns3:TrackPointExtension>
            <ns3:atemp>27.0</ns3:atemp>
          </ns3:TrackPointExtension>
        </extensions>
      </trkpt>
      <trkpt lat="42.4492608010768890380859375" lon="20.1994081400334835052490234375">
        <ele>1166.5999755859375</ele>
        <time>2026-06-20T12:04:54.000Z</time>
        <extensions>
          <ns3:TrackPointExtension>
            <ns3:atemp>27.0</ns3:atemp>
          </ns3:TrackPointExtension>
        </extensions>
      </trkpt>
      <trkpt lat="42.4492608010768890380859375" lon="20.1994081400334835052490234375">
        <ele>1166.5999755859375</ele>
        <time>2026-06-20T12:04:55.000Z</time>
        <extensions>
          <ns3:TrackPointExtension>
            <ns3:atemp>27.0</ns3:atemp>
          </ns3:TrackPointExtension>
        </extensions>
      </trkpt>
      <trkpt lat="42.4492608010768890380859375" lon="20.1994081400334835052490234375">
        <ele>1166.5999755859375</ele>
        <time>2026-06-20T12:04:56.000Z</time>
        <extensions>
          <ns3:TrackPointExtension>
            <ns3:atemp>27.0</ns3:atemp>
          </ns3:TrackPointExtension>
        </extensions>
      </trkpt>
      <trkpt lat="42.4492608010768890380859375" lon="20.1994081400334835052490234375">
        <ele>1166.5999755859375</ele>
        <time>2026-06-20T12:04:57.000Z</time>
        <extensions>
          <ns3:TrackPointExtension>
            <ns3:atemp>27.0</ns3:atemp>
          </ns3:TrackPointExtension>
        </extensions>
      </trkpt>
      <trkpt lat="42.4492608010768890380859375" lon="20.1994081400334835052490234375">
        <ele>1166.5999755859375</ele>
        <time>2026-06-20T12:04:58.000Z</time>
        <extensions>
          <ns3:TrackPointExtension>
            <ns3:atemp>27.0</ns3:atemp>
          </ns3:TrackPointExtension>
        </extensions>
      </trkpt>
      <trkpt lat="42.4492608010768890380859375" lon="20.1994081400334835052490234375">
        <ele>1166.5999755859375</ele>
        <time>2026-06-20T12:04:59.000Z</time>
        <extensions>
          <ns3:TrackPointExtension>
            <ns3:atemp>27.0</ns3:atemp>
          </ns3:TrackPointExtension>
        </extensions>
      </trkpt>
      <trkpt lat="42.4492608010768890380859375" lon="20.1994081400334835052490234375">
        <ele>1166.5999755859375</ele>
        <time>2026-06-20T12:05:00.000Z</time>
        <extensions>
          <ns3:TrackPointExtension>
            <ns3:atemp>27.0</ns3:atemp>
          </ns3:TrackPointExtension>
        </extensions>
      </trkpt>
      <trkpt lat="42.4492608010768890380859375" lon="20.1994081400334835052490234375">
        <ele>1166.5999755859375</ele>
        <time>2026-06-20T12:05:01.000Z</time>
        <extensions>
          <ns3:TrackPointExtension>
            <ns3:atemp>27.0</ns3:atemp>
          </ns3:TrackPointExtension>
        </extensions>
      </trkpt>
      <trkpt lat="42.4492608010768890380859375" lon="20.1994081400334835052490234375">
        <ele>1166.5999755859375</ele>
        <time>2026-06-20T12:05:02.000Z</time>
        <extensions>
          <ns3:TrackPointExtension>
            <ns3:atemp>27.0</ns3:atemp>
          </ns3:TrackPointExtension>
        </extensions>
      </trkpt>
      <trkpt lat="42.4492608010768890380859375" lon="20.1994081400334835052490234375">
        <ele>1166.5999755859375</ele>
        <time>2026-06-20T12:05:03.000Z</time>
        <extensions>
          <ns3:TrackPointExtension>
            <ns3:atemp>27.0</ns3:atemp>
          </ns3:TrackPointExtension>
        </extensions>
      </trkpt>
      <trkpt lat="42.4492608010768890380859375" lon="20.1994081400334835052490234375">
        <ele>1166.5999755859375</ele>
        <time>2026-06-20T12:05:04.000Z</time>
        <extensions>
          <ns3:TrackPointExtension>
            <ns3:atemp>27.0</ns3:atemp>
          </ns3:TrackPointExtension>
        </extensions>
      </trkpt>
      <trkpt lat="42.4492608010768890380859375" lon="20.1994081400334835052490234375">
        <ele>1166.5999755859375</ele>
        <time>2026-06-20T12:05:05.000Z</time>
        <extensions>
          <ns3:TrackPointExtension>
            <ns3:atemp>27.0</ns3:atemp>
          </ns3:TrackPointExtension>
        </extensions>
      </trkpt>
      <trkpt lat="42.4492608010768890380859375" lon="20.1994081400334835052490234375">
        <ele>1166.5999755859375</ele>
        <time>2026-06-20T12:05:06.000Z</time>
        <extensions>
          <ns3:TrackPointExtension>
            <ns3:atemp>27.0</ns3:atemp>
          </ns3:TrackPointExtension>
        </extensions>
      </trkpt>
      <trkpt lat="42.4492608010768890380859375" lon="20.1994081400334835052490234375">
        <ele>1166.5999755859375</ele>
        <time>2026-06-20T12:05:07.000Z</time>
        <extensions>
          <ns3:TrackPointExtension>
            <ns3:atemp>27.0</ns3:atemp>
          </ns3:TrackPointExtension>
        </extensions>
      </trkpt>
      <trkpt lat="42.4492608010768890380859375" lon="20.1994081400334835052490234375">
        <ele>1166.5999755859375</ele>
        <time>2026-06-20T12:05:08.000Z</time>
        <extensions>
          <ns3:TrackPointExtension>
            <ns3:atemp>27.0</ns3:atemp>
          </ns3:TrackPointExtension>
        </extensions>
      </trkpt>
      <trkpt lat="42.4492608010768890380859375" lon="20.1994081400334835052490234375">
        <ele>1166.5999755859375</ele>
        <time>2026-06-20T12:05:09.000Z</time>
        <extensions>
          <ns3:TrackPointExtension>
            <ns3:atemp>27.0</ns3:atemp>
          </ns3:TrackPointExtension>
        </extensions>
      </trkpt>
      <trkpt lat="42.4492608010768890380859375" lon="20.1994081400334835052490234375">
        <ele>1166.5999755859375</ele>
        <time>2026-06-20T12:05:10.000Z</time>
        <extensions>
          <ns3:TrackPointExtension>
            <ns3:atemp>27.0</ns3:atemp>
          </ns3:TrackPointExtension>
        </extensions>
      </trkpt>
      <trkpt lat="42.4492608010768890380859375" lon="20.1994081400334835052490234375">
        <ele>1166.5999755859375</ele>
        <time>2026-06-20T12:05:11.000Z</time>
        <extensions>
          <ns3:TrackPointExtension>
            <ns3:atemp>27.0</ns3:atemp>
          </ns3:TrackPointExtension>
        </extensions>
      </trkpt>
      <trkpt lat="42.4492608010768890380859375" lon="20.1994081400334835052490234375">
        <ele>1166.5999755859375</ele>
        <time>2026-06-20T12:05:12.000Z</time>
        <extensions>
          <ns3:TrackPointExtension>
            <ns3:atemp>27.0</ns3:atemp>
          </ns3:TrackPointExtension>
        </extensions>
      </trkpt>
      <trkpt lat="42.4492608010768890380859375" lon="20.1994081400334835052490234375">
        <ele>1166.5999755859375</ele>
        <time>2026-06-20T12:05:13.000Z</time>
        <extensions>
          <ns3:TrackPointExtension>
            <ns3:atemp>27.0</ns3:atemp>
          </ns3:TrackPointExtension>
        </extensions>
      </trkpt>
      <trkpt lat="42.4492608010768890380859375" lon="20.1994081400334835052490234375">
        <ele>1166.5999755859375</ele>
        <time>2026-06-20T12:05:14.000Z</time>
        <extensions>
          <ns3:TrackPointExtension>
            <ns3:atemp>27.0</ns3:atemp>
          </ns3:TrackPointExtension>
        </extensions>
      </trkpt>
      <trkpt lat="42.4492608010768890380859375" lon="20.1994081400334835052490234375">
        <ele>1166.5999755859375</ele>
        <time>2026-06-20T12:05:15.000Z</time>
        <extensions>
          <ns3:TrackPointExtension>
            <ns3:atemp>27.0</ns3:atemp>
          </ns3:TrackPointExtension>
        </extensions>
      </trkpt>
      <trkpt lat="42.4492608010768890380859375" lon="20.1994081400334835052490234375">
        <ele>1166.5999755859375</ele>
        <time>2026-06-20T12:05:16.000Z</time>
        <extensions>
          <ns3:TrackPointExtension>
            <ns3:atemp>27.0</ns3:atemp>
          </ns3:TrackPointExtension>
        </extensions>
      </trkpt>
      <trkpt lat="42.4492608010768890380859375" lon="20.1994081400334835052490234375">
        <ele>1166.5999755859375</ele>
        <time>2026-06-20T12:05:17.000Z</time>
        <extensions>
          <ns3:TrackPointExtension>
            <ns3:atemp>27.0</ns3:atemp>
          </ns3:TrackPointExtension>
        </extensions>
      </trkpt>
      <trkpt lat="42.4492608010768890380859375" lon="20.1994081400334835052490234375">
        <ele>1166.5999755859375</ele>
        <time>2026-06-20T12:05:18.000Z</time>
        <extensions>
          <ns3:TrackPointExtension>
            <ns3:atemp>27.0</ns3:atemp>
          </ns3:TrackPointExtension>
        </extensions>
      </trkpt>
      <trkpt lat="42.4492608010768890380859375" lon="20.1994081400334835052490234375">
        <ele>1166.5999755859375</ele>
        <time>2026-06-20T12:05:19.000Z</time>
        <extensions>
          <ns3:TrackPointExtension>
            <ns3:atemp>27.0</ns3:atemp>
          </ns3:TrackPointExtension>
        </extensions>
      </trkpt>
      <trkpt lat="42.4492608010768890380859375" lon="20.1994081400334835052490234375">
        <ele>1166.5999755859375</ele>
        <time>2026-06-20T12:05:20.000Z</time>
        <extensions>
          <ns3:TrackPointExtension>
            <ns3:atemp>27.0</ns3:atemp>
          </ns3:TrackPointExtension>
        </extensions>
      </trkpt>
      <trkpt lat="42.4492608010768890380859375" lon="20.1994081400334835052490234375">
        <ele>1166.5999755859375</ele>
        <time>2026-06-20T12:05:21.000Z</time>
        <extensions>
          <ns3:TrackPointExtension>
            <ns3:atemp>27.0</ns3:atemp>
          </ns3:TrackPointExtension>
        </extensions>
      </trkpt>
      <trkpt lat="42.4492608010768890380859375" lon="20.1994081400334835052490234375">
        <ele>1166.5999755859375</ele>
        <time>2026-06-20T12:05:22.000Z</time>
        <extensions>
          <ns3:TrackPointExtension>
            <ns3:atemp>27.0</ns3:atemp>
          </ns3:TrackPointExtension>
        </extensions>
      </trkpt>
      <trkpt lat="42.4492608010768890380859375" lon="20.1994081400334835052490234375">
        <ele>1166.5999755859375</ele>
        <time>2026-06-20T12:05:23.000Z</time>
        <extensions>
          <ns3:TrackPointExtension>
            <ns3:atemp>27.0</ns3:atemp>
          </ns3:TrackPointExtension>
        </extensions>
      </trkpt>
      <trkpt lat="42.4492608010768890380859375" lon="20.1994081400334835052490234375">
        <ele>1166.5999755859375</ele>
        <time>2026-06-20T12:05:24.000Z</time>
        <extensions>
          <ns3:TrackPointExtension>
            <ns3:atemp>27.0</ns3:atemp>
          </ns3:TrackPointExtension>
        </extensions>
      </trkpt>
      <trkpt lat="42.4492608010768890380859375" lon="20.1994081400334835052490234375">
        <ele>1166.5999755859375</ele>
        <time>2026-06-20T12:05:25.000Z</time>
        <extensions>
          <ns3:TrackPointExtension>
            <ns3:atemp>27.0</ns3:atemp>
          </ns3:TrackPointExtension>
        </extensions>
      </trkpt>
      <trkpt lat="42.4492608010768890380859375" lon="20.1994081400334835052490234375">
        <ele>1166.5999755859375</ele>
        <time>2026-06-20T12:05:26.000Z</time>
        <extensions>
          <ns3:TrackPointExtension>
            <ns3:atemp>27.0</ns3:atemp>
          </ns3:TrackPointExtension>
        </extensions>
      </trkpt>
      <trkpt lat="42.4492608010768890380859375" lon="20.1994081400334835052490234375">
        <ele>1166.5999755859375</ele>
        <time>2026-06-20T12:05:27.000Z</time>
        <extensions>
          <ns3:TrackPointExtension>
            <ns3:atemp>27.0</ns3:atemp>
          </ns3:TrackPointExtension>
        </extensions>
      </trkpt>
      <trkpt lat="42.4492608010768890380859375" lon="20.1994081400334835052490234375">
        <ele>1166.5999755859375</ele>
        <time>2026-06-20T12:05:28.000Z</time>
        <extensions>
          <ns3:TrackPointExtension>
            <ns3:atemp>27.0</ns3:atemp>
          </ns3:TrackPointExtension>
        </extensions>
      </trkpt>
      <trkpt lat="42.4492608010768890380859375" lon="20.1994081400334835052490234375">
        <ele>1166.5999755859375</ele>
        <time>2026-06-20T12:05:29.000Z</time>
        <extensions>
          <ns3:TrackPointExtension>
            <ns3:atemp>27.0</ns3:atemp>
          </ns3:TrackPointExtension>
        </extensions>
      </trkpt>
      <trkpt lat="42.4492608010768890380859375" lon="20.1994081400334835052490234375">
        <ele>1166.5999755859375</ele>
        <time>2026-06-20T12:05:30.000Z</time>
        <extensions>
          <ns3:TrackPointExtension>
            <ns3:atemp>27.0</ns3:atemp>
          </ns3:TrackPointExtension>
        </extensions>
      </trkpt>
      <trkpt lat="42.4492608010768890380859375" lon="20.1994081400334835052490234375">
        <ele>1166.5999755859375</ele>
        <time>2026-06-20T12:05:31.000Z</time>
        <extensions>
          <ns3:TrackPointExtension>
            <ns3:atemp>27.0</ns3:atemp>
          </ns3:TrackPointExtension>
        </extensions>
      </trkpt>
      <trkpt lat="42.4492608010768890380859375" lon="20.1994081400334835052490234375">
        <ele>1166.5999755859375</ele>
        <time>2026-06-20T12:05:32.000Z</time>
        <extensions>
          <ns3:TrackPointExtension>
            <ns3:atemp>27.0</ns3:atemp>
          </ns3:TrackPointExtension>
        </extensions>
      </trkpt>
      <trkpt lat="42.4492608010768890380859375" lon="20.1994081400334835052490234375">
        <ele>1166.5999755859375</ele>
        <time>2026-06-20T12:05:33.000Z</time>
        <extensions>
          <ns3:TrackPointExtension>
            <ns3:atemp>27.0</ns3:atemp>
          </ns3:TrackPointExtension>
        </extensions>
      </trkpt>
      <trkpt lat="42.4492608010768890380859375" lon="20.1994081400334835052490234375">
        <ele>1166.5999755859375</ele>
        <time>2026-06-20T12:05:34.000Z</time>
        <extensions>
          <ns3:TrackPointExtension>
            <ns3:atemp>27.0</ns3:atemp>
          </ns3:TrackPointExtension>
        </extensions>
      </trkpt>
      <trkpt lat="42.4492608010768890380859375" lon="20.1994081400334835052490234375">
        <ele>1166.5999755859375</ele>
        <time>2026-06-20T12:05:35.000Z</time>
        <extensions>
          <ns3:TrackPointExtension>
            <ns3:atemp>27.0</ns3:atemp>
          </ns3:TrackPointExtension>
        </extensions>
      </trkpt>
      <trkpt lat="42.4492608010768890380859375" lon="20.1994081400334835052490234375">
        <ele>1166.5999755859375</ele>
        <time>2026-06-20T12:05:36.000Z</time>
        <extensions>
          <ns3:TrackPointExtension>
            <ns3:atemp>27.0</ns3:atemp>
          </ns3:TrackPointExtension>
        </extensions>
      </trkpt>
      <trkpt lat="42.4492608010768890380859375" lon="20.1994081400334835052490234375">
        <ele>1166.5999755859375</ele>
        <time>2026-06-20T12:05:37.000Z</time>
        <extensions>
          <ns3:TrackPointExtension>
            <ns3:atemp>27.0</ns3:atemp>
          </ns3:TrackPointExtension>
        </extensions>
      </trkpt>
      <trkpt lat="42.4492608010768890380859375" lon="20.1994081400334835052490234375">
        <ele>1166.5999755859375</ele>
        <time>2026-06-20T12:05:38.000Z</time>
        <extensions>
          <ns3:TrackPointExtension>
            <ns3:atemp>27.0</ns3:atemp>
          </ns3:TrackPointExtension>
        </extensions>
      </trkpt>
      <trkpt lat="42.4492608010768890380859375" lon="20.1994081400334835052490234375">
        <ele>1166.5999755859375</ele>
        <time>2026-06-20T12:05:39.000Z</time>
        <extensions>
          <ns3:TrackPointExtension>
            <ns3:atemp>27.0</ns3:atemp>
          </ns3:TrackPointExtension>
        </extensions>
      </trkpt>
      <trkpt lat="42.4492608010768890380859375" lon="20.1994081400334835052490234375">
        <ele>1166.5999755859375</ele>
        <time>2026-06-20T12:05:40.000Z</time>
        <extensions>
          <ns3:TrackPointExtension>
            <ns3:atemp>27.0</ns3:atemp>
          </ns3:TrackPointExtension>
        </extensions>
      </trkpt>
      <trkpt lat="42.4492608010768890380859375" lon="20.1994081400334835052490234375">
        <ele>1166.5999755859375</ele>
        <time>2026-06-20T12:05:41.000Z</time>
        <extensions>
          <ns3:TrackPointExtension>
            <ns3:atemp>27.0</ns3:atemp>
          </ns3:TrackPointExtension>
        </extensions>
      </trkpt>
      <trkpt lat="42.4492608010768890380859375" lon="20.1994081400334835052490234375">
        <ele>1166.5999755859375</ele>
        <time>2026-06-20T12:05:42.000Z</time>
        <extensions>
          <ns3:TrackPointExtension>
            <ns3:atemp>27.0</ns3:atemp>
          </ns3:TrackPointExtension>
        </extensions>
      </trkpt>
      <trkpt lat="42.4492608010768890380859375" lon="20.1994081400334835052490234375">
        <ele>1166.5999755859375</ele>
        <time>2026-06-20T12:05:43.000Z</time>
        <extensions>
          <ns3:TrackPointExtension>
            <ns3:atemp>27.0</ns3:atemp>
          </ns3:TrackPointExtension>
        </extensions>
      </trkpt>
      <trkpt lat="42.4492608010768890380859375" lon="20.1994081400334835052490234375">
        <ele>1166.5999755859375</ele>
        <time>2026-06-20T12:05:44.000Z</time>
        <extensions>
          <ns3:TrackPointExtension>
            <ns3:atemp>27.0</ns3:atemp>
          </ns3:TrackPointExtension>
        </extensions>
      </trkpt>
      <trkpt lat="42.4492608010768890380859375" lon="20.1994081400334835052490234375">
        <ele>1166.5999755859375</ele>
        <time>2026-06-20T12:05:45.000Z</time>
        <extensions>
          <ns3:TrackPointExtension>
            <ns3:atemp>27.0</ns3:atemp>
          </ns3:TrackPointExtension>
        </extensions>
      </trkpt>
      <trkpt lat="42.4492608010768890380859375" lon="20.1994081400334835052490234375">
        <ele>1166.5999755859375</ele>
        <time>2026-06-20T12:05:46.000Z</time>
        <extensions>
          <ns3:TrackPointExtension>
            <ns3:atemp>27.0</ns3:atemp>
          </ns3:TrackPointExtension>
        </extensions>
      </trkpt>
      <trkpt lat="42.4492608010768890380859375" lon="20.1994081400334835052490234375">
        <ele>1166.5999755859375</ele>
        <time>2026-06-20T12:05:47.000Z</time>
        <extensions>
          <ns3:TrackPointExtension>
            <ns3:atemp>27.0</ns3:atemp>
          </ns3:TrackPointExtension>
        </extensions>
      </trkpt>
      <trkpt lat="42.4492608010768890380859375" lon="20.1994081400334835052490234375">
        <ele>1166.5999755859375</ele>
        <time>2026-06-20T12:05:48.000Z</time>
        <extensions>
          <ns3:TrackPointExtension>
            <ns3:atemp>27.0</ns3:atemp>
          </ns3:TrackPointExtension>
        </extensions>
      </trkpt>
      <trkpt lat="42.4492608010768890380859375" lon="20.1994081400334835052490234375">
        <ele>1166.5999755859375</ele>
        <time>2026-06-20T12:05:49.000Z</time>
        <extensions>
          <ns3:TrackPointExtension>
            <ns3:atemp>27.0</ns3:atemp>
          </ns3:TrackPointExtension>
        </extensions>
      </trkpt>
      <trkpt lat="42.4492608010768890380859375" lon="20.1994081400334835052490234375">
        <ele>1166.5999755859375</ele>
        <time>2026-06-20T12:05:50.000Z</time>
        <extensions>
          <ns3:TrackPointExtension>
            <ns3:atemp>27.0</ns3:atemp>
          </ns3:TrackPointExtension>
        </extensions>
      </trkpt>
      <trkpt lat="42.4492608010768890380859375" lon="20.1994081400334835052490234375">
        <ele>1166.5999755859375</ele>
        <time>2026-06-20T12:05:51.000Z</time>
        <extensions>
          <ns3:TrackPointExtension>
            <ns3:atemp>27.0</ns3:atemp>
          </ns3:TrackPointExtension>
        </extensions>
      </trkpt>
      <trkpt lat="42.4492608010768890380859375" lon="20.1994081400334835052490234375">
        <ele>1166.5999755859375</ele>
        <time>2026-06-20T12:05:52.000Z</time>
        <extensions>
          <ns3:TrackPointExtension>
            <ns3:atemp>27.0</ns3:atemp>
          </ns3:TrackPointExtension>
        </extensions>
      </trkpt>
      <trkpt lat="42.4492608010768890380859375" lon="20.1994081400334835052490234375">
        <ele>1166.5999755859375</ele>
        <time>2026-06-20T12:05:53.000Z</time>
        <extensions>
          <ns3:TrackPointExtension>
            <ns3:atemp>27.0</ns3:atemp>
          </ns3:TrackPointExtension>
        </extensions>
      </trkpt>
      <trkpt lat="42.4492608010768890380859375" lon="20.1994081400334835052490234375">
        <ele>1166.5999755859375</ele>
        <time>2026-06-20T12:05:54.000Z</time>
        <extensions>
          <ns3:TrackPointExtension>
            <ns3:atemp>27.0</ns3:atemp>
          </ns3:TrackPointExtension>
        </extensions>
      </trkpt>
      <trkpt lat="42.4492608010768890380859375" lon="20.1994081400334835052490234375">
        <ele>1166.5999755859375</ele>
        <time>2026-06-20T12:05:55.000Z</time>
        <extensions>
          <ns3:TrackPointExtension>
            <ns3:atemp>27.0</ns3:atemp>
          </ns3:TrackPointExtension>
        </extensions>
      </trkpt>
      <trkpt lat="42.4492690153419971466064453125" lon="20.19940428435802459716796875">
        <ele>1166.5999755859375</ele>
        <time>2026-06-20T12:05:56.000Z</time>
        <extensions>
          <ns3:TrackPointExtension>
            <ns3:atemp>27.0</ns3:atemp>
          </ns3:TrackPointExtension>
        </extensions>
      </trkpt>
      <trkpt lat="42.4492608010768890380859375" lon="20.1994081400334835052490234375">
        <ele>1166.5999755859375</ele>
        <time>2026-06-20T12:05:57.000Z</time>
        <extensions>
          <ns3:TrackPointExtension>
            <ns3:atemp>27.0</ns3:atemp>
          </ns3:TrackPointExtension>
        </extensions>
      </trkpt>
      <trkpt lat="42.44927513413131237030029296875" lon="20.199408642947673797607421875">
        <ele>1166.5999755859375</ele>
        <time>2026-06-20T12:05:58.000Z</time>
        <extensions>
          <ns3:TrackPointExtension>
            <ns3:atemp>27.0</ns3:atemp>
          </ns3:TrackPointExtension>
        </extensions>
      </trkpt>
      <trkpt lat="42.44927622377872467041015625" lon="20.199409313499927520751953125">
        <ele>1166.5999755859375</ele>
        <time>2026-06-20T12:05:59.000Z</time>
        <extensions>
          <ns3:TrackPointExtension>
            <ns3:atemp>27.0</ns3:atemp>
          </ns3:TrackPointExtension>
        </extensions>
      </trkpt>
      <trkpt lat="42.44927622377872467041015625" lon="20.199409313499927520751953125">
        <ele>1166.5999755859375</ele>
        <time>2026-06-20T12:06:00.000Z</time>
        <extensions>
          <ns3:TrackPointExtension>
            <ns3:atemp>27.0</ns3:atemp>
          </ns3:TrackPointExtension>
        </extensions>
      </trkpt>
      <trkpt lat="42.44927622377872467041015625" lon="20.199409313499927520751953125">
        <ele>1166.5999755859375</ele>
        <time>2026-06-20T12:06:01.000Z</time>
        <extensions>
          <ns3:TrackPointExtension>
            <ns3:atemp>27.0</ns3:atemp>
          </ns3:TrackPointExtension>
        </extensions>
      </trkpt>
      <trkpt lat="42.44927622377872467041015625" lon="20.199409313499927520751953125">
        <ele>1166.5999755859375</ele>
        <time>2026-06-20T12:06:02.000Z</time>
        <extensions>
          <ns3:TrackPointExtension>
            <ns3:atemp>27.0</ns3:atemp>
          </ns3:TrackPointExtension>
        </extensions>
      </trkpt>
      <trkpt lat="42.44927622377872467041015625" lon="20.199409313499927520751953125">
        <ele>1163.5999755859375</ele>
        <time>2026-06-20T12:06:03.000Z</time>
        <extensions>
          <ns3:TrackPointExtension>
            <ns3:atemp>27.0</ns3:atemp>
          </ns3:TrackPointExtension>
        </extensions>
      </trkpt>
      <trkpt lat="42.44927622377872467041015625" lon="20.199409313499927520751953125">
        <ele>1163.5999755859375</ele>
        <time>2026-06-20T12:06:04.000Z</time>
        <extensions>
          <ns3:TrackPointExtension>
            <ns3:atemp>27.0</ns3:atemp>
          </ns3:TrackPointExtension>
        </extensions>
      </trkpt>
      <trkpt lat="42.44927622377872467041015625" lon="20.199409313499927520751953125">
        <ele>1163.4000244140625</ele>
        <time>2026-06-20T12:06:05.000Z</time>
        <extensions>
          <ns3:TrackPointExtension>
            <ns3:atemp>27.0</ns3:atemp>
          </ns3:TrackPointExtension>
        </extensions>
      </trkpt>
      <trkpt lat="42.44927622377872467041015625" lon="20.199409313499927520751953125">
        <ele>1163.4000244140625</ele>
        <time>2026-06-20T12:06:06.000Z</time>
        <extensions>
          <ns3:TrackPointExtension>
            <ns3:atemp>27.0</ns3:atemp>
          </ns3:TrackPointExtension>
        </extensions>
      </trkpt>
      <trkpt lat="42.44927622377872467041015625" lon="20.199409313499927520751953125">
        <ele>1163.199951171875</ele>
        <time>2026-06-20T12:06:07.000Z</time>
        <extensions>
          <ns3:TrackPointExtension>
            <ns3:atemp>27.0</ns3:atemp>
          </ns3:TrackPointExtension>
        </extensions>
      </trkpt>
      <trkpt lat="42.44927622377872467041015625" lon="20.199409313499927520751953125">
        <ele>1163.199951171875</ele>
        <time>2026-06-20T12:06:08.000Z</time>
        <extensions>
          <ns3:TrackPointExtension>
            <ns3:atemp>27.0</ns3:atemp>
          </ns3:TrackPointExtension>
        </extensions>
      </trkpt>
      <trkpt lat="42.44927622377872467041015625" lon="20.199409313499927520751953125">
        <ele>1163</ele>
        <time>2026-06-20T12:06:09.000Z</time>
        <extensions>
          <ns3:TrackPointExtension>
            <ns3:atemp>27.0</ns3:atemp>
          </ns3:TrackPointExtension>
        </extensions>
      </trkpt>
      <trkpt lat="42.44927622377872467041015625" lon="20.199409313499927520751953125">
        <ele>1163</ele>
        <time>2026-06-20T12:06:10.000Z</time>
        <extensions>
          <ns3:TrackPointExtension>
            <ns3:atemp>27.0</ns3:atemp>
          </ns3:TrackPointExtension>
        </extensions>
      </trkpt>
      <trkpt lat="42.449278570711612701416015625" lon="20.199411995708942413330078125">
        <ele>1163</ele>
        <time>2026-06-20T12:06:11.000Z</time>
        <extensions>
          <ns3:TrackPointExtension>
            <ns3:atemp>27.0</ns3:atemp>
          </ns3:TrackPointExtension>
        </extensions>
      </trkpt>
      <trkpt lat="42.4492867849767208099365234375" lon="20.199424736201763153076171875">
        <ele>1163.4000244140625</ele>
        <time>2026-06-20T12:06:12.000Z</time>
        <extensions>
          <ns3:TrackPointExtension>
            <ns3:atemp>27.0</ns3:atemp>
          </ns3:TrackPointExtension>
        </extensions>
      </trkpt>
      <trkpt lat="42.44928955100476741790771484375" lon="20.19943454302847385406494140625">
        <ele>1163.5999755859375</ele>
        <time>2026-06-20T12:06:13.000Z</time>
        <extensions>
          <ns3:TrackPointExtension>
            <ns3:atemp>27.0</ns3:atemp>
          </ns3:TrackPointExtension>
        </extensions>
      </trkpt>
      <trkpt lat="42.44928770698606967926025390625" lon="20.19945113919675350189208984375">
        <ele>1163.5999755859375</ele>
        <time>2026-06-20T12:06:14.000Z</time>
        <extensions>
          <ns3:TrackPointExtension>
            <ns3:atemp>27.0</ns3:atemp>
          </ns3:TrackPointExtension>
        </extensions>
      </trkpt>
      <trkpt lat="42.44928468950092792510986328125" lon="20.19945985637605190277099609375">
        <ele>1163.800048828125</ele>
        <time>2026-06-20T12:06:15.000Z</time>
        <extensions>
          <ns3:TrackPointExtension>
            <ns3:atemp>27.0</ns3:atemp>
          </ns3:TrackPointExtension>
        </extensions>
      </trkpt>
      <trkpt lat="42.4492844380438327789306640625" lon="20.1994614489376544952392578125">
        <ele>1163.5999755859375</ele>
        <time>2026-06-20T12:06:16.000Z</time>
        <extensions>
          <ns3:TrackPointExtension>
            <ns3:atemp>27.0</ns3:atemp>
          </ns3:TrackPointExtension>
        </extensions>
      </trkpt>
      <trkpt lat="42.4492827616631984710693359375" lon="20.19946203567087650299072265625">
        <ele>1163.199951171875</ele>
        <time>2026-06-20T12:06:17.000Z</time>
        <extensions>
          <ns3:TrackPointExtension>
            <ns3:atemp>27.0</ns3:atemp>
          </ns3:TrackPointExtension>
        </extensions>
      </trkpt>
      <trkpt lat="42.4492827616631984710693359375" lon="20.19946203567087650299072265625">
        <ele>1162.4000244140625</ele>
        <time>2026-06-20T12:06:18.000Z</time>
        <extensions>
          <ns3:TrackPointExtension>
            <ns3:atemp>27.0</ns3:atemp>
          </ns3:TrackPointExtension>
        </extensions>
      </trkpt>
      <trkpt lat="42.4492827616631984710693359375" lon="20.19946203567087650299072265625">
        <ele>1162.199951171875</ele>
        <time>2026-06-20T12:06:19.000Z</time>
        <extensions>
          <ns3:TrackPointExtension>
            <ns3:atemp>27.0</ns3:atemp>
          </ns3:TrackPointExtension>
        </extensions>
      </trkpt>
      <trkpt lat="42.4492827616631984710693359375" lon="20.19946203567087650299072265625">
        <ele>1162.199951171875</ele>
        <time>2026-06-20T12:06:20.000Z</time>
        <extensions>
          <ns3:TrackPointExtension>
            <ns3:atemp>27.0</ns3:atemp>
          </ns3:TrackPointExtension>
        </extensions>
      </trkpt>
      <trkpt lat="42.4492827616631984710693359375" lon="20.19946203567087650299072265625">
        <ele>1162.4000244140625</ele>
        <time>2026-06-20T12:06:21.000Z</time>
        <extensions>
          <ns3:TrackPointExtension>
            <ns3:atemp>27.0</ns3:atemp>
          </ns3:TrackPointExtension>
        </extensions>
      </trkpt>
      <trkpt lat="42.4492827616631984710693359375" lon="20.19946203567087650299072265625">
        <ele>1162.4000244140625</ele>
        <time>2026-06-20T12:06:22.000Z</time>
        <extensions>
          <ns3:TrackPointExtension>
            <ns3:atemp>27.0</ns3:atemp>
          </ns3:TrackPointExtension>
        </extensions>
      </trkpt>
      <trkpt lat="42.4492827616631984710693359375" lon="20.19946203567087650299072265625">
        <ele>1162.4000244140625</ele>
        <time>2026-06-20T12:06:23.000Z</time>
        <extensions>
          <ns3:TrackPointExtension>
            <ns3:atemp>27.0</ns3:atemp>
          </ns3:TrackPointExtension>
        </extensions>
      </trkpt>
      <trkpt lat="42.4492827616631984710693359375" lon="20.19946203567087650299072265625">
        <ele>1162.4000244140625</ele>
        <time>2026-06-20T12:06:24.000Z</time>
        <extensions>
          <ns3:TrackPointExtension>
            <ns3:atemp>27.0</ns3:atemp>
          </ns3:TrackPointExtension>
        </extensions>
      </trkpt>
      <trkpt lat="42.4492827616631984710693359375" lon="20.19946203567087650299072265625">
        <ele>1162.199951171875</ele>
        <time>2026-06-20T12:06:25.000Z</time>
        <extensions>
          <ns3:TrackPointExtension>
            <ns3:atemp>27.0</ns3:atemp>
          </ns3:TrackPointExtension>
        </extensions>
      </trkpt>
      <trkpt lat="42.4492827616631984710693359375" lon="20.19946203567087650299072265625">
        <ele>1162.199951171875</ele>
        <time>2026-06-20T12:06:26.000Z</time>
        <extensions>
          <ns3:TrackPointExtension>
            <ns3:atemp>27.0</ns3:atemp>
          </ns3:TrackPointExtension>
        </extensions>
      </trkpt>
      <trkpt lat="42.4492827616631984710693359375" lon="20.19946203567087650299072265625">
        <ele>1162</ele>
        <time>2026-06-20T12:06:27.000Z</time>
        <extensions>
          <ns3:TrackPointExtension>
            <ns3:atemp>27.0</ns3:atemp>
          </ns3:TrackPointExtension>
        </extensions>
      </trkpt>
      <trkpt lat="42.4492827616631984710693359375" lon="20.19946203567087650299072265625">
        <ele>1162</ele>
        <time>2026-06-20T12:06:28.000Z</time>
        <extensions>
          <ns3:TrackPointExtension>
            <ns3:atemp>27.0</ns3:atemp>
          </ns3:TrackPointExtension>
        </extensions>
      </trkpt>
      <trkpt lat="42.4492827616631984710693359375" lon="20.19946203567087650299072265625">
        <ele>1162</ele>
        <time>2026-06-20T12:06:29.000Z</time>
        <extensions>
          <ns3:TrackPointExtension>
            <ns3:atemp>27.0</ns3:atemp>
          </ns3:TrackPointExtension>
        </extensions>
      </trkpt>
      <trkpt lat="42.4492822587490081787109375" lon="20.19946354441344738006591796875">
        <ele>1161.800048828125</ele>
        <time>2026-06-20T12:06:30.000Z</time>
        <extensions>
          <ns3:TrackPointExtension>
            <ns3:atemp>27.0</ns3:atemp>
          </ns3:TrackPointExtension>
        </extensions>
      </trkpt>
      <trkpt lat="42.44927865453064441680908203125" lon="20.19948315806686878204345703125">
        <ele>1161.800048828125</ele>
        <time>2026-06-20T12:06:31.000Z</time>
        <extensions>
          <ns3:TrackPointExtension>
            <ns3:atemp>27.0</ns3:atemp>
          </ns3:TrackPointExtension>
        </extensions>
      </trkpt>
      <trkpt lat="42.44927077554166316986083984375" lon="20.199491791427135467529296875">
        <ele>1161.800048828125</ele>
        <time>2026-06-20T12:06:32.000Z</time>
        <extensions>
          <ns3:TrackPointExtension>
            <ns3:atemp>27.0</ns3:atemp>
          </ns3:TrackPointExtension>
        </extensions>
      </trkpt>
      <trkpt lat="42.44925250299274921417236328125" lon="20.19950444810092449188232421875">
        <ele>1161.5999755859375</ele>
        <time>2026-06-20T12:06:33.000Z</time>
        <extensions>
          <ns3:TrackPointExtension>
            <ns3:atemp>27.0</ns3:atemp>
          </ns3:TrackPointExtension>
        </extensions>
      </trkpt>
      <trkpt lat="42.44923640973865985870361328125" lon="20.199525654315948486328125">
        <ele>1161.4000244140625</ele>
        <time>2026-06-20T12:06:34.000Z</time>
        <extensions>
          <ns3:TrackPointExtension>
            <ns3:atemp>27.0</ns3:atemp>
          </ns3:TrackPointExtension>
        </extensions>
      </trkpt>
      <trkpt lat="42.449227608740329742431640625" lon="20.19955448806285858154296875">
        <ele>1161.4000244140625</ele>
        <time>2026-06-20T12:06:35.000Z</time>
        <extensions>
          <ns3:TrackPointExtension>
            <ns3:atemp>27.0</ns3:atemp>
          </ns3:TrackPointExtension>
        </extensions>
      </trkpt>
      <trkpt lat="42.44922266341745853424072265625" lon="20.1995761133730411529541015625">
        <ele>1161.4000244140625</ele>
        <time>2026-06-20T12:06:36.000Z</time>
        <extensions>
          <ns3:TrackPointExtension>
            <ns3:atemp>27.0</ns3:atemp>
          </ns3:TrackPointExtension>
        </extensions>
      </trkpt>
      <trkpt lat="42.4492173828184604644775390625" lon="20.19958357326686382293701171875">
        <ele>1161.4000244140625</ele>
        <time>2026-06-20T12:06:37.000Z</time>
        <extensions>
          <ns3:TrackPointExtension>
            <ns3:atemp>27.0</ns3:atemp>
          </ns3:TrackPointExtension>
        </extensions>
      </trkpt>
      <trkpt lat="42.44921025820076465606689453125" lon="20.19959203898906707763671875">
        <ele>1161.5999755859375</ele>
        <time>2026-06-20T12:06:38.000Z</time>
        <extensions>
          <ns3:TrackPointExtension>
            <ns3:atemp>27.0</ns3:atemp>
          </ns3:TrackPointExtension>
        </extensions>
      </trkpt>
      <trkpt lat="42.4492096714675426483154296875" lon="20.199596397578716278076171875">
        <ele>1161.800048828125</ele>
        <time>2026-06-20T12:06:39.000Z</time>
        <extensions>
          <ns3:TrackPointExtension>
            <ns3:atemp>27.0</ns3:atemp>
          </ns3:TrackPointExtension>
        </extensions>
      </trkpt>
      <trkpt lat="42.4492096714675426483154296875" lon="20.199596397578716278076171875">
        <ele>1162</ele>
        <time>2026-06-20T12:06:40.000Z</time>
        <extensions>
          <ns3:TrackPointExtension>
            <ns3:atemp>27.0</ns3:atemp>
          </ns3:TrackPointExtension>
        </extensions>
      </trkpt>
      <trkpt lat="42.4492096714675426483154296875" lon="20.199596397578716278076171875">
        <ele>1162.199951171875</ele>
        <time>2026-06-20T12:06:41.000Z</time>
        <extensions>
          <ns3:TrackPointExtension>
            <ns3:atemp>27.0</ns3:atemp>
          </ns3:TrackPointExtension>
        </extensions>
      </trkpt>
      <trkpt lat="42.4492096714675426483154296875" lon="20.199596397578716278076171875">
        <ele>1162.199951171875</ele>
        <time>2026-06-20T12:06:42.000Z</time>
        <extensions>
          <ns3:TrackPointExtension>
            <ns3:atemp>27.0</ns3:atemp>
          </ns3:TrackPointExtension>
        </extensions>
      </trkpt>
      <trkpt lat="42.4492096714675426483154296875" lon="20.199596397578716278076171875">
        <ele>1162.4000244140625</ele>
        <time>2026-06-20T12:06:43.000Z</time>
        <extensions>
          <ns3:TrackPointExtension>
            <ns3:atemp>27.0</ns3:atemp>
          </ns3:TrackPointExtension>
        </extensions>
      </trkpt>
      <trkpt lat="42.4492096714675426483154296875" lon="20.199596397578716278076171875">
        <ele>1162.4000244140625</ele>
        <time>2026-06-20T12:06:44.000Z</time>
        <extensions>
          <ns3:TrackPointExtension>
            <ns3:atemp>27.0</ns3:atemp>
          </ns3:TrackPointExtension>
        </extensions>
      </trkpt>
      <trkpt lat="42.4492096714675426483154296875" lon="20.199596397578716278076171875">
        <ele>1162.5999755859375</ele>
        <time>2026-06-20T12:06:45.000Z</time>
        <extensions>
          <ns3:TrackPointExtension>
            <ns3:atemp>27.0</ns3:atemp>
          </ns3:TrackPointExtension>
        </extensions>
      </trkpt>
      <trkpt lat="42.4492096714675426483154296875" lon="20.199596397578716278076171875">
        <ele>1162.5999755859375</ele>
        <time>2026-06-20T12:06:46.000Z</time>
        <extensions>
          <ns3:TrackPointExtension>
            <ns3:atemp>27.0</ns3:atemp>
          </ns3:TrackPointExtension>
        </extensions>
      </trkpt>
      <trkpt lat="42.4492096714675426483154296875" lon="20.199596397578716278076171875">
        <ele>1162.5999755859375</ele>
        <time>2026-06-20T12:06:47.000Z</time>
        <extensions>
          <ns3:TrackPointExtension>
            <ns3:atemp>27.0</ns3:atemp>
          </ns3:TrackPointExtension>
        </extensions>
      </trkpt>
      <trkpt lat="42.4492096714675426483154296875" lon="20.199596397578716278076171875">
        <ele>1162.800048828125</ele>
        <time>2026-06-20T12:06:48.000Z</time>
        <extensions>
          <ns3:TrackPointExtension>
            <ns3:atemp>27.0</ns3:atemp>
          </ns3:TrackPointExtension>
        </extensions>
      </trkpt>
      <trkpt lat="42.4492096714675426483154296875" lon="20.199596397578716278076171875">
        <ele>1162.800048828125</ele>
        <time>2026-06-20T12:06:49.000Z</time>
        <extensions>
          <ns3:TrackPointExtension>
            <ns3:atemp>27.0</ns3:atemp>
          </ns3:TrackPointExtension>
        </extensions>
      </trkpt>
      <trkpt lat="42.4492096714675426483154296875" lon="20.199596397578716278076171875">
        <ele>1162.800048828125</ele>
        <time>2026-06-20T12:06:50.000Z</time>
        <extensions>
          <ns3:TrackPointExtension>
            <ns3:atemp>27.0</ns3:atemp>
          </ns3:TrackPointExtension>
        </extensions>
      </trkpt>
      <trkpt lat="42.44920782744884490966796875" lon="20.1995945535600185394287109375">
        <ele>1162.800048828125</ele>
        <time>2026-06-20T12:06:51.000Z</time>
        <extensions>
          <ns3:TrackPointExtension>
            <ns3:atemp>27.0</ns3:atemp>
          </ns3:TrackPointExtension>
        </extensions>
      </trkpt>
      <trkpt lat="42.44920355267822742462158203125" lon="20.1995979063212871551513671875">
        <ele>1162.800048828125</ele>
        <time>2026-06-20T12:06:52.000Z</time>
        <extensions>
          <ns3:TrackPointExtension>
            <ns3:atemp>27.0</ns3:atemp>
          </ns3:TrackPointExtension>
        </extensions>
      </trkpt>
      <trkpt lat="42.44921344332396984100341796875" lon="20.19962288439273834228515625">
        <ele>1162.800048828125</ele>
        <time>2026-06-20T12:06:53.000Z</time>
        <extensions>
          <ns3:TrackPointExtension>
            <ns3:atemp>27.0</ns3:atemp>
          </ns3:TrackPointExtension>
        </extensions>
      </trkpt>
      <trkpt lat="42.44922718964517116546630859375" lon="20.19963822327554225921630859375">
        <ele>1162.5999755859375</ele>
        <time>2026-06-20T12:06:54.000Z</time>
        <extensions>
          <ns3:TrackPointExtension>
            <ns3:atemp>27.0</ns3:atemp>
          </ns3:TrackPointExtension>
        </extensions>
      </trkpt>
      <trkpt lat="42.4492473900318145751953125" lon="20.19963185302913188934326171875">
        <ele>1162.4000244140625</ele>
        <time>2026-06-20T12:06:55.000Z</time>
        <extensions>
          <ns3:TrackPointExtension>
            <ns3:atemp>27.0</ns3:atemp>
          </ns3:TrackPointExtension>
        </extensions>
      </trkpt>
      <trkpt lat="42.4492661654949188232421875" lon="20.19961542449891567230224609375">
        <ele>1162.199951171875</ele>
        <time>2026-06-20T12:06:56.000Z</time>
        <extensions>
          <ns3:TrackPointExtension>
            <ns3:atemp>27.0</ns3:atemp>
          </ns3:TrackPointExtension>
        </extensions>
      </trkpt>
      <trkpt lat="42.44929055683314800262451171875" lon="20.19961726851761341094970703125">
        <ele>1162</ele>
        <time>2026-06-20T12:06:57.000Z</time>
        <extensions>
          <ns3:TrackPointExtension>
            <ns3:atemp>27.0</ns3:atemp>
          </ns3:TrackPointExtension>
        </extensions>
      </trkpt>
      <trkpt lat="42.44931888766586780548095703125" lon="20.199606120586395263671875">
        <ele>1161.800048828125</ele>
        <time>2026-06-20T12:06:58.000Z</time>
        <extensions>
          <ns3:TrackPointExtension>
            <ns3:atemp>27.0</ns3:atemp>
          </ns3:TrackPointExtension>
        </extensions>
      </trkpt>
      <trkpt lat="42.4493474699556827545166015625" lon="20.1995761133730411529541015625">
        <ele>1161.199951171875</ele>
        <time>2026-06-20T12:06:59.000Z</time>
        <extensions>
          <ns3:TrackPointExtension>
            <ns3:atemp>27.0</ns3:atemp>
          </ns3:TrackPointExtension>
        </extensions>
      </trkpt>
      <trkpt lat="42.44938024319708347320556640625" lon="20.199541412293910980224609375">
        <ele>1160.5999755859375</ele>
        <time>2026-06-20T12:07:00.000Z</time>
        <extensions>
          <ns3:TrackPointExtension>
            <ns3:atemp>27.0</ns3:atemp>
          </ns3:TrackPointExtension>
        </extensions>
      </trkpt>
      <trkpt lat="42.4494190514087677001953125" lon="20.1995023526251316070556640625">
        <ele>1160</ele>
        <time>2026-06-20T12:07:01.000Z</time>
        <extensions>
          <ns3:TrackPointExtension>
            <ns3:atemp>27.0</ns3:atemp>
          </ns3:TrackPointExtension>
        </extensions>
      </trkpt>
      <trkpt lat="42.44945718906819820404052734375" lon="20.19945901818573474884033203125">
        <ele>1159.4000244140625</ele>
        <time>2026-06-20T12:07:02.000Z</time>
        <extensions>
          <ns3:TrackPointExtension>
            <ns3:atemp>27.0</ns3:atemp>
          </ns3:TrackPointExtension>
        </extensions>
      </trkpt>
      <trkpt lat="42.44949725456535816192626953125" lon="20.1994411647319793701171875">
        <ele>1158.5999755859375</ele>
        <time>2026-06-20T12:07:03.000Z</time>
        <extensions>
          <ns3:TrackPointExtension>
            <ns3:atemp>27.0</ns3:atemp>
          </ns3:TrackPointExtension>
        </extensions>
      </trkpt>
      <trkpt lat="42.4495338834822177886962890625" lon="20.1994520612061023712158203125">
        <ele>1157.800048828125</ele>
        <time>2026-06-20T12:07:04.000Z</time>
        <extensions>
          <ns3:TrackPointExtension>
            <ns3:atemp>27.0</ns3:atemp>
          </ns3:TrackPointExtension>
        </extensions>
      </trkpt>
      <trkpt lat="42.44956062175333499908447265625" lon="20.1994805596768856048583984375">
        <ele>1157.199951171875</ele>
        <time>2026-06-20T12:07:05.000Z</time>
        <extensions>
          <ns3:TrackPointExtension>
            <ns3:atemp>27.0</ns3:atemp>
          </ns3:TrackPointExtension>
        </extensions>
      </trkpt>
      <trkpt lat="42.44955576024949550628662109375" lon="20.1995321922004222869873046875">
        <ele>1156.5999755859375</ele>
        <time>2026-06-20T12:07:06.000Z</time>
        <extensions>
          <ns3:TrackPointExtension>
            <ns3:atemp>27.0</ns3:atemp>
          </ns3:TrackPointExtension>
        </extensions>
      </trkpt>
      <trkpt lat="42.44954100809991359710693359375" lon="20.1995913684368133544921875">
        <ele>1155.800048828125</ele>
        <time>2026-06-20T12:07:07.000Z</time>
        <extensions>
          <ns3:TrackPointExtension>
            <ns3:atemp>27.0</ns3:atemp>
          </ns3:TrackPointExtension>
        </extensions>
      </trkpt>
      <trkpt lat="42.44950982742011547088623046875" lon="20.1996414922177791595458984375">
        <ele>1155</ele>
        <time>2026-06-20T12:07:08.000Z</time>
        <extensions>
          <ns3:TrackPointExtension>
            <ns3:atemp>27.0</ns3:atemp>
          </ns3:TrackPointExtension>
        </extensions>
      </trkpt>
      <trkpt lat="42.449495494365692138671875" lon="20.19969798624515533447265625">
        <ele>1154</ele>
        <time>2026-06-20T12:07:09.000Z</time>
        <extensions>
          <ns3:TrackPointExtension>
            <ns3:atemp>27.0</ns3:atemp>
          </ns3:TrackPointExtension>
        </extensions>
      </trkpt>
      <trkpt lat="42.44950178079307079315185546875" lon="20.19974400289356708526611328125">
        <ele>1153.4000244140625</ele>
        <time>2026-06-20T12:07:10.000Z</time>
        <extensions>
          <ns3:TrackPointExtension>
            <ns3:atemp>27.0</ns3:atemp>
          </ns3:TrackPointExtension>
        </extensions>
      </trkpt>
      <trkpt lat="42.44952156208455562591552734375" lon="20.199778787791728973388671875">
        <ele>1152.5999755859375</ele>
        <time>2026-06-20T12:07:11.000Z</time>
        <extensions>
          <ns3:TrackPointExtension>
            <ns3:atemp>27.0</ns3:atemp>
          </ns3:TrackPointExtension>
        </extensions>
      </trkpt>
      <trkpt lat="42.4495586939156055450439453125" lon="20.19979496486485004425048828125">
        <ele>1152</ele>
        <time>2026-06-20T12:07:12.000Z</time>
        <extensions>
          <ns3:TrackPointExtension>
            <ns3:atemp>27.0</ns3:atemp>
          </ns3:TrackPointExtension>
        </extensions>
      </trkpt>
      <trkpt lat="42.44959733448922634124755859375" lon="20.19979479722678661346435546875">
        <ele>1151.199951171875</ele>
        <time>2026-06-20T12:07:13.000Z</time>
        <extensions>
          <ns3:TrackPointExtension>
            <ns3:atemp>27.0</ns3:atemp>
          </ns3:TrackPointExtension>
        </extensions>
      </trkpt>
      <trkpt lat="42.4496348015964031219482421875" lon="20.19982212223112583160400390625">
        <ele>1150.199951171875</ele>
        <time>2026-06-20T12:07:14.000Z</time>
        <extensions>
          <ns3:TrackPointExtension>
            <ns3:atemp>27.0</ns3:atemp>
          </ns3:TrackPointExtension>
        </extensions>
      </trkpt>
      <trkpt lat="42.44964645244181156158447265625" lon="20.19986637867987155914306640625">
        <ele>1149.199951171875</ele>
        <time>2026-06-20T12:07:15.000Z</time>
        <extensions>
          <ns3:TrackPointExtension>
            <ns3:atemp>27.0</ns3:atemp>
          </ns3:TrackPointExtension>
        </extensions>
      </trkpt>
      <trkpt lat="42.4496435187757015228271484375" lon="20.19992404617369174957275390625">
        <ele>1148.199951171875</ele>
        <time>2026-06-20T12:07:16.000Z</time>
        <extensions>
          <ns3:TrackPointExtension>
            <ns3:atemp>27.0</ns3:atemp>
          </ns3:TrackPointExtension>
        </extensions>
      </trkpt>
      <trkpt lat="42.4496582709252834320068359375" lon="20.19998003728687763214111328125">
        <ele>1147.199951171875</ele>
        <time>2026-06-20T12:07:17.000Z</time>
        <extensions>
          <ns3:TrackPointExtension>
            <ns3:atemp>27.0</ns3:atemp>
          </ns3:TrackPointExtension>
        </extensions>
      </trkpt>
      <trkpt lat="42.449680902063846588134765625" lon="20.20002529956400394439697265625">
        <ele>1146</ele>
        <time>2026-06-20T12:07:18.000Z</time>
        <extensions>
          <ns3:TrackPointExtension>
            <ns3:atemp>27.0</ns3:atemp>
          </ns3:TrackPointExtension>
        </extensions>
      </trkpt>
      <trkpt lat="42.44970462284982204437255859375" lon="20.2000642754137516021728515625">
        <ele>1144.800048828125</ele>
        <time>2026-06-20T12:07:19.000Z</time>
        <extensions>
          <ns3:TrackPointExtension>
            <ns3:atemp>27.0</ns3:atemp>
          </ns3:TrackPointExtension>
        </extensions>
      </trkpt>
      <trkpt lat="42.449730522930622100830078125" lon="20.200111381709575653076171875">
        <ele>1143.5999755859375</ele>
        <time>2026-06-20T12:07:20.000Z</time>
        <extensions>
          <ns3:TrackPointExtension>
            <ns3:atemp>27.0</ns3:atemp>
          </ns3:TrackPointExtension>
        </extensions>
      </trkpt>
      <trkpt lat="42.4497461132705211639404296875" lon="20.2001581527292728424072265625">
        <ele>1142.5999755859375</ele>
        <time>2026-06-20T12:07:21.000Z</time>
        <extensions>
          <ns3:TrackPointExtension>
            <ns3:atemp>27.0</ns3:atemp>
          </ns3:TrackPointExtension>
        </extensions>
      </trkpt>
      <trkpt lat="42.44976379908621311187744140625" lon="20.2002087794244289398193359375">
        <ele>1141.5999755859375</ele>
        <time>2026-06-20T12:07:22.000Z</time>
        <extensions>
          <ns3:TrackPointExtension>
            <ns3:atemp>27.0</ns3:atemp>
          </ns3:TrackPointExtension>
        </extensions>
      </trkpt>
      <trkpt lat="42.449776120483875274658203125" lon="20.20025563426315784454345703125">
        <ele>1140.800048828125</ele>
        <time>2026-06-20T12:07:23.000Z</time>
        <extensions>
          <ns3:TrackPointExtension>
            <ns3:atemp>27.0</ns3:atemp>
          </ns3:TrackPointExtension>
        </extensions>
      </trkpt>
      <trkpt lat="42.4497863464057445526123046875" lon="20.2002972923219203948974609375">
        <ele>1139.5999755859375</ele>
        <time>2026-06-20T12:07:24.000Z</time>
        <extensions>
          <ns3:TrackPointExtension>
            <ns3:atemp>27.0</ns3:atemp>
          </ns3:TrackPointExtension>
        </extensions>
      </trkpt>
      <trkpt lat="42.44978978298604488372802734375" lon="20.20034783519804477691650390625">
        <ele>1138.800048828125</ele>
        <time>2026-06-20T12:07:25.000Z</time>
        <extensions>
          <ns3:TrackPointExtension>
            <ns3:atemp>27.0</ns3:atemp>
          </ns3:TrackPointExtension>
        </extensions>
      </trkpt>
      <trkpt lat="42.44977653957903385162353515625" lon="20.20039879716932773590087890625">
        <ele>1137.800048828125</ele>
        <time>2026-06-20T12:07:26.000Z</time>
        <extensions>
          <ns3:TrackPointExtension>
            <ns3:atemp>27.0</ns3:atemp>
          </ns3:TrackPointExtension>
        </extensions>
      </trkpt>
      <trkpt lat="42.4497462809085845947265625" lon="20.200433917343616485595703125">
        <ele>1136.800048828125</ele>
        <time>2026-06-20T12:07:27.000Z</time>
        <extensions>
          <ns3:TrackPointExtension>
            <ns3:atemp>27.0</ns3:atemp>
          </ns3:TrackPointExtension>
        </extensions>
      </trkpt>
      <trkpt lat="42.44970194064080715179443359375" lon="20.20045679993927478790283203125">
        <ele>1135.5999755859375</ele>
        <time>2026-06-20T12:07:28.000Z</time>
        <extensions>
          <ns3:TrackPointExtension>
            <ns3:atemp>27.0</ns3:atemp>
          </ns3:TrackPointExtension>
        </extensions>
      </trkpt>
      <trkpt lat="42.449646703898906707763671875" lon="20.2004679478704929351806640625">
        <ele>1134.5999755859375</ele>
        <time>2026-06-20T12:07:29.000Z</time>
        <extensions>
          <ns3:TrackPointExtension>
            <ns3:atemp>27.0</ns3:atemp>
          </ns3:TrackPointExtension>
        </extensions>
      </trkpt>
      <trkpt lat="42.44960554875433444976806640625" lon="20.20048982463777065277099609375">
        <ele>1133.800048828125</ele>
        <time>2026-06-20T12:07:30.000Z</time>
        <extensions>
          <ns3:TrackPointExtension>
            <ns3:atemp>27.0</ns3:atemp>
          </ns3:TrackPointExtension>
        </extensions>
      </trkpt>
      <trkpt lat="42.44957503862679004669189453125" lon="20.200545899569988250732421875">
        <ele>1133</ele>
        <time>2026-06-20T12:07:31.000Z</time>
        <extensions>
          <ns3:TrackPointExtension>
            <ns3:atemp>27.0</ns3:atemp>
          </ns3:TrackPointExtension>
        </extensions>
      </trkpt>
      <trkpt lat="42.44954955764114856719970703125" lon="20.2006147988140583038330078125">
        <ele>1132.5999755859375</ele>
        <time>2026-06-20T12:07:32.000Z</time>
        <extensions>
          <ns3:TrackPointExtension>
            <ns3:atemp>27.0</ns3:atemp>
          </ns3:TrackPointExtension>
        </extensions>
      </trkpt>
      <trkpt lat="42.44951670058071613311767578125" lon="20.2006795071065425872802734375">
        <ele>1132.199951171875</ele>
        <time>2026-06-20T12:07:33.000Z</time>
        <extensions>
          <ns3:TrackPointExtension>
            <ns3:atemp>27.0</ns3:atemp>
          </ns3:TrackPointExtension>
        </extensions>
      </trkpt>
      <trkpt lat="42.449471019208431243896484375" lon="20.20074781961739063262939453125">
        <ele>1131.800048828125</ele>
        <time>2026-06-20T12:07:34.000Z</time>
        <extensions>
          <ns3:TrackPointExtension>
            <ns3:atemp>27.0</ns3:atemp>
          </ns3:TrackPointExtension>
        </extensions>
      </trkpt>
      <trkpt lat="42.4494339711964130401611328125" lon="20.2008223347365856170654296875">
        <ele>1131</ele>
        <time>2026-06-20T12:07:35.000Z</time>
        <extensions>
          <ns3:TrackPointExtension>
            <ns3:atemp>27.0</ns3:atemp>
          </ns3:TrackPointExtension>
        </extensions>
      </trkpt>
      <trkpt lat="42.449408657848834991455078125" lon="20.20089467056095600128173828125">
        <ele>1130.4000244140625</ele>
        <time>2026-06-20T12:07:36.000Z</time>
        <extensions>
          <ns3:TrackPointExtension>
            <ns3:atemp>27.0</ns3:atemp>
          </ns3:TrackPointExtension>
        </extensions>
      </trkpt>
      <trkpt lat="42.4493957497179508209228515625" lon="20.20095367915928363800048828125">
        <ele>1130</ele>
        <time>2026-06-20T12:07:37.000Z</time>
        <extensions>
          <ns3:TrackPointExtension>
            <ns3:atemp>27.0</ns3:atemp>
          </ns3:TrackPointExtension>
        </extensions>
      </trkpt>
      <trkpt lat="42.449402622878551483154296875" lon="20.20100614987313747406005859375">
        <ele>1129.5999755859375</ele>
        <time>2026-06-20T12:07:38.000Z</time>
        <extensions>
          <ns3:TrackPointExtension>
            <ns3:atemp>27.0</ns3:atemp>
          </ns3:TrackPointExtension>
        </extensions>
      </trkpt>
      <trkpt lat="42.449416033923625946044921875" lon="20.20104353316128253936767578125">
        <ele>1129.199951171875</ele>
        <time>2026-06-20T12:07:39.000Z</time>
        <extensions>
          <ns3:TrackPointExtension>
            <ns3:atemp>27.0</ns3:atemp>
          </ns3:TrackPointExtension>
        </extensions>
      </trkpt>
      <trkpt lat="42.4494431912899017333984375" lon="20.2010694332420825958251953125">
        <ele>1128.800048828125</ele>
        <time>2026-06-20T12:07:40.000Z</time>
        <extensions>
          <ns3:TrackPointExtension>
            <ns3:atemp>27.0</ns3:atemp>
          </ns3:TrackPointExtension>
        </extensions>
      </trkpt>
      <trkpt lat="42.44947202503681182861328125" lon="20.2010784856975078582763671875">
        <ele>1128.4000244140625</ele>
        <time>2026-06-20T12:07:41.000Z</time>
        <extensions>
          <ns3:TrackPointExtension>
            <ns3:atemp>27.0</ns3:atemp>
          </ns3:TrackPointExtension>
        </extensions>
      </trkpt>
      <trkpt lat="42.4495020322501659393310546875" lon="20.20107127726078033447265625">
        <ele>1127.800048828125</ele>
        <time>2026-06-20T12:07:42.000Z</time>
        <extensions>
          <ns3:TrackPointExtension>
            <ns3:atemp>27.0</ns3:atemp>
          </ns3:TrackPointExtension>
        </extensions>
      </trkpt>
      <trkpt lat="42.44953899644315242767333984375" lon="20.201056189835071563720703125">
        <ele>1127.199951171875</ele>
        <time>2026-06-20T12:07:43.000Z</time>
        <extensions>
          <ns3:TrackPointExtension>
            <ns3:atemp>27.0</ns3:atemp>
          </ns3:TrackPointExtension>
        </extensions>
      </trkpt>
      <trkpt lat="42.44958727620542049407958984375" lon="20.2010449580848217010498046875">
        <ele>1126.5999755859375</ele>
        <time>2026-06-20T12:07:44.000Z</time>
        <extensions>
          <ns3:TrackPointExtension>
            <ns3:atemp>27.0</ns3:atemp>
          </ns3:TrackPointExtension>
        </extensions>
      </trkpt>
      <trkpt lat="42.44963941164314746856689453125" lon="20.2010416053235530853271484375">
        <ele>1125.800048828125</ele>
        <time>2026-06-20T12:07:45.000Z</time>
        <extensions>
          <ns3:TrackPointExtension>
            <ns3:atemp>27.0</ns3:atemp>
          </ns3:TrackPointExtension>
        </extensions>
      </trkpt>
      <trkpt lat="42.4496874399483203887939453125" lon="20.20103448070585727691650390625">
        <ele>1125</ele>
        <time>2026-06-20T12:07:46.000Z</time>
        <extensions>
          <ns3:TrackPointExtension>
            <ns3:atemp>27.0</ns3:atemp>
          </ns3:TrackPointExtension>
        </extensions>
      </trkpt>
      <trkpt lat="42.4497283436357975006103515625" lon="20.20103733055293560028076171875">
        <ele>1124.4000244140625</ele>
        <time>2026-06-20T12:07:47.000Z</time>
        <extensions>
          <ns3:TrackPointExtension>
            <ns3:atemp>27.0</ns3:atemp>
          </ns3:TrackPointExtension>
        </extensions>
      </trkpt>
      <trkpt lat="42.4497615359723567962646484375" lon="20.20104445517063140869140625">
        <ele>1123.5999755859375</ele>
        <time>2026-06-20T12:07:48.000Z</time>
        <extensions>
          <ns3:TrackPointExtension>
            <ns3:atemp>27.0</ns3:atemp>
          </ns3:TrackPointExtension>
        </extensions>
      </trkpt>
      <trkpt lat="42.449802272021770477294921875" lon="20.2010587044060230255126953125">
        <ele>1123</ele>
        <time>2026-06-20T12:07:49.000Z</time>
        <extensions>
          <ns3:TrackPointExtension>
            <ns3:atemp>27.0</ns3:atemp>
          </ns3:TrackPointExtension>
        </extensions>
      </trkpt>
      <trkpt lat="42.44985046796500682830810546875" lon="20.20105744712054729461669921875">
        <ele>1122.199951171875</ele>
        <time>2026-06-20T12:07:50.000Z</time>
        <extensions>
          <ns3:TrackPointExtension>
            <ns3:atemp>27.0</ns3:atemp>
          </ns3:TrackPointExtension>
        </extensions>
      </trkpt>
      <trkpt lat="42.44990520179271697998046875" lon="20.20103506743907928466796875">
        <ele>1121.4000244140625</ele>
        <time>2026-06-20T12:07:51.000Z</time>
        <extensions>
          <ns3:TrackPointExtension>
            <ns3:atemp>27.0</ns3:atemp>
          </ns3:TrackPointExtension>
        </extensions>
      </trkpt>
      <trkpt lat="42.449953146278858184814453125" lon="20.20103364251554012298583984375">
        <ele>1120.800048828125</ele>
        <time>2026-06-20T12:07:52.000Z</time>
        <extensions>
          <ns3:TrackPointExtension>
            <ns3:atemp>27.0</ns3:atemp>
          </ns3:TrackPointExtension>
        </extensions>
      </trkpt>
      <trkpt lat="42.4499938823282718658447265625" lon="20.20105577073991298675537109375">
        <ele>1120</ele>
        <time>2026-06-20T12:07:53.000Z</time>
        <extensions>
          <ns3:TrackPointExtension>
            <ns3:atemp>27.0</ns3:atemp>
          </ns3:TrackPointExtension>
        </extensions>
      </trkpt>
      <trkpt lat="42.45001651346683502197265625" lon="20.20110748708248138427734375">
        <ele>1119.4000244140625</ele>
        <time>2026-06-20T12:07:54.000Z</time>
        <extensions>
          <ns3:TrackPointExtension>
            <ns3:atemp>27.0</ns3:atemp>
          </ns3:TrackPointExtension>
        </extensions>
      </trkpt>
      <trkpt lat="42.45000771246850490570068359375" lon="20.2011577785015106201171875">
        <ele>1118.800048828125</ele>
        <time>2026-06-20T12:07:55.000Z</time>
        <extensions>
          <ns3:TrackPointExtension>
            <ns3:atemp>27.0</ns3:atemp>
          </ns3:TrackPointExtension>
        </extensions>
      </trkpt>
      <trkpt lat="42.44998524896800518035888671875" lon="20.2012105844914913177490234375">
        <ele>1118.199951171875</ele>
        <time>2026-06-20T12:07:56.000Z</time>
        <extensions>
          <ns3:TrackPointExtension>
            <ns3:atemp>27.0</ns3:atemp>
          </ns3:TrackPointExtension>
        </extensions>
      </trkpt>
      <trkpt lat="42.4499499611556529998779296875" lon="20.201251991093158721923828125">
        <ele>1117.5999755859375</ele>
        <time>2026-06-20T12:07:57.000Z</time>
        <extensions>
          <ns3:TrackPointExtension>
            <ns3:atemp>27.0</ns3:atemp>
          </ns3:TrackPointExtension>
        </extensions>
      </trkpt>
      <trkpt lat="42.449912242591381072998046875" lon="20.2012960799038410186767578125">
        <ele>1117</ele>
        <time>2026-06-20T12:07:58.000Z</time>
        <extensions>
          <ns3:TrackPointExtension>
            <ns3:atemp>27.0</ns3:atemp>
          </ns3:TrackPointExtension>
        </extensions>
      </trkpt>
      <trkpt lat="42.449878714978694915771484375" lon="20.20134997554123401641845703125">
        <ele>1116.4000244140625</ele>
        <time>2026-06-20T12:07:59.000Z</time>
        <extensions>
          <ns3:TrackPointExtension>
            <ns3:atemp>27.0</ns3:atemp>
          </ns3:TrackPointExtension>
        </extensions>
      </trkpt>
      <trkpt lat="42.44983940385282039642333984375" lon="20.20139607600867748260498046875">
        <ele>1115.800048828125</ele>
        <time>2026-06-20T12:08:00.000Z</time>
        <extensions>
          <ns3:TrackPointExtension>
            <ns3:atemp>27.0</ns3:atemp>
          </ns3:TrackPointExtension>
        </extensions>
      </trkpt>
      <trkpt lat="42.44978995062410831451416015625" lon="20.20142641849815845489501953125">
        <ele>1115.4000244140625</ele>
        <time>2026-06-20T12:08:01.000Z</time>
        <extensions>
          <ns3:TrackPointExtension>
            <ns3:atemp>27.0</ns3:atemp>
          </ns3:TrackPointExtension>
        </extensions>
      </trkpt>
      <trkpt lat="42.44973865337669849395751953125" lon="20.20145022310316562652587890625">
        <ele>1115</ele>
        <time>2026-06-20T12:08:02.000Z</time>
        <extensions>
          <ns3:TrackPointExtension>
            <ns3:atemp>27.0</ns3:atemp>
          </ns3:TrackPointExtension>
        </extensions>
      </trkpt>
      <trkpt lat="42.44968819431960582733154296875" lon="20.20148123614490032196044921875">
        <ele>1114.5999755859375</ele>
        <time>2026-06-20T12:08:03.000Z</time>
        <extensions>
          <ns3:TrackPointExtension>
            <ns3:atemp>27.0</ns3:atemp>
          </ns3:TrackPointExtension>
        </extensions>
      </trkpt>
      <trkpt lat="42.44964460842311382293701171875" lon="20.20154535770416259765625">
        <ele>1114.199951171875</ele>
        <time>2026-06-20T12:08:04.000Z</time>
        <extensions>
          <ns3:TrackPointExtension>
            <ns3:atemp>27.0</ns3:atemp>
          </ns3:TrackPointExtension>
        </extensions>
      </trkpt>
      <trkpt lat="42.44962063618004322052001953125" lon="20.2016243152320384979248046875">
        <ele>1113.5999755859375</ele>
        <time>2026-06-20T12:08:05.000Z</time>
        <extensions>
          <ns3:TrackPointExtension>
            <ns3:atemp>27.0</ns3:atemp>
          </ns3:TrackPointExtension>
        </extensions>
      </trkpt>
      <trkpt lat="42.44959750212728977203369140625" lon="20.20171157084405422210693359375">
        <ele>1113.199951171875</ele>
        <time>2026-06-20T12:08:06.000Z</time>
        <extensions>
          <ns3:TrackPointExtension>
            <ns3:atemp>27.0</ns3:atemp>
          </ns3:TrackPointExtension>
        </extensions>
      </trkpt>
      <trkpt lat="42.44960068725049495697021484375" lon="20.20178801380097866058349609375">
        <ele>1112.5999755859375</ele>
        <time>2026-06-20T12:08:07.000Z</time>
        <extensions>
          <ns3:TrackPointExtension>
            <ns3:atemp>27.0</ns3:atemp>
          </ns3:TrackPointExtension>
        </extensions>
      </trkpt>
      <trkpt lat="42.4496294371783733367919921875" lon="20.20185490138828754425048828125">
        <ele>1111.800048828125</ele>
        <time>2026-06-20T12:08:08.000Z</time>
        <extensions>
          <ns3:TrackPointExtension>
            <ns3:atemp>27.0</ns3:atemp>
          </ns3:TrackPointExtension>
        </extensions>
      </trkpt>
      <trkpt lat="42.449672184884548187255859375" lon="20.2018911950290203094482421875">
        <ele>1110.800048828125</ele>
        <time>2026-06-20T12:08:09.000Z</time>
        <extensions>
          <ns3:TrackPointExtension>
            <ns3:atemp>27.0</ns3:atemp>
          </ns3:TrackPointExtension>
        </extensions>
      </trkpt>
      <trkpt lat="42.4497236497700214385986328125" lon="20.20191810093820095062255859375">
        <ele>1109.800048828125</ele>
        <time>2026-06-20T12:08:10.000Z</time>
        <extensions>
          <ns3:TrackPointExtension>
            <ns3:atemp>27.0</ns3:atemp>
          </ns3:TrackPointExtension>
        </extensions>
      </trkpt>
      <trkpt lat="42.44977452792227268218994140625" lon="20.201917849481105804443359375">
        <ele>1109</ele>
        <time>2026-06-20T12:08:11.000Z</time>
        <extensions>
          <ns3:TrackPointExtension>
            <ns3:atemp>27.0</ns3:atemp>
          </ns3:TrackPointExtension>
        </extensions>
      </trkpt>
      <trkpt lat="42.449832446873188018798828125" lon="20.20188407041132450103759765625">
        <ele>1108</ele>
        <time>2026-06-20T12:08:12.000Z</time>
        <extensions>
          <ns3:TrackPointExtension>
            <ns3:atemp>27.0</ns3:atemp>
          </ns3:TrackPointExtension>
        </extensions>
      </trkpt>
      <trkpt lat="42.4498936347663402557373046875" lon="20.20185238681733608245849609375">
        <ele>1107</ele>
        <time>2026-06-20T12:08:13.000Z</time>
        <extensions>
          <ns3:TrackPointExtension>
            <ns3:atemp>27.0</ns3:atemp>
          </ns3:TrackPointExtension>
        </extensions>
      </trkpt>
      <trkpt lat="42.44995658285915851593017578125" lon="20.20183830522000789642333984375">
        <ele>1106.199951171875</ele>
        <time>2026-06-20T12:08:14.000Z</time>
        <extensions>
          <ns3:TrackPointExtension>
            <ns3:atemp>27.0</ns3:atemp>
          </ns3:TrackPointExtension>
        </extensions>
      </trkpt>
      <trkpt lat="42.45002246461808681488037109375" lon="20.2018325217068195343017578125">
        <ele>1105.199951171875</ele>
        <time>2026-06-20T12:08:15.000Z</time>
        <extensions>
          <ns3:TrackPointExtension>
            <ns3:atemp>27.0</ns3:atemp>
          </ns3:TrackPointExtension>
        </extensions>
      </trkpt>
      <trkpt lat="42.4500951357185840606689453125" lon="20.20182724110782146453857421875">
        <ele>1104.199951171875</ele>
        <time>2026-06-20T12:08:16.000Z</time>
        <extensions>
          <ns3:TrackPointExtension>
            <ns3:atemp>27.0</ns3:atemp>
          </ns3:TrackPointExtension>
        </extensions>
      </trkpt>
      <trkpt lat="42.45016872882843017578125" lon="20.20180410705506801605224609375">
        <ele>1103.4000244140625</ele>
        <time>2026-06-20T12:08:17.000Z</time>
        <extensions>
          <ns3:TrackPointExtension>
            <ns3:atemp>27.0</ns3:atemp>
          </ns3:TrackPointExtension>
        </extensions>
      </trkpt>
      <trkpt lat="42.4502319283783435821533203125" lon="20.20176990889012813568115234375">
        <ele>1102.800048828125</ele>
        <time>2026-06-20T12:08:18.000Z</time>
        <extensions>
          <ns3:TrackPointExtension>
            <ns3:atemp>27.0</ns3:atemp>
          </ns3:TrackPointExtension>
        </extensions>
      </trkpt>
      <trkpt lat="42.450286410748958587646484375" lon="20.20172732882201671600341796875">
        <ele>1102.199951171875</ele>
        <time>2026-06-20T12:08:19.000Z</time>
        <extensions>
          <ns3:TrackPointExtension>
            <ns3:atemp>27.0</ns3:atemp>
          </ns3:TrackPointExtension>
        </extensions>
      </trkpt>
      <trkpt lat="42.4503412283957004547119140625" lon="20.20169011317193508148193359375">
        <ele>1101.5999755859375</ele>
        <time>2026-06-20T12:08:20.000Z</time>
        <extensions>
          <ns3:TrackPointExtension>
            <ns3:atemp>27.0</ns3:atemp>
          </ns3:TrackPointExtension>
        </extensions>
      </trkpt>
      <trkpt lat="42.45039311237633228302001953125" lon="20.20166379399597644805908203125">
        <ele>1101</ele>
        <time>2026-06-20T12:08:21.000Z</time>
        <extensions>
          <ns3:TrackPointExtension>
            <ns3:atemp>27.0</ns3:atemp>
          </ns3:TrackPointExtension>
        </extensions>
      </trkpt>
      <trkpt lat="42.45044566690921783447265625" lon="20.20166764967143535614013671875">
        <ele>1100.5999755859375</ele>
        <time>2026-06-20T12:08:22.000Z</time>
        <extensions>
          <ns3:TrackPointExtension>
            <ns3:atemp>27.0</ns3:atemp>
          </ns3:TrackPointExtension>
        </extensions>
      </trkpt>
      <trkpt lat="42.450487911701202392578125" lon="20.2016917057335376739501953125">
        <ele>1100</ele>
        <time>2026-06-20T12:08:23.000Z</time>
        <extensions>
          <ns3:TrackPointExtension>
            <ns3:atemp>27.0</ns3:atemp>
          </ns3:TrackPointExtension>
        </extensions>
      </trkpt>
      <trkpt lat="42.450512386858463287353515625" lon="20.2017356269061565399169921875">
        <ele>1099.199951171875</ele>
        <time>2026-06-20T12:08:24.000Z</time>
        <extensions>
          <ns3:TrackPointExtension>
            <ns3:atemp>27.0</ns3:atemp>
          </ns3:TrackPointExtension>
        </extensions>
      </trkpt>
      <trkpt lat="42.45050542987883090972900390625" lon="20.20178072154521942138671875">
        <ele>1098.5999755859375</ele>
        <time>2026-06-20T12:08:25.000Z</time>
        <extensions>
          <ns3:TrackPointExtension>
            <ns3:atemp>27.0</ns3:atemp>
          </ns3:TrackPointExtension>
        </extensions>
      </trkpt>
      <trkpt lat="42.450486905872821807861328125" lon="20.2018160931766033172607421875">
        <ele>1097.800048828125</ele>
        <time>2026-06-20T12:08:26.000Z</time>
        <extensions>
          <ns3:TrackPointExtension>
            <ns3:atemp>27.0</ns3:atemp>
          </ns3:TrackPointExtension>
        </extensions>
      </trkpt>
      <trkpt lat="42.4504693038761615753173828125" lon="20.20185423083603382110595703125">
        <ele>1097</ele>
        <time>2026-06-20T12:08:27.000Z</time>
        <extensions>
          <ns3:TrackPointExtension>
            <ns3:atemp>27.0</ns3:atemp>
          </ns3:TrackPointExtension>
        </extensions>
      </trkpt>
      <trkpt lat="42.45046318508684635162353515625" lon="20.20189748145639896392822265625">
        <ele>1096.4000244140625</ele>
        <time>2026-06-20T12:08:28.000Z</time>
        <extensions>
          <ns3:TrackPointExtension>
            <ns3:atemp>27.0</ns3:atemp>
          </ns3:TrackPointExtension>
        </extensions>
      </trkpt>
      <trkpt lat="42.4504501931369304656982421875" lon="20.20194928161799907684326171875">
        <ele>1095.800048828125</ele>
        <time>2026-06-20T12:08:29.000Z</time>
        <extensions>
          <ns3:TrackPointExtension>
            <ns3:atemp>27.0</ns3:atemp>
          </ns3:TrackPointExtension>
        </extensions>
      </trkpt>
      <trkpt lat="42.4504275619983673095703125" lon="20.201999656856060028076171875">
        <ele>1095.199951171875</ele>
        <time>2026-06-20T12:08:30.000Z</time>
        <extensions>
          <ns3:TrackPointExtension>
            <ns3:atemp>27.0</ns3:atemp>
          </ns3:TrackPointExtension>
        </extensions>
      </trkpt>
      <trkpt lat="42.45039872825145721435546875" lon="20.20204869098961353302001953125">
        <ele>1094.800048828125</ele>
        <time>2026-06-20T12:08:31.000Z</time>
        <extensions>
          <ns3:TrackPointExtension>
            <ns3:atemp>27.0</ns3:atemp>
          </ns3:TrackPointExtension>
        </extensions>
      </trkpt>
      <trkpt lat="42.45035313069820404052734375" lon="20.202096886932849884033203125">
        <ele>1094.199951171875</ele>
        <time>2026-06-20T12:08:32.000Z</time>
        <extensions>
          <ns3:TrackPointExtension>
            <ns3:atemp>27.0</ns3:atemp>
          </ns3:TrackPointExtension>
        </extensions>
      </trkpt>
      <trkpt lat="42.45030744932591915130615234375" lon="20.2021396346390247344970703125">
        <ele>1093.5999755859375</ele>
        <time>2026-06-20T12:08:33.000Z</time>
        <extensions>
          <ns3:TrackPointExtension>
            <ns3:atemp>27.0</ns3:atemp>
          </ns3:TrackPointExtension>
        </extensions>
      </trkpt>
      <trkpt lat="42.4502667970955371856689453125" lon="20.202192105352878570556640625">
        <ele>1093</ele>
        <time>2026-06-20T12:08:34.000Z</time>
        <extensions>
          <ns3:TrackPointExtension>
            <ns3:atemp>27.0</ns3:atemp>
          </ns3:TrackPointExtension>
        </extensions>
      </trkpt>
      <trkpt lat="42.45023301802575588226318359375" lon="20.20225304178893566131591796875">
        <ele>1091.800048828125</ele>
        <time>2026-06-20T12:08:35.000Z</time>
        <extensions>
          <ns3:TrackPointExtension>
            <ns3:atemp>27.0</ns3:atemp>
          </ns3:TrackPointExtension>
        </extensions>
      </trkpt>
      <trkpt lat="42.45020770467817783355712890625" lon="20.20232043229043483734130859375">
        <ele>1090.5999755859375</ele>
        <time>2026-06-20T12:08:36.000Z</time>
        <extensions>
          <ns3:TrackPointExtension>
            <ns3:atemp>27.0</ns3:atemp>
          </ns3:TrackPointExtension>
        </extensions>
      </trkpt>
      <trkpt lat="42.45018540881574153900146484375" lon="20.202374160289764404296875">
        <ele>1089.800048828125</ele>
        <time>2026-06-20T12:08:37.000Z</time>
        <extensions>
          <ns3:TrackPointExtension>
            <ns3:atemp>27.0</ns3:atemp>
          </ns3:TrackPointExtension>
        </extensions>
      </trkpt>
      <trkpt lat="42.45016445405781269073486328125" lon="20.20242738537490367889404296875">
        <ele>1089.199951171875</ele>
        <time>2026-06-20T12:08:38.000Z</time>
        <extensions>
          <ns3:TrackPointExtension>
            <ns3:atemp>27.0</ns3:atemp>
          </ns3:TrackPointExtension>
        </extensions>
      </trkpt>
      <trkpt lat="42.4501497857272624969482421875" lon="20.20247331820428371429443359375">
        <ele>1088.800048828125</ele>
        <time>2026-06-20T12:08:39.000Z</time>
        <extensions>
          <ns3:TrackPointExtension>
            <ns3:atemp>27.0</ns3:atemp>
          </ns3:TrackPointExtension>
        </extensions>
      </trkpt>
      <trkpt lat="42.45014031417667865753173828125" lon="20.20250332541763782501220703125">
        <ele>1088.5999755859375</ele>
        <time>2026-06-20T12:08:40.000Z</time>
        <extensions>
          <ns3:TrackPointExtension>
            <ns3:atemp>27.0</ns3:atemp>
          </ns3:TrackPointExtension>
        </extensions>
      </trkpt>
      <trkpt lat="42.4501306749880313873291015625" lon="20.20253115333616733551025390625">
        <ele>1088.4000244140625</ele>
        <time>2026-06-20T12:08:41.000Z</time>
        <extensions>
          <ns3:TrackPointExtension>
            <ns3:atemp>27.0</ns3:atemp>
          </ns3:TrackPointExtension>
        </extensions>
      </trkpt>
      <trkpt lat="42.45012455619871616363525390625" lon="20.20256065763533115386962890625">
        <ele>1088.4000244140625</ele>
        <time>2026-06-20T12:08:42.000Z</time>
        <extensions>
          <ns3:TrackPointExtension>
            <ns3:atemp>27.0</ns3:atemp>
          </ns3:TrackPointExtension>
        </extensions>
      </trkpt>
      <trkpt lat="42.4501199461519718170166015625" lon="20.202591083943843841552734375">
        <ele>1088.4000244140625</ele>
        <time>2026-06-20T12:08:43.000Z</time>
        <extensions>
          <ns3:TrackPointExtension>
            <ns3:atemp>27.0</ns3:atemp>
          </ns3:TrackPointExtension>
        </extensions>
      </trkpt>
      <trkpt lat="42.450116090476512908935546875" lon="20.20261949859559535980224609375">
        <ele>1088</ele>
        <time>2026-06-20T12:08:44.000Z</time>
        <extensions>
          <ns3:TrackPointExtension>
            <ns3:atemp>27.0</ns3:atemp>
          </ns3:TrackPointExtension>
        </extensions>
      </trkpt>
      <trkpt lat="42.45011466555297374725341796875" lon="20.202643387019634246826171875">
        <ele>1087.800048828125</ele>
        <time>2026-06-20T12:08:45.000Z</time>
        <extensions>
          <ns3:TrackPointExtension>
            <ns3:atemp>27.0</ns3:atemp>
          </ns3:TrackPointExtension>
        </extensions>
      </trkpt>
      <trkpt lat="42.45011080987751483917236328125" lon="20.202669203281402587890625">
        <ele>1087.4000244140625</ele>
        <time>2026-06-20T12:08:46.000Z</time>
        <extensions>
          <ns3:TrackPointExtension>
            <ns3:atemp>27.0</ns3:atemp>
          </ns3:TrackPointExtension>
        </extensions>
      </trkpt>
      <trkpt lat="42.45010226033627986907958984375" lon="20.2026878111064434051513671875">
        <ele>1087.199951171875</ele>
        <time>2026-06-20T12:08:47.000Z</time>
        <extensions>
          <ns3:TrackPointExtension>
            <ns3:atemp>27.0</ns3:atemp>
          </ns3:TrackPointExtension>
        </extensions>
      </trkpt>
      <trkpt lat="42.4500941298902034759521484375" lon="20.2027025632560253143310546875">
        <ele>1087.199951171875</ele>
        <time>2026-06-20T12:08:48.000Z</time>
        <extensions>
          <ns3:TrackPointExtension>
            <ns3:atemp>27.0</ns3:atemp>
          </ns3:TrackPointExtension>
        </extensions>
      </trkpt>
      <trkpt lat="42.4500896036624908447265625" lon="20.202719159424304962158203125">
        <ele>1087.199951171875</ele>
        <time>2026-06-20T12:08:49.000Z</time>
        <extensions>
          <ns3:TrackPointExtension>
            <ns3:atemp>27.0</ns3:atemp>
          </ns3:TrackPointExtension>
        </extensions>
      </trkpt>
      <trkpt lat="42.45008583180606365203857421875" lon="20.202737934887409210205078125">
        <ele>1087.199951171875</ele>
        <time>2026-06-20T12:08:50.000Z</time>
        <extensions>
          <ns3:TrackPointExtension>
            <ns3:atemp>27.0</ns3:atemp>
          </ns3:TrackPointExtension>
        </extensions>
      </trkpt>
      <trkpt lat="42.45008465833961963653564453125" lon="20.2027578838169574737548828125">
        <ele>1087.4000244140625</ele>
        <time>2026-06-20T12:08:51.000Z</time>
        <extensions>
          <ns3:TrackPointExtension>
            <ns3:atemp>27.0</ns3:atemp>
          </ns3:TrackPointExtension>
        </extensions>
      </trkpt>
      <trkpt lat="42.45008281432092189788818359375" lon="20.20277104340493679046630859375">
        <ele>1087.4000244140625</ele>
        <time>2026-06-20T12:08:52.000Z</time>
        <extensions>
          <ns3:TrackPointExtension>
            <ns3:atemp>27.0</ns3:atemp>
          </ns3:TrackPointExtension>
        </extensions>
      </trkpt>
      <trkpt lat="42.4500780366361141204833984375" lon="20.20278118550777435302734375">
        <ele>1087.5999755859375</ele>
        <time>2026-06-20T12:08:53.000Z</time>
        <extensions>
          <ns3:TrackPointExtension>
            <ns3:atemp>27.0</ns3:atemp>
          </ns3:TrackPointExtension>
        </extensions>
      </trkpt>
      <trkpt lat="42.45007225312292575836181640625" lon="20.20279166288673877716064453125">
        <ele>1087.5999755859375</ele>
        <time>2026-06-20T12:08:54.000Z</time>
        <extensions>
          <ns3:TrackPointExtension>
            <ns3:atemp>26.0</ns3:atemp>
          </ns3:TrackPointExtension>
        </extensions>
      </trkpt>
      <trkpt lat="42.45006822980940341949462890625" lon="20.20279518328607082366943359375">
        <ele>1087.5999755859375</ele>
        <time>2026-06-20T12:08:55.000Z</time>
        <extensions>
          <ns3:TrackPointExtension>
            <ns3:atemp>27.0</ns3:atemp>
          </ns3:TrackPointExtension>
        </extensions>
      </trkpt>
      <trkpt lat="42.45006554760038852691650390625" lon="20.20279861986637115478515625">
        <ele>1087.5999755859375</ele>
        <time>2026-06-20T12:08:56.000Z</time>
        <extensions>
          <ns3:TrackPointExtension>
            <ns3:atemp>26.0</ns3:atemp>
          </ns3:TrackPointExtension>
        </extensions>
      </trkpt>
      <trkpt lat="42.45006336830556392669677734375" lon="20.20279350690543651580810546875">
        <ele>1087.800048828125</ele>
        <time>2026-06-20T12:08:57.000Z</time>
        <extensions>
          <ns3:TrackPointExtension>
            <ns3:atemp>26.0</ns3:atemp>
          </ns3:TrackPointExtension>
        </extensions>
      </trkpt>
      <trkpt lat="42.45006345212459564208984375" lon="20.20279350690543651580810546875">
        <ele>1087.800048828125</ele>
        <time>2026-06-20T12:08:58.000Z</time>
        <extensions>
          <ns3:TrackPointExtension>
            <ns3:atemp>26.0</ns3:atemp>
          </ns3:TrackPointExtension>
        </extensions>
      </trkpt>
      <trkpt lat="42.45006345212459564208984375" lon="20.20279350690543651580810546875">
        <ele>1087.800048828125</ele>
        <time>2026-06-20T12:08:59.000Z</time>
        <extensions>
          <ns3:TrackPointExtension>
            <ns3:atemp>26.0</ns3:atemp>
          </ns3:TrackPointExtension>
        </extensions>
      </trkpt>
      <trkpt lat="42.45006345212459564208984375" lon="20.20279350690543651580810546875">
        <ele>1088</ele>
        <time>2026-06-20T12:09:00.000Z</time>
        <extensions>
          <ns3:TrackPointExtension>
            <ns3:atemp>26.0</ns3:atemp>
          </ns3:TrackPointExtension>
        </extensions>
      </trkpt>
      <trkpt lat="42.45006345212459564208984375" lon="20.20279350690543651580810546875">
        <ele>1088</ele>
        <time>2026-06-20T12:09:01.000Z</time>
        <extensions>
          <ns3:TrackPointExtension>
            <ns3:atemp>26.0</ns3:atemp>
          </ns3:TrackPointExtension>
        </extensions>
      </trkpt>
      <trkpt lat="42.45006345212459564208984375" lon="20.20279350690543651580810546875">
        <ele>1088</ele>
        <time>2026-06-20T12:09:02.000Z</time>
        <extensions>
          <ns3:TrackPointExtension>
            <ns3:atemp>26.0</ns3:atemp>
          </ns3:TrackPointExtension>
        </extensions>
      </trkpt>
      <trkpt lat="42.45006345212459564208984375" lon="20.20279350690543651580810546875">
        <ele>1088</ele>
        <time>2026-06-20T12:09:03.000Z</time>
        <extensions>
          <ns3:TrackPointExtension>
            <ns3:atemp>26.0</ns3:atemp>
          </ns3:TrackPointExtension>
        </extensions>
      </trkpt>
      <trkpt lat="42.45006345212459564208984375" lon="20.20279350690543651580810546875">
        <ele>1088</ele>
        <time>2026-06-20T12:09:04.000Z</time>
        <extensions>
          <ns3:TrackPointExtension>
            <ns3:atemp>26.0</ns3:atemp>
          </ns3:TrackPointExtension>
        </extensions>
      </trkpt>
      <trkpt lat="42.45006345212459564208984375" lon="20.20279350690543651580810546875">
        <ele>1088</ele>
        <time>2026-06-20T12:09:05.000Z</time>
        <extensions>
          <ns3:TrackPointExtension>
            <ns3:atemp>26.0</ns3:atemp>
          </ns3:TrackPointExtension>
        </extensions>
      </trkpt>
      <trkpt lat="42.45006345212459564208984375" lon="20.20279350690543651580810546875">
        <ele>1088</ele>
        <time>2026-06-20T12:09:06.000Z</time>
        <extensions>
          <ns3:TrackPointExtension>
            <ns3:atemp>26.0</ns3:atemp>
          </ns3:TrackPointExtension>
        </extensions>
      </trkpt>
      <trkpt lat="42.45006345212459564208984375" lon="20.20279350690543651580810546875">
        <ele>1088.199951171875</ele>
        <time>2026-06-20T12:09:07.000Z</time>
        <extensions>
          <ns3:TrackPointExtension>
            <ns3:atemp>26.0</ns3:atemp>
          </ns3:TrackPointExtension>
        </extensions>
      </trkpt>
      <trkpt lat="42.45006345212459564208984375" lon="20.20279350690543651580810546875">
        <ele>1088.199951171875</ele>
        <time>2026-06-20T12:09:08.000Z</time>
        <extensions>
          <ns3:TrackPointExtension>
            <ns3:atemp>26.0</ns3:atemp>
          </ns3:TrackPointExtension>
        </extensions>
      </trkpt>
      <trkpt lat="42.45006345212459564208984375" lon="20.20279350690543651580810546875">
        <ele>1088.199951171875</ele>
        <time>2026-06-20T12:09:09.000Z</time>
        <extensions>
          <ns3:TrackPointExtension>
            <ns3:atemp>26.0</ns3:atemp>
          </ns3:TrackPointExtension>
        </extensions>
      </trkpt>
      <trkpt lat="42.45006345212459564208984375" lon="20.20279350690543651580810546875">
        <ele>1088.199951171875</ele>
        <time>2026-06-20T12:09:10.000Z</time>
        <extensions>
          <ns3:TrackPointExtension>
            <ns3:atemp>26.0</ns3:atemp>
          </ns3:TrackPointExtension>
        </extensions>
      </trkpt>
      <trkpt lat="42.45006345212459564208984375" lon="20.20279350690543651580810546875">
        <ele>1088.199951171875</ele>
        <time>2026-06-20T12:09:11.000Z</time>
        <extensions>
          <ns3:TrackPointExtension>
            <ns3:atemp>26.0</ns3:atemp>
          </ns3:TrackPointExtension>
        </extensions>
      </trkpt>
      <trkpt lat="42.45006345212459564208984375" lon="20.20279350690543651580810546875">
        <ele>1088.199951171875</ele>
        <time>2026-06-20T12:09:12.000Z</time>
        <extensions>
          <ns3:TrackPointExtension>
            <ns3:atemp>26.0</ns3:atemp>
          </ns3:TrackPointExtension>
        </extensions>
      </trkpt>
      <trkpt lat="42.45006345212459564208984375" lon="20.20279350690543651580810546875">
        <ele>1088.199951171875</ele>
        <time>2026-06-20T12:09:13.000Z</time>
        <extensions>
          <ns3:TrackPointExtension>
            <ns3:atemp>26.0</ns3:atemp>
          </ns3:TrackPointExtension>
        </extensions>
      </trkpt>
      <trkpt lat="42.45006345212459564208984375" lon="20.20279350690543651580810546875">
        <ele>1088.199951171875</ele>
        <time>2026-06-20T12:09:14.000Z</time>
        <extensions>
          <ns3:TrackPointExtension>
            <ns3:atemp>26.0</ns3:atemp>
          </ns3:TrackPointExtension>
        </extensions>
      </trkpt>
      <trkpt lat="42.45006345212459564208984375" lon="20.20279350690543651580810546875">
        <ele>1088.199951171875</ele>
        <time>2026-06-20T12:09:15.000Z</time>
        <extensions>
          <ns3:TrackPointExtension>
            <ns3:atemp>26.0</ns3:atemp>
          </ns3:TrackPointExtension>
        </extensions>
      </trkpt>
      <trkpt lat="42.45006345212459564208984375" lon="20.20279350690543651580810546875">
        <ele>1088.199951171875</ele>
        <time>2026-06-20T12:09:16.000Z</time>
        <extensions>
          <ns3:TrackPointExtension>
            <ns3:atemp>26.0</ns3:atemp>
          </ns3:TrackPointExtension>
        </extensions>
      </trkpt>
      <trkpt lat="42.45006345212459564208984375" lon="20.20279350690543651580810546875">
        <ele>1088.199951171875</ele>
        <time>2026-06-20T12:09:17.000Z</time>
        <extensions>
          <ns3:TrackPointExtension>
            <ns3:atemp>26.0</ns3:atemp>
          </ns3:TrackPointExtension>
        </extensions>
      </trkpt>
      <trkpt lat="42.45006345212459564208984375" lon="20.20279350690543651580810546875">
        <ele>1088.199951171875</ele>
        <time>2026-06-20T12:09:18.000Z</time>
        <extensions>
          <ns3:TrackPointExtension>
            <ns3:atemp>26.0</ns3:atemp>
          </ns3:TrackPointExtension>
        </extensions>
      </trkpt>
      <trkpt lat="42.45006345212459564208984375" lon="20.20279350690543651580810546875">
        <ele>1088.199951171875</ele>
        <time>2026-06-20T12:09:19.000Z</time>
        <extensions>
          <ns3:TrackPointExtension>
            <ns3:atemp>26.0</ns3:atemp>
          </ns3:TrackPointExtension>
        </extensions>
      </trkpt>
      <trkpt lat="42.45007024146616458892822265625" lon="20.2027992904186248779296875">
        <ele>1088.199951171875</ele>
        <time>2026-06-20T12:09:20.000Z</time>
        <extensions>
          <ns3:TrackPointExtension>
            <ns3:atemp>26.0</ns3:atemp>
          </ns3:TrackPointExtension>
        </extensions>
      </trkpt>
      <trkpt lat="42.4500803835690021514892578125" lon="20.20280909724533557891845703125">
        <ele>1088.199951171875</ele>
        <time>2026-06-20T12:09:21.000Z</time>
        <extensions>
          <ns3:TrackPointExtension>
            <ns3:atemp>26.0</ns3:atemp>
          </ns3:TrackPointExtension>
        </extensions>
      </trkpt>
      <trkpt lat="42.4500887654721736907958984375" lon="20.20281345583498477935791015625">
        <ele>1088.4000244140625</ele>
        <time>2026-06-20T12:09:22.000Z</time>
        <extensions>
          <ns3:TrackPointExtension>
            <ns3:atemp>26.0</ns3:atemp>
          </ns3:TrackPointExtension>
        </extensions>
      </trkpt>
      <trkpt lat="42.4500904418528079986572265625" lon="20.20280792377889156341552734375">
        <ele>1088.4000244140625</ele>
        <time>2026-06-20T12:09:23.000Z</time>
        <extensions>
          <ns3:TrackPointExtension>
            <ns3:atemp>27.0</ns3:atemp>
          </ns3:TrackPointExtension>
        </extensions>
      </trkpt>
      <trkpt lat="42.45009035803377628326416015625" lon="20.20280800759792327880859375">
        <ele>1088.4000244140625</ele>
        <time>2026-06-20T12:09:24.000Z</time>
        <extensions>
          <ns3:TrackPointExtension>
            <ns3:atemp>26.0</ns3:atemp>
          </ns3:TrackPointExtension>
        </extensions>
      </trkpt>
      <trkpt lat="42.45009035803377628326416015625" lon="20.20280800759792327880859375">
        <ele>1088.4000244140625</ele>
        <time>2026-06-20T12:09:25.000Z</time>
        <extensions>
          <ns3:TrackPointExtension>
            <ns3:atemp>27.0</ns3:atemp>
          </ns3:TrackPointExtension>
        </extensions>
      </trkpt>
      <trkpt lat="42.45009035803377628326416015625" lon="20.20280800759792327880859375">
        <ele>1088.4000244140625</ele>
        <time>2026-06-20T12:09:26.000Z</time>
        <extensions>
          <ns3:TrackPointExtension>
            <ns3:atemp>26.0</ns3:atemp>
          </ns3:TrackPointExtension>
        </extensions>
      </trkpt>
      <trkpt lat="42.45009035803377628326416015625" lon="20.20280800759792327880859375">
        <ele>1088.199951171875</ele>
        <time>2026-06-20T12:09:27.000Z</time>
        <extensions>
          <ns3:TrackPointExtension>
            <ns3:atemp>26.0</ns3:atemp>
          </ns3:TrackPointExtension>
        </extensions>
      </trkpt>
      <trkpt lat="42.45009035803377628326416015625" lon="20.20280800759792327880859375">
        <ele>1088</ele>
        <time>2026-06-20T12:09:28.000Z</time>
        <extensions>
          <ns3:TrackPointExtension>
            <ns3:atemp>26.0</ns3:atemp>
          </ns3:TrackPointExtension>
        </extensions>
      </trkpt>
      <trkpt lat="42.45009035803377628326416015625" lon="20.20280800759792327880859375">
        <ele>1087.800048828125</ele>
        <time>2026-06-20T12:09:29.000Z</time>
        <extensions>
          <ns3:TrackPointExtension>
            <ns3:atemp>26.0</ns3:atemp>
          </ns3:TrackPointExtension>
        </extensions>
      </trkpt>
      <trkpt lat="42.45009035803377628326416015625" lon="20.20280800759792327880859375">
        <ele>1087.800048828125</ele>
        <time>2026-06-20T12:09:30.000Z</time>
        <extensions>
          <ns3:TrackPointExtension>
            <ns3:atemp>26.0</ns3:atemp>
          </ns3:TrackPointExtension>
        </extensions>
      </trkpt>
      <trkpt lat="42.45009035803377628326416015625" lon="20.20280800759792327880859375">
        <ele>1087.5999755859375</ele>
        <time>2026-06-20T12:09:31.000Z</time>
        <extensions>
          <ns3:TrackPointExtension>
            <ns3:atemp>26.0</ns3:atemp>
          </ns3:TrackPointExtension>
        </extensions>
      </trkpt>
      <trkpt lat="42.45009035803377628326416015625" lon="20.20280800759792327880859375">
        <ele>1087.5999755859375</ele>
        <time>2026-06-20T12:09:32.000Z</time>
        <extensions>
          <ns3:TrackPointExtension>
            <ns3:atemp>26.0</ns3:atemp>
          </ns3:TrackPointExtension>
        </extensions>
      </trkpt>
      <trkpt lat="42.45009035803377628326416015625" lon="20.20280800759792327880859375">
        <ele>1087.5999755859375</ele>
        <time>2026-06-20T12:09:33.000Z</time>
        <extensions>
          <ns3:TrackPointExtension>
            <ns3:atemp>27.0</ns3:atemp>
          </ns3:TrackPointExtension>
        </extensions>
      </trkpt>
      <trkpt lat="42.45009035803377628326416015625" lon="20.20280800759792327880859375">
        <ele>1087.5999755859375</ele>
        <time>2026-06-20T12:09:34.000Z</time>
        <extensions>
          <ns3:TrackPointExtension>
            <ns3:atemp>27.0</ns3:atemp>
          </ns3:TrackPointExtension>
        </extensions>
      </trkpt>
      <trkpt lat="42.45009035803377628326416015625" lon="20.20280800759792327880859375">
        <ele>1087.5999755859375</ele>
        <time>2026-06-20T12:09:35.000Z</time>
        <extensions>
          <ns3:TrackPointExtension>
            <ns3:atemp>27.0</ns3:atemp>
          </ns3:TrackPointExtension>
        </extensions>
      </trkpt>
      <trkpt lat="42.45009035803377628326416015625" lon="20.20280800759792327880859375">
        <ele>1087.5999755859375</ele>
        <time>2026-06-20T12:09:36.000Z</time>
        <extensions>
          <ns3:TrackPointExtension>
            <ns3:atemp>27.0</ns3:atemp>
          </ns3:TrackPointExtension>
        </extensions>
      </trkpt>
      <trkpt lat="42.45009035803377628326416015625" lon="20.20280800759792327880859375">
        <ele>1087.5999755859375</ele>
        <time>2026-06-20T12:09:37.000Z</time>
        <extensions>
          <ns3:TrackPointExtension>
            <ns3:atemp>26.0</ns3:atemp>
          </ns3:TrackPointExtension>
        </extensions>
      </trkpt>
      <trkpt lat="42.45009035803377628326416015625" lon="20.20280800759792327880859375">
        <ele>1087.5999755859375</ele>
        <time>2026-06-20T12:09:38.000Z</time>
        <extensions>
          <ns3:TrackPointExtension>
            <ns3:atemp>27.0</ns3:atemp>
          </ns3:TrackPointExtension>
        </extensions>
      </trkpt>
      <trkpt lat="42.45009035803377628326416015625" lon="20.20280800759792327880859375">
        <ele>1087.5999755859375</ele>
        <time>2026-06-20T12:09:39.000Z</time>
        <extensions>
          <ns3:TrackPointExtension>
            <ns3:atemp>27.0</ns3:atemp>
          </ns3:TrackPointExtension>
        </extensions>
      </trkpt>
      <trkpt lat="42.45009035803377628326416015625" lon="20.20280800759792327880859375">
        <ele>1087.5999755859375</ele>
        <time>2026-06-20T12:09:40.000Z</time>
        <extensions>
          <ns3:TrackPointExtension>
            <ns3:atemp>27.0</ns3:atemp>
          </ns3:TrackPointExtension>
        </extensions>
      </trkpt>
      <trkpt lat="42.45009035803377628326416015625" lon="20.20280800759792327880859375">
        <ele>1087.5999755859375</ele>
        <time>2026-06-20T12:09:41.000Z</time>
        <extensions>
          <ns3:TrackPointExtension>
            <ns3:atemp>27.0</ns3:atemp>
          </ns3:TrackPointExtension>
        </extensions>
      </trkpt>
      <trkpt lat="42.45009035803377628326416015625" lon="20.20280800759792327880859375">
        <ele>1087.800048828125</ele>
        <time>2026-06-20T12:09:42.000Z</time>
        <extensions>
          <ns3:TrackPointExtension>
            <ns3:atemp>27.0</ns3:atemp>
          </ns3:TrackPointExtension>
        </extensions>
      </trkpt>
      <trkpt lat="42.45009035803377628326416015625" lon="20.20280800759792327880859375">
        <ele>1087.800048828125</ele>
        <time>2026-06-20T12:09:43.000Z</time>
        <extensions>
          <ns3:TrackPointExtension>
            <ns3:atemp>27.0</ns3:atemp>
          </ns3:TrackPointExtension>
        </extensions>
      </trkpt>
      <trkpt lat="42.45009035803377628326416015625" lon="20.20280800759792327880859375">
        <ele>1087.800048828125</ele>
        <time>2026-06-20T12:09:44.000Z</time>
        <extensions>
          <ns3:TrackPointExtension>
            <ns3:atemp>27.0</ns3:atemp>
          </ns3:TrackPointExtension>
        </extensions>
      </trkpt>
      <trkpt lat="42.45009035803377628326416015625" lon="20.20280800759792327880859375">
        <ele>1087.800048828125</ele>
        <time>2026-06-20T12:09:45.000Z</time>
        <extensions>
          <ns3:TrackPointExtension>
            <ns3:atemp>27.0</ns3:atemp>
          </ns3:TrackPointExtension>
        </extensions>
      </trkpt>
      <trkpt lat="42.45009035803377628326416015625" lon="20.20280800759792327880859375">
        <ele>1087.800048828125</ele>
        <time>2026-06-20T12:09:46.000Z</time>
        <extensions>
          <ns3:TrackPointExtension>
            <ns3:atemp>27.0</ns3:atemp>
          </ns3:TrackPointExtension>
        </extensions>
      </trkpt>
      <trkpt lat="42.45009035803377628326416015625" lon="20.20280800759792327880859375">
        <ele>1087.800048828125</ele>
        <time>2026-06-20T12:09:47.000Z</time>
        <extensions>
          <ns3:TrackPointExtension>
            <ns3:atemp>27.0</ns3:atemp>
          </ns3:TrackPointExtension>
        </extensions>
      </trkpt>
      <trkpt lat="42.45009035803377628326416015625" lon="20.20280800759792327880859375">
        <ele>1087.5999755859375</ele>
        <time>2026-06-20T12:09:48.000Z</time>
        <extensions>
          <ns3:TrackPointExtension>
            <ns3:atemp>27.0</ns3:atemp>
          </ns3:TrackPointExtension>
        </extensions>
      </trkpt>
      <trkpt lat="42.45009035803377628326416015625" lon="20.20280800759792327880859375">
        <ele>1087.5999755859375</ele>
        <time>2026-06-20T12:09:49.000Z</time>
        <extensions>
          <ns3:TrackPointExtension>
            <ns3:atemp>27.0</ns3:atemp>
          </ns3:TrackPointExtension>
        </extensions>
      </trkpt>
      <trkpt lat="42.45009035803377628326416015625" lon="20.20280800759792327880859375">
        <ele>1087.5999755859375</ele>
        <time>2026-06-20T12:09:50.000Z</time>
        <extensions>
          <ns3:TrackPointExtension>
            <ns3:atemp>27.0</ns3:atemp>
          </ns3:TrackPointExtension>
        </extensions>
      </trkpt>
      <trkpt lat="42.45009035803377628326416015625" lon="20.20280800759792327880859375">
        <ele>1087.5999755859375</ele>
        <time>2026-06-20T12:09:51.000Z</time>
        <extensions>
          <ns3:TrackPointExtension>
            <ns3:atemp>27.0</ns3:atemp>
          </ns3:TrackPointExtension>
        </extensions>
      </trkpt>
      <trkpt lat="42.45009035803377628326416015625" lon="20.20280800759792327880859375">
        <ele>1087.5999755859375</ele>
        <time>2026-06-20T12:09:52.000Z</time>
        <extensions>
          <ns3:TrackPointExtension>
            <ns3:atemp>27.0</ns3:atemp>
          </ns3:TrackPointExtension>
        </extensions>
      </trkpt>
      <trkpt lat="42.45009035803377628326416015625" lon="20.20280800759792327880859375">
        <ele>1087.5999755859375</ele>
        <time>2026-06-20T12:09:53.000Z</time>
        <extensions>
          <ns3:TrackPointExtension>
            <ns3:atemp>27.0</ns3:atemp>
          </ns3:TrackPointExtension>
        </extensions>
      </trkpt>
      <trkpt lat="42.45009035803377628326416015625" lon="20.20280800759792327880859375">
        <ele>1087.5999755859375</ele>
        <time>2026-06-20T12:09:54.000Z</time>
        <extensions>
          <ns3:TrackPointExtension>
            <ns3:atemp>27.0</ns3:atemp>
          </ns3:TrackPointExtension>
        </extensions>
      </trkpt>
      <trkpt lat="42.45009035803377628326416015625" lon="20.20280800759792327880859375">
        <ele>1087.5999755859375</ele>
        <time>2026-06-20T12:09:55.000Z</time>
        <extensions>
          <ns3:TrackPointExtension>
            <ns3:atemp>27.0</ns3:atemp>
          </ns3:TrackPointExtension>
        </extensions>
      </trkpt>
      <trkpt lat="42.45009035803377628326416015625" lon="20.20280800759792327880859375">
        <ele>1087.5999755859375</ele>
        <time>2026-06-20T12:09:56.000Z</time>
        <extensions>
          <ns3:TrackPointExtension>
            <ns3:atemp>27.0</ns3:atemp>
          </ns3:TrackPointExtension>
        </extensions>
      </trkpt>
      <trkpt lat="42.45009035803377628326416015625" lon="20.20280800759792327880859375">
        <ele>1087.5999755859375</ele>
        <time>2026-06-20T12:09:57.000Z</time>
        <extensions>
          <ns3:TrackPointExtension>
            <ns3:atemp>27.0</ns3:atemp>
          </ns3:TrackPointExtension>
        </extensions>
      </trkpt>
      <trkpt lat="42.45009035803377628326416015625" lon="20.20280800759792327880859375">
        <ele>1087.5999755859375</ele>
        <time>2026-06-20T12:09:58.000Z</time>
        <extensions>
          <ns3:TrackPointExtension>
            <ns3:atemp>27.0</ns3:atemp>
          </ns3:TrackPointExtension>
        </extensions>
      </trkpt>
      <trkpt lat="42.45009035803377628326416015625" lon="20.20280800759792327880859375">
        <ele>1087.5999755859375</ele>
        <time>2026-06-20T12:09:59.000Z</time>
        <extensions>
          <ns3:TrackPointExtension>
            <ns3:atemp>27.0</ns3:atemp>
          </ns3:TrackPointExtension>
        </extensions>
      </trkpt>
      <trkpt lat="42.45009035803377628326416015625" lon="20.20280800759792327880859375">
        <ele>1087.5999755859375</ele>
        <time>2026-06-20T12:10:00.000Z</time>
        <extensions>
          <ns3:TrackPointExtension>
            <ns3:atemp>27.0</ns3:atemp>
          </ns3:TrackPointExtension>
        </extensions>
      </trkpt>
      <trkpt lat="42.45009035803377628326416015625" lon="20.20280800759792327880859375">
        <ele>1087.5999755859375</ele>
        <time>2026-06-20T12:10:01.000Z</time>
        <extensions>
          <ns3:TrackPointExtension>
            <ns3:atemp>27.0</ns3:atemp>
          </ns3:TrackPointExtension>
        </extensions>
      </trkpt>
      <trkpt lat="42.45009035803377628326416015625" lon="20.20280800759792327880859375">
        <ele>1087.5999755859375</ele>
        <time>2026-06-20T12:10:02.000Z</time>
        <extensions>
          <ns3:TrackPointExtension>
            <ns3:atemp>27.0</ns3:atemp>
          </ns3:TrackPointExtension>
        </extensions>
      </trkpt>
      <trkpt lat="42.45009035803377628326416015625" lon="20.20280800759792327880859375">
        <ele>1087.5999755859375</ele>
        <time>2026-06-20T12:10:03.000Z</time>
        <extensions>
          <ns3:TrackPointExtension>
            <ns3:atemp>27.0</ns3:atemp>
          </ns3:TrackPointExtension>
        </extensions>
      </trkpt>
      <trkpt lat="42.45009035803377628326416015625" lon="20.20280800759792327880859375">
        <ele>1087.5999755859375</ele>
        <time>2026-06-20T12:10:04.000Z</time>
        <extensions>
          <ns3:TrackPointExtension>
            <ns3:atemp>27.0</ns3:atemp>
          </ns3:TrackPointExtension>
        </extensions>
      </trkpt>
      <trkpt lat="42.45009035803377628326416015625" lon="20.20280800759792327880859375">
        <ele>1087.5999755859375</ele>
        <time>2026-06-20T12:10:05.000Z</time>
        <extensions>
          <ns3:TrackPointExtension>
            <ns3:atemp>27.0</ns3:atemp>
          </ns3:TrackPointExtension>
        </extensions>
      </trkpt>
      <trkpt lat="42.45009035803377628326416015625" lon="20.20280800759792327880859375">
        <ele>1087.5999755859375</ele>
        <time>2026-06-20T12:10:06.000Z</time>
        <extensions>
          <ns3:TrackPointExtension>
            <ns3:atemp>27.0</ns3:atemp>
          </ns3:TrackPointExtension>
        </extensions>
      </trkpt>
      <trkpt lat="42.45009035803377628326416015625" lon="20.20280800759792327880859375">
        <ele>1087.5999755859375</ele>
        <time>2026-06-20T12:10:07.000Z</time>
        <extensions>
          <ns3:TrackPointExtension>
            <ns3:atemp>27.0</ns3:atemp>
          </ns3:TrackPointExtension>
        </extensions>
      </trkpt>
      <trkpt lat="42.45009035803377628326416015625" lon="20.20280800759792327880859375">
        <ele>1087.5999755859375</ele>
        <time>2026-06-20T12:10:08.000Z</time>
        <extensions>
          <ns3:TrackPointExtension>
            <ns3:atemp>27.0</ns3:atemp>
          </ns3:TrackPointExtension>
        </extensions>
      </trkpt>
      <trkpt lat="42.45009035803377628326416015625" lon="20.20280800759792327880859375">
        <ele>1087.5999755859375</ele>
        <time>2026-06-20T12:10:09.000Z</time>
        <extensions>
          <ns3:TrackPointExtension>
            <ns3:atemp>27.0</ns3:atemp>
          </ns3:TrackPointExtension>
        </extensions>
      </trkpt>
      <trkpt lat="42.45009035803377628326416015625" lon="20.20280800759792327880859375">
        <ele>1087.5999755859375</ele>
        <time>2026-06-20T12:10:10.000Z</time>
        <extensions>
          <ns3:TrackPointExtension>
            <ns3:atemp>27.0</ns3:atemp>
          </ns3:TrackPointExtension>
        </extensions>
      </trkpt>
      <trkpt lat="42.45009035803377628326416015625" lon="20.20280800759792327880859375">
        <ele>1087.5999755859375</ele>
        <time>2026-06-20T12:10:11.000Z</time>
        <extensions>
          <ns3:TrackPointExtension>
            <ns3:atemp>27.0</ns3:atemp>
          </ns3:TrackPointExtension>
        </extensions>
      </trkpt>
      <trkpt lat="42.45009035803377628326416015625" lon="20.20280800759792327880859375">
        <ele>1087.5999755859375</ele>
        <time>2026-06-20T12:10:12.000Z</time>
        <extensions>
          <ns3:TrackPointExtension>
            <ns3:atemp>27.0</ns3:atemp>
          </ns3:TrackPointExtension>
        </extensions>
      </trkpt>
      <trkpt lat="42.45009035803377628326416015625" lon="20.20280800759792327880859375">
        <ele>1087.5999755859375</ele>
        <time>2026-06-20T12:10:13.000Z</time>
        <extensions>
          <ns3:TrackPointExtension>
            <ns3:atemp>27.0</ns3:atemp>
          </ns3:TrackPointExtension>
        </extensions>
      </trkpt>
      <trkpt lat="42.45009035803377628326416015625" lon="20.20280800759792327880859375">
        <ele>1087.5999755859375</ele>
        <time>2026-06-20T12:10:14.000Z</time>
        <extensions>
          <ns3:TrackPointExtension>
            <ns3:atemp>27.0</ns3:atemp>
          </ns3:TrackPointExtension>
        </extensions>
      </trkpt>
      <trkpt lat="42.45009035803377628326416015625" lon="20.20280800759792327880859375">
        <ele>1087.5999755859375</ele>
        <time>2026-06-20T12:10:15.000Z</time>
        <extensions>
          <ns3:TrackPointExtension>
            <ns3:atemp>27.0</ns3:atemp>
          </ns3:TrackPointExtension>
        </extensions>
      </trkpt>
      <trkpt lat="42.45009035803377628326416015625" lon="20.20280800759792327880859375">
        <ele>1087.5999755859375</ele>
        <time>2026-06-20T12:10:16.000Z</time>
        <extensions>
          <ns3:TrackPointExtension>
            <ns3:atemp>27.0</ns3:atemp>
          </ns3:TrackPointExtension>
        </extensions>
      </trkpt>
      <trkpt lat="42.45009035803377628326416015625" lon="20.20280800759792327880859375">
        <ele>1087.5999755859375</ele>
        <time>2026-06-20T12:10:17.000Z</time>
        <extensions>
          <ns3:TrackPointExtension>
            <ns3:atemp>27.0</ns3:atemp>
          </ns3:TrackPointExtension>
        </extensions>
      </trkpt>
      <trkpt lat="42.45009035803377628326416015625" lon="20.20280800759792327880859375">
        <ele>1087.5999755859375</ele>
        <time>2026-06-20T12:10:18.000Z</time>
        <extensions>
          <ns3:TrackPointExtension>
            <ns3:atemp>27.0</ns3:atemp>
          </ns3:TrackPointExtension>
        </extensions>
      </trkpt>
      <trkpt lat="42.45009035803377628326416015625" lon="20.20280800759792327880859375">
        <ele>1087.5999755859375</ele>
        <time>2026-06-20T12:10:19.000Z</time>
        <extensions>
          <ns3:TrackPointExtension>
            <ns3:atemp>27.0</ns3:atemp>
          </ns3:TrackPointExtension>
        </extensions>
      </trkpt>
      <trkpt lat="42.45009035803377628326416015625" lon="20.20280800759792327880859375">
        <ele>1087.5999755859375</ele>
        <time>2026-06-20T12:10:20.000Z</time>
        <extensions>
          <ns3:TrackPointExtension>
            <ns3:atemp>27.0</ns3:atemp>
          </ns3:TrackPointExtension>
        </extensions>
      </trkpt>
      <trkpt lat="42.45009035803377628326416015625" lon="20.20280800759792327880859375">
        <ele>1087.5999755859375</ele>
        <time>2026-06-20T12:10:21.000Z</time>
        <extensions>
          <ns3:TrackPointExtension>
            <ns3:atemp>27.0</ns3:atemp>
          </ns3:TrackPointExtension>
        </extensions>
      </trkpt>
      <trkpt lat="42.45009035803377628326416015625" lon="20.20280800759792327880859375">
        <ele>1087.5999755859375</ele>
        <time>2026-06-20T12:10:22.000Z</time>
        <extensions>
          <ns3:TrackPointExtension>
            <ns3:atemp>27.0</ns3:atemp>
          </ns3:TrackPointExtension>
        </extensions>
      </trkpt>
      <trkpt lat="42.45009035803377628326416015625" lon="20.20280800759792327880859375">
        <ele>1087.5999755859375</ele>
        <time>2026-06-20T12:10:23.000Z</time>
        <extensions>
          <ns3:TrackPointExtension>
            <ns3:atemp>27.0</ns3:atemp>
          </ns3:TrackPointExtension>
        </extensions>
      </trkpt>
      <trkpt lat="42.45009035803377628326416015625" lon="20.20280800759792327880859375">
        <ele>1087.5999755859375</ele>
        <time>2026-06-20T12:10:24.000Z</time>
        <extensions>
          <ns3:TrackPointExtension>
            <ns3:atemp>27.0</ns3:atemp>
          </ns3:TrackPointExtension>
        </extensions>
      </trkpt>
      <trkpt lat="42.45009035803377628326416015625" lon="20.20280800759792327880859375">
        <ele>1087.5999755859375</ele>
        <time>2026-06-20T12:10:25.000Z</time>
        <extensions>
          <ns3:TrackPointExtension>
            <ns3:atemp>27.0</ns3:atemp>
          </ns3:TrackPointExtension>
        </extensions>
      </trkpt>
      <trkpt lat="42.45009035803377628326416015625" lon="20.20280800759792327880859375">
        <ele>1087.5999755859375</ele>
        <time>2026-06-20T12:10:26.000Z</time>
        <extensions>
          <ns3:TrackPointExtension>
            <ns3:atemp>27.0</ns3:atemp>
          </ns3:TrackPointExtension>
        </extensions>
      </trkpt>
      <trkpt lat="42.45009035803377628326416015625" lon="20.20280800759792327880859375">
        <ele>1087.5999755859375</ele>
        <time>2026-06-20T12:10:27.000Z</time>
        <extensions>
          <ns3:TrackPointExtension>
            <ns3:atemp>27.0</ns3:atemp>
          </ns3:TrackPointExtension>
        </extensions>
      </trkpt>
      <trkpt lat="42.45009035803377628326416015625" lon="20.20280800759792327880859375">
        <ele>1087.5999755859375</ele>
        <time>2026-06-20T12:10:28.000Z</time>
        <extensions>
          <ns3:TrackPointExtension>
            <ns3:atemp>27.0</ns3:atemp>
          </ns3:TrackPointExtension>
        </extensions>
      </trkpt>
      <trkpt lat="42.45009035803377628326416015625" lon="20.20280800759792327880859375">
        <ele>1087.5999755859375</ele>
        <time>2026-06-20T12:10:29.000Z</time>
        <extensions>
          <ns3:TrackPointExtension>
            <ns3:atemp>27.0</ns3:atemp>
          </ns3:TrackPointExtension>
        </extensions>
      </trkpt>
      <trkpt lat="42.45009035803377628326416015625" lon="20.20280800759792327880859375">
        <ele>1087.5999755859375</ele>
        <time>2026-06-20T12:10:30.000Z</time>
        <extensions>
          <ns3:TrackPointExtension>
            <ns3:atemp>27.0</ns3:atemp>
          </ns3:TrackPointExtension>
        </extensions>
      </trkpt>
      <trkpt lat="42.45009035803377628326416015625" lon="20.20280800759792327880859375">
        <ele>1087.5999755859375</ele>
        <time>2026-06-20T12:10:31.000Z</time>
        <extensions>
          <ns3:TrackPointExtension>
            <ns3:atemp>27.0</ns3:atemp>
          </ns3:TrackPointExtension>
        </extensions>
      </trkpt>
      <trkpt lat="42.45009035803377628326416015625" lon="20.20280800759792327880859375">
        <ele>1087.5999755859375</ele>
        <time>2026-06-20T12:10:32.000Z</time>
        <extensions>
          <ns3:TrackPointExtension>
            <ns3:atemp>27.0</ns3:atemp>
          </ns3:TrackPointExtension>
        </extensions>
      </trkpt>
      <trkpt lat="42.45009035803377628326416015625" lon="20.20280800759792327880859375">
        <ele>1087.5999755859375</ele>
        <time>2026-06-20T12:10:33.000Z</time>
        <extensions>
          <ns3:TrackPointExtension>
            <ns3:atemp>27.0</ns3:atemp>
          </ns3:TrackPointExtension>
        </extensions>
      </trkpt>
      <trkpt lat="42.45009035803377628326416015625" lon="20.20280800759792327880859375">
        <ele>1087.5999755859375</ele>
        <time>2026-06-20T12:10:34.000Z</time>
        <extensions>
          <ns3:TrackPointExtension>
            <ns3:atemp>27.0</ns3:atemp>
          </ns3:TrackPointExtension>
        </extensions>
      </trkpt>
      <trkpt lat="42.45009035803377628326416015625" lon="20.20280800759792327880859375">
        <ele>1087.5999755859375</ele>
        <time>2026-06-20T12:10:35.000Z</time>
        <extensions>
          <ns3:TrackPointExtension>
            <ns3:atemp>27.0</ns3:atemp>
          </ns3:TrackPointExtension>
        </extensions>
      </trkpt>
      <trkpt lat="42.45009035803377628326416015625" lon="20.20280800759792327880859375">
        <ele>1087.5999755859375</ele>
        <time>2026-06-20T12:10:36.000Z</time>
        <extensions>
          <ns3:TrackPointExtension>
            <ns3:atemp>27.0</ns3:atemp>
          </ns3:TrackPointExtension>
        </extensions>
      </trkpt>
      <trkpt lat="42.45009035803377628326416015625" lon="20.20280800759792327880859375">
        <ele>1087.5999755859375</ele>
        <time>2026-06-20T12:10:37.000Z</time>
        <extensions>
          <ns3:TrackPointExtension>
            <ns3:atemp>27.0</ns3:atemp>
          </ns3:TrackPointExtension>
        </extensions>
      </trkpt>
      <trkpt lat="42.45009035803377628326416015625" lon="20.20280800759792327880859375">
        <ele>1087.5999755859375</ele>
        <time>2026-06-20T12:10:38.000Z</time>
        <extensions>
          <ns3:TrackPointExtension>
            <ns3:atemp>27.0</ns3:atemp>
          </ns3:TrackPointExtension>
        </extensions>
      </trkpt>
      <trkpt lat="42.45009035803377628326416015625" lon="20.20280800759792327880859375">
        <ele>1087.5999755859375</ele>
        <time>2026-06-20T12:10:39.000Z</time>
        <extensions>
          <ns3:TrackPointExtension>
            <ns3:atemp>27.0</ns3:atemp>
          </ns3:TrackPointExtension>
        </extensions>
      </trkpt>
      <trkpt lat="42.45009035803377628326416015625" lon="20.20280800759792327880859375">
        <ele>1087.5999755859375</ele>
        <time>2026-06-20T12:10:40.000Z</time>
        <extensions>
          <ns3:TrackPointExtension>
            <ns3:atemp>27.0</ns3:atemp>
          </ns3:TrackPointExtension>
        </extensions>
      </trkpt>
      <trkpt lat="42.45009035803377628326416015625" lon="20.20280800759792327880859375">
        <ele>1087.5999755859375</ele>
        <time>2026-06-20T12:10:41.000Z</time>
        <extensions>
          <ns3:TrackPointExtension>
            <ns3:atemp>27.0</ns3:atemp>
          </ns3:TrackPointExtension>
        </extensions>
      </trkpt>
      <trkpt lat="42.45009035803377628326416015625" lon="20.20280800759792327880859375">
        <ele>1087.5999755859375</ele>
        <time>2026-06-20T12:10:42.000Z</time>
        <extensions>
          <ns3:TrackPointExtension>
            <ns3:atemp>27.0</ns3:atemp>
          </ns3:TrackPointExtension>
        </extensions>
      </trkpt>
      <trkpt lat="42.45009035803377628326416015625" lon="20.20280800759792327880859375">
        <ele>1087.5999755859375</ele>
        <time>2026-06-20T12:10:43.000Z</time>
        <extensions>
          <ns3:TrackPointExtension>
            <ns3:atemp>27.0</ns3:atemp>
          </ns3:TrackPointExtension>
        </extensions>
      </trkpt>
      <trkpt lat="42.45009035803377628326416015625" lon="20.20280800759792327880859375">
        <ele>1087.5999755859375</ele>
        <time>2026-06-20T12:10:44.000Z</time>
        <extensions>
          <ns3:TrackPointExtension>
            <ns3:atemp>27.0</ns3:atemp>
          </ns3:TrackPointExtension>
        </extensions>
      </trkpt>
      <trkpt lat="42.45009035803377628326416015625" lon="20.20280800759792327880859375">
        <ele>1087.5999755859375</ele>
        <time>2026-06-20T12:10:45.000Z</time>
        <extensions>
          <ns3:TrackPointExtension>
            <ns3:atemp>27.0</ns3:atemp>
          </ns3:TrackPointExtension>
        </extensions>
      </trkpt>
      <trkpt lat="42.45009035803377628326416015625" lon="20.20280800759792327880859375">
        <ele>1087.5999755859375</ele>
        <time>2026-06-20T12:10:46.000Z</time>
        <extensions>
          <ns3:TrackPointExtension>
            <ns3:atemp>27.0</ns3:atemp>
          </ns3:TrackPointExtension>
        </extensions>
      </trkpt>
      <trkpt lat="42.45009035803377628326416015625" lon="20.20280800759792327880859375">
        <ele>1087.5999755859375</ele>
        <time>2026-06-20T12:10:47.000Z</time>
        <extensions>
          <ns3:TrackPointExtension>
            <ns3:atemp>27.0</ns3:atemp>
          </ns3:TrackPointExtension>
        </extensions>
      </trkpt>
      <trkpt lat="42.45009035803377628326416015625" lon="20.20280800759792327880859375">
        <ele>1087.5999755859375</ele>
        <time>2026-06-20T12:10:48.000Z</time>
        <extensions>
          <ns3:TrackPointExtension>
            <ns3:atemp>27.0</ns3:atemp>
          </ns3:TrackPointExtension>
        </extensions>
      </trkpt>
      <trkpt lat="42.45009035803377628326416015625" lon="20.20280800759792327880859375">
        <ele>1087.5999755859375</ele>
        <time>2026-06-20T12:10:49.000Z</time>
        <extensions>
          <ns3:TrackPointExtension>
            <ns3:atemp>27.0</ns3:atemp>
          </ns3:TrackPointExtension>
        </extensions>
      </trkpt>
      <trkpt lat="42.45009035803377628326416015625" lon="20.20280800759792327880859375">
        <ele>1087.5999755859375</ele>
        <time>2026-06-20T12:10:50.000Z</time>
        <extensions>
          <ns3:TrackPointExtension>
            <ns3:atemp>27.0</ns3:atemp>
          </ns3:TrackPointExtension>
        </extensions>
      </trkpt>
      <trkpt lat="42.45009035803377628326416015625" lon="20.20280800759792327880859375">
        <ele>1087.5999755859375</ele>
        <time>2026-06-20T12:10:51.000Z</time>
        <extensions>
          <ns3:TrackPointExtension>
            <ns3:atemp>27.0</ns3:atemp>
          </ns3:TrackPointExtension>
        </extensions>
      </trkpt>
      <trkpt lat="42.45009035803377628326416015625" lon="20.20280800759792327880859375">
        <ele>1087.5999755859375</ele>
        <time>2026-06-20T12:10:52.000Z</time>
        <extensions>
          <ns3:TrackPointExtension>
            <ns3:atemp>27.0</ns3:atemp>
          </ns3:TrackPointExtension>
        </extensions>
      </trkpt>
      <trkpt lat="42.45009035803377628326416015625" lon="20.20280800759792327880859375">
        <ele>1087.5999755859375</ele>
        <time>2026-06-20T12:10:53.000Z</time>
        <extensions>
          <ns3:TrackPointExtension>
            <ns3:atemp>27.0</ns3:atemp>
          </ns3:TrackPointExtension>
        </extensions>
      </trkpt>
      <trkpt lat="42.45009035803377628326416015625" lon="20.20280800759792327880859375">
        <ele>1087.5999755859375</ele>
        <time>2026-06-20T12:10:54.000Z</time>
        <extensions>
          <ns3:TrackPointExtension>
            <ns3:atemp>27.0</ns3:atemp>
          </ns3:TrackPointExtension>
        </extensions>
      </trkpt>
      <trkpt lat="42.45009035803377628326416015625" lon="20.20280800759792327880859375">
        <ele>1087.5999755859375</ele>
        <time>2026-06-20T12:10:55.000Z</time>
        <extensions>
          <ns3:TrackPointExtension>
            <ns3:atemp>27.0</ns3:atemp>
          </ns3:TrackPointExtension>
        </extensions>
      </trkpt>
      <trkpt lat="42.45009035803377628326416015625" lon="20.20280800759792327880859375">
        <ele>1087.5999755859375</ele>
        <time>2026-06-20T12:10:56.000Z</time>
        <extensions>
          <ns3:TrackPointExtension>
            <ns3:atemp>27.0</ns3:atemp>
          </ns3:TrackPointExtension>
        </extensions>
      </trkpt>
      <trkpt lat="42.45009035803377628326416015625" lon="20.20280800759792327880859375">
        <ele>1087.5999755859375</ele>
        <time>2026-06-20T12:10:57.000Z</time>
        <extensions>
          <ns3:TrackPointExtension>
            <ns3:atemp>27.0</ns3:atemp>
          </ns3:TrackPointExtension>
        </extensions>
      </trkpt>
      <trkpt lat="42.45009035803377628326416015625" lon="20.20280800759792327880859375">
        <ele>1087.5999755859375</ele>
        <time>2026-06-20T12:10:58.000Z</time>
        <extensions>
          <ns3:TrackPointExtension>
            <ns3:atemp>27.0</ns3:atemp>
          </ns3:TrackPointExtension>
        </extensions>
      </trkpt>
      <trkpt lat="42.45009035803377628326416015625" lon="20.20280800759792327880859375">
        <ele>1087.5999755859375</ele>
        <time>2026-06-20T12:10:59.000Z</time>
        <extensions>
          <ns3:TrackPointExtension>
            <ns3:atemp>27.0</ns3:atemp>
          </ns3:TrackPointExtension>
        </extensions>
      </trkpt>
      <trkpt lat="42.45009035803377628326416015625" lon="20.20280800759792327880859375">
        <ele>1087.5999755859375</ele>
        <time>2026-06-20T12:11:00.000Z</time>
        <extensions>
          <ns3:TrackPointExtension>
            <ns3:atemp>27.0</ns3:atemp>
          </ns3:TrackPointExtension>
        </extensions>
      </trkpt>
      <trkpt lat="42.45009035803377628326416015625" lon="20.20280800759792327880859375">
        <ele>1087.5999755859375</ele>
        <time>2026-06-20T12:11:01.000Z</time>
        <extensions>
          <ns3:TrackPointExtension>
            <ns3:atemp>27.0</ns3:atemp>
          </ns3:TrackPointExtension>
        </extensions>
      </trkpt>
      <trkpt lat="42.45009035803377628326416015625" lon="20.20280800759792327880859375">
        <ele>1087.5999755859375</ele>
        <time>2026-06-20T12:11:02.000Z</time>
        <extensions>
          <ns3:TrackPointExtension>
            <ns3:atemp>27.0</ns3:atemp>
          </ns3:TrackPointExtension>
        </extensions>
      </trkpt>
      <trkpt lat="42.45009035803377628326416015625" lon="20.20280800759792327880859375">
        <ele>1087.5999755859375</ele>
        <time>2026-06-20T12:11:03.000Z</time>
        <extensions>
          <ns3:TrackPointExtension>
            <ns3:atemp>27.0</ns3:atemp>
          </ns3:TrackPointExtension>
        </extensions>
      </trkpt>
      <trkpt lat="42.45009035803377628326416015625" lon="20.20280800759792327880859375">
        <ele>1087.5999755859375</ele>
        <time>2026-06-20T12:11:04.000Z</time>
        <extensions>
          <ns3:TrackPointExtension>
            <ns3:atemp>27.0</ns3:atemp>
          </ns3:TrackPointExtension>
        </extensions>
      </trkpt>
      <trkpt lat="42.45009035803377628326416015625" lon="20.20280800759792327880859375">
        <ele>1087.5999755859375</ele>
        <time>2026-06-20T12:11:05.000Z</time>
        <extensions>
          <ns3:TrackPointExtension>
            <ns3:atemp>27.0</ns3:atemp>
          </ns3:TrackPointExtension>
        </extensions>
      </trkpt>
      <trkpt lat="42.45009035803377628326416015625" lon="20.20280800759792327880859375">
        <ele>1087.5999755859375</ele>
        <time>2026-06-20T12:11:06.000Z</time>
        <extensions>
          <ns3:TrackPointExtension>
            <ns3:atemp>27.0</ns3:atemp>
          </ns3:TrackPointExtension>
        </extensions>
      </trkpt>
      <trkpt lat="42.45009035803377628326416015625" lon="20.20280800759792327880859375">
        <ele>1087.5999755859375</ele>
        <time>2026-06-20T12:11:07.000Z</time>
        <extensions>
          <ns3:TrackPointExtension>
            <ns3:atemp>27.0</ns3:atemp>
          </ns3:TrackPointExtension>
        </extensions>
      </trkpt>
      <trkpt lat="42.45009035803377628326416015625" lon="20.20280800759792327880859375">
        <ele>1087.5999755859375</ele>
        <time>2026-06-20T12:11:08.000Z</time>
        <extensions>
          <ns3:TrackPointExtension>
            <ns3:atemp>27.0</ns3:atemp>
          </ns3:TrackPointExtension>
        </extensions>
      </trkpt>
      <trkpt lat="42.45009035803377628326416015625" lon="20.20280800759792327880859375">
        <ele>1087.5999755859375</ele>
        <time>2026-06-20T12:11:09.000Z</time>
        <extensions>
          <ns3:TrackPointExtension>
            <ns3:atemp>27.0</ns3:atemp>
          </ns3:TrackPointExtension>
        </extensions>
      </trkpt>
      <trkpt lat="42.45009035803377628326416015625" lon="20.20280800759792327880859375">
        <ele>1087.5999755859375</ele>
        <time>2026-06-20T12:11:10.000Z</time>
        <extensions>
          <ns3:TrackPointExtension>
            <ns3:atemp>27.0</ns3:atemp>
          </ns3:TrackPointExtension>
        </extensions>
      </trkpt>
      <trkpt lat="42.45009035803377628326416015625" lon="20.20280800759792327880859375">
        <ele>1087.5999755859375</ele>
        <time>2026-06-20T12:11:11.000Z</time>
        <extensions>
          <ns3:TrackPointExtension>
            <ns3:atemp>27.0</ns3:atemp>
          </ns3:TrackPointExtension>
        </extensions>
      </trkpt>
      <trkpt lat="42.45009035803377628326416015625" lon="20.20280800759792327880859375">
        <ele>1087.5999755859375</ele>
        <time>2026-06-20T12:11:12.000Z</time>
        <extensions>
          <ns3:TrackPointExtension>
            <ns3:atemp>27.0</ns3:atemp>
          </ns3:TrackPointExtension>
        </extensions>
      </trkpt>
      <trkpt lat="42.45009035803377628326416015625" lon="20.20280800759792327880859375">
        <ele>1087.5999755859375</ele>
        <time>2026-06-20T12:11:13.000Z</time>
        <extensions>
          <ns3:TrackPointExtension>
            <ns3:atemp>27.0</ns3:atemp>
          </ns3:TrackPointExtension>
        </extensions>
      </trkpt>
      <trkpt lat="42.45009035803377628326416015625" lon="20.20280800759792327880859375">
        <ele>1087.5999755859375</ele>
        <time>2026-06-20T12:11:14.000Z</time>
        <extensions>
          <ns3:TrackPointExtension>
            <ns3:atemp>27.0</ns3:atemp>
          </ns3:TrackPointExtension>
        </extensions>
      </trkpt>
      <trkpt lat="42.45009035803377628326416015625" lon="20.20280800759792327880859375">
        <ele>1087.5999755859375</ele>
        <time>2026-06-20T12:11:15.000Z</time>
        <extensions>
          <ns3:TrackPointExtension>
            <ns3:atemp>27.0</ns3:atemp>
          </ns3:TrackPointExtension>
        </extensions>
      </trkpt>
      <trkpt lat="42.45009035803377628326416015625" lon="20.20280800759792327880859375">
        <ele>1087.5999755859375</ele>
        <time>2026-06-20T12:11:16.000Z</time>
        <extensions>
          <ns3:TrackPointExtension>
            <ns3:atemp>27.0</ns3:atemp>
          </ns3:TrackPointExtension>
        </extensions>
      </trkpt>
      <trkpt lat="42.45009035803377628326416015625" lon="20.20280800759792327880859375">
        <ele>1087.5999755859375</ele>
        <time>2026-06-20T12:11:17.000Z</time>
        <extensions>
          <ns3:TrackPointExtension>
            <ns3:atemp>27.0</ns3:atemp>
          </ns3:TrackPointExtension>
        </extensions>
      </trkpt>
      <trkpt lat="42.45009035803377628326416015625" lon="20.20280800759792327880859375">
        <ele>1087.5999755859375</ele>
        <time>2026-06-20T12:11:18.000Z</time>
        <extensions>
          <ns3:TrackPointExtension>
            <ns3:atemp>27.0</ns3:atemp>
          </ns3:TrackPointExtension>
        </extensions>
      </trkpt>
      <trkpt lat="42.45009035803377628326416015625" lon="20.20280800759792327880859375">
        <ele>1087.5999755859375</ele>
        <time>2026-06-20T12:11:19.000Z</time>
        <extensions>
          <ns3:TrackPointExtension>
            <ns3:atemp>27.0</ns3:atemp>
          </ns3:TrackPointExtension>
        </extensions>
      </trkpt>
      <trkpt lat="42.45009035803377628326416015625" lon="20.20280800759792327880859375">
        <ele>1087.5999755859375</ele>
        <time>2026-06-20T12:11:20.000Z</time>
        <extensions>
          <ns3:TrackPointExtension>
            <ns3:atemp>27.0</ns3:atemp>
          </ns3:TrackPointExtension>
        </extensions>
      </trkpt>
      <trkpt lat="42.45009035803377628326416015625" lon="20.20280800759792327880859375">
        <ele>1087.5999755859375</ele>
        <time>2026-06-20T12:11:21.000Z</time>
        <extensions>
          <ns3:TrackPointExtension>
            <ns3:atemp>27.0</ns3:atemp>
          </ns3:TrackPointExtension>
        </extensions>
      </trkpt>
      <trkpt lat="42.45009035803377628326416015625" lon="20.20280800759792327880859375">
        <ele>1087.5999755859375</ele>
        <time>2026-06-20T12:11:22.000Z</time>
        <extensions>
          <ns3:TrackPointExtension>
            <ns3:atemp>27.0</ns3:atemp>
          </ns3:TrackPointExtension>
        </extensions>
      </trkpt>
      <trkpt lat="42.45009035803377628326416015625" lon="20.20280800759792327880859375">
        <ele>1087.5999755859375</ele>
        <time>2026-06-20T12:11:23.000Z</time>
        <extensions>
          <ns3:TrackPointExtension>
            <ns3:atemp>27.0</ns3:atemp>
          </ns3:TrackPointExtension>
        </extensions>
      </trkpt>
      <trkpt lat="42.45009035803377628326416015625" lon="20.20280800759792327880859375">
        <ele>1087.5999755859375</ele>
        <time>2026-06-20T12:11:24.000Z</time>
        <extensions>
          <ns3:TrackPointExtension>
            <ns3:atemp>27.0</ns3:atemp>
          </ns3:TrackPointExtension>
        </extensions>
      </trkpt>
      <trkpt lat="42.45009035803377628326416015625" lon="20.20280800759792327880859375">
        <ele>1087.5999755859375</ele>
        <time>2026-06-20T12:11:25.000Z</time>
        <extensions>
          <ns3:TrackPointExtension>
            <ns3:atemp>27.0</ns3:atemp>
          </ns3:TrackPointExtension>
        </extensions>
      </trkpt>
      <trkpt lat="42.45009035803377628326416015625" lon="20.20280800759792327880859375">
        <ele>1087.5999755859375</ele>
        <time>2026-06-20T12:11:26.000Z</time>
        <extensions>
          <ns3:TrackPointExtension>
            <ns3:atemp>27.0</ns3:atemp>
          </ns3:TrackPointExtension>
        </extensions>
      </trkpt>
      <trkpt lat="42.45009035803377628326416015625" lon="20.20280800759792327880859375">
        <ele>1087.5999755859375</ele>
        <time>2026-06-20T12:11:27.000Z</time>
        <extensions>
          <ns3:TrackPointExtension>
            <ns3:atemp>27.0</ns3:atemp>
          </ns3:TrackPointExtension>
        </extensions>
      </trkpt>
      <trkpt lat="42.45009035803377628326416015625" lon="20.20280800759792327880859375">
        <ele>1087.5999755859375</ele>
        <time>2026-06-20T12:11:28.000Z</time>
        <extensions>
          <ns3:TrackPointExtension>
            <ns3:atemp>27.0</ns3:atemp>
          </ns3:TrackPointExtension>
        </extensions>
      </trkpt>
      <trkpt lat="42.45009035803377628326416015625" lon="20.20280800759792327880859375">
        <ele>1087.5999755859375</ele>
        <time>2026-06-20T12:11:29.000Z</time>
        <extensions>
          <ns3:TrackPointExtension>
            <ns3:atemp>27.0</ns3:atemp>
          </ns3:TrackPointExtension>
        </extensions>
      </trkpt>
      <trkpt lat="42.45009035803377628326416015625" lon="20.20280800759792327880859375">
        <ele>1087.5999755859375</ele>
        <time>2026-06-20T12:11:30.000Z</time>
        <extensions>
          <ns3:TrackPointExtension>
            <ns3:atemp>27.0</ns3:atemp>
          </ns3:TrackPointExtension>
        </extensions>
      </trkpt>
      <trkpt lat="42.45009035803377628326416015625" lon="20.20280800759792327880859375">
        <ele>1087.5999755859375</ele>
        <time>2026-06-20T12:11:31.000Z</time>
        <extensions>
          <ns3:TrackPointExtension>
            <ns3:atemp>27.0</ns3:atemp>
          </ns3:TrackPointExtension>
        </extensions>
      </trkpt>
      <trkpt lat="42.45009035803377628326416015625" lon="20.20280800759792327880859375">
        <ele>1087.5999755859375</ele>
        <time>2026-06-20T12:11:32.000Z</time>
        <extensions>
          <ns3:TrackPointExtension>
            <ns3:atemp>27.0</ns3:atemp>
          </ns3:TrackPointExtension>
        </extensions>
      </trkpt>
      <trkpt lat="42.45009035803377628326416015625" lon="20.20280800759792327880859375">
        <ele>1087.5999755859375</ele>
        <time>2026-06-20T12:11:33.000Z</time>
        <extensions>
          <ns3:TrackPointExtension>
            <ns3:atemp>27.0</ns3:atemp>
          </ns3:TrackPointExtension>
        </extensions>
      </trkpt>
      <trkpt lat="42.45009035803377628326416015625" lon="20.20280800759792327880859375">
        <ele>1087.5999755859375</ele>
        <time>2026-06-20T12:11:34.000Z</time>
        <extensions>
          <ns3:TrackPointExtension>
            <ns3:atemp>27.0</ns3:atemp>
          </ns3:TrackPointExtension>
        </extensions>
      </trkpt>
      <trkpt lat="42.45009035803377628326416015625" lon="20.20280800759792327880859375">
        <ele>1087.5999755859375</ele>
        <time>2026-06-20T12:11:35.000Z</time>
        <extensions>
          <ns3:TrackPointExtension>
            <ns3:atemp>27.0</ns3:atemp>
          </ns3:TrackPointExtension>
        </extensions>
      </trkpt>
      <trkpt lat="42.45009035803377628326416015625" lon="20.20280800759792327880859375">
        <ele>1087.5999755859375</ele>
        <time>2026-06-20T12:11:36.000Z</time>
        <extensions>
          <ns3:TrackPointExtension>
            <ns3:atemp>27.0</ns3:atemp>
          </ns3:TrackPointExtension>
        </extensions>
      </trkpt>
      <trkpt lat="42.45009035803377628326416015625" lon="20.20280800759792327880859375">
        <ele>1087.5999755859375</ele>
        <time>2026-06-20T12:11:37.000Z</time>
        <extensions>
          <ns3:TrackPointExtension>
            <ns3:atemp>27.0</ns3:atemp>
          </ns3:TrackPointExtension>
        </extensions>
      </trkpt>
      <trkpt lat="42.45009035803377628326416015625" lon="20.20280800759792327880859375">
        <ele>1087.5999755859375</ele>
        <time>2026-06-20T12:11:38.000Z</time>
        <extensions>
          <ns3:TrackPointExtension>
            <ns3:atemp>27.0</ns3:atemp>
          </ns3:TrackPointExtension>
        </extensions>
      </trkpt>
      <trkpt lat="42.45009035803377628326416015625" lon="20.20280800759792327880859375">
        <ele>1087.5999755859375</ele>
        <time>2026-06-20T12:11:39.000Z</time>
        <extensions>
          <ns3:TrackPointExtension>
            <ns3:atemp>27.0</ns3:atemp>
          </ns3:TrackPointExtension>
        </extensions>
      </trkpt>
      <trkpt lat="42.45009035803377628326416015625" lon="20.20280800759792327880859375">
        <ele>1087.5999755859375</ele>
        <time>2026-06-20T12:11:40.000Z</time>
        <extensions>
          <ns3:TrackPointExtension>
            <ns3:atemp>27.0</ns3:atemp>
          </ns3:TrackPointExtension>
        </extensions>
      </trkpt>
      <trkpt lat="42.45009035803377628326416015625" lon="20.20280800759792327880859375">
        <ele>1087.5999755859375</ele>
        <time>2026-06-20T12:11:41.000Z</time>
        <extensions>
          <ns3:TrackPointExtension>
            <ns3:atemp>27.0</ns3:atemp>
          </ns3:TrackPointExtension>
        </extensions>
      </trkpt>
      <trkpt lat="42.45009035803377628326416015625" lon="20.20280800759792327880859375">
        <ele>1087.5999755859375</ele>
        <time>2026-06-20T12:11:42.000Z</time>
        <extensions>
          <ns3:TrackPointExtension>
            <ns3:atemp>27.0</ns3:atemp>
          </ns3:TrackPointExtension>
        </extensions>
      </trkpt>
      <trkpt lat="42.45009035803377628326416015625" lon="20.20280800759792327880859375">
        <ele>1087.5999755859375</ele>
        <time>2026-06-20T12:11:43.000Z</time>
        <extensions>
          <ns3:TrackPointExtension>
            <ns3:atemp>27.0</ns3:atemp>
          </ns3:TrackPointExtension>
        </extensions>
      </trkpt>
      <trkpt lat="42.45009035803377628326416015625" lon="20.20280800759792327880859375">
        <ele>1087.5999755859375</ele>
        <time>2026-06-20T12:11:44.000Z</time>
        <extensions>
          <ns3:TrackPointExtension>
            <ns3:atemp>27.0</ns3:atemp>
          </ns3:TrackPointExtension>
        </extensions>
      </trkpt>
      <trkpt lat="42.45009035803377628326416015625" lon="20.20280800759792327880859375">
        <ele>1087.5999755859375</ele>
        <time>2026-06-20T12:11:45.000Z</time>
        <extensions>
          <ns3:TrackPointExtension>
            <ns3:atemp>27.0</ns3:atemp>
          </ns3:TrackPointExtension>
        </extensions>
      </trkpt>
      <trkpt lat="42.45009035803377628326416015625" lon="20.20280800759792327880859375">
        <ele>1087.5999755859375</ele>
        <time>2026-06-20T12:11:46.000Z</time>
        <extensions>
          <ns3:TrackPointExtension>
            <ns3:atemp>27.0</ns3:atemp>
          </ns3:TrackPointExtension>
        </extensions>
      </trkpt>
      <trkpt lat="42.45009035803377628326416015625" lon="20.20280800759792327880859375">
        <ele>1087.5999755859375</ele>
        <time>2026-06-20T12:11:47.000Z</time>
        <extensions>
          <ns3:TrackPointExtension>
            <ns3:atemp>27.0</ns3:atemp>
          </ns3:TrackPointExtension>
        </extensions>
      </trkpt>
      <trkpt lat="42.45009035803377628326416015625" lon="20.20280800759792327880859375">
        <ele>1087.5999755859375</ele>
        <time>2026-06-20T12:11:48.000Z</time>
        <extensions>
          <ns3:TrackPointExtension>
            <ns3:atemp>27.0</ns3:atemp>
          </ns3:TrackPointExtension>
        </extensions>
      </trkpt>
      <trkpt lat="42.45009035803377628326416015625" lon="20.20280800759792327880859375">
        <ele>1087.5999755859375</ele>
        <time>2026-06-20T12:11:49.000Z</time>
        <extensions>
          <ns3:TrackPointExtension>
            <ns3:atemp>27.0</ns3:atemp>
          </ns3:TrackPointExtension>
        </extensions>
      </trkpt>
      <trkpt lat="42.45009035803377628326416015625" lon="20.20280800759792327880859375">
        <ele>1087.5999755859375</ele>
        <time>2026-06-20T12:11:50.000Z</time>
        <extensions>
          <ns3:TrackPointExtension>
            <ns3:atemp>27.0</ns3:atemp>
          </ns3:TrackPointExtension>
        </extensions>
      </trkpt>
      <trkpt lat="42.45009035803377628326416015625" lon="20.20280800759792327880859375">
        <ele>1087.5999755859375</ele>
        <time>2026-06-20T12:11:51.000Z</time>
        <extensions>
          <ns3:TrackPointExtension>
            <ns3:atemp>27.0</ns3:atemp>
          </ns3:TrackPointExtension>
        </extensions>
      </trkpt>
      <trkpt lat="42.45009035803377628326416015625" lon="20.20280800759792327880859375">
        <ele>1087.5999755859375</ele>
        <time>2026-06-20T12:11:52.000Z</time>
        <extensions>
          <ns3:TrackPointExtension>
            <ns3:atemp>27.0</ns3:atemp>
          </ns3:TrackPointExtension>
        </extensions>
      </trkpt>
      <trkpt lat="42.45009035803377628326416015625" lon="20.20280800759792327880859375">
        <ele>1087.5999755859375</ele>
        <time>2026-06-20T12:11:53.000Z</time>
        <extensions>
          <ns3:TrackPointExtension>
            <ns3:atemp>27.0</ns3:atemp>
          </ns3:TrackPointExtension>
        </extensions>
      </trkpt>
      <trkpt lat="42.45009035803377628326416015625" lon="20.20280800759792327880859375">
        <ele>1087.5999755859375</ele>
        <time>2026-06-20T12:11:54.000Z</time>
        <extensions>
          <ns3:TrackPointExtension>
            <ns3:atemp>27.0</ns3:atemp>
          </ns3:TrackPointExtension>
        </extensions>
      </trkpt>
      <trkpt lat="42.45009035803377628326416015625" lon="20.20280800759792327880859375">
        <ele>1087.5999755859375</ele>
        <time>2026-06-20T12:11:55.000Z</time>
        <extensions>
          <ns3:TrackPointExtension>
            <ns3:atemp>27.0</ns3:atemp>
          </ns3:TrackPointExtension>
        </extensions>
      </trkpt>
      <trkpt lat="42.45009035803377628326416015625" lon="20.20280800759792327880859375">
        <ele>1087.5999755859375</ele>
        <time>2026-06-20T12:11:56.000Z</time>
        <extensions>
          <ns3:TrackPointExtension>
            <ns3:atemp>27.0</ns3:atemp>
          </ns3:TrackPointExtension>
        </extensions>
      </trkpt>
      <trkpt lat="42.45009035803377628326416015625" lon="20.20280800759792327880859375">
        <ele>1087.5999755859375</ele>
        <time>2026-06-20T12:11:57.000Z</time>
        <extensions>
          <ns3:TrackPointExtension>
            <ns3:atemp>27.0</ns3:atemp>
          </ns3:TrackPointExtension>
        </extensions>
      </trkpt>
      <trkpt lat="42.45009035803377628326416015625" lon="20.20280800759792327880859375">
        <ele>1087.5999755859375</ele>
        <time>2026-06-20T12:11:58.000Z</time>
        <extensions>
          <ns3:TrackPointExtension>
            <ns3:atemp>27.0</ns3:atemp>
          </ns3:TrackPointExtension>
        </extensions>
      </trkpt>
      <trkpt lat="42.45009035803377628326416015625" lon="20.20280800759792327880859375">
        <ele>1087.5999755859375</ele>
        <time>2026-06-20T12:11:59.000Z</time>
        <extensions>
          <ns3:TrackPointExtension>
            <ns3:atemp>27.0</ns3:atemp>
          </ns3:TrackPointExtension>
        </extensions>
      </trkpt>
      <trkpt lat="42.45009035803377628326416015625" lon="20.20280800759792327880859375">
        <ele>1087.5999755859375</ele>
        <time>2026-06-20T12:12:00.000Z</time>
        <extensions>
          <ns3:TrackPointExtension>
            <ns3:atemp>27.0</ns3:atemp>
          </ns3:TrackPointExtension>
        </extensions>
      </trkpt>
      <trkpt lat="42.45009035803377628326416015625" lon="20.20280800759792327880859375">
        <ele>1087.5999755859375</ele>
        <time>2026-06-20T12:12:01.000Z</time>
        <extensions>
          <ns3:TrackPointExtension>
            <ns3:atemp>27.0</ns3:atemp>
          </ns3:TrackPointExtension>
        </extensions>
      </trkpt>
      <trkpt lat="42.45009035803377628326416015625" lon="20.20280800759792327880859375">
        <ele>1087.5999755859375</ele>
        <time>2026-06-20T12:12:02.000Z</time>
        <extensions>
          <ns3:TrackPointExtension>
            <ns3:atemp>27.0</ns3:atemp>
          </ns3:TrackPointExtension>
        </extensions>
      </trkpt>
      <trkpt lat="42.45009035803377628326416015625" lon="20.20280800759792327880859375">
        <ele>1087.5999755859375</ele>
        <time>2026-06-20T12:12:03.000Z</time>
        <extensions>
          <ns3:TrackPointExtension>
            <ns3:atemp>27.0</ns3:atemp>
          </ns3:TrackPointExtension>
        </extensions>
      </trkpt>
      <trkpt lat="42.45009035803377628326416015625" lon="20.20280800759792327880859375">
        <ele>1087.5999755859375</ele>
        <time>2026-06-20T12:12:04.000Z</time>
        <extensions>
          <ns3:TrackPointExtension>
            <ns3:atemp>27.0</ns3:atemp>
          </ns3:TrackPointExtension>
        </extensions>
      </trkpt>
      <trkpt lat="42.45009035803377628326416015625" lon="20.20280800759792327880859375">
        <ele>1087.5999755859375</ele>
        <time>2026-06-20T12:12:05.000Z</time>
        <extensions>
          <ns3:TrackPointExtension>
            <ns3:atemp>27.0</ns3:atemp>
          </ns3:TrackPointExtension>
        </extensions>
      </trkpt>
      <trkpt lat="42.45009035803377628326416015625" lon="20.20280800759792327880859375">
        <ele>1087.5999755859375</ele>
        <time>2026-06-20T12:12:06.000Z</time>
        <extensions>
          <ns3:TrackPointExtension>
            <ns3:atemp>27.0</ns3:atemp>
          </ns3:TrackPointExtension>
        </extensions>
      </trkpt>
      <trkpt lat="42.45009035803377628326416015625" lon="20.20280800759792327880859375">
        <ele>1087.5999755859375</ele>
        <time>2026-06-20T12:12:07.000Z</time>
        <extensions>
          <ns3:TrackPointExtension>
            <ns3:atemp>27.0</ns3:atemp>
          </ns3:TrackPointExtension>
        </extensions>
      </trkpt>
      <trkpt lat="42.45009035803377628326416015625" lon="20.20280800759792327880859375">
        <ele>1087.5999755859375</ele>
        <time>2026-06-20T12:12:08.000Z</time>
        <extensions>
          <ns3:TrackPointExtension>
            <ns3:atemp>27.0</ns3:atemp>
          </ns3:TrackPointExtension>
        </extensions>
      </trkpt>
      <trkpt lat="42.45009035803377628326416015625" lon="20.20280800759792327880859375">
        <ele>1087.5999755859375</ele>
        <time>2026-06-20T12:12:09.000Z</time>
        <extensions>
          <ns3:TrackPointExtension>
            <ns3:atemp>27.0</ns3:atemp>
          </ns3:TrackPointExtension>
        </extensions>
      </trkpt>
      <trkpt lat="42.45009035803377628326416015625" lon="20.20280800759792327880859375">
        <ele>1087.5999755859375</ele>
        <time>2026-06-20T12:12:10.000Z</time>
        <extensions>
          <ns3:TrackPointExtension>
            <ns3:atemp>27.0</ns3:atemp>
          </ns3:TrackPointExtension>
        </extensions>
      </trkpt>
      <trkpt lat="42.45009035803377628326416015625" lon="20.20280800759792327880859375">
        <ele>1087.5999755859375</ele>
        <time>2026-06-20T12:12:11.000Z</time>
        <extensions>
          <ns3:TrackPointExtension>
            <ns3:atemp>27.0</ns3:atemp>
          </ns3:TrackPointExtension>
        </extensions>
      </trkpt>
      <trkpt lat="42.45009035803377628326416015625" lon="20.20280800759792327880859375">
        <ele>1087.5999755859375</ele>
        <time>2026-06-20T12:12:12.000Z</time>
        <extensions>
          <ns3:TrackPointExtension>
            <ns3:atemp>27.0</ns3:atemp>
          </ns3:TrackPointExtension>
        </extensions>
      </trkpt>
      <trkpt lat="42.45009035803377628326416015625" lon="20.20280800759792327880859375">
        <ele>1087.5999755859375</ele>
        <time>2026-06-20T12:12:13.000Z</time>
        <extensions>
          <ns3:TrackPointExtension>
            <ns3:atemp>27.0</ns3:atemp>
          </ns3:TrackPointExtension>
        </extensions>
      </trkpt>
      <trkpt lat="42.45009035803377628326416015625" lon="20.20280800759792327880859375">
        <ele>1087.5999755859375</ele>
        <time>2026-06-20T12:12:14.000Z</time>
        <extensions>
          <ns3:TrackPointExtension>
            <ns3:atemp>27.0</ns3:atemp>
          </ns3:TrackPointExtension>
        </extensions>
      </trkpt>
      <trkpt lat="42.45009035803377628326416015625" lon="20.20280800759792327880859375">
        <ele>1087.5999755859375</ele>
        <time>2026-06-20T12:12:15.000Z</time>
        <extensions>
          <ns3:TrackPointExtension>
            <ns3:atemp>27.0</ns3:atemp>
          </ns3:TrackPointExtension>
        </extensions>
      </trkpt>
      <trkpt lat="42.45009035803377628326416015625" lon="20.20280800759792327880859375">
        <ele>1087.5999755859375</ele>
        <time>2026-06-20T12:12:16.000Z</time>
        <extensions>
          <ns3:TrackPointExtension>
            <ns3:atemp>27.0</ns3:atemp>
          </ns3:TrackPointExtension>
        </extensions>
      </trkpt>
      <trkpt lat="42.45009035803377628326416015625" lon="20.20280800759792327880859375">
        <ele>1087.5999755859375</ele>
        <time>2026-06-20T12:12:17.000Z</time>
        <extensions>
          <ns3:TrackPointExtension>
            <ns3:atemp>27.0</ns3:atemp>
          </ns3:TrackPointExtension>
        </extensions>
      </trkpt>
      <trkpt lat="42.45009035803377628326416015625" lon="20.20280800759792327880859375">
        <ele>1087.5999755859375</ele>
        <time>2026-06-20T12:12:18.000Z</time>
        <extensions>
          <ns3:TrackPointExtension>
            <ns3:atemp>27.0</ns3:atemp>
          </ns3:TrackPointExtension>
        </extensions>
      </trkpt>
      <trkpt lat="42.45009035803377628326416015625" lon="20.20280800759792327880859375">
        <ele>1087.5999755859375</ele>
        <time>2026-06-20T12:12:19.000Z</time>
        <extensions>
          <ns3:TrackPointExtension>
            <ns3:atemp>27.0</ns3:atemp>
          </ns3:TrackPointExtension>
        </extensions>
      </trkpt>
      <trkpt lat="42.45009035803377628326416015625" lon="20.20280800759792327880859375">
        <ele>1087.5999755859375</ele>
        <time>2026-06-20T12:12:20.000Z</time>
        <extensions>
          <ns3:TrackPointExtension>
            <ns3:atemp>27.0</ns3:atemp>
          </ns3:TrackPointExtension>
        </extensions>
      </trkpt>
      <trkpt lat="42.45009035803377628326416015625" lon="20.20280800759792327880859375">
        <ele>1087.5999755859375</ele>
        <time>2026-06-20T12:12:21.000Z</time>
        <extensions>
          <ns3:TrackPointExtension>
            <ns3:atemp>27.0</ns3:atemp>
          </ns3:TrackPointExtension>
        </extensions>
      </trkpt>
      <trkpt lat="42.45009035803377628326416015625" lon="20.20280800759792327880859375">
        <ele>1087.5999755859375</ele>
        <time>2026-06-20T12:12:22.000Z</time>
        <extensions>
          <ns3:TrackPointExtension>
            <ns3:atemp>27.0</ns3:atemp>
          </ns3:TrackPointExtension>
        </extensions>
      </trkpt>
      <trkpt lat="42.45009035803377628326416015625" lon="20.20280800759792327880859375">
        <ele>1087.5999755859375</ele>
        <time>2026-06-20T12:12:23.000Z</time>
        <extensions>
          <ns3:TrackPointExtension>
            <ns3:atemp>27.0</ns3:atemp>
          </ns3:TrackPointExtension>
        </extensions>
      </trkpt>
      <trkpt lat="42.45009035803377628326416015625" lon="20.20280800759792327880859375">
        <ele>1087.5999755859375</ele>
        <time>2026-06-20T12:12:24.000Z</time>
        <extensions>
          <ns3:TrackPointExtension>
            <ns3:atemp>27.0</ns3:atemp>
          </ns3:TrackPointExtension>
        </extensions>
      </trkpt>
      <trkpt lat="42.45009035803377628326416015625" lon="20.20280800759792327880859375">
        <ele>1087.5999755859375</ele>
        <time>2026-06-20T12:12:25.000Z</time>
        <extensions>
          <ns3:TrackPointExtension>
            <ns3:atemp>27.0</ns3:atemp>
          </ns3:TrackPointExtension>
        </extensions>
      </trkpt>
      <trkpt lat="42.45009035803377628326416015625" lon="20.20280800759792327880859375">
        <ele>1087.5999755859375</ele>
        <time>2026-06-20T12:12:26.000Z</time>
        <extensions>
          <ns3:TrackPointExtension>
            <ns3:atemp>27.0</ns3:atemp>
          </ns3:TrackPointExtension>
        </extensions>
      </trkpt>
      <trkpt lat="42.45009035803377628326416015625" lon="20.20280800759792327880859375">
        <ele>1087.5999755859375</ele>
        <time>2026-06-20T12:12:27.000Z</time>
        <extensions>
          <ns3:TrackPointExtension>
            <ns3:atemp>27.0</ns3:atemp>
          </ns3:TrackPointExtension>
        </extensions>
      </trkpt>
      <trkpt lat="42.45009035803377628326416015625" lon="20.20280800759792327880859375">
        <ele>1087.5999755859375</ele>
        <time>2026-06-20T12:12:28.000Z</time>
        <extensions>
          <ns3:TrackPointExtension>
            <ns3:atemp>27.0</ns3:atemp>
          </ns3:TrackPointExtension>
        </extensions>
      </trkpt>
      <trkpt lat="42.45009035803377628326416015625" lon="20.20280800759792327880859375">
        <ele>1087.5999755859375</ele>
        <time>2026-06-20T12:12:29.000Z</time>
        <extensions>
          <ns3:TrackPointExtension>
            <ns3:atemp>27.0</ns3:atemp>
          </ns3:TrackPointExtension>
        </extensions>
      </trkpt>
      <trkpt lat="42.45009035803377628326416015625" lon="20.20280800759792327880859375">
        <ele>1087.5999755859375</ele>
        <time>2026-06-20T12:12:30.000Z</time>
        <extensions>
          <ns3:TrackPointExtension>
            <ns3:atemp>27.0</ns3:atemp>
          </ns3:TrackPointExtension>
        </extensions>
      </trkpt>
      <trkpt lat="42.45009035803377628326416015625" lon="20.20280800759792327880859375">
        <ele>1087.5999755859375</ele>
        <time>2026-06-20T12:12:31.000Z</time>
        <extensions>
          <ns3:TrackPointExtension>
            <ns3:atemp>27.0</ns3:atemp>
          </ns3:TrackPointExtension>
        </extensions>
      </trkpt>
      <trkpt lat="42.45009035803377628326416015625" lon="20.20280800759792327880859375">
        <ele>1087.5999755859375</ele>
        <time>2026-06-20T12:12:32.000Z</time>
        <extensions>
          <ns3:TrackPointExtension>
            <ns3:atemp>27.0</ns3:atemp>
          </ns3:TrackPointExtension>
        </extensions>
      </trkpt>
      <trkpt lat="42.45009035803377628326416015625" lon="20.20280800759792327880859375">
        <ele>1087.5999755859375</ele>
        <time>2026-06-20T12:12:33.000Z</time>
        <extensions>
          <ns3:TrackPointExtension>
            <ns3:atemp>27.0</ns3:atemp>
          </ns3:TrackPointExtension>
        </extensions>
      </trkpt>
      <trkpt lat="42.45009035803377628326416015625" lon="20.20280800759792327880859375">
        <ele>1087.5999755859375</ele>
        <time>2026-06-20T12:12:34.000Z</time>
        <extensions>
          <ns3:TrackPointExtension>
            <ns3:atemp>27.0</ns3:atemp>
          </ns3:TrackPointExtension>
        </extensions>
      </trkpt>
      <trkpt lat="42.45009035803377628326416015625" lon="20.20280800759792327880859375">
        <ele>1087.5999755859375</ele>
        <time>2026-06-20T12:12:35.000Z</time>
        <extensions>
          <ns3:TrackPointExtension>
            <ns3:atemp>27.0</ns3:atemp>
          </ns3:TrackPointExtension>
        </extensions>
      </trkpt>
      <trkpt lat="42.45009035803377628326416015625" lon="20.20280800759792327880859375">
        <ele>1087.5999755859375</ele>
        <time>2026-06-20T12:12:36.000Z</time>
        <extensions>
          <ns3:TrackPointExtension>
            <ns3:atemp>27.0</ns3:atemp>
          </ns3:TrackPointExtension>
        </extensions>
      </trkpt>
      <trkpt lat="42.45009035803377628326416015625" lon="20.20280800759792327880859375">
        <ele>1087.5999755859375</ele>
        <time>2026-06-20T12:12:37.000Z</time>
        <extensions>
          <ns3:TrackPointExtension>
            <ns3:atemp>27.0</ns3:atemp>
          </ns3:TrackPointExtension>
        </extensions>
      </trkpt>
      <trkpt lat="42.45009035803377628326416015625" lon="20.20280800759792327880859375">
        <ele>1087.5999755859375</ele>
        <time>2026-06-20T12:12:38.000Z</time>
        <extensions>
          <ns3:TrackPointExtension>
            <ns3:atemp>27.0</ns3:atemp>
          </ns3:TrackPointExtension>
        </extensions>
      </trkpt>
      <trkpt lat="42.45009035803377628326416015625" lon="20.20280800759792327880859375">
        <ele>1087.5999755859375</ele>
        <time>2026-06-20T12:12:39.000Z</time>
        <extensions>
          <ns3:TrackPointExtension>
            <ns3:atemp>27.0</ns3:atemp>
          </ns3:TrackPointExtension>
        </extensions>
      </trkpt>
      <trkpt lat="42.45009035803377628326416015625" lon="20.20280800759792327880859375">
        <ele>1087.5999755859375</ele>
        <time>2026-06-20T12:12:40.000Z</time>
        <extensions>
          <ns3:TrackPointExtension>
            <ns3:atemp>27.0</ns3:atemp>
          </ns3:TrackPointExtension>
        </extensions>
      </trkpt>
      <trkpt lat="42.45009035803377628326416015625" lon="20.20280800759792327880859375">
        <ele>1087.5999755859375</ele>
        <time>2026-06-20T12:12:41.000Z</time>
        <extensions>
          <ns3:TrackPointExtension>
            <ns3:atemp>27.0</ns3:atemp>
          </ns3:TrackPointExtension>
        </extensions>
      </trkpt>
      <trkpt lat="42.45009035803377628326416015625" lon="20.20280800759792327880859375">
        <ele>1087.5999755859375</ele>
        <time>2026-06-20T12:12:42.000Z</time>
        <extensions>
          <ns3:TrackPointExtension>
            <ns3:atemp>27.0</ns3:atemp>
          </ns3:TrackPointExtension>
        </extensions>
      </trkpt>
      <trkpt lat="42.45009035803377628326416015625" lon="20.20280800759792327880859375">
        <ele>1087.5999755859375</ele>
        <time>2026-06-20T12:12:43.000Z</time>
        <extensions>
          <ns3:TrackPointExtension>
            <ns3:atemp>27.0</ns3:atemp>
          </ns3:TrackPointExtension>
        </extensions>
      </trkpt>
      <trkpt lat="42.45009035803377628326416015625" lon="20.20280800759792327880859375">
        <ele>1087.5999755859375</ele>
        <time>2026-06-20T12:12:44.000Z</time>
        <extensions>
          <ns3:TrackPointExtension>
            <ns3:atemp>27.0</ns3:atemp>
          </ns3:TrackPointExtension>
        </extensions>
      </trkpt>
      <trkpt lat="42.45009035803377628326416015625" lon="20.20280800759792327880859375">
        <ele>1087.5999755859375</ele>
        <time>2026-06-20T12:12:45.000Z</time>
        <extensions>
          <ns3:TrackPointExtension>
            <ns3:atemp>27.0</ns3:atemp>
          </ns3:TrackPointExtension>
        </extensions>
      </trkpt>
      <trkpt lat="42.45009035803377628326416015625" lon="20.20280800759792327880859375">
        <ele>1087.5999755859375</ele>
        <time>2026-06-20T12:12:46.000Z</time>
        <extensions>
          <ns3:TrackPointExtension>
            <ns3:atemp>27.0</ns3:atemp>
          </ns3:TrackPointExtension>
        </extensions>
      </trkpt>
      <trkpt lat="42.45009035803377628326416015625" lon="20.20280800759792327880859375">
        <ele>1087.5999755859375</ele>
        <time>2026-06-20T12:12:47.000Z</time>
        <extensions>
          <ns3:TrackPointExtension>
            <ns3:atemp>27.0</ns3:atemp>
          </ns3:TrackPointExtension>
        </extensions>
      </trkpt>
      <trkpt lat="42.45009035803377628326416015625" lon="20.20280800759792327880859375">
        <ele>1087.5999755859375</ele>
        <time>2026-06-20T12:12:48.000Z</time>
        <extensions>
          <ns3:TrackPointExtension>
            <ns3:atemp>27.0</ns3:atemp>
          </ns3:TrackPointExtension>
        </extensions>
      </trkpt>
      <trkpt lat="42.45009035803377628326416015625" lon="20.20280800759792327880859375">
        <ele>1087.5999755859375</ele>
        <time>2026-06-20T12:12:49.000Z</time>
        <extensions>
          <ns3:TrackPointExtension>
            <ns3:atemp>27.0</ns3:atemp>
          </ns3:TrackPointExtension>
        </extensions>
      </trkpt>
      <trkpt lat="42.45009035803377628326416015625" lon="20.20280800759792327880859375">
        <ele>1087.5999755859375</ele>
        <time>2026-06-20T12:12:50.000Z</time>
        <extensions>
          <ns3:TrackPointExtension>
            <ns3:atemp>27.0</ns3:atemp>
          </ns3:TrackPointExtension>
        </extensions>
      </trkpt>
      <trkpt lat="42.45009035803377628326416015625" lon="20.20280800759792327880859375">
        <ele>1087.5999755859375</ele>
        <time>2026-06-20T12:12:51.000Z</time>
        <extensions>
          <ns3:TrackPointExtension>
            <ns3:atemp>27.0</ns3:atemp>
          </ns3:TrackPointExtension>
        </extensions>
      </trkpt>
      <trkpt lat="42.45009035803377628326416015625" lon="20.20280800759792327880859375">
        <ele>1087.5999755859375</ele>
        <time>2026-06-20T12:12:52.000Z</time>
        <extensions>
          <ns3:TrackPointExtension>
            <ns3:atemp>27.0</ns3:atemp>
          </ns3:TrackPointExtension>
        </extensions>
      </trkpt>
      <trkpt lat="42.45009035803377628326416015625" lon="20.20280800759792327880859375">
        <ele>1087.5999755859375</ele>
        <time>2026-06-20T12:12:53.000Z</time>
        <extensions>
          <ns3:TrackPointExtension>
            <ns3:atemp>27.0</ns3:atemp>
          </ns3:TrackPointExtension>
        </extensions>
      </trkpt>
      <trkpt lat="42.45009035803377628326416015625" lon="20.20280800759792327880859375">
        <ele>1087.5999755859375</ele>
        <time>2026-06-20T12:12:54.000Z</time>
        <extensions>
          <ns3:TrackPointExtension>
            <ns3:atemp>27.0</ns3:atemp>
          </ns3:TrackPointExtension>
        </extensions>
      </trkpt>
      <trkpt lat="42.45009035803377628326416015625" lon="20.20280800759792327880859375">
        <ele>1087.5999755859375</ele>
        <time>2026-06-20T12:12:55.000Z</time>
        <extensions>
          <ns3:TrackPointExtension>
            <ns3:atemp>27.0</ns3:atemp>
          </ns3:TrackPointExtension>
        </extensions>
      </trkpt>
      <trkpt lat="42.45009035803377628326416015625" lon="20.20280800759792327880859375">
        <ele>1087.5999755859375</ele>
        <time>2026-06-20T12:12:56.000Z</time>
        <extensions>
          <ns3:TrackPointExtension>
            <ns3:atemp>27.0</ns3:atemp>
          </ns3:TrackPointExtension>
        </extensions>
      </trkpt>
      <trkpt lat="42.45009035803377628326416015625" lon="20.20280800759792327880859375">
        <ele>1087.5999755859375</ele>
        <time>2026-06-20T12:12:57.000Z</time>
        <extensions>
          <ns3:TrackPointExtension>
            <ns3:atemp>27.0</ns3:atemp>
          </ns3:TrackPointExtension>
        </extensions>
      </trkpt>
      <trkpt lat="42.45009035803377628326416015625" lon="20.20280800759792327880859375">
        <ele>1087.5999755859375</ele>
        <time>2026-06-20T12:12:58.000Z</time>
        <extensions>
          <ns3:TrackPointExtension>
            <ns3:atemp>27.0</ns3:atemp>
          </ns3:TrackPointExtension>
        </extensions>
      </trkpt>
      <trkpt lat="42.45009035803377628326416015625" lon="20.20280800759792327880859375">
        <ele>1087.5999755859375</ele>
        <time>2026-06-20T12:12:59.000Z</time>
        <extensions>
          <ns3:TrackPointExtension>
            <ns3:atemp>27.0</ns3:atemp>
          </ns3:TrackPointExtension>
        </extensions>
      </trkpt>
      <trkpt lat="42.45009035803377628326416015625" lon="20.20280800759792327880859375">
        <ele>1087.5999755859375</ele>
        <time>2026-06-20T12:13:00.000Z</time>
        <extensions>
          <ns3:TrackPointExtension>
            <ns3:atemp>27.0</ns3:atemp>
          </ns3:TrackPointExtension>
        </extensions>
      </trkpt>
      <trkpt lat="42.45009035803377628326416015625" lon="20.20280800759792327880859375">
        <ele>1087.5999755859375</ele>
        <time>2026-06-20T12:13:01.000Z</time>
        <extensions>
          <ns3:TrackPointExtension>
            <ns3:atemp>27.0</ns3:atemp>
          </ns3:TrackPointExtension>
        </extensions>
      </trkpt>
      <trkpt lat="42.45009035803377628326416015625" lon="20.20280800759792327880859375">
        <ele>1087.5999755859375</ele>
        <time>2026-06-20T12:13:02.000Z</time>
        <extensions>
          <ns3:TrackPointExtension>
            <ns3:atemp>27.0</ns3:atemp>
          </ns3:TrackPointExtension>
        </extensions>
      </trkpt>
      <trkpt lat="42.45009035803377628326416015625" lon="20.20280800759792327880859375">
        <ele>1087.5999755859375</ele>
        <time>2026-06-20T12:13:03.000Z</time>
        <extensions>
          <ns3:TrackPointExtension>
            <ns3:atemp>27.0</ns3:atemp>
          </ns3:TrackPointExtension>
        </extensions>
      </trkpt>
      <trkpt lat="42.45009035803377628326416015625" lon="20.20280800759792327880859375">
        <ele>1087.5999755859375</ele>
        <time>2026-06-20T12:13:04.000Z</time>
        <extensions>
          <ns3:TrackPointExtension>
            <ns3:atemp>27.0</ns3:atemp>
          </ns3:TrackPointExtension>
        </extensions>
      </trkpt>
      <trkpt lat="42.45009035803377628326416015625" lon="20.20280800759792327880859375">
        <ele>1087.5999755859375</ele>
        <time>2026-06-20T12:13:05.000Z</time>
        <extensions>
          <ns3:TrackPointExtension>
            <ns3:atemp>27.0</ns3:atemp>
          </ns3:TrackPointExtension>
        </extensions>
      </trkpt>
      <trkpt lat="42.45009035803377628326416015625" lon="20.20280800759792327880859375">
        <ele>1087.5999755859375</ele>
        <time>2026-06-20T12:13:06.000Z</time>
        <extensions>
          <ns3:TrackPointExtension>
            <ns3:atemp>27.0</ns3:atemp>
          </ns3:TrackPointExtension>
        </extensions>
      </trkpt>
      <trkpt lat="42.45009035803377628326416015625" lon="20.20280800759792327880859375">
        <ele>1087.5999755859375</ele>
        <time>2026-06-20T12:13:07.000Z</time>
        <extensions>
          <ns3:TrackPointExtension>
            <ns3:atemp>27.0</ns3:atemp>
          </ns3:TrackPointExtension>
        </extensions>
      </trkpt>
      <trkpt lat="42.45009035803377628326416015625" lon="20.20280800759792327880859375">
        <ele>1087.5999755859375</ele>
        <time>2026-06-20T12:13:08.000Z</time>
        <extensions>
          <ns3:TrackPointExtension>
            <ns3:atemp>27.0</ns3:atemp>
          </ns3:TrackPointExtension>
        </extensions>
      </trkpt>
      <trkpt lat="42.45009035803377628326416015625" lon="20.20280800759792327880859375">
        <ele>1087.5999755859375</ele>
        <time>2026-06-20T12:13:09.000Z</time>
        <extensions>
          <ns3:TrackPointExtension>
            <ns3:atemp>27.0</ns3:atemp>
          </ns3:TrackPointExtension>
        </extensions>
      </trkpt>
      <trkpt lat="42.45009035803377628326416015625" lon="20.20280800759792327880859375">
        <ele>1087.5999755859375</ele>
        <time>2026-06-20T12:13:10.000Z</time>
        <extensions>
          <ns3:TrackPointExtension>
            <ns3:atemp>27.0</ns3:atemp>
          </ns3:TrackPointExtension>
        </extensions>
      </trkpt>
      <trkpt lat="42.45009035803377628326416015625" lon="20.20280800759792327880859375">
        <ele>1087.5999755859375</ele>
        <time>2026-06-20T12:13:11.000Z</time>
        <extensions>
          <ns3:TrackPointExtension>
            <ns3:atemp>27.0</ns3:atemp>
          </ns3:TrackPointExtension>
        </extensions>
      </trkpt>
      <trkpt lat="42.45009035803377628326416015625" lon="20.20280800759792327880859375">
        <ele>1087.5999755859375</ele>
        <time>2026-06-20T12:13:12.000Z</time>
        <extensions>
          <ns3:TrackPointExtension>
            <ns3:atemp>27.0</ns3:atemp>
          </ns3:TrackPointExtension>
        </extensions>
      </trkpt>
      <trkpt lat="42.45009035803377628326416015625" lon="20.20280800759792327880859375">
        <ele>1087.5999755859375</ele>
        <time>2026-06-20T12:13:13.000Z</time>
        <extensions>
          <ns3:TrackPointExtension>
            <ns3:atemp>27.0</ns3:atemp>
          </ns3:TrackPointExtension>
        </extensions>
      </trkpt>
      <trkpt lat="42.45009035803377628326416015625" lon="20.20280800759792327880859375">
        <ele>1087.5999755859375</ele>
        <time>2026-06-20T12:13:14.000Z</time>
        <extensions>
          <ns3:TrackPointExtension>
            <ns3:atemp>27.0</ns3:atemp>
          </ns3:TrackPointExtension>
        </extensions>
      </trkpt>
      <trkpt lat="42.45009035803377628326416015625" lon="20.20280800759792327880859375">
        <ele>1087.5999755859375</ele>
        <time>2026-06-20T12:13:15.000Z</time>
        <extensions>
          <ns3:TrackPointExtension>
            <ns3:atemp>27.0</ns3:atemp>
          </ns3:TrackPointExtension>
        </extensions>
      </trkpt>
      <trkpt lat="42.45009035803377628326416015625" lon="20.20280800759792327880859375">
        <ele>1087.5999755859375</ele>
        <time>2026-06-20T12:13:16.000Z</time>
        <extensions>
          <ns3:TrackPointExtension>
            <ns3:atemp>27.0</ns3:atemp>
          </ns3:TrackPointExtension>
        </extensions>
      </trkpt>
      <trkpt lat="42.45009035803377628326416015625" lon="20.20280800759792327880859375">
        <ele>1087.5999755859375</ele>
        <time>2026-06-20T12:13:17.000Z</time>
        <extensions>
          <ns3:TrackPointExtension>
            <ns3:atemp>27.0</ns3:atemp>
          </ns3:TrackPointExtension>
        </extensions>
      </trkpt>
      <trkpt lat="42.45009035803377628326416015625" lon="20.20280800759792327880859375">
        <ele>1087.5999755859375</ele>
        <time>2026-06-20T12:13:18.000Z</time>
        <extensions>
          <ns3:TrackPointExtension>
            <ns3:atemp>27.0</ns3:atemp>
          </ns3:TrackPointExtension>
        </extensions>
      </trkpt>
      <trkpt lat="42.45009035803377628326416015625" lon="20.20280800759792327880859375">
        <ele>1087.5999755859375</ele>
        <time>2026-06-20T12:13:19.000Z</time>
        <extensions>
          <ns3:TrackPointExtension>
            <ns3:atemp>27.0</ns3:atemp>
          </ns3:TrackPointExtension>
        </extensions>
      </trkpt>
      <trkpt lat="42.45009035803377628326416015625" lon="20.20280800759792327880859375">
        <ele>1087.5999755859375</ele>
        <time>2026-06-20T12:13:20.000Z</time>
        <extensions>
          <ns3:TrackPointExtension>
            <ns3:atemp>27.0</ns3:atemp>
          </ns3:TrackPointExtension>
        </extensions>
      </trkpt>
      <trkpt lat="42.45009035803377628326416015625" lon="20.20280800759792327880859375">
        <ele>1087.5999755859375</ele>
        <time>2026-06-20T12:13:21.000Z</time>
        <extensions>
          <ns3:TrackPointExtension>
            <ns3:atemp>27.0</ns3:atemp>
          </ns3:TrackPointExtension>
        </extensions>
      </trkpt>
      <trkpt lat="42.45009035803377628326416015625" lon="20.20280800759792327880859375">
        <ele>1087.5999755859375</ele>
        <time>2026-06-20T12:13:22.000Z</time>
        <extensions>
          <ns3:TrackPointExtension>
            <ns3:atemp>27.0</ns3:atemp>
          </ns3:TrackPointExtension>
        </extensions>
      </trkpt>
      <trkpt lat="42.45009035803377628326416015625" lon="20.20280800759792327880859375">
        <ele>1087.5999755859375</ele>
        <time>2026-06-20T12:13:23.000Z</time>
        <extensions>
          <ns3:TrackPointExtension>
            <ns3:atemp>27.0</ns3:atemp>
          </ns3:TrackPointExtension>
        </extensions>
      </trkpt>
      <trkpt lat="42.45009035803377628326416015625" lon="20.20280800759792327880859375">
        <ele>1087.5999755859375</ele>
        <time>2026-06-20T12:13:24.000Z</time>
        <extensions>
          <ns3:TrackPointExtension>
            <ns3:atemp>27.0</ns3:atemp>
          </ns3:TrackPointExtension>
        </extensions>
      </trkpt>
      <trkpt lat="42.45009035803377628326416015625" lon="20.20280800759792327880859375">
        <ele>1087.5999755859375</ele>
        <time>2026-06-20T12:13:25.000Z</time>
        <extensions>
          <ns3:TrackPointExtension>
            <ns3:atemp>27.0</ns3:atemp>
          </ns3:TrackPointExtension>
        </extensions>
      </trkpt>
      <trkpt lat="42.45009035803377628326416015625" lon="20.20280800759792327880859375">
        <ele>1087.5999755859375</ele>
        <time>2026-06-20T12:13:26.000Z</time>
        <extensions>
          <ns3:TrackPointExtension>
            <ns3:atemp>27.0</ns3:atemp>
          </ns3:TrackPointExtension>
        </extensions>
      </trkpt>
      <trkpt lat="42.45009035803377628326416015625" lon="20.20280800759792327880859375">
        <ele>1087.5999755859375</ele>
        <time>2026-06-20T12:13:27.000Z</time>
        <extensions>
          <ns3:TrackPointExtension>
            <ns3:atemp>27.0</ns3:atemp>
          </ns3:TrackPointExtension>
        </extensions>
      </trkpt>
      <trkpt lat="42.45009035803377628326416015625" lon="20.20280800759792327880859375">
        <ele>1087.5999755859375</ele>
        <time>2026-06-20T12:13:28.000Z</time>
        <extensions>
          <ns3:TrackPointExtension>
            <ns3:atemp>27.0</ns3:atemp>
          </ns3:TrackPointExtension>
        </extensions>
      </trkpt>
      <trkpt lat="42.45009035803377628326416015625" lon="20.20280800759792327880859375">
        <ele>1087.5999755859375</ele>
        <time>2026-06-20T12:13:29.000Z</time>
        <extensions>
          <ns3:TrackPointExtension>
            <ns3:atemp>27.0</ns3:atemp>
          </ns3:TrackPointExtension>
        </extensions>
      </trkpt>
      <trkpt lat="42.45009035803377628326416015625" lon="20.20280800759792327880859375">
        <ele>1087.5999755859375</ele>
        <time>2026-06-20T12:13:30.000Z</time>
        <extensions>
          <ns3:TrackPointExtension>
            <ns3:atemp>27.0</ns3:atemp>
          </ns3:TrackPointExtension>
        </extensions>
      </trkpt>
      <trkpt lat="42.45009035803377628326416015625" lon="20.20280800759792327880859375">
        <ele>1087.5999755859375</ele>
        <time>2026-06-20T12:13:31.000Z</time>
        <extensions>
          <ns3:TrackPointExtension>
            <ns3:atemp>27.0</ns3:atemp>
          </ns3:TrackPointExtension>
        </extensions>
      </trkpt>
      <trkpt lat="42.45009035803377628326416015625" lon="20.20280800759792327880859375">
        <ele>1087.5999755859375</ele>
        <time>2026-06-20T12:13:32.000Z</time>
        <extensions>
          <ns3:TrackPointExtension>
            <ns3:atemp>27.0</ns3:atemp>
          </ns3:TrackPointExtension>
        </extensions>
      </trkpt>
      <trkpt lat="42.45009035803377628326416015625" lon="20.20280800759792327880859375">
        <ele>1087.5999755859375</ele>
        <time>2026-06-20T12:13:33.000Z</time>
        <extensions>
          <ns3:TrackPointExtension>
            <ns3:atemp>27.0</ns3:atemp>
          </ns3:TrackPointExtension>
        </extensions>
      </trkpt>
      <trkpt lat="42.45009035803377628326416015625" lon="20.20280800759792327880859375">
        <ele>1087.5999755859375</ele>
        <time>2026-06-20T12:13:34.000Z</time>
        <extensions>
          <ns3:TrackPointExtension>
            <ns3:atemp>27.0</ns3:atemp>
          </ns3:TrackPointExtension>
        </extensions>
      </trkpt>
      <trkpt lat="42.45009035803377628326416015625" lon="20.20280800759792327880859375">
        <ele>1087.5999755859375</ele>
        <time>2026-06-20T12:13:35.000Z</time>
        <extensions>
          <ns3:TrackPointExtension>
            <ns3:atemp>27.0</ns3:atemp>
          </ns3:TrackPointExtension>
        </extensions>
      </trkpt>
      <trkpt lat="42.45009035803377628326416015625" lon="20.20280800759792327880859375">
        <ele>1087.5999755859375</ele>
        <time>2026-06-20T12:13:36.000Z</time>
        <extensions>
          <ns3:TrackPointExtension>
            <ns3:atemp>27.0</ns3:atemp>
          </ns3:TrackPointExtension>
        </extensions>
      </trkpt>
      <trkpt lat="42.45009035803377628326416015625" lon="20.20280800759792327880859375">
        <ele>1087.5999755859375</ele>
        <time>2026-06-20T12:13:37.000Z</time>
        <extensions>
          <ns3:TrackPointExtension>
            <ns3:atemp>27.0</ns3:atemp>
          </ns3:TrackPointExtension>
        </extensions>
      </trkpt>
      <trkpt lat="42.45009035803377628326416015625" lon="20.20280800759792327880859375">
        <ele>1087.5999755859375</ele>
        <time>2026-06-20T12:13:38.000Z</time>
        <extensions>
          <ns3:TrackPointExtension>
            <ns3:atemp>27.0</ns3:atemp>
          </ns3:TrackPointExtension>
        </extensions>
      </trkpt>
      <trkpt lat="42.45009035803377628326416015625" lon="20.20280800759792327880859375">
        <ele>1087.5999755859375</ele>
        <time>2026-06-20T12:13:39.000Z</time>
        <extensions>
          <ns3:TrackPointExtension>
            <ns3:atemp>27.0</ns3:atemp>
          </ns3:TrackPointExtension>
        </extensions>
      </trkpt>
      <trkpt lat="42.45009035803377628326416015625" lon="20.20280800759792327880859375">
        <ele>1087.5999755859375</ele>
        <time>2026-06-20T12:13:40.000Z</time>
        <extensions>
          <ns3:TrackPointExtension>
            <ns3:atemp>27.0</ns3:atemp>
          </ns3:TrackPointExtension>
        </extensions>
      </trkpt>
      <trkpt lat="42.45009035803377628326416015625" lon="20.20280800759792327880859375">
        <ele>1087.5999755859375</ele>
        <time>2026-06-20T12:13:41.000Z</time>
        <extensions>
          <ns3:TrackPointExtension>
            <ns3:atemp>27.0</ns3:atemp>
          </ns3:TrackPointExtension>
        </extensions>
      </trkpt>
      <trkpt lat="42.45009035803377628326416015625" lon="20.20280800759792327880859375">
        <ele>1087.5999755859375</ele>
        <time>2026-06-20T12:13:42.000Z</time>
        <extensions>
          <ns3:TrackPointExtension>
            <ns3:atemp>27.0</ns3:atemp>
          </ns3:TrackPointExtension>
        </extensions>
      </trkpt>
      <trkpt lat="42.45009035803377628326416015625" lon="20.20280800759792327880859375">
        <ele>1087.5999755859375</ele>
        <time>2026-06-20T12:13:43.000Z</time>
        <extensions>
          <ns3:TrackPointExtension>
            <ns3:atemp>27.0</ns3:atemp>
          </ns3:TrackPointExtension>
        </extensions>
      </trkpt>
      <trkpt lat="42.45009035803377628326416015625" lon="20.20280800759792327880859375">
        <ele>1087.5999755859375</ele>
        <time>2026-06-20T12:13:44.000Z</time>
        <extensions>
          <ns3:TrackPointExtension>
            <ns3:atemp>27.0</ns3:atemp>
          </ns3:TrackPointExtension>
        </extensions>
      </trkpt>
      <trkpt lat="42.45009035803377628326416015625" lon="20.20280800759792327880859375">
        <ele>1087.5999755859375</ele>
        <time>2026-06-20T12:13:45.000Z</time>
        <extensions>
          <ns3:TrackPointExtension>
            <ns3:atemp>27.0</ns3:atemp>
          </ns3:TrackPointExtension>
        </extensions>
      </trkpt>
      <trkpt lat="42.45009035803377628326416015625" lon="20.20280800759792327880859375">
        <ele>1087.5999755859375</ele>
        <time>2026-06-20T12:13:46.000Z</time>
        <extensions>
          <ns3:TrackPointExtension>
            <ns3:atemp>27.0</ns3:atemp>
          </ns3:TrackPointExtension>
        </extensions>
      </trkpt>
      <trkpt lat="42.45009035803377628326416015625" lon="20.20280800759792327880859375">
        <ele>1087.5999755859375</ele>
        <time>2026-06-20T12:13:47.000Z</time>
        <extensions>
          <ns3:TrackPointExtension>
            <ns3:atemp>27.0</ns3:atemp>
          </ns3:TrackPointExtension>
        </extensions>
      </trkpt>
      <trkpt lat="42.45009035803377628326416015625" lon="20.20280800759792327880859375">
        <ele>1087.5999755859375</ele>
        <time>2026-06-20T12:13:48.000Z</time>
        <extensions>
          <ns3:TrackPointExtension>
            <ns3:atemp>27.0</ns3:atemp>
          </ns3:TrackPointExtension>
        </extensions>
      </trkpt>
      <trkpt lat="42.45009035803377628326416015625" lon="20.20280800759792327880859375">
        <ele>1087.5999755859375</ele>
        <time>2026-06-20T12:13:49.000Z</time>
        <extensions>
          <ns3:TrackPointExtension>
            <ns3:atemp>27.0</ns3:atemp>
          </ns3:TrackPointExtension>
        </extensions>
      </trkpt>
      <trkpt lat="42.45009035803377628326416015625" lon="20.20280800759792327880859375">
        <ele>1087.5999755859375</ele>
        <time>2026-06-20T12:13:50.000Z</time>
        <extensions>
          <ns3:TrackPointExtension>
            <ns3:atemp>27.0</ns3:atemp>
          </ns3:TrackPointExtension>
        </extensions>
      </trkpt>
      <trkpt lat="42.45009035803377628326416015625" lon="20.20280800759792327880859375">
        <ele>1087.5999755859375</ele>
        <time>2026-06-20T12:13:51.000Z</time>
        <extensions>
          <ns3:TrackPointExtension>
            <ns3:atemp>27.0</ns3:atemp>
          </ns3:TrackPointExtension>
        </extensions>
      </trkpt>
      <trkpt lat="42.45009035803377628326416015625" lon="20.20280800759792327880859375">
        <ele>1087.5999755859375</ele>
        <time>2026-06-20T12:13:52.000Z</time>
        <extensions>
          <ns3:TrackPointExtension>
            <ns3:atemp>27.0</ns3:atemp>
          </ns3:TrackPointExtension>
        </extensions>
      </trkpt>
      <trkpt lat="42.45009035803377628326416015625" lon="20.20280800759792327880859375">
        <ele>1087.5999755859375</ele>
        <time>2026-06-20T12:13:53.000Z</time>
        <extensions>
          <ns3:TrackPointExtension>
            <ns3:atemp>27.0</ns3:atemp>
          </ns3:TrackPointExtension>
        </extensions>
      </trkpt>
      <trkpt lat="42.45009035803377628326416015625" lon="20.20280800759792327880859375">
        <ele>1087.5999755859375</ele>
        <time>2026-06-20T12:13:54.000Z</time>
        <extensions>
          <ns3:TrackPointExtension>
            <ns3:atemp>27.0</ns3:atemp>
          </ns3:TrackPointExtension>
        </extensions>
      </trkpt>
      <trkpt lat="42.45009035803377628326416015625" lon="20.20280800759792327880859375">
        <ele>1087.5999755859375</ele>
        <time>2026-06-20T12:13:55.000Z</time>
        <extensions>
          <ns3:TrackPointExtension>
            <ns3:atemp>27.0</ns3:atemp>
          </ns3:TrackPointExtension>
        </extensions>
      </trkpt>
      <trkpt lat="42.45009035803377628326416015625" lon="20.20280800759792327880859375">
        <ele>1087.5999755859375</ele>
        <time>2026-06-20T12:13:56.000Z</time>
        <extensions>
          <ns3:TrackPointExtension>
            <ns3:atemp>27.0</ns3:atemp>
          </ns3:TrackPointExtension>
        </extensions>
      </trkpt>
      <trkpt lat="42.45009035803377628326416015625" lon="20.20280800759792327880859375">
        <ele>1087.5999755859375</ele>
        <time>2026-06-20T12:13:57.000Z</time>
        <extensions>
          <ns3:TrackPointExtension>
            <ns3:atemp>27.0</ns3:atemp>
          </ns3:TrackPointExtension>
        </extensions>
      </trkpt>
      <trkpt lat="42.45009035803377628326416015625" lon="20.20280800759792327880859375">
        <ele>1087.5999755859375</ele>
        <time>2026-06-20T12:13:58.000Z</time>
        <extensions>
          <ns3:TrackPointExtension>
            <ns3:atemp>27.0</ns3:atemp>
          </ns3:TrackPointExtension>
        </extensions>
      </trkpt>
      <trkpt lat="42.45009035803377628326416015625" lon="20.20280800759792327880859375">
        <ele>1087.5999755859375</ele>
        <time>2026-06-20T12:13:59.000Z</time>
        <extensions>
          <ns3:TrackPointExtension>
            <ns3:atemp>27.0</ns3:atemp>
          </ns3:TrackPointExtension>
        </extensions>
      </trkpt>
      <trkpt lat="42.45009035803377628326416015625" lon="20.20280800759792327880859375">
        <ele>1087.5999755859375</ele>
        <time>2026-06-20T12:14:00.000Z</time>
        <extensions>
          <ns3:TrackPointExtension>
            <ns3:atemp>27.0</ns3:atemp>
          </ns3:TrackPointExtension>
        </extensions>
      </trkpt>
      <trkpt lat="42.45009035803377628326416015625" lon="20.20280800759792327880859375">
        <ele>1087.5999755859375</ele>
        <time>2026-06-20T12:14:01.000Z</time>
        <extensions>
          <ns3:TrackPointExtension>
            <ns3:atemp>27.0</ns3:atemp>
          </ns3:TrackPointExtension>
        </extensions>
      </trkpt>
      <trkpt lat="42.45009035803377628326416015625" lon="20.20280800759792327880859375">
        <ele>1087.5999755859375</ele>
        <time>2026-06-20T12:14:02.000Z</time>
        <extensions>
          <ns3:TrackPointExtension>
            <ns3:atemp>27.0</ns3:atemp>
          </ns3:TrackPointExtension>
        </extensions>
      </trkpt>
      <trkpt lat="42.45009035803377628326416015625" lon="20.20280800759792327880859375">
        <ele>1087.5999755859375</ele>
        <time>2026-06-20T12:14:03.000Z</time>
        <extensions>
          <ns3:TrackPointExtension>
            <ns3:atemp>27.0</ns3:atemp>
          </ns3:TrackPointExtension>
        </extensions>
      </trkpt>
      <trkpt lat="42.45009035803377628326416015625" lon="20.20280800759792327880859375">
        <ele>1087.5999755859375</ele>
        <time>2026-06-20T12:14:04.000Z</time>
        <extensions>
          <ns3:TrackPointExtension>
            <ns3:atemp>27.0</ns3:atemp>
          </ns3:TrackPointExtension>
        </extensions>
      </trkpt>
      <trkpt lat="42.45009035803377628326416015625" lon="20.20280800759792327880859375">
        <ele>1087.5999755859375</ele>
        <time>2026-06-20T12:14:05.000Z</time>
        <extensions>
          <ns3:TrackPointExtension>
            <ns3:atemp>27.0</ns3:atemp>
          </ns3:TrackPointExtension>
        </extensions>
      </trkpt>
      <trkpt lat="42.45009035803377628326416015625" lon="20.20280800759792327880859375">
        <ele>1087.5999755859375</ele>
        <time>2026-06-20T12:14:06.000Z</time>
        <extensions>
          <ns3:TrackPointExtension>
            <ns3:atemp>27.0</ns3:atemp>
          </ns3:TrackPointExtension>
        </extensions>
      </trkpt>
      <trkpt lat="42.45009035803377628326416015625" lon="20.20280800759792327880859375">
        <ele>1087.5999755859375</ele>
        <time>2026-06-20T12:14:07.000Z</time>
        <extensions>
          <ns3:TrackPointExtension>
            <ns3:atemp>27.0</ns3:atemp>
          </ns3:TrackPointExtension>
        </extensions>
      </trkpt>
      <trkpt lat="42.45009035803377628326416015625" lon="20.20280800759792327880859375">
        <ele>1087.5999755859375</ele>
        <time>2026-06-20T12:14:08.000Z</time>
        <extensions>
          <ns3:TrackPointExtension>
            <ns3:atemp>27.0</ns3:atemp>
          </ns3:TrackPointExtension>
        </extensions>
      </trkpt>
      <trkpt lat="42.45009035803377628326416015625" lon="20.20280800759792327880859375">
        <ele>1087.5999755859375</ele>
        <time>2026-06-20T12:14:09.000Z</time>
        <extensions>
          <ns3:TrackPointExtension>
            <ns3:atemp>27.0</ns3:atemp>
          </ns3:TrackPointExtension>
        </extensions>
      </trkpt>
      <trkpt lat="42.45009035803377628326416015625" lon="20.20280800759792327880859375">
        <ele>1087.5999755859375</ele>
        <time>2026-06-20T12:14:10.000Z</time>
        <extensions>
          <ns3:TrackPointExtension>
            <ns3:atemp>27.0</ns3:atemp>
          </ns3:TrackPointExtension>
        </extensions>
      </trkpt>
      <trkpt lat="42.45009035803377628326416015625" lon="20.20280800759792327880859375">
        <ele>1087.5999755859375</ele>
        <time>2026-06-20T12:14:11.000Z</time>
        <extensions>
          <ns3:TrackPointExtension>
            <ns3:atemp>27.0</ns3:atemp>
          </ns3:TrackPointExtension>
        </extensions>
      </trkpt>
      <trkpt lat="42.45009035803377628326416015625" lon="20.20280800759792327880859375">
        <ele>1087.5999755859375</ele>
        <time>2026-06-20T12:14:12.000Z</time>
        <extensions>
          <ns3:TrackPointExtension>
            <ns3:atemp>27.0</ns3:atemp>
          </ns3:TrackPointExtension>
        </extensions>
      </trkpt>
      <trkpt lat="42.45009035803377628326416015625" lon="20.20280800759792327880859375">
        <ele>1087.5999755859375</ele>
        <time>2026-06-20T12:14:13.000Z</time>
        <extensions>
          <ns3:TrackPointExtension>
            <ns3:atemp>27.0</ns3:atemp>
          </ns3:TrackPointExtension>
        </extensions>
      </trkpt>
      <trkpt lat="42.45009035803377628326416015625" lon="20.20280800759792327880859375">
        <ele>1087.5999755859375</ele>
        <time>2026-06-20T12:14:14.000Z</time>
        <extensions>
          <ns3:TrackPointExtension>
            <ns3:atemp>27.0</ns3:atemp>
          </ns3:TrackPointExtension>
        </extensions>
      </trkpt>
      <trkpt lat="42.45009035803377628326416015625" lon="20.20280800759792327880859375">
        <ele>1087.5999755859375</ele>
        <time>2026-06-20T12:14:15.000Z</time>
        <extensions>
          <ns3:TrackPointExtension>
            <ns3:atemp>27.0</ns3:atemp>
          </ns3:TrackPointExtension>
        </extensions>
      </trkpt>
      <trkpt lat="42.45009035803377628326416015625" lon="20.20280800759792327880859375">
        <ele>1087.5999755859375</ele>
        <time>2026-06-20T12:14:16.000Z</time>
        <extensions>
          <ns3:TrackPointExtension>
            <ns3:atemp>27.0</ns3:atemp>
          </ns3:TrackPointExtension>
        </extensions>
      </trkpt>
      <trkpt lat="42.45009035803377628326416015625" lon="20.20280800759792327880859375">
        <ele>1087.5999755859375</ele>
        <time>2026-06-20T12:14:17.000Z</time>
        <extensions>
          <ns3:TrackPointExtension>
            <ns3:atemp>27.0</ns3:atemp>
          </ns3:TrackPointExtension>
        </extensions>
      </trkpt>
      <trkpt lat="42.45009035803377628326416015625" lon="20.20280800759792327880859375">
        <ele>1087.5999755859375</ele>
        <time>2026-06-20T12:14:18.000Z</time>
        <extensions>
          <ns3:TrackPointExtension>
            <ns3:atemp>27.0</ns3:atemp>
          </ns3:TrackPointExtension>
        </extensions>
      </trkpt>
      <trkpt lat="42.45009035803377628326416015625" lon="20.20280800759792327880859375">
        <ele>1087.5999755859375</ele>
        <time>2026-06-20T12:14:19.000Z</time>
        <extensions>
          <ns3:TrackPointExtension>
            <ns3:atemp>27.0</ns3:atemp>
          </ns3:TrackPointExtension>
        </extensions>
      </trkpt>
      <trkpt lat="42.45009035803377628326416015625" lon="20.20280800759792327880859375">
        <ele>1087.5999755859375</ele>
        <time>2026-06-20T12:14:20.000Z</time>
        <extensions>
          <ns3:TrackPointExtension>
            <ns3:atemp>27.0</ns3:atemp>
          </ns3:TrackPointExtension>
        </extensions>
      </trkpt>
      <trkpt lat="42.45009035803377628326416015625" lon="20.20280800759792327880859375">
        <ele>1087.5999755859375</ele>
        <time>2026-06-20T12:14:21.000Z</time>
        <extensions>
          <ns3:TrackPointExtension>
            <ns3:atemp>27.0</ns3:atemp>
          </ns3:TrackPointExtension>
        </extensions>
      </trkpt>
      <trkpt lat="42.45009035803377628326416015625" lon="20.20280800759792327880859375">
        <ele>1087.5999755859375</ele>
        <time>2026-06-20T12:14:22.000Z</time>
        <extensions>
          <ns3:TrackPointExtension>
            <ns3:atemp>27.0</ns3:atemp>
          </ns3:TrackPointExtension>
        </extensions>
      </trkpt>
      <trkpt lat="42.45009035803377628326416015625" lon="20.20280800759792327880859375">
        <ele>1087.5999755859375</ele>
        <time>2026-06-20T12:14:23.000Z</time>
        <extensions>
          <ns3:TrackPointExtension>
            <ns3:atemp>27.0</ns3:atemp>
          </ns3:TrackPointExtension>
        </extensions>
      </trkpt>
      <trkpt lat="42.45009035803377628326416015625" lon="20.20280800759792327880859375">
        <ele>1087.5999755859375</ele>
        <time>2026-06-20T12:14:24.000Z</time>
        <extensions>
          <ns3:TrackPointExtension>
            <ns3:atemp>27.0</ns3:atemp>
          </ns3:TrackPointExtension>
        </extensions>
      </trkpt>
      <trkpt lat="42.45009035803377628326416015625" lon="20.20280800759792327880859375">
        <ele>1087.5999755859375</ele>
        <time>2026-06-20T12:14:25.000Z</time>
        <extensions>
          <ns3:TrackPointExtension>
            <ns3:atemp>27.0</ns3:atemp>
          </ns3:TrackPointExtension>
        </extensions>
      </trkpt>
      <trkpt lat="42.45009035803377628326416015625" lon="20.20280800759792327880859375">
        <ele>1087.5999755859375</ele>
        <time>2026-06-20T12:14:26.000Z</time>
        <extensions>
          <ns3:TrackPointExtension>
            <ns3:atemp>27.0</ns3:atemp>
          </ns3:TrackPointExtension>
        </extensions>
      </trkpt>
      <trkpt lat="42.45009035803377628326416015625" lon="20.20280800759792327880859375">
        <ele>1087.5999755859375</ele>
        <time>2026-06-20T12:14:27.000Z</time>
        <extensions>
          <ns3:TrackPointExtension>
            <ns3:atemp>27.0</ns3:atemp>
          </ns3:TrackPointExtension>
        </extensions>
      </trkpt>
      <trkpt lat="42.45009035803377628326416015625" lon="20.20280800759792327880859375">
        <ele>1087.5999755859375</ele>
        <time>2026-06-20T12:14:28.000Z</time>
        <extensions>
          <ns3:TrackPointExtension>
            <ns3:atemp>27.0</ns3:atemp>
          </ns3:TrackPointExtension>
        </extensions>
      </trkpt>
      <trkpt lat="42.45009035803377628326416015625" lon="20.20280800759792327880859375">
        <ele>1087.5999755859375</ele>
        <time>2026-06-20T12:14:29.000Z</time>
        <extensions>
          <ns3:TrackPointExtension>
            <ns3:atemp>27.0</ns3:atemp>
          </ns3:TrackPointExtension>
        </extensions>
      </trkpt>
      <trkpt lat="42.45009035803377628326416015625" lon="20.20280800759792327880859375">
        <ele>1087.5999755859375</ele>
        <time>2026-06-20T12:14:30.000Z</time>
        <extensions>
          <ns3:TrackPointExtension>
            <ns3:atemp>27.0</ns3:atemp>
          </ns3:TrackPointExtension>
        </extensions>
      </trkpt>
      <trkpt lat="42.45009035803377628326416015625" lon="20.20280800759792327880859375">
        <ele>1087.5999755859375</ele>
        <time>2026-06-20T12:14:31.000Z</time>
        <extensions>
          <ns3:TrackPointExtension>
            <ns3:atemp>27.0</ns3:atemp>
          </ns3:TrackPointExtension>
        </extensions>
      </trkpt>
      <trkpt lat="42.45009035803377628326416015625" lon="20.20280800759792327880859375">
        <ele>1087.5999755859375</ele>
        <time>2026-06-20T12:14:32.000Z</time>
        <extensions>
          <ns3:TrackPointExtension>
            <ns3:atemp>27.0</ns3:atemp>
          </ns3:TrackPointExtension>
        </extensions>
      </trkpt>
      <trkpt lat="42.45009035803377628326416015625" lon="20.20280800759792327880859375">
        <ele>1087.5999755859375</ele>
        <time>2026-06-20T12:14:33.000Z</time>
        <extensions>
          <ns3:TrackPointExtension>
            <ns3:atemp>27.0</ns3:atemp>
          </ns3:TrackPointExtension>
        </extensions>
      </trkpt>
      <trkpt lat="42.45009035803377628326416015625" lon="20.20280800759792327880859375">
        <ele>1087.5999755859375</ele>
        <time>2026-06-20T12:14:34.000Z</time>
        <extensions>
          <ns3:TrackPointExtension>
            <ns3:atemp>27.0</ns3:atemp>
          </ns3:TrackPointExtension>
        </extensions>
      </trkpt>
      <trkpt lat="42.45009035803377628326416015625" lon="20.20280800759792327880859375">
        <ele>1087.5999755859375</ele>
        <time>2026-06-20T12:14:35.000Z</time>
        <extensions>
          <ns3:TrackPointExtension>
            <ns3:atemp>27.0</ns3:atemp>
          </ns3:TrackPointExtension>
        </extensions>
      </trkpt>
      <trkpt lat="42.45009035803377628326416015625" lon="20.20280800759792327880859375">
        <ele>1087.5999755859375</ele>
        <time>2026-06-20T12:14:36.000Z</time>
        <extensions>
          <ns3:TrackPointExtension>
            <ns3:atemp>27.0</ns3:atemp>
          </ns3:TrackPointExtension>
        </extensions>
      </trkpt>
      <trkpt lat="42.45009035803377628326416015625" lon="20.20280800759792327880859375">
        <ele>1087.5999755859375</ele>
        <time>2026-06-20T12:14:37.000Z</time>
        <extensions>
          <ns3:TrackPointExtension>
            <ns3:atemp>27.0</ns3:atemp>
          </ns3:TrackPointExtension>
        </extensions>
      </trkpt>
      <trkpt lat="42.45009035803377628326416015625" lon="20.20280800759792327880859375">
        <ele>1087.5999755859375</ele>
        <time>2026-06-20T12:14:38.000Z</time>
        <extensions>
          <ns3:TrackPointExtension>
            <ns3:atemp>27.0</ns3:atemp>
          </ns3:TrackPointExtension>
        </extensions>
      </trkpt>
      <trkpt lat="42.45009035803377628326416015625" lon="20.20280800759792327880859375">
        <ele>1087.5999755859375</ele>
        <time>2026-06-20T12:14:39.000Z</time>
        <extensions>
          <ns3:TrackPointExtension>
            <ns3:atemp>27.0</ns3:atemp>
          </ns3:TrackPointExtension>
        </extensions>
      </trkpt>
      <trkpt lat="42.45009035803377628326416015625" lon="20.20280800759792327880859375">
        <ele>1087.5999755859375</ele>
        <time>2026-06-20T12:14:40.000Z</time>
        <extensions>
          <ns3:TrackPointExtension>
            <ns3:atemp>27.0</ns3:atemp>
          </ns3:TrackPointExtension>
        </extensions>
      </trkpt>
      <trkpt lat="42.45009035803377628326416015625" lon="20.20280800759792327880859375">
        <ele>1087.5999755859375</ele>
        <time>2026-06-20T12:14:41.000Z</time>
        <extensions>
          <ns3:TrackPointExtension>
            <ns3:atemp>27.0</ns3:atemp>
          </ns3:TrackPointExtension>
        </extensions>
      </trkpt>
      <trkpt lat="42.45009035803377628326416015625" lon="20.20280800759792327880859375">
        <ele>1087.5999755859375</ele>
        <time>2026-06-20T12:14:42.000Z</time>
        <extensions>
          <ns3:TrackPointExtension>
            <ns3:atemp>27.0</ns3:atemp>
          </ns3:TrackPointExtension>
        </extensions>
      </trkpt>
      <trkpt lat="42.45009035803377628326416015625" lon="20.20280800759792327880859375">
        <ele>1087.5999755859375</ele>
        <time>2026-06-20T12:14:43.000Z</time>
        <extensions>
          <ns3:TrackPointExtension>
            <ns3:atemp>27.0</ns3:atemp>
          </ns3:TrackPointExtension>
        </extensions>
      </trkpt>
      <trkpt lat="42.45009035803377628326416015625" lon="20.20280800759792327880859375">
        <ele>1087.5999755859375</ele>
        <time>2026-06-20T12:14:44.000Z</time>
        <extensions>
          <ns3:TrackPointExtension>
            <ns3:atemp>27.0</ns3:atemp>
          </ns3:TrackPointExtension>
        </extensions>
      </trkpt>
      <trkpt lat="42.45009035803377628326416015625" lon="20.20280800759792327880859375">
        <ele>1087.5999755859375</ele>
        <time>2026-06-20T12:14:45.000Z</time>
        <extensions>
          <ns3:TrackPointExtension>
            <ns3:atemp>27.0</ns3:atemp>
          </ns3:TrackPointExtension>
        </extensions>
      </trkpt>
      <trkpt lat="42.45009035803377628326416015625" lon="20.20280800759792327880859375">
        <ele>1087.5999755859375</ele>
        <time>2026-06-20T12:14:46.000Z</time>
        <extensions>
          <ns3:TrackPointExtension>
            <ns3:atemp>27.0</ns3:atemp>
          </ns3:TrackPointExtension>
        </extensions>
      </trkpt>
      <trkpt lat="42.45009035803377628326416015625" lon="20.20280800759792327880859375">
        <ele>1087.5999755859375</ele>
        <time>2026-06-20T12:14:47.000Z</time>
        <extensions>
          <ns3:TrackPointExtension>
            <ns3:atemp>27.0</ns3:atemp>
          </ns3:TrackPointExtension>
        </extensions>
      </trkpt>
      <trkpt lat="42.45009035803377628326416015625" lon="20.20280800759792327880859375">
        <ele>1087.5999755859375</ele>
        <time>2026-06-20T12:14:48.000Z</time>
        <extensions>
          <ns3:TrackPointExtension>
            <ns3:atemp>27.0</ns3:atemp>
          </ns3:TrackPointExtension>
        </extensions>
      </trkpt>
      <trkpt lat="42.45009035803377628326416015625" lon="20.20280800759792327880859375">
        <ele>1087.5999755859375</ele>
        <time>2026-06-20T12:14:49.000Z</time>
        <extensions>
          <ns3:TrackPointExtension>
            <ns3:atemp>27.0</ns3:atemp>
          </ns3:TrackPointExtension>
        </extensions>
      </trkpt>
      <trkpt lat="42.45009035803377628326416015625" lon="20.20280800759792327880859375">
        <ele>1087.5999755859375</ele>
        <time>2026-06-20T12:14:50.000Z</time>
        <extensions>
          <ns3:TrackPointExtension>
            <ns3:atemp>27.0</ns3:atemp>
          </ns3:TrackPointExtension>
        </extensions>
      </trkpt>
      <trkpt lat="42.45009035803377628326416015625" lon="20.20280800759792327880859375">
        <ele>1087.5999755859375</ele>
        <time>2026-06-20T12:14:51.000Z</time>
        <extensions>
          <ns3:TrackPointExtension>
            <ns3:atemp>26.0</ns3:atemp>
          </ns3:TrackPointExtension>
        </extensions>
      </trkpt>
      <trkpt lat="42.45009035803377628326416015625" lon="20.20280800759792327880859375">
        <ele>1087.5999755859375</ele>
        <time>2026-06-20T12:14:52.000Z</time>
        <extensions>
          <ns3:TrackPointExtension>
            <ns3:atemp>26.0</ns3:atemp>
          </ns3:TrackPointExtension>
        </extensions>
      </trkpt>
      <trkpt lat="42.45009035803377628326416015625" lon="20.20280800759792327880859375">
        <ele>1087.5999755859375</ele>
        <time>2026-06-20T12:14:53.000Z</time>
        <extensions>
          <ns3:TrackPointExtension>
            <ns3:atemp>27.0</ns3:atemp>
          </ns3:TrackPointExtension>
        </extensions>
      </trkpt>
      <trkpt lat="42.45009035803377628326416015625" lon="20.20280800759792327880859375">
        <ele>1087.5999755859375</ele>
        <time>2026-06-20T12:14:54.000Z</time>
        <extensions>
          <ns3:TrackPointExtension>
            <ns3:atemp>26.0</ns3:atemp>
          </ns3:TrackPointExtension>
        </extensions>
      </trkpt>
      <trkpt lat="42.45009035803377628326416015625" lon="20.20280800759792327880859375">
        <ele>1087.5999755859375</ele>
        <time>2026-06-20T12:14:55.000Z</time>
        <extensions>
          <ns3:TrackPointExtension>
            <ns3:atemp>26.0</ns3:atemp>
          </ns3:TrackPointExtension>
        </extensions>
      </trkpt>
      <trkpt lat="42.45009035803377628326416015625" lon="20.20280800759792327880859375">
        <ele>1087.5999755859375</ele>
        <time>2026-06-20T12:14:56.000Z</time>
        <extensions>
          <ns3:TrackPointExtension>
            <ns3:atemp>26.0</ns3:atemp>
          </ns3:TrackPointExtension>
        </extensions>
      </trkpt>
      <trkpt lat="42.45009035803377628326416015625" lon="20.20280800759792327880859375">
        <ele>1087.5999755859375</ele>
        <time>2026-06-20T12:14:57.000Z</time>
        <extensions>
          <ns3:TrackPointExtension>
            <ns3:atemp>26.0</ns3:atemp>
          </ns3:TrackPointExtension>
        </extensions>
      </trkpt>
      <trkpt lat="42.45009035803377628326416015625" lon="20.20280800759792327880859375">
        <ele>1087.5999755859375</ele>
        <time>2026-06-20T12:14:58.000Z</time>
        <extensions>
          <ns3:TrackPointExtension>
            <ns3:atemp>26.0</ns3:atemp>
          </ns3:TrackPointExtension>
        </extensions>
      </trkpt>
      <trkpt lat="42.45009035803377628326416015625" lon="20.20280800759792327880859375">
        <ele>1087.5999755859375</ele>
        <time>2026-06-20T12:14:59.000Z</time>
        <extensions>
          <ns3:TrackPointExtension>
            <ns3:atemp>26.0</ns3:atemp>
          </ns3:TrackPointExtension>
        </extensions>
      </trkpt>
      <trkpt lat="42.45009035803377628326416015625" lon="20.20280800759792327880859375">
        <ele>1087.5999755859375</ele>
        <time>2026-06-20T12:15:00.000Z</time>
        <extensions>
          <ns3:TrackPointExtension>
            <ns3:atemp>26.0</ns3:atemp>
          </ns3:TrackPointExtension>
        </extensions>
      </trkpt>
      <trkpt lat="42.45009035803377628326416015625" lon="20.20280800759792327880859375">
        <ele>1087.5999755859375</ele>
        <time>2026-06-20T12:15:01.000Z</time>
        <extensions>
          <ns3:TrackPointExtension>
            <ns3:atemp>26.0</ns3:atemp>
          </ns3:TrackPointExtension>
        </extensions>
      </trkpt>
      <trkpt lat="42.45009035803377628326416015625" lon="20.20280800759792327880859375">
        <ele>1087.5999755859375</ele>
        <time>2026-06-20T12:15:02.000Z</time>
        <extensions>
          <ns3:TrackPointExtension>
            <ns3:atemp>26.0</ns3:atemp>
          </ns3:TrackPointExtension>
        </extensions>
      </trkpt>
      <trkpt lat="42.45009035803377628326416015625" lon="20.20280800759792327880859375">
        <ele>1087.5999755859375</ele>
        <time>2026-06-20T12:15:03.000Z</time>
        <extensions>
          <ns3:TrackPointExtension>
            <ns3:atemp>26.0</ns3:atemp>
          </ns3:TrackPointExtension>
        </extensions>
      </trkpt>
      <trkpt lat="42.45009035803377628326416015625" lon="20.20280800759792327880859375">
        <ele>1087.5999755859375</ele>
        <time>2026-06-20T12:15:04.000Z</time>
        <extensions>
          <ns3:TrackPointExtension>
            <ns3:atemp>26.0</ns3:atemp>
          </ns3:TrackPointExtension>
        </extensions>
      </trkpt>
      <trkpt lat="42.45009035803377628326416015625" lon="20.20280800759792327880859375">
        <ele>1087.5999755859375</ele>
        <time>2026-06-20T12:15:05.000Z</time>
        <extensions>
          <ns3:TrackPointExtension>
            <ns3:atemp>26.0</ns3:atemp>
          </ns3:TrackPointExtension>
        </extensions>
      </trkpt>
      <trkpt lat="42.45009035803377628326416015625" lon="20.20280800759792327880859375">
        <ele>1087.5999755859375</ele>
        <time>2026-06-20T12:15:06.000Z</time>
        <extensions>
          <ns3:TrackPointExtension>
            <ns3:atemp>26.0</ns3:atemp>
          </ns3:TrackPointExtension>
        </extensions>
      </trkpt>
      <trkpt lat="42.45009035803377628326416015625" lon="20.20280800759792327880859375">
        <ele>1087.5999755859375</ele>
        <time>2026-06-20T12:15:07.000Z</time>
        <extensions>
          <ns3:TrackPointExtension>
            <ns3:atemp>27.0</ns3:atemp>
          </ns3:TrackPointExtension>
        </extensions>
      </trkpt>
      <trkpt lat="42.45009035803377628326416015625" lon="20.20280800759792327880859375">
        <ele>1087.5999755859375</ele>
        <time>2026-06-20T12:15:08.000Z</time>
        <extensions>
          <ns3:TrackPointExtension>
            <ns3:atemp>27.0</ns3:atemp>
          </ns3:TrackPointExtension>
        </extensions>
      </trkpt>
      <trkpt lat="42.45009035803377628326416015625" lon="20.20280800759792327880859375">
        <ele>1087.5999755859375</ele>
        <time>2026-06-20T12:15:09.000Z</time>
        <extensions>
          <ns3:TrackPointExtension>
            <ns3:atemp>26.0</ns3:atemp>
          </ns3:TrackPointExtension>
        </extensions>
      </trkpt>
      <trkpt lat="42.45009035803377628326416015625" lon="20.20280800759792327880859375">
        <ele>1087.5999755859375</ele>
        <time>2026-06-20T12:15:10.000Z</time>
        <extensions>
          <ns3:TrackPointExtension>
            <ns3:atemp>26.0</ns3:atemp>
          </ns3:TrackPointExtension>
        </extensions>
      </trkpt>
      <trkpt lat="42.45009035803377628326416015625" lon="20.20280800759792327880859375">
        <ele>1087.5999755859375</ele>
        <time>2026-06-20T12:15:11.000Z</time>
        <extensions>
          <ns3:TrackPointExtension>
            <ns3:atemp>26.0</ns3:atemp>
          </ns3:TrackPointExtension>
        </extensions>
      </trkpt>
      <trkpt lat="42.45009035803377628326416015625" lon="20.20280800759792327880859375">
        <ele>1087.5999755859375</ele>
        <time>2026-06-20T12:15:12.000Z</time>
        <extensions>
          <ns3:TrackPointExtension>
            <ns3:atemp>26.0</ns3:atemp>
          </ns3:TrackPointExtension>
        </extensions>
      </trkpt>
      <trkpt lat="42.45009035803377628326416015625" lon="20.20280800759792327880859375">
        <ele>1087.5999755859375</ele>
        <time>2026-06-20T12:15:13.000Z</time>
        <extensions>
          <ns3:TrackPointExtension>
            <ns3:atemp>26.0</ns3:atemp>
          </ns3:TrackPointExtension>
        </extensions>
      </trkpt>
      <trkpt lat="42.45009035803377628326416015625" lon="20.20280800759792327880859375">
        <ele>1087.5999755859375</ele>
        <time>2026-06-20T12:15:14.000Z</time>
        <extensions>
          <ns3:TrackPointExtension>
            <ns3:atemp>26.0</ns3:atemp>
          </ns3:TrackPointExtension>
        </extensions>
      </trkpt>
      <trkpt lat="42.45009035803377628326416015625" lon="20.20280800759792327880859375">
        <ele>1087.5999755859375</ele>
        <time>2026-06-20T12:15:15.000Z</time>
        <extensions>
          <ns3:TrackPointExtension>
            <ns3:atemp>27.0</ns3:atemp>
          </ns3:TrackPointExtension>
        </extensions>
      </trkpt>
      <trkpt lat="42.45009035803377628326416015625" lon="20.20280800759792327880859375">
        <ele>1087.5999755859375</ele>
        <time>2026-06-20T12:15:16.000Z</time>
        <extensions>
          <ns3:TrackPointExtension>
            <ns3:atemp>26.0</ns3:atemp>
          </ns3:TrackPointExtension>
        </extensions>
      </trkpt>
      <trkpt lat="42.45009035803377628326416015625" lon="20.20280800759792327880859375">
        <ele>1087.5999755859375</ele>
        <time>2026-06-20T12:15:17.000Z</time>
        <extensions>
          <ns3:TrackPointExtension>
            <ns3:atemp>26.0</ns3:atemp>
          </ns3:TrackPointExtension>
        </extensions>
      </trkpt>
      <trkpt lat="42.45009035803377628326416015625" lon="20.20280800759792327880859375">
        <ele>1087.5999755859375</ele>
        <time>2026-06-20T12:15:18.000Z</time>
        <extensions>
          <ns3:TrackPointExtension>
            <ns3:atemp>26.0</ns3:atemp>
          </ns3:TrackPointExtension>
        </extensions>
      </trkpt>
      <trkpt lat="42.45009035803377628326416015625" lon="20.20280800759792327880859375">
        <ele>1087.5999755859375</ele>
        <time>2026-06-20T12:15:19.000Z</time>
        <extensions>
          <ns3:TrackPointExtension>
            <ns3:atemp>26.0</ns3:atemp>
          </ns3:TrackPointExtension>
        </extensions>
      </trkpt>
      <trkpt lat="42.45009035803377628326416015625" lon="20.20280800759792327880859375">
        <ele>1087.5999755859375</ele>
        <time>2026-06-20T12:15:20.000Z</time>
        <extensions>
          <ns3:TrackPointExtension>
            <ns3:atemp>26.0</ns3:atemp>
          </ns3:TrackPointExtension>
        </extensions>
      </trkpt>
      <trkpt lat="42.45009035803377628326416015625" lon="20.20280800759792327880859375">
        <ele>1087.5999755859375</ele>
        <time>2026-06-20T12:15:21.000Z</time>
        <extensions>
          <ns3:TrackPointExtension>
            <ns3:atemp>26.0</ns3:atemp>
          </ns3:TrackPointExtension>
        </extensions>
      </trkpt>
      <trkpt lat="42.45009035803377628326416015625" lon="20.20280800759792327880859375">
        <ele>1087.5999755859375</ele>
        <time>2026-06-20T12:15:22.000Z</time>
        <extensions>
          <ns3:TrackPointExtension>
            <ns3:atemp>26.0</ns3:atemp>
          </ns3:TrackPointExtension>
        </extensions>
      </trkpt>
      <trkpt lat="42.45009035803377628326416015625" lon="20.20280800759792327880859375">
        <ele>1087.5999755859375</ele>
        <time>2026-06-20T12:15:23.000Z</time>
        <extensions>
          <ns3:TrackPointExtension>
            <ns3:atemp>26.0</ns3:atemp>
          </ns3:TrackPointExtension>
        </extensions>
      </trkpt>
      <trkpt lat="42.45009035803377628326416015625" lon="20.20280800759792327880859375">
        <ele>1087.5999755859375</ele>
        <time>2026-06-20T12:15:24.000Z</time>
        <extensions>
          <ns3:TrackPointExtension>
            <ns3:atemp>26.0</ns3:atemp>
          </ns3:TrackPointExtension>
        </extensions>
      </trkpt>
      <trkpt lat="42.45009035803377628326416015625" lon="20.20280800759792327880859375">
        <ele>1087.5999755859375</ele>
        <time>2026-06-20T12:15:25.000Z</time>
        <extensions>
          <ns3:TrackPointExtension>
            <ns3:atemp>26.0</ns3:atemp>
          </ns3:TrackPointExtension>
        </extensions>
      </trkpt>
      <trkpt lat="42.45009035803377628326416015625" lon="20.20280800759792327880859375">
        <ele>1087.5999755859375</ele>
        <time>2026-06-20T12:15:26.000Z</time>
        <extensions>
          <ns3:TrackPointExtension>
            <ns3:atemp>27.0</ns3:atemp>
          </ns3:TrackPointExtension>
        </extensions>
      </trkpt>
      <trkpt lat="42.45009035803377628326416015625" lon="20.20280800759792327880859375">
        <ele>1087.5999755859375</ele>
        <time>2026-06-20T12:15:27.000Z</time>
        <extensions>
          <ns3:TrackPointExtension>
            <ns3:atemp>27.0</ns3:atemp>
          </ns3:TrackPointExtension>
        </extensions>
      </trkpt>
      <trkpt lat="42.45009035803377628326416015625" lon="20.20280800759792327880859375">
        <ele>1087.5999755859375</ele>
        <time>2026-06-20T12:15:28.000Z</time>
        <extensions>
          <ns3:TrackPointExtension>
            <ns3:atemp>27.0</ns3:atemp>
          </ns3:TrackPointExtension>
        </extensions>
      </trkpt>
      <trkpt lat="42.45009035803377628326416015625" lon="20.20280800759792327880859375">
        <ele>1087.5999755859375</ele>
        <time>2026-06-20T12:15:29.000Z</time>
        <extensions>
          <ns3:TrackPointExtension>
            <ns3:atemp>27.0</ns3:atemp>
          </ns3:TrackPointExtension>
        </extensions>
      </trkpt>
      <trkpt lat="42.45009035803377628326416015625" lon="20.20280800759792327880859375">
        <ele>1087.5999755859375</ele>
        <time>2026-06-20T12:15:30.000Z</time>
        <extensions>
          <ns3:TrackPointExtension>
            <ns3:atemp>27.0</ns3:atemp>
          </ns3:TrackPointExtension>
        </extensions>
      </trkpt>
      <trkpt lat="42.45009035803377628326416015625" lon="20.20280800759792327880859375">
        <ele>1087.5999755859375</ele>
        <time>2026-06-20T12:15:31.000Z</time>
        <extensions>
          <ns3:TrackPointExtension>
            <ns3:atemp>26.0</ns3:atemp>
          </ns3:TrackPointExtension>
        </extensions>
      </trkpt>
      <trkpt lat="42.45009035803377628326416015625" lon="20.20280800759792327880859375">
        <ele>1087.5999755859375</ele>
        <time>2026-06-20T12:15:32.000Z</time>
        <extensions>
          <ns3:TrackPointExtension>
            <ns3:atemp>26.0</ns3:atemp>
          </ns3:TrackPointExtension>
        </extensions>
      </trkpt>
      <trkpt lat="42.45009035803377628326416015625" lon="20.20280800759792327880859375">
        <ele>1087.5999755859375</ele>
        <time>2026-06-20T12:15:33.000Z</time>
        <extensions>
          <ns3:TrackPointExtension>
            <ns3:atemp>26.0</ns3:atemp>
          </ns3:TrackPointExtension>
        </extensions>
      </trkpt>
      <trkpt lat="42.45009035803377628326416015625" lon="20.20280800759792327880859375">
        <ele>1087.5999755859375</ele>
        <time>2026-06-20T12:15:34.000Z</time>
        <extensions>
          <ns3:TrackPointExtension>
            <ns3:atemp>26.0</ns3:atemp>
          </ns3:TrackPointExtension>
        </extensions>
      </trkpt>
      <trkpt lat="42.45009035803377628326416015625" lon="20.20280800759792327880859375">
        <ele>1087.5999755859375</ele>
        <time>2026-06-20T12:15:35.000Z</time>
        <extensions>
          <ns3:TrackPointExtension>
            <ns3:atemp>26.0</ns3:atemp>
          </ns3:TrackPointExtension>
        </extensions>
      </trkpt>
      <trkpt lat="42.45009035803377628326416015625" lon="20.20280800759792327880859375">
        <ele>1087.5999755859375</ele>
        <time>2026-06-20T12:15:36.000Z</time>
        <extensions>
          <ns3:TrackPointExtension>
            <ns3:atemp>26.0</ns3:atemp>
          </ns3:TrackPointExtension>
        </extensions>
      </trkpt>
      <trkpt lat="42.45009035803377628326416015625" lon="20.20280800759792327880859375">
        <ele>1087.5999755859375</ele>
        <time>2026-06-20T12:15:37.000Z</time>
        <extensions>
          <ns3:TrackPointExtension>
            <ns3:atemp>26.0</ns3:atemp>
          </ns3:TrackPointExtension>
        </extensions>
      </trkpt>
      <trkpt lat="42.45009035803377628326416015625" lon="20.20280800759792327880859375">
        <ele>1087.5999755859375</ele>
        <time>2026-06-20T12:15:38.000Z</time>
        <extensions>
          <ns3:TrackPointExtension>
            <ns3:atemp>26.0</ns3:atemp>
          </ns3:TrackPointExtension>
        </extensions>
      </trkpt>
      <trkpt lat="42.45009035803377628326416015625" lon="20.20280800759792327880859375">
        <ele>1087.5999755859375</ele>
        <time>2026-06-20T12:15:39.000Z</time>
        <extensions>
          <ns3:TrackPointExtension>
            <ns3:atemp>26.0</ns3:atemp>
          </ns3:TrackPointExtension>
        </extensions>
      </trkpt>
      <trkpt lat="42.45009035803377628326416015625" lon="20.20280800759792327880859375">
        <ele>1087.5999755859375</ele>
        <time>2026-06-20T12:15:40.000Z</time>
        <extensions>
          <ns3:TrackPointExtension>
            <ns3:atemp>26.0</ns3:atemp>
          </ns3:TrackPointExtension>
        </extensions>
      </trkpt>
      <trkpt lat="42.45009035803377628326416015625" lon="20.20280800759792327880859375">
        <ele>1087.5999755859375</ele>
        <time>2026-06-20T12:15:41.000Z</time>
        <extensions>
          <ns3:TrackPointExtension>
            <ns3:atemp>26.0</ns3:atemp>
          </ns3:TrackPointExtension>
        </extensions>
      </trkpt>
      <trkpt lat="42.45009035803377628326416015625" lon="20.20280800759792327880859375">
        <ele>1087.5999755859375</ele>
        <time>2026-06-20T12:15:42.000Z</time>
        <extensions>
          <ns3:TrackPointExtension>
            <ns3:atemp>26.0</ns3:atemp>
          </ns3:TrackPointExtension>
        </extensions>
      </trkpt>
      <trkpt lat="42.45009035803377628326416015625" lon="20.20280800759792327880859375">
        <ele>1087.5999755859375</ele>
        <time>2026-06-20T12:15:43.000Z</time>
        <extensions>
          <ns3:TrackPointExtension>
            <ns3:atemp>26.0</ns3:atemp>
          </ns3:TrackPointExtension>
        </extensions>
      </trkpt>
      <trkpt lat="42.45009035803377628326416015625" lon="20.20280800759792327880859375">
        <ele>1087.5999755859375</ele>
        <time>2026-06-20T12:15:44.000Z</time>
        <extensions>
          <ns3:TrackPointExtension>
            <ns3:atemp>26.0</ns3:atemp>
          </ns3:TrackPointExtension>
        </extensions>
      </trkpt>
      <trkpt lat="42.45009035803377628326416015625" lon="20.20280800759792327880859375">
        <ele>1087.5999755859375</ele>
        <time>2026-06-20T12:15:45.000Z</time>
        <extensions>
          <ns3:TrackPointExtension>
            <ns3:atemp>26.0</ns3:atemp>
          </ns3:TrackPointExtension>
        </extensions>
      </trkpt>
      <trkpt lat="42.45009035803377628326416015625" lon="20.20280800759792327880859375">
        <ele>1087.5999755859375</ele>
        <time>2026-06-20T12:15:46.000Z</time>
        <extensions>
          <ns3:TrackPointExtension>
            <ns3:atemp>26.0</ns3:atemp>
          </ns3:TrackPointExtension>
        </extensions>
      </trkpt>
      <trkpt lat="42.45009035803377628326416015625" lon="20.20280800759792327880859375">
        <ele>1087.5999755859375</ele>
        <time>2026-06-20T12:15:47.000Z</time>
        <extensions>
          <ns3:TrackPointExtension>
            <ns3:atemp>26.0</ns3:atemp>
          </ns3:TrackPointExtension>
        </extensions>
      </trkpt>
      <trkpt lat="42.45009035803377628326416015625" lon="20.20280800759792327880859375">
        <ele>1087.5999755859375</ele>
        <time>2026-06-20T12:15:48.000Z</time>
        <extensions>
          <ns3:TrackPointExtension>
            <ns3:atemp>26.0</ns3:atemp>
          </ns3:TrackPointExtension>
        </extensions>
      </trkpt>
      <trkpt lat="42.45009035803377628326416015625" lon="20.20280800759792327880859375">
        <ele>1087.5999755859375</ele>
        <time>2026-06-20T12:15:49.000Z</time>
        <extensions>
          <ns3:TrackPointExtension>
            <ns3:atemp>26.0</ns3:atemp>
          </ns3:TrackPointExtension>
        </extensions>
      </trkpt>
      <trkpt lat="42.45009035803377628326416015625" lon="20.20280800759792327880859375">
        <ele>1087.5999755859375</ele>
        <time>2026-06-20T12:15:50.000Z</time>
        <extensions>
          <ns3:TrackPointExtension>
            <ns3:atemp>26.0</ns3:atemp>
          </ns3:TrackPointExtension>
        </extensions>
      </trkpt>
      <trkpt lat="42.45009035803377628326416015625" lon="20.20280800759792327880859375">
        <ele>1087.5999755859375</ele>
        <time>2026-06-20T12:15:51.000Z</time>
        <extensions>
          <ns3:TrackPointExtension>
            <ns3:atemp>26.0</ns3:atemp>
          </ns3:TrackPointExtension>
        </extensions>
      </trkpt>
      <trkpt lat="42.45009035803377628326416015625" lon="20.20280800759792327880859375">
        <ele>1087.5999755859375</ele>
        <time>2026-06-20T12:15:52.000Z</time>
        <extensions>
          <ns3:TrackPointExtension>
            <ns3:atemp>26.0</ns3:atemp>
          </ns3:TrackPointExtension>
        </extensions>
      </trkpt>
      <trkpt lat="42.45009035803377628326416015625" lon="20.20280800759792327880859375">
        <ele>1087.5999755859375</ele>
        <time>2026-06-20T12:15:53.000Z</time>
        <extensions>
          <ns3:TrackPointExtension>
            <ns3:atemp>26.0</ns3:atemp>
          </ns3:TrackPointExtension>
        </extensions>
      </trkpt>
      <trkpt lat="42.45009035803377628326416015625" lon="20.20280800759792327880859375">
        <ele>1087.5999755859375</ele>
        <time>2026-06-20T12:15:54.000Z</time>
        <extensions>
          <ns3:TrackPointExtension>
            <ns3:atemp>26.0</ns3:atemp>
          </ns3:TrackPointExtension>
        </extensions>
      </trkpt>
      <trkpt lat="42.45009035803377628326416015625" lon="20.20280800759792327880859375">
        <ele>1087.5999755859375</ele>
        <time>2026-06-20T12:15:55.000Z</time>
        <extensions>
          <ns3:TrackPointExtension>
            <ns3:atemp>26.0</ns3:atemp>
          </ns3:TrackPointExtension>
        </extensions>
      </trkpt>
      <trkpt lat="42.45009035803377628326416015625" lon="20.20280800759792327880859375">
        <ele>1087.5999755859375</ele>
        <time>2026-06-20T12:15:56.000Z</time>
        <extensions>
          <ns3:TrackPointExtension>
            <ns3:atemp>26.0</ns3:atemp>
          </ns3:TrackPointExtension>
        </extensions>
      </trkpt>
      <trkpt lat="42.45009035803377628326416015625" lon="20.20280800759792327880859375">
        <ele>1087.5999755859375</ele>
        <time>2026-06-20T12:15:57.000Z</time>
        <extensions>
          <ns3:TrackPointExtension>
            <ns3:atemp>26.0</ns3:atemp>
          </ns3:TrackPointExtension>
        </extensions>
      </trkpt>
      <trkpt lat="42.45009035803377628326416015625" lon="20.20280800759792327880859375">
        <ele>1087.5999755859375</ele>
        <time>2026-06-20T12:15:58.000Z</time>
        <extensions>
          <ns3:TrackPointExtension>
            <ns3:atemp>26.0</ns3:atemp>
          </ns3:TrackPointExtension>
        </extensions>
      </trkpt>
      <trkpt lat="42.45009035803377628326416015625" lon="20.20280800759792327880859375">
        <ele>1087.5999755859375</ele>
        <time>2026-06-20T12:15:59.000Z</time>
        <extensions>
          <ns3:TrackPointExtension>
            <ns3:atemp>26.0</ns3:atemp>
          </ns3:TrackPointExtension>
        </extensions>
      </trkpt>
      <trkpt lat="42.45009035803377628326416015625" lon="20.20280800759792327880859375">
        <ele>1087.5999755859375</ele>
        <time>2026-06-20T12:16:00.000Z</time>
        <extensions>
          <ns3:TrackPointExtension>
            <ns3:atemp>26.0</ns3:atemp>
          </ns3:TrackPointExtension>
        </extensions>
      </trkpt>
      <trkpt lat="42.45009035803377628326416015625" lon="20.20280800759792327880859375">
        <ele>1087.5999755859375</ele>
        <time>2026-06-20T12:16:01.000Z</time>
        <extensions>
          <ns3:TrackPointExtension>
            <ns3:atemp>26.0</ns3:atemp>
          </ns3:TrackPointExtension>
        </extensions>
      </trkpt>
      <trkpt lat="42.45009035803377628326416015625" lon="20.20280800759792327880859375">
        <ele>1087.5999755859375</ele>
        <time>2026-06-20T12:16:02.000Z</time>
        <extensions>
          <ns3:TrackPointExtension>
            <ns3:atemp>26.0</ns3:atemp>
          </ns3:TrackPointExtension>
        </extensions>
      </trkpt>
      <trkpt lat="42.45009035803377628326416015625" lon="20.20280800759792327880859375">
        <ele>1087.5999755859375</ele>
        <time>2026-06-20T12:16:03.000Z</time>
        <extensions>
          <ns3:TrackPointExtension>
            <ns3:atemp>26.0</ns3:atemp>
          </ns3:TrackPointExtension>
        </extensions>
      </trkpt>
      <trkpt lat="42.45009035803377628326416015625" lon="20.20280800759792327880859375">
        <ele>1087.5999755859375</ele>
        <time>2026-06-20T12:16:04.000Z</time>
        <extensions>
          <ns3:TrackPointExtension>
            <ns3:atemp>26.0</ns3:atemp>
          </ns3:TrackPointExtension>
        </extensions>
      </trkpt>
      <trkpt lat="42.45009035803377628326416015625" lon="20.20280800759792327880859375">
        <ele>1087.5999755859375</ele>
        <time>2026-06-20T12:16:05.000Z</time>
        <extensions>
          <ns3:TrackPointExtension>
            <ns3:atemp>26.0</ns3:atemp>
          </ns3:TrackPointExtension>
        </extensions>
      </trkpt>
      <trkpt lat="42.45009035803377628326416015625" lon="20.20280800759792327880859375">
        <ele>1087.5999755859375</ele>
        <time>2026-06-20T12:16:06.000Z</time>
        <extensions>
          <ns3:TrackPointExtension>
            <ns3:atemp>26.0</ns3:atemp>
          </ns3:TrackPointExtension>
        </extensions>
      </trkpt>
      <trkpt lat="42.45009035803377628326416015625" lon="20.20280800759792327880859375">
        <ele>1087.5999755859375</ele>
        <time>2026-06-20T12:16:07.000Z</time>
        <extensions>
          <ns3:TrackPointExtension>
            <ns3:atemp>26.0</ns3:atemp>
          </ns3:TrackPointExtension>
        </extensions>
      </trkpt>
      <trkpt lat="42.45009035803377628326416015625" lon="20.20280800759792327880859375">
        <ele>1087.5999755859375</ele>
        <time>2026-06-20T12:16:08.000Z</time>
        <extensions>
          <ns3:TrackPointExtension>
            <ns3:atemp>26.0</ns3:atemp>
          </ns3:TrackPointExtension>
        </extensions>
      </trkpt>
      <trkpt lat="42.45009035803377628326416015625" lon="20.20280800759792327880859375">
        <ele>1087.5999755859375</ele>
        <time>2026-06-20T12:16:09.000Z</time>
        <extensions>
          <ns3:TrackPointExtension>
            <ns3:atemp>26.0</ns3:atemp>
          </ns3:TrackPointExtension>
        </extensions>
      </trkpt>
      <trkpt lat="42.45009035803377628326416015625" lon="20.20280800759792327880859375">
        <ele>1087.5999755859375</ele>
        <time>2026-06-20T12:16:10.000Z</time>
        <extensions>
          <ns3:TrackPointExtension>
            <ns3:atemp>26.0</ns3:atemp>
          </ns3:TrackPointExtension>
        </extensions>
      </trkpt>
      <trkpt lat="42.45009035803377628326416015625" lon="20.20280800759792327880859375">
        <ele>1087.5999755859375</ele>
        <time>2026-06-20T12:16:11.000Z</time>
        <extensions>
          <ns3:TrackPointExtension>
            <ns3:atemp>26.0</ns3:atemp>
          </ns3:TrackPointExtension>
        </extensions>
      </trkpt>
      <trkpt lat="42.45009035803377628326416015625" lon="20.20280800759792327880859375">
        <ele>1087.5999755859375</ele>
        <time>2026-06-20T12:16:12.000Z</time>
        <extensions>
          <ns3:TrackPointExtension>
            <ns3:atemp>26.0</ns3:atemp>
          </ns3:TrackPointExtension>
        </extensions>
      </trkpt>
      <trkpt lat="42.45009035803377628326416015625" lon="20.20280800759792327880859375">
        <ele>1087.5999755859375</ele>
        <time>2026-06-20T12:16:13.000Z</time>
        <extensions>
          <ns3:TrackPointExtension>
            <ns3:atemp>26.0</ns3:atemp>
          </ns3:TrackPointExtension>
        </extensions>
      </trkpt>
      <trkpt lat="42.45009035803377628326416015625" lon="20.20280800759792327880859375">
        <ele>1087.5999755859375</ele>
        <time>2026-06-20T12:16:14.000Z</time>
        <extensions>
          <ns3:TrackPointExtension>
            <ns3:atemp>26.0</ns3:atemp>
          </ns3:TrackPointExtension>
        </extensions>
      </trkpt>
      <trkpt lat="42.45009035803377628326416015625" lon="20.20280800759792327880859375">
        <ele>1087.5999755859375</ele>
        <time>2026-06-20T12:16:15.000Z</time>
        <extensions>
          <ns3:TrackPointExtension>
            <ns3:atemp>26.0</ns3:atemp>
          </ns3:TrackPointExtension>
        </extensions>
      </trkpt>
      <trkpt lat="42.45009035803377628326416015625" lon="20.20280800759792327880859375">
        <ele>1087.5999755859375</ele>
        <time>2026-06-20T12:16:16.000Z</time>
        <extensions>
          <ns3:TrackPointExtension>
            <ns3:atemp>26.0</ns3:atemp>
          </ns3:TrackPointExtension>
        </extensions>
      </trkpt>
      <trkpt lat="42.45009035803377628326416015625" lon="20.20280800759792327880859375">
        <ele>1087.5999755859375</ele>
        <time>2026-06-20T12:16:17.000Z</time>
        <extensions>
          <ns3:TrackPointExtension>
            <ns3:atemp>26.0</ns3:atemp>
          </ns3:TrackPointExtension>
        </extensions>
      </trkpt>
      <trkpt lat="42.45009035803377628326416015625" lon="20.20280800759792327880859375">
        <ele>1087.5999755859375</ele>
        <time>2026-06-20T12:16:18.000Z</time>
        <extensions>
          <ns3:TrackPointExtension>
            <ns3:atemp>26.0</ns3:atemp>
          </ns3:TrackPointExtension>
        </extensions>
      </trkpt>
      <trkpt lat="42.45009035803377628326416015625" lon="20.20280800759792327880859375">
        <ele>1087.5999755859375</ele>
        <time>2026-06-20T12:16:19.000Z</time>
        <extensions>
          <ns3:TrackPointExtension>
            <ns3:atemp>26.0</ns3:atemp>
          </ns3:TrackPointExtension>
        </extensions>
      </trkpt>
      <trkpt lat="42.45009035803377628326416015625" lon="20.20280800759792327880859375">
        <ele>1087.5999755859375</ele>
        <time>2026-06-20T12:16:20.000Z</time>
        <extensions>
          <ns3:TrackPointExtension>
            <ns3:atemp>26.0</ns3:atemp>
          </ns3:TrackPointExtension>
        </extensions>
      </trkpt>
      <trkpt lat="42.45009035803377628326416015625" lon="20.20280800759792327880859375">
        <ele>1087.5999755859375</ele>
        <time>2026-06-20T12:16:21.000Z</time>
        <extensions>
          <ns3:TrackPointExtension>
            <ns3:atemp>26.0</ns3:atemp>
          </ns3:TrackPointExtension>
        </extensions>
      </trkpt>
      <trkpt lat="42.45009035803377628326416015625" lon="20.20280800759792327880859375">
        <ele>1087.5999755859375</ele>
        <time>2026-06-20T12:16:22.000Z</time>
        <extensions>
          <ns3:TrackPointExtension>
            <ns3:atemp>26.0</ns3:atemp>
          </ns3:TrackPointExtension>
        </extensions>
      </trkpt>
      <trkpt lat="42.45009035803377628326416015625" lon="20.20280800759792327880859375">
        <ele>1087.5999755859375</ele>
        <time>2026-06-20T12:16:23.000Z</time>
        <extensions>
          <ns3:TrackPointExtension>
            <ns3:atemp>26.0</ns3:atemp>
          </ns3:TrackPointExtension>
        </extensions>
      </trkpt>
      <trkpt lat="42.45009035803377628326416015625" lon="20.20280800759792327880859375">
        <ele>1087.5999755859375</ele>
        <time>2026-06-20T12:16:24.000Z</time>
        <extensions>
          <ns3:TrackPointExtension>
            <ns3:atemp>26.0</ns3:atemp>
          </ns3:TrackPointExtension>
        </extensions>
      </trkpt>
      <trkpt lat="42.45009035803377628326416015625" lon="20.20280800759792327880859375">
        <ele>1087.5999755859375</ele>
        <time>2026-06-20T12:16:25.000Z</time>
        <extensions>
          <ns3:TrackPointExtension>
            <ns3:atemp>26.0</ns3:atemp>
          </ns3:TrackPointExtension>
        </extensions>
      </trkpt>
      <trkpt lat="42.45009035803377628326416015625" lon="20.20280800759792327880859375">
        <ele>1087.5999755859375</ele>
        <time>2026-06-20T12:16:26.000Z</time>
        <extensions>
          <ns3:TrackPointExtension>
            <ns3:atemp>26.0</ns3:atemp>
          </ns3:TrackPointExtension>
        </extensions>
      </trkpt>
      <trkpt lat="42.45009035803377628326416015625" lon="20.20280800759792327880859375">
        <ele>1087.5999755859375</ele>
        <time>2026-06-20T12:16:27.000Z</time>
        <extensions>
          <ns3:TrackPointExtension>
            <ns3:atemp>26.0</ns3:atemp>
          </ns3:TrackPointExtension>
        </extensions>
      </trkpt>
      <trkpt lat="42.45009035803377628326416015625" lon="20.20280800759792327880859375">
        <ele>1087.5999755859375</ele>
        <time>2026-06-20T12:16:28.000Z</time>
        <extensions>
          <ns3:TrackPointExtension>
            <ns3:atemp>26.0</ns3:atemp>
          </ns3:TrackPointExtension>
        </extensions>
      </trkpt>
      <trkpt lat="42.45009035803377628326416015625" lon="20.20280800759792327880859375">
        <ele>1087.5999755859375</ele>
        <time>2026-06-20T12:16:29.000Z</time>
        <extensions>
          <ns3:TrackPointExtension>
            <ns3:atemp>26.0</ns3:atemp>
          </ns3:TrackPointExtension>
        </extensions>
      </trkpt>
      <trkpt lat="42.45009035803377628326416015625" lon="20.20280800759792327880859375">
        <ele>1087.5999755859375</ele>
        <time>2026-06-20T12:16:30.000Z</time>
        <extensions>
          <ns3:TrackPointExtension>
            <ns3:atemp>26.0</ns3:atemp>
          </ns3:TrackPointExtension>
        </extensions>
      </trkpt>
      <trkpt lat="42.45009035803377628326416015625" lon="20.20280800759792327880859375">
        <ele>1087.5999755859375</ele>
        <time>2026-06-20T12:16:31.000Z</time>
        <extensions>
          <ns3:TrackPointExtension>
            <ns3:atemp>26.0</ns3:atemp>
          </ns3:TrackPointExtension>
        </extensions>
      </trkpt>
      <trkpt lat="42.45009035803377628326416015625" lon="20.20280800759792327880859375">
        <ele>1087.5999755859375</ele>
        <time>2026-06-20T12:16:32.000Z</time>
        <extensions>
          <ns3:TrackPointExtension>
            <ns3:atemp>26.0</ns3:atemp>
          </ns3:TrackPointExtension>
        </extensions>
      </trkpt>
      <trkpt lat="42.45009035803377628326416015625" lon="20.20280800759792327880859375">
        <ele>1087.5999755859375</ele>
        <time>2026-06-20T12:16:33.000Z</time>
        <extensions>
          <ns3:TrackPointExtension>
            <ns3:atemp>26.0</ns3:atemp>
          </ns3:TrackPointExtension>
        </extensions>
      </trkpt>
      <trkpt lat="42.45009035803377628326416015625" lon="20.20280800759792327880859375">
        <ele>1087.5999755859375</ele>
        <time>2026-06-20T12:16:34.000Z</time>
        <extensions>
          <ns3:TrackPointExtension>
            <ns3:atemp>26.0</ns3:atemp>
          </ns3:TrackPointExtension>
        </extensions>
      </trkpt>
      <trkpt lat="42.45009035803377628326416015625" lon="20.20280800759792327880859375">
        <ele>1087.5999755859375</ele>
        <time>2026-06-20T12:16:35.000Z</time>
        <extensions>
          <ns3:TrackPointExtension>
            <ns3:atemp>26.0</ns3:atemp>
          </ns3:TrackPointExtension>
        </extensions>
      </trkpt>
      <trkpt lat="42.45009035803377628326416015625" lon="20.20280800759792327880859375">
        <ele>1087.5999755859375</ele>
        <time>2026-06-20T12:16:36.000Z</time>
        <extensions>
          <ns3:TrackPointExtension>
            <ns3:atemp>26.0</ns3:atemp>
          </ns3:TrackPointExtension>
        </extensions>
      </trkpt>
      <trkpt lat="42.45009035803377628326416015625" lon="20.20280800759792327880859375">
        <ele>1087.5999755859375</ele>
        <time>2026-06-20T12:16:37.000Z</time>
        <extensions>
          <ns3:TrackPointExtension>
            <ns3:atemp>26.0</ns3:atemp>
          </ns3:TrackPointExtension>
        </extensions>
      </trkpt>
      <trkpt lat="42.45009035803377628326416015625" lon="20.20280800759792327880859375">
        <ele>1087.5999755859375</ele>
        <time>2026-06-20T12:16:38.000Z</time>
        <extensions>
          <ns3:TrackPointExtension>
            <ns3:atemp>26.0</ns3:atemp>
          </ns3:TrackPointExtension>
        </extensions>
      </trkpt>
      <trkpt lat="42.45009035803377628326416015625" lon="20.20280800759792327880859375">
        <ele>1087.5999755859375</ele>
        <time>2026-06-20T12:16:39.000Z</time>
        <extensions>
          <ns3:TrackPointExtension>
            <ns3:atemp>26.0</ns3:atemp>
          </ns3:TrackPointExtension>
        </extensions>
      </trkpt>
      <trkpt lat="42.45009035803377628326416015625" lon="20.20280800759792327880859375">
        <ele>1087.5999755859375</ele>
        <time>2026-06-20T12:16:40.000Z</time>
        <extensions>
          <ns3:TrackPointExtension>
            <ns3:atemp>26.0</ns3:atemp>
          </ns3:TrackPointExtension>
        </extensions>
      </trkpt>
      <trkpt lat="42.45009035803377628326416015625" lon="20.20280800759792327880859375">
        <ele>1087.5999755859375</ele>
        <time>2026-06-20T12:16:41.000Z</time>
        <extensions>
          <ns3:TrackPointExtension>
            <ns3:atemp>26.0</ns3:atemp>
          </ns3:TrackPointExtension>
        </extensions>
      </trkpt>
      <trkpt lat="42.45009035803377628326416015625" lon="20.20280800759792327880859375">
        <ele>1087.5999755859375</ele>
        <time>2026-06-20T12:16:42.000Z</time>
        <extensions>
          <ns3:TrackPointExtension>
            <ns3:atemp>26.0</ns3:atemp>
          </ns3:TrackPointExtension>
        </extensions>
      </trkpt>
      <trkpt lat="42.45009035803377628326416015625" lon="20.20280800759792327880859375">
        <ele>1087.5999755859375</ele>
        <time>2026-06-20T12:16:43.000Z</time>
        <extensions>
          <ns3:TrackPointExtension>
            <ns3:atemp>26.0</ns3:atemp>
          </ns3:TrackPointExtension>
        </extensions>
      </trkpt>
      <trkpt lat="42.45009035803377628326416015625" lon="20.20280800759792327880859375">
        <ele>1087.5999755859375</ele>
        <time>2026-06-20T12:16:44.000Z</time>
        <extensions>
          <ns3:TrackPointExtension>
            <ns3:atemp>26.0</ns3:atemp>
          </ns3:TrackPointExtension>
        </extensions>
      </trkpt>
      <trkpt lat="42.45009035803377628326416015625" lon="20.20280800759792327880859375">
        <ele>1087.5999755859375</ele>
        <time>2026-06-20T12:16:45.000Z</time>
        <extensions>
          <ns3:TrackPointExtension>
            <ns3:atemp>26.0</ns3:atemp>
          </ns3:TrackPointExtension>
        </extensions>
      </trkpt>
      <trkpt lat="42.45009035803377628326416015625" lon="20.20280800759792327880859375">
        <ele>1087.5999755859375</ele>
        <time>2026-06-20T12:16:46.000Z</time>
        <extensions>
          <ns3:TrackPointExtension>
            <ns3:atemp>26.0</ns3:atemp>
          </ns3:TrackPointExtension>
        </extensions>
      </trkpt>
      <trkpt lat="42.45009035803377628326416015625" lon="20.20280800759792327880859375">
        <ele>1087.5999755859375</ele>
        <time>2026-06-20T12:16:47.000Z</time>
        <extensions>
          <ns3:TrackPointExtension>
            <ns3:atemp>26.0</ns3:atemp>
          </ns3:TrackPointExtension>
        </extensions>
      </trkpt>
      <trkpt lat="42.45009035803377628326416015625" lon="20.20280800759792327880859375">
        <ele>1087.5999755859375</ele>
        <time>2026-06-20T12:16:48.000Z</time>
        <extensions>
          <ns3:TrackPointExtension>
            <ns3:atemp>26.0</ns3:atemp>
          </ns3:TrackPointExtension>
        </extensions>
      </trkpt>
      <trkpt lat="42.45009035803377628326416015625" lon="20.20280800759792327880859375">
        <ele>1087.5999755859375</ele>
        <time>2026-06-20T12:16:49.000Z</time>
        <extensions>
          <ns3:TrackPointExtension>
            <ns3:atemp>26.0</ns3:atemp>
          </ns3:TrackPointExtension>
        </extensions>
      </trkpt>
      <trkpt lat="42.45009035803377628326416015625" lon="20.20280800759792327880859375">
        <ele>1087.5999755859375</ele>
        <time>2026-06-20T12:16:50.000Z</time>
        <extensions>
          <ns3:TrackPointExtension>
            <ns3:atemp>26.0</ns3:atemp>
          </ns3:TrackPointExtension>
        </extensions>
      </trkpt>
      <trkpt lat="42.45009035803377628326416015625" lon="20.20280800759792327880859375">
        <ele>1087.5999755859375</ele>
        <time>2026-06-20T12:16:51.000Z</time>
        <extensions>
          <ns3:TrackPointExtension>
            <ns3:atemp>26.0</ns3:atemp>
          </ns3:TrackPointExtension>
        </extensions>
      </trkpt>
      <trkpt lat="42.45009035803377628326416015625" lon="20.20280800759792327880859375">
        <ele>1087.5999755859375</ele>
        <time>2026-06-20T12:16:52.000Z</time>
        <extensions>
          <ns3:TrackPointExtension>
            <ns3:atemp>26.0</ns3:atemp>
          </ns3:TrackPointExtension>
        </extensions>
      </trkpt>
      <trkpt lat="42.45009035803377628326416015625" lon="20.20280800759792327880859375">
        <ele>1087.5999755859375</ele>
        <time>2026-06-20T12:16:53.000Z</time>
        <extensions>
          <ns3:TrackPointExtension>
            <ns3:atemp>26.0</ns3:atemp>
          </ns3:TrackPointExtension>
        </extensions>
      </trkpt>
      <trkpt lat="42.45009035803377628326416015625" lon="20.20280800759792327880859375">
        <ele>1087.5999755859375</ele>
        <time>2026-06-20T12:16:54.000Z</time>
        <extensions>
          <ns3:TrackPointExtension>
            <ns3:atemp>26.0</ns3:atemp>
          </ns3:TrackPointExtension>
        </extensions>
      </trkpt>
      <trkpt lat="42.45009035803377628326416015625" lon="20.20280800759792327880859375">
        <ele>1087.5999755859375</ele>
        <time>2026-06-20T12:16:55.000Z</time>
        <extensions>
          <ns3:TrackPointExtension>
            <ns3:atemp>26.0</ns3:atemp>
          </ns3:TrackPointExtension>
        </extensions>
      </trkpt>
      <trkpt lat="42.45009035803377628326416015625" lon="20.20280800759792327880859375">
        <ele>1087.5999755859375</ele>
        <time>2026-06-20T12:16:56.000Z</time>
        <extensions>
          <ns3:TrackPointExtension>
            <ns3:atemp>26.0</ns3:atemp>
          </ns3:TrackPointExtension>
        </extensions>
      </trkpt>
      <trkpt lat="42.45009035803377628326416015625" lon="20.20280800759792327880859375">
        <ele>1087.5999755859375</ele>
        <time>2026-06-20T12:16:57.000Z</time>
        <extensions>
          <ns3:TrackPointExtension>
            <ns3:atemp>26.0</ns3:atemp>
          </ns3:TrackPointExtension>
        </extensions>
      </trkpt>
      <trkpt lat="42.45009035803377628326416015625" lon="20.20280800759792327880859375">
        <ele>1087.5999755859375</ele>
        <time>2026-06-20T12:16:58.000Z</time>
        <extensions>
          <ns3:TrackPointExtension>
            <ns3:atemp>26.0</ns3:atemp>
          </ns3:TrackPointExtension>
        </extensions>
      </trkpt>
      <trkpt lat="42.45009035803377628326416015625" lon="20.20280800759792327880859375">
        <ele>1087.5999755859375</ele>
        <time>2026-06-20T12:16:59.000Z</time>
        <extensions>
          <ns3:TrackPointExtension>
            <ns3:atemp>26.0</ns3:atemp>
          </ns3:TrackPointExtension>
        </extensions>
      </trkpt>
      <trkpt lat="42.45009035803377628326416015625" lon="20.20280800759792327880859375">
        <ele>1087.5999755859375</ele>
        <time>2026-06-20T12:17:00.000Z</time>
        <extensions>
          <ns3:TrackPointExtension>
            <ns3:atemp>26.0</ns3:atemp>
          </ns3:TrackPointExtension>
        </extensions>
      </trkpt>
      <trkpt lat="42.45009035803377628326416015625" lon="20.20280800759792327880859375">
        <ele>1087.5999755859375</ele>
        <time>2026-06-20T12:17:01.000Z</time>
        <extensions>
          <ns3:TrackPointExtension>
            <ns3:atemp>26.0</ns3:atemp>
          </ns3:TrackPointExtension>
        </extensions>
      </trkpt>
      <trkpt lat="42.45009035803377628326416015625" lon="20.20280800759792327880859375">
        <ele>1087.5999755859375</ele>
        <time>2026-06-20T12:17:02.000Z</time>
        <extensions>
          <ns3:TrackPointExtension>
            <ns3:atemp>26.0</ns3:atemp>
          </ns3:TrackPointExtension>
        </extensions>
      </trkpt>
      <trkpt lat="42.45009035803377628326416015625" lon="20.20280800759792327880859375">
        <ele>1087.5999755859375</ele>
        <time>2026-06-20T12:17:03.000Z</time>
        <extensions>
          <ns3:TrackPointExtension>
            <ns3:atemp>26.0</ns3:atemp>
          </ns3:TrackPointExtension>
        </extensions>
      </trkpt>
      <trkpt lat="42.45009035803377628326416015625" lon="20.20280800759792327880859375">
        <ele>1087.5999755859375</ele>
        <time>2026-06-20T12:17:04.000Z</time>
        <extensions>
          <ns3:TrackPointExtension>
            <ns3:atemp>26.0</ns3:atemp>
          </ns3:TrackPointExtension>
        </extensions>
      </trkpt>
      <trkpt lat="42.45009035803377628326416015625" lon="20.20280800759792327880859375">
        <ele>1087.5999755859375</ele>
        <time>2026-06-20T12:17:05.000Z</time>
        <extensions>
          <ns3:TrackPointExtension>
            <ns3:atemp>26.0</ns3:atemp>
          </ns3:TrackPointExtension>
        </extensions>
      </trkpt>
      <trkpt lat="42.45009035803377628326416015625" lon="20.20280800759792327880859375">
        <ele>1087.5999755859375</ele>
        <time>2026-06-20T12:17:06.000Z</time>
        <extensions>
          <ns3:TrackPointExtension>
            <ns3:atemp>26.0</ns3:atemp>
          </ns3:TrackPointExtension>
        </extensions>
      </trkpt>
      <trkpt lat="42.45009035803377628326416015625" lon="20.20280800759792327880859375">
        <ele>1087.5999755859375</ele>
        <time>2026-06-20T12:17:07.000Z</time>
        <extensions>
          <ns3:TrackPointExtension>
            <ns3:atemp>26.0</ns3:atemp>
          </ns3:TrackPointExtension>
        </extensions>
      </trkpt>
      <trkpt lat="42.45009035803377628326416015625" lon="20.20280800759792327880859375">
        <ele>1087.5999755859375</ele>
        <time>2026-06-20T12:17:08.000Z</time>
        <extensions>
          <ns3:TrackPointExtension>
            <ns3:atemp>26.0</ns3:atemp>
          </ns3:TrackPointExtension>
        </extensions>
      </trkpt>
      <trkpt lat="42.45009035803377628326416015625" lon="20.20280800759792327880859375">
        <ele>1087.5999755859375</ele>
        <time>2026-06-20T12:17:09.000Z</time>
        <extensions>
          <ns3:TrackPointExtension>
            <ns3:atemp>26.0</ns3:atemp>
          </ns3:TrackPointExtension>
        </extensions>
      </trkpt>
      <trkpt lat="42.45009035803377628326416015625" lon="20.20280800759792327880859375">
        <ele>1087.5999755859375</ele>
        <time>2026-06-20T12:17:10.000Z</time>
        <extensions>
          <ns3:TrackPointExtension>
            <ns3:atemp>26.0</ns3:atemp>
          </ns3:TrackPointExtension>
        </extensions>
      </trkpt>
      <trkpt lat="42.45009035803377628326416015625" lon="20.20280800759792327880859375">
        <ele>1087.5999755859375</ele>
        <time>2026-06-20T12:17:11.000Z</time>
        <extensions>
          <ns3:TrackPointExtension>
            <ns3:atemp>26.0</ns3:atemp>
          </ns3:TrackPointExtension>
        </extensions>
      </trkpt>
      <trkpt lat="42.45009035803377628326416015625" lon="20.20280800759792327880859375">
        <ele>1087.5999755859375</ele>
        <time>2026-06-20T12:17:12.000Z</time>
        <extensions>
          <ns3:TrackPointExtension>
            <ns3:atemp>26.0</ns3:atemp>
          </ns3:TrackPointExtension>
        </extensions>
      </trkpt>
      <trkpt lat="42.45009035803377628326416015625" lon="20.20280800759792327880859375">
        <ele>1087.5999755859375</ele>
        <time>2026-06-20T12:17:13.000Z</time>
        <extensions>
          <ns3:TrackPointExtension>
            <ns3:atemp>26.0</ns3:atemp>
          </ns3:TrackPointExtension>
        </extensions>
      </trkpt>
      <trkpt lat="42.45009035803377628326416015625" lon="20.20280800759792327880859375">
        <ele>1087.5999755859375</ele>
        <time>2026-06-20T12:17:14.000Z</time>
        <extensions>
          <ns3:TrackPointExtension>
            <ns3:atemp>26.0</ns3:atemp>
          </ns3:TrackPointExtension>
        </extensions>
      </trkpt>
      <trkpt lat="42.45009035803377628326416015625" lon="20.20280800759792327880859375">
        <ele>1087.5999755859375</ele>
        <time>2026-06-20T12:17:15.000Z</time>
        <extensions>
          <ns3:TrackPointExtension>
            <ns3:atemp>26.0</ns3:atemp>
          </ns3:TrackPointExtension>
        </extensions>
      </trkpt>
      <trkpt lat="42.45009035803377628326416015625" lon="20.20280800759792327880859375">
        <ele>1087.5999755859375</ele>
        <time>2026-06-20T12:17:16.000Z</time>
        <extensions>
          <ns3:TrackPointExtension>
            <ns3:atemp>26.0</ns3:atemp>
          </ns3:TrackPointExtension>
        </extensions>
      </trkpt>
      <trkpt lat="42.45009035803377628326416015625" lon="20.20280800759792327880859375">
        <ele>1087.5999755859375</ele>
        <time>2026-06-20T12:17:17.000Z</time>
        <extensions>
          <ns3:TrackPointExtension>
            <ns3:atemp>26.0</ns3:atemp>
          </ns3:TrackPointExtension>
        </extensions>
      </trkpt>
      <trkpt lat="42.45009035803377628326416015625" lon="20.20280800759792327880859375">
        <ele>1087.5999755859375</ele>
        <time>2026-06-20T12:17:18.000Z</time>
        <extensions>
          <ns3:TrackPointExtension>
            <ns3:atemp>26.0</ns3:atemp>
          </ns3:TrackPointExtension>
        </extensions>
      </trkpt>
      <trkpt lat="42.45009035803377628326416015625" lon="20.20280800759792327880859375">
        <ele>1087.5999755859375</ele>
        <time>2026-06-20T12:17:19.000Z</time>
        <extensions>
          <ns3:TrackPointExtension>
            <ns3:atemp>26.0</ns3:atemp>
          </ns3:TrackPointExtension>
        </extensions>
      </trkpt>
      <trkpt lat="42.45009035803377628326416015625" lon="20.20280800759792327880859375">
        <ele>1087.5999755859375</ele>
        <time>2026-06-20T12:17:20.000Z</time>
        <extensions>
          <ns3:TrackPointExtension>
            <ns3:atemp>26.0</ns3:atemp>
          </ns3:TrackPointExtension>
        </extensions>
      </trkpt>
      <trkpt lat="42.45009035803377628326416015625" lon="20.20280800759792327880859375">
        <ele>1087.5999755859375</ele>
        <time>2026-06-20T12:17:21.000Z</time>
        <extensions>
          <ns3:TrackPointExtension>
            <ns3:atemp>26.0</ns3:atemp>
          </ns3:TrackPointExtension>
        </extensions>
      </trkpt>
      <trkpt lat="42.45009035803377628326416015625" lon="20.20280800759792327880859375">
        <ele>1087.5999755859375</ele>
        <time>2026-06-20T12:17:22.000Z</time>
        <extensions>
          <ns3:TrackPointExtension>
            <ns3:atemp>26.0</ns3:atemp>
          </ns3:TrackPointExtension>
        </extensions>
      </trkpt>
      <trkpt lat="42.45009035803377628326416015625" lon="20.20280800759792327880859375">
        <ele>1087.5999755859375</ele>
        <time>2026-06-20T12:17:23.000Z</time>
        <extensions>
          <ns3:TrackPointExtension>
            <ns3:atemp>26.0</ns3:atemp>
          </ns3:TrackPointExtension>
        </extensions>
      </trkpt>
      <trkpt lat="42.45009035803377628326416015625" lon="20.20280800759792327880859375">
        <ele>1087.5999755859375</ele>
        <time>2026-06-20T12:17:24.000Z</time>
        <extensions>
          <ns3:TrackPointExtension>
            <ns3:atemp>26.0</ns3:atemp>
          </ns3:TrackPointExtension>
        </extensions>
      </trkpt>
      <trkpt lat="42.45009035803377628326416015625" lon="20.20280800759792327880859375">
        <ele>1087.5999755859375</ele>
        <time>2026-06-20T12:17:25.000Z</time>
        <extensions>
          <ns3:TrackPointExtension>
            <ns3:atemp>26.0</ns3:atemp>
          </ns3:TrackPointExtension>
        </extensions>
      </trkpt>
      <trkpt lat="42.45009035803377628326416015625" lon="20.20280800759792327880859375">
        <ele>1087.5999755859375</ele>
        <time>2026-06-20T12:17:26.000Z</time>
        <extensions>
          <ns3:TrackPointExtension>
            <ns3:atemp>26.0</ns3:atemp>
          </ns3:TrackPointExtension>
        </extensions>
      </trkpt>
      <trkpt lat="42.45009035803377628326416015625" lon="20.20280800759792327880859375">
        <ele>1087.5999755859375</ele>
        <time>2026-06-20T12:17:27.000Z</time>
        <extensions>
          <ns3:TrackPointExtension>
            <ns3:atemp>26.0</ns3:atemp>
          </ns3:TrackPointExtension>
        </extensions>
      </trkpt>
      <trkpt lat="42.45009035803377628326416015625" lon="20.20280800759792327880859375">
        <ele>1087.5999755859375</ele>
        <time>2026-06-20T12:17:28.000Z</time>
        <extensions>
          <ns3:TrackPointExtension>
            <ns3:atemp>26.0</ns3:atemp>
          </ns3:TrackPointExtension>
        </extensions>
      </trkpt>
      <trkpt lat="42.45009035803377628326416015625" lon="20.20280800759792327880859375">
        <ele>1087.5999755859375</ele>
        <time>2026-06-20T12:17:29.000Z</time>
        <extensions>
          <ns3:TrackPointExtension>
            <ns3:atemp>26.0</ns3:atemp>
          </ns3:TrackPointExtension>
        </extensions>
      </trkpt>
      <trkpt lat="42.45009035803377628326416015625" lon="20.20280800759792327880859375">
        <ele>1087.5999755859375</ele>
        <time>2026-06-20T12:17:30.000Z</time>
        <extensions>
          <ns3:TrackPointExtension>
            <ns3:atemp>26.0</ns3:atemp>
          </ns3:TrackPointExtension>
        </extensions>
      </trkpt>
      <trkpt lat="42.45009035803377628326416015625" lon="20.20280800759792327880859375">
        <ele>1087.5999755859375</ele>
        <time>2026-06-20T12:17:31.000Z</time>
        <extensions>
          <ns3:TrackPointExtension>
            <ns3:atemp>26.0</ns3:atemp>
          </ns3:TrackPointExtension>
        </extensions>
      </trkpt>
      <trkpt lat="42.45009035803377628326416015625" lon="20.20280800759792327880859375">
        <ele>1087.5999755859375</ele>
        <time>2026-06-20T12:17:32.000Z</time>
        <extensions>
          <ns3:TrackPointExtension>
            <ns3:atemp>26.0</ns3:atemp>
          </ns3:TrackPointExtension>
        </extensions>
      </trkpt>
      <trkpt lat="42.45009035803377628326416015625" lon="20.20280800759792327880859375">
        <ele>1087.5999755859375</ele>
        <time>2026-06-20T12:17:33.000Z</time>
        <extensions>
          <ns3:TrackPointExtension>
            <ns3:atemp>26.0</ns3:atemp>
          </ns3:TrackPointExtension>
        </extensions>
      </trkpt>
      <trkpt lat="42.45009035803377628326416015625" lon="20.20280800759792327880859375">
        <ele>1087.5999755859375</ele>
        <time>2026-06-20T12:17:34.000Z</time>
        <extensions>
          <ns3:TrackPointExtension>
            <ns3:atemp>26.0</ns3:atemp>
          </ns3:TrackPointExtension>
        </extensions>
      </trkpt>
      <trkpt lat="42.45009035803377628326416015625" lon="20.20280800759792327880859375">
        <ele>1087.5999755859375</ele>
        <time>2026-06-20T12:17:35.000Z</time>
        <extensions>
          <ns3:TrackPointExtension>
            <ns3:atemp>26.0</ns3:atemp>
          </ns3:TrackPointExtension>
        </extensions>
      </trkpt>
      <trkpt lat="42.45009035803377628326416015625" lon="20.20280800759792327880859375">
        <ele>1087.5999755859375</ele>
        <time>2026-06-20T12:17:36.000Z</time>
        <extensions>
          <ns3:TrackPointExtension>
            <ns3:atemp>26.0</ns3:atemp>
          </ns3:TrackPointExtension>
        </extensions>
      </trkpt>
      <trkpt lat="42.45009035803377628326416015625" lon="20.20280800759792327880859375">
        <ele>1087.5999755859375</ele>
        <time>2026-06-20T12:17:37.000Z</time>
        <extensions>
          <ns3:TrackPointExtension>
            <ns3:atemp>26.0</ns3:atemp>
          </ns3:TrackPointExtension>
        </extensions>
      </trkpt>
      <trkpt lat="42.45009035803377628326416015625" lon="20.20280800759792327880859375">
        <ele>1087.5999755859375</ele>
        <time>2026-06-20T12:17:38.000Z</time>
        <extensions>
          <ns3:TrackPointExtension>
            <ns3:atemp>26.0</ns3:atemp>
          </ns3:TrackPointExtension>
        </extensions>
      </trkpt>
      <trkpt lat="42.45009035803377628326416015625" lon="20.20280800759792327880859375">
        <ele>1087.5999755859375</ele>
        <time>2026-06-20T12:17:39.000Z</time>
        <extensions>
          <ns3:TrackPointExtension>
            <ns3:atemp>26.0</ns3:atemp>
          </ns3:TrackPointExtension>
        </extensions>
      </trkpt>
      <trkpt lat="42.45009035803377628326416015625" lon="20.20280800759792327880859375">
        <ele>1087.5999755859375</ele>
        <time>2026-06-20T12:17:40.000Z</time>
        <extensions>
          <ns3:TrackPointExtension>
            <ns3:atemp>26.0</ns3:atemp>
          </ns3:TrackPointExtension>
        </extensions>
      </trkpt>
      <trkpt lat="42.45009035803377628326416015625" lon="20.20280800759792327880859375">
        <ele>1087.5999755859375</ele>
        <time>2026-06-20T12:17:41.000Z</time>
        <extensions>
          <ns3:TrackPointExtension>
            <ns3:atemp>26.0</ns3:atemp>
          </ns3:TrackPointExtension>
        </extensions>
      </trkpt>
      <trkpt lat="42.45009035803377628326416015625" lon="20.20280800759792327880859375">
        <ele>1087.5999755859375</ele>
        <time>2026-06-20T12:17:42.000Z</time>
        <extensions>
          <ns3:TrackPointExtension>
            <ns3:atemp>26.0</ns3:atemp>
          </ns3:TrackPointExtension>
        </extensions>
      </trkpt>
      <trkpt lat="42.45009035803377628326416015625" lon="20.20280800759792327880859375">
        <ele>1087.5999755859375</ele>
        <time>2026-06-20T12:17:43.000Z</time>
        <extensions>
          <ns3:TrackPointExtension>
            <ns3:atemp>26.0</ns3:atemp>
          </ns3:TrackPointExtension>
        </extensions>
      </trkpt>
      <trkpt lat="42.45009035803377628326416015625" lon="20.20280800759792327880859375">
        <ele>1087.5999755859375</ele>
        <time>2026-06-20T12:17:44.000Z</time>
        <extensions>
          <ns3:TrackPointExtension>
            <ns3:atemp>26.0</ns3:atemp>
          </ns3:TrackPointExtension>
        </extensions>
      </trkpt>
      <trkpt lat="42.45009035803377628326416015625" lon="20.20280800759792327880859375">
        <ele>1087.5999755859375</ele>
        <time>2026-06-20T12:17:45.000Z</time>
        <extensions>
          <ns3:TrackPointExtension>
            <ns3:atemp>26.0</ns3:atemp>
          </ns3:TrackPointExtension>
        </extensions>
      </trkpt>
      <trkpt lat="42.45009035803377628326416015625" lon="20.20280800759792327880859375">
        <ele>1087.5999755859375</ele>
        <time>2026-06-20T12:17:46.000Z</time>
        <extensions>
          <ns3:TrackPointExtension>
            <ns3:atemp>26.0</ns3:atemp>
          </ns3:TrackPointExtension>
        </extensions>
      </trkpt>
      <trkpt lat="42.45009035803377628326416015625" lon="20.20280800759792327880859375">
        <ele>1087.5999755859375</ele>
        <time>2026-06-20T12:17:47.000Z</time>
        <extensions>
          <ns3:TrackPointExtension>
            <ns3:atemp>26.0</ns3:atemp>
          </ns3:TrackPointExtension>
        </extensions>
      </trkpt>
      <trkpt lat="42.45009035803377628326416015625" lon="20.20280800759792327880859375">
        <ele>1087.5999755859375</ele>
        <time>2026-06-20T12:17:48.000Z</time>
        <extensions>
          <ns3:TrackPointExtension>
            <ns3:atemp>26.0</ns3:atemp>
          </ns3:TrackPointExtension>
        </extensions>
      </trkpt>
      <trkpt lat="42.45009035803377628326416015625" lon="20.20280800759792327880859375">
        <ele>1087.5999755859375</ele>
        <time>2026-06-20T12:17:49.000Z</time>
        <extensions>
          <ns3:TrackPointExtension>
            <ns3:atemp>26.0</ns3:atemp>
          </ns3:TrackPointExtension>
        </extensions>
      </trkpt>
      <trkpt lat="42.45009035803377628326416015625" lon="20.20280800759792327880859375">
        <ele>1087.5999755859375</ele>
        <time>2026-06-20T12:17:50.000Z</time>
        <extensions>
          <ns3:TrackPointExtension>
            <ns3:atemp>26.0</ns3:atemp>
          </ns3:TrackPointExtension>
        </extensions>
      </trkpt>
      <trkpt lat="42.45009035803377628326416015625" lon="20.20280800759792327880859375">
        <ele>1087.5999755859375</ele>
        <time>2026-06-20T12:17:51.000Z</time>
        <extensions>
          <ns3:TrackPointExtension>
            <ns3:atemp>26.0</ns3:atemp>
          </ns3:TrackPointExtension>
        </extensions>
      </trkpt>
      <trkpt lat="42.45009035803377628326416015625" lon="20.20280800759792327880859375">
        <ele>1087.5999755859375</ele>
        <time>2026-06-20T12:17:52.000Z</time>
        <extensions>
          <ns3:TrackPointExtension>
            <ns3:atemp>26.0</ns3:atemp>
          </ns3:TrackPointExtension>
        </extensions>
      </trkpt>
      <trkpt lat="42.45009035803377628326416015625" lon="20.20280800759792327880859375">
        <ele>1087.5999755859375</ele>
        <time>2026-06-20T12:17:53.000Z</time>
        <extensions>
          <ns3:TrackPointExtension>
            <ns3:atemp>26.0</ns3:atemp>
          </ns3:TrackPointExtension>
        </extensions>
      </trkpt>
      <trkpt lat="42.45009035803377628326416015625" lon="20.20280800759792327880859375">
        <ele>1087.5999755859375</ele>
        <time>2026-06-20T12:17:54.000Z</time>
        <extensions>
          <ns3:TrackPointExtension>
            <ns3:atemp>26.0</ns3:atemp>
          </ns3:TrackPointExtension>
        </extensions>
      </trkpt>
      <trkpt lat="42.45009035803377628326416015625" lon="20.20280800759792327880859375">
        <ele>1087.5999755859375</ele>
        <time>2026-06-20T12:17:55.000Z</time>
        <extensions>
          <ns3:TrackPointExtension>
            <ns3:atemp>26.0</ns3:atemp>
          </ns3:TrackPointExtension>
        </extensions>
      </trkpt>
      <trkpt lat="42.45009035803377628326416015625" lon="20.20280800759792327880859375">
        <ele>1087.5999755859375</ele>
        <time>2026-06-20T12:17:56.000Z</time>
        <extensions>
          <ns3:TrackPointExtension>
            <ns3:atemp>26.0</ns3:atemp>
          </ns3:TrackPointExtension>
        </extensions>
      </trkpt>
      <trkpt lat="42.45009035803377628326416015625" lon="20.20280800759792327880859375">
        <ele>1087.5999755859375</ele>
        <time>2026-06-20T12:17:57.000Z</time>
        <extensions>
          <ns3:TrackPointExtension>
            <ns3:atemp>26.0</ns3:atemp>
          </ns3:TrackPointExtension>
        </extensions>
      </trkpt>
      <trkpt lat="42.45009035803377628326416015625" lon="20.20280800759792327880859375">
        <ele>1087.5999755859375</ele>
        <time>2026-06-20T12:17:58.000Z</time>
        <extensions>
          <ns3:TrackPointExtension>
            <ns3:atemp>26.0</ns3:atemp>
          </ns3:TrackPointExtension>
        </extensions>
      </trkpt>
      <trkpt lat="42.45009035803377628326416015625" lon="20.20280800759792327880859375">
        <ele>1087.5999755859375</ele>
        <time>2026-06-20T12:17:59.000Z</time>
        <extensions>
          <ns3:TrackPointExtension>
            <ns3:atemp>26.0</ns3:atemp>
          </ns3:TrackPointExtension>
        </extensions>
      </trkpt>
      <trkpt lat="42.45009035803377628326416015625" lon="20.20280800759792327880859375">
        <ele>1087.5999755859375</ele>
        <time>2026-06-20T12:18:00.000Z</time>
        <extensions>
          <ns3:TrackPointExtension>
            <ns3:atemp>26.0</ns3:atemp>
          </ns3:TrackPointExtension>
        </extensions>
      </trkpt>
      <trkpt lat="42.45009035803377628326416015625" lon="20.20280800759792327880859375">
        <ele>1087.5999755859375</ele>
        <time>2026-06-20T12:18:01.000Z</time>
        <extensions>
          <ns3:TrackPointExtension>
            <ns3:atemp>26.0</ns3:atemp>
          </ns3:TrackPointExtension>
        </extensions>
      </trkpt>
      <trkpt lat="42.45009035803377628326416015625" lon="20.20280800759792327880859375">
        <ele>1087.5999755859375</ele>
        <time>2026-06-20T12:18:02.000Z</time>
        <extensions>
          <ns3:TrackPointExtension>
            <ns3:atemp>26.0</ns3:atemp>
          </ns3:TrackPointExtension>
        </extensions>
      </trkpt>
      <trkpt lat="42.45009035803377628326416015625" lon="20.20280800759792327880859375">
        <ele>1087.5999755859375</ele>
        <time>2026-06-20T12:18:03.000Z</time>
        <extensions>
          <ns3:TrackPointExtension>
            <ns3:atemp>26.0</ns3:atemp>
          </ns3:TrackPointExtension>
        </extensions>
      </trkpt>
      <trkpt lat="42.45009035803377628326416015625" lon="20.20280800759792327880859375">
        <ele>1087.5999755859375</ele>
        <time>2026-06-20T12:18:04.000Z</time>
        <extensions>
          <ns3:TrackPointExtension>
            <ns3:atemp>26.0</ns3:atemp>
          </ns3:TrackPointExtension>
        </extensions>
      </trkpt>
      <trkpt lat="42.45009035803377628326416015625" lon="20.20280800759792327880859375">
        <ele>1087.5999755859375</ele>
        <time>2026-06-20T12:18:05.000Z</time>
        <extensions>
          <ns3:TrackPointExtension>
            <ns3:atemp>26.0</ns3:atemp>
          </ns3:TrackPointExtension>
        </extensions>
      </trkpt>
      <trkpt lat="42.45009035803377628326416015625" lon="20.20280800759792327880859375">
        <ele>1087.5999755859375</ele>
        <time>2026-06-20T12:18:06.000Z</time>
        <extensions>
          <ns3:TrackPointExtension>
            <ns3:atemp>26.0</ns3:atemp>
          </ns3:TrackPointExtension>
        </extensions>
      </trkpt>
      <trkpt lat="42.45009035803377628326416015625" lon="20.20280800759792327880859375">
        <ele>1087.5999755859375</ele>
        <time>2026-06-20T12:18:07.000Z</time>
        <extensions>
          <ns3:TrackPointExtension>
            <ns3:atemp>26.0</ns3:atemp>
          </ns3:TrackPointExtension>
        </extensions>
      </trkpt>
      <trkpt lat="42.45009035803377628326416015625" lon="20.20280800759792327880859375">
        <ele>1087.5999755859375</ele>
        <time>2026-06-20T12:18:08.000Z</time>
        <extensions>
          <ns3:TrackPointExtension>
            <ns3:atemp>26.0</ns3:atemp>
          </ns3:TrackPointExtension>
        </extensions>
      </trkpt>
      <trkpt lat="42.45009035803377628326416015625" lon="20.20280800759792327880859375">
        <ele>1087.5999755859375</ele>
        <time>2026-06-20T12:18:09.000Z</time>
        <extensions>
          <ns3:TrackPointExtension>
            <ns3:atemp>26.0</ns3:atemp>
          </ns3:TrackPointExtension>
        </extensions>
      </trkpt>
      <trkpt lat="42.45009035803377628326416015625" lon="20.20280800759792327880859375">
        <ele>1087.5999755859375</ele>
        <time>2026-06-20T12:18:10.000Z</time>
        <extensions>
          <ns3:TrackPointExtension>
            <ns3:atemp>26.0</ns3:atemp>
          </ns3:TrackPointExtension>
        </extensions>
      </trkpt>
      <trkpt lat="42.45009035803377628326416015625" lon="20.20280800759792327880859375">
        <ele>1087.5999755859375</ele>
        <time>2026-06-20T12:18:11.000Z</time>
        <extensions>
          <ns3:TrackPointExtension>
            <ns3:atemp>26.0</ns3:atemp>
          </ns3:TrackPointExtension>
        </extensions>
      </trkpt>
      <trkpt lat="42.45009035803377628326416015625" lon="20.20280800759792327880859375">
        <ele>1087.5999755859375</ele>
        <time>2026-06-20T12:18:12.000Z</time>
        <extensions>
          <ns3:TrackPointExtension>
            <ns3:atemp>26.0</ns3:atemp>
          </ns3:TrackPointExtension>
        </extensions>
      </trkpt>
      <trkpt lat="42.45009035803377628326416015625" lon="20.20280800759792327880859375">
        <ele>1087.5999755859375</ele>
        <time>2026-06-20T12:18:13.000Z</time>
        <extensions>
          <ns3:TrackPointExtension>
            <ns3:atemp>26.0</ns3:atemp>
          </ns3:TrackPointExtension>
        </extensions>
      </trkpt>
      <trkpt lat="42.45009035803377628326416015625" lon="20.20280800759792327880859375">
        <ele>1087.5999755859375</ele>
        <time>2026-06-20T12:18:14.000Z</time>
        <extensions>
          <ns3:TrackPointExtension>
            <ns3:atemp>26.0</ns3:atemp>
          </ns3:TrackPointExtension>
        </extensions>
      </trkpt>
      <trkpt lat="42.45009035803377628326416015625" lon="20.20280800759792327880859375">
        <ele>1087.5999755859375</ele>
        <time>2026-06-20T12:18:15.000Z</time>
        <extensions>
          <ns3:TrackPointExtension>
            <ns3:atemp>26.0</ns3:atemp>
          </ns3:TrackPointExtension>
        </extensions>
      </trkpt>
      <trkpt lat="42.45009035803377628326416015625" lon="20.20280800759792327880859375">
        <ele>1087.5999755859375</ele>
        <time>2026-06-20T12:18:16.000Z</time>
        <extensions>
          <ns3:TrackPointExtension>
            <ns3:atemp>26.0</ns3:atemp>
          </ns3:TrackPointExtension>
        </extensions>
      </trkpt>
      <trkpt lat="42.45009035803377628326416015625" lon="20.20280800759792327880859375">
        <ele>1087.5999755859375</ele>
        <time>2026-06-20T12:18:17.000Z</time>
        <extensions>
          <ns3:TrackPointExtension>
            <ns3:atemp>26.0</ns3:atemp>
          </ns3:TrackPointExtension>
        </extensions>
      </trkpt>
      <trkpt lat="42.45009035803377628326416015625" lon="20.20280800759792327880859375">
        <ele>1087.5999755859375</ele>
        <time>2026-06-20T12:18:18.000Z</time>
        <extensions>
          <ns3:TrackPointExtension>
            <ns3:atemp>26.0</ns3:atemp>
          </ns3:TrackPointExtension>
        </extensions>
      </trkpt>
      <trkpt lat="42.45009035803377628326416015625" lon="20.20280800759792327880859375">
        <ele>1087.5999755859375</ele>
        <time>2026-06-20T12:18:19.000Z</time>
        <extensions>
          <ns3:TrackPointExtension>
            <ns3:atemp>26.0</ns3:atemp>
          </ns3:TrackPointExtension>
        </extensions>
      </trkpt>
      <trkpt lat="42.45009035803377628326416015625" lon="20.20280800759792327880859375">
        <ele>1087.5999755859375</ele>
        <time>2026-06-20T12:18:20.000Z</time>
        <extensions>
          <ns3:TrackPointExtension>
            <ns3:atemp>26.0</ns3:atemp>
          </ns3:TrackPointExtension>
        </extensions>
      </trkpt>
      <trkpt lat="42.45009035803377628326416015625" lon="20.20280800759792327880859375">
        <ele>1087.5999755859375</ele>
        <time>2026-06-20T12:18:21.000Z</time>
        <extensions>
          <ns3:TrackPointExtension>
            <ns3:atemp>26.0</ns3:atemp>
          </ns3:TrackPointExtension>
        </extensions>
      </trkpt>
      <trkpt lat="42.45009035803377628326416015625" lon="20.20280800759792327880859375">
        <ele>1087.5999755859375</ele>
        <time>2026-06-20T12:18:22.000Z</time>
        <extensions>
          <ns3:TrackPointExtension>
            <ns3:atemp>26.0</ns3:atemp>
          </ns3:TrackPointExtension>
        </extensions>
      </trkpt>
      <trkpt lat="42.45009035803377628326416015625" lon="20.20280800759792327880859375">
        <ele>1087.5999755859375</ele>
        <time>2026-06-20T12:18:23.000Z</time>
        <extensions>
          <ns3:TrackPointExtension>
            <ns3:atemp>26.0</ns3:atemp>
          </ns3:TrackPointExtension>
        </extensions>
      </trkpt>
      <trkpt lat="42.45009035803377628326416015625" lon="20.20280800759792327880859375">
        <ele>1087.5999755859375</ele>
        <time>2026-06-20T12:18:24.000Z</time>
        <extensions>
          <ns3:TrackPointExtension>
            <ns3:atemp>26.0</ns3:atemp>
          </ns3:TrackPointExtension>
        </extensions>
      </trkpt>
      <trkpt lat="42.45009035803377628326416015625" lon="20.20280800759792327880859375">
        <ele>1087.5999755859375</ele>
        <time>2026-06-20T12:18:25.000Z</time>
        <extensions>
          <ns3:TrackPointExtension>
            <ns3:atemp>26.0</ns3:atemp>
          </ns3:TrackPointExtension>
        </extensions>
      </trkpt>
      <trkpt lat="42.45009035803377628326416015625" lon="20.20280800759792327880859375">
        <ele>1087.5999755859375</ele>
        <time>2026-06-20T12:18:26.000Z</time>
        <extensions>
          <ns3:TrackPointExtension>
            <ns3:atemp>26.0</ns3:atemp>
          </ns3:TrackPointExtension>
        </extensions>
      </trkpt>
      <trkpt lat="42.45009035803377628326416015625" lon="20.20280800759792327880859375">
        <ele>1087.5999755859375</ele>
        <time>2026-06-20T12:18:27.000Z</time>
        <extensions>
          <ns3:TrackPointExtension>
            <ns3:atemp>26.0</ns3:atemp>
          </ns3:TrackPointExtension>
        </extensions>
      </trkpt>
      <trkpt lat="42.45009035803377628326416015625" lon="20.20280800759792327880859375">
        <ele>1087.5999755859375</ele>
        <time>2026-06-20T12:18:28.000Z</time>
        <extensions>
          <ns3:TrackPointExtension>
            <ns3:atemp>26.0</ns3:atemp>
          </ns3:TrackPointExtension>
        </extensions>
      </trkpt>
      <trkpt lat="42.45009035803377628326416015625" lon="20.20280800759792327880859375">
        <ele>1087.5999755859375</ele>
        <time>2026-06-20T12:18:29.000Z</time>
        <extensions>
          <ns3:TrackPointExtension>
            <ns3:atemp>26.0</ns3:atemp>
          </ns3:TrackPointExtension>
        </extensions>
      </trkpt>
      <trkpt lat="42.45009035803377628326416015625" lon="20.20280800759792327880859375">
        <ele>1087.5999755859375</ele>
        <time>2026-06-20T12:18:30.000Z</time>
        <extensions>
          <ns3:TrackPointExtension>
            <ns3:atemp>26.0</ns3:atemp>
          </ns3:TrackPointExtension>
        </extensions>
      </trkpt>
      <trkpt lat="42.45009035803377628326416015625" lon="20.20280800759792327880859375">
        <ele>1087.5999755859375</ele>
        <time>2026-06-20T12:18:31.000Z</time>
        <extensions>
          <ns3:TrackPointExtension>
            <ns3:atemp>26.0</ns3:atemp>
          </ns3:TrackPointExtension>
        </extensions>
      </trkpt>
      <trkpt lat="42.45009035803377628326416015625" lon="20.20280800759792327880859375">
        <ele>1087.5999755859375</ele>
        <time>2026-06-20T12:18:32.000Z</time>
        <extensions>
          <ns3:TrackPointExtension>
            <ns3:atemp>26.0</ns3:atemp>
          </ns3:TrackPointExtension>
        </extensions>
      </trkpt>
      <trkpt lat="42.45009035803377628326416015625" lon="20.20280800759792327880859375">
        <ele>1087.5999755859375</ele>
        <time>2026-06-20T12:18:33.000Z</time>
        <extensions>
          <ns3:TrackPointExtension>
            <ns3:atemp>26.0</ns3:atemp>
          </ns3:TrackPointExtension>
        </extensions>
      </trkpt>
      <trkpt lat="42.45009035803377628326416015625" lon="20.20280800759792327880859375">
        <ele>1087.5999755859375</ele>
        <time>2026-06-20T12:18:34.000Z</time>
        <extensions>
          <ns3:TrackPointExtension>
            <ns3:atemp>26.0</ns3:atemp>
          </ns3:TrackPointExtension>
        </extensions>
      </trkpt>
      <trkpt lat="42.45009035803377628326416015625" lon="20.20280800759792327880859375">
        <ele>1087.5999755859375</ele>
        <time>2026-06-20T12:18:35.000Z</time>
        <extensions>
          <ns3:TrackPointExtension>
            <ns3:atemp>26.0</ns3:atemp>
          </ns3:TrackPointExtension>
        </extensions>
      </trkpt>
      <trkpt lat="42.45009035803377628326416015625" lon="20.20280800759792327880859375">
        <ele>1087.5999755859375</ele>
        <time>2026-06-20T12:18:36.000Z</time>
        <extensions>
          <ns3:TrackPointExtension>
            <ns3:atemp>26.0</ns3:atemp>
          </ns3:TrackPointExtension>
        </extensions>
      </trkpt>
      <trkpt lat="42.45009035803377628326416015625" lon="20.20280800759792327880859375">
        <ele>1087.5999755859375</ele>
        <time>2026-06-20T12:18:37.000Z</time>
        <extensions>
          <ns3:TrackPointExtension>
            <ns3:atemp>26.0</ns3:atemp>
          </ns3:TrackPointExtension>
        </extensions>
      </trkpt>
      <trkpt lat="42.45009035803377628326416015625" lon="20.20280800759792327880859375">
        <ele>1087.5999755859375</ele>
        <time>2026-06-20T12:18:38.000Z</time>
        <extensions>
          <ns3:TrackPointExtension>
            <ns3:atemp>26.0</ns3:atemp>
          </ns3:TrackPointExtension>
        </extensions>
      </trkpt>
      <trkpt lat="42.45009035803377628326416015625" lon="20.20280800759792327880859375">
        <ele>1087.5999755859375</ele>
        <time>2026-06-20T12:18:39.000Z</time>
        <extensions>
          <ns3:TrackPointExtension>
            <ns3:atemp>26.0</ns3:atemp>
          </ns3:TrackPointExtension>
        </extensions>
      </trkpt>
      <trkpt lat="42.45009035803377628326416015625" lon="20.20280800759792327880859375">
        <ele>1087.5999755859375</ele>
        <time>2026-06-20T12:18:40.000Z</time>
        <extensions>
          <ns3:TrackPointExtension>
            <ns3:atemp>26.0</ns3:atemp>
          </ns3:TrackPointExtension>
        </extensions>
      </trkpt>
      <trkpt lat="42.45009035803377628326416015625" lon="20.20280800759792327880859375">
        <ele>1087.5999755859375</ele>
        <time>2026-06-20T12:18:41.000Z</time>
        <extensions>
          <ns3:TrackPointExtension>
            <ns3:atemp>26.0</ns3:atemp>
          </ns3:TrackPointExtension>
        </extensions>
      </trkpt>
      <trkpt lat="42.45009035803377628326416015625" lon="20.20280800759792327880859375">
        <ele>1087.5999755859375</ele>
        <time>2026-06-20T12:18:42.000Z</time>
        <extensions>
          <ns3:TrackPointExtension>
            <ns3:atemp>26.0</ns3:atemp>
          </ns3:TrackPointExtension>
        </extensions>
      </trkpt>
      <trkpt lat="42.45009035803377628326416015625" lon="20.20280800759792327880859375">
        <ele>1087.5999755859375</ele>
        <time>2026-06-20T12:18:43.000Z</time>
        <extensions>
          <ns3:TrackPointExtension>
            <ns3:atemp>26.0</ns3:atemp>
          </ns3:TrackPointExtension>
        </extensions>
      </trkpt>
      <trkpt lat="42.45009035803377628326416015625" lon="20.20280800759792327880859375">
        <ele>1087.5999755859375</ele>
        <time>2026-06-20T12:18:44.000Z</time>
        <extensions>
          <ns3:TrackPointExtension>
            <ns3:atemp>26.0</ns3:atemp>
          </ns3:TrackPointExtension>
        </extensions>
      </trkpt>
      <trkpt lat="42.45009035803377628326416015625" lon="20.20280800759792327880859375">
        <ele>1087.5999755859375</ele>
        <time>2026-06-20T12:18:45.000Z</time>
        <extensions>
          <ns3:TrackPointExtension>
            <ns3:atemp>26.0</ns3:atemp>
          </ns3:TrackPointExtension>
        </extensions>
      </trkpt>
      <trkpt lat="42.45009035803377628326416015625" lon="20.20280800759792327880859375">
        <ele>1087.5999755859375</ele>
        <time>2026-06-20T12:18:46.000Z</time>
        <extensions>
          <ns3:TrackPointExtension>
            <ns3:atemp>26.0</ns3:atemp>
          </ns3:TrackPointExtension>
        </extensions>
      </trkpt>
      <trkpt lat="42.45009035803377628326416015625" lon="20.20280800759792327880859375">
        <ele>1087.5999755859375</ele>
        <time>2026-06-20T12:18:47.000Z</time>
        <extensions>
          <ns3:TrackPointExtension>
            <ns3:atemp>26.0</ns3:atemp>
          </ns3:TrackPointExtension>
        </extensions>
      </trkpt>
      <trkpt lat="42.45009035803377628326416015625" lon="20.20280800759792327880859375">
        <ele>1087.5999755859375</ele>
        <time>2026-06-20T12:18:48.000Z</time>
        <extensions>
          <ns3:TrackPointExtension>
            <ns3:atemp>26.0</ns3:atemp>
          </ns3:TrackPointExtension>
        </extensions>
      </trkpt>
      <trkpt lat="42.45009035803377628326416015625" lon="20.20280800759792327880859375">
        <ele>1087.5999755859375</ele>
        <time>2026-06-20T12:18:49.000Z</time>
        <extensions>
          <ns3:TrackPointExtension>
            <ns3:atemp>26.0</ns3:atemp>
          </ns3:TrackPointExtension>
        </extensions>
      </trkpt>
      <trkpt lat="42.45009035803377628326416015625" lon="20.20280800759792327880859375">
        <ele>1087.5999755859375</ele>
        <time>2026-06-20T12:18:50.000Z</time>
        <extensions>
          <ns3:TrackPointExtension>
            <ns3:atemp>26.0</ns3:atemp>
          </ns3:TrackPointExtension>
        </extensions>
      </trkpt>
      <trkpt lat="42.45009035803377628326416015625" lon="20.20280800759792327880859375">
        <ele>1087.5999755859375</ele>
        <time>2026-06-20T12:18:51.000Z</time>
        <extensions>
          <ns3:TrackPointExtension>
            <ns3:atemp>26.0</ns3:atemp>
          </ns3:TrackPointExtension>
        </extensions>
      </trkpt>
      <trkpt lat="42.45009035803377628326416015625" lon="20.20280800759792327880859375">
        <ele>1087.5999755859375</ele>
        <time>2026-06-20T12:18:52.000Z</time>
        <extensions>
          <ns3:TrackPointExtension>
            <ns3:atemp>26.0</ns3:atemp>
          </ns3:TrackPointExtension>
        </extensions>
      </trkpt>
      <trkpt lat="42.45009035803377628326416015625" lon="20.20280800759792327880859375">
        <ele>1087.5999755859375</ele>
        <time>2026-06-20T12:18:53.000Z</time>
        <extensions>
          <ns3:TrackPointExtension>
            <ns3:atemp>26.0</ns3:atemp>
          </ns3:TrackPointExtension>
        </extensions>
      </trkpt>
      <trkpt lat="42.45009035803377628326416015625" lon="20.20280800759792327880859375">
        <ele>1087.5999755859375</ele>
        <time>2026-06-20T12:18:54.000Z</time>
        <extensions>
          <ns3:TrackPointExtension>
            <ns3:atemp>26.0</ns3:atemp>
          </ns3:TrackPointExtension>
        </extensions>
      </trkpt>
      <trkpt lat="42.45009035803377628326416015625" lon="20.20280800759792327880859375">
        <ele>1087.5999755859375</ele>
        <time>2026-06-20T12:18:55.000Z</time>
        <extensions>
          <ns3:TrackPointExtension>
            <ns3:atemp>26.0</ns3:atemp>
          </ns3:TrackPointExtension>
        </extensions>
      </trkpt>
      <trkpt lat="42.45009035803377628326416015625" lon="20.20280800759792327880859375">
        <ele>1087.5999755859375</ele>
        <time>2026-06-20T12:18:56.000Z</time>
        <extensions>
          <ns3:TrackPointExtension>
            <ns3:atemp>26.0</ns3:atemp>
          </ns3:TrackPointExtension>
        </extensions>
      </trkpt>
      <trkpt lat="42.45009035803377628326416015625" lon="20.20280800759792327880859375">
        <ele>1087.5999755859375</ele>
        <time>2026-06-20T12:18:57.000Z</time>
        <extensions>
          <ns3:TrackPointExtension>
            <ns3:atemp>26.0</ns3:atemp>
          </ns3:TrackPointExtension>
        </extensions>
      </trkpt>
      <trkpt lat="42.45009035803377628326416015625" lon="20.20280800759792327880859375">
        <ele>1087.5999755859375</ele>
        <time>2026-06-20T12:18:58.000Z</time>
        <extensions>
          <ns3:TrackPointExtension>
            <ns3:atemp>26.0</ns3:atemp>
          </ns3:TrackPointExtension>
        </extensions>
      </trkpt>
      <trkpt lat="42.45009035803377628326416015625" lon="20.20280800759792327880859375">
        <ele>1087.5999755859375</ele>
        <time>2026-06-20T12:18:59.000Z</time>
        <extensions>
          <ns3:TrackPointExtension>
            <ns3:atemp>26.0</ns3:atemp>
          </ns3:TrackPointExtension>
        </extensions>
      </trkpt>
      <trkpt lat="42.45009035803377628326416015625" lon="20.20280800759792327880859375">
        <ele>1087.5999755859375</ele>
        <time>2026-06-20T12:19:00.000Z</time>
        <extensions>
          <ns3:TrackPointExtension>
            <ns3:atemp>26.0</ns3:atemp>
          </ns3:TrackPointExtension>
        </extensions>
      </trkpt>
      <trkpt lat="42.45009035803377628326416015625" lon="20.20280800759792327880859375">
        <ele>1087.5999755859375</ele>
        <time>2026-06-20T12:19:01.000Z</time>
        <extensions>
          <ns3:TrackPointExtension>
            <ns3:atemp>26.0</ns3:atemp>
          </ns3:TrackPointExtension>
        </extensions>
      </trkpt>
      <trkpt lat="42.45009035803377628326416015625" lon="20.20280800759792327880859375">
        <ele>1087.5999755859375</ele>
        <time>2026-06-20T12:19:02.000Z</time>
        <extensions>
          <ns3:TrackPointExtension>
            <ns3:atemp>26.0</ns3:atemp>
          </ns3:TrackPointExtension>
        </extensions>
      </trkpt>
      <trkpt lat="42.45009035803377628326416015625" lon="20.20280800759792327880859375">
        <ele>1087.5999755859375</ele>
        <time>2026-06-20T12:19:03.000Z</time>
        <extensions>
          <ns3:TrackPointExtension>
            <ns3:atemp>26.0</ns3:atemp>
          </ns3:TrackPointExtension>
        </extensions>
      </trkpt>
      <trkpt lat="42.45009035803377628326416015625" lon="20.20280800759792327880859375">
        <ele>1087.5999755859375</ele>
        <time>2026-06-20T12:19:04.000Z</time>
        <extensions>
          <ns3:TrackPointExtension>
            <ns3:atemp>26.0</ns3:atemp>
          </ns3:TrackPointExtension>
        </extensions>
      </trkpt>
      <trkpt lat="42.45009035803377628326416015625" lon="20.20280800759792327880859375">
        <ele>1087.5999755859375</ele>
        <time>2026-06-20T12:19:05.000Z</time>
        <extensions>
          <ns3:TrackPointExtension>
            <ns3:atemp>26.0</ns3:atemp>
          </ns3:TrackPointExtension>
        </extensions>
      </trkpt>
      <trkpt lat="42.45009035803377628326416015625" lon="20.20280800759792327880859375">
        <ele>1087.5999755859375</ele>
        <time>2026-06-20T12:19:06.000Z</time>
        <extensions>
          <ns3:TrackPointExtension>
            <ns3:atemp>26.0</ns3:atemp>
          </ns3:TrackPointExtension>
        </extensions>
      </trkpt>
      <trkpt lat="42.45009035803377628326416015625" lon="20.20280800759792327880859375">
        <ele>1087.5999755859375</ele>
        <time>2026-06-20T12:19:07.000Z</time>
        <extensions>
          <ns3:TrackPointExtension>
            <ns3:atemp>26.0</ns3:atemp>
          </ns3:TrackPointExtension>
        </extensions>
      </trkpt>
      <trkpt lat="42.45009035803377628326416015625" lon="20.20280800759792327880859375">
        <ele>1087.5999755859375</ele>
        <time>2026-06-20T12:19:08.000Z</time>
        <extensions>
          <ns3:TrackPointExtension>
            <ns3:atemp>26.0</ns3:atemp>
          </ns3:TrackPointExtension>
        </extensions>
      </trkpt>
      <trkpt lat="42.45009035803377628326416015625" lon="20.20280800759792327880859375">
        <ele>1087.5999755859375</ele>
        <time>2026-06-20T12:19:09.000Z</time>
        <extensions>
          <ns3:TrackPointExtension>
            <ns3:atemp>26.0</ns3:atemp>
          </ns3:TrackPointExtension>
        </extensions>
      </trkpt>
      <trkpt lat="42.45009035803377628326416015625" lon="20.20280800759792327880859375">
        <ele>1087.5999755859375</ele>
        <time>2026-06-20T12:19:10.000Z</time>
        <extensions>
          <ns3:TrackPointExtension>
            <ns3:atemp>26.0</ns3:atemp>
          </ns3:TrackPointExtension>
        </extensions>
      </trkpt>
      <trkpt lat="42.45009035803377628326416015625" lon="20.20280800759792327880859375">
        <ele>1087.5999755859375</ele>
        <time>2026-06-20T12:19:11.000Z</time>
        <extensions>
          <ns3:TrackPointExtension>
            <ns3:atemp>26.0</ns3:atemp>
          </ns3:TrackPointExtension>
        </extensions>
      </trkpt>
      <trkpt lat="42.45009035803377628326416015625" lon="20.20280800759792327880859375">
        <ele>1087.5999755859375</ele>
        <time>2026-06-20T12:19:12.000Z</time>
        <extensions>
          <ns3:TrackPointExtension>
            <ns3:atemp>26.0</ns3:atemp>
          </ns3:TrackPointExtension>
        </extensions>
      </trkpt>
      <trkpt lat="42.45009035803377628326416015625" lon="20.20280800759792327880859375">
        <ele>1087.5999755859375</ele>
        <time>2026-06-20T12:19:13.000Z</time>
        <extensions>
          <ns3:TrackPointExtension>
            <ns3:atemp>26.0</ns3:atemp>
          </ns3:TrackPointExtension>
        </extensions>
      </trkpt>
      <trkpt lat="42.45009035803377628326416015625" lon="20.20280800759792327880859375">
        <ele>1087.5999755859375</ele>
        <time>2026-06-20T12:19:14.000Z</time>
        <extensions>
          <ns3:TrackPointExtension>
            <ns3:atemp>26.0</ns3:atemp>
          </ns3:TrackPointExtension>
        </extensions>
      </trkpt>
      <trkpt lat="42.45009035803377628326416015625" lon="20.20280800759792327880859375">
        <ele>1087.5999755859375</ele>
        <time>2026-06-20T12:19:15.000Z</time>
        <extensions>
          <ns3:TrackPointExtension>
            <ns3:atemp>26.0</ns3:atemp>
          </ns3:TrackPointExtension>
        </extensions>
      </trkpt>
      <trkpt lat="42.45009035803377628326416015625" lon="20.20280800759792327880859375">
        <ele>1087.5999755859375</ele>
        <time>2026-06-20T12:19:16.000Z</time>
        <extensions>
          <ns3:TrackPointExtension>
            <ns3:atemp>26.0</ns3:atemp>
          </ns3:TrackPointExtension>
        </extensions>
      </trkpt>
      <trkpt lat="42.45009035803377628326416015625" lon="20.20280800759792327880859375">
        <ele>1087.5999755859375</ele>
        <time>2026-06-20T12:19:17.000Z</time>
        <extensions>
          <ns3:TrackPointExtension>
            <ns3:atemp>26.0</ns3:atemp>
          </ns3:TrackPointExtension>
        </extensions>
      </trkpt>
      <trkpt lat="42.45009035803377628326416015625" lon="20.20280800759792327880859375">
        <ele>1087.5999755859375</ele>
        <time>2026-06-20T12:19:18.000Z</time>
        <extensions>
          <ns3:TrackPointExtension>
            <ns3:atemp>26.0</ns3:atemp>
          </ns3:TrackPointExtension>
        </extensions>
      </trkpt>
      <trkpt lat="42.45009035803377628326416015625" lon="20.20280800759792327880859375">
        <ele>1087.5999755859375</ele>
        <time>2026-06-20T12:19:19.000Z</time>
        <extensions>
          <ns3:TrackPointExtension>
            <ns3:atemp>26.0</ns3:atemp>
          </ns3:TrackPointExtension>
        </extensions>
      </trkpt>
      <trkpt lat="42.45009035803377628326416015625" lon="20.20280800759792327880859375">
        <ele>1087.5999755859375</ele>
        <time>2026-06-20T12:19:20.000Z</time>
        <extensions>
          <ns3:TrackPointExtension>
            <ns3:atemp>26.0</ns3:atemp>
          </ns3:TrackPointExtension>
        </extensions>
      </trkpt>
      <trkpt lat="42.45009035803377628326416015625" lon="20.20280800759792327880859375">
        <ele>1087.5999755859375</ele>
        <time>2026-06-20T12:19:21.000Z</time>
        <extensions>
          <ns3:TrackPointExtension>
            <ns3:atemp>26.0</ns3:atemp>
          </ns3:TrackPointExtension>
        </extensions>
      </trkpt>
      <trkpt lat="42.45009035803377628326416015625" lon="20.20280800759792327880859375">
        <ele>1087.5999755859375</ele>
        <time>2026-06-20T12:19:22.000Z</time>
        <extensions>
          <ns3:TrackPointExtension>
            <ns3:atemp>26.0</ns3:atemp>
          </ns3:TrackPointExtension>
        </extensions>
      </trkpt>
      <trkpt lat="42.45009035803377628326416015625" lon="20.20280800759792327880859375">
        <ele>1087.5999755859375</ele>
        <time>2026-06-20T12:19:23.000Z</time>
        <extensions>
          <ns3:TrackPointExtension>
            <ns3:atemp>26.0</ns3:atemp>
          </ns3:TrackPointExtension>
        </extensions>
      </trkpt>
      <trkpt lat="42.45009035803377628326416015625" lon="20.20280800759792327880859375">
        <ele>1087.5999755859375</ele>
        <time>2026-06-20T12:19:24.000Z</time>
        <extensions>
          <ns3:TrackPointExtension>
            <ns3:atemp>26.0</ns3:atemp>
          </ns3:TrackPointExtension>
        </extensions>
      </trkpt>
      <trkpt lat="42.45009035803377628326416015625" lon="20.20280800759792327880859375">
        <ele>1087.5999755859375</ele>
        <time>2026-06-20T12:19:25.000Z</time>
        <extensions>
          <ns3:TrackPointExtension>
            <ns3:atemp>26.0</ns3:atemp>
          </ns3:TrackPointExtension>
        </extensions>
      </trkpt>
      <trkpt lat="42.45009035803377628326416015625" lon="20.20280800759792327880859375">
        <ele>1087.5999755859375</ele>
        <time>2026-06-20T12:19:26.000Z</time>
        <extensions>
          <ns3:TrackPointExtension>
            <ns3:atemp>26.0</ns3:atemp>
          </ns3:TrackPointExtension>
        </extensions>
      </trkpt>
      <trkpt lat="42.45009035803377628326416015625" lon="20.20280800759792327880859375">
        <ele>1087.5999755859375</ele>
        <time>2026-06-20T12:19:27.000Z</time>
        <extensions>
          <ns3:TrackPointExtension>
            <ns3:atemp>26.0</ns3:atemp>
          </ns3:TrackPointExtension>
        </extensions>
      </trkpt>
      <trkpt lat="42.45009035803377628326416015625" lon="20.20280800759792327880859375">
        <ele>1087.5999755859375</ele>
        <time>2026-06-20T12:19:28.000Z</time>
        <extensions>
          <ns3:TrackPointExtension>
            <ns3:atemp>26.0</ns3:atemp>
          </ns3:TrackPointExtension>
        </extensions>
      </trkpt>
      <trkpt lat="42.45009035803377628326416015625" lon="20.20280800759792327880859375">
        <ele>1087.5999755859375</ele>
        <time>2026-06-20T12:19:29.000Z</time>
        <extensions>
          <ns3:TrackPointExtension>
            <ns3:atemp>26.0</ns3:atemp>
          </ns3:TrackPointExtension>
        </extensions>
      </trkpt>
      <trkpt lat="42.45009035803377628326416015625" lon="20.20280800759792327880859375">
        <ele>1087.5999755859375</ele>
        <time>2026-06-20T12:19:30.000Z</time>
        <extensions>
          <ns3:TrackPointExtension>
            <ns3:atemp>26.0</ns3:atemp>
          </ns3:TrackPointExtension>
        </extensions>
      </trkpt>
      <trkpt lat="42.45009035803377628326416015625" lon="20.20280800759792327880859375">
        <ele>1087.5999755859375</ele>
        <time>2026-06-20T12:19:31.000Z</time>
        <extensions>
          <ns3:TrackPointExtension>
            <ns3:atemp>26.0</ns3:atemp>
          </ns3:TrackPointExtension>
        </extensions>
      </trkpt>
      <trkpt lat="42.45009035803377628326416015625" lon="20.20280800759792327880859375">
        <ele>1087.5999755859375</ele>
        <time>2026-06-20T12:19:32.000Z</time>
        <extensions>
          <ns3:TrackPointExtension>
            <ns3:atemp>26.0</ns3:atemp>
          </ns3:TrackPointExtension>
        </extensions>
      </trkpt>
      <trkpt lat="42.45009035803377628326416015625" lon="20.20280800759792327880859375">
        <ele>1087.5999755859375</ele>
        <time>2026-06-20T12:19:33.000Z</time>
        <extensions>
          <ns3:TrackPointExtension>
            <ns3:atemp>26.0</ns3:atemp>
          </ns3:TrackPointExtension>
        </extensions>
      </trkpt>
      <trkpt lat="42.45009035803377628326416015625" lon="20.20280800759792327880859375">
        <ele>1087.5999755859375</ele>
        <time>2026-06-20T12:19:34.000Z</time>
        <extensions>
          <ns3:TrackPointExtension>
            <ns3:atemp>26.0</ns3:atemp>
          </ns3:TrackPointExtension>
        </extensions>
      </trkpt>
      <trkpt lat="42.45009035803377628326416015625" lon="20.20280800759792327880859375">
        <ele>1087.5999755859375</ele>
        <time>2026-06-20T12:19:35.000Z</time>
        <extensions>
          <ns3:TrackPointExtension>
            <ns3:atemp>26.0</ns3:atemp>
          </ns3:TrackPointExtension>
        </extensions>
      </trkpt>
      <trkpt lat="42.45009035803377628326416015625" lon="20.20280800759792327880859375">
        <ele>1087.5999755859375</ele>
        <time>2026-06-20T12:19:36.000Z</time>
        <extensions>
          <ns3:TrackPointExtension>
            <ns3:atemp>26.0</ns3:atemp>
          </ns3:TrackPointExtension>
        </extensions>
      </trkpt>
      <trkpt lat="42.45009035803377628326416015625" lon="20.20280800759792327880859375">
        <ele>1087.5999755859375</ele>
        <time>2026-06-20T12:19:37.000Z</time>
        <extensions>
          <ns3:TrackPointExtension>
            <ns3:atemp>26.0</ns3:atemp>
          </ns3:TrackPointExtension>
        </extensions>
      </trkpt>
      <trkpt lat="42.45009035803377628326416015625" lon="20.20280800759792327880859375">
        <ele>1087.5999755859375</ele>
        <time>2026-06-20T12:19:38.000Z</time>
        <extensions>
          <ns3:TrackPointExtension>
            <ns3:atemp>26.0</ns3:atemp>
          </ns3:TrackPointExtension>
        </extensions>
      </trkpt>
      <trkpt lat="42.45009035803377628326416015625" lon="20.20280800759792327880859375">
        <ele>1087.5999755859375</ele>
        <time>2026-06-20T12:19:39.000Z</time>
        <extensions>
          <ns3:TrackPointExtension>
            <ns3:atemp>26.0</ns3:atemp>
          </ns3:TrackPointExtension>
        </extensions>
      </trkpt>
      <trkpt lat="42.45009035803377628326416015625" lon="20.20280800759792327880859375">
        <ele>1087.5999755859375</ele>
        <time>2026-06-20T12:19:40.000Z</time>
        <extensions>
          <ns3:TrackPointExtension>
            <ns3:atemp>26.0</ns3:atemp>
          </ns3:TrackPointExtension>
        </extensions>
      </trkpt>
      <trkpt lat="42.45009035803377628326416015625" lon="20.20280800759792327880859375">
        <ele>1087.5999755859375</ele>
        <time>2026-06-20T12:19:41.000Z</time>
        <extensions>
          <ns3:TrackPointExtension>
            <ns3:atemp>26.0</ns3:atemp>
          </ns3:TrackPointExtension>
        </extensions>
      </trkpt>
      <trkpt lat="42.45009035803377628326416015625" lon="20.20280800759792327880859375">
        <ele>1087.5999755859375</ele>
        <time>2026-06-20T12:19:42.000Z</time>
        <extensions>
          <ns3:TrackPointExtension>
            <ns3:atemp>26.0</ns3:atemp>
          </ns3:TrackPointExtension>
        </extensions>
      </trkpt>
      <trkpt lat="42.45009035803377628326416015625" lon="20.20280800759792327880859375">
        <ele>1087.5999755859375</ele>
        <time>2026-06-20T12:19:43.000Z</time>
        <extensions>
          <ns3:TrackPointExtension>
            <ns3:atemp>26.0</ns3:atemp>
          </ns3:TrackPointExtension>
        </extensions>
      </trkpt>
      <trkpt lat="42.45009035803377628326416015625" lon="20.20280800759792327880859375">
        <ele>1087.5999755859375</ele>
        <time>2026-06-20T12:19:44.000Z</time>
        <extensions>
          <ns3:TrackPointExtension>
            <ns3:atemp>26.0</ns3:atemp>
          </ns3:TrackPointExtension>
        </extensions>
      </trkpt>
      <trkpt lat="42.45009035803377628326416015625" lon="20.20280800759792327880859375">
        <ele>1087.5999755859375</ele>
        <time>2026-06-20T12:19:45.000Z</time>
        <extensions>
          <ns3:TrackPointExtension>
            <ns3:atemp>26.0</ns3:atemp>
          </ns3:TrackPointExtension>
        </extensions>
      </trkpt>
      <trkpt lat="42.45009035803377628326416015625" lon="20.20280800759792327880859375">
        <ele>1087.5999755859375</ele>
        <time>2026-06-20T12:19:46.000Z</time>
        <extensions>
          <ns3:TrackPointExtension>
            <ns3:atemp>26.0</ns3:atemp>
          </ns3:TrackPointExtension>
        </extensions>
      </trkpt>
      <trkpt lat="42.45009035803377628326416015625" lon="20.20280800759792327880859375">
        <ele>1087.5999755859375</ele>
        <time>2026-06-20T12:19:47.000Z</time>
        <extensions>
          <ns3:TrackPointExtension>
            <ns3:atemp>26.0</ns3:atemp>
          </ns3:TrackPointExtension>
        </extensions>
      </trkpt>
      <trkpt lat="42.45009035803377628326416015625" lon="20.20280800759792327880859375">
        <ele>1087.5999755859375</ele>
        <time>2026-06-20T12:19:48.000Z</time>
        <extensions>
          <ns3:TrackPointExtension>
            <ns3:atemp>26.0</ns3:atemp>
          </ns3:TrackPointExtension>
        </extensions>
      </trkpt>
      <trkpt lat="42.45009035803377628326416015625" lon="20.20280800759792327880859375">
        <ele>1087.5999755859375</ele>
        <time>2026-06-20T12:19:49.000Z</time>
        <extensions>
          <ns3:TrackPointExtension>
            <ns3:atemp>26.0</ns3:atemp>
          </ns3:TrackPointExtension>
        </extensions>
      </trkpt>
      <trkpt lat="42.45009035803377628326416015625" lon="20.20280800759792327880859375">
        <ele>1087.5999755859375</ele>
        <time>2026-06-20T12:19:50.000Z</time>
        <extensions>
          <ns3:TrackPointExtension>
            <ns3:atemp>26.0</ns3:atemp>
          </ns3:TrackPointExtension>
        </extensions>
      </trkpt>
      <trkpt lat="42.45009035803377628326416015625" lon="20.20280800759792327880859375">
        <ele>1087.5999755859375</ele>
        <time>2026-06-20T12:19:51.000Z</time>
        <extensions>
          <ns3:TrackPointExtension>
            <ns3:atemp>26.0</ns3:atemp>
          </ns3:TrackPointExtension>
        </extensions>
      </trkpt>
      <trkpt lat="42.45009035803377628326416015625" lon="20.20280800759792327880859375">
        <ele>1087.5999755859375</ele>
        <time>2026-06-20T12:19:52.000Z</time>
        <extensions>
          <ns3:TrackPointExtension>
            <ns3:atemp>26.0</ns3:atemp>
          </ns3:TrackPointExtension>
        </extensions>
      </trkpt>
      <trkpt lat="42.45009035803377628326416015625" lon="20.20280800759792327880859375">
        <ele>1087.5999755859375</ele>
        <time>2026-06-20T12:19:53.000Z</time>
        <extensions>
          <ns3:TrackPointExtension>
            <ns3:atemp>26.0</ns3:atemp>
          </ns3:TrackPointExtension>
        </extensions>
      </trkpt>
      <trkpt lat="42.45009035803377628326416015625" lon="20.20280800759792327880859375">
        <ele>1087.5999755859375</ele>
        <time>2026-06-20T12:19:54.000Z</time>
        <extensions>
          <ns3:TrackPointExtension>
            <ns3:atemp>26.0</ns3:atemp>
          </ns3:TrackPointExtension>
        </extensions>
      </trkpt>
      <trkpt lat="42.45009035803377628326416015625" lon="20.20280800759792327880859375">
        <ele>1087.5999755859375</ele>
        <time>2026-06-20T12:19:55.000Z</time>
        <extensions>
          <ns3:TrackPointExtension>
            <ns3:atemp>26.0</ns3:atemp>
          </ns3:TrackPointExtension>
        </extensions>
      </trkpt>
      <trkpt lat="42.45009035803377628326416015625" lon="20.20280800759792327880859375">
        <ele>1087.5999755859375</ele>
        <time>2026-06-20T12:19:56.000Z</time>
        <extensions>
          <ns3:TrackPointExtension>
            <ns3:atemp>26.0</ns3:atemp>
          </ns3:TrackPointExtension>
        </extensions>
      </trkpt>
      <trkpt lat="42.45009035803377628326416015625" lon="20.20280800759792327880859375">
        <ele>1087.5999755859375</ele>
        <time>2026-06-20T12:19:57.000Z</time>
        <extensions>
          <ns3:TrackPointExtension>
            <ns3:atemp>26.0</ns3:atemp>
          </ns3:TrackPointExtension>
        </extensions>
      </trkpt>
      <trkpt lat="42.45009035803377628326416015625" lon="20.20280800759792327880859375">
        <ele>1087.5999755859375</ele>
        <time>2026-06-20T12:19:58.000Z</time>
        <extensions>
          <ns3:TrackPointExtension>
            <ns3:atemp>26.0</ns3:atemp>
          </ns3:TrackPointExtension>
        </extensions>
      </trkpt>
      <trkpt lat="42.45009035803377628326416015625" lon="20.20280800759792327880859375">
        <ele>1087.5999755859375</ele>
        <time>2026-06-20T12:19:59.000Z</time>
        <extensions>
          <ns3:TrackPointExtension>
            <ns3:atemp>26.0</ns3:atemp>
          </ns3:TrackPointExtension>
        </extensions>
      </trkpt>
      <trkpt lat="42.45009035803377628326416015625" lon="20.20280800759792327880859375">
        <ele>1087.5999755859375</ele>
        <time>2026-06-20T12:20:00.000Z</time>
        <extensions>
          <ns3:TrackPointExtension>
            <ns3:atemp>26.0</ns3:atemp>
          </ns3:TrackPointExtension>
        </extensions>
      </trkpt>
      <trkpt lat="42.45009035803377628326416015625" lon="20.20280800759792327880859375">
        <ele>1087.5999755859375</ele>
        <time>2026-06-20T12:20:01.000Z</time>
        <extensions>
          <ns3:TrackPointExtension>
            <ns3:atemp>26.0</ns3:atemp>
          </ns3:TrackPointExtension>
        </extensions>
      </trkpt>
      <trkpt lat="42.45009035803377628326416015625" lon="20.20280800759792327880859375">
        <ele>1087.5999755859375</ele>
        <time>2026-06-20T12:20:02.000Z</time>
        <extensions>
          <ns3:TrackPointExtension>
            <ns3:atemp>26.0</ns3:atemp>
          </ns3:TrackPointExtension>
        </extensions>
      </trkpt>
      <trkpt lat="42.45009035803377628326416015625" lon="20.20280800759792327880859375">
        <ele>1087.5999755859375</ele>
        <time>2026-06-20T12:20:03.000Z</time>
        <extensions>
          <ns3:TrackPointExtension>
            <ns3:atemp>26.0</ns3:atemp>
          </ns3:TrackPointExtension>
        </extensions>
      </trkpt>
      <trkpt lat="42.45009035803377628326416015625" lon="20.20280800759792327880859375">
        <ele>1087.5999755859375</ele>
        <time>2026-06-20T12:20:04.000Z</time>
        <extensions>
          <ns3:TrackPointExtension>
            <ns3:atemp>26.0</ns3:atemp>
          </ns3:TrackPointExtension>
        </extensions>
      </trkpt>
      <trkpt lat="42.45009035803377628326416015625" lon="20.20280800759792327880859375">
        <ele>1087.5999755859375</ele>
        <time>2026-06-20T12:20:05.000Z</time>
        <extensions>
          <ns3:TrackPointExtension>
            <ns3:atemp>26.0</ns3:atemp>
          </ns3:TrackPointExtension>
        </extensions>
      </trkpt>
      <trkpt lat="42.45009035803377628326416015625" lon="20.20280800759792327880859375">
        <ele>1087.5999755859375</ele>
        <time>2026-06-20T12:20:06.000Z</time>
        <extensions>
          <ns3:TrackPointExtension>
            <ns3:atemp>26.0</ns3:atemp>
          </ns3:TrackPointExtension>
        </extensions>
      </trkpt>
      <trkpt lat="42.45009035803377628326416015625" lon="20.20280800759792327880859375">
        <ele>1087.5999755859375</ele>
        <time>2026-06-20T12:20:07.000Z</time>
        <extensions>
          <ns3:TrackPointExtension>
            <ns3:atemp>26.0</ns3:atemp>
          </ns3:TrackPointExtension>
        </extensions>
      </trkpt>
      <trkpt lat="42.45009035803377628326416015625" lon="20.20280800759792327880859375">
        <ele>1087.5999755859375</ele>
        <time>2026-06-20T12:20:08.000Z</time>
        <extensions>
          <ns3:TrackPointExtension>
            <ns3:atemp>26.0</ns3:atemp>
          </ns3:TrackPointExtension>
        </extensions>
      </trkpt>
      <trkpt lat="42.45009035803377628326416015625" lon="20.20280800759792327880859375">
        <ele>1087.5999755859375</ele>
        <time>2026-06-20T12:20:09.000Z</time>
        <extensions>
          <ns3:TrackPointExtension>
            <ns3:atemp>26.0</ns3:atemp>
          </ns3:TrackPointExtension>
        </extensions>
      </trkpt>
      <trkpt lat="42.45009035803377628326416015625" lon="20.20280800759792327880859375">
        <ele>1087.5999755859375</ele>
        <time>2026-06-20T12:20:10.000Z</time>
        <extensions>
          <ns3:TrackPointExtension>
            <ns3:atemp>26.0</ns3:atemp>
          </ns3:TrackPointExtension>
        </extensions>
      </trkpt>
      <trkpt lat="42.45009035803377628326416015625" lon="20.20280800759792327880859375">
        <ele>1087.5999755859375</ele>
        <time>2026-06-20T12:20:11.000Z</time>
        <extensions>
          <ns3:TrackPointExtension>
            <ns3:atemp>26.0</ns3:atemp>
          </ns3:TrackPointExtension>
        </extensions>
      </trkpt>
      <trkpt lat="42.45009035803377628326416015625" lon="20.20280800759792327880859375">
        <ele>1087.5999755859375</ele>
        <time>2026-06-20T12:20:12.000Z</time>
        <extensions>
          <ns3:TrackPointExtension>
            <ns3:atemp>26.0</ns3:atemp>
          </ns3:TrackPointExtension>
        </extensions>
      </trkpt>
      <trkpt lat="42.45009035803377628326416015625" lon="20.20280800759792327880859375">
        <ele>1087.5999755859375</ele>
        <time>2026-06-20T12:20:13.000Z</time>
        <extensions>
          <ns3:TrackPointExtension>
            <ns3:atemp>26.0</ns3:atemp>
          </ns3:TrackPointExtension>
        </extensions>
      </trkpt>
      <trkpt lat="42.45009035803377628326416015625" lon="20.20280800759792327880859375">
        <ele>1087.5999755859375</ele>
        <time>2026-06-20T12:20:14.000Z</time>
        <extensions>
          <ns3:TrackPointExtension>
            <ns3:atemp>26.0</ns3:atemp>
          </ns3:TrackPointExtension>
        </extensions>
      </trkpt>
      <trkpt lat="42.45009035803377628326416015625" lon="20.20280800759792327880859375">
        <ele>1087.5999755859375</ele>
        <time>2026-06-20T12:20:15.000Z</time>
        <extensions>
          <ns3:TrackPointExtension>
            <ns3:atemp>26.0</ns3:atemp>
          </ns3:TrackPointExtension>
        </extensions>
      </trkpt>
      <trkpt lat="42.45009035803377628326416015625" lon="20.20280800759792327880859375">
        <ele>1087.5999755859375</ele>
        <time>2026-06-20T12:20:16.000Z</time>
        <extensions>
          <ns3:TrackPointExtension>
            <ns3:atemp>26.0</ns3:atemp>
          </ns3:TrackPointExtension>
        </extensions>
      </trkpt>
      <trkpt lat="42.45009035803377628326416015625" lon="20.20280800759792327880859375">
        <ele>1087.5999755859375</ele>
        <time>2026-06-20T12:20:17.000Z</time>
        <extensions>
          <ns3:TrackPointExtension>
            <ns3:atemp>26.0</ns3:atemp>
          </ns3:TrackPointExtension>
        </extensions>
      </trkpt>
      <trkpt lat="42.45009035803377628326416015625" lon="20.20280800759792327880859375">
        <ele>1087.5999755859375</ele>
        <time>2026-06-20T12:20:18.000Z</time>
        <extensions>
          <ns3:TrackPointExtension>
            <ns3:atemp>26.0</ns3:atemp>
          </ns3:TrackPointExtension>
        </extensions>
      </trkpt>
      <trkpt lat="42.45009035803377628326416015625" lon="20.20280800759792327880859375">
        <ele>1087.5999755859375</ele>
        <time>2026-06-20T12:20:19.000Z</time>
        <extensions>
          <ns3:TrackPointExtension>
            <ns3:atemp>26.0</ns3:atemp>
          </ns3:TrackPointExtension>
        </extensions>
      </trkpt>
      <trkpt lat="42.45009035803377628326416015625" lon="20.20280800759792327880859375">
        <ele>1087.5999755859375</ele>
        <time>2026-06-20T12:20:20.000Z</time>
        <extensions>
          <ns3:TrackPointExtension>
            <ns3:atemp>26.0</ns3:atemp>
          </ns3:TrackPointExtension>
        </extensions>
      </trkpt>
      <trkpt lat="42.45009035803377628326416015625" lon="20.20280800759792327880859375">
        <ele>1087.5999755859375</ele>
        <time>2026-06-20T12:20:21.000Z</time>
        <extensions>
          <ns3:TrackPointExtension>
            <ns3:atemp>26.0</ns3:atemp>
          </ns3:TrackPointExtension>
        </extensions>
      </trkpt>
      <trkpt lat="42.45009035803377628326416015625" lon="20.20280800759792327880859375">
        <ele>1087.5999755859375</ele>
        <time>2026-06-20T12:20:22.000Z</time>
        <extensions>
          <ns3:TrackPointExtension>
            <ns3:atemp>26.0</ns3:atemp>
          </ns3:TrackPointExtension>
        </extensions>
      </trkpt>
      <trkpt lat="42.45009035803377628326416015625" lon="20.20280800759792327880859375">
        <ele>1087.5999755859375</ele>
        <time>2026-06-20T12:20:23.000Z</time>
        <extensions>
          <ns3:TrackPointExtension>
            <ns3:atemp>26.0</ns3:atemp>
          </ns3:TrackPointExtension>
        </extensions>
      </trkpt>
      <trkpt lat="42.45009035803377628326416015625" lon="20.20280800759792327880859375">
        <ele>1087.5999755859375</ele>
        <time>2026-06-20T12:20:24.000Z</time>
        <extensions>
          <ns3:TrackPointExtension>
            <ns3:atemp>26.0</ns3:atemp>
          </ns3:TrackPointExtension>
        </extensions>
      </trkpt>
      <trkpt lat="42.45009035803377628326416015625" lon="20.20280800759792327880859375">
        <ele>1087.5999755859375</ele>
        <time>2026-06-20T12:20:25.000Z</time>
        <extensions>
          <ns3:TrackPointExtension>
            <ns3:atemp>26.0</ns3:atemp>
          </ns3:TrackPointExtension>
        </extensions>
      </trkpt>
      <trkpt lat="42.45009035803377628326416015625" lon="20.20280800759792327880859375">
        <ele>1087.5999755859375</ele>
        <time>2026-06-20T12:20:26.000Z</time>
        <extensions>
          <ns3:TrackPointExtension>
            <ns3:atemp>26.0</ns3:atemp>
          </ns3:TrackPointExtension>
        </extensions>
      </trkpt>
      <trkpt lat="42.45009035803377628326416015625" lon="20.20280800759792327880859375">
        <ele>1087.5999755859375</ele>
        <time>2026-06-20T12:20:27.000Z</time>
        <extensions>
          <ns3:TrackPointExtension>
            <ns3:atemp>26.0</ns3:atemp>
          </ns3:TrackPointExtension>
        </extensions>
      </trkpt>
      <trkpt lat="42.45009035803377628326416015625" lon="20.20280800759792327880859375">
        <ele>1087.5999755859375</ele>
        <time>2026-06-20T12:20:28.000Z</time>
        <extensions>
          <ns3:TrackPointExtension>
            <ns3:atemp>26.0</ns3:atemp>
          </ns3:TrackPointExtension>
        </extensions>
      </trkpt>
      <trkpt lat="42.45009035803377628326416015625" lon="20.20280800759792327880859375">
        <ele>1087.5999755859375</ele>
        <time>2026-06-20T12:20:29.000Z</time>
        <extensions>
          <ns3:TrackPointExtension>
            <ns3:atemp>26.0</ns3:atemp>
          </ns3:TrackPointExtension>
        </extensions>
      </trkpt>
      <trkpt lat="42.45009035803377628326416015625" lon="20.20280800759792327880859375">
        <ele>1087.5999755859375</ele>
        <time>2026-06-20T12:20:30.000Z</time>
        <extensions>
          <ns3:TrackPointExtension>
            <ns3:atemp>26.0</ns3:atemp>
          </ns3:TrackPointExtension>
        </extensions>
      </trkpt>
      <trkpt lat="42.45009035803377628326416015625" lon="20.20280800759792327880859375">
        <ele>1087.5999755859375</ele>
        <time>2026-06-20T12:20:31.000Z</time>
        <extensions>
          <ns3:TrackPointExtension>
            <ns3:atemp>26.0</ns3:atemp>
          </ns3:TrackPointExtension>
        </extensions>
      </trkpt>
      <trkpt lat="42.45009035803377628326416015625" lon="20.20280800759792327880859375">
        <ele>1087.5999755859375</ele>
        <time>2026-06-20T12:20:32.000Z</time>
        <extensions>
          <ns3:TrackPointExtension>
            <ns3:atemp>26.0</ns3:atemp>
          </ns3:TrackPointExtension>
        </extensions>
      </trkpt>
      <trkpt lat="42.45009035803377628326416015625" lon="20.20280800759792327880859375">
        <ele>1087.5999755859375</ele>
        <time>2026-06-20T12:20:33.000Z</time>
        <extensions>
          <ns3:TrackPointExtension>
            <ns3:atemp>26.0</ns3:atemp>
          </ns3:TrackPointExtension>
        </extensions>
      </trkpt>
      <trkpt lat="42.45009035803377628326416015625" lon="20.20280800759792327880859375">
        <ele>1087.5999755859375</ele>
        <time>2026-06-20T12:20:34.000Z</time>
        <extensions>
          <ns3:TrackPointExtension>
            <ns3:atemp>26.0</ns3:atemp>
          </ns3:TrackPointExtension>
        </extensions>
      </trkpt>
      <trkpt lat="42.45009035803377628326416015625" lon="20.20280800759792327880859375">
        <ele>1087.5999755859375</ele>
        <time>2026-06-20T12:20:35.000Z</time>
        <extensions>
          <ns3:TrackPointExtension>
            <ns3:atemp>26.0</ns3:atemp>
          </ns3:TrackPointExtension>
        </extensions>
      </trkpt>
      <trkpt lat="42.45009035803377628326416015625" lon="20.20280800759792327880859375">
        <ele>1087.5999755859375</ele>
        <time>2026-06-20T12:20:36.000Z</time>
        <extensions>
          <ns3:TrackPointExtension>
            <ns3:atemp>26.0</ns3:atemp>
          </ns3:TrackPointExtension>
        </extensions>
      </trkpt>
      <trkpt lat="42.45009035803377628326416015625" lon="20.20280800759792327880859375">
        <ele>1087.5999755859375</ele>
        <time>2026-06-20T12:20:37.000Z</time>
        <extensions>
          <ns3:TrackPointExtension>
            <ns3:atemp>26.0</ns3:atemp>
          </ns3:TrackPointExtension>
        </extensions>
      </trkpt>
      <trkpt lat="42.45009035803377628326416015625" lon="20.20280800759792327880859375">
        <ele>1087.5999755859375</ele>
        <time>2026-06-20T12:20:38.000Z</time>
        <extensions>
          <ns3:TrackPointExtension>
            <ns3:atemp>26.0</ns3:atemp>
          </ns3:TrackPointExtension>
        </extensions>
      </trkpt>
      <trkpt lat="42.45009035803377628326416015625" lon="20.20280800759792327880859375">
        <ele>1087.5999755859375</ele>
        <time>2026-06-20T12:20:39.000Z</time>
        <extensions>
          <ns3:TrackPointExtension>
            <ns3:atemp>26.0</ns3:atemp>
          </ns3:TrackPointExtension>
        </extensions>
      </trkpt>
      <trkpt lat="42.45009035803377628326416015625" lon="20.20280800759792327880859375">
        <ele>1087.5999755859375</ele>
        <time>2026-06-20T12:20:40.000Z</time>
        <extensions>
          <ns3:TrackPointExtension>
            <ns3:atemp>26.0</ns3:atemp>
          </ns3:TrackPointExtension>
        </extensions>
      </trkpt>
      <trkpt lat="42.45009035803377628326416015625" lon="20.20280800759792327880859375">
        <ele>1087.5999755859375</ele>
        <time>2026-06-20T12:20:41.000Z</time>
        <extensions>
          <ns3:TrackPointExtension>
            <ns3:atemp>26.0</ns3:atemp>
          </ns3:TrackPointExtension>
        </extensions>
      </trkpt>
      <trkpt lat="42.45009035803377628326416015625" lon="20.20280800759792327880859375">
        <ele>1087.5999755859375</ele>
        <time>2026-06-20T12:20:42.000Z</time>
        <extensions>
          <ns3:TrackPointExtension>
            <ns3:atemp>26.0</ns3:atemp>
          </ns3:TrackPointExtension>
        </extensions>
      </trkpt>
      <trkpt lat="42.45009035803377628326416015625" lon="20.20280800759792327880859375">
        <ele>1087.5999755859375</ele>
        <time>2026-06-20T12:20:43.000Z</time>
        <extensions>
          <ns3:TrackPointExtension>
            <ns3:atemp>26.0</ns3:atemp>
          </ns3:TrackPointExtension>
        </extensions>
      </trkpt>
      <trkpt lat="42.45009035803377628326416015625" lon="20.20280800759792327880859375">
        <ele>1087.5999755859375</ele>
        <time>2026-06-20T12:20:44.000Z</time>
        <extensions>
          <ns3:TrackPointExtension>
            <ns3:atemp>26.0</ns3:atemp>
          </ns3:TrackPointExtension>
        </extensions>
      </trkpt>
      <trkpt lat="42.45009035803377628326416015625" lon="20.20280800759792327880859375">
        <ele>1087.5999755859375</ele>
        <time>2026-06-20T12:20:45.000Z</time>
        <extensions>
          <ns3:TrackPointExtension>
            <ns3:atemp>26.0</ns3:atemp>
          </ns3:TrackPointExtension>
        </extensions>
      </trkpt>
      <trkpt lat="42.45009035803377628326416015625" lon="20.20280800759792327880859375">
        <ele>1087.5999755859375</ele>
        <time>2026-06-20T12:20:46.000Z</time>
        <extensions>
          <ns3:TrackPointExtension>
            <ns3:atemp>26.0</ns3:atemp>
          </ns3:TrackPointExtension>
        </extensions>
      </trkpt>
      <trkpt lat="42.45009035803377628326416015625" lon="20.20280800759792327880859375">
        <ele>1087.5999755859375</ele>
        <time>2026-06-20T12:20:47.000Z</time>
        <extensions>
          <ns3:TrackPointExtension>
            <ns3:atemp>26.0</ns3:atemp>
          </ns3:TrackPointExtension>
        </extensions>
      </trkpt>
      <trkpt lat="42.45009035803377628326416015625" lon="20.20280800759792327880859375">
        <ele>1087.5999755859375</ele>
        <time>2026-06-20T12:20:48.000Z</time>
        <extensions>
          <ns3:TrackPointExtension>
            <ns3:atemp>26.0</ns3:atemp>
          </ns3:TrackPointExtension>
        </extensions>
      </trkpt>
      <trkpt lat="42.45009035803377628326416015625" lon="20.20280800759792327880859375">
        <ele>1087.5999755859375</ele>
        <time>2026-06-20T12:20:49.000Z</time>
        <extensions>
          <ns3:TrackPointExtension>
            <ns3:atemp>26.0</ns3:atemp>
          </ns3:TrackPointExtension>
        </extensions>
      </trkpt>
      <trkpt lat="42.45009035803377628326416015625" lon="20.20280800759792327880859375">
        <ele>1087.5999755859375</ele>
        <time>2026-06-20T12:20:50.000Z</time>
        <extensions>
          <ns3:TrackPointExtension>
            <ns3:atemp>26.0</ns3:atemp>
          </ns3:TrackPointExtension>
        </extensions>
      </trkpt>
      <trkpt lat="42.45009035803377628326416015625" lon="20.20280800759792327880859375">
        <ele>1087.5999755859375</ele>
        <time>2026-06-20T12:20:51.000Z</time>
        <extensions>
          <ns3:TrackPointExtension>
            <ns3:atemp>26.0</ns3:atemp>
          </ns3:TrackPointExtension>
        </extensions>
      </trkpt>
      <trkpt lat="42.45009035803377628326416015625" lon="20.20280800759792327880859375">
        <ele>1087.5999755859375</ele>
        <time>2026-06-20T12:20:52.000Z</time>
        <extensions>
          <ns3:TrackPointExtension>
            <ns3:atemp>26.0</ns3:atemp>
          </ns3:TrackPointExtension>
        </extensions>
      </trkpt>
      <trkpt lat="42.45009035803377628326416015625" lon="20.20280800759792327880859375">
        <ele>1087.5999755859375</ele>
        <time>2026-06-20T12:20:53.000Z</time>
        <extensions>
          <ns3:TrackPointExtension>
            <ns3:atemp>26.0</ns3:atemp>
          </ns3:TrackPointExtension>
        </extensions>
      </trkpt>
      <trkpt lat="42.45009035803377628326416015625" lon="20.20280800759792327880859375">
        <ele>1087.5999755859375</ele>
        <time>2026-06-20T12:20:54.000Z</time>
        <extensions>
          <ns3:TrackPointExtension>
            <ns3:atemp>26.0</ns3:atemp>
          </ns3:TrackPointExtension>
        </extensions>
      </trkpt>
      <trkpt lat="42.45009035803377628326416015625" lon="20.20280800759792327880859375">
        <ele>1087.5999755859375</ele>
        <time>2026-06-20T12:20:55.000Z</time>
        <extensions>
          <ns3:TrackPointExtension>
            <ns3:atemp>26.0</ns3:atemp>
          </ns3:TrackPointExtension>
        </extensions>
      </trkpt>
      <trkpt lat="42.45009035803377628326416015625" lon="20.20280800759792327880859375">
        <ele>1087.5999755859375</ele>
        <time>2026-06-20T12:20:56.000Z</time>
        <extensions>
          <ns3:TrackPointExtension>
            <ns3:atemp>26.0</ns3:atemp>
          </ns3:TrackPointExtension>
        </extensions>
      </trkpt>
      <trkpt lat="42.45009035803377628326416015625" lon="20.20280800759792327880859375">
        <ele>1087.5999755859375</ele>
        <time>2026-06-20T12:20:57.000Z</time>
        <extensions>
          <ns3:TrackPointExtension>
            <ns3:atemp>26.0</ns3:atemp>
          </ns3:TrackPointExtension>
        </extensions>
      </trkpt>
      <trkpt lat="42.45009035803377628326416015625" lon="20.20280800759792327880859375">
        <ele>1087.5999755859375</ele>
        <time>2026-06-20T12:20:58.000Z</time>
        <extensions>
          <ns3:TrackPointExtension>
            <ns3:atemp>26.0</ns3:atemp>
          </ns3:TrackPointExtension>
        </extensions>
      </trkpt>
      <trkpt lat="42.45009035803377628326416015625" lon="20.20280800759792327880859375">
        <ele>1087.5999755859375</ele>
        <time>2026-06-20T12:20:59.000Z</time>
        <extensions>
          <ns3:TrackPointExtension>
            <ns3:atemp>26.0</ns3:atemp>
          </ns3:TrackPointExtension>
        </extensions>
      </trkpt>
      <trkpt lat="42.45009035803377628326416015625" lon="20.20280800759792327880859375">
        <ele>1087.5999755859375</ele>
        <time>2026-06-20T12:21:00.000Z</time>
        <extensions>
          <ns3:TrackPointExtension>
            <ns3:atemp>26.0</ns3:atemp>
          </ns3:TrackPointExtension>
        </extensions>
      </trkpt>
      <trkpt lat="42.45009035803377628326416015625" lon="20.20280800759792327880859375">
        <ele>1087.5999755859375</ele>
        <time>2026-06-20T12:21:01.000Z</time>
        <extensions>
          <ns3:TrackPointExtension>
            <ns3:atemp>26.0</ns3:atemp>
          </ns3:TrackPointExtension>
        </extensions>
      </trkpt>
      <trkpt lat="42.45009035803377628326416015625" lon="20.20280800759792327880859375">
        <ele>1087.5999755859375</ele>
        <time>2026-06-20T12:21:02.000Z</time>
        <extensions>
          <ns3:TrackPointExtension>
            <ns3:atemp>26.0</ns3:atemp>
          </ns3:TrackPointExtension>
        </extensions>
      </trkpt>
      <trkpt lat="42.45009035803377628326416015625" lon="20.20280800759792327880859375">
        <ele>1087.5999755859375</ele>
        <time>2026-06-20T12:21:03.000Z</time>
        <extensions>
          <ns3:TrackPointExtension>
            <ns3:atemp>26.0</ns3:atemp>
          </ns3:TrackPointExtension>
        </extensions>
      </trkpt>
      <trkpt lat="42.45009035803377628326416015625" lon="20.20280800759792327880859375">
        <ele>1087.5999755859375</ele>
        <time>2026-06-20T12:21:04.000Z</time>
        <extensions>
          <ns3:TrackPointExtension>
            <ns3:atemp>26.0</ns3:atemp>
          </ns3:TrackPointExtension>
        </extensions>
      </trkpt>
      <trkpt lat="42.45009035803377628326416015625" lon="20.20280800759792327880859375">
        <ele>1087.5999755859375</ele>
        <time>2026-06-20T12:21:05.000Z</time>
        <extensions>
          <ns3:TrackPointExtension>
            <ns3:atemp>26.0</ns3:atemp>
          </ns3:TrackPointExtension>
        </extensions>
      </trkpt>
      <trkpt lat="42.45009035803377628326416015625" lon="20.20280800759792327880859375">
        <ele>1087.5999755859375</ele>
        <time>2026-06-20T12:21:06.000Z</time>
        <extensions>
          <ns3:TrackPointExtension>
            <ns3:atemp>26.0</ns3:atemp>
          </ns3:TrackPointExtension>
        </extensions>
      </trkpt>
      <trkpt lat="42.45009035803377628326416015625" lon="20.20280800759792327880859375">
        <ele>1087.5999755859375</ele>
        <time>2026-06-20T12:21:07.000Z</time>
        <extensions>
          <ns3:TrackPointExtension>
            <ns3:atemp>26.0</ns3:atemp>
          </ns3:TrackPointExtension>
        </extensions>
      </trkpt>
      <trkpt lat="42.45009035803377628326416015625" lon="20.20280800759792327880859375">
        <ele>1087.5999755859375</ele>
        <time>2026-06-20T12:21:08.000Z</time>
        <extensions>
          <ns3:TrackPointExtension>
            <ns3:atemp>26.0</ns3:atemp>
          </ns3:TrackPointExtension>
        </extensions>
      </trkpt>
      <trkpt lat="42.45009035803377628326416015625" lon="20.20280800759792327880859375">
        <ele>1087.5999755859375</ele>
        <time>2026-06-20T12:21:09.000Z</time>
        <extensions>
          <ns3:TrackPointExtension>
            <ns3:atemp>26.0</ns3:atemp>
          </ns3:TrackPointExtension>
        </extensions>
      </trkpt>
      <trkpt lat="42.45009035803377628326416015625" lon="20.20280800759792327880859375">
        <ele>1087.5999755859375</ele>
        <time>2026-06-20T12:21:10.000Z</time>
        <extensions>
          <ns3:TrackPointExtension>
            <ns3:atemp>26.0</ns3:atemp>
          </ns3:TrackPointExtension>
        </extensions>
      </trkpt>
      <trkpt lat="42.45009035803377628326416015625" lon="20.20280800759792327880859375">
        <ele>1087.5999755859375</ele>
        <time>2026-06-20T12:21:11.000Z</time>
        <extensions>
          <ns3:TrackPointExtension>
            <ns3:atemp>26.0</ns3:atemp>
          </ns3:TrackPointExtension>
        </extensions>
      </trkpt>
      <trkpt lat="42.45009035803377628326416015625" lon="20.20280800759792327880859375">
        <ele>1087.5999755859375</ele>
        <time>2026-06-20T12:21:12.000Z</time>
        <extensions>
          <ns3:TrackPointExtension>
            <ns3:atemp>26.0</ns3:atemp>
          </ns3:TrackPointExtension>
        </extensions>
      </trkpt>
      <trkpt lat="42.45009035803377628326416015625" lon="20.20280800759792327880859375">
        <ele>1087.5999755859375</ele>
        <time>2026-06-20T12:21:13.000Z</time>
        <extensions>
          <ns3:TrackPointExtension>
            <ns3:atemp>26.0</ns3:atemp>
          </ns3:TrackPointExtension>
        </extensions>
      </trkpt>
      <trkpt lat="42.45009035803377628326416015625" lon="20.20280800759792327880859375">
        <ele>1087.5999755859375</ele>
        <time>2026-06-20T12:21:14.000Z</time>
        <extensions>
          <ns3:TrackPointExtension>
            <ns3:atemp>26.0</ns3:atemp>
          </ns3:TrackPointExtension>
        </extensions>
      </trkpt>
      <trkpt lat="42.45009035803377628326416015625" lon="20.20280800759792327880859375">
        <ele>1087.5999755859375</ele>
        <time>2026-06-20T12:21:15.000Z</time>
        <extensions>
          <ns3:TrackPointExtension>
            <ns3:atemp>26.0</ns3:atemp>
          </ns3:TrackPointExtension>
        </extensions>
      </trkpt>
      <trkpt lat="42.45009035803377628326416015625" lon="20.20280800759792327880859375">
        <ele>1087.5999755859375</ele>
        <time>2026-06-20T12:21:16.000Z</time>
        <extensions>
          <ns3:TrackPointExtension>
            <ns3:atemp>26.0</ns3:atemp>
          </ns3:TrackPointExtension>
        </extensions>
      </trkpt>
      <trkpt lat="42.45009035803377628326416015625" lon="20.20280800759792327880859375">
        <ele>1087.5999755859375</ele>
        <time>2026-06-20T12:21:17.000Z</time>
        <extensions>
          <ns3:TrackPointExtension>
            <ns3:atemp>26.0</ns3:atemp>
          </ns3:TrackPointExtension>
        </extensions>
      </trkpt>
      <trkpt lat="42.45009035803377628326416015625" lon="20.20280800759792327880859375">
        <ele>1087.5999755859375</ele>
        <time>2026-06-20T12:21:18.000Z</time>
        <extensions>
          <ns3:TrackPointExtension>
            <ns3:atemp>26.0</ns3:atemp>
          </ns3:TrackPointExtension>
        </extensions>
      </trkpt>
      <trkpt lat="42.45009035803377628326416015625" lon="20.20280800759792327880859375">
        <ele>1087.5999755859375</ele>
        <time>2026-06-20T12:21:19.000Z</time>
        <extensions>
          <ns3:TrackPointExtension>
            <ns3:atemp>26.0</ns3:atemp>
          </ns3:TrackPointExtension>
        </extensions>
      </trkpt>
      <trkpt lat="42.45009035803377628326416015625" lon="20.20280800759792327880859375">
        <ele>1087.5999755859375</ele>
        <time>2026-06-20T12:21:20.000Z</time>
        <extensions>
          <ns3:TrackPointExtension>
            <ns3:atemp>26.0</ns3:atemp>
          </ns3:TrackPointExtension>
        </extensions>
      </trkpt>
      <trkpt lat="42.45009035803377628326416015625" lon="20.20280800759792327880859375">
        <ele>1087.5999755859375</ele>
        <time>2026-06-20T12:21:21.000Z</time>
        <extensions>
          <ns3:TrackPointExtension>
            <ns3:atemp>26.0</ns3:atemp>
          </ns3:TrackPointExtension>
        </extensions>
      </trkpt>
      <trkpt lat="42.45009035803377628326416015625" lon="20.20280800759792327880859375">
        <ele>1087.5999755859375</ele>
        <time>2026-06-20T12:21:22.000Z</time>
        <extensions>
          <ns3:TrackPointExtension>
            <ns3:atemp>26.0</ns3:atemp>
          </ns3:TrackPointExtension>
        </extensions>
      </trkpt>
      <trkpt lat="42.45009035803377628326416015625" lon="20.20280800759792327880859375">
        <ele>1087.5999755859375</ele>
        <time>2026-06-20T12:21:23.000Z</time>
        <extensions>
          <ns3:TrackPointExtension>
            <ns3:atemp>26.0</ns3:atemp>
          </ns3:TrackPointExtension>
        </extensions>
      </trkpt>
      <trkpt lat="42.45009035803377628326416015625" lon="20.20280800759792327880859375">
        <ele>1087.5999755859375</ele>
        <time>2026-06-20T12:21:24.000Z</time>
        <extensions>
          <ns3:TrackPointExtension>
            <ns3:atemp>26.0</ns3:atemp>
          </ns3:TrackPointExtension>
        </extensions>
      </trkpt>
      <trkpt lat="42.45009035803377628326416015625" lon="20.20280800759792327880859375">
        <ele>1087.5999755859375</ele>
        <time>2026-06-20T12:21:25.000Z</time>
        <extensions>
          <ns3:TrackPointExtension>
            <ns3:atemp>26.0</ns3:atemp>
          </ns3:TrackPointExtension>
        </extensions>
      </trkpt>
      <trkpt lat="42.45009035803377628326416015625" lon="20.20280800759792327880859375">
        <ele>1087.5999755859375</ele>
        <time>2026-06-20T12:21:26.000Z</time>
        <extensions>
          <ns3:TrackPointExtension>
            <ns3:atemp>26.0</ns3:atemp>
          </ns3:TrackPointExtension>
        </extensions>
      </trkpt>
      <trkpt lat="42.45009035803377628326416015625" lon="20.20280800759792327880859375">
        <ele>1087.5999755859375</ele>
        <time>2026-06-20T12:21:27.000Z</time>
        <extensions>
          <ns3:TrackPointExtension>
            <ns3:atemp>26.0</ns3:atemp>
          </ns3:TrackPointExtension>
        </extensions>
      </trkpt>
      <trkpt lat="42.45009035803377628326416015625" lon="20.20280800759792327880859375">
        <ele>1087.5999755859375</ele>
        <time>2026-06-20T12:21:28.000Z</time>
        <extensions>
          <ns3:TrackPointExtension>
            <ns3:atemp>26.0</ns3:atemp>
          </ns3:TrackPointExtension>
        </extensions>
      </trkpt>
      <trkpt lat="42.45009035803377628326416015625" lon="20.20280800759792327880859375">
        <ele>1087.5999755859375</ele>
        <time>2026-06-20T12:21:29.000Z</time>
        <extensions>
          <ns3:TrackPointExtension>
            <ns3:atemp>26.0</ns3:atemp>
          </ns3:TrackPointExtension>
        </extensions>
      </trkpt>
      <trkpt lat="42.45009035803377628326416015625" lon="20.20280800759792327880859375">
        <ele>1087.5999755859375</ele>
        <time>2026-06-20T12:21:30.000Z</time>
        <extensions>
          <ns3:TrackPointExtension>
            <ns3:atemp>26.0</ns3:atemp>
          </ns3:TrackPointExtension>
        </extensions>
      </trkpt>
      <trkpt lat="42.45009035803377628326416015625" lon="20.20280800759792327880859375">
        <ele>1087.5999755859375</ele>
        <time>2026-06-20T12:21:31.000Z</time>
        <extensions>
          <ns3:TrackPointExtension>
            <ns3:atemp>26.0</ns3:atemp>
          </ns3:TrackPointExtension>
        </extensions>
      </trkpt>
      <trkpt lat="42.45009035803377628326416015625" lon="20.20280800759792327880859375">
        <ele>1087.5999755859375</ele>
        <time>2026-06-20T12:21:32.000Z</time>
        <extensions>
          <ns3:TrackPointExtension>
            <ns3:atemp>26.0</ns3:atemp>
          </ns3:TrackPointExtension>
        </extensions>
      </trkpt>
      <trkpt lat="42.45009035803377628326416015625" lon="20.20280800759792327880859375">
        <ele>1087.5999755859375</ele>
        <time>2026-06-20T12:21:33.000Z</time>
        <extensions>
          <ns3:TrackPointExtension>
            <ns3:atemp>26.0</ns3:atemp>
          </ns3:TrackPointExtension>
        </extensions>
      </trkpt>
      <trkpt lat="42.45009035803377628326416015625" lon="20.20280800759792327880859375">
        <ele>1087.5999755859375</ele>
        <time>2026-06-20T12:21:34.000Z</time>
        <extensions>
          <ns3:TrackPointExtension>
            <ns3:atemp>26.0</ns3:atemp>
          </ns3:TrackPointExtension>
        </extensions>
      </trkpt>
      <trkpt lat="42.45009035803377628326416015625" lon="20.20280800759792327880859375">
        <ele>1087.5999755859375</ele>
        <time>2026-06-20T12:21:35.000Z</time>
        <extensions>
          <ns3:TrackPointExtension>
            <ns3:atemp>26.0</ns3:atemp>
          </ns3:TrackPointExtension>
        </extensions>
      </trkpt>
      <trkpt lat="42.45009035803377628326416015625" lon="20.20280800759792327880859375">
        <ele>1087.5999755859375</ele>
        <time>2026-06-20T12:21:36.000Z</time>
        <extensions>
          <ns3:TrackPointExtension>
            <ns3:atemp>26.0</ns3:atemp>
          </ns3:TrackPointExtension>
        </extensions>
      </trkpt>
      <trkpt lat="42.45009035803377628326416015625" lon="20.20280800759792327880859375">
        <ele>1087.5999755859375</ele>
        <time>2026-06-20T12:21:37.000Z</time>
        <extensions>
          <ns3:TrackPointExtension>
            <ns3:atemp>26.0</ns3:atemp>
          </ns3:TrackPointExtension>
        </extensions>
      </trkpt>
      <trkpt lat="42.45009035803377628326416015625" lon="20.20280800759792327880859375">
        <ele>1087.5999755859375</ele>
        <time>2026-06-20T12:21:38.000Z</time>
        <extensions>
          <ns3:TrackPointExtension>
            <ns3:atemp>26.0</ns3:atemp>
          </ns3:TrackPointExtension>
        </extensions>
      </trkpt>
      <trkpt lat="42.45009035803377628326416015625" lon="20.20280800759792327880859375">
        <ele>1087.5999755859375</ele>
        <time>2026-06-20T12:21:39.000Z</time>
        <extensions>
          <ns3:TrackPointExtension>
            <ns3:atemp>26.0</ns3:atemp>
          </ns3:TrackPointExtension>
        </extensions>
      </trkpt>
      <trkpt lat="42.45009035803377628326416015625" lon="20.20280800759792327880859375">
        <ele>1087.5999755859375</ele>
        <time>2026-06-20T12:21:40.000Z</time>
        <extensions>
          <ns3:TrackPointExtension>
            <ns3:atemp>26.0</ns3:atemp>
          </ns3:TrackPointExtension>
        </extensions>
      </trkpt>
      <trkpt lat="42.45009035803377628326416015625" lon="20.20280800759792327880859375">
        <ele>1087.5999755859375</ele>
        <time>2026-06-20T12:21:41.000Z</time>
        <extensions>
          <ns3:TrackPointExtension>
            <ns3:atemp>26.0</ns3:atemp>
          </ns3:TrackPointExtension>
        </extensions>
      </trkpt>
      <trkpt lat="42.45009035803377628326416015625" lon="20.20280800759792327880859375">
        <ele>1087.5999755859375</ele>
        <time>2026-06-20T12:21:42.000Z</time>
        <extensions>
          <ns3:TrackPointExtension>
            <ns3:atemp>26.0</ns3:atemp>
          </ns3:TrackPointExtension>
        </extensions>
      </trkpt>
      <trkpt lat="42.45009035803377628326416015625" lon="20.20280800759792327880859375">
        <ele>1087.5999755859375</ele>
        <time>2026-06-20T12:21:43.000Z</time>
        <extensions>
          <ns3:TrackPointExtension>
            <ns3:atemp>26.0</ns3:atemp>
          </ns3:TrackPointExtension>
        </extensions>
      </trkpt>
      <trkpt lat="42.45009035803377628326416015625" lon="20.20280800759792327880859375">
        <ele>1087.5999755859375</ele>
        <time>2026-06-20T12:21:44.000Z</time>
        <extensions>
          <ns3:TrackPointExtension>
            <ns3:atemp>26.0</ns3:atemp>
          </ns3:TrackPointExtension>
        </extensions>
      </trkpt>
      <trkpt lat="42.45009035803377628326416015625" lon="20.20280800759792327880859375">
        <ele>1087.5999755859375</ele>
        <time>2026-06-20T12:21:45.000Z</time>
        <extensions>
          <ns3:TrackPointExtension>
            <ns3:atemp>26.0</ns3:atemp>
          </ns3:TrackPointExtension>
        </extensions>
      </trkpt>
      <trkpt lat="42.45009035803377628326416015625" lon="20.20280800759792327880859375">
        <ele>1087.5999755859375</ele>
        <time>2026-06-20T12:21:46.000Z</time>
        <extensions>
          <ns3:TrackPointExtension>
            <ns3:atemp>26.0</ns3:atemp>
          </ns3:TrackPointExtension>
        </extensions>
      </trkpt>
      <trkpt lat="42.45009035803377628326416015625" lon="20.20280800759792327880859375">
        <ele>1087.5999755859375</ele>
        <time>2026-06-20T12:21:47.000Z</time>
        <extensions>
          <ns3:TrackPointExtension>
            <ns3:atemp>26.0</ns3:atemp>
          </ns3:TrackPointExtension>
        </extensions>
      </trkpt>
      <trkpt lat="42.45009035803377628326416015625" lon="20.20280800759792327880859375">
        <ele>1087.5999755859375</ele>
        <time>2026-06-20T12:21:48.000Z</time>
        <extensions>
          <ns3:TrackPointExtension>
            <ns3:atemp>26.0</ns3:atemp>
          </ns3:TrackPointExtension>
        </extensions>
      </trkpt>
      <trkpt lat="42.45009035803377628326416015625" lon="20.20280800759792327880859375">
        <ele>1087.5999755859375</ele>
        <time>2026-06-20T12:21:49.000Z</time>
        <extensions>
          <ns3:TrackPointExtension>
            <ns3:atemp>26.0</ns3:atemp>
          </ns3:TrackPointExtension>
        </extensions>
      </trkpt>
      <trkpt lat="42.45009035803377628326416015625" lon="20.20280800759792327880859375">
        <ele>1087.5999755859375</ele>
        <time>2026-06-20T12:21:50.000Z</time>
        <extensions>
          <ns3:TrackPointExtension>
            <ns3:atemp>26.0</ns3:atemp>
          </ns3:TrackPointExtension>
        </extensions>
      </trkpt>
      <trkpt lat="42.45009035803377628326416015625" lon="20.20280800759792327880859375">
        <ele>1087.5999755859375</ele>
        <time>2026-06-20T12:21:51.000Z</time>
        <extensions>
          <ns3:TrackPointExtension>
            <ns3:atemp>26.0</ns3:atemp>
          </ns3:TrackPointExtension>
        </extensions>
      </trkpt>
      <trkpt lat="42.45009035803377628326416015625" lon="20.20280800759792327880859375">
        <ele>1087.5999755859375</ele>
        <time>2026-06-20T12:21:52.000Z</time>
        <extensions>
          <ns3:TrackPointExtension>
            <ns3:atemp>26.0</ns3:atemp>
          </ns3:TrackPointExtension>
        </extensions>
      </trkpt>
      <trkpt lat="42.45009035803377628326416015625" lon="20.20280800759792327880859375">
        <ele>1087.5999755859375</ele>
        <time>2026-06-20T12:21:53.000Z</time>
        <extensions>
          <ns3:TrackPointExtension>
            <ns3:atemp>26.0</ns3:atemp>
          </ns3:TrackPointExtension>
        </extensions>
      </trkpt>
      <trkpt lat="42.45009035803377628326416015625" lon="20.20280800759792327880859375">
        <ele>1087.5999755859375</ele>
        <time>2026-06-20T12:21:54.000Z</time>
        <extensions>
          <ns3:TrackPointExtension>
            <ns3:atemp>26.0</ns3:atemp>
          </ns3:TrackPointExtension>
        </extensions>
      </trkpt>
      <trkpt lat="42.45009035803377628326416015625" lon="20.20280800759792327880859375">
        <ele>1087.5999755859375</ele>
        <time>2026-06-20T12:21:55.000Z</time>
        <extensions>
          <ns3:TrackPointExtension>
            <ns3:atemp>26.0</ns3:atemp>
          </ns3:TrackPointExtension>
        </extensions>
      </trkpt>
      <trkpt lat="42.45009035803377628326416015625" lon="20.20280800759792327880859375">
        <ele>1087.5999755859375</ele>
        <time>2026-06-20T12:21:56.000Z</time>
        <extensions>
          <ns3:TrackPointExtension>
            <ns3:atemp>26.0</ns3:atemp>
          </ns3:TrackPointExtension>
        </extensions>
      </trkpt>
      <trkpt lat="42.45009035803377628326416015625" lon="20.20280800759792327880859375">
        <ele>1087.5999755859375</ele>
        <time>2026-06-20T12:21:57.000Z</time>
        <extensions>
          <ns3:TrackPointExtension>
            <ns3:atemp>26.0</ns3:atemp>
          </ns3:TrackPointExtension>
        </extensions>
      </trkpt>
      <trkpt lat="42.45009035803377628326416015625" lon="20.20280800759792327880859375">
        <ele>1087.5999755859375</ele>
        <time>2026-06-20T12:21:58.000Z</time>
        <extensions>
          <ns3:TrackPointExtension>
            <ns3:atemp>26.0</ns3:atemp>
          </ns3:TrackPointExtension>
        </extensions>
      </trkpt>
      <trkpt lat="42.45009035803377628326416015625" lon="20.20280800759792327880859375">
        <ele>1087.5999755859375</ele>
        <time>2026-06-20T12:21:59.000Z</time>
        <extensions>
          <ns3:TrackPointExtension>
            <ns3:atemp>26.0</ns3:atemp>
          </ns3:TrackPointExtension>
        </extensions>
      </trkpt>
      <trkpt lat="42.45009035803377628326416015625" lon="20.20280800759792327880859375">
        <ele>1087.5999755859375</ele>
        <time>2026-06-20T12:22:00.000Z</time>
        <extensions>
          <ns3:TrackPointExtension>
            <ns3:atemp>26.0</ns3:atemp>
          </ns3:TrackPointExtension>
        </extensions>
      </trkpt>
      <trkpt lat="42.45009035803377628326416015625" lon="20.20280800759792327880859375">
        <ele>1087.5999755859375</ele>
        <time>2026-06-20T12:22:01.000Z</time>
        <extensions>
          <ns3:TrackPointExtension>
            <ns3:atemp>26.0</ns3:atemp>
          </ns3:TrackPointExtension>
        </extensions>
      </trkpt>
      <trkpt lat="42.45009035803377628326416015625" lon="20.20280800759792327880859375">
        <ele>1087.5999755859375</ele>
        <time>2026-06-20T12:22:02.000Z</time>
        <extensions>
          <ns3:TrackPointExtension>
            <ns3:atemp>26.0</ns3:atemp>
          </ns3:TrackPointExtension>
        </extensions>
      </trkpt>
      <trkpt lat="42.45009035803377628326416015625" lon="20.20280800759792327880859375">
        <ele>1087.5999755859375</ele>
        <time>2026-06-20T12:22:03.000Z</time>
        <extensions>
          <ns3:TrackPointExtension>
            <ns3:atemp>26.0</ns3:atemp>
          </ns3:TrackPointExtension>
        </extensions>
      </trkpt>
      <trkpt lat="42.45009035803377628326416015625" lon="20.20280800759792327880859375">
        <ele>1087.5999755859375</ele>
        <time>2026-06-20T12:22:04.000Z</time>
        <extensions>
          <ns3:TrackPointExtension>
            <ns3:atemp>26.0</ns3:atemp>
          </ns3:TrackPointExtension>
        </extensions>
      </trkpt>
      <trkpt lat="42.45009035803377628326416015625" lon="20.20280800759792327880859375">
        <ele>1087.5999755859375</ele>
        <time>2026-06-20T12:22:05.000Z</time>
        <extensions>
          <ns3:TrackPointExtension>
            <ns3:atemp>26.0</ns3:atemp>
          </ns3:TrackPointExtension>
        </extensions>
      </trkpt>
      <trkpt lat="42.45009035803377628326416015625" lon="20.20280800759792327880859375">
        <ele>1087.5999755859375</ele>
        <time>2026-06-20T12:22:06.000Z</time>
        <extensions>
          <ns3:TrackPointExtension>
            <ns3:atemp>26.0</ns3:atemp>
          </ns3:TrackPointExtension>
        </extensions>
      </trkpt>
      <trkpt lat="42.45009035803377628326416015625" lon="20.20280800759792327880859375">
        <ele>1087.5999755859375</ele>
        <time>2026-06-20T12:22:07.000Z</time>
        <extensions>
          <ns3:TrackPointExtension>
            <ns3:atemp>26.0</ns3:atemp>
          </ns3:TrackPointExtension>
        </extensions>
      </trkpt>
      <trkpt lat="42.45009035803377628326416015625" lon="20.20280800759792327880859375">
        <ele>1087.5999755859375</ele>
        <time>2026-06-20T12:22:08.000Z</time>
        <extensions>
          <ns3:TrackPointExtension>
            <ns3:atemp>26.0</ns3:atemp>
          </ns3:TrackPointExtension>
        </extensions>
      </trkpt>
      <trkpt lat="42.45009035803377628326416015625" lon="20.20280800759792327880859375">
        <ele>1087.5999755859375</ele>
        <time>2026-06-20T12:22:09.000Z</time>
        <extensions>
          <ns3:TrackPointExtension>
            <ns3:atemp>26.0</ns3:atemp>
          </ns3:TrackPointExtension>
        </extensions>
      </trkpt>
      <trkpt lat="42.45009035803377628326416015625" lon="20.20280800759792327880859375">
        <ele>1087.5999755859375</ele>
        <time>2026-06-20T12:22:10.000Z</time>
        <extensions>
          <ns3:TrackPointExtension>
            <ns3:atemp>26.0</ns3:atemp>
          </ns3:TrackPointExtension>
        </extensions>
      </trkpt>
      <trkpt lat="42.45009035803377628326416015625" lon="20.20280800759792327880859375">
        <ele>1087.5999755859375</ele>
        <time>2026-06-20T12:22:11.000Z</time>
        <extensions>
          <ns3:TrackPointExtension>
            <ns3:atemp>26.0</ns3:atemp>
          </ns3:TrackPointExtension>
        </extensions>
      </trkpt>
      <trkpt lat="42.45009035803377628326416015625" lon="20.20280800759792327880859375">
        <ele>1087.5999755859375</ele>
        <time>2026-06-20T12:22:12.000Z</time>
        <extensions>
          <ns3:TrackPointExtension>
            <ns3:atemp>26.0</ns3:atemp>
          </ns3:TrackPointExtension>
        </extensions>
      </trkpt>
      <trkpt lat="42.45009035803377628326416015625" lon="20.20280800759792327880859375">
        <ele>1087.5999755859375</ele>
        <time>2026-06-20T12:22:13.000Z</time>
        <extensions>
          <ns3:TrackPointExtension>
            <ns3:atemp>26.0</ns3:atemp>
          </ns3:TrackPointExtension>
        </extensions>
      </trkpt>
      <trkpt lat="42.45009035803377628326416015625" lon="20.20280800759792327880859375">
        <ele>1087.5999755859375</ele>
        <time>2026-06-20T12:22:14.000Z</time>
        <extensions>
          <ns3:TrackPointExtension>
            <ns3:atemp>26.0</ns3:atemp>
          </ns3:TrackPointExtension>
        </extensions>
      </trkpt>
      <trkpt lat="42.45009035803377628326416015625" lon="20.20280800759792327880859375">
        <ele>1087.5999755859375</ele>
        <time>2026-06-20T12:22:15.000Z</time>
        <extensions>
          <ns3:TrackPointExtension>
            <ns3:atemp>26.0</ns3:atemp>
          </ns3:TrackPointExtension>
        </extensions>
      </trkpt>
      <trkpt lat="42.45009035803377628326416015625" lon="20.20280800759792327880859375">
        <ele>1087.5999755859375</ele>
        <time>2026-06-20T12:22:16.000Z</time>
        <extensions>
          <ns3:TrackPointExtension>
            <ns3:atemp>26.0</ns3:atemp>
          </ns3:TrackPointExtension>
        </extensions>
      </trkpt>
      <trkpt lat="42.45009035803377628326416015625" lon="20.20280800759792327880859375">
        <ele>1087.5999755859375</ele>
        <time>2026-06-20T12:22:17.000Z</time>
        <extensions>
          <ns3:TrackPointExtension>
            <ns3:atemp>26.0</ns3:atemp>
          </ns3:TrackPointExtension>
        </extensions>
      </trkpt>
      <trkpt lat="42.45009035803377628326416015625" lon="20.20280800759792327880859375">
        <ele>1087.5999755859375</ele>
        <time>2026-06-20T12:22:18.000Z</time>
        <extensions>
          <ns3:TrackPointExtension>
            <ns3:atemp>26.0</ns3:atemp>
          </ns3:TrackPointExtension>
        </extensions>
      </trkpt>
      <trkpt lat="42.45009035803377628326416015625" lon="20.20280800759792327880859375">
        <ele>1087.5999755859375</ele>
        <time>2026-06-20T12:22:19.000Z</time>
        <extensions>
          <ns3:TrackPointExtension>
            <ns3:atemp>26.0</ns3:atemp>
          </ns3:TrackPointExtension>
        </extensions>
      </trkpt>
      <trkpt lat="42.45009035803377628326416015625" lon="20.20280800759792327880859375">
        <ele>1087.5999755859375</ele>
        <time>2026-06-20T12:22:20.000Z</time>
        <extensions>
          <ns3:TrackPointExtension>
            <ns3:atemp>26.0</ns3:atemp>
          </ns3:TrackPointExtension>
        </extensions>
      </trkpt>
      <trkpt lat="42.45009035803377628326416015625" lon="20.20280800759792327880859375">
        <ele>1087.5999755859375</ele>
        <time>2026-06-20T12:22:21.000Z</time>
        <extensions>
          <ns3:TrackPointExtension>
            <ns3:atemp>26.0</ns3:atemp>
          </ns3:TrackPointExtension>
        </extensions>
      </trkpt>
      <trkpt lat="42.45009035803377628326416015625" lon="20.20280800759792327880859375">
        <ele>1087.5999755859375</ele>
        <time>2026-06-20T12:22:22.000Z</time>
        <extensions>
          <ns3:TrackPointExtension>
            <ns3:atemp>26.0</ns3:atemp>
          </ns3:TrackPointExtension>
        </extensions>
      </trkpt>
      <trkpt lat="42.45009035803377628326416015625" lon="20.20280800759792327880859375">
        <ele>1087.5999755859375</ele>
        <time>2026-06-20T12:22:23.000Z</time>
        <extensions>
          <ns3:TrackPointExtension>
            <ns3:atemp>26.0</ns3:atemp>
          </ns3:TrackPointExtension>
        </extensions>
      </trkpt>
      <trkpt lat="42.45009035803377628326416015625" lon="20.20280800759792327880859375">
        <ele>1087.5999755859375</ele>
        <time>2026-06-20T12:22:24.000Z</time>
        <extensions>
          <ns3:TrackPointExtension>
            <ns3:atemp>26.0</ns3:atemp>
          </ns3:TrackPointExtension>
        </extensions>
      </trkpt>
      <trkpt lat="42.45009035803377628326416015625" lon="20.20280800759792327880859375">
        <ele>1087.5999755859375</ele>
        <time>2026-06-20T12:22:25.000Z</time>
        <extensions>
          <ns3:TrackPointExtension>
            <ns3:atemp>26.0</ns3:atemp>
          </ns3:TrackPointExtension>
        </extensions>
      </trkpt>
      <trkpt lat="42.45009035803377628326416015625" lon="20.20280800759792327880859375">
        <ele>1087.5999755859375</ele>
        <time>2026-06-20T12:22:26.000Z</time>
        <extensions>
          <ns3:TrackPointExtension>
            <ns3:atemp>26.0</ns3:atemp>
          </ns3:TrackPointExtension>
        </extensions>
      </trkpt>
      <trkpt lat="42.45009035803377628326416015625" lon="20.20280800759792327880859375">
        <ele>1087.5999755859375</ele>
        <time>2026-06-20T12:22:27.000Z</time>
        <extensions>
          <ns3:TrackPointExtension>
            <ns3:atemp>26.0</ns3:atemp>
          </ns3:TrackPointExtension>
        </extensions>
      </trkpt>
      <trkpt lat="42.45009035803377628326416015625" lon="20.20280800759792327880859375">
        <ele>1087.5999755859375</ele>
        <time>2026-06-20T12:22:28.000Z</time>
        <extensions>
          <ns3:TrackPointExtension>
            <ns3:atemp>26.0</ns3:atemp>
          </ns3:TrackPointExtension>
        </extensions>
      </trkpt>
      <trkpt lat="42.45009035803377628326416015625" lon="20.20280800759792327880859375">
        <ele>1087.5999755859375</ele>
        <time>2026-06-20T12:22:29.000Z</time>
        <extensions>
          <ns3:TrackPointExtension>
            <ns3:atemp>26.0</ns3:atemp>
          </ns3:TrackPointExtension>
        </extensions>
      </trkpt>
      <trkpt lat="42.45009035803377628326416015625" lon="20.20280800759792327880859375">
        <ele>1087.5999755859375</ele>
        <time>2026-06-20T12:22:30.000Z</time>
        <extensions>
          <ns3:TrackPointExtension>
            <ns3:atemp>26.0</ns3:atemp>
          </ns3:TrackPointExtension>
        </extensions>
      </trkpt>
      <trkpt lat="42.45009035803377628326416015625" lon="20.20280800759792327880859375">
        <ele>1087.5999755859375</ele>
        <time>2026-06-20T12:22:31.000Z</time>
        <extensions>
          <ns3:TrackPointExtension>
            <ns3:atemp>26.0</ns3:atemp>
          </ns3:TrackPointExtension>
        </extensions>
      </trkpt>
      <trkpt lat="42.45009035803377628326416015625" lon="20.20280800759792327880859375">
        <ele>1087.5999755859375</ele>
        <time>2026-06-20T12:22:32.000Z</time>
        <extensions>
          <ns3:TrackPointExtension>
            <ns3:atemp>26.0</ns3:atemp>
          </ns3:TrackPointExtension>
        </extensions>
      </trkpt>
      <trkpt lat="42.45009035803377628326416015625" lon="20.20280800759792327880859375">
        <ele>1087.5999755859375</ele>
        <time>2026-06-20T12:22:33.000Z</time>
        <extensions>
          <ns3:TrackPointExtension>
            <ns3:atemp>26.0</ns3:atemp>
          </ns3:TrackPointExtension>
        </extensions>
      </trkpt>
      <trkpt lat="42.45009035803377628326416015625" lon="20.20280800759792327880859375">
        <ele>1087.5999755859375</ele>
        <time>2026-06-20T12:22:34.000Z</time>
        <extensions>
          <ns3:TrackPointExtension>
            <ns3:atemp>26.0</ns3:atemp>
          </ns3:TrackPointExtension>
        </extensions>
      </trkpt>
      <trkpt lat="42.45009035803377628326416015625" lon="20.20280800759792327880859375">
        <ele>1087.5999755859375</ele>
        <time>2026-06-20T12:22:35.000Z</time>
        <extensions>
          <ns3:TrackPointExtension>
            <ns3:atemp>26.0</ns3:atemp>
          </ns3:TrackPointExtension>
        </extensions>
      </trkpt>
      <trkpt lat="42.45009035803377628326416015625" lon="20.20280800759792327880859375">
        <ele>1087.5999755859375</ele>
        <time>2026-06-20T12:22:36.000Z</time>
        <extensions>
          <ns3:TrackPointExtension>
            <ns3:atemp>26.0</ns3:atemp>
          </ns3:TrackPointExtension>
        </extensions>
      </trkpt>
      <trkpt lat="42.45009035803377628326416015625" lon="20.20280800759792327880859375">
        <ele>1087.5999755859375</ele>
        <time>2026-06-20T12:22:37.000Z</time>
        <extensions>
          <ns3:TrackPointExtension>
            <ns3:atemp>26.0</ns3:atemp>
          </ns3:TrackPointExtension>
        </extensions>
      </trkpt>
      <trkpt lat="42.45009035803377628326416015625" lon="20.20280800759792327880859375">
        <ele>1087.5999755859375</ele>
        <time>2026-06-20T12:22:38.000Z</time>
        <extensions>
          <ns3:TrackPointExtension>
            <ns3:atemp>26.0</ns3:atemp>
          </ns3:TrackPointExtension>
        </extensions>
      </trkpt>
      <trkpt lat="42.45009035803377628326416015625" lon="20.20280800759792327880859375">
        <ele>1087.5999755859375</ele>
        <time>2026-06-20T12:22:39.000Z</time>
        <extensions>
          <ns3:TrackPointExtension>
            <ns3:atemp>26.0</ns3:atemp>
          </ns3:TrackPointExtension>
        </extensions>
      </trkpt>
      <trkpt lat="42.45009035803377628326416015625" lon="20.20280800759792327880859375">
        <ele>1087.5999755859375</ele>
        <time>2026-06-20T12:22:40.000Z</time>
        <extensions>
          <ns3:TrackPointExtension>
            <ns3:atemp>26.0</ns3:atemp>
          </ns3:TrackPointExtension>
        </extensions>
      </trkpt>
      <trkpt lat="42.45009035803377628326416015625" lon="20.20280800759792327880859375">
        <ele>1087.5999755859375</ele>
        <time>2026-06-20T12:22:41.000Z</time>
        <extensions>
          <ns3:TrackPointExtension>
            <ns3:atemp>26.0</ns3:atemp>
          </ns3:TrackPointExtension>
        </extensions>
      </trkpt>
      <trkpt lat="42.45009035803377628326416015625" lon="20.20280800759792327880859375">
        <ele>1087.5999755859375</ele>
        <time>2026-06-20T12:22:42.000Z</time>
        <extensions>
          <ns3:TrackPointExtension>
            <ns3:atemp>26.0</ns3:atemp>
          </ns3:TrackPointExtension>
        </extensions>
      </trkpt>
      <trkpt lat="42.45009035803377628326416015625" lon="20.20280800759792327880859375">
        <ele>1087.5999755859375</ele>
        <time>2026-06-20T12:22:43.000Z</time>
        <extensions>
          <ns3:TrackPointExtension>
            <ns3:atemp>26.0</ns3:atemp>
          </ns3:TrackPointExtension>
        </extensions>
      </trkpt>
      <trkpt lat="42.45009035803377628326416015625" lon="20.20280800759792327880859375">
        <ele>1087.5999755859375</ele>
        <time>2026-06-20T12:22:44.000Z</time>
        <extensions>
          <ns3:TrackPointExtension>
            <ns3:atemp>26.0</ns3:atemp>
          </ns3:TrackPointExtension>
        </extensions>
      </trkpt>
      <trkpt lat="42.45009035803377628326416015625" lon="20.20280800759792327880859375">
        <ele>1087.5999755859375</ele>
        <time>2026-06-20T12:22:45.000Z</time>
        <extensions>
          <ns3:TrackPointExtension>
            <ns3:atemp>26.0</ns3:atemp>
          </ns3:TrackPointExtension>
        </extensions>
      </trkpt>
      <trkpt lat="42.45009035803377628326416015625" lon="20.20280800759792327880859375">
        <ele>1087.5999755859375</ele>
        <time>2026-06-20T12:22:46.000Z</time>
        <extensions>
          <ns3:TrackPointExtension>
            <ns3:atemp>26.0</ns3:atemp>
          </ns3:TrackPointExtension>
        </extensions>
      </trkpt>
      <trkpt lat="42.45009035803377628326416015625" lon="20.20280800759792327880859375">
        <ele>1087.5999755859375</ele>
        <time>2026-06-20T12:22:47.000Z</time>
        <extensions>
          <ns3:TrackPointExtension>
            <ns3:atemp>26.0</ns3:atemp>
          </ns3:TrackPointExtension>
        </extensions>
      </trkpt>
      <trkpt lat="42.45009035803377628326416015625" lon="20.20280800759792327880859375">
        <ele>1087.5999755859375</ele>
        <time>2026-06-20T12:22:48.000Z</time>
        <extensions>
          <ns3:TrackPointExtension>
            <ns3:atemp>26.0</ns3:atemp>
          </ns3:TrackPointExtension>
        </extensions>
      </trkpt>
      <trkpt lat="42.45009035803377628326416015625" lon="20.20280800759792327880859375">
        <ele>1087.5999755859375</ele>
        <time>2026-06-20T12:22:49.000Z</time>
        <extensions>
          <ns3:TrackPointExtension>
            <ns3:atemp>26.0</ns3:atemp>
          </ns3:TrackPointExtension>
        </extensions>
      </trkpt>
      <trkpt lat="42.45009035803377628326416015625" lon="20.20280800759792327880859375">
        <ele>1087.5999755859375</ele>
        <time>2026-06-20T12:22:50.000Z</time>
        <extensions>
          <ns3:TrackPointExtension>
            <ns3:atemp>26.0</ns3:atemp>
          </ns3:TrackPointExtension>
        </extensions>
      </trkpt>
      <trkpt lat="42.45009035803377628326416015625" lon="20.20280800759792327880859375">
        <ele>1087.5999755859375</ele>
        <time>2026-06-20T12:22:51.000Z</time>
        <extensions>
          <ns3:TrackPointExtension>
            <ns3:atemp>26.0</ns3:atemp>
          </ns3:TrackPointExtension>
        </extensions>
      </trkpt>
      <trkpt lat="42.45009035803377628326416015625" lon="20.20280800759792327880859375">
        <ele>1087.5999755859375</ele>
        <time>2026-06-20T12:22:52.000Z</time>
        <extensions>
          <ns3:TrackPointExtension>
            <ns3:atemp>26.0</ns3:atemp>
          </ns3:TrackPointExtension>
        </extensions>
      </trkpt>
      <trkpt lat="42.45009035803377628326416015625" lon="20.20280800759792327880859375">
        <ele>1087.5999755859375</ele>
        <time>2026-06-20T12:22:53.000Z</time>
        <extensions>
          <ns3:TrackPointExtension>
            <ns3:atemp>26.0</ns3:atemp>
          </ns3:TrackPointExtension>
        </extensions>
      </trkpt>
      <trkpt lat="42.45009035803377628326416015625" lon="20.20280800759792327880859375">
        <ele>1087.5999755859375</ele>
        <time>2026-06-20T12:22:54.000Z</time>
        <extensions>
          <ns3:TrackPointExtension>
            <ns3:atemp>26.0</ns3:atemp>
          </ns3:TrackPointExtension>
        </extensions>
      </trkpt>
      <trkpt lat="42.45009035803377628326416015625" lon="20.20280800759792327880859375">
        <ele>1087.5999755859375</ele>
        <time>2026-06-20T12:22:55.000Z</time>
        <extensions>
          <ns3:TrackPointExtension>
            <ns3:atemp>26.0</ns3:atemp>
          </ns3:TrackPointExtension>
        </extensions>
      </trkpt>
      <trkpt lat="42.45009035803377628326416015625" lon="20.20280800759792327880859375">
        <ele>1087.5999755859375</ele>
        <time>2026-06-20T12:22:56.000Z</time>
        <extensions>
          <ns3:TrackPointExtension>
            <ns3:atemp>26.0</ns3:atemp>
          </ns3:TrackPointExtension>
        </extensions>
      </trkpt>
      <trkpt lat="42.45009035803377628326416015625" lon="20.20280800759792327880859375">
        <ele>1087.5999755859375</ele>
        <time>2026-06-20T12:22:57.000Z</time>
        <extensions>
          <ns3:TrackPointExtension>
            <ns3:atemp>26.0</ns3:atemp>
          </ns3:TrackPointExtension>
        </extensions>
      </trkpt>
      <trkpt lat="42.45009035803377628326416015625" lon="20.20280800759792327880859375">
        <ele>1087.5999755859375</ele>
        <time>2026-06-20T12:22:58.000Z</time>
        <extensions>
          <ns3:TrackPointExtension>
            <ns3:atemp>26.0</ns3:atemp>
          </ns3:TrackPointExtension>
        </extensions>
      </trkpt>
      <trkpt lat="42.45009035803377628326416015625" lon="20.20280800759792327880859375">
        <ele>1087.5999755859375</ele>
        <time>2026-06-20T12:22:59.000Z</time>
        <extensions>
          <ns3:TrackPointExtension>
            <ns3:atemp>26.0</ns3:atemp>
          </ns3:TrackPointExtension>
        </extensions>
      </trkpt>
      <trkpt lat="42.45009035803377628326416015625" lon="20.20280800759792327880859375">
        <ele>1087.5999755859375</ele>
        <time>2026-06-20T12:23:00.000Z</time>
        <extensions>
          <ns3:TrackPointExtension>
            <ns3:atemp>26.0</ns3:atemp>
          </ns3:TrackPointExtension>
        </extensions>
      </trkpt>
      <trkpt lat="42.45009035803377628326416015625" lon="20.20280800759792327880859375">
        <ele>1087.5999755859375</ele>
        <time>2026-06-20T12:23:01.000Z</time>
        <extensions>
          <ns3:TrackPointExtension>
            <ns3:atemp>26.0</ns3:atemp>
          </ns3:TrackPointExtension>
        </extensions>
      </trkpt>
      <trkpt lat="42.45009035803377628326416015625" lon="20.20280800759792327880859375">
        <ele>1087.5999755859375</ele>
        <time>2026-06-20T12:23:02.000Z</time>
        <extensions>
          <ns3:TrackPointExtension>
            <ns3:atemp>26.0</ns3:atemp>
          </ns3:TrackPointExtension>
        </extensions>
      </trkpt>
      <trkpt lat="42.45009035803377628326416015625" lon="20.20280800759792327880859375">
        <ele>1087.5999755859375</ele>
        <time>2026-06-20T12:23:03.000Z</time>
        <extensions>
          <ns3:TrackPointExtension>
            <ns3:atemp>26.0</ns3:atemp>
          </ns3:TrackPointExtension>
        </extensions>
      </trkpt>
      <trkpt lat="42.45009035803377628326416015625" lon="20.20280800759792327880859375">
        <ele>1087.5999755859375</ele>
        <time>2026-06-20T12:23:04.000Z</time>
        <extensions>
          <ns3:TrackPointExtension>
            <ns3:atemp>26.0</ns3:atemp>
          </ns3:TrackPointExtension>
        </extensions>
      </trkpt>
      <trkpt lat="42.45009035803377628326416015625" lon="20.20280800759792327880859375">
        <ele>1087.5999755859375</ele>
        <time>2026-06-20T12:23:05.000Z</time>
        <extensions>
          <ns3:TrackPointExtension>
            <ns3:atemp>26.0</ns3:atemp>
          </ns3:TrackPointExtension>
        </extensions>
      </trkpt>
      <trkpt lat="42.45009035803377628326416015625" lon="20.20280800759792327880859375">
        <ele>1087.5999755859375</ele>
        <time>2026-06-20T12:23:06.000Z</time>
        <extensions>
          <ns3:TrackPointExtension>
            <ns3:atemp>26.0</ns3:atemp>
          </ns3:TrackPointExtension>
        </extensions>
      </trkpt>
      <trkpt lat="42.45009035803377628326416015625" lon="20.20280800759792327880859375">
        <ele>1087.5999755859375</ele>
        <time>2026-06-20T12:23:07.000Z</time>
        <extensions>
          <ns3:TrackPointExtension>
            <ns3:atemp>26.0</ns3:atemp>
          </ns3:TrackPointExtension>
        </extensions>
      </trkpt>
      <trkpt lat="42.45009035803377628326416015625" lon="20.20280800759792327880859375">
        <ele>1087.5999755859375</ele>
        <time>2026-06-20T12:23:08.000Z</time>
        <extensions>
          <ns3:TrackPointExtension>
            <ns3:atemp>26.0</ns3:atemp>
          </ns3:TrackPointExtension>
        </extensions>
      </trkpt>
      <trkpt lat="42.45009035803377628326416015625" lon="20.20280800759792327880859375">
        <ele>1087.5999755859375</ele>
        <time>2026-06-20T12:23:09.000Z</time>
        <extensions>
          <ns3:TrackPointExtension>
            <ns3:atemp>26.0</ns3:atemp>
          </ns3:TrackPointExtension>
        </extensions>
      </trkpt>
      <trkpt lat="42.45009035803377628326416015625" lon="20.20280800759792327880859375">
        <ele>1087.5999755859375</ele>
        <time>2026-06-20T12:23:10.000Z</time>
        <extensions>
          <ns3:TrackPointExtension>
            <ns3:atemp>26.0</ns3:atemp>
          </ns3:TrackPointExtension>
        </extensions>
      </trkpt>
      <trkpt lat="42.45009035803377628326416015625" lon="20.20280800759792327880859375">
        <ele>1087.5999755859375</ele>
        <time>2026-06-20T12:23:11.000Z</time>
        <extensions>
          <ns3:TrackPointExtension>
            <ns3:atemp>26.0</ns3:atemp>
          </ns3:TrackPointExtension>
        </extensions>
      </trkpt>
      <trkpt lat="42.45009035803377628326416015625" lon="20.20280800759792327880859375">
        <ele>1087.5999755859375</ele>
        <time>2026-06-20T12:23:12.000Z</time>
        <extensions>
          <ns3:TrackPointExtension>
            <ns3:atemp>26.0</ns3:atemp>
          </ns3:TrackPointExtension>
        </extensions>
      </trkpt>
      <trkpt lat="42.45009035803377628326416015625" lon="20.20280800759792327880859375">
        <ele>1087.5999755859375</ele>
        <time>2026-06-20T12:23:13.000Z</time>
        <extensions>
          <ns3:TrackPointExtension>
            <ns3:atemp>26.0</ns3:atemp>
          </ns3:TrackPointExtension>
        </extensions>
      </trkpt>
      <trkpt lat="42.45009035803377628326416015625" lon="20.20280800759792327880859375">
        <ele>1087.5999755859375</ele>
        <time>2026-06-20T12:23:14.000Z</time>
        <extensions>
          <ns3:TrackPointExtension>
            <ns3:atemp>26.0</ns3:atemp>
          </ns3:TrackPointExtension>
        </extensions>
      </trkpt>
      <trkpt lat="42.45009035803377628326416015625" lon="20.20280800759792327880859375">
        <ele>1087.5999755859375</ele>
        <time>2026-06-20T12:23:15.000Z</time>
        <extensions>
          <ns3:TrackPointExtension>
            <ns3:atemp>26.0</ns3:atemp>
          </ns3:TrackPointExtension>
        </extensions>
      </trkpt>
      <trkpt lat="42.45009035803377628326416015625" lon="20.20280800759792327880859375">
        <ele>1087.5999755859375</ele>
        <time>2026-06-20T12:23:16.000Z</time>
        <extensions>
          <ns3:TrackPointExtension>
            <ns3:atemp>26.0</ns3:atemp>
          </ns3:TrackPointExtension>
        </extensions>
      </trkpt>
      <trkpt lat="42.45009035803377628326416015625" lon="20.20280800759792327880859375">
        <ele>1087.5999755859375</ele>
        <time>2026-06-20T12:23:17.000Z</time>
        <extensions>
          <ns3:TrackPointExtension>
            <ns3:atemp>26.0</ns3:atemp>
          </ns3:TrackPointExtension>
        </extensions>
      </trkpt>
      <trkpt lat="42.45009035803377628326416015625" lon="20.20280800759792327880859375">
        <ele>1087.5999755859375</ele>
        <time>2026-06-20T12:23:18.000Z</time>
        <extensions>
          <ns3:TrackPointExtension>
            <ns3:atemp>26.0</ns3:atemp>
          </ns3:TrackPointExtension>
        </extensions>
      </trkpt>
      <trkpt lat="42.45009035803377628326416015625" lon="20.20280800759792327880859375">
        <ele>1087.5999755859375</ele>
        <time>2026-06-20T12:23:19.000Z</time>
        <extensions>
          <ns3:TrackPointExtension>
            <ns3:atemp>26.0</ns3:atemp>
          </ns3:TrackPointExtension>
        </extensions>
      </trkpt>
      <trkpt lat="42.45009035803377628326416015625" lon="20.20280800759792327880859375">
        <ele>1087.5999755859375</ele>
        <time>2026-06-20T12:23:20.000Z</time>
        <extensions>
          <ns3:TrackPointExtension>
            <ns3:atemp>26.0</ns3:atemp>
          </ns3:TrackPointExtension>
        </extensions>
      </trkpt>
      <trkpt lat="42.45009035803377628326416015625" lon="20.20280800759792327880859375">
        <ele>1087.5999755859375</ele>
        <time>2026-06-20T12:23:21.000Z</time>
        <extensions>
          <ns3:TrackPointExtension>
            <ns3:atemp>26.0</ns3:atemp>
          </ns3:TrackPointExtension>
        </extensions>
      </trkpt>
      <trkpt lat="42.45009035803377628326416015625" lon="20.20280800759792327880859375">
        <ele>1087.5999755859375</ele>
        <time>2026-06-20T12:23:22.000Z</time>
        <extensions>
          <ns3:TrackPointExtension>
            <ns3:atemp>26.0</ns3:atemp>
          </ns3:TrackPointExtension>
        </extensions>
      </trkpt>
      <trkpt lat="42.45009035803377628326416015625" lon="20.20280800759792327880859375">
        <ele>1087.5999755859375</ele>
        <time>2026-06-20T12:23:23.000Z</time>
        <extensions>
          <ns3:TrackPointExtension>
            <ns3:atemp>26.0</ns3:atemp>
          </ns3:TrackPointExtension>
        </extensions>
      </trkpt>
      <trkpt lat="42.45009035803377628326416015625" lon="20.20280800759792327880859375">
        <ele>1087.5999755859375</ele>
        <time>2026-06-20T12:23:24.000Z</time>
        <extensions>
          <ns3:TrackPointExtension>
            <ns3:atemp>26.0</ns3:atemp>
          </ns3:TrackPointExtension>
        </extensions>
      </trkpt>
      <trkpt lat="42.45009035803377628326416015625" lon="20.20280800759792327880859375">
        <ele>1087.5999755859375</ele>
        <time>2026-06-20T12:23:25.000Z</time>
        <extensions>
          <ns3:TrackPointExtension>
            <ns3:atemp>26.0</ns3:atemp>
          </ns3:TrackPointExtension>
        </extensions>
      </trkpt>
      <trkpt lat="42.45009035803377628326416015625" lon="20.20280800759792327880859375">
        <ele>1087.5999755859375</ele>
        <time>2026-06-20T12:23:26.000Z</time>
        <extensions>
          <ns3:TrackPointExtension>
            <ns3:atemp>26.0</ns3:atemp>
          </ns3:TrackPointExtension>
        </extensions>
      </trkpt>
      <trkpt lat="42.45009035803377628326416015625" lon="20.20280800759792327880859375">
        <ele>1087.5999755859375</ele>
        <time>2026-06-20T12:23:27.000Z</time>
        <extensions>
          <ns3:TrackPointExtension>
            <ns3:atemp>26.0</ns3:atemp>
          </ns3:TrackPointExtension>
        </extensions>
      </trkpt>
      <trkpt lat="42.45009035803377628326416015625" lon="20.20280800759792327880859375">
        <ele>1087.5999755859375</ele>
        <time>2026-06-20T12:23:28.000Z</time>
        <extensions>
          <ns3:TrackPointExtension>
            <ns3:atemp>26.0</ns3:atemp>
          </ns3:TrackPointExtension>
        </extensions>
      </trkpt>
      <trkpt lat="42.45009035803377628326416015625" lon="20.20280800759792327880859375">
        <ele>1087.5999755859375</ele>
        <time>2026-06-20T12:23:29.000Z</time>
        <extensions>
          <ns3:TrackPointExtension>
            <ns3:atemp>26.0</ns3:atemp>
          </ns3:TrackPointExtension>
        </extensions>
      </trkpt>
      <trkpt lat="42.45009035803377628326416015625" lon="20.20280800759792327880859375">
        <ele>1087.5999755859375</ele>
        <time>2026-06-20T12:23:30.000Z</time>
        <extensions>
          <ns3:TrackPointExtension>
            <ns3:atemp>26.0</ns3:atemp>
          </ns3:TrackPointExtension>
        </extensions>
      </trkpt>
      <trkpt lat="42.45009035803377628326416015625" lon="20.20280800759792327880859375">
        <ele>1087.5999755859375</ele>
        <time>2026-06-20T12:23:31.000Z</time>
        <extensions>
          <ns3:TrackPointExtension>
            <ns3:atemp>26.0</ns3:atemp>
          </ns3:TrackPointExtension>
        </extensions>
      </trkpt>
      <trkpt lat="42.45009035803377628326416015625" lon="20.20280800759792327880859375">
        <ele>1087.5999755859375</ele>
        <time>2026-06-20T12:23:32.000Z</time>
        <extensions>
          <ns3:TrackPointExtension>
            <ns3:atemp>26.0</ns3:atemp>
          </ns3:TrackPointExtension>
        </extensions>
      </trkpt>
      <trkpt lat="42.45009035803377628326416015625" lon="20.20280800759792327880859375">
        <ele>1087.5999755859375</ele>
        <time>2026-06-20T12:23:33.000Z</time>
        <extensions>
          <ns3:TrackPointExtension>
            <ns3:atemp>26.0</ns3:atemp>
          </ns3:TrackPointExtension>
        </extensions>
      </trkpt>
      <trkpt lat="42.45009035803377628326416015625" lon="20.20280800759792327880859375">
        <ele>1087.5999755859375</ele>
        <time>2026-06-20T12:23:34.000Z</time>
        <extensions>
          <ns3:TrackPointExtension>
            <ns3:atemp>26.0</ns3:atemp>
          </ns3:TrackPointExtension>
        </extensions>
      </trkpt>
      <trkpt lat="42.45009035803377628326416015625" lon="20.20280800759792327880859375">
        <ele>1087.5999755859375</ele>
        <time>2026-06-20T12:23:35.000Z</time>
        <extensions>
          <ns3:TrackPointExtension>
            <ns3:atemp>26.0</ns3:atemp>
          </ns3:TrackPointExtension>
        </extensions>
      </trkpt>
      <trkpt lat="42.45009035803377628326416015625" lon="20.20280800759792327880859375">
        <ele>1087.5999755859375</ele>
        <time>2026-06-20T12:23:36.000Z</time>
        <extensions>
          <ns3:TrackPointExtension>
            <ns3:atemp>26.0</ns3:atemp>
          </ns3:TrackPointExtension>
        </extensions>
      </trkpt>
      <trkpt lat="42.45009035803377628326416015625" lon="20.20280800759792327880859375">
        <ele>1087.5999755859375</ele>
        <time>2026-06-20T12:23:37.000Z</time>
        <extensions>
          <ns3:TrackPointExtension>
            <ns3:atemp>26.0</ns3:atemp>
          </ns3:TrackPointExtension>
        </extensions>
      </trkpt>
      <trkpt lat="42.45009035803377628326416015625" lon="20.20280800759792327880859375">
        <ele>1087.5999755859375</ele>
        <time>2026-06-20T12:23:38.000Z</time>
        <extensions>
          <ns3:TrackPointExtension>
            <ns3:atemp>26.0</ns3:atemp>
          </ns3:TrackPointExtension>
        </extensions>
      </trkpt>
      <trkpt lat="42.45009035803377628326416015625" lon="20.20280800759792327880859375">
        <ele>1087.5999755859375</ele>
        <time>2026-06-20T12:23:39.000Z</time>
        <extensions>
          <ns3:TrackPointExtension>
            <ns3:atemp>26.0</ns3:atemp>
          </ns3:TrackPointExtension>
        </extensions>
      </trkpt>
      <trkpt lat="42.45009035803377628326416015625" lon="20.20280800759792327880859375">
        <ele>1087.5999755859375</ele>
        <time>2026-06-20T12:23:40.000Z</time>
        <extensions>
          <ns3:TrackPointExtension>
            <ns3:atemp>26.0</ns3:atemp>
          </ns3:TrackPointExtension>
        </extensions>
      </trkpt>
      <trkpt lat="42.45009035803377628326416015625" lon="20.20280800759792327880859375">
        <ele>1087.5999755859375</ele>
        <time>2026-06-20T12:23:41.000Z</time>
        <extensions>
          <ns3:TrackPointExtension>
            <ns3:atemp>26.0</ns3:atemp>
          </ns3:TrackPointExtension>
        </extensions>
      </trkpt>
      <trkpt lat="42.45009035803377628326416015625" lon="20.20280800759792327880859375">
        <ele>1087.5999755859375</ele>
        <time>2026-06-20T12:23:42.000Z</time>
        <extensions>
          <ns3:TrackPointExtension>
            <ns3:atemp>26.0</ns3:atemp>
          </ns3:TrackPointExtension>
        </extensions>
      </trkpt>
      <trkpt lat="42.45009035803377628326416015625" lon="20.20280800759792327880859375">
        <ele>1087.5999755859375</ele>
        <time>2026-06-20T12:23:43.000Z</time>
        <extensions>
          <ns3:TrackPointExtension>
            <ns3:atemp>26.0</ns3:atemp>
          </ns3:TrackPointExtension>
        </extensions>
      </trkpt>
      <trkpt lat="42.45009035803377628326416015625" lon="20.20280800759792327880859375">
        <ele>1087.5999755859375</ele>
        <time>2026-06-20T12:23:44.000Z</time>
        <extensions>
          <ns3:TrackPointExtension>
            <ns3:atemp>26.0</ns3:atemp>
          </ns3:TrackPointExtension>
        </extensions>
      </trkpt>
      <trkpt lat="42.45009035803377628326416015625" lon="20.20280800759792327880859375">
        <ele>1087.5999755859375</ele>
        <time>2026-06-20T12:23:45.000Z</time>
        <extensions>
          <ns3:TrackPointExtension>
            <ns3:atemp>26.0</ns3:atemp>
          </ns3:TrackPointExtension>
        </extensions>
      </trkpt>
      <trkpt lat="42.45009035803377628326416015625" lon="20.20280800759792327880859375">
        <ele>1087.5999755859375</ele>
        <time>2026-06-20T12:23:46.000Z</time>
        <extensions>
          <ns3:TrackPointExtension>
            <ns3:atemp>26.0</ns3:atemp>
          </ns3:TrackPointExtension>
        </extensions>
      </trkpt>
      <trkpt lat="42.45009035803377628326416015625" lon="20.20280800759792327880859375">
        <ele>1087.5999755859375</ele>
        <time>2026-06-20T12:23:47.000Z</time>
        <extensions>
          <ns3:TrackPointExtension>
            <ns3:atemp>26.0</ns3:atemp>
          </ns3:TrackPointExtension>
        </extensions>
      </trkpt>
      <trkpt lat="42.45009035803377628326416015625" lon="20.20280800759792327880859375">
        <ele>1087.5999755859375</ele>
        <time>2026-06-20T12:23:48.000Z</time>
        <extensions>
          <ns3:TrackPointExtension>
            <ns3:atemp>26.0</ns3:atemp>
          </ns3:TrackPointExtension>
        </extensions>
      </trkpt>
      <trkpt lat="42.45009035803377628326416015625" lon="20.20280800759792327880859375">
        <ele>1087.5999755859375</ele>
        <time>2026-06-20T12:23:49.000Z</time>
        <extensions>
          <ns3:TrackPointExtension>
            <ns3:atemp>26.0</ns3:atemp>
          </ns3:TrackPointExtension>
        </extensions>
      </trkpt>
      <trkpt lat="42.45009035803377628326416015625" lon="20.20280800759792327880859375">
        <ele>1087.5999755859375</ele>
        <time>2026-06-20T12:23:50.000Z</time>
        <extensions>
          <ns3:TrackPointExtension>
            <ns3:atemp>26.0</ns3:atemp>
          </ns3:TrackPointExtension>
        </extensions>
      </trkpt>
      <trkpt lat="42.45009035803377628326416015625" lon="20.20280800759792327880859375">
        <ele>1087.5999755859375</ele>
        <time>2026-06-20T12:23:51.000Z</time>
        <extensions>
          <ns3:TrackPointExtension>
            <ns3:atemp>26.0</ns3:atemp>
          </ns3:TrackPointExtension>
        </extensions>
      </trkpt>
      <trkpt lat="42.45009035803377628326416015625" lon="20.20280800759792327880859375">
        <ele>1087.5999755859375</ele>
        <time>2026-06-20T12:23:52.000Z</time>
        <extensions>
          <ns3:TrackPointExtension>
            <ns3:atemp>25.0</ns3:atemp>
          </ns3:TrackPointExtension>
        </extensions>
      </trkpt>
      <trkpt lat="42.45009035803377628326416015625" lon="20.20280800759792327880859375">
        <ele>1087.5999755859375</ele>
        <time>2026-06-20T12:23:53.000Z</time>
        <extensions>
          <ns3:TrackPointExtension>
            <ns3:atemp>25.0</ns3:atemp>
          </ns3:TrackPointExtension>
        </extensions>
      </trkpt>
      <trkpt lat="42.45009035803377628326416015625" lon="20.20280800759792327880859375">
        <ele>1087.5999755859375</ele>
        <time>2026-06-20T12:23:54.000Z</time>
        <extensions>
          <ns3:TrackPointExtension>
            <ns3:atemp>25.0</ns3:atemp>
          </ns3:TrackPointExtension>
        </extensions>
      </trkpt>
      <trkpt lat="42.45009035803377628326416015625" lon="20.20280800759792327880859375">
        <ele>1087.5999755859375</ele>
        <time>2026-06-20T12:23:55.000Z</time>
        <extensions>
          <ns3:TrackPointExtension>
            <ns3:atemp>25.0</ns3:atemp>
          </ns3:TrackPointExtension>
        </extensions>
      </trkpt>
      <trkpt lat="42.45009035803377628326416015625" lon="20.20280800759792327880859375">
        <ele>1087.5999755859375</ele>
        <time>2026-06-20T12:23:56.000Z</time>
        <extensions>
          <ns3:TrackPointExtension>
            <ns3:atemp>25.0</ns3:atemp>
          </ns3:TrackPointExtension>
        </extensions>
      </trkpt>
      <trkpt lat="42.45009035803377628326416015625" lon="20.20280800759792327880859375">
        <ele>1087.5999755859375</ele>
        <time>2026-06-20T12:23:57.000Z</time>
        <extensions>
          <ns3:TrackPointExtension>
            <ns3:atemp>25.0</ns3:atemp>
          </ns3:TrackPointExtension>
        </extensions>
      </trkpt>
      <trkpt lat="42.45009035803377628326416015625" lon="20.20280800759792327880859375">
        <ele>1087.5999755859375</ele>
        <time>2026-06-20T12:23:58.000Z</time>
        <extensions>
          <ns3:TrackPointExtension>
            <ns3:atemp>25.0</ns3:atemp>
          </ns3:TrackPointExtension>
        </extensions>
      </trkpt>
      <trkpt lat="42.45009035803377628326416015625" lon="20.20280800759792327880859375">
        <ele>1087.5999755859375</ele>
        <time>2026-06-20T12:23:59.000Z</time>
        <extensions>
          <ns3:TrackPointExtension>
            <ns3:atemp>25.0</ns3:atemp>
          </ns3:TrackPointExtension>
        </extensions>
      </trkpt>
      <trkpt lat="42.45009035803377628326416015625" lon="20.20280800759792327880859375">
        <ele>1087.5999755859375</ele>
        <time>2026-06-20T12:24:00.000Z</time>
        <extensions>
          <ns3:TrackPointExtension>
            <ns3:atemp>25.0</ns3:atemp>
          </ns3:TrackPointExtension>
        </extensions>
      </trkpt>
      <trkpt lat="42.45009035803377628326416015625" lon="20.20280800759792327880859375">
        <ele>1087.5999755859375</ele>
        <time>2026-06-20T12:24:01.000Z</time>
        <extensions>
          <ns3:TrackPointExtension>
            <ns3:atemp>25.0</ns3:atemp>
          </ns3:TrackPointExtension>
        </extensions>
      </trkpt>
      <trkpt lat="42.45009035803377628326416015625" lon="20.20280800759792327880859375">
        <ele>1087.5999755859375</ele>
        <time>2026-06-20T12:24:02.000Z</time>
        <extensions>
          <ns3:TrackPointExtension>
            <ns3:atemp>25.0</ns3:atemp>
          </ns3:TrackPointExtension>
        </extensions>
      </trkpt>
      <trkpt lat="42.45009035803377628326416015625" lon="20.20280800759792327880859375">
        <ele>1087.5999755859375</ele>
        <time>2026-06-20T12:24:03.000Z</time>
        <extensions>
          <ns3:TrackPointExtension>
            <ns3:atemp>25.0</ns3:atemp>
          </ns3:TrackPointExtension>
        </extensions>
      </trkpt>
      <trkpt lat="42.45009035803377628326416015625" lon="20.20280800759792327880859375">
        <ele>1087.5999755859375</ele>
        <time>2026-06-20T12:24:04.000Z</time>
        <extensions>
          <ns3:TrackPointExtension>
            <ns3:atemp>25.0</ns3:atemp>
          </ns3:TrackPointExtension>
        </extensions>
      </trkpt>
      <trkpt lat="42.45009035803377628326416015625" lon="20.20280800759792327880859375">
        <ele>1087.5999755859375</ele>
        <time>2026-06-20T12:24:05.000Z</time>
        <extensions>
          <ns3:TrackPointExtension>
            <ns3:atemp>25.0</ns3:atemp>
          </ns3:TrackPointExtension>
        </extensions>
      </trkpt>
      <trkpt lat="42.45009035803377628326416015625" lon="20.20280800759792327880859375">
        <ele>1087.5999755859375</ele>
        <time>2026-06-20T12:24:06.000Z</time>
        <extensions>
          <ns3:TrackPointExtension>
            <ns3:atemp>25.0</ns3:atemp>
          </ns3:TrackPointExtension>
        </extensions>
      </trkpt>
      <trkpt lat="42.45009035803377628326416015625" lon="20.20280800759792327880859375">
        <ele>1087.5999755859375</ele>
        <time>2026-06-20T12:24:07.000Z</time>
        <extensions>
          <ns3:TrackPointExtension>
            <ns3:atemp>25.0</ns3:atemp>
          </ns3:TrackPointExtension>
        </extensions>
      </trkpt>
      <trkpt lat="42.45009035803377628326416015625" lon="20.20280800759792327880859375">
        <ele>1087.5999755859375</ele>
        <time>2026-06-20T12:24:08.000Z</time>
        <extensions>
          <ns3:TrackPointExtension>
            <ns3:atemp>25.0</ns3:atemp>
          </ns3:TrackPointExtension>
        </extensions>
      </trkpt>
      <trkpt lat="42.45009035803377628326416015625" lon="20.20280800759792327880859375">
        <ele>1087.5999755859375</ele>
        <time>2026-06-20T12:24:09.000Z</time>
        <extensions>
          <ns3:TrackPointExtension>
            <ns3:atemp>25.0</ns3:atemp>
          </ns3:TrackPointExtension>
        </extensions>
      </trkpt>
      <trkpt lat="42.45009035803377628326416015625" lon="20.20280800759792327880859375">
        <ele>1087.5999755859375</ele>
        <time>2026-06-20T12:24:10.000Z</time>
        <extensions>
          <ns3:TrackPointExtension>
            <ns3:atemp>25.0</ns3:atemp>
          </ns3:TrackPointExtension>
        </extensions>
      </trkpt>
      <trkpt lat="42.45009035803377628326416015625" lon="20.20280800759792327880859375">
        <ele>1087.5999755859375</ele>
        <time>2026-06-20T12:24:11.000Z</time>
        <extensions>
          <ns3:TrackPointExtension>
            <ns3:atemp>25.0</ns3:atemp>
          </ns3:TrackPointExtension>
        </extensions>
      </trkpt>
      <trkpt lat="42.45009035803377628326416015625" lon="20.20280800759792327880859375">
        <ele>1087.5999755859375</ele>
        <time>2026-06-20T12:24:12.000Z</time>
        <extensions>
          <ns3:TrackPointExtension>
            <ns3:atemp>25.0</ns3:atemp>
          </ns3:TrackPointExtension>
        </extensions>
      </trkpt>
      <trkpt lat="42.45009035803377628326416015625" lon="20.20280800759792327880859375">
        <ele>1087.5999755859375</ele>
        <time>2026-06-20T12:24:13.000Z</time>
        <extensions>
          <ns3:TrackPointExtension>
            <ns3:atemp>25.0</ns3:atemp>
          </ns3:TrackPointExtension>
        </extensions>
      </trkpt>
      <trkpt lat="42.45009035803377628326416015625" lon="20.20280800759792327880859375">
        <ele>1087.5999755859375</ele>
        <time>2026-06-20T12:24:14.000Z</time>
        <extensions>
          <ns3:TrackPointExtension>
            <ns3:atemp>25.0</ns3:atemp>
          </ns3:TrackPointExtension>
        </extensions>
      </trkpt>
      <trkpt lat="42.45009035803377628326416015625" lon="20.20280800759792327880859375">
        <ele>1087.5999755859375</ele>
        <time>2026-06-20T12:24:15.000Z</time>
        <extensions>
          <ns3:TrackPointExtension>
            <ns3:atemp>25.0</ns3:atemp>
          </ns3:TrackPointExtension>
        </extensions>
      </trkpt>
      <trkpt lat="42.45009035803377628326416015625" lon="20.20280800759792327880859375">
        <ele>1087.5999755859375</ele>
        <time>2026-06-20T12:24:16.000Z</time>
        <extensions>
          <ns3:TrackPointExtension>
            <ns3:atemp>25.0</ns3:atemp>
          </ns3:TrackPointExtension>
        </extensions>
      </trkpt>
      <trkpt lat="42.45009035803377628326416015625" lon="20.20280800759792327880859375">
        <ele>1087.5999755859375</ele>
        <time>2026-06-20T12:24:17.000Z</time>
        <extensions>
          <ns3:TrackPointExtension>
            <ns3:atemp>25.0</ns3:atemp>
          </ns3:TrackPointExtension>
        </extensions>
      </trkpt>
      <trkpt lat="42.45009035803377628326416015625" lon="20.20280800759792327880859375">
        <ele>1087.5999755859375</ele>
        <time>2026-06-20T12:24:18.000Z</time>
        <extensions>
          <ns3:TrackPointExtension>
            <ns3:atemp>25.0</ns3:atemp>
          </ns3:TrackPointExtension>
        </extensions>
      </trkpt>
      <trkpt lat="42.45009035803377628326416015625" lon="20.20280800759792327880859375">
        <ele>1087.5999755859375</ele>
        <time>2026-06-20T12:24:19.000Z</time>
        <extensions>
          <ns3:TrackPointExtension>
            <ns3:atemp>25.0</ns3:atemp>
          </ns3:TrackPointExtension>
        </extensions>
      </trkpt>
      <trkpt lat="42.45009035803377628326416015625" lon="20.20280800759792327880859375">
        <ele>1087.5999755859375</ele>
        <time>2026-06-20T12:24:20.000Z</time>
        <extensions>
          <ns3:TrackPointExtension>
            <ns3:atemp>25.0</ns3:atemp>
          </ns3:TrackPointExtension>
        </extensions>
      </trkpt>
      <trkpt lat="42.45009035803377628326416015625" lon="20.20280800759792327880859375">
        <ele>1087.5999755859375</ele>
        <time>2026-06-20T12:24:21.000Z</time>
        <extensions>
          <ns3:TrackPointExtension>
            <ns3:atemp>25.0</ns3:atemp>
          </ns3:TrackPointExtension>
        </extensions>
      </trkpt>
      <trkpt lat="42.45009035803377628326416015625" lon="20.20280800759792327880859375">
        <ele>1087.5999755859375</ele>
        <time>2026-06-20T12:24:22.000Z</time>
        <extensions>
          <ns3:TrackPointExtension>
            <ns3:atemp>25.0</ns3:atemp>
          </ns3:TrackPointExtension>
        </extensions>
      </trkpt>
      <trkpt lat="42.45009035803377628326416015625" lon="20.20280800759792327880859375">
        <ele>1087.5999755859375</ele>
        <time>2026-06-20T12:24:23.000Z</time>
        <extensions>
          <ns3:TrackPointExtension>
            <ns3:atemp>25.0</ns3:atemp>
          </ns3:TrackPointExtension>
        </extensions>
      </trkpt>
      <trkpt lat="42.45009035803377628326416015625" lon="20.20280800759792327880859375">
        <ele>1087.5999755859375</ele>
        <time>2026-06-20T12:24:24.000Z</time>
        <extensions>
          <ns3:TrackPointExtension>
            <ns3:atemp>25.0</ns3:atemp>
          </ns3:TrackPointExtension>
        </extensions>
      </trkpt>
      <trkpt lat="42.45009035803377628326416015625" lon="20.20280800759792327880859375">
        <ele>1087.5999755859375</ele>
        <time>2026-06-20T12:24:25.000Z</time>
        <extensions>
          <ns3:TrackPointExtension>
            <ns3:atemp>25.0</ns3:atemp>
          </ns3:TrackPointExtension>
        </extensions>
      </trkpt>
      <trkpt lat="42.45009035803377628326416015625" lon="20.20280800759792327880859375">
        <ele>1087.5999755859375</ele>
        <time>2026-06-20T12:24:26.000Z</time>
        <extensions>
          <ns3:TrackPointExtension>
            <ns3:atemp>25.0</ns3:atemp>
          </ns3:TrackPointExtension>
        </extensions>
      </trkpt>
      <trkpt lat="42.45009035803377628326416015625" lon="20.20280800759792327880859375">
        <ele>1087.5999755859375</ele>
        <time>2026-06-20T12:24:27.000Z</time>
        <extensions>
          <ns3:TrackPointExtension>
            <ns3:atemp>25.0</ns3:atemp>
          </ns3:TrackPointExtension>
        </extensions>
      </trkpt>
      <trkpt lat="42.45009035803377628326416015625" lon="20.20280800759792327880859375">
        <ele>1087.5999755859375</ele>
        <time>2026-06-20T12:24:28.000Z</time>
        <extensions>
          <ns3:TrackPointExtension>
            <ns3:atemp>25.0</ns3:atemp>
          </ns3:TrackPointExtension>
        </extensions>
      </trkpt>
      <trkpt lat="42.45009035803377628326416015625" lon="20.20280800759792327880859375">
        <ele>1087.5999755859375</ele>
        <time>2026-06-20T12:24:29.000Z</time>
        <extensions>
          <ns3:TrackPointExtension>
            <ns3:atemp>25.0</ns3:atemp>
          </ns3:TrackPointExtension>
        </extensions>
      </trkpt>
      <trkpt lat="42.45009035803377628326416015625" lon="20.20280800759792327880859375">
        <ele>1087.5999755859375</ele>
        <time>2026-06-20T12:24:30.000Z</time>
        <extensions>
          <ns3:TrackPointExtension>
            <ns3:atemp>25.0</ns3:atemp>
          </ns3:TrackPointExtension>
        </extensions>
      </trkpt>
      <trkpt lat="42.45009035803377628326416015625" lon="20.20280800759792327880859375">
        <ele>1087.5999755859375</ele>
        <time>2026-06-20T12:24:31.000Z</time>
        <extensions>
          <ns3:TrackPointExtension>
            <ns3:atemp>25.0</ns3:atemp>
          </ns3:TrackPointExtension>
        </extensions>
      </trkpt>
      <trkpt lat="42.45009035803377628326416015625" lon="20.20280800759792327880859375">
        <ele>1087.5999755859375</ele>
        <time>2026-06-20T12:24:32.000Z</time>
        <extensions>
          <ns3:TrackPointExtension>
            <ns3:atemp>25.0</ns3:atemp>
          </ns3:TrackPointExtension>
        </extensions>
      </trkpt>
      <trkpt lat="42.45009035803377628326416015625" lon="20.20280800759792327880859375">
        <ele>1087.5999755859375</ele>
        <time>2026-06-20T12:24:33.000Z</time>
        <extensions>
          <ns3:TrackPointExtension>
            <ns3:atemp>25.0</ns3:atemp>
          </ns3:TrackPointExtension>
        </extensions>
      </trkpt>
      <trkpt lat="42.45009035803377628326416015625" lon="20.20280800759792327880859375">
        <ele>1087.5999755859375</ele>
        <time>2026-06-20T12:24:34.000Z</time>
        <extensions>
          <ns3:TrackPointExtension>
            <ns3:atemp>25.0</ns3:atemp>
          </ns3:TrackPointExtension>
        </extensions>
      </trkpt>
      <trkpt lat="42.45009035803377628326416015625" lon="20.20280800759792327880859375">
        <ele>1087.5999755859375</ele>
        <time>2026-06-20T12:24:35.000Z</time>
        <extensions>
          <ns3:TrackPointExtension>
            <ns3:atemp>25.0</ns3:atemp>
          </ns3:TrackPointExtension>
        </extensions>
      </trkpt>
      <trkpt lat="42.45009035803377628326416015625" lon="20.20280800759792327880859375">
        <ele>1087.5999755859375</ele>
        <time>2026-06-20T12:24:36.000Z</time>
        <extensions>
          <ns3:TrackPointExtension>
            <ns3:atemp>25.0</ns3:atemp>
          </ns3:TrackPointExtension>
        </extensions>
      </trkpt>
      <trkpt lat="42.45009035803377628326416015625" lon="20.20280800759792327880859375">
        <ele>1087.5999755859375</ele>
        <time>2026-06-20T12:24:37.000Z</time>
        <extensions>
          <ns3:TrackPointExtension>
            <ns3:atemp>25.0</ns3:atemp>
          </ns3:TrackPointExtension>
        </extensions>
      </trkpt>
      <trkpt lat="42.45009035803377628326416015625" lon="20.20280800759792327880859375">
        <ele>1087.5999755859375</ele>
        <time>2026-06-20T12:24:38.000Z</time>
        <extensions>
          <ns3:TrackPointExtension>
            <ns3:atemp>25.0</ns3:atemp>
          </ns3:TrackPointExtension>
        </extensions>
      </trkpt>
      <trkpt lat="42.45009035803377628326416015625" lon="20.20280800759792327880859375">
        <ele>1087.5999755859375</ele>
        <time>2026-06-20T12:24:39.000Z</time>
        <extensions>
          <ns3:TrackPointExtension>
            <ns3:atemp>25.0</ns3:atemp>
          </ns3:TrackPointExtension>
        </extensions>
      </trkpt>
      <trkpt lat="42.45009035803377628326416015625" lon="20.20280800759792327880859375">
        <ele>1087.5999755859375</ele>
        <time>2026-06-20T12:24:40.000Z</time>
        <extensions>
          <ns3:TrackPointExtension>
            <ns3:atemp>25.0</ns3:atemp>
          </ns3:TrackPointExtension>
        </extensions>
      </trkpt>
      <trkpt lat="42.45009035803377628326416015625" lon="20.20280800759792327880859375">
        <ele>1087.5999755859375</ele>
        <time>2026-06-20T12:24:41.000Z</time>
        <extensions>
          <ns3:TrackPointExtension>
            <ns3:atemp>25.0</ns3:atemp>
          </ns3:TrackPointExtension>
        </extensions>
      </trkpt>
      <trkpt lat="42.45009035803377628326416015625" lon="20.20280800759792327880859375">
        <ele>1087.5999755859375</ele>
        <time>2026-06-20T12:24:42.000Z</time>
        <extensions>
          <ns3:TrackPointExtension>
            <ns3:atemp>25.0</ns3:atemp>
          </ns3:TrackPointExtension>
        </extensions>
      </trkpt>
      <trkpt lat="42.45009035803377628326416015625" lon="20.20280800759792327880859375">
        <ele>1087.5999755859375</ele>
        <time>2026-06-20T12:24:43.000Z</time>
        <extensions>
          <ns3:TrackPointExtension>
            <ns3:atemp>25.0</ns3:atemp>
          </ns3:TrackPointExtension>
        </extensions>
      </trkpt>
      <trkpt lat="42.45009035803377628326416015625" lon="20.20280800759792327880859375">
        <ele>1087.5999755859375</ele>
        <time>2026-06-20T12:24:44.000Z</time>
        <extensions>
          <ns3:TrackPointExtension>
            <ns3:atemp>25.0</ns3:atemp>
          </ns3:TrackPointExtension>
        </extensions>
      </trkpt>
      <trkpt lat="42.45009035803377628326416015625" lon="20.20280800759792327880859375">
        <ele>1087.5999755859375</ele>
        <time>2026-06-20T12:24:45.000Z</time>
        <extensions>
          <ns3:TrackPointExtension>
            <ns3:atemp>25.0</ns3:atemp>
          </ns3:TrackPointExtension>
        </extensions>
      </trkpt>
      <trkpt lat="42.45009035803377628326416015625" lon="20.20280800759792327880859375">
        <ele>1087.5999755859375</ele>
        <time>2026-06-20T12:24:46.000Z</time>
        <extensions>
          <ns3:TrackPointExtension>
            <ns3:atemp>25.0</ns3:atemp>
          </ns3:TrackPointExtension>
        </extensions>
      </trkpt>
      <trkpt lat="42.45009035803377628326416015625" lon="20.20280800759792327880859375">
        <ele>1087.5999755859375</ele>
        <time>2026-06-20T12:24:47.000Z</time>
        <extensions>
          <ns3:TrackPointExtension>
            <ns3:atemp>25.0</ns3:atemp>
          </ns3:TrackPointExtension>
        </extensions>
      </trkpt>
      <trkpt lat="42.45009035803377628326416015625" lon="20.20280800759792327880859375">
        <ele>1087.5999755859375</ele>
        <time>2026-06-20T12:24:48.000Z</time>
        <extensions>
          <ns3:TrackPointExtension>
            <ns3:atemp>25.0</ns3:atemp>
          </ns3:TrackPointExtension>
        </extensions>
      </trkpt>
      <trkpt lat="42.45009035803377628326416015625" lon="20.20280800759792327880859375">
        <ele>1087.5999755859375</ele>
        <time>2026-06-20T12:24:49.000Z</time>
        <extensions>
          <ns3:TrackPointExtension>
            <ns3:atemp>25.0</ns3:atemp>
          </ns3:TrackPointExtension>
        </extensions>
      </trkpt>
      <trkpt lat="42.45009035803377628326416015625" lon="20.20280800759792327880859375">
        <ele>1087.5999755859375</ele>
        <time>2026-06-20T12:24:50.000Z</time>
        <extensions>
          <ns3:TrackPointExtension>
            <ns3:atemp>25.0</ns3:atemp>
          </ns3:TrackPointExtension>
        </extensions>
      </trkpt>
      <trkpt lat="42.45009035803377628326416015625" lon="20.20280800759792327880859375">
        <ele>1087.5999755859375</ele>
        <time>2026-06-20T12:24:51.000Z</time>
        <extensions>
          <ns3:TrackPointExtension>
            <ns3:atemp>25.0</ns3:atemp>
          </ns3:TrackPointExtension>
        </extensions>
      </trkpt>
      <trkpt lat="42.45008851401507854461669921875" lon="20.20280691795051097869873046875">
        <ele>1087.5999755859375</ele>
        <time>2026-06-20T12:24:52.000Z</time>
        <extensions>
          <ns3:TrackPointExtension>
            <ns3:atemp>25.0</ns3:atemp>
          </ns3:TrackPointExtension>
        </extensions>
      </trkpt>
      <trkpt lat="42.45009186677634716033935546875" lon="20.2028202451765537261962890625">
        <ele>1087.5999755859375</ele>
        <time>2026-06-20T12:24:53.000Z</time>
        <extensions>
          <ns3:TrackPointExtension>
            <ns3:atemp>25.0</ns3:atemp>
          </ns3:TrackPointExtension>
        </extensions>
      </trkpt>
      <trkpt lat="42.45008767582476139068603515625" lon="20.202832482755184173583984375">
        <ele>1087.5999755859375</ele>
        <time>2026-06-20T12:24:54.000Z</time>
        <extensions>
          <ns3:TrackPointExtension>
            <ns3:atemp>25.0</ns3:atemp>
          </ns3:TrackPointExtension>
        </extensions>
      </trkpt>
      <trkpt lat="42.45008566416800022125244140625" lon="20.20284815691411495208740234375">
        <ele>1087.5999755859375</ele>
        <time>2026-06-20T12:24:55.000Z</time>
        <extensions>
          <ns3:TrackPointExtension>
            <ns3:atemp>25.0</ns3:atemp>
          </ns3:TrackPointExtension>
        </extensions>
      </trkpt>
      <trkpt lat="42.45008650235831737518310546875" lon="20.20285821519792079925537109375">
        <ele>1087.5999755859375</ele>
        <time>2026-06-20T12:24:56.000Z</time>
        <extensions>
          <ns3:TrackPointExtension>
            <ns3:atemp>25.0</ns3:atemp>
          </ns3:TrackPointExtension>
        </extensions>
      </trkpt>
      <trkpt lat="42.45008549652993679046630859375" lon="20.20287573337554931640625">
        <ele>1087.5999755859375</ele>
        <time>2026-06-20T12:24:57.000Z</time>
        <extensions>
          <ns3:TrackPointExtension>
            <ns3:atemp>25.0</ns3:atemp>
          </ns3:TrackPointExtension>
        </extensions>
      </trkpt>
      <trkpt lat="42.45008382014930248260498046875" lon="20.2028862945735454559326171875">
        <ele>1087.5999755859375</ele>
        <time>2026-06-20T12:24:58.000Z</time>
        <extensions>
          <ns3:TrackPointExtension>
            <ns3:atemp>25.0</ns3:atemp>
          </ns3:TrackPointExtension>
        </extensions>
      </trkpt>
      <trkpt lat="42.45008289813995361328125" lon="20.20289895124733448028564453125">
        <ele>1087.5999755859375</ele>
        <time>2026-06-20T12:24:59.000Z</time>
        <extensions>
          <ns3:TrackPointExtension>
            <ns3:atemp>25.0</ns3:atemp>
          </ns3:TrackPointExtension>
        </extensions>
      </trkpt>
      <trkpt lat="42.45008080266416072845458984375" lon="20.20290456712245941162109375">
        <ele>1087.5999755859375</ele>
        <time>2026-06-20T12:25:00.000Z</time>
        <extensions>
          <ns3:TrackPointExtension>
            <ns3:atemp>25.0</ns3:atemp>
          </ns3:TrackPointExtension>
        </extensions>
      </trkpt>
      <trkpt lat="42.45007879100739955902099609375" lon="20.20290431566536426544189453125">
        <ele>1087.5999755859375</ele>
        <time>2026-06-20T12:25:01.000Z</time>
        <extensions>
          <ns3:TrackPointExtension>
            <ns3:atemp>25.0</ns3:atemp>
          </ns3:TrackPointExtension>
        </extensions>
      </trkpt>
      <trkpt lat="42.45007510297000408172607421875" lon="20.2029070816934108734130859375">
        <ele>1087.5999755859375</ele>
        <time>2026-06-20T12:25:02.000Z</time>
        <extensions>
          <ns3:TrackPointExtension>
            <ns3:atemp>25.0</ns3:atemp>
          </ns3:TrackPointExtension>
        </extensions>
      </trkpt>
      <trkpt lat="42.4500730074942111968994140625" lon="20.20290414802730083465576171875">
        <ele>1087.5999755859375</ele>
        <time>2026-06-20T12:25:03.000Z</time>
        <extensions>
          <ns3:TrackPointExtension>
            <ns3:atemp>25.0</ns3:atemp>
          </ns3:TrackPointExtension>
        </extensions>
      </trkpt>
      <trkpt lat="42.45007191784679889678955078125" lon="20.20289258100092411041259765625">
        <ele>1087.5999755859375</ele>
        <time>2026-06-20T12:25:04.000Z</time>
        <extensions>
          <ns3:TrackPointExtension>
            <ns3:atemp>25.0</ns3:atemp>
          </ns3:TrackPointExtension>
        </extensions>
      </trkpt>
      <trkpt lat="42.45007208548486232757568359375" lon="20.20289207808673381805419921875">
        <ele>1087.5999755859375</ele>
        <time>2026-06-20T12:25:05.000Z</time>
        <extensions>
          <ns3:TrackPointExtension>
            <ns3:atemp>25.0</ns3:atemp>
          </ns3:TrackPointExtension>
        </extensions>
      </trkpt>
      <trkpt lat="42.45007208548486232757568359375" lon="20.20289207808673381805419921875">
        <ele>1087.5999755859375</ele>
        <time>2026-06-20T12:25:06.000Z</time>
        <extensions>
          <ns3:TrackPointExtension>
            <ns3:atemp>25.0</ns3:atemp>
          </ns3:TrackPointExtension>
        </extensions>
      </trkpt>
      <trkpt lat="42.45007216930389404296875" lon="20.20289140753448009490966796875">
        <ele>1087.5999755859375</ele>
        <time>2026-06-20T12:25:07.000Z</time>
        <extensions>
          <ns3:TrackPointExtension>
            <ns3:atemp>25.0</ns3:atemp>
          </ns3:TrackPointExtension>
        </extensions>
      </trkpt>
      <trkpt lat="42.4500693194568157196044921875" lon="20.20288386382162570953369140625">
        <ele>1087.5999755859375</ele>
        <time>2026-06-20T12:25:08.000Z</time>
        <extensions>
          <ns3:TrackPointExtension>
            <ns3:atemp>25.0</ns3:atemp>
          </ns3:TrackPointExtension>
        </extensions>
      </trkpt>
      <trkpt lat="42.45007124729454517364501953125" lon="20.20286760292947292327880859375">
        <ele>1087.5999755859375</ele>
        <time>2026-06-20T12:25:09.000Z</time>
        <extensions>
          <ns3:TrackPointExtension>
            <ns3:atemp>25.0</ns3:atemp>
          </ns3:TrackPointExtension>
        </extensions>
      </trkpt>
      <trkpt lat="42.45007158257067203521728515625" lon="20.2028671838343143463134765625">
        <ele>1087.5999755859375</ele>
        <time>2026-06-20T12:25:10.000Z</time>
        <extensions>
          <ns3:TrackPointExtension>
            <ns3:atemp>25.0</ns3:atemp>
          </ns3:TrackPointExtension>
        </extensions>
      </trkpt>
      <trkpt lat="42.45007158257067203521728515625" lon="20.2028671838343143463134765625">
        <ele>1087.5999755859375</ele>
        <time>2026-06-20T12:25:11.000Z</time>
        <extensions>
          <ns3:TrackPointExtension>
            <ns3:atemp>25.0</ns3:atemp>
          </ns3:TrackPointExtension>
        </extensions>
      </trkpt>
      <trkpt lat="42.45007158257067203521728515625" lon="20.2028671838343143463134765625">
        <ele>1087.5999755859375</ele>
        <time>2026-06-20T12:25:12.000Z</time>
        <extensions>
          <ns3:TrackPointExtension>
            <ns3:atemp>25.0</ns3:atemp>
          </ns3:TrackPointExtension>
        </extensions>
      </trkpt>
      <trkpt lat="42.45007208548486232757568359375" lon="20.20286592654883861541748046875">
        <ele>1087.5999755859375</ele>
        <time>2026-06-20T12:25:13.000Z</time>
        <extensions>
          <ns3:TrackPointExtension>
            <ns3:atemp>25.0</ns3:atemp>
          </ns3:TrackPointExtension>
        </extensions>
      </trkpt>
      <trkpt lat="42.4500783719122409820556640625" lon="20.2028581313788890838623046875">
        <ele>1087.5999755859375</ele>
        <time>2026-06-20T12:25:14.000Z</time>
        <extensions>
          <ns3:TrackPointExtension>
            <ns3:atemp>25.0</ns3:atemp>
          </ns3:TrackPointExtension>
        </extensions>
      </trkpt>
      <trkpt lat="42.4500788748264312744140625" lon="20.20285092294216156005859375">
        <ele>1087.5999755859375</ele>
        <time>2026-06-20T12:25:15.000Z</time>
        <extensions>
          <ns3:TrackPointExtension>
            <ns3:atemp>25.0</ns3:atemp>
          </ns3:TrackPointExtension>
        </extensions>
      </trkpt>
      <trkpt lat="42.4500815570354461669921875" lon="20.20283885300159454345703125">
        <ele>1087.5999755859375</ele>
        <time>2026-06-20T12:25:16.000Z</time>
        <extensions>
          <ns3:TrackPointExtension>
            <ns3:atemp>25.0</ns3:atemp>
          </ns3:TrackPointExtension>
        </extensions>
      </trkpt>
      <trkpt lat="42.45008180849254131317138671875" lon="20.20282971672713756561279296875">
        <ele>1087.5999755859375</ele>
        <time>2026-06-20T12:25:17.000Z</time>
        <extensions>
          <ns3:TrackPointExtension>
            <ns3:atemp>25.0</ns3:atemp>
          </ns3:TrackPointExtension>
        </extensions>
      </trkpt>
      <trkpt lat="42.45008633472025394439697265625" lon="20.20282208919525146484375">
        <ele>1087.5999755859375</ele>
        <time>2026-06-20T12:25:18.000Z</time>
        <extensions>
          <ns3:TrackPointExtension>
            <ns3:atemp>25.0</ns3:atemp>
          </ns3:TrackPointExtension>
        </extensions>
      </trkpt>
      <trkpt lat="42.4500917829573154449462890625" lon="20.202811695635318756103515625">
        <ele>1087.5999755859375</ele>
        <time>2026-06-20T12:25:19.000Z</time>
        <extensions>
          <ns3:TrackPointExtension>
            <ns3:atemp>25.0</ns3:atemp>
          </ns3:TrackPointExtension>
        </extensions>
      </trkpt>
      <trkpt lat="42.450096644461154937744140625" lon="20.2028073370456695556640625">
        <ele>1087.5999755859375</ele>
        <time>2026-06-20T12:25:20.000Z</time>
        <extensions>
          <ns3:TrackPointExtension>
            <ns3:atemp>25.0</ns3:atemp>
          </ns3:TrackPointExtension>
        </extensions>
      </trkpt>
      <trkpt lat="42.4500968120992183685302734375" lon="20.2028073370456695556640625">
        <ele>1087.5999755859375</ele>
        <time>2026-06-20T12:25:21.000Z</time>
        <extensions>
          <ns3:TrackPointExtension>
            <ns3:atemp>25.0</ns3:atemp>
          </ns3:TrackPointExtension>
        </extensions>
      </trkpt>
      <trkpt lat="42.4500968120992183685302734375" lon="20.2028073370456695556640625">
        <ele>1087.5999755859375</ele>
        <time>2026-06-20T12:25:22.000Z</time>
        <extensions>
          <ns3:TrackPointExtension>
            <ns3:atemp>25.0</ns3:atemp>
          </ns3:TrackPointExtension>
        </extensions>
      </trkpt>
      <trkpt lat="42.4500968120992183685302734375" lon="20.2028073370456695556640625">
        <ele>1087.5999755859375</ele>
        <time>2026-06-20T12:25:23.000Z</time>
        <extensions>
          <ns3:TrackPointExtension>
            <ns3:atemp>25.0</ns3:atemp>
          </ns3:TrackPointExtension>
        </extensions>
      </trkpt>
      <trkpt lat="42.4500968120992183685302734375" lon="20.2028073370456695556640625">
        <ele>1087.5999755859375</ele>
        <time>2026-06-20T12:25:24.000Z</time>
        <extensions>
          <ns3:TrackPointExtension>
            <ns3:atemp>25.0</ns3:atemp>
          </ns3:TrackPointExtension>
        </extensions>
      </trkpt>
      <trkpt lat="42.4500968120992183685302734375" lon="20.2028073370456695556640625">
        <ele>1087.5999755859375</ele>
        <time>2026-06-20T12:25:25.000Z</time>
        <extensions>
          <ns3:TrackPointExtension>
            <ns3:atemp>25.0</ns3:atemp>
          </ns3:TrackPointExtension>
        </extensions>
      </trkpt>
      <trkpt lat="42.45009907521307468414306640625" lon="20.2028075046837329864501953125">
        <ele>1087.5999755859375</ele>
        <time>2026-06-20T12:25:26.000Z</time>
        <extensions>
          <ns3:TrackPointExtension>
            <ns3:atemp>25.0</ns3:atemp>
          </ns3:TrackPointExtension>
        </extensions>
      </trkpt>
      <trkpt lat="42.4501125700771808624267578125" lon="20.20281068980693817138671875">
        <ele>1087.5999755859375</ele>
        <time>2026-06-20T12:25:27.000Z</time>
        <extensions>
          <ns3:TrackPointExtension>
            <ns3:atemp>25.0</ns3:atemp>
          </ns3:TrackPointExtension>
        </extensions>
      </trkpt>
      <trkpt lat="42.4501293338835239410400390625" lon="20.2028235979378223419189453125">
        <ele>1087.5999755859375</ele>
        <time>2026-06-20T12:25:28.000Z</time>
        <extensions>
          <ns3:TrackPointExtension>
            <ns3:atemp>25.0</ns3:atemp>
          </ns3:TrackPointExtension>
        </extensions>
      </trkpt>
      <trkpt lat="42.45013528503477573394775390625" lon="20.20282812416553497314453125">
        <ele>1087.5999755859375</ele>
        <time>2026-06-20T12:25:29.000Z</time>
        <extensions>
          <ns3:TrackPointExtension>
            <ns3:atemp>25.0</ns3:atemp>
          </ns3:TrackPointExtension>
        </extensions>
      </trkpt>
      <trkpt lat="42.45013863779604434967041015625" lon="20.20283223129808902740478515625">
        <ele>1087.5999755859375</ele>
        <time>2026-06-20T12:25:30.000Z</time>
        <extensions>
          <ns3:TrackPointExtension>
            <ns3:atemp>25.0</ns3:atemp>
          </ns3:TrackPointExtension>
        </extensions>
      </trkpt>
      <trkpt lat="42.45014266110956668853759765625" lon="20.2028339914977550506591796875">
        <ele>1087.5999755859375</ele>
        <time>2026-06-20T12:25:31.000Z</time>
        <extensions>
          <ns3:TrackPointExtension>
            <ns3:atemp>25.0</ns3:atemp>
          </ns3:TrackPointExtension>
        </extensions>
      </trkpt>
      <trkpt lat="42.45014718733727931976318359375" lon="20.2028396911919116973876953125">
        <ele>1087.5999755859375</ele>
        <time>2026-06-20T12:25:32.000Z</time>
        <extensions>
          <ns3:TrackPointExtension>
            <ns3:atemp>25.0</ns3:atemp>
          </ns3:TrackPointExtension>
        </extensions>
      </trkpt>
      <trkpt lat="42.45014903135597705841064453125" lon="20.20284027792513370513916015625">
        <ele>1087.5999755859375</ele>
        <time>2026-06-20T12:25:33.000Z</time>
        <extensions>
          <ns3:TrackPointExtension>
            <ns3:atemp>25.0</ns3:atemp>
          </ns3:TrackPointExtension>
        </extensions>
      </trkpt>
      <trkpt lat="42.45014903135597705841064453125" lon="20.2028341591358184814453125">
        <ele>1087.5999755859375</ele>
        <time>2026-06-20T12:25:34.000Z</time>
        <extensions>
          <ns3:TrackPointExtension>
            <ns3:atemp>25.0</ns3:atemp>
          </ns3:TrackPointExtension>
        </extensions>
      </trkpt>
      <trkpt lat="42.45014199055731296539306640625" lon="20.20283021964132785797119140625">
        <ele>1087.5999755859375</ele>
        <time>2026-06-20T12:25:35.000Z</time>
        <extensions>
          <ns3:TrackPointExtension>
            <ns3:atemp>25.0</ns3:atemp>
          </ns3:TrackPointExtension>
        </extensions>
      </trkpt>
      <trkpt lat="42.45013654232025146484375" lon="20.202826447784900665283203125">
        <ele>1087.5999755859375</ele>
        <time>2026-06-20T12:25:36.000Z</time>
        <extensions>
          <ns3:TrackPointExtension>
            <ns3:atemp>25.0</ns3:atemp>
          </ns3:TrackPointExtension>
        </extensions>
      </trkpt>
      <trkpt lat="42.45012841187417507171630859375" lon="20.20282032899558544158935546875">
        <ele>1087.5999755859375</ele>
        <time>2026-06-20T12:25:37.000Z</time>
        <extensions>
          <ns3:TrackPointExtension>
            <ns3:atemp>25.0</ns3:atemp>
          </ns3:TrackPointExtension>
        </extensions>
      </trkpt>
      <trkpt lat="42.450117766857147216796875" lon="20.2028172276914119720458984375">
        <ele>1087.5999755859375</ele>
        <time>2026-06-20T12:25:38.000Z</time>
        <extensions>
          <ns3:TrackPointExtension>
            <ns3:atemp>25.0</ns3:atemp>
          </ns3:TrackPointExtension>
        </extensions>
      </trkpt>
      <trkpt lat="42.45010963641107082366943359375" lon="20.20281261764466762542724609375">
        <ele>1087.5999755859375</ele>
        <time>2026-06-20T12:25:39.000Z</time>
        <extensions>
          <ns3:TrackPointExtension>
            <ns3:atemp>25.0</ns3:atemp>
          </ns3:TrackPointExtension>
        </extensions>
      </trkpt>
      <trkpt lat="42.4501028470695018768310546875" lon="20.20281060598790645599365234375">
        <ele>1087.5999755859375</ele>
        <time>2026-06-20T12:25:40.000Z</time>
        <extensions>
          <ns3:TrackPointExtension>
            <ns3:atemp>25.0</ns3:atemp>
          </ns3:TrackPointExtension>
        </extensions>
      </trkpt>
      <trkpt lat="42.4500954709947109222412109375" lon="20.20281110890209674835205078125">
        <ele>1087.5999755859375</ele>
        <time>2026-06-20T12:25:41.000Z</time>
        <extensions>
          <ns3:TrackPointExtension>
            <ns3:atemp>25.0</ns3:atemp>
          </ns3:TrackPointExtension>
        </extensions>
      </trkpt>
      <trkpt lat="42.45009203441441059112548828125" lon="20.20281027071177959442138671875">
        <ele>1087.5999755859375</ele>
        <time>2026-06-20T12:25:42.000Z</time>
        <extensions>
          <ns3:TrackPointExtension>
            <ns3:atemp>25.0</ns3:atemp>
          </ns3:TrackPointExtension>
        </extensions>
      </trkpt>
      <trkpt lat="42.45009002275764942169189453125" lon="20.20280691795051097869873046875">
        <ele>1087.5999755859375</ele>
        <time>2026-06-20T12:25:43.000Z</time>
        <extensions>
          <ns3:TrackPointExtension>
            <ns3:atemp>25.0</ns3:atemp>
          </ns3:TrackPointExtension>
        </extensions>
      </trkpt>
      <trkpt lat="42.4500882625579833984375" lon="20.20280121825635433197021484375">
        <ele>1087.5999755859375</ele>
        <time>2026-06-20T12:25:44.000Z</time>
        <extensions>
          <ns3:TrackPointExtension>
            <ns3:atemp>25.0</ns3:atemp>
          </ns3:TrackPointExtension>
        </extensions>
      </trkpt>
      <trkpt lat="42.45008700527250766754150390625" lon="20.20279568620026111602783203125">
        <ele>1087.5999755859375</ele>
        <time>2026-06-20T12:25:45.000Z</time>
        <extensions>
          <ns3:TrackPointExtension>
            <ns3:atemp>25.0</ns3:atemp>
          </ns3:TrackPointExtension>
        </extensions>
      </trkpt>
      <trkpt lat="42.4500869214534759521484375" lon="20.20278981886804103851318359375">
        <ele>1087.5999755859375</ele>
        <time>2026-06-20T12:25:46.000Z</time>
        <extensions>
          <ns3:TrackPointExtension>
            <ns3:atemp>25.0</ns3:atemp>
          </ns3:TrackPointExtension>
        </extensions>
      </trkpt>
      <trkpt lat="42.45008549652993679046630859375" lon="20.20278520882129669189453125">
        <ele>1087.5999755859375</ele>
        <time>2026-06-20T12:25:47.000Z</time>
        <extensions>
          <ns3:TrackPointExtension>
            <ns3:atemp>25.0</ns3:atemp>
          </ns3:TrackPointExtension>
        </extensions>
      </trkpt>
      <trkpt lat="42.45008197613060474395751953125" lon="20.20278093405067920684814453125">
        <ele>1087.5999755859375</ele>
        <time>2026-06-20T12:25:48.000Z</time>
        <extensions>
          <ns3:TrackPointExtension>
            <ns3:atemp>25.0</ns3:atemp>
          </ns3:TrackPointExtension>
        </extensions>
      </trkpt>
      <trkpt lat="42.45007694698870182037353515625" lon="20.2027776651084423065185546875">
        <ele>1087.5999755859375</ele>
        <time>2026-06-20T12:25:49.000Z</time>
        <extensions>
          <ns3:TrackPointExtension>
            <ns3:atemp>25.0</ns3:atemp>
          </ns3:TrackPointExtension>
        </extensions>
      </trkpt>
      <trkpt lat="42.450074516236782073974609375" lon="20.2027778327465057373046875">
        <ele>1087.5999755859375</ele>
        <time>2026-06-20T12:25:50.000Z</time>
        <extensions>
          <ns3:TrackPointExtension>
            <ns3:atemp>25.0</ns3:atemp>
          </ns3:TrackPointExtension>
        </extensions>
      </trkpt>
      <trkpt lat="42.45007460005581378936767578125" lon="20.20277774892747402191162109375">
        <ele>1087.5999755859375</ele>
        <time>2026-06-20T12:25:51.000Z</time>
        <extensions>
          <ns3:TrackPointExtension>
            <ns3:atemp>25.0</ns3:atemp>
          </ns3:TrackPointExtension>
        </extensions>
      </trkpt>
      <trkpt lat="42.45007460005581378936767578125" lon="20.20277774892747402191162109375">
        <ele>1087.5999755859375</ele>
        <time>2026-06-20T12:25:52.000Z</time>
        <extensions>
          <ns3:TrackPointExtension>
            <ns3:atemp>25.0</ns3:atemp>
          </ns3:TrackPointExtension>
        </extensions>
      </trkpt>
      <trkpt lat="42.45007460005581378936767578125" lon="20.20277774892747402191162109375">
        <ele>1087.5999755859375</ele>
        <time>2026-06-20T12:25:53.000Z</time>
        <extensions>
          <ns3:TrackPointExtension>
            <ns3:atemp>25.0</ns3:atemp>
          </ns3:TrackPointExtension>
        </extensions>
      </trkpt>
      <trkpt lat="42.45007460005581378936767578125" lon="20.20277774892747402191162109375">
        <ele>1087.5999755859375</ele>
        <time>2026-06-20T12:25:54.000Z</time>
        <extensions>
          <ns3:TrackPointExtension>
            <ns3:atemp>25.0</ns3:atemp>
          </ns3:TrackPointExtension>
        </extensions>
      </trkpt>
      <trkpt lat="42.45007460005581378936767578125" lon="20.20277774892747402191162109375">
        <ele>1087.5999755859375</ele>
        <time>2026-06-20T12:25:55.000Z</time>
        <extensions>
          <ns3:TrackPointExtension>
            <ns3:atemp>25.0</ns3:atemp>
          </ns3:TrackPointExtension>
        </extensions>
      </trkpt>
      <trkpt lat="42.45007460005581378936767578125" lon="20.20277774892747402191162109375">
        <ele>1087.5999755859375</ele>
        <time>2026-06-20T12:25:56.000Z</time>
        <extensions>
          <ns3:TrackPointExtension>
            <ns3:atemp>25.0</ns3:atemp>
          </ns3:TrackPointExtension>
        </extensions>
      </trkpt>
      <trkpt lat="42.45007460005581378936767578125" lon="20.20277774892747402191162109375">
        <ele>1087.5999755859375</ele>
        <time>2026-06-20T12:25:57.000Z</time>
        <extensions>
          <ns3:TrackPointExtension>
            <ns3:atemp>25.0</ns3:atemp>
          </ns3:TrackPointExtension>
        </extensions>
      </trkpt>
      <trkpt lat="42.45007460005581378936767578125" lon="20.20277774892747402191162109375">
        <ele>1087.5999755859375</ele>
        <time>2026-06-20T12:25:58.000Z</time>
        <extensions>
          <ns3:TrackPointExtension>
            <ns3:atemp>25.0</ns3:atemp>
          </ns3:TrackPointExtension>
        </extensions>
      </trkpt>
      <trkpt lat="42.45007460005581378936767578125" lon="20.20277774892747402191162109375">
        <ele>1087.5999755859375</ele>
        <time>2026-06-20T12:25:59.000Z</time>
        <extensions>
          <ns3:TrackPointExtension>
            <ns3:atemp>25.0</ns3:atemp>
          </ns3:TrackPointExtension>
        </extensions>
      </trkpt>
      <trkpt lat="42.45007460005581378936767578125" lon="20.20277774892747402191162109375">
        <ele>1087.5999755859375</ele>
        <time>2026-06-20T12:26:00.000Z</time>
        <extensions>
          <ns3:TrackPointExtension>
            <ns3:atemp>25.0</ns3:atemp>
          </ns3:TrackPointExtension>
        </extensions>
      </trkpt>
      <trkpt lat="42.45007460005581378936767578125" lon="20.20277774892747402191162109375">
        <ele>1087.5999755859375</ele>
        <time>2026-06-20T12:26:01.000Z</time>
        <extensions>
          <ns3:TrackPointExtension>
            <ns3:atemp>25.0</ns3:atemp>
          </ns3:TrackPointExtension>
        </extensions>
      </trkpt>
      <trkpt lat="42.45007460005581378936767578125" lon="20.20277774892747402191162109375">
        <ele>1087.5999755859375</ele>
        <time>2026-06-20T12:26:02.000Z</time>
        <extensions>
          <ns3:TrackPointExtension>
            <ns3:atemp>25.0</ns3:atemp>
          </ns3:TrackPointExtension>
        </extensions>
      </trkpt>
      <trkpt lat="42.45007460005581378936767578125" lon="20.20277774892747402191162109375">
        <ele>1087.5999755859375</ele>
        <time>2026-06-20T12:26:03.000Z</time>
        <extensions>
          <ns3:TrackPointExtension>
            <ns3:atemp>25.0</ns3:atemp>
          </ns3:TrackPointExtension>
        </extensions>
      </trkpt>
      <trkpt lat="42.45007460005581378936767578125" lon="20.20277774892747402191162109375">
        <ele>1087.5999755859375</ele>
        <time>2026-06-20T12:26:04.000Z</time>
        <extensions>
          <ns3:TrackPointExtension>
            <ns3:atemp>25.0</ns3:atemp>
          </ns3:TrackPointExtension>
        </extensions>
      </trkpt>
      <trkpt lat="42.45007460005581378936767578125" lon="20.20277774892747402191162109375">
        <ele>1087.5999755859375</ele>
        <time>2026-06-20T12:26:05.000Z</time>
        <extensions>
          <ns3:TrackPointExtension>
            <ns3:atemp>25.0</ns3:atemp>
          </ns3:TrackPointExtension>
        </extensions>
      </trkpt>
      <trkpt lat="42.45007460005581378936767578125" lon="20.20277774892747402191162109375">
        <ele>1087.5999755859375</ele>
        <time>2026-06-20T12:26:06.000Z</time>
        <extensions>
          <ns3:TrackPointExtension>
            <ns3:atemp>25.0</ns3:atemp>
          </ns3:TrackPointExtension>
        </extensions>
      </trkpt>
      <trkpt lat="42.45007460005581378936767578125" lon="20.20277774892747402191162109375">
        <ele>1087.5999755859375</ele>
        <time>2026-06-20T12:26:07.000Z</time>
        <extensions>
          <ns3:TrackPointExtension>
            <ns3:atemp>25.0</ns3:atemp>
          </ns3:TrackPointExtension>
        </extensions>
      </trkpt>
      <trkpt lat="42.45007460005581378936767578125" lon="20.20277774892747402191162109375">
        <ele>1087.5999755859375</ele>
        <time>2026-06-20T12:26:08.000Z</time>
        <extensions>
          <ns3:TrackPointExtension>
            <ns3:atemp>25.0</ns3:atemp>
          </ns3:TrackPointExtension>
        </extensions>
      </trkpt>
      <trkpt lat="42.45007460005581378936767578125" lon="20.20277774892747402191162109375">
        <ele>1087.5999755859375</ele>
        <time>2026-06-20T12:26:09.000Z</time>
        <extensions>
          <ns3:TrackPointExtension>
            <ns3:atemp>25.0</ns3:atemp>
          </ns3:TrackPointExtension>
        </extensions>
      </trkpt>
      <trkpt lat="42.45007460005581378936767578125" lon="20.20277774892747402191162109375">
        <ele>1087.5999755859375</ele>
        <time>2026-06-20T12:26:10.000Z</time>
        <extensions>
          <ns3:TrackPointExtension>
            <ns3:atemp>25.0</ns3:atemp>
          </ns3:TrackPointExtension>
        </extensions>
      </trkpt>
      <trkpt lat="42.45007460005581378936767578125" lon="20.20277774892747402191162109375">
        <ele>1087.5999755859375</ele>
        <time>2026-06-20T12:26:11.000Z</time>
        <extensions>
          <ns3:TrackPointExtension>
            <ns3:atemp>25.0</ns3:atemp>
          </ns3:TrackPointExtension>
        </extensions>
      </trkpt>
      <trkpt lat="42.45007460005581378936767578125" lon="20.20277774892747402191162109375">
        <ele>1087.5999755859375</ele>
        <time>2026-06-20T12:26:12.000Z</time>
        <extensions>
          <ns3:TrackPointExtension>
            <ns3:atemp>25.0</ns3:atemp>
          </ns3:TrackPointExtension>
        </extensions>
      </trkpt>
      <trkpt lat="42.45007460005581378936767578125" lon="20.20277774892747402191162109375">
        <ele>1087.5999755859375</ele>
        <time>2026-06-20T12:26:13.000Z</time>
        <extensions>
          <ns3:TrackPointExtension>
            <ns3:atemp>25.0</ns3:atemp>
          </ns3:TrackPointExtension>
        </extensions>
      </trkpt>
      <trkpt lat="42.45007460005581378936767578125" lon="20.20277774892747402191162109375">
        <ele>1087.5999755859375</ele>
        <time>2026-06-20T12:26:14.000Z</time>
        <extensions>
          <ns3:TrackPointExtension>
            <ns3:atemp>25.0</ns3:atemp>
          </ns3:TrackPointExtension>
        </extensions>
      </trkpt>
      <trkpt lat="42.45006613433361053466796875" lon="20.20276643335819244384765625">
        <ele>1087.5999755859375</ele>
        <time>2026-06-20T12:26:15.000Z</time>
        <extensions>
          <ns3:TrackPointExtension>
            <ns3:atemp>25.0</ns3:atemp>
          </ns3:TrackPointExtension>
        </extensions>
      </trkpt>
      <trkpt lat="42.45005833916366100311279296875" lon="20.20275997929275035858154296875">
        <ele>1087.5999755859375</ele>
        <time>2026-06-20T12:26:16.000Z</time>
        <extensions>
          <ns3:TrackPointExtension>
            <ns3:atemp>25.0</ns3:atemp>
          </ns3:TrackPointExtension>
        </extensions>
      </trkpt>
      <trkpt lat="42.45005079545080661773681640625" lon="20.2027585543692111968994140625">
        <ele>1087.5999755859375</ele>
        <time>2026-06-20T12:26:17.000Z</time>
        <extensions>
          <ns3:TrackPointExtension>
            <ns3:atemp>25.0</ns3:atemp>
          </ns3:TrackPointExtension>
        </extensions>
      </trkpt>
      <trkpt lat="42.4500495381653308868408203125" lon="20.202760398387908935546875">
        <ele>1087.5999755859375</ele>
        <time>2026-06-20T12:26:18.000Z</time>
        <extensions>
          <ns3:TrackPointExtension>
            <ns3:atemp>25.0</ns3:atemp>
          </ns3:TrackPointExtension>
        </extensions>
      </trkpt>
      <trkpt lat="42.450042329728603363037109375" lon="20.2027736417949199676513671875">
        <ele>1087.5999755859375</ele>
        <time>2026-06-20T12:26:19.000Z</time>
        <extensions>
          <ns3:TrackPointExtension>
            <ns3:atemp>25.0</ns3:atemp>
          </ns3:TrackPointExtension>
        </extensions>
      </trkpt>
      <trkpt lat="42.4500386416912078857421875" lon="20.20277825184166431427001953125">
        <ele>1087.5999755859375</ele>
        <time>2026-06-20T12:26:20.000Z</time>
        <extensions>
          <ns3:TrackPointExtension>
            <ns3:atemp>25.0</ns3:atemp>
          </ns3:TrackPointExtension>
        </extensions>
      </trkpt>
      <trkpt lat="42.450034618377685546875" lon="20.2027873881161212921142578125">
        <ele>1087.5999755859375</ele>
        <time>2026-06-20T12:26:21.000Z</time>
        <extensions>
          <ns3:TrackPointExtension>
            <ns3:atemp>25.0</ns3:atemp>
          </ns3:TrackPointExtension>
        </extensions>
      </trkpt>
      <trkpt lat="42.4500361271202564239501953125" lon="20.20279484800994396209716796875">
        <ele>1087.5999755859375</ele>
        <time>2026-06-20T12:26:22.000Z</time>
        <extensions>
          <ns3:TrackPointExtension>
            <ns3:atemp>25.0</ns3:atemp>
          </ns3:TrackPointExtension>
        </extensions>
      </trkpt>
      <trkpt lat="42.45003805495798587799072265625" lon="20.20279954187572002410888671875">
        <ele>1087.5999755859375</ele>
        <time>2026-06-20T12:26:23.000Z</time>
        <extensions>
          <ns3:TrackPointExtension>
            <ns3:atemp>25.0</ns3:atemp>
          </ns3:TrackPointExtension>
        </extensions>
      </trkpt>
      <trkpt lat="42.45003604330122470855712890625" lon="20.2027984522283077239990234375">
        <ele>1087.5999755859375</ele>
        <time>2026-06-20T12:26:24.000Z</time>
        <extensions>
          <ns3:TrackPointExtension>
            <ns3:atemp>25.0</ns3:atemp>
          </ns3:TrackPointExtension>
        </extensions>
      </trkpt>
      <trkpt lat="42.4500359594821929931640625" lon="20.20279333926737308502197265625">
        <ele>1087.5999755859375</ele>
        <time>2026-06-20T12:26:25.000Z</time>
        <extensions>
          <ns3:TrackPointExtension>
            <ns3:atemp>25.0</ns3:atemp>
          </ns3:TrackPointExtension>
        </extensions>
      </trkpt>
      <trkpt lat="42.45003721676766872406005859375" lon="20.20279903896152973175048828125">
        <ele>1087.5999755859375</ele>
        <time>2026-06-20T12:26:26.000Z</time>
        <extensions>
          <ns3:TrackPointExtension>
            <ns3:atemp>25.0</ns3:atemp>
          </ns3:TrackPointExtension>
        </extensions>
      </trkpt>
      <trkpt lat="42.45003922842442989349365234375" lon="20.2027992904186248779296875">
        <ele>1087.800048828125</ele>
        <time>2026-06-20T12:26:27.000Z</time>
        <extensions>
          <ns3:TrackPointExtension>
            <ns3:atemp>25.0</ns3:atemp>
          </ns3:TrackPointExtension>
        </extensions>
      </trkpt>
      <trkpt lat="42.4500374682247638702392578125" lon="20.202800296247005462646484375">
        <ele>1087.800048828125</ele>
        <time>2026-06-20T12:26:28.000Z</time>
        <extensions>
          <ns3:TrackPointExtension>
            <ns3:atemp>25.0</ns3:atemp>
          </ns3:TrackPointExtension>
        </extensions>
      </trkpt>
      <trkpt lat="42.4500418268144130706787109375" lon="20.2028004638850688934326171875">
        <ele>1087.800048828125</ele>
        <time>2026-06-20T12:26:29.000Z</time>
        <extensions>
          <ns3:TrackPointExtension>
            <ns3:atemp>25.0</ns3:atemp>
          </ns3:TrackPointExtension>
        </extensions>
      </trkpt>
      <trkpt lat="42.45004735887050628662109375" lon="20.20279099233448505401611328125">
        <ele>1088</ele>
        <time>2026-06-20T12:26:30.000Z</time>
        <extensions>
          <ns3:TrackPointExtension>
            <ns3:atemp>25.0</ns3:atemp>
          </ns3:TrackPointExtension>
        </extensions>
      </trkpt>
      <trkpt lat="42.45004861615598201751708984375" lon="20.20279484800994396209716796875">
        <ele>1088</ele>
        <time>2026-06-20T12:26:31.000Z</time>
        <extensions>
          <ns3:TrackPointExtension>
            <ns3:atemp>25.0</ns3:atemp>
          </ns3:TrackPointExtension>
        </extensions>
      </trkpt>
      <trkpt lat="42.4500485323369503021240234375" lon="20.20279484800994396209716796875">
        <ele>1088</ele>
        <time>2026-06-20T12:26:32.000Z</time>
        <extensions>
          <ns3:TrackPointExtension>
            <ns3:atemp>25.0</ns3:atemp>
          </ns3:TrackPointExtension>
        </extensions>
      </trkpt>
      <trkpt lat="42.4500485323369503021240234375" lon="20.20279484800994396209716796875">
        <ele>1088.199951171875</ele>
        <time>2026-06-20T12:26:33.000Z</time>
        <extensions>
          <ns3:TrackPointExtension>
            <ns3:atemp>25.0</ns3:atemp>
          </ns3:TrackPointExtension>
        </extensions>
      </trkpt>
      <trkpt lat="42.4500485323369503021240234375" lon="20.20279484800994396209716796875">
        <ele>1088.199951171875</ele>
        <time>2026-06-20T12:26:34.000Z</time>
        <extensions>
          <ns3:TrackPointExtension>
            <ns3:atemp>25.0</ns3:atemp>
          </ns3:TrackPointExtension>
        </extensions>
      </trkpt>
      <trkpt lat="42.4500485323369503021240234375" lon="20.20279484800994396209716796875">
        <ele>1088.199951171875</ele>
        <time>2026-06-20T12:26:35.000Z</time>
        <extensions>
          <ns3:TrackPointExtension>
            <ns3:atemp>25.0</ns3:atemp>
          </ns3:TrackPointExtension>
        </extensions>
      </trkpt>
      <trkpt lat="42.4500485323369503021240234375" lon="20.20279484800994396209716796875">
        <ele>1088.199951171875</ele>
        <time>2026-06-20T12:26:36.000Z</time>
        <extensions>
          <ns3:TrackPointExtension>
            <ns3:atemp>25.0</ns3:atemp>
          </ns3:TrackPointExtension>
        </extensions>
      </trkpt>
      <trkpt lat="42.4500485323369503021240234375" lon="20.20279484800994396209716796875">
        <ele>1088.199951171875</ele>
        <time>2026-06-20T12:26:37.000Z</time>
        <extensions>
          <ns3:TrackPointExtension>
            <ns3:atemp>25.0</ns3:atemp>
          </ns3:TrackPointExtension>
        </extensions>
      </trkpt>
      <trkpt lat="42.4500485323369503021240234375" lon="20.20279484800994396209716796875">
        <ele>1088.199951171875</ele>
        <time>2026-06-20T12:26:38.000Z</time>
        <extensions>
          <ns3:TrackPointExtension>
            <ns3:atemp>25.0</ns3:atemp>
          </ns3:TrackPointExtension>
        </extensions>
      </trkpt>
      <trkpt lat="42.4500485323369503021240234375" lon="20.20279484800994396209716796875">
        <ele>1088.199951171875</ele>
        <time>2026-06-20T12:26:39.000Z</time>
        <extensions>
          <ns3:TrackPointExtension>
            <ns3:atemp>25.0</ns3:atemp>
          </ns3:TrackPointExtension>
        </extensions>
      </trkpt>
      <trkpt lat="42.4500485323369503021240234375" lon="20.20279484800994396209716796875">
        <ele>1088.4000244140625</ele>
        <time>2026-06-20T12:26:40.000Z</time>
        <extensions>
          <ns3:TrackPointExtension>
            <ns3:atemp>25.0</ns3:atemp>
          </ns3:TrackPointExtension>
        </extensions>
      </trkpt>
      <trkpt lat="42.4500485323369503021240234375" lon="20.20279484800994396209716796875">
        <ele>1088.4000244140625</ele>
        <time>2026-06-20T12:26:41.000Z</time>
        <extensions>
          <ns3:TrackPointExtension>
            <ns3:atemp>25.0</ns3:atemp>
          </ns3:TrackPointExtension>
        </extensions>
      </trkpt>
      <trkpt lat="42.4500485323369503021240234375" lon="20.20279484800994396209716796875">
        <ele>1088.5999755859375</ele>
        <time>2026-06-20T12:26:42.000Z</time>
        <extensions>
          <ns3:TrackPointExtension>
            <ns3:atemp>25.0</ns3:atemp>
          </ns3:TrackPointExtension>
        </extensions>
      </trkpt>
      <trkpt lat="42.4500485323369503021240234375" lon="20.20279484800994396209716796875">
        <ele>1088.5999755859375</ele>
        <time>2026-06-20T12:26:43.000Z</time>
        <extensions>
          <ns3:TrackPointExtension>
            <ns3:atemp>25.0</ns3:atemp>
          </ns3:TrackPointExtension>
        </extensions>
      </trkpt>
      <trkpt lat="42.4500485323369503021240234375" lon="20.20279484800994396209716796875">
        <ele>1088.5999755859375</ele>
        <time>2026-06-20T12:26:44.000Z</time>
        <extensions>
          <ns3:TrackPointExtension>
            <ns3:atemp>25.0</ns3:atemp>
          </ns3:TrackPointExtension>
        </extensions>
      </trkpt>
      <trkpt lat="42.4500485323369503021240234375" lon="20.20279484800994396209716796875">
        <ele>1088.5999755859375</ele>
        <time>2026-06-20T12:26:45.000Z</time>
        <extensions>
          <ns3:TrackPointExtension>
            <ns3:atemp>25.0</ns3:atemp>
          </ns3:TrackPointExtension>
        </extensions>
      </trkpt>
      <trkpt lat="42.4500485323369503021240234375" lon="20.20279484800994396209716796875">
        <ele>1088.5999755859375</ele>
        <time>2026-06-20T12:26:46.000Z</time>
        <extensions>
          <ns3:TrackPointExtension>
            <ns3:atemp>25.0</ns3:atemp>
          </ns3:TrackPointExtension>
        </extensions>
      </trkpt>
      <trkpt lat="42.4500485323369503021240234375" lon="20.20279484800994396209716796875">
        <ele>1088.5999755859375</ele>
        <time>2026-06-20T12:26:47.000Z</time>
        <extensions>
          <ns3:TrackPointExtension>
            <ns3:atemp>25.0</ns3:atemp>
          </ns3:TrackPointExtension>
        </extensions>
      </trkpt>
      <trkpt lat="42.4500485323369503021240234375" lon="20.20279484800994396209716796875">
        <ele>1088.5999755859375</ele>
        <time>2026-06-20T12:26:48.000Z</time>
        <extensions>
          <ns3:TrackPointExtension>
            <ns3:atemp>25.0</ns3:atemp>
          </ns3:TrackPointExtension>
        </extensions>
      </trkpt>
      <trkpt lat="42.4500485323369503021240234375" lon="20.20279484800994396209716796875">
        <ele>1088.5999755859375</ele>
        <time>2026-06-20T12:26:49.000Z</time>
        <extensions>
          <ns3:TrackPointExtension>
            <ns3:atemp>25.0</ns3:atemp>
          </ns3:TrackPointExtension>
        </extensions>
      </trkpt>
      <trkpt lat="42.4500485323369503021240234375" lon="20.20279484800994396209716796875">
        <ele>1088.5999755859375</ele>
        <time>2026-06-20T12:26:50.000Z</time>
        <extensions>
          <ns3:TrackPointExtension>
            <ns3:atemp>25.0</ns3:atemp>
          </ns3:TrackPointExtension>
        </extensions>
      </trkpt>
      <trkpt lat="42.4500485323369503021240234375" lon="20.20279484800994396209716796875">
        <ele>1088.5999755859375</ele>
        <time>2026-06-20T12:26:51.000Z</time>
        <extensions>
          <ns3:TrackPointExtension>
            <ns3:atemp>25.0</ns3:atemp>
          </ns3:TrackPointExtension>
        </extensions>
      </trkpt>
      <trkpt lat="42.4500485323369503021240234375" lon="20.20279484800994396209716796875">
        <ele>1088.5999755859375</ele>
        <time>2026-06-20T12:26:52.000Z</time>
        <extensions>
          <ns3:TrackPointExtension>
            <ns3:atemp>25.0</ns3:atemp>
          </ns3:TrackPointExtension>
        </extensions>
      </trkpt>
      <trkpt lat="42.4500485323369503021240234375" lon="20.20279484800994396209716796875">
        <ele>1088.5999755859375</ele>
        <time>2026-06-20T12:26:53.000Z</time>
        <extensions>
          <ns3:TrackPointExtension>
            <ns3:atemp>25.0</ns3:atemp>
          </ns3:TrackPointExtension>
        </extensions>
      </trkpt>
      <trkpt lat="42.4500485323369503021240234375" lon="20.20279484800994396209716796875">
        <ele>1088.5999755859375</ele>
        <time>2026-06-20T12:26:54.000Z</time>
        <extensions>
          <ns3:TrackPointExtension>
            <ns3:atemp>25.0</ns3:atemp>
          </ns3:TrackPointExtension>
        </extensions>
      </trkpt>
      <trkpt lat="42.4500485323369503021240234375" lon="20.20279484800994396209716796875">
        <ele>1088.5999755859375</ele>
        <time>2026-06-20T12:26:55.000Z</time>
        <extensions>
          <ns3:TrackPointExtension>
            <ns3:atemp>25.0</ns3:atemp>
          </ns3:TrackPointExtension>
        </extensions>
      </trkpt>
      <trkpt lat="42.4500485323369503021240234375" lon="20.20279484800994396209716796875">
        <ele>1088.5999755859375</ele>
        <time>2026-06-20T12:26:56.000Z</time>
        <extensions>
          <ns3:TrackPointExtension>
            <ns3:atemp>25.0</ns3:atemp>
          </ns3:TrackPointExtension>
        </extensions>
      </trkpt>
      <trkpt lat="42.4500485323369503021240234375" lon="20.20279484800994396209716796875">
        <ele>1088.5999755859375</ele>
        <time>2026-06-20T12:26:57.000Z</time>
        <extensions>
          <ns3:TrackPointExtension>
            <ns3:atemp>25.0</ns3:atemp>
          </ns3:TrackPointExtension>
        </extensions>
      </trkpt>
      <trkpt lat="42.4500485323369503021240234375" lon="20.20279484800994396209716796875">
        <ele>1088.5999755859375</ele>
        <time>2026-06-20T12:26:58.000Z</time>
        <extensions>
          <ns3:TrackPointExtension>
            <ns3:atemp>25.0</ns3:atemp>
          </ns3:TrackPointExtension>
        </extensions>
      </trkpt>
      <trkpt lat="42.4500485323369503021240234375" lon="20.20279484800994396209716796875">
        <ele>1088.5999755859375</ele>
        <time>2026-06-20T12:26:59.000Z</time>
        <extensions>
          <ns3:TrackPointExtension>
            <ns3:atemp>25.0</ns3:atemp>
          </ns3:TrackPointExtension>
        </extensions>
      </trkpt>
      <trkpt lat="42.4500485323369503021240234375" lon="20.20279484800994396209716796875">
        <ele>1088.5999755859375</ele>
        <time>2026-06-20T12:27:00.000Z</time>
        <extensions>
          <ns3:TrackPointExtension>
            <ns3:atemp>25.0</ns3:atemp>
          </ns3:TrackPointExtension>
        </extensions>
      </trkpt>
      <trkpt lat="42.4500485323369503021240234375" lon="20.20279484800994396209716796875">
        <ele>1088.800048828125</ele>
        <time>2026-06-20T12:27:01.000Z</time>
        <extensions>
          <ns3:TrackPointExtension>
            <ns3:atemp>25.0</ns3:atemp>
          </ns3:TrackPointExtension>
        </extensions>
      </trkpt>
      <trkpt lat="42.4500485323369503021240234375" lon="20.20279484800994396209716796875">
        <ele>1088.800048828125</ele>
        <time>2026-06-20T12:27:02.000Z</time>
        <extensions>
          <ns3:TrackPointExtension>
            <ns3:atemp>25.0</ns3:atemp>
          </ns3:TrackPointExtension>
        </extensions>
      </trkpt>
      <trkpt lat="42.4500485323369503021240234375" lon="20.20279484800994396209716796875">
        <ele>1088.800048828125</ele>
        <time>2026-06-20T12:27:03.000Z</time>
        <extensions>
          <ns3:TrackPointExtension>
            <ns3:atemp>25.0</ns3:atemp>
          </ns3:TrackPointExtension>
        </extensions>
      </trkpt>
      <trkpt lat="42.4500485323369503021240234375" lon="20.20279484800994396209716796875">
        <ele>1088.800048828125</ele>
        <time>2026-06-20T12:27:04.000Z</time>
        <extensions>
          <ns3:TrackPointExtension>
            <ns3:atemp>25.0</ns3:atemp>
          </ns3:TrackPointExtension>
        </extensions>
      </trkpt>
      <trkpt lat="42.4500485323369503021240234375" lon="20.20279484800994396209716796875">
        <ele>1088.800048828125</ele>
        <time>2026-06-20T12:27:05.000Z</time>
        <extensions>
          <ns3:TrackPointExtension>
            <ns3:atemp>25.0</ns3:atemp>
          </ns3:TrackPointExtension>
        </extensions>
      </trkpt>
      <trkpt lat="42.4500485323369503021240234375" lon="20.20279484800994396209716796875">
        <ele>1088.800048828125</ele>
        <time>2026-06-20T12:27:06.000Z</time>
        <extensions>
          <ns3:TrackPointExtension>
            <ns3:atemp>25.0</ns3:atemp>
          </ns3:TrackPointExtension>
        </extensions>
      </trkpt>
      <trkpt lat="42.4500485323369503021240234375" lon="20.20279484800994396209716796875">
        <ele>1088.800048828125</ele>
        <time>2026-06-20T12:27:07.000Z</time>
        <extensions>
          <ns3:TrackPointExtension>
            <ns3:atemp>25.0</ns3:atemp>
          </ns3:TrackPointExtension>
        </extensions>
      </trkpt>
      <trkpt lat="42.4500485323369503021240234375" lon="20.20279484800994396209716796875">
        <ele>1088.5999755859375</ele>
        <time>2026-06-20T12:27:08.000Z</time>
        <extensions>
          <ns3:TrackPointExtension>
            <ns3:atemp>25.0</ns3:atemp>
          </ns3:TrackPointExtension>
        </extensions>
      </trkpt>
      <trkpt lat="42.45004761032760143280029296875" lon="20.2028034813702106475830078125">
        <ele>1088.5999755859375</ele>
        <time>2026-06-20T12:27:09.000Z</time>
        <extensions>
          <ns3:TrackPointExtension>
            <ns3:atemp>25.0</ns3:atemp>
          </ns3:TrackPointExtension>
        </extensions>
      </trkpt>
      <trkpt lat="42.4500357918441295623779296875" lon="20.20281446166336536407470703125">
        <ele>1088.5999755859375</ele>
        <time>2026-06-20T12:27:10.000Z</time>
        <extensions>
          <ns3:TrackPointExtension>
            <ns3:atemp>25.0</ns3:atemp>
          </ns3:TrackPointExtension>
        </extensions>
      </trkpt>
      <trkpt lat="42.4500300921499729156494140625" lon="20.20281714387238025665283203125">
        <ele>1088.4000244140625</ele>
        <time>2026-06-20T12:27:11.000Z</time>
        <extensions>
          <ns3:TrackPointExtension>
            <ns3:atemp>25.0</ns3:atemp>
          </ns3:TrackPointExtension>
        </extensions>
      </trkpt>
      <trkpt lat="42.45002581737935543060302734375" lon="20.20281898789107799530029296875">
        <ele>1088.4000244140625</ele>
        <time>2026-06-20T12:27:12.000Z</time>
        <extensions>
          <ns3:TrackPointExtension>
            <ns3:atemp>25.0</ns3:atemp>
          </ns3:TrackPointExtension>
        </extensions>
      </trkpt>
      <trkpt lat="42.45002598501741886138916015625" lon="20.20281915552914142608642578125">
        <ele>1088.4000244140625</ele>
        <time>2026-06-20T12:27:13.000Z</time>
        <extensions>
          <ns3:TrackPointExtension>
            <ns3:atemp>25.0</ns3:atemp>
          </ns3:TrackPointExtension>
        </extensions>
      </trkpt>
      <trkpt lat="42.45002598501741886138916015625" lon="20.20281915552914142608642578125">
        <ele>1088.4000244140625</ele>
        <time>2026-06-20T12:27:14.000Z</time>
        <extensions>
          <ns3:TrackPointExtension>
            <ns3:atemp>25.0</ns3:atemp>
          </ns3:TrackPointExtension>
        </extensions>
      </trkpt>
      <trkpt lat="42.45002598501741886138916015625" lon="20.20281915552914142608642578125">
        <ele>1088.4000244140625</ele>
        <time>2026-06-20T12:27:15.000Z</time>
        <extensions>
          <ns3:TrackPointExtension>
            <ns3:atemp>25.0</ns3:atemp>
          </ns3:TrackPointExtension>
        </extensions>
      </trkpt>
      <trkpt lat="42.45002598501741886138916015625" lon="20.20281915552914142608642578125">
        <ele>1088.4000244140625</ele>
        <time>2026-06-20T12:27:16.000Z</time>
        <extensions>
          <ns3:TrackPointExtension>
            <ns3:atemp>25.0</ns3:atemp>
          </ns3:TrackPointExtension>
        </extensions>
      </trkpt>
      <trkpt lat="42.45002598501741886138916015625" lon="20.20281915552914142608642578125">
        <ele>1088.4000244140625</ele>
        <time>2026-06-20T12:27:17.000Z</time>
        <extensions>
          <ns3:TrackPointExtension>
            <ns3:atemp>25.0</ns3:atemp>
          </ns3:TrackPointExtension>
        </extensions>
      </trkpt>
      <trkpt lat="42.45002598501741886138916015625" lon="20.20281915552914142608642578125">
        <ele>1088.4000244140625</ele>
        <time>2026-06-20T12:27:18.000Z</time>
        <extensions>
          <ns3:TrackPointExtension>
            <ns3:atemp>25.0</ns3:atemp>
          </ns3:TrackPointExtension>
        </extensions>
      </trkpt>
      <trkpt lat="42.45002598501741886138916015625" lon="20.20281915552914142608642578125">
        <ele>1088.4000244140625</ele>
        <time>2026-06-20T12:27:19.000Z</time>
        <extensions>
          <ns3:TrackPointExtension>
            <ns3:atemp>25.0</ns3:atemp>
          </ns3:TrackPointExtension>
        </extensions>
      </trkpt>
      <trkpt lat="42.45002598501741886138916015625" lon="20.20281915552914142608642578125">
        <ele>1088.4000244140625</ele>
        <time>2026-06-20T12:27:20.000Z</time>
        <extensions>
          <ns3:TrackPointExtension>
            <ns3:atemp>25.0</ns3:atemp>
          </ns3:TrackPointExtension>
        </extensions>
      </trkpt>
      <trkpt lat="42.45002598501741886138916015625" lon="20.20281915552914142608642578125">
        <ele>1088.4000244140625</ele>
        <time>2026-06-20T12:27:21.000Z</time>
        <extensions>
          <ns3:TrackPointExtension>
            <ns3:atemp>25.0</ns3:atemp>
          </ns3:TrackPointExtension>
        </extensions>
      </trkpt>
      <trkpt lat="42.45002715848386287689208984375" lon="20.202819742262363433837890625">
        <ele>1088.4000244140625</ele>
        <time>2026-06-20T12:27:22.000Z</time>
        <extensions>
          <ns3:TrackPointExtension>
            <ns3:atemp>25.0</ns3:atemp>
          </ns3:TrackPointExtension>
        </extensions>
      </trkpt>
      <trkpt lat="42.45002598501741886138916015625" lon="20.20281915552914142608642578125">
        <ele>1088.4000244140625</ele>
        <time>2026-06-20T12:27:23.000Z</time>
        <extensions>
          <ns3:TrackPointExtension>
            <ns3:atemp>25.0</ns3:atemp>
          </ns3:TrackPointExtension>
        </extensions>
      </trkpt>
      <trkpt lat="42.45002598501741886138916015625" lon="20.20281915552914142608642578125">
        <ele>1088.4000244140625</ele>
        <time>2026-06-20T12:27:24.000Z</time>
        <extensions>
          <ns3:TrackPointExtension>
            <ns3:atemp>25.0</ns3:atemp>
          </ns3:TrackPointExtension>
        </extensions>
      </trkpt>
      <trkpt lat="42.45002598501741886138916015625" lon="20.20281915552914142608642578125">
        <ele>1088.4000244140625</ele>
        <time>2026-06-20T12:27:25.000Z</time>
        <extensions>
          <ns3:TrackPointExtension>
            <ns3:atemp>25.0</ns3:atemp>
          </ns3:TrackPointExtension>
        </extensions>
      </trkpt>
      <trkpt lat="42.45002598501741886138916015625" lon="20.20281915552914142608642578125">
        <ele>1088.4000244140625</ele>
        <time>2026-06-20T12:27:26.000Z</time>
        <extensions>
          <ns3:TrackPointExtension>
            <ns3:atemp>25.0</ns3:atemp>
          </ns3:TrackPointExtension>
        </extensions>
      </trkpt>
      <trkpt lat="42.45002598501741886138916015625" lon="20.20281915552914142608642578125">
        <ele>1088.5999755859375</ele>
        <time>2026-06-20T12:27:27.000Z</time>
        <extensions>
          <ns3:TrackPointExtension>
            <ns3:atemp>25.0</ns3:atemp>
          </ns3:TrackPointExtension>
        </extensions>
      </trkpt>
      <trkpt lat="42.45002598501741886138916015625" lon="20.20281915552914142608642578125">
        <ele>1088.5999755859375</ele>
        <time>2026-06-20T12:27:28.000Z</time>
        <extensions>
          <ns3:TrackPointExtension>
            <ns3:atemp>25.0</ns3:atemp>
          </ns3:TrackPointExtension>
        </extensions>
      </trkpt>
      <trkpt lat="42.45002598501741886138916015625" lon="20.20281915552914142608642578125">
        <ele>1088.5999755859375</ele>
        <time>2026-06-20T12:27:29.000Z</time>
        <extensions>
          <ns3:TrackPointExtension>
            <ns3:atemp>25.0</ns3:atemp>
          </ns3:TrackPointExtension>
        </extensions>
      </trkpt>
      <trkpt lat="42.45002598501741886138916015625" lon="20.20281915552914142608642578125">
        <ele>1088.5999755859375</ele>
        <time>2026-06-20T12:27:30.000Z</time>
        <extensions>
          <ns3:TrackPointExtension>
            <ns3:atemp>25.0</ns3:atemp>
          </ns3:TrackPointExtension>
        </extensions>
      </trkpt>
      <trkpt lat="42.45002598501741886138916015625" lon="20.20281915552914142608642578125">
        <ele>1088.5999755859375</ele>
        <time>2026-06-20T12:27:31.000Z</time>
        <extensions>
          <ns3:TrackPointExtension>
            <ns3:atemp>25.0</ns3:atemp>
          </ns3:TrackPointExtension>
        </extensions>
      </trkpt>
      <trkpt lat="42.45002598501741886138916015625" lon="20.20281915552914142608642578125">
        <ele>1088.5999755859375</ele>
        <time>2026-06-20T12:27:32.000Z</time>
        <extensions>
          <ns3:TrackPointExtension>
            <ns3:atemp>25.0</ns3:atemp>
          </ns3:TrackPointExtension>
        </extensions>
      </trkpt>
      <trkpt lat="42.45002598501741886138916015625" lon="20.20281915552914142608642578125">
        <ele>1088.5999755859375</ele>
        <time>2026-06-20T12:27:33.000Z</time>
        <extensions>
          <ns3:TrackPointExtension>
            <ns3:atemp>25.0</ns3:atemp>
          </ns3:TrackPointExtension>
        </extensions>
      </trkpt>
      <trkpt lat="42.45002598501741886138916015625" lon="20.20281915552914142608642578125">
        <ele>1088.5999755859375</ele>
        <time>2026-06-20T12:27:34.000Z</time>
        <extensions>
          <ns3:TrackPointExtension>
            <ns3:atemp>25.0</ns3:atemp>
          </ns3:TrackPointExtension>
        </extensions>
      </trkpt>
      <trkpt lat="42.45002598501741886138916015625" lon="20.20281915552914142608642578125">
        <ele>1088.5999755859375</ele>
        <time>2026-06-20T12:27:35.000Z</time>
        <extensions>
          <ns3:TrackPointExtension>
            <ns3:atemp>25.0</ns3:atemp>
          </ns3:TrackPointExtension>
        </extensions>
      </trkpt>
      <trkpt lat="42.45002598501741886138916015625" lon="20.20281915552914142608642578125">
        <ele>1088.5999755859375</ele>
        <time>2026-06-20T12:27:36.000Z</time>
        <extensions>
          <ns3:TrackPointExtension>
            <ns3:atemp>25.0</ns3:atemp>
          </ns3:TrackPointExtension>
        </extensions>
      </trkpt>
      <trkpt lat="42.45002598501741886138916015625" lon="20.20281915552914142608642578125">
        <ele>1088.5999755859375</ele>
        <time>2026-06-20T12:27:37.000Z</time>
        <extensions>
          <ns3:TrackPointExtension>
            <ns3:atemp>25.0</ns3:atemp>
          </ns3:TrackPointExtension>
        </extensions>
      </trkpt>
      <trkpt lat="42.45002598501741886138916015625" lon="20.20281915552914142608642578125">
        <ele>1088.5999755859375</ele>
        <time>2026-06-20T12:27:38.000Z</time>
        <extensions>
          <ns3:TrackPointExtension>
            <ns3:atemp>25.0</ns3:atemp>
          </ns3:TrackPointExtension>
        </extensions>
      </trkpt>
      <trkpt lat="42.45002598501741886138916015625" lon="20.20281915552914142608642578125">
        <ele>1088.5999755859375</ele>
        <time>2026-06-20T12:27:39.000Z</time>
        <extensions>
          <ns3:TrackPointExtension>
            <ns3:atemp>25.0</ns3:atemp>
          </ns3:TrackPointExtension>
        </extensions>
      </trkpt>
      <trkpt lat="42.45002598501741886138916015625" lon="20.20281915552914142608642578125">
        <ele>1088.800048828125</ele>
        <time>2026-06-20T12:27:40.000Z</time>
        <extensions>
          <ns3:TrackPointExtension>
            <ns3:atemp>25.0</ns3:atemp>
          </ns3:TrackPointExtension>
        </extensions>
      </trkpt>
      <trkpt lat="42.45002598501741886138916015625" lon="20.20281915552914142608642578125">
        <ele>1088.800048828125</ele>
        <time>2026-06-20T12:27:41.000Z</time>
        <extensions>
          <ns3:TrackPointExtension>
            <ns3:atemp>25.0</ns3:atemp>
          </ns3:TrackPointExtension>
        </extensions>
      </trkpt>
      <trkpt lat="42.45002598501741886138916015625" lon="20.20281915552914142608642578125">
        <ele>1088.800048828125</ele>
        <time>2026-06-20T12:27:42.000Z</time>
        <extensions>
          <ns3:TrackPointExtension>
            <ns3:atemp>25.0</ns3:atemp>
          </ns3:TrackPointExtension>
        </extensions>
      </trkpt>
      <trkpt lat="42.45002598501741886138916015625" lon="20.20281915552914142608642578125">
        <ele>1088.800048828125</ele>
        <time>2026-06-20T12:27:43.000Z</time>
        <extensions>
          <ns3:TrackPointExtension>
            <ns3:atemp>25.0</ns3:atemp>
          </ns3:TrackPointExtension>
        </extensions>
      </trkpt>
      <trkpt lat="42.45002598501741886138916015625" lon="20.20281915552914142608642578125">
        <ele>1088.800048828125</ele>
        <time>2026-06-20T12:27:44.000Z</time>
        <extensions>
          <ns3:TrackPointExtension>
            <ns3:atemp>25.0</ns3:atemp>
          </ns3:TrackPointExtension>
        </extensions>
      </trkpt>
      <trkpt lat="42.45002598501741886138916015625" lon="20.20281915552914142608642578125">
        <ele>1088.800048828125</ele>
        <time>2026-06-20T12:27:45.000Z</time>
        <extensions>
          <ns3:TrackPointExtension>
            <ns3:atemp>25.0</ns3:atemp>
          </ns3:TrackPointExtension>
        </extensions>
      </trkpt>
      <trkpt lat="42.45002598501741886138916015625" lon="20.20281915552914142608642578125">
        <ele>1088.800048828125</ele>
        <time>2026-06-20T12:27:46.000Z</time>
        <extensions>
          <ns3:TrackPointExtension>
            <ns3:atemp>25.0</ns3:atemp>
          </ns3:TrackPointExtension>
        </extensions>
      </trkpt>
      <trkpt lat="42.45002598501741886138916015625" lon="20.20281915552914142608642578125">
        <ele>1088.800048828125</ele>
        <time>2026-06-20T12:27:47.000Z</time>
        <extensions>
          <ns3:TrackPointExtension>
            <ns3:atemp>25.0</ns3:atemp>
          </ns3:TrackPointExtension>
        </extensions>
      </trkpt>
      <trkpt lat="42.45002598501741886138916015625" lon="20.20281915552914142608642578125">
        <ele>1088.800048828125</ele>
        <time>2026-06-20T12:27:48.000Z</time>
        <extensions>
          <ns3:TrackPointExtension>
            <ns3:atemp>25.0</ns3:atemp>
          </ns3:TrackPointExtension>
        </extensions>
      </trkpt>
      <trkpt lat="42.45002598501741886138916015625" lon="20.20281915552914142608642578125">
        <ele>1088.800048828125</ele>
        <time>2026-06-20T12:27:49.000Z</time>
        <extensions>
          <ns3:TrackPointExtension>
            <ns3:atemp>25.0</ns3:atemp>
          </ns3:TrackPointExtension>
        </extensions>
      </trkpt>
      <trkpt lat="42.45002598501741886138916015625" lon="20.20281915552914142608642578125">
        <ele>1088.800048828125</ele>
        <time>2026-06-20T12:27:50.000Z</time>
        <extensions>
          <ns3:TrackPointExtension>
            <ns3:atemp>25.0</ns3:atemp>
          </ns3:TrackPointExtension>
        </extensions>
      </trkpt>
      <trkpt lat="42.45002598501741886138916015625" lon="20.20281915552914142608642578125">
        <ele>1088.5999755859375</ele>
        <time>2026-06-20T12:27:51.000Z</time>
        <extensions>
          <ns3:TrackPointExtension>
            <ns3:atemp>25.0</ns3:atemp>
          </ns3:TrackPointExtension>
        </extensions>
      </trkpt>
      <trkpt lat="42.45002598501741886138916015625" lon="20.20281915552914142608642578125">
        <ele>1088.5999755859375</ele>
        <time>2026-06-20T12:27:52.000Z</time>
        <extensions>
          <ns3:TrackPointExtension>
            <ns3:atemp>25.0</ns3:atemp>
          </ns3:TrackPointExtension>
        </extensions>
      </trkpt>
      <trkpt lat="42.45002598501741886138916015625" lon="20.20281915552914142608642578125">
        <ele>1088.5999755859375</ele>
        <time>2026-06-20T12:27:53.000Z</time>
        <extensions>
          <ns3:TrackPointExtension>
            <ns3:atemp>25.0</ns3:atemp>
          </ns3:TrackPointExtension>
        </extensions>
      </trkpt>
      <trkpt lat="42.45002598501741886138916015625" lon="20.20281915552914142608642578125">
        <ele>1088.5999755859375</ele>
        <time>2026-06-20T12:27:54.000Z</time>
        <extensions>
          <ns3:TrackPointExtension>
            <ns3:atemp>25.0</ns3:atemp>
          </ns3:TrackPointExtension>
        </extensions>
      </trkpt>
      <trkpt lat="42.45002598501741886138916015625" lon="20.20281915552914142608642578125">
        <ele>1088.5999755859375</ele>
        <time>2026-06-20T12:27:55.000Z</time>
        <extensions>
          <ns3:TrackPointExtension>
            <ns3:atemp>25.0</ns3:atemp>
          </ns3:TrackPointExtension>
        </extensions>
      </trkpt>
      <trkpt lat="42.45002598501741886138916015625" lon="20.20281915552914142608642578125">
        <ele>1088.5999755859375</ele>
        <time>2026-06-20T12:27:56.000Z</time>
        <extensions>
          <ns3:TrackPointExtension>
            <ns3:atemp>25.0</ns3:atemp>
          </ns3:TrackPointExtension>
        </extensions>
      </trkpt>
      <trkpt lat="42.45002598501741886138916015625" lon="20.20281915552914142608642578125">
        <ele>1088.800048828125</ele>
        <time>2026-06-20T12:27:57.000Z</time>
        <extensions>
          <ns3:TrackPointExtension>
            <ns3:atemp>25.0</ns3:atemp>
          </ns3:TrackPointExtension>
        </extensions>
      </trkpt>
      <trkpt lat="42.45002598501741886138916015625" lon="20.20281915552914142608642578125">
        <ele>1088.800048828125</ele>
        <time>2026-06-20T12:27:58.000Z</time>
        <extensions>
          <ns3:TrackPointExtension>
            <ns3:atemp>25.0</ns3:atemp>
          </ns3:TrackPointExtension>
        </extensions>
      </trkpt>
      <trkpt lat="42.45002598501741886138916015625" lon="20.20281915552914142608642578125">
        <ele>1088.800048828125</ele>
        <time>2026-06-20T12:27:59.000Z</time>
        <extensions>
          <ns3:TrackPointExtension>
            <ns3:atemp>25.0</ns3:atemp>
          </ns3:TrackPointExtension>
        </extensions>
      </trkpt>
      <trkpt lat="42.45002598501741886138916015625" lon="20.20281915552914142608642578125">
        <ele>1088.800048828125</ele>
        <time>2026-06-20T12:28:00.000Z</time>
        <extensions>
          <ns3:TrackPointExtension>
            <ns3:atemp>25.0</ns3:atemp>
          </ns3:TrackPointExtension>
        </extensions>
      </trkpt>
      <trkpt lat="42.45002598501741886138916015625" lon="20.20281915552914142608642578125">
        <ele>1088.800048828125</ele>
        <time>2026-06-20T12:28:01.000Z</time>
        <extensions>
          <ns3:TrackPointExtension>
            <ns3:atemp>25.0</ns3:atemp>
          </ns3:TrackPointExtension>
        </extensions>
      </trkpt>
      <trkpt lat="42.45002598501741886138916015625" lon="20.20281915552914142608642578125">
        <ele>1088.800048828125</ele>
        <time>2026-06-20T12:28:02.000Z</time>
        <extensions>
          <ns3:TrackPointExtension>
            <ns3:atemp>25.0</ns3:atemp>
          </ns3:TrackPointExtension>
        </extensions>
      </trkpt>
      <trkpt lat="42.45002598501741886138916015625" lon="20.20281915552914142608642578125">
        <ele>1088.800048828125</ele>
        <time>2026-06-20T12:28:03.000Z</time>
        <extensions>
          <ns3:TrackPointExtension>
            <ns3:atemp>25.0</ns3:atemp>
          </ns3:TrackPointExtension>
        </extensions>
      </trkpt>
      <trkpt lat="42.45002598501741886138916015625" lon="20.20281915552914142608642578125">
        <ele>1088.800048828125</ele>
        <time>2026-06-20T12:28:04.000Z</time>
        <extensions>
          <ns3:TrackPointExtension>
            <ns3:atemp>25.0</ns3:atemp>
          </ns3:TrackPointExtension>
        </extensions>
      </trkpt>
      <trkpt lat="42.45002598501741886138916015625" lon="20.20281915552914142608642578125">
        <ele>1088.800048828125</ele>
        <time>2026-06-20T12:28:05.000Z</time>
        <extensions>
          <ns3:TrackPointExtension>
            <ns3:atemp>25.0</ns3:atemp>
          </ns3:TrackPointExtension>
        </extensions>
      </trkpt>
      <trkpt lat="42.45002598501741886138916015625" lon="20.20281915552914142608642578125">
        <ele>1088.800048828125</ele>
        <time>2026-06-20T12:28:06.000Z</time>
        <extensions>
          <ns3:TrackPointExtension>
            <ns3:atemp>25.0</ns3:atemp>
          </ns3:TrackPointExtension>
        </extensions>
      </trkpt>
      <trkpt lat="42.45002598501741886138916015625" lon="20.20281915552914142608642578125">
        <ele>1088.800048828125</ele>
        <time>2026-06-20T12:28:07.000Z</time>
        <extensions>
          <ns3:TrackPointExtension>
            <ns3:atemp>25.0</ns3:atemp>
          </ns3:TrackPointExtension>
        </extensions>
      </trkpt>
      <trkpt lat="42.45002145878970623016357421875" lon="20.20282317884266376495361328125">
        <ele>1088.800048828125</ele>
        <time>2026-06-20T12:28:08.000Z</time>
        <extensions>
          <ns3:TrackPointExtension>
            <ns3:atemp>25.0</ns3:atemp>
          </ns3:TrackPointExtension>
        </extensions>
      </trkpt>
      <trkpt lat="42.450008131563663482666015625" lon="20.20283658988773822784423828125">
        <ele>1088.800048828125</ele>
        <time>2026-06-20T12:28:09.000Z</time>
        <extensions>
          <ns3:TrackPointExtension>
            <ns3:atemp>25.0</ns3:atemp>
          </ns3:TrackPointExtension>
        </extensions>
      </trkpt>
      <trkpt lat="42.449994720518589019775390625" lon="20.2028463967144489288330078125">
        <ele>1088.800048828125</ele>
        <time>2026-06-20T12:28:10.000Z</time>
        <extensions>
          <ns3:TrackPointExtension>
            <ns3:atemp>25.0</ns3:atemp>
          </ns3:TrackPointExtension>
        </extensions>
      </trkpt>
      <trkpt lat="42.44998625479638576507568359375" lon="20.2028541080653667449951171875">
        <ele>1088.800048828125</ele>
        <time>2026-06-20T12:28:11.000Z</time>
        <extensions>
          <ns3:TrackPointExtension>
            <ns3:atemp>25.0</ns3:atemp>
          </ns3:TrackPointExtension>
        </extensions>
      </trkpt>
      <trkpt lat="42.449987344443798065185546875" lon="20.20285888575017452239990234375">
        <ele>1088.800048828125</ele>
        <time>2026-06-20T12:28:12.000Z</time>
        <extensions>
          <ns3:TrackPointExtension>
            <ns3:atemp>25.0</ns3:atemp>
          </ns3:TrackPointExtension>
        </extensions>
      </trkpt>
      <trkpt lat="42.44998239912092685699462890625" lon="20.2028631605207920074462890625">
        <ele>1088.800048828125</ele>
        <time>2026-06-20T12:28:13.000Z</time>
        <extensions>
          <ns3:TrackPointExtension>
            <ns3:atemp>25.0</ns3:atemp>
          </ns3:TrackPointExtension>
        </extensions>
      </trkpt>
      <trkpt lat="42.44997217319905757904052734375" lon="20.20286341197788715362548828125">
        <ele>1088.800048828125</ele>
        <time>2026-06-20T12:28:14.000Z</time>
        <extensions>
          <ns3:TrackPointExtension>
            <ns3:atemp>25.0</ns3:atemp>
          </ns3:TrackPointExtension>
        </extensions>
      </trkpt>
      <trkpt lat="42.44995960034430027008056640625" lon="20.2028685249388217926025390625">
        <ele>1088.800048828125</ele>
        <time>2026-06-20T12:28:15.000Z</time>
        <extensions>
          <ns3:TrackPointExtension>
            <ns3:atemp>25.0</ns3:atemp>
          </ns3:TrackPointExtension>
        </extensions>
      </trkpt>
      <trkpt lat="42.44995021261274814605712890625" lon="20.2028789184987545013427734375">
        <ele>1088.5999755859375</ele>
        <time>2026-06-20T12:28:16.000Z</time>
        <extensions>
          <ns3:TrackPointExtension>
            <ns3:atemp>25.0</ns3:atemp>
          </ns3:TrackPointExtension>
        </extensions>
      </trkpt>
      <trkpt lat="42.4499405734241008758544921875" lon="20.20288470201194286346435546875">
        <ele>1088.5999755859375</ele>
        <time>2026-06-20T12:28:17.000Z</time>
        <extensions>
          <ns3:TrackPointExtension>
            <ns3:atemp>25.0</ns3:atemp>
          </ns3:TrackPointExtension>
        </extensions>
      </trkpt>
      <trkpt lat="42.44993881322443485260009765625" lon="20.2028916589915752410888671875">
        <ele>1088.5999755859375</ele>
        <time>2026-06-20T12:28:18.000Z</time>
        <extensions>
          <ns3:TrackPointExtension>
            <ns3:atemp>25.0</ns3:atemp>
          </ns3:TrackPointExtension>
        </extensions>
      </trkpt>
      <trkpt lat="42.449931688606739044189453125" lon="20.20290532149374485015869140625">
        <ele>1088.5999755859375</ele>
        <time>2026-06-20T12:28:19.000Z</time>
        <extensions>
          <ns3:TrackPointExtension>
            <ns3:atemp>25.0</ns3:atemp>
          </ns3:TrackPointExtension>
        </extensions>
      </trkpt>
      <trkpt lat="42.449926994740962982177734375" lon="20.2029199898242950439453125">
        <ele>1088.5999755859375</ele>
        <time>2026-06-20T12:28:20.000Z</time>
        <extensions>
          <ns3:TrackPointExtension>
            <ns3:atemp>25.0</ns3:atemp>
          </ns3:TrackPointExtension>
        </extensions>
      </trkpt>
      <trkpt lat="42.44992003776133060455322265625" lon="20.20293415524065494537353515625">
        <ele>1088.800048828125</ele>
        <time>2026-06-20T12:28:21.000Z</time>
        <extensions>
          <ns3:TrackPointExtension>
            <ns3:atemp>25.0</ns3:atemp>
          </ns3:TrackPointExtension>
        </extensions>
      </trkpt>
      <trkpt lat="42.44991458952426910400390625" lon="20.2029469795525074005126953125">
        <ele>1088.800048828125</ele>
        <time>2026-06-20T12:28:22.000Z</time>
        <extensions>
          <ns3:TrackPointExtension>
            <ns3:atemp>25.0</ns3:atemp>
          </ns3:TrackPointExtension>
        </extensions>
      </trkpt>
      <trkpt lat="42.4499110691249370574951171875" lon="20.202964246273040771484375">
        <ele>1088.800048828125</ele>
        <time>2026-06-20T12:28:23.000Z</time>
        <extensions>
          <ns3:TrackPointExtension>
            <ns3:atemp>25.0</ns3:atemp>
          </ns3:TrackPointExtension>
        </extensions>
      </trkpt>
      <trkpt lat="42.44990042410790920257568359375" lon="20.2029781602323055267333984375">
        <ele>1088.800048828125</ele>
        <time>2026-06-20T12:28:24.000Z</time>
        <extensions>
          <ns3:TrackPointExtension>
            <ns3:atemp>25.0</ns3:atemp>
          </ns3:TrackPointExtension>
        </extensions>
      </trkpt>
      <trkpt lat="42.44989170692861080169677734375" lon="20.20299576222896575927734375">
        <ele>1088.800048828125</ele>
        <time>2026-06-20T12:28:25.000Z</time>
        <extensions>
          <ns3:TrackPointExtension>
            <ns3:atemp>25.0</ns3:atemp>
          </ns3:TrackPointExtension>
        </extensions>
      </trkpt>
      <trkpt lat="42.4498906172811985015869140625" lon="20.20299978554248809814453125">
        <ele>1088.800048828125</ele>
        <time>2026-06-20T12:28:26.000Z</time>
        <extensions>
          <ns3:TrackPointExtension>
            <ns3:atemp>25.0</ns3:atemp>
          </ns3:TrackPointExtension>
        </extensions>
      </trkpt>
      <trkpt lat="42.44989849627017974853515625" lon="20.20299442112445831298828125">
        <ele>1088.800048828125</ele>
        <time>2026-06-20T12:28:27.000Z</time>
        <extensions>
          <ns3:TrackPointExtension>
            <ns3:atemp>25.0</ns3:atemp>
          </ns3:TrackPointExtension>
        </extensions>
      </trkpt>
      <trkpt lat="42.449903190135955810546875" lon="20.20298578776419162750244140625">
        <ele>1088.5999755859375</ele>
        <time>2026-06-20T12:28:28.000Z</time>
        <extensions>
          <ns3:TrackPointExtension>
            <ns3:atemp>25.0</ns3:atemp>
          </ns3:TrackPointExtension>
        </extensions>
      </trkpt>
      <trkpt lat="42.4499043636023998260498046875" lon="20.20297966897487640380859375">
        <ele>1088.5999755859375</ele>
        <time>2026-06-20T12:28:29.000Z</time>
        <extensions>
          <ns3:TrackPointExtension>
            <ns3:atemp>25.0</ns3:atemp>
          </ns3:TrackPointExtension>
        </extensions>
      </trkpt>
      <trkpt lat="42.449903525412082672119140625" lon="20.20297220908105373382568359375">
        <ele>1088.5999755859375</ele>
        <time>2026-06-20T12:28:30.000Z</time>
        <extensions>
          <ns3:TrackPointExtension>
            <ns3:atemp>25.0</ns3:atemp>
          </ns3:TrackPointExtension>
        </extensions>
      </trkpt>
      <trkpt lat="42.4499077163636684417724609375" lon="20.2029560320079326629638671875">
        <ele>1088.5999755859375</ele>
        <time>2026-06-20T12:28:31.000Z</time>
        <extensions>
          <ns3:TrackPointExtension>
            <ns3:atemp>25.0</ns3:atemp>
          </ns3:TrackPointExtension>
        </extensions>
      </trkpt>
      <trkpt lat="42.44992238469421863555908203125" lon="20.20293532870709896087646484375">
        <ele>1088.4000244140625</ele>
        <time>2026-06-20T12:28:32.000Z</time>
        <extensions>
          <ns3:TrackPointExtension>
            <ns3:atemp>25.0</ns3:atemp>
          </ns3:TrackPointExtension>
        </extensions>
      </trkpt>
      <trkpt lat="42.44993730448186397552490234375" lon="20.2029064111411571502685546875">
        <ele>1088.4000244140625</ele>
        <time>2026-06-20T12:28:33.000Z</time>
        <extensions>
          <ns3:TrackPointExtension>
            <ns3:atemp>25.0</ns3:atemp>
          </ns3:TrackPointExtension>
        </extensions>
      </trkpt>
      <trkpt lat="42.449952475726604461669921875" lon="20.2028770744800567626953125">
        <ele>1088.4000244140625</ele>
        <time>2026-06-20T12:28:34.000Z</time>
        <extensions>
          <ns3:TrackPointExtension>
            <ns3:atemp>25.0</ns3:atemp>
          </ns3:TrackPointExtension>
        </extensions>
      </trkpt>
      <trkpt lat="42.4499769508838653564453125" lon="20.2028504200279712677001953125">
        <ele>1088.4000244140625</ele>
        <time>2026-06-20T12:28:35.000Z</time>
        <extensions>
          <ns3:TrackPointExtension>
            <ns3:atemp>25.0</ns3:atemp>
          </ns3:TrackPointExtension>
        </extensions>
      </trkpt>
      <trkpt lat="42.44999832473695278167724609375" lon="20.202828459441661834716796875">
        <ele>1088.4000244140625</ele>
        <time>2026-06-20T12:28:36.000Z</time>
        <extensions>
          <ns3:TrackPointExtension>
            <ns3:atemp>25.0</ns3:atemp>
          </ns3:TrackPointExtension>
        </extensions>
      </trkpt>
      <trkpt lat="42.45002397336065769195556640625" lon="20.202803649008274078369140625">
        <ele>1088.4000244140625</ele>
        <time>2026-06-20T12:28:37.000Z</time>
        <extensions>
          <ns3:TrackPointExtension>
            <ns3:atemp>25.0</ns3:atemp>
          </ns3:TrackPointExtension>
        </extensions>
      </trkpt>
      <trkpt lat="42.4500438384711742401123046875" lon="20.2027778327465057373046875">
        <ele>1088.4000244140625</ele>
        <time>2026-06-20T12:28:38.000Z</time>
        <extensions>
          <ns3:TrackPointExtension>
            <ns3:atemp>25.0</ns3:atemp>
          </ns3:TrackPointExtension>
        </extensions>
      </trkpt>
      <trkpt lat="42.450063116848468780517578125" lon="20.2027505077421665191650390625">
        <ele>1088.199951171875</ele>
        <time>2026-06-20T12:28:39.000Z</time>
        <extensions>
          <ns3:TrackPointExtension>
            <ns3:atemp>25.0</ns3:atemp>
          </ns3:TrackPointExtension>
        </extensions>
      </trkpt>
      <trkpt lat="42.45008147321641445159912109375" lon="20.20271605812013149261474609375">
        <ele>1088.199951171875</ele>
        <time>2026-06-20T12:28:40.000Z</time>
        <extensions>
          <ns3:TrackPointExtension>
            <ns3:atemp>25.0</ns3:atemp>
          </ns3:TrackPointExtension>
        </extensions>
      </trkpt>
      <trkpt lat="42.45009991340339183807373046875" lon="20.20268152467906475067138671875">
        <ele>1088</ele>
        <time>2026-06-20T12:28:41.000Z</time>
        <extensions>
          <ns3:TrackPointExtension>
            <ns3:atemp>25.0</ns3:atemp>
          </ns3:TrackPointExtension>
        </extensions>
      </trkpt>
      <trkpt lat="42.45011449791491031646728515625" lon="20.2026425488293170928955078125">
        <ele>1088</ele>
        <time>2026-06-20T12:28:42.000Z</time>
        <extensions>
          <ns3:TrackPointExtension>
            <ns3:atemp>25.0</ns3:atemp>
          </ns3:TrackPointExtension>
        </extensions>
      </trkpt>
      <trkpt lat="42.4501229636371135711669921875" lon="20.20260776393115520477294921875">
        <ele>1088</ele>
        <time>2026-06-20T12:28:43.000Z</time>
        <extensions>
          <ns3:TrackPointExtension>
            <ns3:atemp>25.0</ns3:atemp>
          </ns3:TrackPointExtension>
        </extensions>
      </trkpt>
      <trkpt lat="42.450126148760318756103515625" lon="20.2025721408426761627197265625">
        <ele>1088</ele>
        <time>2026-06-20T12:28:44.000Z</time>
        <extensions>
          <ns3:TrackPointExtension>
            <ns3:atemp>25.0</ns3:atemp>
          </ns3:TrackPointExtension>
        </extensions>
      </trkpt>
      <trkpt lat="42.45014266110956668853759765625" lon="20.2025282196700572967529296875">
        <ele>1088</ele>
        <time>2026-06-20T12:28:45.000Z</time>
        <extensions>
          <ns3:TrackPointExtension>
            <ns3:atemp>25.0</ns3:atemp>
          </ns3:TrackPointExtension>
        </extensions>
      </trkpt>
      <trkpt lat="42.4501652084290981292724609375" lon="20.2024854719638824462890625">
        <ele>1088</ele>
        <time>2026-06-20T12:28:46.000Z</time>
        <extensions>
          <ns3:TrackPointExtension>
            <ns3:atemp>25.0</ns3:atemp>
          </ns3:TrackPointExtension>
        </extensions>
      </trkpt>
      <trkpt lat="42.4501927010715007781982421875" lon="20.20245127379894256591796875">
        <ele>1088</ele>
        <time>2026-06-20T12:28:47.000Z</time>
        <extensions>
          <ns3:TrackPointExtension>
            <ns3:atemp>25.0</ns3:atemp>
          </ns3:TrackPointExtension>
        </extensions>
      </trkpt>
      <trkpt lat="42.4502299167215824127197265625" lon="20.202419757843017578125">
        <ele>1088</ele>
        <time>2026-06-20T12:28:48.000Z</time>
        <extensions>
          <ns3:TrackPointExtension>
            <ns3:atemp>25.0</ns3:atemp>
          </ns3:TrackPointExtension>
        </extensions>
      </trkpt>
      <trkpt lat="42.4502741731703281402587890625" lon="20.2024014852941036224365234375">
        <ele>1087.800048828125</ele>
        <time>2026-06-20T12:28:49.000Z</time>
        <extensions>
          <ns3:TrackPointExtension>
            <ns3:atemp>25.0</ns3:atemp>
          </ns3:TrackPointExtension>
        </extensions>
      </trkpt>
      <trkpt lat="42.45031918399035930633544921875" lon="20.2023776806890964508056640625">
        <ele>1087.5999755859375</ele>
        <time>2026-06-20T12:28:50.000Z</time>
        <extensions>
          <ns3:TrackPointExtension>
            <ns3:atemp>25.0</ns3:atemp>
          </ns3:TrackPointExtension>
        </extensions>
      </trkpt>
      <trkpt lat="42.45036863721907138824462890625" lon="20.20236519165337085723876953125">
        <ele>1087.4000244140625</ele>
        <time>2026-06-20T12:28:51.000Z</time>
        <extensions>
          <ns3:TrackPointExtension>
            <ns3:atemp>25.0</ns3:atemp>
          </ns3:TrackPointExtension>
        </extensions>
      </trkpt>
      <trkpt lat="42.45040568523108959197998046875" lon="20.202379189431667327880859375">
        <ele>1087.199951171875</ele>
        <time>2026-06-20T12:28:52.000Z</time>
        <extensions>
          <ns3:TrackPointExtension>
            <ns3:atemp>25.0</ns3:atemp>
          </ns3:TrackPointExtension>
        </extensions>
      </trkpt>
      <trkpt lat="42.45043451897799968719482421875" lon="20.202418752014636993408203125">
        <ele>1086.800048828125</ele>
        <time>2026-06-20T12:28:53.000Z</time>
        <extensions>
          <ns3:TrackPointExtension>
            <ns3:atemp>25.0</ns3:atemp>
          </ns3:TrackPointExtension>
        </extensions>
      </trkpt>
      <trkpt lat="42.4504565633833408355712890625" lon="20.20247348584234714508056640625">
        <ele>1086.199951171875</ele>
        <time>2026-06-20T12:28:54.000Z</time>
        <extensions>
          <ns3:TrackPointExtension>
            <ns3:atemp>25.0</ns3:atemp>
          </ns3:TrackPointExtension>
        </extensions>
      </trkpt>
      <trkpt lat="42.4504552222788333892822265625" lon="20.202532075345516204833984375">
        <ele>1085.800048828125</ele>
        <time>2026-06-20T12:28:55.000Z</time>
        <extensions>
          <ns3:TrackPointExtension>
            <ns3:atemp>25.0</ns3:atemp>
          </ns3:TrackPointExtension>
        </extensions>
      </trkpt>
      <trkpt lat="42.45043535716831684112548828125" lon="20.20265973173081874847412109375">
        <ele>1085.199951171875</ele>
        <time>2026-06-20T12:28:56.000Z</time>
        <extensions>
          <ns3:TrackPointExtension>
            <ns3:atemp>25.0</ns3:atemp>
          </ns3:TrackPointExtension>
        </extensions>
      </trkpt>
      <trkpt lat="42.45043535716831684112548828125" lon="20.20265973173081874847412109375">
        <ele>1084.4000244140625</ele>
        <time>2026-06-20T12:28:57.000Z</time>
        <extensions>
          <ns3:TrackPointExtension>
            <ns3:atemp>25.0</ns3:atemp>
          </ns3:TrackPointExtension>
        </extensions>
      </trkpt>
      <trkpt lat="42.45043032802641391754150390625" lon="20.20273902453482151031494140625">
        <ele>1083.5999755859375</ele>
        <time>2026-06-20T12:28:58.000Z</time>
        <extensions>
          <ns3:TrackPointExtension>
            <ns3:atemp>25.0</ns3:atemp>
          </ns3:TrackPointExtension>
        </extensions>
      </trkpt>
      <trkpt lat="42.4504377879202365875244140625" lon="20.202823765575885772705078125">
        <ele>1083.199951171875</ele>
        <time>2026-06-20T12:28:59.000Z</time>
        <extensions>
          <ns3:TrackPointExtension>
            <ns3:atemp>25.0</ns3:atemp>
          </ns3:TrackPointExtension>
        </extensions>
      </trkpt>
      <trkpt lat="42.45045664720237255096435546875" lon="20.20290582440793514251708984375">
        <ele>1082.4000244140625</ele>
        <time>2026-06-20T12:29:00.000Z</time>
        <extensions>
          <ns3:TrackPointExtension>
            <ns3:atemp>25.0</ns3:atemp>
          </ns3:TrackPointExtension>
        </extensions>
      </trkpt>
      <trkpt lat="42.45048229582607746124267578125" lon="20.202992074191570281982421875">
        <ele>1081.800048828125</ele>
        <time>2026-06-20T12:29:01.000Z</time>
        <extensions>
          <ns3:TrackPointExtension>
            <ns3:atemp>25.0</ns3:atemp>
          </ns3:TrackPointExtension>
        </extensions>
      </trkpt>
      <trkpt lat="42.45051196776330471038818359375" lon="20.20307932980358600616455078125">
        <ele>1081.199951171875</ele>
        <time>2026-06-20T12:29:02.000Z</time>
        <extensions>
          <ns3:TrackPointExtension>
            <ns3:atemp>25.0</ns3:atemp>
          </ns3:TrackPointExtension>
        </extensions>
      </trkpt>
      <trkpt lat="42.45053594000637531280517578125" lon="20.20317119546234607696533203125">
        <ele>1080.5999755859375</ele>
        <time>2026-06-20T12:29:03.000Z</time>
        <extensions>
          <ns3:TrackPointExtension>
            <ns3:atemp>25.0</ns3:atemp>
          </ns3:TrackPointExtension>
        </extensions>
      </trkpt>
      <trkpt lat="42.45055697858333587646484375" lon="20.20326289348304271697998046875">
        <ele>1080.199951171875</ele>
        <time>2026-06-20T12:29:04.000Z</time>
        <extensions>
          <ns3:TrackPointExtension>
            <ns3:atemp>25.0</ns3:atemp>
          </ns3:TrackPointExtension>
        </extensions>
      </trkpt>
      <trkpt lat="42.45058438740670680999755859375" lon="20.2033506520092487335205078125">
        <ele>1079.800048828125</ele>
        <time>2026-06-20T12:29:05.000Z</time>
        <extensions>
          <ns3:TrackPointExtension>
            <ns3:atemp>25.0</ns3:atemp>
          </ns3:TrackPointExtension>
        </extensions>
      </trkpt>
      <trkpt lat="42.45063551701605319976806640625" lon="20.2035306952893733978271484375">
        <ele>1079.4000244140625</ele>
        <time>2026-06-20T12:29:06.000Z</time>
        <extensions>
          <ns3:TrackPointExtension>
            <ns3:atemp>25.0</ns3:atemp>
          </ns3:TrackPointExtension>
        </extensions>
      </trkpt>
      <trkpt lat="42.45063551701605319976806640625" lon="20.2035306952893733978271484375">
        <ele>1079</ele>
        <time>2026-06-20T12:29:07.000Z</time>
        <extensions>
          <ns3:TrackPointExtension>
            <ns3:atemp>25.0</ns3:atemp>
          </ns3:TrackPointExtension>
        </extensions>
      </trkpt>
      <trkpt lat="42.45065932162106037139892578125" lon="20.2036307752132415771484375">
        <ele>1078.5999755859375</ele>
        <time>2026-06-20T12:29:08.000Z</time>
        <extensions>
          <ns3:TrackPointExtension>
            <ns3:atemp>25.0</ns3:atemp>
          </ns3:TrackPointExtension>
        </extensions>
      </trkpt>
      <trkpt lat="42.450667954981327056884765625" lon="20.20373068749904632568359375">
        <ele>1078</ele>
        <time>2026-06-20T12:29:09.000Z</time>
        <extensions>
          <ns3:TrackPointExtension>
            <ns3:atemp>25.0</ns3:atemp>
          </ns3:TrackPointExtension>
        </extensions>
      </trkpt>
      <trkpt lat="42.45069251395761966705322265625" lon="20.2038321085274219512939453125">
        <ele>1077.199951171875</ele>
        <time>2026-06-20T12:29:10.000Z</time>
        <extensions>
          <ns3:TrackPointExtension>
            <ns3:atemp>25.0</ns3:atemp>
          </ns3:TrackPointExtension>
        </extensions>
      </trkpt>
      <trkpt lat="42.450723610818386077880859375" lon="20.2039258182048797607421875">
        <ele>1076.199951171875</ele>
        <time>2026-06-20T12:29:11.000Z</time>
        <extensions>
          <ns3:TrackPointExtension>
            <ns3:atemp>25.0</ns3:atemp>
          </ns3:TrackPointExtension>
        </extensions>
      </trkpt>
      <trkpt lat="42.4507526122033596038818359375" lon="20.204015336930751800537109375">
        <ele>1075.199951171875</ele>
        <time>2026-06-20T12:29:12.000Z</time>
        <extensions>
          <ns3:TrackPointExtension>
            <ns3:atemp>25.0</ns3:atemp>
          </ns3:TrackPointExtension>
        </extensions>
      </trkpt>
      <trkpt lat="42.4507794342935085296630859375" lon="20.20409974269568920135498046875">
        <ele>1074</ele>
        <time>2026-06-20T12:29:13.000Z</time>
        <extensions>
          <ns3:TrackPointExtension>
            <ns3:atemp>25.0</ns3:atemp>
          </ns3:TrackPointExtension>
        </extensions>
      </trkpt>
      <trkpt lat="42.45080885477364063262939453125" lon="20.20417601801455020904541015625">
        <ele>1073</ele>
        <time>2026-06-20T12:29:14.000Z</time>
        <extensions>
          <ns3:TrackPointExtension>
            <ns3:atemp>25.0</ns3:atemp>
          </ns3:TrackPointExtension>
        </extensions>
      </trkpt>
      <trkpt lat="42.4508404545485973358154296875" lon="20.20425983704626560211181640625">
        <ele>1071.800048828125</ele>
        <time>2026-06-20T12:29:15.000Z</time>
        <extensions>
          <ns3:TrackPointExtension>
            <ns3:atemp>25.0</ns3:atemp>
          </ns3:TrackPointExtension>
        </extensions>
      </trkpt>
      <trkpt lat="42.45085495524108409881591796875" lon="20.20434717647731304168701171875">
        <ele>1070.5999755859375</ele>
        <time>2026-06-20T12:29:16.000Z</time>
        <extensions>
          <ns3:TrackPointExtension>
            <ns3:atemp>25.0</ns3:atemp>
          </ns3:TrackPointExtension>
        </extensions>
      </trkpt>
      <trkpt lat="42.450890243053436279296875" lon="20.2045408822596073150634765625">
        <ele>1069.199951171875</ele>
        <time>2026-06-20T12:29:17.000Z</time>
        <extensions>
          <ns3:TrackPointExtension>
            <ns3:atemp>25.0</ns3:atemp>
          </ns3:TrackPointExtension>
        </extensions>
      </trkpt>
      <trkpt lat="42.450890243053436279296875" lon="20.2045408822596073150634765625">
        <ele>1067.5999755859375</ele>
        <time>2026-06-20T12:29:18.000Z</time>
        <extensions>
          <ns3:TrackPointExtension>
            <ns3:atemp>25.0</ns3:atemp>
          </ns3:TrackPointExtension>
        </extensions>
      </trkpt>
      <trkpt lat="42.45091111399233341217041015625" lon="20.2046391181647777557373046875">
        <ele>1066.199951171875</ele>
        <time>2026-06-20T12:29:19.000Z</time>
        <extensions>
          <ns3:TrackPointExtension>
            <ns3:atemp>25.0</ns3:atemp>
          </ns3:TrackPointExtension>
        </extensions>
      </trkpt>
      <trkpt lat="42.45094413869082927703857421875" lon="20.20472452975809574127197265625">
        <ele>1064.800048828125</ele>
        <time>2026-06-20T12:29:20.000Z</time>
        <extensions>
          <ns3:TrackPointExtension>
            <ns3:atemp>25.0</ns3:atemp>
          </ns3:TrackPointExtension>
        </extensions>
      </trkpt>
      <trkpt lat="42.45098487474024295806884765625" lon="20.20480147562921047210693359375">
        <ele>1064</ele>
        <time>2026-06-20T12:29:21.000Z</time>
        <extensions>
          <ns3:TrackPointExtension>
            <ns3:atemp>25.0</ns3:atemp>
          </ns3:TrackPointExtension>
        </extensions>
      </trkpt>
      <trkpt lat="42.4510245211422443389892578125" lon="20.20488537847995758056640625">
        <ele>1062.199951171875</ele>
        <time>2026-06-20T12:29:22.000Z</time>
        <extensions>
          <ns3:TrackPointExtension>
            <ns3:atemp>25.0</ns3:atemp>
          </ns3:TrackPointExtension>
        </extensions>
      </trkpt>
      <trkpt lat="42.45103399269282817840576171875" lon="20.20497565157711505889892578125">
        <ele>1060.800048828125</ele>
        <time>2026-06-20T12:29:23.000Z</time>
        <extensions>
          <ns3:TrackPointExtension>
            <ns3:atemp>25.0</ns3:atemp>
          </ns3:TrackPointExtension>
        </extensions>
      </trkpt>
      <trkpt lat="42.451013624668121337890625" lon="20.20505142398178577423095703125">
        <ele>1059.4000244140625</ele>
        <time>2026-06-20T12:29:24.000Z</time>
        <extensions>
          <ns3:TrackPointExtension>
            <ns3:atemp>25.0</ns3:atemp>
          </ns3:TrackPointExtension>
        </extensions>
      </trkpt>
      <trkpt lat="42.45096844621002674102783203125" lon="20.20520715974271297454833984375">
        <ele>1058.199951171875</ele>
        <time>2026-06-20T12:29:25.000Z</time>
        <extensions>
          <ns3:TrackPointExtension>
            <ns3:atemp>25.0</ns3:atemp>
          </ns3:TrackPointExtension>
        </extensions>
      </trkpt>
      <trkpt lat="42.45096844621002674102783203125" lon="20.20520715974271297454833984375">
        <ele>1057.4000244140625</ele>
        <time>2026-06-20T12:29:26.000Z</time>
        <extensions>
          <ns3:TrackPointExtension>
            <ns3:atemp>25.0</ns3:atemp>
          </ns3:TrackPointExtension>
        </extensions>
      </trkpt>
      <trkpt lat="42.45092251338064670562744140625" lon="20.20538720302283763885498046875">
        <ele>1056.4000244140625</ele>
        <time>2026-06-20T12:29:27.000Z</time>
        <extensions>
          <ns3:TrackPointExtension>
            <ns3:atemp>25.0</ns3:atemp>
          </ns3:TrackPointExtension>
        </extensions>
      </trkpt>
      <trkpt lat="42.45092251338064670562744140625" lon="20.20538720302283763885498046875">
        <ele>1055.4000244140625</ele>
        <time>2026-06-20T12:29:28.000Z</time>
        <extensions>
          <ns3:TrackPointExtension>
            <ns3:atemp>25.0</ns3:atemp>
          </ns3:TrackPointExtension>
        </extensions>
      </trkpt>
      <trkpt lat="42.4509048275649547576904296875" lon="20.205496586859226226806640625">
        <ele>1054.199951171875</ele>
        <time>2026-06-20T12:29:29.000Z</time>
        <extensions>
          <ns3:TrackPointExtension>
            <ns3:atemp>25.0</ns3:atemp>
          </ns3:TrackPointExtension>
        </extensions>
      </trkpt>
      <trkpt lat="42.45087691582739353179931640625" lon="20.20559658296406269073486328125">
        <ele>1053.199951171875</ele>
        <time>2026-06-20T12:29:30.000Z</time>
        <extensions>
          <ns3:TrackPointExtension>
            <ns3:atemp>25.0</ns3:atemp>
          </ns3:TrackPointExtension>
        </extensions>
      </trkpt>
      <trkpt lat="42.4508662708103656768798828125" lon="20.20568526349961757659912109375">
        <ele>1052.4000244140625</ele>
        <time>2026-06-20T12:29:31.000Z</time>
        <extensions>
          <ns3:TrackPointExtension>
            <ns3:atemp>25.0</ns3:atemp>
          </ns3:TrackPointExtension>
        </extensions>
      </trkpt>
      <trkpt lat="42.45085537433624267578125" lon="20.20583027042448520660400390625">
        <ele>1051.800048828125</ele>
        <time>2026-06-20T12:29:32.000Z</time>
        <extensions>
          <ns3:TrackPointExtension>
            <ns3:atemp>25.0</ns3:atemp>
          </ns3:TrackPointExtension>
        </extensions>
      </trkpt>
      <trkpt lat="42.45085537433624267578125" lon="20.20583027042448520660400390625">
        <ele>1051.4000244140625</ele>
        <time>2026-06-20T12:29:33.000Z</time>
        <extensions>
          <ns3:TrackPointExtension>
            <ns3:atemp>25.0</ns3:atemp>
          </ns3:TrackPointExtension>
        </extensions>
      </trkpt>
      <trkpt lat="42.4508595652878284454345703125" lon="20.205929093062877655029296875">
        <ele>1051</ele>
        <time>2026-06-20T12:29:34.000Z</time>
        <extensions>
          <ns3:TrackPointExtension>
            <ns3:atemp>25.0</ns3:atemp>
          </ns3:TrackPointExtension>
        </extensions>
      </trkpt>
      <trkpt lat="42.4508595652878284454345703125" lon="20.205929093062877655029296875">
        <ele>1050.5999755859375</ele>
        <time>2026-06-20T12:29:35.000Z</time>
        <extensions>
          <ns3:TrackPointExtension>
            <ns3:atemp>25.0</ns3:atemp>
          </ns3:TrackPointExtension>
        </extensions>
      </trkpt>
      <trkpt lat="42.45085738599300384521484375" lon="20.20601651631295680999755859375">
        <ele>1050.4000244140625</ele>
        <time>2026-06-20T12:29:36.000Z</time>
        <extensions>
          <ns3:TrackPointExtension>
            <ns3:atemp>25.0</ns3:atemp>
          </ns3:TrackPointExtension>
        </extensions>
      </trkpt>
      <trkpt lat="42.45086610317230224609375" lon="20.206065885722637176513671875">
        <ele>1050</ele>
        <time>2026-06-20T12:29:37.000Z</time>
        <extensions>
          <ns3:TrackPointExtension>
            <ns3:atemp>25.0</ns3:atemp>
          </ns3:TrackPointExtension>
        </extensions>
      </trkpt>
      <trkpt lat="42.450877837836742401123046875" lon="20.206107795238494873046875">
        <ele>1049.5999755859375</ele>
        <time>2026-06-20T12:29:38.000Z</time>
        <extensions>
          <ns3:TrackPointExtension>
            <ns3:atemp>25.0</ns3:atemp>
          </ns3:TrackPointExtension>
        </extensions>
      </trkpt>
      <trkpt lat="42.45088630355894565582275390625" lon="20.20614643581211566925048828125">
        <ele>1049</ele>
        <time>2026-06-20T12:29:39.000Z</time>
        <extensions>
          <ns3:TrackPointExtension>
            <ns3:atemp>25.0</ns3:atemp>
          </ns3:TrackPointExtension>
        </extensions>
      </trkpt>
      <trkpt lat="42.450906671583652496337890625" lon="20.20616956986486911773681640625">
        <ele>1048.5999755859375</ele>
        <time>2026-06-20T12:29:40.000Z</time>
        <extensions>
          <ns3:TrackPointExtension>
            <ns3:atemp>25.0</ns3:atemp>
          </ns3:TrackPointExtension>
        </extensions>
      </trkpt>
      <trkpt lat="42.450906671583652496337890625" lon="20.20616956986486911773681640625">
        <ele>1048.199951171875</ele>
        <time>2026-06-20T12:29:41.000Z</time>
        <extensions>
          <ns3:TrackPointExtension>
            <ns3:atemp>25.0</ns3:atemp>
          </ns3:TrackPointExtension>
        </extensions>
      </trkpt>
      <trkpt lat="42.45092033408582210540771484375" lon="20.2061904408037662506103515625">
        <ele>1047.800048828125</ele>
        <time>2026-06-20T12:29:42.000Z</time>
        <extensions>
          <ns3:TrackPointExtension>
            <ns3:atemp>25.0</ns3:atemp>
          </ns3:TrackPointExtension>
        </extensions>
      </trkpt>
      <trkpt lat="42.45092268101871013641357421875" lon="20.2062092162668704986572265625">
        <ele>1047.4000244140625</ele>
        <time>2026-06-20T12:29:43.000Z</time>
        <extensions>
          <ns3:TrackPointExtension>
            <ns3:atemp>25.0</ns3:atemp>
          </ns3:TrackPointExtension>
        </extensions>
      </trkpt>
      <trkpt lat="42.45093374513089656829833984375" lon="20.20624433644115924835205078125">
        <ele>1047</ele>
        <time>2026-06-20T12:29:44.000Z</time>
        <extensions>
          <ns3:TrackPointExtension>
            <ns3:atemp>25.0</ns3:atemp>
          </ns3:TrackPointExtension>
        </extensions>
      </trkpt>
      <trkpt lat="42.4509363435208797454833984375" lon="20.20626814104616641998291015625">
        <ele>1046.4000244140625</ele>
        <time>2026-06-20T12:29:45.000Z</time>
        <extensions>
          <ns3:TrackPointExtension>
            <ns3:atemp>25.0</ns3:atemp>
          </ns3:TrackPointExtension>
        </extensions>
      </trkpt>
      <trkpt lat="42.45093793608248233795166015625" lon="20.20629211328923702239990234375">
        <ele>1046</ele>
        <time>2026-06-20T12:29:46.000Z</time>
        <extensions>
          <ns3:TrackPointExtension>
            <ns3:atemp>25.0</ns3:atemp>
          </ns3:TrackPointExtension>
        </extensions>
      </trkpt>
      <trkpt lat="42.4509370140731334686279296875" lon="20.2063131518661975860595703125">
        <ele>1045.5999755859375</ele>
        <time>2026-06-20T12:29:47.000Z</time>
        <extensions>
          <ns3:TrackPointExtension>
            <ns3:atemp>25.0</ns3:atemp>
          </ns3:TrackPointExtension>
        </extensions>
      </trkpt>
      <trkpt lat="42.4509370140731334686279296875" lon="20.2063131518661975860595703125">
        <ele>1045.4000244140625</ele>
        <time>2026-06-20T12:29:48.000Z</time>
        <extensions>
          <ns3:TrackPointExtension>
            <ns3:atemp>25.0</ns3:atemp>
          </ns3:TrackPointExtension>
        </extensions>
      </trkpt>
      <trkpt lat="42.45093785226345062255859375" lon="20.2063647843897342681884765625">
        <ele>1045.199951171875</ele>
        <time>2026-06-20T12:29:49.000Z</time>
        <extensions>
          <ns3:TrackPointExtension>
            <ns3:atemp>25.0</ns3:atemp>
          </ns3:TrackPointExtension>
        </extensions>
      </trkpt>
      <trkpt lat="42.45094078592956066131591796875" lon="20.2063835598528385162353515625">
        <ele>1044.800048828125</ele>
        <time>2026-06-20T12:29:50.000Z</time>
        <extensions>
          <ns3:TrackPointExtension>
            <ns3:atemp>25.0</ns3:atemp>
          </ns3:TrackPointExtension>
        </extensions>
      </trkpt>
      <trkpt lat="42.45094648562371730804443359375" lon="20.20640694536268711090087890625">
        <ele>1044.5999755859375</ele>
        <time>2026-06-20T12:29:51.000Z</time>
        <extensions>
          <ns3:TrackPointExtension>
            <ns3:atemp>25.0</ns3:atemp>
          </ns3:TrackPointExtension>
        </extensions>
      </trkpt>
      <trkpt lat="42.45095520280301570892333984375" lon="20.20642605610191822052001953125">
        <ele>1044.199951171875</ele>
        <time>2026-06-20T12:29:52.000Z</time>
        <extensions>
          <ns3:TrackPointExtension>
            <ns3:atemp>25.0</ns3:atemp>
          </ns3:TrackPointExtension>
        </extensions>
      </trkpt>
      <trkpt lat="42.45096442289650440216064453125" lon="20.20644265227019786834716796875">
        <ele>1043.800048828125</ele>
        <time>2026-06-20T12:29:53.000Z</time>
        <extensions>
          <ns3:TrackPointExtension>
            <ns3:atemp>25.0</ns3:atemp>
          </ns3:TrackPointExtension>
        </extensions>
      </trkpt>
      <trkpt lat="42.4509732238948345184326171875" lon="20.20645623095333576202392578125">
        <ele>1043.4000244140625</ele>
        <time>2026-06-20T12:29:54.000Z</time>
        <extensions>
          <ns3:TrackPointExtension>
            <ns3:atemp>25.0</ns3:atemp>
          </ns3:TrackPointExtension>
        </extensions>
      </trkpt>
      <trkpt lat="42.4509732238948345184326171875" lon="20.20645623095333576202392578125">
        <ele>1042.800048828125</ele>
        <time>2026-06-20T12:29:55.000Z</time>
        <extensions>
          <ns3:TrackPointExtension>
            <ns3:atemp>25.0</ns3:atemp>
          </ns3:TrackPointExtension>
        </extensions>
      </trkpt>
      <trkpt lat="42.45098479092121124267578125" lon="20.20646628923714160919189453125">
        <ele>1042.4000244140625</ele>
        <time>2026-06-20T12:29:56.000Z</time>
        <extensions>
          <ns3:TrackPointExtension>
            <ns3:atemp>25.0</ns3:atemp>
          </ns3:TrackPointExtension>
        </extensions>
      </trkpt>
      <trkpt lat="42.45098923332989215850830078125" lon="20.206458158791065216064453125">
        <ele>1042.199951171875</ele>
        <time>2026-06-20T12:29:57.000Z</time>
        <extensions>
          <ns3:TrackPointExtension>
            <ns3:atemp>25.0</ns3:atemp>
          </ns3:TrackPointExtension>
        </extensions>
      </trkpt>
      <trkpt lat="42.45099283754825592041015625" lon="20.20645639859139919281005859375">
        <ele>1042.199951171875</ele>
        <time>2026-06-20T12:29:58.000Z</time>
        <extensions>
          <ns3:TrackPointExtension>
            <ns3:atemp>25.0</ns3:atemp>
          </ns3:TrackPointExtension>
        </extensions>
      </trkpt>
      <trkpt lat="42.4509953521192073822021484375" lon="20.20645589567720890045166015625">
        <ele>1042</ele>
        <time>2026-06-20T12:29:59.000Z</time>
        <extensions>
          <ns3:TrackPointExtension>
            <ns3:atemp>25.0</ns3:atemp>
          </ns3:TrackPointExtension>
        </extensions>
      </trkpt>
      <trkpt lat="42.4509953521192073822021484375" lon="20.20645589567720890045166015625">
        <ele>1042</ele>
        <time>2026-06-20T12:30:00.000Z</time>
        <extensions>
          <ns3:TrackPointExtension>
            <ns3:atemp>25.0</ns3:atemp>
          </ns3:TrackPointExtension>
        </extensions>
      </trkpt>
      <trkpt lat="42.4509953521192073822021484375" lon="20.20645589567720890045166015625">
        <ele>1041.800048828125</ele>
        <time>2026-06-20T12:30:01.000Z</time>
        <extensions>
          <ns3:TrackPointExtension>
            <ns3:atemp>25.0</ns3:atemp>
          </ns3:TrackPointExtension>
        </extensions>
      </trkpt>
      <trkpt lat="42.4509953521192073822021484375" lon="20.20645589567720890045166015625">
        <ele>1041.5999755859375</ele>
        <time>2026-06-20T12:30:02.000Z</time>
        <extensions>
          <ns3:TrackPointExtension>
            <ns3:atemp>25.0</ns3:atemp>
          </ns3:TrackPointExtension>
        </extensions>
      </trkpt>
      <trkpt lat="42.4509953521192073822021484375" lon="20.20645589567720890045166015625">
        <ele>1041.4000244140625</ele>
        <time>2026-06-20T12:30:03.000Z</time>
        <extensions>
          <ns3:TrackPointExtension>
            <ns3:atemp>25.0</ns3:atemp>
          </ns3:TrackPointExtension>
        </extensions>
      </trkpt>
      <trkpt lat="42.4509953521192073822021484375" lon="20.20645589567720890045166015625">
        <ele>1041.199951171875</ele>
        <time>2026-06-20T12:30:04.000Z</time>
        <extensions>
          <ns3:TrackPointExtension>
            <ns3:atemp>25.0</ns3:atemp>
          </ns3:TrackPointExtension>
        </extensions>
      </trkpt>
      <trkpt lat="42.4509953521192073822021484375" lon="20.20645589567720890045166015625">
        <ele>1041</ele>
        <time>2026-06-20T12:30:05.000Z</time>
        <extensions>
          <ns3:TrackPointExtension>
            <ns3:atemp>25.0</ns3:atemp>
          </ns3:TrackPointExtension>
        </extensions>
      </trkpt>
      <trkpt lat="42.4509953521192073822021484375" lon="20.20645589567720890045166015625">
        <ele>1040.800048828125</ele>
        <time>2026-06-20T12:30:06.000Z</time>
        <extensions>
          <ns3:TrackPointExtension>
            <ns3:atemp>25.0</ns3:atemp>
          </ns3:TrackPointExtension>
        </extensions>
      </trkpt>
      <trkpt lat="42.4509953521192073822021484375" lon="20.20645589567720890045166015625">
        <ele>1040.5999755859375</ele>
        <time>2026-06-20T12:30:07.000Z</time>
        <extensions>
          <ns3:TrackPointExtension>
            <ns3:atemp>25.0</ns3:atemp>
          </ns3:TrackPointExtension>
        </extensions>
      </trkpt>
      <trkpt lat="42.4509953521192073822021484375" lon="20.20645589567720890045166015625">
        <ele>1040.5999755859375</ele>
        <time>2026-06-20T12:30:08.000Z</time>
        <extensions>
          <ns3:TrackPointExtension>
            <ns3:atemp>25.0</ns3:atemp>
          </ns3:TrackPointExtension>
        </extensions>
      </trkpt>
      <trkpt lat="42.4509953521192073822021484375" lon="20.20645589567720890045166015625">
        <ele>1040.5999755859375</ele>
        <time>2026-06-20T12:30:09.000Z</time>
        <extensions>
          <ns3:TrackPointExtension>
            <ns3:atemp>25.0</ns3:atemp>
          </ns3:TrackPointExtension>
        </extensions>
      </trkpt>
      <trkpt lat="42.4509940110146999359130859375" lon="20.2064569853246212005615234375">
        <ele>1040.4000244140625</ele>
        <time>2026-06-20T12:30:10.000Z</time>
        <extensions>
          <ns3:TrackPointExtension>
            <ns3:atemp>25.0</ns3:atemp>
          </ns3:TrackPointExtension>
        </extensions>
      </trkpt>
      <trkpt lat="42.4509953521192073822021484375" lon="20.20645589567720890045166015625">
        <ele>1040.4000244140625</ele>
        <time>2026-06-20T12:30:11.000Z</time>
        <extensions>
          <ns3:TrackPointExtension>
            <ns3:atemp>25.0</ns3:atemp>
          </ns3:TrackPointExtension>
        </extensions>
      </trkpt>
      <trkpt lat="42.4509909935295581817626953125" lon="20.206459499895572662353515625">
        <ele>1040.4000244140625</ele>
        <time>2026-06-20T12:30:12.000Z</time>
        <extensions>
          <ns3:TrackPointExtension>
            <ns3:atemp>25.0</ns3:atemp>
          </ns3:TrackPointExtension>
        </extensions>
      </trkpt>
      <trkpt lat="42.45098990388214588165283203125" lon="20.206457488238811492919921875">
        <ele>1040.4000244140625</ele>
        <time>2026-06-20T12:30:13.000Z</time>
        <extensions>
          <ns3:TrackPointExtension>
            <ns3:atemp>25.0</ns3:atemp>
          </ns3:TrackPointExtension>
        </extensions>
      </trkpt>
      <trkpt lat="42.4509953521192073822021484375" lon="20.20645589567720890045166015625">
        <ele>1040.4000244140625</ele>
        <time>2026-06-20T12:30:14.000Z</time>
        <extensions>
          <ns3:TrackPointExtension>
            <ns3:atemp>25.0</ns3:atemp>
          </ns3:TrackPointExtension>
        </extensions>
      </trkpt>
      <trkpt lat="42.4509953521192073822021484375" lon="20.20645589567720890045166015625">
        <ele>1040.5999755859375</ele>
        <time>2026-06-20T12:30:15.000Z</time>
        <extensions>
          <ns3:TrackPointExtension>
            <ns3:atemp>25.0</ns3:atemp>
          </ns3:TrackPointExtension>
        </extensions>
      </trkpt>
      <trkpt lat="42.4509953521192073822021484375" lon="20.20645589567720890045166015625">
        <ele>1040.5999755859375</ele>
        <time>2026-06-20T12:30:16.000Z</time>
        <extensions>
          <ns3:TrackPointExtension>
            <ns3:atemp>25.0</ns3:atemp>
          </ns3:TrackPointExtension>
        </extensions>
      </trkpt>
      <trkpt lat="42.4509953521192073822021484375" lon="20.20645589567720890045166015625">
        <ele>1040.5999755859375</ele>
        <time>2026-06-20T12:30:17.000Z</time>
        <extensions>
          <ns3:TrackPointExtension>
            <ns3:atemp>25.0</ns3:atemp>
          </ns3:TrackPointExtension>
        </extensions>
      </trkpt>
      <trkpt lat="42.4509953521192073822021484375" lon="20.20645589567720890045166015625">
        <ele>1040.5999755859375</ele>
        <time>2026-06-20T12:30:18.000Z</time>
        <extensions>
          <ns3:TrackPointExtension>
            <ns3:atemp>25.0</ns3:atemp>
          </ns3:TrackPointExtension>
        </extensions>
      </trkpt>
      <trkpt lat="42.4509953521192073822021484375" lon="20.20645589567720890045166015625">
        <ele>1040.5999755859375</ele>
        <time>2026-06-20T12:30:19.000Z</time>
        <extensions>
          <ns3:TrackPointExtension>
            <ns3:atemp>25.0</ns3:atemp>
          </ns3:TrackPointExtension>
        </extensions>
      </trkpt>
      <trkpt lat="42.4509953521192073822021484375" lon="20.20645589567720890045166015625">
        <ele>1040.5999755859375</ele>
        <time>2026-06-20T12:30:20.000Z</time>
        <extensions>
          <ns3:TrackPointExtension>
            <ns3:atemp>25.0</ns3:atemp>
          </ns3:TrackPointExtension>
        </extensions>
      </trkpt>
      <trkpt lat="42.4509953521192073822021484375" lon="20.20645589567720890045166015625">
        <ele>1040.4000244140625</ele>
        <time>2026-06-20T12:30:21.000Z</time>
        <extensions>
          <ns3:TrackPointExtension>
            <ns3:atemp>25.0</ns3:atemp>
          </ns3:TrackPointExtension>
        </extensions>
      </trkpt>
      <trkpt lat="42.4509953521192073822021484375" lon="20.20645589567720890045166015625">
        <ele>1040.4000244140625</ele>
        <time>2026-06-20T12:30:22.000Z</time>
        <extensions>
          <ns3:TrackPointExtension>
            <ns3:atemp>25.0</ns3:atemp>
          </ns3:TrackPointExtension>
        </extensions>
      </trkpt>
      <trkpt lat="42.4509953521192073822021484375" lon="20.20645589567720890045166015625">
        <ele>1040.4000244140625</ele>
        <time>2026-06-20T12:30:23.000Z</time>
        <extensions>
          <ns3:TrackPointExtension>
            <ns3:atemp>25.0</ns3:atemp>
          </ns3:TrackPointExtension>
        </extensions>
      </trkpt>
      <trkpt lat="42.4509953521192073822021484375" lon="20.20645589567720890045166015625">
        <ele>1040.199951171875</ele>
        <time>2026-06-20T12:30:24.000Z</time>
        <extensions>
          <ns3:TrackPointExtension>
            <ns3:atemp>25.0</ns3:atemp>
          </ns3:TrackPointExtension>
        </extensions>
      </trkpt>
      <trkpt lat="42.4509953521192073822021484375" lon="20.20645589567720890045166015625">
        <ele>1040.199951171875</ele>
        <time>2026-06-20T12:30:25.000Z</time>
        <extensions>
          <ns3:TrackPointExtension>
            <ns3:atemp>25.0</ns3:atemp>
          </ns3:TrackPointExtension>
        </extensions>
      </trkpt>
      <trkpt lat="42.4509953521192073822021484375" lon="20.20645589567720890045166015625">
        <ele>1040.199951171875</ele>
        <time>2026-06-20T12:30:26.000Z</time>
        <extensions>
          <ns3:TrackPointExtension>
            <ns3:atemp>25.0</ns3:atemp>
          </ns3:TrackPointExtension>
        </extensions>
      </trkpt>
      <trkpt lat="42.4509953521192073822021484375" lon="20.20645589567720890045166015625">
        <ele>1040</ele>
        <time>2026-06-20T12:30:27.000Z</time>
        <extensions>
          <ns3:TrackPointExtension>
            <ns3:atemp>25.0</ns3:atemp>
          </ns3:TrackPointExtension>
        </extensions>
      </trkpt>
      <trkpt lat="42.4509953521192073822021484375" lon="20.20645589567720890045166015625">
        <ele>1040</ele>
        <time>2026-06-20T12:30:28.000Z</time>
        <extensions>
          <ns3:TrackPointExtension>
            <ns3:atemp>25.0</ns3:atemp>
          </ns3:TrackPointExtension>
        </extensions>
      </trkpt>
      <trkpt lat="42.4509953521192073822021484375" lon="20.20645589567720890045166015625">
        <ele>1040</ele>
        <time>2026-06-20T12:30:29.000Z</time>
        <extensions>
          <ns3:TrackPointExtension>
            <ns3:atemp>25.0</ns3:atemp>
          </ns3:TrackPointExtension>
        </extensions>
      </trkpt>
      <trkpt lat="42.4509953521192073822021484375" lon="20.20645589567720890045166015625">
        <ele>1040</ele>
        <time>2026-06-20T12:30:30.000Z</time>
        <extensions>
          <ns3:TrackPointExtension>
            <ns3:atemp>25.0</ns3:atemp>
          </ns3:TrackPointExtension>
        </extensions>
      </trkpt>
      <trkpt lat="42.4509953521192073822021484375" lon="20.20645589567720890045166015625">
        <ele>1040</ele>
        <time>2026-06-20T12:30:31.000Z</time>
        <extensions>
          <ns3:TrackPointExtension>
            <ns3:atemp>25.0</ns3:atemp>
          </ns3:TrackPointExtension>
        </extensions>
      </trkpt>
      <trkpt lat="42.4509953521192073822021484375" lon="20.20645589567720890045166015625">
        <ele>1040</ele>
        <time>2026-06-20T12:30:32.000Z</time>
        <extensions>
          <ns3:TrackPointExtension>
            <ns3:atemp>25.0</ns3:atemp>
          </ns3:TrackPointExtension>
        </extensions>
      </trkpt>
      <trkpt lat="42.4509953521192073822021484375" lon="20.20645589567720890045166015625">
        <ele>1040</ele>
        <time>2026-06-20T12:30:33.000Z</time>
        <extensions>
          <ns3:TrackPointExtension>
            <ns3:atemp>25.0</ns3:atemp>
          </ns3:TrackPointExtension>
        </extensions>
      </trkpt>
      <trkpt lat="42.4509953521192073822021484375" lon="20.20645589567720890045166015625">
        <ele>1040</ele>
        <time>2026-06-20T12:30:34.000Z</time>
        <extensions>
          <ns3:TrackPointExtension>
            <ns3:atemp>25.0</ns3:atemp>
          </ns3:TrackPointExtension>
        </extensions>
      </trkpt>
      <trkpt lat="42.4509953521192073822021484375" lon="20.20645589567720890045166015625">
        <ele>1040</ele>
        <time>2026-06-20T12:30:35.000Z</time>
        <extensions>
          <ns3:TrackPointExtension>
            <ns3:atemp>25.0</ns3:atemp>
          </ns3:TrackPointExtension>
        </extensions>
      </trkpt>
      <trkpt lat="42.4509953521192073822021484375" lon="20.20645589567720890045166015625">
        <ele>1040</ele>
        <time>2026-06-20T12:30:36.000Z</time>
        <extensions>
          <ns3:TrackPointExtension>
            <ns3:atemp>25.0</ns3:atemp>
          </ns3:TrackPointExtension>
        </extensions>
      </trkpt>
      <trkpt lat="42.4509953521192073822021484375" lon="20.20645589567720890045166015625">
        <ele>1040</ele>
        <time>2026-06-20T12:30:37.000Z</time>
        <extensions>
          <ns3:TrackPointExtension>
            <ns3:atemp>25.0</ns3:atemp>
          </ns3:TrackPointExtension>
        </extensions>
      </trkpt>
      <trkpt lat="42.4509953521192073822021484375" lon="20.20645589567720890045166015625">
        <ele>1040</ele>
        <time>2026-06-20T12:30:38.000Z</time>
        <extensions>
          <ns3:TrackPointExtension>
            <ns3:atemp>25.0</ns3:atemp>
          </ns3:TrackPointExtension>
        </extensions>
      </trkpt>
      <trkpt lat="42.4509953521192073822021484375" lon="20.20645589567720890045166015625">
        <ele>1040</ele>
        <time>2026-06-20T12:30:39.000Z</time>
        <extensions>
          <ns3:TrackPointExtension>
            <ns3:atemp>25.0</ns3:atemp>
          </ns3:TrackPointExtension>
        </extensions>
      </trkpt>
      <trkpt lat="42.4509953521192073822021484375" lon="20.20645589567720890045166015625">
        <ele>1040</ele>
        <time>2026-06-20T12:30:40.000Z</time>
        <extensions>
          <ns3:TrackPointExtension>
            <ns3:atemp>25.0</ns3:atemp>
          </ns3:TrackPointExtension>
        </extensions>
      </trkpt>
      <trkpt lat="42.4509953521192073822021484375" lon="20.20645589567720890045166015625">
        <ele>1040</ele>
        <time>2026-06-20T12:30:41.000Z</time>
        <extensions>
          <ns3:TrackPointExtension>
            <ns3:atemp>25.0</ns3:atemp>
          </ns3:TrackPointExtension>
        </extensions>
      </trkpt>
      <trkpt lat="42.4509953521192073822021484375" lon="20.20645589567720890045166015625">
        <ele>1039.800048828125</ele>
        <time>2026-06-20T12:30:42.000Z</time>
        <extensions>
          <ns3:TrackPointExtension>
            <ns3:atemp>25.0</ns3:atemp>
          </ns3:TrackPointExtension>
        </extensions>
      </trkpt>
      <trkpt lat="42.4509953521192073822021484375" lon="20.20645589567720890045166015625">
        <ele>1039.800048828125</ele>
        <time>2026-06-20T12:30:43.000Z</time>
        <extensions>
          <ns3:TrackPointExtension>
            <ns3:atemp>25.0</ns3:atemp>
          </ns3:TrackPointExtension>
        </extensions>
      </trkpt>
      <trkpt lat="42.4509953521192073822021484375" lon="20.20645589567720890045166015625">
        <ele>1039.800048828125</ele>
        <time>2026-06-20T12:30:44.000Z</time>
        <extensions>
          <ns3:TrackPointExtension>
            <ns3:atemp>25.0</ns3:atemp>
          </ns3:TrackPointExtension>
        </extensions>
      </trkpt>
      <trkpt lat="42.4509953521192073822021484375" lon="20.20645589567720890045166015625">
        <ele>1039.800048828125</ele>
        <time>2026-06-20T12:30:45.000Z</time>
        <extensions>
          <ns3:TrackPointExtension>
            <ns3:atemp>25.0</ns3:atemp>
          </ns3:TrackPointExtension>
        </extensions>
      </trkpt>
      <trkpt lat="42.4509953521192073822021484375" lon="20.20645589567720890045166015625">
        <ele>1039.800048828125</ele>
        <time>2026-06-20T12:30:46.000Z</time>
        <extensions>
          <ns3:TrackPointExtension>
            <ns3:atemp>25.0</ns3:atemp>
          </ns3:TrackPointExtension>
        </extensions>
      </trkpt>
      <trkpt lat="42.4509953521192073822021484375" lon="20.20645589567720890045166015625">
        <ele>1039.800048828125</ele>
        <time>2026-06-20T12:30:47.000Z</time>
        <extensions>
          <ns3:TrackPointExtension>
            <ns3:atemp>25.0</ns3:atemp>
          </ns3:TrackPointExtension>
        </extensions>
      </trkpt>
      <trkpt lat="42.4509953521192073822021484375" lon="20.20645589567720890045166015625">
        <ele>1039.800048828125</ele>
        <time>2026-06-20T12:30:48.000Z</time>
        <extensions>
          <ns3:TrackPointExtension>
            <ns3:atemp>25.0</ns3:atemp>
          </ns3:TrackPointExtension>
        </extensions>
      </trkpt>
      <trkpt lat="42.4509953521192073822021484375" lon="20.20645589567720890045166015625">
        <ele>1039.800048828125</ele>
        <time>2026-06-20T12:30:49.000Z</time>
        <extensions>
          <ns3:TrackPointExtension>
            <ns3:atemp>25.0</ns3:atemp>
          </ns3:TrackPointExtension>
        </extensions>
      </trkpt>
      <trkpt lat="42.4509953521192073822021484375" lon="20.20645589567720890045166015625">
        <ele>1039.5999755859375</ele>
        <time>2026-06-20T12:30:50.000Z</time>
        <extensions>
          <ns3:TrackPointExtension>
            <ns3:atemp>25.0</ns3:atemp>
          </ns3:TrackPointExtension>
        </extensions>
      </trkpt>
      <trkpt lat="42.4509953521192073822021484375" lon="20.20645589567720890045166015625">
        <ele>1039.5999755859375</ele>
        <time>2026-06-20T12:30:51.000Z</time>
        <extensions>
          <ns3:TrackPointExtension>
            <ns3:atemp>25.0</ns3:atemp>
          </ns3:TrackPointExtension>
        </extensions>
      </trkpt>
      <trkpt lat="42.4509953521192073822021484375" lon="20.20645589567720890045166015625">
        <ele>1039.5999755859375</ele>
        <time>2026-06-20T12:30:52.000Z</time>
        <extensions>
          <ns3:TrackPointExtension>
            <ns3:atemp>25.0</ns3:atemp>
          </ns3:TrackPointExtension>
        </extensions>
      </trkpt>
      <trkpt lat="42.4509953521192073822021484375" lon="20.20645589567720890045166015625">
        <ele>1039.5999755859375</ele>
        <time>2026-06-20T12:30:53.000Z</time>
        <extensions>
          <ns3:TrackPointExtension>
            <ns3:atemp>25.0</ns3:atemp>
          </ns3:TrackPointExtension>
        </extensions>
      </trkpt>
      <trkpt lat="42.4509953521192073822021484375" lon="20.20645589567720890045166015625">
        <ele>1039.5999755859375</ele>
        <time>2026-06-20T12:30:54.000Z</time>
        <extensions>
          <ns3:TrackPointExtension>
            <ns3:atemp>25.0</ns3:atemp>
          </ns3:TrackPointExtension>
        </extensions>
      </trkpt>
      <trkpt lat="42.4509953521192073822021484375" lon="20.20645589567720890045166015625">
        <ele>1039.5999755859375</ele>
        <time>2026-06-20T12:30:55.000Z</time>
        <extensions>
          <ns3:TrackPointExtension>
            <ns3:atemp>25.0</ns3:atemp>
          </ns3:TrackPointExtension>
        </extensions>
      </trkpt>
      <trkpt lat="42.4509953521192073822021484375" lon="20.20645589567720890045166015625">
        <ele>1039.5999755859375</ele>
        <time>2026-06-20T12:30:56.000Z</time>
        <extensions>
          <ns3:TrackPointExtension>
            <ns3:atemp>25.0</ns3:atemp>
          </ns3:TrackPointExtension>
        </extensions>
      </trkpt>
      <trkpt lat="42.4509953521192073822021484375" lon="20.20645589567720890045166015625">
        <ele>1039.5999755859375</ele>
        <time>2026-06-20T12:30:57.000Z</time>
        <extensions>
          <ns3:TrackPointExtension>
            <ns3:atemp>25.0</ns3:atemp>
          </ns3:TrackPointExtension>
        </extensions>
      </trkpt>
      <trkpt lat="42.4509953521192073822021484375" lon="20.20645589567720890045166015625">
        <ele>1039.800048828125</ele>
        <time>2026-06-20T12:30:58.000Z</time>
        <extensions>
          <ns3:TrackPointExtension>
            <ns3:atemp>25.0</ns3:atemp>
          </ns3:TrackPointExtension>
        </extensions>
      </trkpt>
      <trkpt lat="42.4509953521192073822021484375" lon="20.20645589567720890045166015625">
        <ele>1039.800048828125</ele>
        <time>2026-06-20T12:30:59.000Z</time>
        <extensions>
          <ns3:TrackPointExtension>
            <ns3:atemp>25.0</ns3:atemp>
          </ns3:TrackPointExtension>
        </extensions>
      </trkpt>
      <trkpt lat="42.4509953521192073822021484375" lon="20.20645589567720890045166015625">
        <ele>1039.800048828125</ele>
        <time>2026-06-20T12:31:00.000Z</time>
        <extensions>
          <ns3:TrackPointExtension>
            <ns3:atemp>25.0</ns3:atemp>
          </ns3:TrackPointExtension>
        </extensions>
      </trkpt>
      <trkpt lat="42.4509953521192073822021484375" lon="20.20645589567720890045166015625">
        <ele>1039.800048828125</ele>
        <time>2026-06-20T12:31:01.000Z</time>
        <extensions>
          <ns3:TrackPointExtension>
            <ns3:atemp>25.0</ns3:atemp>
          </ns3:TrackPointExtension>
        </extensions>
      </trkpt>
      <trkpt lat="42.4509953521192073822021484375" lon="20.20645589567720890045166015625">
        <ele>1039.800048828125</ele>
        <time>2026-06-20T12:31:02.000Z</time>
        <extensions>
          <ns3:TrackPointExtension>
            <ns3:atemp>25.0</ns3:atemp>
          </ns3:TrackPointExtension>
        </extensions>
      </trkpt>
      <trkpt lat="42.4509953521192073822021484375" lon="20.20645589567720890045166015625">
        <ele>1039.800048828125</ele>
        <time>2026-06-20T12:31:03.000Z</time>
        <extensions>
          <ns3:TrackPointExtension>
            <ns3:atemp>25.0</ns3:atemp>
          </ns3:TrackPointExtension>
        </extensions>
      </trkpt>
      <trkpt lat="42.4509953521192073822021484375" lon="20.20645589567720890045166015625">
        <ele>1039.800048828125</ele>
        <time>2026-06-20T12:31:04.000Z</time>
        <extensions>
          <ns3:TrackPointExtension>
            <ns3:atemp>25.0</ns3:atemp>
          </ns3:TrackPointExtension>
        </extensions>
      </trkpt>
      <trkpt lat="42.4509953521192073822021484375" lon="20.20645589567720890045166015625">
        <ele>1039.800048828125</ele>
        <time>2026-06-20T12:31:05.000Z</time>
        <extensions>
          <ns3:TrackPointExtension>
            <ns3:atemp>25.0</ns3:atemp>
          </ns3:TrackPointExtension>
        </extensions>
      </trkpt>
      <trkpt lat="42.4509953521192073822021484375" lon="20.20645589567720890045166015625">
        <ele>1039.800048828125</ele>
        <time>2026-06-20T12:31:06.000Z</time>
        <extensions>
          <ns3:TrackPointExtension>
            <ns3:atemp>25.0</ns3:atemp>
          </ns3:TrackPointExtension>
        </extensions>
      </trkpt>
      <trkpt lat="42.4509953521192073822021484375" lon="20.20645589567720890045166015625">
        <ele>1039.5999755859375</ele>
        <time>2026-06-20T12:31:07.000Z</time>
        <extensions>
          <ns3:TrackPointExtension>
            <ns3:atemp>25.0</ns3:atemp>
          </ns3:TrackPointExtension>
        </extensions>
      </trkpt>
      <trkpt lat="42.4509953521192073822021484375" lon="20.20645589567720890045166015625">
        <ele>1039.5999755859375</ele>
        <time>2026-06-20T12:31:08.000Z</time>
        <extensions>
          <ns3:TrackPointExtension>
            <ns3:atemp>25.0</ns3:atemp>
          </ns3:TrackPointExtension>
        </extensions>
      </trkpt>
      <trkpt lat="42.4509953521192073822021484375" lon="20.20645589567720890045166015625">
        <ele>1039.5999755859375</ele>
        <time>2026-06-20T12:31:09.000Z</time>
        <extensions>
          <ns3:TrackPointExtension>
            <ns3:atemp>25.0</ns3:atemp>
          </ns3:TrackPointExtension>
        </extensions>
      </trkpt>
      <trkpt lat="42.4509953521192073822021484375" lon="20.20645589567720890045166015625">
        <ele>1039.5999755859375</ele>
        <time>2026-06-20T12:31:10.000Z</time>
        <extensions>
          <ns3:TrackPointExtension>
            <ns3:atemp>25.0</ns3:atemp>
          </ns3:TrackPointExtension>
        </extensions>
      </trkpt>
      <trkpt lat="42.4509953521192073822021484375" lon="20.20645589567720890045166015625">
        <ele>1039.4000244140625</ele>
        <time>2026-06-20T12:31:11.000Z</time>
        <extensions>
          <ns3:TrackPointExtension>
            <ns3:atemp>25.0</ns3:atemp>
          </ns3:TrackPointExtension>
        </extensions>
      </trkpt>
      <trkpt lat="42.4509953521192073822021484375" lon="20.20645589567720890045166015625">
        <ele>1039.4000244140625</ele>
        <time>2026-06-20T12:31:12.000Z</time>
        <extensions>
          <ns3:TrackPointExtension>
            <ns3:atemp>25.0</ns3:atemp>
          </ns3:TrackPointExtension>
        </extensions>
      </trkpt>
      <trkpt lat="42.4509953521192073822021484375" lon="20.20645589567720890045166015625">
        <ele>1039.4000244140625</ele>
        <time>2026-06-20T12:31:13.000Z</time>
        <extensions>
          <ns3:TrackPointExtension>
            <ns3:atemp>25.0</ns3:atemp>
          </ns3:TrackPointExtension>
        </extensions>
      </trkpt>
      <trkpt lat="42.4509953521192073822021484375" lon="20.20645589567720890045166015625">
        <ele>1039.4000244140625</ele>
        <time>2026-06-20T12:31:14.000Z</time>
        <extensions>
          <ns3:TrackPointExtension>
            <ns3:atemp>25.0</ns3:atemp>
          </ns3:TrackPointExtension>
        </extensions>
      </trkpt>
      <trkpt lat="42.4509953521192073822021484375" lon="20.20645589567720890045166015625">
        <ele>1039.5999755859375</ele>
        <time>2026-06-20T12:31:15.000Z</time>
        <extensions>
          <ns3:TrackPointExtension>
            <ns3:atemp>25.0</ns3:atemp>
          </ns3:TrackPointExtension>
        </extensions>
      </trkpt>
      <trkpt lat="42.4509953521192073822021484375" lon="20.20645589567720890045166015625">
        <ele>1039.5999755859375</ele>
        <time>2026-06-20T12:31:16.000Z</time>
        <extensions>
          <ns3:TrackPointExtension>
            <ns3:atemp>25.0</ns3:atemp>
          </ns3:TrackPointExtension>
        </extensions>
      </trkpt>
      <trkpt lat="42.4509953521192073822021484375" lon="20.20645589567720890045166015625">
        <ele>1039.5999755859375</ele>
        <time>2026-06-20T12:31:17.000Z</time>
        <extensions>
          <ns3:TrackPointExtension>
            <ns3:atemp>25.0</ns3:atemp>
          </ns3:TrackPointExtension>
        </extensions>
      </trkpt>
      <trkpt lat="42.4509953521192073822021484375" lon="20.20645589567720890045166015625">
        <ele>1039.5999755859375</ele>
        <time>2026-06-20T12:31:18.000Z</time>
        <extensions>
          <ns3:TrackPointExtension>
            <ns3:atemp>25.0</ns3:atemp>
          </ns3:TrackPointExtension>
        </extensions>
      </trkpt>
      <trkpt lat="42.4509953521192073822021484375" lon="20.20645589567720890045166015625">
        <ele>1039.5999755859375</ele>
        <time>2026-06-20T12:31:19.000Z</time>
        <extensions>
          <ns3:TrackPointExtension>
            <ns3:atemp>25.0</ns3:atemp>
          </ns3:TrackPointExtension>
        </extensions>
      </trkpt>
      <trkpt lat="42.4509953521192073822021484375" lon="20.20645589567720890045166015625">
        <ele>1039.5999755859375</ele>
        <time>2026-06-20T12:31:20.000Z</time>
        <extensions>
          <ns3:TrackPointExtension>
            <ns3:atemp>25.0</ns3:atemp>
          </ns3:TrackPointExtension>
        </extensions>
      </trkpt>
      <trkpt lat="42.4509953521192073822021484375" lon="20.20645589567720890045166015625">
        <ele>1039.5999755859375</ele>
        <time>2026-06-20T12:31:21.000Z</time>
        <extensions>
          <ns3:TrackPointExtension>
            <ns3:atemp>25.0</ns3:atemp>
          </ns3:TrackPointExtension>
        </extensions>
      </trkpt>
      <trkpt lat="42.4509953521192073822021484375" lon="20.20645589567720890045166015625">
        <ele>1039.4000244140625</ele>
        <time>2026-06-20T12:31:22.000Z</time>
        <extensions>
          <ns3:TrackPointExtension>
            <ns3:atemp>25.0</ns3:atemp>
          </ns3:TrackPointExtension>
        </extensions>
      </trkpt>
      <trkpt lat="42.4509953521192073822021484375" lon="20.20645589567720890045166015625">
        <ele>1039.4000244140625</ele>
        <time>2026-06-20T12:31:23.000Z</time>
        <extensions>
          <ns3:TrackPointExtension>
            <ns3:atemp>25.0</ns3:atemp>
          </ns3:TrackPointExtension>
        </extensions>
      </trkpt>
      <trkpt lat="42.4509953521192073822021484375" lon="20.20645589567720890045166015625">
        <ele>1039.4000244140625</ele>
        <time>2026-06-20T12:31:24.000Z</time>
        <extensions>
          <ns3:TrackPointExtension>
            <ns3:atemp>25.0</ns3:atemp>
          </ns3:TrackPointExtension>
        </extensions>
      </trkpt>
      <trkpt lat="42.4509953521192073822021484375" lon="20.20645589567720890045166015625">
        <ele>1039.5999755859375</ele>
        <time>2026-06-20T12:31:25.000Z</time>
        <extensions>
          <ns3:TrackPointExtension>
            <ns3:atemp>25.0</ns3:atemp>
          </ns3:TrackPointExtension>
        </extensions>
      </trkpt>
      <trkpt lat="42.4509953521192073822021484375" lon="20.20645589567720890045166015625">
        <ele>1039.5999755859375</ele>
        <time>2026-06-20T12:31:26.000Z</time>
        <extensions>
          <ns3:TrackPointExtension>
            <ns3:atemp>25.0</ns3:atemp>
          </ns3:TrackPointExtension>
        </extensions>
      </trkpt>
      <trkpt lat="42.4509953521192073822021484375" lon="20.20645589567720890045166015625">
        <ele>1039.5999755859375</ele>
        <time>2026-06-20T12:31:27.000Z</time>
        <extensions>
          <ns3:TrackPointExtension>
            <ns3:atemp>25.0</ns3:atemp>
          </ns3:TrackPointExtension>
        </extensions>
      </trkpt>
      <trkpt lat="42.4509953521192073822021484375" lon="20.20645589567720890045166015625">
        <ele>1039.5999755859375</ele>
        <time>2026-06-20T12:31:28.000Z</time>
        <extensions>
          <ns3:TrackPointExtension>
            <ns3:atemp>25.0</ns3:atemp>
          </ns3:TrackPointExtension>
        </extensions>
      </trkpt>
      <trkpt lat="42.4509953521192073822021484375" lon="20.20645589567720890045166015625">
        <ele>1039.5999755859375</ele>
        <time>2026-06-20T12:31:29.000Z</time>
        <extensions>
          <ns3:TrackPointExtension>
            <ns3:atemp>25.0</ns3:atemp>
          </ns3:TrackPointExtension>
        </extensions>
      </trkpt>
      <trkpt lat="42.4509953521192073822021484375" lon="20.20645589567720890045166015625">
        <ele>1039.5999755859375</ele>
        <time>2026-06-20T12:31:30.000Z</time>
        <extensions>
          <ns3:TrackPointExtension>
            <ns3:atemp>25.0</ns3:atemp>
          </ns3:TrackPointExtension>
        </extensions>
      </trkpt>
      <trkpt lat="42.4509953521192073822021484375" lon="20.20645589567720890045166015625">
        <ele>1039.5999755859375</ele>
        <time>2026-06-20T12:31:31.000Z</time>
        <extensions>
          <ns3:TrackPointExtension>
            <ns3:atemp>25.0</ns3:atemp>
          </ns3:TrackPointExtension>
        </extensions>
      </trkpt>
      <trkpt lat="42.4509953521192073822021484375" lon="20.20645589567720890045166015625">
        <ele>1039.5999755859375</ele>
        <time>2026-06-20T12:31:32.000Z</time>
        <extensions>
          <ns3:TrackPointExtension>
            <ns3:atemp>25.0</ns3:atemp>
          </ns3:TrackPointExtension>
        </extensions>
      </trkpt>
      <trkpt lat="42.4509953521192073822021484375" lon="20.20645589567720890045166015625">
        <ele>1039.5999755859375</ele>
        <time>2026-06-20T12:31:33.000Z</time>
        <extensions>
          <ns3:TrackPointExtension>
            <ns3:atemp>25.0</ns3:atemp>
          </ns3:TrackPointExtension>
        </extensions>
      </trkpt>
      <trkpt lat="42.4509953521192073822021484375" lon="20.20645589567720890045166015625">
        <ele>1039.5999755859375</ele>
        <time>2026-06-20T12:31:34.000Z</time>
        <extensions>
          <ns3:TrackPointExtension>
            <ns3:atemp>25.0</ns3:atemp>
          </ns3:TrackPointExtension>
        </extensions>
      </trkpt>
      <trkpt lat="42.4509953521192073822021484375" lon="20.20645589567720890045166015625">
        <ele>1039.5999755859375</ele>
        <time>2026-06-20T12:31:35.000Z</time>
        <extensions>
          <ns3:TrackPointExtension>
            <ns3:atemp>25.0</ns3:atemp>
          </ns3:TrackPointExtension>
        </extensions>
      </trkpt>
      <trkpt lat="42.4509953521192073822021484375" lon="20.20645589567720890045166015625">
        <ele>1039.5999755859375</ele>
        <time>2026-06-20T12:31:36.000Z</time>
        <extensions>
          <ns3:TrackPointExtension>
            <ns3:atemp>25.0</ns3:atemp>
          </ns3:TrackPointExtension>
        </extensions>
      </trkpt>
      <trkpt lat="42.4509953521192073822021484375" lon="20.20645589567720890045166015625">
        <ele>1039.800048828125</ele>
        <time>2026-06-20T12:31:37.000Z</time>
        <extensions>
          <ns3:TrackPointExtension>
            <ns3:atemp>25.0</ns3:atemp>
          </ns3:TrackPointExtension>
        </extensions>
      </trkpt>
      <trkpt lat="42.4509953521192073822021484375" lon="20.20645589567720890045166015625">
        <ele>1039.800048828125</ele>
        <time>2026-06-20T12:31:38.000Z</time>
        <extensions>
          <ns3:TrackPointExtension>
            <ns3:atemp>25.0</ns3:atemp>
          </ns3:TrackPointExtension>
        </extensions>
      </trkpt>
      <trkpt lat="42.4509953521192073822021484375" lon="20.20645589567720890045166015625">
        <ele>1040</ele>
        <time>2026-06-20T12:31:39.000Z</time>
        <extensions>
          <ns3:TrackPointExtension>
            <ns3:atemp>25.0</ns3:atemp>
          </ns3:TrackPointExtension>
        </extensions>
      </trkpt>
      <trkpt lat="42.4509953521192073822021484375" lon="20.20645589567720890045166015625">
        <ele>1040</ele>
        <time>2026-06-20T12:31:40.000Z</time>
        <extensions>
          <ns3:TrackPointExtension>
            <ns3:atemp>25.0</ns3:atemp>
          </ns3:TrackPointExtension>
        </extensions>
      </trkpt>
      <trkpt lat="42.4509953521192073822021484375" lon="20.20645589567720890045166015625">
        <ele>1039.800048828125</ele>
        <time>2026-06-20T12:31:41.000Z</time>
        <extensions>
          <ns3:TrackPointExtension>
            <ns3:atemp>25.0</ns3:atemp>
          </ns3:TrackPointExtension>
        </extensions>
      </trkpt>
      <trkpt lat="42.4509953521192073822021484375" lon="20.20645589567720890045166015625">
        <ele>1039.800048828125</ele>
        <time>2026-06-20T12:31:42.000Z</time>
        <extensions>
          <ns3:TrackPointExtension>
            <ns3:atemp>25.0</ns3:atemp>
          </ns3:TrackPointExtension>
        </extensions>
      </trkpt>
      <trkpt lat="42.4509953521192073822021484375" lon="20.20645589567720890045166015625">
        <ele>1039.800048828125</ele>
        <time>2026-06-20T12:31:43.000Z</time>
        <extensions>
          <ns3:TrackPointExtension>
            <ns3:atemp>25.0</ns3:atemp>
          </ns3:TrackPointExtension>
        </extensions>
      </trkpt>
      <trkpt lat="42.4509953521192073822021484375" lon="20.20645589567720890045166015625">
        <ele>1039.800048828125</ele>
        <time>2026-06-20T12:31:44.000Z</time>
        <extensions>
          <ns3:TrackPointExtension>
            <ns3:atemp>25.0</ns3:atemp>
          </ns3:TrackPointExtension>
        </extensions>
      </trkpt>
      <trkpt lat="42.4509953521192073822021484375" lon="20.20645589567720890045166015625">
        <ele>1039.800048828125</ele>
        <time>2026-06-20T12:31:45.000Z</time>
        <extensions>
          <ns3:TrackPointExtension>
            <ns3:atemp>25.0</ns3:atemp>
          </ns3:TrackPointExtension>
        </extensions>
      </trkpt>
      <trkpt lat="42.4509953521192073822021484375" lon="20.20645589567720890045166015625">
        <ele>1039.800048828125</ele>
        <time>2026-06-20T12:31:46.000Z</time>
        <extensions>
          <ns3:TrackPointExtension>
            <ns3:atemp>25.0</ns3:atemp>
          </ns3:TrackPointExtension>
        </extensions>
      </trkpt>
      <trkpt lat="42.4509953521192073822021484375" lon="20.20645589567720890045166015625">
        <ele>1039.800048828125</ele>
        <time>2026-06-20T12:31:47.000Z</time>
        <extensions>
          <ns3:TrackPointExtension>
            <ns3:atemp>25.0</ns3:atemp>
          </ns3:TrackPointExtension>
        </extensions>
      </trkpt>
      <trkpt lat="42.4509953521192073822021484375" lon="20.20645589567720890045166015625">
        <ele>1040</ele>
        <time>2026-06-20T12:31:48.000Z</time>
        <extensions>
          <ns3:TrackPointExtension>
            <ns3:atemp>25.0</ns3:atemp>
          </ns3:TrackPointExtension>
        </extensions>
      </trkpt>
      <trkpt lat="42.4509953521192073822021484375" lon="20.20645589567720890045166015625">
        <ele>1040</ele>
        <time>2026-06-20T12:31:49.000Z</time>
        <extensions>
          <ns3:TrackPointExtension>
            <ns3:atemp>25.0</ns3:atemp>
          </ns3:TrackPointExtension>
        </extensions>
      </trkpt>
      <trkpt lat="42.4509953521192073822021484375" lon="20.20645589567720890045166015625">
        <ele>1040</ele>
        <time>2026-06-20T12:31:50.000Z</time>
        <extensions>
          <ns3:TrackPointExtension>
            <ns3:atemp>25.0</ns3:atemp>
          </ns3:TrackPointExtension>
        </extensions>
      </trkpt>
      <trkpt lat="42.4509953521192073822021484375" lon="20.20645589567720890045166015625">
        <ele>1040</ele>
        <time>2026-06-20T12:31:51.000Z</time>
        <extensions>
          <ns3:TrackPointExtension>
            <ns3:atemp>25.0</ns3:atemp>
          </ns3:TrackPointExtension>
        </extensions>
      </trkpt>
      <trkpt lat="42.4509953521192073822021484375" lon="20.20645589567720890045166015625">
        <ele>1040</ele>
        <time>2026-06-20T12:31:52.000Z</time>
        <extensions>
          <ns3:TrackPointExtension>
            <ns3:atemp>25.0</ns3:atemp>
          </ns3:TrackPointExtension>
        </extensions>
      </trkpt>
      <trkpt lat="42.4509953521192073822021484375" lon="20.20645589567720890045166015625">
        <ele>1040</ele>
        <time>2026-06-20T12:31:53.000Z</time>
        <extensions>
          <ns3:TrackPointExtension>
            <ns3:atemp>25.0</ns3:atemp>
          </ns3:TrackPointExtension>
        </extensions>
      </trkpt>
      <trkpt lat="42.4509953521192073822021484375" lon="20.20645589567720890045166015625">
        <ele>1040</ele>
        <time>2026-06-20T12:31:54.000Z</time>
        <extensions>
          <ns3:TrackPointExtension>
            <ns3:atemp>25.0</ns3:atemp>
          </ns3:TrackPointExtension>
        </extensions>
      </trkpt>
      <trkpt lat="42.4509953521192073822021484375" lon="20.20645589567720890045166015625">
        <ele>1040</ele>
        <time>2026-06-20T12:31:55.000Z</time>
        <extensions>
          <ns3:TrackPointExtension>
            <ns3:atemp>25.0</ns3:atemp>
          </ns3:TrackPointExtension>
        </extensions>
      </trkpt>
      <trkpt lat="42.4509953521192073822021484375" lon="20.20645589567720890045166015625">
        <ele>1040</ele>
        <time>2026-06-20T12:31:56.000Z</time>
        <extensions>
          <ns3:TrackPointExtension>
            <ns3:atemp>25.0</ns3:atemp>
          </ns3:TrackPointExtension>
        </extensions>
      </trkpt>
      <trkpt lat="42.4509953521192073822021484375" lon="20.20645589567720890045166015625">
        <ele>1040</ele>
        <time>2026-06-20T12:31:57.000Z</time>
        <extensions>
          <ns3:TrackPointExtension>
            <ns3:atemp>25.0</ns3:atemp>
          </ns3:TrackPointExtension>
        </extensions>
      </trkpt>
      <trkpt lat="42.4509953521192073822021484375" lon="20.20645589567720890045166015625">
        <ele>1040.199951171875</ele>
        <time>2026-06-20T12:31:58.000Z</time>
        <extensions>
          <ns3:TrackPointExtension>
            <ns3:atemp>25.0</ns3:atemp>
          </ns3:TrackPointExtension>
        </extensions>
      </trkpt>
      <trkpt lat="42.4509953521192073822021484375" lon="20.20645589567720890045166015625">
        <ele>1040.199951171875</ele>
        <time>2026-06-20T12:31:59.000Z</time>
        <extensions>
          <ns3:TrackPointExtension>
            <ns3:atemp>25.0</ns3:atemp>
          </ns3:TrackPointExtension>
        </extensions>
      </trkpt>
      <trkpt lat="42.4509953521192073822021484375" lon="20.20645589567720890045166015625">
        <ele>1040.199951171875</ele>
        <time>2026-06-20T12:32:00.000Z</time>
        <extensions>
          <ns3:TrackPointExtension>
            <ns3:atemp>25.0</ns3:atemp>
          </ns3:TrackPointExtension>
        </extensions>
      </trkpt>
      <trkpt lat="42.4509953521192073822021484375" lon="20.20645589567720890045166015625">
        <ele>1040</ele>
        <time>2026-06-20T12:32:01.000Z</time>
        <extensions>
          <ns3:TrackPointExtension>
            <ns3:atemp>25.0</ns3:atemp>
          </ns3:TrackPointExtension>
        </extensions>
      </trkpt>
      <trkpt lat="42.4509953521192073822021484375" lon="20.20645589567720890045166015625">
        <ele>1040</ele>
        <time>2026-06-20T12:32:02.000Z</time>
        <extensions>
          <ns3:TrackPointExtension>
            <ns3:atemp>25.0</ns3:atemp>
          </ns3:TrackPointExtension>
        </extensions>
      </trkpt>
      <trkpt lat="42.4509953521192073822021484375" lon="20.20645589567720890045166015625">
        <ele>1040</ele>
        <time>2026-06-20T12:32:03.000Z</time>
        <extensions>
          <ns3:TrackPointExtension>
            <ns3:atemp>25.0</ns3:atemp>
          </ns3:TrackPointExtension>
        </extensions>
      </trkpt>
      <trkpt lat="42.4509953521192073822021484375" lon="20.20645589567720890045166015625">
        <ele>1040</ele>
        <time>2026-06-20T12:32:04.000Z</time>
        <extensions>
          <ns3:TrackPointExtension>
            <ns3:atemp>25.0</ns3:atemp>
          </ns3:TrackPointExtension>
        </extensions>
      </trkpt>
      <trkpt lat="42.4509953521192073822021484375" lon="20.20645589567720890045166015625">
        <ele>1040</ele>
        <time>2026-06-20T12:32:05.000Z</time>
        <extensions>
          <ns3:TrackPointExtension>
            <ns3:atemp>25.0</ns3:atemp>
          </ns3:TrackPointExtension>
        </extensions>
      </trkpt>
      <trkpt lat="42.4509953521192073822021484375" lon="20.20645589567720890045166015625">
        <ele>1040</ele>
        <time>2026-06-20T12:32:06.000Z</time>
        <extensions>
          <ns3:TrackPointExtension>
            <ns3:atemp>25.0</ns3:atemp>
          </ns3:TrackPointExtension>
        </extensions>
      </trkpt>
      <trkpt lat="42.4509953521192073822021484375" lon="20.20645589567720890045166015625">
        <ele>1040</ele>
        <time>2026-06-20T12:32:07.000Z</time>
        <extensions>
          <ns3:TrackPointExtension>
            <ns3:atemp>25.0</ns3:atemp>
          </ns3:TrackPointExtension>
        </extensions>
      </trkpt>
      <trkpt lat="42.4509953521192073822021484375" lon="20.20645589567720890045166015625">
        <ele>1040</ele>
        <time>2026-06-20T12:32:08.000Z</time>
        <extensions>
          <ns3:TrackPointExtension>
            <ns3:atemp>25.0</ns3:atemp>
          </ns3:TrackPointExtension>
        </extensions>
      </trkpt>
      <trkpt lat="42.4509953521192073822021484375" lon="20.20645589567720890045166015625">
        <ele>1040</ele>
        <time>2026-06-20T12:32:09.000Z</time>
        <extensions>
          <ns3:TrackPointExtension>
            <ns3:atemp>25.0</ns3:atemp>
          </ns3:TrackPointExtension>
        </extensions>
      </trkpt>
      <trkpt lat="42.4509953521192073822021484375" lon="20.20645589567720890045166015625">
        <ele>1040</ele>
        <time>2026-06-20T12:32:10.000Z</time>
        <extensions>
          <ns3:TrackPointExtension>
            <ns3:atemp>25.0</ns3:atemp>
          </ns3:TrackPointExtension>
        </extensions>
      </trkpt>
      <trkpt lat="42.4509953521192073822021484375" lon="20.20645589567720890045166015625">
        <ele>1040</ele>
        <time>2026-06-20T12:32:11.000Z</time>
        <extensions>
          <ns3:TrackPointExtension>
            <ns3:atemp>25.0</ns3:atemp>
          </ns3:TrackPointExtension>
        </extensions>
      </trkpt>
      <trkpt lat="42.4509953521192073822021484375" lon="20.20645589567720890045166015625">
        <ele>1040</ele>
        <time>2026-06-20T12:32:12.000Z</time>
        <extensions>
          <ns3:TrackPointExtension>
            <ns3:atemp>25.0</ns3:atemp>
          </ns3:TrackPointExtension>
        </extensions>
      </trkpt>
      <trkpt lat="42.4509953521192073822021484375" lon="20.20645589567720890045166015625">
        <ele>1040</ele>
        <time>2026-06-20T12:32:13.000Z</time>
        <extensions>
          <ns3:TrackPointExtension>
            <ns3:atemp>25.0</ns3:atemp>
          </ns3:TrackPointExtension>
        </extensions>
      </trkpt>
      <trkpt lat="42.4509953521192073822021484375" lon="20.20645589567720890045166015625">
        <ele>1040</ele>
        <time>2026-06-20T12:32:14.000Z</time>
        <extensions>
          <ns3:TrackPointExtension>
            <ns3:atemp>25.0</ns3:atemp>
          </ns3:TrackPointExtension>
        </extensions>
      </trkpt>
      <trkpt lat="42.4509953521192073822021484375" lon="20.20645589567720890045166015625">
        <ele>1040</ele>
        <time>2026-06-20T12:32:15.000Z</time>
        <extensions>
          <ns3:TrackPointExtension>
            <ns3:atemp>25.0</ns3:atemp>
          </ns3:TrackPointExtension>
        </extensions>
      </trkpt>
      <trkpt lat="42.4509953521192073822021484375" lon="20.20645589567720890045166015625">
        <ele>1040</ele>
        <time>2026-06-20T12:32:16.000Z</time>
        <extensions>
          <ns3:TrackPointExtension>
            <ns3:atemp>25.0</ns3:atemp>
          </ns3:TrackPointExtension>
        </extensions>
      </trkpt>
      <trkpt lat="42.4509953521192073822021484375" lon="20.20645589567720890045166015625">
        <ele>1040</ele>
        <time>2026-06-20T12:32:17.000Z</time>
        <extensions>
          <ns3:TrackPointExtension>
            <ns3:atemp>25.0</ns3:atemp>
          </ns3:TrackPointExtension>
        </extensions>
      </trkpt>
      <trkpt lat="42.4509953521192073822021484375" lon="20.20645589567720890045166015625">
        <ele>1040</ele>
        <time>2026-06-20T12:32:18.000Z</time>
        <extensions>
          <ns3:TrackPointExtension>
            <ns3:atemp>25.0</ns3:atemp>
          </ns3:TrackPointExtension>
        </extensions>
      </trkpt>
      <trkpt lat="42.4509953521192073822021484375" lon="20.20645589567720890045166015625">
        <ele>1040</ele>
        <time>2026-06-20T12:32:19.000Z</time>
        <extensions>
          <ns3:TrackPointExtension>
            <ns3:atemp>26.0</ns3:atemp>
          </ns3:TrackPointExtension>
        </extensions>
      </trkpt>
      <trkpt lat="42.4509953521192073822021484375" lon="20.20645589567720890045166015625">
        <ele>1040</ele>
        <time>2026-06-20T12:32:20.000Z</time>
        <extensions>
          <ns3:TrackPointExtension>
            <ns3:atemp>26.0</ns3:atemp>
          </ns3:TrackPointExtension>
        </extensions>
      </trkpt>
      <trkpt lat="42.4509953521192073822021484375" lon="20.20645589567720890045166015625">
        <ele>1040</ele>
        <time>2026-06-20T12:32:21.000Z</time>
        <extensions>
          <ns3:TrackPointExtension>
            <ns3:atemp>26.0</ns3:atemp>
          </ns3:TrackPointExtension>
        </extensions>
      </trkpt>
      <trkpt lat="42.4509953521192073822021484375" lon="20.20645589567720890045166015625">
        <ele>1040</ele>
        <time>2026-06-20T12:32:22.000Z</time>
        <extensions>
          <ns3:TrackPointExtension>
            <ns3:atemp>26.0</ns3:atemp>
          </ns3:TrackPointExtension>
        </extensions>
      </trkpt>
      <trkpt lat="42.4509953521192073822021484375" lon="20.20645589567720890045166015625">
        <ele>1040</ele>
        <time>2026-06-20T12:32:23.000Z</time>
        <extensions>
          <ns3:TrackPointExtension>
            <ns3:atemp>26.0</ns3:atemp>
          </ns3:TrackPointExtension>
        </extensions>
      </trkpt>
      <trkpt lat="42.4509953521192073822021484375" lon="20.20645589567720890045166015625">
        <ele>1040</ele>
        <time>2026-06-20T12:32:24.000Z</time>
        <extensions>
          <ns3:TrackPointExtension>
            <ns3:atemp>26.0</ns3:atemp>
          </ns3:TrackPointExtension>
        </extensions>
      </trkpt>
      <trkpt lat="42.4509953521192073822021484375" lon="20.20645589567720890045166015625">
        <ele>1040</ele>
        <time>2026-06-20T12:32:25.000Z</time>
        <extensions>
          <ns3:TrackPointExtension>
            <ns3:atemp>26.0</ns3:atemp>
          </ns3:TrackPointExtension>
        </extensions>
      </trkpt>
      <trkpt lat="42.4509953521192073822021484375" lon="20.20645589567720890045166015625">
        <ele>1040</ele>
        <time>2026-06-20T12:32:26.000Z</time>
        <extensions>
          <ns3:TrackPointExtension>
            <ns3:atemp>26.0</ns3:atemp>
          </ns3:TrackPointExtension>
        </extensions>
      </trkpt>
      <trkpt lat="42.4509953521192073822021484375" lon="20.20645589567720890045166015625">
        <ele>1040</ele>
        <time>2026-06-20T12:32:27.000Z</time>
        <extensions>
          <ns3:TrackPointExtension>
            <ns3:atemp>26.0</ns3:atemp>
          </ns3:TrackPointExtension>
        </extensions>
      </trkpt>
      <trkpt lat="42.4509953521192073822021484375" lon="20.20645589567720890045166015625">
        <ele>1040</ele>
        <time>2026-06-20T12:32:28.000Z</time>
        <extensions>
          <ns3:TrackPointExtension>
            <ns3:atemp>26.0</ns3:atemp>
          </ns3:TrackPointExtension>
        </extensions>
      </trkpt>
      <trkpt lat="42.4509953521192073822021484375" lon="20.20645589567720890045166015625">
        <ele>1040</ele>
        <time>2026-06-20T12:32:29.000Z</time>
        <extensions>
          <ns3:TrackPointExtension>
            <ns3:atemp>26.0</ns3:atemp>
          </ns3:TrackPointExtension>
        </extensions>
      </trkpt>
      <trkpt lat="42.4509953521192073822021484375" lon="20.20645589567720890045166015625">
        <ele>1040</ele>
        <time>2026-06-20T12:32:30.000Z</time>
        <extensions>
          <ns3:TrackPointExtension>
            <ns3:atemp>26.0</ns3:atemp>
          </ns3:TrackPointExtension>
        </extensions>
      </trkpt>
      <trkpt lat="42.4509953521192073822021484375" lon="20.20645589567720890045166015625">
        <ele>1040</ele>
        <time>2026-06-20T12:32:31.000Z</time>
        <extensions>
          <ns3:TrackPointExtension>
            <ns3:atemp>26.0</ns3:atemp>
          </ns3:TrackPointExtension>
        </extensions>
      </trkpt>
      <trkpt lat="42.4509953521192073822021484375" lon="20.20645589567720890045166015625">
        <ele>1040</ele>
        <time>2026-06-20T12:32:32.000Z</time>
        <extensions>
          <ns3:TrackPointExtension>
            <ns3:atemp>26.0</ns3:atemp>
          </ns3:TrackPointExtension>
        </extensions>
      </trkpt>
      <trkpt lat="42.4509953521192073822021484375" lon="20.20645589567720890045166015625">
        <ele>1040</ele>
        <time>2026-06-20T12:32:33.000Z</time>
        <extensions>
          <ns3:TrackPointExtension>
            <ns3:atemp>26.0</ns3:atemp>
          </ns3:TrackPointExtension>
        </extensions>
      </trkpt>
      <trkpt lat="42.4509953521192073822021484375" lon="20.20645589567720890045166015625">
        <ele>1040</ele>
        <time>2026-06-20T12:32:34.000Z</time>
        <extensions>
          <ns3:TrackPointExtension>
            <ns3:atemp>26.0</ns3:atemp>
          </ns3:TrackPointExtension>
        </extensions>
      </trkpt>
      <trkpt lat="42.4509953521192073822021484375" lon="20.20645589567720890045166015625">
        <ele>1040</ele>
        <time>2026-06-20T12:32:35.000Z</time>
        <extensions>
          <ns3:TrackPointExtension>
            <ns3:atemp>26.0</ns3:atemp>
          </ns3:TrackPointExtension>
        </extensions>
      </trkpt>
      <trkpt lat="42.4509953521192073822021484375" lon="20.20645589567720890045166015625">
        <ele>1040</ele>
        <time>2026-06-20T12:32:36.000Z</time>
        <extensions>
          <ns3:TrackPointExtension>
            <ns3:atemp>26.0</ns3:atemp>
          </ns3:TrackPointExtension>
        </extensions>
      </trkpt>
      <trkpt lat="42.4509953521192073822021484375" lon="20.20645589567720890045166015625">
        <ele>1040</ele>
        <time>2026-06-20T12:32:37.000Z</time>
        <extensions>
          <ns3:TrackPointExtension>
            <ns3:atemp>26.0</ns3:atemp>
          </ns3:TrackPointExtension>
        </extensions>
      </trkpt>
      <trkpt lat="42.4509953521192073822021484375" lon="20.20645589567720890045166015625">
        <ele>1040</ele>
        <time>2026-06-20T12:32:38.000Z</time>
        <extensions>
          <ns3:TrackPointExtension>
            <ns3:atemp>26.0</ns3:atemp>
          </ns3:TrackPointExtension>
        </extensions>
      </trkpt>
      <trkpt lat="42.4509953521192073822021484375" lon="20.20645589567720890045166015625">
        <ele>1040</ele>
        <time>2026-06-20T12:32:39.000Z</time>
        <extensions>
          <ns3:TrackPointExtension>
            <ns3:atemp>26.0</ns3:atemp>
          </ns3:TrackPointExtension>
        </extensions>
      </trkpt>
      <trkpt lat="42.4509953521192073822021484375" lon="20.20645589567720890045166015625">
        <ele>1040</ele>
        <time>2026-06-20T12:32:40.000Z</time>
        <extensions>
          <ns3:TrackPointExtension>
            <ns3:atemp>26.0</ns3:atemp>
          </ns3:TrackPointExtension>
        </extensions>
      </trkpt>
      <trkpt lat="42.4509953521192073822021484375" lon="20.20645589567720890045166015625">
        <ele>1040</ele>
        <time>2026-06-20T12:32:41.000Z</time>
        <extensions>
          <ns3:TrackPointExtension>
            <ns3:atemp>26.0</ns3:atemp>
          </ns3:TrackPointExtension>
        </extensions>
      </trkpt>
      <trkpt lat="42.4509953521192073822021484375" lon="20.20645589567720890045166015625">
        <ele>1040</ele>
        <time>2026-06-20T12:32:42.000Z</time>
        <extensions>
          <ns3:TrackPointExtension>
            <ns3:atemp>26.0</ns3:atemp>
          </ns3:TrackPointExtension>
        </extensions>
      </trkpt>
      <trkpt lat="42.4509953521192073822021484375" lon="20.20645589567720890045166015625">
        <ele>1040</ele>
        <time>2026-06-20T12:32:43.000Z</time>
        <extensions>
          <ns3:TrackPointExtension>
            <ns3:atemp>26.0</ns3:atemp>
          </ns3:TrackPointExtension>
        </extensions>
      </trkpt>
      <trkpt lat="42.4509953521192073822021484375" lon="20.20645589567720890045166015625">
        <ele>1040</ele>
        <time>2026-06-20T12:32:44.000Z</time>
        <extensions>
          <ns3:TrackPointExtension>
            <ns3:atemp>26.0</ns3:atemp>
          </ns3:TrackPointExtension>
        </extensions>
      </trkpt>
      <trkpt lat="42.4509953521192073822021484375" lon="20.20645589567720890045166015625">
        <ele>1040</ele>
        <time>2026-06-20T12:32:45.000Z</time>
        <extensions>
          <ns3:TrackPointExtension>
            <ns3:atemp>26.0</ns3:atemp>
          </ns3:TrackPointExtension>
        </extensions>
      </trkpt>
      <trkpt lat="42.4509953521192073822021484375" lon="20.20645589567720890045166015625">
        <ele>1040</ele>
        <time>2026-06-20T12:32:46.000Z</time>
        <extensions>
          <ns3:TrackPointExtension>
            <ns3:atemp>26.0</ns3:atemp>
          </ns3:TrackPointExtension>
        </extensions>
      </trkpt>
      <trkpt lat="42.4509953521192073822021484375" lon="20.20645589567720890045166015625">
        <ele>1040</ele>
        <time>2026-06-20T12:32:47.000Z</time>
        <extensions>
          <ns3:TrackPointExtension>
            <ns3:atemp>26.0</ns3:atemp>
          </ns3:TrackPointExtension>
        </extensions>
      </trkpt>
      <trkpt lat="42.4509953521192073822021484375" lon="20.20645589567720890045166015625">
        <ele>1040</ele>
        <time>2026-06-20T12:32:48.000Z</time>
        <extensions>
          <ns3:TrackPointExtension>
            <ns3:atemp>26.0</ns3:atemp>
          </ns3:TrackPointExtension>
        </extensions>
      </trkpt>
      <trkpt lat="42.4509953521192073822021484375" lon="20.20645589567720890045166015625">
        <ele>1040</ele>
        <time>2026-06-20T12:32:49.000Z</time>
        <extensions>
          <ns3:TrackPointExtension>
            <ns3:atemp>26.0</ns3:atemp>
          </ns3:TrackPointExtension>
        </extensions>
      </trkpt>
      <trkpt lat="42.4509953521192073822021484375" lon="20.20645589567720890045166015625">
        <ele>1040</ele>
        <time>2026-06-20T12:32:50.000Z</time>
        <extensions>
          <ns3:TrackPointExtension>
            <ns3:atemp>26.0</ns3:atemp>
          </ns3:TrackPointExtension>
        </extensions>
      </trkpt>
      <trkpt lat="42.4509953521192073822021484375" lon="20.20645589567720890045166015625">
        <ele>1040</ele>
        <time>2026-06-20T12:32:51.000Z</time>
        <extensions>
          <ns3:TrackPointExtension>
            <ns3:atemp>26.0</ns3:atemp>
          </ns3:TrackPointExtension>
        </extensions>
      </trkpt>
      <trkpt lat="42.4509953521192073822021484375" lon="20.20645589567720890045166015625">
        <ele>1040</ele>
        <time>2026-06-20T12:32:52.000Z</time>
        <extensions>
          <ns3:TrackPointExtension>
            <ns3:atemp>26.0</ns3:atemp>
          </ns3:TrackPointExtension>
        </extensions>
      </trkpt>
      <trkpt lat="42.4509953521192073822021484375" lon="20.20645589567720890045166015625">
        <ele>1040</ele>
        <time>2026-06-20T12:32:53.000Z</time>
        <extensions>
          <ns3:TrackPointExtension>
            <ns3:atemp>26.0</ns3:atemp>
          </ns3:TrackPointExtension>
        </extensions>
      </trkpt>
      <trkpt lat="42.4509953521192073822021484375" lon="20.20645589567720890045166015625">
        <ele>1040</ele>
        <time>2026-06-20T12:32:54.000Z</time>
        <extensions>
          <ns3:TrackPointExtension>
            <ns3:atemp>26.0</ns3:atemp>
          </ns3:TrackPointExtension>
        </extensions>
      </trkpt>
      <trkpt lat="42.4509953521192073822021484375" lon="20.20645589567720890045166015625">
        <ele>1040</ele>
        <time>2026-06-20T12:32:55.000Z</time>
        <extensions>
          <ns3:TrackPointExtension>
            <ns3:atemp>26.0</ns3:atemp>
          </ns3:TrackPointExtension>
        </extensions>
      </trkpt>
      <trkpt lat="42.4509953521192073822021484375" lon="20.20645589567720890045166015625">
        <ele>1040</ele>
        <time>2026-06-20T12:32:56.000Z</time>
        <extensions>
          <ns3:TrackPointExtension>
            <ns3:atemp>26.0</ns3:atemp>
          </ns3:TrackPointExtension>
        </extensions>
      </trkpt>
      <trkpt lat="42.4509953521192073822021484375" lon="20.20645589567720890045166015625">
        <ele>1040</ele>
        <time>2026-06-20T12:32:57.000Z</time>
        <extensions>
          <ns3:TrackPointExtension>
            <ns3:atemp>26.0</ns3:atemp>
          </ns3:TrackPointExtension>
        </extensions>
      </trkpt>
      <trkpt lat="42.4509953521192073822021484375" lon="20.20645589567720890045166015625">
        <ele>1040</ele>
        <time>2026-06-20T12:32:58.000Z</time>
        <extensions>
          <ns3:TrackPointExtension>
            <ns3:atemp>26.0</ns3:atemp>
          </ns3:TrackPointExtension>
        </extensions>
      </trkpt>
      <trkpt lat="42.4509953521192073822021484375" lon="20.20645589567720890045166015625">
        <ele>1040</ele>
        <time>2026-06-20T12:32:59.000Z</time>
        <extensions>
          <ns3:TrackPointExtension>
            <ns3:atemp>26.0</ns3:atemp>
          </ns3:TrackPointExtension>
        </extensions>
      </trkpt>
      <trkpt lat="42.4509953521192073822021484375" lon="20.20645589567720890045166015625">
        <ele>1040</ele>
        <time>2026-06-20T12:33:00.000Z</time>
        <extensions>
          <ns3:TrackPointExtension>
            <ns3:atemp>26.0</ns3:atemp>
          </ns3:TrackPointExtension>
        </extensions>
      </trkpt>
      <trkpt lat="42.4509953521192073822021484375" lon="20.20645589567720890045166015625">
        <ele>1040</ele>
        <time>2026-06-20T12:33:01.000Z</time>
        <extensions>
          <ns3:TrackPointExtension>
            <ns3:atemp>26.0</ns3:atemp>
          </ns3:TrackPointExtension>
        </extensions>
      </trkpt>
      <trkpt lat="42.4509953521192073822021484375" lon="20.20645589567720890045166015625">
        <ele>1040</ele>
        <time>2026-06-20T12:33:02.000Z</time>
        <extensions>
          <ns3:TrackPointExtension>
            <ns3:atemp>26.0</ns3:atemp>
          </ns3:TrackPointExtension>
        </extensions>
      </trkpt>
      <trkpt lat="42.4509953521192073822021484375" lon="20.20645589567720890045166015625">
        <ele>1040</ele>
        <time>2026-06-20T12:33:03.000Z</time>
        <extensions>
          <ns3:TrackPointExtension>
            <ns3:atemp>26.0</ns3:atemp>
          </ns3:TrackPointExtension>
        </extensions>
      </trkpt>
      <trkpt lat="42.4509953521192073822021484375" lon="20.20645589567720890045166015625">
        <ele>1040</ele>
        <time>2026-06-20T12:33:04.000Z</time>
        <extensions>
          <ns3:TrackPointExtension>
            <ns3:atemp>26.0</ns3:atemp>
          </ns3:TrackPointExtension>
        </extensions>
      </trkpt>
      <trkpt lat="42.4509953521192073822021484375" lon="20.20645589567720890045166015625">
        <ele>1040</ele>
        <time>2026-06-20T12:33:05.000Z</time>
        <extensions>
          <ns3:TrackPointExtension>
            <ns3:atemp>26.0</ns3:atemp>
          </ns3:TrackPointExtension>
        </extensions>
      </trkpt>
      <trkpt lat="42.4509953521192073822021484375" lon="20.20645589567720890045166015625">
        <ele>1040</ele>
        <time>2026-06-20T12:33:06.000Z</time>
        <extensions>
          <ns3:TrackPointExtension>
            <ns3:atemp>26.0</ns3:atemp>
          </ns3:TrackPointExtension>
        </extensions>
      </trkpt>
      <trkpt lat="42.4509953521192073822021484375" lon="20.20645589567720890045166015625">
        <ele>1040</ele>
        <time>2026-06-20T12:33:07.000Z</time>
        <extensions>
          <ns3:TrackPointExtension>
            <ns3:atemp>26.0</ns3:atemp>
          </ns3:TrackPointExtension>
        </extensions>
      </trkpt>
      <trkpt lat="42.4509953521192073822021484375" lon="20.20645589567720890045166015625">
        <ele>1040</ele>
        <time>2026-06-20T12:33:08.000Z</time>
        <extensions>
          <ns3:TrackPointExtension>
            <ns3:atemp>26.0</ns3:atemp>
          </ns3:TrackPointExtension>
        </extensions>
      </trkpt>
      <trkpt lat="42.4509953521192073822021484375" lon="20.20645589567720890045166015625">
        <ele>1040</ele>
        <time>2026-06-20T12:33:09.000Z</time>
        <extensions>
          <ns3:TrackPointExtension>
            <ns3:atemp>26.0</ns3:atemp>
          </ns3:TrackPointExtension>
        </extensions>
      </trkpt>
      <trkpt lat="42.4509953521192073822021484375" lon="20.20645589567720890045166015625">
        <ele>1040</ele>
        <time>2026-06-20T12:33:10.000Z</time>
        <extensions>
          <ns3:TrackPointExtension>
            <ns3:atemp>26.0</ns3:atemp>
          </ns3:TrackPointExtension>
        </extensions>
      </trkpt>
      <trkpt lat="42.4509953521192073822021484375" lon="20.20645589567720890045166015625">
        <ele>1040</ele>
        <time>2026-06-20T12:33:11.000Z</time>
        <extensions>
          <ns3:TrackPointExtension>
            <ns3:atemp>26.0</ns3:atemp>
          </ns3:TrackPointExtension>
        </extensions>
      </trkpt>
      <trkpt lat="42.4509953521192073822021484375" lon="20.20645589567720890045166015625">
        <ele>1040</ele>
        <time>2026-06-20T12:33:12.000Z</time>
        <extensions>
          <ns3:TrackPointExtension>
            <ns3:atemp>26.0</ns3:atemp>
          </ns3:TrackPointExtension>
        </extensions>
      </trkpt>
      <trkpt lat="42.4509953521192073822021484375" lon="20.20645589567720890045166015625">
        <ele>1040</ele>
        <time>2026-06-20T12:33:13.000Z</time>
        <extensions>
          <ns3:TrackPointExtension>
            <ns3:atemp>26.0</ns3:atemp>
          </ns3:TrackPointExtension>
        </extensions>
      </trkpt>
      <trkpt lat="42.4509953521192073822021484375" lon="20.20645589567720890045166015625">
        <ele>1040</ele>
        <time>2026-06-20T12:33:14.000Z</time>
        <extensions>
          <ns3:TrackPointExtension>
            <ns3:atemp>26.0</ns3:atemp>
          </ns3:TrackPointExtension>
        </extensions>
      </trkpt>
      <trkpt lat="42.4509953521192073822021484375" lon="20.20645589567720890045166015625">
        <ele>1040</ele>
        <time>2026-06-20T12:33:15.000Z</time>
        <extensions>
          <ns3:TrackPointExtension>
            <ns3:atemp>26.0</ns3:atemp>
          </ns3:TrackPointExtension>
        </extensions>
      </trkpt>
      <trkpt lat="42.4509953521192073822021484375" lon="20.20645589567720890045166015625">
        <ele>1040</ele>
        <time>2026-06-20T12:33:16.000Z</time>
        <extensions>
          <ns3:TrackPointExtension>
            <ns3:atemp>26.0</ns3:atemp>
          </ns3:TrackPointExtension>
        </extensions>
      </trkpt>
      <trkpt lat="42.4509953521192073822021484375" lon="20.20645589567720890045166015625">
        <ele>1040</ele>
        <time>2026-06-20T12:33:17.000Z</time>
        <extensions>
          <ns3:TrackPointExtension>
            <ns3:atemp>26.0</ns3:atemp>
          </ns3:TrackPointExtension>
        </extensions>
      </trkpt>
      <trkpt lat="42.4509953521192073822021484375" lon="20.20645589567720890045166015625">
        <ele>1040</ele>
        <time>2026-06-20T12:33:18.000Z</time>
        <extensions>
          <ns3:TrackPointExtension>
            <ns3:atemp>26.0</ns3:atemp>
          </ns3:TrackPointExtension>
        </extensions>
      </trkpt>
      <trkpt lat="42.4509953521192073822021484375" lon="20.20645589567720890045166015625">
        <ele>1040</ele>
        <time>2026-06-20T12:33:19.000Z</time>
        <extensions>
          <ns3:TrackPointExtension>
            <ns3:atemp>26.0</ns3:atemp>
          </ns3:TrackPointExtension>
        </extensions>
      </trkpt>
      <trkpt lat="42.4509953521192073822021484375" lon="20.20645589567720890045166015625">
        <ele>1040</ele>
        <time>2026-06-20T12:33:20.000Z</time>
        <extensions>
          <ns3:TrackPointExtension>
            <ns3:atemp>26.0</ns3:atemp>
          </ns3:TrackPointExtension>
        </extensions>
      </trkpt>
      <trkpt lat="42.4509953521192073822021484375" lon="20.20645589567720890045166015625">
        <ele>1040</ele>
        <time>2026-06-20T12:33:21.000Z</time>
        <extensions>
          <ns3:TrackPointExtension>
            <ns3:atemp>26.0</ns3:atemp>
          </ns3:TrackPointExtension>
        </extensions>
      </trkpt>
      <trkpt lat="42.4509953521192073822021484375" lon="20.20645589567720890045166015625">
        <ele>1040</ele>
        <time>2026-06-20T12:33:22.000Z</time>
        <extensions>
          <ns3:TrackPointExtension>
            <ns3:atemp>26.0</ns3:atemp>
          </ns3:TrackPointExtension>
        </extensions>
      </trkpt>
      <trkpt lat="42.4509953521192073822021484375" lon="20.20645589567720890045166015625">
        <ele>1040</ele>
        <time>2026-06-20T12:33:23.000Z</time>
        <extensions>
          <ns3:TrackPointExtension>
            <ns3:atemp>26.0</ns3:atemp>
          </ns3:TrackPointExtension>
        </extensions>
      </trkpt>
      <trkpt lat="42.4509953521192073822021484375" lon="20.20645589567720890045166015625">
        <ele>1040</ele>
        <time>2026-06-20T12:33:24.000Z</time>
        <extensions>
          <ns3:TrackPointExtension>
            <ns3:atemp>26.0</ns3:atemp>
          </ns3:TrackPointExtension>
        </extensions>
      </trkpt>
      <trkpt lat="42.4509953521192073822021484375" lon="20.20645589567720890045166015625">
        <ele>1040</ele>
        <time>2026-06-20T12:33:25.000Z</time>
        <extensions>
          <ns3:TrackPointExtension>
            <ns3:atemp>26.0</ns3:atemp>
          </ns3:TrackPointExtension>
        </extensions>
      </trkpt>
      <trkpt lat="42.4509953521192073822021484375" lon="20.20645589567720890045166015625">
        <ele>1040</ele>
        <time>2026-06-20T12:33:26.000Z</time>
        <extensions>
          <ns3:TrackPointExtension>
            <ns3:atemp>26.0</ns3:atemp>
          </ns3:TrackPointExtension>
        </extensions>
      </trkpt>
      <trkpt lat="42.4509953521192073822021484375" lon="20.20645589567720890045166015625">
        <ele>1040</ele>
        <time>2026-06-20T12:33:27.000Z</time>
        <extensions>
          <ns3:TrackPointExtension>
            <ns3:atemp>26.0</ns3:atemp>
          </ns3:TrackPointExtension>
        </extensions>
      </trkpt>
      <trkpt lat="42.4509953521192073822021484375" lon="20.20645589567720890045166015625">
        <ele>1040</ele>
        <time>2026-06-20T12:33:28.000Z</time>
        <extensions>
          <ns3:TrackPointExtension>
            <ns3:atemp>26.0</ns3:atemp>
          </ns3:TrackPointExtension>
        </extensions>
      </trkpt>
      <trkpt lat="42.4509953521192073822021484375" lon="20.20645589567720890045166015625">
        <ele>1040</ele>
        <time>2026-06-20T12:33:29.000Z</time>
        <extensions>
          <ns3:TrackPointExtension>
            <ns3:atemp>26.0</ns3:atemp>
          </ns3:TrackPointExtension>
        </extensions>
      </trkpt>
      <trkpt lat="42.4509953521192073822021484375" lon="20.20645589567720890045166015625">
        <ele>1040</ele>
        <time>2026-06-20T12:33:30.000Z</time>
        <extensions>
          <ns3:TrackPointExtension>
            <ns3:atemp>26.0</ns3:atemp>
          </ns3:TrackPointExtension>
        </extensions>
      </trkpt>
      <trkpt lat="42.4509953521192073822021484375" lon="20.20645589567720890045166015625">
        <ele>1040</ele>
        <time>2026-06-20T12:33:31.000Z</time>
        <extensions>
          <ns3:TrackPointExtension>
            <ns3:atemp>26.0</ns3:atemp>
          </ns3:TrackPointExtension>
        </extensions>
      </trkpt>
      <trkpt lat="42.4509953521192073822021484375" lon="20.20645589567720890045166015625">
        <ele>1040</ele>
        <time>2026-06-20T12:33:32.000Z</time>
        <extensions>
          <ns3:TrackPointExtension>
            <ns3:atemp>26.0</ns3:atemp>
          </ns3:TrackPointExtension>
        </extensions>
      </trkpt>
      <trkpt lat="42.4509953521192073822021484375" lon="20.20645589567720890045166015625">
        <ele>1040</ele>
        <time>2026-06-20T12:33:33.000Z</time>
        <extensions>
          <ns3:TrackPointExtension>
            <ns3:atemp>26.0</ns3:atemp>
          </ns3:TrackPointExtension>
        </extensions>
      </trkpt>
      <trkpt lat="42.4509953521192073822021484375" lon="20.20645589567720890045166015625">
        <ele>1040</ele>
        <time>2026-06-20T12:33:34.000Z</time>
        <extensions>
          <ns3:TrackPointExtension>
            <ns3:atemp>26.0</ns3:atemp>
          </ns3:TrackPointExtension>
        </extensions>
      </trkpt>
      <trkpt lat="42.4509953521192073822021484375" lon="20.20645589567720890045166015625">
        <ele>1040</ele>
        <time>2026-06-20T12:33:35.000Z</time>
        <extensions>
          <ns3:TrackPointExtension>
            <ns3:atemp>26.0</ns3:atemp>
          </ns3:TrackPointExtension>
        </extensions>
      </trkpt>
      <trkpt lat="42.4509953521192073822021484375" lon="20.20645589567720890045166015625">
        <ele>1040</ele>
        <time>2026-06-20T12:33:36.000Z</time>
        <extensions>
          <ns3:TrackPointExtension>
            <ns3:atemp>26.0</ns3:atemp>
          </ns3:TrackPointExtension>
        </extensions>
      </trkpt>
      <trkpt lat="42.4509953521192073822021484375" lon="20.20645589567720890045166015625">
        <ele>1040</ele>
        <time>2026-06-20T12:33:37.000Z</time>
        <extensions>
          <ns3:TrackPointExtension>
            <ns3:atemp>26.0</ns3:atemp>
          </ns3:TrackPointExtension>
        </extensions>
      </trkpt>
      <trkpt lat="42.4509953521192073822021484375" lon="20.20645589567720890045166015625">
        <ele>1040</ele>
        <time>2026-06-20T12:33:38.000Z</time>
        <extensions>
          <ns3:TrackPointExtension>
            <ns3:atemp>26.0</ns3:atemp>
          </ns3:TrackPointExtension>
        </extensions>
      </trkpt>
      <trkpt lat="42.4509953521192073822021484375" lon="20.20645589567720890045166015625">
        <ele>1040</ele>
        <time>2026-06-20T12:33:39.000Z</time>
        <extensions>
          <ns3:TrackPointExtension>
            <ns3:atemp>26.0</ns3:atemp>
          </ns3:TrackPointExtension>
        </extensions>
      </trkpt>
      <trkpt lat="42.4509953521192073822021484375" lon="20.20645589567720890045166015625">
        <ele>1040</ele>
        <time>2026-06-20T12:33:40.000Z</time>
        <extensions>
          <ns3:TrackPointExtension>
            <ns3:atemp>26.0</ns3:atemp>
          </ns3:TrackPointExtension>
        </extensions>
      </trkpt>
      <trkpt lat="42.4509953521192073822021484375" lon="20.20645589567720890045166015625">
        <ele>1040</ele>
        <time>2026-06-20T12:33:41.000Z</time>
        <extensions>
          <ns3:TrackPointExtension>
            <ns3:atemp>26.0</ns3:atemp>
          </ns3:TrackPointExtension>
        </extensions>
      </trkpt>
      <trkpt lat="42.4509953521192073822021484375" lon="20.20645589567720890045166015625">
        <ele>1040</ele>
        <time>2026-06-20T12:33:42.000Z</time>
        <extensions>
          <ns3:TrackPointExtension>
            <ns3:atemp>26.0</ns3:atemp>
          </ns3:TrackPointExtension>
        </extensions>
      </trkpt>
      <trkpt lat="42.4509953521192073822021484375" lon="20.20645589567720890045166015625">
        <ele>1040</ele>
        <time>2026-06-20T12:33:43.000Z</time>
        <extensions>
          <ns3:TrackPointExtension>
            <ns3:atemp>26.0</ns3:atemp>
          </ns3:TrackPointExtension>
        </extensions>
      </trkpt>
      <trkpt lat="42.4509953521192073822021484375" lon="20.20645589567720890045166015625">
        <ele>1040</ele>
        <time>2026-06-20T12:33:44.000Z</time>
        <extensions>
          <ns3:TrackPointExtension>
            <ns3:atemp>26.0</ns3:atemp>
          </ns3:TrackPointExtension>
        </extensions>
      </trkpt>
      <trkpt lat="42.4509953521192073822021484375" lon="20.20645589567720890045166015625">
        <ele>1040</ele>
        <time>2026-06-20T12:33:45.000Z</time>
        <extensions>
          <ns3:TrackPointExtension>
            <ns3:atemp>26.0</ns3:atemp>
          </ns3:TrackPointExtension>
        </extensions>
      </trkpt>
      <trkpt lat="42.4509953521192073822021484375" lon="20.20645589567720890045166015625">
        <ele>1040</ele>
        <time>2026-06-20T12:33:46.000Z</time>
        <extensions>
          <ns3:TrackPointExtension>
            <ns3:atemp>26.0</ns3:atemp>
          </ns3:TrackPointExtension>
        </extensions>
      </trkpt>
      <trkpt lat="42.4509953521192073822021484375" lon="20.20645589567720890045166015625">
        <ele>1040</ele>
        <time>2026-06-20T12:33:47.000Z</time>
        <extensions>
          <ns3:TrackPointExtension>
            <ns3:atemp>26.0</ns3:atemp>
          </ns3:TrackPointExtension>
        </extensions>
      </trkpt>
      <trkpt lat="42.4509953521192073822021484375" lon="20.20645589567720890045166015625">
        <ele>1040</ele>
        <time>2026-06-20T12:33:48.000Z</time>
        <extensions>
          <ns3:TrackPointExtension>
            <ns3:atemp>26.0</ns3:atemp>
          </ns3:TrackPointExtension>
        </extensions>
      </trkpt>
      <trkpt lat="42.4509953521192073822021484375" lon="20.20645589567720890045166015625">
        <ele>1040</ele>
        <time>2026-06-20T12:33:49.000Z</time>
        <extensions>
          <ns3:TrackPointExtension>
            <ns3:atemp>26.0</ns3:atemp>
          </ns3:TrackPointExtension>
        </extensions>
      </trkpt>
      <trkpt lat="42.4509953521192073822021484375" lon="20.20645589567720890045166015625">
        <ele>1040</ele>
        <time>2026-06-20T12:33:50.000Z</time>
        <extensions>
          <ns3:TrackPointExtension>
            <ns3:atemp>26.0</ns3:atemp>
          </ns3:TrackPointExtension>
        </extensions>
      </trkpt>
      <trkpt lat="42.4509953521192073822021484375" lon="20.20645589567720890045166015625">
        <ele>1040</ele>
        <time>2026-06-20T12:33:51.000Z</time>
        <extensions>
          <ns3:TrackPointExtension>
            <ns3:atemp>26.0</ns3:atemp>
          </ns3:TrackPointExtension>
        </extensions>
      </trkpt>
      <trkpt lat="42.4509953521192073822021484375" lon="20.20645589567720890045166015625">
        <ele>1040</ele>
        <time>2026-06-20T12:33:52.000Z</time>
        <extensions>
          <ns3:TrackPointExtension>
            <ns3:atemp>26.0</ns3:atemp>
          </ns3:TrackPointExtension>
        </extensions>
      </trkpt>
      <trkpt lat="42.4509953521192073822021484375" lon="20.20645589567720890045166015625">
        <ele>1040</ele>
        <time>2026-06-20T12:33:53.000Z</time>
        <extensions>
          <ns3:TrackPointExtension>
            <ns3:atemp>26.0</ns3:atemp>
          </ns3:TrackPointExtension>
        </extensions>
      </trkpt>
      <trkpt lat="42.4509953521192073822021484375" lon="20.20645589567720890045166015625">
        <ele>1040</ele>
        <time>2026-06-20T12:33:54.000Z</time>
        <extensions>
          <ns3:TrackPointExtension>
            <ns3:atemp>26.0</ns3:atemp>
          </ns3:TrackPointExtension>
        </extensions>
      </trkpt>
      <trkpt lat="42.4509953521192073822021484375" lon="20.20645589567720890045166015625">
        <ele>1040</ele>
        <time>2026-06-20T12:33:55.000Z</time>
        <extensions>
          <ns3:TrackPointExtension>
            <ns3:atemp>26.0</ns3:atemp>
          </ns3:TrackPointExtension>
        </extensions>
      </trkpt>
      <trkpt lat="42.4509953521192073822021484375" lon="20.20645589567720890045166015625">
        <ele>1040</ele>
        <time>2026-06-20T12:33:56.000Z</time>
        <extensions>
          <ns3:TrackPointExtension>
            <ns3:atemp>26.0</ns3:atemp>
          </ns3:TrackPointExtension>
        </extensions>
      </trkpt>
      <trkpt lat="42.4509953521192073822021484375" lon="20.20645589567720890045166015625">
        <ele>1040</ele>
        <time>2026-06-20T12:33:57.000Z</time>
        <extensions>
          <ns3:TrackPointExtension>
            <ns3:atemp>26.0</ns3:atemp>
          </ns3:TrackPointExtension>
        </extensions>
      </trkpt>
      <trkpt lat="42.4509953521192073822021484375" lon="20.20645589567720890045166015625">
        <ele>1040</ele>
        <time>2026-06-20T12:33:58.000Z</time>
        <extensions>
          <ns3:TrackPointExtension>
            <ns3:atemp>26.0</ns3:atemp>
          </ns3:TrackPointExtension>
        </extensions>
      </trkpt>
      <trkpt lat="42.4509953521192073822021484375" lon="20.20645589567720890045166015625">
        <ele>1040</ele>
        <time>2026-06-20T12:33:59.000Z</time>
        <extensions>
          <ns3:TrackPointExtension>
            <ns3:atemp>26.0</ns3:atemp>
          </ns3:TrackPointExtension>
        </extensions>
      </trkpt>
      <trkpt lat="42.4509953521192073822021484375" lon="20.20645589567720890045166015625">
        <ele>1040</ele>
        <time>2026-06-20T12:34:00.000Z</time>
        <extensions>
          <ns3:TrackPointExtension>
            <ns3:atemp>26.0</ns3:atemp>
          </ns3:TrackPointExtension>
        </extensions>
      </trkpt>
      <trkpt lat="42.4509953521192073822021484375" lon="20.20645589567720890045166015625">
        <ele>1040</ele>
        <time>2026-06-20T12:34:01.000Z</time>
        <extensions>
          <ns3:TrackPointExtension>
            <ns3:atemp>26.0</ns3:atemp>
          </ns3:TrackPointExtension>
        </extensions>
      </trkpt>
      <trkpt lat="42.4509953521192073822021484375" lon="20.20645589567720890045166015625">
        <ele>1040</ele>
        <time>2026-06-20T12:34:02.000Z</time>
        <extensions>
          <ns3:TrackPointExtension>
            <ns3:atemp>26.0</ns3:atemp>
          </ns3:TrackPointExtension>
        </extensions>
      </trkpt>
      <trkpt lat="42.4509953521192073822021484375" lon="20.20645589567720890045166015625">
        <ele>1040</ele>
        <time>2026-06-20T12:34:03.000Z</time>
        <extensions>
          <ns3:TrackPointExtension>
            <ns3:atemp>26.0</ns3:atemp>
          </ns3:TrackPointExtension>
        </extensions>
      </trkpt>
      <trkpt lat="42.4509953521192073822021484375" lon="20.20645589567720890045166015625">
        <ele>1040</ele>
        <time>2026-06-20T12:34:04.000Z</time>
        <extensions>
          <ns3:TrackPointExtension>
            <ns3:atemp>26.0</ns3:atemp>
          </ns3:TrackPointExtension>
        </extensions>
      </trkpt>
      <trkpt lat="42.4509953521192073822021484375" lon="20.20645589567720890045166015625">
        <ele>1040</ele>
        <time>2026-06-20T12:34:05.000Z</time>
        <extensions>
          <ns3:TrackPointExtension>
            <ns3:atemp>26.0</ns3:atemp>
          </ns3:TrackPointExtension>
        </extensions>
      </trkpt>
      <trkpt lat="42.4509953521192073822021484375" lon="20.20645589567720890045166015625">
        <ele>1040</ele>
        <time>2026-06-20T12:34:06.000Z</time>
        <extensions>
          <ns3:TrackPointExtension>
            <ns3:atemp>26.0</ns3:atemp>
          </ns3:TrackPointExtension>
        </extensions>
      </trkpt>
      <trkpt lat="42.4509953521192073822021484375" lon="20.20645589567720890045166015625">
        <ele>1040</ele>
        <time>2026-06-20T12:34:07.000Z</time>
        <extensions>
          <ns3:TrackPointExtension>
            <ns3:atemp>26.0</ns3:atemp>
          </ns3:TrackPointExtension>
        </extensions>
      </trkpt>
      <trkpt lat="42.4509953521192073822021484375" lon="20.20645589567720890045166015625">
        <ele>1040</ele>
        <time>2026-06-20T12:34:08.000Z</time>
        <extensions>
          <ns3:TrackPointExtension>
            <ns3:atemp>26.0</ns3:atemp>
          </ns3:TrackPointExtension>
        </extensions>
      </trkpt>
      <trkpt lat="42.4509953521192073822021484375" lon="20.20645589567720890045166015625">
        <ele>1040</ele>
        <time>2026-06-20T12:34:09.000Z</time>
        <extensions>
          <ns3:TrackPointExtension>
            <ns3:atemp>26.0</ns3:atemp>
          </ns3:TrackPointExtension>
        </extensions>
      </trkpt>
      <trkpt lat="42.4509953521192073822021484375" lon="20.20645589567720890045166015625">
        <ele>1040</ele>
        <time>2026-06-20T12:34:10.000Z</time>
        <extensions>
          <ns3:TrackPointExtension>
            <ns3:atemp>26.0</ns3:atemp>
          </ns3:TrackPointExtension>
        </extensions>
      </trkpt>
      <trkpt lat="42.4509953521192073822021484375" lon="20.20645589567720890045166015625">
        <ele>1040</ele>
        <time>2026-06-20T12:34:11.000Z</time>
        <extensions>
          <ns3:TrackPointExtension>
            <ns3:atemp>26.0</ns3:atemp>
          </ns3:TrackPointExtension>
        </extensions>
      </trkpt>
      <trkpt lat="42.4509953521192073822021484375" lon="20.20645589567720890045166015625">
        <ele>1040</ele>
        <time>2026-06-20T12:34:12.000Z</time>
        <extensions>
          <ns3:TrackPointExtension>
            <ns3:atemp>26.0</ns3:atemp>
          </ns3:TrackPointExtension>
        </extensions>
      </trkpt>
      <trkpt lat="42.4509953521192073822021484375" lon="20.20645589567720890045166015625">
        <ele>1040</ele>
        <time>2026-06-20T12:34:13.000Z</time>
        <extensions>
          <ns3:TrackPointExtension>
            <ns3:atemp>26.0</ns3:atemp>
          </ns3:TrackPointExtension>
        </extensions>
      </trkpt>
      <trkpt lat="42.4509953521192073822021484375" lon="20.20645589567720890045166015625">
        <ele>1040</ele>
        <time>2026-06-20T12:34:14.000Z</time>
        <extensions>
          <ns3:TrackPointExtension>
            <ns3:atemp>27.0</ns3:atemp>
          </ns3:TrackPointExtension>
        </extensions>
      </trkpt>
      <trkpt lat="42.4509953521192073822021484375" lon="20.20645589567720890045166015625">
        <ele>1040</ele>
        <time>2026-06-20T12:34:15.000Z</time>
        <extensions>
          <ns3:TrackPointExtension>
            <ns3:atemp>27.0</ns3:atemp>
          </ns3:TrackPointExtension>
        </extensions>
      </trkpt>
      <trkpt lat="42.4509953521192073822021484375" lon="20.20645589567720890045166015625">
        <ele>1040</ele>
        <time>2026-06-20T12:34:16.000Z</time>
        <extensions>
          <ns3:TrackPointExtension>
            <ns3:atemp>27.0</ns3:atemp>
          </ns3:TrackPointExtension>
        </extensions>
      </trkpt>
      <trkpt lat="42.4509953521192073822021484375" lon="20.20645589567720890045166015625">
        <ele>1040</ele>
        <time>2026-06-20T12:34:17.000Z</time>
        <extensions>
          <ns3:TrackPointExtension>
            <ns3:atemp>27.0</ns3:atemp>
          </ns3:TrackPointExtension>
        </extensions>
      </trkpt>
      <trkpt lat="42.4509953521192073822021484375" lon="20.20645589567720890045166015625">
        <ele>1040</ele>
        <time>2026-06-20T12:34:18.000Z</time>
        <extensions>
          <ns3:TrackPointExtension>
            <ns3:atemp>27.0</ns3:atemp>
          </ns3:TrackPointExtension>
        </extensions>
      </trkpt>
      <trkpt lat="42.4509953521192073822021484375" lon="20.20645589567720890045166015625">
        <ele>1040</ele>
        <time>2026-06-20T12:34:19.000Z</time>
        <extensions>
          <ns3:TrackPointExtension>
            <ns3:atemp>27.0</ns3:atemp>
          </ns3:TrackPointExtension>
        </extensions>
      </trkpt>
      <trkpt lat="42.4509953521192073822021484375" lon="20.20645589567720890045166015625">
        <ele>1040</ele>
        <time>2026-06-20T12:34:20.000Z</time>
        <extensions>
          <ns3:TrackPointExtension>
            <ns3:atemp>27.0</ns3:atemp>
          </ns3:TrackPointExtension>
        </extensions>
      </trkpt>
      <trkpt lat="42.4509953521192073822021484375" lon="20.20645589567720890045166015625">
        <ele>1040</ele>
        <time>2026-06-20T12:34:21.000Z</time>
        <extensions>
          <ns3:TrackPointExtension>
            <ns3:atemp>27.0</ns3:atemp>
          </ns3:TrackPointExtension>
        </extensions>
      </trkpt>
      <trkpt lat="42.4509953521192073822021484375" lon="20.20645589567720890045166015625">
        <ele>1040</ele>
        <time>2026-06-20T12:34:22.000Z</time>
        <extensions>
          <ns3:TrackPointExtension>
            <ns3:atemp>27.0</ns3:atemp>
          </ns3:TrackPointExtension>
        </extensions>
      </trkpt>
      <trkpt lat="42.4509953521192073822021484375" lon="20.20645589567720890045166015625">
        <ele>1040</ele>
        <time>2026-06-20T12:34:23.000Z</time>
        <extensions>
          <ns3:TrackPointExtension>
            <ns3:atemp>27.0</ns3:atemp>
          </ns3:TrackPointExtension>
        </extensions>
      </trkpt>
      <trkpt lat="42.4509953521192073822021484375" lon="20.20645589567720890045166015625">
        <ele>1040</ele>
        <time>2026-06-20T12:34:24.000Z</time>
        <extensions>
          <ns3:TrackPointExtension>
            <ns3:atemp>27.0</ns3:atemp>
          </ns3:TrackPointExtension>
        </extensions>
      </trkpt>
      <trkpt lat="42.4509953521192073822021484375" lon="20.20645589567720890045166015625">
        <ele>1040</ele>
        <time>2026-06-20T12:34:25.000Z</time>
        <extensions>
          <ns3:TrackPointExtension>
            <ns3:atemp>27.0</ns3:atemp>
          </ns3:TrackPointExtension>
        </extensions>
      </trkpt>
      <trkpt lat="42.4509953521192073822021484375" lon="20.20645589567720890045166015625">
        <ele>1040</ele>
        <time>2026-06-20T12:34:26.000Z</time>
        <extensions>
          <ns3:TrackPointExtension>
            <ns3:atemp>27.0</ns3:atemp>
          </ns3:TrackPointExtension>
        </extensions>
      </trkpt>
      <trkpt lat="42.4509953521192073822021484375" lon="20.20645589567720890045166015625">
        <ele>1040</ele>
        <time>2026-06-20T12:34:27.000Z</time>
        <extensions>
          <ns3:TrackPointExtension>
            <ns3:atemp>27.0</ns3:atemp>
          </ns3:TrackPointExtension>
        </extensions>
      </trkpt>
      <trkpt lat="42.4509953521192073822021484375" lon="20.20645589567720890045166015625">
        <ele>1040</ele>
        <time>2026-06-20T12:34:28.000Z</time>
        <extensions>
          <ns3:TrackPointExtension>
            <ns3:atemp>27.0</ns3:atemp>
          </ns3:TrackPointExtension>
        </extensions>
      </trkpt>
      <trkpt lat="42.4509953521192073822021484375" lon="20.20645589567720890045166015625">
        <ele>1040</ele>
        <time>2026-06-20T12:34:29.000Z</time>
        <extensions>
          <ns3:TrackPointExtension>
            <ns3:atemp>27.0</ns3:atemp>
          </ns3:TrackPointExtension>
        </extensions>
      </trkpt>
      <trkpt lat="42.4509953521192073822021484375" lon="20.20645589567720890045166015625">
        <ele>1040</ele>
        <time>2026-06-20T12:34:30.000Z</time>
        <extensions>
          <ns3:TrackPointExtension>
            <ns3:atemp>27.0</ns3:atemp>
          </ns3:TrackPointExtension>
        </extensions>
      </trkpt>
      <trkpt lat="42.4509953521192073822021484375" lon="20.20645589567720890045166015625">
        <ele>1040</ele>
        <time>2026-06-20T12:34:31.000Z</time>
        <extensions>
          <ns3:TrackPointExtension>
            <ns3:atemp>27.0</ns3:atemp>
          </ns3:TrackPointExtension>
        </extensions>
      </trkpt>
      <trkpt lat="42.4509953521192073822021484375" lon="20.20645589567720890045166015625">
        <ele>1040</ele>
        <time>2026-06-20T12:34:32.000Z</time>
        <extensions>
          <ns3:TrackPointExtension>
            <ns3:atemp>27.0</ns3:atemp>
          </ns3:TrackPointExtension>
        </extensions>
      </trkpt>
      <trkpt lat="42.4509953521192073822021484375" lon="20.20645589567720890045166015625">
        <ele>1040</ele>
        <time>2026-06-20T12:34:33.000Z</time>
        <extensions>
          <ns3:TrackPointExtension>
            <ns3:atemp>27.0</ns3:atemp>
          </ns3:TrackPointExtension>
        </extensions>
      </trkpt>
      <trkpt lat="42.4509953521192073822021484375" lon="20.20645589567720890045166015625">
        <ele>1040</ele>
        <time>2026-06-20T12:34:34.000Z</time>
        <extensions>
          <ns3:TrackPointExtension>
            <ns3:atemp>27.0</ns3:atemp>
          </ns3:TrackPointExtension>
        </extensions>
      </trkpt>
      <trkpt lat="42.4509953521192073822021484375" lon="20.20645589567720890045166015625">
        <ele>1040</ele>
        <time>2026-06-20T12:34:35.000Z</time>
        <extensions>
          <ns3:TrackPointExtension>
            <ns3:atemp>27.0</ns3:atemp>
          </ns3:TrackPointExtension>
        </extensions>
      </trkpt>
      <trkpt lat="42.4509953521192073822021484375" lon="20.20645589567720890045166015625">
        <ele>1040</ele>
        <time>2026-06-20T12:34:36.000Z</time>
        <extensions>
          <ns3:TrackPointExtension>
            <ns3:atemp>27.0</ns3:atemp>
          </ns3:TrackPointExtension>
        </extensions>
      </trkpt>
      <trkpt lat="42.4509953521192073822021484375" lon="20.20645589567720890045166015625">
        <ele>1040</ele>
        <time>2026-06-20T12:34:37.000Z</time>
        <extensions>
          <ns3:TrackPointExtension>
            <ns3:atemp>27.0</ns3:atemp>
          </ns3:TrackPointExtension>
        </extensions>
      </trkpt>
      <trkpt lat="42.4509953521192073822021484375" lon="20.20645589567720890045166015625">
        <ele>1040</ele>
        <time>2026-06-20T12:34:38.000Z</time>
        <extensions>
          <ns3:TrackPointExtension>
            <ns3:atemp>27.0</ns3:atemp>
          </ns3:TrackPointExtension>
        </extensions>
      </trkpt>
      <trkpt lat="42.4509953521192073822021484375" lon="20.20645589567720890045166015625">
        <ele>1040</ele>
        <time>2026-06-20T12:34:39.000Z</time>
        <extensions>
          <ns3:TrackPointExtension>
            <ns3:atemp>27.0</ns3:atemp>
          </ns3:TrackPointExtension>
        </extensions>
      </trkpt>
      <trkpt lat="42.4509953521192073822021484375" lon="20.20645589567720890045166015625">
        <ele>1040</ele>
        <time>2026-06-20T12:34:40.000Z</time>
        <extensions>
          <ns3:TrackPointExtension>
            <ns3:atemp>27.0</ns3:atemp>
          </ns3:TrackPointExtension>
        </extensions>
      </trkpt>
      <trkpt lat="42.4509953521192073822021484375" lon="20.20645589567720890045166015625">
        <ele>1040</ele>
        <time>2026-06-20T12:34:41.000Z</time>
        <extensions>
          <ns3:TrackPointExtension>
            <ns3:atemp>27.0</ns3:atemp>
          </ns3:TrackPointExtension>
        </extensions>
      </trkpt>
      <trkpt lat="42.4509953521192073822021484375" lon="20.20645589567720890045166015625">
        <ele>1040</ele>
        <time>2026-06-20T12:34:42.000Z</time>
        <extensions>
          <ns3:TrackPointExtension>
            <ns3:atemp>27.0</ns3:atemp>
          </ns3:TrackPointExtension>
        </extensions>
      </trkpt>
      <trkpt lat="42.4509953521192073822021484375" lon="20.20645589567720890045166015625">
        <ele>1040</ele>
        <time>2026-06-20T12:34:43.000Z</time>
        <extensions>
          <ns3:TrackPointExtension>
            <ns3:atemp>27.0</ns3:atemp>
          </ns3:TrackPointExtension>
        </extensions>
      </trkpt>
      <trkpt lat="42.4509953521192073822021484375" lon="20.20645589567720890045166015625">
        <ele>1040</ele>
        <time>2026-06-20T12:34:44.000Z</time>
        <extensions>
          <ns3:TrackPointExtension>
            <ns3:atemp>27.0</ns3:atemp>
          </ns3:TrackPointExtension>
        </extensions>
      </trkpt>
      <trkpt lat="42.4509953521192073822021484375" lon="20.20645589567720890045166015625">
        <ele>1040</ele>
        <time>2026-06-20T12:34:45.000Z</time>
        <extensions>
          <ns3:TrackPointExtension>
            <ns3:atemp>27.0</ns3:atemp>
          </ns3:TrackPointExtension>
        </extensions>
      </trkpt>
      <trkpt lat="42.4509953521192073822021484375" lon="20.20645589567720890045166015625">
        <ele>1040</ele>
        <time>2026-06-20T12:34:46.000Z</time>
        <extensions>
          <ns3:TrackPointExtension>
            <ns3:atemp>27.0</ns3:atemp>
          </ns3:TrackPointExtension>
        </extensions>
      </trkpt>
      <trkpt lat="42.4509953521192073822021484375" lon="20.20645589567720890045166015625">
        <ele>1040</ele>
        <time>2026-06-20T12:34:47.000Z</time>
        <extensions>
          <ns3:TrackPointExtension>
            <ns3:atemp>27.0</ns3:atemp>
          </ns3:TrackPointExtension>
        </extensions>
      </trkpt>
      <trkpt lat="42.4509953521192073822021484375" lon="20.20645589567720890045166015625">
        <ele>1040</ele>
        <time>2026-06-20T12:34:48.000Z</time>
        <extensions>
          <ns3:TrackPointExtension>
            <ns3:atemp>27.0</ns3:atemp>
          </ns3:TrackPointExtension>
        </extensions>
      </trkpt>
      <trkpt lat="42.4509953521192073822021484375" lon="20.20645589567720890045166015625">
        <ele>1040</ele>
        <time>2026-06-20T12:34:49.000Z</time>
        <extensions>
          <ns3:TrackPointExtension>
            <ns3:atemp>27.0</ns3:atemp>
          </ns3:TrackPointExtension>
        </extensions>
      </trkpt>
      <trkpt lat="42.4509953521192073822021484375" lon="20.20645589567720890045166015625">
        <ele>1040</ele>
        <time>2026-06-20T12:34:50.000Z</time>
        <extensions>
          <ns3:TrackPointExtension>
            <ns3:atemp>27.0</ns3:atemp>
          </ns3:TrackPointExtension>
        </extensions>
      </trkpt>
      <trkpt lat="42.4509953521192073822021484375" lon="20.20645589567720890045166015625">
        <ele>1040</ele>
        <time>2026-06-20T12:34:51.000Z</time>
        <extensions>
          <ns3:TrackPointExtension>
            <ns3:atemp>27.0</ns3:atemp>
          </ns3:TrackPointExtension>
        </extensions>
      </trkpt>
      <trkpt lat="42.4509953521192073822021484375" lon="20.20645589567720890045166015625">
        <ele>1040</ele>
        <time>2026-06-20T12:34:52.000Z</time>
        <extensions>
          <ns3:TrackPointExtension>
            <ns3:atemp>27.0</ns3:atemp>
          </ns3:TrackPointExtension>
        </extensions>
      </trkpt>
      <trkpt lat="42.4509953521192073822021484375" lon="20.20645589567720890045166015625">
        <ele>1040</ele>
        <time>2026-06-20T12:34:53.000Z</time>
        <extensions>
          <ns3:TrackPointExtension>
            <ns3:atemp>27.0</ns3:atemp>
          </ns3:TrackPointExtension>
        </extensions>
      </trkpt>
      <trkpt lat="42.4509953521192073822021484375" lon="20.20645589567720890045166015625">
        <ele>1040</ele>
        <time>2026-06-20T12:34:54.000Z</time>
        <extensions>
          <ns3:TrackPointExtension>
            <ns3:atemp>27.0</ns3:atemp>
          </ns3:TrackPointExtension>
        </extensions>
      </trkpt>
      <trkpt lat="42.4509953521192073822021484375" lon="20.20645589567720890045166015625">
        <ele>1040</ele>
        <time>2026-06-20T12:34:55.000Z</time>
        <extensions>
          <ns3:TrackPointExtension>
            <ns3:atemp>27.0</ns3:atemp>
          </ns3:TrackPointExtension>
        </extensions>
      </trkpt>
      <trkpt lat="42.4509953521192073822021484375" lon="20.20645589567720890045166015625">
        <ele>1040</ele>
        <time>2026-06-20T12:34:56.000Z</time>
        <extensions>
          <ns3:TrackPointExtension>
            <ns3:atemp>27.0</ns3:atemp>
          </ns3:TrackPointExtension>
        </extensions>
      </trkpt>
      <trkpt lat="42.4509953521192073822021484375" lon="20.20645589567720890045166015625">
        <ele>1040</ele>
        <time>2026-06-20T12:34:57.000Z</time>
        <extensions>
          <ns3:TrackPointExtension>
            <ns3:atemp>27.0</ns3:atemp>
          </ns3:TrackPointExtension>
        </extensions>
      </trkpt>
      <trkpt lat="42.4509953521192073822021484375" lon="20.20645589567720890045166015625">
        <ele>1040</ele>
        <time>2026-06-20T12:34:58.000Z</time>
        <extensions>
          <ns3:TrackPointExtension>
            <ns3:atemp>27.0</ns3:atemp>
          </ns3:TrackPointExtension>
        </extensions>
      </trkpt>
      <trkpt lat="42.4509953521192073822021484375" lon="20.20645589567720890045166015625">
        <ele>1040</ele>
        <time>2026-06-20T12:34:59.000Z</time>
        <extensions>
          <ns3:TrackPointExtension>
            <ns3:atemp>27.0</ns3:atemp>
          </ns3:TrackPointExtension>
        </extensions>
      </trkpt>
      <trkpt lat="42.4509953521192073822021484375" lon="20.20645589567720890045166015625">
        <ele>1040</ele>
        <time>2026-06-20T12:35:00.000Z</time>
        <extensions>
          <ns3:TrackPointExtension>
            <ns3:atemp>27.0</ns3:atemp>
          </ns3:TrackPointExtension>
        </extensions>
      </trkpt>
      <trkpt lat="42.4509953521192073822021484375" lon="20.20645589567720890045166015625">
        <ele>1040</ele>
        <time>2026-06-20T12:35:01.000Z</time>
        <extensions>
          <ns3:TrackPointExtension>
            <ns3:atemp>27.0</ns3:atemp>
          </ns3:TrackPointExtension>
        </extensions>
      </trkpt>
      <trkpt lat="42.4509953521192073822021484375" lon="20.20645589567720890045166015625">
        <ele>1040</ele>
        <time>2026-06-20T12:35:02.000Z</time>
        <extensions>
          <ns3:TrackPointExtension>
            <ns3:atemp>27.0</ns3:atemp>
          </ns3:TrackPointExtension>
        </extensions>
      </trkpt>
      <trkpt lat="42.4509953521192073822021484375" lon="20.20645589567720890045166015625">
        <ele>1040</ele>
        <time>2026-06-20T12:35:03.000Z</time>
        <extensions>
          <ns3:TrackPointExtension>
            <ns3:atemp>27.0</ns3:atemp>
          </ns3:TrackPointExtension>
        </extensions>
      </trkpt>
      <trkpt lat="42.4509953521192073822021484375" lon="20.20645589567720890045166015625">
        <ele>1040</ele>
        <time>2026-06-20T12:35:04.000Z</time>
        <extensions>
          <ns3:TrackPointExtension>
            <ns3:atemp>27.0</ns3:atemp>
          </ns3:TrackPointExtension>
        </extensions>
      </trkpt>
      <trkpt lat="42.4509953521192073822021484375" lon="20.20645589567720890045166015625">
        <ele>1040</ele>
        <time>2026-06-20T12:35:05.000Z</time>
        <extensions>
          <ns3:TrackPointExtension>
            <ns3:atemp>27.0</ns3:atemp>
          </ns3:TrackPointExtension>
        </extensions>
      </trkpt>
      <trkpt lat="42.4509953521192073822021484375" lon="20.20645589567720890045166015625">
        <ele>1040</ele>
        <time>2026-06-20T12:35:06.000Z</time>
        <extensions>
          <ns3:TrackPointExtension>
            <ns3:atemp>27.0</ns3:atemp>
          </ns3:TrackPointExtension>
        </extensions>
      </trkpt>
      <trkpt lat="42.4509953521192073822021484375" lon="20.20645589567720890045166015625">
        <ele>1040</ele>
        <time>2026-06-20T12:35:07.000Z</time>
        <extensions>
          <ns3:TrackPointExtension>
            <ns3:atemp>27.0</ns3:atemp>
          </ns3:TrackPointExtension>
        </extensions>
      </trkpt>
      <trkpt lat="42.4509953521192073822021484375" lon="20.20645589567720890045166015625">
        <ele>1040</ele>
        <time>2026-06-20T12:35:08.000Z</time>
        <extensions>
          <ns3:TrackPointExtension>
            <ns3:atemp>27.0</ns3:atemp>
          </ns3:TrackPointExtension>
        </extensions>
      </trkpt>
      <trkpt lat="42.4509953521192073822021484375" lon="20.20645589567720890045166015625">
        <ele>1040</ele>
        <time>2026-06-20T12:35:09.000Z</time>
        <extensions>
          <ns3:TrackPointExtension>
            <ns3:atemp>27.0</ns3:atemp>
          </ns3:TrackPointExtension>
        </extensions>
      </trkpt>
      <trkpt lat="42.4509953521192073822021484375" lon="20.20645589567720890045166015625">
        <ele>1040</ele>
        <time>2026-06-20T12:35:10.000Z</time>
        <extensions>
          <ns3:TrackPointExtension>
            <ns3:atemp>27.0</ns3:atemp>
          </ns3:TrackPointExtension>
        </extensions>
      </trkpt>
      <trkpt lat="42.4509953521192073822021484375" lon="20.20645589567720890045166015625">
        <ele>1040</ele>
        <time>2026-06-20T12:35:11.000Z</time>
        <extensions>
          <ns3:TrackPointExtension>
            <ns3:atemp>27.0</ns3:atemp>
          </ns3:TrackPointExtension>
        </extensions>
      </trkpt>
      <trkpt lat="42.4509953521192073822021484375" lon="20.20645589567720890045166015625">
        <ele>1040</ele>
        <time>2026-06-20T12:35:12.000Z</time>
        <extensions>
          <ns3:TrackPointExtension>
            <ns3:atemp>27.0</ns3:atemp>
          </ns3:TrackPointExtension>
        </extensions>
      </trkpt>
      <trkpt lat="42.4509953521192073822021484375" lon="20.20645589567720890045166015625">
        <ele>1040</ele>
        <time>2026-06-20T12:35:13.000Z</time>
        <extensions>
          <ns3:TrackPointExtension>
            <ns3:atemp>27.0</ns3:atemp>
          </ns3:TrackPointExtension>
        </extensions>
      </trkpt>
      <trkpt lat="42.4509953521192073822021484375" lon="20.20645589567720890045166015625">
        <ele>1040</ele>
        <time>2026-06-20T12:35:14.000Z</time>
        <extensions>
          <ns3:TrackPointExtension>
            <ns3:atemp>27.0</ns3:atemp>
          </ns3:TrackPointExtension>
        </extensions>
      </trkpt>
      <trkpt lat="42.4509953521192073822021484375" lon="20.20645589567720890045166015625">
        <ele>1040</ele>
        <time>2026-06-20T12:35:15.000Z</time>
        <extensions>
          <ns3:TrackPointExtension>
            <ns3:atemp>27.0</ns3:atemp>
          </ns3:TrackPointExtension>
        </extensions>
      </trkpt>
      <trkpt lat="42.4509953521192073822021484375" lon="20.20645589567720890045166015625">
        <ele>1040</ele>
        <time>2026-06-20T12:35:16.000Z</time>
        <extensions>
          <ns3:TrackPointExtension>
            <ns3:atemp>27.0</ns3:atemp>
          </ns3:TrackPointExtension>
        </extensions>
      </trkpt>
      <trkpt lat="42.4509953521192073822021484375" lon="20.20645589567720890045166015625">
        <ele>1040</ele>
        <time>2026-06-20T12:35:17.000Z</time>
        <extensions>
          <ns3:TrackPointExtension>
            <ns3:atemp>27.0</ns3:atemp>
          </ns3:TrackPointExtension>
        </extensions>
      </trkpt>
      <trkpt lat="42.4509953521192073822021484375" lon="20.20645589567720890045166015625">
        <ele>1040</ele>
        <time>2026-06-20T12:35:18.000Z</time>
        <extensions>
          <ns3:TrackPointExtension>
            <ns3:atemp>27.0</ns3:atemp>
          </ns3:TrackPointExtension>
        </extensions>
      </trkpt>
      <trkpt lat="42.4509953521192073822021484375" lon="20.20645589567720890045166015625">
        <ele>1040</ele>
        <time>2026-06-20T12:35:19.000Z</time>
        <extensions>
          <ns3:TrackPointExtension>
            <ns3:atemp>27.0</ns3:atemp>
          </ns3:TrackPointExtension>
        </extensions>
      </trkpt>
      <trkpt lat="42.4509953521192073822021484375" lon="20.20645589567720890045166015625">
        <ele>1040</ele>
        <time>2026-06-20T12:35:20.000Z</time>
        <extensions>
          <ns3:TrackPointExtension>
            <ns3:atemp>27.0</ns3:atemp>
          </ns3:TrackPointExtension>
        </extensions>
      </trkpt>
      <trkpt lat="42.4509953521192073822021484375" lon="20.20645589567720890045166015625">
        <ele>1040</ele>
        <time>2026-06-20T12:35:21.000Z</time>
        <extensions>
          <ns3:TrackPointExtension>
            <ns3:atemp>27.0</ns3:atemp>
          </ns3:TrackPointExtension>
        </extensions>
      </trkpt>
      <trkpt lat="42.4509953521192073822021484375" lon="20.20645589567720890045166015625">
        <ele>1040</ele>
        <time>2026-06-20T12:35:22.000Z</time>
        <extensions>
          <ns3:TrackPointExtension>
            <ns3:atemp>27.0</ns3:atemp>
          </ns3:TrackPointExtension>
        </extensions>
      </trkpt>
      <trkpt lat="42.4509953521192073822021484375" lon="20.20645589567720890045166015625">
        <ele>1040</ele>
        <time>2026-06-20T12:35:23.000Z</time>
        <extensions>
          <ns3:TrackPointExtension>
            <ns3:atemp>27.0</ns3:atemp>
          </ns3:TrackPointExtension>
        </extensions>
      </trkpt>
      <trkpt lat="42.4509953521192073822021484375" lon="20.20645589567720890045166015625">
        <ele>1040</ele>
        <time>2026-06-20T12:35:24.000Z</time>
        <extensions>
          <ns3:TrackPointExtension>
            <ns3:atemp>27.0</ns3:atemp>
          </ns3:TrackPointExtension>
        </extensions>
      </trkpt>
      <trkpt lat="42.4509953521192073822021484375" lon="20.20645589567720890045166015625">
        <ele>1040</ele>
        <time>2026-06-20T12:35:25.000Z</time>
        <extensions>
          <ns3:TrackPointExtension>
            <ns3:atemp>27.0</ns3:atemp>
          </ns3:TrackPointExtension>
        </extensions>
      </trkpt>
      <trkpt lat="42.4509953521192073822021484375" lon="20.20645589567720890045166015625">
        <ele>1040</ele>
        <time>2026-06-20T12:35:26.000Z</time>
        <extensions>
          <ns3:TrackPointExtension>
            <ns3:atemp>27.0</ns3:atemp>
          </ns3:TrackPointExtension>
        </extensions>
      </trkpt>
      <trkpt lat="42.4509953521192073822021484375" lon="20.20645589567720890045166015625">
        <ele>1040</ele>
        <time>2026-06-20T12:35:27.000Z</time>
        <extensions>
          <ns3:TrackPointExtension>
            <ns3:atemp>27.0</ns3:atemp>
          </ns3:TrackPointExtension>
        </extensions>
      </trkpt>
      <trkpt lat="42.4509953521192073822021484375" lon="20.20645589567720890045166015625">
        <ele>1040</ele>
        <time>2026-06-20T12:35:28.000Z</time>
        <extensions>
          <ns3:TrackPointExtension>
            <ns3:atemp>27.0</ns3:atemp>
          </ns3:TrackPointExtension>
        </extensions>
      </trkpt>
      <trkpt lat="42.4509953521192073822021484375" lon="20.20645589567720890045166015625">
        <ele>1040</ele>
        <time>2026-06-20T12:35:29.000Z</time>
        <extensions>
          <ns3:TrackPointExtension>
            <ns3:atemp>27.0</ns3:atemp>
          </ns3:TrackPointExtension>
        </extensions>
      </trkpt>
      <trkpt lat="42.4509953521192073822021484375" lon="20.20645589567720890045166015625">
        <ele>1040</ele>
        <time>2026-06-20T12:35:30.000Z</time>
        <extensions>
          <ns3:TrackPointExtension>
            <ns3:atemp>27.0</ns3:atemp>
          </ns3:TrackPointExtension>
        </extensions>
      </trkpt>
      <trkpt lat="42.4509953521192073822021484375" lon="20.20645589567720890045166015625">
        <ele>1040</ele>
        <time>2026-06-20T12:35:31.000Z</time>
        <extensions>
          <ns3:TrackPointExtension>
            <ns3:atemp>27.0</ns3:atemp>
          </ns3:TrackPointExtension>
        </extensions>
      </trkpt>
      <trkpt lat="42.4509953521192073822021484375" lon="20.20645589567720890045166015625">
        <ele>1040</ele>
        <time>2026-06-20T12:35:32.000Z</time>
        <extensions>
          <ns3:TrackPointExtension>
            <ns3:atemp>27.0</ns3:atemp>
          </ns3:TrackPointExtension>
        </extensions>
      </trkpt>
      <trkpt lat="42.4509953521192073822021484375" lon="20.20645589567720890045166015625">
        <ele>1040</ele>
        <time>2026-06-20T12:35:33.000Z</time>
        <extensions>
          <ns3:TrackPointExtension>
            <ns3:atemp>27.0</ns3:atemp>
          </ns3:TrackPointExtension>
        </extensions>
      </trkpt>
      <trkpt lat="42.4509953521192073822021484375" lon="20.20645589567720890045166015625">
        <ele>1040</ele>
        <time>2026-06-20T12:35:34.000Z</time>
        <extensions>
          <ns3:TrackPointExtension>
            <ns3:atemp>27.0</ns3:atemp>
          </ns3:TrackPointExtension>
        </extensions>
      </trkpt>
      <trkpt lat="42.4509953521192073822021484375" lon="20.20645589567720890045166015625">
        <ele>1040</ele>
        <time>2026-06-20T12:35:35.000Z</time>
        <extensions>
          <ns3:TrackPointExtension>
            <ns3:atemp>27.0</ns3:atemp>
          </ns3:TrackPointExtension>
        </extensions>
      </trkpt>
      <trkpt lat="42.4509953521192073822021484375" lon="20.20645589567720890045166015625">
        <ele>1040</ele>
        <time>2026-06-20T12:35:36.000Z</time>
        <extensions>
          <ns3:TrackPointExtension>
            <ns3:atemp>27.0</ns3:atemp>
          </ns3:TrackPointExtension>
        </extensions>
      </trkpt>
      <trkpt lat="42.4509953521192073822021484375" lon="20.20645589567720890045166015625">
        <ele>1040</ele>
        <time>2026-06-20T12:35:37.000Z</time>
        <extensions>
          <ns3:TrackPointExtension>
            <ns3:atemp>27.0</ns3:atemp>
          </ns3:TrackPointExtension>
        </extensions>
      </trkpt>
      <trkpt lat="42.4509953521192073822021484375" lon="20.20645589567720890045166015625">
        <ele>1040</ele>
        <time>2026-06-20T12:35:38.000Z</time>
        <extensions>
          <ns3:TrackPointExtension>
            <ns3:atemp>27.0</ns3:atemp>
          </ns3:TrackPointExtension>
        </extensions>
      </trkpt>
      <trkpt lat="42.4509953521192073822021484375" lon="20.20645589567720890045166015625">
        <ele>1040</ele>
        <time>2026-06-20T12:35:39.000Z</time>
        <extensions>
          <ns3:TrackPointExtension>
            <ns3:atemp>27.0</ns3:atemp>
          </ns3:TrackPointExtension>
        </extensions>
      </trkpt>
      <trkpt lat="42.4509953521192073822021484375" lon="20.20645589567720890045166015625">
        <ele>1040</ele>
        <time>2026-06-20T12:35:40.000Z</time>
        <extensions>
          <ns3:TrackPointExtension>
            <ns3:atemp>27.0</ns3:atemp>
          </ns3:TrackPointExtension>
        </extensions>
      </trkpt>
      <trkpt lat="42.4509953521192073822021484375" lon="20.20645589567720890045166015625">
        <ele>1040</ele>
        <time>2026-06-20T12:35:41.000Z</time>
        <extensions>
          <ns3:TrackPointExtension>
            <ns3:atemp>27.0</ns3:atemp>
          </ns3:TrackPointExtension>
        </extensions>
      </trkpt>
      <trkpt lat="42.4509953521192073822021484375" lon="20.20645589567720890045166015625">
        <ele>1040</ele>
        <time>2026-06-20T12:35:42.000Z</time>
        <extensions>
          <ns3:TrackPointExtension>
            <ns3:atemp>27.0</ns3:atemp>
          </ns3:TrackPointExtension>
        </extensions>
      </trkpt>
      <trkpt lat="42.4509953521192073822021484375" lon="20.20645589567720890045166015625">
        <ele>1040</ele>
        <time>2026-06-20T12:35:43.000Z</time>
        <extensions>
          <ns3:TrackPointExtension>
            <ns3:atemp>27.0</ns3:atemp>
          </ns3:TrackPointExtension>
        </extensions>
      </trkpt>
      <trkpt lat="42.4509953521192073822021484375" lon="20.20645589567720890045166015625">
        <ele>1040</ele>
        <time>2026-06-20T12:35:44.000Z</time>
        <extensions>
          <ns3:TrackPointExtension>
            <ns3:atemp>27.0</ns3:atemp>
          </ns3:TrackPointExtension>
        </extensions>
      </trkpt>
      <trkpt lat="42.4509953521192073822021484375" lon="20.20645589567720890045166015625">
        <ele>1040</ele>
        <time>2026-06-20T12:35:45.000Z</time>
        <extensions>
          <ns3:TrackPointExtension>
            <ns3:atemp>27.0</ns3:atemp>
          </ns3:TrackPointExtension>
        </extensions>
      </trkpt>
      <trkpt lat="42.4509953521192073822021484375" lon="20.20645589567720890045166015625">
        <ele>1040</ele>
        <time>2026-06-20T12:35:46.000Z</time>
        <extensions>
          <ns3:TrackPointExtension>
            <ns3:atemp>27.0</ns3:atemp>
          </ns3:TrackPointExtension>
        </extensions>
      </trkpt>
      <trkpt lat="42.4509953521192073822021484375" lon="20.20645589567720890045166015625">
        <ele>1040</ele>
        <time>2026-06-20T12:35:47.000Z</time>
        <extensions>
          <ns3:TrackPointExtension>
            <ns3:atemp>27.0</ns3:atemp>
          </ns3:TrackPointExtension>
        </extensions>
      </trkpt>
      <trkpt lat="42.4509953521192073822021484375" lon="20.20645589567720890045166015625">
        <ele>1040</ele>
        <time>2026-06-20T12:35:48.000Z</time>
        <extensions>
          <ns3:TrackPointExtension>
            <ns3:atemp>27.0</ns3:atemp>
          </ns3:TrackPointExtension>
        </extensions>
      </trkpt>
      <trkpt lat="42.4509953521192073822021484375" lon="20.20645589567720890045166015625">
        <ele>1040</ele>
        <time>2026-06-20T12:35:49.000Z</time>
        <extensions>
          <ns3:TrackPointExtension>
            <ns3:atemp>27.0</ns3:atemp>
          </ns3:TrackPointExtension>
        </extensions>
      </trkpt>
      <trkpt lat="42.4509953521192073822021484375" lon="20.20645589567720890045166015625">
        <ele>1040</ele>
        <time>2026-06-20T12:35:50.000Z</time>
        <extensions>
          <ns3:TrackPointExtension>
            <ns3:atemp>27.0</ns3:atemp>
          </ns3:TrackPointExtension>
        </extensions>
      </trkpt>
      <trkpt lat="42.4509953521192073822021484375" lon="20.20645589567720890045166015625">
        <ele>1040</ele>
        <time>2026-06-20T12:35:51.000Z</time>
        <extensions>
          <ns3:TrackPointExtension>
            <ns3:atemp>27.0</ns3:atemp>
          </ns3:TrackPointExtension>
        </extensions>
      </trkpt>
      <trkpt lat="42.4509953521192073822021484375" lon="20.20645589567720890045166015625">
        <ele>1040</ele>
        <time>2026-06-20T12:35:52.000Z</time>
        <extensions>
          <ns3:TrackPointExtension>
            <ns3:atemp>27.0</ns3:atemp>
          </ns3:TrackPointExtension>
        </extensions>
      </trkpt>
      <trkpt lat="42.4509953521192073822021484375" lon="20.20645589567720890045166015625">
        <ele>1040</ele>
        <time>2026-06-20T12:35:53.000Z</time>
        <extensions>
          <ns3:TrackPointExtension>
            <ns3:atemp>27.0</ns3:atemp>
          </ns3:TrackPointExtension>
        </extensions>
      </trkpt>
      <trkpt lat="42.4509953521192073822021484375" lon="20.20645589567720890045166015625">
        <ele>1040</ele>
        <time>2026-06-20T12:35:54.000Z</time>
        <extensions>
          <ns3:TrackPointExtension>
            <ns3:atemp>27.0</ns3:atemp>
          </ns3:TrackPointExtension>
        </extensions>
      </trkpt>
      <trkpt lat="42.4509953521192073822021484375" lon="20.20645589567720890045166015625">
        <ele>1040</ele>
        <time>2026-06-20T12:35:55.000Z</time>
        <extensions>
          <ns3:TrackPointExtension>
            <ns3:atemp>27.0</ns3:atemp>
          </ns3:TrackPointExtension>
        </extensions>
      </trkpt>
      <trkpt lat="42.4509953521192073822021484375" lon="20.20645589567720890045166015625">
        <ele>1040</ele>
        <time>2026-06-20T12:35:56.000Z</time>
        <extensions>
          <ns3:TrackPointExtension>
            <ns3:atemp>27.0</ns3:atemp>
          </ns3:TrackPointExtension>
        </extensions>
      </trkpt>
      <trkpt lat="42.4509953521192073822021484375" lon="20.20645589567720890045166015625">
        <ele>1040</ele>
        <time>2026-06-20T12:35:57.000Z</time>
        <extensions>
          <ns3:TrackPointExtension>
            <ns3:atemp>27.0</ns3:atemp>
          </ns3:TrackPointExtension>
        </extensions>
      </trkpt>
      <trkpt lat="42.4509953521192073822021484375" lon="20.20645589567720890045166015625">
        <ele>1040</ele>
        <time>2026-06-20T12:35:58.000Z</time>
        <extensions>
          <ns3:TrackPointExtension>
            <ns3:atemp>27.0</ns3:atemp>
          </ns3:TrackPointExtension>
        </extensions>
      </trkpt>
      <trkpt lat="42.4509953521192073822021484375" lon="20.20645589567720890045166015625">
        <ele>1040</ele>
        <time>2026-06-20T12:35:59.000Z</time>
        <extensions>
          <ns3:TrackPointExtension>
            <ns3:atemp>27.0</ns3:atemp>
          </ns3:TrackPointExtension>
        </extensions>
      </trkpt>
      <trkpt lat="42.4509953521192073822021484375" lon="20.20645589567720890045166015625">
        <ele>1040</ele>
        <time>2026-06-20T12:36:00.000Z</time>
        <extensions>
          <ns3:TrackPointExtension>
            <ns3:atemp>27.0</ns3:atemp>
          </ns3:TrackPointExtension>
        </extensions>
      </trkpt>
      <trkpt lat="42.4509953521192073822021484375" lon="20.20645589567720890045166015625">
        <ele>1040</ele>
        <time>2026-06-20T12:36:01.000Z</time>
        <extensions>
          <ns3:TrackPointExtension>
            <ns3:atemp>27.0</ns3:atemp>
          </ns3:TrackPointExtension>
        </extensions>
      </trkpt>
      <trkpt lat="42.4509953521192073822021484375" lon="20.20645589567720890045166015625">
        <ele>1040</ele>
        <time>2026-06-20T12:36:02.000Z</time>
        <extensions>
          <ns3:TrackPointExtension>
            <ns3:atemp>27.0</ns3:atemp>
          </ns3:TrackPointExtension>
        </extensions>
      </trkpt>
      <trkpt lat="42.4509953521192073822021484375" lon="20.20645589567720890045166015625">
        <ele>1040</ele>
        <time>2026-06-20T12:36:03.000Z</time>
        <extensions>
          <ns3:TrackPointExtension>
            <ns3:atemp>27.0</ns3:atemp>
          </ns3:TrackPointExtension>
        </extensions>
      </trkpt>
      <trkpt lat="42.4509953521192073822021484375" lon="20.20645589567720890045166015625">
        <ele>1040</ele>
        <time>2026-06-20T12:36:04.000Z</time>
        <extensions>
          <ns3:TrackPointExtension>
            <ns3:atemp>27.0</ns3:atemp>
          </ns3:TrackPointExtension>
        </extensions>
      </trkpt>
      <trkpt lat="42.4509953521192073822021484375" lon="20.20645589567720890045166015625">
        <ele>1040</ele>
        <time>2026-06-20T12:36:05.000Z</time>
        <extensions>
          <ns3:TrackPointExtension>
            <ns3:atemp>28.0</ns3:atemp>
          </ns3:TrackPointExtension>
        </extensions>
      </trkpt>
      <trkpt lat="42.4509953521192073822021484375" lon="20.20645589567720890045166015625">
        <ele>1040</ele>
        <time>2026-06-20T12:36:06.000Z</time>
        <extensions>
          <ns3:TrackPointExtension>
            <ns3:atemp>28.0</ns3:atemp>
          </ns3:TrackPointExtension>
        </extensions>
      </trkpt>
      <trkpt lat="42.4509953521192073822021484375" lon="20.20645589567720890045166015625">
        <ele>1040</ele>
        <time>2026-06-20T12:36:07.000Z</time>
        <extensions>
          <ns3:TrackPointExtension>
            <ns3:atemp>28.0</ns3:atemp>
          </ns3:TrackPointExtension>
        </extensions>
      </trkpt>
      <trkpt lat="42.4509953521192073822021484375" lon="20.20645589567720890045166015625">
        <ele>1040</ele>
        <time>2026-06-20T12:36:08.000Z</time>
        <extensions>
          <ns3:TrackPointExtension>
            <ns3:atemp>28.0</ns3:atemp>
          </ns3:TrackPointExtension>
        </extensions>
      </trkpt>
      <trkpt lat="42.4509953521192073822021484375" lon="20.20645589567720890045166015625">
        <ele>1040</ele>
        <time>2026-06-20T12:36:09.000Z</time>
        <extensions>
          <ns3:TrackPointExtension>
            <ns3:atemp>28.0</ns3:atemp>
          </ns3:TrackPointExtension>
        </extensions>
      </trkpt>
      <trkpt lat="42.4509953521192073822021484375" lon="20.20645589567720890045166015625">
        <ele>1040</ele>
        <time>2026-06-20T12:36:10.000Z</time>
        <extensions>
          <ns3:TrackPointExtension>
            <ns3:atemp>28.0</ns3:atemp>
          </ns3:TrackPointExtension>
        </extensions>
      </trkpt>
      <trkpt lat="42.4509953521192073822021484375" lon="20.20645589567720890045166015625">
        <ele>1040</ele>
        <time>2026-06-20T12:36:11.000Z</time>
        <extensions>
          <ns3:TrackPointExtension>
            <ns3:atemp>28.0</ns3:atemp>
          </ns3:TrackPointExtension>
        </extensions>
      </trkpt>
      <trkpt lat="42.4509953521192073822021484375" lon="20.20645589567720890045166015625">
        <ele>1040</ele>
        <time>2026-06-20T12:36:12.000Z</time>
        <extensions>
          <ns3:TrackPointExtension>
            <ns3:atemp>28.0</ns3:atemp>
          </ns3:TrackPointExtension>
        </extensions>
      </trkpt>
      <trkpt lat="42.4509953521192073822021484375" lon="20.20645589567720890045166015625">
        <ele>1040</ele>
        <time>2026-06-20T12:36:13.000Z</time>
        <extensions>
          <ns3:TrackPointExtension>
            <ns3:atemp>28.0</ns3:atemp>
          </ns3:TrackPointExtension>
        </extensions>
      </trkpt>
      <trkpt lat="42.4509953521192073822021484375" lon="20.20645589567720890045166015625">
        <ele>1040</ele>
        <time>2026-06-20T12:36:14.000Z</time>
        <extensions>
          <ns3:TrackPointExtension>
            <ns3:atemp>28.0</ns3:atemp>
          </ns3:TrackPointExtension>
        </extensions>
      </trkpt>
      <trkpt lat="42.4509953521192073822021484375" lon="20.20645589567720890045166015625">
        <ele>1040</ele>
        <time>2026-06-20T12:36:15.000Z</time>
        <extensions>
          <ns3:TrackPointExtension>
            <ns3:atemp>28.0</ns3:atemp>
          </ns3:TrackPointExtension>
        </extensions>
      </trkpt>
      <trkpt lat="42.4509953521192073822021484375" lon="20.20645589567720890045166015625">
        <ele>1040</ele>
        <time>2026-06-20T12:36:16.000Z</time>
        <extensions>
          <ns3:TrackPointExtension>
            <ns3:atemp>28.0</ns3:atemp>
          </ns3:TrackPointExtension>
        </extensions>
      </trkpt>
      <trkpt lat="42.4509953521192073822021484375" lon="20.20645589567720890045166015625">
        <ele>1040</ele>
        <time>2026-06-20T12:36:17.000Z</time>
        <extensions>
          <ns3:TrackPointExtension>
            <ns3:atemp>28.0</ns3:atemp>
          </ns3:TrackPointExtension>
        </extensions>
      </trkpt>
      <trkpt lat="42.4509953521192073822021484375" lon="20.20645589567720890045166015625">
        <ele>1040</ele>
        <time>2026-06-20T12:36:18.000Z</time>
        <extensions>
          <ns3:TrackPointExtension>
            <ns3:atemp>28.0</ns3:atemp>
          </ns3:TrackPointExtension>
        </extensions>
      </trkpt>
      <trkpt lat="42.4509953521192073822021484375" lon="20.20645589567720890045166015625">
        <ele>1040</ele>
        <time>2026-06-20T12:36:19.000Z</time>
        <extensions>
          <ns3:TrackPointExtension>
            <ns3:atemp>28.0</ns3:atemp>
          </ns3:TrackPointExtension>
        </extensions>
      </trkpt>
      <trkpt lat="42.4509953521192073822021484375" lon="20.20645589567720890045166015625">
        <ele>1040</ele>
        <time>2026-06-20T12:36:20.000Z</time>
        <extensions>
          <ns3:TrackPointExtension>
            <ns3:atemp>28.0</ns3:atemp>
          </ns3:TrackPointExtension>
        </extensions>
      </trkpt>
      <trkpt lat="42.4509953521192073822021484375" lon="20.20645589567720890045166015625">
        <ele>1040</ele>
        <time>2026-06-20T12:36:21.000Z</time>
        <extensions>
          <ns3:TrackPointExtension>
            <ns3:atemp>28.0</ns3:atemp>
          </ns3:TrackPointExtension>
        </extensions>
      </trkpt>
      <trkpt lat="42.4509953521192073822021484375" lon="20.20645589567720890045166015625">
        <ele>1040</ele>
        <time>2026-06-20T12:36:22.000Z</time>
        <extensions>
          <ns3:TrackPointExtension>
            <ns3:atemp>28.0</ns3:atemp>
          </ns3:TrackPointExtension>
        </extensions>
      </trkpt>
      <trkpt lat="42.4509953521192073822021484375" lon="20.20645589567720890045166015625">
        <ele>1040</ele>
        <time>2026-06-20T12:36:23.000Z</time>
        <extensions>
          <ns3:TrackPointExtension>
            <ns3:atemp>28.0</ns3:atemp>
          </ns3:TrackPointExtension>
        </extensions>
      </trkpt>
      <trkpt lat="42.4509953521192073822021484375" lon="20.20645589567720890045166015625">
        <ele>1040</ele>
        <time>2026-06-20T12:36:24.000Z</time>
        <extensions>
          <ns3:TrackPointExtension>
            <ns3:atemp>28.0</ns3:atemp>
          </ns3:TrackPointExtension>
        </extensions>
      </trkpt>
      <trkpt lat="42.4509953521192073822021484375" lon="20.20645589567720890045166015625">
        <ele>1040</ele>
        <time>2026-06-20T12:36:25.000Z</time>
        <extensions>
          <ns3:TrackPointExtension>
            <ns3:atemp>28.0</ns3:atemp>
          </ns3:TrackPointExtension>
        </extensions>
      </trkpt>
      <trkpt lat="42.4509953521192073822021484375" lon="20.20645589567720890045166015625">
        <ele>1040</ele>
        <time>2026-06-20T12:36:26.000Z</time>
        <extensions>
          <ns3:TrackPointExtension>
            <ns3:atemp>28.0</ns3:atemp>
          </ns3:TrackPointExtension>
        </extensions>
      </trkpt>
      <trkpt lat="42.4509953521192073822021484375" lon="20.20645589567720890045166015625">
        <ele>1040</ele>
        <time>2026-06-20T12:36:27.000Z</time>
        <extensions>
          <ns3:TrackPointExtension>
            <ns3:atemp>28.0</ns3:atemp>
          </ns3:TrackPointExtension>
        </extensions>
      </trkpt>
      <trkpt lat="42.4509953521192073822021484375" lon="20.20645589567720890045166015625">
        <ele>1040</ele>
        <time>2026-06-20T12:36:28.000Z</time>
        <extensions>
          <ns3:TrackPointExtension>
            <ns3:atemp>28.0</ns3:atemp>
          </ns3:TrackPointExtension>
        </extensions>
      </trkpt>
      <trkpt lat="42.4509953521192073822021484375" lon="20.20645589567720890045166015625">
        <ele>1040</ele>
        <time>2026-06-20T12:36:29.000Z</time>
        <extensions>
          <ns3:TrackPointExtension>
            <ns3:atemp>28.0</ns3:atemp>
          </ns3:TrackPointExtension>
        </extensions>
      </trkpt>
      <trkpt lat="42.4509953521192073822021484375" lon="20.20645589567720890045166015625">
        <ele>1040</ele>
        <time>2026-06-20T12:36:30.000Z</time>
        <extensions>
          <ns3:TrackPointExtension>
            <ns3:atemp>28.0</ns3:atemp>
          </ns3:TrackPointExtension>
        </extensions>
      </trkpt>
      <trkpt lat="42.4509953521192073822021484375" lon="20.20645589567720890045166015625">
        <ele>1040</ele>
        <time>2026-06-20T12:36:31.000Z</time>
        <extensions>
          <ns3:TrackPointExtension>
            <ns3:atemp>28.0</ns3:atemp>
          </ns3:TrackPointExtension>
        </extensions>
      </trkpt>
      <trkpt lat="42.4509953521192073822021484375" lon="20.20645589567720890045166015625">
        <ele>1040</ele>
        <time>2026-06-20T12:36:32.000Z</time>
        <extensions>
          <ns3:TrackPointExtension>
            <ns3:atemp>28.0</ns3:atemp>
          </ns3:TrackPointExtension>
        </extensions>
      </trkpt>
      <trkpt lat="42.4509953521192073822021484375" lon="20.20645589567720890045166015625">
        <ele>1040</ele>
        <time>2026-06-20T12:36:33.000Z</time>
        <extensions>
          <ns3:TrackPointExtension>
            <ns3:atemp>28.0</ns3:atemp>
          </ns3:TrackPointExtension>
        </extensions>
      </trkpt>
      <trkpt lat="42.4509953521192073822021484375" lon="20.20645589567720890045166015625">
        <ele>1040</ele>
        <time>2026-06-20T12:36:34.000Z</time>
        <extensions>
          <ns3:TrackPointExtension>
            <ns3:atemp>28.0</ns3:atemp>
          </ns3:TrackPointExtension>
        </extensions>
      </trkpt>
      <trkpt lat="42.4509953521192073822021484375" lon="20.20645589567720890045166015625">
        <ele>1040</ele>
        <time>2026-06-20T12:36:35.000Z</time>
        <extensions>
          <ns3:TrackPointExtension>
            <ns3:atemp>28.0</ns3:atemp>
          </ns3:TrackPointExtension>
        </extensions>
      </trkpt>
      <trkpt lat="42.4509953521192073822021484375" lon="20.20645589567720890045166015625">
        <ele>1040</ele>
        <time>2026-06-20T12:36:36.000Z</time>
        <extensions>
          <ns3:TrackPointExtension>
            <ns3:atemp>28.0</ns3:atemp>
          </ns3:TrackPointExtension>
        </extensions>
      </trkpt>
      <trkpt lat="42.4509953521192073822021484375" lon="20.20645589567720890045166015625">
        <ele>1040</ele>
        <time>2026-06-20T12:36:37.000Z</time>
        <extensions>
          <ns3:TrackPointExtension>
            <ns3:atemp>28.0</ns3:atemp>
          </ns3:TrackPointExtension>
        </extensions>
      </trkpt>
      <trkpt lat="42.4509953521192073822021484375" lon="20.20645589567720890045166015625">
        <ele>1040</ele>
        <time>2026-06-20T12:36:38.000Z</time>
        <extensions>
          <ns3:TrackPointExtension>
            <ns3:atemp>28.0</ns3:atemp>
          </ns3:TrackPointExtension>
        </extensions>
      </trkpt>
      <trkpt lat="42.4509953521192073822021484375" lon="20.20645589567720890045166015625">
        <ele>1040</ele>
        <time>2026-06-20T12:36:39.000Z</time>
        <extensions>
          <ns3:TrackPointExtension>
            <ns3:atemp>28.0</ns3:atemp>
          </ns3:TrackPointExtension>
        </extensions>
      </trkpt>
      <trkpt lat="42.4509953521192073822021484375" lon="20.20645589567720890045166015625">
        <ele>1040</ele>
        <time>2026-06-20T12:36:40.000Z</time>
        <extensions>
          <ns3:TrackPointExtension>
            <ns3:atemp>28.0</ns3:atemp>
          </ns3:TrackPointExtension>
        </extensions>
      </trkpt>
      <trkpt lat="42.4509953521192073822021484375" lon="20.20645589567720890045166015625">
        <ele>1040</ele>
        <time>2026-06-20T12:36:41.000Z</time>
        <extensions>
          <ns3:TrackPointExtension>
            <ns3:atemp>28.0</ns3:atemp>
          </ns3:TrackPointExtension>
        </extensions>
      </trkpt>
      <trkpt lat="42.4509953521192073822021484375" lon="20.20645589567720890045166015625">
        <ele>1040</ele>
        <time>2026-06-20T12:36:42.000Z</time>
        <extensions>
          <ns3:TrackPointExtension>
            <ns3:atemp>28.0</ns3:atemp>
          </ns3:TrackPointExtension>
        </extensions>
      </trkpt>
      <trkpt lat="42.4509953521192073822021484375" lon="20.20645589567720890045166015625">
        <ele>1040</ele>
        <time>2026-06-20T12:36:43.000Z</time>
        <extensions>
          <ns3:TrackPointExtension>
            <ns3:atemp>28.0</ns3:atemp>
          </ns3:TrackPointExtension>
        </extensions>
      </trkpt>
      <trkpt lat="42.4509953521192073822021484375" lon="20.20645589567720890045166015625">
        <ele>1040</ele>
        <time>2026-06-20T12:36:44.000Z</time>
        <extensions>
          <ns3:TrackPointExtension>
            <ns3:atemp>28.0</ns3:atemp>
          </ns3:TrackPointExtension>
        </extensions>
      </trkpt>
      <trkpt lat="42.4509953521192073822021484375" lon="20.20645589567720890045166015625">
        <ele>1040</ele>
        <time>2026-06-20T12:36:45.000Z</time>
        <extensions>
          <ns3:TrackPointExtension>
            <ns3:atemp>28.0</ns3:atemp>
          </ns3:TrackPointExtension>
        </extensions>
      </trkpt>
      <trkpt lat="42.4509953521192073822021484375" lon="20.20645589567720890045166015625">
        <ele>1040</ele>
        <time>2026-06-20T12:36:46.000Z</time>
        <extensions>
          <ns3:TrackPointExtension>
            <ns3:atemp>28.0</ns3:atemp>
          </ns3:TrackPointExtension>
        </extensions>
      </trkpt>
      <trkpt lat="42.4509953521192073822021484375" lon="20.20645589567720890045166015625">
        <ele>1040</ele>
        <time>2026-06-20T12:36:47.000Z</time>
        <extensions>
          <ns3:TrackPointExtension>
            <ns3:atemp>28.0</ns3:atemp>
          </ns3:TrackPointExtension>
        </extensions>
      </trkpt>
      <trkpt lat="42.4509953521192073822021484375" lon="20.20645589567720890045166015625">
        <ele>1040</ele>
        <time>2026-06-20T12:36:48.000Z</time>
        <extensions>
          <ns3:TrackPointExtension>
            <ns3:atemp>28.0</ns3:atemp>
          </ns3:TrackPointExtension>
        </extensions>
      </trkpt>
      <trkpt lat="42.4509953521192073822021484375" lon="20.20645589567720890045166015625">
        <ele>1040</ele>
        <time>2026-06-20T12:36:49.000Z</time>
        <extensions>
          <ns3:TrackPointExtension>
            <ns3:atemp>28.0</ns3:atemp>
          </ns3:TrackPointExtension>
        </extensions>
      </trkpt>
      <trkpt lat="42.4509953521192073822021484375" lon="20.20645589567720890045166015625">
        <ele>1040</ele>
        <time>2026-06-20T12:36:50.000Z</time>
        <extensions>
          <ns3:TrackPointExtension>
            <ns3:atemp>28.0</ns3:atemp>
          </ns3:TrackPointExtension>
        </extensions>
      </trkpt>
      <trkpt lat="42.4509953521192073822021484375" lon="20.20645589567720890045166015625">
        <ele>1040</ele>
        <time>2026-06-20T12:36:51.000Z</time>
        <extensions>
          <ns3:TrackPointExtension>
            <ns3:atemp>28.0</ns3:atemp>
          </ns3:TrackPointExtension>
        </extensions>
      </trkpt>
      <trkpt lat="42.4509953521192073822021484375" lon="20.20645589567720890045166015625">
        <ele>1040</ele>
        <time>2026-06-20T12:36:52.000Z</time>
        <extensions>
          <ns3:TrackPointExtension>
            <ns3:atemp>28.0</ns3:atemp>
          </ns3:TrackPointExtension>
        </extensions>
      </trkpt>
      <trkpt lat="42.4509953521192073822021484375" lon="20.20645589567720890045166015625">
        <ele>1040</ele>
        <time>2026-06-20T12:36:53.000Z</time>
        <extensions>
          <ns3:TrackPointExtension>
            <ns3:atemp>28.0</ns3:atemp>
          </ns3:TrackPointExtension>
        </extensions>
      </trkpt>
      <trkpt lat="42.4509953521192073822021484375" lon="20.20645589567720890045166015625">
        <ele>1040</ele>
        <time>2026-06-20T12:36:54.000Z</time>
        <extensions>
          <ns3:TrackPointExtension>
            <ns3:atemp>28.0</ns3:atemp>
          </ns3:TrackPointExtension>
        </extensions>
      </trkpt>
      <trkpt lat="42.4509953521192073822021484375" lon="20.20645589567720890045166015625">
        <ele>1040</ele>
        <time>2026-06-20T12:36:55.000Z</time>
        <extensions>
          <ns3:TrackPointExtension>
            <ns3:atemp>28.0</ns3:atemp>
          </ns3:TrackPointExtension>
        </extensions>
      </trkpt>
      <trkpt lat="42.4509953521192073822021484375" lon="20.20645589567720890045166015625">
        <ele>1040</ele>
        <time>2026-06-20T12:36:56.000Z</time>
        <extensions>
          <ns3:TrackPointExtension>
            <ns3:atemp>28.0</ns3:atemp>
          </ns3:TrackPointExtension>
        </extensions>
      </trkpt>
      <trkpt lat="42.4509953521192073822021484375" lon="20.20645589567720890045166015625">
        <ele>1040</ele>
        <time>2026-06-20T12:36:57.000Z</time>
        <extensions>
          <ns3:TrackPointExtension>
            <ns3:atemp>28.0</ns3:atemp>
          </ns3:TrackPointExtension>
        </extensions>
      </trkpt>
      <trkpt lat="42.4509953521192073822021484375" lon="20.20645589567720890045166015625">
        <ele>1040</ele>
        <time>2026-06-20T12:36:58.000Z</time>
        <extensions>
          <ns3:TrackPointExtension>
            <ns3:atemp>28.0</ns3:atemp>
          </ns3:TrackPointExtension>
        </extensions>
      </trkpt>
      <trkpt lat="42.4509953521192073822021484375" lon="20.20645589567720890045166015625">
        <ele>1040</ele>
        <time>2026-06-20T12:36:59.000Z</time>
        <extensions>
          <ns3:TrackPointExtension>
            <ns3:atemp>28.0</ns3:atemp>
          </ns3:TrackPointExtension>
        </extensions>
      </trkpt>
      <trkpt lat="42.4509953521192073822021484375" lon="20.20645589567720890045166015625">
        <ele>1040</ele>
        <time>2026-06-20T12:37:00.000Z</time>
        <extensions>
          <ns3:TrackPointExtension>
            <ns3:atemp>28.0</ns3:atemp>
          </ns3:TrackPointExtension>
        </extensions>
      </trkpt>
      <trkpt lat="42.4509953521192073822021484375" lon="20.20645589567720890045166015625">
        <ele>1040</ele>
        <time>2026-06-20T12:37:01.000Z</time>
        <extensions>
          <ns3:TrackPointExtension>
            <ns3:atemp>28.0</ns3:atemp>
          </ns3:TrackPointExtension>
        </extensions>
      </trkpt>
      <trkpt lat="42.4509953521192073822021484375" lon="20.20645589567720890045166015625">
        <ele>1040</ele>
        <time>2026-06-20T12:37:02.000Z</time>
        <extensions>
          <ns3:TrackPointExtension>
            <ns3:atemp>28.0</ns3:atemp>
          </ns3:TrackPointExtension>
        </extensions>
      </trkpt>
      <trkpt lat="42.4509953521192073822021484375" lon="20.20645589567720890045166015625">
        <ele>1040</ele>
        <time>2026-06-20T12:37:03.000Z</time>
        <extensions>
          <ns3:TrackPointExtension>
            <ns3:atemp>28.0</ns3:atemp>
          </ns3:TrackPointExtension>
        </extensions>
      </trkpt>
      <trkpt lat="42.4509953521192073822021484375" lon="20.20645589567720890045166015625">
        <ele>1040</ele>
        <time>2026-06-20T12:37:04.000Z</time>
        <extensions>
          <ns3:TrackPointExtension>
            <ns3:atemp>28.0</ns3:atemp>
          </ns3:TrackPointExtension>
        </extensions>
      </trkpt>
      <trkpt lat="42.4509953521192073822021484375" lon="20.20645589567720890045166015625">
        <ele>1040</ele>
        <time>2026-06-20T12:37:05.000Z</time>
        <extensions>
          <ns3:TrackPointExtension>
            <ns3:atemp>28.0</ns3:atemp>
          </ns3:TrackPointExtension>
        </extensions>
      </trkpt>
      <trkpt lat="42.4509953521192073822021484375" lon="20.20645589567720890045166015625">
        <ele>1040</ele>
        <time>2026-06-20T12:37:06.000Z</time>
        <extensions>
          <ns3:TrackPointExtension>
            <ns3:atemp>28.0</ns3:atemp>
          </ns3:TrackPointExtension>
        </extensions>
      </trkpt>
      <trkpt lat="42.4509953521192073822021484375" lon="20.20645589567720890045166015625">
        <ele>1040</ele>
        <time>2026-06-20T12:37:07.000Z</time>
        <extensions>
          <ns3:TrackPointExtension>
            <ns3:atemp>28.0</ns3:atemp>
          </ns3:TrackPointExtension>
        </extensions>
      </trkpt>
      <trkpt lat="42.4509953521192073822021484375" lon="20.20645589567720890045166015625">
        <ele>1040</ele>
        <time>2026-06-20T12:37:08.000Z</time>
        <extensions>
          <ns3:TrackPointExtension>
            <ns3:atemp>28.0</ns3:atemp>
          </ns3:TrackPointExtension>
        </extensions>
      </trkpt>
      <trkpt lat="42.4509953521192073822021484375" lon="20.20645589567720890045166015625">
        <ele>1040</ele>
        <time>2026-06-20T12:37:09.000Z</time>
        <extensions>
          <ns3:TrackPointExtension>
            <ns3:atemp>28.0</ns3:atemp>
          </ns3:TrackPointExtension>
        </extensions>
      </trkpt>
      <trkpt lat="42.4509953521192073822021484375" lon="20.20645589567720890045166015625">
        <ele>1040</ele>
        <time>2026-06-20T12:37:10.000Z</time>
        <extensions>
          <ns3:TrackPointExtension>
            <ns3:atemp>28.0</ns3:atemp>
          </ns3:TrackPointExtension>
        </extensions>
      </trkpt>
      <trkpt lat="42.4509953521192073822021484375" lon="20.20645589567720890045166015625">
        <ele>1040</ele>
        <time>2026-06-20T12:37:11.000Z</time>
        <extensions>
          <ns3:TrackPointExtension>
            <ns3:atemp>28.0</ns3:atemp>
          </ns3:TrackPointExtension>
        </extensions>
      </trkpt>
      <trkpt lat="42.4509953521192073822021484375" lon="20.20645589567720890045166015625">
        <ele>1040</ele>
        <time>2026-06-20T12:37:12.000Z</time>
        <extensions>
          <ns3:TrackPointExtension>
            <ns3:atemp>28.0</ns3:atemp>
          </ns3:TrackPointExtension>
        </extensions>
      </trkpt>
      <trkpt lat="42.4509953521192073822021484375" lon="20.20645589567720890045166015625">
        <ele>1040</ele>
        <time>2026-06-20T12:37:13.000Z</time>
        <extensions>
          <ns3:TrackPointExtension>
            <ns3:atemp>28.0</ns3:atemp>
          </ns3:TrackPointExtension>
        </extensions>
      </trkpt>
      <trkpt lat="42.4509953521192073822021484375" lon="20.20645589567720890045166015625">
        <ele>1040</ele>
        <time>2026-06-20T12:37:14.000Z</time>
        <extensions>
          <ns3:TrackPointExtension>
            <ns3:atemp>28.0</ns3:atemp>
          </ns3:TrackPointExtension>
        </extensions>
      </trkpt>
      <trkpt lat="42.4509953521192073822021484375" lon="20.20645589567720890045166015625">
        <ele>1040</ele>
        <time>2026-06-20T12:37:15.000Z</time>
        <extensions>
          <ns3:TrackPointExtension>
            <ns3:atemp>28.0</ns3:atemp>
          </ns3:TrackPointExtension>
        </extensions>
      </trkpt>
      <trkpt lat="42.4509953521192073822021484375" lon="20.20645589567720890045166015625">
        <ele>1040</ele>
        <time>2026-06-20T12:37:16.000Z</time>
        <extensions>
          <ns3:TrackPointExtension>
            <ns3:atemp>28.0</ns3:atemp>
          </ns3:TrackPointExtension>
        </extensions>
      </trkpt>
      <trkpt lat="42.4509953521192073822021484375" lon="20.20645589567720890045166015625">
        <ele>1040</ele>
        <time>2026-06-20T12:37:17.000Z</time>
        <extensions>
          <ns3:TrackPointExtension>
            <ns3:atemp>28.0</ns3:atemp>
          </ns3:TrackPointExtension>
        </extensions>
      </trkpt>
      <trkpt lat="42.4509953521192073822021484375" lon="20.20645589567720890045166015625">
        <ele>1040</ele>
        <time>2026-06-20T12:37:18.000Z</time>
        <extensions>
          <ns3:TrackPointExtension>
            <ns3:atemp>28.0</ns3:atemp>
          </ns3:TrackPointExtension>
        </extensions>
      </trkpt>
      <trkpt lat="42.4509953521192073822021484375" lon="20.20645589567720890045166015625">
        <ele>1040</ele>
        <time>2026-06-20T12:37:19.000Z</time>
        <extensions>
          <ns3:TrackPointExtension>
            <ns3:atemp>28.0</ns3:atemp>
          </ns3:TrackPointExtension>
        </extensions>
      </trkpt>
      <trkpt lat="42.4509953521192073822021484375" lon="20.20645589567720890045166015625">
        <ele>1040</ele>
        <time>2026-06-20T12:37:20.000Z</time>
        <extensions>
          <ns3:TrackPointExtension>
            <ns3:atemp>28.0</ns3:atemp>
          </ns3:TrackPointExtension>
        </extensions>
      </trkpt>
      <trkpt lat="42.4509953521192073822021484375" lon="20.20645589567720890045166015625">
        <ele>1040</ele>
        <time>2026-06-20T12:37:21.000Z</time>
        <extensions>
          <ns3:TrackPointExtension>
            <ns3:atemp>28.0</ns3:atemp>
          </ns3:TrackPointExtension>
        </extensions>
      </trkpt>
      <trkpt lat="42.4509953521192073822021484375" lon="20.20645589567720890045166015625">
        <ele>1040</ele>
        <time>2026-06-20T12:37:22.000Z</time>
        <extensions>
          <ns3:TrackPointExtension>
            <ns3:atemp>28.0</ns3:atemp>
          </ns3:TrackPointExtension>
        </extensions>
      </trkpt>
      <trkpt lat="42.4509953521192073822021484375" lon="20.20645589567720890045166015625">
        <ele>1040</ele>
        <time>2026-06-20T12:37:23.000Z</time>
        <extensions>
          <ns3:TrackPointExtension>
            <ns3:atemp>28.0</ns3:atemp>
          </ns3:TrackPointExtension>
        </extensions>
      </trkpt>
      <trkpt lat="42.4509953521192073822021484375" lon="20.20645589567720890045166015625">
        <ele>1040</ele>
        <time>2026-06-20T12:37:24.000Z</time>
        <extensions>
          <ns3:TrackPointExtension>
            <ns3:atemp>28.0</ns3:atemp>
          </ns3:TrackPointExtension>
        </extensions>
      </trkpt>
      <trkpt lat="42.4509953521192073822021484375" lon="20.20645589567720890045166015625">
        <ele>1040</ele>
        <time>2026-06-20T12:37:25.000Z</time>
        <extensions>
          <ns3:TrackPointExtension>
            <ns3:atemp>28.0</ns3:atemp>
          </ns3:TrackPointExtension>
        </extensions>
      </trkpt>
      <trkpt lat="42.4509953521192073822021484375" lon="20.20645589567720890045166015625">
        <ele>1040</ele>
        <time>2026-06-20T12:37:26.000Z</time>
        <extensions>
          <ns3:TrackPointExtension>
            <ns3:atemp>28.0</ns3:atemp>
          </ns3:TrackPointExtension>
        </extensions>
      </trkpt>
      <trkpt lat="42.4509953521192073822021484375" lon="20.20645589567720890045166015625">
        <ele>1040</ele>
        <time>2026-06-20T12:37:27.000Z</time>
        <extensions>
          <ns3:TrackPointExtension>
            <ns3:atemp>28.0</ns3:atemp>
          </ns3:TrackPointExtension>
        </extensions>
      </trkpt>
      <trkpt lat="42.4509953521192073822021484375" lon="20.20645589567720890045166015625">
        <ele>1040</ele>
        <time>2026-06-20T12:37:28.000Z</time>
        <extensions>
          <ns3:TrackPointExtension>
            <ns3:atemp>28.0</ns3:atemp>
          </ns3:TrackPointExtension>
        </extensions>
      </trkpt>
      <trkpt lat="42.4509953521192073822021484375" lon="20.20645589567720890045166015625">
        <ele>1040</ele>
        <time>2026-06-20T12:37:29.000Z</time>
        <extensions>
          <ns3:TrackPointExtension>
            <ns3:atemp>28.0</ns3:atemp>
          </ns3:TrackPointExtension>
        </extensions>
      </trkpt>
      <trkpt lat="42.4509953521192073822021484375" lon="20.20645589567720890045166015625">
        <ele>1040</ele>
        <time>2026-06-20T12:37:30.000Z</time>
        <extensions>
          <ns3:TrackPointExtension>
            <ns3:atemp>28.0</ns3:atemp>
          </ns3:TrackPointExtension>
        </extensions>
      </trkpt>
      <trkpt lat="42.4509953521192073822021484375" lon="20.20645589567720890045166015625">
        <ele>1040</ele>
        <time>2026-06-20T12:37:31.000Z</time>
        <extensions>
          <ns3:TrackPointExtension>
            <ns3:atemp>28.0</ns3:atemp>
          </ns3:TrackPointExtension>
        </extensions>
      </trkpt>
      <trkpt lat="42.4509953521192073822021484375" lon="20.20645589567720890045166015625">
        <ele>1040</ele>
        <time>2026-06-20T12:37:32.000Z</time>
        <extensions>
          <ns3:TrackPointExtension>
            <ns3:atemp>28.0</ns3:atemp>
          </ns3:TrackPointExtension>
        </extensions>
      </trkpt>
      <trkpt lat="42.4509953521192073822021484375" lon="20.20645589567720890045166015625">
        <ele>1040</ele>
        <time>2026-06-20T12:37:33.000Z</time>
        <extensions>
          <ns3:TrackPointExtension>
            <ns3:atemp>28.0</ns3:atemp>
          </ns3:TrackPointExtension>
        </extensions>
      </trkpt>
      <trkpt lat="42.4509953521192073822021484375" lon="20.20645589567720890045166015625">
        <ele>1040</ele>
        <time>2026-06-20T12:37:34.000Z</time>
        <extensions>
          <ns3:TrackPointExtension>
            <ns3:atemp>28.0</ns3:atemp>
          </ns3:TrackPointExtension>
        </extensions>
      </trkpt>
      <trkpt lat="42.4509953521192073822021484375" lon="20.20645589567720890045166015625">
        <ele>1040</ele>
        <time>2026-06-20T12:37:35.000Z</time>
        <extensions>
          <ns3:TrackPointExtension>
            <ns3:atemp>28.0</ns3:atemp>
          </ns3:TrackPointExtension>
        </extensions>
      </trkpt>
      <trkpt lat="42.4509953521192073822021484375" lon="20.20645589567720890045166015625">
        <ele>1040</ele>
        <time>2026-06-20T12:37:36.000Z</time>
        <extensions>
          <ns3:TrackPointExtension>
            <ns3:atemp>28.0</ns3:atemp>
          </ns3:TrackPointExtension>
        </extensions>
      </trkpt>
      <trkpt lat="42.4509953521192073822021484375" lon="20.20645589567720890045166015625">
        <ele>1040</ele>
        <time>2026-06-20T12:37:37.000Z</time>
        <extensions>
          <ns3:TrackPointExtension>
            <ns3:atemp>28.0</ns3:atemp>
          </ns3:TrackPointExtension>
        </extensions>
      </trkpt>
      <trkpt lat="42.4509953521192073822021484375" lon="20.20645589567720890045166015625">
        <ele>1040</ele>
        <time>2026-06-20T12:37:38.000Z</time>
        <extensions>
          <ns3:TrackPointExtension>
            <ns3:atemp>28.0</ns3:atemp>
          </ns3:TrackPointExtension>
        </extensions>
      </trkpt>
      <trkpt lat="42.4509953521192073822021484375" lon="20.20645589567720890045166015625">
        <ele>1040</ele>
        <time>2026-06-20T12:37:39.000Z</time>
        <extensions>
          <ns3:TrackPointExtension>
            <ns3:atemp>28.0</ns3:atemp>
          </ns3:TrackPointExtension>
        </extensions>
      </trkpt>
      <trkpt lat="42.4509953521192073822021484375" lon="20.20645589567720890045166015625">
        <ele>1040</ele>
        <time>2026-06-20T12:37:40.000Z</time>
        <extensions>
          <ns3:TrackPointExtension>
            <ns3:atemp>28.0</ns3:atemp>
          </ns3:TrackPointExtension>
        </extensions>
      </trkpt>
      <trkpt lat="42.4509953521192073822021484375" lon="20.20645589567720890045166015625">
        <ele>1040</ele>
        <time>2026-06-20T12:37:41.000Z</time>
        <extensions>
          <ns3:TrackPointExtension>
            <ns3:atemp>28.0</ns3:atemp>
          </ns3:TrackPointExtension>
        </extensions>
      </trkpt>
      <trkpt lat="42.4509953521192073822021484375" lon="20.20645589567720890045166015625">
        <ele>1040</ele>
        <time>2026-06-20T12:37:42.000Z</time>
        <extensions>
          <ns3:TrackPointExtension>
            <ns3:atemp>28.0</ns3:atemp>
          </ns3:TrackPointExtension>
        </extensions>
      </trkpt>
      <trkpt lat="42.4509953521192073822021484375" lon="20.20645589567720890045166015625">
        <ele>1040</ele>
        <time>2026-06-20T12:37:43.000Z</time>
        <extensions>
          <ns3:TrackPointExtension>
            <ns3:atemp>28.0</ns3:atemp>
          </ns3:TrackPointExtension>
        </extensions>
      </trkpt>
      <trkpt lat="42.4509953521192073822021484375" lon="20.20645589567720890045166015625">
        <ele>1040</ele>
        <time>2026-06-20T12:37:44.000Z</time>
        <extensions>
          <ns3:TrackPointExtension>
            <ns3:atemp>28.0</ns3:atemp>
          </ns3:TrackPointExtension>
        </extensions>
      </trkpt>
      <trkpt lat="42.4509953521192073822021484375" lon="20.20645589567720890045166015625">
        <ele>1040</ele>
        <time>2026-06-20T12:37:45.000Z</time>
        <extensions>
          <ns3:TrackPointExtension>
            <ns3:atemp>28.0</ns3:atemp>
          </ns3:TrackPointExtension>
        </extensions>
      </trkpt>
      <trkpt lat="42.4509953521192073822021484375" lon="20.20645589567720890045166015625">
        <ele>1040</ele>
        <time>2026-06-20T12:37:46.000Z</time>
        <extensions>
          <ns3:TrackPointExtension>
            <ns3:atemp>29.0</ns3:atemp>
          </ns3:TrackPointExtension>
        </extensions>
      </trkpt>
      <trkpt lat="42.4509953521192073822021484375" lon="20.20645589567720890045166015625">
        <ele>1040</ele>
        <time>2026-06-20T12:37:47.000Z</time>
        <extensions>
          <ns3:TrackPointExtension>
            <ns3:atemp>29.0</ns3:atemp>
          </ns3:TrackPointExtension>
        </extensions>
      </trkpt>
      <trkpt lat="42.4509953521192073822021484375" lon="20.20645589567720890045166015625">
        <ele>1040</ele>
        <time>2026-06-20T12:37:48.000Z</time>
        <extensions>
          <ns3:TrackPointExtension>
            <ns3:atemp>29.0</ns3:atemp>
          </ns3:TrackPointExtension>
        </extensions>
      </trkpt>
      <trkpt lat="42.4509953521192073822021484375" lon="20.20645589567720890045166015625">
        <ele>1040</ele>
        <time>2026-06-20T12:37:49.000Z</time>
        <extensions>
          <ns3:TrackPointExtension>
            <ns3:atemp>29.0</ns3:atemp>
          </ns3:TrackPointExtension>
        </extensions>
      </trkpt>
      <trkpt lat="42.4509953521192073822021484375" lon="20.20645589567720890045166015625">
        <ele>1040</ele>
        <time>2026-06-20T12:37:50.000Z</time>
        <extensions>
          <ns3:TrackPointExtension>
            <ns3:atemp>29.0</ns3:atemp>
          </ns3:TrackPointExtension>
        </extensions>
      </trkpt>
      <trkpt lat="42.4509953521192073822021484375" lon="20.20645589567720890045166015625">
        <ele>1040</ele>
        <time>2026-06-20T12:37:51.000Z</time>
        <extensions>
          <ns3:TrackPointExtension>
            <ns3:atemp>29.0</ns3:atemp>
          </ns3:TrackPointExtension>
        </extensions>
      </trkpt>
      <trkpt lat="42.4509953521192073822021484375" lon="20.20645589567720890045166015625">
        <ele>1040</ele>
        <time>2026-06-20T12:37:52.000Z</time>
        <extensions>
          <ns3:TrackPointExtension>
            <ns3:atemp>29.0</ns3:atemp>
          </ns3:TrackPointExtension>
        </extensions>
      </trkpt>
      <trkpt lat="42.4509953521192073822021484375" lon="20.20645589567720890045166015625">
        <ele>1040</ele>
        <time>2026-06-20T12:37:53.000Z</time>
        <extensions>
          <ns3:TrackPointExtension>
            <ns3:atemp>29.0</ns3:atemp>
          </ns3:TrackPointExtension>
        </extensions>
      </trkpt>
      <trkpt lat="42.4509953521192073822021484375" lon="20.20645589567720890045166015625">
        <ele>1040</ele>
        <time>2026-06-20T12:37:54.000Z</time>
        <extensions>
          <ns3:TrackPointExtension>
            <ns3:atemp>29.0</ns3:atemp>
          </ns3:TrackPointExtension>
        </extensions>
      </trkpt>
      <trkpt lat="42.4509953521192073822021484375" lon="20.20645589567720890045166015625">
        <ele>1040</ele>
        <time>2026-06-20T12:37:55.000Z</time>
        <extensions>
          <ns3:TrackPointExtension>
            <ns3:atemp>29.0</ns3:atemp>
          </ns3:TrackPointExtension>
        </extensions>
      </trkpt>
      <trkpt lat="42.4509953521192073822021484375" lon="20.20645589567720890045166015625">
        <ele>1040</ele>
        <time>2026-06-20T12:37:56.000Z</time>
        <extensions>
          <ns3:TrackPointExtension>
            <ns3:atemp>29.0</ns3:atemp>
          </ns3:TrackPointExtension>
        </extensions>
      </trkpt>
      <trkpt lat="42.4509953521192073822021484375" lon="20.20645589567720890045166015625">
        <ele>1040</ele>
        <time>2026-06-20T12:37:57.000Z</time>
        <extensions>
          <ns3:TrackPointExtension>
            <ns3:atemp>29.0</ns3:atemp>
          </ns3:TrackPointExtension>
        </extensions>
      </trkpt>
      <trkpt lat="42.4509953521192073822021484375" lon="20.20645589567720890045166015625">
        <ele>1040</ele>
        <time>2026-06-20T12:37:58.000Z</time>
        <extensions>
          <ns3:TrackPointExtension>
            <ns3:atemp>29.0</ns3:atemp>
          </ns3:TrackPointExtension>
        </extensions>
      </trkpt>
      <trkpt lat="42.4509953521192073822021484375" lon="20.20645589567720890045166015625">
        <ele>1040</ele>
        <time>2026-06-20T12:37:59.000Z</time>
        <extensions>
          <ns3:TrackPointExtension>
            <ns3:atemp>29.0</ns3:atemp>
          </ns3:TrackPointExtension>
        </extensions>
      </trkpt>
      <trkpt lat="42.4509953521192073822021484375" lon="20.20645589567720890045166015625">
        <ele>1040</ele>
        <time>2026-06-20T12:38:00.000Z</time>
        <extensions>
          <ns3:TrackPointExtension>
            <ns3:atemp>29.0</ns3:atemp>
          </ns3:TrackPointExtension>
        </extensions>
      </trkpt>
      <trkpt lat="42.4509953521192073822021484375" lon="20.20645589567720890045166015625">
        <ele>1040</ele>
        <time>2026-06-20T12:38:01.000Z</time>
        <extensions>
          <ns3:TrackPointExtension>
            <ns3:atemp>29.0</ns3:atemp>
          </ns3:TrackPointExtension>
        </extensions>
      </trkpt>
      <trkpt lat="42.4509953521192073822021484375" lon="20.20645589567720890045166015625">
        <ele>1040</ele>
        <time>2026-06-20T12:38:02.000Z</time>
        <extensions>
          <ns3:TrackPointExtension>
            <ns3:atemp>29.0</ns3:atemp>
          </ns3:TrackPointExtension>
        </extensions>
      </trkpt>
      <trkpt lat="42.4509953521192073822021484375" lon="20.20645589567720890045166015625">
        <ele>1040</ele>
        <time>2026-06-20T12:38:03.000Z</time>
        <extensions>
          <ns3:TrackPointExtension>
            <ns3:atemp>29.0</ns3:atemp>
          </ns3:TrackPointExtension>
        </extensions>
      </trkpt>
      <trkpt lat="42.4509953521192073822021484375" lon="20.20645589567720890045166015625">
        <ele>1040</ele>
        <time>2026-06-20T12:38:04.000Z</time>
        <extensions>
          <ns3:TrackPointExtension>
            <ns3:atemp>29.0</ns3:atemp>
          </ns3:TrackPointExtension>
        </extensions>
      </trkpt>
      <trkpt lat="42.4509953521192073822021484375" lon="20.20645589567720890045166015625">
        <ele>1040</ele>
        <time>2026-06-20T12:38:05.000Z</time>
        <extensions>
          <ns3:TrackPointExtension>
            <ns3:atemp>29.0</ns3:atemp>
          </ns3:TrackPointExtension>
        </extensions>
      </trkpt>
      <trkpt lat="42.4509953521192073822021484375" lon="20.20645589567720890045166015625">
        <ele>1040</ele>
        <time>2026-06-20T12:38:06.000Z</time>
        <extensions>
          <ns3:TrackPointExtension>
            <ns3:atemp>29.0</ns3:atemp>
          </ns3:TrackPointExtension>
        </extensions>
      </trkpt>
      <trkpt lat="42.4509953521192073822021484375" lon="20.20645589567720890045166015625">
        <ele>1040</ele>
        <time>2026-06-20T12:38:07.000Z</time>
        <extensions>
          <ns3:TrackPointExtension>
            <ns3:atemp>29.0</ns3:atemp>
          </ns3:TrackPointExtension>
        </extensions>
      </trkpt>
      <trkpt lat="42.4509953521192073822021484375" lon="20.20645589567720890045166015625">
        <ele>1040</ele>
        <time>2026-06-20T12:38:08.000Z</time>
        <extensions>
          <ns3:TrackPointExtension>
            <ns3:atemp>29.0</ns3:atemp>
          </ns3:TrackPointExtension>
        </extensions>
      </trkpt>
      <trkpt lat="42.4509953521192073822021484375" lon="20.20645589567720890045166015625">
        <ele>1040</ele>
        <time>2026-06-20T12:38:09.000Z</time>
        <extensions>
          <ns3:TrackPointExtension>
            <ns3:atemp>29.0</ns3:atemp>
          </ns3:TrackPointExtension>
        </extensions>
      </trkpt>
      <trkpt lat="42.4509953521192073822021484375" lon="20.20645589567720890045166015625">
        <ele>1040</ele>
        <time>2026-06-20T12:38:10.000Z</time>
        <extensions>
          <ns3:TrackPointExtension>
            <ns3:atemp>29.0</ns3:atemp>
          </ns3:TrackPointExtension>
        </extensions>
      </trkpt>
      <trkpt lat="42.4509953521192073822021484375" lon="20.20645589567720890045166015625">
        <ele>1040</ele>
        <time>2026-06-20T12:38:11.000Z</time>
        <extensions>
          <ns3:TrackPointExtension>
            <ns3:atemp>29.0</ns3:atemp>
          </ns3:TrackPointExtension>
        </extensions>
      </trkpt>
      <trkpt lat="42.4509953521192073822021484375" lon="20.20645589567720890045166015625">
        <ele>1040</ele>
        <time>2026-06-20T12:38:12.000Z</time>
        <extensions>
          <ns3:TrackPointExtension>
            <ns3:atemp>29.0</ns3:atemp>
          </ns3:TrackPointExtension>
        </extensions>
      </trkpt>
      <trkpt lat="42.4509953521192073822021484375" lon="20.20645589567720890045166015625">
        <ele>1040</ele>
        <time>2026-06-20T12:38:13.000Z</time>
        <extensions>
          <ns3:TrackPointExtension>
            <ns3:atemp>29.0</ns3:atemp>
          </ns3:TrackPointExtension>
        </extensions>
      </trkpt>
      <trkpt lat="42.4509953521192073822021484375" lon="20.20645589567720890045166015625">
        <ele>1040</ele>
        <time>2026-06-20T12:38:14.000Z</time>
        <extensions>
          <ns3:TrackPointExtension>
            <ns3:atemp>29.0</ns3:atemp>
          </ns3:TrackPointExtension>
        </extensions>
      </trkpt>
      <trkpt lat="42.4509953521192073822021484375" lon="20.20645589567720890045166015625">
        <ele>1040</ele>
        <time>2026-06-20T12:38:15.000Z</time>
        <extensions>
          <ns3:TrackPointExtension>
            <ns3:atemp>29.0</ns3:atemp>
          </ns3:TrackPointExtension>
        </extensions>
      </trkpt>
      <trkpt lat="42.4509953521192073822021484375" lon="20.20645589567720890045166015625">
        <ele>1040</ele>
        <time>2026-06-20T12:38:16.000Z</time>
        <extensions>
          <ns3:TrackPointExtension>
            <ns3:atemp>29.0</ns3:atemp>
          </ns3:TrackPointExtension>
        </extensions>
      </trkpt>
      <trkpt lat="42.4509953521192073822021484375" lon="20.20645589567720890045166015625">
        <ele>1040</ele>
        <time>2026-06-20T12:38:17.000Z</time>
        <extensions>
          <ns3:TrackPointExtension>
            <ns3:atemp>29.0</ns3:atemp>
          </ns3:TrackPointExtension>
        </extensions>
      </trkpt>
      <trkpt lat="42.4509953521192073822021484375" lon="20.20645589567720890045166015625">
        <ele>1040</ele>
        <time>2026-06-20T12:38:18.000Z</time>
        <extensions>
          <ns3:TrackPointExtension>
            <ns3:atemp>29.0</ns3:atemp>
          </ns3:TrackPointExtension>
        </extensions>
      </trkpt>
      <trkpt lat="42.4509953521192073822021484375" lon="20.20645589567720890045166015625">
        <ele>1040</ele>
        <time>2026-06-20T12:38:19.000Z</time>
        <extensions>
          <ns3:TrackPointExtension>
            <ns3:atemp>29.0</ns3:atemp>
          </ns3:TrackPointExtension>
        </extensions>
      </trkpt>
      <trkpt lat="42.4509953521192073822021484375" lon="20.20645589567720890045166015625">
        <ele>1040</ele>
        <time>2026-06-20T12:38:20.000Z</time>
        <extensions>
          <ns3:TrackPointExtension>
            <ns3:atemp>29.0</ns3:atemp>
          </ns3:TrackPointExtension>
        </extensions>
      </trkpt>
      <trkpt lat="42.4509953521192073822021484375" lon="20.20645589567720890045166015625">
        <ele>1040</ele>
        <time>2026-06-20T12:38:21.000Z</time>
        <extensions>
          <ns3:TrackPointExtension>
            <ns3:atemp>29.0</ns3:atemp>
          </ns3:TrackPointExtension>
        </extensions>
      </trkpt>
      <trkpt lat="42.4509953521192073822021484375" lon="20.20645589567720890045166015625">
        <ele>1040</ele>
        <time>2026-06-20T12:38:22.000Z</time>
        <extensions>
          <ns3:TrackPointExtension>
            <ns3:atemp>29.0</ns3:atemp>
          </ns3:TrackPointExtension>
        </extensions>
      </trkpt>
      <trkpt lat="42.4509953521192073822021484375" lon="20.20645589567720890045166015625">
        <ele>1040</ele>
        <time>2026-06-20T12:38:23.000Z</time>
        <extensions>
          <ns3:TrackPointExtension>
            <ns3:atemp>29.0</ns3:atemp>
          </ns3:TrackPointExtension>
        </extensions>
      </trkpt>
      <trkpt lat="42.4509953521192073822021484375" lon="20.20645589567720890045166015625">
        <ele>1040</ele>
        <time>2026-06-20T12:38:24.000Z</time>
        <extensions>
          <ns3:TrackPointExtension>
            <ns3:atemp>29.0</ns3:atemp>
          </ns3:TrackPointExtension>
        </extensions>
      </trkpt>
      <trkpt lat="42.4509953521192073822021484375" lon="20.20645589567720890045166015625">
        <ele>1040</ele>
        <time>2026-06-20T12:38:25.000Z</time>
        <extensions>
          <ns3:TrackPointExtension>
            <ns3:atemp>29.0</ns3:atemp>
          </ns3:TrackPointExtension>
        </extensions>
      </trkpt>
      <trkpt lat="42.4509953521192073822021484375" lon="20.20645589567720890045166015625">
        <ele>1040</ele>
        <time>2026-06-20T12:38:26.000Z</time>
        <extensions>
          <ns3:TrackPointExtension>
            <ns3:atemp>29.0</ns3:atemp>
          </ns3:TrackPointExtension>
        </extensions>
      </trkpt>
      <trkpt lat="42.4509953521192073822021484375" lon="20.20645589567720890045166015625">
        <ele>1040</ele>
        <time>2026-06-20T12:38:27.000Z</time>
        <extensions>
          <ns3:TrackPointExtension>
            <ns3:atemp>29.0</ns3:atemp>
          </ns3:TrackPointExtension>
        </extensions>
      </trkpt>
      <trkpt lat="42.4509953521192073822021484375" lon="20.20645589567720890045166015625">
        <ele>1040</ele>
        <time>2026-06-20T12:38:28.000Z</time>
        <extensions>
          <ns3:TrackPointExtension>
            <ns3:atemp>29.0</ns3:atemp>
          </ns3:TrackPointExtension>
        </extensions>
      </trkpt>
      <trkpt lat="42.4509953521192073822021484375" lon="20.20645589567720890045166015625">
        <ele>1040</ele>
        <time>2026-06-20T12:38:29.000Z</time>
        <extensions>
          <ns3:TrackPointExtension>
            <ns3:atemp>29.0</ns3:atemp>
          </ns3:TrackPointExtension>
        </extensions>
      </trkpt>
      <trkpt lat="42.4509953521192073822021484375" lon="20.20645589567720890045166015625">
        <ele>1040</ele>
        <time>2026-06-20T12:38:30.000Z</time>
        <extensions>
          <ns3:TrackPointExtension>
            <ns3:atemp>29.0</ns3:atemp>
          </ns3:TrackPointExtension>
        </extensions>
      </trkpt>
      <trkpt lat="42.4509953521192073822021484375" lon="20.20645589567720890045166015625">
        <ele>1040</ele>
        <time>2026-06-20T12:38:31.000Z</time>
        <extensions>
          <ns3:TrackPointExtension>
            <ns3:atemp>29.0</ns3:atemp>
          </ns3:TrackPointExtension>
        </extensions>
      </trkpt>
      <trkpt lat="42.4509953521192073822021484375" lon="20.20645589567720890045166015625">
        <ele>1040</ele>
        <time>2026-06-20T12:38:32.000Z</time>
        <extensions>
          <ns3:TrackPointExtension>
            <ns3:atemp>29.0</ns3:atemp>
          </ns3:TrackPointExtension>
        </extensions>
      </trkpt>
      <trkpt lat="42.4509953521192073822021484375" lon="20.20645589567720890045166015625">
        <ele>1040</ele>
        <time>2026-06-20T12:38:33.000Z</time>
        <extensions>
          <ns3:TrackPointExtension>
            <ns3:atemp>29.0</ns3:atemp>
          </ns3:TrackPointExtension>
        </extensions>
      </trkpt>
      <trkpt lat="42.4509953521192073822021484375" lon="20.20645589567720890045166015625">
        <ele>1040</ele>
        <time>2026-06-20T12:38:34.000Z</time>
        <extensions>
          <ns3:TrackPointExtension>
            <ns3:atemp>29.0</ns3:atemp>
          </ns3:TrackPointExtension>
        </extensions>
      </trkpt>
      <trkpt lat="42.4509953521192073822021484375" lon="20.20645589567720890045166015625">
        <ele>1040</ele>
        <time>2026-06-20T12:38:35.000Z</time>
        <extensions>
          <ns3:TrackPointExtension>
            <ns3:atemp>29.0</ns3:atemp>
          </ns3:TrackPointExtension>
        </extensions>
      </trkpt>
      <trkpt lat="42.4509953521192073822021484375" lon="20.20645589567720890045166015625">
        <ele>1040</ele>
        <time>2026-06-20T12:38:36.000Z</time>
        <extensions>
          <ns3:TrackPointExtension>
            <ns3:atemp>29.0</ns3:atemp>
          </ns3:TrackPointExtension>
        </extensions>
      </trkpt>
      <trkpt lat="42.4509953521192073822021484375" lon="20.20645589567720890045166015625">
        <ele>1040</ele>
        <time>2026-06-20T12:38:37.000Z</time>
        <extensions>
          <ns3:TrackPointExtension>
            <ns3:atemp>29.0</ns3:atemp>
          </ns3:TrackPointExtension>
        </extensions>
      </trkpt>
      <trkpt lat="42.4509953521192073822021484375" lon="20.20645589567720890045166015625">
        <ele>1040</ele>
        <time>2026-06-20T12:38:38.000Z</time>
        <extensions>
          <ns3:TrackPointExtension>
            <ns3:atemp>29.0</ns3:atemp>
          </ns3:TrackPointExtension>
        </extensions>
      </trkpt>
      <trkpt lat="42.4509953521192073822021484375" lon="20.20645589567720890045166015625">
        <ele>1040</ele>
        <time>2026-06-20T12:38:39.000Z</time>
        <extensions>
          <ns3:TrackPointExtension>
            <ns3:atemp>29.0</ns3:atemp>
          </ns3:TrackPointExtension>
        </extensions>
      </trkpt>
      <trkpt lat="42.4509953521192073822021484375" lon="20.20645589567720890045166015625">
        <ele>1040</ele>
        <time>2026-06-20T12:38:40.000Z</time>
        <extensions>
          <ns3:TrackPointExtension>
            <ns3:atemp>29.0</ns3:atemp>
          </ns3:TrackPointExtension>
        </extensions>
      </trkpt>
      <trkpt lat="42.4509953521192073822021484375" lon="20.20645589567720890045166015625">
        <ele>1040</ele>
        <time>2026-06-20T12:38:41.000Z</time>
        <extensions>
          <ns3:TrackPointExtension>
            <ns3:atemp>29.0</ns3:atemp>
          </ns3:TrackPointExtension>
        </extensions>
      </trkpt>
      <trkpt lat="42.4509953521192073822021484375" lon="20.20645589567720890045166015625">
        <ele>1040</ele>
        <time>2026-06-20T12:38:42.000Z</time>
        <extensions>
          <ns3:TrackPointExtension>
            <ns3:atemp>29.0</ns3:atemp>
          </ns3:TrackPointExtension>
        </extensions>
      </trkpt>
      <trkpt lat="42.4509953521192073822021484375" lon="20.20645589567720890045166015625">
        <ele>1040</ele>
        <time>2026-06-20T12:38:43.000Z</time>
        <extensions>
          <ns3:TrackPointExtension>
            <ns3:atemp>29.0</ns3:atemp>
          </ns3:TrackPointExtension>
        </extensions>
      </trkpt>
      <trkpt lat="42.4509953521192073822021484375" lon="20.20645589567720890045166015625">
        <ele>1040</ele>
        <time>2026-06-20T12:38:44.000Z</time>
        <extensions>
          <ns3:TrackPointExtension>
            <ns3:atemp>29.0</ns3:atemp>
          </ns3:TrackPointExtension>
        </extensions>
      </trkpt>
      <trkpt lat="42.4509953521192073822021484375" lon="20.20645589567720890045166015625">
        <ele>1040</ele>
        <time>2026-06-20T12:38:45.000Z</time>
        <extensions>
          <ns3:TrackPointExtension>
            <ns3:atemp>29.0</ns3:atemp>
          </ns3:TrackPointExtension>
        </extensions>
      </trkpt>
      <trkpt lat="42.4509953521192073822021484375" lon="20.20645589567720890045166015625">
        <ele>1040</ele>
        <time>2026-06-20T12:38:46.000Z</time>
        <extensions>
          <ns3:TrackPointExtension>
            <ns3:atemp>29.0</ns3:atemp>
          </ns3:TrackPointExtension>
        </extensions>
      </trkpt>
      <trkpt lat="42.4509953521192073822021484375" lon="20.20645589567720890045166015625">
        <ele>1040</ele>
        <time>2026-06-20T12:38:47.000Z</time>
        <extensions>
          <ns3:TrackPointExtension>
            <ns3:atemp>29.0</ns3:atemp>
          </ns3:TrackPointExtension>
        </extensions>
      </trkpt>
      <trkpt lat="42.4509953521192073822021484375" lon="20.20645589567720890045166015625">
        <ele>1040</ele>
        <time>2026-06-20T12:38:48.000Z</time>
        <extensions>
          <ns3:TrackPointExtension>
            <ns3:atemp>29.0</ns3:atemp>
          </ns3:TrackPointExtension>
        </extensions>
      </trkpt>
      <trkpt lat="42.4509953521192073822021484375" lon="20.20645589567720890045166015625">
        <ele>1040</ele>
        <time>2026-06-20T12:38:49.000Z</time>
        <extensions>
          <ns3:TrackPointExtension>
            <ns3:atemp>29.0</ns3:atemp>
          </ns3:TrackPointExtension>
        </extensions>
      </trkpt>
      <trkpt lat="42.4509953521192073822021484375" lon="20.20645589567720890045166015625">
        <ele>1040</ele>
        <time>2026-06-20T12:38:50.000Z</time>
        <extensions>
          <ns3:TrackPointExtension>
            <ns3:atemp>29.0</ns3:atemp>
          </ns3:TrackPointExtension>
        </extensions>
      </trkpt>
      <trkpt lat="42.4509953521192073822021484375" lon="20.20645589567720890045166015625">
        <ele>1040</ele>
        <time>2026-06-20T12:38:51.000Z</time>
        <extensions>
          <ns3:TrackPointExtension>
            <ns3:atemp>29.0</ns3:atemp>
          </ns3:TrackPointExtension>
        </extensions>
      </trkpt>
      <trkpt lat="42.4509953521192073822021484375" lon="20.20645589567720890045166015625">
        <ele>1040</ele>
        <time>2026-06-20T12:38:52.000Z</time>
        <extensions>
          <ns3:TrackPointExtension>
            <ns3:atemp>29.0</ns3:atemp>
          </ns3:TrackPointExtension>
        </extensions>
      </trkpt>
      <trkpt lat="42.4509953521192073822021484375" lon="20.20645589567720890045166015625">
        <ele>1040</ele>
        <time>2026-06-20T12:38:53.000Z</time>
        <extensions>
          <ns3:TrackPointExtension>
            <ns3:atemp>29.0</ns3:atemp>
          </ns3:TrackPointExtension>
        </extensions>
      </trkpt>
      <trkpt lat="42.4509953521192073822021484375" lon="20.20645589567720890045166015625">
        <ele>1040</ele>
        <time>2026-06-20T12:38:54.000Z</time>
        <extensions>
          <ns3:TrackPointExtension>
            <ns3:atemp>29.0</ns3:atemp>
          </ns3:TrackPointExtension>
        </extensions>
      </trkpt>
      <trkpt lat="42.4509953521192073822021484375" lon="20.20645589567720890045166015625">
        <ele>1040</ele>
        <time>2026-06-20T12:38:55.000Z</time>
        <extensions>
          <ns3:TrackPointExtension>
            <ns3:atemp>29.0</ns3:atemp>
          </ns3:TrackPointExtension>
        </extensions>
      </trkpt>
      <trkpt lat="42.4509953521192073822021484375" lon="20.20645589567720890045166015625">
        <ele>1040</ele>
        <time>2026-06-20T12:38:56.000Z</time>
        <extensions>
          <ns3:TrackPointExtension>
            <ns3:atemp>29.0</ns3:atemp>
          </ns3:TrackPointExtension>
        </extensions>
      </trkpt>
      <trkpt lat="42.4509953521192073822021484375" lon="20.20645589567720890045166015625">
        <ele>1040</ele>
        <time>2026-06-20T12:38:57.000Z</time>
        <extensions>
          <ns3:TrackPointExtension>
            <ns3:atemp>29.0</ns3:atemp>
          </ns3:TrackPointExtension>
        </extensions>
      </trkpt>
      <trkpt lat="42.4509953521192073822021484375" lon="20.20645589567720890045166015625">
        <ele>1040</ele>
        <time>2026-06-20T12:38:58.000Z</time>
        <extensions>
          <ns3:TrackPointExtension>
            <ns3:atemp>29.0</ns3:atemp>
          </ns3:TrackPointExtension>
        </extensions>
      </trkpt>
      <trkpt lat="42.4509953521192073822021484375" lon="20.20645589567720890045166015625">
        <ele>1040</ele>
        <time>2026-06-20T12:38:59.000Z</time>
        <extensions>
          <ns3:TrackPointExtension>
            <ns3:atemp>29.0</ns3:atemp>
          </ns3:TrackPointExtension>
        </extensions>
      </trkpt>
      <trkpt lat="42.4509953521192073822021484375" lon="20.20645589567720890045166015625">
        <ele>1040</ele>
        <time>2026-06-20T12:39:00.000Z</time>
        <extensions>
          <ns3:TrackPointExtension>
            <ns3:atemp>29.0</ns3:atemp>
          </ns3:TrackPointExtension>
        </extensions>
      </trkpt>
      <trkpt lat="42.4509953521192073822021484375" lon="20.20645589567720890045166015625">
        <ele>1040</ele>
        <time>2026-06-20T12:39:01.000Z</time>
        <extensions>
          <ns3:TrackPointExtension>
            <ns3:atemp>29.0</ns3:atemp>
          </ns3:TrackPointExtension>
        </extensions>
      </trkpt>
      <trkpt lat="42.4509953521192073822021484375" lon="20.20645589567720890045166015625">
        <ele>1040</ele>
        <time>2026-06-20T12:39:02.000Z</time>
        <extensions>
          <ns3:TrackPointExtension>
            <ns3:atemp>29.0</ns3:atemp>
          </ns3:TrackPointExtension>
        </extensions>
      </trkpt>
      <trkpt lat="42.4509953521192073822021484375" lon="20.20645589567720890045166015625">
        <ele>1040</ele>
        <time>2026-06-20T12:39:03.000Z</time>
        <extensions>
          <ns3:TrackPointExtension>
            <ns3:atemp>29.0</ns3:atemp>
          </ns3:TrackPointExtension>
        </extensions>
      </trkpt>
      <trkpt lat="42.4509953521192073822021484375" lon="20.20645589567720890045166015625">
        <ele>1040</ele>
        <time>2026-06-20T12:39:04.000Z</time>
        <extensions>
          <ns3:TrackPointExtension>
            <ns3:atemp>29.0</ns3:atemp>
          </ns3:TrackPointExtension>
        </extensions>
      </trkpt>
      <trkpt lat="42.4509953521192073822021484375" lon="20.20645589567720890045166015625">
        <ele>1040</ele>
        <time>2026-06-20T12:39:05.000Z</time>
        <extensions>
          <ns3:TrackPointExtension>
            <ns3:atemp>29.0</ns3:atemp>
          </ns3:TrackPointExtension>
        </extensions>
      </trkpt>
      <trkpt lat="42.4509953521192073822021484375" lon="20.20645589567720890045166015625">
        <ele>1040</ele>
        <time>2026-06-20T12:39:06.000Z</time>
        <extensions>
          <ns3:TrackPointExtension>
            <ns3:atemp>29.0</ns3:atemp>
          </ns3:TrackPointExtension>
        </extensions>
      </trkpt>
      <trkpt lat="42.4509953521192073822021484375" lon="20.20645589567720890045166015625">
        <ele>1040</ele>
        <time>2026-06-20T12:39:07.000Z</time>
        <extensions>
          <ns3:TrackPointExtension>
            <ns3:atemp>29.0</ns3:atemp>
          </ns3:TrackPointExtension>
        </extensions>
      </trkpt>
      <trkpt lat="42.4509953521192073822021484375" lon="20.20645589567720890045166015625">
        <ele>1040</ele>
        <time>2026-06-20T12:39:08.000Z</time>
        <extensions>
          <ns3:TrackPointExtension>
            <ns3:atemp>29.0</ns3:atemp>
          </ns3:TrackPointExtension>
        </extensions>
      </trkpt>
      <trkpt lat="42.4509953521192073822021484375" lon="20.20645589567720890045166015625">
        <ele>1040</ele>
        <time>2026-06-20T12:39:09.000Z</time>
        <extensions>
          <ns3:TrackPointExtension>
            <ns3:atemp>29.0</ns3:atemp>
          </ns3:TrackPointExtension>
        </extensions>
      </trkpt>
      <trkpt lat="42.4509953521192073822021484375" lon="20.20645589567720890045166015625">
        <ele>1040</ele>
        <time>2026-06-20T12:39:10.000Z</time>
        <extensions>
          <ns3:TrackPointExtension>
            <ns3:atemp>29.0</ns3:atemp>
          </ns3:TrackPointExtension>
        </extensions>
      </trkpt>
      <trkpt lat="42.4509953521192073822021484375" lon="20.20645589567720890045166015625">
        <ele>1040</ele>
        <time>2026-06-20T12:39:11.000Z</time>
        <extensions>
          <ns3:TrackPointExtension>
            <ns3:atemp>29.0</ns3:atemp>
          </ns3:TrackPointExtension>
        </extensions>
      </trkpt>
      <trkpt lat="42.4509953521192073822021484375" lon="20.20645589567720890045166015625">
        <ele>1040</ele>
        <time>2026-06-20T12:39:12.000Z</time>
        <extensions>
          <ns3:TrackPointExtension>
            <ns3:atemp>29.0</ns3:atemp>
          </ns3:TrackPointExtension>
        </extensions>
      </trkpt>
      <trkpt lat="42.4509953521192073822021484375" lon="20.20645589567720890045166015625">
        <ele>1040</ele>
        <time>2026-06-20T12:39:13.000Z</time>
        <extensions>
          <ns3:TrackPointExtension>
            <ns3:atemp>29.0</ns3:atemp>
          </ns3:TrackPointExtension>
        </extensions>
      </trkpt>
      <trkpt lat="42.4509953521192073822021484375" lon="20.20645589567720890045166015625">
        <ele>1040</ele>
        <time>2026-06-20T12:39:14.000Z</time>
        <extensions>
          <ns3:TrackPointExtension>
            <ns3:atemp>29.0</ns3:atemp>
          </ns3:TrackPointExtension>
        </extensions>
      </trkpt>
      <trkpt lat="42.4509953521192073822021484375" lon="20.20645589567720890045166015625">
        <ele>1040</ele>
        <time>2026-06-20T12:39:15.000Z</time>
        <extensions>
          <ns3:TrackPointExtension>
            <ns3:atemp>29.0</ns3:atemp>
          </ns3:TrackPointExtension>
        </extensions>
      </trkpt>
      <trkpt lat="42.4509953521192073822021484375" lon="20.20645589567720890045166015625">
        <ele>1040</ele>
        <time>2026-06-20T12:39:16.000Z</time>
        <extensions>
          <ns3:TrackPointExtension>
            <ns3:atemp>29.0</ns3:atemp>
          </ns3:TrackPointExtension>
        </extensions>
      </trkpt>
      <trkpt lat="42.4509953521192073822021484375" lon="20.20645589567720890045166015625">
        <ele>1040</ele>
        <time>2026-06-20T12:39:17.000Z</time>
        <extensions>
          <ns3:TrackPointExtension>
            <ns3:atemp>29.0</ns3:atemp>
          </ns3:TrackPointExtension>
        </extensions>
      </trkpt>
      <trkpt lat="42.4509953521192073822021484375" lon="20.20645589567720890045166015625">
        <ele>1040</ele>
        <time>2026-06-20T12:39:18.000Z</time>
        <extensions>
          <ns3:TrackPointExtension>
            <ns3:atemp>29.0</ns3:atemp>
          </ns3:TrackPointExtension>
        </extensions>
      </trkpt>
      <trkpt lat="42.4509953521192073822021484375" lon="20.20645589567720890045166015625">
        <ele>1040</ele>
        <time>2026-06-20T12:39:19.000Z</time>
        <extensions>
          <ns3:TrackPointExtension>
            <ns3:atemp>29.0</ns3:atemp>
          </ns3:TrackPointExtension>
        </extensions>
      </trkpt>
      <trkpt lat="42.4509953521192073822021484375" lon="20.20645589567720890045166015625">
        <ele>1040</ele>
        <time>2026-06-20T12:39:20.000Z</time>
        <extensions>
          <ns3:TrackPointExtension>
            <ns3:atemp>29.0</ns3:atemp>
          </ns3:TrackPointExtension>
        </extensions>
      </trkpt>
      <trkpt lat="42.4509953521192073822021484375" lon="20.20645589567720890045166015625">
        <ele>1040</ele>
        <time>2026-06-20T12:39:21.000Z</time>
        <extensions>
          <ns3:TrackPointExtension>
            <ns3:atemp>29.0</ns3:atemp>
          </ns3:TrackPointExtension>
        </extensions>
      </trkpt>
      <trkpt lat="42.4509953521192073822021484375" lon="20.20645589567720890045166015625">
        <ele>1040</ele>
        <time>2026-06-20T12:39:22.000Z</time>
        <extensions>
          <ns3:TrackPointExtension>
            <ns3:atemp>29.0</ns3:atemp>
          </ns3:TrackPointExtension>
        </extensions>
      </trkpt>
      <trkpt lat="42.4509953521192073822021484375" lon="20.20645589567720890045166015625">
        <ele>1040</ele>
        <time>2026-06-20T12:39:23.000Z</time>
        <extensions>
          <ns3:TrackPointExtension>
            <ns3:atemp>29.0</ns3:atemp>
          </ns3:TrackPointExtension>
        </extensions>
      </trkpt>
      <trkpt lat="42.4509953521192073822021484375" lon="20.20645589567720890045166015625">
        <ele>1040</ele>
        <time>2026-06-20T12:39:24.000Z</time>
        <extensions>
          <ns3:TrackPointExtension>
            <ns3:atemp>29.0</ns3:atemp>
          </ns3:TrackPointExtension>
        </extensions>
      </trkpt>
      <trkpt lat="42.4509953521192073822021484375" lon="20.20645589567720890045166015625">
        <ele>1040</ele>
        <time>2026-06-20T12:39:25.000Z</time>
        <extensions>
          <ns3:TrackPointExtension>
            <ns3:atemp>29.0</ns3:atemp>
          </ns3:TrackPointExtension>
        </extensions>
      </trkpt>
      <trkpt lat="42.4509953521192073822021484375" lon="20.20645589567720890045166015625">
        <ele>1040</ele>
        <time>2026-06-20T12:39:26.000Z</time>
        <extensions>
          <ns3:TrackPointExtension>
            <ns3:atemp>29.0</ns3:atemp>
          </ns3:TrackPointExtension>
        </extensions>
      </trkpt>
      <trkpt lat="42.4509953521192073822021484375" lon="20.20645589567720890045166015625">
        <ele>1040</ele>
        <time>2026-06-20T12:39:27.000Z</time>
        <extensions>
          <ns3:TrackPointExtension>
            <ns3:atemp>30.0</ns3:atemp>
          </ns3:TrackPointExtension>
        </extensions>
      </trkpt>
      <trkpt lat="42.4509953521192073822021484375" lon="20.20645589567720890045166015625">
        <ele>1040</ele>
        <time>2026-06-20T12:39:28.000Z</time>
        <extensions>
          <ns3:TrackPointExtension>
            <ns3:atemp>30.0</ns3:atemp>
          </ns3:TrackPointExtension>
        </extensions>
      </trkpt>
      <trkpt lat="42.4509953521192073822021484375" lon="20.20645589567720890045166015625">
        <ele>1040</ele>
        <time>2026-06-20T12:39:29.000Z</time>
        <extensions>
          <ns3:TrackPointExtension>
            <ns3:atemp>30.0</ns3:atemp>
          </ns3:TrackPointExtension>
        </extensions>
      </trkpt>
      <trkpt lat="42.4509953521192073822021484375" lon="20.20645589567720890045166015625">
        <ele>1040</ele>
        <time>2026-06-20T12:39:30.000Z</time>
        <extensions>
          <ns3:TrackPointExtension>
            <ns3:atemp>29.0</ns3:atemp>
          </ns3:TrackPointExtension>
        </extensions>
      </trkpt>
      <trkpt lat="42.4509953521192073822021484375" lon="20.20645589567720890045166015625">
        <ele>1040</ele>
        <time>2026-06-20T12:39:31.000Z</time>
        <extensions>
          <ns3:TrackPointExtension>
            <ns3:atemp>29.0</ns3:atemp>
          </ns3:TrackPointExtension>
        </extensions>
      </trkpt>
      <trkpt lat="42.4509953521192073822021484375" lon="20.20645589567720890045166015625">
        <ele>1040</ele>
        <time>2026-06-20T12:39:32.000Z</time>
        <extensions>
          <ns3:TrackPointExtension>
            <ns3:atemp>29.0</ns3:atemp>
          </ns3:TrackPointExtension>
        </extensions>
      </trkpt>
      <trkpt lat="42.4509953521192073822021484375" lon="20.20645589567720890045166015625">
        <ele>1040</ele>
        <time>2026-06-20T12:39:33.000Z</time>
        <extensions>
          <ns3:TrackPointExtension>
            <ns3:atemp>30.0</ns3:atemp>
          </ns3:TrackPointExtension>
        </extensions>
      </trkpt>
      <trkpt lat="42.4509953521192073822021484375" lon="20.20645589567720890045166015625">
        <ele>1040</ele>
        <time>2026-06-20T12:39:34.000Z</time>
        <extensions>
          <ns3:TrackPointExtension>
            <ns3:atemp>30.0</ns3:atemp>
          </ns3:TrackPointExtension>
        </extensions>
      </trkpt>
      <trkpt lat="42.4509953521192073822021484375" lon="20.20645589567720890045166015625">
        <ele>1040</ele>
        <time>2026-06-20T12:39:35.000Z</time>
        <extensions>
          <ns3:TrackPointExtension>
            <ns3:atemp>30.0</ns3:atemp>
          </ns3:TrackPointExtension>
        </extensions>
      </trkpt>
      <trkpt lat="42.4509953521192073822021484375" lon="20.20645589567720890045166015625">
        <ele>1040</ele>
        <time>2026-06-20T12:39:36.000Z</time>
        <extensions>
          <ns3:TrackPointExtension>
            <ns3:atemp>30.0</ns3:atemp>
          </ns3:TrackPointExtension>
        </extensions>
      </trkpt>
      <trkpt lat="42.4509953521192073822021484375" lon="20.20645589567720890045166015625">
        <ele>1040</ele>
        <time>2026-06-20T12:39:37.000Z</time>
        <extensions>
          <ns3:TrackPointExtension>
            <ns3:atemp>30.0</ns3:atemp>
          </ns3:TrackPointExtension>
        </extensions>
      </trkpt>
      <trkpt lat="42.4509953521192073822021484375" lon="20.20645589567720890045166015625">
        <ele>1040</ele>
        <time>2026-06-20T12:39:38.000Z</time>
        <extensions>
          <ns3:TrackPointExtension>
            <ns3:atemp>30.0</ns3:atemp>
          </ns3:TrackPointExtension>
        </extensions>
      </trkpt>
      <trkpt lat="42.4509953521192073822021484375" lon="20.20645589567720890045166015625">
        <ele>1040</ele>
        <time>2026-06-20T12:39:39.000Z</time>
        <extensions>
          <ns3:TrackPointExtension>
            <ns3:atemp>30.0</ns3:atemp>
          </ns3:TrackPointExtension>
        </extensions>
      </trkpt>
      <trkpt lat="42.4509953521192073822021484375" lon="20.20645589567720890045166015625">
        <ele>1040</ele>
        <time>2026-06-20T12:39:40.000Z</time>
        <extensions>
          <ns3:TrackPointExtension>
            <ns3:atemp>30.0</ns3:atemp>
          </ns3:TrackPointExtension>
        </extensions>
      </trkpt>
      <trkpt lat="42.4509953521192073822021484375" lon="20.20645589567720890045166015625">
        <ele>1040</ele>
        <time>2026-06-20T12:39:41.000Z</time>
        <extensions>
          <ns3:TrackPointExtension>
            <ns3:atemp>30.0</ns3:atemp>
          </ns3:TrackPointExtension>
        </extensions>
      </trkpt>
      <trkpt lat="42.4509953521192073822021484375" lon="20.20645589567720890045166015625">
        <ele>1040</ele>
        <time>2026-06-20T12:39:42.000Z</time>
        <extensions>
          <ns3:TrackPointExtension>
            <ns3:atemp>30.0</ns3:atemp>
          </ns3:TrackPointExtension>
        </extensions>
      </trkpt>
      <trkpt lat="42.4509953521192073822021484375" lon="20.20645589567720890045166015625">
        <ele>1040</ele>
        <time>2026-06-20T12:39:43.000Z</time>
        <extensions>
          <ns3:TrackPointExtension>
            <ns3:atemp>30.0</ns3:atemp>
          </ns3:TrackPointExtension>
        </extensions>
      </trkpt>
      <trkpt lat="42.4509953521192073822021484375" lon="20.20645589567720890045166015625">
        <ele>1040</ele>
        <time>2026-06-20T12:39:44.000Z</time>
        <extensions>
          <ns3:TrackPointExtension>
            <ns3:atemp>30.0</ns3:atemp>
          </ns3:TrackPointExtension>
        </extensions>
      </trkpt>
      <trkpt lat="42.4509953521192073822021484375" lon="20.20645589567720890045166015625">
        <ele>1040</ele>
        <time>2026-06-20T12:39:45.000Z</time>
        <extensions>
          <ns3:TrackPointExtension>
            <ns3:atemp>30.0</ns3:atemp>
          </ns3:TrackPointExtension>
        </extensions>
      </trkpt>
      <trkpt lat="42.4509953521192073822021484375" lon="20.20645589567720890045166015625">
        <ele>1040</ele>
        <time>2026-06-20T12:39:46.000Z</time>
        <extensions>
          <ns3:TrackPointExtension>
            <ns3:atemp>30.0</ns3:atemp>
          </ns3:TrackPointExtension>
        </extensions>
      </trkpt>
      <trkpt lat="42.4509953521192073822021484375" lon="20.20645589567720890045166015625">
        <ele>1040</ele>
        <time>2026-06-20T12:39:47.000Z</time>
        <extensions>
          <ns3:TrackPointExtension>
            <ns3:atemp>30.0</ns3:atemp>
          </ns3:TrackPointExtension>
        </extensions>
      </trkpt>
      <trkpt lat="42.4509953521192073822021484375" lon="20.20645589567720890045166015625">
        <ele>1040</ele>
        <time>2026-06-20T12:39:48.000Z</time>
        <extensions>
          <ns3:TrackPointExtension>
            <ns3:atemp>30.0</ns3:atemp>
          </ns3:TrackPointExtension>
        </extensions>
      </trkpt>
      <trkpt lat="42.4509953521192073822021484375" lon="20.20645589567720890045166015625">
        <ele>1040</ele>
        <time>2026-06-20T12:39:49.000Z</time>
        <extensions>
          <ns3:TrackPointExtension>
            <ns3:atemp>30.0</ns3:atemp>
          </ns3:TrackPointExtension>
        </extensions>
      </trkpt>
      <trkpt lat="42.4509953521192073822021484375" lon="20.20645589567720890045166015625">
        <ele>1040</ele>
        <time>2026-06-20T12:39:50.000Z</time>
        <extensions>
          <ns3:TrackPointExtension>
            <ns3:atemp>30.0</ns3:atemp>
          </ns3:TrackPointExtension>
        </extensions>
      </trkpt>
      <trkpt lat="42.4509953521192073822021484375" lon="20.20645589567720890045166015625">
        <ele>1040</ele>
        <time>2026-06-20T12:39:51.000Z</time>
        <extensions>
          <ns3:TrackPointExtension>
            <ns3:atemp>30.0</ns3:atemp>
          </ns3:TrackPointExtension>
        </extensions>
      </trkpt>
      <trkpt lat="42.4509953521192073822021484375" lon="20.20645589567720890045166015625">
        <ele>1040</ele>
        <time>2026-06-20T12:39:52.000Z</time>
        <extensions>
          <ns3:TrackPointExtension>
            <ns3:atemp>30.0</ns3:atemp>
          </ns3:TrackPointExtension>
        </extensions>
      </trkpt>
      <trkpt lat="42.4509953521192073822021484375" lon="20.20645589567720890045166015625">
        <ele>1040</ele>
        <time>2026-06-20T12:39:53.000Z</time>
        <extensions>
          <ns3:TrackPointExtension>
            <ns3:atemp>30.0</ns3:atemp>
          </ns3:TrackPointExtension>
        </extensions>
      </trkpt>
      <trkpt lat="42.4509953521192073822021484375" lon="20.20645589567720890045166015625">
        <ele>1040</ele>
        <time>2026-06-20T12:39:54.000Z</time>
        <extensions>
          <ns3:TrackPointExtension>
            <ns3:atemp>30.0</ns3:atemp>
          </ns3:TrackPointExtension>
        </extensions>
      </trkpt>
      <trkpt lat="42.4509953521192073822021484375" lon="20.20645589567720890045166015625">
        <ele>1040</ele>
        <time>2026-06-20T12:39:55.000Z</time>
        <extensions>
          <ns3:TrackPointExtension>
            <ns3:atemp>30.0</ns3:atemp>
          </ns3:TrackPointExtension>
        </extensions>
      </trkpt>
      <trkpt lat="42.4509953521192073822021484375" lon="20.20645589567720890045166015625">
        <ele>1040</ele>
        <time>2026-06-20T12:39:56.000Z</time>
        <extensions>
          <ns3:TrackPointExtension>
            <ns3:atemp>30.0</ns3:atemp>
          </ns3:TrackPointExtension>
        </extensions>
      </trkpt>
      <trkpt lat="42.4509953521192073822021484375" lon="20.20645589567720890045166015625">
        <ele>1040</ele>
        <time>2026-06-20T12:39:57.000Z</time>
        <extensions>
          <ns3:TrackPointExtension>
            <ns3:atemp>30.0</ns3:atemp>
          </ns3:TrackPointExtension>
        </extensions>
      </trkpt>
      <trkpt lat="42.4509953521192073822021484375" lon="20.20645589567720890045166015625">
        <ele>1040</ele>
        <time>2026-06-20T12:39:58.000Z</time>
        <extensions>
          <ns3:TrackPointExtension>
            <ns3:atemp>30.0</ns3:atemp>
          </ns3:TrackPointExtension>
        </extensions>
      </trkpt>
      <trkpt lat="42.4509953521192073822021484375" lon="20.20645589567720890045166015625">
        <ele>1040</ele>
        <time>2026-06-20T12:39:59.000Z</time>
        <extensions>
          <ns3:TrackPointExtension>
            <ns3:atemp>30.0</ns3:atemp>
          </ns3:TrackPointExtension>
        </extensions>
      </trkpt>
      <trkpt lat="42.4509953521192073822021484375" lon="20.20645589567720890045166015625">
        <ele>1040</ele>
        <time>2026-06-20T12:40:00.000Z</time>
        <extensions>
          <ns3:TrackPointExtension>
            <ns3:atemp>30.0</ns3:atemp>
          </ns3:TrackPointExtension>
        </extensions>
      </trkpt>
      <trkpt lat="42.4509953521192073822021484375" lon="20.20645589567720890045166015625">
        <ele>1040</ele>
        <time>2026-06-20T12:40:01.000Z</time>
        <extensions>
          <ns3:TrackPointExtension>
            <ns3:atemp>30.0</ns3:atemp>
          </ns3:TrackPointExtension>
        </extensions>
      </trkpt>
      <trkpt lat="42.4509953521192073822021484375" lon="20.20645589567720890045166015625">
        <ele>1040</ele>
        <time>2026-06-20T12:40:02.000Z</time>
        <extensions>
          <ns3:TrackPointExtension>
            <ns3:atemp>30.0</ns3:atemp>
          </ns3:TrackPointExtension>
        </extensions>
      </trkpt>
      <trkpt lat="42.4509953521192073822021484375" lon="20.20645589567720890045166015625">
        <ele>1040</ele>
        <time>2026-06-20T12:40:03.000Z</time>
        <extensions>
          <ns3:TrackPointExtension>
            <ns3:atemp>30.0</ns3:atemp>
          </ns3:TrackPointExtension>
        </extensions>
      </trkpt>
      <trkpt lat="42.4509953521192073822021484375" lon="20.20645589567720890045166015625">
        <ele>1040</ele>
        <time>2026-06-20T12:40:04.000Z</time>
        <extensions>
          <ns3:TrackPointExtension>
            <ns3:atemp>30.0</ns3:atemp>
          </ns3:TrackPointExtension>
        </extensions>
      </trkpt>
      <trkpt lat="42.4509953521192073822021484375" lon="20.20645589567720890045166015625">
        <ele>1040</ele>
        <time>2026-06-20T12:40:05.000Z</time>
        <extensions>
          <ns3:TrackPointExtension>
            <ns3:atemp>30.0</ns3:atemp>
          </ns3:TrackPointExtension>
        </extensions>
      </trkpt>
      <trkpt lat="42.4509953521192073822021484375" lon="20.20645589567720890045166015625">
        <ele>1040</ele>
        <time>2026-06-20T12:40:06.000Z</time>
        <extensions>
          <ns3:TrackPointExtension>
            <ns3:atemp>30.0</ns3:atemp>
          </ns3:TrackPointExtension>
        </extensions>
      </trkpt>
      <trkpt lat="42.4509953521192073822021484375" lon="20.20645589567720890045166015625">
        <ele>1040</ele>
        <time>2026-06-20T12:40:07.000Z</time>
        <extensions>
          <ns3:TrackPointExtension>
            <ns3:atemp>30.0</ns3:atemp>
          </ns3:TrackPointExtension>
        </extensions>
      </trkpt>
      <trkpt lat="42.4509953521192073822021484375" lon="20.20645589567720890045166015625">
        <ele>1040</ele>
        <time>2026-06-20T12:40:08.000Z</time>
        <extensions>
          <ns3:TrackPointExtension>
            <ns3:atemp>30.0</ns3:atemp>
          </ns3:TrackPointExtension>
        </extensions>
      </trkpt>
      <trkpt lat="42.4509953521192073822021484375" lon="20.20645589567720890045166015625">
        <ele>1040</ele>
        <time>2026-06-20T12:40:09.000Z</time>
        <extensions>
          <ns3:TrackPointExtension>
            <ns3:atemp>30.0</ns3:atemp>
          </ns3:TrackPointExtension>
        </extensions>
      </trkpt>
      <trkpt lat="42.4509953521192073822021484375" lon="20.20645589567720890045166015625">
        <ele>1040</ele>
        <time>2026-06-20T12:40:10.000Z</time>
        <extensions>
          <ns3:TrackPointExtension>
            <ns3:atemp>30.0</ns3:atemp>
          </ns3:TrackPointExtension>
        </extensions>
      </trkpt>
      <trkpt lat="42.4509953521192073822021484375" lon="20.20645589567720890045166015625">
        <ele>1040</ele>
        <time>2026-06-20T12:40:11.000Z</time>
        <extensions>
          <ns3:TrackPointExtension>
            <ns3:atemp>30.0</ns3:atemp>
          </ns3:TrackPointExtension>
        </extensions>
      </trkpt>
      <trkpt lat="42.4509953521192073822021484375" lon="20.20645589567720890045166015625">
        <ele>1040</ele>
        <time>2026-06-20T12:40:12.000Z</time>
        <extensions>
          <ns3:TrackPointExtension>
            <ns3:atemp>30.0</ns3:atemp>
          </ns3:TrackPointExtension>
        </extensions>
      </trkpt>
      <trkpt lat="42.4509953521192073822021484375" lon="20.20645589567720890045166015625">
        <ele>1040</ele>
        <time>2026-06-20T12:40:13.000Z</time>
        <extensions>
          <ns3:TrackPointExtension>
            <ns3:atemp>30.0</ns3:atemp>
          </ns3:TrackPointExtension>
        </extensions>
      </trkpt>
      <trkpt lat="42.4509953521192073822021484375" lon="20.20645589567720890045166015625">
        <ele>1040</ele>
        <time>2026-06-20T12:40:14.000Z</time>
        <extensions>
          <ns3:TrackPointExtension>
            <ns3:atemp>30.0</ns3:atemp>
          </ns3:TrackPointExtension>
        </extensions>
      </trkpt>
      <trkpt lat="42.4509953521192073822021484375" lon="20.20645589567720890045166015625">
        <ele>1040</ele>
        <time>2026-06-20T12:40:15.000Z</time>
        <extensions>
          <ns3:TrackPointExtension>
            <ns3:atemp>30.0</ns3:atemp>
          </ns3:TrackPointExtension>
        </extensions>
      </trkpt>
      <trkpt lat="42.4509953521192073822021484375" lon="20.20645589567720890045166015625">
        <ele>1040</ele>
        <time>2026-06-20T12:40:16.000Z</time>
        <extensions>
          <ns3:TrackPointExtension>
            <ns3:atemp>30.0</ns3:atemp>
          </ns3:TrackPointExtension>
        </extensions>
      </trkpt>
      <trkpt lat="42.4509953521192073822021484375" lon="20.20645589567720890045166015625">
        <ele>1040</ele>
        <time>2026-06-20T12:40:17.000Z</time>
        <extensions>
          <ns3:TrackPointExtension>
            <ns3:atemp>30.0</ns3:atemp>
          </ns3:TrackPointExtension>
        </extensions>
      </trkpt>
      <trkpt lat="42.4509953521192073822021484375" lon="20.20645589567720890045166015625">
        <ele>1040</ele>
        <time>2026-06-20T12:40:18.000Z</time>
        <extensions>
          <ns3:TrackPointExtension>
            <ns3:atemp>30.0</ns3:atemp>
          </ns3:TrackPointExtension>
        </extensions>
      </trkpt>
      <trkpt lat="42.4509953521192073822021484375" lon="20.20645589567720890045166015625">
        <ele>1040</ele>
        <time>2026-06-20T12:40:19.000Z</time>
        <extensions>
          <ns3:TrackPointExtension>
            <ns3:atemp>30.0</ns3:atemp>
          </ns3:TrackPointExtension>
        </extensions>
      </trkpt>
      <trkpt lat="42.4509953521192073822021484375" lon="20.20645589567720890045166015625">
        <ele>1040</ele>
        <time>2026-06-20T12:40:20.000Z</time>
        <extensions>
          <ns3:TrackPointExtension>
            <ns3:atemp>30.0</ns3:atemp>
          </ns3:TrackPointExtension>
        </extensions>
      </trkpt>
      <trkpt lat="42.4509953521192073822021484375" lon="20.20645589567720890045166015625">
        <ele>1040</ele>
        <time>2026-06-20T12:40:21.000Z</time>
        <extensions>
          <ns3:TrackPointExtension>
            <ns3:atemp>30.0</ns3:atemp>
          </ns3:TrackPointExtension>
        </extensions>
      </trkpt>
      <trkpt lat="42.4509953521192073822021484375" lon="20.20645589567720890045166015625">
        <ele>1040</ele>
        <time>2026-06-20T12:40:22.000Z</time>
        <extensions>
          <ns3:TrackPointExtension>
            <ns3:atemp>30.0</ns3:atemp>
          </ns3:TrackPointExtension>
        </extensions>
      </trkpt>
      <trkpt lat="42.4509953521192073822021484375" lon="20.20645589567720890045166015625">
        <ele>1040</ele>
        <time>2026-06-20T12:40:23.000Z</time>
        <extensions>
          <ns3:TrackPointExtension>
            <ns3:atemp>30.0</ns3:atemp>
          </ns3:TrackPointExtension>
        </extensions>
      </trkpt>
      <trkpt lat="42.4509953521192073822021484375" lon="20.20645589567720890045166015625">
        <ele>1040</ele>
        <time>2026-06-20T12:40:24.000Z</time>
        <extensions>
          <ns3:TrackPointExtension>
            <ns3:atemp>30.0</ns3:atemp>
          </ns3:TrackPointExtension>
        </extensions>
      </trkpt>
      <trkpt lat="42.4509953521192073822021484375" lon="20.20645589567720890045166015625">
        <ele>1040</ele>
        <time>2026-06-20T12:40:25.000Z</time>
        <extensions>
          <ns3:TrackPointExtension>
            <ns3:atemp>30.0</ns3:atemp>
          </ns3:TrackPointExtension>
        </extensions>
      </trkpt>
      <trkpt lat="42.4509953521192073822021484375" lon="20.20645589567720890045166015625">
        <ele>1040</ele>
        <time>2026-06-20T12:40:26.000Z</time>
        <extensions>
          <ns3:TrackPointExtension>
            <ns3:atemp>30.0</ns3:atemp>
          </ns3:TrackPointExtension>
        </extensions>
      </trkpt>
      <trkpt lat="42.4509953521192073822021484375" lon="20.20645589567720890045166015625">
        <ele>1040</ele>
        <time>2026-06-20T12:40:27.000Z</time>
        <extensions>
          <ns3:TrackPointExtension>
            <ns3:atemp>30.0</ns3:atemp>
          </ns3:TrackPointExtension>
        </extensions>
      </trkpt>
      <trkpt lat="42.4509953521192073822021484375" lon="20.20645589567720890045166015625">
        <ele>1040</ele>
        <time>2026-06-20T12:40:28.000Z</time>
        <extensions>
          <ns3:TrackPointExtension>
            <ns3:atemp>30.0</ns3:atemp>
          </ns3:TrackPointExtension>
        </extensions>
      </trkpt>
      <trkpt lat="42.4509953521192073822021484375" lon="20.20645589567720890045166015625">
        <ele>1040</ele>
        <time>2026-06-20T12:40:29.000Z</time>
        <extensions>
          <ns3:TrackPointExtension>
            <ns3:atemp>30.0</ns3:atemp>
          </ns3:TrackPointExtension>
        </extensions>
      </trkpt>
      <trkpt lat="42.4509953521192073822021484375" lon="20.20645589567720890045166015625">
        <ele>1040</ele>
        <time>2026-06-20T12:40:30.000Z</time>
        <extensions>
          <ns3:TrackPointExtension>
            <ns3:atemp>30.0</ns3:atemp>
          </ns3:TrackPointExtension>
        </extensions>
      </trkpt>
      <trkpt lat="42.4509953521192073822021484375" lon="20.20645589567720890045166015625">
        <ele>1040</ele>
        <time>2026-06-20T12:40:31.000Z</time>
        <extensions>
          <ns3:TrackPointExtension>
            <ns3:atemp>30.0</ns3:atemp>
          </ns3:TrackPointExtension>
        </extensions>
      </trkpt>
      <trkpt lat="42.4509953521192073822021484375" lon="20.20645589567720890045166015625">
        <ele>1040</ele>
        <time>2026-06-20T12:40:32.000Z</time>
        <extensions>
          <ns3:TrackPointExtension>
            <ns3:atemp>30.0</ns3:atemp>
          </ns3:TrackPointExtension>
        </extensions>
      </trkpt>
      <trkpt lat="42.4509953521192073822021484375" lon="20.20645589567720890045166015625">
        <ele>1040</ele>
        <time>2026-06-20T12:40:33.000Z</time>
        <extensions>
          <ns3:TrackPointExtension>
            <ns3:atemp>30.0</ns3:atemp>
          </ns3:TrackPointExtension>
        </extensions>
      </trkpt>
      <trkpt lat="42.4509953521192073822021484375" lon="20.20645589567720890045166015625">
        <ele>1040</ele>
        <time>2026-06-20T12:40:34.000Z</time>
        <extensions>
          <ns3:TrackPointExtension>
            <ns3:atemp>30.0</ns3:atemp>
          </ns3:TrackPointExtension>
        </extensions>
      </trkpt>
      <trkpt lat="42.4509953521192073822021484375" lon="20.20645589567720890045166015625">
        <ele>1040</ele>
        <time>2026-06-20T12:40:35.000Z</time>
        <extensions>
          <ns3:TrackPointExtension>
            <ns3:atemp>30.0</ns3:atemp>
          </ns3:TrackPointExtension>
        </extensions>
      </trkpt>
      <trkpt lat="42.4509953521192073822021484375" lon="20.20645589567720890045166015625">
        <ele>1040</ele>
        <time>2026-06-20T12:40:36.000Z</time>
        <extensions>
          <ns3:TrackPointExtension>
            <ns3:atemp>30.0</ns3:atemp>
          </ns3:TrackPointExtension>
        </extensions>
      </trkpt>
      <trkpt lat="42.4509953521192073822021484375" lon="20.20645589567720890045166015625">
        <ele>1040</ele>
        <time>2026-06-20T12:40:37.000Z</time>
        <extensions>
          <ns3:TrackPointExtension>
            <ns3:atemp>30.0</ns3:atemp>
          </ns3:TrackPointExtension>
        </extensions>
      </trkpt>
      <trkpt lat="42.4509953521192073822021484375" lon="20.20645589567720890045166015625">
        <ele>1040</ele>
        <time>2026-06-20T12:40:38.000Z</time>
        <extensions>
          <ns3:TrackPointExtension>
            <ns3:atemp>30.0</ns3:atemp>
          </ns3:TrackPointExtension>
        </extensions>
      </trkpt>
      <trkpt lat="42.4509953521192073822021484375" lon="20.20645589567720890045166015625">
        <ele>1040</ele>
        <time>2026-06-20T12:40:39.000Z</time>
        <extensions>
          <ns3:TrackPointExtension>
            <ns3:atemp>30.0</ns3:atemp>
          </ns3:TrackPointExtension>
        </extensions>
      </trkpt>
      <trkpt lat="42.4509953521192073822021484375" lon="20.20645589567720890045166015625">
        <ele>1040</ele>
        <time>2026-06-20T12:40:40.000Z</time>
        <extensions>
          <ns3:TrackPointExtension>
            <ns3:atemp>30.0</ns3:atemp>
          </ns3:TrackPointExtension>
        </extensions>
      </trkpt>
      <trkpt lat="42.4509953521192073822021484375" lon="20.20645589567720890045166015625">
        <ele>1040</ele>
        <time>2026-06-20T12:40:41.000Z</time>
        <extensions>
          <ns3:TrackPointExtension>
            <ns3:atemp>30.0</ns3:atemp>
          </ns3:TrackPointExtension>
        </extensions>
      </trkpt>
      <trkpt lat="42.4509953521192073822021484375" lon="20.20645589567720890045166015625">
        <ele>1040</ele>
        <time>2026-06-20T12:40:42.000Z</time>
        <extensions>
          <ns3:TrackPointExtension>
            <ns3:atemp>30.0</ns3:atemp>
          </ns3:TrackPointExtension>
        </extensions>
      </trkpt>
      <trkpt lat="42.4509953521192073822021484375" lon="20.20645589567720890045166015625">
        <ele>1040</ele>
        <time>2026-06-20T12:40:43.000Z</time>
        <extensions>
          <ns3:TrackPointExtension>
            <ns3:atemp>30.0</ns3:atemp>
          </ns3:TrackPointExtension>
        </extensions>
      </trkpt>
      <trkpt lat="42.4509953521192073822021484375" lon="20.20645589567720890045166015625">
        <ele>1040</ele>
        <time>2026-06-20T12:40:44.000Z</time>
        <extensions>
          <ns3:TrackPointExtension>
            <ns3:atemp>30.0</ns3:atemp>
          </ns3:TrackPointExtension>
        </extensions>
      </trkpt>
      <trkpt lat="42.4509953521192073822021484375" lon="20.20645589567720890045166015625">
        <ele>1040</ele>
        <time>2026-06-20T12:40:45.000Z</time>
        <extensions>
          <ns3:TrackPointExtension>
            <ns3:atemp>30.0</ns3:atemp>
          </ns3:TrackPointExtension>
        </extensions>
      </trkpt>
      <trkpt lat="42.4509953521192073822021484375" lon="20.20645589567720890045166015625">
        <ele>1040</ele>
        <time>2026-06-20T12:40:46.000Z</time>
        <extensions>
          <ns3:TrackPointExtension>
            <ns3:atemp>30.0</ns3:atemp>
          </ns3:TrackPointExtension>
        </extensions>
      </trkpt>
      <trkpt lat="42.4509953521192073822021484375" lon="20.20645589567720890045166015625">
        <ele>1040</ele>
        <time>2026-06-20T12:40:47.000Z</time>
        <extensions>
          <ns3:TrackPointExtension>
            <ns3:atemp>30.0</ns3:atemp>
          </ns3:TrackPointExtension>
        </extensions>
      </trkpt>
      <trkpt lat="42.4509953521192073822021484375" lon="20.20645589567720890045166015625">
        <ele>1040</ele>
        <time>2026-06-20T12:40:48.000Z</time>
        <extensions>
          <ns3:TrackPointExtension>
            <ns3:atemp>30.0</ns3:atemp>
          </ns3:TrackPointExtension>
        </extensions>
      </trkpt>
      <trkpt lat="42.4509953521192073822021484375" lon="20.20645589567720890045166015625">
        <ele>1040</ele>
        <time>2026-06-20T12:40:49.000Z</time>
        <extensions>
          <ns3:TrackPointExtension>
            <ns3:atemp>30.0</ns3:atemp>
          </ns3:TrackPointExtension>
        </extensions>
      </trkpt>
      <trkpt lat="42.4509953521192073822021484375" lon="20.20645589567720890045166015625">
        <ele>1040</ele>
        <time>2026-06-20T12:40:50.000Z</time>
        <extensions>
          <ns3:TrackPointExtension>
            <ns3:atemp>30.0</ns3:atemp>
          </ns3:TrackPointExtension>
        </extensions>
      </trkpt>
      <trkpt lat="42.4509953521192073822021484375" lon="20.20645589567720890045166015625">
        <ele>1040</ele>
        <time>2026-06-20T12:40:51.000Z</time>
        <extensions>
          <ns3:TrackPointExtension>
            <ns3:atemp>30.0</ns3:atemp>
          </ns3:TrackPointExtension>
        </extensions>
      </trkpt>
      <trkpt lat="42.4509953521192073822021484375" lon="20.20645589567720890045166015625">
        <ele>1040</ele>
        <time>2026-06-20T12:40:52.000Z</time>
        <extensions>
          <ns3:TrackPointExtension>
            <ns3:atemp>30.0</ns3:atemp>
          </ns3:TrackPointExtension>
        </extensions>
      </trkpt>
      <trkpt lat="42.4509953521192073822021484375" lon="20.20645589567720890045166015625">
        <ele>1040</ele>
        <time>2026-06-20T12:40:53.000Z</time>
        <extensions>
          <ns3:TrackPointExtension>
            <ns3:atemp>30.0</ns3:atemp>
          </ns3:TrackPointExtension>
        </extensions>
      </trkpt>
      <trkpt lat="42.4509953521192073822021484375" lon="20.20645589567720890045166015625">
        <ele>1040</ele>
        <time>2026-06-20T12:40:54.000Z</time>
        <extensions>
          <ns3:TrackPointExtension>
            <ns3:atemp>30.0</ns3:atemp>
          </ns3:TrackPointExtension>
        </extensions>
      </trkpt>
      <trkpt lat="42.4509953521192073822021484375" lon="20.20645589567720890045166015625">
        <ele>1040</ele>
        <time>2026-06-20T12:40:55.000Z</time>
        <extensions>
          <ns3:TrackPointExtension>
            <ns3:atemp>30.0</ns3:atemp>
          </ns3:TrackPointExtension>
        </extensions>
      </trkpt>
      <trkpt lat="42.4509953521192073822021484375" lon="20.20645589567720890045166015625">
        <ele>1040</ele>
        <time>2026-06-20T12:40:56.000Z</time>
        <extensions>
          <ns3:TrackPointExtension>
            <ns3:atemp>30.0</ns3:atemp>
          </ns3:TrackPointExtension>
        </extensions>
      </trkpt>
      <trkpt lat="42.4509953521192073822021484375" lon="20.20645589567720890045166015625">
        <ele>1040</ele>
        <time>2026-06-20T12:40:57.000Z</time>
        <extensions>
          <ns3:TrackPointExtension>
            <ns3:atemp>30.0</ns3:atemp>
          </ns3:TrackPointExtension>
        </extensions>
      </trkpt>
      <trkpt lat="42.4509953521192073822021484375" lon="20.20645589567720890045166015625">
        <ele>1040</ele>
        <time>2026-06-20T12:40:58.000Z</time>
        <extensions>
          <ns3:TrackPointExtension>
            <ns3:atemp>30.0</ns3:atemp>
          </ns3:TrackPointExtension>
        </extensions>
      </trkpt>
      <trkpt lat="42.4509953521192073822021484375" lon="20.20645589567720890045166015625">
        <ele>1040</ele>
        <time>2026-06-20T12:40:59.000Z</time>
        <extensions>
          <ns3:TrackPointExtension>
            <ns3:atemp>30.0</ns3:atemp>
          </ns3:TrackPointExtension>
        </extensions>
      </trkpt>
      <trkpt lat="42.4509953521192073822021484375" lon="20.20645589567720890045166015625">
        <ele>1040</ele>
        <time>2026-06-20T12:41:00.000Z</time>
        <extensions>
          <ns3:TrackPointExtension>
            <ns3:atemp>30.0</ns3:atemp>
          </ns3:TrackPointExtension>
        </extensions>
      </trkpt>
      <trkpt lat="42.4509953521192073822021484375" lon="20.20645589567720890045166015625">
        <ele>1040</ele>
        <time>2026-06-20T12:41:01.000Z</time>
        <extensions>
          <ns3:TrackPointExtension>
            <ns3:atemp>30.0</ns3:atemp>
          </ns3:TrackPointExtension>
        </extensions>
      </trkpt>
      <trkpt lat="42.4509953521192073822021484375" lon="20.20645589567720890045166015625">
        <ele>1040</ele>
        <time>2026-06-20T12:41:02.000Z</time>
        <extensions>
          <ns3:TrackPointExtension>
            <ns3:atemp>30.0</ns3:atemp>
          </ns3:TrackPointExtension>
        </extensions>
      </trkpt>
      <trkpt lat="42.4509953521192073822021484375" lon="20.20645589567720890045166015625">
        <ele>1040</ele>
        <time>2026-06-20T12:41:03.000Z</time>
        <extensions>
          <ns3:TrackPointExtension>
            <ns3:atemp>30.0</ns3:atemp>
          </ns3:TrackPointExtension>
        </extensions>
      </trkpt>
      <trkpt lat="42.4509953521192073822021484375" lon="20.20645589567720890045166015625">
        <ele>1040</ele>
        <time>2026-06-20T12:41:04.000Z</time>
        <extensions>
          <ns3:TrackPointExtension>
            <ns3:atemp>30.0</ns3:atemp>
          </ns3:TrackPointExtension>
        </extensions>
      </trkpt>
      <trkpt lat="42.4509953521192073822021484375" lon="20.20645589567720890045166015625">
        <ele>1040</ele>
        <time>2026-06-20T12:41:05.000Z</time>
        <extensions>
          <ns3:TrackPointExtension>
            <ns3:atemp>30.0</ns3:atemp>
          </ns3:TrackPointExtension>
        </extensions>
      </trkpt>
      <trkpt lat="42.4509953521192073822021484375" lon="20.20645589567720890045166015625">
        <ele>1040</ele>
        <time>2026-06-20T12:41:06.000Z</time>
        <extensions>
          <ns3:TrackPointExtension>
            <ns3:atemp>30.0</ns3:atemp>
          </ns3:TrackPointExtension>
        </extensions>
      </trkpt>
      <trkpt lat="42.4509953521192073822021484375" lon="20.20645589567720890045166015625">
        <ele>1040</ele>
        <time>2026-06-20T12:41:07.000Z</time>
        <extensions>
          <ns3:TrackPointExtension>
            <ns3:atemp>30.0</ns3:atemp>
          </ns3:TrackPointExtension>
        </extensions>
      </trkpt>
      <trkpt lat="42.4509953521192073822021484375" lon="20.20645589567720890045166015625">
        <ele>1040</ele>
        <time>2026-06-20T12:41:08.000Z</time>
        <extensions>
          <ns3:TrackPointExtension>
            <ns3:atemp>30.0</ns3:atemp>
          </ns3:TrackPointExtension>
        </extensions>
      </trkpt>
      <trkpt lat="42.4509953521192073822021484375" lon="20.20645589567720890045166015625">
        <ele>1040</ele>
        <time>2026-06-20T12:41:09.000Z</time>
        <extensions>
          <ns3:TrackPointExtension>
            <ns3:atemp>30.0</ns3:atemp>
          </ns3:TrackPointExtension>
        </extensions>
      </trkpt>
      <trkpt lat="42.4509953521192073822021484375" lon="20.20645589567720890045166015625">
        <ele>1040</ele>
        <time>2026-06-20T12:41:10.000Z</time>
        <extensions>
          <ns3:TrackPointExtension>
            <ns3:atemp>30.0</ns3:atemp>
          </ns3:TrackPointExtension>
        </extensions>
      </trkpt>
      <trkpt lat="42.4509953521192073822021484375" lon="20.20645589567720890045166015625">
        <ele>1040</ele>
        <time>2026-06-20T12:41:11.000Z</time>
        <extensions>
          <ns3:TrackPointExtension>
            <ns3:atemp>30.0</ns3:atemp>
          </ns3:TrackPointExtension>
        </extensions>
      </trkpt>
      <trkpt lat="42.4509953521192073822021484375" lon="20.20645589567720890045166015625">
        <ele>1040</ele>
        <time>2026-06-20T12:41:12.000Z</time>
        <extensions>
          <ns3:TrackPointExtension>
            <ns3:atemp>30.0</ns3:atemp>
          </ns3:TrackPointExtension>
        </extensions>
      </trkpt>
      <trkpt lat="42.4509953521192073822021484375" lon="20.20645589567720890045166015625">
        <ele>1040</ele>
        <time>2026-06-20T12:41:13.000Z</time>
        <extensions>
          <ns3:TrackPointExtension>
            <ns3:atemp>30.0</ns3:atemp>
          </ns3:TrackPointExtension>
        </extensions>
      </trkpt>
      <trkpt lat="42.4509953521192073822021484375" lon="20.20645589567720890045166015625">
        <ele>1040</ele>
        <time>2026-06-20T12:41:14.000Z</time>
        <extensions>
          <ns3:TrackPointExtension>
            <ns3:atemp>30.0</ns3:atemp>
          </ns3:TrackPointExtension>
        </extensions>
      </trkpt>
      <trkpt lat="42.4509953521192073822021484375" lon="20.20645589567720890045166015625">
        <ele>1040</ele>
        <time>2026-06-20T12:41:15.000Z</time>
        <extensions>
          <ns3:TrackPointExtension>
            <ns3:atemp>30.0</ns3:atemp>
          </ns3:TrackPointExtension>
        </extensions>
      </trkpt>
      <trkpt lat="42.4509953521192073822021484375" lon="20.20645589567720890045166015625">
        <ele>1040</ele>
        <time>2026-06-20T12:41:16.000Z</time>
        <extensions>
          <ns3:TrackPointExtension>
            <ns3:atemp>30.0</ns3:atemp>
          </ns3:TrackPointExtension>
        </extensions>
      </trkpt>
      <trkpt lat="42.4509953521192073822021484375" lon="20.20645589567720890045166015625">
        <ele>1040</ele>
        <time>2026-06-20T12:41:17.000Z</time>
        <extensions>
          <ns3:TrackPointExtension>
            <ns3:atemp>30.0</ns3:atemp>
          </ns3:TrackPointExtension>
        </extensions>
      </trkpt>
      <trkpt lat="42.4509953521192073822021484375" lon="20.20645589567720890045166015625">
        <ele>1040</ele>
        <time>2026-06-20T12:41:18.000Z</time>
        <extensions>
          <ns3:TrackPointExtension>
            <ns3:atemp>30.0</ns3:atemp>
          </ns3:TrackPointExtension>
        </extensions>
      </trkpt>
      <trkpt lat="42.4509953521192073822021484375" lon="20.20645589567720890045166015625">
        <ele>1040</ele>
        <time>2026-06-20T12:41:19.000Z</time>
        <extensions>
          <ns3:TrackPointExtension>
            <ns3:atemp>30.0</ns3:atemp>
          </ns3:TrackPointExtension>
        </extensions>
      </trkpt>
      <trkpt lat="42.4509953521192073822021484375" lon="20.20645589567720890045166015625">
        <ele>1040</ele>
        <time>2026-06-20T12:41:20.000Z</time>
        <extensions>
          <ns3:TrackPointExtension>
            <ns3:atemp>30.0</ns3:atemp>
          </ns3:TrackPointExtension>
        </extensions>
      </trkpt>
      <trkpt lat="42.4509953521192073822021484375" lon="20.20645589567720890045166015625">
        <ele>1040</ele>
        <time>2026-06-20T12:41:21.000Z</time>
        <extensions>
          <ns3:TrackPointExtension>
            <ns3:atemp>30.0</ns3:atemp>
          </ns3:TrackPointExtension>
        </extensions>
      </trkpt>
      <trkpt lat="42.4509953521192073822021484375" lon="20.20645589567720890045166015625">
        <ele>1040</ele>
        <time>2026-06-20T12:41:22.000Z</time>
        <extensions>
          <ns3:TrackPointExtension>
            <ns3:atemp>30.0</ns3:atemp>
          </ns3:TrackPointExtension>
        </extensions>
      </trkpt>
      <trkpt lat="42.4509953521192073822021484375" lon="20.20645589567720890045166015625">
        <ele>1040</ele>
        <time>2026-06-20T12:41:23.000Z</time>
        <extensions>
          <ns3:TrackPointExtension>
            <ns3:atemp>30.0</ns3:atemp>
          </ns3:TrackPointExtension>
        </extensions>
      </trkpt>
      <trkpt lat="42.4509953521192073822021484375" lon="20.20645589567720890045166015625">
        <ele>1040</ele>
        <time>2026-06-20T12:41:24.000Z</time>
        <extensions>
          <ns3:TrackPointExtension>
            <ns3:atemp>30.0</ns3:atemp>
          </ns3:TrackPointExtension>
        </extensions>
      </trkpt>
      <trkpt lat="42.4509953521192073822021484375" lon="20.20645589567720890045166015625">
        <ele>1040</ele>
        <time>2026-06-20T12:41:25.000Z</time>
        <extensions>
          <ns3:TrackPointExtension>
            <ns3:atemp>30.0</ns3:atemp>
          </ns3:TrackPointExtension>
        </extensions>
      </trkpt>
      <trkpt lat="42.4509953521192073822021484375" lon="20.20645589567720890045166015625">
        <ele>1040</ele>
        <time>2026-06-20T12:41:26.000Z</time>
        <extensions>
          <ns3:TrackPointExtension>
            <ns3:atemp>30.0</ns3:atemp>
          </ns3:TrackPointExtension>
        </extensions>
      </trkpt>
      <trkpt lat="42.4509953521192073822021484375" lon="20.20645589567720890045166015625">
        <ele>1040</ele>
        <time>2026-06-20T12:41:27.000Z</time>
        <extensions>
          <ns3:TrackPointExtension>
            <ns3:atemp>30.0</ns3:atemp>
          </ns3:TrackPointExtension>
        </extensions>
      </trkpt>
      <trkpt lat="42.4509953521192073822021484375" lon="20.20645589567720890045166015625">
        <ele>1040</ele>
        <time>2026-06-20T12:41:28.000Z</time>
        <extensions>
          <ns3:TrackPointExtension>
            <ns3:atemp>30.0</ns3:atemp>
          </ns3:TrackPointExtension>
        </extensions>
      </trkpt>
      <trkpt lat="42.4509953521192073822021484375" lon="20.20645589567720890045166015625">
        <ele>1040</ele>
        <time>2026-06-20T12:41:29.000Z</time>
        <extensions>
          <ns3:TrackPointExtension>
            <ns3:atemp>31.0</ns3:atemp>
          </ns3:TrackPointExtension>
        </extensions>
      </trkpt>
      <trkpt lat="42.4509953521192073822021484375" lon="20.20645589567720890045166015625">
        <ele>1040</ele>
        <time>2026-06-20T12:41:30.000Z</time>
        <extensions>
          <ns3:TrackPointExtension>
            <ns3:atemp>31.0</ns3:atemp>
          </ns3:TrackPointExtension>
        </extensions>
      </trkpt>
      <trkpt lat="42.4509953521192073822021484375" lon="20.20645589567720890045166015625">
        <ele>1040</ele>
        <time>2026-06-20T12:41:31.000Z</time>
        <extensions>
          <ns3:TrackPointExtension>
            <ns3:atemp>31.0</ns3:atemp>
          </ns3:TrackPointExtension>
        </extensions>
      </trkpt>
      <trkpt lat="42.4509953521192073822021484375" lon="20.20645589567720890045166015625">
        <ele>1040</ele>
        <time>2026-06-20T12:41:32.000Z</time>
        <extensions>
          <ns3:TrackPointExtension>
            <ns3:atemp>31.0</ns3:atemp>
          </ns3:TrackPointExtension>
        </extensions>
      </trkpt>
      <trkpt lat="42.4509953521192073822021484375" lon="20.20645589567720890045166015625">
        <ele>1040</ele>
        <time>2026-06-20T12:41:33.000Z</time>
        <extensions>
          <ns3:TrackPointExtension>
            <ns3:atemp>31.0</ns3:atemp>
          </ns3:TrackPointExtension>
        </extensions>
      </trkpt>
      <trkpt lat="42.4509953521192073822021484375" lon="20.20645589567720890045166015625">
        <ele>1040</ele>
        <time>2026-06-20T12:41:34.000Z</time>
        <extensions>
          <ns3:TrackPointExtension>
            <ns3:atemp>31.0</ns3:atemp>
          </ns3:TrackPointExtension>
        </extensions>
      </trkpt>
      <trkpt lat="42.4509953521192073822021484375" lon="20.20645589567720890045166015625">
        <ele>1040</ele>
        <time>2026-06-20T12:41:35.000Z</time>
        <extensions>
          <ns3:TrackPointExtension>
            <ns3:atemp>31.0</ns3:atemp>
          </ns3:TrackPointExtension>
        </extensions>
      </trkpt>
      <trkpt lat="42.4509953521192073822021484375" lon="20.20645589567720890045166015625">
        <ele>1040</ele>
        <time>2026-06-20T12:41:36.000Z</time>
        <extensions>
          <ns3:TrackPointExtension>
            <ns3:atemp>31.0</ns3:atemp>
          </ns3:TrackPointExtension>
        </extensions>
      </trkpt>
      <trkpt lat="42.4509953521192073822021484375" lon="20.20645589567720890045166015625">
        <ele>1040</ele>
        <time>2026-06-20T12:41:37.000Z</time>
        <extensions>
          <ns3:TrackPointExtension>
            <ns3:atemp>31.0</ns3:atemp>
          </ns3:TrackPointExtension>
        </extensions>
      </trkpt>
      <trkpt lat="42.4509953521192073822021484375" lon="20.20645589567720890045166015625">
        <ele>1040</ele>
        <time>2026-06-20T12:41:38.000Z</time>
        <extensions>
          <ns3:TrackPointExtension>
            <ns3:atemp>31.0</ns3:atemp>
          </ns3:TrackPointExtension>
        </extensions>
      </trkpt>
      <trkpt lat="42.4509953521192073822021484375" lon="20.20645589567720890045166015625">
        <ele>1040</ele>
        <time>2026-06-20T12:41:39.000Z</time>
        <extensions>
          <ns3:TrackPointExtension>
            <ns3:atemp>31.0</ns3:atemp>
          </ns3:TrackPointExtension>
        </extensions>
      </trkpt>
      <trkpt lat="42.4509953521192073822021484375" lon="20.20645589567720890045166015625">
        <ele>1040</ele>
        <time>2026-06-20T12:41:40.000Z</time>
        <extensions>
          <ns3:TrackPointExtension>
            <ns3:atemp>31.0</ns3:atemp>
          </ns3:TrackPointExtension>
        </extensions>
      </trkpt>
      <trkpt lat="42.4509953521192073822021484375" lon="20.20645589567720890045166015625">
        <ele>1040</ele>
        <time>2026-06-20T12:41:41.000Z</time>
        <extensions>
          <ns3:TrackPointExtension>
            <ns3:atemp>31.0</ns3:atemp>
          </ns3:TrackPointExtension>
        </extensions>
      </trkpt>
      <trkpt lat="42.4509953521192073822021484375" lon="20.20645589567720890045166015625">
        <ele>1040</ele>
        <time>2026-06-20T12:41:42.000Z</time>
        <extensions>
          <ns3:TrackPointExtension>
            <ns3:atemp>31.0</ns3:atemp>
          </ns3:TrackPointExtension>
        </extensions>
      </trkpt>
      <trkpt lat="42.4509953521192073822021484375" lon="20.20645589567720890045166015625">
        <ele>1040</ele>
        <time>2026-06-20T12:41:43.000Z</time>
        <extensions>
          <ns3:TrackPointExtension>
            <ns3:atemp>31.0</ns3:atemp>
          </ns3:TrackPointExtension>
        </extensions>
      </trkpt>
      <trkpt lat="42.4509953521192073822021484375" lon="20.20645589567720890045166015625">
        <ele>1040</ele>
        <time>2026-06-20T12:41:44.000Z</time>
        <extensions>
          <ns3:TrackPointExtension>
            <ns3:atemp>31.0</ns3:atemp>
          </ns3:TrackPointExtension>
        </extensions>
      </trkpt>
      <trkpt lat="42.4509953521192073822021484375" lon="20.20645589567720890045166015625">
        <ele>1040</ele>
        <time>2026-06-20T12:41:45.000Z</time>
        <extensions>
          <ns3:TrackPointExtension>
            <ns3:atemp>31.0</ns3:atemp>
          </ns3:TrackPointExtension>
        </extensions>
      </trkpt>
      <trkpt lat="42.4509953521192073822021484375" lon="20.20645589567720890045166015625">
        <ele>1040</ele>
        <time>2026-06-20T12:41:46.000Z</time>
        <extensions>
          <ns3:TrackPointExtension>
            <ns3:atemp>31.0</ns3:atemp>
          </ns3:TrackPointExtension>
        </extensions>
      </trkpt>
      <trkpt lat="42.4509953521192073822021484375" lon="20.20645589567720890045166015625">
        <ele>1040</ele>
        <time>2026-06-20T12:41:47.000Z</time>
        <extensions>
          <ns3:TrackPointExtension>
            <ns3:atemp>31.0</ns3:atemp>
          </ns3:TrackPointExtension>
        </extensions>
      </trkpt>
      <trkpt lat="42.4509953521192073822021484375" lon="20.20645589567720890045166015625">
        <ele>1040</ele>
        <time>2026-06-20T12:41:48.000Z</time>
        <extensions>
          <ns3:TrackPointExtension>
            <ns3:atemp>31.0</ns3:atemp>
          </ns3:TrackPointExtension>
        </extensions>
      </trkpt>
      <trkpt lat="42.4509953521192073822021484375" lon="20.20645589567720890045166015625">
        <ele>1040</ele>
        <time>2026-06-20T12:41:49.000Z</time>
        <extensions>
          <ns3:TrackPointExtension>
            <ns3:atemp>31.0</ns3:atemp>
          </ns3:TrackPointExtension>
        </extensions>
      </trkpt>
      <trkpt lat="42.4509953521192073822021484375" lon="20.20645589567720890045166015625">
        <ele>1040</ele>
        <time>2026-06-20T12:41:50.000Z</time>
        <extensions>
          <ns3:TrackPointExtension>
            <ns3:atemp>31.0</ns3:atemp>
          </ns3:TrackPointExtension>
        </extensions>
      </trkpt>
      <trkpt lat="42.4509953521192073822021484375" lon="20.20645589567720890045166015625">
        <ele>1040</ele>
        <time>2026-06-20T12:41:51.000Z</time>
        <extensions>
          <ns3:TrackPointExtension>
            <ns3:atemp>31.0</ns3:atemp>
          </ns3:TrackPointExtension>
        </extensions>
      </trkpt>
      <trkpt lat="42.4509953521192073822021484375" lon="20.20645589567720890045166015625">
        <ele>1040</ele>
        <time>2026-06-20T12:41:52.000Z</time>
        <extensions>
          <ns3:TrackPointExtension>
            <ns3:atemp>31.0</ns3:atemp>
          </ns3:TrackPointExtension>
        </extensions>
      </trkpt>
      <trkpt lat="42.4509953521192073822021484375" lon="20.20645589567720890045166015625">
        <ele>1040</ele>
        <time>2026-06-20T12:41:53.000Z</time>
        <extensions>
          <ns3:TrackPointExtension>
            <ns3:atemp>31.0</ns3:atemp>
          </ns3:TrackPointExtension>
        </extensions>
      </trkpt>
      <trkpt lat="42.4509953521192073822021484375" lon="20.20645589567720890045166015625">
        <ele>1040</ele>
        <time>2026-06-20T12:41:54.000Z</time>
        <extensions>
          <ns3:TrackPointExtension>
            <ns3:atemp>31.0</ns3:atemp>
          </ns3:TrackPointExtension>
        </extensions>
      </trkpt>
      <trkpt lat="42.4509953521192073822021484375" lon="20.20645589567720890045166015625">
        <ele>1040</ele>
        <time>2026-06-20T12:41:55.000Z</time>
        <extensions>
          <ns3:TrackPointExtension>
            <ns3:atemp>31.0</ns3:atemp>
          </ns3:TrackPointExtension>
        </extensions>
      </trkpt>
      <trkpt lat="42.4509953521192073822021484375" lon="20.20645589567720890045166015625">
        <ele>1040</ele>
        <time>2026-06-20T12:41:56.000Z</time>
        <extensions>
          <ns3:TrackPointExtension>
            <ns3:atemp>31.0</ns3:atemp>
          </ns3:TrackPointExtension>
        </extensions>
      </trkpt>
      <trkpt lat="42.4509953521192073822021484375" lon="20.20645589567720890045166015625">
        <ele>1040</ele>
        <time>2026-06-20T12:41:57.000Z</time>
        <extensions>
          <ns3:TrackPointExtension>
            <ns3:atemp>31.0</ns3:atemp>
          </ns3:TrackPointExtension>
        </extensions>
      </trkpt>
      <trkpt lat="42.4509953521192073822021484375" lon="20.20645589567720890045166015625">
        <ele>1040</ele>
        <time>2026-06-20T12:41:58.000Z</time>
        <extensions>
          <ns3:TrackPointExtension>
            <ns3:atemp>31.0</ns3:atemp>
          </ns3:TrackPointExtension>
        </extensions>
      </trkpt>
      <trkpt lat="42.4509953521192073822021484375" lon="20.20645589567720890045166015625">
        <ele>1040</ele>
        <time>2026-06-20T12:41:59.000Z</time>
        <extensions>
          <ns3:TrackPointExtension>
            <ns3:atemp>31.0</ns3:atemp>
          </ns3:TrackPointExtension>
        </extensions>
      </trkpt>
      <trkpt lat="42.4509953521192073822021484375" lon="20.20645589567720890045166015625">
        <ele>1040</ele>
        <time>2026-06-20T12:42:00.000Z</time>
        <extensions>
          <ns3:TrackPointExtension>
            <ns3:atemp>31.0</ns3:atemp>
          </ns3:TrackPointExtension>
        </extensions>
      </trkpt>
      <trkpt lat="42.4509953521192073822021484375" lon="20.20645589567720890045166015625">
        <ele>1040</ele>
        <time>2026-06-20T12:42:01.000Z</time>
        <extensions>
          <ns3:TrackPointExtension>
            <ns3:atemp>31.0</ns3:atemp>
          </ns3:TrackPointExtension>
        </extensions>
      </trkpt>
      <trkpt lat="42.4509953521192073822021484375" lon="20.20645589567720890045166015625">
        <ele>1040</ele>
        <time>2026-06-20T12:42:02.000Z</time>
        <extensions>
          <ns3:TrackPointExtension>
            <ns3:atemp>31.0</ns3:atemp>
          </ns3:TrackPointExtension>
        </extensions>
      </trkpt>
      <trkpt lat="42.4509953521192073822021484375" lon="20.20645589567720890045166015625">
        <ele>1040</ele>
        <time>2026-06-20T12:42:03.000Z</time>
        <extensions>
          <ns3:TrackPointExtension>
            <ns3:atemp>31.0</ns3:atemp>
          </ns3:TrackPointExtension>
        </extensions>
      </trkpt>
      <trkpt lat="42.4509953521192073822021484375" lon="20.20645589567720890045166015625">
        <ele>1040</ele>
        <time>2026-06-20T12:42:04.000Z</time>
        <extensions>
          <ns3:TrackPointExtension>
            <ns3:atemp>31.0</ns3:atemp>
          </ns3:TrackPointExtension>
        </extensions>
      </trkpt>
      <trkpt lat="42.4509953521192073822021484375" lon="20.20645589567720890045166015625">
        <ele>1040</ele>
        <time>2026-06-20T12:42:05.000Z</time>
        <extensions>
          <ns3:TrackPointExtension>
            <ns3:atemp>31.0</ns3:atemp>
          </ns3:TrackPointExtension>
        </extensions>
      </trkpt>
      <trkpt lat="42.4509953521192073822021484375" lon="20.20645589567720890045166015625">
        <ele>1040</ele>
        <time>2026-06-20T12:42:06.000Z</time>
        <extensions>
          <ns3:TrackPointExtension>
            <ns3:atemp>31.0</ns3:atemp>
          </ns3:TrackPointExtension>
        </extensions>
      </trkpt>
      <trkpt lat="42.4509953521192073822021484375" lon="20.20645589567720890045166015625">
        <ele>1040</ele>
        <time>2026-06-20T12:42:07.000Z</time>
        <extensions>
          <ns3:TrackPointExtension>
            <ns3:atemp>31.0</ns3:atemp>
          </ns3:TrackPointExtension>
        </extensions>
      </trkpt>
      <trkpt lat="42.4509953521192073822021484375" lon="20.20645589567720890045166015625">
        <ele>1040</ele>
        <time>2026-06-20T12:42:08.000Z</time>
        <extensions>
          <ns3:TrackPointExtension>
            <ns3:atemp>31.0</ns3:atemp>
          </ns3:TrackPointExtension>
        </extensions>
      </trkpt>
      <trkpt lat="42.4509953521192073822021484375" lon="20.20645589567720890045166015625">
        <ele>1040</ele>
        <time>2026-06-20T12:42:09.000Z</time>
        <extensions>
          <ns3:TrackPointExtension>
            <ns3:atemp>31.0</ns3:atemp>
          </ns3:TrackPointExtension>
        </extensions>
      </trkpt>
      <trkpt lat="42.4509953521192073822021484375" lon="20.20645589567720890045166015625">
        <ele>1040</ele>
        <time>2026-06-20T12:42:10.000Z</time>
        <extensions>
          <ns3:TrackPointExtension>
            <ns3:atemp>31.0</ns3:atemp>
          </ns3:TrackPointExtension>
        </extensions>
      </trkpt>
      <trkpt lat="42.4509953521192073822021484375" lon="20.20645589567720890045166015625">
        <ele>1040</ele>
        <time>2026-06-20T12:42:11.000Z</time>
        <extensions>
          <ns3:TrackPointExtension>
            <ns3:atemp>31.0</ns3:atemp>
          </ns3:TrackPointExtension>
        </extensions>
      </trkpt>
      <trkpt lat="42.4509953521192073822021484375" lon="20.20645589567720890045166015625">
        <ele>1040</ele>
        <time>2026-06-20T12:42:12.000Z</time>
        <extensions>
          <ns3:TrackPointExtension>
            <ns3:atemp>31.0</ns3:atemp>
          </ns3:TrackPointExtension>
        </extensions>
      </trkpt>
      <trkpt lat="42.4509953521192073822021484375" lon="20.20645589567720890045166015625">
        <ele>1040</ele>
        <time>2026-06-20T12:42:13.000Z</time>
        <extensions>
          <ns3:TrackPointExtension>
            <ns3:atemp>31.0</ns3:atemp>
          </ns3:TrackPointExtension>
        </extensions>
      </trkpt>
      <trkpt lat="42.4509953521192073822021484375" lon="20.20645589567720890045166015625">
        <ele>1040</ele>
        <time>2026-06-20T12:42:14.000Z</time>
        <extensions>
          <ns3:TrackPointExtension>
            <ns3:atemp>31.0</ns3:atemp>
          </ns3:TrackPointExtension>
        </extensions>
      </trkpt>
      <trkpt lat="42.4509953521192073822021484375" lon="20.20645589567720890045166015625">
        <ele>1040</ele>
        <time>2026-06-20T12:42:15.000Z</time>
        <extensions>
          <ns3:TrackPointExtension>
            <ns3:atemp>31.0</ns3:atemp>
          </ns3:TrackPointExtension>
        </extensions>
      </trkpt>
      <trkpt lat="42.4509953521192073822021484375" lon="20.20645589567720890045166015625">
        <ele>1040</ele>
        <time>2026-06-20T12:42:16.000Z</time>
        <extensions>
          <ns3:TrackPointExtension>
            <ns3:atemp>31.0</ns3:atemp>
          </ns3:TrackPointExtension>
        </extensions>
      </trkpt>
      <trkpt lat="42.4509953521192073822021484375" lon="20.20645589567720890045166015625">
        <ele>1040</ele>
        <time>2026-06-20T12:42:17.000Z</time>
        <extensions>
          <ns3:TrackPointExtension>
            <ns3:atemp>31.0</ns3:atemp>
          </ns3:TrackPointExtension>
        </extensions>
      </trkpt>
      <trkpt lat="42.4509953521192073822021484375" lon="20.20645589567720890045166015625">
        <ele>1040</ele>
        <time>2026-06-20T12:42:18.000Z</time>
        <extensions>
          <ns3:TrackPointExtension>
            <ns3:atemp>31.0</ns3:atemp>
          </ns3:TrackPointExtension>
        </extensions>
      </trkpt>
      <trkpt lat="42.4509953521192073822021484375" lon="20.20645589567720890045166015625">
        <ele>1040</ele>
        <time>2026-06-20T12:42:19.000Z</time>
        <extensions>
          <ns3:TrackPointExtension>
            <ns3:atemp>31.0</ns3:atemp>
          </ns3:TrackPointExtension>
        </extensions>
      </trkpt>
      <trkpt lat="42.4509953521192073822021484375" lon="20.20645589567720890045166015625">
        <ele>1040</ele>
        <time>2026-06-20T12:42:20.000Z</time>
        <extensions>
          <ns3:TrackPointExtension>
            <ns3:atemp>31.0</ns3:atemp>
          </ns3:TrackPointExtension>
        </extensions>
      </trkpt>
      <trkpt lat="42.4509953521192073822021484375" lon="20.20645589567720890045166015625">
        <ele>1040</ele>
        <time>2026-06-20T12:42:21.000Z</time>
        <extensions>
          <ns3:TrackPointExtension>
            <ns3:atemp>31.0</ns3:atemp>
          </ns3:TrackPointExtension>
        </extensions>
      </trkpt>
      <trkpt lat="42.4509953521192073822021484375" lon="20.20645589567720890045166015625">
        <ele>1040</ele>
        <time>2026-06-20T12:42:22.000Z</time>
        <extensions>
          <ns3:TrackPointExtension>
            <ns3:atemp>31.0</ns3:atemp>
          </ns3:TrackPointExtension>
        </extensions>
      </trkpt>
      <trkpt lat="42.4509953521192073822021484375" lon="20.20645589567720890045166015625">
        <ele>1040</ele>
        <time>2026-06-20T12:42:23.000Z</time>
        <extensions>
          <ns3:TrackPointExtension>
            <ns3:atemp>31.0</ns3:atemp>
          </ns3:TrackPointExtension>
        </extensions>
      </trkpt>
      <trkpt lat="42.4509953521192073822021484375" lon="20.20645589567720890045166015625">
        <ele>1040</ele>
        <time>2026-06-20T12:42:24.000Z</time>
        <extensions>
          <ns3:TrackPointExtension>
            <ns3:atemp>31.0</ns3:atemp>
          </ns3:TrackPointExtension>
        </extensions>
      </trkpt>
      <trkpt lat="42.4509953521192073822021484375" lon="20.20645589567720890045166015625">
        <ele>1040</ele>
        <time>2026-06-20T12:42:25.000Z</time>
        <extensions>
          <ns3:TrackPointExtension>
            <ns3:atemp>31.0</ns3:atemp>
          </ns3:TrackPointExtension>
        </extensions>
      </trkpt>
      <trkpt lat="42.4509953521192073822021484375" lon="20.20645589567720890045166015625">
        <ele>1040</ele>
        <time>2026-06-20T12:42:26.000Z</time>
        <extensions>
          <ns3:TrackPointExtension>
            <ns3:atemp>31.0</ns3:atemp>
          </ns3:TrackPointExtension>
        </extensions>
      </trkpt>
      <trkpt lat="42.4509953521192073822021484375" lon="20.20645589567720890045166015625">
        <ele>1040</ele>
        <time>2026-06-20T12:42:27.000Z</time>
        <extensions>
          <ns3:TrackPointExtension>
            <ns3:atemp>31.0</ns3:atemp>
          </ns3:TrackPointExtension>
        </extensions>
      </trkpt>
      <trkpt lat="42.4509953521192073822021484375" lon="20.20645589567720890045166015625">
        <ele>1040</ele>
        <time>2026-06-20T12:42:28.000Z</time>
        <extensions>
          <ns3:TrackPointExtension>
            <ns3:atemp>31.0</ns3:atemp>
          </ns3:TrackPointExtension>
        </extensions>
      </trkpt>
      <trkpt lat="42.4509953521192073822021484375" lon="20.20645589567720890045166015625">
        <ele>1040</ele>
        <time>2026-06-20T12:42:29.000Z</time>
        <extensions>
          <ns3:TrackPointExtension>
            <ns3:atemp>31.0</ns3:atemp>
          </ns3:TrackPointExtension>
        </extensions>
      </trkpt>
      <trkpt lat="42.4509953521192073822021484375" lon="20.20645589567720890045166015625">
        <ele>1040</ele>
        <time>2026-06-20T12:42:30.000Z</time>
        <extensions>
          <ns3:TrackPointExtension>
            <ns3:atemp>31.0</ns3:atemp>
          </ns3:TrackPointExtension>
        </extensions>
      </trkpt>
      <trkpt lat="42.4509953521192073822021484375" lon="20.20645589567720890045166015625">
        <ele>1040</ele>
        <time>2026-06-20T12:42:31.000Z</time>
        <extensions>
          <ns3:TrackPointExtension>
            <ns3:atemp>31.0</ns3:atemp>
          </ns3:TrackPointExtension>
        </extensions>
      </trkpt>
      <trkpt lat="42.4509953521192073822021484375" lon="20.20645589567720890045166015625">
        <ele>1040</ele>
        <time>2026-06-20T12:42:32.000Z</time>
        <extensions>
          <ns3:TrackPointExtension>
            <ns3:atemp>31.0</ns3:atemp>
          </ns3:TrackPointExtension>
        </extensions>
      </trkpt>
      <trkpt lat="42.4509953521192073822021484375" lon="20.20645589567720890045166015625">
        <ele>1040</ele>
        <time>2026-06-20T12:42:33.000Z</time>
        <extensions>
          <ns3:TrackPointExtension>
            <ns3:atemp>31.0</ns3:atemp>
          </ns3:TrackPointExtension>
        </extensions>
      </trkpt>
      <trkpt lat="42.4509953521192073822021484375" lon="20.20645589567720890045166015625">
        <ele>1040</ele>
        <time>2026-06-20T12:42:34.000Z</time>
        <extensions>
          <ns3:TrackPointExtension>
            <ns3:atemp>31.0</ns3:atemp>
          </ns3:TrackPointExtension>
        </extensions>
      </trkpt>
      <trkpt lat="42.4509953521192073822021484375" lon="20.20645589567720890045166015625">
        <ele>1040</ele>
        <time>2026-06-20T12:42:35.000Z</time>
        <extensions>
          <ns3:TrackPointExtension>
            <ns3:atemp>31.0</ns3:atemp>
          </ns3:TrackPointExtension>
        </extensions>
      </trkpt>
      <trkpt lat="42.4509953521192073822021484375" lon="20.20645589567720890045166015625">
        <ele>1040</ele>
        <time>2026-06-20T12:42:36.000Z</time>
        <extensions>
          <ns3:TrackPointExtension>
            <ns3:atemp>31.0</ns3:atemp>
          </ns3:TrackPointExtension>
        </extensions>
      </trkpt>
      <trkpt lat="42.4509953521192073822021484375" lon="20.20645589567720890045166015625">
        <ele>1040</ele>
        <time>2026-06-20T12:42:37.000Z</time>
        <extensions>
          <ns3:TrackPointExtension>
            <ns3:atemp>31.0</ns3:atemp>
          </ns3:TrackPointExtension>
        </extensions>
      </trkpt>
      <trkpt lat="42.4509953521192073822021484375" lon="20.20645589567720890045166015625">
        <ele>1040</ele>
        <time>2026-06-20T12:42:38.000Z</time>
        <extensions>
          <ns3:TrackPointExtension>
            <ns3:atemp>31.0</ns3:atemp>
          </ns3:TrackPointExtension>
        </extensions>
      </trkpt>
      <trkpt lat="42.4509953521192073822021484375" lon="20.20645589567720890045166015625">
        <ele>1040</ele>
        <time>2026-06-20T12:42:39.000Z</time>
        <extensions>
          <ns3:TrackPointExtension>
            <ns3:atemp>31.0</ns3:atemp>
          </ns3:TrackPointExtension>
        </extensions>
      </trkpt>
      <trkpt lat="42.4509953521192073822021484375" lon="20.20645589567720890045166015625">
        <ele>1040</ele>
        <time>2026-06-20T12:42:40.000Z</time>
        <extensions>
          <ns3:TrackPointExtension>
            <ns3:atemp>31.0</ns3:atemp>
          </ns3:TrackPointExtension>
        </extensions>
      </trkpt>
      <trkpt lat="42.4509953521192073822021484375" lon="20.20645589567720890045166015625">
        <ele>1040</ele>
        <time>2026-06-20T12:42:41.000Z</time>
        <extensions>
          <ns3:TrackPointExtension>
            <ns3:atemp>31.0</ns3:atemp>
          </ns3:TrackPointExtension>
        </extensions>
      </trkpt>
      <trkpt lat="42.4509953521192073822021484375" lon="20.20645589567720890045166015625">
        <ele>1040</ele>
        <time>2026-06-20T12:42:42.000Z</time>
        <extensions>
          <ns3:TrackPointExtension>
            <ns3:atemp>31.0</ns3:atemp>
          </ns3:TrackPointExtension>
        </extensions>
      </trkpt>
      <trkpt lat="42.4509953521192073822021484375" lon="20.20645589567720890045166015625">
        <ele>1040</ele>
        <time>2026-06-20T12:42:43.000Z</time>
        <extensions>
          <ns3:TrackPointExtension>
            <ns3:atemp>31.0</ns3:atemp>
          </ns3:TrackPointExtension>
        </extensions>
      </trkpt>
      <trkpt lat="42.4509953521192073822021484375" lon="20.20645589567720890045166015625">
        <ele>1040</ele>
        <time>2026-06-20T12:42:44.000Z</time>
        <extensions>
          <ns3:TrackPointExtension>
            <ns3:atemp>31.0</ns3:atemp>
          </ns3:TrackPointExtension>
        </extensions>
      </trkpt>
      <trkpt lat="42.4509953521192073822021484375" lon="20.20645589567720890045166015625">
        <ele>1040</ele>
        <time>2026-06-20T12:42:45.000Z</time>
        <extensions>
          <ns3:TrackPointExtension>
            <ns3:atemp>31.0</ns3:atemp>
          </ns3:TrackPointExtension>
        </extensions>
      </trkpt>
      <trkpt lat="42.4509953521192073822021484375" lon="20.20645589567720890045166015625">
        <ele>1040</ele>
        <time>2026-06-20T12:42:46.000Z</time>
        <extensions>
          <ns3:TrackPointExtension>
            <ns3:atemp>31.0</ns3:atemp>
          </ns3:TrackPointExtension>
        </extensions>
      </trkpt>
      <trkpt lat="42.4509953521192073822021484375" lon="20.20645589567720890045166015625">
        <ele>1040</ele>
        <time>2026-06-20T12:42:47.000Z</time>
        <extensions>
          <ns3:TrackPointExtension>
            <ns3:atemp>31.0</ns3:atemp>
          </ns3:TrackPointExtension>
        </extensions>
      </trkpt>
      <trkpt lat="42.4509953521192073822021484375" lon="20.20645589567720890045166015625">
        <ele>1040</ele>
        <time>2026-06-20T12:42:48.000Z</time>
        <extensions>
          <ns3:TrackPointExtension>
            <ns3:atemp>31.0</ns3:atemp>
          </ns3:TrackPointExtension>
        </extensions>
      </trkpt>
      <trkpt lat="42.4509953521192073822021484375" lon="20.20645589567720890045166015625">
        <ele>1040</ele>
        <time>2026-06-20T12:42:49.000Z</time>
        <extensions>
          <ns3:TrackPointExtension>
            <ns3:atemp>31.0</ns3:atemp>
          </ns3:TrackPointExtension>
        </extensions>
      </trkpt>
      <trkpt lat="42.4509953521192073822021484375" lon="20.20645589567720890045166015625">
        <ele>1040</ele>
        <time>2026-06-20T12:42:50.000Z</time>
        <extensions>
          <ns3:TrackPointExtension>
            <ns3:atemp>31.0</ns3:atemp>
          </ns3:TrackPointExtension>
        </extensions>
      </trkpt>
      <trkpt lat="42.4509953521192073822021484375" lon="20.20645589567720890045166015625">
        <ele>1040</ele>
        <time>2026-06-20T12:42:51.000Z</time>
        <extensions>
          <ns3:TrackPointExtension>
            <ns3:atemp>31.0</ns3:atemp>
          </ns3:TrackPointExtension>
        </extensions>
      </trkpt>
      <trkpt lat="42.4509953521192073822021484375" lon="20.20645589567720890045166015625">
        <ele>1040</ele>
        <time>2026-06-20T12:42:52.000Z</time>
        <extensions>
          <ns3:TrackPointExtension>
            <ns3:atemp>31.0</ns3:atemp>
          </ns3:TrackPointExtension>
        </extensions>
      </trkpt>
      <trkpt lat="42.4509953521192073822021484375" lon="20.20645589567720890045166015625">
        <ele>1040</ele>
        <time>2026-06-20T12:42:53.000Z</time>
        <extensions>
          <ns3:TrackPointExtension>
            <ns3:atemp>31.0</ns3:atemp>
          </ns3:TrackPointExtension>
        </extensions>
      </trkpt>
      <trkpt lat="42.4509953521192073822021484375" lon="20.20645589567720890045166015625">
        <ele>1040</ele>
        <time>2026-06-20T12:42:54.000Z</time>
        <extensions>
          <ns3:TrackPointExtension>
            <ns3:atemp>31.0</ns3:atemp>
          </ns3:TrackPointExtension>
        </extensions>
      </trkpt>
      <trkpt lat="42.4509953521192073822021484375" lon="20.20645589567720890045166015625">
        <ele>1040</ele>
        <time>2026-06-20T12:42:55.000Z</time>
        <extensions>
          <ns3:TrackPointExtension>
            <ns3:atemp>31.0</ns3:atemp>
          </ns3:TrackPointExtension>
        </extensions>
      </trkpt>
      <trkpt lat="42.4509953521192073822021484375" lon="20.20645589567720890045166015625">
        <ele>1040</ele>
        <time>2026-06-20T12:42:56.000Z</time>
        <extensions>
          <ns3:TrackPointExtension>
            <ns3:atemp>31.0</ns3:atemp>
          </ns3:TrackPointExtension>
        </extensions>
      </trkpt>
      <trkpt lat="42.4509953521192073822021484375" lon="20.20645589567720890045166015625">
        <ele>1040</ele>
        <time>2026-06-20T12:42:57.000Z</time>
        <extensions>
          <ns3:TrackPointExtension>
            <ns3:atemp>31.0</ns3:atemp>
          </ns3:TrackPointExtension>
        </extensions>
      </trkpt>
      <trkpt lat="42.4509953521192073822021484375" lon="20.20645589567720890045166015625">
        <ele>1040</ele>
        <time>2026-06-20T12:42:58.000Z</time>
        <extensions>
          <ns3:TrackPointExtension>
            <ns3:atemp>31.0</ns3:atemp>
          </ns3:TrackPointExtension>
        </extensions>
      </trkpt>
      <trkpt lat="42.4509953521192073822021484375" lon="20.20645589567720890045166015625">
        <ele>1040</ele>
        <time>2026-06-20T12:42:59.000Z</time>
        <extensions>
          <ns3:TrackPointExtension>
            <ns3:atemp>31.0</ns3:atemp>
          </ns3:TrackPointExtension>
        </extensions>
      </trkpt>
      <trkpt lat="42.4509953521192073822021484375" lon="20.20645589567720890045166015625">
        <ele>1040</ele>
        <time>2026-06-20T12:43:00.000Z</time>
        <extensions>
          <ns3:TrackPointExtension>
            <ns3:atemp>31.0</ns3:atemp>
          </ns3:TrackPointExtension>
        </extensions>
      </trkpt>
      <trkpt lat="42.4509953521192073822021484375" lon="20.20645589567720890045166015625">
        <ele>1040</ele>
        <time>2026-06-20T12:43:01.000Z</time>
        <extensions>
          <ns3:TrackPointExtension>
            <ns3:atemp>31.0</ns3:atemp>
          </ns3:TrackPointExtension>
        </extensions>
      </trkpt>
      <trkpt lat="42.4509953521192073822021484375" lon="20.20645589567720890045166015625">
        <ele>1040</ele>
        <time>2026-06-20T12:43:02.000Z</time>
        <extensions>
          <ns3:TrackPointExtension>
            <ns3:atemp>31.0</ns3:atemp>
          </ns3:TrackPointExtension>
        </extensions>
      </trkpt>
      <trkpt lat="42.4509953521192073822021484375" lon="20.20645589567720890045166015625">
        <ele>1040</ele>
        <time>2026-06-20T12:43:03.000Z</time>
        <extensions>
          <ns3:TrackPointExtension>
            <ns3:atemp>31.0</ns3:atemp>
          </ns3:TrackPointExtension>
        </extensions>
      </trkpt>
      <trkpt lat="42.4509953521192073822021484375" lon="20.20645589567720890045166015625">
        <ele>1040</ele>
        <time>2026-06-20T12:43:04.000Z</time>
        <extensions>
          <ns3:TrackPointExtension>
            <ns3:atemp>31.0</ns3:atemp>
          </ns3:TrackPointExtension>
        </extensions>
      </trkpt>
      <trkpt lat="42.4509953521192073822021484375" lon="20.20645589567720890045166015625">
        <ele>1040</ele>
        <time>2026-06-20T12:43:05.000Z</time>
        <extensions>
          <ns3:TrackPointExtension>
            <ns3:atemp>31.0</ns3:atemp>
          </ns3:TrackPointExtension>
        </extensions>
      </trkpt>
      <trkpt lat="42.4509953521192073822021484375" lon="20.20645589567720890045166015625">
        <ele>1040</ele>
        <time>2026-06-20T12:43:06.000Z</time>
        <extensions>
          <ns3:TrackPointExtension>
            <ns3:atemp>31.0</ns3:atemp>
          </ns3:TrackPointExtension>
        </extensions>
      </trkpt>
      <trkpt lat="42.4509953521192073822021484375" lon="20.20645589567720890045166015625">
        <ele>1040</ele>
        <time>2026-06-20T12:43:07.000Z</time>
        <extensions>
          <ns3:TrackPointExtension>
            <ns3:atemp>31.0</ns3:atemp>
          </ns3:TrackPointExtension>
        </extensions>
      </trkpt>
      <trkpt lat="42.4509953521192073822021484375" lon="20.20645589567720890045166015625">
        <ele>1040</ele>
        <time>2026-06-20T12:43:08.000Z</time>
        <extensions>
          <ns3:TrackPointExtension>
            <ns3:atemp>31.0</ns3:atemp>
          </ns3:TrackPointExtension>
        </extensions>
      </trkpt>
      <trkpt lat="42.4509953521192073822021484375" lon="20.20645589567720890045166015625">
        <ele>1040</ele>
        <time>2026-06-20T12:43:09.000Z</time>
        <extensions>
          <ns3:TrackPointExtension>
            <ns3:atemp>31.0</ns3:atemp>
          </ns3:TrackPointExtension>
        </extensions>
      </trkpt>
      <trkpt lat="42.4509953521192073822021484375" lon="20.20645589567720890045166015625">
        <ele>1040</ele>
        <time>2026-06-20T12:43:10.000Z</time>
        <extensions>
          <ns3:TrackPointExtension>
            <ns3:atemp>31.0</ns3:atemp>
          </ns3:TrackPointExtension>
        </extensions>
      </trkpt>
      <trkpt lat="42.4509953521192073822021484375" lon="20.20645589567720890045166015625">
        <ele>1040</ele>
        <time>2026-06-20T12:43:11.000Z</time>
        <extensions>
          <ns3:TrackPointExtension>
            <ns3:atemp>31.0</ns3:atemp>
          </ns3:TrackPointExtension>
        </extensions>
      </trkpt>
      <trkpt lat="42.4509953521192073822021484375" lon="20.20645589567720890045166015625">
        <ele>1040</ele>
        <time>2026-06-20T12:43:12.000Z</time>
        <extensions>
          <ns3:TrackPointExtension>
            <ns3:atemp>31.0</ns3:atemp>
          </ns3:TrackPointExtension>
        </extensions>
      </trkpt>
      <trkpt lat="42.4509953521192073822021484375" lon="20.20645589567720890045166015625">
        <ele>1040</ele>
        <time>2026-06-20T12:43:13.000Z</time>
        <extensions>
          <ns3:TrackPointExtension>
            <ns3:atemp>31.0</ns3:atemp>
          </ns3:TrackPointExtension>
        </extensions>
      </trkpt>
      <trkpt lat="42.4509953521192073822021484375" lon="20.20645589567720890045166015625">
        <ele>1040</ele>
        <time>2026-06-20T12:43:14.000Z</time>
        <extensions>
          <ns3:TrackPointExtension>
            <ns3:atemp>31.0</ns3:atemp>
          </ns3:TrackPointExtension>
        </extensions>
      </trkpt>
      <trkpt lat="42.4509953521192073822021484375" lon="20.20645589567720890045166015625">
        <ele>1040</ele>
        <time>2026-06-20T12:43:15.000Z</time>
        <extensions>
          <ns3:TrackPointExtension>
            <ns3:atemp>31.0</ns3:atemp>
          </ns3:TrackPointExtension>
        </extensions>
      </trkpt>
      <trkpt lat="42.4509953521192073822021484375" lon="20.20645589567720890045166015625">
        <ele>1040</ele>
        <time>2026-06-20T12:43:16.000Z</time>
        <extensions>
          <ns3:TrackPointExtension>
            <ns3:atemp>31.0</ns3:atemp>
          </ns3:TrackPointExtension>
        </extensions>
      </trkpt>
      <trkpt lat="42.4509953521192073822021484375" lon="20.20645589567720890045166015625">
        <ele>1040</ele>
        <time>2026-06-20T12:43:17.000Z</time>
        <extensions>
          <ns3:TrackPointExtension>
            <ns3:atemp>31.0</ns3:atemp>
          </ns3:TrackPointExtension>
        </extensions>
      </trkpt>
      <trkpt lat="42.4509953521192073822021484375" lon="20.20645589567720890045166015625">
        <ele>1040</ele>
        <time>2026-06-20T12:43:18.000Z</time>
        <extensions>
          <ns3:TrackPointExtension>
            <ns3:atemp>31.0</ns3:atemp>
          </ns3:TrackPointExtension>
        </extensions>
      </trkpt>
      <trkpt lat="42.4509953521192073822021484375" lon="20.20645589567720890045166015625">
        <ele>1040</ele>
        <time>2026-06-20T12:43:19.000Z</time>
        <extensions>
          <ns3:TrackPointExtension>
            <ns3:atemp>31.0</ns3:atemp>
          </ns3:TrackPointExtension>
        </extensions>
      </trkpt>
      <trkpt lat="42.4509953521192073822021484375" lon="20.20645589567720890045166015625">
        <ele>1040</ele>
        <time>2026-06-20T12:43:20.000Z</time>
        <extensions>
          <ns3:TrackPointExtension>
            <ns3:atemp>31.0</ns3:atemp>
          </ns3:TrackPointExtension>
        </extensions>
      </trkpt>
      <trkpt lat="42.4509953521192073822021484375" lon="20.20645589567720890045166015625">
        <ele>1040</ele>
        <time>2026-06-20T12:43:21.000Z</time>
        <extensions>
          <ns3:TrackPointExtension>
            <ns3:atemp>31.0</ns3:atemp>
          </ns3:TrackPointExtension>
        </extensions>
      </trkpt>
      <trkpt lat="42.4509953521192073822021484375" lon="20.20645589567720890045166015625">
        <ele>1040</ele>
        <time>2026-06-20T12:43:22.000Z</time>
        <extensions>
          <ns3:TrackPointExtension>
            <ns3:atemp>31.0</ns3:atemp>
          </ns3:TrackPointExtension>
        </extensions>
      </trkpt>
      <trkpt lat="42.4509953521192073822021484375" lon="20.20645589567720890045166015625">
        <ele>1040</ele>
        <time>2026-06-20T12:43:23.000Z</time>
        <extensions>
          <ns3:TrackPointExtension>
            <ns3:atemp>31.0</ns3:atemp>
          </ns3:TrackPointExtension>
        </extensions>
      </trkpt>
      <trkpt lat="42.4509953521192073822021484375" lon="20.20645589567720890045166015625">
        <ele>1040</ele>
        <time>2026-06-20T12:43:24.000Z</time>
        <extensions>
          <ns3:TrackPointExtension>
            <ns3:atemp>31.0</ns3:atemp>
          </ns3:TrackPointExtension>
        </extensions>
      </trkpt>
      <trkpt lat="42.4509953521192073822021484375" lon="20.20645589567720890045166015625">
        <ele>1040</ele>
        <time>2026-06-20T12:43:25.000Z</time>
        <extensions>
          <ns3:TrackPointExtension>
            <ns3:atemp>31.0</ns3:atemp>
          </ns3:TrackPointExtension>
        </extensions>
      </trkpt>
      <trkpt lat="42.4509953521192073822021484375" lon="20.20645589567720890045166015625">
        <ele>1040</ele>
        <time>2026-06-20T12:43:26.000Z</time>
        <extensions>
          <ns3:TrackPointExtension>
            <ns3:atemp>31.0</ns3:atemp>
          </ns3:TrackPointExtension>
        </extensions>
      </trkpt>
      <trkpt lat="42.4509953521192073822021484375" lon="20.20645589567720890045166015625">
        <ele>1040</ele>
        <time>2026-06-20T12:43:27.000Z</time>
        <extensions>
          <ns3:TrackPointExtension>
            <ns3:atemp>31.0</ns3:atemp>
          </ns3:TrackPointExtension>
        </extensions>
      </trkpt>
      <trkpt lat="42.4509953521192073822021484375" lon="20.20645589567720890045166015625">
        <ele>1040</ele>
        <time>2026-06-20T12:43:28.000Z</time>
        <extensions>
          <ns3:TrackPointExtension>
            <ns3:atemp>31.0</ns3:atemp>
          </ns3:TrackPointExtension>
        </extensions>
      </trkpt>
      <trkpt lat="42.4509953521192073822021484375" lon="20.20645589567720890045166015625">
        <ele>1040</ele>
        <time>2026-06-20T12:43:29.000Z</time>
        <extensions>
          <ns3:TrackPointExtension>
            <ns3:atemp>31.0</ns3:atemp>
          </ns3:TrackPointExtension>
        </extensions>
      </trkpt>
      <trkpt lat="42.4509953521192073822021484375" lon="20.20645589567720890045166015625">
        <ele>1040</ele>
        <time>2026-06-20T12:43:30.000Z</time>
        <extensions>
          <ns3:TrackPointExtension>
            <ns3:atemp>31.0</ns3:atemp>
          </ns3:TrackPointExtension>
        </extensions>
      </trkpt>
      <trkpt lat="42.4509953521192073822021484375" lon="20.20645589567720890045166015625">
        <ele>1040</ele>
        <time>2026-06-20T12:43:31.000Z</time>
        <extensions>
          <ns3:TrackPointExtension>
            <ns3:atemp>31.0</ns3:atemp>
          </ns3:TrackPointExtension>
        </extensions>
      </trkpt>
      <trkpt lat="42.4509953521192073822021484375" lon="20.20645589567720890045166015625">
        <ele>1040</ele>
        <time>2026-06-20T12:43:32.000Z</time>
        <extensions>
          <ns3:TrackPointExtension>
            <ns3:atemp>31.0</ns3:atemp>
          </ns3:TrackPointExtension>
        </extensions>
      </trkpt>
      <trkpt lat="42.4509953521192073822021484375" lon="20.20645589567720890045166015625">
        <ele>1040</ele>
        <time>2026-06-20T12:43:33.000Z</time>
        <extensions>
          <ns3:TrackPointExtension>
            <ns3:atemp>31.0</ns3:atemp>
          </ns3:TrackPointExtension>
        </extensions>
      </trkpt>
      <trkpt lat="42.4509953521192073822021484375" lon="20.20645589567720890045166015625">
        <ele>1040</ele>
        <time>2026-06-20T12:43:34.000Z</time>
        <extensions>
          <ns3:TrackPointExtension>
            <ns3:atemp>31.0</ns3:atemp>
          </ns3:TrackPointExtension>
        </extensions>
      </trkpt>
      <trkpt lat="42.4509953521192073822021484375" lon="20.20645589567720890045166015625">
        <ele>1040</ele>
        <time>2026-06-20T12:43:35.000Z</time>
        <extensions>
          <ns3:TrackPointExtension>
            <ns3:atemp>31.0</ns3:atemp>
          </ns3:TrackPointExtension>
        </extensions>
      </trkpt>
      <trkpt lat="42.4509953521192073822021484375" lon="20.20645589567720890045166015625">
        <ele>1040</ele>
        <time>2026-06-20T12:43:36.000Z</time>
        <extensions>
          <ns3:TrackPointExtension>
            <ns3:atemp>31.0</ns3:atemp>
          </ns3:TrackPointExtension>
        </extensions>
      </trkpt>
      <trkpt lat="42.4509953521192073822021484375" lon="20.20645589567720890045166015625">
        <ele>1040</ele>
        <time>2026-06-20T12:43:37.000Z</time>
        <extensions>
          <ns3:TrackPointExtension>
            <ns3:atemp>31.0</ns3:atemp>
          </ns3:TrackPointExtension>
        </extensions>
      </trkpt>
      <trkpt lat="42.4509953521192073822021484375" lon="20.20645589567720890045166015625">
        <ele>1040</ele>
        <time>2026-06-20T12:43:38.000Z</time>
        <extensions>
          <ns3:TrackPointExtension>
            <ns3:atemp>31.0</ns3:atemp>
          </ns3:TrackPointExtension>
        </extensions>
      </trkpt>
      <trkpt lat="42.4509953521192073822021484375" lon="20.20645589567720890045166015625">
        <ele>1040</ele>
        <time>2026-06-20T12:43:39.000Z</time>
        <extensions>
          <ns3:TrackPointExtension>
            <ns3:atemp>31.0</ns3:atemp>
          </ns3:TrackPointExtension>
        </extensions>
      </trkpt>
      <trkpt lat="42.4509953521192073822021484375" lon="20.20645589567720890045166015625">
        <ele>1040</ele>
        <time>2026-06-20T12:43:40.000Z</time>
        <extensions>
          <ns3:TrackPointExtension>
            <ns3:atemp>31.0</ns3:atemp>
          </ns3:TrackPointExtension>
        </extensions>
      </trkpt>
      <trkpt lat="42.4509953521192073822021484375" lon="20.20645589567720890045166015625">
        <ele>1040</ele>
        <time>2026-06-20T12:43:41.000Z</time>
        <extensions>
          <ns3:TrackPointExtension>
            <ns3:atemp>31.0</ns3:atemp>
          </ns3:TrackPointExtension>
        </extensions>
      </trkpt>
      <trkpt lat="42.4509953521192073822021484375" lon="20.20645589567720890045166015625">
        <ele>1040</ele>
        <time>2026-06-20T12:43:42.000Z</time>
        <extensions>
          <ns3:TrackPointExtension>
            <ns3:atemp>31.0</ns3:atemp>
          </ns3:TrackPointExtension>
        </extensions>
      </trkpt>
      <trkpt lat="42.4509953521192073822021484375" lon="20.20645589567720890045166015625">
        <ele>1040</ele>
        <time>2026-06-20T12:43:43.000Z</time>
        <extensions>
          <ns3:TrackPointExtension>
            <ns3:atemp>31.0</ns3:atemp>
          </ns3:TrackPointExtension>
        </extensions>
      </trkpt>
      <trkpt lat="42.4509953521192073822021484375" lon="20.20645589567720890045166015625">
        <ele>1040</ele>
        <time>2026-06-20T12:43:44.000Z</time>
        <extensions>
          <ns3:TrackPointExtension>
            <ns3:atemp>31.0</ns3:atemp>
          </ns3:TrackPointExtension>
        </extensions>
      </trkpt>
      <trkpt lat="42.4509953521192073822021484375" lon="20.20645589567720890045166015625">
        <ele>1040</ele>
        <time>2026-06-20T12:43:45.000Z</time>
        <extensions>
          <ns3:TrackPointExtension>
            <ns3:atemp>31.0</ns3:atemp>
          </ns3:TrackPointExtension>
        </extensions>
      </trkpt>
      <trkpt lat="42.4509953521192073822021484375" lon="20.20645589567720890045166015625">
        <ele>1040</ele>
        <time>2026-06-20T12:43:46.000Z</time>
        <extensions>
          <ns3:TrackPointExtension>
            <ns3:atemp>31.0</ns3:atemp>
          </ns3:TrackPointExtension>
        </extensions>
      </trkpt>
      <trkpt lat="42.4509953521192073822021484375" lon="20.20645589567720890045166015625">
        <ele>1040</ele>
        <time>2026-06-20T12:43:47.000Z</time>
        <extensions>
          <ns3:TrackPointExtension>
            <ns3:atemp>31.0</ns3:atemp>
          </ns3:TrackPointExtension>
        </extensions>
      </trkpt>
      <trkpt lat="42.4509953521192073822021484375" lon="20.20645589567720890045166015625">
        <ele>1040</ele>
        <time>2026-06-20T12:43:48.000Z</time>
        <extensions>
          <ns3:TrackPointExtension>
            <ns3:atemp>31.0</ns3:atemp>
          </ns3:TrackPointExtension>
        </extensions>
      </trkpt>
      <trkpt lat="42.4509953521192073822021484375" lon="20.20645589567720890045166015625">
        <ele>1040</ele>
        <time>2026-06-20T12:43:49.000Z</time>
        <extensions>
          <ns3:TrackPointExtension>
            <ns3:atemp>31.0</ns3:atemp>
          </ns3:TrackPointExtension>
        </extensions>
      </trkpt>
      <trkpt lat="42.4509953521192073822021484375" lon="20.20645589567720890045166015625">
        <ele>1040</ele>
        <time>2026-06-20T12:43:50.000Z</time>
        <extensions>
          <ns3:TrackPointExtension>
            <ns3:atemp>31.0</ns3:atemp>
          </ns3:TrackPointExtension>
        </extensions>
      </trkpt>
      <trkpt lat="42.4509953521192073822021484375" lon="20.20645589567720890045166015625">
        <ele>1040</ele>
        <time>2026-06-20T12:43:51.000Z</time>
        <extensions>
          <ns3:TrackPointExtension>
            <ns3:atemp>31.0</ns3:atemp>
          </ns3:TrackPointExtension>
        </extensions>
      </trkpt>
      <trkpt lat="42.4509953521192073822021484375" lon="20.20645589567720890045166015625">
        <ele>1040</ele>
        <time>2026-06-20T12:43:52.000Z</time>
        <extensions>
          <ns3:TrackPointExtension>
            <ns3:atemp>31.0</ns3:atemp>
          </ns3:TrackPointExtension>
        </extensions>
      </trkpt>
      <trkpt lat="42.4509953521192073822021484375" lon="20.20645589567720890045166015625">
        <ele>1040</ele>
        <time>2026-06-20T12:43:53.000Z</time>
        <extensions>
          <ns3:TrackPointExtension>
            <ns3:atemp>31.0</ns3:atemp>
          </ns3:TrackPointExtension>
        </extensions>
      </trkpt>
      <trkpt lat="42.4509953521192073822021484375" lon="20.20645589567720890045166015625">
        <ele>1040</ele>
        <time>2026-06-20T12:43:54.000Z</time>
        <extensions>
          <ns3:TrackPointExtension>
            <ns3:atemp>31.0</ns3:atemp>
          </ns3:TrackPointExtension>
        </extensions>
      </trkpt>
      <trkpt lat="42.4509953521192073822021484375" lon="20.20645589567720890045166015625">
        <ele>1040</ele>
        <time>2026-06-20T12:43:55.000Z</time>
        <extensions>
          <ns3:TrackPointExtension>
            <ns3:atemp>31.0</ns3:atemp>
          </ns3:TrackPointExtension>
        </extensions>
      </trkpt>
      <trkpt lat="42.4509953521192073822021484375" lon="20.20645589567720890045166015625">
        <ele>1040</ele>
        <time>2026-06-20T12:43:56.000Z</time>
        <extensions>
          <ns3:TrackPointExtension>
            <ns3:atemp>31.0</ns3:atemp>
          </ns3:TrackPointExtension>
        </extensions>
      </trkpt>
      <trkpt lat="42.4509953521192073822021484375" lon="20.20645589567720890045166015625">
        <ele>1040</ele>
        <time>2026-06-20T12:43:57.000Z</time>
        <extensions>
          <ns3:TrackPointExtension>
            <ns3:atemp>31.0</ns3:atemp>
          </ns3:TrackPointExtension>
        </extensions>
      </trkpt>
      <trkpt lat="42.4509953521192073822021484375" lon="20.20645589567720890045166015625">
        <ele>1040</ele>
        <time>2026-06-20T12:43:58.000Z</time>
        <extensions>
          <ns3:TrackPointExtension>
            <ns3:atemp>31.0</ns3:atemp>
          </ns3:TrackPointExtension>
        </extensions>
      </trkpt>
      <trkpt lat="42.4509953521192073822021484375" lon="20.20645589567720890045166015625">
        <ele>1040</ele>
        <time>2026-06-20T12:43:59.000Z</time>
        <extensions>
          <ns3:TrackPointExtension>
            <ns3:atemp>31.0</ns3:atemp>
          </ns3:TrackPointExtension>
        </extensions>
      </trkpt>
      <trkpt lat="42.4509953521192073822021484375" lon="20.20645589567720890045166015625">
        <ele>1040</ele>
        <time>2026-06-20T12:44:00.000Z</time>
        <extensions>
          <ns3:TrackPointExtension>
            <ns3:atemp>31.0</ns3:atemp>
          </ns3:TrackPointExtension>
        </extensions>
      </trkpt>
      <trkpt lat="42.4509953521192073822021484375" lon="20.20645589567720890045166015625">
        <ele>1040</ele>
        <time>2026-06-20T12:44:01.000Z</time>
        <extensions>
          <ns3:TrackPointExtension>
            <ns3:atemp>31.0</ns3:atemp>
          </ns3:TrackPointExtension>
        </extensions>
      </trkpt>
      <trkpt lat="42.4509953521192073822021484375" lon="20.20645589567720890045166015625">
        <ele>1040</ele>
        <time>2026-06-20T12:44:02.000Z</time>
        <extensions>
          <ns3:TrackPointExtension>
            <ns3:atemp>31.0</ns3:atemp>
          </ns3:TrackPointExtension>
        </extensions>
      </trkpt>
      <trkpt lat="42.4509953521192073822021484375" lon="20.20645589567720890045166015625">
        <ele>1040</ele>
        <time>2026-06-20T12:44:03.000Z</time>
        <extensions>
          <ns3:TrackPointExtension>
            <ns3:atemp>31.0</ns3:atemp>
          </ns3:TrackPointExtension>
        </extensions>
      </trkpt>
      <trkpt lat="42.4509953521192073822021484375" lon="20.20645589567720890045166015625">
        <ele>1040</ele>
        <time>2026-06-20T12:44:04.000Z</time>
        <extensions>
          <ns3:TrackPointExtension>
            <ns3:atemp>31.0</ns3:atemp>
          </ns3:TrackPointExtension>
        </extensions>
      </trkpt>
      <trkpt lat="42.4509953521192073822021484375" lon="20.20645589567720890045166015625">
        <ele>1040</ele>
        <time>2026-06-20T12:44:05.000Z</time>
        <extensions>
          <ns3:TrackPointExtension>
            <ns3:atemp>31.0</ns3:atemp>
          </ns3:TrackPointExtension>
        </extensions>
      </trkpt>
      <trkpt lat="42.4509953521192073822021484375" lon="20.20645589567720890045166015625">
        <ele>1040</ele>
        <time>2026-06-20T12:44:06.000Z</time>
        <extensions>
          <ns3:TrackPointExtension>
            <ns3:atemp>31.0</ns3:atemp>
          </ns3:TrackPointExtension>
        </extensions>
      </trkpt>
      <trkpt lat="42.4509953521192073822021484375" lon="20.20645589567720890045166015625">
        <ele>1040</ele>
        <time>2026-06-20T12:44:07.000Z</time>
        <extensions>
          <ns3:TrackPointExtension>
            <ns3:atemp>31.0</ns3:atemp>
          </ns3:TrackPointExtension>
        </extensions>
      </trkpt>
      <trkpt lat="42.4509953521192073822021484375" lon="20.20645589567720890045166015625">
        <ele>1040</ele>
        <time>2026-06-20T12:44:08.000Z</time>
        <extensions>
          <ns3:TrackPointExtension>
            <ns3:atemp>31.0</ns3:atemp>
          </ns3:TrackPointExtension>
        </extensions>
      </trkpt>
      <trkpt lat="42.4509953521192073822021484375" lon="20.20645589567720890045166015625">
        <ele>1040</ele>
        <time>2026-06-20T12:44:09.000Z</time>
        <extensions>
          <ns3:TrackPointExtension>
            <ns3:atemp>31.0</ns3:atemp>
          </ns3:TrackPointExtension>
        </extensions>
      </trkpt>
      <trkpt lat="42.4509953521192073822021484375" lon="20.20645589567720890045166015625">
        <ele>1040</ele>
        <time>2026-06-20T12:44:10.000Z</time>
        <extensions>
          <ns3:TrackPointExtension>
            <ns3:atemp>31.0</ns3:atemp>
          </ns3:TrackPointExtension>
        </extensions>
      </trkpt>
      <trkpt lat="42.4509953521192073822021484375" lon="20.20645589567720890045166015625">
        <ele>1040</ele>
        <time>2026-06-20T12:44:11.000Z</time>
        <extensions>
          <ns3:TrackPointExtension>
            <ns3:atemp>31.0</ns3:atemp>
          </ns3:TrackPointExtension>
        </extensions>
      </trkpt>
      <trkpt lat="42.4509953521192073822021484375" lon="20.20645589567720890045166015625">
        <ele>1040</ele>
        <time>2026-06-20T12:44:12.000Z</time>
        <extensions>
          <ns3:TrackPointExtension>
            <ns3:atemp>32.0</ns3:atemp>
          </ns3:TrackPointExtension>
        </extensions>
      </trkpt>
      <trkpt lat="42.4509953521192073822021484375" lon="20.20645589567720890045166015625">
        <ele>1040</ele>
        <time>2026-06-20T12:44:13.000Z</time>
        <extensions>
          <ns3:TrackPointExtension>
            <ns3:atemp>32.0</ns3:atemp>
          </ns3:TrackPointExtension>
        </extensions>
      </trkpt>
      <trkpt lat="42.4509953521192073822021484375" lon="20.20645589567720890045166015625">
        <ele>1040</ele>
        <time>2026-06-20T12:44:14.000Z</time>
        <extensions>
          <ns3:TrackPointExtension>
            <ns3:atemp>32.0</ns3:atemp>
          </ns3:TrackPointExtension>
        </extensions>
      </trkpt>
      <trkpt lat="42.4509953521192073822021484375" lon="20.20645589567720890045166015625">
        <ele>1040</ele>
        <time>2026-06-20T12:44:15.000Z</time>
        <extensions>
          <ns3:TrackPointExtension>
            <ns3:atemp>32.0</ns3:atemp>
          </ns3:TrackPointExtension>
        </extensions>
      </trkpt>
      <trkpt lat="42.4509953521192073822021484375" lon="20.20645589567720890045166015625">
        <ele>1040</ele>
        <time>2026-06-20T12:44:16.000Z</time>
        <extensions>
          <ns3:TrackPointExtension>
            <ns3:atemp>32.0</ns3:atemp>
          </ns3:TrackPointExtension>
        </extensions>
      </trkpt>
      <trkpt lat="42.4509953521192073822021484375" lon="20.20645589567720890045166015625">
        <ele>1040</ele>
        <time>2026-06-20T12:44:17.000Z</time>
        <extensions>
          <ns3:TrackPointExtension>
            <ns3:atemp>32.0</ns3:atemp>
          </ns3:TrackPointExtension>
        </extensions>
      </trkpt>
      <trkpt lat="42.4509953521192073822021484375" lon="20.20645589567720890045166015625">
        <ele>1040</ele>
        <time>2026-06-20T12:44:18.000Z</time>
        <extensions>
          <ns3:TrackPointExtension>
            <ns3:atemp>32.0</ns3:atemp>
          </ns3:TrackPointExtension>
        </extensions>
      </trkpt>
      <trkpt lat="42.4509953521192073822021484375" lon="20.20645589567720890045166015625">
        <ele>1040</ele>
        <time>2026-06-20T12:44:19.000Z</time>
        <extensions>
          <ns3:TrackPointExtension>
            <ns3:atemp>32.0</ns3:atemp>
          </ns3:TrackPointExtension>
        </extensions>
      </trkpt>
      <trkpt lat="42.4509953521192073822021484375" lon="20.20645589567720890045166015625">
        <ele>1040</ele>
        <time>2026-06-20T12:44:20.000Z</time>
        <extensions>
          <ns3:TrackPointExtension>
            <ns3:atemp>32.0</ns3:atemp>
          </ns3:TrackPointExtension>
        </extensions>
      </trkpt>
      <trkpt lat="42.4509953521192073822021484375" lon="20.20645589567720890045166015625">
        <ele>1040</ele>
        <time>2026-06-20T12:44:21.000Z</time>
        <extensions>
          <ns3:TrackPointExtension>
            <ns3:atemp>32.0</ns3:atemp>
          </ns3:TrackPointExtension>
        </extensions>
      </trkpt>
      <trkpt lat="42.4509953521192073822021484375" lon="20.20645589567720890045166015625">
        <ele>1040</ele>
        <time>2026-06-20T12:44:22.000Z</time>
        <extensions>
          <ns3:TrackPointExtension>
            <ns3:atemp>32.0</ns3:atemp>
          </ns3:TrackPointExtension>
        </extensions>
      </trkpt>
      <trkpt lat="42.4509953521192073822021484375" lon="20.20645589567720890045166015625">
        <ele>1040</ele>
        <time>2026-06-20T12:44:23.000Z</time>
        <extensions>
          <ns3:TrackPointExtension>
            <ns3:atemp>32.0</ns3:atemp>
          </ns3:TrackPointExtension>
        </extensions>
      </trkpt>
      <trkpt lat="42.4509953521192073822021484375" lon="20.20645589567720890045166015625">
        <ele>1040</ele>
        <time>2026-06-20T12:44:24.000Z</time>
        <extensions>
          <ns3:TrackPointExtension>
            <ns3:atemp>32.0</ns3:atemp>
          </ns3:TrackPointExtension>
        </extensions>
      </trkpt>
      <trkpt lat="42.4509953521192073822021484375" lon="20.20645589567720890045166015625">
        <ele>1040</ele>
        <time>2026-06-20T12:44:25.000Z</time>
        <extensions>
          <ns3:TrackPointExtension>
            <ns3:atemp>32.0</ns3:atemp>
          </ns3:TrackPointExtension>
        </extensions>
      </trkpt>
      <trkpt lat="42.4509953521192073822021484375" lon="20.20645589567720890045166015625">
        <ele>1040</ele>
        <time>2026-06-20T12:44:26.000Z</time>
        <extensions>
          <ns3:TrackPointExtension>
            <ns3:atemp>32.0</ns3:atemp>
          </ns3:TrackPointExtension>
        </extensions>
      </trkpt>
      <trkpt lat="42.4509953521192073822021484375" lon="20.20645589567720890045166015625">
        <ele>1040</ele>
        <time>2026-06-20T12:44:27.000Z</time>
        <extensions>
          <ns3:TrackPointExtension>
            <ns3:atemp>32.0</ns3:atemp>
          </ns3:TrackPointExtension>
        </extensions>
      </trkpt>
      <trkpt lat="42.4509953521192073822021484375" lon="20.20645589567720890045166015625">
        <ele>1040</ele>
        <time>2026-06-20T12:44:28.000Z</time>
        <extensions>
          <ns3:TrackPointExtension>
            <ns3:atemp>32.0</ns3:atemp>
          </ns3:TrackPointExtension>
        </extensions>
      </trkpt>
      <trkpt lat="42.4509953521192073822021484375" lon="20.20645589567720890045166015625">
        <ele>1040</ele>
        <time>2026-06-20T12:44:29.000Z</time>
        <extensions>
          <ns3:TrackPointExtension>
            <ns3:atemp>32.0</ns3:atemp>
          </ns3:TrackPointExtension>
        </extensions>
      </trkpt>
      <trkpt lat="42.4509953521192073822021484375" lon="20.20645589567720890045166015625">
        <ele>1040</ele>
        <time>2026-06-20T12:44:30.000Z</time>
        <extensions>
          <ns3:TrackPointExtension>
            <ns3:atemp>32.0</ns3:atemp>
          </ns3:TrackPointExtension>
        </extensions>
      </trkpt>
      <trkpt lat="42.4509953521192073822021484375" lon="20.20645589567720890045166015625">
        <ele>1040</ele>
        <time>2026-06-20T12:44:31.000Z</time>
        <extensions>
          <ns3:TrackPointExtension>
            <ns3:atemp>32.0</ns3:atemp>
          </ns3:TrackPointExtension>
        </extensions>
      </trkpt>
      <trkpt lat="42.4509953521192073822021484375" lon="20.20645589567720890045166015625">
        <ele>1040</ele>
        <time>2026-06-20T12:44:32.000Z</time>
        <extensions>
          <ns3:TrackPointExtension>
            <ns3:atemp>32.0</ns3:atemp>
          </ns3:TrackPointExtension>
        </extensions>
      </trkpt>
      <trkpt lat="42.4509953521192073822021484375" lon="20.20645589567720890045166015625">
        <ele>1040</ele>
        <time>2026-06-20T12:44:33.000Z</time>
        <extensions>
          <ns3:TrackPointExtension>
            <ns3:atemp>32.0</ns3:atemp>
          </ns3:TrackPointExtension>
        </extensions>
      </trkpt>
      <trkpt lat="42.4509953521192073822021484375" lon="20.20645589567720890045166015625">
        <ele>1040</ele>
        <time>2026-06-20T12:44:34.000Z</time>
        <extensions>
          <ns3:TrackPointExtension>
            <ns3:atemp>32.0</ns3:atemp>
          </ns3:TrackPointExtension>
        </extensions>
      </trkpt>
      <trkpt lat="42.4509953521192073822021484375" lon="20.20645589567720890045166015625">
        <ele>1040</ele>
        <time>2026-06-20T12:44:35.000Z</time>
        <extensions>
          <ns3:TrackPointExtension>
            <ns3:atemp>32.0</ns3:atemp>
          </ns3:TrackPointExtension>
        </extensions>
      </trkpt>
      <trkpt lat="42.4509953521192073822021484375" lon="20.20645589567720890045166015625">
        <ele>1040</ele>
        <time>2026-06-20T12:44:36.000Z</time>
        <extensions>
          <ns3:TrackPointExtension>
            <ns3:atemp>32.0</ns3:atemp>
          </ns3:TrackPointExtension>
        </extensions>
      </trkpt>
      <trkpt lat="42.4509953521192073822021484375" lon="20.20645589567720890045166015625">
        <ele>1040</ele>
        <time>2026-06-20T12:44:37.000Z</time>
        <extensions>
          <ns3:TrackPointExtension>
            <ns3:atemp>32.0</ns3:atemp>
          </ns3:TrackPointExtension>
        </extensions>
      </trkpt>
      <trkpt lat="42.4509953521192073822021484375" lon="20.20645589567720890045166015625">
        <ele>1040</ele>
        <time>2026-06-20T12:44:38.000Z</time>
        <extensions>
          <ns3:TrackPointExtension>
            <ns3:atemp>32.0</ns3:atemp>
          </ns3:TrackPointExtension>
        </extensions>
      </trkpt>
      <trkpt lat="42.4509953521192073822021484375" lon="20.20645589567720890045166015625">
        <ele>1040</ele>
        <time>2026-06-20T12:44:39.000Z</time>
        <extensions>
          <ns3:TrackPointExtension>
            <ns3:atemp>32.0</ns3:atemp>
          </ns3:TrackPointExtension>
        </extensions>
      </trkpt>
      <trkpt lat="42.4509953521192073822021484375" lon="20.20645589567720890045166015625">
        <ele>1040</ele>
        <time>2026-06-20T12:44:40.000Z</time>
        <extensions>
          <ns3:TrackPointExtension>
            <ns3:atemp>32.0</ns3:atemp>
          </ns3:TrackPointExtension>
        </extensions>
      </trkpt>
      <trkpt lat="42.4509953521192073822021484375" lon="20.20645589567720890045166015625">
        <ele>1040</ele>
        <time>2026-06-20T12:44:41.000Z</time>
        <extensions>
          <ns3:TrackPointExtension>
            <ns3:atemp>32.0</ns3:atemp>
          </ns3:TrackPointExtension>
        </extensions>
      </trkpt>
      <trkpt lat="42.4509953521192073822021484375" lon="20.20645589567720890045166015625">
        <ele>1040</ele>
        <time>2026-06-20T12:44:42.000Z</time>
        <extensions>
          <ns3:TrackPointExtension>
            <ns3:atemp>32.0</ns3:atemp>
          </ns3:TrackPointExtension>
        </extensions>
      </trkpt>
      <trkpt lat="42.4509953521192073822021484375" lon="20.20645589567720890045166015625">
        <ele>1040</ele>
        <time>2026-06-20T12:44:43.000Z</time>
        <extensions>
          <ns3:TrackPointExtension>
            <ns3:atemp>32.0</ns3:atemp>
          </ns3:TrackPointExtension>
        </extensions>
      </trkpt>
      <trkpt lat="42.4509953521192073822021484375" lon="20.20645589567720890045166015625">
        <ele>1040</ele>
        <time>2026-06-20T12:44:44.000Z</time>
        <extensions>
          <ns3:TrackPointExtension>
            <ns3:atemp>32.0</ns3:atemp>
          </ns3:TrackPointExtension>
        </extensions>
      </trkpt>
      <trkpt lat="42.4509953521192073822021484375" lon="20.20645589567720890045166015625">
        <ele>1040</ele>
        <time>2026-06-20T12:44:45.000Z</time>
        <extensions>
          <ns3:TrackPointExtension>
            <ns3:atemp>32.0</ns3:atemp>
          </ns3:TrackPointExtension>
        </extensions>
      </trkpt>
      <trkpt lat="42.4509953521192073822021484375" lon="20.20645589567720890045166015625">
        <ele>1040</ele>
        <time>2026-06-20T12:44:46.000Z</time>
        <extensions>
          <ns3:TrackPointExtension>
            <ns3:atemp>32.0</ns3:atemp>
          </ns3:TrackPointExtension>
        </extensions>
      </trkpt>
      <trkpt lat="42.4509953521192073822021484375" lon="20.20645589567720890045166015625">
        <ele>1040</ele>
        <time>2026-06-20T12:44:47.000Z</time>
        <extensions>
          <ns3:TrackPointExtension>
            <ns3:atemp>32.0</ns3:atemp>
          </ns3:TrackPointExtension>
        </extensions>
      </trkpt>
      <trkpt lat="42.4509953521192073822021484375" lon="20.20645589567720890045166015625">
        <ele>1040</ele>
        <time>2026-06-20T12:44:48.000Z</time>
        <extensions>
          <ns3:TrackPointExtension>
            <ns3:atemp>32.0</ns3:atemp>
          </ns3:TrackPointExtension>
        </extensions>
      </trkpt>
      <trkpt lat="42.4509953521192073822021484375" lon="20.20645589567720890045166015625">
        <ele>1040</ele>
        <time>2026-06-20T12:44:49.000Z</time>
        <extensions>
          <ns3:TrackPointExtension>
            <ns3:atemp>32.0</ns3:atemp>
          </ns3:TrackPointExtension>
        </extensions>
      </trkpt>
      <trkpt lat="42.4509953521192073822021484375" lon="20.20645589567720890045166015625">
        <ele>1040</ele>
        <time>2026-06-20T12:44:50.000Z</time>
        <extensions>
          <ns3:TrackPointExtension>
            <ns3:atemp>32.0</ns3:atemp>
          </ns3:TrackPointExtension>
        </extensions>
      </trkpt>
      <trkpt lat="42.4509953521192073822021484375" lon="20.20645589567720890045166015625">
        <ele>1040</ele>
        <time>2026-06-20T12:44:51.000Z</time>
        <extensions>
          <ns3:TrackPointExtension>
            <ns3:atemp>32.0</ns3:atemp>
          </ns3:TrackPointExtension>
        </extensions>
      </trkpt>
      <trkpt lat="42.4509953521192073822021484375" lon="20.20645589567720890045166015625">
        <ele>1040</ele>
        <time>2026-06-20T12:44:52.000Z</time>
        <extensions>
          <ns3:TrackPointExtension>
            <ns3:atemp>32.0</ns3:atemp>
          </ns3:TrackPointExtension>
        </extensions>
      </trkpt>
      <trkpt lat="42.4509953521192073822021484375" lon="20.20645589567720890045166015625">
        <ele>1040</ele>
        <time>2026-06-20T12:44:53.000Z</time>
        <extensions>
          <ns3:TrackPointExtension>
            <ns3:atemp>32.0</ns3:atemp>
          </ns3:TrackPointExtension>
        </extensions>
      </trkpt>
      <trkpt lat="42.4509953521192073822021484375" lon="20.20645589567720890045166015625">
        <ele>1040</ele>
        <time>2026-06-20T12:44:54.000Z</time>
        <extensions>
          <ns3:TrackPointExtension>
            <ns3:atemp>32.0</ns3:atemp>
          </ns3:TrackPointExtension>
        </extensions>
      </trkpt>
      <trkpt lat="42.4509953521192073822021484375" lon="20.20645589567720890045166015625">
        <ele>1040</ele>
        <time>2026-06-20T12:44:55.000Z</time>
        <extensions>
          <ns3:TrackPointExtension>
            <ns3:atemp>32.0</ns3:atemp>
          </ns3:TrackPointExtension>
        </extensions>
      </trkpt>
      <trkpt lat="42.4509953521192073822021484375" lon="20.20645589567720890045166015625">
        <ele>1040</ele>
        <time>2026-06-20T12:44:56.000Z</time>
        <extensions>
          <ns3:TrackPointExtension>
            <ns3:atemp>32.0</ns3:atemp>
          </ns3:TrackPointExtension>
        </extensions>
      </trkpt>
      <trkpt lat="42.4509953521192073822021484375" lon="20.20645589567720890045166015625">
        <ele>1040</ele>
        <time>2026-06-20T12:44:57.000Z</time>
        <extensions>
          <ns3:TrackPointExtension>
            <ns3:atemp>32.0</ns3:atemp>
          </ns3:TrackPointExtension>
        </extensions>
      </trkpt>
      <trkpt lat="42.4509953521192073822021484375" lon="20.20645589567720890045166015625">
        <ele>1040</ele>
        <time>2026-06-20T12:44:58.000Z</time>
        <extensions>
          <ns3:TrackPointExtension>
            <ns3:atemp>32.0</ns3:atemp>
          </ns3:TrackPointExtension>
        </extensions>
      </trkpt>
      <trkpt lat="42.4509953521192073822021484375" lon="20.20645589567720890045166015625">
        <ele>1040</ele>
        <time>2026-06-20T12:44:59.000Z</time>
        <extensions>
          <ns3:TrackPointExtension>
            <ns3:atemp>32.0</ns3:atemp>
          </ns3:TrackPointExtension>
        </extensions>
      </trkpt>
      <trkpt lat="42.4509953521192073822021484375" lon="20.20645589567720890045166015625">
        <ele>1040</ele>
        <time>2026-06-20T12:45:00.000Z</time>
        <extensions>
          <ns3:TrackPointExtension>
            <ns3:atemp>32.0</ns3:atemp>
          </ns3:TrackPointExtension>
        </extensions>
      </trkpt>
      <trkpt lat="42.4509953521192073822021484375" lon="20.20645589567720890045166015625">
        <ele>1040</ele>
        <time>2026-06-20T12:45:01.000Z</time>
        <extensions>
          <ns3:TrackPointExtension>
            <ns3:atemp>32.0</ns3:atemp>
          </ns3:TrackPointExtension>
        </extensions>
      </trkpt>
      <trkpt lat="42.4509953521192073822021484375" lon="20.20645589567720890045166015625">
        <ele>1040</ele>
        <time>2026-06-20T12:45:02.000Z</time>
        <extensions>
          <ns3:TrackPointExtension>
            <ns3:atemp>32.0</ns3:atemp>
          </ns3:TrackPointExtension>
        </extensions>
      </trkpt>
      <trkpt lat="42.4509953521192073822021484375" lon="20.20645589567720890045166015625">
        <ele>1040</ele>
        <time>2026-06-20T12:45:03.000Z</time>
        <extensions>
          <ns3:TrackPointExtension>
            <ns3:atemp>32.0</ns3:atemp>
          </ns3:TrackPointExtension>
        </extensions>
      </trkpt>
      <trkpt lat="42.4509953521192073822021484375" lon="20.20645589567720890045166015625">
        <ele>1040</ele>
        <time>2026-06-20T12:45:04.000Z</time>
        <extensions>
          <ns3:TrackPointExtension>
            <ns3:atemp>32.0</ns3:atemp>
          </ns3:TrackPointExtension>
        </extensions>
      </trkpt>
      <trkpt lat="42.4509953521192073822021484375" lon="20.20645589567720890045166015625">
        <ele>1040</ele>
        <time>2026-06-20T12:45:05.000Z</time>
        <extensions>
          <ns3:TrackPointExtension>
            <ns3:atemp>32.0</ns3:atemp>
          </ns3:TrackPointExtension>
        </extensions>
      </trkpt>
      <trkpt lat="42.4509953521192073822021484375" lon="20.20645589567720890045166015625">
        <ele>1040</ele>
        <time>2026-06-20T12:45:06.000Z</time>
        <extensions>
          <ns3:TrackPointExtension>
            <ns3:atemp>32.0</ns3:atemp>
          </ns3:TrackPointExtension>
        </extensions>
      </trkpt>
      <trkpt lat="42.4509953521192073822021484375" lon="20.20645589567720890045166015625">
        <ele>1040</ele>
        <time>2026-06-20T12:45:07.000Z</time>
        <extensions>
          <ns3:TrackPointExtension>
            <ns3:atemp>32.0</ns3:atemp>
          </ns3:TrackPointExtension>
        </extensions>
      </trkpt>
      <trkpt lat="42.4509953521192073822021484375" lon="20.20645589567720890045166015625">
        <ele>1040</ele>
        <time>2026-06-20T12:45:08.000Z</time>
        <extensions>
          <ns3:TrackPointExtension>
            <ns3:atemp>32.0</ns3:atemp>
          </ns3:TrackPointExtension>
        </extensions>
      </trkpt>
      <trkpt lat="42.4509953521192073822021484375" lon="20.20645589567720890045166015625">
        <ele>1040</ele>
        <time>2026-06-20T12:45:09.000Z</time>
        <extensions>
          <ns3:TrackPointExtension>
            <ns3:atemp>32.0</ns3:atemp>
          </ns3:TrackPointExtension>
        </extensions>
      </trkpt>
      <trkpt lat="42.4509953521192073822021484375" lon="20.20645589567720890045166015625">
        <ele>1040</ele>
        <time>2026-06-20T12:45:10.000Z</time>
        <extensions>
          <ns3:TrackPointExtension>
            <ns3:atemp>32.0</ns3:atemp>
          </ns3:TrackPointExtension>
        </extensions>
      </trkpt>
      <trkpt lat="42.4509953521192073822021484375" lon="20.20645589567720890045166015625">
        <ele>1040</ele>
        <time>2026-06-20T12:45:11.000Z</time>
        <extensions>
          <ns3:TrackPointExtension>
            <ns3:atemp>32.0</ns3:atemp>
          </ns3:TrackPointExtension>
        </extensions>
      </trkpt>
      <trkpt lat="42.4509953521192073822021484375" lon="20.20645589567720890045166015625">
        <ele>1040</ele>
        <time>2026-06-20T12:45:12.000Z</time>
        <extensions>
          <ns3:TrackPointExtension>
            <ns3:atemp>32.0</ns3:atemp>
          </ns3:TrackPointExtension>
        </extensions>
      </trkpt>
      <trkpt lat="42.4509953521192073822021484375" lon="20.20645589567720890045166015625">
        <ele>1040</ele>
        <time>2026-06-20T12:45:13.000Z</time>
        <extensions>
          <ns3:TrackPointExtension>
            <ns3:atemp>32.0</ns3:atemp>
          </ns3:TrackPointExtension>
        </extensions>
      </trkpt>
      <trkpt lat="42.4509953521192073822021484375" lon="20.20645589567720890045166015625">
        <ele>1040</ele>
        <time>2026-06-20T12:45:14.000Z</time>
        <extensions>
          <ns3:TrackPointExtension>
            <ns3:atemp>32.0</ns3:atemp>
          </ns3:TrackPointExtension>
        </extensions>
      </trkpt>
      <trkpt lat="42.4509953521192073822021484375" lon="20.20645589567720890045166015625">
        <ele>1040</ele>
        <time>2026-06-20T12:45:15.000Z</time>
        <extensions>
          <ns3:TrackPointExtension>
            <ns3:atemp>32.0</ns3:atemp>
          </ns3:TrackPointExtension>
        </extensions>
      </trkpt>
      <trkpt lat="42.4509953521192073822021484375" lon="20.20645589567720890045166015625">
        <ele>1040</ele>
        <time>2026-06-20T12:45:16.000Z</time>
        <extensions>
          <ns3:TrackPointExtension>
            <ns3:atemp>32.0</ns3:atemp>
          </ns3:TrackPointExtension>
        </extensions>
      </trkpt>
      <trkpt lat="42.4509953521192073822021484375" lon="20.20645589567720890045166015625">
        <ele>1040</ele>
        <time>2026-06-20T12:45:17.000Z</time>
        <extensions>
          <ns3:TrackPointExtension>
            <ns3:atemp>32.0</ns3:atemp>
          </ns3:TrackPointExtension>
        </extensions>
      </trkpt>
      <trkpt lat="42.4509953521192073822021484375" lon="20.20645589567720890045166015625">
        <ele>1040</ele>
        <time>2026-06-20T12:45:18.000Z</time>
        <extensions>
          <ns3:TrackPointExtension>
            <ns3:atemp>32.0</ns3:atemp>
          </ns3:TrackPointExtension>
        </extensions>
      </trkpt>
      <trkpt lat="42.4509953521192073822021484375" lon="20.20645589567720890045166015625">
        <ele>1040</ele>
        <time>2026-06-20T12:45:19.000Z</time>
        <extensions>
          <ns3:TrackPointExtension>
            <ns3:atemp>32.0</ns3:atemp>
          </ns3:TrackPointExtension>
        </extensions>
      </trkpt>
      <trkpt lat="42.4509953521192073822021484375" lon="20.20645589567720890045166015625">
        <ele>1040</ele>
        <time>2026-06-20T12:45:20.000Z</time>
        <extensions>
          <ns3:TrackPointExtension>
            <ns3:atemp>32.0</ns3:atemp>
          </ns3:TrackPointExtension>
        </extensions>
      </trkpt>
      <trkpt lat="42.4509953521192073822021484375" lon="20.20645589567720890045166015625">
        <ele>1040</ele>
        <time>2026-06-20T12:45:21.000Z</time>
        <extensions>
          <ns3:TrackPointExtension>
            <ns3:atemp>32.0</ns3:atemp>
          </ns3:TrackPointExtension>
        </extensions>
      </trkpt>
      <trkpt lat="42.4509953521192073822021484375" lon="20.20645589567720890045166015625">
        <ele>1040</ele>
        <time>2026-06-20T12:45:22.000Z</time>
        <extensions>
          <ns3:TrackPointExtension>
            <ns3:atemp>32.0</ns3:atemp>
          </ns3:TrackPointExtension>
        </extensions>
      </trkpt>
      <trkpt lat="42.4509953521192073822021484375" lon="20.20645589567720890045166015625">
        <ele>1040</ele>
        <time>2026-06-20T12:45:23.000Z</time>
        <extensions>
          <ns3:TrackPointExtension>
            <ns3:atemp>32.0</ns3:atemp>
          </ns3:TrackPointExtension>
        </extensions>
      </trkpt>
      <trkpt lat="42.4509953521192073822021484375" lon="20.20645589567720890045166015625">
        <ele>1040</ele>
        <time>2026-06-20T12:45:24.000Z</time>
        <extensions>
          <ns3:TrackPointExtension>
            <ns3:atemp>32.0</ns3:atemp>
          </ns3:TrackPointExtension>
        </extensions>
      </trkpt>
      <trkpt lat="42.4509953521192073822021484375" lon="20.20645589567720890045166015625">
        <ele>1040</ele>
        <time>2026-06-20T12:45:25.000Z</time>
        <extensions>
          <ns3:TrackPointExtension>
            <ns3:atemp>32.0</ns3:atemp>
          </ns3:TrackPointExtension>
        </extensions>
      </trkpt>
      <trkpt lat="42.4509953521192073822021484375" lon="20.20645589567720890045166015625">
        <ele>1040</ele>
        <time>2026-06-20T12:45:26.000Z</time>
        <extensions>
          <ns3:TrackPointExtension>
            <ns3:atemp>32.0</ns3:atemp>
          </ns3:TrackPointExtension>
        </extensions>
      </trkpt>
      <trkpt lat="42.4509953521192073822021484375" lon="20.20645589567720890045166015625">
        <ele>1040</ele>
        <time>2026-06-20T12:45:27.000Z</time>
        <extensions>
          <ns3:TrackPointExtension>
            <ns3:atemp>32.0</ns3:atemp>
          </ns3:TrackPointExtension>
        </extensions>
      </trkpt>
      <trkpt lat="42.4509953521192073822021484375" lon="20.20645589567720890045166015625">
        <ele>1040</ele>
        <time>2026-06-20T12:45:28.000Z</time>
        <extensions>
          <ns3:TrackPointExtension>
            <ns3:atemp>32.0</ns3:atemp>
          </ns3:TrackPointExtension>
        </extensions>
      </trkpt>
      <trkpt lat="42.4509953521192073822021484375" lon="20.20645589567720890045166015625">
        <ele>1040</ele>
        <time>2026-06-20T12:45:29.000Z</time>
        <extensions>
          <ns3:TrackPointExtension>
            <ns3:atemp>32.0</ns3:atemp>
          </ns3:TrackPointExtension>
        </extensions>
      </trkpt>
      <trkpt lat="42.4509953521192073822021484375" lon="20.20645589567720890045166015625">
        <ele>1040</ele>
        <time>2026-06-20T12:45:30.000Z</time>
        <extensions>
          <ns3:TrackPointExtension>
            <ns3:atemp>32.0</ns3:atemp>
          </ns3:TrackPointExtension>
        </extensions>
      </trkpt>
      <trkpt lat="42.4509953521192073822021484375" lon="20.20645589567720890045166015625">
        <ele>1040</ele>
        <time>2026-06-20T12:45:31.000Z</time>
        <extensions>
          <ns3:TrackPointExtension>
            <ns3:atemp>32.0</ns3:atemp>
          </ns3:TrackPointExtension>
        </extensions>
      </trkpt>
      <trkpt lat="42.4509953521192073822021484375" lon="20.20645589567720890045166015625">
        <ele>1040</ele>
        <time>2026-06-20T12:45:32.000Z</time>
        <extensions>
          <ns3:TrackPointExtension>
            <ns3:atemp>32.0</ns3:atemp>
          </ns3:TrackPointExtension>
        </extensions>
      </trkpt>
      <trkpt lat="42.4509953521192073822021484375" lon="20.20645589567720890045166015625">
        <ele>1040</ele>
        <time>2026-06-20T12:45:33.000Z</time>
        <extensions>
          <ns3:TrackPointExtension>
            <ns3:atemp>32.0</ns3:atemp>
          </ns3:TrackPointExtension>
        </extensions>
      </trkpt>
      <trkpt lat="42.4509953521192073822021484375" lon="20.20645589567720890045166015625">
        <ele>1040</ele>
        <time>2026-06-20T12:45:34.000Z</time>
        <extensions>
          <ns3:TrackPointExtension>
            <ns3:atemp>32.0</ns3:atemp>
          </ns3:TrackPointExtension>
        </extensions>
      </trkpt>
      <trkpt lat="42.4509953521192073822021484375" lon="20.20645589567720890045166015625">
        <ele>1040</ele>
        <time>2026-06-20T12:45:35.000Z</time>
        <extensions>
          <ns3:TrackPointExtension>
            <ns3:atemp>32.0</ns3:atemp>
          </ns3:TrackPointExtension>
        </extensions>
      </trkpt>
      <trkpt lat="42.4509953521192073822021484375" lon="20.20645589567720890045166015625">
        <ele>1040</ele>
        <time>2026-06-20T12:45:36.000Z</time>
        <extensions>
          <ns3:TrackPointExtension>
            <ns3:atemp>32.0</ns3:atemp>
          </ns3:TrackPointExtension>
        </extensions>
      </trkpt>
      <trkpt lat="42.4509953521192073822021484375" lon="20.20645589567720890045166015625">
        <ele>1040</ele>
        <time>2026-06-20T12:45:37.000Z</time>
        <extensions>
          <ns3:TrackPointExtension>
            <ns3:atemp>32.0</ns3:atemp>
          </ns3:TrackPointExtension>
        </extensions>
      </trkpt>
      <trkpt lat="42.4509953521192073822021484375" lon="20.20645589567720890045166015625">
        <ele>1040</ele>
        <time>2026-06-20T12:45:38.000Z</time>
        <extensions>
          <ns3:TrackPointExtension>
            <ns3:atemp>32.0</ns3:atemp>
          </ns3:TrackPointExtension>
        </extensions>
      </trkpt>
      <trkpt lat="42.4509953521192073822021484375" lon="20.20645589567720890045166015625">
        <ele>1040</ele>
        <time>2026-06-20T12:45:39.000Z</time>
        <extensions>
          <ns3:TrackPointExtension>
            <ns3:atemp>32.0</ns3:atemp>
          </ns3:TrackPointExtension>
        </extensions>
      </trkpt>
      <trkpt lat="42.4509953521192073822021484375" lon="20.20645589567720890045166015625">
        <ele>1040</ele>
        <time>2026-06-20T12:45:40.000Z</time>
        <extensions>
          <ns3:TrackPointExtension>
            <ns3:atemp>32.0</ns3:atemp>
          </ns3:TrackPointExtension>
        </extensions>
      </trkpt>
      <trkpt lat="42.4509953521192073822021484375" lon="20.20645589567720890045166015625">
        <ele>1040</ele>
        <time>2026-06-20T12:45:41.000Z</time>
        <extensions>
          <ns3:TrackPointExtension>
            <ns3:atemp>32.0</ns3:atemp>
          </ns3:TrackPointExtension>
        </extensions>
      </trkpt>
      <trkpt lat="42.4509953521192073822021484375" lon="20.20645589567720890045166015625">
        <ele>1040</ele>
        <time>2026-06-20T12:45:42.000Z</time>
        <extensions>
          <ns3:TrackPointExtension>
            <ns3:atemp>32.0</ns3:atemp>
          </ns3:TrackPointExtension>
        </extensions>
      </trkpt>
      <trkpt lat="42.4509953521192073822021484375" lon="20.20645589567720890045166015625">
        <ele>1040</ele>
        <time>2026-06-20T12:45:43.000Z</time>
        <extensions>
          <ns3:TrackPointExtension>
            <ns3:atemp>32.0</ns3:atemp>
          </ns3:TrackPointExtension>
        </extensions>
      </trkpt>
      <trkpt lat="42.4509953521192073822021484375" lon="20.20645589567720890045166015625">
        <ele>1040</ele>
        <time>2026-06-20T12:45:44.000Z</time>
        <extensions>
          <ns3:TrackPointExtension>
            <ns3:atemp>32.0</ns3:atemp>
          </ns3:TrackPointExtension>
        </extensions>
      </trkpt>
      <trkpt lat="42.4509953521192073822021484375" lon="20.20645589567720890045166015625">
        <ele>1040</ele>
        <time>2026-06-20T12:45:45.000Z</time>
        <extensions>
          <ns3:TrackPointExtension>
            <ns3:atemp>32.0</ns3:atemp>
          </ns3:TrackPointExtension>
        </extensions>
      </trkpt>
      <trkpt lat="42.4509953521192073822021484375" lon="20.20645589567720890045166015625">
        <ele>1040</ele>
        <time>2026-06-20T12:45:46.000Z</time>
        <extensions>
          <ns3:TrackPointExtension>
            <ns3:atemp>32.0</ns3:atemp>
          </ns3:TrackPointExtension>
        </extensions>
      </trkpt>
      <trkpt lat="42.4509953521192073822021484375" lon="20.20645589567720890045166015625">
        <ele>1040</ele>
        <time>2026-06-20T12:45:47.000Z</time>
        <extensions>
          <ns3:TrackPointExtension>
            <ns3:atemp>32.0</ns3:atemp>
          </ns3:TrackPointExtension>
        </extensions>
      </trkpt>
      <trkpt lat="42.4509953521192073822021484375" lon="20.20645589567720890045166015625">
        <ele>1040</ele>
        <time>2026-06-20T12:45:48.000Z</time>
        <extensions>
          <ns3:TrackPointExtension>
            <ns3:atemp>32.0</ns3:atemp>
          </ns3:TrackPointExtension>
        </extensions>
      </trkpt>
      <trkpt lat="42.4509953521192073822021484375" lon="20.20645589567720890045166015625">
        <ele>1040</ele>
        <time>2026-06-20T12:45:49.000Z</time>
        <extensions>
          <ns3:TrackPointExtension>
            <ns3:atemp>32.0</ns3:atemp>
          </ns3:TrackPointExtension>
        </extensions>
      </trkpt>
      <trkpt lat="42.4509953521192073822021484375" lon="20.20645589567720890045166015625">
        <ele>1040</ele>
        <time>2026-06-20T12:45:50.000Z</time>
        <extensions>
          <ns3:TrackPointExtension>
            <ns3:atemp>32.0</ns3:atemp>
          </ns3:TrackPointExtension>
        </extensions>
      </trkpt>
      <trkpt lat="42.4509953521192073822021484375" lon="20.20645589567720890045166015625">
        <ele>1040</ele>
        <time>2026-06-20T12:45:51.000Z</time>
        <extensions>
          <ns3:TrackPointExtension>
            <ns3:atemp>32.0</ns3:atemp>
          </ns3:TrackPointExtension>
        </extensions>
      </trkpt>
      <trkpt lat="42.4509953521192073822021484375" lon="20.20645589567720890045166015625">
        <ele>1040</ele>
        <time>2026-06-20T12:45:52.000Z</time>
        <extensions>
          <ns3:TrackPointExtension>
            <ns3:atemp>32.0</ns3:atemp>
          </ns3:TrackPointExtension>
        </extensions>
      </trkpt>
      <trkpt lat="42.4509953521192073822021484375" lon="20.20645589567720890045166015625">
        <ele>1040</ele>
        <time>2026-06-20T12:45:53.000Z</time>
        <extensions>
          <ns3:TrackPointExtension>
            <ns3:atemp>32.0</ns3:atemp>
          </ns3:TrackPointExtension>
        </extensions>
      </trkpt>
      <trkpt lat="42.4509953521192073822021484375" lon="20.20645589567720890045166015625">
        <ele>1040</ele>
        <time>2026-06-20T12:45:54.000Z</time>
        <extensions>
          <ns3:TrackPointExtension>
            <ns3:atemp>32.0</ns3:atemp>
          </ns3:TrackPointExtension>
        </extensions>
      </trkpt>
      <trkpt lat="42.4509953521192073822021484375" lon="20.20645589567720890045166015625">
        <ele>1040</ele>
        <time>2026-06-20T12:45:55.000Z</time>
        <extensions>
          <ns3:TrackPointExtension>
            <ns3:atemp>32.0</ns3:atemp>
          </ns3:TrackPointExtension>
        </extensions>
      </trkpt>
      <trkpt lat="42.4509953521192073822021484375" lon="20.20645589567720890045166015625">
        <ele>1040</ele>
        <time>2026-06-20T12:45:56.000Z</time>
        <extensions>
          <ns3:TrackPointExtension>
            <ns3:atemp>32.0</ns3:atemp>
          </ns3:TrackPointExtension>
        </extensions>
      </trkpt>
      <trkpt lat="42.4509953521192073822021484375" lon="20.20645589567720890045166015625">
        <ele>1040</ele>
        <time>2026-06-20T12:45:57.000Z</time>
        <extensions>
          <ns3:TrackPointExtension>
            <ns3:atemp>32.0</ns3:atemp>
          </ns3:TrackPointExtension>
        </extensions>
      </trkpt>
      <trkpt lat="42.4509953521192073822021484375" lon="20.20645589567720890045166015625">
        <ele>1040</ele>
        <time>2026-06-20T12:45:58.000Z</time>
        <extensions>
          <ns3:TrackPointExtension>
            <ns3:atemp>32.0</ns3:atemp>
          </ns3:TrackPointExtension>
        </extensions>
      </trkpt>
      <trkpt lat="42.4509953521192073822021484375" lon="20.20645589567720890045166015625">
        <ele>1040</ele>
        <time>2026-06-20T12:45:59.000Z</time>
        <extensions>
          <ns3:TrackPointExtension>
            <ns3:atemp>32.0</ns3:atemp>
          </ns3:TrackPointExtension>
        </extensions>
      </trkpt>
      <trkpt lat="42.4509953521192073822021484375" lon="20.20645589567720890045166015625">
        <ele>1040</ele>
        <time>2026-06-20T12:46:00.000Z</time>
        <extensions>
          <ns3:TrackPointExtension>
            <ns3:atemp>32.0</ns3:atemp>
          </ns3:TrackPointExtension>
        </extensions>
      </trkpt>
      <trkpt lat="42.4509953521192073822021484375" lon="20.20645589567720890045166015625">
        <ele>1040</ele>
        <time>2026-06-20T12:46:01.000Z</time>
        <extensions>
          <ns3:TrackPointExtension>
            <ns3:atemp>32.0</ns3:atemp>
          </ns3:TrackPointExtension>
        </extensions>
      </trkpt>
      <trkpt lat="42.4509953521192073822021484375" lon="20.20645589567720890045166015625">
        <ele>1040</ele>
        <time>2026-06-20T12:46:02.000Z</time>
        <extensions>
          <ns3:TrackPointExtension>
            <ns3:atemp>32.0</ns3:atemp>
          </ns3:TrackPointExtension>
        </extensions>
      </trkpt>
      <trkpt lat="42.4509953521192073822021484375" lon="20.20645589567720890045166015625">
        <ele>1040</ele>
        <time>2026-06-20T12:46:03.000Z</time>
        <extensions>
          <ns3:TrackPointExtension>
            <ns3:atemp>32.0</ns3:atemp>
          </ns3:TrackPointExtension>
        </extensions>
      </trkpt>
      <trkpt lat="42.4509953521192073822021484375" lon="20.20645589567720890045166015625">
        <ele>1040</ele>
        <time>2026-06-20T12:46:04.000Z</time>
        <extensions>
          <ns3:TrackPointExtension>
            <ns3:atemp>32.0</ns3:atemp>
          </ns3:TrackPointExtension>
        </extensions>
      </trkpt>
      <trkpt lat="42.4509953521192073822021484375" lon="20.20645589567720890045166015625">
        <ele>1040</ele>
        <time>2026-06-20T12:46:05.000Z</time>
        <extensions>
          <ns3:TrackPointExtension>
            <ns3:atemp>32.0</ns3:atemp>
          </ns3:TrackPointExtension>
        </extensions>
      </trkpt>
      <trkpt lat="42.4509953521192073822021484375" lon="20.20645589567720890045166015625">
        <ele>1040</ele>
        <time>2026-06-20T12:46:06.000Z</time>
        <extensions>
          <ns3:TrackPointExtension>
            <ns3:atemp>32.0</ns3:atemp>
          </ns3:TrackPointExtension>
        </extensions>
      </trkpt>
      <trkpt lat="42.4509953521192073822021484375" lon="20.20645589567720890045166015625">
        <ele>1040</ele>
        <time>2026-06-20T12:46:07.000Z</time>
        <extensions>
          <ns3:TrackPointExtension>
            <ns3:atemp>32.0</ns3:atemp>
          </ns3:TrackPointExtension>
        </extensions>
      </trkpt>
      <trkpt lat="42.4509953521192073822021484375" lon="20.20645589567720890045166015625">
        <ele>1040</ele>
        <time>2026-06-20T12:46:08.000Z</time>
        <extensions>
          <ns3:TrackPointExtension>
            <ns3:atemp>32.0</ns3:atemp>
          </ns3:TrackPointExtension>
        </extensions>
      </trkpt>
      <trkpt lat="42.4509953521192073822021484375" lon="20.20645589567720890045166015625">
        <ele>1040</ele>
        <time>2026-06-20T12:46:09.000Z</time>
        <extensions>
          <ns3:TrackPointExtension>
            <ns3:atemp>32.0</ns3:atemp>
          </ns3:TrackPointExtension>
        </extensions>
      </trkpt>
      <trkpt lat="42.4509953521192073822021484375" lon="20.20645589567720890045166015625">
        <ele>1040</ele>
        <time>2026-06-20T12:46:10.000Z</time>
        <extensions>
          <ns3:TrackPointExtension>
            <ns3:atemp>32.0</ns3:atemp>
          </ns3:TrackPointExtension>
        </extensions>
      </trkpt>
      <trkpt lat="42.4509953521192073822021484375" lon="20.20645589567720890045166015625">
        <ele>1040</ele>
        <time>2026-06-20T12:46:11.000Z</time>
        <extensions>
          <ns3:TrackPointExtension>
            <ns3:atemp>32.0</ns3:atemp>
          </ns3:TrackPointExtension>
        </extensions>
      </trkpt>
      <trkpt lat="42.4509953521192073822021484375" lon="20.20645589567720890045166015625">
        <ele>1040</ele>
        <time>2026-06-20T12:46:12.000Z</time>
        <extensions>
          <ns3:TrackPointExtension>
            <ns3:atemp>32.0</ns3:atemp>
          </ns3:TrackPointExtension>
        </extensions>
      </trkpt>
      <trkpt lat="42.4509953521192073822021484375" lon="20.20645589567720890045166015625">
        <ele>1040</ele>
        <time>2026-06-20T12:46:13.000Z</time>
        <extensions>
          <ns3:TrackPointExtension>
            <ns3:atemp>32.0</ns3:atemp>
          </ns3:TrackPointExtension>
        </extensions>
      </trkpt>
      <trkpt lat="42.4509953521192073822021484375" lon="20.20645589567720890045166015625">
        <ele>1040</ele>
        <time>2026-06-20T12:46:14.000Z</time>
        <extensions>
          <ns3:TrackPointExtension>
            <ns3:atemp>32.0</ns3:atemp>
          </ns3:TrackPointExtension>
        </extensions>
      </trkpt>
      <trkpt lat="42.4509953521192073822021484375" lon="20.20645589567720890045166015625">
        <ele>1040</ele>
        <time>2026-06-20T12:46:15.000Z</time>
        <extensions>
          <ns3:TrackPointExtension>
            <ns3:atemp>32.0</ns3:atemp>
          </ns3:TrackPointExtension>
        </extensions>
      </trkpt>
      <trkpt lat="42.4509953521192073822021484375" lon="20.20645589567720890045166015625">
        <ele>1040</ele>
        <time>2026-06-20T12:46:16.000Z</time>
        <extensions>
          <ns3:TrackPointExtension>
            <ns3:atemp>32.0</ns3:atemp>
          </ns3:TrackPointExtension>
        </extensions>
      </trkpt>
      <trkpt lat="42.4509953521192073822021484375" lon="20.20645589567720890045166015625">
        <ele>1040</ele>
        <time>2026-06-20T12:46:17.000Z</time>
        <extensions>
          <ns3:TrackPointExtension>
            <ns3:atemp>32.0</ns3:atemp>
          </ns3:TrackPointExtension>
        </extensions>
      </trkpt>
      <trkpt lat="42.4509953521192073822021484375" lon="20.20645589567720890045166015625">
        <ele>1040</ele>
        <time>2026-06-20T12:46:18.000Z</time>
        <extensions>
          <ns3:TrackPointExtension>
            <ns3:atemp>32.0</ns3:atemp>
          </ns3:TrackPointExtension>
        </extensions>
      </trkpt>
      <trkpt lat="42.4509953521192073822021484375" lon="20.20645589567720890045166015625">
        <ele>1040</ele>
        <time>2026-06-20T12:46:19.000Z</time>
        <extensions>
          <ns3:TrackPointExtension>
            <ns3:atemp>32.0</ns3:atemp>
          </ns3:TrackPointExtension>
        </extensions>
      </trkpt>
      <trkpt lat="42.4509953521192073822021484375" lon="20.20645589567720890045166015625">
        <ele>1040</ele>
        <time>2026-06-20T12:46:20.000Z</time>
        <extensions>
          <ns3:TrackPointExtension>
            <ns3:atemp>32.0</ns3:atemp>
          </ns3:TrackPointExtension>
        </extensions>
      </trkpt>
      <trkpt lat="42.4509953521192073822021484375" lon="20.20645589567720890045166015625">
        <ele>1040</ele>
        <time>2026-06-20T12:46:21.000Z</time>
        <extensions>
          <ns3:TrackPointExtension>
            <ns3:atemp>32.0</ns3:atemp>
          </ns3:TrackPointExtension>
        </extensions>
      </trkpt>
      <trkpt lat="42.4509953521192073822021484375" lon="20.20645589567720890045166015625">
        <ele>1040</ele>
        <time>2026-06-20T12:46:22.000Z</time>
        <extensions>
          <ns3:TrackPointExtension>
            <ns3:atemp>32.0</ns3:atemp>
          </ns3:TrackPointExtension>
        </extensions>
      </trkpt>
      <trkpt lat="42.4509953521192073822021484375" lon="20.20645589567720890045166015625">
        <ele>1040</ele>
        <time>2026-06-20T12:46:23.000Z</time>
        <extensions>
          <ns3:TrackPointExtension>
            <ns3:atemp>32.0</ns3:atemp>
          </ns3:TrackPointExtension>
        </extensions>
      </trkpt>
      <trkpt lat="42.4509953521192073822021484375" lon="20.20645589567720890045166015625">
        <ele>1040</ele>
        <time>2026-06-20T12:46:24.000Z</time>
        <extensions>
          <ns3:TrackPointExtension>
            <ns3:atemp>32.0</ns3:atemp>
          </ns3:TrackPointExtension>
        </extensions>
      </trkpt>
      <trkpt lat="42.4509953521192073822021484375" lon="20.20645589567720890045166015625">
        <ele>1040</ele>
        <time>2026-06-20T12:46:25.000Z</time>
        <extensions>
          <ns3:TrackPointExtension>
            <ns3:atemp>32.0</ns3:atemp>
          </ns3:TrackPointExtension>
        </extensions>
      </trkpt>
      <trkpt lat="42.4509953521192073822021484375" lon="20.20645589567720890045166015625">
        <ele>1040</ele>
        <time>2026-06-20T12:46:26.000Z</time>
        <extensions>
          <ns3:TrackPointExtension>
            <ns3:atemp>32.0</ns3:atemp>
          </ns3:TrackPointExtension>
        </extensions>
      </trkpt>
      <trkpt lat="42.4509953521192073822021484375" lon="20.20645589567720890045166015625">
        <ele>1040</ele>
        <time>2026-06-20T12:46:27.000Z</time>
        <extensions>
          <ns3:TrackPointExtension>
            <ns3:atemp>32.0</ns3:atemp>
          </ns3:TrackPointExtension>
        </extensions>
      </trkpt>
      <trkpt lat="42.4509953521192073822021484375" lon="20.20645589567720890045166015625">
        <ele>1040</ele>
        <time>2026-06-20T12:46:28.000Z</time>
        <extensions>
          <ns3:TrackPointExtension>
            <ns3:atemp>32.0</ns3:atemp>
          </ns3:TrackPointExtension>
        </extensions>
      </trkpt>
      <trkpt lat="42.4509953521192073822021484375" lon="20.20645589567720890045166015625">
        <ele>1040</ele>
        <time>2026-06-20T12:46:29.000Z</time>
        <extensions>
          <ns3:TrackPointExtension>
            <ns3:atemp>32.0</ns3:atemp>
          </ns3:TrackPointExtension>
        </extensions>
      </trkpt>
      <trkpt lat="42.4509953521192073822021484375" lon="20.20645589567720890045166015625">
        <ele>1040</ele>
        <time>2026-06-20T12:46:30.000Z</time>
        <extensions>
          <ns3:TrackPointExtension>
            <ns3:atemp>32.0</ns3:atemp>
          </ns3:TrackPointExtension>
        </extensions>
      </trkpt>
      <trkpt lat="42.4509953521192073822021484375" lon="20.20645589567720890045166015625">
        <ele>1040</ele>
        <time>2026-06-20T12:46:31.000Z</time>
        <extensions>
          <ns3:TrackPointExtension>
            <ns3:atemp>32.0</ns3:atemp>
          </ns3:TrackPointExtension>
        </extensions>
      </trkpt>
      <trkpt lat="42.4509953521192073822021484375" lon="20.20645589567720890045166015625">
        <ele>1040</ele>
        <time>2026-06-20T12:46:32.000Z</time>
        <extensions>
          <ns3:TrackPointExtension>
            <ns3:atemp>32.0</ns3:atemp>
          </ns3:TrackPointExtension>
        </extensions>
      </trkpt>
      <trkpt lat="42.4509953521192073822021484375" lon="20.20645589567720890045166015625">
        <ele>1040</ele>
        <time>2026-06-20T12:46:33.000Z</time>
        <extensions>
          <ns3:TrackPointExtension>
            <ns3:atemp>32.0</ns3:atemp>
          </ns3:TrackPointExtension>
        </extensions>
      </trkpt>
      <trkpt lat="42.4509953521192073822021484375" lon="20.20645589567720890045166015625">
        <ele>1040</ele>
        <time>2026-06-20T12:46:34.000Z</time>
        <extensions>
          <ns3:TrackPointExtension>
            <ns3:atemp>32.0</ns3:atemp>
          </ns3:TrackPointExtension>
        </extensions>
      </trkpt>
      <trkpt lat="42.4509953521192073822021484375" lon="20.20645589567720890045166015625">
        <ele>1040</ele>
        <time>2026-06-20T12:46:35.000Z</time>
        <extensions>
          <ns3:TrackPointExtension>
            <ns3:atemp>32.0</ns3:atemp>
          </ns3:TrackPointExtension>
        </extensions>
      </trkpt>
      <trkpt lat="42.4509953521192073822021484375" lon="20.20645589567720890045166015625">
        <ele>1040</ele>
        <time>2026-06-20T12:46:36.000Z</time>
        <extensions>
          <ns3:TrackPointExtension>
            <ns3:atemp>32.0</ns3:atemp>
          </ns3:TrackPointExtension>
        </extensions>
      </trkpt>
      <trkpt lat="42.4509953521192073822021484375" lon="20.20645589567720890045166015625">
        <ele>1040</ele>
        <time>2026-06-20T12:46:37.000Z</time>
        <extensions>
          <ns3:TrackPointExtension>
            <ns3:atemp>32.0</ns3:atemp>
          </ns3:TrackPointExtension>
        </extensions>
      </trkpt>
      <trkpt lat="42.4509953521192073822021484375" lon="20.20645589567720890045166015625">
        <ele>1040</ele>
        <time>2026-06-20T12:46:38.000Z</time>
        <extensions>
          <ns3:TrackPointExtension>
            <ns3:atemp>32.0</ns3:atemp>
          </ns3:TrackPointExtension>
        </extensions>
      </trkpt>
      <trkpt lat="42.4509953521192073822021484375" lon="20.20645589567720890045166015625">
        <ele>1040</ele>
        <time>2026-06-20T12:46:39.000Z</time>
        <extensions>
          <ns3:TrackPointExtension>
            <ns3:atemp>32.0</ns3:atemp>
          </ns3:TrackPointExtension>
        </extensions>
      </trkpt>
      <trkpt lat="42.4509953521192073822021484375" lon="20.20645589567720890045166015625">
        <ele>1040</ele>
        <time>2026-06-20T12:46:40.000Z</time>
        <extensions>
          <ns3:TrackPointExtension>
            <ns3:atemp>32.0</ns3:atemp>
          </ns3:TrackPointExtension>
        </extensions>
      </trkpt>
      <trkpt lat="42.4509953521192073822021484375" lon="20.20645589567720890045166015625">
        <ele>1040</ele>
        <time>2026-06-20T12:46:41.000Z</time>
        <extensions>
          <ns3:TrackPointExtension>
            <ns3:atemp>32.0</ns3:atemp>
          </ns3:TrackPointExtension>
        </extensions>
      </trkpt>
      <trkpt lat="42.4509953521192073822021484375" lon="20.20645589567720890045166015625">
        <ele>1040</ele>
        <time>2026-06-20T12:46:42.000Z</time>
        <extensions>
          <ns3:TrackPointExtension>
            <ns3:atemp>32.0</ns3:atemp>
          </ns3:TrackPointExtension>
        </extensions>
      </trkpt>
      <trkpt lat="42.4509953521192073822021484375" lon="20.20645589567720890045166015625">
        <ele>1040</ele>
        <time>2026-06-20T12:46:43.000Z</time>
        <extensions>
          <ns3:TrackPointExtension>
            <ns3:atemp>32.0</ns3:atemp>
          </ns3:TrackPointExtension>
        </extensions>
      </trkpt>
      <trkpt lat="42.4509953521192073822021484375" lon="20.20645589567720890045166015625">
        <ele>1040</ele>
        <time>2026-06-20T12:46:44.000Z</time>
        <extensions>
          <ns3:TrackPointExtension>
            <ns3:atemp>32.0</ns3:atemp>
          </ns3:TrackPointExtension>
        </extensions>
      </trkpt>
      <trkpt lat="42.4509953521192073822021484375" lon="20.20645589567720890045166015625">
        <ele>1040</ele>
        <time>2026-06-20T12:46:45.000Z</time>
        <extensions>
          <ns3:TrackPointExtension>
            <ns3:atemp>32.0</ns3:atemp>
          </ns3:TrackPointExtension>
        </extensions>
      </trkpt>
      <trkpt lat="42.4509953521192073822021484375" lon="20.20645589567720890045166015625">
        <ele>1040</ele>
        <time>2026-06-20T12:46:46.000Z</time>
        <extensions>
          <ns3:TrackPointExtension>
            <ns3:atemp>32.0</ns3:atemp>
          </ns3:TrackPointExtension>
        </extensions>
      </trkpt>
      <trkpt lat="42.4509953521192073822021484375" lon="20.20645589567720890045166015625">
        <ele>1040</ele>
        <time>2026-06-20T12:46:47.000Z</time>
        <extensions>
          <ns3:TrackPointExtension>
            <ns3:atemp>32.0</ns3:atemp>
          </ns3:TrackPointExtension>
        </extensions>
      </trkpt>
      <trkpt lat="42.4509953521192073822021484375" lon="20.20645589567720890045166015625">
        <ele>1040</ele>
        <time>2026-06-20T12:46:48.000Z</time>
        <extensions>
          <ns3:TrackPointExtension>
            <ns3:atemp>32.0</ns3:atemp>
          </ns3:TrackPointExtension>
        </extensions>
      </trkpt>
      <trkpt lat="42.4509953521192073822021484375" lon="20.20645589567720890045166015625">
        <ele>1040</ele>
        <time>2026-06-20T12:46:49.000Z</time>
        <extensions>
          <ns3:TrackPointExtension>
            <ns3:atemp>32.0</ns3:atemp>
          </ns3:TrackPointExtension>
        </extensions>
      </trkpt>
      <trkpt lat="42.4509953521192073822021484375" lon="20.20645589567720890045166015625">
        <ele>1040</ele>
        <time>2026-06-20T12:46:50.000Z</time>
        <extensions>
          <ns3:TrackPointExtension>
            <ns3:atemp>32.0</ns3:atemp>
          </ns3:TrackPointExtension>
        </extensions>
      </trkpt>
      <trkpt lat="42.4509953521192073822021484375" lon="20.20645589567720890045166015625">
        <ele>1040</ele>
        <time>2026-06-20T12:46:51.000Z</time>
        <extensions>
          <ns3:TrackPointExtension>
            <ns3:atemp>32.0</ns3:atemp>
          </ns3:TrackPointExtension>
        </extensions>
      </trkpt>
      <trkpt lat="42.4509953521192073822021484375" lon="20.20645589567720890045166015625">
        <ele>1040</ele>
        <time>2026-06-20T12:46:52.000Z</time>
        <extensions>
          <ns3:TrackPointExtension>
            <ns3:atemp>32.0</ns3:atemp>
          </ns3:TrackPointExtension>
        </extensions>
      </trkpt>
      <trkpt lat="42.4509953521192073822021484375" lon="20.20645589567720890045166015625">
        <ele>1040</ele>
        <time>2026-06-20T12:46:53.000Z</time>
        <extensions>
          <ns3:TrackPointExtension>
            <ns3:atemp>32.0</ns3:atemp>
          </ns3:TrackPointExtension>
        </extensions>
      </trkpt>
      <trkpt lat="42.4509953521192073822021484375" lon="20.20645589567720890045166015625">
        <ele>1040</ele>
        <time>2026-06-20T12:46:54.000Z</time>
        <extensions>
          <ns3:TrackPointExtension>
            <ns3:atemp>32.0</ns3:atemp>
          </ns3:TrackPointExtension>
        </extensions>
      </trkpt>
      <trkpt lat="42.4509953521192073822021484375" lon="20.20645589567720890045166015625">
        <ele>1040</ele>
        <time>2026-06-20T12:46:55.000Z</time>
        <extensions>
          <ns3:TrackPointExtension>
            <ns3:atemp>32.0</ns3:atemp>
          </ns3:TrackPointExtension>
        </extensions>
      </trkpt>
      <trkpt lat="42.4509953521192073822021484375" lon="20.20645589567720890045166015625">
        <ele>1040</ele>
        <time>2026-06-20T12:46:56.000Z</time>
        <extensions>
          <ns3:TrackPointExtension>
            <ns3:atemp>32.0</ns3:atemp>
          </ns3:TrackPointExtension>
        </extensions>
      </trkpt>
      <trkpt lat="42.4509953521192073822021484375" lon="20.20645589567720890045166015625">
        <ele>1040</ele>
        <time>2026-06-20T12:46:57.000Z</time>
        <extensions>
          <ns3:TrackPointExtension>
            <ns3:atemp>32.0</ns3:atemp>
          </ns3:TrackPointExtension>
        </extensions>
      </trkpt>
      <trkpt lat="42.4509953521192073822021484375" lon="20.20645589567720890045166015625">
        <ele>1040</ele>
        <time>2026-06-20T12:46:58.000Z</time>
        <extensions>
          <ns3:TrackPointExtension>
            <ns3:atemp>32.0</ns3:atemp>
          </ns3:TrackPointExtension>
        </extensions>
      </trkpt>
      <trkpt lat="42.4509953521192073822021484375" lon="20.20645589567720890045166015625">
        <ele>1040</ele>
        <time>2026-06-20T12:46:59.000Z</time>
        <extensions>
          <ns3:TrackPointExtension>
            <ns3:atemp>32.0</ns3:atemp>
          </ns3:TrackPointExtension>
        </extensions>
      </trkpt>
      <trkpt lat="42.4509953521192073822021484375" lon="20.20645589567720890045166015625">
        <ele>1040</ele>
        <time>2026-06-20T12:47:00.000Z</time>
        <extensions>
          <ns3:TrackPointExtension>
            <ns3:atemp>32.0</ns3:atemp>
          </ns3:TrackPointExtension>
        </extensions>
      </trkpt>
      <trkpt lat="42.4509953521192073822021484375" lon="20.20645589567720890045166015625">
        <ele>1040</ele>
        <time>2026-06-20T12:47:01.000Z</time>
        <extensions>
          <ns3:TrackPointExtension>
            <ns3:atemp>32.0</ns3:atemp>
          </ns3:TrackPointExtension>
        </extensions>
      </trkpt>
      <trkpt lat="42.4509953521192073822021484375" lon="20.20645589567720890045166015625">
        <ele>1040</ele>
        <time>2026-06-20T12:47:02.000Z</time>
        <extensions>
          <ns3:TrackPointExtension>
            <ns3:atemp>32.0</ns3:atemp>
          </ns3:TrackPointExtension>
        </extensions>
      </trkpt>
      <trkpt lat="42.4509953521192073822021484375" lon="20.20645589567720890045166015625">
        <ele>1040</ele>
        <time>2026-06-20T12:47:03.000Z</time>
        <extensions>
          <ns3:TrackPointExtension>
            <ns3:atemp>32.0</ns3:atemp>
          </ns3:TrackPointExtension>
        </extensions>
      </trkpt>
      <trkpt lat="42.4509953521192073822021484375" lon="20.20645589567720890045166015625">
        <ele>1040</ele>
        <time>2026-06-20T12:47:04.000Z</time>
        <extensions>
          <ns3:TrackPointExtension>
            <ns3:atemp>32.0</ns3:atemp>
          </ns3:TrackPointExtension>
        </extensions>
      </trkpt>
      <trkpt lat="42.4509953521192073822021484375" lon="20.20645589567720890045166015625">
        <ele>1040</ele>
        <time>2026-06-20T12:47:05.000Z</time>
        <extensions>
          <ns3:TrackPointExtension>
            <ns3:atemp>32.0</ns3:atemp>
          </ns3:TrackPointExtension>
        </extensions>
      </trkpt>
      <trkpt lat="42.4509953521192073822021484375" lon="20.20645589567720890045166015625">
        <ele>1040</ele>
        <time>2026-06-20T12:47:06.000Z</time>
        <extensions>
          <ns3:TrackPointExtension>
            <ns3:atemp>32.0</ns3:atemp>
          </ns3:TrackPointExtension>
        </extensions>
      </trkpt>
      <trkpt lat="42.4509953521192073822021484375" lon="20.20645589567720890045166015625">
        <ele>1040</ele>
        <time>2026-06-20T12:47:07.000Z</time>
        <extensions>
          <ns3:TrackPointExtension>
            <ns3:atemp>32.0</ns3:atemp>
          </ns3:TrackPointExtension>
        </extensions>
      </trkpt>
      <trkpt lat="42.4509953521192073822021484375" lon="20.20645589567720890045166015625">
        <ele>1040</ele>
        <time>2026-06-20T12:47:08.000Z</time>
        <extensions>
          <ns3:TrackPointExtension>
            <ns3:atemp>32.0</ns3:atemp>
          </ns3:TrackPointExtension>
        </extensions>
      </trkpt>
      <trkpt lat="42.4509953521192073822021484375" lon="20.20645589567720890045166015625">
        <ele>1040</ele>
        <time>2026-06-20T12:47:09.000Z</time>
        <extensions>
          <ns3:TrackPointExtension>
            <ns3:atemp>32.0</ns3:atemp>
          </ns3:TrackPointExtension>
        </extensions>
      </trkpt>
      <trkpt lat="42.4509953521192073822021484375" lon="20.20645589567720890045166015625">
        <ele>1040</ele>
        <time>2026-06-20T12:47:10.000Z</time>
        <extensions>
          <ns3:TrackPointExtension>
            <ns3:atemp>32.0</ns3:atemp>
          </ns3:TrackPointExtension>
        </extensions>
      </trkpt>
      <trkpt lat="42.4509953521192073822021484375" lon="20.20645589567720890045166015625">
        <ele>1040</ele>
        <time>2026-06-20T12:47:11.000Z</time>
        <extensions>
          <ns3:TrackPointExtension>
            <ns3:atemp>32.0</ns3:atemp>
          </ns3:TrackPointExtension>
        </extensions>
      </trkpt>
      <trkpt lat="42.4509953521192073822021484375" lon="20.20645589567720890045166015625">
        <ele>1040</ele>
        <time>2026-06-20T12:47:12.000Z</time>
        <extensions>
          <ns3:TrackPointExtension>
            <ns3:atemp>32.0</ns3:atemp>
          </ns3:TrackPointExtension>
        </extensions>
      </trkpt>
      <trkpt lat="42.4509953521192073822021484375" lon="20.20645589567720890045166015625">
        <ele>1040</ele>
        <time>2026-06-20T12:47:13.000Z</time>
        <extensions>
          <ns3:TrackPointExtension>
            <ns3:atemp>32.0</ns3:atemp>
          </ns3:TrackPointExtension>
        </extensions>
      </trkpt>
      <trkpt lat="42.4509953521192073822021484375" lon="20.20645589567720890045166015625">
        <ele>1040</ele>
        <time>2026-06-20T12:47:14.000Z</time>
        <extensions>
          <ns3:TrackPointExtension>
            <ns3:atemp>32.0</ns3:atemp>
          </ns3:TrackPointExtension>
        </extensions>
      </trkpt>
      <trkpt lat="42.4509953521192073822021484375" lon="20.20645589567720890045166015625">
        <ele>1040</ele>
        <time>2026-06-20T12:47:15.000Z</time>
        <extensions>
          <ns3:TrackPointExtension>
            <ns3:atemp>32.0</ns3:atemp>
          </ns3:TrackPointExtension>
        </extensions>
      </trkpt>
      <trkpt lat="42.4509953521192073822021484375" lon="20.20645589567720890045166015625">
        <ele>1040</ele>
        <time>2026-06-20T12:47:16.000Z</time>
        <extensions>
          <ns3:TrackPointExtension>
            <ns3:atemp>32.0</ns3:atemp>
          </ns3:TrackPointExtension>
        </extensions>
      </trkpt>
      <trkpt lat="42.4509953521192073822021484375" lon="20.20645589567720890045166015625">
        <ele>1040</ele>
        <time>2026-06-20T12:47:17.000Z</time>
        <extensions>
          <ns3:TrackPointExtension>
            <ns3:atemp>32.0</ns3:atemp>
          </ns3:TrackPointExtension>
        </extensions>
      </trkpt>
      <trkpt lat="42.4509953521192073822021484375" lon="20.20645589567720890045166015625">
        <ele>1040</ele>
        <time>2026-06-20T12:47:18.000Z</time>
        <extensions>
          <ns3:TrackPointExtension>
            <ns3:atemp>32.0</ns3:atemp>
          </ns3:TrackPointExtension>
        </extensions>
      </trkpt>
      <trkpt lat="42.4509953521192073822021484375" lon="20.20645589567720890045166015625">
        <ele>1040</ele>
        <time>2026-06-20T12:47:19.000Z</time>
        <extensions>
          <ns3:TrackPointExtension>
            <ns3:atemp>32.0</ns3:atemp>
          </ns3:TrackPointExtension>
        </extensions>
      </trkpt>
      <trkpt lat="42.4509953521192073822021484375" lon="20.20645589567720890045166015625">
        <ele>1040</ele>
        <time>2026-06-20T12:47:20.000Z</time>
        <extensions>
          <ns3:TrackPointExtension>
            <ns3:atemp>32.0</ns3:atemp>
          </ns3:TrackPointExtension>
        </extensions>
      </trkpt>
      <trkpt lat="42.4509953521192073822021484375" lon="20.20645589567720890045166015625">
        <ele>1040</ele>
        <time>2026-06-20T12:47:21.000Z</time>
        <extensions>
          <ns3:TrackPointExtension>
            <ns3:atemp>32.0</ns3:atemp>
          </ns3:TrackPointExtension>
        </extensions>
      </trkpt>
      <trkpt lat="42.4509953521192073822021484375" lon="20.20645589567720890045166015625">
        <ele>1040</ele>
        <time>2026-06-20T12:47:22.000Z</time>
        <extensions>
          <ns3:TrackPointExtension>
            <ns3:atemp>32.0</ns3:atemp>
          </ns3:TrackPointExtension>
        </extensions>
      </trkpt>
      <trkpt lat="42.4509953521192073822021484375" lon="20.20645589567720890045166015625">
        <ele>1040</ele>
        <time>2026-06-20T12:47:23.000Z</time>
        <extensions>
          <ns3:TrackPointExtension>
            <ns3:atemp>32.0</ns3:atemp>
          </ns3:TrackPointExtension>
        </extensions>
      </trkpt>
      <trkpt lat="42.4509953521192073822021484375" lon="20.20645589567720890045166015625">
        <ele>1040</ele>
        <time>2026-06-20T12:47:24.000Z</time>
        <extensions>
          <ns3:TrackPointExtension>
            <ns3:atemp>32.0</ns3:atemp>
          </ns3:TrackPointExtension>
        </extensions>
      </trkpt>
      <trkpt lat="42.4509953521192073822021484375" lon="20.20645589567720890045166015625">
        <ele>1040</ele>
        <time>2026-06-20T12:47:25.000Z</time>
        <extensions>
          <ns3:TrackPointExtension>
            <ns3:atemp>32.0</ns3:atemp>
          </ns3:TrackPointExtension>
        </extensions>
      </trkpt>
      <trkpt lat="42.4509953521192073822021484375" lon="20.20645589567720890045166015625">
        <ele>1040</ele>
        <time>2026-06-20T12:47:26.000Z</time>
        <extensions>
          <ns3:TrackPointExtension>
            <ns3:atemp>32.0</ns3:atemp>
          </ns3:TrackPointExtension>
        </extensions>
      </trkpt>
      <trkpt lat="42.4509953521192073822021484375" lon="20.20645589567720890045166015625">
        <ele>1040</ele>
        <time>2026-06-20T12:47:27.000Z</time>
        <extensions>
          <ns3:TrackPointExtension>
            <ns3:atemp>32.0</ns3:atemp>
          </ns3:TrackPointExtension>
        </extensions>
      </trkpt>
      <trkpt lat="42.4509953521192073822021484375" lon="20.20645589567720890045166015625">
        <ele>1040</ele>
        <time>2026-06-20T12:47:28.000Z</time>
        <extensions>
          <ns3:TrackPointExtension>
            <ns3:atemp>32.0</ns3:atemp>
          </ns3:TrackPointExtension>
        </extensions>
      </trkpt>
      <trkpt lat="42.45099258609116077423095703125" lon="20.2064667083323001861572265625">
        <ele>1040</ele>
        <time>2026-06-20T12:47:29.000Z</time>
        <extensions>
          <ns3:TrackPointExtension>
            <ns3:atemp>32.0</ns3:atemp>
          </ns3:TrackPointExtension>
        </extensions>
      </trkpt>
      <trkpt lat="42.4509953521192073822021484375" lon="20.20645589567720890045166015625">
        <ele>1040</ele>
        <time>2026-06-20T12:47:30.000Z</time>
        <extensions>
          <ns3:TrackPointExtension>
            <ns3:atemp>32.0</ns3:atemp>
          </ns3:TrackPointExtension>
        </extensions>
      </trkpt>
      <trkpt lat="42.4509953521192073822021484375" lon="20.20645589567720890045166015625">
        <ele>1040</ele>
        <time>2026-06-20T12:47:31.000Z</time>
        <extensions>
          <ns3:TrackPointExtension>
            <ns3:atemp>32.0</ns3:atemp>
          </ns3:TrackPointExtension>
        </extensions>
      </trkpt>
      <trkpt lat="42.4509953521192073822021484375" lon="20.20645589567720890045166015625">
        <ele>1040</ele>
        <time>2026-06-20T12:47:32.000Z</time>
        <extensions>
          <ns3:TrackPointExtension>
            <ns3:atemp>32.0</ns3:atemp>
          </ns3:TrackPointExtension>
        </extensions>
      </trkpt>
      <trkpt lat="42.4509953521192073822021484375" lon="20.20645589567720890045166015625">
        <ele>1040</ele>
        <time>2026-06-20T12:47:33.000Z</time>
        <extensions>
          <ns3:TrackPointExtension>
            <ns3:atemp>32.0</ns3:atemp>
          </ns3:TrackPointExtension>
        </extensions>
      </trkpt>
      <trkpt lat="42.4509953521192073822021484375" lon="20.20645589567720890045166015625">
        <ele>1040</ele>
        <time>2026-06-20T12:47:34.000Z</time>
        <extensions>
          <ns3:TrackPointExtension>
            <ns3:atemp>32.0</ns3:atemp>
          </ns3:TrackPointExtension>
        </extensions>
      </trkpt>
      <trkpt lat="42.4509953521192073822021484375" lon="20.20645589567720890045166015625">
        <ele>1040</ele>
        <time>2026-06-20T12:47:35.000Z</time>
        <extensions>
          <ns3:TrackPointExtension>
            <ns3:atemp>32.0</ns3:atemp>
          </ns3:TrackPointExtension>
        </extensions>
      </trkpt>
      <trkpt lat="42.4509953521192073822021484375" lon="20.20645589567720890045166015625">
        <ele>1040</ele>
        <time>2026-06-20T12:47:36.000Z</time>
        <extensions>
          <ns3:TrackPointExtension>
            <ns3:atemp>32.0</ns3:atemp>
          </ns3:TrackPointExtension>
        </extensions>
      </trkpt>
      <trkpt lat="42.4509953521192073822021484375" lon="20.20645589567720890045166015625">
        <ele>1040</ele>
        <time>2026-06-20T12:47:37.000Z</time>
        <extensions>
          <ns3:TrackPointExtension>
            <ns3:atemp>32.0</ns3:atemp>
          </ns3:TrackPointExtension>
        </extensions>
      </trkpt>
      <trkpt lat="42.4509953521192073822021484375" lon="20.20645589567720890045166015625">
        <ele>1040</ele>
        <time>2026-06-20T12:47:38.000Z</time>
        <extensions>
          <ns3:TrackPointExtension>
            <ns3:atemp>32.0</ns3:atemp>
          </ns3:TrackPointExtension>
        </extensions>
      </trkpt>
      <trkpt lat="42.4509953521192073822021484375" lon="20.20645589567720890045166015625">
        <ele>1040</ele>
        <time>2026-06-20T12:47:39.000Z</time>
        <extensions>
          <ns3:TrackPointExtension>
            <ns3:atemp>32.0</ns3:atemp>
          </ns3:TrackPointExtension>
        </extensions>
      </trkpt>
      <trkpt lat="42.4509953521192073822021484375" lon="20.20645589567720890045166015625">
        <ele>1040</ele>
        <time>2026-06-20T12:47:40.000Z</time>
        <extensions>
          <ns3:TrackPointExtension>
            <ns3:atemp>32.0</ns3:atemp>
          </ns3:TrackPointExtension>
        </extensions>
      </trkpt>
      <trkpt lat="42.4509953521192073822021484375" lon="20.20645589567720890045166015625">
        <ele>1040</ele>
        <time>2026-06-20T12:47:41.000Z</time>
        <extensions>
          <ns3:TrackPointExtension>
            <ns3:atemp>32.0</ns3:atemp>
          </ns3:TrackPointExtension>
        </extensions>
      </trkpt>
      <trkpt lat="42.4509953521192073822021484375" lon="20.20645589567720890045166015625">
        <ele>1040</ele>
        <time>2026-06-20T12:47:42.000Z</time>
        <extensions>
          <ns3:TrackPointExtension>
            <ns3:atemp>32.0</ns3:atemp>
          </ns3:TrackPointExtension>
        </extensions>
      </trkpt>
      <trkpt lat="42.4509953521192073822021484375" lon="20.20645589567720890045166015625">
        <ele>1040</ele>
        <time>2026-06-20T12:47:43.000Z</time>
        <extensions>
          <ns3:TrackPointExtension>
            <ns3:atemp>32.0</ns3:atemp>
          </ns3:TrackPointExtension>
        </extensions>
      </trkpt>
      <trkpt lat="42.4509953521192073822021484375" lon="20.20645589567720890045166015625">
        <ele>1040</ele>
        <time>2026-06-20T12:47:44.000Z</time>
        <extensions>
          <ns3:TrackPointExtension>
            <ns3:atemp>32.0</ns3:atemp>
          </ns3:TrackPointExtension>
        </extensions>
      </trkpt>
      <trkpt lat="42.4509953521192073822021484375" lon="20.20645589567720890045166015625">
        <ele>1040</ele>
        <time>2026-06-20T12:47:45.000Z</time>
        <extensions>
          <ns3:TrackPointExtension>
            <ns3:atemp>32.0</ns3:atemp>
          </ns3:TrackPointExtension>
        </extensions>
      </trkpt>
      <trkpt lat="42.4509953521192073822021484375" lon="20.20645589567720890045166015625">
        <ele>1040</ele>
        <time>2026-06-20T12:47:46.000Z</time>
        <extensions>
          <ns3:TrackPointExtension>
            <ns3:atemp>32.0</ns3:atemp>
          </ns3:TrackPointExtension>
        </extensions>
      </trkpt>
      <trkpt lat="42.4509953521192073822021484375" lon="20.20645589567720890045166015625">
        <ele>1040</ele>
        <time>2026-06-20T12:47:47.000Z</time>
        <extensions>
          <ns3:TrackPointExtension>
            <ns3:atemp>32.0</ns3:atemp>
          </ns3:TrackPointExtension>
        </extensions>
      </trkpt>
      <trkpt lat="42.4509953521192073822021484375" lon="20.20645589567720890045166015625">
        <ele>1040</ele>
        <time>2026-06-20T12:47:48.000Z</time>
        <extensions>
          <ns3:TrackPointExtension>
            <ns3:atemp>32.0</ns3:atemp>
          </ns3:TrackPointExtension>
        </extensions>
      </trkpt>
      <trkpt lat="42.4509953521192073822021484375" lon="20.20645589567720890045166015625">
        <ele>1040</ele>
        <time>2026-06-20T12:47:49.000Z</time>
        <extensions>
          <ns3:TrackPointExtension>
            <ns3:atemp>32.0</ns3:atemp>
          </ns3:TrackPointExtension>
        </extensions>
      </trkpt>
      <trkpt lat="42.4509953521192073822021484375" lon="20.20645589567720890045166015625">
        <ele>1040</ele>
        <time>2026-06-20T12:47:50.000Z</time>
        <extensions>
          <ns3:TrackPointExtension>
            <ns3:atemp>32.0</ns3:atemp>
          </ns3:TrackPointExtension>
        </extensions>
      </trkpt>
      <trkpt lat="42.4509953521192073822021484375" lon="20.20645589567720890045166015625">
        <ele>1040</ele>
        <time>2026-06-20T12:47:51.000Z</time>
        <extensions>
          <ns3:TrackPointExtension>
            <ns3:atemp>32.0</ns3:atemp>
          </ns3:TrackPointExtension>
        </extensions>
      </trkpt>
      <trkpt lat="42.4509953521192073822021484375" lon="20.20645589567720890045166015625">
        <ele>1040</ele>
        <time>2026-06-20T12:47:52.000Z</time>
        <extensions>
          <ns3:TrackPointExtension>
            <ns3:atemp>32.0</ns3:atemp>
          </ns3:TrackPointExtension>
        </extensions>
      </trkpt>
      <trkpt lat="42.4509953521192073822021484375" lon="20.20645589567720890045166015625">
        <ele>1040</ele>
        <time>2026-06-20T12:47:53.000Z</time>
        <extensions>
          <ns3:TrackPointExtension>
            <ns3:atemp>32.0</ns3:atemp>
          </ns3:TrackPointExtension>
        </extensions>
      </trkpt>
      <trkpt lat="42.4509953521192073822021484375" lon="20.20645589567720890045166015625">
        <ele>1040</ele>
        <time>2026-06-20T12:47:54.000Z</time>
        <extensions>
          <ns3:TrackPointExtension>
            <ns3:atemp>32.0</ns3:atemp>
          </ns3:TrackPointExtension>
        </extensions>
      </trkpt>
      <trkpt lat="42.4509953521192073822021484375" lon="20.20645589567720890045166015625">
        <ele>1040</ele>
        <time>2026-06-20T12:47:55.000Z</time>
        <extensions>
          <ns3:TrackPointExtension>
            <ns3:atemp>32.0</ns3:atemp>
          </ns3:TrackPointExtension>
        </extensions>
      </trkpt>
      <trkpt lat="42.4509953521192073822021484375" lon="20.20645589567720890045166015625">
        <ele>1040</ele>
        <time>2026-06-20T12:47:56.000Z</time>
        <extensions>
          <ns3:TrackPointExtension>
            <ns3:atemp>32.0</ns3:atemp>
          </ns3:TrackPointExtension>
        </extensions>
      </trkpt>
      <trkpt lat="42.4509953521192073822021484375" lon="20.20645589567720890045166015625">
        <ele>1040</ele>
        <time>2026-06-20T12:47:57.000Z</time>
        <extensions>
          <ns3:TrackPointExtension>
            <ns3:atemp>32.0</ns3:atemp>
          </ns3:TrackPointExtension>
        </extensions>
      </trkpt>
      <trkpt lat="42.4509953521192073822021484375" lon="20.20645589567720890045166015625">
        <ele>1040</ele>
        <time>2026-06-20T12:47:58.000Z</time>
        <extensions>
          <ns3:TrackPointExtension>
            <ns3:atemp>32.0</ns3:atemp>
          </ns3:TrackPointExtension>
        </extensions>
      </trkpt>
      <trkpt lat="42.4509953521192073822021484375" lon="20.20645589567720890045166015625">
        <ele>1040</ele>
        <time>2026-06-20T12:47:59.000Z</time>
        <extensions>
          <ns3:TrackPointExtension>
            <ns3:atemp>32.0</ns3:atemp>
          </ns3:TrackPointExtension>
        </extensions>
      </trkpt>
      <trkpt lat="42.4509953521192073822021484375" lon="20.20645589567720890045166015625">
        <ele>1040</ele>
        <time>2026-06-20T12:48:00.000Z</time>
        <extensions>
          <ns3:TrackPointExtension>
            <ns3:atemp>32.0</ns3:atemp>
          </ns3:TrackPointExtension>
        </extensions>
      </trkpt>
      <trkpt lat="42.4509953521192073822021484375" lon="20.20645589567720890045166015625">
        <ele>1040</ele>
        <time>2026-06-20T12:48:01.000Z</time>
        <extensions>
          <ns3:TrackPointExtension>
            <ns3:atemp>32.0</ns3:atemp>
          </ns3:TrackPointExtension>
        </extensions>
      </trkpt>
      <trkpt lat="42.4509953521192073822021484375" lon="20.20645589567720890045166015625">
        <ele>1040</ele>
        <time>2026-06-20T12:48:02.000Z</time>
        <extensions>
          <ns3:TrackPointExtension>
            <ns3:atemp>32.0</ns3:atemp>
          </ns3:TrackPointExtension>
        </extensions>
      </trkpt>
      <trkpt lat="42.4509953521192073822021484375" lon="20.20645589567720890045166015625">
        <ele>1040</ele>
        <time>2026-06-20T12:48:03.000Z</time>
        <extensions>
          <ns3:TrackPointExtension>
            <ns3:atemp>32.0</ns3:atemp>
          </ns3:TrackPointExtension>
        </extensions>
      </trkpt>
      <trkpt lat="42.4509953521192073822021484375" lon="20.20645589567720890045166015625">
        <ele>1040</ele>
        <time>2026-06-20T12:48:04.000Z</time>
        <extensions>
          <ns3:TrackPointExtension>
            <ns3:atemp>32.0</ns3:atemp>
          </ns3:TrackPointExtension>
        </extensions>
      </trkpt>
      <trkpt lat="42.4509953521192073822021484375" lon="20.20645589567720890045166015625">
        <ele>1040</ele>
        <time>2026-06-20T12:48:05.000Z</time>
        <extensions>
          <ns3:TrackPointExtension>
            <ns3:atemp>32.0</ns3:atemp>
          </ns3:TrackPointExtension>
        </extensions>
      </trkpt>
      <trkpt lat="42.450999207794666290283203125" lon="20.20647333003580570220947265625">
        <ele>1040</ele>
        <time>2026-06-20T12:48:06.000Z</time>
        <extensions>
          <ns3:TrackPointExtension>
            <ns3:atemp>32.0</ns3:atemp>
          </ns3:TrackPointExtension>
        </extensions>
      </trkpt>
      <trkpt lat="42.4509993754327297210693359375" lon="20.2064734138548374176025390625">
        <ele>1040</ele>
        <time>2026-06-20T12:48:07.000Z</time>
        <extensions>
          <ns3:TrackPointExtension>
            <ns3:atemp>32.0</ns3:atemp>
          </ns3:TrackPointExtension>
        </extensions>
      </trkpt>
      <trkpt lat="42.4509993754327297210693359375" lon="20.2064734138548374176025390625">
        <ele>1040</ele>
        <time>2026-06-20T12:48:08.000Z</time>
        <extensions>
          <ns3:TrackPointExtension>
            <ns3:atemp>32.0</ns3:atemp>
          </ns3:TrackPointExtension>
        </extensions>
      </trkpt>
      <trkpt lat="42.4509993754327297210693359375" lon="20.2064734138548374176025390625">
        <ele>1040</ele>
        <time>2026-06-20T12:48:09.000Z</time>
        <extensions>
          <ns3:TrackPointExtension>
            <ns3:atemp>32.0</ns3:atemp>
          </ns3:TrackPointExtension>
        </extensions>
      </trkpt>
      <trkpt lat="42.4509993754327297210693359375" lon="20.2064734138548374176025390625">
        <ele>1040</ele>
        <time>2026-06-20T12:48:10.000Z</time>
        <extensions>
          <ns3:TrackPointExtension>
            <ns3:atemp>32.0</ns3:atemp>
          </ns3:TrackPointExtension>
        </extensions>
      </trkpt>
      <trkpt lat="42.4509993754327297210693359375" lon="20.2064734138548374176025390625">
        <ele>1040</ele>
        <time>2026-06-20T12:48:11.000Z</time>
        <extensions>
          <ns3:TrackPointExtension>
            <ns3:atemp>32.0</ns3:atemp>
          </ns3:TrackPointExtension>
        </extensions>
      </trkpt>
      <trkpt lat="42.4509993754327297210693359375" lon="20.2064734138548374176025390625">
        <ele>1040</ele>
        <time>2026-06-20T12:48:12.000Z</time>
        <extensions>
          <ns3:TrackPointExtension>
            <ns3:atemp>32.0</ns3:atemp>
          </ns3:TrackPointExtension>
        </extensions>
      </trkpt>
      <trkpt lat="42.4509993754327297210693359375" lon="20.2064734138548374176025390625">
        <ele>1040</ele>
        <time>2026-06-20T12:48:13.000Z</time>
        <extensions>
          <ns3:TrackPointExtension>
            <ns3:atemp>32.0</ns3:atemp>
          </ns3:TrackPointExtension>
        </extensions>
      </trkpt>
      <trkpt lat="42.4509993754327297210693359375" lon="20.2064734138548374176025390625">
        <ele>1040</ele>
        <time>2026-06-20T12:48:14.000Z</time>
        <extensions>
          <ns3:TrackPointExtension>
            <ns3:atemp>32.0</ns3:atemp>
          </ns3:TrackPointExtension>
        </extensions>
      </trkpt>
      <trkpt lat="42.4509993754327297210693359375" lon="20.2064734138548374176025390625">
        <ele>1040</ele>
        <time>2026-06-20T12:48:15.000Z</time>
        <extensions>
          <ns3:TrackPointExtension>
            <ns3:atemp>32.0</ns3:atemp>
          </ns3:TrackPointExtension>
        </extensions>
      </trkpt>
      <trkpt lat="42.4509993754327297210693359375" lon="20.2064734138548374176025390625">
        <ele>1040</ele>
        <time>2026-06-20T12:48:16.000Z</time>
        <extensions>
          <ns3:TrackPointExtension>
            <ns3:atemp>32.0</ns3:atemp>
          </ns3:TrackPointExtension>
        </extensions>
      </trkpt>
      <trkpt lat="42.4509993754327297210693359375" lon="20.2064734138548374176025390625">
        <ele>1040</ele>
        <time>2026-06-20T12:48:17.000Z</time>
        <extensions>
          <ns3:TrackPointExtension>
            <ns3:atemp>32.0</ns3:atemp>
          </ns3:TrackPointExtension>
        </extensions>
      </trkpt>
      <trkpt lat="42.4509993754327297210693359375" lon="20.2064734138548374176025390625">
        <ele>1040</ele>
        <time>2026-06-20T12:48:18.000Z</time>
        <extensions>
          <ns3:TrackPointExtension>
            <ns3:atemp>32.0</ns3:atemp>
          </ns3:TrackPointExtension>
        </extensions>
      </trkpt>
      <trkpt lat="42.4509993754327297210693359375" lon="20.2064734138548374176025390625">
        <ele>1040</ele>
        <time>2026-06-20T12:48:19.000Z</time>
        <extensions>
          <ns3:TrackPointExtension>
            <ns3:atemp>32.0</ns3:atemp>
          </ns3:TrackPointExtension>
        </extensions>
      </trkpt>
      <trkpt lat="42.4509993754327297210693359375" lon="20.2064734138548374176025390625">
        <ele>1040</ele>
        <time>2026-06-20T12:48:20.000Z</time>
        <extensions>
          <ns3:TrackPointExtension>
            <ns3:atemp>32.0</ns3:atemp>
          </ns3:TrackPointExtension>
        </extensions>
      </trkpt>
      <trkpt lat="42.4509993754327297210693359375" lon="20.2064734138548374176025390625">
        <ele>1040</ele>
        <time>2026-06-20T12:48:21.000Z</time>
        <extensions>
          <ns3:TrackPointExtension>
            <ns3:atemp>32.0</ns3:atemp>
          </ns3:TrackPointExtension>
        </extensions>
      </trkpt>
      <trkpt lat="42.4509993754327297210693359375" lon="20.2064734138548374176025390625">
        <ele>1040</ele>
        <time>2026-06-20T12:48:22.000Z</time>
        <extensions>
          <ns3:TrackPointExtension>
            <ns3:atemp>32.0</ns3:atemp>
          </ns3:TrackPointExtension>
        </extensions>
      </trkpt>
      <trkpt lat="42.4509993754327297210693359375" lon="20.2064734138548374176025390625">
        <ele>1040</ele>
        <time>2026-06-20T12:48:23.000Z</time>
        <extensions>
          <ns3:TrackPointExtension>
            <ns3:atemp>32.0</ns3:atemp>
          </ns3:TrackPointExtension>
        </extensions>
      </trkpt>
      <trkpt lat="42.4509993754327297210693359375" lon="20.2064734138548374176025390625">
        <ele>1040</ele>
        <time>2026-06-20T12:48:24.000Z</time>
        <extensions>
          <ns3:TrackPointExtension>
            <ns3:atemp>32.0</ns3:atemp>
          </ns3:TrackPointExtension>
        </extensions>
      </trkpt>
      <trkpt lat="42.4509993754327297210693359375" lon="20.2064734138548374176025390625">
        <ele>1040</ele>
        <time>2026-06-20T12:48:25.000Z</time>
        <extensions>
          <ns3:TrackPointExtension>
            <ns3:atemp>32.0</ns3:atemp>
          </ns3:TrackPointExtension>
        </extensions>
      </trkpt>
      <trkpt lat="42.4509993754327297210693359375" lon="20.2064734138548374176025390625">
        <ele>1040</ele>
        <time>2026-06-20T12:48:26.000Z</time>
        <extensions>
          <ns3:TrackPointExtension>
            <ns3:atemp>32.0</ns3:atemp>
          </ns3:TrackPointExtension>
        </extensions>
      </trkpt>
      <trkpt lat="42.4509993754327297210693359375" lon="20.2064734138548374176025390625">
        <ele>1040</ele>
        <time>2026-06-20T12:48:27.000Z</time>
        <extensions>
          <ns3:TrackPointExtension>
            <ns3:atemp>32.0</ns3:atemp>
          </ns3:TrackPointExtension>
        </extensions>
      </trkpt>
      <trkpt lat="42.4509993754327297210693359375" lon="20.2064734138548374176025390625">
        <ele>1040</ele>
        <time>2026-06-20T12:48:28.000Z</time>
        <extensions>
          <ns3:TrackPointExtension>
            <ns3:atemp>32.0</ns3:atemp>
          </ns3:TrackPointExtension>
        </extensions>
      </trkpt>
      <trkpt lat="42.4509993754327297210693359375" lon="20.2064734138548374176025390625">
        <ele>1040</ele>
        <time>2026-06-20T12:48:29.000Z</time>
        <extensions>
          <ns3:TrackPointExtension>
            <ns3:atemp>32.0</ns3:atemp>
          </ns3:TrackPointExtension>
        </extensions>
      </trkpt>
      <trkpt lat="42.4509993754327297210693359375" lon="20.2064734138548374176025390625">
        <ele>1040</ele>
        <time>2026-06-20T12:48:30.000Z</time>
        <extensions>
          <ns3:TrackPointExtension>
            <ns3:atemp>32.0</ns3:atemp>
          </ns3:TrackPointExtension>
        </extensions>
      </trkpt>
      <trkpt lat="42.4509993754327297210693359375" lon="20.2064734138548374176025390625">
        <ele>1040</ele>
        <time>2026-06-20T12:48:31.000Z</time>
        <extensions>
          <ns3:TrackPointExtension>
            <ns3:atemp>32.0</ns3:atemp>
          </ns3:TrackPointExtension>
        </extensions>
      </trkpt>
      <trkpt lat="42.4509993754327297210693359375" lon="20.2064734138548374176025390625">
        <ele>1040</ele>
        <time>2026-06-20T12:48:32.000Z</time>
        <extensions>
          <ns3:TrackPointExtension>
            <ns3:atemp>32.0</ns3:atemp>
          </ns3:TrackPointExtension>
        </extensions>
      </trkpt>
      <trkpt lat="42.4509993754327297210693359375" lon="20.2064734138548374176025390625">
        <ele>1040</ele>
        <time>2026-06-20T12:48:33.000Z</time>
        <extensions>
          <ns3:TrackPointExtension>
            <ns3:atemp>32.0</ns3:atemp>
          </ns3:TrackPointExtension>
        </extensions>
      </trkpt>
      <trkpt lat="42.4509993754327297210693359375" lon="20.2064734138548374176025390625">
        <ele>1040</ele>
        <time>2026-06-20T12:48:34.000Z</time>
        <extensions>
          <ns3:TrackPointExtension>
            <ns3:atemp>32.0</ns3:atemp>
          </ns3:TrackPointExtension>
        </extensions>
      </trkpt>
      <trkpt lat="42.4509993754327297210693359375" lon="20.2064734138548374176025390625">
        <ele>1040</ele>
        <time>2026-06-20T12:48:35.000Z</time>
        <extensions>
          <ns3:TrackPointExtension>
            <ns3:atemp>32.0</ns3:atemp>
          </ns3:TrackPointExtension>
        </extensions>
      </trkpt>
      <trkpt lat="42.4509993754327297210693359375" lon="20.2064734138548374176025390625">
        <ele>1040</ele>
        <time>2026-06-20T12:48:36.000Z</time>
        <extensions>
          <ns3:TrackPointExtension>
            <ns3:atemp>32.0</ns3:atemp>
          </ns3:TrackPointExtension>
        </extensions>
      </trkpt>
      <trkpt lat="42.4509993754327297210693359375" lon="20.2064734138548374176025390625">
        <ele>1040</ele>
        <time>2026-06-20T12:48:37.000Z</time>
        <extensions>
          <ns3:TrackPointExtension>
            <ns3:atemp>32.0</ns3:atemp>
          </ns3:TrackPointExtension>
        </extensions>
      </trkpt>
      <trkpt lat="42.4509993754327297210693359375" lon="20.2064734138548374176025390625">
        <ele>1040</ele>
        <time>2026-06-20T12:48:38.000Z</time>
        <extensions>
          <ns3:TrackPointExtension>
            <ns3:atemp>32.0</ns3:atemp>
          </ns3:TrackPointExtension>
        </extensions>
      </trkpt>
      <trkpt lat="42.4509993754327297210693359375" lon="20.2064734138548374176025390625">
        <ele>1040</ele>
        <time>2026-06-20T12:48:39.000Z</time>
        <extensions>
          <ns3:TrackPointExtension>
            <ns3:atemp>32.0</ns3:atemp>
          </ns3:TrackPointExtension>
        </extensions>
      </trkpt>
      <trkpt lat="42.4509993754327297210693359375" lon="20.2064734138548374176025390625">
        <ele>1040</ele>
        <time>2026-06-20T12:48:40.000Z</time>
        <extensions>
          <ns3:TrackPointExtension>
            <ns3:atemp>32.0</ns3:atemp>
          </ns3:TrackPointExtension>
        </extensions>
      </trkpt>
      <trkpt lat="42.4509993754327297210693359375" lon="20.2064734138548374176025390625">
        <ele>1040</ele>
        <time>2026-06-20T12:48:41.000Z</time>
        <extensions>
          <ns3:TrackPointExtension>
            <ns3:atemp>32.0</ns3:atemp>
          </ns3:TrackPointExtension>
        </extensions>
      </trkpt>
      <trkpt lat="42.4509993754327297210693359375" lon="20.2064734138548374176025390625">
        <ele>1040</ele>
        <time>2026-06-20T12:48:42.000Z</time>
        <extensions>
          <ns3:TrackPointExtension>
            <ns3:atemp>32.0</ns3:atemp>
          </ns3:TrackPointExtension>
        </extensions>
      </trkpt>
      <trkpt lat="42.4509993754327297210693359375" lon="20.2064734138548374176025390625">
        <ele>1040</ele>
        <time>2026-06-20T12:48:43.000Z</time>
        <extensions>
          <ns3:TrackPointExtension>
            <ns3:atemp>32.0</ns3:atemp>
          </ns3:TrackPointExtension>
        </extensions>
      </trkpt>
      <trkpt lat="42.4509993754327297210693359375" lon="20.2064734138548374176025390625">
        <ele>1040</ele>
        <time>2026-06-20T12:48:44.000Z</time>
        <extensions>
          <ns3:TrackPointExtension>
            <ns3:atemp>32.0</ns3:atemp>
          </ns3:TrackPointExtension>
        </extensions>
      </trkpt>
      <trkpt lat="42.4509993754327297210693359375" lon="20.2064734138548374176025390625">
        <ele>1040</ele>
        <time>2026-06-20T12:48:45.000Z</time>
        <extensions>
          <ns3:TrackPointExtension>
            <ns3:atemp>32.0</ns3:atemp>
          </ns3:TrackPointExtension>
        </extensions>
      </trkpt>
      <trkpt lat="42.4509993754327297210693359375" lon="20.2064734138548374176025390625">
        <ele>1040</ele>
        <time>2026-06-20T12:48:46.000Z</time>
        <extensions>
          <ns3:TrackPointExtension>
            <ns3:atemp>32.0</ns3:atemp>
          </ns3:TrackPointExtension>
        </extensions>
      </trkpt>
      <trkpt lat="42.4509993754327297210693359375" lon="20.2064734138548374176025390625">
        <ele>1040</ele>
        <time>2026-06-20T12:48:47.000Z</time>
        <extensions>
          <ns3:TrackPointExtension>
            <ns3:atemp>32.0</ns3:atemp>
          </ns3:TrackPointExtension>
        </extensions>
      </trkpt>
      <trkpt lat="42.4509993754327297210693359375" lon="20.2064734138548374176025390625">
        <ele>1040</ele>
        <time>2026-06-20T12:48:48.000Z</time>
        <extensions>
          <ns3:TrackPointExtension>
            <ns3:atemp>32.0</ns3:atemp>
          </ns3:TrackPointExtension>
        </extensions>
      </trkpt>
      <trkpt lat="42.4509993754327297210693359375" lon="20.2064734138548374176025390625">
        <ele>1040</ele>
        <time>2026-06-20T12:48:49.000Z</time>
        <extensions>
          <ns3:TrackPointExtension>
            <ns3:atemp>32.0</ns3:atemp>
          </ns3:TrackPointExtension>
        </extensions>
      </trkpt>
      <trkpt lat="42.4509993754327297210693359375" lon="20.2064734138548374176025390625">
        <ele>1040</ele>
        <time>2026-06-20T12:48:50.000Z</time>
        <extensions>
          <ns3:TrackPointExtension>
            <ns3:atemp>32.0</ns3:atemp>
          </ns3:TrackPointExtension>
        </extensions>
      </trkpt>
      <trkpt lat="42.4509993754327297210693359375" lon="20.2064734138548374176025390625">
        <ele>1040</ele>
        <time>2026-06-20T12:48:51.000Z</time>
        <extensions>
          <ns3:TrackPointExtension>
            <ns3:atemp>32.0</ns3:atemp>
          </ns3:TrackPointExtension>
        </extensions>
      </trkpt>
      <trkpt lat="42.4509993754327297210693359375" lon="20.2064734138548374176025390625">
        <ele>1040</ele>
        <time>2026-06-20T12:48:52.000Z</time>
        <extensions>
          <ns3:TrackPointExtension>
            <ns3:atemp>32.0</ns3:atemp>
          </ns3:TrackPointExtension>
        </extensions>
      </trkpt>
      <trkpt lat="42.4509993754327297210693359375" lon="20.2064734138548374176025390625">
        <ele>1040</ele>
        <time>2026-06-20T12:48:53.000Z</time>
        <extensions>
          <ns3:TrackPointExtension>
            <ns3:atemp>32.0</ns3:atemp>
          </ns3:TrackPointExtension>
        </extensions>
      </trkpt>
      <trkpt lat="42.4509993754327297210693359375" lon="20.2064734138548374176025390625">
        <ele>1040</ele>
        <time>2026-06-20T12:48:54.000Z</time>
        <extensions>
          <ns3:TrackPointExtension>
            <ns3:atemp>32.0</ns3:atemp>
          </ns3:TrackPointExtension>
        </extensions>
      </trkpt>
      <trkpt lat="42.4509993754327297210693359375" lon="20.2064734138548374176025390625">
        <ele>1040</ele>
        <time>2026-06-20T12:48:55.000Z</time>
        <extensions>
          <ns3:TrackPointExtension>
            <ns3:atemp>32.0</ns3:atemp>
          </ns3:TrackPointExtension>
        </extensions>
      </trkpt>
      <trkpt lat="42.4509993754327297210693359375" lon="20.2064734138548374176025390625">
        <ele>1040</ele>
        <time>2026-06-20T12:48:56.000Z</time>
        <extensions>
          <ns3:TrackPointExtension>
            <ns3:atemp>32.0</ns3:atemp>
          </ns3:TrackPointExtension>
        </extensions>
      </trkpt>
      <trkpt lat="42.4509993754327297210693359375" lon="20.2064734138548374176025390625">
        <ele>1040</ele>
        <time>2026-06-20T12:48:57.000Z</time>
        <extensions>
          <ns3:TrackPointExtension>
            <ns3:atemp>32.0</ns3:atemp>
          </ns3:TrackPointExtension>
        </extensions>
      </trkpt>
      <trkpt lat="42.4509993754327297210693359375" lon="20.2064734138548374176025390625">
        <ele>1040</ele>
        <time>2026-06-20T12:48:58.000Z</time>
        <extensions>
          <ns3:TrackPointExtension>
            <ns3:atemp>32.0</ns3:atemp>
          </ns3:TrackPointExtension>
        </extensions>
      </trkpt>
      <trkpt lat="42.4509993754327297210693359375" lon="20.2064734138548374176025390625">
        <ele>1040</ele>
        <time>2026-06-20T12:48:59.000Z</time>
        <extensions>
          <ns3:TrackPointExtension>
            <ns3:atemp>32.0</ns3:atemp>
          </ns3:TrackPointExtension>
        </extensions>
      </trkpt>
      <trkpt lat="42.4509993754327297210693359375" lon="20.2064734138548374176025390625">
        <ele>1040</ele>
        <time>2026-06-20T12:49:00.000Z</time>
        <extensions>
          <ns3:TrackPointExtension>
            <ns3:atemp>32.0</ns3:atemp>
          </ns3:TrackPointExtension>
        </extensions>
      </trkpt>
      <trkpt lat="42.4509993754327297210693359375" lon="20.2064734138548374176025390625">
        <ele>1040</ele>
        <time>2026-06-20T12:49:01.000Z</time>
        <extensions>
          <ns3:TrackPointExtension>
            <ns3:atemp>32.0</ns3:atemp>
          </ns3:TrackPointExtension>
        </extensions>
      </trkpt>
      <trkpt lat="42.4509993754327297210693359375" lon="20.2064734138548374176025390625">
        <ele>1040</ele>
        <time>2026-06-20T12:49:02.000Z</time>
        <extensions>
          <ns3:TrackPointExtension>
            <ns3:atemp>32.0</ns3:atemp>
          </ns3:TrackPointExtension>
        </extensions>
      </trkpt>
      <trkpt lat="42.4509993754327297210693359375" lon="20.2064734138548374176025390625">
        <ele>1040</ele>
        <time>2026-06-20T12:49:03.000Z</time>
        <extensions>
          <ns3:TrackPointExtension>
            <ns3:atemp>32.0</ns3:atemp>
          </ns3:TrackPointExtension>
        </extensions>
      </trkpt>
      <trkpt lat="42.4509993754327297210693359375" lon="20.2064734138548374176025390625">
        <ele>1040</ele>
        <time>2026-06-20T12:49:04.000Z</time>
        <extensions>
          <ns3:TrackPointExtension>
            <ns3:atemp>32.0</ns3:atemp>
          </ns3:TrackPointExtension>
        </extensions>
      </trkpt>
      <trkpt lat="42.4509993754327297210693359375" lon="20.2064734138548374176025390625">
        <ele>1040</ele>
        <time>2026-06-20T12:49:05.000Z</time>
        <extensions>
          <ns3:TrackPointExtension>
            <ns3:atemp>32.0</ns3:atemp>
          </ns3:TrackPointExtension>
        </extensions>
      </trkpt>
      <trkpt lat="42.4509993754327297210693359375" lon="20.2064734138548374176025390625">
        <ele>1040</ele>
        <time>2026-06-20T12:49:06.000Z</time>
        <extensions>
          <ns3:TrackPointExtension>
            <ns3:atemp>32.0</ns3:atemp>
          </ns3:TrackPointExtension>
        </extensions>
      </trkpt>
      <trkpt lat="42.4509993754327297210693359375" lon="20.2064734138548374176025390625">
        <ele>1040</ele>
        <time>2026-06-20T12:49:07.000Z</time>
        <extensions>
          <ns3:TrackPointExtension>
            <ns3:atemp>32.0</ns3:atemp>
          </ns3:TrackPointExtension>
        </extensions>
      </trkpt>
      <trkpt lat="42.4509993754327297210693359375" lon="20.2064734138548374176025390625">
        <ele>1040</ele>
        <time>2026-06-20T12:49:08.000Z</time>
        <extensions>
          <ns3:TrackPointExtension>
            <ns3:atemp>32.0</ns3:atemp>
          </ns3:TrackPointExtension>
        </extensions>
      </trkpt>
      <trkpt lat="42.4509993754327297210693359375" lon="20.2064734138548374176025390625">
        <ele>1040</ele>
        <time>2026-06-20T12:49:09.000Z</time>
        <extensions>
          <ns3:TrackPointExtension>
            <ns3:atemp>32.0</ns3:atemp>
          </ns3:TrackPointExtension>
        </extensions>
      </trkpt>
      <trkpt lat="42.4509993754327297210693359375" lon="20.2064734138548374176025390625">
        <ele>1040</ele>
        <time>2026-06-20T12:49:10.000Z</time>
        <extensions>
          <ns3:TrackPointExtension>
            <ns3:atemp>32.0</ns3:atemp>
          </ns3:TrackPointExtension>
        </extensions>
      </trkpt>
      <trkpt lat="42.4509993754327297210693359375" lon="20.2064734138548374176025390625">
        <ele>1040</ele>
        <time>2026-06-20T12:49:11.000Z</time>
        <extensions>
          <ns3:TrackPointExtension>
            <ns3:atemp>32.0</ns3:atemp>
          </ns3:TrackPointExtension>
        </extensions>
      </trkpt>
      <trkpt lat="42.4509993754327297210693359375" lon="20.2064734138548374176025390625">
        <ele>1040</ele>
        <time>2026-06-20T12:49:12.000Z</time>
        <extensions>
          <ns3:TrackPointExtension>
            <ns3:atemp>32.0</ns3:atemp>
          </ns3:TrackPointExtension>
        </extensions>
      </trkpt>
      <trkpt lat="42.4509993754327297210693359375" lon="20.2064734138548374176025390625">
        <ele>1040</ele>
        <time>2026-06-20T12:49:13.000Z</time>
        <extensions>
          <ns3:TrackPointExtension>
            <ns3:atemp>32.0</ns3:atemp>
          </ns3:TrackPointExtension>
        </extensions>
      </trkpt>
      <trkpt lat="42.4509993754327297210693359375" lon="20.2064734138548374176025390625">
        <ele>1040</ele>
        <time>2026-06-20T12:49:14.000Z</time>
        <extensions>
          <ns3:TrackPointExtension>
            <ns3:atemp>32.0</ns3:atemp>
          </ns3:TrackPointExtension>
        </extensions>
      </trkpt>
      <trkpt lat="42.4509993754327297210693359375" lon="20.2064734138548374176025390625">
        <ele>1040</ele>
        <time>2026-06-20T12:49:15.000Z</time>
        <extensions>
          <ns3:TrackPointExtension>
            <ns3:atemp>32.0</ns3:atemp>
          </ns3:TrackPointExtension>
        </extensions>
      </trkpt>
      <trkpt lat="42.4509993754327297210693359375" lon="20.2064734138548374176025390625">
        <ele>1040</ele>
        <time>2026-06-20T12:49:16.000Z</time>
        <extensions>
          <ns3:TrackPointExtension>
            <ns3:atemp>32.0</ns3:atemp>
          </ns3:TrackPointExtension>
        </extensions>
      </trkpt>
      <trkpt lat="42.4509993754327297210693359375" lon="20.2064734138548374176025390625">
        <ele>1040</ele>
        <time>2026-06-20T12:49:17.000Z</time>
        <extensions>
          <ns3:TrackPointExtension>
            <ns3:atemp>32.0</ns3:atemp>
          </ns3:TrackPointExtension>
        </extensions>
      </trkpt>
      <trkpt lat="42.4509993754327297210693359375" lon="20.2064734138548374176025390625">
        <ele>1040</ele>
        <time>2026-06-20T12:49:18.000Z</time>
        <extensions>
          <ns3:TrackPointExtension>
            <ns3:atemp>32.0</ns3:atemp>
          </ns3:TrackPointExtension>
        </extensions>
      </trkpt>
      <trkpt lat="42.4509993754327297210693359375" lon="20.2064734138548374176025390625">
        <ele>1040</ele>
        <time>2026-06-20T12:49:19.000Z</time>
        <extensions>
          <ns3:TrackPointExtension>
            <ns3:atemp>32.0</ns3:atemp>
          </ns3:TrackPointExtension>
        </extensions>
      </trkpt>
      <trkpt lat="42.4509993754327297210693359375" lon="20.2064734138548374176025390625">
        <ele>1040</ele>
        <time>2026-06-20T12:49:20.000Z</time>
        <extensions>
          <ns3:TrackPointExtension>
            <ns3:atemp>32.0</ns3:atemp>
          </ns3:TrackPointExtension>
        </extensions>
      </trkpt>
      <trkpt lat="42.4509993754327297210693359375" lon="20.2064734138548374176025390625">
        <ele>1040</ele>
        <time>2026-06-20T12:49:21.000Z</time>
        <extensions>
          <ns3:TrackPointExtension>
            <ns3:atemp>32.0</ns3:atemp>
          </ns3:TrackPointExtension>
        </extensions>
      </trkpt>
      <trkpt lat="42.4509993754327297210693359375" lon="20.2064734138548374176025390625">
        <ele>1040</ele>
        <time>2026-06-20T12:49:22.000Z</time>
        <extensions>
          <ns3:TrackPointExtension>
            <ns3:atemp>32.0</ns3:atemp>
          </ns3:TrackPointExtension>
        </extensions>
      </trkpt>
      <trkpt lat="42.4509993754327297210693359375" lon="20.2064734138548374176025390625">
        <ele>1040</ele>
        <time>2026-06-20T12:49:23.000Z</time>
        <extensions>
          <ns3:TrackPointExtension>
            <ns3:atemp>32.0</ns3:atemp>
          </ns3:TrackPointExtension>
        </extensions>
      </trkpt>
      <trkpt lat="42.4509993754327297210693359375" lon="20.2064734138548374176025390625">
        <ele>1040</ele>
        <time>2026-06-20T12:49:24.000Z</time>
        <extensions>
          <ns3:TrackPointExtension>
            <ns3:atemp>32.0</ns3:atemp>
          </ns3:TrackPointExtension>
        </extensions>
      </trkpt>
      <trkpt lat="42.4509993754327297210693359375" lon="20.2064734138548374176025390625">
        <ele>1040</ele>
        <time>2026-06-20T12:49:25.000Z</time>
        <extensions>
          <ns3:TrackPointExtension>
            <ns3:atemp>32.0</ns3:atemp>
          </ns3:TrackPointExtension>
        </extensions>
      </trkpt>
      <trkpt lat="42.4509993754327297210693359375" lon="20.2064734138548374176025390625">
        <ele>1040</ele>
        <time>2026-06-20T12:49:26.000Z</time>
        <extensions>
          <ns3:TrackPointExtension>
            <ns3:atemp>32.0</ns3:atemp>
          </ns3:TrackPointExtension>
        </extensions>
      </trkpt>
      <trkpt lat="42.4509993754327297210693359375" lon="20.2064734138548374176025390625">
        <ele>1040</ele>
        <time>2026-06-20T12:49:27.000Z</time>
        <extensions>
          <ns3:TrackPointExtension>
            <ns3:atemp>32.0</ns3:atemp>
          </ns3:TrackPointExtension>
        </extensions>
      </trkpt>
      <trkpt lat="42.4509993754327297210693359375" lon="20.2064734138548374176025390625">
        <ele>1040</ele>
        <time>2026-06-20T12:49:28.000Z</time>
        <extensions>
          <ns3:TrackPointExtension>
            <ns3:atemp>32.0</ns3:atemp>
          </ns3:TrackPointExtension>
        </extensions>
      </trkpt>
      <trkpt lat="42.4509993754327297210693359375" lon="20.2064734138548374176025390625">
        <ele>1040</ele>
        <time>2026-06-20T12:49:29.000Z</time>
        <extensions>
          <ns3:TrackPointExtension>
            <ns3:atemp>32.0</ns3:atemp>
          </ns3:TrackPointExtension>
        </extensions>
      </trkpt>
      <trkpt lat="42.4509993754327297210693359375" lon="20.2064734138548374176025390625">
        <ele>1040</ele>
        <time>2026-06-20T12:49:30.000Z</time>
        <extensions>
          <ns3:TrackPointExtension>
            <ns3:atemp>32.0</ns3:atemp>
          </ns3:TrackPointExtension>
        </extensions>
      </trkpt>
      <trkpt lat="42.4509993754327297210693359375" lon="20.2064734138548374176025390625">
        <ele>1040</ele>
        <time>2026-06-20T12:49:31.000Z</time>
        <extensions>
          <ns3:TrackPointExtension>
            <ns3:atemp>32.0</ns3:atemp>
          </ns3:TrackPointExtension>
        </extensions>
      </trkpt>
      <trkpt lat="42.4509993754327297210693359375" lon="20.2064734138548374176025390625">
        <ele>1040</ele>
        <time>2026-06-20T12:49:32.000Z</time>
        <extensions>
          <ns3:TrackPointExtension>
            <ns3:atemp>32.0</ns3:atemp>
          </ns3:TrackPointExtension>
        </extensions>
      </trkpt>
      <trkpt lat="42.451000548899173736572265625" lon="20.20647190511226654052734375">
        <ele>1040</ele>
        <time>2026-06-20T12:49:33.000Z</time>
        <extensions>
          <ns3:TrackPointExtension>
            <ns3:atemp>32.0</ns3:atemp>
          </ns3:TrackPointExtension>
        </extensions>
      </trkpt>
      <trkpt lat="42.4510000459849834442138671875" lon="20.2064626850187778472900390625">
        <ele>1040</ele>
        <time>2026-06-20T12:49:34.000Z</time>
        <extensions>
          <ns3:TrackPointExtension>
            <ns3:atemp>32.0</ns3:atemp>
          </ns3:TrackPointExtension>
        </extensions>
      </trkpt>
      <trkpt lat="42.4509993754327297210693359375" lon="20.206450112164020538330078125">
        <ele>1040</ele>
        <time>2026-06-20T12:49:35.000Z</time>
        <extensions>
          <ns3:TrackPointExtension>
            <ns3:atemp>32.0</ns3:atemp>
          </ns3:TrackPointExtension>
        </extensions>
      </trkpt>
      <trkpt lat="42.45100314728915691375732421875" lon="20.2064519561827182769775390625">
        <ele>1040</ele>
        <time>2026-06-20T12:49:36.000Z</time>
        <extensions>
          <ns3:TrackPointExtension>
            <ns3:atemp>32.0</ns3:atemp>
          </ns3:TrackPointExtension>
        </extensions>
      </trkpt>
      <trkpt lat="42.45100088417530059814453125" lon="20.20645405165851116180419921875">
        <ele>1040</ele>
        <time>2026-06-20T12:49:37.000Z</time>
        <extensions>
          <ns3:TrackPointExtension>
            <ns3:atemp>32.0</ns3:atemp>
          </ns3:TrackPointExtension>
        </extensions>
      </trkpt>
      <trkpt lat="42.45100080035626888275146484375" lon="20.20645405165851116180419921875">
        <ele>1040</ele>
        <time>2026-06-20T12:49:38.000Z</time>
        <extensions>
          <ns3:TrackPointExtension>
            <ns3:atemp>32.0</ns3:atemp>
          </ns3:TrackPointExtension>
        </extensions>
      </trkpt>
      <trkpt lat="42.45100080035626888275146484375" lon="20.20645405165851116180419921875">
        <ele>1040</ele>
        <time>2026-06-20T12:49:39.000Z</time>
        <extensions>
          <ns3:TrackPointExtension>
            <ns3:atemp>32.0</ns3:atemp>
          </ns3:TrackPointExtension>
        </extensions>
      </trkpt>
      <trkpt lat="42.45100080035626888275146484375" lon="20.20645405165851116180419921875">
        <ele>1040</ele>
        <time>2026-06-20T12:49:40.000Z</time>
        <extensions>
          <ns3:TrackPointExtension>
            <ns3:atemp>32.0</ns3:atemp>
          </ns3:TrackPointExtension>
        </extensions>
      </trkpt>
      <trkpt lat="42.45100063271820545196533203125" lon="20.20645405165851116180419921875">
        <ele>1040</ele>
        <time>2026-06-20T12:49:41.000Z</time>
        <extensions>
          <ns3:TrackPointExtension>
            <ns3:atemp>32.0</ns3:atemp>
          </ns3:TrackPointExtension>
        </extensions>
      </trkpt>
      <trkpt lat="42.45100163854658603668212890625" lon="20.2064435742795467376708984375">
        <ele>1040</ele>
        <time>2026-06-20T12:49:42.000Z</time>
        <extensions>
          <ns3:TrackPointExtension>
            <ns3:atemp>32.0</ns3:atemp>
          </ns3:TrackPointExtension>
        </extensions>
      </trkpt>
      <trkpt lat="42.4510010518133640289306640625" lon="20.20642857067286968231201171875">
        <ele>1040</ele>
        <time>2026-06-20T12:49:43.000Z</time>
        <extensions>
          <ns3:TrackPointExtension>
            <ns3:atemp>32.0</ns3:atemp>
          </ns3:TrackPointExtension>
        </extensions>
      </trkpt>
      <trkpt lat="42.45100046508014202117919921875" lon="20.2064167521893978118896484375">
        <ele>1040</ele>
        <time>2026-06-20T12:49:44.000Z</time>
        <extensions>
          <ns3:TrackPointExtension>
            <ns3:atemp>32.0</ns3:atemp>
          </ns3:TrackPointExtension>
        </extensions>
      </trkpt>
      <trkpt lat="42.4509993754327297210693359375" lon="20.20640275441110134124755859375">
        <ele>1040</ele>
        <time>2026-06-20T12:49:45.000Z</time>
        <extensions>
          <ns3:TrackPointExtension>
            <ns3:atemp>32.0</ns3:atemp>
          </ns3:TrackPointExtension>
        </extensions>
      </trkpt>
      <trkpt lat="42.45100046508014202117919921875" lon="20.20639454014599323272705078125">
        <ele>1040.199951171875</ele>
        <time>2026-06-20T12:49:46.000Z</time>
        <extensions>
          <ns3:TrackPointExtension>
            <ns3:atemp>32.0</ns3:atemp>
          </ns3:TrackPointExtension>
        </extensions>
      </trkpt>
      <trkpt lat="42.4510003812611103057861328125" lon="20.20639437250792980194091796875">
        <ele>1040.4000244140625</ele>
        <time>2026-06-20T12:49:47.000Z</time>
        <extensions>
          <ns3:TrackPointExtension>
            <ns3:atemp>32.0</ns3:atemp>
          </ns3:TrackPointExtension>
        </extensions>
      </trkpt>
      <trkpt lat="42.4510003812611103057861328125" lon="20.20639437250792980194091796875">
        <ele>1040.5999755859375</ele>
        <time>2026-06-20T12:49:48.000Z</time>
        <extensions>
          <ns3:TrackPointExtension>
            <ns3:atemp>32.0</ns3:atemp>
          </ns3:TrackPointExtension>
        </extensions>
      </trkpt>
      <trkpt lat="42.4510003812611103057861328125" lon="20.20639437250792980194091796875">
        <ele>1040.800048828125</ele>
        <time>2026-06-20T12:49:49.000Z</time>
        <extensions>
          <ns3:TrackPointExtension>
            <ns3:atemp>32.0</ns3:atemp>
          </ns3:TrackPointExtension>
        </extensions>
      </trkpt>
      <trkpt lat="42.4510003812611103057861328125" lon="20.20639437250792980194091796875">
        <ele>1041</ele>
        <time>2026-06-20T12:49:50.000Z</time>
        <extensions>
          <ns3:TrackPointExtension>
            <ns3:atemp>32.0</ns3:atemp>
          </ns3:TrackPointExtension>
        </extensions>
      </trkpt>
      <trkpt lat="42.4510003812611103057861328125" lon="20.20639437250792980194091796875">
        <ele>1041.199951171875</ele>
        <time>2026-06-20T12:49:51.000Z</time>
        <extensions>
          <ns3:TrackPointExtension>
            <ns3:atemp>32.0</ns3:atemp>
          </ns3:TrackPointExtension>
        </extensions>
      </trkpt>
      <trkpt lat="42.4510003812611103057861328125" lon="20.20639437250792980194091796875">
        <ele>1041.4000244140625</ele>
        <time>2026-06-20T12:49:52.000Z</time>
        <extensions>
          <ns3:TrackPointExtension>
            <ns3:atemp>32.0</ns3:atemp>
          </ns3:TrackPointExtension>
        </extensions>
      </trkpt>
      <trkpt lat="42.4510003812611103057861328125" lon="20.20639437250792980194091796875">
        <ele>1041.5999755859375</ele>
        <time>2026-06-20T12:49:53.000Z</time>
        <extensions>
          <ns3:TrackPointExtension>
            <ns3:atemp>32.0</ns3:atemp>
          </ns3:TrackPointExtension>
        </extensions>
      </trkpt>
      <trkpt lat="42.4510003812611103057861328125" lon="20.20639437250792980194091796875">
        <ele>1041.5999755859375</ele>
        <time>2026-06-20T12:49:54.000Z</time>
        <extensions>
          <ns3:TrackPointExtension>
            <ns3:atemp>32.0</ns3:atemp>
          </ns3:TrackPointExtension>
        </extensions>
      </trkpt>
      <trkpt lat="42.4510003812611103057861328125" lon="20.20639437250792980194091796875">
        <ele>1041.5999755859375</ele>
        <time>2026-06-20T12:49:55.000Z</time>
        <extensions>
          <ns3:TrackPointExtension>
            <ns3:atemp>32.0</ns3:atemp>
          </ns3:TrackPointExtension>
        </extensions>
      </trkpt>
      <trkpt lat="42.4510003812611103057861328125" lon="20.20639437250792980194091796875">
        <ele>1041.800048828125</ele>
        <time>2026-06-20T12:49:56.000Z</time>
        <extensions>
          <ns3:TrackPointExtension>
            <ns3:atemp>32.0</ns3:atemp>
          </ns3:TrackPointExtension>
        </extensions>
      </trkpt>
      <trkpt lat="42.4510003812611103057861328125" lon="20.20639437250792980194091796875">
        <ele>1041.800048828125</ele>
        <time>2026-06-20T12:49:57.000Z</time>
        <extensions>
          <ns3:TrackPointExtension>
            <ns3:atemp>32.0</ns3:atemp>
          </ns3:TrackPointExtension>
        </extensions>
      </trkpt>
      <trkpt lat="42.4510003812611103057861328125" lon="20.20639437250792980194091796875">
        <ele>1041.800048828125</ele>
        <time>2026-06-20T12:49:58.000Z</time>
        <extensions>
          <ns3:TrackPointExtension>
            <ns3:atemp>32.0</ns3:atemp>
          </ns3:TrackPointExtension>
        </extensions>
      </trkpt>
      <trkpt lat="42.4510003812611103057861328125" lon="20.20639437250792980194091796875">
        <ele>1041.800048828125</ele>
        <time>2026-06-20T12:49:59.000Z</time>
        <extensions>
          <ns3:TrackPointExtension>
            <ns3:atemp>32.0</ns3:atemp>
          </ns3:TrackPointExtension>
        </extensions>
      </trkpt>
      <trkpt lat="42.4510003812611103057861328125" lon="20.20639437250792980194091796875">
        <ele>1042</ele>
        <time>2026-06-20T12:50:00.000Z</time>
        <extensions>
          <ns3:TrackPointExtension>
            <ns3:atemp>32.0</ns3:atemp>
          </ns3:TrackPointExtension>
        </extensions>
      </trkpt>
      <trkpt lat="42.4510003812611103057861328125" lon="20.20639437250792980194091796875">
        <ele>1042</ele>
        <time>2026-06-20T12:50:01.000Z</time>
        <extensions>
          <ns3:TrackPointExtension>
            <ns3:atemp>32.0</ns3:atemp>
          </ns3:TrackPointExtension>
        </extensions>
      </trkpt>
      <trkpt lat="42.4510003812611103057861328125" lon="20.20639437250792980194091796875">
        <ele>1042</ele>
        <time>2026-06-20T12:50:02.000Z</time>
        <extensions>
          <ns3:TrackPointExtension>
            <ns3:atemp>32.0</ns3:atemp>
          </ns3:TrackPointExtension>
        </extensions>
      </trkpt>
      <trkpt lat="42.4510003812611103057861328125" lon="20.20639437250792980194091796875">
        <ele>1042</ele>
        <time>2026-06-20T12:50:03.000Z</time>
        <extensions>
          <ns3:TrackPointExtension>
            <ns3:atemp>32.0</ns3:atemp>
          </ns3:TrackPointExtension>
        </extensions>
      </trkpt>
      <trkpt lat="42.4510003812611103057861328125" lon="20.20639437250792980194091796875">
        <ele>1042</ele>
        <time>2026-06-20T12:50:04.000Z</time>
        <extensions>
          <ns3:TrackPointExtension>
            <ns3:atemp>32.0</ns3:atemp>
          </ns3:TrackPointExtension>
        </extensions>
      </trkpt>
      <trkpt lat="42.4510003812611103057861328125" lon="20.20639437250792980194091796875">
        <ele>1042</ele>
        <time>2026-06-20T12:50:05.000Z</time>
        <extensions>
          <ns3:TrackPointExtension>
            <ns3:atemp>32.0</ns3:atemp>
          </ns3:TrackPointExtension>
        </extensions>
      </trkpt>
      <trkpt lat="42.4510003812611103057861328125" lon="20.20639437250792980194091796875">
        <ele>1042.199951171875</ele>
        <time>2026-06-20T12:50:06.000Z</time>
        <extensions>
          <ns3:TrackPointExtension>
            <ns3:atemp>32.0</ns3:atemp>
          </ns3:TrackPointExtension>
        </extensions>
      </trkpt>
      <trkpt lat="42.451001219451427459716796875" lon="20.2063999883830547332763671875">
        <ele>1042.199951171875</ele>
        <time>2026-06-20T12:50:07.000Z</time>
        <extensions>
          <ns3:TrackPointExtension>
            <ns3:atemp>33.0</ns3:atemp>
          </ns3:TrackPointExtension>
        </extensions>
      </trkpt>
      <trkpt lat="42.45100448839366436004638671875" lon="20.20641113631427288055419921875">
        <ele>1042.199951171875</ele>
        <time>2026-06-20T12:50:08.000Z</time>
        <extensions>
          <ns3:TrackPointExtension>
            <ns3:atemp>33.0</ns3:atemp>
          </ns3:TrackPointExtension>
        </extensions>
      </trkpt>
      <trkpt lat="42.4510069191455841064453125" lon="20.20641432143747806549072265625">
        <ele>1042.199951171875</ele>
        <time>2026-06-20T12:50:09.000Z</time>
        <extensions>
          <ns3:TrackPointExtension>
            <ns3:atemp>33.0</ns3:atemp>
          </ns3:TrackPointExtension>
        </extensions>
      </trkpt>
      <trkpt lat="42.45100549422204494476318359375" lon="20.2064160816371440887451171875">
        <ele>1042.199951171875</ele>
        <time>2026-06-20T12:50:10.000Z</time>
        <extensions>
          <ns3:TrackPointExtension>
            <ns3:atemp>33.0</ns3:atemp>
          </ns3:TrackPointExtension>
        </extensions>
      </trkpt>
      <trkpt lat="42.45100566186010837554931640625" lon="20.20641616545617580413818359375">
        <ele>1042.199951171875</ele>
        <time>2026-06-20T12:50:11.000Z</time>
        <extensions>
          <ns3:TrackPointExtension>
            <ns3:atemp>33.0</ns3:atemp>
          </ns3:TrackPointExtension>
        </extensions>
      </trkpt>
      <trkpt lat="42.45100566186010837554931640625" lon="20.20641616545617580413818359375">
        <ele>1042.199951171875</ele>
        <time>2026-06-20T12:50:12.000Z</time>
        <extensions>
          <ns3:TrackPointExtension>
            <ns3:atemp>33.0</ns3:atemp>
          </ns3:TrackPointExtension>
        </extensions>
      </trkpt>
      <trkpt lat="42.45100566186010837554931640625" lon="20.20641616545617580413818359375">
        <ele>1042.199951171875</ele>
        <time>2026-06-20T12:50:13.000Z</time>
        <extensions>
          <ns3:TrackPointExtension>
            <ns3:atemp>33.0</ns3:atemp>
          </ns3:TrackPointExtension>
        </extensions>
      </trkpt>
      <trkpt lat="42.45100566186010837554931640625" lon="20.20641616545617580413818359375">
        <ele>1042.199951171875</ele>
        <time>2026-06-20T12:50:14.000Z</time>
        <extensions>
          <ns3:TrackPointExtension>
            <ns3:atemp>33.0</ns3:atemp>
          </ns3:TrackPointExtension>
        </extensions>
      </trkpt>
      <trkpt lat="42.45100566186010837554931640625" lon="20.20641616545617580413818359375">
        <ele>1042.199951171875</ele>
        <time>2026-06-20T12:50:15.000Z</time>
        <extensions>
          <ns3:TrackPointExtension>
            <ns3:atemp>33.0</ns3:atemp>
          </ns3:TrackPointExtension>
        </extensions>
      </trkpt>
      <trkpt lat="42.45100566186010837554931640625" lon="20.20641616545617580413818359375">
        <ele>1042.199951171875</ele>
        <time>2026-06-20T12:50:16.000Z</time>
        <extensions>
          <ns3:TrackPointExtension>
            <ns3:atemp>33.0</ns3:atemp>
          </ns3:TrackPointExtension>
        </extensions>
      </trkpt>
      <trkpt lat="42.45100566186010837554931640625" lon="20.20641616545617580413818359375">
        <ele>1042.199951171875</ele>
        <time>2026-06-20T12:50:17.000Z</time>
        <extensions>
          <ns3:TrackPointExtension>
            <ns3:atemp>33.0</ns3:atemp>
          </ns3:TrackPointExtension>
        </extensions>
      </trkpt>
      <trkpt lat="42.45100566186010837554931640625" lon="20.20641616545617580413818359375">
        <ele>1042.199951171875</ele>
        <time>2026-06-20T12:50:18.000Z</time>
        <extensions>
          <ns3:TrackPointExtension>
            <ns3:atemp>33.0</ns3:atemp>
          </ns3:TrackPointExtension>
        </extensions>
      </trkpt>
      <trkpt lat="42.45100566186010837554931640625" lon="20.20641616545617580413818359375">
        <ele>1042</ele>
        <time>2026-06-20T12:50:19.000Z</time>
        <extensions>
          <ns3:TrackPointExtension>
            <ns3:atemp>33.0</ns3:atemp>
          </ns3:TrackPointExtension>
        </extensions>
      </trkpt>
      <trkpt lat="42.45100566186010837554931640625" lon="20.20641616545617580413818359375">
        <ele>1042</ele>
        <time>2026-06-20T12:50:20.000Z</time>
        <extensions>
          <ns3:TrackPointExtension>
            <ns3:atemp>33.0</ns3:atemp>
          </ns3:TrackPointExtension>
        </extensions>
      </trkpt>
      <trkpt lat="42.45100566186010837554931640625" lon="20.20641616545617580413818359375">
        <ele>1042</ele>
        <time>2026-06-20T12:50:21.000Z</time>
        <extensions>
          <ns3:TrackPointExtension>
            <ns3:atemp>33.0</ns3:atemp>
          </ns3:TrackPointExtension>
        </extensions>
      </trkpt>
      <trkpt lat="42.45100566186010837554931640625" lon="20.20641616545617580413818359375">
        <ele>1042.199951171875</ele>
        <time>2026-06-20T12:50:22.000Z</time>
        <extensions>
          <ns3:TrackPointExtension>
            <ns3:atemp>33.0</ns3:atemp>
          </ns3:TrackPointExtension>
        </extensions>
      </trkpt>
      <trkpt lat="42.45100566186010837554931640625" lon="20.20641616545617580413818359375">
        <ele>1042.199951171875</ele>
        <time>2026-06-20T12:50:23.000Z</time>
        <extensions>
          <ns3:TrackPointExtension>
            <ns3:atemp>33.0</ns3:atemp>
          </ns3:TrackPointExtension>
        </extensions>
      </trkpt>
      <trkpt lat="42.45100566186010837554931640625" lon="20.20641616545617580413818359375">
        <ele>1042.199951171875</ele>
        <time>2026-06-20T12:50:24.000Z</time>
        <extensions>
          <ns3:TrackPointExtension>
            <ns3:atemp>33.0</ns3:atemp>
          </ns3:TrackPointExtension>
        </extensions>
      </trkpt>
      <trkpt lat="42.45100566186010837554931640625" lon="20.20641616545617580413818359375">
        <ele>1042.199951171875</ele>
        <time>2026-06-20T12:50:25.000Z</time>
        <extensions>
          <ns3:TrackPointExtension>
            <ns3:atemp>33.0</ns3:atemp>
          </ns3:TrackPointExtension>
        </extensions>
      </trkpt>
      <trkpt lat="42.45100566186010837554931640625" lon="20.20641616545617580413818359375">
        <ele>1042.199951171875</ele>
        <time>2026-06-20T12:50:26.000Z</time>
        <extensions>
          <ns3:TrackPointExtension>
            <ns3:atemp>33.0</ns3:atemp>
          </ns3:TrackPointExtension>
        </extensions>
      </trkpt>
      <trkpt lat="42.45100566186010837554931640625" lon="20.20641616545617580413818359375">
        <ele>1042.199951171875</ele>
        <time>2026-06-20T12:50:27.000Z</time>
        <extensions>
          <ns3:TrackPointExtension>
            <ns3:atemp>33.0</ns3:atemp>
          </ns3:TrackPointExtension>
        </extensions>
      </trkpt>
      <trkpt lat="42.45100566186010837554931640625" lon="20.20641616545617580413818359375">
        <ele>1042.199951171875</ele>
        <time>2026-06-20T12:50:28.000Z</time>
        <extensions>
          <ns3:TrackPointExtension>
            <ns3:atemp>33.0</ns3:atemp>
          </ns3:TrackPointExtension>
        </extensions>
      </trkpt>
      <trkpt lat="42.45100566186010837554931640625" lon="20.20641616545617580413818359375">
        <ele>1042.199951171875</ele>
        <time>2026-06-20T12:50:29.000Z</time>
        <extensions>
          <ns3:TrackPointExtension>
            <ns3:atemp>33.0</ns3:atemp>
          </ns3:TrackPointExtension>
        </extensions>
      </trkpt>
      <trkpt lat="42.45100566186010837554931640625" lon="20.20641616545617580413818359375">
        <ele>1042.199951171875</ele>
        <time>2026-06-20T12:50:30.000Z</time>
        <extensions>
          <ns3:TrackPointExtension>
            <ns3:atemp>33.0</ns3:atemp>
          </ns3:TrackPointExtension>
        </extensions>
      </trkpt>
      <trkpt lat="42.45100566186010837554931640625" lon="20.20641616545617580413818359375">
        <ele>1042.199951171875</ele>
        <time>2026-06-20T12:50:31.000Z</time>
        <extensions>
          <ns3:TrackPointExtension>
            <ns3:atemp>33.0</ns3:atemp>
          </ns3:TrackPointExtension>
        </extensions>
      </trkpt>
      <trkpt lat="42.45100566186010837554931640625" lon="20.20641616545617580413818359375">
        <ele>1042.199951171875</ele>
        <time>2026-06-20T12:50:32.000Z</time>
        <extensions>
          <ns3:TrackPointExtension>
            <ns3:atemp>33.0</ns3:atemp>
          </ns3:TrackPointExtension>
        </extensions>
      </trkpt>
      <trkpt lat="42.45100566186010837554931640625" lon="20.20641616545617580413818359375">
        <ele>1042.199951171875</ele>
        <time>2026-06-20T12:50:33.000Z</time>
        <extensions>
          <ns3:TrackPointExtension>
            <ns3:atemp>33.0</ns3:atemp>
          </ns3:TrackPointExtension>
        </extensions>
      </trkpt>
      <trkpt lat="42.45100566186010837554931640625" lon="20.20641616545617580413818359375">
        <ele>1042</ele>
        <time>2026-06-20T12:50:34.000Z</time>
        <extensions>
          <ns3:TrackPointExtension>
            <ns3:atemp>33.0</ns3:atemp>
          </ns3:TrackPointExtension>
        </extensions>
      </trkpt>
      <trkpt lat="42.45100566186010837554931640625" lon="20.20641616545617580413818359375">
        <ele>1042</ele>
        <time>2026-06-20T12:50:35.000Z</time>
        <extensions>
          <ns3:TrackPointExtension>
            <ns3:atemp>33.0</ns3:atemp>
          </ns3:TrackPointExtension>
        </extensions>
      </trkpt>
      <trkpt lat="42.45100566186010837554931640625" lon="20.20641616545617580413818359375">
        <ele>1042</ele>
        <time>2026-06-20T12:50:36.000Z</time>
        <extensions>
          <ns3:TrackPointExtension>
            <ns3:atemp>33.0</ns3:atemp>
          </ns3:TrackPointExtension>
        </extensions>
      </trkpt>
      <trkpt lat="42.45100566186010837554931640625" lon="20.20641616545617580413818359375">
        <ele>1042</ele>
        <time>2026-06-20T12:50:37.000Z</time>
        <extensions>
          <ns3:TrackPointExtension>
            <ns3:atemp>33.0</ns3:atemp>
          </ns3:TrackPointExtension>
        </extensions>
      </trkpt>
      <trkpt lat="42.45100566186010837554931640625" lon="20.20641616545617580413818359375">
        <ele>1042</ele>
        <time>2026-06-20T12:50:38.000Z</time>
        <extensions>
          <ns3:TrackPointExtension>
            <ns3:atemp>33.0</ns3:atemp>
          </ns3:TrackPointExtension>
        </extensions>
      </trkpt>
      <trkpt lat="42.45100566186010837554931640625" lon="20.20641616545617580413818359375">
        <ele>1042</ele>
        <time>2026-06-20T12:50:39.000Z</time>
        <extensions>
          <ns3:TrackPointExtension>
            <ns3:atemp>33.0</ns3:atemp>
          </ns3:TrackPointExtension>
        </extensions>
      </trkpt>
      <trkpt lat="42.45100566186010837554931640625" lon="20.20641616545617580413818359375">
        <ele>1042</ele>
        <time>2026-06-20T12:50:40.000Z</time>
        <extensions>
          <ns3:TrackPointExtension>
            <ns3:atemp>33.0</ns3:atemp>
          </ns3:TrackPointExtension>
        </extensions>
      </trkpt>
      <trkpt lat="42.45100566186010837554931640625" lon="20.20641616545617580413818359375">
        <ele>1042</ele>
        <time>2026-06-20T12:50:41.000Z</time>
        <extensions>
          <ns3:TrackPointExtension>
            <ns3:atemp>33.0</ns3:atemp>
          </ns3:TrackPointExtension>
        </extensions>
      </trkpt>
      <trkpt lat="42.45100566186010837554931640625" lon="20.20641616545617580413818359375">
        <ele>1042</ele>
        <time>2026-06-20T12:50:42.000Z</time>
        <extensions>
          <ns3:TrackPointExtension>
            <ns3:atemp>33.0</ns3:atemp>
          </ns3:TrackPointExtension>
        </extensions>
      </trkpt>
      <trkpt lat="42.45100566186010837554931640625" lon="20.20641616545617580413818359375">
        <ele>1042</ele>
        <time>2026-06-20T12:50:43.000Z</time>
        <extensions>
          <ns3:TrackPointExtension>
            <ns3:atemp>33.0</ns3:atemp>
          </ns3:TrackPointExtension>
        </extensions>
      </trkpt>
      <trkpt lat="42.45100566186010837554931640625" lon="20.20641616545617580413818359375">
        <ele>1042</ele>
        <time>2026-06-20T12:50:44.000Z</time>
        <extensions>
          <ns3:TrackPointExtension>
            <ns3:atemp>33.0</ns3:atemp>
          </ns3:TrackPointExtension>
        </extensions>
      </trkpt>
      <trkpt lat="42.45100566186010837554931640625" lon="20.20641616545617580413818359375">
        <ele>1042</ele>
        <time>2026-06-20T12:50:45.000Z</time>
        <extensions>
          <ns3:TrackPointExtension>
            <ns3:atemp>33.0</ns3:atemp>
          </ns3:TrackPointExtension>
        </extensions>
      </trkpt>
      <trkpt lat="42.45100985281169414520263671875" lon="20.20641331560909748077392578125">
        <ele>1042</ele>
        <time>2026-06-20T12:50:46.000Z</time>
        <extensions>
          <ns3:TrackPointExtension>
            <ns3:atemp>33.0</ns3:atemp>
          </ns3:TrackPointExtension>
        </extensions>
      </trkpt>
      <trkpt lat="42.45102846063673496246337890625" lon="20.2064063586294651031494140625">
        <ele>1041.800048828125</ele>
        <time>2026-06-20T12:50:47.000Z</time>
        <extensions>
          <ns3:TrackPointExtension>
            <ns3:atemp>33.0</ns3:atemp>
          </ns3:TrackPointExtension>
        </extensions>
      </trkpt>
      <trkpt lat="42.451026700437068939208984375" lon="20.20640258677303791046142578125">
        <ele>1041.4000244140625</ele>
        <time>2026-06-20T12:50:48.000Z</time>
        <extensions>
          <ns3:TrackPointExtension>
            <ns3:atemp>33.0</ns3:atemp>
          </ns3:TrackPointExtension>
        </extensions>
      </trkpt>
      <trkpt lat="42.451026700437068939208984375" lon="20.2064026705920696258544921875">
        <ele>1041.4000244140625</ele>
        <time>2026-06-20T12:50:49.000Z</time>
        <extensions>
          <ns3:TrackPointExtension>
            <ns3:atemp>33.0</ns3:atemp>
          </ns3:TrackPointExtension>
        </extensions>
      </trkpt>
      <trkpt lat="42.451026700437068939208984375" lon="20.2064026705920696258544921875">
        <ele>1041.4000244140625</ele>
        <time>2026-06-20T12:50:50.000Z</time>
        <extensions>
          <ns3:TrackPointExtension>
            <ns3:atemp>33.0</ns3:atemp>
          </ns3:TrackPointExtension>
        </extensions>
      </trkpt>
      <trkpt lat="42.451026700437068939208984375" lon="20.2064026705920696258544921875">
        <ele>1041.4000244140625</ele>
        <time>2026-06-20T12:50:51.000Z</time>
        <extensions>
          <ns3:TrackPointExtension>
            <ns3:atemp>33.0</ns3:atemp>
          </ns3:TrackPointExtension>
        </extensions>
      </trkpt>
      <trkpt lat="42.451026700437068939208984375" lon="20.2064026705920696258544921875">
        <ele>1041.4000244140625</ele>
        <time>2026-06-20T12:50:52.000Z</time>
        <extensions>
          <ns3:TrackPointExtension>
            <ns3:atemp>33.0</ns3:atemp>
          </ns3:TrackPointExtension>
        </extensions>
      </trkpt>
      <trkpt lat="42.451026700437068939208984375" lon="20.2064026705920696258544921875">
        <ele>1041.4000244140625</ele>
        <time>2026-06-20T12:50:53.000Z</time>
        <extensions>
          <ns3:TrackPointExtension>
            <ns3:atemp>33.0</ns3:atemp>
          </ns3:TrackPointExtension>
        </extensions>
      </trkpt>
      <trkpt lat="42.451026700437068939208984375" lon="20.2064026705920696258544921875">
        <ele>1041.4000244140625</ele>
        <time>2026-06-20T12:50:54.000Z</time>
        <extensions>
          <ns3:TrackPointExtension>
            <ns3:atemp>33.0</ns3:atemp>
          </ns3:TrackPointExtension>
        </extensions>
      </trkpt>
      <trkpt lat="42.451026700437068939208984375" lon="20.2064026705920696258544921875">
        <ele>1041.4000244140625</ele>
        <time>2026-06-20T12:50:55.000Z</time>
        <extensions>
          <ns3:TrackPointExtension>
            <ns3:atemp>33.0</ns3:atemp>
          </ns3:TrackPointExtension>
        </extensions>
      </trkpt>
      <trkpt lat="42.451026700437068939208984375" lon="20.2064026705920696258544921875">
        <ele>1041.4000244140625</ele>
        <time>2026-06-20T12:50:56.000Z</time>
        <extensions>
          <ns3:TrackPointExtension>
            <ns3:atemp>33.0</ns3:atemp>
          </ns3:TrackPointExtension>
        </extensions>
      </trkpt>
      <trkpt lat="42.451026700437068939208984375" lon="20.2064026705920696258544921875">
        <ele>1041.4000244140625</ele>
        <time>2026-06-20T12:50:57.000Z</time>
        <extensions>
          <ns3:TrackPointExtension>
            <ns3:atemp>33.0</ns3:atemp>
          </ns3:TrackPointExtension>
        </extensions>
      </trkpt>
      <trkpt lat="42.451026700437068939208984375" lon="20.2064026705920696258544921875">
        <ele>1041.4000244140625</ele>
        <time>2026-06-20T12:50:58.000Z</time>
        <extensions>
          <ns3:TrackPointExtension>
            <ns3:atemp>33.0</ns3:atemp>
          </ns3:TrackPointExtension>
        </extensions>
      </trkpt>
      <trkpt lat="42.451026700437068939208984375" lon="20.2064026705920696258544921875">
        <ele>1041.4000244140625</ele>
        <time>2026-06-20T12:50:59.000Z</time>
        <extensions>
          <ns3:TrackPointExtension>
            <ns3:atemp>33.0</ns3:atemp>
          </ns3:TrackPointExtension>
        </extensions>
      </trkpt>
      <trkpt lat="42.451026700437068939208984375" lon="20.2064026705920696258544921875">
        <ele>1041.4000244140625</ele>
        <time>2026-06-20T12:51:00.000Z</time>
        <extensions>
          <ns3:TrackPointExtension>
            <ns3:atemp>33.0</ns3:atemp>
          </ns3:TrackPointExtension>
        </extensions>
      </trkpt>
      <trkpt lat="42.451026700437068939208984375" lon="20.2064026705920696258544921875">
        <ele>1041.4000244140625</ele>
        <time>2026-06-20T12:51:01.000Z</time>
        <extensions>
          <ns3:TrackPointExtension>
            <ns3:atemp>33.0</ns3:atemp>
          </ns3:TrackPointExtension>
        </extensions>
      </trkpt>
      <trkpt lat="42.451026700437068939208984375" lon="20.2064026705920696258544921875">
        <ele>1041.4000244140625</ele>
        <time>2026-06-20T12:51:02.000Z</time>
        <extensions>
          <ns3:TrackPointExtension>
            <ns3:atemp>33.0</ns3:atemp>
          </ns3:TrackPointExtension>
        </extensions>
      </trkpt>
      <trkpt lat="42.451026700437068939208984375" lon="20.2064026705920696258544921875">
        <ele>1041.4000244140625</ele>
        <time>2026-06-20T12:51:03.000Z</time>
        <extensions>
          <ns3:TrackPointExtension>
            <ns3:atemp>33.0</ns3:atemp>
          </ns3:TrackPointExtension>
        </extensions>
      </trkpt>
      <trkpt lat="42.451026700437068939208984375" lon="20.2064026705920696258544921875">
        <ele>1041.4000244140625</ele>
        <time>2026-06-20T12:51:04.000Z</time>
        <extensions>
          <ns3:TrackPointExtension>
            <ns3:atemp>33.0</ns3:atemp>
          </ns3:TrackPointExtension>
        </extensions>
      </trkpt>
      <trkpt lat="42.451026700437068939208984375" lon="20.2064026705920696258544921875">
        <ele>1041.4000244140625</ele>
        <time>2026-06-20T12:51:05.000Z</time>
        <extensions>
          <ns3:TrackPointExtension>
            <ns3:atemp>33.0</ns3:atemp>
          </ns3:TrackPointExtension>
        </extensions>
      </trkpt>
      <trkpt lat="42.451026700437068939208984375" lon="20.2064026705920696258544921875">
        <ele>1041.4000244140625</ele>
        <time>2026-06-20T12:51:06.000Z</time>
        <extensions>
          <ns3:TrackPointExtension>
            <ns3:atemp>33.0</ns3:atemp>
          </ns3:TrackPointExtension>
        </extensions>
      </trkpt>
      <trkpt lat="42.451026700437068939208984375" lon="20.2064026705920696258544921875">
        <ele>1041.4000244140625</ele>
        <time>2026-06-20T12:51:07.000Z</time>
        <extensions>
          <ns3:TrackPointExtension>
            <ns3:atemp>33.0</ns3:atemp>
          </ns3:TrackPointExtension>
        </extensions>
      </trkpt>
      <trkpt lat="42.451026700437068939208984375" lon="20.2064026705920696258544921875">
        <ele>1041.4000244140625</ele>
        <time>2026-06-20T12:51:08.000Z</time>
        <extensions>
          <ns3:TrackPointExtension>
            <ns3:atemp>33.0</ns3:atemp>
          </ns3:TrackPointExtension>
        </extensions>
      </trkpt>
      <trkpt lat="42.451026700437068939208984375" lon="20.2064026705920696258544921875">
        <ele>1041.4000244140625</ele>
        <time>2026-06-20T12:51:09.000Z</time>
        <extensions>
          <ns3:TrackPointExtension>
            <ns3:atemp>33.0</ns3:atemp>
          </ns3:TrackPointExtension>
        </extensions>
      </trkpt>
      <trkpt lat="42.451026700437068939208984375" lon="20.2064026705920696258544921875">
        <ele>1041.4000244140625</ele>
        <time>2026-06-20T12:51:10.000Z</time>
        <extensions>
          <ns3:TrackPointExtension>
            <ns3:atemp>33.0</ns3:atemp>
          </ns3:TrackPointExtension>
        </extensions>
      </trkpt>
      <trkpt lat="42.451026700437068939208984375" lon="20.2064026705920696258544921875">
        <ele>1041.4000244140625</ele>
        <time>2026-06-20T12:51:11.000Z</time>
        <extensions>
          <ns3:TrackPointExtension>
            <ns3:atemp>33.0</ns3:atemp>
          </ns3:TrackPointExtension>
        </extensions>
      </trkpt>
      <trkpt lat="42.451026700437068939208984375" lon="20.2064026705920696258544921875">
        <ele>1041.4000244140625</ele>
        <time>2026-06-20T12:51:12.000Z</time>
        <extensions>
          <ns3:TrackPointExtension>
            <ns3:atemp>33.0</ns3:atemp>
          </ns3:TrackPointExtension>
        </extensions>
      </trkpt>
      <trkpt lat="42.451026700437068939208984375" lon="20.2064026705920696258544921875">
        <ele>1041.4000244140625</ele>
        <time>2026-06-20T12:51:13.000Z</time>
        <extensions>
          <ns3:TrackPointExtension>
            <ns3:atemp>33.0</ns3:atemp>
          </ns3:TrackPointExtension>
        </extensions>
      </trkpt>
      <trkpt lat="42.451026700437068939208984375" lon="20.2064026705920696258544921875">
        <ele>1041.4000244140625</ele>
        <time>2026-06-20T12:51:14.000Z</time>
        <extensions>
          <ns3:TrackPointExtension>
            <ns3:atemp>33.0</ns3:atemp>
          </ns3:TrackPointExtension>
        </extensions>
      </trkpt>
      <trkpt lat="42.451026700437068939208984375" lon="20.2064026705920696258544921875">
        <ele>1041.4000244140625</ele>
        <time>2026-06-20T12:51:15.000Z</time>
        <extensions>
          <ns3:TrackPointExtension>
            <ns3:atemp>33.0</ns3:atemp>
          </ns3:TrackPointExtension>
        </extensions>
      </trkpt>
      <trkpt lat="42.451026700437068939208984375" lon="20.2064026705920696258544921875">
        <ele>1041.4000244140625</ele>
        <time>2026-06-20T12:51:16.000Z</time>
        <extensions>
          <ns3:TrackPointExtension>
            <ns3:atemp>33.0</ns3:atemp>
          </ns3:TrackPointExtension>
        </extensions>
      </trkpt>
      <trkpt lat="42.451026700437068939208984375" lon="20.2064026705920696258544921875">
        <ele>1041.4000244140625</ele>
        <time>2026-06-20T12:51:17.000Z</time>
        <extensions>
          <ns3:TrackPointExtension>
            <ns3:atemp>33.0</ns3:atemp>
          </ns3:TrackPointExtension>
        </extensions>
      </trkpt>
      <trkpt lat="42.451026700437068939208984375" lon="20.2064026705920696258544921875">
        <ele>1041.4000244140625</ele>
        <time>2026-06-20T12:51:18.000Z</time>
        <extensions>
          <ns3:TrackPointExtension>
            <ns3:atemp>33.0</ns3:atemp>
          </ns3:TrackPointExtension>
        </extensions>
      </trkpt>
      <trkpt lat="42.451026700437068939208984375" lon="20.2064026705920696258544921875">
        <ele>1041.4000244140625</ele>
        <time>2026-06-20T12:51:19.000Z</time>
        <extensions>
          <ns3:TrackPointExtension>
            <ns3:atemp>33.0</ns3:atemp>
          </ns3:TrackPointExtension>
        </extensions>
      </trkpt>
      <trkpt lat="42.451026700437068939208984375" lon="20.2064026705920696258544921875">
        <ele>1041.4000244140625</ele>
        <time>2026-06-20T12:51:20.000Z</time>
        <extensions>
          <ns3:TrackPointExtension>
            <ns3:atemp>33.0</ns3:atemp>
          </ns3:TrackPointExtension>
        </extensions>
      </trkpt>
      <trkpt lat="42.451026700437068939208984375" lon="20.2064026705920696258544921875">
        <ele>1041.4000244140625</ele>
        <time>2026-06-20T12:51:21.000Z</time>
        <extensions>
          <ns3:TrackPointExtension>
            <ns3:atemp>33.0</ns3:atemp>
          </ns3:TrackPointExtension>
        </extensions>
      </trkpt>
      <trkpt lat="42.451026700437068939208984375" lon="20.2064026705920696258544921875">
        <ele>1041.4000244140625</ele>
        <time>2026-06-20T12:51:22.000Z</time>
        <extensions>
          <ns3:TrackPointExtension>
            <ns3:atemp>33.0</ns3:atemp>
          </ns3:TrackPointExtension>
        </extensions>
      </trkpt>
      <trkpt lat="42.451026700437068939208984375" lon="20.2064026705920696258544921875">
        <ele>1041.4000244140625</ele>
        <time>2026-06-20T12:51:23.000Z</time>
        <extensions>
          <ns3:TrackPointExtension>
            <ns3:atemp>33.0</ns3:atemp>
          </ns3:TrackPointExtension>
        </extensions>
      </trkpt>
      <trkpt lat="42.451026700437068939208984375" lon="20.2064026705920696258544921875">
        <ele>1041.4000244140625</ele>
        <time>2026-06-20T12:51:24.000Z</time>
        <extensions>
          <ns3:TrackPointExtension>
            <ns3:atemp>33.0</ns3:atemp>
          </ns3:TrackPointExtension>
        </extensions>
      </trkpt>
      <trkpt lat="42.451026700437068939208984375" lon="20.2064026705920696258544921875">
        <ele>1041.4000244140625</ele>
        <time>2026-06-20T12:51:25.000Z</time>
        <extensions>
          <ns3:TrackPointExtension>
            <ns3:atemp>33.0</ns3:atemp>
          </ns3:TrackPointExtension>
        </extensions>
      </trkpt>
      <trkpt lat="42.451026700437068939208984375" lon="20.2064026705920696258544921875">
        <ele>1041.4000244140625</ele>
        <time>2026-06-20T12:51:26.000Z</time>
        <extensions>
          <ns3:TrackPointExtension>
            <ns3:atemp>33.0</ns3:atemp>
          </ns3:TrackPointExtension>
        </extensions>
      </trkpt>
      <trkpt lat="42.451026700437068939208984375" lon="20.2064026705920696258544921875">
        <ele>1041.4000244140625</ele>
        <time>2026-06-20T12:51:27.000Z</time>
        <extensions>
          <ns3:TrackPointExtension>
            <ns3:atemp>33.0</ns3:atemp>
          </ns3:TrackPointExtension>
        </extensions>
      </trkpt>
      <trkpt lat="42.451026700437068939208984375" lon="20.2064026705920696258544921875">
        <ele>1041.4000244140625</ele>
        <time>2026-06-20T12:51:28.000Z</time>
        <extensions>
          <ns3:TrackPointExtension>
            <ns3:atemp>33.0</ns3:atemp>
          </ns3:TrackPointExtension>
        </extensions>
      </trkpt>
      <trkpt lat="42.451026700437068939208984375" lon="20.2064026705920696258544921875">
        <ele>1041.4000244140625</ele>
        <time>2026-06-20T12:51:29.000Z</time>
        <extensions>
          <ns3:TrackPointExtension>
            <ns3:atemp>33.0</ns3:atemp>
          </ns3:TrackPointExtension>
        </extensions>
      </trkpt>
      <trkpt lat="42.451026700437068939208984375" lon="20.2064026705920696258544921875">
        <ele>1041.4000244140625</ele>
        <time>2026-06-20T12:51:30.000Z</time>
        <extensions>
          <ns3:TrackPointExtension>
            <ns3:atemp>33.0</ns3:atemp>
          </ns3:TrackPointExtension>
        </extensions>
      </trkpt>
      <trkpt lat="42.451026700437068939208984375" lon="20.2064026705920696258544921875">
        <ele>1041.4000244140625</ele>
        <time>2026-06-20T12:51:31.000Z</time>
        <extensions>
          <ns3:TrackPointExtension>
            <ns3:atemp>33.0</ns3:atemp>
          </ns3:TrackPointExtension>
        </extensions>
      </trkpt>
      <trkpt lat="42.451026700437068939208984375" lon="20.2064026705920696258544921875">
        <ele>1041.4000244140625</ele>
        <time>2026-06-20T12:51:32.000Z</time>
        <extensions>
          <ns3:TrackPointExtension>
            <ns3:atemp>33.0</ns3:atemp>
          </ns3:TrackPointExtension>
        </extensions>
      </trkpt>
      <trkpt lat="42.451026700437068939208984375" lon="20.2064026705920696258544921875">
        <ele>1041.4000244140625</ele>
        <time>2026-06-20T12:51:33.000Z</time>
        <extensions>
          <ns3:TrackPointExtension>
            <ns3:atemp>33.0</ns3:atemp>
          </ns3:TrackPointExtension>
        </extensions>
      </trkpt>
      <trkpt lat="42.451026700437068939208984375" lon="20.2064026705920696258544921875">
        <ele>1041.4000244140625</ele>
        <time>2026-06-20T12:51:34.000Z</time>
        <extensions>
          <ns3:TrackPointExtension>
            <ns3:atemp>33.0</ns3:atemp>
          </ns3:TrackPointExtension>
        </extensions>
      </trkpt>
      <trkpt lat="42.451026700437068939208984375" lon="20.2064026705920696258544921875">
        <ele>1041.4000244140625</ele>
        <time>2026-06-20T12:51:35.000Z</time>
        <extensions>
          <ns3:TrackPointExtension>
            <ns3:atemp>33.0</ns3:atemp>
          </ns3:TrackPointExtension>
        </extensions>
      </trkpt>
      <trkpt lat="42.451026700437068939208984375" lon="20.2064026705920696258544921875">
        <ele>1041.4000244140625</ele>
        <time>2026-06-20T12:51:36.000Z</time>
        <extensions>
          <ns3:TrackPointExtension>
            <ns3:atemp>33.0</ns3:atemp>
          </ns3:TrackPointExtension>
        </extensions>
      </trkpt>
      <trkpt lat="42.451026700437068939208984375" lon="20.2064026705920696258544921875">
        <ele>1041.4000244140625</ele>
        <time>2026-06-20T12:51:37.000Z</time>
        <extensions>
          <ns3:TrackPointExtension>
            <ns3:atemp>33.0</ns3:atemp>
          </ns3:TrackPointExtension>
        </extensions>
      </trkpt>
      <trkpt lat="42.451026700437068939208984375" lon="20.2064026705920696258544921875">
        <ele>1041.4000244140625</ele>
        <time>2026-06-20T12:51:38.000Z</time>
        <extensions>
          <ns3:TrackPointExtension>
            <ns3:atemp>33.0</ns3:atemp>
          </ns3:TrackPointExtension>
        </extensions>
      </trkpt>
      <trkpt lat="42.451026700437068939208984375" lon="20.2064026705920696258544921875">
        <ele>1041.4000244140625</ele>
        <time>2026-06-20T12:51:39.000Z</time>
        <extensions>
          <ns3:TrackPointExtension>
            <ns3:atemp>33.0</ns3:atemp>
          </ns3:TrackPointExtension>
        </extensions>
      </trkpt>
      <trkpt lat="42.451026700437068939208984375" lon="20.2064026705920696258544921875">
        <ele>1041.4000244140625</ele>
        <time>2026-06-20T12:51:40.000Z</time>
        <extensions>
          <ns3:TrackPointExtension>
            <ns3:atemp>33.0</ns3:atemp>
          </ns3:TrackPointExtension>
        </extensions>
      </trkpt>
      <trkpt lat="42.45102762244641780853271484375" lon="20.20639755763113498687744140625">
        <ele>1041.4000244140625</ele>
        <time>2026-06-20T12:51:41.000Z</time>
        <extensions>
          <ns3:TrackPointExtension>
            <ns3:atemp>33.0</ns3:atemp>
          </ns3:TrackPointExtension>
        </extensions>
      </trkpt>
      <trkpt lat="42.451034076511859893798828125" lon="20.20637425594031810760498046875">
        <ele>1041.4000244140625</ele>
        <time>2026-06-20T12:51:42.000Z</time>
        <extensions>
          <ns3:TrackPointExtension>
            <ns3:atemp>33.0</ns3:atemp>
          </ns3:TrackPointExtension>
        </extensions>
      </trkpt>
      <trkpt lat="42.45103466324508190155029296875" lon="20.20635564811527729034423828125">
        <ele>1041.4000244140625</ele>
        <time>2026-06-20T12:51:43.000Z</time>
        <extensions>
          <ns3:TrackPointExtension>
            <ns3:atemp>33.0</ns3:atemp>
          </ns3:TrackPointExtension>
        </extensions>
      </trkpt>
      <trkpt lat="42.45103709399700164794921875" lon="20.20633117295801639556884765625">
        <ele>1041.800048828125</ele>
        <time>2026-06-20T12:51:44.000Z</time>
        <extensions>
          <ns3:TrackPointExtension>
            <ns3:atemp>33.0</ns3:atemp>
          </ns3:TrackPointExtension>
        </extensions>
      </trkpt>
      <trkpt lat="42.4510459788143634796142578125" lon="20.20630292594432830810546875">
        <ele>1041.5999755859375</ele>
        <time>2026-06-20T12:51:45.000Z</time>
        <extensions>
          <ns3:TrackPointExtension>
            <ns3:atemp>33.0</ns3:atemp>
          </ns3:TrackPointExtension>
        </extensions>
      </trkpt>
      <trkpt lat="42.45105880312621593475341796875" lon="20.2062843181192874908447265625">
        <ele>1041.4000244140625</ele>
        <time>2026-06-20T12:51:46.000Z</time>
        <extensions>
          <ns3:TrackPointExtension>
            <ns3:atemp>33.0</ns3:atemp>
          </ns3:TrackPointExtension>
        </extensions>
      </trkpt>
      <trkpt lat="42.451070286333560943603515625" lon="20.20625640638172626495361328125">
        <ele>1041.199951171875</ele>
        <time>2026-06-20T12:51:47.000Z</time>
        <extensions>
          <ns3:TrackPointExtension>
            <ns3:atemp>33.0</ns3:atemp>
          </ns3:TrackPointExtension>
        </extensions>
      </trkpt>
      <trkpt lat="42.451086379587650299072265625" lon="20.2062139101326465606689453125">
        <ele>1040.800048828125</ele>
        <time>2026-06-20T12:51:48.000Z</time>
        <extensions>
          <ns3:TrackPointExtension>
            <ns3:atemp>33.0</ns3:atemp>
          </ns3:TrackPointExtension>
        </extensions>
      </trkpt>
      <trkpt lat="42.45111093856394290924072265625" lon="20.206169821321964263916015625">
        <ele>1040.4000244140625</ele>
        <time>2026-06-20T12:51:49.000Z</time>
        <extensions>
          <ns3:TrackPointExtension>
            <ns3:atemp>33.0</ns3:atemp>
          </ns3:TrackPointExtension>
        </extensions>
      </trkpt>
      <trkpt lat="42.45114681310951709747314453125" lon="20.20611961372196674346923828125">
        <ele>1040.199951171875</ele>
        <time>2026-06-20T12:51:50.000Z</time>
        <extensions>
          <ns3:TrackPointExtension>
            <ns3:atemp>33.0</ns3:atemp>
          </ns3:TrackPointExtension>
        </extensions>
      </trkpt>
      <trkpt lat="42.45118721388280391693115234375" lon="20.20606379024684429168701171875">
        <ele>1039.800048828125</ele>
        <time>2026-06-20T12:51:51.000Z</time>
        <extensions>
          <ns3:TrackPointExtension>
            <ns3:atemp>33.0</ns3:atemp>
          </ns3:TrackPointExtension>
        </extensions>
      </trkpt>
      <trkpt lat="42.45122124440968036651611328125" lon="20.2060140855610370635986328125">
        <ele>1039.199951171875</ele>
        <time>2026-06-20T12:51:52.000Z</time>
        <extensions>
          <ns3:TrackPointExtension>
            <ns3:atemp>33.0</ns3:atemp>
          </ns3:TrackPointExtension>
        </extensions>
      </trkpt>
      <trkpt lat="42.4512617290019989013671875" lon="20.2059688232839107513427734375">
        <ele>1038.800048828125</ele>
        <time>2026-06-20T12:51:53.000Z</time>
        <extensions>
          <ns3:TrackPointExtension>
            <ns3:atemp>33.0</ns3:atemp>
          </ns3:TrackPointExtension>
        </extensions>
      </trkpt>
      <trkpt lat="42.45130087248980998992919921875" lon="20.20592599175870418548583984375">
        <ele>1038.199951171875</ele>
        <time>2026-06-20T12:51:54.000Z</time>
        <extensions>
          <ns3:TrackPointExtension>
            <ns3:atemp>33.0</ns3:atemp>
          </ns3:TrackPointExtension>
        </extensions>
      </trkpt>
      <trkpt lat="42.45133942924439907073974609375" lon="20.2058990858495235443115234375">
        <ele>1038</ele>
        <time>2026-06-20T12:51:55.000Z</time>
        <extensions>
          <ns3:TrackPointExtension>
            <ns3:atemp>33.0</ns3:atemp>
          </ns3:TrackPointExtension>
        </extensions>
      </trkpt>
      <trkpt lat="42.4513909779489040374755859375" lon="20.20587720908224582672119140625">
        <ele>1037.5999755859375</ele>
        <time>2026-06-20T12:51:56.000Z</time>
        <extensions>
          <ns3:TrackPointExtension>
            <ns3:atemp>33.0</ns3:atemp>
          </ns3:TrackPointExtension>
        </extensions>
      </trkpt>
      <trkpt lat="42.45144571177661418914794921875" lon="20.20586036145687103271484375">
        <ele>1037</ele>
        <time>2026-06-20T12:51:57.000Z</time>
        <extensions>
          <ns3:TrackPointExtension>
            <ns3:atemp>33.0</ns3:atemp>
          </ns3:TrackPointExtension>
        </extensions>
      </trkpt>
      <trkpt lat="42.45151318609714508056640625" lon="20.2058353833854198455810546875">
        <ele>1036.5999755859375</ele>
        <time>2026-06-20T12:51:58.000Z</time>
        <extensions>
          <ns3:TrackPointExtension>
            <ns3:atemp>33.0</ns3:atemp>
          </ns3:TrackPointExtension>
        </extensions>
      </trkpt>
      <trkpt lat="42.45158292353153228759765625" lon="20.20582423545420169830322265625">
        <ele>1035.800048828125</ele>
        <time>2026-06-20T12:51:59.000Z</time>
        <extensions>
          <ns3:TrackPointExtension>
            <ns3:atemp>33.0</ns3:atemp>
          </ns3:TrackPointExtension>
        </extensions>
      </trkpt>
      <trkpt lat="42.45165358297526836395263671875" lon="20.20582557655870914459228515625">
        <ele>1035</ele>
        <time>2026-06-20T12:52:00.000Z</time>
        <extensions>
          <ns3:TrackPointExtension>
            <ns3:atemp>33.0</ns3:atemp>
          </ns3:TrackPointExtension>
        </extensions>
      </trkpt>
      <trkpt lat="42.45171879418194293975830078125" lon="20.20579908974468708038330078125">
        <ele>1034</ele>
        <time>2026-06-20T12:52:01.000Z</time>
        <extensions>
          <ns3:TrackPointExtension>
            <ns3:atemp>33.0</ns3:atemp>
          </ns3:TrackPointExtension>
        </extensions>
      </trkpt>
      <trkpt lat="42.45177713222801685333251953125" lon="20.205762796103954315185546875">
        <ele>1033</ele>
        <time>2026-06-20T12:52:02.000Z</time>
        <extensions>
          <ns3:TrackPointExtension>
            <ns3:atemp>33.0</ns3:atemp>
          </ns3:TrackPointExtension>
        </extensions>
      </trkpt>
      <trkpt lat="42.45182122103869915008544921875" lon="20.20569850690662860870361328125">
        <ele>1032.199951171875</ele>
        <time>2026-06-20T12:52:03.000Z</time>
        <extensions>
          <ns3:TrackPointExtension>
            <ns3:atemp>33.0</ns3:atemp>
          </ns3:TrackPointExtension>
        </extensions>
      </trkpt>
      <trkpt lat="42.451856173574924468994140625" lon="20.2056187950074672698974609375">
        <ele>1031.5999755859375</ele>
        <time>2026-06-20T12:52:04.000Z</time>
        <extensions>
          <ns3:TrackPointExtension>
            <ns3:atemp>33.0</ns3:atemp>
          </ns3:TrackPointExtension>
        </extensions>
      </trkpt>
      <trkpt lat="42.4518761225044727325439453125" lon="20.20552198402583599090576171875">
        <ele>1031</ele>
        <time>2026-06-20T12:52:05.000Z</time>
        <extensions>
          <ns3:TrackPointExtension>
            <ns3:atemp>33.0</ns3:atemp>
          </ns3:TrackPointExtension>
        </extensions>
      </trkpt>
      <trkpt lat="42.45190034620463848114013671875" lon="20.205404050648212432861328125">
        <ele>1030</ele>
        <time>2026-06-20T12:52:06.000Z</time>
        <extensions>
          <ns3:TrackPointExtension>
            <ns3:atemp>33.0</ns3:atemp>
          </ns3:TrackPointExtension>
        </extensions>
      </trkpt>
      <trkpt lat="42.4519093148410320281982421875" lon="20.2052989415824413299560546875">
        <ele>1029</ele>
        <time>2026-06-20T12:52:07.000Z</time>
        <extensions>
          <ns3:TrackPointExtension>
            <ns3:atemp>33.0</ns3:atemp>
          </ns3:TrackPointExtension>
        </extensions>
      </trkpt>
      <trkpt lat="42.45191392488777637481689453125" lon="20.20520330406725406646728515625">
        <ele>1028.199951171875</ele>
        <time>2026-06-20T12:52:08.000Z</time>
        <extensions>
          <ns3:TrackPointExtension>
            <ns3:atemp>33.0</ns3:atemp>
          </ns3:TrackPointExtension>
        </extensions>
      </trkpt>
      <trkpt lat="42.451907135546207427978515625" lon="20.205116383731365203857421875">
        <ele>1027.4000244140625</ele>
        <time>2026-06-20T12:52:09.000Z</time>
        <extensions>
          <ns3:TrackPointExtension>
            <ns3:atemp>33.0</ns3:atemp>
          </ns3:TrackPointExtension>
        </extensions>
      </trkpt>
      <trkpt lat="42.45188743807375431060791015625" lon="20.20505192689597606658935546875">
        <ele>1026.4000244140625</ele>
        <time>2026-06-20T12:52:10.000Z</time>
        <extensions>
          <ns3:TrackPointExtension>
            <ns3:atemp>33.0</ns3:atemp>
          </ns3:TrackPointExtension>
        </extensions>
      </trkpt>
      <trkpt lat="42.45187821798026561737060546875" lon="20.204987637698650360107421875">
        <ele>1025.5999755859375</ele>
        <time>2026-06-20T12:52:11.000Z</time>
        <extensions>
          <ns3:TrackPointExtension>
            <ns3:atemp>33.0</ns3:atemp>
          </ns3:TrackPointExtension>
        </extensions>
      </trkpt>
      <trkpt lat="42.4518902041018009185791015625" lon="20.2049274556338787078857421875">
        <ele>1025</ele>
        <time>2026-06-20T12:52:12.000Z</time>
        <extensions>
          <ns3:TrackPointExtension>
            <ns3:atemp>33.0</ns3:atemp>
          </ns3:TrackPointExtension>
        </extensions>
      </trkpt>
      <trkpt lat="42.4519156850874423980712890625" lon="20.2048892341554164886474609375">
        <ele>1024.5999755859375</ele>
        <time>2026-06-20T12:52:13.000Z</time>
        <extensions>
          <ns3:TrackPointExtension>
            <ns3:atemp>33.0</ns3:atemp>
          </ns3:TrackPointExtension>
        </extensions>
      </trkpt>
      <trkpt lat="42.45194577611982822418212890625" lon="20.20486853085458278656005859375">
        <ele>1024.199951171875</ele>
        <time>2026-06-20T12:52:14.000Z</time>
        <extensions>
          <ns3:TrackPointExtension>
            <ns3:atemp>33.0</ns3:atemp>
          </ns3:TrackPointExtension>
        </extensions>
      </trkpt>
      <trkpt lat="42.45197595097124576568603515625" lon="20.20488579757511615753173828125">
        <ele>1023.5999755859375</ele>
        <time>2026-06-20T12:52:15.000Z</time>
        <extensions>
          <ns3:TrackPointExtension>
            <ns3:atemp>33.0</ns3:atemp>
          </ns3:TrackPointExtension>
        </extensions>
      </trkpt>
      <trkpt lat="42.45200377888977527618408203125" lon="20.20491010509431362152099609375">
        <ele>1023</ele>
        <time>2026-06-20T12:52:16.000Z</time>
        <extensions>
          <ns3:TrackPointExtension>
            <ns3:atemp>33.0</ns3:atemp>
          </ns3:TrackPointExtension>
        </extensions>
      </trkpt>
      <trkpt lat="42.452021129429340362548828125" lon="20.20494145341217517852783203125">
        <ele>1022.5999755859375</ele>
        <time>2026-06-20T12:52:17.000Z</time>
        <extensions>
          <ns3:TrackPointExtension>
            <ns3:atemp>33.0</ns3:atemp>
          </ns3:TrackPointExtension>
        </extensions>
      </trkpt>
      <trkpt lat="42.45203546248376369476318359375" lon="20.20496877841651439666748046875">
        <ele>1022.20001220703125</ele>
        <time>2026-06-20T12:52:18.000Z</time>
        <extensions>
          <ns3:TrackPointExtension>
            <ns3:atemp>33.0</ns3:atemp>
          </ns3:TrackPointExtension>
        </extensions>
      </trkpt>
      <trkpt lat="42.452055327594280242919921875" lon="20.20500867627561092376708984375">
        <ele>1021.79998779296875</ele>
        <time>2026-06-20T12:52:19.000Z</time>
        <extensions>
          <ns3:TrackPointExtension>
            <ns3:atemp>33.0</ns3:atemp>
          </ns3:TrackPointExtension>
        </extensions>
      </trkpt>
      <trkpt lat="42.45206974446773529052734375" lon="20.20504538901150226593017578125">
        <ele>1021.20001220703125</ele>
        <time>2026-06-20T12:52:20.000Z</time>
        <extensions>
          <ns3:TrackPointExtension>
            <ns3:atemp>33.0</ns3:atemp>
          </ns3:TrackPointExtension>
        </extensions>
      </trkpt>
      <trkpt lat="42.4520813114941120147705078125" lon="20.20508226938545703887939453125">
        <ele>1020.79998779296875</ele>
        <time>2026-06-20T12:52:21.000Z</time>
        <extensions>
          <ns3:TrackPointExtension>
            <ns3:atemp>33.0</ns3:atemp>
          </ns3:TrackPointExtension>
        </extensions>
      </trkpt>
      <trkpt lat="42.452086508274078369140625" lon="20.2051313035190105438232421875">
        <ele>1020.4000244140625</ele>
        <time>2026-06-20T12:52:22.000Z</time>
        <extensions>
          <ns3:TrackPointExtension>
            <ns3:atemp>33.0</ns3:atemp>
          </ns3:TrackPointExtension>
        </extensions>
      </trkpt>
      <trkpt lat="42.45209732092916965484619140625" lon="20.20518268458545207977294921875">
        <ele>1019.79998779296875</ele>
        <time>2026-06-20T12:52:23.000Z</time>
        <extensions>
          <ns3:TrackPointExtension>
            <ns3:atemp>33.0</ns3:atemp>
          </ns3:TrackPointExtension>
        </extensions>
      </trkpt>
      <trkpt lat="42.45211492292582988739013671875" lon="20.20522979088127613067626953125">
        <ele>1019</ele>
        <time>2026-06-20T12:52:24.000Z</time>
        <extensions>
          <ns3:TrackPointExtension>
            <ns3:atemp>33.0</ns3:atemp>
          </ns3:TrackPointExtension>
        </extensions>
      </trkpt>
      <trkpt lat="42.45212833397090435028076171875" lon="20.20527119748294353485107421875">
        <ele>1018.4000244140625</ele>
        <time>2026-06-20T12:52:25.000Z</time>
        <extensions>
          <ns3:TrackPointExtension>
            <ns3:atemp>33.0</ns3:atemp>
          </ns3:TrackPointExtension>
        </extensions>
      </trkpt>
      <trkpt lat="42.45213436894118785858154296875" lon="20.20530338399112224578857421875">
        <ele>1017.79998779296875</ele>
        <time>2026-06-20T12:52:26.000Z</time>
        <extensions>
          <ns3:TrackPointExtension>
            <ns3:atemp>33.0</ns3:atemp>
          </ns3:TrackPointExtension>
        </extensions>
      </trkpt>
      <trkpt lat="42.45214828290045261383056640625" lon="20.20533858798444271087646484375">
        <ele>1017.20001220703125</ele>
        <time>2026-06-20T12:52:27.000Z</time>
        <extensions>
          <ns3:TrackPointExtension>
            <ns3:atemp>33.0</ns3:atemp>
          </ns3:TrackPointExtension>
        </extensions>
      </trkpt>
      <trkpt lat="42.45216487906873226165771484375" lon="20.20536742173135280609130859375">
        <ele>1016.79998779296875</ele>
        <time>2026-06-20T12:52:28.000Z</time>
        <extensions>
          <ns3:TrackPointExtension>
            <ns3:atemp>33.0</ns3:atemp>
          </ns3:TrackPointExtension>
        </extensions>
      </trkpt>
      <trkpt lat="42.45217342860996723175048828125" lon="20.205402038991451263427734375">
        <ele>1016.4000244140625</ele>
        <time>2026-06-20T12:52:29.000Z</time>
        <extensions>
          <ns3:TrackPointExtension>
            <ns3:atemp>33.0</ns3:atemp>
          </ns3:TrackPointExtension>
        </extensions>
      </trkpt>
      <trkpt lat="42.4521812237799167633056640625" lon="20.205444283783435821533203125">
        <ele>1016</ele>
        <time>2026-06-20T12:52:30.000Z</time>
        <extensions>
          <ns3:TrackPointExtension>
            <ns3:atemp>33.0</ns3:atemp>
          </ns3:TrackPointExtension>
        </extensions>
      </trkpt>
      <trkpt lat="42.45218382216989994049072265625" lon="20.20548359490931034088134765625">
        <ele>1015.5999755859375</ele>
        <time>2026-06-20T12:52:31.000Z</time>
        <extensions>
          <ns3:TrackPointExtension>
            <ns3:atemp>33.0</ns3:atemp>
          </ns3:TrackPointExtension>
        </extensions>
      </trkpt>
      <trkpt lat="42.45217627845704555511474609375" lon="20.2055324614048004150390625">
        <ele>1015.4000244140625</ele>
        <time>2026-06-20T12:52:32.000Z</time>
        <extensions>
          <ns3:TrackPointExtension>
            <ns3:atemp>33.0</ns3:atemp>
          </ns3:TrackPointExtension>
        </extensions>
      </trkpt>
      <trkpt lat="42.45217259041965007781982421875" lon="20.20558250136673450469970703125">
        <ele>1015</ele>
        <time>2026-06-20T12:52:33.000Z</time>
        <extensions>
          <ns3:TrackPointExtension>
            <ns3:atemp>33.0</ns3:atemp>
          </ns3:TrackPointExtension>
        </extensions>
      </trkpt>
      <trkpt lat="42.452174015343189239501953125" lon="20.20563648082315921783447265625">
        <ele>1014.5999755859375</ele>
        <time>2026-06-20T12:52:34.000Z</time>
        <extensions>
          <ns3:TrackPointExtension>
            <ns3:atemp>33.0</ns3:atemp>
          </ns3:TrackPointExtension>
        </extensions>
      </trkpt>
      <trkpt lat="42.45217678137123584747314453125" lon="20.205701775848865509033203125">
        <ele>1014.20001220703125</ele>
        <time>2026-06-20T12:52:35.000Z</time>
        <extensions>
          <ns3:TrackPointExtension>
            <ns3:atemp>33.0</ns3:atemp>
          </ns3:TrackPointExtension>
        </extensions>
      </trkpt>
      <trkpt lat="42.45219639502465724945068359375" lon="20.20576782524585723876953125">
        <ele>1013.5999755859375</ele>
        <time>2026-06-20T12:52:36.000Z</time>
        <extensions>
          <ns3:TrackPointExtension>
            <ns3:atemp>33.0</ns3:atemp>
          </ns3:TrackPointExtension>
        </extensions>
      </trkpt>
      <trkpt lat="42.45222254656255245208740234375" lon="20.20581769756972789764404296875">
        <ele>1013.20001220703125</ele>
        <time>2026-06-20T12:52:37.000Z</time>
        <extensions>
          <ns3:TrackPointExtension>
            <ns3:atemp>33.0</ns3:atemp>
          </ns3:TrackPointExtension>
        </extensions>
      </trkpt>
      <trkpt lat="42.45225674472749233245849609375" lon="20.20586036145687103271484375">
        <ele>1012.5999755859375</ele>
        <time>2026-06-20T12:52:38.000Z</time>
        <extensions>
          <ns3:TrackPointExtension>
            <ns3:atemp>33.0</ns3:atemp>
          </ns3:TrackPointExtension>
        </extensions>
      </trkpt>
      <trkpt lat="42.4522905237972736358642578125" lon="20.20590570755302906036376953125">
        <ele>1012</ele>
        <time>2026-06-20T12:52:39.000Z</time>
        <extensions>
          <ns3:TrackPointExtension>
            <ns3:atemp>33.0</ns3:atemp>
          </ns3:TrackPointExtension>
        </extensions>
      </trkpt>
      <trkpt lat="42.45231382548809051513671875" lon="20.205965302884578704833984375">
        <ele>1011.5999755859375</ele>
        <time>2026-06-20T12:52:40.000Z</time>
        <extensions>
          <ns3:TrackPointExtension>
            <ns3:atemp>33.0</ns3:atemp>
          </ns3:TrackPointExtension>
        </extensions>
      </trkpt>
      <trkpt lat="42.45231810025870800018310546875" lon="20.206029675900936126708984375">
        <ele>1011.4000244140625</ele>
        <time>2026-06-20T12:52:41.000Z</time>
        <extensions>
          <ns3:TrackPointExtension>
            <ns3:atemp>33.0</ns3:atemp>
          </ns3:TrackPointExtension>
        </extensions>
      </trkpt>
      <trkpt lat="42.45230854488909244537353515625" lon="20.20608725957572460174560546875">
        <ele>1010.79998779296875</ele>
        <time>2026-06-20T12:52:42.000Z</time>
        <extensions>
          <ns3:TrackPointExtension>
            <ns3:atemp>33.0</ns3:atemp>
          </ns3:TrackPointExtension>
        </extensions>
      </trkpt>
      <trkpt lat="42.452293373644351959228515625" lon="20.206140317022800445556640625">
        <ele>1010.4000244140625</ele>
        <time>2026-06-20T12:52:43.000Z</time>
        <extensions>
          <ns3:TrackPointExtension>
            <ns3:atemp>33.0</ns3:atemp>
          </ns3:TrackPointExtension>
        </extensions>
      </trkpt>
      <trkpt lat="42.45226965285837650299072265625" lon="20.20617728121578693389892578125">
        <ele>1010.20001220703125</ele>
        <time>2026-06-20T12:52:44.000Z</time>
        <extensions>
          <ns3:TrackPointExtension>
            <ns3:atemp>33.0</ns3:atemp>
          </ns3:TrackPointExtension>
        </extensions>
      </trkpt>
      <trkpt lat="42.45224081911146640777587890625" lon="20.20619027316570281982421875">
        <ele>1009.79998779296875</ele>
        <time>2026-06-20T12:52:45.000Z</time>
        <extensions>
          <ns3:TrackPointExtension>
            <ns3:atemp>33.0</ns3:atemp>
          </ns3:TrackPointExtension>
        </extensions>
      </trkpt>
      <trkpt lat="42.45221500284969806671142578125" lon="20.20621499978005886077880859375">
        <ele>1009.4000244140625</ele>
        <time>2026-06-20T12:52:46.000Z</time>
        <extensions>
          <ns3:TrackPointExtension>
            <ns3:atemp>33.0</ns3:atemp>
          </ns3:TrackPointExtension>
        </extensions>
      </trkpt>
      <trkpt lat="42.4521951377391815185546875" lon="20.20622623153030872344970703125">
        <ele>1009.20001220703125</ele>
        <time>2026-06-20T12:52:47.000Z</time>
        <extensions>
          <ns3:TrackPointExtension>
            <ns3:atemp>33.0</ns3:atemp>
          </ns3:TrackPointExtension>
        </extensions>
      </trkpt>
      <trkpt lat="42.452172674238681793212890625" lon="20.20623696036636829376220703125">
        <ele>1008.79998779296875</ele>
        <time>2026-06-20T12:52:48.000Z</time>
        <extensions>
          <ns3:TrackPointExtension>
            <ns3:atemp>33.0</ns3:atemp>
          </ns3:TrackPointExtension>
        </extensions>
      </trkpt>
      <trkpt lat="42.45214610360562801361083984375" lon="20.20624953322112560272216796875">
        <ele>1008.5999755859375</ele>
        <time>2026-06-20T12:52:49.000Z</time>
        <extensions>
          <ns3:TrackPointExtension>
            <ns3:atemp>32.0</ns3:atemp>
          </ns3:TrackPointExtension>
        </extensions>
      </trkpt>
      <trkpt lat="42.45212204754352569580078125" lon="20.2062714099884033203125">
        <ele>1008.4000244140625</ele>
        <time>2026-06-20T12:52:50.000Z</time>
        <extensions>
          <ns3:TrackPointExtension>
            <ns3:atemp>32.0</ns3:atemp>
          </ns3:TrackPointExtension>
        </extensions>
      </trkpt>
      <trkpt lat="42.45210352353751659393310546875" lon="20.2063104696571826934814453125">
        <ele>1008</ele>
        <time>2026-06-20T12:52:51.000Z</time>
        <extensions>
          <ns3:TrackPointExtension>
            <ns3:atemp>32.0</ns3:atemp>
          </ns3:TrackPointExtension>
        </extensions>
      </trkpt>
      <trkpt lat="42.45207988657057285308837890625" lon="20.20635799504816532135009765625">
        <ele>1007.5999755859375</ele>
        <time>2026-06-20T12:52:52.000Z</time>
        <extensions>
          <ns3:TrackPointExtension>
            <ns3:atemp>32.0</ns3:atemp>
          </ns3:TrackPointExtension>
        </extensions>
      </trkpt>
      <trkpt lat="42.4520581774413585662841796875" lon="20.2064144052565097808837890625">
        <ele>1007</ele>
        <time>2026-06-20T12:52:53.000Z</time>
        <extensions>
          <ns3:TrackPointExtension>
            <ns3:atemp>32.0</ns3:atemp>
          </ns3:TrackPointExtension>
        </extensions>
      </trkpt>
      <trkpt lat="42.45202238671481609344482421875" lon="20.20647282712161540985107421875">
        <ele>1006.5999755859375</ele>
        <time>2026-06-20T12:52:54.000Z</time>
        <extensions>
          <ns3:TrackPointExtension>
            <ns3:atemp>32.0</ns3:atemp>
          </ns3:TrackPointExtension>
        </extensions>
      </trkpt>
      <trkpt lat="42.451978214085102081298828125" lon="20.20652689039707183837890625">
        <ele>1006.20001220703125</ele>
        <time>2026-06-20T12:52:55.000Z</time>
        <extensions>
          <ns3:TrackPointExtension>
            <ns3:atemp>32.0</ns3:atemp>
          </ns3:TrackPointExtension>
        </extensions>
      </trkpt>
      <trkpt lat="42.451940663158893585205078125" lon="20.2065733261406421661376953125">
        <ele>1005.5999755859375</ele>
        <time>2026-06-20T12:52:56.000Z</time>
        <extensions>
          <ns3:TrackPointExtension>
            <ns3:atemp>32.0</ns3:atemp>
          </ns3:TrackPointExtension>
        </extensions>
      </trkpt>
      <trkpt lat="42.451921217143535614013671875" lon="20.20661213435232639312744140625">
        <ele>1004.5999755859375</ele>
        <time>2026-06-20T12:52:57.000Z</time>
        <extensions>
          <ns3:TrackPointExtension>
            <ns3:atemp>32.0</ns3:atemp>
          </ns3:TrackPointExtension>
        </extensions>
      </trkpt>
      <trkpt lat="42.4518942274153232574462890625" lon="20.20664532668888568878173828125">
        <ele>1003.79998779296875</ele>
        <time>2026-06-20T12:52:58.000Z</time>
        <extensions>
          <ns3:TrackPointExtension>
            <ns3:atemp>32.0</ns3:atemp>
          </ns3:TrackPointExtension>
        </extensions>
      </trkpt>
      <trkpt lat="42.45187218300998210906982421875" lon="20.2066843025386333465576171875">
        <ele>1003.20001220703125</ele>
        <time>2026-06-20T12:52:59.000Z</time>
        <extensions>
          <ns3:TrackPointExtension>
            <ns3:atemp>32.0</ns3:atemp>
          </ns3:TrackPointExtension>
        </extensions>
      </trkpt>
      <trkpt lat="42.45186564512550830841064453125" lon="20.2067262120544910430908203125">
        <ele>1002.79998779296875</ele>
        <time>2026-06-20T12:53:00.000Z</time>
        <extensions>
          <ns3:TrackPointExtension>
            <ns3:atemp>32.0</ns3:atemp>
          </ns3:TrackPointExtension>
        </extensions>
      </trkpt>
      <trkpt lat="42.45187704451382160186767578125" lon="20.2067543752491474151611328125">
        <ele>1002.20001220703125</ele>
        <time>2026-06-20T12:53:01.000Z</time>
        <extensions>
          <ns3:TrackPointExtension>
            <ns3:atemp>32.0</ns3:atemp>
          </ns3:TrackPointExtension>
        </extensions>
      </trkpt>
      <trkpt lat="42.45190151967108249664306640625" lon="20.206759236752986907958984375">
        <ele>1001.79998779296875</ele>
        <time>2026-06-20T12:53:02.000Z</time>
        <extensions>
          <ns3:TrackPointExtension>
            <ns3:atemp>32.0</ns3:atemp>
          </ns3:TrackPointExtension>
        </extensions>
      </trkpt>
      <trkpt lat="42.45192733593285083770751953125" lon="20.20677055232226848602294921875">
        <ele>1001.4000244140625</ele>
        <time>2026-06-20T12:53:03.000Z</time>
        <extensions>
          <ns3:TrackPointExtension>
            <ns3:atemp>32.0</ns3:atemp>
          </ns3:TrackPointExtension>
        </extensions>
      </trkpt>
      <trkpt lat="42.45195834897458553314208984375" lon="20.2067671157419681549072265625">
        <ele>1000.79998779296875</ele>
        <time>2026-06-20T12:53:04.000Z</time>
        <extensions>
          <ns3:TrackPointExtension>
            <ns3:atemp>32.0</ns3:atemp>
          </ns3:TrackPointExtension>
        </extensions>
      </trkpt>
      <trkpt lat="42.45198450051248073577880859375" lon="20.20674909465014934539794921875">
        <ele>1000</ele>
        <time>2026-06-20T12:53:05.000Z</time>
        <extensions>
          <ns3:TrackPointExtension>
            <ns3:atemp>32.0</ns3:atemp>
          </ns3:TrackPointExtension>
        </extensions>
      </trkpt>
      <trkpt lat="42.45200268924236297607421875" lon="20.20673383958637714385986328125">
        <ele>999.4000244140625</ele>
        <time>2026-06-20T12:53:06.000Z</time>
        <extensions>
          <ns3:TrackPointExtension>
            <ns3:atemp>32.0</ns3:atemp>
          </ns3:TrackPointExtension>
        </extensions>
      </trkpt>
      <trkpt lat="42.45201970450580120086669921875" lon="20.20672193728387355804443359375">
        <ele>999</ele>
        <time>2026-06-20T12:53:07.000Z</time>
        <extensions>
          <ns3:TrackPointExtension>
            <ns3:atemp>32.0</ns3:atemp>
          </ns3:TrackPointExtension>
        </extensions>
      </trkpt>
      <trkpt lat="42.45203563012182712554931640625" lon="20.20671271719038486480712890625">
        <ele>998.79998779296875</ele>
        <time>2026-06-20T12:53:08.000Z</time>
        <extensions>
          <ns3:TrackPointExtension>
            <ns3:atemp>32.0</ns3:atemp>
          </ns3:TrackPointExtension>
        </extensions>
      </trkpt>
      <trkpt lat="42.45205038227140903472900390625" lon="20.2067007310688495635986328125">
        <ele>998.79998779296875</ele>
        <time>2026-06-20T12:53:09.000Z</time>
        <extensions>
          <ns3:TrackPointExtension>
            <ns3:atemp>32.0</ns3:atemp>
          </ns3:TrackPointExtension>
        </extensions>
      </trkpt>
      <trkpt lat="42.45206438004970550537109375" lon="20.20668840967118740081787109375">
        <ele>998.79998779296875</ele>
        <time>2026-06-20T12:53:10.000Z</time>
        <extensions>
          <ns3:TrackPointExtension>
            <ns3:atemp>32.0</ns3:atemp>
          </ns3:TrackPointExtension>
        </extensions>
      </trkpt>
      <trkpt lat="42.45207770727574825286865234375" lon="20.20667298696935176849365234375">
        <ele>998.79998779296875</ele>
        <time>2026-06-20T12:53:11.000Z</time>
        <extensions>
          <ns3:TrackPointExtension>
            <ns3:atemp>32.0</ns3:atemp>
          </ns3:TrackPointExtension>
        </extensions>
      </trkpt>
      <trkpt lat="42.45209262706339359283447265625" lon="20.206662006676197052001953125">
        <ele>998.79998779296875</ele>
        <time>2026-06-20T12:53:12.000Z</time>
        <extensions>
          <ns3:TrackPointExtension>
            <ns3:atemp>32.0</ns3:atemp>
          </ns3:TrackPointExtension>
        </extensions>
      </trkpt>
      <trkpt lat="42.452108971774578094482421875" lon="20.206650607287883758544921875">
        <ele>998.79998779296875</ele>
        <time>2026-06-20T12:53:13.000Z</time>
        <extensions>
          <ns3:TrackPointExtension>
            <ns3:atemp>32.0</ns3:atemp>
          </ns3:TrackPointExtension>
        </extensions>
      </trkpt>
      <trkpt lat="42.45211760513484477996826171875" lon="20.2066490985453128814697265625">
        <ele>998.79998779296875</ele>
        <time>2026-06-20T12:53:14.000Z</time>
        <extensions>
          <ns3:TrackPointExtension>
            <ns3:atemp>32.0</ns3:atemp>
          </ns3:TrackPointExtension>
        </extensions>
      </trkpt>
      <trkpt lat="42.4521279148757457733154296875" lon="20.2066403813660144805908203125">
        <ele>998.79998779296875</ele>
        <time>2026-06-20T12:53:15.000Z</time>
        <extensions>
          <ns3:TrackPointExtension>
            <ns3:atemp>32.0</ns3:atemp>
          </ns3:TrackPointExtension>
        </extensions>
      </trkpt>
      <trkpt lat="42.4521416611969470977783203125" lon="20.20662671886384487152099609375">
        <ele>998.79998779296875</ele>
        <time>2026-06-20T12:53:16.000Z</time>
        <extensions>
          <ns3:TrackPointExtension>
            <ns3:atemp>32.0</ns3:atemp>
          </ns3:TrackPointExtension>
        </extensions>
      </trkpt>
      <trkpt lat="42.45215817354619503021240234375" lon="20.20663007162511348724365234375">
        <ele>998.79998779296875</ele>
        <time>2026-06-20T12:53:17.000Z</time>
        <extensions>
          <ns3:TrackPointExtension>
            <ns3:atemp>32.0</ns3:atemp>
          </ns3:TrackPointExtension>
        </extensions>
      </trkpt>
      <trkpt lat="42.45217225514352321624755859375" lon="20.2066313289105892181396484375">
        <ele>999</ele>
        <time>2026-06-20T12:53:18.000Z</time>
        <extensions>
          <ns3:TrackPointExtension>
            <ns3:atemp>32.0</ns3:atemp>
          </ns3:TrackPointExtension>
        </extensions>
      </trkpt>
      <trkpt lat="42.452184073626995086669921875" lon="20.20664356648921966552734375">
        <ele>999</ele>
        <time>2026-06-20T12:53:19.000Z</time>
        <extensions>
          <ns3:TrackPointExtension>
            <ns3:atemp>32.0</ns3:atemp>
          </ns3:TrackPointExtension>
        </extensions>
      </trkpt>
      <trkpt lat="42.4521966464817523956298828125" lon="20.206660330295562744140625">
        <ele>999</ele>
        <time>2026-06-20T12:53:20.000Z</time>
        <extensions>
          <ns3:TrackPointExtension>
            <ns3:atemp>32.0</ns3:atemp>
          </ns3:TrackPointExtension>
        </extensions>
      </trkpt>
      <trkpt lat="42.45221299119293689727783203125" lon="20.206672735512256622314453125">
        <ele>999.20001220703125</ele>
        <time>2026-06-20T12:53:21.000Z</time>
        <extensions>
          <ns3:TrackPointExtension>
            <ns3:atemp>32.0</ns3:atemp>
          </ns3:TrackPointExtension>
        </extensions>
      </trkpt>
      <trkpt lat="42.4522281624376773834228515625" lon="20.20667717792093753814697265625">
        <ele>999.4000244140625</ele>
        <time>2026-06-20T12:53:22.000Z</time>
        <extensions>
          <ns3:TrackPointExtension>
            <ns3:atemp>32.0</ns3:atemp>
          </ns3:TrackPointExtension>
        </extensions>
      </trkpt>
      <trkpt lat="42.45224542915821075439453125" lon="20.206678099930286407470703125">
        <ele>999.5999755859375</ele>
        <time>2026-06-20T12:53:23.000Z</time>
        <extensions>
          <ns3:TrackPointExtension>
            <ns3:atemp>32.0</ns3:atemp>
          </ns3:TrackPointExtension>
        </extensions>
      </trkpt>
      <trkpt lat="42.4522647075355052947998046875" lon="20.20667499862611293792724609375">
        <ele>1000.20001220703125</ele>
        <time>2026-06-20T12:53:24.000Z</time>
        <extensions>
          <ns3:TrackPointExtension>
            <ns3:atemp>32.0</ns3:atemp>
          </ns3:TrackPointExtension>
        </extensions>
      </trkpt>
      <trkpt lat="42.45227552019059658050537109375" lon="20.2066672034561634063720703125">
        <ele>1000.4000244140625</ele>
        <time>2026-06-20T12:53:25.000Z</time>
        <extensions>
          <ns3:TrackPointExtension>
            <ns3:atemp>32.0</ns3:atemp>
          </ns3:TrackPointExtension>
        </extensions>
      </trkpt>
      <trkpt lat="42.45228507556021213531494140625" lon="20.2066581510007381439208984375">
        <ele>1000.79998779296875</ele>
        <time>2026-06-20T12:53:26.000Z</time>
        <extensions>
          <ns3:TrackPointExtension>
            <ns3:atemp>32.0</ns3:atemp>
          </ns3:TrackPointExtension>
        </extensions>
      </trkpt>
      <trkpt lat="42.4523049406707286834716796875" lon="20.20664717070758342742919921875">
        <ele>1001.20001220703125</ele>
        <time>2026-06-20T12:53:27.000Z</time>
        <extensions>
          <ns3:TrackPointExtension>
            <ns3:atemp>32.0</ns3:atemp>
          </ns3:TrackPointExtension>
        </extensions>
      </trkpt>
      <trkpt lat="42.45232614688575267791748046875" lon="20.2066330052912235260009765625">
        <ele>1001.5999755859375</ele>
        <time>2026-06-20T12:53:28.000Z</time>
        <extensions>
          <ns3:TrackPointExtension>
            <ns3:atemp>32.0</ns3:atemp>
          </ns3:TrackPointExtension>
        </extensions>
      </trkpt>
      <trkpt lat="42.452342994511127471923828125" lon="20.20662236027419567108154296875">
        <ele>1001.79998779296875</ele>
        <time>2026-06-20T12:53:29.000Z</time>
        <extensions>
          <ns3:TrackPointExtension>
            <ns3:atemp>32.0</ns3:atemp>
          </ns3:TrackPointExtension>
        </extensions>
      </trkpt>
      <trkpt lat="42.4523575790226459503173828125" lon="20.20661397837102413177490234375">
        <ele>1002.20001220703125</ele>
        <time>2026-06-20T12:53:30.000Z</time>
        <extensions>
          <ns3:TrackPointExtension>
            <ns3:atemp>32.0</ns3:atemp>
          </ns3:TrackPointExtension>
        </extensions>
      </trkpt>
      <trkpt lat="42.4523716606199741363525390625" lon="20.20660467445850372314453125">
        <ele>1002.5999755859375</ele>
        <time>2026-06-20T12:53:31.000Z</time>
        <extensions>
          <ns3:TrackPointExtension>
            <ns3:atemp>32.0</ns3:atemp>
          </ns3:TrackPointExtension>
        </extensions>
      </trkpt>
      <trkpt lat="42.45238549076020717620849609375" lon="20.2065892517566680908203125">
        <ele>1002.79998779296875</ele>
        <time>2026-06-20T12:53:32.000Z</time>
        <extensions>
          <ns3:TrackPointExtension>
            <ns3:atemp>32.0</ns3:atemp>
          </ns3:TrackPointExtension>
        </extensions>
      </trkpt>
      <trkpt lat="42.45240007527172565460205078125" lon="20.20657508634030818939208984375">
        <ele>1003</ele>
        <time>2026-06-20T12:53:33.000Z</time>
        <extensions>
          <ns3:TrackPointExtension>
            <ns3:atemp>32.0</ns3:atemp>
          </ns3:TrackPointExtension>
        </extensions>
      </trkpt>
      <trkpt lat="42.45241717435419559478759765625" lon="20.20655580796301364898681640625">
        <ele>1003.4000244140625</ele>
        <time>2026-06-20T12:53:34.000Z</time>
        <extensions>
          <ns3:TrackPointExtension>
            <ns3:atemp>32.0</ns3:atemp>
          </ns3:TrackPointExtension>
        </extensions>
      </trkpt>
      <trkpt lat="42.45243611745536327362060546875" lon="20.20653870888054370880126953125">
        <ele>1003.5999755859375</ele>
        <time>2026-06-20T12:53:35.000Z</time>
        <extensions>
          <ns3:TrackPointExtension>
            <ns3:atemp>32.0</ns3:atemp>
          </ns3:TrackPointExtension>
        </extensions>
      </trkpt>
      <trkpt lat="42.45245640166103839874267578125" lon="20.20653451792895793914794921875">
        <ele>1003.79998779296875</ele>
        <time>2026-06-20T12:53:36.000Z</time>
        <extensions>
          <ns3:TrackPointExtension>
            <ns3:atemp>32.0</ns3:atemp>
          </ns3:TrackPointExtension>
        </extensions>
      </trkpt>
      <trkpt lat="42.45247484184801578521728515625" lon="20.20653502084314823150634765625">
        <ele>1004</ele>
        <time>2026-06-20T12:53:37.000Z</time>
        <extensions>
          <ns3:TrackPointExtension>
            <ns3:atemp>32.0</ns3:atemp>
          </ns3:TrackPointExtension>
        </extensions>
      </trkpt>
      <trkpt lat="42.45249219238758087158203125" lon="20.20654004998505115509033203125">
        <ele>1004.20001220703125</ele>
        <time>2026-06-20T12:53:38.000Z</time>
        <extensions>
          <ns3:TrackPointExtension>
            <ns3:atemp>32.0</ns3:atemp>
          </ns3:TrackPointExtension>
        </extensions>
      </trkpt>
      <trkpt lat="42.45250652544200420379638671875" lon="20.206547677516937255859375">
        <ele>1004.4000244140625</ele>
        <time>2026-06-20T12:53:39.000Z</time>
        <extensions>
          <ns3:TrackPointExtension>
            <ns3:atemp>32.0</ns3:atemp>
          </ns3:TrackPointExtension>
        </extensions>
      </trkpt>
      <trkpt lat="42.4525175057351589202880859375" lon="20.206558406352996826171875">
        <ele>1004.79998779296875</ele>
        <time>2026-06-20T12:53:40.000Z</time>
        <extensions>
          <ns3:TrackPointExtension>
            <ns3:atemp>32.0</ns3:atemp>
          </ns3:TrackPointExtension>
        </extensions>
      </trkpt>
      <trkpt lat="42.45252965949475765228271484375" lon="20.20657458342611789703369140625">
        <ele>1005</ele>
        <time>2026-06-20T12:53:41.000Z</time>
        <extensions>
          <ns3:TrackPointExtension>
            <ns3:atemp>32.0</ns3:atemp>
          </ns3:TrackPointExtension>
        </extensions>
      </trkpt>
      <trkpt lat="42.45254072360694408416748046875" lon="20.2065964601933956146240234375">
        <ele>1005.4000244140625</ele>
        <time>2026-06-20T12:53:42.000Z</time>
        <extensions>
          <ns3:TrackPointExtension>
            <ns3:atemp>32.0</ns3:atemp>
          </ns3:TrackPointExtension>
        </extensions>
      </trkpt>
      <trkpt lat="42.4525518715381622314453125" lon="20.206620432436466217041015625">
        <ele>1005.79998779296875</ele>
        <time>2026-06-20T12:53:43.000Z</time>
        <extensions>
          <ns3:TrackPointExtension>
            <ns3:atemp>32.0</ns3:atemp>
          </ns3:TrackPointExtension>
        </extensions>
      </trkpt>
      <trkpt lat="42.4525664560496807098388671875" lon="20.2066417224705219268798828125">
        <ele>1006.20001220703125</ele>
        <time>2026-06-20T12:53:44.000Z</time>
        <extensions>
          <ns3:TrackPointExtension>
            <ns3:atemp>32.0</ns3:atemp>
          </ns3:TrackPointExtension>
        </extensions>
      </trkpt>
      <trkpt lat="42.4525751732289791107177734375" lon="20.20666527561843395233154296875">
        <ele>1006.5999755859375</ele>
        <time>2026-06-20T12:53:45.000Z</time>
        <extensions>
          <ns3:TrackPointExtension>
            <ns3:atemp>32.0</ns3:atemp>
          </ns3:TrackPointExtension>
        </extensions>
      </trkpt>
      <trkpt lat="42.45258866809308528900146484375" lon="20.20668514072895050048828125">
        <ele>1007</ele>
        <time>2026-06-20T12:53:46.000Z</time>
        <extensions>
          <ns3:TrackPointExtension>
            <ns3:atemp>32.0</ns3:atemp>
          </ns3:TrackPointExtension>
        </extensions>
      </trkpt>
      <trkpt lat="42.45260174386203289031982421875" lon="20.20671104080975055694580078125">
        <ele>1007.20001220703125</ele>
        <time>2026-06-20T12:53:47.000Z</time>
        <extensions>
          <ns3:TrackPointExtension>
            <ns3:atemp>32.0</ns3:atemp>
          </ns3:TrackPointExtension>
        </extensions>
      </trkpt>
      <trkpt lat="42.45261230506002902984619140625" lon="20.20672897808253765106201171875">
        <ele>1007.5999755859375</ele>
        <time>2026-06-20T12:53:48.000Z</time>
        <extensions>
          <ns3:TrackPointExtension>
            <ns3:atemp>32.0</ns3:atemp>
          </ns3:TrackPointExtension>
        </extensions>
      </trkpt>
      <trkpt lat="42.45262563228607177734375" lon="20.20674590952694416046142578125">
        <ele>1008</ele>
        <time>2026-06-20T12:53:49.000Z</time>
        <extensions>
          <ns3:TrackPointExtension>
            <ns3:atemp>32.0</ns3:atemp>
          </ns3:TrackPointExtension>
        </extensions>
      </trkpt>
      <trkpt lat="42.45264113880693912506103515625" lon="20.20676518790423870086669921875">
        <ele>1008.4000244140625</ele>
        <time>2026-06-20T12:53:50.000Z</time>
        <extensions>
          <ns3:TrackPointExtension>
            <ns3:atemp>32.0</ns3:atemp>
          </ns3:TrackPointExtension>
        </extensions>
      </trkpt>
      <trkpt lat="42.45265589095652103424072265625" lon="20.20678681321442127227783203125">
        <ele>1008.79998779296875</ele>
        <time>2026-06-20T12:53:51.000Z</time>
        <extensions>
          <ns3:TrackPointExtension>
            <ns3:atemp>32.0</ns3:atemp>
          </ns3:TrackPointExtension>
        </extensions>
      </trkpt>
      <trkpt lat="42.452665865421295166015625" lon="20.20680709742009639739990234375">
        <ele>1009.20001220703125</ele>
        <time>2026-06-20T12:53:52.000Z</time>
        <extensions>
          <ns3:TrackPointExtension>
            <ns3:atemp>32.0</ns3:atemp>
          </ns3:TrackPointExtension>
        </extensions>
      </trkpt>
      <trkpt lat="42.45267852209508419036865234375" lon="20.2068244479596614837646484375">
        <ele>1009.5999755859375</ele>
        <time>2026-06-20T12:53:53.000Z</time>
        <extensions>
          <ns3:TrackPointExtension>
            <ns3:atemp>32.0</ns3:atemp>
          </ns3:TrackPointExtension>
        </extensions>
      </trkpt>
      <trkpt lat="42.45268958620727062225341796875" lon="20.20684280432760715484619140625">
        <ele>1010.20001220703125</ele>
        <time>2026-06-20T12:53:54.000Z</time>
        <extensions>
          <ns3:TrackPointExtension>
            <ns3:atemp>32.0</ns3:atemp>
          </ns3:TrackPointExtension>
        </extensions>
      </trkpt>
      <trkpt lat="42.45269981212913990020751953125" lon="20.206862501800060272216796875">
        <ele>1010.5999755859375</ele>
        <time>2026-06-20T12:53:55.000Z</time>
        <extensions>
          <ns3:TrackPointExtension>
            <ns3:atemp>32.0</ns3:atemp>
          </ns3:TrackPointExtension>
        </extensions>
      </trkpt>
      <trkpt lat="42.45271339081227779388427734375" lon="20.20687884651124477386474609375">
        <ele>1011.20001220703125</ele>
        <time>2026-06-20T12:53:56.000Z</time>
        <extensions>
          <ns3:TrackPointExtension>
            <ns3:atemp>32.0</ns3:atemp>
          </ns3:TrackPointExtension>
        </extensions>
      </trkpt>
      <trkpt lat="42.452724538743495941162109375" lon="20.206895358860492706298828125">
        <ele>1011.79998779296875</ele>
        <time>2026-06-20T12:53:57.000Z</time>
        <extensions>
          <ns3:TrackPointExtension>
            <ns3:atemp>32.0</ns3:atemp>
          </ns3:TrackPointExtension>
        </extensions>
      </trkpt>
      <trkpt lat="42.45273518376052379608154296875" lon="20.20691120065748691558837890625">
        <ele>1012.20001220703125</ele>
        <time>2026-06-20T12:53:58.000Z</time>
        <extensions>
          <ns3:TrackPointExtension>
            <ns3:atemp>32.0</ns3:atemp>
          </ns3:TrackPointExtension>
        </extensions>
      </trkpt>
      <trkpt lat="42.45274566113948822021484375" lon="20.206923522055149078369140625">
        <ele>1012.79998779296875</ele>
        <time>2026-06-20T12:53:59.000Z</time>
        <extensions>
          <ns3:TrackPointExtension>
            <ns3:atemp>32.0</ns3:atemp>
          </ns3:TrackPointExtension>
        </extensions>
      </trkpt>
      <trkpt lat="42.45275764726102352142333984375" lon="20.2069411240518093109130859375">
        <ele>1013.20001220703125</ele>
        <time>2026-06-20T12:54:00.000Z</time>
        <extensions>
          <ns3:TrackPointExtension>
            <ns3:atemp>32.0</ns3:atemp>
          </ns3:TrackPointExtension>
        </extensions>
      </trkpt>
      <trkpt lat="42.452768124639987945556640625" lon="20.20696283318102359771728515625">
        <ele>1013.5999755859375</ele>
        <time>2026-06-20T12:54:01.000Z</time>
        <extensions>
          <ns3:TrackPointExtension>
            <ns3:atemp>32.0</ns3:atemp>
          </ns3:TrackPointExtension>
        </extensions>
      </trkpt>
      <trkpt lat="42.45278145186603069305419921875" lon="20.20698362030088901519775390625">
        <ele>1014.20001220703125</ele>
        <time>2026-06-20T12:54:02.000Z</time>
        <extensions>
          <ns3:TrackPointExtension>
            <ns3:atemp>32.0</ns3:atemp>
          </ns3:TrackPointExtension>
        </extensions>
      </trkpt>
      <trkpt lat="42.45279662311077117919921875" lon="20.207001306116580963134765625">
        <ele>1014.5999755859375</ele>
        <time>2026-06-20T12:54:03.000Z</time>
        <extensions>
          <ns3:TrackPointExtension>
            <ns3:atemp>32.0</ns3:atemp>
          </ns3:TrackPointExtension>
        </extensions>
      </trkpt>
      <trkpt lat="42.45280894450843334197998046875" lon="20.207022763788700103759765625">
        <ele>1015</ele>
        <time>2026-06-20T12:54:04.000Z</time>
        <extensions>
          <ns3:TrackPointExtension>
            <ns3:atemp>32.0</ns3:atemp>
          </ns3:TrackPointExtension>
        </extensions>
      </trkpt>
      <trkpt lat="42.452820427715778350830078125" lon="20.20704053342342376708984375">
        <ele>1015.4000244140625</ele>
        <time>2026-06-20T12:54:05.000Z</time>
        <extensions>
          <ns3:TrackPointExtension>
            <ns3:atemp>32.0</ns3:atemp>
          </ns3:TrackPointExtension>
        </extensions>
      </trkpt>
      <trkpt lat="42.45283140800893306732177734375" lon="20.207057632505893707275390625">
        <ele>1015.79998779296875</ele>
        <time>2026-06-20T12:54:06.000Z</time>
        <extensions>
          <ns3:TrackPointExtension>
            <ns3:atemp>32.0</ns3:atemp>
          </ns3:TrackPointExtension>
        </extensions>
      </trkpt>
      <trkpt lat="42.45284347794950008392333984375" lon="20.20707607269287109375">
        <ele>1016.4000244140625</ele>
        <time>2026-06-20T12:54:07.000Z</time>
        <extensions>
          <ns3:TrackPointExtension>
            <ns3:atemp>32.0</ns3:atemp>
          </ns3:TrackPointExtension>
        </extensions>
      </trkpt>
      <trkpt lat="42.45285320095717906951904296875" lon="20.20709761418402194976806640625">
        <ele>1016.79998779296875</ele>
        <time>2026-06-20T12:54:08.000Z</time>
        <extensions>
          <ns3:TrackPointExtension>
            <ns3:atemp>32.0</ns3:atemp>
          </ns3:TrackPointExtension>
        </extensions>
      </trkpt>
      <trkpt lat="42.4528698809444904327392578125" lon="20.20711370743811130523681640625">
        <ele>1017.20001220703125</ele>
        <time>2026-06-20T12:54:09.000Z</time>
        <extensions>
          <ns3:TrackPointExtension>
            <ns3:atemp>32.0</ns3:atemp>
          </ns3:TrackPointExtension>
        </extensions>
      </trkpt>
      <trkpt lat="42.45288471691310405731201171875" lon="20.20712778903543949127197265625">
        <ele>1017.5999755859375</ele>
        <time>2026-06-20T12:54:10.000Z</time>
        <extensions>
          <ns3:TrackPointExtension>
            <ns3:atemp>32.0</ns3:atemp>
          </ns3:TrackPointExtension>
        </extensions>
      </trkpt>
      <trkpt lat="42.4529007263481616973876953125" lon="20.2071409486234188079833984375">
        <ele>1018</ele>
        <time>2026-06-20T12:54:11.000Z</time>
        <extensions>
          <ns3:TrackPointExtension>
            <ns3:atemp>32.0</ns3:atemp>
          </ns3:TrackPointExtension>
        </extensions>
      </trkpt>
      <trkpt lat="42.45291589759290218353271484375" lon="20.2071503363549709320068359375">
        <ele>1018.5999755859375</ele>
        <time>2026-06-20T12:54:12.000Z</time>
        <extensions>
          <ns3:TrackPointExtension>
            <ns3:atemp>32.0</ns3:atemp>
          </ns3:TrackPointExtension>
        </extensions>
      </trkpt>
      <trkpt lat="42.45293014682829380035400390625" lon="20.207164920866489410400390625">
        <ele>1019</ele>
        <time>2026-06-20T12:54:13.000Z</time>
        <extensions>
          <ns3:TrackPointExtension>
            <ns3:atemp>32.0</ns3:atemp>
          </ns3:TrackPointExtension>
        </extensions>
      </trkpt>
      <trkpt lat="42.452939450740814208984375" lon="20.20717908628284931182861328125">
        <ele>1019.4000244140625</ele>
        <time>2026-06-20T12:54:14.000Z</time>
        <extensions>
          <ns3:TrackPointExtension>
            <ns3:atemp>32.0</ns3:atemp>
          </ns3:TrackPointExtension>
        </extensions>
      </trkpt>
      <trkpt lat="42.452947832643985748291015625" lon="20.20720507018268108367919921875">
        <ele>1019.79998779296875</ele>
        <time>2026-06-20T12:54:15.000Z</time>
        <extensions>
          <ns3:TrackPointExtension>
            <ns3:atemp>32.0</ns3:atemp>
          </ns3:TrackPointExtension>
        </extensions>
      </trkpt>
      <trkpt lat="42.45295730419456958770751953125" lon="20.207226276397705078125">
        <ele>1020.20001220703125</ele>
        <time>2026-06-20T12:54:16.000Z</time>
        <extensions>
          <ns3:TrackPointExtension>
            <ns3:atemp>32.0</ns3:atemp>
          </ns3:TrackPointExtension>
        </extensions>
      </trkpt>
      <trkpt lat="42.4529654346406459808349609375" lon="20.207244716584682464599609375">
        <ele>1020.5999755859375</ele>
        <time>2026-06-20T12:54:17.000Z</time>
        <extensions>
          <ns3:TrackPointExtension>
            <ns3:atemp>32.0</ns3:atemp>
          </ns3:TrackPointExtension>
        </extensions>
      </trkpt>
      <trkpt lat="42.45296836830675601959228515625" lon="20.2072740532457828521728515625">
        <ele>1020.79998779296875</ele>
        <time>2026-06-20T12:54:18.000Z</time>
        <extensions>
          <ns3:TrackPointExtension>
            <ns3:atemp>32.0</ns3:atemp>
          </ns3:TrackPointExtension>
        </extensions>
      </trkpt>
      <trkpt lat="42.45297037996351718902587890625" lon="20.20730112679302692413330078125">
        <ele>1021.20001220703125</ele>
        <time>2026-06-20T12:54:19.000Z</time>
        <extensions>
          <ns3:TrackPointExtension>
            <ns3:atemp>32.0</ns3:atemp>
          </ns3:TrackPointExtension>
        </extensions>
      </trkpt>
      <trkpt lat="42.45297859422862529754638671875" lon="20.207328535616397857666015625">
        <ele>1021.5999755859375</ele>
        <time>2026-06-20T12:54:20.000Z</time>
        <extensions>
          <ns3:TrackPointExtension>
            <ns3:atemp>32.0</ns3:atemp>
          </ns3:TrackPointExtension>
        </extensions>
      </trkpt>
      <trkpt lat="42.4529882334172725677490234375" lon="20.20735292695462703704833984375">
        <ele>1022.20001220703125</ele>
        <time>2026-06-20T12:54:21.000Z</time>
        <extensions>
          <ns3:TrackPointExtension>
            <ns3:atemp>32.0</ns3:atemp>
          </ns3:TrackPointExtension>
        </extensions>
      </trkpt>
      <trkpt lat="42.45299418456852436065673828125" lon="20.20738276652991771697998046875">
        <ele>1022.4000244140625</ele>
        <time>2026-06-20T12:54:22.000Z</time>
        <extensions>
          <ns3:TrackPointExtension>
            <ns3:atemp>32.0</ns3:atemp>
          </ns3:TrackPointExtension>
        </extensions>
      </trkpt>
      <trkpt lat="42.45300407521426677703857421875" lon="20.2074145339429378509521484375">
        <ele>1022.79998779296875</ele>
        <time>2026-06-20T12:54:23.000Z</time>
        <extensions>
          <ns3:TrackPointExtension>
            <ns3:atemp>32.0</ns3:atemp>
          </ns3:TrackPointExtension>
        </extensions>
      </trkpt>
      <trkpt lat="42.4530167318880558013916015625" lon="20.207442529499530792236328125">
        <ele>1023.20001220703125</ele>
        <time>2026-06-20T12:54:24.000Z</time>
        <extensions>
          <ns3:TrackPointExtension>
            <ns3:atemp>32.0</ns3:atemp>
          </ns3:TrackPointExtension>
        </extensions>
      </trkpt>
      <trkpt lat="42.45303072966635227203369140625" lon="20.20747664384543895721435546875">
        <ele>1023.5999755859375</ele>
        <time>2026-06-20T12:54:25.000Z</time>
        <extensions>
          <ns3:TrackPointExtension>
            <ns3:atemp>32.0</ns3:atemp>
          </ns3:TrackPointExtension>
        </extensions>
      </trkpt>
      <trkpt lat="42.45304849930107593536376953125" lon="20.20750279538333415985107421875">
        <ele>1024</ele>
        <time>2026-06-20T12:54:26.000Z</time>
        <extensions>
          <ns3:TrackPointExtension>
            <ns3:atemp>32.0</ns3:atemp>
          </ns3:TrackPointExtension>
        </extensions>
      </trkpt>
      <trkpt lat="42.45307029224932193756103515625" lon="20.20752341486513614654541015625">
        <ele>1024.199951171875</ele>
        <time>2026-06-20T12:54:27.000Z</time>
        <extensions>
          <ns3:TrackPointExtension>
            <ns3:atemp>32.0</ns3:atemp>
          </ns3:TrackPointExtension>
        </extensions>
      </trkpt>
      <trkpt lat="42.45309124700725078582763671875" lon="20.2075422741472721099853515625">
        <ele>1024.4000244140625</ele>
        <time>2026-06-20T12:54:28.000Z</time>
        <extensions>
          <ns3:TrackPointExtension>
            <ns3:atemp>32.0</ns3:atemp>
          </ns3:TrackPointExtension>
        </extensions>
      </trkpt>
      <trkpt lat="42.453108765184879302978515625" lon="20.20755895413458347320556640625">
        <ele>1024.4000244140625</ele>
        <time>2026-06-20T12:54:29.000Z</time>
        <extensions>
          <ns3:TrackPointExtension>
            <ns3:atemp>32.0</ns3:atemp>
          </ns3:TrackPointExtension>
        </extensions>
      </trkpt>
      <trkpt lat="42.45312779210507869720458984375" lon="20.20757974125444889068603515625">
        <ele>1024.5999755859375</ele>
        <time>2026-06-20T12:54:30.000Z</time>
        <extensions>
          <ns3:TrackPointExtension>
            <ns3:atemp>32.0</ns3:atemp>
          </ns3:TrackPointExtension>
        </extensions>
      </trkpt>
      <trkpt lat="42.45315109379589557647705078125" lon="20.2075959183275699615478515625">
        <ele>1024.800048828125</ele>
        <time>2026-06-20T12:54:31.000Z</time>
        <extensions>
          <ns3:TrackPointExtension>
            <ns3:atemp>32.0</ns3:atemp>
          </ns3:TrackPointExtension>
        </extensions>
      </trkpt>
      <trkpt lat="42.4531726352870464324951171875" lon="20.20761050283908843994140625">
        <ele>1025</ele>
        <time>2026-06-20T12:54:32.000Z</time>
        <extensions>
          <ns3:TrackPointExtension>
            <ns3:atemp>32.0</ns3:atemp>
          </ns3:TrackPointExtension>
        </extensions>
      </trkpt>
      <trkpt lat="42.453198619186878204345703125" lon="20.20762248896062374114990234375">
        <ele>1025.199951171875</ele>
        <time>2026-06-20T12:54:33.000Z</time>
        <extensions>
          <ns3:TrackPointExtension>
            <ns3:atemp>32.0</ns3:atemp>
          </ns3:TrackPointExtension>
        </extensions>
      </trkpt>
      <trkpt lat="42.45322150178253650665283203125" lon="20.2076388336718082427978515625">
        <ele>1025.5999755859375</ele>
        <time>2026-06-20T12:54:34.000Z</time>
        <extensions>
          <ns3:TrackPointExtension>
            <ns3:atemp>32.0</ns3:atemp>
          </ns3:TrackPointExtension>
        </extensions>
      </trkpt>
      <trkpt lat="42.45324010960757732391357421875" lon="20.207654424011707305908203125">
        <ele>1026</ele>
        <time>2026-06-20T12:54:35.000Z</time>
        <extensions>
          <ns3:TrackPointExtension>
            <ns3:atemp>32.0</ns3:atemp>
          </ns3:TrackPointExtension>
        </extensions>
      </trkpt>
      <trkpt lat="42.4532599747180938720703125" lon="20.2076680026948451995849609375">
        <ele>1026.4000244140625</ele>
        <time>2026-06-20T12:54:36.000Z</time>
        <extensions>
          <ns3:TrackPointExtension>
            <ns3:atemp>32.0</ns3:atemp>
          </ns3:TrackPointExtension>
        </extensions>
      </trkpt>
      <trkpt lat="42.45327732525765895843505859375" lon="20.20768585614860057830810546875">
        <ele>1027</ele>
        <time>2026-06-20T12:54:37.000Z</time>
        <extensions>
          <ns3:TrackPointExtension>
            <ns3:atemp>32.0</ns3:atemp>
          </ns3:TrackPointExtension>
        </extensions>
      </trkpt>
      <trkpt lat="42.45329593308269977569580078125" lon="20.20770781673491001129150390625">
        <ele>1027.4000244140625</ele>
        <time>2026-06-20T12:54:38.000Z</time>
        <extensions>
          <ns3:TrackPointExtension>
            <ns3:atemp>32.0</ns3:atemp>
          </ns3:TrackPointExtension>
        </extensions>
      </trkpt>
      <trkpt lat="42.45331537909805774688720703125" lon="20.20773380063474178314208984375">
        <ele>1027.800048828125</ele>
        <time>2026-06-20T12:54:39.000Z</time>
        <extensions>
          <ns3:TrackPointExtension>
            <ns3:atemp>32.0</ns3:atemp>
          </ns3:TrackPointExtension>
        </extensions>
      </trkpt>
      <trkpt lat="42.453333400189876556396484375" lon="20.20776112563908100128173828125">
        <ele>1028.4000244140625</ele>
        <time>2026-06-20T12:54:40.000Z</time>
        <extensions>
          <ns3:TrackPointExtension>
            <ns3:atemp>32.0</ns3:atemp>
          </ns3:TrackPointExtension>
        </extensions>
      </trkpt>
      <trkpt lat="42.45335058309137821197509765625" lon="20.2077830024063587188720703125">
        <ele>1028.800048828125</ele>
        <time>2026-06-20T12:54:41.000Z</time>
        <extensions>
          <ns3:TrackPointExtension>
            <ns3:atemp>32.0</ns3:atemp>
          </ns3:TrackPointExtension>
        </extensions>
      </trkpt>
      <trkpt lat="42.4533654190599918365478515625" lon="20.20781099796295166015625">
        <ele>1029</ele>
        <time>2026-06-20T12:54:42.000Z</time>
        <extensions>
          <ns3:TrackPointExtension>
            <ns3:atemp>32.0</ns3:atemp>
          </ns3:TrackPointExtension>
        </extensions>
      </trkpt>
      <trkpt lat="42.453379333019256591796875" lon="20.20784385502338409423828125">
        <ele>1029.4000244140625</ele>
        <time>2026-06-20T12:54:43.000Z</time>
        <extensions>
          <ns3:TrackPointExtension>
            <ns3:atemp>32.0</ns3:atemp>
          </ns3:TrackPointExtension>
        </extensions>
      </trkpt>
      <trkpt lat="42.45339450426399707794189453125" lon="20.20787595771253108978271484375">
        <ele>1029.800048828125</ele>
        <time>2026-06-20T12:54:44.000Z</time>
        <extensions>
          <ns3:TrackPointExtension>
            <ns3:atemp>32.0</ns3:atemp>
          </ns3:TrackPointExtension>
        </extensions>
      </trkpt>
      <trkpt lat="42.4534096755087375640869140625" lon="20.20790730603039264678955078125">
        <ele>1030.199951171875</ele>
        <time>2026-06-20T12:54:45.000Z</time>
        <extensions>
          <ns3:TrackPointExtension>
            <ns3:atemp>32.0</ns3:atemp>
          </ns3:TrackPointExtension>
        </extensions>
      </trkpt>
      <trkpt lat="42.45342333801090717315673828125" lon="20.20793345756828784942626953125">
        <ele>1030.5999755859375</ele>
        <time>2026-06-20T12:54:46.000Z</time>
        <extensions>
          <ns3:TrackPointExtension>
            <ns3:atemp>32.0</ns3:atemp>
          </ns3:TrackPointExtension>
        </extensions>
      </trkpt>
      <trkpt lat="42.4534351564943790435791015625" lon="20.20796430297195911407470703125">
        <ele>1031</ele>
        <time>2026-06-20T12:54:47.000Z</time>
        <extensions>
          <ns3:TrackPointExtension>
            <ns3:atemp>32.0</ns3:atemp>
          </ns3:TrackPointExtension>
        </extensions>
      </trkpt>
      <trkpt lat="42.45344680733978748321533203125" lon="20.207990370690822601318359375">
        <ele>1031.4000244140625</ele>
        <time>2026-06-20T12:54:48.000Z</time>
        <extensions>
          <ns3:TrackPointExtension>
            <ns3:atemp>32.0</ns3:atemp>
          </ns3:TrackPointExtension>
        </extensions>
      </trkpt>
      <trkpt lat="42.45345912873744964599609375" lon="20.20801895298063755035400390625">
        <ele>1031.5999755859375</ele>
        <time>2026-06-20T12:54:49.000Z</time>
        <extensions>
          <ns3:TrackPointExtension>
            <ns3:atemp>32.0</ns3:atemp>
          </ns3:TrackPointExtension>
        </extensions>
      </trkpt>
      <trkpt lat="42.45346960611641407012939453125" lon="20.20804460160434246063232421875">
        <ele>1031.800048828125</ele>
        <time>2026-06-20T12:54:50.000Z</time>
        <extensions>
          <ns3:TrackPointExtension>
            <ns3:atemp>32.0</ns3:atemp>
          </ns3:TrackPointExtension>
        </extensions>
      </trkpt>
      <trkpt lat="42.4534799158573150634765625" lon="20.2080663107335567474365234375">
        <ele>1032.199951171875</ele>
        <time>2026-06-20T12:54:51.000Z</time>
        <extensions>
          <ns3:TrackPointExtension>
            <ns3:atemp>32.0</ns3:atemp>
          </ns3:TrackPointExtension>
        </extensions>
      </trkpt>
      <trkpt lat="42.45349089615046977996826171875" lon="20.20808684639632701873779296875">
        <ele>1032.4000244140625</ele>
        <time>2026-06-20T12:54:52.000Z</time>
        <extensions>
          <ns3:TrackPointExtension>
            <ns3:atemp>32.0</ns3:atemp>
          </ns3:TrackPointExtension>
        </extensions>
      </trkpt>
      <trkpt lat="42.45350078679621219635009765625" lon="20.20810914225876331329345703125">
        <ele>1032.5999755859375</ele>
        <time>2026-06-20T12:54:53.000Z</time>
        <extensions>
          <ns3:TrackPointExtension>
            <ns3:atemp>32.0</ns3:atemp>
          </ns3:TrackPointExtension>
        </extensions>
      </trkpt>
      <trkpt lat="42.45351319201290607452392578125" lon="20.2081320248544216156005859375">
        <ele>1033</ele>
        <time>2026-06-20T12:54:54.000Z</time>
        <extensions>
          <ns3:TrackPointExtension>
            <ns3:atemp>32.0</ns3:atemp>
          </ns3:TrackPointExtension>
        </extensions>
      </trkpt>
      <trkpt lat="42.45352618396282196044921875" lon="20.20815373398363590240478515625">
        <ele>1033.4000244140625</ele>
        <time>2026-06-20T12:54:55.000Z</time>
        <extensions>
          <ns3:TrackPointExtension>
            <ns3:atemp>32.0</ns3:atemp>
          </ns3:TrackPointExtension>
        </extensions>
      </trkpt>
      <trkpt lat="42.45353481732308864593505859375" lon="20.20817787386476993560791015625">
        <ele>1033.5999755859375</ele>
        <time>2026-06-20T12:54:56.000Z</time>
        <extensions>
          <ns3:TrackPointExtension>
            <ns3:atemp>32.0</ns3:atemp>
          </ns3:TrackPointExtension>
        </extensions>
      </trkpt>
      <trkpt lat="42.4535323865711688995361328125" lon="20.208205282688140869140625">
        <ele>1033.800048828125</ele>
        <time>2026-06-20T12:54:57.000Z</time>
        <extensions>
          <ns3:TrackPointExtension>
            <ns3:atemp>32.0</ns3:atemp>
          </ns3:TrackPointExtension>
        </extensions>
      </trkpt>
      <trkpt lat="42.4535263516008853912353515625" lon="20.20824258215725421905517578125">
        <ele>1034</ele>
        <time>2026-06-20T12:54:58.000Z</time>
        <extensions>
          <ns3:TrackPointExtension>
            <ns3:atemp>32.0</ns3:atemp>
          </ns3:TrackPointExtension>
        </extensions>
      </trkpt>
      <trkpt lat="42.45352291502058506011962890625" lon="20.20829136483371257781982421875">
        <ele>1034</ele>
        <time>2026-06-20T12:54:59.000Z</time>
        <extensions>
          <ns3:TrackPointExtension>
            <ns3:atemp>31.0</ns3:atemp>
          </ns3:TrackPointExtension>
        </extensions>
      </trkpt>
      <trkpt lat="42.4535228312015533447265625" lon="20.2083392255008220672607421875">
        <ele>1034</ele>
        <time>2026-06-20T12:55:00.000Z</time>
        <extensions>
          <ns3:TrackPointExtension>
            <ns3:atemp>31.0</ns3:atemp>
          </ns3:TrackPointExtension>
        </extensions>
      </trkpt>
      <trkpt lat="42.453530542552471160888671875" lon="20.2083841525018215179443359375">
        <ele>1033.800048828125</ele>
        <time>2026-06-20T12:55:01.000Z</time>
        <extensions>
          <ns3:TrackPointExtension>
            <ns3:atemp>31.0</ns3:atemp>
          </ns3:TrackPointExtension>
        </extensions>
      </trkpt>
      <trkpt lat="42.45354236103594303131103515625" lon="20.2084210328757762908935546875">
        <ele>1033.800048828125</ele>
        <time>2026-06-20T12:55:02.000Z</time>
        <extensions>
          <ns3:TrackPointExtension>
            <ns3:atemp>31.0</ns3:atemp>
          </ns3:TrackPointExtension>
        </extensions>
      </trkpt>
      <trkpt lat="42.45355275459587574005126953125" lon="20.208454392850399017333984375">
        <ele>1033.800048828125</ele>
        <time>2026-06-20T12:55:03.000Z</time>
        <extensions>
          <ns3:TrackPointExtension>
            <ns3:atemp>31.0</ns3:atemp>
          </ns3:TrackPointExtension>
        </extensions>
      </trkpt>
      <trkpt lat="42.45355593971908092498779296875" lon="20.208490602672100067138671875">
        <ele>1034</ele>
        <time>2026-06-20T12:55:04.000Z</time>
        <extensions>
          <ns3:TrackPointExtension>
            <ns3:atemp>31.0</ns3:atemp>
          </ns3:TrackPointExtension>
        </extensions>
      </trkpt>
      <trkpt lat="42.45355107821524143218994140625" lon="20.208530165255069732666015625">
        <ele>1034.199951171875</ele>
        <time>2026-06-20T12:55:05.000Z</time>
        <extensions>
          <ns3:TrackPointExtension>
            <ns3:atemp>31.0</ns3:atemp>
          </ns3:TrackPointExtension>
        </extensions>
      </trkpt>
      <trkpt lat="42.45353934355080127716064453125" lon="20.20856712944805622100830078125">
        <ele>1034.199951171875</ele>
        <time>2026-06-20T12:55:06.000Z</time>
        <extensions>
          <ns3:TrackPointExtension>
            <ns3:atemp>31.0</ns3:atemp>
          </ns3:TrackPointExtension>
        </extensions>
      </trkpt>
      <trkpt lat="42.45352559722959995269775390625" lon="20.208607278764247894287109375">
        <ele>1034</ele>
        <time>2026-06-20T12:55:07.000Z</time>
        <extensions>
          <ns3:TrackPointExtension>
            <ns3:atemp>31.0</ns3:atemp>
          </ns3:TrackPointExtension>
        </extensions>
      </trkpt>
      <trkpt lat="42.453511096537113189697265625" lon="20.208650864660739898681640625">
        <ele>1033.800048828125</ele>
        <time>2026-06-20T12:55:08.000Z</time>
        <extensions>
          <ns3:TrackPointExtension>
            <ns3:atemp>31.0</ns3:atemp>
          </ns3:TrackPointExtension>
        </extensions>
      </trkpt>
      <trkpt lat="42.453497350215911865234375" lon="20.2086961269378662109375">
        <ele>1033.800048828125</ele>
        <time>2026-06-20T12:55:09.000Z</time>
        <extensions>
          <ns3:TrackPointExtension>
            <ns3:atemp>31.0</ns3:atemp>
          </ns3:TrackPointExtension>
        </extensions>
      </trkpt>
      <trkpt lat="42.45348519645631313323974609375" lon="20.2087395451962947845458984375">
        <ele>1033.5999755859375</ele>
        <time>2026-06-20T12:55:10.000Z</time>
        <extensions>
          <ns3:TrackPointExtension>
            <ns3:atemp>31.0</ns3:atemp>
          </ns3:TrackPointExtension>
        </extensions>
      </trkpt>
      <trkpt lat="42.45347212068736553192138671875" lon="20.20878539420664310455322265625">
        <ele>1033.5999755859375</ele>
        <time>2026-06-20T12:55:11.000Z</time>
        <extensions>
          <ns3:TrackPointExtension>
            <ns3:atemp>31.0</ns3:atemp>
          </ns3:TrackPointExtension>
        </extensions>
      </trkpt>
      <trkpt lat="42.45345619507133960723876953125" lon="20.20883182995021343231201171875">
        <ele>1033.800048828125</ele>
        <time>2026-06-20T12:55:12.000Z</time>
        <extensions>
          <ns3:TrackPointExtension>
            <ns3:atemp>31.0</ns3:atemp>
          </ns3:TrackPointExtension>
        </extensions>
      </trkpt>
      <trkpt lat="42.4534395150840282440185546875" lon="20.208876170217990875244140625">
        <ele>1033.800048828125</ele>
        <time>2026-06-20T12:55:13.000Z</time>
        <extensions>
          <ns3:TrackPointExtension>
            <ns3:atemp>31.0</ns3:atemp>
          </ns3:TrackPointExtension>
        </extensions>
      </trkpt>
      <trkpt lat="42.45341889560222625732421875" lon="20.20892319269478321075439453125">
        <ele>1034</ele>
        <time>2026-06-20T12:55:14.000Z</time>
        <extensions>
          <ns3:TrackPointExtension>
            <ns3:atemp>31.0</ns3:atemp>
          </ns3:TrackPointExtension>
        </extensions>
      </trkpt>
      <trkpt lat="42.453397102653980255126953125" lon="20.2089708857238292694091796875">
        <ele>1034</ele>
        <time>2026-06-20T12:55:15.000Z</time>
        <extensions>
          <ns3:TrackPointExtension>
            <ns3:atemp>31.0</ns3:atemp>
          </ns3:TrackPointExtension>
        </extensions>
      </trkpt>
      <trkpt lat="42.453381009399890899658203125" lon="20.20902394317090511322021484375">
        <ele>1034.199951171875</ele>
        <time>2026-06-20T12:55:16.000Z</time>
        <extensions>
          <ns3:TrackPointExtension>
            <ns3:atemp>31.0</ns3:atemp>
          </ns3:TrackPointExtension>
        </extensions>
      </trkpt>
      <trkpt lat="42.453370951116085052490234375" lon="20.20907708443701267242431640625">
        <ele>1034.199951171875</ele>
        <time>2026-06-20T12:55:17.000Z</time>
        <extensions>
          <ns3:TrackPointExtension>
            <ns3:atemp>31.0</ns3:atemp>
          </ns3:TrackPointExtension>
        </extensions>
      </trkpt>
      <trkpt lat="42.453362904489040374755859375" lon="20.209131650626659393310546875">
        <ele>1034.4000244140625</ele>
        <time>2026-06-20T12:55:18.000Z</time>
        <extensions>
          <ns3:TrackPointExtension>
            <ns3:atemp>31.0</ns3:atemp>
          </ns3:TrackPointExtension>
        </extensions>
      </trkpt>
      <trkpt lat="42.45335628278553485870361328125" lon="20.2091874741017818450927734375">
        <ele>1034.5999755859375</ele>
        <time>2026-06-20T12:55:19.000Z</time>
        <extensions>
          <ns3:TrackPointExtension>
            <ns3:atemp>31.0</ns3:atemp>
          </ns3:TrackPointExtension>
        </extensions>
      </trkpt>
      <trkpt lat="42.45334773324429988861083984375" lon="20.20924656651914119720458984375">
        <ele>1034.5999755859375</ele>
        <time>2026-06-20T12:55:20.000Z</time>
        <extensions>
          <ns3:TrackPointExtension>
            <ns3:atemp>31.0</ns3:atemp>
          </ns3:TrackPointExtension>
        </extensions>
      </trkpt>
      <trkpt lat="42.45333566330373287200927734375" lon="20.209300629794597625732421875">
        <ele>1034.800048828125</ele>
        <time>2026-06-20T12:55:21.000Z</time>
        <extensions>
          <ns3:TrackPointExtension>
            <ns3:atemp>31.0</ns3:atemp>
          </ns3:TrackPointExtension>
        </extensions>
      </trkpt>
      <trkpt lat="42.45331990532577037811279296875" lon="20.2093519270420074462890625">
        <ele>1035.199951171875</ele>
        <time>2026-06-20T12:55:22.000Z</time>
        <extensions>
          <ns3:TrackPointExtension>
            <ns3:atemp>31.0</ns3:atemp>
          </ns3:TrackPointExtension>
        </extensions>
      </trkpt>
      <trkpt lat="42.45330029167234897613525390625" lon="20.20939777605235576629638671875">
        <ele>1035.199951171875</ele>
        <time>2026-06-20T12:55:23.000Z</time>
        <extensions>
          <ns3:TrackPointExtension>
            <ns3:atemp>31.0</ns3:atemp>
          </ns3:TrackPointExtension>
        </extensions>
      </trkpt>
      <trkpt lat="42.45327615179121494293212890625" lon="20.2094375900924205780029296875">
        <ele>1035.4000244140625</ele>
        <time>2026-06-20T12:55:24.000Z</time>
        <extensions>
          <ns3:TrackPointExtension>
            <ns3:atemp>31.0</ns3:atemp>
          </ns3:TrackPointExtension>
        </extensions>
      </trkpt>
      <trkpt lat="42.45324857532978057861328125" lon="20.20947539247572422027587890625">
        <ele>1035.5999755859375</ele>
        <time>2026-06-20T12:55:25.000Z</time>
        <extensions>
          <ns3:TrackPointExtension>
            <ns3:atemp>31.0</ns3:atemp>
          </ns3:TrackPointExtension>
        </extensions>
      </trkpt>
      <trkpt lat="42.45321772992610931396484375" lon="20.209505818784236907958984375">
        <ele>1035.800048828125</ele>
        <time>2026-06-20T12:55:26.000Z</time>
        <extensions>
          <ns3:TrackPointExtension>
            <ns3:atemp>31.0</ns3:atemp>
          </ns3:TrackPointExtension>
        </extensions>
      </trkpt>
      <trkpt lat="42.45318529196083545684814453125" lon="20.20953088067471981048583984375">
        <ele>1036</ele>
        <time>2026-06-20T12:55:27.000Z</time>
        <extensions>
          <ns3:TrackPointExtension>
            <ns3:atemp>31.0</ns3:atemp>
          </ns3:TrackPointExtension>
        </extensions>
      </trkpt>
      <trkpt lat="42.45315067470073699951171875" lon="20.20955753512680530548095703125">
        <ele>1036.4000244140625</ele>
        <time>2026-06-20T12:55:28.000Z</time>
        <extensions>
          <ns3:TrackPointExtension>
            <ns3:atemp>31.0</ns3:atemp>
          </ns3:TrackPointExtension>
        </extensions>
      </trkpt>
      <trkpt lat="42.45311488397419452667236328125" lon="20.20958553068339824676513671875">
        <ele>1036.5999755859375</ele>
        <time>2026-06-20T12:55:29.000Z</time>
        <extensions>
          <ns3:TrackPointExtension>
            <ns3:atemp>31.0</ns3:atemp>
          </ns3:TrackPointExtension>
        </extensions>
      </trkpt>
      <trkpt lat="42.45307817123830318450927734375" lon="20.20961637608706951141357421875">
        <ele>1036.800048828125</ele>
        <time>2026-06-20T12:55:30.000Z</time>
        <extensions>
          <ns3:TrackPointExtension>
            <ns3:atemp>31.0</ns3:atemp>
          </ns3:TrackPointExtension>
        </extensions>
      </trkpt>
      <trkpt lat="42.4530427157878875732421875" lon="20.209649987518787384033203125">
        <ele>1036.800048828125</ele>
        <time>2026-06-20T12:55:31.000Z</time>
        <extensions>
          <ns3:TrackPointExtension>
            <ns3:atemp>31.0</ns3:atemp>
          </ns3:TrackPointExtension>
        </extensions>
      </trkpt>
      <trkpt lat="42.45300851762294769287109375" lon="20.20968846045434474945068359375">
        <ele>1037</ele>
        <time>2026-06-20T12:55:32.000Z</time>
        <extensions>
          <ns3:TrackPointExtension>
            <ns3:atemp>31.0</ns3:atemp>
          </ns3:TrackPointExtension>
        </extensions>
      </trkpt>
      <trkpt lat="42.45297909714281558990478515625" lon="20.2097353152930736541748046875">
        <ele>1037.199951171875</ele>
        <time>2026-06-20T12:55:33.000Z</time>
        <extensions>
          <ns3:TrackPointExtension>
            <ns3:atemp>31.0</ns3:atemp>
          </ns3:TrackPointExtension>
        </extensions>
      </trkpt>
      <trkpt lat="42.4529543705284595489501953125" lon="20.2097859419882297515869140625">
        <ele>1037.4000244140625</ele>
        <time>2026-06-20T12:55:34.000Z</time>
        <extensions>
          <ns3:TrackPointExtension>
            <ns3:atemp>31.0</ns3:atemp>
          </ns3:TrackPointExtension>
        </extensions>
      </trkpt>
      <trkpt lat="42.45293618179857730865478515625" lon="20.20984402857720851898193359375">
        <ele>1037.4000244140625</ele>
        <time>2026-06-20T12:55:35.000Z</time>
        <extensions>
          <ns3:TrackPointExtension>
            <ns3:atemp>31.0</ns3:atemp>
          </ns3:TrackPointExtension>
        </extensions>
      </trkpt>
      <trkpt lat="42.45292612351477146148681640625" lon="20.2099044620990753173828125">
        <ele>1037.5999755859375</ele>
        <time>2026-06-20T12:55:36.000Z</time>
        <extensions>
          <ns3:TrackPointExtension>
            <ns3:atemp>31.0</ns3:atemp>
          </ns3:TrackPointExtension>
        </extensions>
      </trkpt>
      <trkpt lat="42.45292427949607372283935546875" lon="20.209965147078037261962890625">
        <ele>1037.800048828125</ele>
        <time>2026-06-20T12:55:37.000Z</time>
        <extensions>
          <ns3:TrackPointExtension>
            <ns3:atemp>31.0</ns3:atemp>
          </ns3:TrackPointExtension>
        </extensions>
      </trkpt>
      <trkpt lat="42.45292461477220058441162109375" lon="20.2100243233144283294677734375">
        <ele>1038</ele>
        <time>2026-06-20T12:55:38.000Z</time>
        <extensions>
          <ns3:TrackPointExtension>
            <ns3:atemp>31.0</ns3:atemp>
          </ns3:TrackPointExtension>
        </extensions>
      </trkpt>
      <trkpt lat="42.452930398285388946533203125" lon="20.21007939241826534271240234375">
        <ele>1038.199951171875</ele>
        <time>2026-06-20T12:55:39.000Z</time>
        <extensions>
          <ns3:TrackPointExtension>
            <ns3:atemp>31.0</ns3:atemp>
          </ns3:TrackPointExtension>
        </extensions>
      </trkpt>
      <trkpt lat="42.45293970219790935516357421875" lon="20.21013521589338779449462890625">
        <ele>1038.5999755859375</ele>
        <time>2026-06-20T12:55:40.000Z</time>
        <extensions>
          <ns3:TrackPointExtension>
            <ns3:atemp>31.0</ns3:atemp>
          </ns3:TrackPointExtension>
        </extensions>
      </trkpt>
      <trkpt lat="42.45295244269073009490966796875" lon="20.21018466912209987640380859375">
        <ele>1039.199951171875</ele>
        <time>2026-06-20T12:55:41.000Z</time>
        <extensions>
          <ns3:TrackPointExtension>
            <ns3:atemp>31.0</ns3:atemp>
          </ns3:TrackPointExtension>
        </extensions>
      </trkpt>
      <trkpt lat="42.452963255345821380615234375" lon="20.21023395471274852752685546875">
        <ele>1039.5999755859375</ele>
        <time>2026-06-20T12:55:42.000Z</time>
        <extensions>
          <ns3:TrackPointExtension>
            <ns3:atemp>31.0</ns3:atemp>
          </ns3:TrackPointExtension>
        </extensions>
      </trkpt>
      <trkpt lat="42.45297574438154697418212890625" lon="20.2102821506559848785400390625">
        <ele>1040.199951171875</ele>
        <time>2026-06-20T12:55:43.000Z</time>
        <extensions>
          <ns3:TrackPointExtension>
            <ns3:atemp>31.0</ns3:atemp>
          </ns3:TrackPointExtension>
        </extensions>
      </trkpt>
      <trkpt lat="42.45299384929239749908447265625" lon="20.2103300951421260833740234375">
        <ele>1040.5999755859375</ele>
        <time>2026-06-20T12:55:44.000Z</time>
        <extensions>
          <ns3:TrackPointExtension>
            <ns3:atemp>31.0</ns3:atemp>
          </ns3:TrackPointExtension>
        </extensions>
      </trkpt>
      <trkpt lat="42.4530150555074214935302734375" lon="20.21037728525698184967041015625">
        <ele>1041</ele>
        <time>2026-06-20T12:55:45.000Z</time>
        <extensions>
          <ns3:TrackPointExtension>
            <ns3:atemp>31.0</ns3:atemp>
          </ns3:TrackPointExtension>
        </extensions>
      </trkpt>
      <trkpt lat="42.45303475297987461090087890625" lon="20.21042472682893276214599609375">
        <ele>1041.4000244140625</ele>
        <time>2026-06-20T12:55:46.000Z</time>
        <extensions>
          <ns3:TrackPointExtension>
            <ns3:atemp>31.0</ns3:atemp>
          </ns3:TrackPointExtension>
        </extensions>
      </trkpt>
      <trkpt lat="42.45305621065199375152587890625" lon="20.21047200076282024383544921875">
        <ele>1041.5999755859375</ele>
        <time>2026-06-20T12:55:47.000Z</time>
        <extensions>
          <ns3:TrackPointExtension>
            <ns3:atemp>31.0</ns3:atemp>
          </ns3:TrackPointExtension>
        </extensions>
      </trkpt>
      <trkpt lat="42.4530790932476520538330078125" lon="20.2105198614299297332763671875">
        <ele>1042</ele>
        <time>2026-06-20T12:55:48.000Z</time>
        <extensions>
          <ns3:TrackPointExtension>
            <ns3:atemp>31.0</ns3:atemp>
          </ns3:TrackPointExtension>
        </extensions>
      </trkpt>
      <trkpt lat="42.45309837162494659423828125" lon="20.21056772209703922271728515625">
        <ele>1042.199951171875</ele>
        <time>2026-06-20T12:55:49.000Z</time>
        <extensions>
          <ns3:TrackPointExtension>
            <ns3:atemp>31.0</ns3:atemp>
          </ns3:TrackPointExtension>
        </extensions>
      </trkpt>
      <trkpt lat="42.45311773382127285003662109375" lon="20.210616588592529296875">
        <ele>1042.4000244140625</ele>
        <time>2026-06-20T12:55:50.000Z</time>
        <extensions>
          <ns3:TrackPointExtension>
            <ns3:atemp>31.0</ns3:atemp>
          </ns3:TrackPointExtension>
        </extensions>
      </trkpt>
      <trkpt lat="42.45313634164631366729736328125" lon="20.210664533078670501708984375">
        <ele>1042.800048828125</ele>
        <time>2026-06-20T12:55:51.000Z</time>
        <extensions>
          <ns3:TrackPointExtension>
            <ns3:atemp>31.0</ns3:atemp>
          </ns3:TrackPointExtension>
        </extensions>
      </trkpt>
      <trkpt lat="42.4531525187194347381591796875" lon="20.21071691997349262237548828125">
        <ele>1043</ele>
        <time>2026-06-20T12:55:52.000Z</time>
        <extensions>
          <ns3:TrackPointExtension>
            <ns3:atemp>31.0</ns3:atemp>
          </ns3:TrackPointExtension>
        </extensions>
      </trkpt>
      <trkpt lat="42.45316618122160434722900390625" lon="20.21076612174510955810546875">
        <ele>1043.199951171875</ele>
        <time>2026-06-20T12:55:53.000Z</time>
        <extensions>
          <ns3:TrackPointExtension>
            <ns3:atemp>31.0</ns3:atemp>
          </ns3:TrackPointExtension>
        </extensions>
      </trkpt>
      <trkpt lat="42.45317749679088592529296875" lon="20.210823118686676025390625">
        <ele>1043.5999755859375</ele>
        <time>2026-06-20T12:55:54.000Z</time>
        <extensions>
          <ns3:TrackPointExtension>
            <ns3:atemp>31.0</ns3:atemp>
          </ns3:TrackPointExtension>
        </extensions>
      </trkpt>
      <trkpt lat="42.4531847052276134490966796875" lon="20.21087869070470333099365234375">
        <ele>1043.800048828125</ele>
        <time>2026-06-20T12:55:55.000Z</time>
        <extensions>
          <ns3:TrackPointExtension>
            <ns3:atemp>31.0</ns3:atemp>
          </ns3:TrackPointExtension>
        </extensions>
      </trkpt>
      <trkpt lat="42.453189902007579803466796875" lon="20.2109315805137157440185546875">
        <ele>1044.199951171875</ele>
        <time>2026-06-20T12:55:56.000Z</time>
        <extensions>
          <ns3:TrackPointExtension>
            <ns3:atemp>31.0</ns3:atemp>
          </ns3:TrackPointExtension>
        </extensions>
      </trkpt>
      <trkpt lat="42.45319568552076816558837890625" lon="20.2109827101230621337890625">
        <ele>1044.4000244140625</ele>
        <time>2026-06-20T12:55:57.000Z</time>
        <extensions>
          <ns3:TrackPointExtension>
            <ns3:atemp>31.0</ns3:atemp>
          </ns3:TrackPointExtension>
        </extensions>
      </trkpt>
      <trkpt lat="42.45319870300590991973876953125" lon="20.21103895269334316253662109375">
        <ele>1044.800048828125</ele>
        <time>2026-06-20T12:55:58.000Z</time>
        <extensions>
          <ns3:TrackPointExtension>
            <ns3:atemp>31.0</ns3:atemp>
          </ns3:TrackPointExtension>
        </extensions>
      </trkpt>
      <trkpt lat="42.45319937355816364288330078125" lon="20.21109578199684619903564453125">
        <ele>1045</ele>
        <time>2026-06-20T12:55:59.000Z</time>
        <extensions>
          <ns3:TrackPointExtension>
            <ns3:atemp>31.0</ns3:atemp>
          </ns3:TrackPointExtension>
        </extensions>
      </trkpt>
      <trkpt lat="42.4531984515488147735595703125" lon="20.21115428768098354339599609375">
        <ele>1045.199951171875</ele>
        <time>2026-06-20T12:56:00.000Z</time>
        <extensions>
          <ns3:TrackPointExtension>
            <ns3:atemp>31.0</ns3:atemp>
          </ns3:TrackPointExtension>
        </extensions>
      </trkpt>
      <trkpt lat="42.4531964398920536041259765625" lon="20.21120809949934482574462890625">
        <ele>1045.199951171875</ele>
        <time>2026-06-20T12:56:01.000Z</time>
        <extensions>
          <ns3:TrackPointExtension>
            <ns3:atemp>31.0</ns3:atemp>
          </ns3:TrackPointExtension>
        </extensions>
      </trkpt>
      <trkpt lat="42.453192584216594696044921875" lon="20.21126090548932552337646484375">
        <ele>1045.199951171875</ele>
        <time>2026-06-20T12:56:02.000Z</time>
        <extensions>
          <ns3:TrackPointExtension>
            <ns3:atemp>31.0</ns3:atemp>
          </ns3:TrackPointExtension>
        </extensions>
      </trkpt>
      <trkpt lat="42.45318889617919921875" lon="20.2113151364028453826904296875">
        <ele>1045</ele>
        <time>2026-06-20T12:56:03.000Z</time>
        <extensions>
          <ns3:TrackPointExtension>
            <ns3:atemp>31.0</ns3:atemp>
          </ns3:TrackPointExtension>
        </extensions>
      </trkpt>
      <trkpt lat="42.4531833641231060028076171875" lon="20.2113717980682849884033203125">
        <ele>1044.800048828125</ele>
        <time>2026-06-20T12:56:04.000Z</time>
        <extensions>
          <ns3:TrackPointExtension>
            <ns3:atemp>31.0</ns3:atemp>
          </ns3:TrackPointExtension>
        </extensions>
      </trkpt>
      <trkpt lat="42.4531853757798671722412109375" lon="20.2114334888756275177001953125">
        <ele>1044.4000244140625</ele>
        <time>2026-06-20T12:56:05.000Z</time>
        <extensions>
          <ns3:TrackPointExtension>
            <ns3:atemp>31.0</ns3:atemp>
          </ns3:TrackPointExtension>
        </extensions>
      </trkpt>
      <trkpt lat="42.4532014690339565277099609375" lon="20.211491324007511138916015625">
        <ele>1044.4000244140625</ele>
        <time>2026-06-20T12:56:06.000Z</time>
        <extensions>
          <ns3:TrackPointExtension>
            <ns3:atemp>31.0</ns3:atemp>
          </ns3:TrackPointExtension>
        </extensions>
      </trkpt>
      <trkpt lat="42.45322770439088344573974609375" lon="20.21153499372303485870361328125">
        <ele>1044.4000244140625</ele>
        <time>2026-06-20T12:56:07.000Z</time>
        <extensions>
          <ns3:TrackPointExtension>
            <ns3:atemp>31.0</ns3:atemp>
          </ns3:TrackPointExtension>
        </extensions>
      </trkpt>
      <trkpt lat="42.4532574601471424102783203125" lon="20.2115672640502452850341796875">
        <ele>1044.4000244140625</ele>
        <time>2026-06-20T12:56:08.000Z</time>
        <extensions>
          <ns3:TrackPointExtension>
            <ns3:atemp>31.0</ns3:atemp>
          </ns3:TrackPointExtension>
        </extensions>
      </trkpt>
      <trkpt lat="42.45328855700790882110595703125" lon="20.21158981136977672576904296875">
        <ele>1044.4000244140625</ele>
        <time>2026-06-20T12:56:09.000Z</time>
        <extensions>
          <ns3:TrackPointExtension>
            <ns3:atemp>31.0</ns3:atemp>
          </ns3:TrackPointExtension>
        </extensions>
      </trkpt>
      <trkpt lat="42.45332174934446811676025390625" lon="20.2116148732602596282958984375">
        <ele>1044.4000244140625</ele>
        <time>2026-06-20T12:56:10.000Z</time>
        <extensions>
          <ns3:TrackPointExtension>
            <ns3:atemp>31.0</ns3:atemp>
          </ns3:TrackPointExtension>
        </extensions>
      </trkpt>
      <trkpt lat="42.4533546902239322662353515625" lon="20.211634822189807891845703125">
        <ele>1044.4000244140625</ele>
        <time>2026-06-20T12:56:11.000Z</time>
        <extensions>
          <ns3:TrackPointExtension>
            <ns3:atemp>31.0</ns3:atemp>
          </ns3:TrackPointExtension>
        </extensions>
      </trkpt>
      <trkpt lat="42.45338494889438152313232421875" lon="20.2116532623767852783203125">
        <ele>1044.4000244140625</ele>
        <time>2026-06-20T12:56:12.000Z</time>
        <extensions>
          <ns3:TrackPointExtension>
            <ns3:atemp>31.0</ns3:atemp>
          </ns3:TrackPointExtension>
        </extensions>
      </trkpt>
      <trkpt lat="42.45341864414513111114501953125" lon="20.21165527403354644775390625">
        <ele>1044.4000244140625</ele>
        <time>2026-06-20T12:56:13.000Z</time>
        <extensions>
          <ns3:TrackPointExtension>
            <ns3:atemp>31.0</ns3:atemp>
          </ns3:TrackPointExtension>
        </extensions>
      </trkpt>
      <trkpt lat="42.45345502160489559173583984375" lon="20.21164990961551666259765625">
        <ele>1044.4000244140625</ele>
        <time>2026-06-20T12:56:14.000Z</time>
        <extensions>
          <ns3:TrackPointExtension>
            <ns3:atemp>31.0</ns3:atemp>
          </ns3:TrackPointExtension>
        </extensions>
      </trkpt>
      <trkpt lat="42.4534911476075649261474609375" lon="20.21163943223655223846435546875">
        <ele>1044.5999755859375</ele>
        <time>2026-06-20T12:56:15.000Z</time>
        <extensions>
          <ns3:TrackPointExtension>
            <ns3:atemp>31.0</ns3:atemp>
          </ns3:TrackPointExtension>
        </extensions>
      </trkpt>
      <trkpt lat="42.4535243399441242218017578125" lon="20.21162417717278003692626953125">
        <ele>1044.800048828125</ele>
        <time>2026-06-20T12:56:16.000Z</time>
        <extensions>
          <ns3:TrackPointExtension>
            <ns3:atemp>31.0</ns3:atemp>
          </ns3:TrackPointExtension>
        </extensions>
      </trkpt>
      <trkpt lat="42.45355795137584209442138671875" lon="20.2116210758686065673828125">
        <ele>1044.800048828125</ele>
        <time>2026-06-20T12:56:17.000Z</time>
        <extensions>
          <ns3:TrackPointExtension>
            <ns3:atemp>31.0</ns3:atemp>
          </ns3:TrackPointExtension>
        </extensions>
      </trkpt>
      <trkpt lat="42.45358326472342014312744140625" lon="20.2116344869136810302734375">
        <ele>1045</ele>
        <time>2026-06-20T12:56:18.000Z</time>
        <extensions>
          <ns3:TrackPointExtension>
            <ns3:atemp>31.0</ns3:atemp>
          </ns3:TrackPointExtension>
        </extensions>
      </trkpt>
      <trkpt lat="42.45360505767166614532470703125" lon="20.21164429374039173126220703125">
        <ele>1045</ele>
        <time>2026-06-20T12:56:19.000Z</time>
        <extensions>
          <ns3:TrackPointExtension>
            <ns3:atemp>31.0</ns3:atemp>
          </ns3:TrackPointExtension>
        </extensions>
      </trkpt>
      <trkpt lat="42.453628443181514739990234375" lon="20.2116571180522441864013671875">
        <ele>1045.4000244140625</ele>
        <time>2026-06-20T12:56:20.000Z</time>
        <extensions>
          <ns3:TrackPointExtension>
            <ns3:atemp>31.0</ns3:atemp>
          </ns3:TrackPointExtension>
        </extensions>
      </trkpt>
      <trkpt lat="42.45365224778652191162109375" lon="20.21166843362152576446533203125">
        <ele>1045.5999755859375</ele>
        <time>2026-06-20T12:56:21.000Z</time>
        <extensions>
          <ns3:TrackPointExtension>
            <ns3:atemp>31.0</ns3:atemp>
          </ns3:TrackPointExtension>
        </extensions>
      </trkpt>
      <trkpt lat="42.45367865078151226043701171875" lon="20.21168167702853679656982421875">
        <ele>1045.800048828125</ele>
        <time>2026-06-20T12:56:22.000Z</time>
        <extensions>
          <ns3:TrackPointExtension>
            <ns3:atemp>31.0</ns3:atemp>
          </ns3:TrackPointExtension>
        </extensions>
      </trkpt>
      <trkpt lat="42.453702874481678009033203125" lon="20.21169542334973812103271484375">
        <ele>1046</ele>
        <time>2026-06-20T12:56:23.000Z</time>
        <extensions>
          <ns3:TrackPointExtension>
            <ns3:atemp>31.0</ns3:atemp>
          </ns3:TrackPointExtension>
        </extensions>
      </trkpt>
      <trkpt lat="42.4537293612957000732421875" lon="20.21171000786125659942626953125">
        <ele>1046.199951171875</ele>
        <time>2026-06-20T12:56:24.000Z</time>
        <extensions>
          <ns3:TrackPointExtension>
            <ns3:atemp>31.0</ns3:atemp>
          </ns3:TrackPointExtension>
        </extensions>
      </trkpt>
      <trkpt lat="42.45375559665262699127197265625" lon="20.211726017296314239501953125">
        <ele>1046.199951171875</ele>
        <time>2026-06-20T12:56:25.000Z</time>
        <extensions>
          <ns3:TrackPointExtension>
            <ns3:atemp>31.0</ns3:atemp>
          </ns3:TrackPointExtension>
        </extensions>
      </trkpt>
      <trkpt lat="42.45378375984728336334228515625" lon="20.21174320019781589508056640625">
        <ele>1046.199951171875</ele>
        <time>2026-06-20T12:56:26.000Z</time>
        <extensions>
          <ns3:TrackPointExtension>
            <ns3:atemp>31.0</ns3:atemp>
          </ns3:TrackPointExtension>
        </extensions>
      </trkpt>
      <trkpt lat="42.4538146890699863433837890625" lon="20.2117466367781162261962890625">
        <ele>1046.199951171875</ele>
        <time>2026-06-20T12:56:27.000Z</time>
        <extensions>
          <ns3:TrackPointExtension>
            <ns3:atemp>31.0</ns3:atemp>
          </ns3:TrackPointExtension>
        </extensions>
      </trkpt>
      <trkpt lat="42.45383522473275661468505859375" lon="20.21172878332436084747314453125">
        <ele>1046.199951171875</ele>
        <time>2026-06-20T12:56:28.000Z</time>
        <extensions>
          <ns3:TrackPointExtension>
            <ns3:atemp>31.0</ns3:atemp>
          </ns3:TrackPointExtension>
        </extensions>
      </trkpt>
      <trkpt lat="42.453843690454959869384765625" lon="20.21169894374907016754150390625">
        <ele>1046.4000244140625</ele>
        <time>2026-06-20T12:56:29.000Z</time>
        <extensions>
          <ns3:TrackPointExtension>
            <ns3:atemp>31.0</ns3:atemp>
          </ns3:TrackPointExtension>
        </extensions>
      </trkpt>
      <trkpt lat="42.45385299436748027801513671875" lon="20.21166189573705196380615234375">
        <ele>1046.4000244140625</ele>
        <time>2026-06-20T12:56:30.000Z</time>
        <extensions>
          <ns3:TrackPointExtension>
            <ns3:atemp>31.0</ns3:atemp>
          </ns3:TrackPointExtension>
        </extensions>
      </trkpt>
      <trkpt lat="42.45386305265128612518310546875" lon="20.2116276137530803680419921875">
        <ele>1046.5999755859375</ele>
        <time>2026-06-20T12:56:31.000Z</time>
        <extensions>
          <ns3:TrackPointExtension>
            <ns3:atemp>31.0</ns3:atemp>
          </ns3:TrackPointExtension>
        </extensions>
      </trkpt>
      <trkpt lat="42.453873194754123687744140625" lon="20.21158645860850811004638671875">
        <ele>1046.5999755859375</ele>
        <time>2026-06-20T12:56:32.000Z</time>
        <extensions>
          <ns3:TrackPointExtension>
            <ns3:atemp>31.0</ns3:atemp>
          </ns3:TrackPointExtension>
        </extensions>
      </trkpt>
      <trkpt lat="42.45388333685696125030517578125" lon="20.21154572255909442901611328125">
        <ele>1046.800048828125</ele>
        <time>2026-06-20T12:56:33.000Z</time>
        <extensions>
          <ns3:TrackPointExtension>
            <ns3:atemp>31.0</ns3:atemp>
          </ns3:TrackPointExtension>
        </extensions>
      </trkpt>
      <trkpt lat="42.45390571653842926025390625" lon="20.21151152439415454864501953125">
        <ele>1047</ele>
        <time>2026-06-20T12:56:34.000Z</time>
        <extensions>
          <ns3:TrackPointExtension>
            <ns3:atemp>31.0</ns3:atemp>
          </ns3:TrackPointExtension>
        </extensions>
      </trkpt>
      <trkpt lat="42.45393253862857818603515625" lon="20.21150833927094936370849609375">
        <ele>1047</ele>
        <time>2026-06-20T12:56:35.000Z</time>
        <extensions>
          <ns3:TrackPointExtension>
            <ns3:atemp>31.0</ns3:atemp>
          </ns3:TrackPointExtension>
        </extensions>
      </trkpt>
      <trkpt lat="42.45395659469068050384521484375" lon="20.21151571534574031829833984375">
        <ele>1047</ele>
        <time>2026-06-20T12:56:36.000Z</time>
        <extensions>
          <ns3:TrackPointExtension>
            <ns3:atemp>31.0</ns3:atemp>
          </ns3:TrackPointExtension>
        </extensions>
      </trkpt>
      <trkpt lat="42.453980147838592529296875" lon="20.21152812056243419647216796875">
        <ele>1047</ele>
        <time>2026-06-20T12:56:37.000Z</time>
        <extensions>
          <ns3:TrackPointExtension>
            <ns3:atemp>31.0</ns3:atemp>
          </ns3:TrackPointExtension>
        </extensions>
      </trkpt>
      <trkpt lat="42.4540088139474391937255859375" lon="20.211539603769779205322265625">
        <ele>1047.199951171875</ele>
        <time>2026-06-20T12:56:38.000Z</time>
        <extensions>
          <ns3:TrackPointExtension>
            <ns3:atemp>31.0</ns3:atemp>
          </ns3:TrackPointExtension>
        </extensions>
      </trkpt>
      <trkpt lat="42.45403655804693698883056640625" lon="20.21154890768229961395263671875">
        <ele>1047.199951171875</ele>
        <time>2026-06-20T12:56:39.000Z</time>
        <extensions>
          <ns3:TrackPointExtension>
            <ns3:atemp>31.0</ns3:atemp>
          </ns3:TrackPointExtension>
        </extensions>
      </trkpt>
      <trkpt lat="42.45406522415578365325927734375" lon="20.2115635760128498077392578125">
        <ele>1047.199951171875</ele>
        <time>2026-06-20T12:56:40.000Z</time>
        <extensions>
          <ns3:TrackPointExtension>
            <ns3:atemp>31.0</ns3:atemp>
          </ns3:TrackPointExtension>
        </extensions>
      </trkpt>
      <trkpt lat="42.45409372262656688690185546875" lon="20.2115753106772899627685546875">
        <ele>1047.4000244140625</ele>
        <time>2026-06-20T12:56:41.000Z</time>
        <extensions>
          <ns3:TrackPointExtension>
            <ns3:atemp>31.0</ns3:atemp>
          </ns3:TrackPointExtension>
        </extensions>
      </trkpt>
      <trkpt lat="42.4541218020021915435791015625" lon="20.21158813498914241790771484375">
        <ele>1047.5999755859375</ele>
        <time>2026-06-20T12:56:42.000Z</time>
        <extensions>
          <ns3:TrackPointExtension>
            <ns3:atemp>31.0</ns3:atemp>
          </ns3:TrackPointExtension>
        </extensions>
      </trkpt>
      <trkpt lat="42.45414904318749904632568359375" lon="20.2115996181964874267578125">
        <ele>1047.800048828125</ele>
        <time>2026-06-20T12:56:43.000Z</time>
        <extensions>
          <ns3:TrackPointExtension>
            <ns3:atemp>31.0</ns3:atemp>
          </ns3:TrackPointExtension>
        </extensions>
      </trkpt>
      <trkpt lat="42.454174943268299102783203125" lon="20.21161009557545185089111328125">
        <ele>1048</ele>
        <time>2026-06-20T12:56:44.000Z</time>
        <extensions>
          <ns3:TrackPointExtension>
            <ns3:atemp>31.0</ns3:atemp>
          </ns3:TrackPointExtension>
        </extensions>
      </trkpt>
      <trkpt lat="42.4541969038546085357666015625" lon="20.21162183023989200592041015625">
        <ele>1048.199951171875</ele>
        <time>2026-06-20T12:56:45.000Z</time>
        <extensions>
          <ns3:TrackPointExtension>
            <ns3:atemp>31.0</ns3:atemp>
          </ns3:TrackPointExtension>
        </extensions>
      </trkpt>
      <trkpt lat="42.45422330684959888458251953125" lon="20.2116346545517444610595703125">
        <ele>1048.4000244140625</ele>
        <time>2026-06-20T12:56:46.000Z</time>
        <extensions>
          <ns3:TrackPointExtension>
            <ns3:atemp>31.0</ns3:atemp>
          </ns3:TrackPointExtension>
        </extensions>
      </trkpt>
      <trkpt lat="42.45424711145460605621337890625" lon="20.2116477303206920623779296875">
        <ele>1048.5999755859375</ele>
        <time>2026-06-20T12:56:47.000Z</time>
        <extensions>
          <ns3:TrackPointExtension>
            <ns3:atemp>31.0</ns3:atemp>
          </ns3:TrackPointExtension>
        </extensions>
      </trkpt>
      <trkpt lat="42.45427242480218410491943359375" lon="20.2116608060896396636962890625">
        <ele>1048.5999755859375</ele>
        <time>2026-06-20T12:56:48.000Z</time>
        <extensions>
          <ns3:TrackPointExtension>
            <ns3:atemp>31.0</ns3:atemp>
          </ns3:TrackPointExtension>
        </extensions>
      </trkpt>
      <trkpt lat="42.4542994983494281768798828125" lon="20.21167731843888759613037109375">
        <ele>1048.800048828125</ele>
        <time>2026-06-20T12:56:49.000Z</time>
        <extensions>
          <ns3:TrackPointExtension>
            <ns3:atemp>31.0</ns3:atemp>
          </ns3:TrackPointExtension>
        </extensions>
      </trkpt>
      <trkpt lat="42.4543283320963382720947265625" lon="20.2116926573216915130615234375">
        <ele>1049</ele>
        <time>2026-06-20T12:56:50.000Z</time>
        <extensions>
          <ns3:TrackPointExtension>
            <ns3:atemp>31.0</ns3:atemp>
          </ns3:TrackPointExtension>
        </extensions>
      </trkpt>
      <trkpt lat="42.45435297489166259765625" lon="20.211698524653911590576171875">
        <ele>1049</ele>
        <time>2026-06-20T12:56:51.000Z</time>
        <extensions>
          <ns3:TrackPointExtension>
            <ns3:atemp>31.0</ns3:atemp>
          </ns3:TrackPointExtension>
        </extensions>
      </trkpt>
      <trkpt lat="42.45438046753406524658203125" lon="20.21170548163354396820068359375">
        <ele>1049.199951171875</ele>
        <time>2026-06-20T12:56:52.000Z</time>
        <extensions>
          <ns3:TrackPointExtension>
            <ns3:atemp>31.0</ns3:atemp>
          </ns3:TrackPointExtension>
        </extensions>
      </trkpt>
      <trkpt lat="42.45440301485359668731689453125" lon="20.211725346744060516357421875">
        <ele>1049.199951171875</ele>
        <time>2026-06-20T12:56:53.000Z</time>
        <extensions>
          <ns3:TrackPointExtension>
            <ns3:atemp>31.0</ns3:atemp>
          </ns3:TrackPointExtension>
        </extensions>
      </trkpt>
      <trkpt lat="42.4544064514338970184326171875" lon="20.211760886013507843017578125">
        <ele>1049.4000244140625</ele>
        <time>2026-06-20T12:56:54.000Z</time>
        <extensions>
          <ns3:TrackPointExtension>
            <ns3:atemp>31.0</ns3:atemp>
          </ns3:TrackPointExtension>
        </extensions>
      </trkpt>
      <trkpt lat="42.4543967284262180328369140625" lon="20.21178829483687877655029296875">
        <ele>1049.5999755859375</ele>
        <time>2026-06-20T12:56:55.000Z</time>
        <extensions>
          <ns3:TrackPointExtension>
            <ns3:atemp>31.0</ns3:atemp>
          </ns3:TrackPointExtension>
        </extensions>
      </trkpt>
      <trkpt lat="42.4544012546539306640625" lon="20.21181620657444000244140625">
        <ele>1049.5999755859375</ele>
        <time>2026-06-20T12:56:56.000Z</time>
        <extensions>
          <ns3:TrackPointExtension>
            <ns3:atemp>31.0</ns3:atemp>
          </ns3:TrackPointExtension>
        </extensions>
      </trkpt>
      <trkpt lat="42.4544155038893222808837890625" lon="20.21184168756008148193359375">
        <ele>1049.800048828125</ele>
        <time>2026-06-20T12:56:57.000Z</time>
        <extensions>
          <ns3:TrackPointExtension>
            <ns3:atemp>31.0</ns3:atemp>
          </ns3:TrackPointExtension>
        </extensions>
      </trkpt>
      <trkpt lat="42.4544396437704563140869140625" lon="20.21185970865190029144287109375">
        <ele>1050</ele>
        <time>2026-06-20T12:56:58.000Z</time>
        <extensions>
          <ns3:TrackPointExtension>
            <ns3:atemp>31.0</ns3:atemp>
          </ns3:TrackPointExtension>
        </extensions>
      </trkpt>
      <trkpt lat="42.4544644542038440704345703125" lon="20.211886279284954071044921875">
        <ele>1050.199951171875</ele>
        <time>2026-06-20T12:56:59.000Z</time>
        <extensions>
          <ns3:TrackPointExtension>
            <ns3:atemp>31.0</ns3:atemp>
          </ns3:TrackPointExtension>
        </extensions>
      </trkpt>
      <trkpt lat="42.45448716916143894195556640625" lon="20.21190865896642208099365234375">
        <ele>1050.199951171875</ele>
        <time>2026-06-20T12:57:00.000Z</time>
        <extensions>
          <ns3:TrackPointExtension>
            <ns3:atemp>31.0</ns3:atemp>
          </ns3:TrackPointExtension>
        </extensions>
      </trkpt>
      <trkpt lat="42.45450812391936779022216796875" lon="20.2119303680956363677978515625">
        <ele>1050.4000244140625</ele>
        <time>2026-06-20T12:57:01.000Z</time>
        <extensions>
          <ns3:TrackPointExtension>
            <ns3:atemp>31.0</ns3:atemp>
          </ns3:TrackPointExtension>
        </extensions>
      </trkpt>
      <trkpt lat="42.4545281566679477691650390625" lon="20.2119464613497257232666015625">
        <ele>1050.4000244140625</ele>
        <time>2026-06-20T12:57:02.000Z</time>
        <extensions>
          <ns3:TrackPointExtension>
            <ns3:atemp>31.0</ns3:atemp>
          </ns3:TrackPointExtension>
        </extensions>
      </trkpt>
      <trkpt lat="42.45455154217779636383056640625" lon="20.2119457907974720001220703125">
        <ele>1050.5999755859375</ele>
        <time>2026-06-20T12:57:03.000Z</time>
        <extensions>
          <ns3:TrackPointExtension>
            <ns3:atemp>31.0</ns3:atemp>
          </ns3:TrackPointExtension>
        </extensions>
      </trkpt>
      <trkpt lat="42.4545710720121860504150390625" lon="20.21193464286625385284423828125">
        <ele>1050.800048828125</ele>
        <time>2026-06-20T12:57:04.000Z</time>
        <extensions>
          <ns3:TrackPointExtension>
            <ns3:atemp>31.0</ns3:atemp>
          </ns3:TrackPointExtension>
        </extensions>
      </trkpt>
      <trkpt lat="42.454592026770114898681640625" lon="20.2119229920208454132080078125">
        <ele>1050.800048828125</ele>
        <time>2026-06-20T12:57:05.000Z</time>
        <extensions>
          <ns3:TrackPointExtension>
            <ns3:atemp>31.0</ns3:atemp>
          </ns3:TrackPointExtension>
        </extensions>
      </trkpt>
      <trkpt lat="42.4546166695654392242431640625" lon="20.21190966479480266571044921875">
        <ele>1051</ele>
        <time>2026-06-20T12:57:06.000Z</time>
        <extensions>
          <ns3:TrackPointExtension>
            <ns3:atemp>31.0</ns3:atemp>
          </ns3:TrackPointExtension>
        </extensions>
      </trkpt>
      <trkpt lat="42.45464156381785869598388671875" lon="20.21189826540648937225341796875">
        <ele>1051.199951171875</ele>
        <time>2026-06-20T12:57:07.000Z</time>
        <extensions>
          <ns3:TrackPointExtension>
            <ns3:atemp>31.0</ns3:atemp>
          </ns3:TrackPointExtension>
        </extensions>
      </trkpt>
      <trkpt lat="42.45466520078480243682861328125" lon="20.21189139224588871002197265625">
        <ele>1051.199951171875</ele>
        <time>2026-06-20T12:57:08.000Z</time>
        <extensions>
          <ns3:TrackPointExtension>
            <ns3:atemp>31.0</ns3:atemp>
          </ns3:TrackPointExtension>
        </extensions>
      </trkpt>
      <trkpt lat="42.45469151996076107025146484375" lon="20.21188871003687381744384765625">
        <ele>1051.4000244140625</ele>
        <time>2026-06-20T12:57:09.000Z</time>
        <extensions>
          <ns3:TrackPointExtension>
            <ns3:atemp>31.0</ns3:atemp>
          </ns3:TrackPointExtension>
        </extensions>
      </trkpt>
      <trkpt lat="42.45471616275608539581298828125" lon="20.211893655359745025634765625">
        <ele>1051.4000244140625</ele>
        <time>2026-06-20T12:57:10.000Z</time>
        <extensions>
          <ns3:TrackPointExtension>
            <ns3:atemp>31.0</ns3:atemp>
          </ns3:TrackPointExtension>
        </extensions>
      </trkpt>
      <trkpt lat="42.4547407217323780059814453125" lon="20.2118951641023159027099609375">
        <ele>1051.5999755859375</ele>
        <time>2026-06-20T12:57:11.000Z</time>
        <extensions>
          <ns3:TrackPointExtension>
            <ns3:atemp>31.0</ns3:atemp>
          </ns3:TrackPointExtension>
        </extensions>
      </trkpt>
      <trkpt lat="42.4547675438225269317626953125" lon="20.21188988350331783294677734375">
        <ele>1051.800048828125</ele>
        <time>2026-06-20T12:57:12.000Z</time>
        <extensions>
          <ns3:TrackPointExtension>
            <ns3:atemp>31.0</ns3:atemp>
          </ns3:TrackPointExtension>
        </extensions>
      </trkpt>
      <trkpt lat="42.4547906778752803802490234375" lon="20.21189155988395214080810546875">
        <ele>1051.800048828125</ele>
        <time>2026-06-20T12:57:13.000Z</time>
        <extensions>
          <ns3:TrackPointExtension>
            <ns3:atemp>31.0</ns3:atemp>
          </ns3:TrackPointExtension>
        </extensions>
      </trkpt>
      <trkpt lat="42.4548161588609218597412109375" lon="20.21189776249229907989501953125">
        <ele>1052</ele>
        <time>2026-06-20T12:57:14.000Z</time>
        <extensions>
          <ns3:TrackPointExtension>
            <ns3:atemp>30.0</ns3:atemp>
          </ns3:TrackPointExtension>
        </extensions>
      </trkpt>
      <trkpt lat="42.45483870618045330047607421875" lon="20.21190463565289974212646484375">
        <ele>1052</ele>
        <time>2026-06-20T12:57:15.000Z</time>
        <extensions>
          <ns3:TrackPointExtension>
            <ns3:atemp>30.0</ns3:atemp>
          </ns3:TrackPointExtension>
        </extensions>
      </trkpt>
      <trkpt lat="42.45486603118479251861572265625" lon="20.21191670559346675872802734375">
        <ele>1052.199951171875</ele>
        <time>2026-06-20T12:57:16.000Z</time>
        <extensions>
          <ns3:TrackPointExtension>
            <ns3:atemp>30.0</ns3:atemp>
          </ns3:TrackPointExtension>
        </extensions>
      </trkpt>
      <trkpt lat="42.4548922665417194366455078125" lon="20.2119266800582408905029296875">
        <ele>1052.199951171875</ele>
        <time>2026-06-20T12:57:17.000Z</time>
        <extensions>
          <ns3:TrackPointExtension>
            <ns3:atemp>30.0</ns3:atemp>
          </ns3:TrackPointExtension>
        </extensions>
      </trkpt>
      <trkpt lat="42.4549175798892974853515625" lon="20.21193816326558589935302734375">
        <ele>1052.4000244140625</ele>
        <time>2026-06-20T12:57:18.000Z</time>
        <extensions>
          <ns3:TrackPointExtension>
            <ns3:atemp>30.0</ns3:atemp>
          </ns3:TrackPointExtension>
        </extensions>
      </trkpt>
      <trkpt lat="42.454943396151065826416015625" lon="20.21195392124354839324951171875">
        <ele>1052.5999755859375</ele>
        <time>2026-06-20T12:57:19.000Z</time>
        <extensions>
          <ns3:TrackPointExtension>
            <ns3:atemp>30.0</ns3:atemp>
          </ns3:TrackPointExtension>
        </extensions>
      </trkpt>
      <trkpt lat="42.45496661402285099029541015625" lon="20.21196884103119373321533203125">
        <ele>1052.5999755859375</ele>
        <time>2026-06-20T12:57:20.000Z</time>
        <extensions>
          <ns3:TrackPointExtension>
            <ns3:atemp>30.0</ns3:atemp>
          </ns3:TrackPointExtension>
        </extensions>
      </trkpt>
      <trkpt lat="42.45498689822852611541748046875" lon="20.21198912523686885833740234375">
        <ele>1052.800048828125</ele>
        <time>2026-06-20T12:57:21.000Z</time>
        <extensions>
          <ns3:TrackPointExtension>
            <ns3:atemp>30.0</ns3:atemp>
          </ns3:TrackPointExtension>
        </extensions>
      </trkpt>
      <trkpt lat="42.4550079368054866790771484375" lon="20.21201292984187602996826171875">
        <ele>1053</ele>
        <time>2026-06-20T12:57:22.000Z</time>
        <extensions>
          <ns3:TrackPointExtension>
            <ns3:atemp>30.0</ns3:atemp>
          </ns3:TrackPointExtension>
        </extensions>
      </trkpt>
      <trkpt lat="42.4550273828208446502685546875" lon="20.2120359800755977630615234375">
        <ele>1053</ele>
        <time>2026-06-20T12:57:23.000Z</time>
        <extensions>
          <ns3:TrackPointExtension>
            <ns3:atemp>30.0</ns3:atemp>
          </ns3:TrackPointExtension>
        </extensions>
      </trkpt>
      <trkpt lat="42.45504456572234630584716796875" lon="20.212060622870922088623046875">
        <ele>1053.199951171875</ele>
        <time>2026-06-20T12:57:24.000Z</time>
        <extensions>
          <ns3:TrackPointExtension>
            <ns3:atemp>30.0</ns3:atemp>
          </ns3:TrackPointExtension>
        </extensions>
      </trkpt>
      <trkpt lat="42.45506116189062595367431640625" lon="20.2120852656662464141845703125">
        <ele>1053.199951171875</ele>
        <time>2026-06-20T12:57:25.000Z</time>
        <extensions>
          <ns3:TrackPointExtension>
            <ns3:atemp>30.0</ns3:atemp>
          </ns3:TrackPointExtension>
        </extensions>
      </trkpt>
      <trkpt lat="42.45507339946925640106201171875" lon="20.2121087349951267242431640625">
        <ele>1053.4000244140625</ele>
        <time>2026-06-20T12:57:26.000Z</time>
        <extensions>
          <ns3:TrackPointExtension>
            <ns3:atemp>30.0</ns3:atemp>
          </ns3:TrackPointExtension>
        </extensions>
      </trkpt>
      <trkpt lat="42.4550813622772693634033203125" lon="20.21212725900113582611083984375">
        <ele>1053.5999755859375</ele>
        <time>2026-06-20T12:57:27.000Z</time>
        <extensions>
          <ns3:TrackPointExtension>
            <ns3:atemp>30.0</ns3:atemp>
          </ns3:TrackPointExtension>
        </extensions>
      </trkpt>
      <trkpt lat="42.45508982799947261810302734375" lon="20.2121476270258426666259765625">
        <ele>1054</ele>
        <time>2026-06-20T12:57:28.000Z</time>
        <extensions>
          <ns3:TrackPointExtension>
            <ns3:atemp>30.0</ns3:atemp>
          </ns3:TrackPointExtension>
        </extensions>
      </trkpt>
      <trkpt lat="42.45509703643620014190673828125" lon="20.21216296590864658355712890625">
        <ele>1054.199951171875</ele>
        <time>2026-06-20T12:57:29.000Z</time>
        <extensions>
          <ns3:TrackPointExtension>
            <ns3:atemp>30.0</ns3:atemp>
          </ns3:TrackPointExtension>
        </extensions>
      </trkpt>
      <trkpt lat="42.45509435422718524932861328125" lon="20.212167911231517791748046875">
        <ele>1054.5999755859375</ele>
        <time>2026-06-20T12:57:30.000Z</time>
        <extensions>
          <ns3:TrackPointExtension>
            <ns3:atemp>30.0</ns3:atemp>
          </ns3:TrackPointExtension>
        </extensions>
      </trkpt>
      <trkpt lat="42.45509485714137554168701171875" lon="20.21216833032667636871337890625">
        <ele>1054.800048828125</ele>
        <time>2026-06-20T12:57:31.000Z</time>
        <extensions>
          <ns3:TrackPointExtension>
            <ns3:atemp>30.0</ns3:atemp>
          </ns3:TrackPointExtension>
        </extensions>
      </trkpt>
      <trkpt lat="42.45509485714137554168701171875" lon="20.21216833032667636871337890625">
        <ele>1055</ele>
        <time>2026-06-20T12:57:32.000Z</time>
        <extensions>
          <ns3:TrackPointExtension>
            <ns3:atemp>30.0</ns3:atemp>
          </ns3:TrackPointExtension>
        </extensions>
      </trkpt>
      <trkpt lat="42.45509485714137554168701171875" lon="20.21216833032667636871337890625">
        <ele>1055</ele>
        <time>2026-06-20T12:57:33.000Z</time>
        <extensions>
          <ns3:TrackPointExtension>
            <ns3:atemp>30.0</ns3:atemp>
          </ns3:TrackPointExtension>
        </extensions>
      </trkpt>
      <trkpt lat="42.45509485714137554168701171875" lon="20.21216833032667636871337890625">
        <ele>1054.800048828125</ele>
        <time>2026-06-20T12:57:34.000Z</time>
        <extensions>
          <ns3:TrackPointExtension>
            <ns3:atemp>30.0</ns3:atemp>
          </ns3:TrackPointExtension>
        </extensions>
      </trkpt>
      <trkpt lat="42.45509485714137554168701171875" lon="20.21216833032667636871337890625">
        <ele>1054.5999755859375</ele>
        <time>2026-06-20T12:57:35.000Z</time>
        <extensions>
          <ns3:TrackPointExtension>
            <ns3:atemp>30.0</ns3:atemp>
          </ns3:TrackPointExtension>
        </extensions>
      </trkpt>
      <trkpt lat="42.45509502477943897247314453125" lon="20.212168581783771514892578125">
        <ele>1054.5999755859375</ele>
        <time>2026-06-20T12:57:36.000Z</time>
        <extensions>
          <ns3:TrackPointExtension>
            <ns3:atemp>30.0</ns3:atemp>
          </ns3:TrackPointExtension>
        </extensions>
      </trkpt>
      <trkpt lat="42.45509653352200984954833984375" lon="20.2121751196682453155517578125">
        <ele>1054.5999755859375</ele>
        <time>2026-06-20T12:57:37.000Z</time>
        <extensions>
          <ns3:TrackPointExtension>
            <ns3:atemp>30.0</ns3:atemp>
          </ns3:TrackPointExtension>
        </extensions>
      </trkpt>
      <trkpt lat="42.45509586296975612640380859375" lon="20.2121778018772602081298828125">
        <ele>1054.5999755859375</ele>
        <time>2026-06-20T12:57:38.000Z</time>
        <extensions>
          <ns3:TrackPointExtension>
            <ns3:atemp>30.0</ns3:atemp>
          </ns3:TrackPointExtension>
        </extensions>
      </trkpt>
      <trkpt lat="42.45509485714137554168701171875" lon="20.21216833032667636871337890625">
        <ele>1054.4000244140625</ele>
        <time>2026-06-20T12:57:39.000Z</time>
        <extensions>
          <ns3:TrackPointExtension>
            <ns3:atemp>30.0</ns3:atemp>
          </ns3:TrackPointExtension>
        </extensions>
      </trkpt>
      <trkpt lat="42.45509485714137554168701171875" lon="20.21216833032667636871337890625">
        <ele>1054.4000244140625</ele>
        <time>2026-06-20T12:57:40.000Z</time>
        <extensions>
          <ns3:TrackPointExtension>
            <ns3:atemp>30.0</ns3:atemp>
          </ns3:TrackPointExtension>
        </extensions>
      </trkpt>
      <trkpt lat="42.45509485714137554168701171875" lon="20.21216833032667636871337890625">
        <ele>1054.199951171875</ele>
        <time>2026-06-20T12:57:41.000Z</time>
        <extensions>
          <ns3:TrackPointExtension>
            <ns3:atemp>30.0</ns3:atemp>
          </ns3:TrackPointExtension>
        </extensions>
      </trkpt>
      <trkpt lat="42.45509485714137554168701171875" lon="20.21216833032667636871337890625">
        <ele>1054</ele>
        <time>2026-06-20T12:57:42.000Z</time>
        <extensions>
          <ns3:TrackPointExtension>
            <ns3:atemp>30.0</ns3:atemp>
          </ns3:TrackPointExtension>
        </extensions>
      </trkpt>
      <trkpt lat="42.45509485714137554168701171875" lon="20.21216833032667636871337890625">
        <ele>1053.800048828125</ele>
        <time>2026-06-20T12:57:43.000Z</time>
        <extensions>
          <ns3:TrackPointExtension>
            <ns3:atemp>30.0</ns3:atemp>
          </ns3:TrackPointExtension>
        </extensions>
      </trkpt>
      <trkpt lat="42.45509485714137554168701171875" lon="20.21216833032667636871337890625">
        <ele>1053.800048828125</ele>
        <time>2026-06-20T12:57:44.000Z</time>
        <extensions>
          <ns3:TrackPointExtension>
            <ns3:atemp>30.0</ns3:atemp>
          </ns3:TrackPointExtension>
        </extensions>
      </trkpt>
      <trkpt lat="42.45509485714137554168701171875" lon="20.21216833032667636871337890625">
        <ele>1053.800048828125</ele>
        <time>2026-06-20T12:57:45.000Z</time>
        <extensions>
          <ns3:TrackPointExtension>
            <ns3:atemp>30.0</ns3:atemp>
          </ns3:TrackPointExtension>
        </extensions>
      </trkpt>
      <trkpt lat="42.45509485714137554168701171875" lon="20.21216833032667636871337890625">
        <ele>1053.5999755859375</ele>
        <time>2026-06-20T12:57:46.000Z</time>
        <extensions>
          <ns3:TrackPointExtension>
            <ns3:atemp>30.0</ns3:atemp>
          </ns3:TrackPointExtension>
        </extensions>
      </trkpt>
      <trkpt lat="42.45509485714137554168701171875" lon="20.21216833032667636871337890625">
        <ele>1053.5999755859375</ele>
        <time>2026-06-20T12:57:47.000Z</time>
        <extensions>
          <ns3:TrackPointExtension>
            <ns3:atemp>30.0</ns3:atemp>
          </ns3:TrackPointExtension>
        </extensions>
      </trkpt>
      <trkpt lat="42.45509485714137554168701171875" lon="20.21216833032667636871337890625">
        <ele>1053.5999755859375</ele>
        <time>2026-06-20T12:57:48.000Z</time>
        <extensions>
          <ns3:TrackPointExtension>
            <ns3:atemp>30.0</ns3:atemp>
          </ns3:TrackPointExtension>
        </extensions>
      </trkpt>
      <trkpt lat="42.45509485714137554168701171875" lon="20.21216833032667636871337890625">
        <ele>1053.5999755859375</ele>
        <time>2026-06-20T12:57:49.000Z</time>
        <extensions>
          <ns3:TrackPointExtension>
            <ns3:atemp>30.0</ns3:atemp>
          </ns3:TrackPointExtension>
        </extensions>
      </trkpt>
      <trkpt lat="42.45509485714137554168701171875" lon="20.21216833032667636871337890625">
        <ele>1053.4000244140625</ele>
        <time>2026-06-20T12:57:50.000Z</time>
        <extensions>
          <ns3:TrackPointExtension>
            <ns3:atemp>30.0</ns3:atemp>
          </ns3:TrackPointExtension>
        </extensions>
      </trkpt>
      <trkpt lat="42.45509485714137554168701171875" lon="20.21216833032667636871337890625">
        <ele>1053.4000244140625</ele>
        <time>2026-06-20T12:57:51.000Z</time>
        <extensions>
          <ns3:TrackPointExtension>
            <ns3:atemp>30.0</ns3:atemp>
          </ns3:TrackPointExtension>
        </extensions>
      </trkpt>
      <trkpt lat="42.45509485714137554168701171875" lon="20.21216833032667636871337890625">
        <ele>1053.4000244140625</ele>
        <time>2026-06-20T12:57:52.000Z</time>
        <extensions>
          <ns3:TrackPointExtension>
            <ns3:atemp>30.0</ns3:atemp>
          </ns3:TrackPointExtension>
        </extensions>
      </trkpt>
      <trkpt lat="42.45509485714137554168701171875" lon="20.21216833032667636871337890625">
        <ele>1053.199951171875</ele>
        <time>2026-06-20T12:57:53.000Z</time>
        <extensions>
          <ns3:TrackPointExtension>
            <ns3:atemp>30.0</ns3:atemp>
          </ns3:TrackPointExtension>
        </extensions>
      </trkpt>
      <trkpt lat="42.45509485714137554168701171875" lon="20.21216833032667636871337890625">
        <ele>1053.199951171875</ele>
        <time>2026-06-20T12:57:54.000Z</time>
        <extensions>
          <ns3:TrackPointExtension>
            <ns3:atemp>30.0</ns3:atemp>
          </ns3:TrackPointExtension>
        </extensions>
      </trkpt>
      <trkpt lat="42.45509485714137554168701171875" lon="20.21216833032667636871337890625">
        <ele>1053.199951171875</ele>
        <time>2026-06-20T12:57:55.000Z</time>
        <extensions>
          <ns3:TrackPointExtension>
            <ns3:atemp>30.0</ns3:atemp>
          </ns3:TrackPointExtension>
        </extensions>
      </trkpt>
      <trkpt lat="42.45509485714137554168701171875" lon="20.21216833032667636871337890625">
        <ele>1053.199951171875</ele>
        <time>2026-06-20T12:57:56.000Z</time>
        <extensions>
          <ns3:TrackPointExtension>
            <ns3:atemp>30.0</ns3:atemp>
          </ns3:TrackPointExtension>
        </extensions>
      </trkpt>
      <trkpt lat="42.45509485714137554168701171875" lon="20.21216833032667636871337890625">
        <ele>1053.199951171875</ele>
        <time>2026-06-20T12:57:57.000Z</time>
        <extensions>
          <ns3:TrackPointExtension>
            <ns3:atemp>30.0</ns3:atemp>
          </ns3:TrackPointExtension>
        </extensions>
      </trkpt>
      <trkpt lat="42.45509485714137554168701171875" lon="20.21216833032667636871337890625">
        <ele>1053.199951171875</ele>
        <time>2026-06-20T12:57:58.000Z</time>
        <extensions>
          <ns3:TrackPointExtension>
            <ns3:atemp>30.0</ns3:atemp>
          </ns3:TrackPointExtension>
        </extensions>
      </trkpt>
      <trkpt lat="42.45509485714137554168701171875" lon="20.21216833032667636871337890625">
        <ele>1053.199951171875</ele>
        <time>2026-06-20T12:57:59.000Z</time>
        <extensions>
          <ns3:TrackPointExtension>
            <ns3:atemp>30.0</ns3:atemp>
          </ns3:TrackPointExtension>
        </extensions>
      </trkpt>
      <trkpt lat="42.45509485714137554168701171875" lon="20.21216833032667636871337890625">
        <ele>1053.199951171875</ele>
        <time>2026-06-20T12:58:00.000Z</time>
        <extensions>
          <ns3:TrackPointExtension>
            <ns3:atemp>30.0</ns3:atemp>
          </ns3:TrackPointExtension>
        </extensions>
      </trkpt>
      <trkpt lat="42.455092929303646087646484375" lon="20.21218635141849517822265625">
        <ele>1053.199951171875</ele>
        <time>2026-06-20T12:58:01.000Z</time>
        <extensions>
          <ns3:TrackPointExtension>
            <ns3:atemp>30.0</ns3:atemp>
          </ns3:TrackPointExtension>
        </extensions>
      </trkpt>
      <trkpt lat="42.4550927616655826568603515625" lon="20.21218677051365375518798828125">
        <ele>1053.199951171875</ele>
        <time>2026-06-20T12:58:02.000Z</time>
        <extensions>
          <ns3:TrackPointExtension>
            <ns3:atemp>30.0</ns3:atemp>
          </ns3:TrackPointExtension>
        </extensions>
      </trkpt>
      <trkpt lat="42.45509267784655094146728515625" lon="20.2121871896088123321533203125">
        <ele>1053.199951171875</ele>
        <time>2026-06-20T12:58:03.000Z</time>
        <extensions>
          <ns3:TrackPointExtension>
            <ns3:atemp>30.0</ns3:atemp>
          </ns3:TrackPointExtension>
        </extensions>
      </trkpt>
      <trkpt lat="42.4550877325236797332763671875" lon="20.2122006006538867950439453125">
        <ele>1053.199951171875</ele>
        <time>2026-06-20T12:58:04.000Z</time>
        <extensions>
          <ns3:TrackPointExtension>
            <ns3:atemp>30.0</ns3:atemp>
          </ns3:TrackPointExtension>
        </extensions>
      </trkpt>
      <trkpt lat="42.45508463121950626373291015625" lon="20.212204791605472564697265625">
        <ele>1053.199951171875</ele>
        <time>2026-06-20T12:58:05.000Z</time>
        <extensions>
          <ns3:TrackPointExtension>
            <ns3:atemp>30.0</ns3:atemp>
          </ns3:TrackPointExtension>
        </extensions>
      </trkpt>
      <trkpt lat="42.45508454740047454833984375" lon="20.212204791605472564697265625">
        <ele>1053.199951171875</ele>
        <time>2026-06-20T12:58:06.000Z</time>
        <extensions>
          <ns3:TrackPointExtension>
            <ns3:atemp>30.0</ns3:atemp>
          </ns3:TrackPointExtension>
        </extensions>
      </trkpt>
      <trkpt lat="42.4550806917250156402587890625" lon="20.21220386959612369537353515625">
        <ele>1053.4000244140625</ele>
        <time>2026-06-20T12:58:07.000Z</time>
        <extensions>
          <ns3:TrackPointExtension>
            <ns3:atemp>30.0</ns3:atemp>
          </ns3:TrackPointExtension>
        </extensions>
      </trkpt>
      <trkpt lat="42.4550766684114933013916015625" lon="20.2122029475867748260498046875">
        <ele>1053.4000244140625</ele>
        <time>2026-06-20T12:58:08.000Z</time>
        <extensions>
          <ns3:TrackPointExtension>
            <ns3:atemp>30.0</ns3:atemp>
          </ns3:TrackPointExtension>
        </extensions>
      </trkpt>
      <trkpt lat="42.4550766684114933013916015625" lon="20.2122029475867748260498046875">
        <ele>1053.4000244140625</ele>
        <time>2026-06-20T12:58:09.000Z</time>
        <extensions>
          <ns3:TrackPointExtension>
            <ns3:atemp>30.0</ns3:atemp>
          </ns3:TrackPointExtension>
        </extensions>
      </trkpt>
      <trkpt lat="42.4550766684114933013916015625" lon="20.2122029475867748260498046875">
        <ele>1053.4000244140625</ele>
        <time>2026-06-20T12:58:10.000Z</time>
        <extensions>
          <ns3:TrackPointExtension>
            <ns3:atemp>30.0</ns3:atemp>
          </ns3:TrackPointExtension>
        </extensions>
      </trkpt>
      <trkpt lat="42.4550766684114933013916015625" lon="20.2122029475867748260498046875">
        <ele>1053.4000244140625</ele>
        <time>2026-06-20T12:58:11.000Z</time>
        <extensions>
          <ns3:TrackPointExtension>
            <ns3:atemp>30.0</ns3:atemp>
          </ns3:TrackPointExtension>
        </extensions>
      </trkpt>
      <trkpt lat="42.4550766684114933013916015625" lon="20.2122029475867748260498046875">
        <ele>1053.199951171875</ele>
        <time>2026-06-20T12:58:12.000Z</time>
        <extensions>
          <ns3:TrackPointExtension>
            <ns3:atemp>30.0</ns3:atemp>
          </ns3:TrackPointExtension>
        </extensions>
      </trkpt>
      <trkpt lat="42.4550766684114933013916015625" lon="20.2122029475867748260498046875">
        <ele>1053.199951171875</ele>
        <time>2026-06-20T12:58:13.000Z</time>
        <extensions>
          <ns3:TrackPointExtension>
            <ns3:atemp>30.0</ns3:atemp>
          </ns3:TrackPointExtension>
        </extensions>
      </trkpt>
      <trkpt lat="42.4550766684114933013916015625" lon="20.2122029475867748260498046875">
        <ele>1053.199951171875</ele>
        <time>2026-06-20T12:58:14.000Z</time>
        <extensions>
          <ns3:TrackPointExtension>
            <ns3:atemp>30.0</ns3:atemp>
          </ns3:TrackPointExtension>
        </extensions>
      </trkpt>
      <trkpt lat="42.4550766684114933013916015625" lon="20.2122029475867748260498046875">
        <ele>1053.199951171875</ele>
        <time>2026-06-20T12:58:15.000Z</time>
        <extensions>
          <ns3:TrackPointExtension>
            <ns3:atemp>30.0</ns3:atemp>
          </ns3:TrackPointExtension>
        </extensions>
      </trkpt>
      <trkpt lat="42.4550766684114933013916015625" lon="20.2122029475867748260498046875">
        <ele>1053.199951171875</ele>
        <time>2026-06-20T12:58:16.000Z</time>
        <extensions>
          <ns3:TrackPointExtension>
            <ns3:atemp>30.0</ns3:atemp>
          </ns3:TrackPointExtension>
        </extensions>
      </trkpt>
      <trkpt lat="42.4550766684114933013916015625" lon="20.2122029475867748260498046875">
        <ele>1053.4000244140625</ele>
        <time>2026-06-20T12:58:17.000Z</time>
        <extensions>
          <ns3:TrackPointExtension>
            <ns3:atemp>30.0</ns3:atemp>
          </ns3:TrackPointExtension>
        </extensions>
      </trkpt>
      <trkpt lat="42.4550766684114933013916015625" lon="20.2122029475867748260498046875">
        <ele>1053.4000244140625</ele>
        <time>2026-06-20T12:58:18.000Z</time>
        <extensions>
          <ns3:TrackPointExtension>
            <ns3:atemp>30.0</ns3:atemp>
          </ns3:TrackPointExtension>
        </extensions>
      </trkpt>
      <trkpt lat="42.4550766684114933013916015625" lon="20.2122029475867748260498046875">
        <ele>1053.4000244140625</ele>
        <time>2026-06-20T12:58:19.000Z</time>
        <extensions>
          <ns3:TrackPointExtension>
            <ns3:atemp>30.0</ns3:atemp>
          </ns3:TrackPointExtension>
        </extensions>
      </trkpt>
      <trkpt lat="42.4550766684114933013916015625" lon="20.2122029475867748260498046875">
        <ele>1053.4000244140625</ele>
        <time>2026-06-20T12:58:20.000Z</time>
        <extensions>
          <ns3:TrackPointExtension>
            <ns3:atemp>30.0</ns3:atemp>
          </ns3:TrackPointExtension>
        </extensions>
      </trkpt>
      <trkpt lat="42.4550766684114933013916015625" lon="20.2122029475867748260498046875">
        <ele>1053.4000244140625</ele>
        <time>2026-06-20T12:58:21.000Z</time>
        <extensions>
          <ns3:TrackPointExtension>
            <ns3:atemp>30.0</ns3:atemp>
          </ns3:TrackPointExtension>
        </extensions>
      </trkpt>
      <trkpt lat="42.4550766684114933013916015625" lon="20.2122029475867748260498046875">
        <ele>1053.4000244140625</ele>
        <time>2026-06-20T12:58:22.000Z</time>
        <extensions>
          <ns3:TrackPointExtension>
            <ns3:atemp>30.0</ns3:atemp>
          </ns3:TrackPointExtension>
        </extensions>
      </trkpt>
      <trkpt lat="42.4550766684114933013916015625" lon="20.2122029475867748260498046875">
        <ele>1053.4000244140625</ele>
        <time>2026-06-20T12:58:23.000Z</time>
        <extensions>
          <ns3:TrackPointExtension>
            <ns3:atemp>30.0</ns3:atemp>
          </ns3:TrackPointExtension>
        </extensions>
      </trkpt>
      <trkpt lat="42.4550766684114933013916015625" lon="20.2122029475867748260498046875">
        <ele>1053.4000244140625</ele>
        <time>2026-06-20T12:58:24.000Z</time>
        <extensions>
          <ns3:TrackPointExtension>
            <ns3:atemp>30.0</ns3:atemp>
          </ns3:TrackPointExtension>
        </extensions>
      </trkpt>
      <trkpt lat="42.4550766684114933013916015625" lon="20.2122029475867748260498046875">
        <ele>1053.4000244140625</ele>
        <time>2026-06-20T12:58:25.000Z</time>
        <extensions>
          <ns3:TrackPointExtension>
            <ns3:atemp>30.0</ns3:atemp>
          </ns3:TrackPointExtension>
        </extensions>
      </trkpt>
      <trkpt lat="42.4550766684114933013916015625" lon="20.2122029475867748260498046875">
        <ele>1053.4000244140625</ele>
        <time>2026-06-20T12:58:26.000Z</time>
        <extensions>
          <ns3:TrackPointExtension>
            <ns3:atemp>30.0</ns3:atemp>
          </ns3:TrackPointExtension>
        </extensions>
      </trkpt>
      <trkpt lat="42.4550766684114933013916015625" lon="20.2122029475867748260498046875">
        <ele>1053.4000244140625</ele>
        <time>2026-06-20T12:58:27.000Z</time>
        <extensions>
          <ns3:TrackPointExtension>
            <ns3:atemp>30.0</ns3:atemp>
          </ns3:TrackPointExtension>
        </extensions>
      </trkpt>
      <trkpt lat="42.4550766684114933013916015625" lon="20.2122029475867748260498046875">
        <ele>1053.4000244140625</ele>
        <time>2026-06-20T12:58:28.000Z</time>
        <extensions>
          <ns3:TrackPointExtension>
            <ns3:atemp>30.0</ns3:atemp>
          </ns3:TrackPointExtension>
        </extensions>
      </trkpt>
      <trkpt lat="42.4550766684114933013916015625" lon="20.2122029475867748260498046875">
        <ele>1053.4000244140625</ele>
        <time>2026-06-20T12:58:29.000Z</time>
        <extensions>
          <ns3:TrackPointExtension>
            <ns3:atemp>30.0</ns3:atemp>
          </ns3:TrackPointExtension>
        </extensions>
      </trkpt>
      <trkpt lat="42.4550766684114933013916015625" lon="20.2122029475867748260498046875">
        <ele>1053.4000244140625</ele>
        <time>2026-06-20T12:58:30.000Z</time>
        <extensions>
          <ns3:TrackPointExtension>
            <ns3:atemp>30.0</ns3:atemp>
          </ns3:TrackPointExtension>
        </extensions>
      </trkpt>
      <trkpt lat="42.4550766684114933013916015625" lon="20.2122029475867748260498046875">
        <ele>1053.4000244140625</ele>
        <time>2026-06-20T12:58:31.000Z</time>
        <extensions>
          <ns3:TrackPointExtension>
            <ns3:atemp>30.0</ns3:atemp>
          </ns3:TrackPointExtension>
        </extensions>
      </trkpt>
      <trkpt lat="42.4550766684114933013916015625" lon="20.2122029475867748260498046875">
        <ele>1053.4000244140625</ele>
        <time>2026-06-20T12:58:32.000Z</time>
        <extensions>
          <ns3:TrackPointExtension>
            <ns3:atemp>30.0</ns3:atemp>
          </ns3:TrackPointExtension>
        </extensions>
      </trkpt>
      <trkpt lat="42.4550766684114933013916015625" lon="20.2122029475867748260498046875">
        <ele>1053.199951171875</ele>
        <time>2026-06-20T12:58:33.000Z</time>
        <extensions>
          <ns3:TrackPointExtension>
            <ns3:atemp>30.0</ns3:atemp>
          </ns3:TrackPointExtension>
        </extensions>
      </trkpt>
      <trkpt lat="42.4550766684114933013916015625" lon="20.2122029475867748260498046875">
        <ele>1053.199951171875</ele>
        <time>2026-06-20T12:58:34.000Z</time>
        <extensions>
          <ns3:TrackPointExtension>
            <ns3:atemp>30.0</ns3:atemp>
          </ns3:TrackPointExtension>
        </extensions>
      </trkpt>
      <trkpt lat="42.4550766684114933013916015625" lon="20.2122029475867748260498046875">
        <ele>1053.199951171875</ele>
        <time>2026-06-20T12:58:35.000Z</time>
        <extensions>
          <ns3:TrackPointExtension>
            <ns3:atemp>30.0</ns3:atemp>
          </ns3:TrackPointExtension>
        </extensions>
      </trkpt>
      <trkpt lat="42.4550766684114933013916015625" lon="20.2122029475867748260498046875">
        <ele>1053.199951171875</ele>
        <time>2026-06-20T12:58:36.000Z</time>
        <extensions>
          <ns3:TrackPointExtension>
            <ns3:atemp>30.0</ns3:atemp>
          </ns3:TrackPointExtension>
        </extensions>
      </trkpt>
      <trkpt lat="42.4550766684114933013916015625" lon="20.2122029475867748260498046875">
        <ele>1053.199951171875</ele>
        <time>2026-06-20T12:58:37.000Z</time>
        <extensions>
          <ns3:TrackPointExtension>
            <ns3:atemp>30.0</ns3:atemp>
          </ns3:TrackPointExtension>
        </extensions>
      </trkpt>
      <trkpt lat="42.4550766684114933013916015625" lon="20.2122029475867748260498046875">
        <ele>1053.4000244140625</ele>
        <time>2026-06-20T12:58:38.000Z</time>
        <extensions>
          <ns3:TrackPointExtension>
            <ns3:atemp>30.0</ns3:atemp>
          </ns3:TrackPointExtension>
        </extensions>
      </trkpt>
      <trkpt lat="42.4550766684114933013916015625" lon="20.2122029475867748260498046875">
        <ele>1053.4000244140625</ele>
        <time>2026-06-20T12:58:39.000Z</time>
        <extensions>
          <ns3:TrackPointExtension>
            <ns3:atemp>30.0</ns3:atemp>
          </ns3:TrackPointExtension>
        </extensions>
      </trkpt>
      <trkpt lat="42.4550766684114933013916015625" lon="20.2122029475867748260498046875">
        <ele>1053.4000244140625</ele>
        <time>2026-06-20T12:58:40.000Z</time>
        <extensions>
          <ns3:TrackPointExtension>
            <ns3:atemp>30.0</ns3:atemp>
          </ns3:TrackPointExtension>
        </extensions>
      </trkpt>
      <trkpt lat="42.4550766684114933013916015625" lon="20.2122029475867748260498046875">
        <ele>1053.4000244140625</ele>
        <time>2026-06-20T12:58:41.000Z</time>
        <extensions>
          <ns3:TrackPointExtension>
            <ns3:atemp>30.0</ns3:atemp>
          </ns3:TrackPointExtension>
        </extensions>
      </trkpt>
      <trkpt lat="42.4550766684114933013916015625" lon="20.2122029475867748260498046875">
        <ele>1053.199951171875</ele>
        <time>2026-06-20T12:58:42.000Z</time>
        <extensions>
          <ns3:TrackPointExtension>
            <ns3:atemp>30.0</ns3:atemp>
          </ns3:TrackPointExtension>
        </extensions>
      </trkpt>
      <trkpt lat="42.4550766684114933013916015625" lon="20.2122029475867748260498046875">
        <ele>1053.199951171875</ele>
        <time>2026-06-20T12:58:43.000Z</time>
        <extensions>
          <ns3:TrackPointExtension>
            <ns3:atemp>30.0</ns3:atemp>
          </ns3:TrackPointExtension>
        </extensions>
      </trkpt>
      <trkpt lat="42.4550766684114933013916015625" lon="20.2122029475867748260498046875">
        <ele>1053.199951171875</ele>
        <time>2026-06-20T12:58:44.000Z</time>
        <extensions>
          <ns3:TrackPointExtension>
            <ns3:atemp>30.0</ns3:atemp>
          </ns3:TrackPointExtension>
        </extensions>
      </trkpt>
      <trkpt lat="42.4550766684114933013916015625" lon="20.2122029475867748260498046875">
        <ele>1053.4000244140625</ele>
        <time>2026-06-20T12:58:45.000Z</time>
        <extensions>
          <ns3:TrackPointExtension>
            <ns3:atemp>30.0</ns3:atemp>
          </ns3:TrackPointExtension>
        </extensions>
      </trkpt>
      <trkpt lat="42.4550766684114933013916015625" lon="20.2122029475867748260498046875">
        <ele>1053.4000244140625</ele>
        <time>2026-06-20T12:58:46.000Z</time>
        <extensions>
          <ns3:TrackPointExtension>
            <ns3:atemp>30.0</ns3:atemp>
          </ns3:TrackPointExtension>
        </extensions>
      </trkpt>
      <trkpt lat="42.4550766684114933013916015625" lon="20.2122029475867748260498046875">
        <ele>1053.4000244140625</ele>
        <time>2026-06-20T12:58:47.000Z</time>
        <extensions>
          <ns3:TrackPointExtension>
            <ns3:atemp>30.0</ns3:atemp>
          </ns3:TrackPointExtension>
        </extensions>
      </trkpt>
      <trkpt lat="42.4550766684114933013916015625" lon="20.2122029475867748260498046875">
        <ele>1053.199951171875</ele>
        <time>2026-06-20T12:58:48.000Z</time>
        <extensions>
          <ns3:TrackPointExtension>
            <ns3:atemp>30.0</ns3:atemp>
          </ns3:TrackPointExtension>
        </extensions>
      </trkpt>
      <trkpt lat="42.4550766684114933013916015625" lon="20.2122029475867748260498046875">
        <ele>1053.199951171875</ele>
        <time>2026-06-20T12:58:49.000Z</time>
        <extensions>
          <ns3:TrackPointExtension>
            <ns3:atemp>30.0</ns3:atemp>
          </ns3:TrackPointExtension>
        </extensions>
      </trkpt>
      <trkpt lat="42.4550766684114933013916015625" lon="20.2122029475867748260498046875">
        <ele>1053.199951171875</ele>
        <time>2026-06-20T12:58:50.000Z</time>
        <extensions>
          <ns3:TrackPointExtension>
            <ns3:atemp>30.0</ns3:atemp>
          </ns3:TrackPointExtension>
        </extensions>
      </trkpt>
      <trkpt lat="42.4550766684114933013916015625" lon="20.2122029475867748260498046875">
        <ele>1053.199951171875</ele>
        <time>2026-06-20T12:58:51.000Z</time>
        <extensions>
          <ns3:TrackPointExtension>
            <ns3:atemp>30.0</ns3:atemp>
          </ns3:TrackPointExtension>
        </extensions>
      </trkpt>
      <trkpt lat="42.4550766684114933013916015625" lon="20.2122029475867748260498046875">
        <ele>1053.199951171875</ele>
        <time>2026-06-20T12:58:52.000Z</time>
        <extensions>
          <ns3:TrackPointExtension>
            <ns3:atemp>30.0</ns3:atemp>
          </ns3:TrackPointExtension>
        </extensions>
      </trkpt>
      <trkpt lat="42.4550766684114933013916015625" lon="20.2122029475867748260498046875">
        <ele>1053.199951171875</ele>
        <time>2026-06-20T12:58:53.000Z</time>
        <extensions>
          <ns3:TrackPointExtension>
            <ns3:atemp>30.0</ns3:atemp>
          </ns3:TrackPointExtension>
        </extensions>
      </trkpt>
      <trkpt lat="42.4550766684114933013916015625" lon="20.2122029475867748260498046875">
        <ele>1053.199951171875</ele>
        <time>2026-06-20T12:58:54.000Z</time>
        <extensions>
          <ns3:TrackPointExtension>
            <ns3:atemp>30.0</ns3:atemp>
          </ns3:TrackPointExtension>
        </extensions>
      </trkpt>
      <trkpt lat="42.4550766684114933013916015625" lon="20.2122029475867748260498046875">
        <ele>1053.199951171875</ele>
        <time>2026-06-20T12:58:55.000Z</time>
        <extensions>
          <ns3:TrackPointExtension>
            <ns3:atemp>30.0</ns3:atemp>
          </ns3:TrackPointExtension>
        </extensions>
      </trkpt>
      <trkpt lat="42.4550766684114933013916015625" lon="20.2122029475867748260498046875">
        <ele>1053.199951171875</ele>
        <time>2026-06-20T12:58:56.000Z</time>
        <extensions>
          <ns3:TrackPointExtension>
            <ns3:atemp>30.0</ns3:atemp>
          </ns3:TrackPointExtension>
        </extensions>
      </trkpt>
      <trkpt lat="42.4550766684114933013916015625" lon="20.2122029475867748260498046875">
        <ele>1053.199951171875</ele>
        <time>2026-06-20T12:58:57.000Z</time>
        <extensions>
          <ns3:TrackPointExtension>
            <ns3:atemp>30.0</ns3:atemp>
          </ns3:TrackPointExtension>
        </extensions>
      </trkpt>
      <trkpt lat="42.4550766684114933013916015625" lon="20.2122029475867748260498046875">
        <ele>1053.199951171875</ele>
        <time>2026-06-20T12:58:58.000Z</time>
        <extensions>
          <ns3:TrackPointExtension>
            <ns3:atemp>31.0</ns3:atemp>
          </ns3:TrackPointExtension>
        </extensions>
      </trkpt>
      <trkpt lat="42.4550766684114933013916015625" lon="20.2122029475867748260498046875">
        <ele>1053.4000244140625</ele>
        <time>2026-06-20T12:58:59.000Z</time>
        <extensions>
          <ns3:TrackPointExtension>
            <ns3:atemp>31.0</ns3:atemp>
          </ns3:TrackPointExtension>
        </extensions>
      </trkpt>
      <trkpt lat="42.4550766684114933013916015625" lon="20.2122029475867748260498046875">
        <ele>1053.4000244140625</ele>
        <time>2026-06-20T12:59:00.000Z</time>
        <extensions>
          <ns3:TrackPointExtension>
            <ns3:atemp>31.0</ns3:atemp>
          </ns3:TrackPointExtension>
        </extensions>
      </trkpt>
      <trkpt lat="42.4550766684114933013916015625" lon="20.2122029475867748260498046875">
        <ele>1053.4000244140625</ele>
        <time>2026-06-20T12:59:01.000Z</time>
        <extensions>
          <ns3:TrackPointExtension>
            <ns3:atemp>31.0</ns3:atemp>
          </ns3:TrackPointExtension>
        </extensions>
      </trkpt>
      <trkpt lat="42.4550766684114933013916015625" lon="20.2122029475867748260498046875">
        <ele>1053.4000244140625</ele>
        <time>2026-06-20T12:59:02.000Z</time>
        <extensions>
          <ns3:TrackPointExtension>
            <ns3:atemp>31.0</ns3:atemp>
          </ns3:TrackPointExtension>
        </extensions>
      </trkpt>
      <trkpt lat="42.4550766684114933013916015625" lon="20.2122029475867748260498046875">
        <ele>1053.4000244140625</ele>
        <time>2026-06-20T12:59:03.000Z</time>
        <extensions>
          <ns3:TrackPointExtension>
            <ns3:atemp>31.0</ns3:atemp>
          </ns3:TrackPointExtension>
        </extensions>
      </trkpt>
      <trkpt lat="42.4550766684114933013916015625" lon="20.2122029475867748260498046875">
        <ele>1053.4000244140625</ele>
        <time>2026-06-20T12:59:04.000Z</time>
        <extensions>
          <ns3:TrackPointExtension>
            <ns3:atemp>31.0</ns3:atemp>
          </ns3:TrackPointExtension>
        </extensions>
      </trkpt>
      <trkpt lat="42.4550766684114933013916015625" lon="20.2122029475867748260498046875">
        <ele>1053.4000244140625</ele>
        <time>2026-06-20T12:59:05.000Z</time>
        <extensions>
          <ns3:TrackPointExtension>
            <ns3:atemp>31.0</ns3:atemp>
          </ns3:TrackPointExtension>
        </extensions>
      </trkpt>
      <trkpt lat="42.4550766684114933013916015625" lon="20.2122029475867748260498046875">
        <ele>1053.4000244140625</ele>
        <time>2026-06-20T12:59:06.000Z</time>
        <extensions>
          <ns3:TrackPointExtension>
            <ns3:atemp>30.0</ns3:atemp>
          </ns3:TrackPointExtension>
        </extensions>
      </trkpt>
      <trkpt lat="42.4550766684114933013916015625" lon="20.2122029475867748260498046875">
        <ele>1053.199951171875</ele>
        <time>2026-06-20T12:59:07.000Z</time>
        <extensions>
          <ns3:TrackPointExtension>
            <ns3:atemp>31.0</ns3:atemp>
          </ns3:TrackPointExtension>
        </extensions>
      </trkpt>
      <trkpt lat="42.4550766684114933013916015625" lon="20.2122029475867748260498046875">
        <ele>1053.199951171875</ele>
        <time>2026-06-20T12:59:08.000Z</time>
        <extensions>
          <ns3:TrackPointExtension>
            <ns3:atemp>31.0</ns3:atemp>
          </ns3:TrackPointExtension>
        </extensions>
      </trkpt>
      <trkpt lat="42.4550766684114933013916015625" lon="20.2122029475867748260498046875">
        <ele>1053.199951171875</ele>
        <time>2026-06-20T12:59:09.000Z</time>
        <extensions>
          <ns3:TrackPointExtension>
            <ns3:atemp>31.0</ns3:atemp>
          </ns3:TrackPointExtension>
        </extensions>
      </trkpt>
      <trkpt lat="42.4550766684114933013916015625" lon="20.2122029475867748260498046875">
        <ele>1053.199951171875</ele>
        <time>2026-06-20T12:59:10.000Z</time>
        <extensions>
          <ns3:TrackPointExtension>
            <ns3:atemp>31.0</ns3:atemp>
          </ns3:TrackPointExtension>
        </extensions>
      </trkpt>
      <trkpt lat="42.4550766684114933013916015625" lon="20.2122029475867748260498046875">
        <ele>1053.199951171875</ele>
        <time>2026-06-20T12:59:11.000Z</time>
        <extensions>
          <ns3:TrackPointExtension>
            <ns3:atemp>31.0</ns3:atemp>
          </ns3:TrackPointExtension>
        </extensions>
      </trkpt>
      <trkpt lat="42.4550766684114933013916015625" lon="20.2122029475867748260498046875">
        <ele>1053.199951171875</ele>
        <time>2026-06-20T12:59:12.000Z</time>
        <extensions>
          <ns3:TrackPointExtension>
            <ns3:atemp>31.0</ns3:atemp>
          </ns3:TrackPointExtension>
        </extensions>
      </trkpt>
      <trkpt lat="42.4550766684114933013916015625" lon="20.2122029475867748260498046875">
        <ele>1053.199951171875</ele>
        <time>2026-06-20T12:59:13.000Z</time>
        <extensions>
          <ns3:TrackPointExtension>
            <ns3:atemp>31.0</ns3:atemp>
          </ns3:TrackPointExtension>
        </extensions>
      </trkpt>
      <trkpt lat="42.4550766684114933013916015625" lon="20.2122029475867748260498046875">
        <ele>1053.199951171875</ele>
        <time>2026-06-20T12:59:14.000Z</time>
        <extensions>
          <ns3:TrackPointExtension>
            <ns3:atemp>31.0</ns3:atemp>
          </ns3:TrackPointExtension>
        </extensions>
      </trkpt>
      <trkpt lat="42.4550766684114933013916015625" lon="20.2122029475867748260498046875">
        <ele>1053.199951171875</ele>
        <time>2026-06-20T12:59:15.000Z</time>
        <extensions>
          <ns3:TrackPointExtension>
            <ns3:atemp>31.0</ns3:atemp>
          </ns3:TrackPointExtension>
        </extensions>
      </trkpt>
      <trkpt lat="42.4550766684114933013916015625" lon="20.2122029475867748260498046875">
        <ele>1053.199951171875</ele>
        <time>2026-06-20T12:59:16.000Z</time>
        <extensions>
          <ns3:TrackPointExtension>
            <ns3:atemp>31.0</ns3:atemp>
          </ns3:TrackPointExtension>
        </extensions>
      </trkpt>
      <trkpt lat="42.4550766684114933013916015625" lon="20.2122029475867748260498046875">
        <ele>1053.199951171875</ele>
        <time>2026-06-20T12:59:17.000Z</time>
        <extensions>
          <ns3:TrackPointExtension>
            <ns3:atemp>31.0</ns3:atemp>
          </ns3:TrackPointExtension>
        </extensions>
      </trkpt>
      <trkpt lat="42.4550766684114933013916015625" lon="20.2122029475867748260498046875">
        <ele>1053.4000244140625</ele>
        <time>2026-06-20T12:59:18.000Z</time>
        <extensions>
          <ns3:TrackPointExtension>
            <ns3:atemp>31.0</ns3:atemp>
          </ns3:TrackPointExtension>
        </extensions>
      </trkpt>
      <trkpt lat="42.4550766684114933013916015625" lon="20.2122029475867748260498046875">
        <ele>1053.4000244140625</ele>
        <time>2026-06-20T12:59:19.000Z</time>
        <extensions>
          <ns3:TrackPointExtension>
            <ns3:atemp>31.0</ns3:atemp>
          </ns3:TrackPointExtension>
        </extensions>
      </trkpt>
      <trkpt lat="42.4550766684114933013916015625" lon="20.2122029475867748260498046875">
        <ele>1053.5999755859375</ele>
        <time>2026-06-20T12:59:20.000Z</time>
        <extensions>
          <ns3:TrackPointExtension>
            <ns3:atemp>31.0</ns3:atemp>
          </ns3:TrackPointExtension>
        </extensions>
      </trkpt>
      <trkpt lat="42.4550766684114933013916015625" lon="20.2122029475867748260498046875">
        <ele>1053.5999755859375</ele>
        <time>2026-06-20T12:59:21.000Z</time>
        <extensions>
          <ns3:TrackPointExtension>
            <ns3:atemp>31.0</ns3:atemp>
          </ns3:TrackPointExtension>
        </extensions>
      </trkpt>
      <trkpt lat="42.4550766684114933013916015625" lon="20.2122029475867748260498046875">
        <ele>1053.5999755859375</ele>
        <time>2026-06-20T12:59:22.000Z</time>
        <extensions>
          <ns3:TrackPointExtension>
            <ns3:atemp>31.0</ns3:atemp>
          </ns3:TrackPointExtension>
        </extensions>
      </trkpt>
      <trkpt lat="42.4550766684114933013916015625" lon="20.2122029475867748260498046875">
        <ele>1053.4000244140625</ele>
        <time>2026-06-20T12:59:23.000Z</time>
        <extensions>
          <ns3:TrackPointExtension>
            <ns3:atemp>31.0</ns3:atemp>
          </ns3:TrackPointExtension>
        </extensions>
      </trkpt>
      <trkpt lat="42.4550766684114933013916015625" lon="20.2122029475867748260498046875">
        <ele>1053.4000244140625</ele>
        <time>2026-06-20T12:59:24.000Z</time>
        <extensions>
          <ns3:TrackPointExtension>
            <ns3:atemp>31.0</ns3:atemp>
          </ns3:TrackPointExtension>
        </extensions>
      </trkpt>
      <trkpt lat="42.4550766684114933013916015625" lon="20.2122029475867748260498046875">
        <ele>1053.4000244140625</ele>
        <time>2026-06-20T12:59:25.000Z</time>
        <extensions>
          <ns3:TrackPointExtension>
            <ns3:atemp>31.0</ns3:atemp>
          </ns3:TrackPointExtension>
        </extensions>
      </trkpt>
      <trkpt lat="42.4550766684114933013916015625" lon="20.2122029475867748260498046875">
        <ele>1053.4000244140625</ele>
        <time>2026-06-20T12:59:26.000Z</time>
        <extensions>
          <ns3:TrackPointExtension>
            <ns3:atemp>31.0</ns3:atemp>
          </ns3:TrackPointExtension>
        </extensions>
      </trkpt>
      <trkpt lat="42.4550766684114933013916015625" lon="20.2122029475867748260498046875">
        <ele>1053.4000244140625</ele>
        <time>2026-06-20T12:59:27.000Z</time>
        <extensions>
          <ns3:TrackPointExtension>
            <ns3:atemp>31.0</ns3:atemp>
          </ns3:TrackPointExtension>
        </extensions>
      </trkpt>
      <trkpt lat="42.4550766684114933013916015625" lon="20.2122029475867748260498046875">
        <ele>1053.5999755859375</ele>
        <time>2026-06-20T12:59:28.000Z</time>
        <extensions>
          <ns3:TrackPointExtension>
            <ns3:atemp>31.0</ns3:atemp>
          </ns3:TrackPointExtension>
        </extensions>
      </trkpt>
      <trkpt lat="42.4550766684114933013916015625" lon="20.2122029475867748260498046875">
        <ele>1053.5999755859375</ele>
        <time>2026-06-20T12:59:29.000Z</time>
        <extensions>
          <ns3:TrackPointExtension>
            <ns3:atemp>31.0</ns3:atemp>
          </ns3:TrackPointExtension>
        </extensions>
      </trkpt>
      <trkpt lat="42.4550766684114933013916015625" lon="20.2122029475867748260498046875">
        <ele>1053.5999755859375</ele>
        <time>2026-06-20T12:59:30.000Z</time>
        <extensions>
          <ns3:TrackPointExtension>
            <ns3:atemp>31.0</ns3:atemp>
          </ns3:TrackPointExtension>
        </extensions>
      </trkpt>
      <trkpt lat="42.4550766684114933013916015625" lon="20.2122029475867748260498046875">
        <ele>1053.5999755859375</ele>
        <time>2026-06-20T12:59:31.000Z</time>
        <extensions>
          <ns3:TrackPointExtension>
            <ns3:atemp>31.0</ns3:atemp>
          </ns3:TrackPointExtension>
        </extensions>
      </trkpt>
      <trkpt lat="42.4550766684114933013916015625" lon="20.2122029475867748260498046875">
        <ele>1053.5999755859375</ele>
        <time>2026-06-20T12:59:32.000Z</time>
        <extensions>
          <ns3:TrackPointExtension>
            <ns3:atemp>31.0</ns3:atemp>
          </ns3:TrackPointExtension>
        </extensions>
      </trkpt>
      <trkpt lat="42.4550766684114933013916015625" lon="20.2122029475867748260498046875">
        <ele>1053.5999755859375</ele>
        <time>2026-06-20T12:59:33.000Z</time>
        <extensions>
          <ns3:TrackPointExtension>
            <ns3:atemp>31.0</ns3:atemp>
          </ns3:TrackPointExtension>
        </extensions>
      </trkpt>
      <trkpt lat="42.4550766684114933013916015625" lon="20.2122029475867748260498046875">
        <ele>1053.5999755859375</ele>
        <time>2026-06-20T12:59:34.000Z</time>
        <extensions>
          <ns3:TrackPointExtension>
            <ns3:atemp>31.0</ns3:atemp>
          </ns3:TrackPointExtension>
        </extensions>
      </trkpt>
      <trkpt lat="42.4550766684114933013916015625" lon="20.2122029475867748260498046875">
        <ele>1053.5999755859375</ele>
        <time>2026-06-20T12:59:35.000Z</time>
        <extensions>
          <ns3:TrackPointExtension>
            <ns3:atemp>31.0</ns3:atemp>
          </ns3:TrackPointExtension>
        </extensions>
      </trkpt>
      <trkpt lat="42.4550766684114933013916015625" lon="20.2122029475867748260498046875">
        <ele>1053.5999755859375</ele>
        <time>2026-06-20T12:59:36.000Z</time>
        <extensions>
          <ns3:TrackPointExtension>
            <ns3:atemp>31.0</ns3:atemp>
          </ns3:TrackPointExtension>
        </extensions>
      </trkpt>
      <trkpt lat="42.4550766684114933013916015625" lon="20.2122029475867748260498046875">
        <ele>1053.5999755859375</ele>
        <time>2026-06-20T12:59:37.000Z</time>
        <extensions>
          <ns3:TrackPointExtension>
            <ns3:atemp>31.0</ns3:atemp>
          </ns3:TrackPointExtension>
        </extensions>
      </trkpt>
      <trkpt lat="42.4550766684114933013916015625" lon="20.2122029475867748260498046875">
        <ele>1053.5999755859375</ele>
        <time>2026-06-20T12:59:38.000Z</time>
        <extensions>
          <ns3:TrackPointExtension>
            <ns3:atemp>31.0</ns3:atemp>
          </ns3:TrackPointExtension>
        </extensions>
      </trkpt>
      <trkpt lat="42.4550766684114933013916015625" lon="20.2122029475867748260498046875">
        <ele>1053.5999755859375</ele>
        <time>2026-06-20T12:59:39.000Z</time>
        <extensions>
          <ns3:TrackPointExtension>
            <ns3:atemp>31.0</ns3:atemp>
          </ns3:TrackPointExtension>
        </extensions>
      </trkpt>
      <trkpt lat="42.4550766684114933013916015625" lon="20.2122029475867748260498046875">
        <ele>1053.5999755859375</ele>
        <time>2026-06-20T12:59:40.000Z</time>
        <extensions>
          <ns3:TrackPointExtension>
            <ns3:atemp>31.0</ns3:atemp>
          </ns3:TrackPointExtension>
        </extensions>
      </trkpt>
      <trkpt lat="42.4550766684114933013916015625" lon="20.2122029475867748260498046875">
        <ele>1053.5999755859375</ele>
        <time>2026-06-20T12:59:41.000Z</time>
        <extensions>
          <ns3:TrackPointExtension>
            <ns3:atemp>31.0</ns3:atemp>
          </ns3:TrackPointExtension>
        </extensions>
      </trkpt>
      <trkpt lat="42.4550766684114933013916015625" lon="20.2122029475867748260498046875">
        <ele>1053.5999755859375</ele>
        <time>2026-06-20T12:59:42.000Z</time>
        <extensions>
          <ns3:TrackPointExtension>
            <ns3:atemp>31.0</ns3:atemp>
          </ns3:TrackPointExtension>
        </extensions>
      </trkpt>
      <trkpt lat="42.4550766684114933013916015625" lon="20.2122029475867748260498046875">
        <ele>1053.5999755859375</ele>
        <time>2026-06-20T12:59:43.000Z</time>
        <extensions>
          <ns3:TrackPointExtension>
            <ns3:atemp>31.0</ns3:atemp>
          </ns3:TrackPointExtension>
        </extensions>
      </trkpt>
      <trkpt lat="42.4550766684114933013916015625" lon="20.2122029475867748260498046875">
        <ele>1053.5999755859375</ele>
        <time>2026-06-20T12:59:44.000Z</time>
        <extensions>
          <ns3:TrackPointExtension>
            <ns3:atemp>31.0</ns3:atemp>
          </ns3:TrackPointExtension>
        </extensions>
      </trkpt>
      <trkpt lat="42.4550766684114933013916015625" lon="20.2122029475867748260498046875">
        <ele>1053.5999755859375</ele>
        <time>2026-06-20T12:59:45.000Z</time>
        <extensions>
          <ns3:TrackPointExtension>
            <ns3:atemp>31.0</ns3:atemp>
          </ns3:TrackPointExtension>
        </extensions>
      </trkpt>
      <trkpt lat="42.4550766684114933013916015625" lon="20.2122029475867748260498046875">
        <ele>1053.5999755859375</ele>
        <time>2026-06-20T12:59:46.000Z</time>
        <extensions>
          <ns3:TrackPointExtension>
            <ns3:atemp>31.0</ns3:atemp>
          </ns3:TrackPointExtension>
        </extensions>
      </trkpt>
      <trkpt lat="42.4550766684114933013916015625" lon="20.2122029475867748260498046875">
        <ele>1053.5999755859375</ele>
        <time>2026-06-20T12:59:47.000Z</time>
        <extensions>
          <ns3:TrackPointExtension>
            <ns3:atemp>31.0</ns3:atemp>
          </ns3:TrackPointExtension>
        </extensions>
      </trkpt>
      <trkpt lat="42.4550766684114933013916015625" lon="20.2122029475867748260498046875">
        <ele>1053.5999755859375</ele>
        <time>2026-06-20T12:59:48.000Z</time>
        <extensions>
          <ns3:TrackPointExtension>
            <ns3:atemp>31.0</ns3:atemp>
          </ns3:TrackPointExtension>
        </extensions>
      </trkpt>
      <trkpt lat="42.4550766684114933013916015625" lon="20.2122029475867748260498046875">
        <ele>1053.5999755859375</ele>
        <time>2026-06-20T12:59:49.000Z</time>
        <extensions>
          <ns3:TrackPointExtension>
            <ns3:atemp>31.0</ns3:atemp>
          </ns3:TrackPointExtension>
        </extensions>
      </trkpt>
      <trkpt lat="42.4550766684114933013916015625" lon="20.2122029475867748260498046875">
        <ele>1053.5999755859375</ele>
        <time>2026-06-20T12:59:50.000Z</time>
        <extensions>
          <ns3:TrackPointExtension>
            <ns3:atemp>31.0</ns3:atemp>
          </ns3:TrackPointExtension>
        </extensions>
      </trkpt>
      <trkpt lat="42.4550766684114933013916015625" lon="20.2122029475867748260498046875">
        <ele>1053.5999755859375</ele>
        <time>2026-06-20T12:59:51.000Z</time>
        <extensions>
          <ns3:TrackPointExtension>
            <ns3:atemp>31.0</ns3:atemp>
          </ns3:TrackPointExtension>
        </extensions>
      </trkpt>
      <trkpt lat="42.4550766684114933013916015625" lon="20.2122029475867748260498046875">
        <ele>1053.5999755859375</ele>
        <time>2026-06-20T12:59:52.000Z</time>
        <extensions>
          <ns3:TrackPointExtension>
            <ns3:atemp>31.0</ns3:atemp>
          </ns3:TrackPointExtension>
        </extensions>
      </trkpt>
      <trkpt lat="42.4550766684114933013916015625" lon="20.2122029475867748260498046875">
        <ele>1053.5999755859375</ele>
        <time>2026-06-20T12:59:53.000Z</time>
        <extensions>
          <ns3:TrackPointExtension>
            <ns3:atemp>31.0</ns3:atemp>
          </ns3:TrackPointExtension>
        </extensions>
      </trkpt>
      <trkpt lat="42.4550766684114933013916015625" lon="20.2122029475867748260498046875">
        <ele>1053.5999755859375</ele>
        <time>2026-06-20T12:59:54.000Z</time>
        <extensions>
          <ns3:TrackPointExtension>
            <ns3:atemp>31.0</ns3:atemp>
          </ns3:TrackPointExtension>
        </extensions>
      </trkpt>
      <trkpt lat="42.4550766684114933013916015625" lon="20.2122029475867748260498046875">
        <ele>1053.5999755859375</ele>
        <time>2026-06-20T12:59:55.000Z</time>
        <extensions>
          <ns3:TrackPointExtension>
            <ns3:atemp>31.0</ns3:atemp>
          </ns3:TrackPointExtension>
        </extensions>
      </trkpt>
      <trkpt lat="42.4550766684114933013916015625" lon="20.2122029475867748260498046875">
        <ele>1053.5999755859375</ele>
        <time>2026-06-20T12:59:56.000Z</time>
        <extensions>
          <ns3:TrackPointExtension>
            <ns3:atemp>31.0</ns3:atemp>
          </ns3:TrackPointExtension>
        </extensions>
      </trkpt>
      <trkpt lat="42.4550766684114933013916015625" lon="20.2122029475867748260498046875">
        <ele>1053.5999755859375</ele>
        <time>2026-06-20T12:59:57.000Z</time>
        <extensions>
          <ns3:TrackPointExtension>
            <ns3:atemp>31.0</ns3:atemp>
          </ns3:TrackPointExtension>
        </extensions>
      </trkpt>
      <trkpt lat="42.4550766684114933013916015625" lon="20.2122029475867748260498046875">
        <ele>1053.5999755859375</ele>
        <time>2026-06-20T12:59:58.000Z</time>
        <extensions>
          <ns3:TrackPointExtension>
            <ns3:atemp>31.0</ns3:atemp>
          </ns3:TrackPointExtension>
        </extensions>
      </trkpt>
      <trkpt lat="42.4550766684114933013916015625" lon="20.2122029475867748260498046875">
        <ele>1053.5999755859375</ele>
        <time>2026-06-20T12:59:59.000Z</time>
        <extensions>
          <ns3:TrackPointExtension>
            <ns3:atemp>31.0</ns3:atemp>
          </ns3:TrackPointExtension>
        </extensions>
      </trkpt>
      <trkpt lat="42.4550766684114933013916015625" lon="20.2122029475867748260498046875">
        <ele>1053.5999755859375</ele>
        <time>2026-06-20T13:00:00.000Z</time>
        <extensions>
          <ns3:TrackPointExtension>
            <ns3:atemp>31.0</ns3:atemp>
          </ns3:TrackPointExtension>
        </extensions>
      </trkpt>
      <trkpt lat="42.4550766684114933013916015625" lon="20.2122029475867748260498046875">
        <ele>1053.5999755859375</ele>
        <time>2026-06-20T13:00:01.000Z</time>
        <extensions>
          <ns3:TrackPointExtension>
            <ns3:atemp>31.0</ns3:atemp>
          </ns3:TrackPointExtension>
        </extensions>
      </trkpt>
      <trkpt lat="42.4550766684114933013916015625" lon="20.2122029475867748260498046875">
        <ele>1053.5999755859375</ele>
        <time>2026-06-20T13:00:02.000Z</time>
        <extensions>
          <ns3:TrackPointExtension>
            <ns3:atemp>31.0</ns3:atemp>
          </ns3:TrackPointExtension>
        </extensions>
      </trkpt>
      <trkpt lat="42.4550766684114933013916015625" lon="20.2122029475867748260498046875">
        <ele>1053.5999755859375</ele>
        <time>2026-06-20T13:00:03.000Z</time>
        <extensions>
          <ns3:TrackPointExtension>
            <ns3:atemp>31.0</ns3:atemp>
          </ns3:TrackPointExtension>
        </extensions>
      </trkpt>
      <trkpt lat="42.4550766684114933013916015625" lon="20.2122029475867748260498046875">
        <ele>1053.5999755859375</ele>
        <time>2026-06-20T13:00:04.000Z</time>
        <extensions>
          <ns3:TrackPointExtension>
            <ns3:atemp>31.0</ns3:atemp>
          </ns3:TrackPointExtension>
        </extensions>
      </trkpt>
      <trkpt lat="42.4550766684114933013916015625" lon="20.2122029475867748260498046875">
        <ele>1053.5999755859375</ele>
        <time>2026-06-20T13:00:05.000Z</time>
        <extensions>
          <ns3:TrackPointExtension>
            <ns3:atemp>31.0</ns3:atemp>
          </ns3:TrackPointExtension>
        </extensions>
      </trkpt>
      <trkpt lat="42.4550766684114933013916015625" lon="20.2122029475867748260498046875">
        <ele>1053.5999755859375</ele>
        <time>2026-06-20T13:00:06.000Z</time>
        <extensions>
          <ns3:TrackPointExtension>
            <ns3:atemp>31.0</ns3:atemp>
          </ns3:TrackPointExtension>
        </extensions>
      </trkpt>
      <trkpt lat="42.4550766684114933013916015625" lon="20.2122029475867748260498046875">
        <ele>1053.5999755859375</ele>
        <time>2026-06-20T13:00:07.000Z</time>
        <extensions>
          <ns3:TrackPointExtension>
            <ns3:atemp>31.0</ns3:atemp>
          </ns3:TrackPointExtension>
        </extensions>
      </trkpt>
      <trkpt lat="42.4550766684114933013916015625" lon="20.2122029475867748260498046875">
        <ele>1053.5999755859375</ele>
        <time>2026-06-20T13:00:08.000Z</time>
        <extensions>
          <ns3:TrackPointExtension>
            <ns3:atemp>31.0</ns3:atemp>
          </ns3:TrackPointExtension>
        </extensions>
      </trkpt>
      <trkpt lat="42.4550766684114933013916015625" lon="20.2122029475867748260498046875">
        <ele>1053.5999755859375</ele>
        <time>2026-06-20T13:00:09.000Z</time>
        <extensions>
          <ns3:TrackPointExtension>
            <ns3:atemp>31.0</ns3:atemp>
          </ns3:TrackPointExtension>
        </extensions>
      </trkpt>
      <trkpt lat="42.4550766684114933013916015625" lon="20.2122029475867748260498046875">
        <ele>1053.5999755859375</ele>
        <time>2026-06-20T13:00:10.000Z</time>
        <extensions>
          <ns3:TrackPointExtension>
            <ns3:atemp>31.0</ns3:atemp>
          </ns3:TrackPointExtension>
        </extensions>
      </trkpt>
      <trkpt lat="42.4550766684114933013916015625" lon="20.2122029475867748260498046875">
        <ele>1053.5999755859375</ele>
        <time>2026-06-20T13:00:11.000Z</time>
        <extensions>
          <ns3:TrackPointExtension>
            <ns3:atemp>31.0</ns3:atemp>
          </ns3:TrackPointExtension>
        </extensions>
      </trkpt>
      <trkpt lat="42.4550766684114933013916015625" lon="20.2122029475867748260498046875">
        <ele>1053.5999755859375</ele>
        <time>2026-06-20T13:00:12.000Z</time>
        <extensions>
          <ns3:TrackPointExtension>
            <ns3:atemp>31.0</ns3:atemp>
          </ns3:TrackPointExtension>
        </extensions>
      </trkpt>
      <trkpt lat="42.4550766684114933013916015625" lon="20.2122029475867748260498046875">
        <ele>1053.5999755859375</ele>
        <time>2026-06-20T13:00:13.000Z</time>
        <extensions>
          <ns3:TrackPointExtension>
            <ns3:atemp>31.0</ns3:atemp>
          </ns3:TrackPointExtension>
        </extensions>
      </trkpt>
      <trkpt lat="42.4550766684114933013916015625" lon="20.2122029475867748260498046875">
        <ele>1053.5999755859375</ele>
        <time>2026-06-20T13:00:14.000Z</time>
        <extensions>
          <ns3:TrackPointExtension>
            <ns3:atemp>31.0</ns3:atemp>
          </ns3:TrackPointExtension>
        </extensions>
      </trkpt>
      <trkpt lat="42.4550766684114933013916015625" lon="20.2122029475867748260498046875">
        <ele>1053.5999755859375</ele>
        <time>2026-06-20T13:00:15.000Z</time>
        <extensions>
          <ns3:TrackPointExtension>
            <ns3:atemp>31.0</ns3:atemp>
          </ns3:TrackPointExtension>
        </extensions>
      </trkpt>
      <trkpt lat="42.4550766684114933013916015625" lon="20.2122029475867748260498046875">
        <ele>1053.5999755859375</ele>
        <time>2026-06-20T13:00:16.000Z</time>
        <extensions>
          <ns3:TrackPointExtension>
            <ns3:atemp>31.0</ns3:atemp>
          </ns3:TrackPointExtension>
        </extensions>
      </trkpt>
      <trkpt lat="42.4550766684114933013916015625" lon="20.2122029475867748260498046875">
        <ele>1053.5999755859375</ele>
        <time>2026-06-20T13:00:17.000Z</time>
        <extensions>
          <ns3:TrackPointExtension>
            <ns3:atemp>31.0</ns3:atemp>
          </ns3:TrackPointExtension>
        </extensions>
      </trkpt>
      <trkpt lat="42.4550766684114933013916015625" lon="20.2122029475867748260498046875">
        <ele>1053.5999755859375</ele>
        <time>2026-06-20T13:00:18.000Z</time>
        <extensions>
          <ns3:TrackPointExtension>
            <ns3:atemp>31.0</ns3:atemp>
          </ns3:TrackPointExtension>
        </extensions>
      </trkpt>
      <trkpt lat="42.4550766684114933013916015625" lon="20.2122029475867748260498046875">
        <ele>1053.5999755859375</ele>
        <time>2026-06-20T13:00:19.000Z</time>
        <extensions>
          <ns3:TrackPointExtension>
            <ns3:atemp>31.0</ns3:atemp>
          </ns3:TrackPointExtension>
        </extensions>
      </trkpt>
      <trkpt lat="42.4550766684114933013916015625" lon="20.2122029475867748260498046875">
        <ele>1053.5999755859375</ele>
        <time>2026-06-20T13:00:20.000Z</time>
        <extensions>
          <ns3:TrackPointExtension>
            <ns3:atemp>31.0</ns3:atemp>
          </ns3:TrackPointExtension>
        </extensions>
      </trkpt>
      <trkpt lat="42.4550766684114933013916015625" lon="20.2122029475867748260498046875">
        <ele>1053.5999755859375</ele>
        <time>2026-06-20T13:00:21.000Z</time>
        <extensions>
          <ns3:TrackPointExtension>
            <ns3:atemp>31.0</ns3:atemp>
          </ns3:TrackPointExtension>
        </extensions>
      </trkpt>
      <trkpt lat="42.4550766684114933013916015625" lon="20.2122029475867748260498046875">
        <ele>1053.5999755859375</ele>
        <time>2026-06-20T13:00:22.000Z</time>
        <extensions>
          <ns3:TrackPointExtension>
            <ns3:atemp>31.0</ns3:atemp>
          </ns3:TrackPointExtension>
        </extensions>
      </trkpt>
      <trkpt lat="42.4550766684114933013916015625" lon="20.2122029475867748260498046875">
        <ele>1053.5999755859375</ele>
        <time>2026-06-20T13:00:23.000Z</time>
        <extensions>
          <ns3:TrackPointExtension>
            <ns3:atemp>31.0</ns3:atemp>
          </ns3:TrackPointExtension>
        </extensions>
      </trkpt>
      <trkpt lat="42.4550766684114933013916015625" lon="20.2122029475867748260498046875">
        <ele>1053.5999755859375</ele>
        <time>2026-06-20T13:00:24.000Z</time>
        <extensions>
          <ns3:TrackPointExtension>
            <ns3:atemp>31.0</ns3:atemp>
          </ns3:TrackPointExtension>
        </extensions>
      </trkpt>
      <trkpt lat="42.4550766684114933013916015625" lon="20.2122029475867748260498046875">
        <ele>1053.5999755859375</ele>
        <time>2026-06-20T13:00:25.000Z</time>
        <extensions>
          <ns3:TrackPointExtension>
            <ns3:atemp>31.0</ns3:atemp>
          </ns3:TrackPointExtension>
        </extensions>
      </trkpt>
      <trkpt lat="42.4550766684114933013916015625" lon="20.2122029475867748260498046875">
        <ele>1053.5999755859375</ele>
        <time>2026-06-20T13:00:26.000Z</time>
        <extensions>
          <ns3:TrackPointExtension>
            <ns3:atemp>31.0</ns3:atemp>
          </ns3:TrackPointExtension>
        </extensions>
      </trkpt>
      <trkpt lat="42.4550766684114933013916015625" lon="20.2122029475867748260498046875">
        <ele>1053.5999755859375</ele>
        <time>2026-06-20T13:00:27.000Z</time>
        <extensions>
          <ns3:TrackPointExtension>
            <ns3:atemp>31.0</ns3:atemp>
          </ns3:TrackPointExtension>
        </extensions>
      </trkpt>
      <trkpt lat="42.4550766684114933013916015625" lon="20.2122029475867748260498046875">
        <ele>1053.5999755859375</ele>
        <time>2026-06-20T13:00:28.000Z</time>
        <extensions>
          <ns3:TrackPointExtension>
            <ns3:atemp>31.0</ns3:atemp>
          </ns3:TrackPointExtension>
        </extensions>
      </trkpt>
      <trkpt lat="42.4550766684114933013916015625" lon="20.2122029475867748260498046875">
        <ele>1053.5999755859375</ele>
        <time>2026-06-20T13:00:29.000Z</time>
        <extensions>
          <ns3:TrackPointExtension>
            <ns3:atemp>31.0</ns3:atemp>
          </ns3:TrackPointExtension>
        </extensions>
      </trkpt>
      <trkpt lat="42.4550766684114933013916015625" lon="20.2122029475867748260498046875">
        <ele>1053.5999755859375</ele>
        <time>2026-06-20T13:00:30.000Z</time>
        <extensions>
          <ns3:TrackPointExtension>
            <ns3:atemp>31.0</ns3:atemp>
          </ns3:TrackPointExtension>
        </extensions>
      </trkpt>
      <trkpt lat="42.4550766684114933013916015625" lon="20.2122029475867748260498046875">
        <ele>1053.5999755859375</ele>
        <time>2026-06-20T13:00:31.000Z</time>
        <extensions>
          <ns3:TrackPointExtension>
            <ns3:atemp>31.0</ns3:atemp>
          </ns3:TrackPointExtension>
        </extensions>
      </trkpt>
      <trkpt lat="42.4550766684114933013916015625" lon="20.2122029475867748260498046875">
        <ele>1053.5999755859375</ele>
        <time>2026-06-20T13:00:32.000Z</time>
        <extensions>
          <ns3:TrackPointExtension>
            <ns3:atemp>31.0</ns3:atemp>
          </ns3:TrackPointExtension>
        </extensions>
      </trkpt>
      <trkpt lat="42.4550766684114933013916015625" lon="20.2122029475867748260498046875">
        <ele>1053.5999755859375</ele>
        <time>2026-06-20T13:00:33.000Z</time>
        <extensions>
          <ns3:TrackPointExtension>
            <ns3:atemp>31.0</ns3:atemp>
          </ns3:TrackPointExtension>
        </extensions>
      </trkpt>
      <trkpt lat="42.4550766684114933013916015625" lon="20.2122029475867748260498046875">
        <ele>1053.5999755859375</ele>
        <time>2026-06-20T13:00:34.000Z</time>
        <extensions>
          <ns3:TrackPointExtension>
            <ns3:atemp>31.0</ns3:atemp>
          </ns3:TrackPointExtension>
        </extensions>
      </trkpt>
      <trkpt lat="42.4550766684114933013916015625" lon="20.2122029475867748260498046875">
        <ele>1053.5999755859375</ele>
        <time>2026-06-20T13:00:35.000Z</time>
        <extensions>
          <ns3:TrackPointExtension>
            <ns3:atemp>31.0</ns3:atemp>
          </ns3:TrackPointExtension>
        </extensions>
      </trkpt>
      <trkpt lat="42.4550766684114933013916015625" lon="20.2122029475867748260498046875">
        <ele>1053.5999755859375</ele>
        <time>2026-06-20T13:00:36.000Z</time>
        <extensions>
          <ns3:TrackPointExtension>
            <ns3:atemp>31.0</ns3:atemp>
          </ns3:TrackPointExtension>
        </extensions>
      </trkpt>
      <trkpt lat="42.4550766684114933013916015625" lon="20.2122029475867748260498046875">
        <ele>1053.5999755859375</ele>
        <time>2026-06-20T13:00:37.000Z</time>
        <extensions>
          <ns3:TrackPointExtension>
            <ns3:atemp>31.0</ns3:atemp>
          </ns3:TrackPointExtension>
        </extensions>
      </trkpt>
      <trkpt lat="42.4550766684114933013916015625" lon="20.2122029475867748260498046875">
        <ele>1053.5999755859375</ele>
        <time>2026-06-20T13:00:38.000Z</time>
        <extensions>
          <ns3:TrackPointExtension>
            <ns3:atemp>31.0</ns3:atemp>
          </ns3:TrackPointExtension>
        </extensions>
      </trkpt>
      <trkpt lat="42.4550766684114933013916015625" lon="20.2122029475867748260498046875">
        <ele>1053.5999755859375</ele>
        <time>2026-06-20T13:00:39.000Z</time>
        <extensions>
          <ns3:TrackPointExtension>
            <ns3:atemp>31.0</ns3:atemp>
          </ns3:TrackPointExtension>
        </extensions>
      </trkpt>
      <trkpt lat="42.4550766684114933013916015625" lon="20.2122029475867748260498046875">
        <ele>1053.5999755859375</ele>
        <time>2026-06-20T13:00:40.000Z</time>
        <extensions>
          <ns3:TrackPointExtension>
            <ns3:atemp>31.0</ns3:atemp>
          </ns3:TrackPointExtension>
        </extensions>
      </trkpt>
      <trkpt lat="42.4550766684114933013916015625" lon="20.2122029475867748260498046875">
        <ele>1053.5999755859375</ele>
        <time>2026-06-20T13:00:41.000Z</time>
        <extensions>
          <ns3:TrackPointExtension>
            <ns3:atemp>31.0</ns3:atemp>
          </ns3:TrackPointExtension>
        </extensions>
      </trkpt>
      <trkpt lat="42.4550766684114933013916015625" lon="20.2122029475867748260498046875">
        <ele>1053.5999755859375</ele>
        <time>2026-06-20T13:00:42.000Z</time>
        <extensions>
          <ns3:TrackPointExtension>
            <ns3:atemp>31.0</ns3:atemp>
          </ns3:TrackPointExtension>
        </extensions>
      </trkpt>
      <trkpt lat="42.4550766684114933013916015625" lon="20.2122029475867748260498046875">
        <ele>1053.5999755859375</ele>
        <time>2026-06-20T13:00:43.000Z</time>
        <extensions>
          <ns3:TrackPointExtension>
            <ns3:atemp>31.0</ns3:atemp>
          </ns3:TrackPointExtension>
        </extensions>
      </trkpt>
      <trkpt lat="42.4550766684114933013916015625" lon="20.2122029475867748260498046875">
        <ele>1053.5999755859375</ele>
        <time>2026-06-20T13:00:44.000Z</time>
        <extensions>
          <ns3:TrackPointExtension>
            <ns3:atemp>31.0</ns3:atemp>
          </ns3:TrackPointExtension>
        </extensions>
      </trkpt>
      <trkpt lat="42.4550766684114933013916015625" lon="20.2122029475867748260498046875">
        <ele>1053.5999755859375</ele>
        <time>2026-06-20T13:00:45.000Z</time>
        <extensions>
          <ns3:TrackPointExtension>
            <ns3:atemp>31.0</ns3:atemp>
          </ns3:TrackPointExtension>
        </extensions>
      </trkpt>
      <trkpt lat="42.4550766684114933013916015625" lon="20.2122029475867748260498046875">
        <ele>1053.5999755859375</ele>
        <time>2026-06-20T13:00:46.000Z</time>
        <extensions>
          <ns3:TrackPointExtension>
            <ns3:atemp>31.0</ns3:atemp>
          </ns3:TrackPointExtension>
        </extensions>
      </trkpt>
      <trkpt lat="42.4550766684114933013916015625" lon="20.2122029475867748260498046875">
        <ele>1053.5999755859375</ele>
        <time>2026-06-20T13:00:47.000Z</time>
        <extensions>
          <ns3:TrackPointExtension>
            <ns3:atemp>31.0</ns3:atemp>
          </ns3:TrackPointExtension>
        </extensions>
      </trkpt>
      <trkpt lat="42.4550766684114933013916015625" lon="20.2122029475867748260498046875">
        <ele>1053.5999755859375</ele>
        <time>2026-06-20T13:00:48.000Z</time>
        <extensions>
          <ns3:TrackPointExtension>
            <ns3:atemp>31.0</ns3:atemp>
          </ns3:TrackPointExtension>
        </extensions>
      </trkpt>
      <trkpt lat="42.4550766684114933013916015625" lon="20.2122029475867748260498046875">
        <ele>1053.5999755859375</ele>
        <time>2026-06-20T13:00:49.000Z</time>
        <extensions>
          <ns3:TrackPointExtension>
            <ns3:atemp>31.0</ns3:atemp>
          </ns3:TrackPointExtension>
        </extensions>
      </trkpt>
      <trkpt lat="42.4550766684114933013916015625" lon="20.2122029475867748260498046875">
        <ele>1053.5999755859375</ele>
        <time>2026-06-20T13:00:50.000Z</time>
        <extensions>
          <ns3:TrackPointExtension>
            <ns3:atemp>31.0</ns3:atemp>
          </ns3:TrackPointExtension>
        </extensions>
      </trkpt>
      <trkpt lat="42.4550766684114933013916015625" lon="20.2122029475867748260498046875">
        <ele>1053.5999755859375</ele>
        <time>2026-06-20T13:00:51.000Z</time>
        <extensions>
          <ns3:TrackPointExtension>
            <ns3:atemp>31.0</ns3:atemp>
          </ns3:TrackPointExtension>
        </extensions>
      </trkpt>
      <trkpt lat="42.4550766684114933013916015625" lon="20.2122029475867748260498046875">
        <ele>1053.5999755859375</ele>
        <time>2026-06-20T13:00:52.000Z</time>
        <extensions>
          <ns3:TrackPointExtension>
            <ns3:atemp>31.0</ns3:atemp>
          </ns3:TrackPointExtension>
        </extensions>
      </trkpt>
      <trkpt lat="42.4550766684114933013916015625" lon="20.2122029475867748260498046875">
        <ele>1053.5999755859375</ele>
        <time>2026-06-20T13:00:53.000Z</time>
        <extensions>
          <ns3:TrackPointExtension>
            <ns3:atemp>31.0</ns3:atemp>
          </ns3:TrackPointExtension>
        </extensions>
      </trkpt>
      <trkpt lat="42.4550766684114933013916015625" lon="20.2122029475867748260498046875">
        <ele>1053.5999755859375</ele>
        <time>2026-06-20T13:00:54.000Z</time>
        <extensions>
          <ns3:TrackPointExtension>
            <ns3:atemp>31.0</ns3:atemp>
          </ns3:TrackPointExtension>
        </extensions>
      </trkpt>
      <trkpt lat="42.4550766684114933013916015625" lon="20.2122029475867748260498046875">
        <ele>1053.5999755859375</ele>
        <time>2026-06-20T13:00:55.000Z</time>
        <extensions>
          <ns3:TrackPointExtension>
            <ns3:atemp>31.0</ns3:atemp>
          </ns3:TrackPointExtension>
        </extensions>
      </trkpt>
      <trkpt lat="42.4550766684114933013916015625" lon="20.2122029475867748260498046875">
        <ele>1053.5999755859375</ele>
        <time>2026-06-20T13:00:56.000Z</time>
        <extensions>
          <ns3:TrackPointExtension>
            <ns3:atemp>31.0</ns3:atemp>
          </ns3:TrackPointExtension>
        </extensions>
      </trkpt>
      <trkpt lat="42.4550766684114933013916015625" lon="20.2122029475867748260498046875">
        <ele>1053.5999755859375</ele>
        <time>2026-06-20T13:00:57.000Z</time>
        <extensions>
          <ns3:TrackPointExtension>
            <ns3:atemp>31.0</ns3:atemp>
          </ns3:TrackPointExtension>
        </extensions>
      </trkpt>
      <trkpt lat="42.4550766684114933013916015625" lon="20.2122029475867748260498046875">
        <ele>1053.5999755859375</ele>
        <time>2026-06-20T13:00:58.000Z</time>
        <extensions>
          <ns3:TrackPointExtension>
            <ns3:atemp>31.0</ns3:atemp>
          </ns3:TrackPointExtension>
        </extensions>
      </trkpt>
      <trkpt lat="42.4550766684114933013916015625" lon="20.2122029475867748260498046875">
        <ele>1053.5999755859375</ele>
        <time>2026-06-20T13:00:59.000Z</time>
        <extensions>
          <ns3:TrackPointExtension>
            <ns3:atemp>31.0</ns3:atemp>
          </ns3:TrackPointExtension>
        </extensions>
      </trkpt>
      <trkpt lat="42.4550766684114933013916015625" lon="20.2122029475867748260498046875">
        <ele>1053.5999755859375</ele>
        <time>2026-06-20T13:01:00.000Z</time>
        <extensions>
          <ns3:TrackPointExtension>
            <ns3:atemp>31.0</ns3:atemp>
          </ns3:TrackPointExtension>
        </extensions>
      </trkpt>
      <trkpt lat="42.4550766684114933013916015625" lon="20.2122029475867748260498046875">
        <ele>1053.5999755859375</ele>
        <time>2026-06-20T13:01:01.000Z</time>
        <extensions>
          <ns3:TrackPointExtension>
            <ns3:atemp>31.0</ns3:atemp>
          </ns3:TrackPointExtension>
        </extensions>
      </trkpt>
      <trkpt lat="42.4550766684114933013916015625" lon="20.2122029475867748260498046875">
        <ele>1053.5999755859375</ele>
        <time>2026-06-20T13:01:02.000Z</time>
        <extensions>
          <ns3:TrackPointExtension>
            <ns3:atemp>31.0</ns3:atemp>
          </ns3:TrackPointExtension>
        </extensions>
      </trkpt>
      <trkpt lat="42.4550766684114933013916015625" lon="20.2122029475867748260498046875">
        <ele>1053.5999755859375</ele>
        <time>2026-06-20T13:01:03.000Z</time>
        <extensions>
          <ns3:TrackPointExtension>
            <ns3:atemp>31.0</ns3:atemp>
          </ns3:TrackPointExtension>
        </extensions>
      </trkpt>
      <trkpt lat="42.4550766684114933013916015625" lon="20.2122029475867748260498046875">
        <ele>1053.5999755859375</ele>
        <time>2026-06-20T13:01:04.000Z</time>
        <extensions>
          <ns3:TrackPointExtension>
            <ns3:atemp>31.0</ns3:atemp>
          </ns3:TrackPointExtension>
        </extensions>
      </trkpt>
      <trkpt lat="42.4550766684114933013916015625" lon="20.2122029475867748260498046875">
        <ele>1053.5999755859375</ele>
        <time>2026-06-20T13:01:05.000Z</time>
        <extensions>
          <ns3:TrackPointExtension>
            <ns3:atemp>31.0</ns3:atemp>
          </ns3:TrackPointExtension>
        </extensions>
      </trkpt>
      <trkpt lat="42.4550766684114933013916015625" lon="20.2122029475867748260498046875">
        <ele>1053.5999755859375</ele>
        <time>2026-06-20T13:01:06.000Z</time>
        <extensions>
          <ns3:TrackPointExtension>
            <ns3:atemp>31.0</ns3:atemp>
          </ns3:TrackPointExtension>
        </extensions>
      </trkpt>
      <trkpt lat="42.4550766684114933013916015625" lon="20.2122029475867748260498046875">
        <ele>1053.5999755859375</ele>
        <time>2026-06-20T13:01:07.000Z</time>
        <extensions>
          <ns3:TrackPointExtension>
            <ns3:atemp>31.0</ns3:atemp>
          </ns3:TrackPointExtension>
        </extensions>
      </trkpt>
      <trkpt lat="42.4550766684114933013916015625" lon="20.2122029475867748260498046875">
        <ele>1053.5999755859375</ele>
        <time>2026-06-20T13:01:08.000Z</time>
        <extensions>
          <ns3:TrackPointExtension>
            <ns3:atemp>31.0</ns3:atemp>
          </ns3:TrackPointExtension>
        </extensions>
      </trkpt>
      <trkpt lat="42.4550766684114933013916015625" lon="20.2122029475867748260498046875">
        <ele>1053.5999755859375</ele>
        <time>2026-06-20T13:01:09.000Z</time>
        <extensions>
          <ns3:TrackPointExtension>
            <ns3:atemp>31.0</ns3:atemp>
          </ns3:TrackPointExtension>
        </extensions>
      </trkpt>
      <trkpt lat="42.4550766684114933013916015625" lon="20.2122029475867748260498046875">
        <ele>1053.5999755859375</ele>
        <time>2026-06-20T13:01:10.000Z</time>
        <extensions>
          <ns3:TrackPointExtension>
            <ns3:atemp>31.0</ns3:atemp>
          </ns3:TrackPointExtension>
        </extensions>
      </trkpt>
      <trkpt lat="42.4550766684114933013916015625" lon="20.2122029475867748260498046875">
        <ele>1053.5999755859375</ele>
        <time>2026-06-20T13:01:11.000Z</time>
        <extensions>
          <ns3:TrackPointExtension>
            <ns3:atemp>31.0</ns3:atemp>
          </ns3:TrackPointExtension>
        </extensions>
      </trkpt>
      <trkpt lat="42.4550766684114933013916015625" lon="20.2122029475867748260498046875">
        <ele>1053.5999755859375</ele>
        <time>2026-06-20T13:01:12.000Z</time>
        <extensions>
          <ns3:TrackPointExtension>
            <ns3:atemp>31.0</ns3:atemp>
          </ns3:TrackPointExtension>
        </extensions>
      </trkpt>
      <trkpt lat="42.4550766684114933013916015625" lon="20.2122029475867748260498046875">
        <ele>1053.5999755859375</ele>
        <time>2026-06-20T13:01:13.000Z</time>
        <extensions>
          <ns3:TrackPointExtension>
            <ns3:atemp>31.0</ns3:atemp>
          </ns3:TrackPointExtension>
        </extensions>
      </trkpt>
      <trkpt lat="42.4550766684114933013916015625" lon="20.2122029475867748260498046875">
        <ele>1053.5999755859375</ele>
        <time>2026-06-20T13:01:14.000Z</time>
        <extensions>
          <ns3:TrackPointExtension>
            <ns3:atemp>31.0</ns3:atemp>
          </ns3:TrackPointExtension>
        </extensions>
      </trkpt>
      <trkpt lat="42.4550766684114933013916015625" lon="20.2122029475867748260498046875">
        <ele>1053.5999755859375</ele>
        <time>2026-06-20T13:01:15.000Z</time>
        <extensions>
          <ns3:TrackPointExtension>
            <ns3:atemp>31.0</ns3:atemp>
          </ns3:TrackPointExtension>
        </extensions>
      </trkpt>
      <trkpt lat="42.4550766684114933013916015625" lon="20.2122029475867748260498046875">
        <ele>1053.5999755859375</ele>
        <time>2026-06-20T13:01:16.000Z</time>
        <extensions>
          <ns3:TrackPointExtension>
            <ns3:atemp>31.0</ns3:atemp>
          </ns3:TrackPointExtension>
        </extensions>
      </trkpt>
      <trkpt lat="42.4550766684114933013916015625" lon="20.2122029475867748260498046875">
        <ele>1053.5999755859375</ele>
        <time>2026-06-20T13:01:17.000Z</time>
        <extensions>
          <ns3:TrackPointExtension>
            <ns3:atemp>31.0</ns3:atemp>
          </ns3:TrackPointExtension>
        </extensions>
      </trkpt>
      <trkpt lat="42.4550766684114933013916015625" lon="20.2122029475867748260498046875">
        <ele>1053.5999755859375</ele>
        <time>2026-06-20T13:01:18.000Z</time>
        <extensions>
          <ns3:TrackPointExtension>
            <ns3:atemp>31.0</ns3:atemp>
          </ns3:TrackPointExtension>
        </extensions>
      </trkpt>
      <trkpt lat="42.4550766684114933013916015625" lon="20.2122029475867748260498046875">
        <ele>1053.5999755859375</ele>
        <time>2026-06-20T13:01:19.000Z</time>
        <extensions>
          <ns3:TrackPointExtension>
            <ns3:atemp>31.0</ns3:atemp>
          </ns3:TrackPointExtension>
        </extensions>
      </trkpt>
      <trkpt lat="42.4550766684114933013916015625" lon="20.2122029475867748260498046875">
        <ele>1053.5999755859375</ele>
        <time>2026-06-20T13:01:20.000Z</time>
        <extensions>
          <ns3:TrackPointExtension>
            <ns3:atemp>31.0</ns3:atemp>
          </ns3:TrackPointExtension>
        </extensions>
      </trkpt>
      <trkpt lat="42.4550766684114933013916015625" lon="20.2122029475867748260498046875">
        <ele>1053.5999755859375</ele>
        <time>2026-06-20T13:01:21.000Z</time>
        <extensions>
          <ns3:TrackPointExtension>
            <ns3:atemp>31.0</ns3:atemp>
          </ns3:TrackPointExtension>
        </extensions>
      </trkpt>
      <trkpt lat="42.4550766684114933013916015625" lon="20.2122029475867748260498046875">
        <ele>1053.5999755859375</ele>
        <time>2026-06-20T13:01:22.000Z</time>
        <extensions>
          <ns3:TrackPointExtension>
            <ns3:atemp>31.0</ns3:atemp>
          </ns3:TrackPointExtension>
        </extensions>
      </trkpt>
      <trkpt lat="42.4550766684114933013916015625" lon="20.2122029475867748260498046875">
        <ele>1053.5999755859375</ele>
        <time>2026-06-20T13:01:23.000Z</time>
        <extensions>
          <ns3:TrackPointExtension>
            <ns3:atemp>31.0</ns3:atemp>
          </ns3:TrackPointExtension>
        </extensions>
      </trkpt>
      <trkpt lat="42.4550766684114933013916015625" lon="20.2122029475867748260498046875">
        <ele>1053.5999755859375</ele>
        <time>2026-06-20T13:01:24.000Z</time>
        <extensions>
          <ns3:TrackPointExtension>
            <ns3:atemp>31.0</ns3:atemp>
          </ns3:TrackPointExtension>
        </extensions>
      </trkpt>
      <trkpt lat="42.4550766684114933013916015625" lon="20.2122029475867748260498046875">
        <ele>1053.5999755859375</ele>
        <time>2026-06-20T13:01:25.000Z</time>
        <extensions>
          <ns3:TrackPointExtension>
            <ns3:atemp>31.0</ns3:atemp>
          </ns3:TrackPointExtension>
        </extensions>
      </trkpt>
      <trkpt lat="42.4550766684114933013916015625" lon="20.2122029475867748260498046875">
        <ele>1053.5999755859375</ele>
        <time>2026-06-20T13:01:26.000Z</time>
        <extensions>
          <ns3:TrackPointExtension>
            <ns3:atemp>31.0</ns3:atemp>
          </ns3:TrackPointExtension>
        </extensions>
      </trkpt>
      <trkpt lat="42.4550766684114933013916015625" lon="20.2122029475867748260498046875">
        <ele>1053.5999755859375</ele>
        <time>2026-06-20T13:01:27.000Z</time>
        <extensions>
          <ns3:TrackPointExtension>
            <ns3:atemp>31.0</ns3:atemp>
          </ns3:TrackPointExtension>
        </extensions>
      </trkpt>
      <trkpt lat="42.4550766684114933013916015625" lon="20.2122029475867748260498046875">
        <ele>1053.5999755859375</ele>
        <time>2026-06-20T13:01:28.000Z</time>
        <extensions>
          <ns3:TrackPointExtension>
            <ns3:atemp>31.0</ns3:atemp>
          </ns3:TrackPointExtension>
        </extensions>
      </trkpt>
      <trkpt lat="42.4550766684114933013916015625" lon="20.2122029475867748260498046875">
        <ele>1053.5999755859375</ele>
        <time>2026-06-20T13:01:29.000Z</time>
        <extensions>
          <ns3:TrackPointExtension>
            <ns3:atemp>31.0</ns3:atemp>
          </ns3:TrackPointExtension>
        </extensions>
      </trkpt>
      <trkpt lat="42.4550766684114933013916015625" lon="20.2122029475867748260498046875">
        <ele>1053.5999755859375</ele>
        <time>2026-06-20T13:01:30.000Z</time>
        <extensions>
          <ns3:TrackPointExtension>
            <ns3:atemp>31.0</ns3:atemp>
          </ns3:TrackPointExtension>
        </extensions>
      </trkpt>
      <trkpt lat="42.4550766684114933013916015625" lon="20.2122029475867748260498046875">
        <ele>1053.5999755859375</ele>
        <time>2026-06-20T13:01:31.000Z</time>
        <extensions>
          <ns3:TrackPointExtension>
            <ns3:atemp>31.0</ns3:atemp>
          </ns3:TrackPointExtension>
        </extensions>
      </trkpt>
      <trkpt lat="42.4550766684114933013916015625" lon="20.2122029475867748260498046875">
        <ele>1053.5999755859375</ele>
        <time>2026-06-20T13:01:32.000Z</time>
        <extensions>
          <ns3:TrackPointExtension>
            <ns3:atemp>31.0</ns3:atemp>
          </ns3:TrackPointExtension>
        </extensions>
      </trkpt>
      <trkpt lat="42.4550766684114933013916015625" lon="20.2122029475867748260498046875">
        <ele>1053.5999755859375</ele>
        <time>2026-06-20T13:01:33.000Z</time>
        <extensions>
          <ns3:TrackPointExtension>
            <ns3:atemp>31.0</ns3:atemp>
          </ns3:TrackPointExtension>
        </extensions>
      </trkpt>
      <trkpt lat="42.4550766684114933013916015625" lon="20.2122029475867748260498046875">
        <ele>1053.5999755859375</ele>
        <time>2026-06-20T13:01:34.000Z</time>
        <extensions>
          <ns3:TrackPointExtension>
            <ns3:atemp>31.0</ns3:atemp>
          </ns3:TrackPointExtension>
        </extensions>
      </trkpt>
      <trkpt lat="42.4550766684114933013916015625" lon="20.2122029475867748260498046875">
        <ele>1053.5999755859375</ele>
        <time>2026-06-20T13:01:35.000Z</time>
        <extensions>
          <ns3:TrackPointExtension>
            <ns3:atemp>31.0</ns3:atemp>
          </ns3:TrackPointExtension>
        </extensions>
      </trkpt>
      <trkpt lat="42.4550766684114933013916015625" lon="20.2122029475867748260498046875">
        <ele>1053.5999755859375</ele>
        <time>2026-06-20T13:01:36.000Z</time>
        <extensions>
          <ns3:TrackPointExtension>
            <ns3:atemp>31.0</ns3:atemp>
          </ns3:TrackPointExtension>
        </extensions>
      </trkpt>
      <trkpt lat="42.4550766684114933013916015625" lon="20.2122029475867748260498046875">
        <ele>1053.5999755859375</ele>
        <time>2026-06-20T13:01:37.000Z</time>
        <extensions>
          <ns3:TrackPointExtension>
            <ns3:atemp>31.0</ns3:atemp>
          </ns3:TrackPointExtension>
        </extensions>
      </trkpt>
      <trkpt lat="42.4550766684114933013916015625" lon="20.2122029475867748260498046875">
        <ele>1053.5999755859375</ele>
        <time>2026-06-20T13:01:38.000Z</time>
        <extensions>
          <ns3:TrackPointExtension>
            <ns3:atemp>31.0</ns3:atemp>
          </ns3:TrackPointExtension>
        </extensions>
      </trkpt>
      <trkpt lat="42.4550766684114933013916015625" lon="20.2122029475867748260498046875">
        <ele>1053.5999755859375</ele>
        <time>2026-06-20T13:01:39.000Z</time>
        <extensions>
          <ns3:TrackPointExtension>
            <ns3:atemp>32.0</ns3:atemp>
          </ns3:TrackPointExtension>
        </extensions>
      </trkpt>
      <trkpt lat="42.4550766684114933013916015625" lon="20.2122029475867748260498046875">
        <ele>1053.5999755859375</ele>
        <time>2026-06-20T13:01:40.000Z</time>
        <extensions>
          <ns3:TrackPointExtension>
            <ns3:atemp>32.0</ns3:atemp>
          </ns3:TrackPointExtension>
        </extensions>
      </trkpt>
      <trkpt lat="42.4550766684114933013916015625" lon="20.2122029475867748260498046875">
        <ele>1053.5999755859375</ele>
        <time>2026-06-20T13:01:41.000Z</time>
        <extensions>
          <ns3:TrackPointExtension>
            <ns3:atemp>32.0</ns3:atemp>
          </ns3:TrackPointExtension>
        </extensions>
      </trkpt>
      <trkpt lat="42.4550766684114933013916015625" lon="20.2122029475867748260498046875">
        <ele>1053.5999755859375</ele>
        <time>2026-06-20T13:01:42.000Z</time>
        <extensions>
          <ns3:TrackPointExtension>
            <ns3:atemp>32.0</ns3:atemp>
          </ns3:TrackPointExtension>
        </extensions>
      </trkpt>
      <trkpt lat="42.4550766684114933013916015625" lon="20.2122029475867748260498046875">
        <ele>1053.5999755859375</ele>
        <time>2026-06-20T13:01:43.000Z</time>
        <extensions>
          <ns3:TrackPointExtension>
            <ns3:atemp>32.0</ns3:atemp>
          </ns3:TrackPointExtension>
        </extensions>
      </trkpt>
      <trkpt lat="42.4550766684114933013916015625" lon="20.2122029475867748260498046875">
        <ele>1053.5999755859375</ele>
        <time>2026-06-20T13:01:44.000Z</time>
        <extensions>
          <ns3:TrackPointExtension>
            <ns3:atemp>32.0</ns3:atemp>
          </ns3:TrackPointExtension>
        </extensions>
      </trkpt>
      <trkpt lat="42.4550766684114933013916015625" lon="20.2122029475867748260498046875">
        <ele>1053.5999755859375</ele>
        <time>2026-06-20T13:01:45.000Z</time>
        <extensions>
          <ns3:TrackPointExtension>
            <ns3:atemp>32.0</ns3:atemp>
          </ns3:TrackPointExtension>
        </extensions>
      </trkpt>
      <trkpt lat="42.4550766684114933013916015625" lon="20.2122029475867748260498046875">
        <ele>1053.5999755859375</ele>
        <time>2026-06-20T13:01:46.000Z</time>
        <extensions>
          <ns3:TrackPointExtension>
            <ns3:atemp>32.0</ns3:atemp>
          </ns3:TrackPointExtension>
        </extensions>
      </trkpt>
      <trkpt lat="42.4550766684114933013916015625" lon="20.2122029475867748260498046875">
        <ele>1053.5999755859375</ele>
        <time>2026-06-20T13:01:47.000Z</time>
        <extensions>
          <ns3:TrackPointExtension>
            <ns3:atemp>32.0</ns3:atemp>
          </ns3:TrackPointExtension>
        </extensions>
      </trkpt>
      <trkpt lat="42.4550766684114933013916015625" lon="20.2122029475867748260498046875">
        <ele>1053.5999755859375</ele>
        <time>2026-06-20T13:01:48.000Z</time>
        <extensions>
          <ns3:TrackPointExtension>
            <ns3:atemp>32.0</ns3:atemp>
          </ns3:TrackPointExtension>
        </extensions>
      </trkpt>
      <trkpt lat="42.4550766684114933013916015625" lon="20.2122029475867748260498046875">
        <ele>1053.5999755859375</ele>
        <time>2026-06-20T13:01:49.000Z</time>
        <extensions>
          <ns3:TrackPointExtension>
            <ns3:atemp>32.0</ns3:atemp>
          </ns3:TrackPointExtension>
        </extensions>
      </trkpt>
      <trkpt lat="42.4550766684114933013916015625" lon="20.2122029475867748260498046875">
        <ele>1053.5999755859375</ele>
        <time>2026-06-20T13:01:50.000Z</time>
        <extensions>
          <ns3:TrackPointExtension>
            <ns3:atemp>32.0</ns3:atemp>
          </ns3:TrackPointExtension>
        </extensions>
      </trkpt>
      <trkpt lat="42.4550766684114933013916015625" lon="20.2122029475867748260498046875">
        <ele>1053.5999755859375</ele>
        <time>2026-06-20T13:01:51.000Z</time>
        <extensions>
          <ns3:TrackPointExtension>
            <ns3:atemp>32.0</ns3:atemp>
          </ns3:TrackPointExtension>
        </extensions>
      </trkpt>
      <trkpt lat="42.4550766684114933013916015625" lon="20.2122029475867748260498046875">
        <ele>1053.5999755859375</ele>
        <time>2026-06-20T13:01:52.000Z</time>
        <extensions>
          <ns3:TrackPointExtension>
            <ns3:atemp>32.0</ns3:atemp>
          </ns3:TrackPointExtension>
        </extensions>
      </trkpt>
      <trkpt lat="42.4550766684114933013916015625" lon="20.2122029475867748260498046875">
        <ele>1053.5999755859375</ele>
        <time>2026-06-20T13:01:53.000Z</time>
        <extensions>
          <ns3:TrackPointExtension>
            <ns3:atemp>32.0</ns3:atemp>
          </ns3:TrackPointExtension>
        </extensions>
      </trkpt>
      <trkpt lat="42.4550766684114933013916015625" lon="20.2122029475867748260498046875">
        <ele>1053.5999755859375</ele>
        <time>2026-06-20T13:01:54.000Z</time>
        <extensions>
          <ns3:TrackPointExtension>
            <ns3:atemp>32.0</ns3:atemp>
          </ns3:TrackPointExtension>
        </extensions>
      </trkpt>
      <trkpt lat="42.4550766684114933013916015625" lon="20.2122029475867748260498046875">
        <ele>1053.5999755859375</ele>
        <time>2026-06-20T13:01:55.000Z</time>
        <extensions>
          <ns3:TrackPointExtension>
            <ns3:atemp>32.0</ns3:atemp>
          </ns3:TrackPointExtension>
        </extensions>
      </trkpt>
      <trkpt lat="42.4550766684114933013916015625" lon="20.2122029475867748260498046875">
        <ele>1053.5999755859375</ele>
        <time>2026-06-20T13:01:56.000Z</time>
        <extensions>
          <ns3:TrackPointExtension>
            <ns3:atemp>32.0</ns3:atemp>
          </ns3:TrackPointExtension>
        </extensions>
      </trkpt>
      <trkpt lat="42.4550766684114933013916015625" lon="20.2122029475867748260498046875">
        <ele>1053.5999755859375</ele>
        <time>2026-06-20T13:01:57.000Z</time>
        <extensions>
          <ns3:TrackPointExtension>
            <ns3:atemp>32.0</ns3:atemp>
          </ns3:TrackPointExtension>
        </extensions>
      </trkpt>
      <trkpt lat="42.4550766684114933013916015625" lon="20.2122029475867748260498046875">
        <ele>1053.5999755859375</ele>
        <time>2026-06-20T13:01:58.000Z</time>
        <extensions>
          <ns3:TrackPointExtension>
            <ns3:atemp>32.0</ns3:atemp>
          </ns3:TrackPointExtension>
        </extensions>
      </trkpt>
      <trkpt lat="42.4550766684114933013916015625" lon="20.2122029475867748260498046875">
        <ele>1053.5999755859375</ele>
        <time>2026-06-20T13:01:59.000Z</time>
        <extensions>
          <ns3:TrackPointExtension>
            <ns3:atemp>32.0</ns3:atemp>
          </ns3:TrackPointExtension>
        </extensions>
      </trkpt>
      <trkpt lat="42.4550766684114933013916015625" lon="20.2122029475867748260498046875">
        <ele>1053.5999755859375</ele>
        <time>2026-06-20T13:02:00.000Z</time>
        <extensions>
          <ns3:TrackPointExtension>
            <ns3:atemp>32.0</ns3:atemp>
          </ns3:TrackPointExtension>
        </extensions>
      </trkpt>
      <trkpt lat="42.4550766684114933013916015625" lon="20.2122029475867748260498046875">
        <ele>1053.5999755859375</ele>
        <time>2026-06-20T13:02:01.000Z</time>
        <extensions>
          <ns3:TrackPointExtension>
            <ns3:atemp>32.0</ns3:atemp>
          </ns3:TrackPointExtension>
        </extensions>
      </trkpt>
      <trkpt lat="42.4550766684114933013916015625" lon="20.2122029475867748260498046875">
        <ele>1053.5999755859375</ele>
        <time>2026-06-20T13:02:02.000Z</time>
        <extensions>
          <ns3:TrackPointExtension>
            <ns3:atemp>32.0</ns3:atemp>
          </ns3:TrackPointExtension>
        </extensions>
      </trkpt>
      <trkpt lat="42.4550766684114933013916015625" lon="20.2122029475867748260498046875">
        <ele>1053.5999755859375</ele>
        <time>2026-06-20T13:02:03.000Z</time>
        <extensions>
          <ns3:TrackPointExtension>
            <ns3:atemp>32.0</ns3:atemp>
          </ns3:TrackPointExtension>
        </extensions>
      </trkpt>
      <trkpt lat="42.4550766684114933013916015625" lon="20.2122029475867748260498046875">
        <ele>1053.5999755859375</ele>
        <time>2026-06-20T13:02:04.000Z</time>
        <extensions>
          <ns3:TrackPointExtension>
            <ns3:atemp>32.0</ns3:atemp>
          </ns3:TrackPointExtension>
        </extensions>
      </trkpt>
      <trkpt lat="42.4550766684114933013916015625" lon="20.2122029475867748260498046875">
        <ele>1053.5999755859375</ele>
        <time>2026-06-20T13:02:05.000Z</time>
        <extensions>
          <ns3:TrackPointExtension>
            <ns3:atemp>32.0</ns3:atemp>
          </ns3:TrackPointExtension>
        </extensions>
      </trkpt>
      <trkpt lat="42.4550766684114933013916015625" lon="20.2122029475867748260498046875">
        <ele>1053.5999755859375</ele>
        <time>2026-06-20T13:02:06.000Z</time>
        <extensions>
          <ns3:TrackPointExtension>
            <ns3:atemp>32.0</ns3:atemp>
          </ns3:TrackPointExtension>
        </extensions>
      </trkpt>
      <trkpt lat="42.4550766684114933013916015625" lon="20.2122029475867748260498046875">
        <ele>1053.5999755859375</ele>
        <time>2026-06-20T13:02:07.000Z</time>
        <extensions>
          <ns3:TrackPointExtension>
            <ns3:atemp>32.0</ns3:atemp>
          </ns3:TrackPointExtension>
        </extensions>
      </trkpt>
      <trkpt lat="42.4550766684114933013916015625" lon="20.2122029475867748260498046875">
        <ele>1053.5999755859375</ele>
        <time>2026-06-20T13:02:08.000Z</time>
        <extensions>
          <ns3:TrackPointExtension>
            <ns3:atemp>32.0</ns3:atemp>
          </ns3:TrackPointExtension>
        </extensions>
      </trkpt>
      <trkpt lat="42.4550766684114933013916015625" lon="20.2122029475867748260498046875">
        <ele>1053.5999755859375</ele>
        <time>2026-06-20T13:02:09.000Z</time>
        <extensions>
          <ns3:TrackPointExtension>
            <ns3:atemp>32.0</ns3:atemp>
          </ns3:TrackPointExtension>
        </extensions>
      </trkpt>
      <trkpt lat="42.4550766684114933013916015625" lon="20.2122029475867748260498046875">
        <ele>1053.5999755859375</ele>
        <time>2026-06-20T13:02:10.000Z</time>
        <extensions>
          <ns3:TrackPointExtension>
            <ns3:atemp>32.0</ns3:atemp>
          </ns3:TrackPointExtension>
        </extensions>
      </trkpt>
      <trkpt lat="42.4550766684114933013916015625" lon="20.2122029475867748260498046875">
        <ele>1053.5999755859375</ele>
        <time>2026-06-20T13:02:11.000Z</time>
        <extensions>
          <ns3:TrackPointExtension>
            <ns3:atemp>32.0</ns3:atemp>
          </ns3:TrackPointExtension>
        </extensions>
      </trkpt>
      <trkpt lat="42.4550766684114933013916015625" lon="20.2122029475867748260498046875">
        <ele>1053.5999755859375</ele>
        <time>2026-06-20T13:02:12.000Z</time>
        <extensions>
          <ns3:TrackPointExtension>
            <ns3:atemp>32.0</ns3:atemp>
          </ns3:TrackPointExtension>
        </extensions>
      </trkpt>
      <trkpt lat="42.4550766684114933013916015625" lon="20.2122029475867748260498046875">
        <ele>1053.5999755859375</ele>
        <time>2026-06-20T13:02:13.000Z</time>
        <extensions>
          <ns3:TrackPointExtension>
            <ns3:atemp>32.0</ns3:atemp>
          </ns3:TrackPointExtension>
        </extensions>
      </trkpt>
      <trkpt lat="42.4550766684114933013916015625" lon="20.2122029475867748260498046875">
        <ele>1053.5999755859375</ele>
        <time>2026-06-20T13:02:14.000Z</time>
        <extensions>
          <ns3:TrackPointExtension>
            <ns3:atemp>32.0</ns3:atemp>
          </ns3:TrackPointExtension>
        </extensions>
      </trkpt>
      <trkpt lat="42.4550766684114933013916015625" lon="20.2122029475867748260498046875">
        <ele>1053.5999755859375</ele>
        <time>2026-06-20T13:02:15.000Z</time>
        <extensions>
          <ns3:TrackPointExtension>
            <ns3:atemp>32.0</ns3:atemp>
          </ns3:TrackPointExtension>
        </extensions>
      </trkpt>
      <trkpt lat="42.4550766684114933013916015625" lon="20.2122029475867748260498046875">
        <ele>1053.5999755859375</ele>
        <time>2026-06-20T13:02:16.000Z</time>
        <extensions>
          <ns3:TrackPointExtension>
            <ns3:atemp>32.0</ns3:atemp>
          </ns3:TrackPointExtension>
        </extensions>
      </trkpt>
      <trkpt lat="42.4550766684114933013916015625" lon="20.2122029475867748260498046875">
        <ele>1053.5999755859375</ele>
        <time>2026-06-20T13:02:17.000Z</time>
        <extensions>
          <ns3:TrackPointExtension>
            <ns3:atemp>32.0</ns3:atemp>
          </ns3:TrackPointExtension>
        </extensions>
      </trkpt>
      <trkpt lat="42.4550766684114933013916015625" lon="20.2122029475867748260498046875">
        <ele>1053.5999755859375</ele>
        <time>2026-06-20T13:02:18.000Z</time>
        <extensions>
          <ns3:TrackPointExtension>
            <ns3:atemp>32.0</ns3:atemp>
          </ns3:TrackPointExtension>
        </extensions>
      </trkpt>
      <trkpt lat="42.4550766684114933013916015625" lon="20.2122029475867748260498046875">
        <ele>1053.5999755859375</ele>
        <time>2026-06-20T13:02:19.000Z</time>
        <extensions>
          <ns3:TrackPointExtension>
            <ns3:atemp>32.0</ns3:atemp>
          </ns3:TrackPointExtension>
        </extensions>
      </trkpt>
      <trkpt lat="42.4550766684114933013916015625" lon="20.2122029475867748260498046875">
        <ele>1053.5999755859375</ele>
        <time>2026-06-20T13:02:20.000Z</time>
        <extensions>
          <ns3:TrackPointExtension>
            <ns3:atemp>32.0</ns3:atemp>
          </ns3:TrackPointExtension>
        </extensions>
      </trkpt>
      <trkpt lat="42.4550766684114933013916015625" lon="20.2122029475867748260498046875">
        <ele>1053.5999755859375</ele>
        <time>2026-06-20T13:02:21.000Z</time>
        <extensions>
          <ns3:TrackPointExtension>
            <ns3:atemp>32.0</ns3:atemp>
          </ns3:TrackPointExtension>
        </extensions>
      </trkpt>
      <trkpt lat="42.4550766684114933013916015625" lon="20.2122029475867748260498046875">
        <ele>1053.5999755859375</ele>
        <time>2026-06-20T13:02:22.000Z</time>
        <extensions>
          <ns3:TrackPointExtension>
            <ns3:atemp>32.0</ns3:atemp>
          </ns3:TrackPointExtension>
        </extensions>
      </trkpt>
      <trkpt lat="42.4550766684114933013916015625" lon="20.2122029475867748260498046875">
        <ele>1053.5999755859375</ele>
        <time>2026-06-20T13:02:23.000Z</time>
        <extensions>
          <ns3:TrackPointExtension>
            <ns3:atemp>32.0</ns3:atemp>
          </ns3:TrackPointExtension>
        </extensions>
      </trkpt>
      <trkpt lat="42.4550766684114933013916015625" lon="20.2122029475867748260498046875">
        <ele>1053.5999755859375</ele>
        <time>2026-06-20T13:02:24.000Z</time>
        <extensions>
          <ns3:TrackPointExtension>
            <ns3:atemp>32.0</ns3:atemp>
          </ns3:TrackPointExtension>
        </extensions>
      </trkpt>
      <trkpt lat="42.4550766684114933013916015625" lon="20.2122029475867748260498046875">
        <ele>1053.5999755859375</ele>
        <time>2026-06-20T13:02:25.000Z</time>
        <extensions>
          <ns3:TrackPointExtension>
            <ns3:atemp>32.0</ns3:atemp>
          </ns3:TrackPointExtension>
        </extensions>
      </trkpt>
      <trkpt lat="42.4550766684114933013916015625" lon="20.2122029475867748260498046875">
        <ele>1053.5999755859375</ele>
        <time>2026-06-20T13:02:26.000Z</time>
        <extensions>
          <ns3:TrackPointExtension>
            <ns3:atemp>32.0</ns3:atemp>
          </ns3:TrackPointExtension>
        </extensions>
      </trkpt>
      <trkpt lat="42.4550766684114933013916015625" lon="20.2122029475867748260498046875">
        <ele>1053.5999755859375</ele>
        <time>2026-06-20T13:02:27.000Z</time>
        <extensions>
          <ns3:TrackPointExtension>
            <ns3:atemp>32.0</ns3:atemp>
          </ns3:TrackPointExtension>
        </extensions>
      </trkpt>
      <trkpt lat="42.4550766684114933013916015625" lon="20.2122029475867748260498046875">
        <ele>1053.5999755859375</ele>
        <time>2026-06-20T13:02:28.000Z</time>
        <extensions>
          <ns3:TrackPointExtension>
            <ns3:atemp>32.0</ns3:atemp>
          </ns3:TrackPointExtension>
        </extensions>
      </trkpt>
      <trkpt lat="42.4550766684114933013916015625" lon="20.2122029475867748260498046875">
        <ele>1053.5999755859375</ele>
        <time>2026-06-20T13:02:29.000Z</time>
        <extensions>
          <ns3:TrackPointExtension>
            <ns3:atemp>32.0</ns3:atemp>
          </ns3:TrackPointExtension>
        </extensions>
      </trkpt>
      <trkpt lat="42.4550766684114933013916015625" lon="20.2122029475867748260498046875">
        <ele>1053.5999755859375</ele>
        <time>2026-06-20T13:02:30.000Z</time>
        <extensions>
          <ns3:TrackPointExtension>
            <ns3:atemp>32.0</ns3:atemp>
          </ns3:TrackPointExtension>
        </extensions>
      </trkpt>
      <trkpt lat="42.4550766684114933013916015625" lon="20.2122029475867748260498046875">
        <ele>1053.5999755859375</ele>
        <time>2026-06-20T13:02:31.000Z</time>
        <extensions>
          <ns3:TrackPointExtension>
            <ns3:atemp>32.0</ns3:atemp>
          </ns3:TrackPointExtension>
        </extensions>
      </trkpt>
      <trkpt lat="42.4550766684114933013916015625" lon="20.2122029475867748260498046875">
        <ele>1053.5999755859375</ele>
        <time>2026-06-20T13:02:32.000Z</time>
        <extensions>
          <ns3:TrackPointExtension>
            <ns3:atemp>32.0</ns3:atemp>
          </ns3:TrackPointExtension>
        </extensions>
      </trkpt>
      <trkpt lat="42.4550766684114933013916015625" lon="20.2122029475867748260498046875">
        <ele>1053.5999755859375</ele>
        <time>2026-06-20T13:02:33.000Z</time>
        <extensions>
          <ns3:TrackPointExtension>
            <ns3:atemp>32.0</ns3:atemp>
          </ns3:TrackPointExtension>
        </extensions>
      </trkpt>
      <trkpt lat="42.4550766684114933013916015625" lon="20.2122029475867748260498046875">
        <ele>1053.5999755859375</ele>
        <time>2026-06-20T13:02:34.000Z</time>
        <extensions>
          <ns3:TrackPointExtension>
            <ns3:atemp>32.0</ns3:atemp>
          </ns3:TrackPointExtension>
        </extensions>
      </trkpt>
      <trkpt lat="42.4550766684114933013916015625" lon="20.2122029475867748260498046875">
        <ele>1053.5999755859375</ele>
        <time>2026-06-20T13:02:35.000Z</time>
        <extensions>
          <ns3:TrackPointExtension>
            <ns3:atemp>32.0</ns3:atemp>
          </ns3:TrackPointExtension>
        </extensions>
      </trkpt>
      <trkpt lat="42.4550766684114933013916015625" lon="20.2122029475867748260498046875">
        <ele>1053.5999755859375</ele>
        <time>2026-06-20T13:02:36.000Z</time>
        <extensions>
          <ns3:TrackPointExtension>
            <ns3:atemp>32.0</ns3:atemp>
          </ns3:TrackPointExtension>
        </extensions>
      </trkpt>
      <trkpt lat="42.4550766684114933013916015625" lon="20.2122029475867748260498046875">
        <ele>1053.5999755859375</ele>
        <time>2026-06-20T13:02:37.000Z</time>
        <extensions>
          <ns3:TrackPointExtension>
            <ns3:atemp>32.0</ns3:atemp>
          </ns3:TrackPointExtension>
        </extensions>
      </trkpt>
      <trkpt lat="42.4550766684114933013916015625" lon="20.2122029475867748260498046875">
        <ele>1053.5999755859375</ele>
        <time>2026-06-20T13:02:38.000Z</time>
        <extensions>
          <ns3:TrackPointExtension>
            <ns3:atemp>32.0</ns3:atemp>
          </ns3:TrackPointExtension>
        </extensions>
      </trkpt>
      <trkpt lat="42.4550766684114933013916015625" lon="20.2122029475867748260498046875">
        <ele>1053.5999755859375</ele>
        <time>2026-06-20T13:02:39.000Z</time>
        <extensions>
          <ns3:TrackPointExtension>
            <ns3:atemp>32.0</ns3:atemp>
          </ns3:TrackPointExtension>
        </extensions>
      </trkpt>
      <trkpt lat="42.4550766684114933013916015625" lon="20.2122029475867748260498046875">
        <ele>1053.5999755859375</ele>
        <time>2026-06-20T13:02:40.000Z</time>
        <extensions>
          <ns3:TrackPointExtension>
            <ns3:atemp>32.0</ns3:atemp>
          </ns3:TrackPointExtension>
        </extensions>
      </trkpt>
      <trkpt lat="42.4550766684114933013916015625" lon="20.2122029475867748260498046875">
        <ele>1053.5999755859375</ele>
        <time>2026-06-20T13:02:41.000Z</time>
        <extensions>
          <ns3:TrackPointExtension>
            <ns3:atemp>32.0</ns3:atemp>
          </ns3:TrackPointExtension>
        </extensions>
      </trkpt>
      <trkpt lat="42.4550766684114933013916015625" lon="20.2122029475867748260498046875">
        <ele>1053.5999755859375</ele>
        <time>2026-06-20T13:02:42.000Z</time>
        <extensions>
          <ns3:TrackPointExtension>
            <ns3:atemp>32.0</ns3:atemp>
          </ns3:TrackPointExtension>
        </extensions>
      </trkpt>
      <trkpt lat="42.4550766684114933013916015625" lon="20.2122029475867748260498046875">
        <ele>1053.5999755859375</ele>
        <time>2026-06-20T13:02:43.000Z</time>
        <extensions>
          <ns3:TrackPointExtension>
            <ns3:atemp>32.0</ns3:atemp>
          </ns3:TrackPointExtension>
        </extensions>
      </trkpt>
      <trkpt lat="42.4550766684114933013916015625" lon="20.2122029475867748260498046875">
        <ele>1053.5999755859375</ele>
        <time>2026-06-20T13:02:44.000Z</time>
        <extensions>
          <ns3:TrackPointExtension>
            <ns3:atemp>32.0</ns3:atemp>
          </ns3:TrackPointExtension>
        </extensions>
      </trkpt>
      <trkpt lat="42.4550766684114933013916015625" lon="20.2122029475867748260498046875">
        <ele>1053.5999755859375</ele>
        <time>2026-06-20T13:02:45.000Z</time>
        <extensions>
          <ns3:TrackPointExtension>
            <ns3:atemp>32.0</ns3:atemp>
          </ns3:TrackPointExtension>
        </extensions>
      </trkpt>
      <trkpt lat="42.4550766684114933013916015625" lon="20.2122029475867748260498046875">
        <ele>1053.5999755859375</ele>
        <time>2026-06-20T13:02:46.000Z</time>
        <extensions>
          <ns3:TrackPointExtension>
            <ns3:atemp>32.0</ns3:atemp>
          </ns3:TrackPointExtension>
        </extensions>
      </trkpt>
      <trkpt lat="42.4550766684114933013916015625" lon="20.2122029475867748260498046875">
        <ele>1053.5999755859375</ele>
        <time>2026-06-20T13:02:47.000Z</time>
        <extensions>
          <ns3:TrackPointExtension>
            <ns3:atemp>32.0</ns3:atemp>
          </ns3:TrackPointExtension>
        </extensions>
      </trkpt>
      <trkpt lat="42.4550766684114933013916015625" lon="20.2122029475867748260498046875">
        <ele>1053.5999755859375</ele>
        <time>2026-06-20T13:02:48.000Z</time>
        <extensions>
          <ns3:TrackPointExtension>
            <ns3:atemp>32.0</ns3:atemp>
          </ns3:TrackPointExtension>
        </extensions>
      </trkpt>
      <trkpt lat="42.4550766684114933013916015625" lon="20.2122029475867748260498046875">
        <ele>1053.5999755859375</ele>
        <time>2026-06-20T13:02:49.000Z</time>
        <extensions>
          <ns3:TrackPointExtension>
            <ns3:atemp>32.0</ns3:atemp>
          </ns3:TrackPointExtension>
        </extensions>
      </trkpt>
      <trkpt lat="42.4550766684114933013916015625" lon="20.2122029475867748260498046875">
        <ele>1053.5999755859375</ele>
        <time>2026-06-20T13:02:50.000Z</time>
        <extensions>
          <ns3:TrackPointExtension>
            <ns3:atemp>32.0</ns3:atemp>
          </ns3:TrackPointExtension>
        </extensions>
      </trkpt>
      <trkpt lat="42.4550766684114933013916015625" lon="20.2122029475867748260498046875">
        <ele>1053.5999755859375</ele>
        <time>2026-06-20T13:02:51.000Z</time>
        <extensions>
          <ns3:TrackPointExtension>
            <ns3:atemp>32.0</ns3:atemp>
          </ns3:TrackPointExtension>
        </extensions>
      </trkpt>
      <trkpt lat="42.4550766684114933013916015625" lon="20.2122029475867748260498046875">
        <ele>1053.5999755859375</ele>
        <time>2026-06-20T13:02:52.000Z</time>
        <extensions>
          <ns3:TrackPointExtension>
            <ns3:atemp>32.0</ns3:atemp>
          </ns3:TrackPointExtension>
        </extensions>
      </trkpt>
      <trkpt lat="42.4550766684114933013916015625" lon="20.2122029475867748260498046875">
        <ele>1053.5999755859375</ele>
        <time>2026-06-20T13:02:53.000Z</time>
        <extensions>
          <ns3:TrackPointExtension>
            <ns3:atemp>32.0</ns3:atemp>
          </ns3:TrackPointExtension>
        </extensions>
      </trkpt>
      <trkpt lat="42.4550766684114933013916015625" lon="20.2122029475867748260498046875">
        <ele>1053.5999755859375</ele>
        <time>2026-06-20T13:02:54.000Z</time>
        <extensions>
          <ns3:TrackPointExtension>
            <ns3:atemp>32.0</ns3:atemp>
          </ns3:TrackPointExtension>
        </extensions>
      </trkpt>
      <trkpt lat="42.4550766684114933013916015625" lon="20.2122029475867748260498046875">
        <ele>1053.5999755859375</ele>
        <time>2026-06-20T13:02:55.000Z</time>
        <extensions>
          <ns3:TrackPointExtension>
            <ns3:atemp>32.0</ns3:atemp>
          </ns3:TrackPointExtension>
        </extensions>
      </trkpt>
      <trkpt lat="42.4550766684114933013916015625" lon="20.2122029475867748260498046875">
        <ele>1053.5999755859375</ele>
        <time>2026-06-20T13:02:56.000Z</time>
        <extensions>
          <ns3:TrackPointExtension>
            <ns3:atemp>32.0</ns3:atemp>
          </ns3:TrackPointExtension>
        </extensions>
      </trkpt>
      <trkpt lat="42.4550766684114933013916015625" lon="20.2122029475867748260498046875">
        <ele>1053.5999755859375</ele>
        <time>2026-06-20T13:02:57.000Z</time>
        <extensions>
          <ns3:TrackPointExtension>
            <ns3:atemp>32.0</ns3:atemp>
          </ns3:TrackPointExtension>
        </extensions>
      </trkpt>
      <trkpt lat="42.4550766684114933013916015625" lon="20.2122029475867748260498046875">
        <ele>1053.5999755859375</ele>
        <time>2026-06-20T13:02:58.000Z</time>
        <extensions>
          <ns3:TrackPointExtension>
            <ns3:atemp>32.0</ns3:atemp>
          </ns3:TrackPointExtension>
        </extensions>
      </trkpt>
      <trkpt lat="42.4550766684114933013916015625" lon="20.2122029475867748260498046875">
        <ele>1053.5999755859375</ele>
        <time>2026-06-20T13:02:59.000Z</time>
        <extensions>
          <ns3:TrackPointExtension>
            <ns3:atemp>32.0</ns3:atemp>
          </ns3:TrackPointExtension>
        </extensions>
      </trkpt>
      <trkpt lat="42.4550766684114933013916015625" lon="20.2122029475867748260498046875">
        <ele>1053.5999755859375</ele>
        <time>2026-06-20T13:03:00.000Z</time>
        <extensions>
          <ns3:TrackPointExtension>
            <ns3:atemp>32.0</ns3:atemp>
          </ns3:TrackPointExtension>
        </extensions>
      </trkpt>
      <trkpt lat="42.4550766684114933013916015625" lon="20.2122029475867748260498046875">
        <ele>1053.5999755859375</ele>
        <time>2026-06-20T13:03:01.000Z</time>
        <extensions>
          <ns3:TrackPointExtension>
            <ns3:atemp>32.0</ns3:atemp>
          </ns3:TrackPointExtension>
        </extensions>
      </trkpt>
      <trkpt lat="42.4550766684114933013916015625" lon="20.2122029475867748260498046875">
        <ele>1053.5999755859375</ele>
        <time>2026-06-20T13:03:02.000Z</time>
        <extensions>
          <ns3:TrackPointExtension>
            <ns3:atemp>32.0</ns3:atemp>
          </ns3:TrackPointExtension>
        </extensions>
      </trkpt>
      <trkpt lat="42.4550766684114933013916015625" lon="20.2122029475867748260498046875">
        <ele>1053.5999755859375</ele>
        <time>2026-06-20T13:03:03.000Z</time>
        <extensions>
          <ns3:TrackPointExtension>
            <ns3:atemp>32.0</ns3:atemp>
          </ns3:TrackPointExtension>
        </extensions>
      </trkpt>
      <trkpt lat="42.4550766684114933013916015625" lon="20.2122029475867748260498046875">
        <ele>1053.5999755859375</ele>
        <time>2026-06-20T13:03:04.000Z</time>
        <extensions>
          <ns3:TrackPointExtension>
            <ns3:atemp>32.0</ns3:atemp>
          </ns3:TrackPointExtension>
        </extensions>
      </trkpt>
      <trkpt lat="42.4550766684114933013916015625" lon="20.2122029475867748260498046875">
        <ele>1053.5999755859375</ele>
        <time>2026-06-20T13:03:05.000Z</time>
        <extensions>
          <ns3:TrackPointExtension>
            <ns3:atemp>32.0</ns3:atemp>
          </ns3:TrackPointExtension>
        </extensions>
      </trkpt>
      <trkpt lat="42.4550766684114933013916015625" lon="20.2122029475867748260498046875">
        <ele>1053.5999755859375</ele>
        <time>2026-06-20T13:03:06.000Z</time>
        <extensions>
          <ns3:TrackPointExtension>
            <ns3:atemp>32.0</ns3:atemp>
          </ns3:TrackPointExtension>
        </extensions>
      </trkpt>
      <trkpt lat="42.4550766684114933013916015625" lon="20.2122029475867748260498046875">
        <ele>1053.5999755859375</ele>
        <time>2026-06-20T13:03:07.000Z</time>
        <extensions>
          <ns3:TrackPointExtension>
            <ns3:atemp>32.0</ns3:atemp>
          </ns3:TrackPointExtension>
        </extensions>
      </trkpt>
      <trkpt lat="42.4550766684114933013916015625" lon="20.2122029475867748260498046875">
        <ele>1053.5999755859375</ele>
        <time>2026-06-20T13:03:08.000Z</time>
        <extensions>
          <ns3:TrackPointExtension>
            <ns3:atemp>32.0</ns3:atemp>
          </ns3:TrackPointExtension>
        </extensions>
      </trkpt>
      <trkpt lat="42.4550766684114933013916015625" lon="20.2122029475867748260498046875">
        <ele>1053.5999755859375</ele>
        <time>2026-06-20T13:03:09.000Z</time>
        <extensions>
          <ns3:TrackPointExtension>
            <ns3:atemp>32.0</ns3:atemp>
          </ns3:TrackPointExtension>
        </extensions>
      </trkpt>
      <trkpt lat="42.4550766684114933013916015625" lon="20.2122029475867748260498046875">
        <ele>1053.5999755859375</ele>
        <time>2026-06-20T13:03:10.000Z</time>
        <extensions>
          <ns3:TrackPointExtension>
            <ns3:atemp>32.0</ns3:atemp>
          </ns3:TrackPointExtension>
        </extensions>
      </trkpt>
      <trkpt lat="42.4550766684114933013916015625" lon="20.2122029475867748260498046875">
        <ele>1053.5999755859375</ele>
        <time>2026-06-20T13:03:11.000Z</time>
        <extensions>
          <ns3:TrackPointExtension>
            <ns3:atemp>32.0</ns3:atemp>
          </ns3:TrackPointExtension>
        </extensions>
      </trkpt>
      <trkpt lat="42.4550766684114933013916015625" lon="20.2122029475867748260498046875">
        <ele>1053.5999755859375</ele>
        <time>2026-06-20T13:03:12.000Z</time>
        <extensions>
          <ns3:TrackPointExtension>
            <ns3:atemp>32.0</ns3:atemp>
          </ns3:TrackPointExtension>
        </extensions>
      </trkpt>
      <trkpt lat="42.4550766684114933013916015625" lon="20.2122029475867748260498046875">
        <ele>1053.5999755859375</ele>
        <time>2026-06-20T13:03:13.000Z</time>
        <extensions>
          <ns3:TrackPointExtension>
            <ns3:atemp>33.0</ns3:atemp>
          </ns3:TrackPointExtension>
        </extensions>
      </trkpt>
      <trkpt lat="42.4550766684114933013916015625" lon="20.2122029475867748260498046875">
        <ele>1053.5999755859375</ele>
        <time>2026-06-20T13:03:14.000Z</time>
        <extensions>
          <ns3:TrackPointExtension>
            <ns3:atemp>33.0</ns3:atemp>
          </ns3:TrackPointExtension>
        </extensions>
      </trkpt>
      <trkpt lat="42.4550766684114933013916015625" lon="20.2122029475867748260498046875">
        <ele>1053.5999755859375</ele>
        <time>2026-06-20T13:03:15.000Z</time>
        <extensions>
          <ns3:TrackPointExtension>
            <ns3:atemp>33.0</ns3:atemp>
          </ns3:TrackPointExtension>
        </extensions>
      </trkpt>
      <trkpt lat="42.4550766684114933013916015625" lon="20.2122029475867748260498046875">
        <ele>1053.5999755859375</ele>
        <time>2026-06-20T13:03:16.000Z</time>
        <extensions>
          <ns3:TrackPointExtension>
            <ns3:atemp>33.0</ns3:atemp>
          </ns3:TrackPointExtension>
        </extensions>
      </trkpt>
      <trkpt lat="42.4550766684114933013916015625" lon="20.2122029475867748260498046875">
        <ele>1053.5999755859375</ele>
        <time>2026-06-20T13:03:17.000Z</time>
        <extensions>
          <ns3:TrackPointExtension>
            <ns3:atemp>33.0</ns3:atemp>
          </ns3:TrackPointExtension>
        </extensions>
      </trkpt>
      <trkpt lat="42.4550766684114933013916015625" lon="20.2122029475867748260498046875">
        <ele>1053.5999755859375</ele>
        <time>2026-06-20T13:03:18.000Z</time>
        <extensions>
          <ns3:TrackPointExtension>
            <ns3:atemp>33.0</ns3:atemp>
          </ns3:TrackPointExtension>
        </extensions>
      </trkpt>
      <trkpt lat="42.4550766684114933013916015625" lon="20.2122029475867748260498046875">
        <ele>1053.5999755859375</ele>
        <time>2026-06-20T13:03:19.000Z</time>
        <extensions>
          <ns3:TrackPointExtension>
            <ns3:atemp>33.0</ns3:atemp>
          </ns3:TrackPointExtension>
        </extensions>
      </trkpt>
      <trkpt lat="42.4550766684114933013916015625" lon="20.2122029475867748260498046875">
        <ele>1053.5999755859375</ele>
        <time>2026-06-20T13:03:20.000Z</time>
        <extensions>
          <ns3:TrackPointExtension>
            <ns3:atemp>33.0</ns3:atemp>
          </ns3:TrackPointExtension>
        </extensions>
      </trkpt>
      <trkpt lat="42.4550766684114933013916015625" lon="20.2122029475867748260498046875">
        <ele>1053.5999755859375</ele>
        <time>2026-06-20T13:03:21.000Z</time>
        <extensions>
          <ns3:TrackPointExtension>
            <ns3:atemp>33.0</ns3:atemp>
          </ns3:TrackPointExtension>
        </extensions>
      </trkpt>
      <trkpt lat="42.4550766684114933013916015625" lon="20.2122029475867748260498046875">
        <ele>1053.5999755859375</ele>
        <time>2026-06-20T13:03:22.000Z</time>
        <extensions>
          <ns3:TrackPointExtension>
            <ns3:atemp>33.0</ns3:atemp>
          </ns3:TrackPointExtension>
        </extensions>
      </trkpt>
      <trkpt lat="42.4550766684114933013916015625" lon="20.2122029475867748260498046875">
        <ele>1053.5999755859375</ele>
        <time>2026-06-20T13:03:23.000Z</time>
        <extensions>
          <ns3:TrackPointExtension>
            <ns3:atemp>33.0</ns3:atemp>
          </ns3:TrackPointExtension>
        </extensions>
      </trkpt>
      <trkpt lat="42.4550766684114933013916015625" lon="20.2122029475867748260498046875">
        <ele>1053.5999755859375</ele>
        <time>2026-06-20T13:03:24.000Z</time>
        <extensions>
          <ns3:TrackPointExtension>
            <ns3:atemp>33.0</ns3:atemp>
          </ns3:TrackPointExtension>
        </extensions>
      </trkpt>
      <trkpt lat="42.4550766684114933013916015625" lon="20.2122029475867748260498046875">
        <ele>1053.5999755859375</ele>
        <time>2026-06-20T13:03:25.000Z</time>
        <extensions>
          <ns3:TrackPointExtension>
            <ns3:atemp>33.0</ns3:atemp>
          </ns3:TrackPointExtension>
        </extensions>
      </trkpt>
      <trkpt lat="42.4550766684114933013916015625" lon="20.2122029475867748260498046875">
        <ele>1053.5999755859375</ele>
        <time>2026-06-20T13:03:26.000Z</time>
        <extensions>
          <ns3:TrackPointExtension>
            <ns3:atemp>33.0</ns3:atemp>
          </ns3:TrackPointExtension>
        </extensions>
      </trkpt>
      <trkpt lat="42.4550766684114933013916015625" lon="20.2122029475867748260498046875">
        <ele>1053.5999755859375</ele>
        <time>2026-06-20T13:03:27.000Z</time>
        <extensions>
          <ns3:TrackPointExtension>
            <ns3:atemp>33.0</ns3:atemp>
          </ns3:TrackPointExtension>
        </extensions>
      </trkpt>
      <trkpt lat="42.4550766684114933013916015625" lon="20.2122029475867748260498046875">
        <ele>1053.5999755859375</ele>
        <time>2026-06-20T13:03:28.000Z</time>
        <extensions>
          <ns3:TrackPointExtension>
            <ns3:atemp>33.0</ns3:atemp>
          </ns3:TrackPointExtension>
        </extensions>
      </trkpt>
      <trkpt lat="42.4550766684114933013916015625" lon="20.2122029475867748260498046875">
        <ele>1053.5999755859375</ele>
        <time>2026-06-20T13:03:29.000Z</time>
        <extensions>
          <ns3:TrackPointExtension>
            <ns3:atemp>33.0</ns3:atemp>
          </ns3:TrackPointExtension>
        </extensions>
      </trkpt>
      <trkpt lat="42.4550766684114933013916015625" lon="20.2122029475867748260498046875">
        <ele>1053.5999755859375</ele>
        <time>2026-06-20T13:03:30.000Z</time>
        <extensions>
          <ns3:TrackPointExtension>
            <ns3:atemp>33.0</ns3:atemp>
          </ns3:TrackPointExtension>
        </extensions>
      </trkpt>
      <trkpt lat="42.4550766684114933013916015625" lon="20.2122029475867748260498046875">
        <ele>1053.5999755859375</ele>
        <time>2026-06-20T13:03:31.000Z</time>
        <extensions>
          <ns3:TrackPointExtension>
            <ns3:atemp>33.0</ns3:atemp>
          </ns3:TrackPointExtension>
        </extensions>
      </trkpt>
      <trkpt lat="42.4550766684114933013916015625" lon="20.2122029475867748260498046875">
        <ele>1053.5999755859375</ele>
        <time>2026-06-20T13:03:32.000Z</time>
        <extensions>
          <ns3:TrackPointExtension>
            <ns3:atemp>33.0</ns3:atemp>
          </ns3:TrackPointExtension>
        </extensions>
      </trkpt>
      <trkpt lat="42.4550766684114933013916015625" lon="20.2122029475867748260498046875">
        <ele>1053.5999755859375</ele>
        <time>2026-06-20T13:03:33.000Z</time>
        <extensions>
          <ns3:TrackPointExtension>
            <ns3:atemp>33.0</ns3:atemp>
          </ns3:TrackPointExtension>
        </extensions>
      </trkpt>
      <trkpt lat="42.4550766684114933013916015625" lon="20.2122029475867748260498046875">
        <ele>1053.5999755859375</ele>
        <time>2026-06-20T13:03:34.000Z</time>
        <extensions>
          <ns3:TrackPointExtension>
            <ns3:atemp>33.0</ns3:atemp>
          </ns3:TrackPointExtension>
        </extensions>
      </trkpt>
      <trkpt lat="42.4550766684114933013916015625" lon="20.2122029475867748260498046875">
        <ele>1053.5999755859375</ele>
        <time>2026-06-20T13:03:35.000Z</time>
        <extensions>
          <ns3:TrackPointExtension>
            <ns3:atemp>33.0</ns3:atemp>
          </ns3:TrackPointExtension>
        </extensions>
      </trkpt>
      <trkpt lat="42.4550766684114933013916015625" lon="20.2122029475867748260498046875">
        <ele>1053.5999755859375</ele>
        <time>2026-06-20T13:03:36.000Z</time>
        <extensions>
          <ns3:TrackPointExtension>
            <ns3:atemp>33.0</ns3:atemp>
          </ns3:TrackPointExtension>
        </extensions>
      </trkpt>
      <trkpt lat="42.4550766684114933013916015625" lon="20.2122029475867748260498046875">
        <ele>1053.5999755859375</ele>
        <time>2026-06-20T13:03:37.000Z</time>
        <extensions>
          <ns3:TrackPointExtension>
            <ns3:atemp>33.0</ns3:atemp>
          </ns3:TrackPointExtension>
        </extensions>
      </trkpt>
      <trkpt lat="42.4550766684114933013916015625" lon="20.2122029475867748260498046875">
        <ele>1053.5999755859375</ele>
        <time>2026-06-20T13:03:38.000Z</time>
        <extensions>
          <ns3:TrackPointExtension>
            <ns3:atemp>33.0</ns3:atemp>
          </ns3:TrackPointExtension>
        </extensions>
      </trkpt>
      <trkpt lat="42.4550766684114933013916015625" lon="20.2122029475867748260498046875">
        <ele>1053.5999755859375</ele>
        <time>2026-06-20T13:03:39.000Z</time>
        <extensions>
          <ns3:TrackPointExtension>
            <ns3:atemp>33.0</ns3:atemp>
          </ns3:TrackPointExtension>
        </extensions>
      </trkpt>
      <trkpt lat="42.4550766684114933013916015625" lon="20.2122029475867748260498046875">
        <ele>1053.5999755859375</ele>
        <time>2026-06-20T13:03:40.000Z</time>
        <extensions>
          <ns3:TrackPointExtension>
            <ns3:atemp>33.0</ns3:atemp>
          </ns3:TrackPointExtension>
        </extensions>
      </trkpt>
      <trkpt lat="42.4550766684114933013916015625" lon="20.2122029475867748260498046875">
        <ele>1053.5999755859375</ele>
        <time>2026-06-20T13:03:41.000Z</time>
        <extensions>
          <ns3:TrackPointExtension>
            <ns3:atemp>33.0</ns3:atemp>
          </ns3:TrackPointExtension>
        </extensions>
      </trkpt>
      <trkpt lat="42.4550766684114933013916015625" lon="20.2122029475867748260498046875">
        <ele>1053.5999755859375</ele>
        <time>2026-06-20T13:03:42.000Z</time>
        <extensions>
          <ns3:TrackPointExtension>
            <ns3:atemp>33.0</ns3:atemp>
          </ns3:TrackPointExtension>
        </extensions>
      </trkpt>
      <trkpt lat="42.4550766684114933013916015625" lon="20.2122029475867748260498046875">
        <ele>1053.5999755859375</ele>
        <time>2026-06-20T13:03:43.000Z</time>
        <extensions>
          <ns3:TrackPointExtension>
            <ns3:atemp>33.0</ns3:atemp>
          </ns3:TrackPointExtension>
        </extensions>
      </trkpt>
      <trkpt lat="42.4550766684114933013916015625" lon="20.2122029475867748260498046875">
        <ele>1053.5999755859375</ele>
        <time>2026-06-20T13:03:44.000Z</time>
        <extensions>
          <ns3:TrackPointExtension>
            <ns3:atemp>33.0</ns3:atemp>
          </ns3:TrackPointExtension>
        </extensions>
      </trkpt>
      <trkpt lat="42.4550766684114933013916015625" lon="20.2122029475867748260498046875">
        <ele>1053.5999755859375</ele>
        <time>2026-06-20T13:03:45.000Z</time>
        <extensions>
          <ns3:TrackPointExtension>
            <ns3:atemp>33.0</ns3:atemp>
          </ns3:TrackPointExtension>
        </extensions>
      </trkpt>
      <trkpt lat="42.4550766684114933013916015625" lon="20.2122029475867748260498046875">
        <ele>1053.5999755859375</ele>
        <time>2026-06-20T13:03:46.000Z</time>
        <extensions>
          <ns3:TrackPointExtension>
            <ns3:atemp>33.0</ns3:atemp>
          </ns3:TrackPointExtension>
        </extensions>
      </trkpt>
      <trkpt lat="42.4550766684114933013916015625" lon="20.2122029475867748260498046875">
        <ele>1053.5999755859375</ele>
        <time>2026-06-20T13:03:47.000Z</time>
        <extensions>
          <ns3:TrackPointExtension>
            <ns3:atemp>33.0</ns3:atemp>
          </ns3:TrackPointExtension>
        </extensions>
      </trkpt>
      <trkpt lat="42.4550766684114933013916015625" lon="20.2122029475867748260498046875">
        <ele>1053.5999755859375</ele>
        <time>2026-06-20T13:03:48.000Z</time>
        <extensions>
          <ns3:TrackPointExtension>
            <ns3:atemp>33.0</ns3:atemp>
          </ns3:TrackPointExtension>
        </extensions>
      </trkpt>
      <trkpt lat="42.4550766684114933013916015625" lon="20.2122029475867748260498046875">
        <ele>1053.5999755859375</ele>
        <time>2026-06-20T13:03:49.000Z</time>
        <extensions>
          <ns3:TrackPointExtension>
            <ns3:atemp>33.0</ns3:atemp>
          </ns3:TrackPointExtension>
        </extensions>
      </trkpt>
      <trkpt lat="42.4550766684114933013916015625" lon="20.2122029475867748260498046875">
        <ele>1053.5999755859375</ele>
        <time>2026-06-20T13:03:50.000Z</time>
        <extensions>
          <ns3:TrackPointExtension>
            <ns3:atemp>33.0</ns3:atemp>
          </ns3:TrackPointExtension>
        </extensions>
      </trkpt>
      <trkpt lat="42.4550766684114933013916015625" lon="20.2122029475867748260498046875">
        <ele>1053.5999755859375</ele>
        <time>2026-06-20T13:03:51.000Z</time>
        <extensions>
          <ns3:TrackPointExtension>
            <ns3:atemp>33.0</ns3:atemp>
          </ns3:TrackPointExtension>
        </extensions>
      </trkpt>
      <trkpt lat="42.4550766684114933013916015625" lon="20.2122029475867748260498046875">
        <ele>1053.5999755859375</ele>
        <time>2026-06-20T13:03:52.000Z</time>
        <extensions>
          <ns3:TrackPointExtension>
            <ns3:atemp>33.0</ns3:atemp>
          </ns3:TrackPointExtension>
        </extensions>
      </trkpt>
      <trkpt lat="42.4550766684114933013916015625" lon="20.2122029475867748260498046875">
        <ele>1053.5999755859375</ele>
        <time>2026-06-20T13:03:53.000Z</time>
        <extensions>
          <ns3:TrackPointExtension>
            <ns3:atemp>33.0</ns3:atemp>
          </ns3:TrackPointExtension>
        </extensions>
      </trkpt>
      <trkpt lat="42.4550766684114933013916015625" lon="20.2122029475867748260498046875">
        <ele>1053.5999755859375</ele>
        <time>2026-06-20T13:03:54.000Z</time>
        <extensions>
          <ns3:TrackPointExtension>
            <ns3:atemp>33.0</ns3:atemp>
          </ns3:TrackPointExtension>
        </extensions>
      </trkpt>
      <trkpt lat="42.4550766684114933013916015625" lon="20.2122029475867748260498046875">
        <ele>1053.5999755859375</ele>
        <time>2026-06-20T13:03:55.000Z</time>
        <extensions>
          <ns3:TrackPointExtension>
            <ns3:atemp>33.0</ns3:atemp>
          </ns3:TrackPointExtension>
        </extensions>
      </trkpt>
      <trkpt lat="42.4550766684114933013916015625" lon="20.2122029475867748260498046875">
        <ele>1053.5999755859375</ele>
        <time>2026-06-20T13:03:56.000Z</time>
        <extensions>
          <ns3:TrackPointExtension>
            <ns3:atemp>33.0</ns3:atemp>
          </ns3:TrackPointExtension>
        </extensions>
      </trkpt>
      <trkpt lat="42.4550766684114933013916015625" lon="20.2122029475867748260498046875">
        <ele>1053.5999755859375</ele>
        <time>2026-06-20T13:03:57.000Z</time>
        <extensions>
          <ns3:TrackPointExtension>
            <ns3:atemp>33.0</ns3:atemp>
          </ns3:TrackPointExtension>
        </extensions>
      </trkpt>
      <trkpt lat="42.4550766684114933013916015625" lon="20.2122029475867748260498046875">
        <ele>1053.5999755859375</ele>
        <time>2026-06-20T13:03:58.000Z</time>
        <extensions>
          <ns3:TrackPointExtension>
            <ns3:atemp>33.0</ns3:atemp>
          </ns3:TrackPointExtension>
        </extensions>
      </trkpt>
      <trkpt lat="42.4550766684114933013916015625" lon="20.2122029475867748260498046875">
        <ele>1053.5999755859375</ele>
        <time>2026-06-20T13:03:59.000Z</time>
        <extensions>
          <ns3:TrackPointExtension>
            <ns3:atemp>33.0</ns3:atemp>
          </ns3:TrackPointExtension>
        </extensions>
      </trkpt>
      <trkpt lat="42.4550766684114933013916015625" lon="20.2122029475867748260498046875">
        <ele>1053.5999755859375</ele>
        <time>2026-06-20T13:04:00.000Z</time>
        <extensions>
          <ns3:TrackPointExtension>
            <ns3:atemp>33.0</ns3:atemp>
          </ns3:TrackPointExtension>
        </extensions>
      </trkpt>
      <trkpt lat="42.4550766684114933013916015625" lon="20.2122029475867748260498046875">
        <ele>1053.5999755859375</ele>
        <time>2026-06-20T13:04:01.000Z</time>
        <extensions>
          <ns3:TrackPointExtension>
            <ns3:atemp>33.0</ns3:atemp>
          </ns3:TrackPointExtension>
        </extensions>
      </trkpt>
      <trkpt lat="42.4550766684114933013916015625" lon="20.2122029475867748260498046875">
        <ele>1053.5999755859375</ele>
        <time>2026-06-20T13:04:02.000Z</time>
        <extensions>
          <ns3:TrackPointExtension>
            <ns3:atemp>33.0</ns3:atemp>
          </ns3:TrackPointExtension>
        </extensions>
      </trkpt>
      <trkpt lat="42.4550766684114933013916015625" lon="20.2122029475867748260498046875">
        <ele>1053.5999755859375</ele>
        <time>2026-06-20T13:04:03.000Z</time>
        <extensions>
          <ns3:TrackPointExtension>
            <ns3:atemp>33.0</ns3:atemp>
          </ns3:TrackPointExtension>
        </extensions>
      </trkpt>
      <trkpt lat="42.4550766684114933013916015625" lon="20.2122029475867748260498046875">
        <ele>1053.5999755859375</ele>
        <time>2026-06-20T13:04:04.000Z</time>
        <extensions>
          <ns3:TrackPointExtension>
            <ns3:atemp>33.0</ns3:atemp>
          </ns3:TrackPointExtension>
        </extensions>
      </trkpt>
      <trkpt lat="42.4550766684114933013916015625" lon="20.2122029475867748260498046875">
        <ele>1053.5999755859375</ele>
        <time>2026-06-20T13:04:05.000Z</time>
        <extensions>
          <ns3:TrackPointExtension>
            <ns3:atemp>33.0</ns3:atemp>
          </ns3:TrackPointExtension>
        </extensions>
      </trkpt>
      <trkpt lat="42.4550766684114933013916015625" lon="20.2122029475867748260498046875">
        <ele>1053.5999755859375</ele>
        <time>2026-06-20T13:04:06.000Z</time>
        <extensions>
          <ns3:TrackPointExtension>
            <ns3:atemp>33.0</ns3:atemp>
          </ns3:TrackPointExtension>
        </extensions>
      </trkpt>
      <trkpt lat="42.4550766684114933013916015625" lon="20.2122029475867748260498046875">
        <ele>1053.5999755859375</ele>
        <time>2026-06-20T13:04:07.000Z</time>
        <extensions>
          <ns3:TrackPointExtension>
            <ns3:atemp>33.0</ns3:atemp>
          </ns3:TrackPointExtension>
        </extensions>
      </trkpt>
      <trkpt lat="42.4550766684114933013916015625" lon="20.2122029475867748260498046875">
        <ele>1053.5999755859375</ele>
        <time>2026-06-20T13:04:08.000Z</time>
        <extensions>
          <ns3:TrackPointExtension>
            <ns3:atemp>33.0</ns3:atemp>
          </ns3:TrackPointExtension>
        </extensions>
      </trkpt>
      <trkpt lat="42.4550766684114933013916015625" lon="20.2122029475867748260498046875">
        <ele>1053.5999755859375</ele>
        <time>2026-06-20T13:04:09.000Z</time>
        <extensions>
          <ns3:TrackPointExtension>
            <ns3:atemp>33.0</ns3:atemp>
          </ns3:TrackPointExtension>
        </extensions>
      </trkpt>
      <trkpt lat="42.4550766684114933013916015625" lon="20.2122029475867748260498046875">
        <ele>1053.5999755859375</ele>
        <time>2026-06-20T13:04:10.000Z</time>
        <extensions>
          <ns3:TrackPointExtension>
            <ns3:atemp>33.0</ns3:atemp>
          </ns3:TrackPointExtension>
        </extensions>
      </trkpt>
      <trkpt lat="42.4550766684114933013916015625" lon="20.2122029475867748260498046875">
        <ele>1053.5999755859375</ele>
        <time>2026-06-20T13:04:11.000Z</time>
        <extensions>
          <ns3:TrackPointExtension>
            <ns3:atemp>33.0</ns3:atemp>
          </ns3:TrackPointExtension>
        </extensions>
      </trkpt>
      <trkpt lat="42.4550766684114933013916015625" lon="20.2122029475867748260498046875">
        <ele>1053.5999755859375</ele>
        <time>2026-06-20T13:04:12.000Z</time>
        <extensions>
          <ns3:TrackPointExtension>
            <ns3:atemp>33.0</ns3:atemp>
          </ns3:TrackPointExtension>
        </extensions>
      </trkpt>
      <trkpt lat="42.4550766684114933013916015625" lon="20.2122029475867748260498046875">
        <ele>1053.5999755859375</ele>
        <time>2026-06-20T13:04:13.000Z</time>
        <extensions>
          <ns3:TrackPointExtension>
            <ns3:atemp>33.0</ns3:atemp>
          </ns3:TrackPointExtension>
        </extensions>
      </trkpt>
      <trkpt lat="42.4550766684114933013916015625" lon="20.2122029475867748260498046875">
        <ele>1053.5999755859375</ele>
        <time>2026-06-20T13:04:14.000Z</time>
        <extensions>
          <ns3:TrackPointExtension>
            <ns3:atemp>33.0</ns3:atemp>
          </ns3:TrackPointExtension>
        </extensions>
      </trkpt>
      <trkpt lat="42.4550766684114933013916015625" lon="20.2122029475867748260498046875">
        <ele>1053.5999755859375</ele>
        <time>2026-06-20T13:04:15.000Z</time>
        <extensions>
          <ns3:TrackPointExtension>
            <ns3:atemp>33.0</ns3:atemp>
          </ns3:TrackPointExtension>
        </extensions>
      </trkpt>
      <trkpt lat="42.4550766684114933013916015625" lon="20.2122029475867748260498046875">
        <ele>1053.5999755859375</ele>
        <time>2026-06-20T13:04:16.000Z</time>
        <extensions>
          <ns3:TrackPointExtension>
            <ns3:atemp>33.0</ns3:atemp>
          </ns3:TrackPointExtension>
        </extensions>
      </trkpt>
      <trkpt lat="42.4550766684114933013916015625" lon="20.2122029475867748260498046875">
        <ele>1053.5999755859375</ele>
        <time>2026-06-20T13:04:17.000Z</time>
        <extensions>
          <ns3:TrackPointExtension>
            <ns3:atemp>33.0</ns3:atemp>
          </ns3:TrackPointExtension>
        </extensions>
      </trkpt>
      <trkpt lat="42.4550766684114933013916015625" lon="20.2122029475867748260498046875">
        <ele>1053.5999755859375</ele>
        <time>2026-06-20T13:04:18.000Z</time>
        <extensions>
          <ns3:TrackPointExtension>
            <ns3:atemp>33.0</ns3:atemp>
          </ns3:TrackPointExtension>
        </extensions>
      </trkpt>
      <trkpt lat="42.4550766684114933013916015625" lon="20.2122029475867748260498046875">
        <ele>1053.5999755859375</ele>
        <time>2026-06-20T13:04:19.000Z</time>
        <extensions>
          <ns3:TrackPointExtension>
            <ns3:atemp>33.0</ns3:atemp>
          </ns3:TrackPointExtension>
        </extensions>
      </trkpt>
      <trkpt lat="42.4550766684114933013916015625" lon="20.2122029475867748260498046875">
        <ele>1053.5999755859375</ele>
        <time>2026-06-20T13:04:20.000Z</time>
        <extensions>
          <ns3:TrackPointExtension>
            <ns3:atemp>33.0</ns3:atemp>
          </ns3:TrackPointExtension>
        </extensions>
      </trkpt>
      <trkpt lat="42.4550766684114933013916015625" lon="20.2122029475867748260498046875">
        <ele>1053.5999755859375</ele>
        <time>2026-06-20T13:04:21.000Z</time>
        <extensions>
          <ns3:TrackPointExtension>
            <ns3:atemp>33.0</ns3:atemp>
          </ns3:TrackPointExtension>
        </extensions>
      </trkpt>
      <trkpt lat="42.4550766684114933013916015625" lon="20.2122029475867748260498046875">
        <ele>1053.5999755859375</ele>
        <time>2026-06-20T13:04:22.000Z</time>
        <extensions>
          <ns3:TrackPointExtension>
            <ns3:atemp>33.0</ns3:atemp>
          </ns3:TrackPointExtension>
        </extensions>
      </trkpt>
      <trkpt lat="42.4550766684114933013916015625" lon="20.2122029475867748260498046875">
        <ele>1053.5999755859375</ele>
        <time>2026-06-20T13:04:23.000Z</time>
        <extensions>
          <ns3:TrackPointExtension>
            <ns3:atemp>33.0</ns3:atemp>
          </ns3:TrackPointExtension>
        </extensions>
      </trkpt>
      <trkpt lat="42.4550766684114933013916015625" lon="20.2122029475867748260498046875">
        <ele>1053.5999755859375</ele>
        <time>2026-06-20T13:04:24.000Z</time>
        <extensions>
          <ns3:TrackPointExtension>
            <ns3:atemp>33.0</ns3:atemp>
          </ns3:TrackPointExtension>
        </extensions>
      </trkpt>
      <trkpt lat="42.4550766684114933013916015625" lon="20.2122029475867748260498046875">
        <ele>1053.5999755859375</ele>
        <time>2026-06-20T13:04:25.000Z</time>
        <extensions>
          <ns3:TrackPointExtension>
            <ns3:atemp>33.0</ns3:atemp>
          </ns3:TrackPointExtension>
        </extensions>
      </trkpt>
      <trkpt lat="42.4550766684114933013916015625" lon="20.2122029475867748260498046875">
        <ele>1053.5999755859375</ele>
        <time>2026-06-20T13:04:26.000Z</time>
        <extensions>
          <ns3:TrackPointExtension>
            <ns3:atemp>33.0</ns3:atemp>
          </ns3:TrackPointExtension>
        </extensions>
      </trkpt>
      <trkpt lat="42.4550766684114933013916015625" lon="20.2122029475867748260498046875">
        <ele>1053.5999755859375</ele>
        <time>2026-06-20T13:04:27.000Z</time>
        <extensions>
          <ns3:TrackPointExtension>
            <ns3:atemp>33.0</ns3:atemp>
          </ns3:TrackPointExtension>
        </extensions>
      </trkpt>
      <trkpt lat="42.4550766684114933013916015625" lon="20.2122029475867748260498046875">
        <ele>1053.5999755859375</ele>
        <time>2026-06-20T13:04:28.000Z</time>
        <extensions>
          <ns3:TrackPointExtension>
            <ns3:atemp>33.0</ns3:atemp>
          </ns3:TrackPointExtension>
        </extensions>
      </trkpt>
      <trkpt lat="42.4550766684114933013916015625" lon="20.2122029475867748260498046875">
        <ele>1053.5999755859375</ele>
        <time>2026-06-20T13:04:29.000Z</time>
        <extensions>
          <ns3:TrackPointExtension>
            <ns3:atemp>33.0</ns3:atemp>
          </ns3:TrackPointExtension>
        </extensions>
      </trkpt>
      <trkpt lat="42.4550766684114933013916015625" lon="20.2122029475867748260498046875">
        <ele>1053.5999755859375</ele>
        <time>2026-06-20T13:04:30.000Z</time>
        <extensions>
          <ns3:TrackPointExtension>
            <ns3:atemp>33.0</ns3:atemp>
          </ns3:TrackPointExtension>
        </extensions>
      </trkpt>
      <trkpt lat="42.4550766684114933013916015625" lon="20.2122029475867748260498046875">
        <ele>1053.5999755859375</ele>
        <time>2026-06-20T13:04:31.000Z</time>
        <extensions>
          <ns3:TrackPointExtension>
            <ns3:atemp>33.0</ns3:atemp>
          </ns3:TrackPointExtension>
        </extensions>
      </trkpt>
      <trkpt lat="42.4550766684114933013916015625" lon="20.2122029475867748260498046875">
        <ele>1053.5999755859375</ele>
        <time>2026-06-20T13:04:32.000Z</time>
        <extensions>
          <ns3:TrackPointExtension>
            <ns3:atemp>33.0</ns3:atemp>
          </ns3:TrackPointExtension>
        </extensions>
      </trkpt>
      <trkpt lat="42.4550766684114933013916015625" lon="20.2122029475867748260498046875">
        <ele>1053.5999755859375</ele>
        <time>2026-06-20T13:04:33.000Z</time>
        <extensions>
          <ns3:TrackPointExtension>
            <ns3:atemp>33.0</ns3:atemp>
          </ns3:TrackPointExtension>
        </extensions>
      </trkpt>
      <trkpt lat="42.4550766684114933013916015625" lon="20.2122029475867748260498046875">
        <ele>1053.5999755859375</ele>
        <time>2026-06-20T13:04:34.000Z</time>
        <extensions>
          <ns3:TrackPointExtension>
            <ns3:atemp>33.0</ns3:atemp>
          </ns3:TrackPointExtension>
        </extensions>
      </trkpt>
      <trkpt lat="42.4550766684114933013916015625" lon="20.2122029475867748260498046875">
        <ele>1053.5999755859375</ele>
        <time>2026-06-20T13:04:35.000Z</time>
        <extensions>
          <ns3:TrackPointExtension>
            <ns3:atemp>33.0</ns3:atemp>
          </ns3:TrackPointExtension>
        </extensions>
      </trkpt>
      <trkpt lat="42.4550766684114933013916015625" lon="20.2122029475867748260498046875">
        <ele>1053.5999755859375</ele>
        <time>2026-06-20T13:04:36.000Z</time>
        <extensions>
          <ns3:TrackPointExtension>
            <ns3:atemp>33.0</ns3:atemp>
          </ns3:TrackPointExtension>
        </extensions>
      </trkpt>
      <trkpt lat="42.4550766684114933013916015625" lon="20.2122029475867748260498046875">
        <ele>1053.5999755859375</ele>
        <time>2026-06-20T13:04:37.000Z</time>
        <extensions>
          <ns3:TrackPointExtension>
            <ns3:atemp>33.0</ns3:atemp>
          </ns3:TrackPointExtension>
        </extensions>
      </trkpt>
      <trkpt lat="42.4550766684114933013916015625" lon="20.2122029475867748260498046875">
        <ele>1053.5999755859375</ele>
        <time>2026-06-20T13:04:38.000Z</time>
        <extensions>
          <ns3:TrackPointExtension>
            <ns3:atemp>33.0</ns3:atemp>
          </ns3:TrackPointExtension>
        </extensions>
      </trkpt>
      <trkpt lat="42.4550766684114933013916015625" lon="20.2122029475867748260498046875">
        <ele>1053.5999755859375</ele>
        <time>2026-06-20T13:04:39.000Z</time>
        <extensions>
          <ns3:TrackPointExtension>
            <ns3:atemp>33.0</ns3:atemp>
          </ns3:TrackPointExtension>
        </extensions>
      </trkpt>
      <trkpt lat="42.4550766684114933013916015625" lon="20.2122029475867748260498046875">
        <ele>1053.5999755859375</ele>
        <time>2026-06-20T13:04:40.000Z</time>
        <extensions>
          <ns3:TrackPointExtension>
            <ns3:atemp>33.0</ns3:atemp>
          </ns3:TrackPointExtension>
        </extensions>
      </trkpt>
      <trkpt lat="42.4550766684114933013916015625" lon="20.2122029475867748260498046875">
        <ele>1053.5999755859375</ele>
        <time>2026-06-20T13:04:41.000Z</time>
        <extensions>
          <ns3:TrackPointExtension>
            <ns3:atemp>33.0</ns3:atemp>
          </ns3:TrackPointExtension>
        </extensions>
      </trkpt>
      <trkpt lat="42.4550766684114933013916015625" lon="20.2122029475867748260498046875">
        <ele>1053.5999755859375</ele>
        <time>2026-06-20T13:04:42.000Z</time>
        <extensions>
          <ns3:TrackPointExtension>
            <ns3:atemp>33.0</ns3:atemp>
          </ns3:TrackPointExtension>
        </extensions>
      </trkpt>
      <trkpt lat="42.4550766684114933013916015625" lon="20.2122029475867748260498046875">
        <ele>1053.5999755859375</ele>
        <time>2026-06-20T13:04:43.000Z</time>
        <extensions>
          <ns3:TrackPointExtension>
            <ns3:atemp>33.0</ns3:atemp>
          </ns3:TrackPointExtension>
        </extensions>
      </trkpt>
      <trkpt lat="42.4550766684114933013916015625" lon="20.2122029475867748260498046875">
        <ele>1053.5999755859375</ele>
        <time>2026-06-20T13:04:44.000Z</time>
        <extensions>
          <ns3:TrackPointExtension>
            <ns3:atemp>33.0</ns3:atemp>
          </ns3:TrackPointExtension>
        </extensions>
      </trkpt>
      <trkpt lat="42.4550766684114933013916015625" lon="20.2122029475867748260498046875">
        <ele>1053.5999755859375</ele>
        <time>2026-06-20T13:04:45.000Z</time>
        <extensions>
          <ns3:TrackPointExtension>
            <ns3:atemp>33.0</ns3:atemp>
          </ns3:TrackPointExtension>
        </extensions>
      </trkpt>
      <trkpt lat="42.4550766684114933013916015625" lon="20.2122029475867748260498046875">
        <ele>1053.5999755859375</ele>
        <time>2026-06-20T13:04:46.000Z</time>
        <extensions>
          <ns3:TrackPointExtension>
            <ns3:atemp>33.0</ns3:atemp>
          </ns3:TrackPointExtension>
        </extensions>
      </trkpt>
      <trkpt lat="42.4550766684114933013916015625" lon="20.2122029475867748260498046875">
        <ele>1053.5999755859375</ele>
        <time>2026-06-20T13:04:47.000Z</time>
        <extensions>
          <ns3:TrackPointExtension>
            <ns3:atemp>33.0</ns3:atemp>
          </ns3:TrackPointExtension>
        </extensions>
      </trkpt>
      <trkpt lat="42.4550766684114933013916015625" lon="20.2122029475867748260498046875">
        <ele>1053.5999755859375</ele>
        <time>2026-06-20T13:04:48.000Z</time>
        <extensions>
          <ns3:TrackPointExtension>
            <ns3:atemp>33.0</ns3:atemp>
          </ns3:TrackPointExtension>
        </extensions>
      </trkpt>
      <trkpt lat="42.4550766684114933013916015625" lon="20.2122029475867748260498046875">
        <ele>1053.5999755859375</ele>
        <time>2026-06-20T13:04:49.000Z</time>
        <extensions>
          <ns3:TrackPointExtension>
            <ns3:atemp>33.0</ns3:atemp>
          </ns3:TrackPointExtension>
        </extensions>
      </trkpt>
      <trkpt lat="42.4550766684114933013916015625" lon="20.2122029475867748260498046875">
        <ele>1053.5999755859375</ele>
        <time>2026-06-20T13:04:50.000Z</time>
        <extensions>
          <ns3:TrackPointExtension>
            <ns3:atemp>33.0</ns3:atemp>
          </ns3:TrackPointExtension>
        </extensions>
      </trkpt>
      <trkpt lat="42.4550766684114933013916015625" lon="20.2122029475867748260498046875">
        <ele>1053.5999755859375</ele>
        <time>2026-06-20T13:04:51.000Z</time>
        <extensions>
          <ns3:TrackPointExtension>
            <ns3:atemp>33.0</ns3:atemp>
          </ns3:TrackPointExtension>
        </extensions>
      </trkpt>
      <trkpt lat="42.4550766684114933013916015625" lon="20.2122029475867748260498046875">
        <ele>1053.5999755859375</ele>
        <time>2026-06-20T13:04:52.000Z</time>
        <extensions>
          <ns3:TrackPointExtension>
            <ns3:atemp>33.0</ns3:atemp>
          </ns3:TrackPointExtension>
        </extensions>
      </trkpt>
      <trkpt lat="42.4550766684114933013916015625" lon="20.2122029475867748260498046875">
        <ele>1053.5999755859375</ele>
        <time>2026-06-20T13:04:53.000Z</time>
        <extensions>
          <ns3:TrackPointExtension>
            <ns3:atemp>33.0</ns3:atemp>
          </ns3:TrackPointExtension>
        </extensions>
      </trkpt>
      <trkpt lat="42.4550766684114933013916015625" lon="20.2122029475867748260498046875">
        <ele>1053.5999755859375</ele>
        <time>2026-06-20T13:04:54.000Z</time>
        <extensions>
          <ns3:TrackPointExtension>
            <ns3:atemp>33.0</ns3:atemp>
          </ns3:TrackPointExtension>
        </extensions>
      </trkpt>
      <trkpt lat="42.4550766684114933013916015625" lon="20.2122029475867748260498046875">
        <ele>1053.5999755859375</ele>
        <time>2026-06-20T13:04:55.000Z</time>
        <extensions>
          <ns3:TrackPointExtension>
            <ns3:atemp>33.0</ns3:atemp>
          </ns3:TrackPointExtension>
        </extensions>
      </trkpt>
      <trkpt lat="42.4550766684114933013916015625" lon="20.2122029475867748260498046875">
        <ele>1053.5999755859375</ele>
        <time>2026-06-20T13:04:56.000Z</time>
        <extensions>
          <ns3:TrackPointExtension>
            <ns3:atemp>34.0</ns3:atemp>
          </ns3:TrackPointExtension>
        </extensions>
      </trkpt>
      <trkpt lat="42.4550766684114933013916015625" lon="20.2122029475867748260498046875">
        <ele>1053.5999755859375</ele>
        <time>2026-06-20T13:04:57.000Z</time>
        <extensions>
          <ns3:TrackPointExtension>
            <ns3:atemp>34.0</ns3:atemp>
          </ns3:TrackPointExtension>
        </extensions>
      </trkpt>
      <trkpt lat="42.4550766684114933013916015625" lon="20.2122029475867748260498046875">
        <ele>1053.5999755859375</ele>
        <time>2026-06-20T13:04:58.000Z</time>
        <extensions>
          <ns3:TrackPointExtension>
            <ns3:atemp>34.0</ns3:atemp>
          </ns3:TrackPointExtension>
        </extensions>
      </trkpt>
      <trkpt lat="42.4550766684114933013916015625" lon="20.2122029475867748260498046875">
        <ele>1053.5999755859375</ele>
        <time>2026-06-20T13:04:59.000Z</time>
        <extensions>
          <ns3:TrackPointExtension>
            <ns3:atemp>34.0</ns3:atemp>
          </ns3:TrackPointExtension>
        </extensions>
      </trkpt>
      <trkpt lat="42.4550766684114933013916015625" lon="20.2122029475867748260498046875">
        <ele>1053.5999755859375</ele>
        <time>2026-06-20T13:05:00.000Z</time>
        <extensions>
          <ns3:TrackPointExtension>
            <ns3:atemp>34.0</ns3:atemp>
          </ns3:TrackPointExtension>
        </extensions>
      </trkpt>
      <trkpt lat="42.4550766684114933013916015625" lon="20.2122029475867748260498046875">
        <ele>1053.5999755859375</ele>
        <time>2026-06-20T13:05:01.000Z</time>
        <extensions>
          <ns3:TrackPointExtension>
            <ns3:atemp>34.0</ns3:atemp>
          </ns3:TrackPointExtension>
        </extensions>
      </trkpt>
      <trkpt lat="42.4550766684114933013916015625" lon="20.2122029475867748260498046875">
        <ele>1053.5999755859375</ele>
        <time>2026-06-20T13:05:02.000Z</time>
        <extensions>
          <ns3:TrackPointExtension>
            <ns3:atemp>34.0</ns3:atemp>
          </ns3:TrackPointExtension>
        </extensions>
      </trkpt>
      <trkpt lat="42.4550766684114933013916015625" lon="20.2122029475867748260498046875">
        <ele>1053.5999755859375</ele>
        <time>2026-06-20T13:05:03.000Z</time>
        <extensions>
          <ns3:TrackPointExtension>
            <ns3:atemp>34.0</ns3:atemp>
          </ns3:TrackPointExtension>
        </extensions>
      </trkpt>
      <trkpt lat="42.4550766684114933013916015625" lon="20.2122029475867748260498046875">
        <ele>1053.5999755859375</ele>
        <time>2026-06-20T13:05:04.000Z</time>
        <extensions>
          <ns3:TrackPointExtension>
            <ns3:atemp>34.0</ns3:atemp>
          </ns3:TrackPointExtension>
        </extensions>
      </trkpt>
      <trkpt lat="42.4550766684114933013916015625" lon="20.2122029475867748260498046875">
        <ele>1053.5999755859375</ele>
        <time>2026-06-20T13:05:05.000Z</time>
        <extensions>
          <ns3:TrackPointExtension>
            <ns3:atemp>34.0</ns3:atemp>
          </ns3:TrackPointExtension>
        </extensions>
      </trkpt>
      <trkpt lat="42.4550766684114933013916015625" lon="20.2122029475867748260498046875">
        <ele>1053.5999755859375</ele>
        <time>2026-06-20T13:05:06.000Z</time>
        <extensions>
          <ns3:TrackPointExtension>
            <ns3:atemp>34.0</ns3:atemp>
          </ns3:TrackPointExtension>
        </extensions>
      </trkpt>
      <trkpt lat="42.4550766684114933013916015625" lon="20.2122029475867748260498046875">
        <ele>1053.5999755859375</ele>
        <time>2026-06-20T13:05:07.000Z</time>
        <extensions>
          <ns3:TrackPointExtension>
            <ns3:atemp>34.0</ns3:atemp>
          </ns3:TrackPointExtension>
        </extensions>
      </trkpt>
      <trkpt lat="42.4550766684114933013916015625" lon="20.2122029475867748260498046875">
        <ele>1053.5999755859375</ele>
        <time>2026-06-20T13:05:08.000Z</time>
        <extensions>
          <ns3:TrackPointExtension>
            <ns3:atemp>34.0</ns3:atemp>
          </ns3:TrackPointExtension>
        </extensions>
      </trkpt>
      <trkpt lat="42.4550766684114933013916015625" lon="20.2122029475867748260498046875">
        <ele>1053.5999755859375</ele>
        <time>2026-06-20T13:05:09.000Z</time>
        <extensions>
          <ns3:TrackPointExtension>
            <ns3:atemp>34.0</ns3:atemp>
          </ns3:TrackPointExtension>
        </extensions>
      </trkpt>
      <trkpt lat="42.4550766684114933013916015625" lon="20.2122029475867748260498046875">
        <ele>1053.5999755859375</ele>
        <time>2026-06-20T13:05:10.000Z</time>
        <extensions>
          <ns3:TrackPointExtension>
            <ns3:atemp>34.0</ns3:atemp>
          </ns3:TrackPointExtension>
        </extensions>
      </trkpt>
      <trkpt lat="42.4550766684114933013916015625" lon="20.2122029475867748260498046875">
        <ele>1053.5999755859375</ele>
        <time>2026-06-20T13:05:11.000Z</time>
        <extensions>
          <ns3:TrackPointExtension>
            <ns3:atemp>34.0</ns3:atemp>
          </ns3:TrackPointExtension>
        </extensions>
      </trkpt>
      <trkpt lat="42.4550766684114933013916015625" lon="20.2122029475867748260498046875">
        <ele>1053.5999755859375</ele>
        <time>2026-06-20T13:05:12.000Z</time>
        <extensions>
          <ns3:TrackPointExtension>
            <ns3:atemp>34.0</ns3:atemp>
          </ns3:TrackPointExtension>
        </extensions>
      </trkpt>
      <trkpt lat="42.4550766684114933013916015625" lon="20.2122029475867748260498046875">
        <ele>1053.5999755859375</ele>
        <time>2026-06-20T13:05:13.000Z</time>
        <extensions>
          <ns3:TrackPointExtension>
            <ns3:atemp>34.0</ns3:atemp>
          </ns3:TrackPointExtension>
        </extensions>
      </trkpt>
      <trkpt lat="42.4550766684114933013916015625" lon="20.2122029475867748260498046875">
        <ele>1053.5999755859375</ele>
        <time>2026-06-20T13:05:14.000Z</time>
        <extensions>
          <ns3:TrackPointExtension>
            <ns3:atemp>34.0</ns3:atemp>
          </ns3:TrackPointExtension>
        </extensions>
      </trkpt>
      <trkpt lat="42.4550766684114933013916015625" lon="20.2122029475867748260498046875">
        <ele>1053.5999755859375</ele>
        <time>2026-06-20T13:05:15.000Z</time>
        <extensions>
          <ns3:TrackPointExtension>
            <ns3:atemp>34.0</ns3:atemp>
          </ns3:TrackPointExtension>
        </extensions>
      </trkpt>
      <trkpt lat="42.4550766684114933013916015625" lon="20.2122029475867748260498046875">
        <ele>1053.5999755859375</ele>
        <time>2026-06-20T13:05:16.000Z</time>
        <extensions>
          <ns3:TrackPointExtension>
            <ns3:atemp>34.0</ns3:atemp>
          </ns3:TrackPointExtension>
        </extensions>
      </trkpt>
      <trkpt lat="42.4550766684114933013916015625" lon="20.2122029475867748260498046875">
        <ele>1053.5999755859375</ele>
        <time>2026-06-20T13:05:17.000Z</time>
        <extensions>
          <ns3:TrackPointExtension>
            <ns3:atemp>34.0</ns3:atemp>
          </ns3:TrackPointExtension>
        </extensions>
      </trkpt>
      <trkpt lat="42.4550766684114933013916015625" lon="20.2122029475867748260498046875">
        <ele>1053.5999755859375</ele>
        <time>2026-06-20T13:05:18.000Z</time>
        <extensions>
          <ns3:TrackPointExtension>
            <ns3:atemp>34.0</ns3:atemp>
          </ns3:TrackPointExtension>
        </extensions>
      </trkpt>
      <trkpt lat="42.4550766684114933013916015625" lon="20.2122029475867748260498046875">
        <ele>1053.5999755859375</ele>
        <time>2026-06-20T13:05:19.000Z</time>
        <extensions>
          <ns3:TrackPointExtension>
            <ns3:atemp>34.0</ns3:atemp>
          </ns3:TrackPointExtension>
        </extensions>
      </trkpt>
      <trkpt lat="42.4550766684114933013916015625" lon="20.2122029475867748260498046875">
        <ele>1053.5999755859375</ele>
        <time>2026-06-20T13:05:20.000Z</time>
        <extensions>
          <ns3:TrackPointExtension>
            <ns3:atemp>34.0</ns3:atemp>
          </ns3:TrackPointExtension>
        </extensions>
      </trkpt>
      <trkpt lat="42.4550766684114933013916015625" lon="20.2122029475867748260498046875">
        <ele>1053.5999755859375</ele>
        <time>2026-06-20T13:05:21.000Z</time>
        <extensions>
          <ns3:TrackPointExtension>
            <ns3:atemp>34.0</ns3:atemp>
          </ns3:TrackPointExtension>
        </extensions>
      </trkpt>
      <trkpt lat="42.4550766684114933013916015625" lon="20.2122029475867748260498046875">
        <ele>1053.5999755859375</ele>
        <time>2026-06-20T13:05:22.000Z</time>
        <extensions>
          <ns3:TrackPointExtension>
            <ns3:atemp>34.0</ns3:atemp>
          </ns3:TrackPointExtension>
        </extensions>
      </trkpt>
      <trkpt lat="42.4550766684114933013916015625" lon="20.2122029475867748260498046875">
        <ele>1053.5999755859375</ele>
        <time>2026-06-20T13:05:23.000Z</time>
        <extensions>
          <ns3:TrackPointExtension>
            <ns3:atemp>34.0</ns3:atemp>
          </ns3:TrackPointExtension>
        </extensions>
      </trkpt>
      <trkpt lat="42.4550766684114933013916015625" lon="20.2122029475867748260498046875">
        <ele>1053.5999755859375</ele>
        <time>2026-06-20T13:05:24.000Z</time>
        <extensions>
          <ns3:TrackPointExtension>
            <ns3:atemp>34.0</ns3:atemp>
          </ns3:TrackPointExtension>
        </extensions>
      </trkpt>
      <trkpt lat="42.4550766684114933013916015625" lon="20.2122029475867748260498046875">
        <ele>1053.5999755859375</ele>
        <time>2026-06-20T13:05:25.000Z</time>
        <extensions>
          <ns3:TrackPointExtension>
            <ns3:atemp>34.0</ns3:atemp>
          </ns3:TrackPointExtension>
        </extensions>
      </trkpt>
      <trkpt lat="42.4550766684114933013916015625" lon="20.2122029475867748260498046875">
        <ele>1053.5999755859375</ele>
        <time>2026-06-20T13:05:26.000Z</time>
        <extensions>
          <ns3:TrackPointExtension>
            <ns3:atemp>34.0</ns3:atemp>
          </ns3:TrackPointExtension>
        </extensions>
      </trkpt>
      <trkpt lat="42.4550766684114933013916015625" lon="20.2122029475867748260498046875">
        <ele>1053.5999755859375</ele>
        <time>2026-06-20T13:05:27.000Z</time>
        <extensions>
          <ns3:TrackPointExtension>
            <ns3:atemp>34.0</ns3:atemp>
          </ns3:TrackPointExtension>
        </extensions>
      </trkpt>
      <trkpt lat="42.4550766684114933013916015625" lon="20.2122029475867748260498046875">
        <ele>1053.5999755859375</ele>
        <time>2026-06-20T13:05:28.000Z</time>
        <extensions>
          <ns3:TrackPointExtension>
            <ns3:atemp>34.0</ns3:atemp>
          </ns3:TrackPointExtension>
        </extensions>
      </trkpt>
      <trkpt lat="42.4550766684114933013916015625" lon="20.2122029475867748260498046875">
        <ele>1053.5999755859375</ele>
        <time>2026-06-20T13:05:29.000Z</time>
        <extensions>
          <ns3:TrackPointExtension>
            <ns3:atemp>34.0</ns3:atemp>
          </ns3:TrackPointExtension>
        </extensions>
      </trkpt>
      <trkpt lat="42.4550766684114933013916015625" lon="20.2122029475867748260498046875">
        <ele>1053.5999755859375</ele>
        <time>2026-06-20T13:05:30.000Z</time>
        <extensions>
          <ns3:TrackPointExtension>
            <ns3:atemp>34.0</ns3:atemp>
          </ns3:TrackPointExtension>
        </extensions>
      </trkpt>
      <trkpt lat="42.4550766684114933013916015625" lon="20.2122029475867748260498046875">
        <ele>1053.5999755859375</ele>
        <time>2026-06-20T13:05:31.000Z</time>
        <extensions>
          <ns3:TrackPointExtension>
            <ns3:atemp>34.0</ns3:atemp>
          </ns3:TrackPointExtension>
        </extensions>
      </trkpt>
      <trkpt lat="42.4550766684114933013916015625" lon="20.2122029475867748260498046875">
        <ele>1053.5999755859375</ele>
        <time>2026-06-20T13:05:32.000Z</time>
        <extensions>
          <ns3:TrackPointExtension>
            <ns3:atemp>34.0</ns3:atemp>
          </ns3:TrackPointExtension>
        </extensions>
      </trkpt>
      <trkpt lat="42.4550766684114933013916015625" lon="20.2122029475867748260498046875">
        <ele>1053.5999755859375</ele>
        <time>2026-06-20T13:05:33.000Z</time>
        <extensions>
          <ns3:TrackPointExtension>
            <ns3:atemp>34.0</ns3:atemp>
          </ns3:TrackPointExtension>
        </extensions>
      </trkpt>
      <trkpt lat="42.4550766684114933013916015625" lon="20.2122029475867748260498046875">
        <ele>1053.5999755859375</ele>
        <time>2026-06-20T13:05:34.000Z</time>
        <extensions>
          <ns3:TrackPointExtension>
            <ns3:atemp>34.0</ns3:atemp>
          </ns3:TrackPointExtension>
        </extensions>
      </trkpt>
      <trkpt lat="42.4550766684114933013916015625" lon="20.2122029475867748260498046875">
        <ele>1053.5999755859375</ele>
        <time>2026-06-20T13:05:35.000Z</time>
        <extensions>
          <ns3:TrackPointExtension>
            <ns3:atemp>34.0</ns3:atemp>
          </ns3:TrackPointExtension>
        </extensions>
      </trkpt>
      <trkpt lat="42.4550766684114933013916015625" lon="20.2122029475867748260498046875">
        <ele>1053.5999755859375</ele>
        <time>2026-06-20T13:05:36.000Z</time>
        <extensions>
          <ns3:TrackPointExtension>
            <ns3:atemp>34.0</ns3:atemp>
          </ns3:TrackPointExtension>
        </extensions>
      </trkpt>
      <trkpt lat="42.4550766684114933013916015625" lon="20.2122029475867748260498046875">
        <ele>1053.5999755859375</ele>
        <time>2026-06-20T13:05:37.000Z</time>
        <extensions>
          <ns3:TrackPointExtension>
            <ns3:atemp>34.0</ns3:atemp>
          </ns3:TrackPointExtension>
        </extensions>
      </trkpt>
      <trkpt lat="42.4550766684114933013916015625" lon="20.2122029475867748260498046875">
        <ele>1053.5999755859375</ele>
        <time>2026-06-20T13:05:38.000Z</time>
        <extensions>
          <ns3:TrackPointExtension>
            <ns3:atemp>34.0</ns3:atemp>
          </ns3:TrackPointExtension>
        </extensions>
      </trkpt>
      <trkpt lat="42.4550766684114933013916015625" lon="20.2122029475867748260498046875">
        <ele>1053.5999755859375</ele>
        <time>2026-06-20T13:05:39.000Z</time>
        <extensions>
          <ns3:TrackPointExtension>
            <ns3:atemp>34.0</ns3:atemp>
          </ns3:TrackPointExtension>
        </extensions>
      </trkpt>
      <trkpt lat="42.4550766684114933013916015625" lon="20.2122029475867748260498046875">
        <ele>1053.5999755859375</ele>
        <time>2026-06-20T13:05:40.000Z</time>
        <extensions>
          <ns3:TrackPointExtension>
            <ns3:atemp>34.0</ns3:atemp>
          </ns3:TrackPointExtension>
        </extensions>
      </trkpt>
      <trkpt lat="42.4550766684114933013916015625" lon="20.2122029475867748260498046875">
        <ele>1053.5999755859375</ele>
        <time>2026-06-20T13:05:41.000Z</time>
        <extensions>
          <ns3:TrackPointExtension>
            <ns3:atemp>34.0</ns3:atemp>
          </ns3:TrackPointExtension>
        </extensions>
      </trkpt>
      <trkpt lat="42.4550766684114933013916015625" lon="20.2122029475867748260498046875">
        <ele>1053.5999755859375</ele>
        <time>2026-06-20T13:05:42.000Z</time>
        <extensions>
          <ns3:TrackPointExtension>
            <ns3:atemp>34.0</ns3:atemp>
          </ns3:TrackPointExtension>
        </extensions>
      </trkpt>
      <trkpt lat="42.4550766684114933013916015625" lon="20.2122029475867748260498046875">
        <ele>1053.5999755859375</ele>
        <time>2026-06-20T13:05:43.000Z</time>
        <extensions>
          <ns3:TrackPointExtension>
            <ns3:atemp>34.0</ns3:atemp>
          </ns3:TrackPointExtension>
        </extensions>
      </trkpt>
      <trkpt lat="42.4550766684114933013916015625" lon="20.2122029475867748260498046875">
        <ele>1053.5999755859375</ele>
        <time>2026-06-20T13:05:44.000Z</time>
        <extensions>
          <ns3:TrackPointExtension>
            <ns3:atemp>34.0</ns3:atemp>
          </ns3:TrackPointExtension>
        </extensions>
      </trkpt>
      <trkpt lat="42.4550766684114933013916015625" lon="20.2122029475867748260498046875">
        <ele>1053.5999755859375</ele>
        <time>2026-06-20T13:05:45.000Z</time>
        <extensions>
          <ns3:TrackPointExtension>
            <ns3:atemp>34.0</ns3:atemp>
          </ns3:TrackPointExtension>
        </extensions>
      </trkpt>
      <trkpt lat="42.4550766684114933013916015625" lon="20.2122029475867748260498046875">
        <ele>1053.5999755859375</ele>
        <time>2026-06-20T13:05:46.000Z</time>
        <extensions>
          <ns3:TrackPointExtension>
            <ns3:atemp>34.0</ns3:atemp>
          </ns3:TrackPointExtension>
        </extensions>
      </trkpt>
      <trkpt lat="42.4550766684114933013916015625" lon="20.2122029475867748260498046875">
        <ele>1053.5999755859375</ele>
        <time>2026-06-20T13:05:47.000Z</time>
        <extensions>
          <ns3:TrackPointExtension>
            <ns3:atemp>34.0</ns3:atemp>
          </ns3:TrackPointExtension>
        </extensions>
      </trkpt>
      <trkpt lat="42.4550766684114933013916015625" lon="20.2122029475867748260498046875">
        <ele>1053.5999755859375</ele>
        <time>2026-06-20T13:05:48.000Z</time>
        <extensions>
          <ns3:TrackPointExtension>
            <ns3:atemp>34.0</ns3:atemp>
          </ns3:TrackPointExtension>
        </extensions>
      </trkpt>
      <trkpt lat="42.4550766684114933013916015625" lon="20.2122029475867748260498046875">
        <ele>1053.5999755859375</ele>
        <time>2026-06-20T13:05:49.000Z</time>
        <extensions>
          <ns3:TrackPointExtension>
            <ns3:atemp>34.0</ns3:atemp>
          </ns3:TrackPointExtension>
        </extensions>
      </trkpt>
      <trkpt lat="42.4550766684114933013916015625" lon="20.2122029475867748260498046875">
        <ele>1053.5999755859375</ele>
        <time>2026-06-20T13:05:50.000Z</time>
        <extensions>
          <ns3:TrackPointExtension>
            <ns3:atemp>34.0</ns3:atemp>
          </ns3:TrackPointExtension>
        </extensions>
      </trkpt>
      <trkpt lat="42.4550766684114933013916015625" lon="20.2122029475867748260498046875">
        <ele>1053.5999755859375</ele>
        <time>2026-06-20T13:05:51.000Z</time>
        <extensions>
          <ns3:TrackPointExtension>
            <ns3:atemp>34.0</ns3:atemp>
          </ns3:TrackPointExtension>
        </extensions>
      </trkpt>
      <trkpt lat="42.4550766684114933013916015625" lon="20.2122029475867748260498046875">
        <ele>1053.5999755859375</ele>
        <time>2026-06-20T13:05:52.000Z</time>
        <extensions>
          <ns3:TrackPointExtension>
            <ns3:atemp>34.0</ns3:atemp>
          </ns3:TrackPointExtension>
        </extensions>
      </trkpt>
      <trkpt lat="42.4550766684114933013916015625" lon="20.2122029475867748260498046875">
        <ele>1053.5999755859375</ele>
        <time>2026-06-20T13:05:53.000Z</time>
        <extensions>
          <ns3:TrackPointExtension>
            <ns3:atemp>34.0</ns3:atemp>
          </ns3:TrackPointExtension>
        </extensions>
      </trkpt>
      <trkpt lat="42.4550766684114933013916015625" lon="20.2122029475867748260498046875">
        <ele>1053.5999755859375</ele>
        <time>2026-06-20T13:05:54.000Z</time>
        <extensions>
          <ns3:TrackPointExtension>
            <ns3:atemp>34.0</ns3:atemp>
          </ns3:TrackPointExtension>
        </extensions>
      </trkpt>
      <trkpt lat="42.4550766684114933013916015625" lon="20.2122029475867748260498046875">
        <ele>1053.5999755859375</ele>
        <time>2026-06-20T13:05:55.000Z</time>
        <extensions>
          <ns3:TrackPointExtension>
            <ns3:atemp>34.0</ns3:atemp>
          </ns3:TrackPointExtension>
        </extensions>
      </trkpt>
      <trkpt lat="42.4550766684114933013916015625" lon="20.2122029475867748260498046875">
        <ele>1053.5999755859375</ele>
        <time>2026-06-20T13:05:56.000Z</time>
        <extensions>
          <ns3:TrackPointExtension>
            <ns3:atemp>34.0</ns3:atemp>
          </ns3:TrackPointExtension>
        </extensions>
      </trkpt>
      <trkpt lat="42.4550766684114933013916015625" lon="20.2122029475867748260498046875">
        <ele>1053.5999755859375</ele>
        <time>2026-06-20T13:05:57.000Z</time>
        <extensions>
          <ns3:TrackPointExtension>
            <ns3:atemp>34.0</ns3:atemp>
          </ns3:TrackPointExtension>
        </extensions>
      </trkpt>
      <trkpt lat="42.4550766684114933013916015625" lon="20.2122029475867748260498046875">
        <ele>1053.5999755859375</ele>
        <time>2026-06-20T13:05:58.000Z</time>
        <extensions>
          <ns3:TrackPointExtension>
            <ns3:atemp>34.0</ns3:atemp>
          </ns3:TrackPointExtension>
        </extensions>
      </trkpt>
      <trkpt lat="42.4550766684114933013916015625" lon="20.2122029475867748260498046875">
        <ele>1053.5999755859375</ele>
        <time>2026-06-20T13:05:59.000Z</time>
        <extensions>
          <ns3:TrackPointExtension>
            <ns3:atemp>34.0</ns3:atemp>
          </ns3:TrackPointExtension>
        </extensions>
      </trkpt>
      <trkpt lat="42.4550766684114933013916015625" lon="20.2122029475867748260498046875">
        <ele>1053.5999755859375</ele>
        <time>2026-06-20T13:06:00.000Z</time>
        <extensions>
          <ns3:TrackPointExtension>
            <ns3:atemp>34.0</ns3:atemp>
          </ns3:TrackPointExtension>
        </extensions>
      </trkpt>
      <trkpt lat="42.4550766684114933013916015625" lon="20.2122029475867748260498046875">
        <ele>1053.5999755859375</ele>
        <time>2026-06-20T13:06:01.000Z</time>
        <extensions>
          <ns3:TrackPointExtension>
            <ns3:atemp>34.0</ns3:atemp>
          </ns3:TrackPointExtension>
        </extensions>
      </trkpt>
      <trkpt lat="42.4550766684114933013916015625" lon="20.2122029475867748260498046875">
        <ele>1053.5999755859375</ele>
        <time>2026-06-20T13:06:02.000Z</time>
        <extensions>
          <ns3:TrackPointExtension>
            <ns3:atemp>34.0</ns3:atemp>
          </ns3:TrackPointExtension>
        </extensions>
      </trkpt>
      <trkpt lat="42.4550766684114933013916015625" lon="20.2122029475867748260498046875">
        <ele>1053.5999755859375</ele>
        <time>2026-06-20T13:06:03.000Z</time>
        <extensions>
          <ns3:TrackPointExtension>
            <ns3:atemp>34.0</ns3:atemp>
          </ns3:TrackPointExtension>
        </extensions>
      </trkpt>
      <trkpt lat="42.4550766684114933013916015625" lon="20.2122029475867748260498046875">
        <ele>1053.5999755859375</ele>
        <time>2026-06-20T13:06:04.000Z</time>
        <extensions>
          <ns3:TrackPointExtension>
            <ns3:atemp>34.0</ns3:atemp>
          </ns3:TrackPointExtension>
        </extensions>
      </trkpt>
      <trkpt lat="42.4550766684114933013916015625" lon="20.2122029475867748260498046875">
        <ele>1053.5999755859375</ele>
        <time>2026-06-20T13:06:05.000Z</time>
        <extensions>
          <ns3:TrackPointExtension>
            <ns3:atemp>34.0</ns3:atemp>
          </ns3:TrackPointExtension>
        </extensions>
      </trkpt>
      <trkpt lat="42.4550766684114933013916015625" lon="20.2122029475867748260498046875">
        <ele>1053.5999755859375</ele>
        <time>2026-06-20T13:06:06.000Z</time>
        <extensions>
          <ns3:TrackPointExtension>
            <ns3:atemp>34.0</ns3:atemp>
          </ns3:TrackPointExtension>
        </extensions>
      </trkpt>
      <trkpt lat="42.4550766684114933013916015625" lon="20.2122029475867748260498046875">
        <ele>1053.5999755859375</ele>
        <time>2026-06-20T13:06:07.000Z</time>
        <extensions>
          <ns3:TrackPointExtension>
            <ns3:atemp>34.0</ns3:atemp>
          </ns3:TrackPointExtension>
        </extensions>
      </trkpt>
      <trkpt lat="42.4550766684114933013916015625" lon="20.2122029475867748260498046875">
        <ele>1053.5999755859375</ele>
        <time>2026-06-20T13:06:08.000Z</time>
        <extensions>
          <ns3:TrackPointExtension>
            <ns3:atemp>34.0</ns3:atemp>
          </ns3:TrackPointExtension>
        </extensions>
      </trkpt>
      <trkpt lat="42.4550766684114933013916015625" lon="20.2122029475867748260498046875">
        <ele>1053.5999755859375</ele>
        <time>2026-06-20T13:06:09.000Z</time>
        <extensions>
          <ns3:TrackPointExtension>
            <ns3:atemp>34.0</ns3:atemp>
          </ns3:TrackPointExtension>
        </extensions>
      </trkpt>
      <trkpt lat="42.4550766684114933013916015625" lon="20.2122029475867748260498046875">
        <ele>1053.5999755859375</ele>
        <time>2026-06-20T13:06:10.000Z</time>
        <extensions>
          <ns3:TrackPointExtension>
            <ns3:atemp>34.0</ns3:atemp>
          </ns3:TrackPointExtension>
        </extensions>
      </trkpt>
      <trkpt lat="42.4550766684114933013916015625" lon="20.2122029475867748260498046875">
        <ele>1053.5999755859375</ele>
        <time>2026-06-20T13:06:11.000Z</time>
        <extensions>
          <ns3:TrackPointExtension>
            <ns3:atemp>34.0</ns3:atemp>
          </ns3:TrackPointExtension>
        </extensions>
      </trkpt>
      <trkpt lat="42.4550766684114933013916015625" lon="20.2122029475867748260498046875">
        <ele>1053.5999755859375</ele>
        <time>2026-06-20T13:06:12.000Z</time>
        <extensions>
          <ns3:TrackPointExtension>
            <ns3:atemp>34.0</ns3:atemp>
          </ns3:TrackPointExtension>
        </extensions>
      </trkpt>
      <trkpt lat="42.4550766684114933013916015625" lon="20.2122029475867748260498046875">
        <ele>1053.5999755859375</ele>
        <time>2026-06-20T13:06:13.000Z</time>
        <extensions>
          <ns3:TrackPointExtension>
            <ns3:atemp>34.0</ns3:atemp>
          </ns3:TrackPointExtension>
        </extensions>
      </trkpt>
      <trkpt lat="42.4550766684114933013916015625" lon="20.2122029475867748260498046875">
        <ele>1053.5999755859375</ele>
        <time>2026-06-20T13:06:14.000Z</time>
        <extensions>
          <ns3:TrackPointExtension>
            <ns3:atemp>34.0</ns3:atemp>
          </ns3:TrackPointExtension>
        </extensions>
      </trkpt>
      <trkpt lat="42.4550766684114933013916015625" lon="20.2122029475867748260498046875">
        <ele>1053.5999755859375</ele>
        <time>2026-06-20T13:06:15.000Z</time>
        <extensions>
          <ns3:TrackPointExtension>
            <ns3:atemp>34.0</ns3:atemp>
          </ns3:TrackPointExtension>
        </extensions>
      </trkpt>
      <trkpt lat="42.4550766684114933013916015625" lon="20.2122029475867748260498046875">
        <ele>1053.5999755859375</ele>
        <time>2026-06-20T13:06:16.000Z</time>
        <extensions>
          <ns3:TrackPointExtension>
            <ns3:atemp>34.0</ns3:atemp>
          </ns3:TrackPointExtension>
        </extensions>
      </trkpt>
      <trkpt lat="42.4550766684114933013916015625" lon="20.2122029475867748260498046875">
        <ele>1053.5999755859375</ele>
        <time>2026-06-20T13:06:17.000Z</time>
        <extensions>
          <ns3:TrackPointExtension>
            <ns3:atemp>34.0</ns3:atemp>
          </ns3:TrackPointExtension>
        </extensions>
      </trkpt>
      <trkpt lat="42.4550766684114933013916015625" lon="20.2122029475867748260498046875">
        <ele>1053.5999755859375</ele>
        <time>2026-06-20T13:06:18.000Z</time>
        <extensions>
          <ns3:TrackPointExtension>
            <ns3:atemp>34.0</ns3:atemp>
          </ns3:TrackPointExtension>
        </extensions>
      </trkpt>
      <trkpt lat="42.4550766684114933013916015625" lon="20.2122029475867748260498046875">
        <ele>1053.5999755859375</ele>
        <time>2026-06-20T13:06:19.000Z</time>
        <extensions>
          <ns3:TrackPointExtension>
            <ns3:atemp>34.0</ns3:atemp>
          </ns3:TrackPointExtension>
        </extensions>
      </trkpt>
      <trkpt lat="42.4550766684114933013916015625" lon="20.2122029475867748260498046875">
        <ele>1053.5999755859375</ele>
        <time>2026-06-20T13:06:20.000Z</time>
        <extensions>
          <ns3:TrackPointExtension>
            <ns3:atemp>34.0</ns3:atemp>
          </ns3:TrackPointExtension>
        </extensions>
      </trkpt>
      <trkpt lat="42.4550766684114933013916015625" lon="20.2122029475867748260498046875">
        <ele>1053.5999755859375</ele>
        <time>2026-06-20T13:06:21.000Z</time>
        <extensions>
          <ns3:TrackPointExtension>
            <ns3:atemp>34.0</ns3:atemp>
          </ns3:TrackPointExtension>
        </extensions>
      </trkpt>
      <trkpt lat="42.4550766684114933013916015625" lon="20.2122029475867748260498046875">
        <ele>1053.5999755859375</ele>
        <time>2026-06-20T13:06:22.000Z</time>
        <extensions>
          <ns3:TrackPointExtension>
            <ns3:atemp>34.0</ns3:atemp>
          </ns3:TrackPointExtension>
        </extensions>
      </trkpt>
      <trkpt lat="42.4550766684114933013916015625" lon="20.2122029475867748260498046875">
        <ele>1053.5999755859375</ele>
        <time>2026-06-20T13:06:23.000Z</time>
        <extensions>
          <ns3:TrackPointExtension>
            <ns3:atemp>34.0</ns3:atemp>
          </ns3:TrackPointExtension>
        </extensions>
      </trkpt>
      <trkpt lat="42.4550766684114933013916015625" lon="20.2122029475867748260498046875">
        <ele>1053.5999755859375</ele>
        <time>2026-06-20T13:06:24.000Z</time>
        <extensions>
          <ns3:TrackPointExtension>
            <ns3:atemp>34.0</ns3:atemp>
          </ns3:TrackPointExtension>
        </extensions>
      </trkpt>
      <trkpt lat="42.4550766684114933013916015625" lon="20.2122029475867748260498046875">
        <ele>1053.5999755859375</ele>
        <time>2026-06-20T13:06:25.000Z</time>
        <extensions>
          <ns3:TrackPointExtension>
            <ns3:atemp>34.0</ns3:atemp>
          </ns3:TrackPointExtension>
        </extensions>
      </trkpt>
      <trkpt lat="42.4550766684114933013916015625" lon="20.2122029475867748260498046875">
        <ele>1053.5999755859375</ele>
        <time>2026-06-20T13:06:26.000Z</time>
        <extensions>
          <ns3:TrackPointExtension>
            <ns3:atemp>34.0</ns3:atemp>
          </ns3:TrackPointExtension>
        </extensions>
      </trkpt>
      <trkpt lat="42.4550766684114933013916015625" lon="20.2122029475867748260498046875">
        <ele>1053.5999755859375</ele>
        <time>2026-06-20T13:06:27.000Z</time>
        <extensions>
          <ns3:TrackPointExtension>
            <ns3:atemp>35.0</ns3:atemp>
          </ns3:TrackPointExtension>
        </extensions>
      </trkpt>
      <trkpt lat="42.4550766684114933013916015625" lon="20.2122029475867748260498046875">
        <ele>1053.5999755859375</ele>
        <time>2026-06-20T13:06:28.000Z</time>
        <extensions>
          <ns3:TrackPointExtension>
            <ns3:atemp>35.0</ns3:atemp>
          </ns3:TrackPointExtension>
        </extensions>
      </trkpt>
      <trkpt lat="42.4550766684114933013916015625" lon="20.2122029475867748260498046875">
        <ele>1053.5999755859375</ele>
        <time>2026-06-20T13:06:29.000Z</time>
        <extensions>
          <ns3:TrackPointExtension>
            <ns3:atemp>35.0</ns3:atemp>
          </ns3:TrackPointExtension>
        </extensions>
      </trkpt>
      <trkpt lat="42.4550766684114933013916015625" lon="20.2122029475867748260498046875">
        <ele>1053.5999755859375</ele>
        <time>2026-06-20T13:06:30.000Z</time>
        <extensions>
          <ns3:TrackPointExtension>
            <ns3:atemp>35.0</ns3:atemp>
          </ns3:TrackPointExtension>
        </extensions>
      </trkpt>
      <trkpt lat="42.4550766684114933013916015625" lon="20.2122029475867748260498046875">
        <ele>1053.5999755859375</ele>
        <time>2026-06-20T13:06:31.000Z</time>
        <extensions>
          <ns3:TrackPointExtension>
            <ns3:atemp>35.0</ns3:atemp>
          </ns3:TrackPointExtension>
        </extensions>
      </trkpt>
      <trkpt lat="42.4550766684114933013916015625" lon="20.2122029475867748260498046875">
        <ele>1053.5999755859375</ele>
        <time>2026-06-20T13:06:32.000Z</time>
        <extensions>
          <ns3:TrackPointExtension>
            <ns3:atemp>35.0</ns3:atemp>
          </ns3:TrackPointExtension>
        </extensions>
      </trkpt>
      <trkpt lat="42.4550766684114933013916015625" lon="20.2122029475867748260498046875">
        <ele>1053.5999755859375</ele>
        <time>2026-06-20T13:06:33.000Z</time>
        <extensions>
          <ns3:TrackPointExtension>
            <ns3:atemp>35.0</ns3:atemp>
          </ns3:TrackPointExtension>
        </extensions>
      </trkpt>
      <trkpt lat="42.4550766684114933013916015625" lon="20.2122029475867748260498046875">
        <ele>1053.5999755859375</ele>
        <time>2026-06-20T13:06:34.000Z</time>
        <extensions>
          <ns3:TrackPointExtension>
            <ns3:atemp>35.0</ns3:atemp>
          </ns3:TrackPointExtension>
        </extensions>
      </trkpt>
      <trkpt lat="42.4550766684114933013916015625" lon="20.2122029475867748260498046875">
        <ele>1053.5999755859375</ele>
        <time>2026-06-20T13:06:35.000Z</time>
        <extensions>
          <ns3:TrackPointExtension>
            <ns3:atemp>35.0</ns3:atemp>
          </ns3:TrackPointExtension>
        </extensions>
      </trkpt>
      <trkpt lat="42.4550766684114933013916015625" lon="20.2122029475867748260498046875">
        <ele>1053.5999755859375</ele>
        <time>2026-06-20T13:06:36.000Z</time>
        <extensions>
          <ns3:TrackPointExtension>
            <ns3:atemp>35.0</ns3:atemp>
          </ns3:TrackPointExtension>
        </extensions>
      </trkpt>
      <trkpt lat="42.4550766684114933013916015625" lon="20.2122029475867748260498046875">
        <ele>1053.5999755859375</ele>
        <time>2026-06-20T13:06:37.000Z</time>
        <extensions>
          <ns3:TrackPointExtension>
            <ns3:atemp>35.0</ns3:atemp>
          </ns3:TrackPointExtension>
        </extensions>
      </trkpt>
      <trkpt lat="42.4550766684114933013916015625" lon="20.2122029475867748260498046875">
        <ele>1053.5999755859375</ele>
        <time>2026-06-20T13:06:38.000Z</time>
        <extensions>
          <ns3:TrackPointExtension>
            <ns3:atemp>35.0</ns3:atemp>
          </ns3:TrackPointExtension>
        </extensions>
      </trkpt>
      <trkpt lat="42.4550766684114933013916015625" lon="20.2122029475867748260498046875">
        <ele>1053.5999755859375</ele>
        <time>2026-06-20T13:06:39.000Z</time>
        <extensions>
          <ns3:TrackPointExtension>
            <ns3:atemp>35.0</ns3:atemp>
          </ns3:TrackPointExtension>
        </extensions>
      </trkpt>
      <trkpt lat="42.45507759042084217071533203125" lon="20.21220185793936252593994140625">
        <ele>1053.5999755859375</ele>
        <time>2026-06-20T13:06:40.000Z</time>
        <extensions>
          <ns3:TrackPointExtension>
            <ns3:atemp>35.0</ns3:atemp>
          </ns3:TrackPointExtension>
        </extensions>
      </trkpt>
      <trkpt lat="42.45508312247693538665771484375" lon="20.21219900809228420257568359375">
        <ele>1053.5999755859375</ele>
        <time>2026-06-20T13:06:41.000Z</time>
        <extensions>
          <ns3:TrackPointExtension>
            <ns3:atemp>35.0</ns3:atemp>
          </ns3:TrackPointExtension>
        </extensions>
      </trkpt>
      <trkpt lat="42.45508966036140918731689453125" lon="20.212196744978427886962890625">
        <ele>1053.5999755859375</ele>
        <time>2026-06-20T13:06:42.000Z</time>
        <extensions>
          <ns3:TrackPointExtension>
            <ns3:atemp>35.0</ns3:atemp>
          </ns3:TrackPointExtension>
        </extensions>
      </trkpt>
      <trkpt lat="42.45508513413369655609130859375" lon="20.21218677051365375518798828125">
        <ele>1053.5999755859375</ele>
        <time>2026-06-20T13:06:43.000Z</time>
        <extensions>
          <ns3:TrackPointExtension>
            <ns3:atemp>35.0</ns3:atemp>
          </ns3:TrackPointExtension>
        </extensions>
      </trkpt>
      <trkpt lat="42.45508597232401371002197265625" lon="20.21218174137175083160400390625">
        <ele>1053.5999755859375</ele>
        <time>2026-06-20T13:06:44.000Z</time>
        <extensions>
          <ns3:TrackPointExtension>
            <ns3:atemp>35.0</ns3:atemp>
          </ns3:TrackPointExtension>
        </extensions>
      </trkpt>
      <trkpt lat="42.4550838768482208251953125" lon="20.21218040026724338531494140625">
        <ele>1053.5999755859375</ele>
        <time>2026-06-20T13:06:45.000Z</time>
        <extensions>
          <ns3:TrackPointExtension>
            <ns3:atemp>35.0</ns3:atemp>
          </ns3:TrackPointExtension>
        </extensions>
      </trkpt>
      <trkpt lat="42.4550838768482208251953125" lon="20.21218040026724338531494140625">
        <ele>1053.5999755859375</ele>
        <time>2026-06-20T13:06:46.000Z</time>
        <extensions>
          <ns3:TrackPointExtension>
            <ns3:atemp>35.0</ns3:atemp>
          </ns3:TrackPointExtension>
        </extensions>
      </trkpt>
      <trkpt lat="42.4550838768482208251953125" lon="20.21218040026724338531494140625">
        <ele>1053.5999755859375</ele>
        <time>2026-06-20T13:06:47.000Z</time>
        <extensions>
          <ns3:TrackPointExtension>
            <ns3:atemp>35.0</ns3:atemp>
          </ns3:TrackPointExtension>
        </extensions>
      </trkpt>
      <trkpt lat="42.4550838768482208251953125" lon="20.21218040026724338531494140625">
        <ele>1053.5999755859375</ele>
        <time>2026-06-20T13:06:48.000Z</time>
        <extensions>
          <ns3:TrackPointExtension>
            <ns3:atemp>35.0</ns3:atemp>
          </ns3:TrackPointExtension>
        </extensions>
      </trkpt>
      <trkpt lat="42.4550838768482208251953125" lon="20.21218040026724338531494140625">
        <ele>1053.5999755859375</ele>
        <time>2026-06-20T13:06:49.000Z</time>
        <extensions>
          <ns3:TrackPointExtension>
            <ns3:atemp>35.0</ns3:atemp>
          </ns3:TrackPointExtension>
        </extensions>
      </trkpt>
      <trkpt lat="42.4550838768482208251953125" lon="20.21218040026724338531494140625">
        <ele>1053.5999755859375</ele>
        <time>2026-06-20T13:06:50.000Z</time>
        <extensions>
          <ns3:TrackPointExtension>
            <ns3:atemp>35.0</ns3:atemp>
          </ns3:TrackPointExtension>
        </extensions>
      </trkpt>
      <trkpt lat="42.4550838768482208251953125" lon="20.21218040026724338531494140625">
        <ele>1053.5999755859375</ele>
        <time>2026-06-20T13:06:51.000Z</time>
        <extensions>
          <ns3:TrackPointExtension>
            <ns3:atemp>35.0</ns3:atemp>
          </ns3:TrackPointExtension>
        </extensions>
      </trkpt>
      <trkpt lat="42.4550838768482208251953125" lon="20.21218040026724338531494140625">
        <ele>1053.5999755859375</ele>
        <time>2026-06-20T13:06:52.000Z</time>
        <extensions>
          <ns3:TrackPointExtension>
            <ns3:atemp>35.0</ns3:atemp>
          </ns3:TrackPointExtension>
        </extensions>
      </trkpt>
      <trkpt lat="42.4550838768482208251953125" lon="20.21218040026724338531494140625">
        <ele>1053.5999755859375</ele>
        <time>2026-06-20T13:06:53.000Z</time>
        <extensions>
          <ns3:TrackPointExtension>
            <ns3:atemp>35.0</ns3:atemp>
          </ns3:TrackPointExtension>
        </extensions>
      </trkpt>
      <trkpt lat="42.4550838768482208251953125" lon="20.21218040026724338531494140625">
        <ele>1053.5999755859375</ele>
        <time>2026-06-20T13:06:54.000Z</time>
        <extensions>
          <ns3:TrackPointExtension>
            <ns3:atemp>35.0</ns3:atemp>
          </ns3:TrackPointExtension>
        </extensions>
      </trkpt>
      <trkpt lat="42.4550838768482208251953125" lon="20.21218040026724338531494140625">
        <ele>1053.5999755859375</ele>
        <time>2026-06-20T13:06:55.000Z</time>
        <extensions>
          <ns3:TrackPointExtension>
            <ns3:atemp>35.0</ns3:atemp>
          </ns3:TrackPointExtension>
        </extensions>
      </trkpt>
      <trkpt lat="42.4550838768482208251953125" lon="20.21218040026724338531494140625">
        <ele>1053.5999755859375</ele>
        <time>2026-06-20T13:06:56.000Z</time>
        <extensions>
          <ns3:TrackPointExtension>
            <ns3:atemp>35.0</ns3:atemp>
          </ns3:TrackPointExtension>
        </extensions>
      </trkpt>
      <trkpt lat="42.4550838768482208251953125" lon="20.21218040026724338531494140625">
        <ele>1053.5999755859375</ele>
        <time>2026-06-20T13:06:57.000Z</time>
        <extensions>
          <ns3:TrackPointExtension>
            <ns3:atemp>35.0</ns3:atemp>
          </ns3:TrackPointExtension>
        </extensions>
      </trkpt>
      <trkpt lat="42.4550838768482208251953125" lon="20.21218040026724338531494140625">
        <ele>1053.5999755859375</ele>
        <time>2026-06-20T13:06:58.000Z</time>
        <extensions>
          <ns3:TrackPointExtension>
            <ns3:atemp>35.0</ns3:atemp>
          </ns3:TrackPointExtension>
        </extensions>
      </trkpt>
      <trkpt lat="42.4550838768482208251953125" lon="20.21218040026724338531494140625">
        <ele>1053.5999755859375</ele>
        <time>2026-06-20T13:06:59.000Z</time>
        <extensions>
          <ns3:TrackPointExtension>
            <ns3:atemp>35.0</ns3:atemp>
          </ns3:TrackPointExtension>
        </extensions>
      </trkpt>
      <trkpt lat="42.4550838768482208251953125" lon="20.21218040026724338531494140625">
        <ele>1053.5999755859375</ele>
        <time>2026-06-20T13:07:00.000Z</time>
        <extensions>
          <ns3:TrackPointExtension>
            <ns3:atemp>35.0</ns3:atemp>
          </ns3:TrackPointExtension>
        </extensions>
      </trkpt>
      <trkpt lat="42.4550838768482208251953125" lon="20.21218040026724338531494140625">
        <ele>1053.5999755859375</ele>
        <time>2026-06-20T13:07:01.000Z</time>
        <extensions>
          <ns3:TrackPointExtension>
            <ns3:atemp>35.0</ns3:atemp>
          </ns3:TrackPointExtension>
        </extensions>
      </trkpt>
      <trkpt lat="42.4550838768482208251953125" lon="20.21218040026724338531494140625">
        <ele>1053.5999755859375</ele>
        <time>2026-06-20T13:07:02.000Z</time>
        <extensions>
          <ns3:TrackPointExtension>
            <ns3:atemp>35.0</ns3:atemp>
          </ns3:TrackPointExtension>
        </extensions>
      </trkpt>
      <trkpt lat="42.4550838768482208251953125" lon="20.21218040026724338531494140625">
        <ele>1053.5999755859375</ele>
        <time>2026-06-20T13:07:03.000Z</time>
        <extensions>
          <ns3:TrackPointExtension>
            <ns3:atemp>35.0</ns3:atemp>
          </ns3:TrackPointExtension>
        </extensions>
      </trkpt>
      <trkpt lat="42.4550838768482208251953125" lon="20.21218040026724338531494140625">
        <ele>1053.5999755859375</ele>
        <time>2026-06-20T13:07:04.000Z</time>
        <extensions>
          <ns3:TrackPointExtension>
            <ns3:atemp>35.0</ns3:atemp>
          </ns3:TrackPointExtension>
        </extensions>
      </trkpt>
      <trkpt lat="42.4550838768482208251953125" lon="20.21218040026724338531494140625">
        <ele>1053.5999755859375</ele>
        <time>2026-06-20T13:07:05.000Z</time>
        <extensions>
          <ns3:TrackPointExtension>
            <ns3:atemp>35.0</ns3:atemp>
          </ns3:TrackPointExtension>
        </extensions>
      </trkpt>
      <trkpt lat="42.4550838768482208251953125" lon="20.21218040026724338531494140625">
        <ele>1053.5999755859375</ele>
        <time>2026-06-20T13:07:06.000Z</time>
        <extensions>
          <ns3:TrackPointExtension>
            <ns3:atemp>35.0</ns3:atemp>
          </ns3:TrackPointExtension>
        </extensions>
      </trkpt>
      <trkpt lat="42.4550838768482208251953125" lon="20.21218040026724338531494140625">
        <ele>1053.5999755859375</ele>
        <time>2026-06-20T13:07:07.000Z</time>
        <extensions>
          <ns3:TrackPointExtension>
            <ns3:atemp>35.0</ns3:atemp>
          </ns3:TrackPointExtension>
        </extensions>
      </trkpt>
      <trkpt lat="42.4550838768482208251953125" lon="20.21218040026724338531494140625">
        <ele>1053.5999755859375</ele>
        <time>2026-06-20T13:07:08.000Z</time>
        <extensions>
          <ns3:TrackPointExtension>
            <ns3:atemp>35.0</ns3:atemp>
          </ns3:TrackPointExtension>
        </extensions>
      </trkpt>
      <trkpt lat="42.4550838768482208251953125" lon="20.21218040026724338531494140625">
        <ele>1053.5999755859375</ele>
        <time>2026-06-20T13:07:09.000Z</time>
        <extensions>
          <ns3:TrackPointExtension>
            <ns3:atemp>35.0</ns3:atemp>
          </ns3:TrackPointExtension>
        </extensions>
      </trkpt>
      <trkpt lat="42.4550838768482208251953125" lon="20.21218040026724338531494140625">
        <ele>1053.5999755859375</ele>
        <time>2026-06-20T13:07:10.000Z</time>
        <extensions>
          <ns3:TrackPointExtension>
            <ns3:atemp>35.0</ns3:atemp>
          </ns3:TrackPointExtension>
        </extensions>
      </trkpt>
      <trkpt lat="42.4550838768482208251953125" lon="20.21218040026724338531494140625">
        <ele>1053.5999755859375</ele>
        <time>2026-06-20T13:07:11.000Z</time>
        <extensions>
          <ns3:TrackPointExtension>
            <ns3:atemp>35.0</ns3:atemp>
          </ns3:TrackPointExtension>
        </extensions>
      </trkpt>
      <trkpt lat="42.4550838768482208251953125" lon="20.21218040026724338531494140625">
        <ele>1053.5999755859375</ele>
        <time>2026-06-20T13:07:12.000Z</time>
        <extensions>
          <ns3:TrackPointExtension>
            <ns3:atemp>35.0</ns3:atemp>
          </ns3:TrackPointExtension>
        </extensions>
      </trkpt>
      <trkpt lat="42.4550838768482208251953125" lon="20.21218040026724338531494140625">
        <ele>1053.5999755859375</ele>
        <time>2026-06-20T13:07:13.000Z</time>
        <extensions>
          <ns3:TrackPointExtension>
            <ns3:atemp>35.0</ns3:atemp>
          </ns3:TrackPointExtension>
        </extensions>
      </trkpt>
      <trkpt lat="42.4550838768482208251953125" lon="20.21218040026724338531494140625">
        <ele>1053.5999755859375</ele>
        <time>2026-06-20T13:07:14.000Z</time>
        <extensions>
          <ns3:TrackPointExtension>
            <ns3:atemp>35.0</ns3:atemp>
          </ns3:TrackPointExtension>
        </extensions>
      </trkpt>
      <trkpt lat="42.4550838768482208251953125" lon="20.21218040026724338531494140625">
        <ele>1053.5999755859375</ele>
        <time>2026-06-20T13:07:15.000Z</time>
        <extensions>
          <ns3:TrackPointExtension>
            <ns3:atemp>35.0</ns3:atemp>
          </ns3:TrackPointExtension>
        </extensions>
      </trkpt>
      <trkpt lat="42.4550838768482208251953125" lon="20.21218040026724338531494140625">
        <ele>1053.5999755859375</ele>
        <time>2026-06-20T13:07:16.000Z</time>
        <extensions>
          <ns3:TrackPointExtension>
            <ns3:atemp>35.0</ns3:atemp>
          </ns3:TrackPointExtension>
        </extensions>
      </trkpt>
      <trkpt lat="42.4550838768482208251953125" lon="20.21218040026724338531494140625">
        <ele>1053.5999755859375</ele>
        <time>2026-06-20T13:07:17.000Z</time>
        <extensions>
          <ns3:TrackPointExtension>
            <ns3:atemp>35.0</ns3:atemp>
          </ns3:TrackPointExtension>
        </extensions>
      </trkpt>
      <trkpt lat="42.4550838768482208251953125" lon="20.21218040026724338531494140625">
        <ele>1053.5999755859375</ele>
        <time>2026-06-20T13:07:18.000Z</time>
        <extensions>
          <ns3:TrackPointExtension>
            <ns3:atemp>35.0</ns3:atemp>
          </ns3:TrackPointExtension>
        </extensions>
      </trkpt>
      <trkpt lat="42.4550838768482208251953125" lon="20.21218040026724338531494140625">
        <ele>1053.5999755859375</ele>
        <time>2026-06-20T13:07:19.000Z</time>
        <extensions>
          <ns3:TrackPointExtension>
            <ns3:atemp>35.0</ns3:atemp>
          </ns3:TrackPointExtension>
        </extensions>
      </trkpt>
      <trkpt lat="42.4550838768482208251953125" lon="20.21218040026724338531494140625">
        <ele>1053.5999755859375</ele>
        <time>2026-06-20T13:07:20.000Z</time>
        <extensions>
          <ns3:TrackPointExtension>
            <ns3:atemp>35.0</ns3:atemp>
          </ns3:TrackPointExtension>
        </extensions>
      </trkpt>
      <trkpt lat="42.4550838768482208251953125" lon="20.21218040026724338531494140625">
        <ele>1053.5999755859375</ele>
        <time>2026-06-20T13:07:21.000Z</time>
        <extensions>
          <ns3:TrackPointExtension>
            <ns3:atemp>35.0</ns3:atemp>
          </ns3:TrackPointExtension>
        </extensions>
      </trkpt>
      <trkpt lat="42.4550838768482208251953125" lon="20.21218040026724338531494140625">
        <ele>1053.5999755859375</ele>
        <time>2026-06-20T13:07:22.000Z</time>
        <extensions>
          <ns3:TrackPointExtension>
            <ns3:atemp>35.0</ns3:atemp>
          </ns3:TrackPointExtension>
        </extensions>
      </trkpt>
      <trkpt lat="42.4550838768482208251953125" lon="20.21218040026724338531494140625">
        <ele>1053.5999755859375</ele>
        <time>2026-06-20T13:07:23.000Z</time>
        <extensions>
          <ns3:TrackPointExtension>
            <ns3:atemp>35.0</ns3:atemp>
          </ns3:TrackPointExtension>
        </extensions>
      </trkpt>
      <trkpt lat="42.4550827033817768096923828125" lon="20.2121816575527191162109375">
        <ele>1053.5999755859375</ele>
        <time>2026-06-20T13:07:24.000Z</time>
        <extensions>
          <ns3:TrackPointExtension>
            <ns3:atemp>35.0</ns3:atemp>
          </ns3:TrackPointExtension>
        </extensions>
      </trkpt>
      <trkpt lat="42.45508027262985706329345703125" lon="20.21217830479145050048828125">
        <ele>1053.5999755859375</ele>
        <time>2026-06-20T13:07:25.000Z</time>
        <extensions>
          <ns3:TrackPointExtension>
            <ns3:atemp>35.0</ns3:atemp>
          </ns3:TrackPointExtension>
        </extensions>
      </trkpt>
      <trkpt lat="42.4550785124301910400390625" lon="20.21217302419245243072509765625">
        <ele>1053.5999755859375</ele>
        <time>2026-06-20T13:07:26.000Z</time>
        <extensions>
          <ns3:TrackPointExtension>
            <ns3:atemp>35.0</ns3:atemp>
          </ns3:TrackPointExtension>
        </extensions>
      </trkpt>
      <trkpt lat="42.45507658459246158599853515625" lon="20.21216933615505695343017578125">
        <ele>1053.5999755859375</ele>
        <time>2026-06-20T13:07:27.000Z</time>
        <extensions>
          <ns3:TrackPointExtension>
            <ns3:atemp>35.0</ns3:atemp>
          </ns3:TrackPointExtension>
        </extensions>
      </trkpt>
      <trkpt lat="42.45507457293570041656494140625" lon="20.21216229535639286041259765625">
        <ele>1053.5999755859375</ele>
        <time>2026-06-20T13:07:28.000Z</time>
        <extensions>
          <ns3:TrackPointExtension>
            <ns3:atemp>35.0</ns3:atemp>
          </ns3:TrackPointExtension>
        </extensions>
      </trkpt>
      <trkpt lat="42.45507306419312953948974609375" lon="20.2121580205857753753662109375">
        <ele>1053.5999755859375</ele>
        <time>2026-06-20T13:07:29.000Z</time>
        <extensions>
          <ns3:TrackPointExtension>
            <ns3:atemp>35.0</ns3:atemp>
          </ns3:TrackPointExtension>
        </extensions>
      </trkpt>
      <trkpt lat="42.45507155545055866241455078125" lon="20.21215827204287052154541015625">
        <ele>1053.5999755859375</ele>
        <time>2026-06-20T13:07:30.000Z</time>
        <extensions>
          <ns3:TrackPointExtension>
            <ns3:atemp>35.0</ns3:atemp>
          </ns3:TrackPointExtension>
        </extensions>
      </trkpt>
      <trkpt lat="42.45507155545055866241455078125" lon="20.2121583558619022369384765625">
        <ele>1053.5999755859375</ele>
        <time>2026-06-20T13:07:31.000Z</time>
        <extensions>
          <ns3:TrackPointExtension>
            <ns3:atemp>35.0</ns3:atemp>
          </ns3:TrackPointExtension>
        </extensions>
      </trkpt>
      <trkpt lat="42.45507155545055866241455078125" lon="20.2121583558619022369384765625">
        <ele>1053.5999755859375</ele>
        <time>2026-06-20T13:07:32.000Z</time>
        <extensions>
          <ns3:TrackPointExtension>
            <ns3:atemp>35.0</ns3:atemp>
          </ns3:TrackPointExtension>
        </extensions>
      </trkpt>
      <trkpt lat="42.45507155545055866241455078125" lon="20.2121583558619022369384765625">
        <ele>1053.5999755859375</ele>
        <time>2026-06-20T13:07:33.000Z</time>
        <extensions>
          <ns3:TrackPointExtension>
            <ns3:atemp>35.0</ns3:atemp>
          </ns3:TrackPointExtension>
        </extensions>
      </trkpt>
      <trkpt lat="42.45507155545055866241455078125" lon="20.2121583558619022369384765625">
        <ele>1053.5999755859375</ele>
        <time>2026-06-20T13:07:34.000Z</time>
        <extensions>
          <ns3:TrackPointExtension>
            <ns3:atemp>35.0</ns3:atemp>
          </ns3:TrackPointExtension>
        </extensions>
      </trkpt>
      <trkpt lat="42.45507155545055866241455078125" lon="20.2121583558619022369384765625">
        <ele>1053.5999755859375</ele>
        <time>2026-06-20T13:07:35.000Z</time>
        <extensions>
          <ns3:TrackPointExtension>
            <ns3:atemp>35.0</ns3:atemp>
          </ns3:TrackPointExtension>
        </extensions>
      </trkpt>
      <trkpt lat="42.45507155545055866241455078125" lon="20.2121583558619022369384765625">
        <ele>1053.5999755859375</ele>
        <time>2026-06-20T13:07:36.000Z</time>
        <extensions>
          <ns3:TrackPointExtension>
            <ns3:atemp>35.0</ns3:atemp>
          </ns3:TrackPointExtension>
        </extensions>
      </trkpt>
      <trkpt lat="42.45507155545055866241455078125" lon="20.2121583558619022369384765625">
        <ele>1053.5999755859375</ele>
        <time>2026-06-20T13:07:37.000Z</time>
        <extensions>
          <ns3:TrackPointExtension>
            <ns3:atemp>35.0</ns3:atemp>
          </ns3:TrackPointExtension>
        </extensions>
      </trkpt>
      <trkpt lat="42.45507155545055866241455078125" lon="20.2121583558619022369384765625">
        <ele>1053.5999755859375</ele>
        <time>2026-06-20T13:07:38.000Z</time>
        <extensions>
          <ns3:TrackPointExtension>
            <ns3:atemp>35.0</ns3:atemp>
          </ns3:TrackPointExtension>
        </extensions>
      </trkpt>
      <trkpt lat="42.45507155545055866241455078125" lon="20.2121583558619022369384765625">
        <ele>1053.5999755859375</ele>
        <time>2026-06-20T13:07:39.000Z</time>
        <extensions>
          <ns3:TrackPointExtension>
            <ns3:atemp>35.0</ns3:atemp>
          </ns3:TrackPointExtension>
        </extensions>
      </trkpt>
      <trkpt lat="42.45507155545055866241455078125" lon="20.2121583558619022369384765625">
        <ele>1053.5999755859375</ele>
        <time>2026-06-20T13:07:40.000Z</time>
        <extensions>
          <ns3:TrackPointExtension>
            <ns3:atemp>35.0</ns3:atemp>
          </ns3:TrackPointExtension>
        </extensions>
      </trkpt>
      <trkpt lat="42.45507155545055866241455078125" lon="20.2121583558619022369384765625">
        <ele>1053.5999755859375</ele>
        <time>2026-06-20T13:07:41.000Z</time>
        <extensions>
          <ns3:TrackPointExtension>
            <ns3:atemp>35.0</ns3:atemp>
          </ns3:TrackPointExtension>
        </extensions>
      </trkpt>
      <trkpt lat="42.45507155545055866241455078125" lon="20.2121583558619022369384765625">
        <ele>1053.5999755859375</ele>
        <time>2026-06-20T13:07:42.000Z</time>
        <extensions>
          <ns3:TrackPointExtension>
            <ns3:atemp>35.0</ns3:atemp>
          </ns3:TrackPointExtension>
        </extensions>
      </trkpt>
      <trkpt lat="42.45507155545055866241455078125" lon="20.2121583558619022369384765625">
        <ele>1053.5999755859375</ele>
        <time>2026-06-20T13:07:43.000Z</time>
        <extensions>
          <ns3:TrackPointExtension>
            <ns3:atemp>35.0</ns3:atemp>
          </ns3:TrackPointExtension>
        </extensions>
      </trkpt>
      <trkpt lat="42.45507155545055866241455078125" lon="20.2121583558619022369384765625">
        <ele>1053.5999755859375</ele>
        <time>2026-06-20T13:07:44.000Z</time>
        <extensions>
          <ns3:TrackPointExtension>
            <ns3:atemp>35.0</ns3:atemp>
          </ns3:TrackPointExtension>
        </extensions>
      </trkpt>
      <trkpt lat="42.45507155545055866241455078125" lon="20.2121583558619022369384765625">
        <ele>1053.5999755859375</ele>
        <time>2026-06-20T13:07:45.000Z</time>
        <extensions>
          <ns3:TrackPointExtension>
            <ns3:atemp>35.0</ns3:atemp>
          </ns3:TrackPointExtension>
        </extensions>
      </trkpt>
      <trkpt lat="42.45507155545055866241455078125" lon="20.2121583558619022369384765625">
        <ele>1053.5999755859375</ele>
        <time>2026-06-20T13:07:46.000Z</time>
        <extensions>
          <ns3:TrackPointExtension>
            <ns3:atemp>35.0</ns3:atemp>
          </ns3:TrackPointExtension>
        </extensions>
      </trkpt>
      <trkpt lat="42.45507155545055866241455078125" lon="20.2121583558619022369384765625">
        <ele>1053.5999755859375</ele>
        <time>2026-06-20T13:07:47.000Z</time>
        <extensions>
          <ns3:TrackPointExtension>
            <ns3:atemp>35.0</ns3:atemp>
          </ns3:TrackPointExtension>
        </extensions>
      </trkpt>
      <trkpt lat="42.45507155545055866241455078125" lon="20.2121583558619022369384765625">
        <ele>1053.5999755859375</ele>
        <time>2026-06-20T13:07:48.000Z</time>
        <extensions>
          <ns3:TrackPointExtension>
            <ns3:atemp>35.0</ns3:atemp>
          </ns3:TrackPointExtension>
        </extensions>
      </trkpt>
      <trkpt lat="42.45507155545055866241455078125" lon="20.2121583558619022369384765625">
        <ele>1053.5999755859375</ele>
        <time>2026-06-20T13:07:49.000Z</time>
        <extensions>
          <ns3:TrackPointExtension>
            <ns3:atemp>35.0</ns3:atemp>
          </ns3:TrackPointExtension>
        </extensions>
      </trkpt>
      <trkpt lat="42.45507155545055866241455078125" lon="20.2121583558619022369384765625">
        <ele>1053.5999755859375</ele>
        <time>2026-06-20T13:07:50.000Z</time>
        <extensions>
          <ns3:TrackPointExtension>
            <ns3:atemp>35.0</ns3:atemp>
          </ns3:TrackPointExtension>
        </extensions>
      </trkpt>
      <trkpt lat="42.45507155545055866241455078125" lon="20.2121583558619022369384765625">
        <ele>1053.5999755859375</ele>
        <time>2026-06-20T13:07:51.000Z</time>
        <extensions>
          <ns3:TrackPointExtension>
            <ns3:atemp>35.0</ns3:atemp>
          </ns3:TrackPointExtension>
        </extensions>
      </trkpt>
      <trkpt lat="42.45507155545055866241455078125" lon="20.2121583558619022369384765625">
        <ele>1053.5999755859375</ele>
        <time>2026-06-20T13:07:52.000Z</time>
        <extensions>
          <ns3:TrackPointExtension>
            <ns3:atemp>35.0</ns3:atemp>
          </ns3:TrackPointExtension>
        </extensions>
      </trkpt>
      <trkpt lat="42.45507155545055866241455078125" lon="20.2121583558619022369384765625">
        <ele>1053.5999755859375</ele>
        <time>2026-06-20T13:07:53.000Z</time>
        <extensions>
          <ns3:TrackPointExtension>
            <ns3:atemp>35.0</ns3:atemp>
          </ns3:TrackPointExtension>
        </extensions>
      </trkpt>
      <trkpt lat="42.45507155545055866241455078125" lon="20.2121583558619022369384765625">
        <ele>1053.5999755859375</ele>
        <time>2026-06-20T13:07:54.000Z</time>
        <extensions>
          <ns3:TrackPointExtension>
            <ns3:atemp>35.0</ns3:atemp>
          </ns3:TrackPointExtension>
        </extensions>
      </trkpt>
      <trkpt lat="42.45507155545055866241455078125" lon="20.2121583558619022369384765625">
        <ele>1053.5999755859375</ele>
        <time>2026-06-20T13:07:55.000Z</time>
        <extensions>
          <ns3:TrackPointExtension>
            <ns3:atemp>35.0</ns3:atemp>
          </ns3:TrackPointExtension>
        </extensions>
      </trkpt>
      <trkpt lat="42.45507155545055866241455078125" lon="20.2121583558619022369384765625">
        <ele>1053.5999755859375</ele>
        <time>2026-06-20T13:07:56.000Z</time>
        <extensions>
          <ns3:TrackPointExtension>
            <ns3:atemp>35.0</ns3:atemp>
          </ns3:TrackPointExtension>
        </extensions>
      </trkpt>
      <trkpt lat="42.4550726450979709625244140625" lon="20.212153829634189605712890625">
        <ele>1053.5999755859375</ele>
        <time>2026-06-20T13:07:57.000Z</time>
        <extensions>
          <ns3:TrackPointExtension>
            <ns3:atemp>35.0</ns3:atemp>
          </ns3:TrackPointExtension>
        </extensions>
      </trkpt>
      <trkpt lat="42.45506987906992435455322265625" lon="20.21213849075138568878173828125">
        <ele>1053.5999755859375</ele>
        <time>2026-06-20T13:07:58.000Z</time>
        <extensions>
          <ns3:TrackPointExtension>
            <ns3:atemp>35.0</ns3:atemp>
          </ns3:TrackPointExtension>
        </extensions>
      </trkpt>
      <trkpt lat="42.4550704658031463623046875" lon="20.212133713066577911376953125">
        <ele>1053.5999755859375</ele>
        <time>2026-06-20T13:07:59.000Z</time>
        <extensions>
          <ns3:TrackPointExtension>
            <ns3:atemp>35.0</ns3:atemp>
          </ns3:TrackPointExtension>
        </extensions>
      </trkpt>
      <trkpt lat="42.4550704658031463623046875" lon="20.212133713066577911376953125">
        <ele>1053.5999755859375</ele>
        <time>2026-06-20T13:08:00.000Z</time>
        <extensions>
          <ns3:TrackPointExtension>
            <ns3:atemp>35.0</ns3:atemp>
          </ns3:TrackPointExtension>
        </extensions>
      </trkpt>
      <trkpt lat="42.4550704658031463623046875" lon="20.212133713066577911376953125">
        <ele>1053.5999755859375</ele>
        <time>2026-06-20T13:08:01.000Z</time>
        <extensions>
          <ns3:TrackPointExtension>
            <ns3:atemp>35.0</ns3:atemp>
          </ns3:TrackPointExtension>
        </extensions>
      </trkpt>
      <trkpt lat="42.4550704658031463623046875" lon="20.212133713066577911376953125">
        <ele>1053.5999755859375</ele>
        <time>2026-06-20T13:08:02.000Z</time>
        <extensions>
          <ns3:TrackPointExtension>
            <ns3:atemp>35.0</ns3:atemp>
          </ns3:TrackPointExtension>
        </extensions>
      </trkpt>
      <trkpt lat="42.4550704658031463623046875" lon="20.212133713066577911376953125">
        <ele>1053.5999755859375</ele>
        <time>2026-06-20T13:08:03.000Z</time>
        <extensions>
          <ns3:TrackPointExtension>
            <ns3:atemp>35.0</ns3:atemp>
          </ns3:TrackPointExtension>
        </extensions>
      </trkpt>
      <trkpt lat="42.4550704658031463623046875" lon="20.212133713066577911376953125">
        <ele>1053.5999755859375</ele>
        <time>2026-06-20T13:08:04.000Z</time>
        <extensions>
          <ns3:TrackPointExtension>
            <ns3:atemp>35.0</ns3:atemp>
          </ns3:TrackPointExtension>
        </extensions>
      </trkpt>
      <trkpt lat="42.4550704658031463623046875" lon="20.212133713066577911376953125">
        <ele>1053.5999755859375</ele>
        <time>2026-06-20T13:08:05.000Z</time>
        <extensions>
          <ns3:TrackPointExtension>
            <ns3:atemp>35.0</ns3:atemp>
          </ns3:TrackPointExtension>
        </extensions>
      </trkpt>
      <trkpt lat="42.4550704658031463623046875" lon="20.212133713066577911376953125">
        <ele>1053.5999755859375</ele>
        <time>2026-06-20T13:08:06.000Z</time>
        <extensions>
          <ns3:TrackPointExtension>
            <ns3:atemp>35.0</ns3:atemp>
          </ns3:TrackPointExtension>
        </extensions>
      </trkpt>
      <trkpt lat="42.4550704658031463623046875" lon="20.212133713066577911376953125">
        <ele>1053.5999755859375</ele>
        <time>2026-06-20T13:08:07.000Z</time>
        <extensions>
          <ns3:TrackPointExtension>
            <ns3:atemp>35.0</ns3:atemp>
          </ns3:TrackPointExtension>
        </extensions>
      </trkpt>
      <trkpt lat="42.4550704658031463623046875" lon="20.212133713066577911376953125">
        <ele>1053.5999755859375</ele>
        <time>2026-06-20T13:08:08.000Z</time>
        <extensions>
          <ns3:TrackPointExtension>
            <ns3:atemp>36.0</ns3:atemp>
          </ns3:TrackPointExtension>
        </extensions>
      </trkpt>
      <trkpt lat="42.4550704658031463623046875" lon="20.212133713066577911376953125">
        <ele>1053.5999755859375</ele>
        <time>2026-06-20T13:08:09.000Z</time>
        <extensions>
          <ns3:TrackPointExtension>
            <ns3:atemp>36.0</ns3:atemp>
          </ns3:TrackPointExtension>
        </extensions>
      </trkpt>
      <trkpt lat="42.4550704658031463623046875" lon="20.212133713066577911376953125">
        <ele>1053.5999755859375</ele>
        <time>2026-06-20T13:08:10.000Z</time>
        <extensions>
          <ns3:TrackPointExtension>
            <ns3:atemp>36.0</ns3:atemp>
          </ns3:TrackPointExtension>
        </extensions>
      </trkpt>
      <trkpt lat="42.4550704658031463623046875" lon="20.212133713066577911376953125">
        <ele>1053.5999755859375</ele>
        <time>2026-06-20T13:08:11.000Z</time>
        <extensions>
          <ns3:TrackPointExtension>
            <ns3:atemp>36.0</ns3:atemp>
          </ns3:TrackPointExtension>
        </extensions>
      </trkpt>
      <trkpt lat="42.4550704658031463623046875" lon="20.212133713066577911376953125">
        <ele>1053.5999755859375</ele>
        <time>2026-06-20T13:08:12.000Z</time>
        <extensions>
          <ns3:TrackPointExtension>
            <ns3:atemp>36.0</ns3:atemp>
          </ns3:TrackPointExtension>
        </extensions>
      </trkpt>
      <trkpt lat="42.4550704658031463623046875" lon="20.212133713066577911376953125">
        <ele>1053.5999755859375</ele>
        <time>2026-06-20T13:08:13.000Z</time>
        <extensions>
          <ns3:TrackPointExtension>
            <ns3:atemp>36.0</ns3:atemp>
          </ns3:TrackPointExtension>
        </extensions>
      </trkpt>
      <trkpt lat="42.4550704658031463623046875" lon="20.212133713066577911376953125">
        <ele>1053.5999755859375</ele>
        <time>2026-06-20T13:08:14.000Z</time>
        <extensions>
          <ns3:TrackPointExtension>
            <ns3:atemp>36.0</ns3:atemp>
          </ns3:TrackPointExtension>
        </extensions>
      </trkpt>
      <trkpt lat="42.4550704658031463623046875" lon="20.212133713066577911376953125">
        <ele>1053.5999755859375</ele>
        <time>2026-06-20T13:08:15.000Z</time>
        <extensions>
          <ns3:TrackPointExtension>
            <ns3:atemp>36.0</ns3:atemp>
          </ns3:TrackPointExtension>
        </extensions>
      </trkpt>
      <trkpt lat="42.4550704658031463623046875" lon="20.212133713066577911376953125">
        <ele>1053.5999755859375</ele>
        <time>2026-06-20T13:08:16.000Z</time>
        <extensions>
          <ns3:TrackPointExtension>
            <ns3:atemp>36.0</ns3:atemp>
          </ns3:TrackPointExtension>
        </extensions>
      </trkpt>
      <trkpt lat="42.4550704658031463623046875" lon="20.212133713066577911376953125">
        <ele>1053.5999755859375</ele>
        <time>2026-06-20T13:08:17.000Z</time>
        <extensions>
          <ns3:TrackPointExtension>
            <ns3:atemp>36.0</ns3:atemp>
          </ns3:TrackPointExtension>
        </extensions>
      </trkpt>
      <trkpt lat="42.455068789422512054443359375" lon="20.21213714964687824249267578125">
        <ele>1053.5999755859375</ele>
        <time>2026-06-20T13:08:18.000Z</time>
        <extensions>
          <ns3:TrackPointExtension>
            <ns3:atemp>36.0</ns3:atemp>
          </ns3:TrackPointExtension>
        </extensions>
      </trkpt>
      <trkpt lat="42.45506686158478260040283203125" lon="20.21214385516941547393798828125">
        <ele>1053.5999755859375</ele>
        <time>2026-06-20T13:08:19.000Z</time>
        <extensions>
          <ns3:TrackPointExtension>
            <ns3:atemp>36.0</ns3:atemp>
          </ns3:TrackPointExtension>
        </extensions>
      </trkpt>
      <trkpt lat="42.4550602398812770843505859375" lon="20.21213128231465816497802734375">
        <ele>1053.5999755859375</ele>
        <time>2026-06-20T13:08:20.000Z</time>
        <extensions>
          <ns3:TrackPointExtension>
            <ns3:atemp>36.0</ns3:atemp>
          </ns3:TrackPointExtension>
        </extensions>
      </trkpt>
      <trkpt lat="42.45505076833069324493408203125" lon="20.21211854182183742523193359375">
        <ele>1053.5999755859375</ele>
        <time>2026-06-20T13:08:21.000Z</time>
        <extensions>
          <ns3:TrackPointExtension>
            <ns3:atemp>36.0</ns3:atemp>
          </ns3:TrackPointExtension>
        </extensions>
      </trkpt>
      <trkpt lat="42.45504163205623626708984375" lon="20.21210026927292346954345703125">
        <ele>1053.800048828125</ele>
        <time>2026-06-20T13:08:22.000Z</time>
        <extensions>
          <ns3:TrackPointExtension>
            <ns3:atemp>36.0</ns3:atemp>
          </ns3:TrackPointExtension>
        </extensions>
      </trkpt>
      <trkpt lat="42.455031909048557281494140625" lon="20.21207747049629688262939453125">
        <ele>1053.5999755859375</ele>
        <time>2026-06-20T13:08:23.000Z</time>
        <extensions>
          <ns3:TrackPointExtension>
            <ns3:atemp>36.0</ns3:atemp>
          </ns3:TrackPointExtension>
        </extensions>
      </trkpt>
      <trkpt lat="42.45502579025924205780029296875" lon="20.212046541273593902587890625">
        <ele>1053.5999755859375</ele>
        <time>2026-06-20T13:08:24.000Z</time>
        <extensions>
          <ns3:TrackPointExtension>
            <ns3:atemp>36.0</ns3:atemp>
          </ns3:TrackPointExtension>
        </extensions>
      </trkpt>
      <trkpt lat="42.455009110271930694580078125" lon="20.21202047355473041534423828125">
        <ele>1053.5999755859375</ele>
        <time>2026-06-20T13:08:25.000Z</time>
        <extensions>
          <ns3:TrackPointExtension>
            <ns3:atemp>36.0</ns3:atemp>
          </ns3:TrackPointExtension>
        </extensions>
      </trkpt>
      <trkpt lat="42.45499108918011188507080078125" lon="20.2119920589029788970947265625">
        <ele>1053.5999755859375</ele>
        <time>2026-06-20T13:08:26.000Z</time>
        <extensions>
          <ns3:TrackPointExtension>
            <ns3:atemp>36.0</ns3:atemp>
          </ns3:TrackPointExtension>
        </extensions>
      </trkpt>
      <trkpt lat="42.45496544055640697479248046875" lon="20.2119706012308597564697265625">
        <ele>1053.4000244140625</ele>
        <time>2026-06-20T13:08:27.000Z</time>
        <extensions>
          <ns3:TrackPointExtension>
            <ns3:atemp>36.0</ns3:atemp>
          </ns3:TrackPointExtension>
        </extensions>
      </trkpt>
      <trkpt lat="42.45493744499981403350830078125" lon="20.2119464613497257232666015625">
        <ele>1053.4000244140625</ele>
        <time>2026-06-20T13:08:28.000Z</time>
        <extensions>
          <ns3:TrackPointExtension>
            <ns3:atemp>36.0</ns3:atemp>
          </ns3:TrackPointExtension>
        </extensions>
      </trkpt>
      <trkpt lat="42.45490710251033306121826171875" lon="20.2119260095059871673583984375">
        <ele>1053.199951171875</ele>
        <time>2026-06-20T13:08:29.000Z</time>
        <extensions>
          <ns3:TrackPointExtension>
            <ns3:atemp>36.0</ns3:atemp>
          </ns3:TrackPointExtension>
        </extensions>
      </trkpt>
      <trkpt lat="42.45487307198345661163330078125" lon="20.2119079045951366424560546875">
        <ele>1053.199951171875</ele>
        <time>2026-06-20T13:08:30.000Z</time>
        <extensions>
          <ns3:TrackPointExtension>
            <ns3:atemp>36.0</ns3:atemp>
          </ns3:TrackPointExtension>
        </extensions>
      </trkpt>
      <trkpt lat="42.45483786799013614654541015625" lon="20.211891643702983856201171875">
        <ele>1053.199951171875</ele>
        <time>2026-06-20T13:08:31.000Z</time>
        <extensions>
          <ns3:TrackPointExtension>
            <ns3:atemp>36.0</ns3:atemp>
          </ns3:TrackPointExtension>
        </extensions>
      </trkpt>
      <trkpt lat="42.45479755103588104248046875" lon="20.211883597075939178466796875">
        <ele>1053</ele>
        <time>2026-06-20T13:08:32.000Z</time>
        <extensions>
          <ns3:TrackPointExtension>
            <ns3:atemp>36.0</ns3:atemp>
          </ns3:TrackPointExtension>
        </extensions>
      </trkpt>
      <trkpt lat="42.45475388132035732269287109375" lon="20.21188057959079742431640625">
        <ele>1053</ele>
        <time>2026-06-20T13:08:33.000Z</time>
        <extensions>
          <ns3:TrackPointExtension>
            <ns3:atemp>36.0</ns3:atemp>
          </ns3:TrackPointExtension>
        </extensions>
      </trkpt>
      <trkpt lat="42.4547122232615947723388671875" lon="20.21188016049563884735107421875">
        <ele>1052.800048828125</ele>
        <time>2026-06-20T13:08:34.000Z</time>
        <extensions>
          <ns3:TrackPointExtension>
            <ns3:atemp>36.0</ns3:atemp>
          </ns3:TrackPointExtension>
        </extensions>
      </trkpt>
      <trkpt lat="42.45467483997344970703125" lon="20.21188485436141490936279296875">
        <ele>1052.800048828125</ele>
        <time>2026-06-20T13:08:35.000Z</time>
        <extensions>
          <ns3:TrackPointExtension>
            <ns3:atemp>36.0</ns3:atemp>
          </ns3:TrackPointExtension>
        </extensions>
      </trkpt>
      <trkpt lat="42.45463703759014606475830078125" lon="20.2118958346545696258544921875">
        <ele>1052.5999755859375</ele>
        <time>2026-06-20T13:08:36.000Z</time>
        <extensions>
          <ns3:TrackPointExtension>
            <ns3:atemp>36.0</ns3:atemp>
          </ns3:TrackPointExtension>
        </extensions>
      </trkpt>
      <trkpt lat="42.45460552163422107696533203125" lon="20.21191502921283245086669921875">
        <ele>1052.5999755859375</ele>
        <time>2026-06-20T13:08:37.000Z</time>
        <extensions>
          <ns3:TrackPointExtension>
            <ns3:atemp>36.0</ns3:atemp>
          </ns3:TrackPointExtension>
        </extensions>
      </trkpt>
      <trkpt lat="42.45457584969699382781982421875" lon="20.21193900145590305328369140625">
        <ele>1052.4000244140625</ele>
        <time>2026-06-20T13:08:38.000Z</time>
        <extensions>
          <ns3:TrackPointExtension>
            <ns3:atemp>36.0</ns3:atemp>
          </ns3:TrackPointExtension>
        </extensions>
      </trkpt>
      <trkpt lat="42.45454617775976657867431640625" lon="20.211944282054901123046875">
        <ele>1052.4000244140625</ele>
        <time>2026-06-20T13:08:39.000Z</time>
        <extensions>
          <ns3:TrackPointExtension>
            <ns3:atemp>36.0</ns3:atemp>
          </ns3:TrackPointExtension>
        </extensions>
      </trkpt>
      <trkpt lat="42.454516589641571044921875" lon="20.21192349493503570556640625">
        <ele>1052.199951171875</ele>
        <time>2026-06-20T13:08:40.000Z</time>
        <extensions>
          <ns3:TrackPointExtension>
            <ns3:atemp>36.0</ns3:atemp>
          </ns3:TrackPointExtension>
        </extensions>
      </trkpt>
      <trkpt lat="42.4544859118759632110595703125" lon="20.21189910359680652618408203125">
        <ele>1052</ele>
        <time>2026-06-20T13:08:41.000Z</time>
        <extensions>
          <ns3:TrackPointExtension>
            <ns3:atemp>36.0</ns3:atemp>
          </ns3:TrackPointExtension>
        </extensions>
      </trkpt>
      <trkpt lat="42.4544535577297210693359375" lon="20.211874879896640777587890625">
        <ele>1051.800048828125</ele>
        <time>2026-06-20T13:08:42.000Z</time>
        <extensions>
          <ns3:TrackPointExtension>
            <ns3:atemp>36.0</ns3:atemp>
          </ns3:TrackPointExtension>
        </extensions>
      </trkpt>
      <trkpt lat="42.4544205330312252044677734375" lon="20.21184663288295269012451171875">
        <ele>1051.5999755859375</ele>
        <time>2026-06-20T13:08:43.000Z</time>
        <extensions>
          <ns3:TrackPointExtension>
            <ns3:atemp>36.0</ns3:atemp>
          </ns3:TrackPointExtension>
        </extensions>
      </trkpt>
      <trkpt lat="42.4544131569564342498779296875" lon="20.21181360818445682525634765625">
        <ele>1051.5999755859375</ele>
        <time>2026-06-20T13:08:44.000Z</time>
        <extensions>
          <ns3:TrackPointExtension>
            <ns3:atemp>36.0</ns3:atemp>
          </ns3:TrackPointExtension>
        </extensions>
      </trkpt>
      <trkpt lat="42.45442363433539867401123046875" lon="20.21178402006626129150390625">
        <ele>1051.5999755859375</ele>
        <time>2026-06-20T13:08:45.000Z</time>
        <extensions>
          <ns3:TrackPointExtension>
            <ns3:atemp>36.0</ns3:atemp>
          </ns3:TrackPointExtension>
        </extensions>
      </trkpt>
      <trkpt lat="42.45442430488765239715576171875" lon="20.211747474968433380126953125">
        <ele>1051.5999755859375</ele>
        <time>2026-06-20T13:08:46.000Z</time>
        <extensions>
          <ns3:TrackPointExtension>
            <ns3:atemp>36.0</ns3:atemp>
          </ns3:TrackPointExtension>
        </extensions>
      </trkpt>
      <trkpt lat="42.4544030986726284027099609375" lon="20.211729370057582855224609375">
        <ele>1051.5999755859375</ele>
        <time>2026-06-20T13:08:47.000Z</time>
        <extensions>
          <ns3:TrackPointExtension>
            <ns3:atemp>36.0</ns3:atemp>
          </ns3:TrackPointExtension>
        </extensions>
      </trkpt>
      <trkpt lat="42.45437510311603546142578125" lon="20.21171419881284236907958984375">
        <ele>1051.4000244140625</ele>
        <time>2026-06-20T13:08:48.000Z</time>
        <extensions>
          <ns3:TrackPointExtension>
            <ns3:atemp>36.0</ns3:atemp>
          </ns3:TrackPointExtension>
        </extensions>
      </trkpt>
      <trkpt lat="42.4543457664549350738525390625" lon="20.21170028485357761383056640625">
        <ele>1051.199951171875</ele>
        <time>2026-06-20T13:08:49.000Z</time>
        <extensions>
          <ns3:TrackPointExtension>
            <ns3:atemp>36.0</ns3:atemp>
          </ns3:TrackPointExtension>
        </extensions>
      </trkpt>
      <trkpt lat="42.45431165210902690887451171875" lon="20.2116815932095050811767578125">
        <ele>1050.800048828125</ele>
        <time>2026-06-20T13:08:50.000Z</time>
        <extensions>
          <ns3:TrackPointExtension>
            <ns3:atemp>36.0</ns3:atemp>
          </ns3:TrackPointExtension>
        </extensions>
      </trkpt>
      <trkpt lat="42.4542733468115329742431640625" lon="20.21166457794606685638427734375">
        <ele>1050.4000244140625</ele>
        <time>2026-06-20T13:08:51.000Z</time>
        <extensions>
          <ns3:TrackPointExtension>
            <ns3:atemp>36.0</ns3:atemp>
          </ns3:TrackPointExtension>
        </extensions>
      </trkpt>
      <trkpt lat="42.45423168875277042388916015625" lon="20.21164479665458202362060546875">
        <ele>1050.199951171875</ele>
        <time>2026-06-20T13:08:52.000Z</time>
        <extensions>
          <ns3:TrackPointExtension>
            <ns3:atemp>36.0</ns3:atemp>
          </ns3:TrackPointExtension>
        </extensions>
      </trkpt>
      <trkpt lat="42.45418709702789783477783203125" lon="20.21162400953471660614013671875">
        <ele>1049.800048828125</ele>
        <time>2026-06-20T13:08:53.000Z</time>
        <extensions>
          <ns3:TrackPointExtension>
            <ns3:atemp>36.0</ns3:atemp>
          </ns3:TrackPointExtension>
        </extensions>
      </trkpt>
      <trkpt lat="42.45414133183658123016357421875" lon="20.21160188131034374237060546875">
        <ele>1049.5999755859375</ele>
        <time>2026-06-20T13:08:54.000Z</time>
        <extensions>
          <ns3:TrackPointExtension>
            <ns3:atemp>36.0</ns3:atemp>
          </ns3:TrackPointExtension>
        </extensions>
      </trkpt>
      <trkpt lat="42.4540966562926769256591796875" lon="20.21157723851501941680908203125">
        <ele>1049.4000244140625</ele>
        <time>2026-06-20T13:08:55.000Z</time>
        <extensions>
          <ns3:TrackPointExtension>
            <ns3:atemp>36.0</ns3:atemp>
          </ns3:TrackPointExtension>
        </extensions>
      </trkpt>
      <trkpt lat="42.45404846034944057464599609375" lon="20.21155293099582195281982421875">
        <ele>1049.199951171875</ele>
        <time>2026-06-20T13:08:56.000Z</time>
        <extensions>
          <ns3:TrackPointExtension>
            <ns3:atemp>36.0</ns3:atemp>
          </ns3:TrackPointExtension>
        </extensions>
      </trkpt>
      <trkpt lat="42.4540011025965213775634765625" lon="20.2115260250866413116455078125">
        <ele>1049</ele>
        <time>2026-06-20T13:08:57.000Z</time>
        <extensions>
          <ns3:TrackPointExtension>
            <ns3:atemp>36.0</ns3:atemp>
          </ns3:TrackPointExtension>
        </extensions>
      </trkpt>
      <trkpt lat="42.45395994745194911956787109375" lon="20.2115018852055072784423828125">
        <ele>1049</ele>
        <time>2026-06-20T13:08:58.000Z</time>
        <extensions>
          <ns3:TrackPointExtension>
            <ns3:atemp>36.0</ns3:atemp>
          </ns3:TrackPointExtension>
        </extensions>
      </trkpt>
      <trkpt lat="42.45392072014510631561279296875" lon="20.21150297485291957855224609375">
        <ele>1048.800048828125</ele>
        <time>2026-06-20T13:08:59.000Z</time>
        <extensions>
          <ns3:TrackPointExtension>
            <ns3:atemp>36.0</ns3:atemp>
          </ns3:TrackPointExtension>
        </extensions>
      </trkpt>
      <trkpt lat="42.4538961611688137054443359375" lon="20.21152577362954616546630859375">
        <ele>1049</ele>
        <time>2026-06-20T13:09:00.000Z</time>
        <extensions>
          <ns3:TrackPointExtension>
            <ns3:atemp>36.0</ns3:atemp>
          </ns3:TrackPointExtension>
        </extensions>
      </trkpt>
      <trkpt lat="42.4538854323327541351318359375" lon="20.2115686051547527313232421875">
        <ele>1049</ele>
        <time>2026-06-20T13:09:01.000Z</time>
        <extensions>
          <ns3:TrackPointExtension>
            <ns3:atemp>36.0</ns3:atemp>
          </ns3:TrackPointExtension>
        </extensions>
      </trkpt>
      <trkpt lat="42.4538736976683139801025390625" lon="20.21160967648029327392578125">
        <ele>1049</ele>
        <time>2026-06-20T13:09:02.000Z</time>
        <extensions>
          <ns3:TrackPointExtension>
            <ns3:atemp>36.0</ns3:atemp>
          </ns3:TrackPointExtension>
        </extensions>
      </trkpt>
      <trkpt lat="42.453862130641937255859375" lon="20.2116554416716098785400390625">
        <ele>1049.199951171875</ele>
        <time>2026-06-20T13:09:03.000Z</time>
        <extensions>
          <ns3:TrackPointExtension>
            <ns3:atemp>36.0</ns3:atemp>
          </ns3:TrackPointExtension>
        </extensions>
      </trkpt>
      <trkpt lat="42.45384980924427509307861328125" lon="20.21170648746192455291748046875">
        <ele>1049.199951171875</ele>
        <time>2026-06-20T13:09:04.000Z</time>
        <extensions>
          <ns3:TrackPointExtension>
            <ns3:atemp>36.0</ns3:atemp>
          </ns3:TrackPointExtension>
        </extensions>
      </trkpt>
      <trkpt lat="42.4538277648389339447021484375" lon="20.21174118854105472564697265625">
        <ele>1049.199951171875</ele>
        <time>2026-06-20T13:09:05.000Z</time>
        <extensions>
          <ns3:TrackPointExtension>
            <ns3:atemp>36.0</ns3:atemp>
          </ns3:TrackPointExtension>
        </extensions>
      </trkpt>
      <trkpt lat="42.45380370877683162689208984375" lon="20.21173682995140552520751953125">
        <ele>1048.800048828125</ele>
        <time>2026-06-20T13:09:06.000Z</time>
        <extensions>
          <ns3:TrackPointExtension>
            <ns3:atemp>36.0</ns3:atemp>
          </ns3:TrackPointExtension>
        </extensions>
      </trkpt>
      <trkpt lat="42.45377705432474613189697265625" lon="20.21172191016376018524169921875">
        <ele>1048.5999755859375</ele>
        <time>2026-06-20T13:09:07.000Z</time>
        <extensions>
          <ns3:TrackPointExtension>
            <ns3:atemp>36.0</ns3:atemp>
          </ns3:TrackPointExtension>
        </extensions>
      </trkpt>
      <trkpt lat="42.45374486781656742095947265625" lon="20.211708582937717437744140625">
        <ele>1048.4000244140625</ele>
        <time>2026-06-20T13:09:08.000Z</time>
        <extensions>
          <ns3:TrackPointExtension>
            <ns3:atemp>36.0</ns3:atemp>
          </ns3:TrackPointExtension>
        </extensions>
      </trkpt>
      <trkpt lat="42.45371125638484954833984375" lon="20.21169089712202548980712890625">
        <ele>1048.199951171875</ele>
        <time>2026-06-20T13:09:09.000Z</time>
        <extensions>
          <ns3:TrackPointExtension>
            <ns3:atemp>36.0</ns3:atemp>
          </ns3:TrackPointExtension>
        </extensions>
      </trkpt>
      <trkpt lat="42.45367362163960933685302734375" lon="20.21167245693504810333251953125">
        <ele>1048</ele>
        <time>2026-06-20T13:09:10.000Z</time>
        <extensions>
          <ns3:TrackPointExtension>
            <ns3:atemp>36.0</ns3:atemp>
          </ns3:TrackPointExtension>
        </extensions>
      </trkpt>
      <trkpt lat="42.45363472960889339447021484375" lon="20.21164831705391407012939453125">
        <ele>1047.800048828125</ele>
        <time>2026-06-20T13:09:11.000Z</time>
        <extensions>
          <ns3:TrackPointExtension>
            <ns3:atemp>36.0</ns3:atemp>
          </ns3:TrackPointExtension>
        </extensions>
      </trkpt>
      <trkpt lat="42.453593574464321136474609375" lon="20.21162283606827259063720703125">
        <ele>1047.800048828125</ele>
        <time>2026-06-20T13:09:12.000Z</time>
        <extensions>
          <ns3:TrackPointExtension>
            <ns3:atemp>36.0</ns3:atemp>
          </ns3:TrackPointExtension>
        </extensions>
      </trkpt>
      <trkpt lat="42.45354764163494110107421875" lon="20.21161763928830623626708984375">
        <ele>1047.4000244140625</ele>
        <time>2026-06-20T13:09:13.000Z</time>
        <extensions>
          <ns3:TrackPointExtension>
            <ns3:atemp>36.0</ns3:atemp>
          </ns3:TrackPointExtension>
        </extensions>
      </trkpt>
      <trkpt lat="42.45350128971040248870849609375" lon="20.21162283606827259063720703125">
        <ele>1047.4000244140625</ele>
        <time>2026-06-20T13:09:14.000Z</time>
        <extensions>
          <ns3:TrackPointExtension>
            <ns3:atemp>36.0</ns3:atemp>
          </ns3:TrackPointExtension>
        </extensions>
      </trkpt>
      <trkpt lat="42.45345820672810077667236328125" lon="20.2116416953504085540771484375">
        <ele>1047.199951171875</ele>
        <time>2026-06-20T13:09:15.000Z</time>
        <extensions>
          <ns3:TrackPointExtension>
            <ns3:atemp>36.0</ns3:atemp>
          </ns3:TrackPointExtension>
        </extensions>
      </trkpt>
      <trkpt lat="42.4534311331808567047119140625" lon="20.211674384772777557373046875">
        <ele>1046.800048828125</ele>
        <time>2026-06-20T13:09:16.000Z</time>
        <extensions>
          <ns3:TrackPointExtension>
            <ns3:atemp>36.0</ns3:atemp>
          </ns3:TrackPointExtension>
        </extensions>
      </trkpt>
      <trkpt lat="42.45341353118419647216796875" lon="20.21171453408896923065185546875">
        <ele>1046.5999755859375</ele>
        <time>2026-06-20T13:09:17.000Z</time>
        <extensions>
          <ns3:TrackPointExtension>
            <ns3:atemp>36.0</ns3:atemp>
          </ns3:TrackPointExtension>
        </extensions>
      </trkpt>
      <trkpt lat="42.45339551009237766265869140625" lon="20.21175074391067028045654296875">
        <ele>1046.4000244140625</ele>
        <time>2026-06-20T13:09:18.000Z</time>
        <extensions>
          <ns3:TrackPointExtension>
            <ns3:atemp>36.0</ns3:atemp>
          </ns3:TrackPointExtension>
        </extensions>
      </trkpt>
      <trkpt lat="42.4533712863922119140625" lon="20.21178066730499267578125">
        <ele>1046</ele>
        <time>2026-06-20T13:09:19.000Z</time>
        <extensions>
          <ns3:TrackPointExtension>
            <ns3:atemp>36.0</ns3:atemp>
          </ns3:TrackPointExtension>
        </extensions>
      </trkpt>
      <trkpt lat="42.45334387756884098052978515625" lon="20.211810171604156494140625">
        <ele>1045.800048828125</ele>
        <time>2026-06-20T13:09:20.000Z</time>
        <extensions>
          <ns3:TrackPointExtension>
            <ns3:atemp>36.0</ns3:atemp>
          </ns3:TrackPointExtension>
        </extensions>
      </trkpt>
      <trkpt lat="42.45330682955682277679443359375" lon="20.2118276059627532958984375">
        <ele>1045.5999755859375</ele>
        <time>2026-06-20T13:09:21.000Z</time>
        <extensions>
          <ns3:TrackPointExtension>
            <ns3:atemp>36.0</ns3:atemp>
          </ns3:TrackPointExtension>
        </extensions>
      </trkpt>
      <trkpt lat="42.4532702006399631500244140625" lon="20.211811847984790802001953125">
        <ele>1045.4000244140625</ele>
        <time>2026-06-20T13:09:22.000Z</time>
        <extensions>
          <ns3:TrackPointExtension>
            <ns3:atemp>36.0</ns3:atemp>
          </ns3:TrackPointExtension>
        </extensions>
      </trkpt>
      <trkpt lat="42.45324589312076568603515625" lon="20.21177203394472599029541015625">
        <ele>1045.199951171875</ele>
        <time>2026-06-20T13:09:23.000Z</time>
        <extensions>
          <ns3:TrackPointExtension>
            <ns3:atemp>36.0</ns3:atemp>
          </ns3:TrackPointExtension>
        </extensions>
      </trkpt>
      <trkpt lat="42.45323189534246921539306640625" lon="20.21172777749598026275634765625">
        <ele>1045.199951171875</ele>
        <time>2026-06-20T13:09:24.000Z</time>
        <extensions>
          <ns3:TrackPointExtension>
            <ns3:atemp>36.0</ns3:atemp>
          </ns3:TrackPointExtension>
        </extensions>
      </trkpt>
      <trkpt lat="42.4532259441912174224853515625" lon="20.2116839401423931121826171875">
        <ele>1045.199951171875</ele>
        <time>2026-06-20T13:09:25.000Z</time>
        <extensions>
          <ns3:TrackPointExtension>
            <ns3:atemp>36.0</ns3:atemp>
          </ns3:TrackPointExtension>
        </extensions>
      </trkpt>
      <trkpt lat="42.45322200469672679901123046875" lon="20.21163943223655223846435546875">
        <ele>1045.4000244140625</ele>
        <time>2026-06-20T13:09:26.000Z</time>
        <extensions>
          <ns3:TrackPointExtension>
            <ns3:atemp>36.0</ns3:atemp>
          </ns3:TrackPointExtension>
        </extensions>
      </trkpt>
      <trkpt lat="42.4532185681164264678955078125" lon="20.211589895188808441162109375">
        <ele>1045.5999755859375</ele>
        <time>2026-06-20T13:09:27.000Z</time>
        <extensions>
          <ns3:TrackPointExtension>
            <ns3:atemp>36.0</ns3:atemp>
          </ns3:TrackPointExtension>
        </extensions>
      </trkpt>
      <trkpt lat="42.4532148800790309906005859375" lon="20.21153599955141544342041015625">
        <ele>1045.5999755859375</ele>
        <time>2026-06-20T13:09:28.000Z</time>
        <extensions>
          <ns3:TrackPointExtension>
            <ns3:atemp>36.0</ns3:atemp>
          </ns3:TrackPointExtension>
        </extensions>
      </trkpt>
      <trkpt lat="42.45320959948003292083740234375" lon="20.2114841155707836151123046875">
        <ele>1045.4000244140625</ele>
        <time>2026-06-20T13:09:29.000Z</time>
        <extensions>
          <ns3:TrackPointExtension>
            <ns3:atemp>36.0</ns3:atemp>
          </ns3:TrackPointExtension>
        </extensions>
      </trkpt>
      <trkpt lat="42.453209348022937774658203125" lon="20.211430974304676055908203125">
        <ele>1045.4000244140625</ele>
        <time>2026-06-20T13:09:30.000Z</time>
        <extensions>
          <ns3:TrackPointExtension>
            <ns3:atemp>36.0</ns3:atemp>
          </ns3:TrackPointExtension>
        </extensions>
      </trkpt>
      <trkpt lat="42.45321027003228664398193359375" lon="20.21137523464858531951904296875">
        <ele>1045.4000244140625</ele>
        <time>2026-06-20T13:09:31.000Z</time>
        <extensions>
          <ns3:TrackPointExtension>
            <ns3:atemp>36.0</ns3:atemp>
          </ns3:TrackPointExtension>
        </extensions>
      </trkpt>
      <trkpt lat="42.453214041888713836669921875" lon="20.211321674287319183349609375">
        <ele>1045.4000244140625</ele>
        <time>2026-06-20T13:09:32.000Z</time>
        <extensions>
          <ns3:TrackPointExtension>
            <ns3:atemp>36.0</ns3:atemp>
          </ns3:TrackPointExtension>
        </extensions>
      </trkpt>
      <trkpt lat="42.45322175323963165283203125" lon="20.21126844920217990875244140625">
        <ele>1045.4000244140625</ele>
        <time>2026-06-20T13:09:33.000Z</time>
        <extensions>
          <ns3:TrackPointExtension>
            <ns3:atemp>36.0</ns3:atemp>
          </ns3:TrackPointExtension>
        </extensions>
      </trkpt>
      <trkpt lat="42.45322803966701030731201171875" lon="20.21121539175510406494140625">
        <ele>1045.4000244140625</ele>
        <time>2026-06-20T13:09:34.000Z</time>
        <extensions>
          <ns3:TrackPointExtension>
            <ns3:atemp>36.0</ns3:atemp>
          </ns3:TrackPointExtension>
        </extensions>
      </trkpt>
      <trkpt lat="42.45323474518954753875732421875" lon="20.21116216666996479034423828125">
        <ele>1045.4000244140625</ele>
        <time>2026-06-20T13:09:35.000Z</time>
        <extensions>
          <ns3:TrackPointExtension>
            <ns3:atemp>36.0</ns3:atemp>
          </ns3:TrackPointExtension>
        </extensions>
      </trkpt>
      <trkpt lat="42.45323725976049900054931640625" lon="20.21110869012773036956787109375">
        <ele>1045.4000244140625</ele>
        <time>2026-06-20T13:09:36.000Z</time>
        <extensions>
          <ns3:TrackPointExtension>
            <ns3:atemp>36.0</ns3:atemp>
          </ns3:TrackPointExtension>
        </extensions>
      </trkpt>
      <trkpt lat="42.45323591865599155426025390625" lon="20.2110556326806545257568359375">
        <ele>1045.199951171875</ele>
        <time>2026-06-20T13:09:37.000Z</time>
        <extensions>
          <ns3:TrackPointExtension>
            <ns3:atemp>36.0</ns3:atemp>
          </ns3:TrackPointExtension>
        </extensions>
      </trkpt>
      <trkpt lat="42.45323038659989833831787109375" lon="20.211002826690673828125">
        <ele>1045.199951171875</ele>
        <time>2026-06-20T13:09:38.000Z</time>
        <extensions>
          <ns3:TrackPointExtension>
            <ns3:atemp>36.0</ns3:atemp>
          </ns3:TrackPointExtension>
        </extensions>
      </trkpt>
      <trkpt lat="42.45322284288704395294189453125" lon="20.21094725467264652252197265625">
        <ele>1045.199951171875</ele>
        <time>2026-06-20T13:09:39.000Z</time>
        <extensions>
          <ns3:TrackPointExtension>
            <ns3:atemp>36.0</ns3:atemp>
          </ns3:TrackPointExtension>
        </extensions>
      </trkpt>
      <trkpt lat="42.45321395806968212127685546875" lon="20.21088891662657260894775390625">
        <ele>1045</ele>
        <time>2026-06-20T13:09:40.000Z</time>
        <extensions>
          <ns3:TrackPointExtension>
            <ns3:atemp>36.0</ns3:atemp>
          </ns3:TrackPointExtension>
        </extensions>
      </trkpt>
      <trkpt lat="42.45320163667201995849609375" lon="20.21082915365695953369140625">
        <ele>1044.800048828125</ele>
        <time>2026-06-20T13:09:41.000Z</time>
        <extensions>
          <ns3:TrackPointExtension>
            <ns3:atemp>36.0</ns3:atemp>
          </ns3:TrackPointExtension>
        </extensions>
      </trkpt>
      <trkpt lat="42.45318395085632801055908203125" lon="20.21075899712741374969482421875">
        <ele>1044.5999755859375</ele>
        <time>2026-06-20T13:09:42.000Z</time>
        <extensions>
          <ns3:TrackPointExtension>
            <ns3:atemp>36.0</ns3:atemp>
          </ns3:TrackPointExtension>
        </extensions>
      </trkpt>
      <trkpt lat="42.453159727156162261962890625" lon="20.2106868289411067962646484375">
        <ele>1044.199951171875</ele>
        <time>2026-06-20T13:09:43.000Z</time>
        <extensions>
          <ns3:TrackPointExtension>
            <ns3:atemp>36.0</ns3:atemp>
          </ns3:TrackPointExtension>
        </extensions>
      </trkpt>
      <trkpt lat="42.45313667692244052886962890625" lon="20.21061164326965808868408203125">
        <ele>1044</ele>
        <time>2026-06-20T13:09:44.000Z</time>
        <extensions>
          <ns3:TrackPointExtension>
            <ns3:atemp>36.0</ns3:atemp>
          </ns3:TrackPointExtension>
        </extensions>
      </trkpt>
      <trkpt lat="42.45310901664197444915771484375" lon="20.2105347812175750732421875">
        <ele>1043.4000244140625</ele>
        <time>2026-06-20T13:09:45.000Z</time>
        <extensions>
          <ns3:TrackPointExtension>
            <ns3:atemp>36.0</ns3:atemp>
          </ns3:TrackPointExtension>
        </extensions>
      </trkpt>
      <trkpt lat="42.45307423174381256103515625" lon="20.210453979671001434326171875">
        <ele>1043</ele>
        <time>2026-06-20T13:09:46.000Z</time>
        <extensions>
          <ns3:TrackPointExtension>
            <ns3:atemp>36.0</ns3:atemp>
          </ns3:TrackPointExtension>
        </extensions>
      </trkpt>
      <trkpt lat="42.4530358426272869110107421875" lon="20.21037108264863491058349609375">
        <ele>1042.4000244140625</ele>
        <time>2026-06-20T13:09:47.000Z</time>
        <extensions>
          <ns3:TrackPointExtension>
            <ns3:atemp>36.0</ns3:atemp>
          </ns3:TrackPointExtension>
        </extensions>
      </trkpt>
      <trkpt lat="42.4529996328055858612060546875" lon="20.21027795970439910888671875">
        <ele>1042</ele>
        <time>2026-06-20T13:09:48.000Z</time>
        <extensions>
          <ns3:TrackPointExtension>
            <ns3:atemp>36.0</ns3:atemp>
          </ns3:TrackPointExtension>
        </extensions>
      </trkpt>
      <trkpt lat="42.452970631420612335205078125" lon="20.2101802267134189605712890625">
        <ele>1041.5999755859375</ele>
        <time>2026-06-20T13:09:49.000Z</time>
        <extensions>
          <ns3:TrackPointExtension>
            <ns3:atemp>36.0</ns3:atemp>
          </ns3:TrackPointExtension>
        </extensions>
      </trkpt>
      <trkpt lat="42.45294959284365177154541015625" lon="20.2100739441812038421630859375">
        <ele>1041.199951171875</ele>
        <time>2026-06-20T13:09:50.000Z</time>
        <extensions>
          <ns3:TrackPointExtension>
            <ns3:atemp>36.0</ns3:atemp>
          </ns3:TrackPointExtension>
        </extensions>
      </trkpt>
      <trkpt lat="42.4529433064162731170654296875" lon="20.2099619619548320770263671875">
        <ele>1040.5999755859375</ele>
        <time>2026-06-20T13:09:51.000Z</time>
        <extensions>
          <ns3:TrackPointExtension>
            <ns3:atemp>35.0</ns3:atemp>
          </ns3:TrackPointExtension>
        </extensions>
      </trkpt>
      <trkpt lat="42.45296283625066280364990234375" lon="20.209851823747158050537109375">
        <ele>1040.199951171875</ele>
        <time>2026-06-20T13:09:52.000Z</time>
        <extensions>
          <ns3:TrackPointExtension>
            <ns3:atemp>35.0</ns3:atemp>
          </ns3:TrackPointExtension>
        </extensions>
      </trkpt>
      <trkpt lat="42.45300994254648685455322265625" lon="20.2097557671368122100830078125">
        <ele>1039.800048828125</ele>
        <time>2026-06-20T13:09:53.000Z</time>
        <extensions>
          <ns3:TrackPointExtension>
            <ns3:atemp>35.0</ns3:atemp>
          </ns3:TrackPointExtension>
        </extensions>
      </trkpt>
      <trkpt lat="42.4530760757625102996826171875" lon="20.209683515131473541259765625">
        <ele>1039.199951171875</ele>
        <time>2026-06-20T13:09:54.000Z</time>
        <extensions>
          <ns3:TrackPointExtension>
            <ns3:atemp>35.0</ns3:atemp>
          </ns3:TrackPointExtension>
        </extensions>
      </trkpt>
      <trkpt lat="42.45314891450107097625732421875" lon="20.2096206508576869964599609375">
        <ele>1038.800048828125</ele>
        <time>2026-06-20T13:09:55.000Z</time>
        <extensions>
          <ns3:TrackPointExtension>
            <ns3:atemp>35.0</ns3:atemp>
          </ns3:TrackPointExtension>
        </extensions>
      </trkpt>
      <trkpt lat="42.45322116650640964508056640625" lon="20.2095499075949192047119140625">
        <ele>1038.199951171875</ele>
        <time>2026-06-20T13:09:56.000Z</time>
        <extensions>
          <ns3:TrackPointExtension>
            <ns3:atemp>35.0</ns3:atemp>
          </ns3:TrackPointExtension>
        </extensions>
      </trkpt>
      <trkpt lat="42.4532854557037353515625" lon="20.20946835167706012725830078125">
        <ele>1037.5999755859375</ele>
        <time>2026-06-20T13:09:57.000Z</time>
        <extensions>
          <ns3:TrackPointExtension>
            <ns3:atemp>35.0</ns3:atemp>
          </ns3:TrackPointExtension>
        </extensions>
      </trkpt>
      <trkpt lat="42.45333331637084484100341796875" lon="20.2093695290386676788330078125">
        <ele>1037</ele>
        <time>2026-06-20T13:09:58.000Z</time>
        <extensions>
          <ns3:TrackPointExtension>
            <ns3:atemp>35.0</ns3:atemp>
          </ns3:TrackPointExtension>
        </extensions>
      </trkpt>
      <trkpt lat="42.453363575041294097900390625" lon="20.2092588879168033599853515625">
        <ele>1036.5999755859375</ele>
        <time>2026-06-20T13:09:59.000Z</time>
        <extensions>
          <ns3:TrackPointExtension>
            <ns3:atemp>35.0</ns3:atemp>
          </ns3:TrackPointExtension>
        </extensions>
      </trkpt>
      <trkpt lat="42.45338947512209415435791015625" lon="20.20914497785270214080810546875">
        <ele>1036.199951171875</ele>
        <time>2026-06-20T13:10:00.000Z</time>
        <extensions>
          <ns3:TrackPointExtension>
            <ns3:atemp>35.0</ns3:atemp>
          </ns3:TrackPointExtension>
        </extensions>
      </trkpt>
      <trkpt lat="42.4534193985164165496826171875" lon="20.2090352587401866912841796875">
        <ele>1036</ele>
        <time>2026-06-20T13:10:01.000Z</time>
        <extensions>
          <ns3:TrackPointExtension>
            <ns3:atemp>35.0</ns3:atemp>
          </ns3:TrackPointExtension>
        </extensions>
      </trkpt>
      <trkpt lat="42.4534556083381175994873046875" lon="20.20893291570246219635009765625">
        <ele>1035.800048828125</ele>
        <time>2026-06-20T13:10:02.000Z</time>
        <extensions>
          <ns3:TrackPointExtension>
            <ns3:atemp>35.0</ns3:atemp>
          </ns3:TrackPointExtension>
        </extensions>
      </trkpt>
      <trkpt lat="42.453495673835277557373046875" lon="20.208832919597625732421875">
        <ele>1035.5999755859375</ele>
        <time>2026-06-20T13:10:03.000Z</time>
        <extensions>
          <ns3:TrackPointExtension>
            <ns3:atemp>35.0</ns3:atemp>
          </ns3:TrackPointExtension>
        </extensions>
      </trkpt>
      <trkpt lat="42.4535364098846912384033203125" lon="20.20873627625405788421630859375">
        <ele>1035.199951171875</ele>
        <time>2026-06-20T13:10:04.000Z</time>
        <extensions>
          <ns3:TrackPointExtension>
            <ns3:atemp>35.0</ns3:atemp>
          </ns3:TrackPointExtension>
        </extensions>
      </trkpt>
      <trkpt lat="42.45357044041156768798828125" lon="20.2086411416530609130859375">
        <ele>1035</ele>
        <time>2026-06-20T13:10:05.000Z</time>
        <extensions>
          <ns3:TrackPointExtension>
            <ns3:atemp>35.0</ns3:atemp>
          </ns3:TrackPointExtension>
        </extensions>
      </trkpt>
      <trkpt lat="42.4535843543708324432373046875" lon="20.20854885689914226531982421875">
        <ele>1034.4000244140625</ele>
        <time>2026-06-20T13:10:06.000Z</time>
        <extensions>
          <ns3:TrackPointExtension>
            <ns3:atemp>35.0</ns3:atemp>
          </ns3:TrackPointExtension>
        </extensions>
      </trkpt>
      <trkpt lat="42.453570775687694549560546875" lon="20.20847073756158351898193359375">
        <ele>1034</ele>
        <time>2026-06-20T13:10:07.000Z</time>
        <extensions>
          <ns3:TrackPointExtension>
            <ns3:atemp>35.0</ns3:atemp>
          </ns3:TrackPointExtension>
        </extensions>
      </trkpt>
      <trkpt lat="42.45352928526699542999267578125" lon="20.2084260620176792144775390625">
        <ele>1033.5999755859375</ele>
        <time>2026-06-20T13:10:08.000Z</time>
        <extensions>
          <ns3:TrackPointExtension>
            <ns3:atemp>35.0</ns3:atemp>
          </ns3:TrackPointExtension>
        </extensions>
      </trkpt>
      <trkpt lat="42.4534760601818561553955078125" lon="20.20842321217060089111328125">
        <ele>1033.199951171875</ele>
        <time>2026-06-20T13:10:09.000Z</time>
        <extensions>
          <ns3:TrackPointExtension>
            <ns3:atemp>35.0</ns3:atemp>
          </ns3:TrackPointExtension>
        </extensions>
      </trkpt>
      <trkpt lat="42.453419230878353118896484375" lon="20.2084532193839550018310546875">
        <ele>1032.800048828125</ele>
        <time>2026-06-20T13:10:10.000Z</time>
        <extensions>
          <ns3:TrackPointExtension>
            <ns3:atemp>35.0</ns3:atemp>
          </ns3:TrackPointExtension>
        </extensions>
      </trkpt>
      <trkpt lat="42.45336055755615234375" lon="20.20850443281233310699462890625">
        <ele>1032.199951171875</ele>
        <time>2026-06-20T13:10:11.000Z</time>
        <extensions>
          <ns3:TrackPointExtension>
            <ns3:atemp>35.0</ns3:atemp>
          </ns3:TrackPointExtension>
        </extensions>
      </trkpt>
      <trkpt lat="42.45329241268336772918701171875" lon="20.2085579931735992431640625">
        <ele>1031.5999755859375</ele>
        <time>2026-06-20T13:10:12.000Z</time>
        <extensions>
          <ns3:TrackPointExtension>
            <ns3:atemp>35.0</ns3:atemp>
          </ns3:TrackPointExtension>
        </extensions>
      </trkpt>
      <trkpt lat="42.45321638882160186767578125" lon="20.208609960973262786865234375">
        <ele>1030.800048828125</ele>
        <time>2026-06-20T13:10:13.000Z</time>
        <extensions>
          <ns3:TrackPointExtension>
            <ns3:atemp>35.0</ns3:atemp>
          </ns3:TrackPointExtension>
        </extensions>
      </trkpt>
      <trkpt lat="42.45312795974314212799072265625" lon="20.2086599171161651611328125">
        <ele>1029.5999755859375</ele>
        <time>2026-06-20T13:10:14.000Z</time>
        <extensions>
          <ns3:TrackPointExtension>
            <ns3:atemp>35.0</ns3:atemp>
          </ns3:TrackPointExtension>
        </extensions>
      </trkpt>
      <trkpt lat="42.4530301429331302642822265625" lon="20.2087023295462131500244140625">
        <ele>1028.5999755859375</ele>
        <time>2026-06-20T13:10:15.000Z</time>
        <extensions>
          <ns3:TrackPointExtension>
            <ns3:atemp>35.0</ns3:atemp>
          </ns3:TrackPointExtension>
        </extensions>
      </trkpt>
      <trkpt lat="42.45293014682829380035400390625" lon="20.20873979665338993072509765625">
        <ele>1027.5999755859375</ele>
        <time>2026-06-20T13:10:16.000Z</time>
        <extensions>
          <ns3:TrackPointExtension>
            <ns3:atemp>35.0</ns3:atemp>
          </ns3:TrackPointExtension>
        </extensions>
      </trkpt>
      <trkpt lat="42.4528335034847259521484375" lon="20.20878522656857967376708984375">
        <ele>1026.4000244140625</ele>
        <time>2026-06-20T13:10:17.000Z</time>
        <extensions>
          <ns3:TrackPointExtension>
            <ns3:atemp>35.0</ns3:atemp>
          </ns3:TrackPointExtension>
        </extensions>
      </trkpt>
      <trkpt lat="42.452746331691741943359375" lon="20.20884138531982898712158203125">
        <ele>1025.199951171875</ele>
        <time>2026-06-20T13:10:18.000Z</time>
        <extensions>
          <ns3:TrackPointExtension>
            <ns3:atemp>35.0</ns3:atemp>
          </ns3:TrackPointExtension>
        </extensions>
      </trkpt>
      <trkpt lat="42.4526814557611942291259765625" lon="20.2089159004390239715576171875">
        <ele>1024.199951171875</ele>
        <time>2026-06-20T13:10:19.000Z</time>
        <extensions>
          <ns3:TrackPointExtension>
            <ns3:atemp>35.0</ns3:atemp>
          </ns3:TrackPointExtension>
        </extensions>
      </trkpt>
      <trkpt lat="42.45264147408306598663330078125" lon="20.2090166509151458740234375">
        <ele>1023.4000244140625</ele>
        <time>2026-06-20T13:10:20.000Z</time>
        <extensions>
          <ns3:TrackPointExtension>
            <ns3:atemp>35.0</ns3:atemp>
          </ns3:TrackPointExtension>
        </extensions>
      </trkpt>
      <trkpt lat="42.4526291526854038238525390625" lon="20.209136344492435455322265625">
        <ele>1022.5999755859375</ele>
        <time>2026-06-20T13:10:21.000Z</time>
        <extensions>
          <ns3:TrackPointExtension>
            <ns3:atemp>35.0</ns3:atemp>
          </ns3:TrackPointExtension>
        </extensions>
      </trkpt>
      <trkpt lat="42.452614568173885345458984375" lon="20.20926500670611858367919921875">
        <ele>1021.79998779296875</ele>
        <time>2026-06-20T13:10:22.000Z</time>
        <extensions>
          <ns3:TrackPointExtension>
            <ns3:atemp>35.0</ns3:atemp>
          </ns3:TrackPointExtension>
        </extensions>
      </trkpt>
      <trkpt lat="42.45257928036153316497802734375" lon="20.20938905887305736541748046875">
        <ele>1021.20001220703125</ele>
        <time>2026-06-20T13:10:23.000Z</time>
        <extensions>
          <ns3:TrackPointExtension>
            <ns3:atemp>35.0</ns3:atemp>
          </ns3:TrackPointExtension>
        </extensions>
      </trkpt>
      <trkpt lat="42.45252664200961589813232421875" lon="20.2095090039074420928955078125">
        <ele>1020.20001220703125</ele>
        <time>2026-06-20T13:10:24.000Z</time>
        <extensions>
          <ns3:TrackPointExtension>
            <ns3:atemp>35.0</ns3:atemp>
          </ns3:TrackPointExtension>
        </extensions>
      </trkpt>
      <trkpt lat="42.4524652026593685150146484375" lon="20.2096142806112766265869140625">
        <ele>1019.4000244140625</ele>
        <time>2026-06-20T13:10:25.000Z</time>
        <extensions>
          <ns3:TrackPointExtension>
            <ns3:atemp>35.0</ns3:atemp>
          </ns3:TrackPointExtension>
        </extensions>
      </trkpt>
      <trkpt lat="42.45240409858524799346923828125" lon="20.2097252570092678070068359375">
        <ele>1018.20001220703125</ele>
        <time>2026-06-20T13:10:26.000Z</time>
        <extensions>
          <ns3:TrackPointExtension>
            <ns3:atemp>35.0</ns3:atemp>
          </ns3:TrackPointExtension>
        </extensions>
      </trkpt>
      <trkpt lat="42.4523716606199741363525390625" lon="20.2098506502807140350341796875">
        <ele>1017.20001220703125</ele>
        <time>2026-06-20T13:10:27.000Z</time>
        <extensions>
          <ns3:TrackPointExtension>
            <ns3:atemp>35.0</ns3:atemp>
          </ns3:TrackPointExtension>
        </extensions>
      </trkpt>
      <trkpt lat="42.45236612856388092041015625" lon="20.20998316816985607147216796875">
        <ele>1016.20001220703125</ele>
        <time>2026-06-20T13:10:28.000Z</time>
        <extensions>
          <ns3:TrackPointExtension>
            <ns3:atemp>35.0</ns3:atemp>
          </ns3:TrackPointExtension>
        </extensions>
      </trkpt>
      <trkpt lat="42.45237685739994049072265625" lon="20.21011727862060070037841796875">
        <ele>1015.20001220703125</ele>
        <time>2026-06-20T13:10:29.000Z</time>
        <extensions>
          <ns3:TrackPointExtension>
            <ns3:atemp>35.0</ns3:atemp>
          </ns3:TrackPointExtension>
        </extensions>
      </trkpt>
      <trkpt lat="42.45240560732781887054443359375" lon="20.2102442644536495208740234375">
        <ele>1014.4000244140625</ele>
        <time>2026-06-20T13:10:30.000Z</time>
        <extensions>
          <ns3:TrackPointExtension>
            <ns3:atemp>35.0</ns3:atemp>
          </ns3:TrackPointExtension>
        </extensions>
      </trkpt>
      <trkpt lat="42.45244215242564678192138671875" lon="20.2103709988296031951904296875">
        <ele>1013.5999755859375</ele>
        <time>2026-06-20T13:10:31.000Z</time>
        <extensions>
          <ns3:TrackPointExtension>
            <ns3:atemp>35.0</ns3:atemp>
          </ns3:TrackPointExtension>
        </extensions>
      </trkpt>
      <trkpt lat="42.452471740543842315673828125" lon="20.2105024270713329315185546875">
        <ele>1013</ele>
        <time>2026-06-20T13:10:32.000Z</time>
        <extensions>
          <ns3:TrackPointExtension>
            <ns3:atemp>35.0</ns3:atemp>
          </ns3:TrackPointExtension>
        </extensions>
      </trkpt>
      <trkpt lat="42.452490516006946563720703125" lon="20.2106398902833461761474609375">
        <ele>1012.4000244140625</ele>
        <time>2026-06-20T13:10:33.000Z</time>
        <extensions>
          <ns3:TrackPointExtension>
            <ns3:atemp>35.0</ns3:atemp>
          </ns3:TrackPointExtension>
        </extensions>
      </trkpt>
      <trkpt lat="42.45248221792280673980712890625" lon="20.210780538618564605712890625">
        <ele>1011.79998779296875</ele>
        <time>2026-06-20T13:10:34.000Z</time>
        <extensions>
          <ns3:TrackPointExtension>
            <ns3:atemp>35.0</ns3:atemp>
          </ns3:TrackPointExtension>
        </extensions>
      </trkpt>
      <trkpt lat="42.45244366116821765899658203125" lon="20.21090936847031116485595703125">
        <ele>1010.79998779296875</ele>
        <time>2026-06-20T13:10:35.000Z</time>
        <extensions>
          <ns3:TrackPointExtension>
            <ns3:atemp>35.0</ns3:atemp>
          </ns3:TrackPointExtension>
        </extensions>
      </trkpt>
      <trkpt lat="42.45239119045436382293701171875" lon="20.21102352999150753021240234375">
        <ele>1010</ele>
        <time>2026-06-20T13:10:36.000Z</time>
        <extensions>
          <ns3:TrackPointExtension>
            <ns3:atemp>35.0</ns3:atemp>
          </ns3:TrackPointExtension>
        </extensions>
      </trkpt>
      <trkpt lat="42.4523300863802433013916015625" lon="20.211135931313037872314453125">
        <ele>1009.20001220703125</ele>
        <time>2026-06-20T13:10:37.000Z</time>
        <extensions>
          <ns3:TrackPointExtension>
            <ns3:atemp>35.0</ns3:atemp>
          </ns3:TrackPointExtension>
        </extensions>
      </trkpt>
      <trkpt lat="42.45227359235286712646484375" lon="20.21125830709934234619140625">
        <ele>1008.4000244140625</ele>
        <time>2026-06-20T13:10:38.000Z</time>
        <extensions>
          <ns3:TrackPointExtension>
            <ns3:atemp>35.0</ns3:atemp>
          </ns3:TrackPointExtension>
        </extensions>
      </trkpt>
      <trkpt lat="42.4522321857511997222900390625" lon="20.21139241755008697509765625">
        <ele>1007.20001220703125</ele>
        <time>2026-06-20T13:10:39.000Z</time>
        <extensions>
          <ns3:TrackPointExtension>
            <ns3:atemp>35.0</ns3:atemp>
          </ns3:TrackPointExtension>
        </extensions>
      </trkpt>
      <trkpt lat="42.452207542955875396728515625" lon="20.2115377597510814666748046875">
        <ele>1006.20001220703125</ele>
        <time>2026-06-20T13:10:40.000Z</time>
        <extensions>
          <ns3:TrackPointExtension>
            <ns3:atemp>35.0</ns3:atemp>
          </ns3:TrackPointExtension>
        </extensions>
      </trkpt>
      <trkpt lat="42.4522020108997821807861328125" lon="20.21168838255107402801513671875">
        <ele>1005.20001220703125</ele>
        <time>2026-06-20T13:10:41.000Z</time>
        <extensions>
          <ns3:TrackPointExtension>
            <ns3:atemp>35.0</ns3:atemp>
          </ns3:TrackPointExtension>
        </extensions>
      </trkpt>
      <trkpt lat="42.4521966464817523956298828125" lon="20.211843363940715789794921875">
        <ele>1004.4000244140625</ele>
        <time>2026-06-20T13:10:42.000Z</time>
        <extensions>
          <ns3:TrackPointExtension>
            <ns3:atemp>35.0</ns3:atemp>
          </ns3:TrackPointExtension>
        </extensions>
      </trkpt>
      <trkpt lat="42.45218851603567600250244140625" lon="20.211999602615833282470703125">
        <ele>1003.20001220703125</ele>
        <time>2026-06-20T13:10:43.000Z</time>
        <extensions>
          <ns3:TrackPointExtension>
            <ns3:atemp>35.0</ns3:atemp>
          </ns3:TrackPointExtension>
        </extensions>
      </trkpt>
      <trkpt lat="42.4521708302199840545654296875" lon="20.2121556736528873443603515625">
        <ele>1002.4000244140625</ele>
        <time>2026-06-20T13:10:44.000Z</time>
        <extensions>
          <ns3:TrackPointExtension>
            <ns3:atemp>35.0</ns3:atemp>
          </ns3:TrackPointExtension>
        </extensions>
      </trkpt>
      <trkpt lat="42.45212364010512828826904296875" lon="20.21229892037808895111083984375">
        <ele>1001.5999755859375</ele>
        <time>2026-06-20T13:10:45.000Z</time>
        <extensions>
          <ns3:TrackPointExtension>
            <ns3:atemp>35.0</ns3:atemp>
          </ns3:TrackPointExtension>
        </extensions>
      </trkpt>
      <trkpt lat="42.45205574668943881988525390625" lon="20.21242783404886722564697265625">
        <ele>1001</ele>
        <time>2026-06-20T13:10:46.000Z</time>
        <extensions>
          <ns3:TrackPointExtension>
            <ns3:atemp>35.0</ns3:atemp>
          </ns3:TrackPointExtension>
        </extensions>
      </trkpt>
      <trkpt lat="42.4519877694547176361083984375" lon="20.212550461292266845703125">
        <ele>999.79998779296875</ele>
        <time>2026-06-20T13:10:47.000Z</time>
        <extensions>
          <ns3:TrackPointExtension>
            <ns3:atemp>35.0</ns3:atemp>
          </ns3:TrackPointExtension>
        </extensions>
      </trkpt>
      <trkpt lat="42.451923228800296783447265625" lon="20.21267945878207683563232421875">
        <ele>998.79998779296875</ele>
        <time>2026-06-20T13:10:48.000Z</time>
        <extensions>
          <ns3:TrackPointExtension>
            <ns3:atemp>35.0</ns3:atemp>
          </ns3:TrackPointExtension>
        </extensions>
      </trkpt>
      <trkpt lat="42.45185374282300472259521484375" lon="20.21280334331095218658447265625">
        <ele>998</ele>
        <time>2026-06-20T13:10:49.000Z</time>
        <extensions>
          <ns3:TrackPointExtension>
            <ns3:atemp>35.0</ns3:atemp>
          </ns3:TrackPointExtension>
        </extensions>
      </trkpt>
      <trkpt lat="42.45177394710481166839599609375" lon="20.21291851066052913665771484375">
        <ele>997.20001220703125</ele>
        <time>2026-06-20T13:10:50.000Z</time>
        <extensions>
          <ns3:TrackPointExtension>
            <ns3:atemp>35.0</ns3:atemp>
          </ns3:TrackPointExtension>
        </extensions>
      </trkpt>
      <trkpt lat="42.4516910500824451446533203125" lon="20.21302948705852031707763671875">
        <ele>996.4000244140625</ele>
        <time>2026-06-20T13:10:51.000Z</time>
        <extensions>
          <ns3:TrackPointExtension>
            <ns3:atemp>35.0</ns3:atemp>
          </ns3:TrackPointExtension>
        </extensions>
      </trkpt>
      <trkpt lat="42.4516199715435504913330078125" lon="20.21314767189323902130126953125">
        <ele>995.20001220703125</ele>
        <time>2026-06-20T13:10:52.000Z</time>
        <extensions>
          <ns3:TrackPointExtension>
            <ns3:atemp>35.0</ns3:atemp>
          </ns3:TrackPointExtension>
        </extensions>
      </trkpt>
      <trkpt lat="42.4515713565051555633544921875" lon="20.21327474154531955718994140625">
        <ele>994.5999755859375</ele>
        <time>2026-06-20T13:10:53.000Z</time>
        <extensions>
          <ns3:TrackPointExtension>
            <ns3:atemp>35.0</ns3:atemp>
          </ns3:TrackPointExtension>
        </extensions>
      </trkpt>
      <trkpt lat="42.451551072299480438232421875" lon="20.21340684033930301666259765625">
        <ele>993.79998779296875</ele>
        <time>2026-06-20T13:10:54.000Z</time>
        <extensions>
          <ns3:TrackPointExtension>
            <ns3:atemp>35.0</ns3:atemp>
          </ns3:TrackPointExtension>
        </extensions>
      </trkpt>
      <trkpt lat="42.4515690095722675323486328125" lon="20.21353022195398807525634765625">
        <ele>993.20001220703125</ele>
        <time>2026-06-20T13:10:55.000Z</time>
        <extensions>
          <ns3:TrackPointExtension>
            <ns3:atemp>35.0</ns3:atemp>
          </ns3:TrackPointExtension>
        </extensions>
      </trkpt>
      <trkpt lat="42.45161519385874271392822265625" lon="20.21363231353461742401123046875">
        <ele>992.5999755859375</ele>
        <time>2026-06-20T13:10:56.000Z</time>
        <extensions>
          <ns3:TrackPointExtension>
            <ns3:atemp>35.0</ns3:atemp>
          </ns3:TrackPointExtension>
        </extensions>
      </trkpt>
      <trkpt lat="42.45167604647576808929443359375" lon="20.21371445618569850921630859375">
        <ele>991.79998779296875</ele>
        <time>2026-06-20T13:10:57.000Z</time>
        <extensions>
          <ns3:TrackPointExtension>
            <ns3:atemp>35.0</ns3:atemp>
          </ns3:TrackPointExtension>
        </extensions>
      </trkpt>
      <trkpt lat="42.45174729265272617340087890625" lon="20.21379542537033557891845703125">
        <ele>991.20001220703125</ele>
        <time>2026-06-20T13:10:58.000Z</time>
        <extensions>
          <ns3:TrackPointExtension>
            <ns3:atemp>35.0</ns3:atemp>
          </ns3:TrackPointExtension>
        </extensions>
      </trkpt>
      <trkpt lat="42.45181560516357421875" lon="20.213874466717243194580078125">
        <ele>990.5999755859375</ele>
        <time>2026-06-20T13:10:59.000Z</time>
        <extensions>
          <ns3:TrackPointExtension>
            <ns3:atemp>35.0</ns3:atemp>
          </ns3:TrackPointExtension>
        </extensions>
      </trkpt>
      <trkpt lat="42.45187872089445590972900390625" lon="20.21395015530288219451904296875">
        <ele>989.5999755859375</ele>
        <time>2026-06-20T13:11:00.000Z</time>
        <extensions>
          <ns3:TrackPointExtension>
            <ns3:atemp>35.0</ns3:atemp>
          </ns3:TrackPointExtension>
        </extensions>
      </trkpt>
      <trkpt lat="42.45191845111548900604248046875" lon="20.21404084749519824981689453125">
        <ele>989</ele>
        <time>2026-06-20T13:11:01.000Z</time>
        <extensions>
          <ns3:TrackPointExtension>
            <ns3:atemp>35.0</ns3:atemp>
          </ns3:TrackPointExtension>
        </extensions>
      </trkpt>
      <trkpt lat="42.45192431844770908355712890625" lon="20.214147381484508514404296875">
        <ele>988.4000244140625</ele>
        <time>2026-06-20T13:11:02.000Z</time>
        <extensions>
          <ns3:TrackPointExtension>
            <ns3:atemp>35.0</ns3:atemp>
          </ns3:TrackPointExtension>
        </extensions>
      </trkpt>
      <trkpt lat="42.45189665816724300384521484375" lon="20.21423958241939544677734375">
        <ele>988.20001220703125</ele>
        <time>2026-06-20T13:11:03.000Z</time>
        <extensions>
          <ns3:TrackPointExtension>
            <ns3:atemp>35.0</ns3:atemp>
          </ns3:TrackPointExtension>
        </extensions>
      </trkpt>
      <trkpt lat="42.4518338777124881744384765625" lon="20.21430990658700466156005859375">
        <ele>987.5999755859375</ele>
        <time>2026-06-20T13:11:04.000Z</time>
        <extensions>
          <ns3:TrackPointExtension>
            <ns3:atemp>35.0</ns3:atemp>
          </ns3:TrackPointExtension>
        </extensions>
      </trkpt>
      <trkpt lat="42.4517607875168323516845703125" lon="20.21437461487948894500732421875">
        <ele>987</ele>
        <time>2026-06-20T13:11:05.000Z</time>
        <extensions>
          <ns3:TrackPointExtension>
            <ns3:atemp>35.0</ns3:atemp>
          </ns3:TrackPointExtension>
        </extensions>
      </trkpt>
      <trkpt lat="42.451684512197971343994140625" lon="20.2144409157335758209228515625">
        <ele>986.20001220703125</ele>
        <time>2026-06-20T13:11:06.000Z</time>
        <extensions>
          <ns3:TrackPointExtension>
            <ns3:atemp>35.0</ns3:atemp>
          </ns3:TrackPointExtension>
        </extensions>
      </trkpt>
      <trkpt lat="42.45161033235490322113037109375" lon="20.2145123295485973358154296875">
        <ele>985.5999755859375</ele>
        <time>2026-06-20T13:11:07.000Z</time>
        <extensions>
          <ns3:TrackPointExtension>
            <ns3:atemp>35.0</ns3:atemp>
          </ns3:TrackPointExtension>
        </extensions>
      </trkpt>
      <trkpt lat="42.4515458755195140838623046875" lon="20.21459631621837615966796875">
        <ele>984.5999755859375</ele>
        <time>2026-06-20T13:11:08.000Z</time>
        <extensions>
          <ns3:TrackPointExtension>
            <ns3:atemp>35.0</ns3:atemp>
          </ns3:TrackPointExtension>
        </extensions>
      </trkpt>
      <trkpt lat="42.4514843523502349853515625" lon="20.21469027735292911529541015625">
        <ele>983.5999755859375</ele>
        <time>2026-06-20T13:11:09.000Z</time>
        <extensions>
          <ns3:TrackPointExtension>
            <ns3:atemp>35.0</ns3:atemp>
          </ns3:TrackPointExtension>
        </extensions>
      </trkpt>
      <trkpt lat="42.45142207480967044830322265625" lon="20.214793123304843902587890625">
        <ele>982.79998779296875</ele>
        <time>2026-06-20T13:11:10.000Z</time>
        <extensions>
          <ns3:TrackPointExtension>
            <ns3:atemp>34.0</ns3:atemp>
          </ns3:TrackPointExtension>
        </extensions>
      </trkpt>
      <trkpt lat="42.451362647116184234619140625" lon="20.214905105531215667724609375">
        <ele>982</ele>
        <time>2026-06-20T13:11:11.000Z</time>
        <extensions>
          <ns3:TrackPointExtension>
            <ns3:atemp>34.0</ns3:atemp>
          </ns3:TrackPointExtension>
        </extensions>
      </trkpt>
      <trkpt lat="42.45131109841167926788330078125" lon="20.2150239609181880950927734375">
        <ele>981.20001220703125</ele>
        <time>2026-06-20T13:11:12.000Z</time>
        <extensions>
          <ns3:TrackPointExtension>
            <ns3:atemp>34.0</ns3:atemp>
          </ns3:TrackPointExtension>
        </extensions>
      </trkpt>
      <trkpt lat="42.45128176175057888031005859375" lon="20.2151470072567462921142578125">
        <ele>980.20001220703125</ele>
        <time>2026-06-20T13:11:13.000Z</time>
        <extensions>
          <ns3:TrackPointExtension>
            <ns3:atemp>34.0</ns3:atemp>
          </ns3:TrackPointExtension>
        </extensions>
      </trkpt>
      <trkpt lat="42.4512739665806293487548828125" lon="20.2152769267559051513671875">
        <ele>979.4000244140625</ele>
        <time>2026-06-20T13:11:14.000Z</time>
        <extensions>
          <ns3:TrackPointExtension>
            <ns3:atemp>34.0</ns3:atemp>
          </ns3:TrackPointExtension>
        </extensions>
      </trkpt>
      <trkpt lat="42.45127581059932708740234375" lon="20.21540793590247631072998046875">
        <ele>978.5999755859375</ele>
        <time>2026-06-20T13:11:15.000Z</time>
        <extensions>
          <ns3:TrackPointExtension>
            <ns3:atemp>34.0</ns3:atemp>
          </ns3:TrackPointExtension>
        </extensions>
      </trkpt>
      <trkpt lat="42.451281845569610595703125" lon="20.21554087288677692413330078125">
        <ele>977.79998779296875</ele>
        <time>2026-06-20T13:11:16.000Z</time>
        <extensions>
          <ns3:TrackPointExtension>
            <ns3:atemp>34.0</ns3:atemp>
          </ns3:TrackPointExtension>
        </extensions>
      </trkpt>
      <trkpt lat="42.45129056274890899658203125" lon="20.21567431278526782989501953125">
        <ele>977</ele>
        <time>2026-06-20T13:11:17.000Z</time>
        <extensions>
          <ns3:TrackPointExtension>
            <ns3:atemp>34.0</ns3:atemp>
          </ns3:TrackPointExtension>
        </extensions>
      </trkpt>
      <trkpt lat="42.4513014592230319976806640625" lon="20.2158080041408538818359375">
        <ele>976.4000244140625</ele>
        <time>2026-06-20T13:11:18.000Z</time>
        <extensions>
          <ns3:TrackPointExtension>
            <ns3:atemp>34.0</ns3:atemp>
          </ns3:TrackPointExtension>
        </extensions>
      </trkpt>
      <trkpt lat="42.45131746865808963775634765625" lon="20.21594320423901081085205078125">
        <ele>975.79998779296875</ele>
        <time>2026-06-20T13:11:19.000Z</time>
        <extensions>
          <ns3:TrackPointExtension>
            <ns3:atemp>34.0</ns3:atemp>
          </ns3:TrackPointExtension>
        </extensions>
      </trkpt>
      <trkpt lat="42.45134563185274600982666015625" lon="20.2160763926804065704345703125">
        <ele>975.4000244140625</ele>
        <time>2026-06-20T13:11:20.000Z</time>
        <extensions>
          <ns3:TrackPointExtension>
            <ns3:atemp>34.0</ns3:atemp>
          </ns3:TrackPointExtension>
        </extensions>
      </trkpt>
      <trkpt lat="42.45139810256659984588623046875" lon="20.21619315259158611297607421875">
        <ele>974.79998779296875</ele>
        <time>2026-06-20T13:11:21.000Z</time>
        <extensions>
          <ns3:TrackPointExtension>
            <ns3:atemp>34.0</ns3:atemp>
          </ns3:TrackPointExtension>
        </extensions>
      </trkpt>
      <trkpt lat="42.45146683417260646820068359375" lon="20.21629557944834232330322265625">
        <ele>974.20001220703125</ele>
        <time>2026-06-20T13:11:22.000Z</time>
        <extensions>
          <ns3:TrackPointExtension>
            <ns3:atemp>34.0</ns3:atemp>
          </ns3:TrackPointExtension>
        </extensions>
      </trkpt>
      <trkpt lat="42.4515395052731037139892578125" lon="20.21638040430843830108642578125">
        <ele>973.5999755859375</ele>
        <time>2026-06-20T13:11:23.000Z</time>
        <extensions>
          <ns3:TrackPointExtension>
            <ns3:atemp>34.0</ns3:atemp>
          </ns3:TrackPointExtension>
        </extensions>
      </trkpt>
      <trkpt lat="42.45160295628011226654052734375" lon="20.21646640263497829437255859375">
        <ele>973</ele>
        <time>2026-06-20T13:11:24.000Z</time>
        <extensions>
          <ns3:TrackPointExtension>
            <ns3:atemp>34.0</ns3:atemp>
          </ns3:TrackPointExtension>
        </extensions>
      </trkpt>
      <trkpt lat="42.45164738036692142486572265625" lon="20.21656061522662639617919921875">
        <ele>972.20001220703125</ele>
        <time>2026-06-20T13:11:25.000Z</time>
        <extensions>
          <ns3:TrackPointExtension>
            <ns3:atemp>34.0</ns3:atemp>
          </ns3:TrackPointExtension>
        </extensions>
      </trkpt>
      <trkpt lat="42.451649643480777740478515625" lon="20.216664634644985198974609375">
        <ele>971.5999755859375</ele>
        <time>2026-06-20T13:11:26.000Z</time>
        <extensions>
          <ns3:TrackPointExtension>
            <ns3:atemp>34.0</ns3:atemp>
          </ns3:TrackPointExtension>
        </extensions>
      </trkpt>
      <trkpt lat="42.45161569677293300628662109375" lon="20.2167502976953983306884765625">
        <ele>971</ele>
        <time>2026-06-20T13:11:27.000Z</time>
        <extensions>
          <ns3:TrackPointExtension>
            <ns3:atemp>34.0</ns3:atemp>
          </ns3:TrackPointExtension>
        </extensions>
      </trkpt>
      <trkpt lat="42.45156138204038143157958984375" lon="20.21681458689272403717041015625">
        <ele>970.4000244140625</ele>
        <time>2026-06-20T13:11:28.000Z</time>
        <extensions>
          <ns3:TrackPointExtension>
            <ns3:atemp>34.0</ns3:atemp>
          </ns3:TrackPointExtension>
        </extensions>
      </trkpt>
      <trkpt lat="42.4515031278133392333984375" lon="20.2168847434222698211669921875">
        <ele>969.5999755859375</ele>
        <time>2026-06-20T13:11:29.000Z</time>
        <extensions>
          <ns3:TrackPointExtension>
            <ns3:atemp>34.0</ns3:atemp>
          </ns3:TrackPointExtension>
        </extensions>
      </trkpt>
      <trkpt lat="42.45143942534923553466796875" lon="20.21695892326533794403076171875">
        <ele>968.5999755859375</ele>
        <time>2026-06-20T13:11:30.000Z</time>
        <extensions>
          <ns3:TrackPointExtension>
            <ns3:atemp>34.0</ns3:atemp>
          </ns3:TrackPointExtension>
        </extensions>
      </trkpt>
      <trkpt lat="42.4513732083141803741455078125" lon="20.21703151054680347442626953125">
        <ele>967.79998779296875</ele>
        <time>2026-06-20T13:11:31.000Z</time>
        <extensions>
          <ns3:TrackPointExtension>
            <ns3:atemp>34.0</ns3:atemp>
          </ns3:TrackPointExtension>
        </extensions>
      </trkpt>
      <trkpt lat="42.4513054825365543365478515625" lon="20.21711214445531368255615234375">
        <ele>966.79998779296875</ele>
        <time>2026-06-20T13:11:32.000Z</time>
        <extensions>
          <ns3:TrackPointExtension>
            <ns3:atemp>34.0</ns3:atemp>
          </ns3:TrackPointExtension>
        </extensions>
      </trkpt>
      <trkpt lat="42.45123582892119884490966796875" lon="20.21719671785831451416015625">
        <ele>965.79998779296875</ele>
        <time>2026-06-20T13:11:33.000Z</time>
        <extensions>
          <ns3:TrackPointExtension>
            <ns3:atemp>34.0</ns3:atemp>
          </ns3:TrackPointExtension>
        </extensions>
      </trkpt>
      <trkpt lat="42.4511656723916530609130859375" lon="20.21728280000388622283935546875">
        <ele>965</ele>
        <time>2026-06-20T13:11:34.000Z</time>
        <extensions>
          <ns3:TrackPointExtension>
            <ns3:atemp>34.0</ns3:atemp>
          </ns3:TrackPointExtension>
        </extensions>
      </trkpt>
      <trkpt lat="42.45110146701335906982421875" lon="20.21738405339419841766357421875">
        <ele>963.79998779296875</ele>
        <time>2026-06-20T13:11:35.000Z</time>
        <extensions>
          <ns3:TrackPointExtension>
            <ns3:atemp>34.0</ns3:atemp>
          </ns3:TrackPointExtension>
        </extensions>
      </trkpt>
      <trkpt lat="42.451054193079471588134765625" lon="20.21750978194177150726318359375">
        <ele>963</ele>
        <time>2026-06-20T13:11:36.000Z</time>
        <extensions>
          <ns3:TrackPointExtension>
            <ns3:atemp>34.0</ns3:atemp>
          </ns3:TrackPointExtension>
        </extensions>
      </trkpt>
      <trkpt lat="42.45102829299867153167724609375" lon="20.217647664248943328857421875">
        <ele>962</ele>
        <time>2026-06-20T13:11:37.000Z</time>
        <extensions>
          <ns3:TrackPointExtension>
            <ns3:atemp>34.0</ns3:atemp>
          </ns3:TrackPointExtension>
        </extensions>
      </trkpt>
      <trkpt lat="42.45101924054324626922607421875" lon="20.217797197401523590087890625">
        <ele>961.20001220703125</ele>
        <time>2026-06-20T13:11:38.000Z</time>
        <extensions>
          <ns3:TrackPointExtension>
            <ns3:atemp>34.0</ns3:atemp>
          </ns3:TrackPointExtension>
        </extensions>
      </trkpt>
      <trkpt lat="42.45102426968514919281005859375" lon="20.2179482392966747283935546875">
        <ele>960</ele>
        <time>2026-06-20T13:11:39.000Z</time>
        <extensions>
          <ns3:TrackPointExtension>
            <ns3:atemp>34.0</ns3:atemp>
          </ns3:TrackPointExtension>
        </extensions>
      </trkpt>
      <trkpt lat="42.45103147812187671661376953125" lon="20.218102633953094482421875">
        <ele>959</ele>
        <time>2026-06-20T13:11:40.000Z</time>
        <extensions>
          <ns3:TrackPointExtension>
            <ns3:atemp>34.0</ns3:atemp>
          </ns3:TrackPointExtension>
        </extensions>
      </trkpt>
      <trkpt lat="42.4510144628584384918212890625" lon="20.21825459785759449005126953125">
        <ele>958.20001220703125</ele>
        <time>2026-06-20T13:11:41.000Z</time>
        <extensions>
          <ns3:TrackPointExtension>
            <ns3:atemp>34.0</ns3:atemp>
          </ns3:TrackPointExtension>
        </extensions>
      </trkpt>
      <trkpt lat="42.4509658478200435638427734375" lon="20.21839122287929058074951171875">
        <ele>957.20001220703125</ele>
        <time>2026-06-20T13:11:42.000Z</time>
        <extensions>
          <ns3:TrackPointExtension>
            <ns3:atemp>34.0</ns3:atemp>
          </ns3:TrackPointExtension>
        </extensions>
      </trkpt>
      <trkpt lat="42.45089066214859485626220703125" lon="20.218497924506664276123046875">
        <ele>956</ele>
        <time>2026-06-20T13:11:43.000Z</time>
        <extensions>
          <ns3:TrackPointExtension>
            <ns3:atemp>34.0</ns3:atemp>
          </ns3:TrackPointExtension>
        </extensions>
      </trkpt>
      <trkpt lat="42.4507978744804859161376953125" lon="20.21857880987226963043212890625">
        <ele>954.79998779296875</ele>
        <time>2026-06-20T13:11:44.000Z</time>
        <extensions>
          <ns3:TrackPointExtension>
            <ns3:atemp>34.0</ns3:atemp>
          </ns3:TrackPointExtension>
        </extensions>
      </trkpt>
      <trkpt lat="42.45071464218199253082275390625" lon="20.2186618745326995849609375">
        <ele>953.5999755859375</ele>
        <time>2026-06-20T13:11:45.000Z</time>
        <extensions>
          <ns3:TrackPointExtension>
            <ns3:atemp>34.0</ns3:atemp>
          </ns3:TrackPointExtension>
        </extensions>
      </trkpt>
      <trkpt lat="42.45065353810787200927734375" lon="20.21876790560781955718994140625">
        <ele>952.5999755859375</ele>
        <time>2026-06-20T13:11:46.000Z</time>
        <extensions>
          <ns3:TrackPointExtension>
            <ns3:atemp>34.0</ns3:atemp>
          </ns3:TrackPointExtension>
        </extensions>
      </trkpt>
      <trkpt lat="42.45060282759368419647216796875" lon="20.21887603215873241424560546875">
        <ele>951.4000244140625</ele>
        <time>2026-06-20T13:11:47.000Z</time>
        <extensions>
          <ns3:TrackPointExtension>
            <ns3:atemp>34.0</ns3:atemp>
          </ns3:TrackPointExtension>
        </extensions>
      </trkpt>
      <trkpt lat="42.45057919062674045562744140625" lon="20.21899002604186534881591796875">
        <ele>950.20001220703125</ele>
        <time>2026-06-20T13:11:48.000Z</time>
        <extensions>
          <ns3:TrackPointExtension>
            <ns3:atemp>34.0</ns3:atemp>
          </ns3:TrackPointExtension>
        </extensions>
      </trkpt>
      <trkpt lat="42.4505913443863391876220703125" lon="20.2191052772104740142822265625">
        <ele>949.5999755859375</ele>
        <time>2026-06-20T13:11:49.000Z</time>
        <extensions>
          <ns3:TrackPointExtension>
            <ns3:atemp>34.0</ns3:atemp>
          </ns3:TrackPointExtension>
        </extensions>
      </trkpt>
      <trkpt lat="42.4506362713873386383056640625" lon="20.21919722668826580047607421875">
        <ele>948.79998779296875</ele>
        <time>2026-06-20T13:11:50.000Z</time>
        <extensions>
          <ns3:TrackPointExtension>
            <ns3:atemp>34.0</ns3:atemp>
          </ns3:TrackPointExtension>
        </extensions>
      </trkpt>
      <trkpt lat="42.4506989680230617523193359375" lon="20.2192715741693973541259765625">
        <ele>948.20001220703125</ele>
        <time>2026-06-20T13:11:51.000Z</time>
        <extensions>
          <ns3:TrackPointExtension>
            <ns3:atemp>34.0</ns3:atemp>
          </ns3:TrackPointExtension>
        </extensions>
      </trkpt>
      <trkpt lat="42.450768537819385528564453125" lon="20.2193404734134674072265625">
        <ele>947.5999755859375</ele>
        <time>2026-06-20T13:11:52.000Z</time>
        <extensions>
          <ns3:TrackPointExtension>
            <ns3:atemp>34.0</ns3:atemp>
          </ns3:TrackPointExtension>
        </extensions>
      </trkpt>
      <trkpt lat="42.4508379399776458740234375" lon="20.219405852258205413818359375">
        <ele>947</ele>
        <time>2026-06-20T13:11:53.000Z</time>
        <extensions>
          <ns3:TrackPointExtension>
            <ns3:atemp>34.0</ns3:atemp>
          </ns3:TrackPointExtension>
        </extensions>
      </trkpt>
      <trkpt lat="42.45091211982071399688720703125" lon="20.21947500295937061309814453125">
        <ele>946.20001220703125</ele>
        <time>2026-06-20T13:11:54.000Z</time>
        <extensions>
          <ns3:TrackPointExtension>
            <ns3:atemp>34.0</ns3:atemp>
          </ns3:TrackPointExtension>
        </extensions>
      </trkpt>
      <trkpt lat="42.4509725533425807952880859375" lon="20.219561420381069183349609375">
        <ele>945.5999755859375</ele>
        <time>2026-06-20T13:11:55.000Z</time>
        <extensions>
          <ns3:TrackPointExtension>
            <ns3:atemp>34.0</ns3:atemp>
          </ns3:TrackPointExtension>
        </extensions>
      </trkpt>
      <trkpt lat="42.4510144628584384918212890625" lon="20.2196698822081089019775390625">
        <ele>945</ele>
        <time>2026-06-20T13:11:56.000Z</time>
        <extensions>
          <ns3:TrackPointExtension>
            <ns3:atemp>34.0</ns3:atemp>
          </ns3:TrackPointExtension>
        </extensions>
      </trkpt>
      <trkpt lat="42.45103717781603336334228515625" lon="20.219794102013111114501953125">
        <ele>944.5999755859375</ele>
        <time>2026-06-20T13:11:57.000Z</time>
        <extensions>
          <ns3:TrackPointExtension>
            <ns3:atemp>34.0</ns3:atemp>
          </ns3:TrackPointExtension>
        </extensions>
      </trkpt>
      <trkpt lat="42.45104254223406314849853515625" lon="20.2199159748852252960205078125">
        <ele>944</ele>
        <time>2026-06-20T13:11:58.000Z</time>
        <extensions>
          <ns3:TrackPointExtension>
            <ns3:atemp>34.0</ns3:atemp>
          </ns3:TrackPointExtension>
        </extensions>
      </trkpt>
      <trkpt lat="42.45105394162237644195556640625" lon="20.2200346626341342926025390625">
        <ele>943.5999755859375</ele>
        <time>2026-06-20T13:11:59.000Z</time>
        <extensions>
          <ns3:TrackPointExtension>
            <ns3:atemp>34.0</ns3:atemp>
          </ns3:TrackPointExtension>
        </extensions>
      </trkpt>
      <trkpt lat="42.451083362102508544921875" lon="20.22015125490725040435791015625">
        <ele>943.20001220703125</ele>
        <time>2026-06-20T13:12:00.000Z</time>
        <extensions>
          <ns3:TrackPointExtension>
            <ns3:atemp>34.0</ns3:atemp>
          </ns3:TrackPointExtension>
        </extensions>
      </trkpt>
      <trkpt lat="42.45113004930317401885986328125" lon="20.22025820799171924591064453125">
        <ele>942.79998779296875</ele>
        <time>2026-06-20T13:12:01.000Z</time>
        <extensions>
          <ns3:TrackPointExtension>
            <ns3:atemp>34.0</ns3:atemp>
          </ns3:TrackPointExtension>
        </extensions>
      </trkpt>
      <trkpt lat="42.45118939317762851715087890625" lon="20.22035409696400165557861328125">
        <ele>942.20001220703125</ele>
        <time>2026-06-20T13:12:02.000Z</time>
        <extensions>
          <ns3:TrackPointExtension>
            <ns3:atemp>34.0</ns3:atemp>
          </ns3:TrackPointExtension>
        </extensions>
      </trkpt>
      <trkpt lat="42.45124890469014644622802734375" lon="20.2204509079456329345703125">
        <ele>941.79998779296875</ele>
        <time>2026-06-20T13:12:03.000Z</time>
        <extensions>
          <ns3:TrackPointExtension>
            <ns3:atemp>34.0</ns3:atemp>
          </ns3:TrackPointExtension>
        </extensions>
      </trkpt>
      <trkpt lat="42.45130120776593685150146484375" lon="20.220554508268833160400390625">
        <ele>941.20001220703125</ele>
        <time>2026-06-20T13:12:04.000Z</time>
        <extensions>
          <ns3:TrackPointExtension>
            <ns3:atemp>34.0</ns3:atemp>
          </ns3:TrackPointExtension>
        </extensions>
      </trkpt>
      <trkpt lat="42.451346553862094879150390625" lon="20.22066389210522174835205078125">
        <ele>940.5999755859375</ele>
        <time>2026-06-20T13:12:05.000Z</time>
        <extensions>
          <ns3:TrackPointExtension>
            <ns3:atemp>34.0</ns3:atemp>
          </ns3:TrackPointExtension>
        </extensions>
      </trkpt>
      <trkpt lat="42.45138645172119140625" lon="20.2207746170461177825927734375">
        <ele>940.20001220703125</ele>
        <time>2026-06-20T13:12:06.000Z</time>
        <extensions>
          <ns3:TrackPointExtension>
            <ns3:atemp>34.0</ns3:atemp>
          </ns3:TrackPointExtension>
        </extensions>
      </trkpt>
      <trkpt lat="42.451420985162258148193359375" lon="20.2208912931382656097412109375">
        <ele>939.79998779296875</ele>
        <time>2026-06-20T13:12:07.000Z</time>
        <extensions>
          <ns3:TrackPointExtension>
            <ns3:atemp>34.0</ns3:atemp>
          </ns3:TrackPointExtension>
        </extensions>
      </trkpt>
      <trkpt lat="42.45144805870950222015380859375" lon="20.2210126630961894989013671875">
        <ele>939.4000244140625</ele>
        <time>2026-06-20T13:12:08.000Z</time>
        <extensions>
          <ns3:TrackPointExtension>
            <ns3:atemp>34.0</ns3:atemp>
          </ns3:TrackPointExtension>
        </extensions>
      </trkpt>
      <trkpt lat="42.45145618915557861328125" lon="20.22114199586212635040283203125">
        <ele>939</ele>
        <time>2026-06-20T13:12:09.000Z</time>
        <extensions>
          <ns3:TrackPointExtension>
            <ns3:atemp>33.0</ns3:atemp>
          </ns3:TrackPointExtension>
        </extensions>
      </trkpt>
      <trkpt lat="42.451442442834377288818359375" lon="20.22127367556095123291015625">
        <ele>938.4000244140625</ele>
        <time>2026-06-20T13:12:10.000Z</time>
        <extensions>
          <ns3:TrackPointExtension>
            <ns3:atemp>33.0</ns3:atemp>
          </ns3:TrackPointExtension>
        </extensions>
      </trkpt>
      <trkpt lat="42.45142006315290927886962890625" lon="20.2214069478213787078857421875">
        <ele>937.79998779296875</ele>
        <time>2026-06-20T13:12:11.000Z</time>
        <extensions>
          <ns3:TrackPointExtension>
            <ns3:atemp>33.0</ns3:atemp>
          </ns3:TrackPointExtension>
        </extensions>
      </trkpt>
      <trkpt lat="42.45138955302536487579345703125" lon="20.22154147736728191375732421875">
        <ele>937</ele>
        <time>2026-06-20T13:12:12.000Z</time>
        <extensions>
          <ns3:TrackPointExtension>
            <ns3:atemp>33.0</ns3:atemp>
          </ns3:TrackPointExtension>
        </extensions>
      </trkpt>
      <trkpt lat="42.45135585777461528778076171875" lon="20.2216768451035022735595703125">
        <ele>936.20001220703125</ele>
        <time>2026-06-20T13:12:13.000Z</time>
        <extensions>
          <ns3:TrackPointExtension>
            <ns3:atemp>33.0</ns3:atemp>
          </ns3:TrackPointExtension>
        </extensions>
      </trkpt>
      <trkpt lat="42.4513209052383899688720703125" lon="20.22181556560099124908447265625">
        <ele>934.79998779296875</ele>
        <time>2026-06-20T13:12:14.000Z</time>
        <extensions>
          <ns3:TrackPointExtension>
            <ns3:atemp>33.0</ns3:atemp>
          </ns3:TrackPointExtension>
        </extensions>
      </trkpt>
      <trkpt lat="42.45127455331385135650634765625" lon="20.22195495665073394775390625">
        <ele>934</ele>
        <time>2026-06-20T13:12:15.000Z</time>
        <extensions>
          <ns3:TrackPointExtension>
            <ns3:atemp>33.0</ns3:atemp>
          </ns3:TrackPointExtension>
        </extensions>
      </trkpt>
      <trkpt lat="42.45122660882771015167236328125" lon="20.2220781706273555755615234375">
        <ele>933</ele>
        <time>2026-06-20T13:12:16.000Z</time>
        <extensions>
          <ns3:TrackPointExtension>
            <ns3:atemp>33.0</ns3:atemp>
          </ns3:TrackPointExtension>
        </extensions>
      </trkpt>
      <trkpt lat="42.45118997991085052490234375" lon="20.2221981994807720184326171875">
        <ele>932</ele>
        <time>2026-06-20T13:12:17.000Z</time>
        <extensions>
          <ns3:TrackPointExtension>
            <ns3:atemp>33.0</ns3:atemp>
          </ns3:TrackPointExtension>
        </extensions>
      </trkpt>
      <trkpt lat="42.45118084363639354705810546875" lon="20.22231328301131725311279296875">
        <ele>931</ele>
        <time>2026-06-20T13:12:18.000Z</time>
        <extensions>
          <ns3:TrackPointExtension>
            <ns3:atemp>33.0</ns3:atemp>
          </ns3:TrackPointExtension>
        </extensions>
      </trkpt>
      <trkpt lat="42.4512027204036712646484375" lon="20.2224218286573886871337890625">
        <ele>930.4000244140625</ele>
        <time>2026-06-20T13:12:19.000Z</time>
        <extensions>
          <ns3:TrackPointExtension>
            <ns3:atemp>33.0</ns3:atemp>
          </ns3:TrackPointExtension>
        </extensions>
      </trkpt>
      <trkpt lat="42.4512488208711147308349609375" lon="20.22251511923968791961669921875">
        <ele>929.79998779296875</ele>
        <time>2026-06-20T13:12:20.000Z</time>
        <extensions>
          <ns3:TrackPointExtension>
            <ns3:atemp>33.0</ns3:atemp>
          </ns3:TrackPointExtension>
        </extensions>
      </trkpt>
      <trkpt lat="42.45129617862403392791748046875" lon="20.22261017002165317535400390625">
        <ele>929.4000244140625</ele>
        <time>2026-06-20T13:12:21.000Z</time>
        <extensions>
          <ns3:TrackPointExtension>
            <ns3:atemp>33.0</ns3:atemp>
          </ns3:TrackPointExtension>
        </extensions>
      </trkpt>
      <trkpt lat="42.45133054442703723907470703125" lon="20.2227282710373401641845703125">
        <ele>929</ele>
        <time>2026-06-20T13:12:22.000Z</time>
        <extensions>
          <ns3:TrackPointExtension>
            <ns3:atemp>33.0</ns3:atemp>
          </ns3:TrackPointExtension>
        </extensions>
      </trkpt>
      <trkpt lat="42.45134697295725345611572265625" lon="20.22286280058324337005615234375">
        <ele>928.20001220703125</ele>
        <time>2026-06-20T13:12:23.000Z</time>
        <extensions>
          <ns3:TrackPointExtension>
            <ns3:atemp>33.0</ns3:atemp>
          </ns3:TrackPointExtension>
        </extensions>
      </trkpt>
      <trkpt lat="42.4513447098433971405029296875" lon="20.2229991741478443145751953125">
        <ele>927.4000244140625</ele>
        <time>2026-06-20T13:12:24.000Z</time>
        <extensions>
          <ns3:TrackPointExtension>
            <ns3:atemp>33.0</ns3:atemp>
          </ns3:TrackPointExtension>
        </extensions>
      </trkpt>
      <trkpt lat="42.45133808813989162445068359375" lon="20.22314183413982391357421875">
        <ele>926.5999755859375</ele>
        <time>2026-06-20T13:12:25.000Z</time>
        <extensions>
          <ns3:TrackPointExtension>
            <ns3:atemp>33.0</ns3:atemp>
          </ns3:TrackPointExtension>
        </extensions>
      </trkpt>
      <trkpt lat="42.45133557356894016265869140625" lon="20.223287679255008697509765625">
        <ele>925.5999755859375</ele>
        <time>2026-06-20T13:12:26.000Z</time>
        <extensions>
          <ns3:TrackPointExtension>
            <ns3:atemp>33.0</ns3:atemp>
          </ns3:TrackPointExtension>
        </extensions>
      </trkpt>
      <trkpt lat="42.45134026743471622467041015625" lon="20.22343746386468410491943359375">
        <ele>924.4000244140625</ele>
        <time>2026-06-20T13:12:27.000Z</time>
        <extensions>
          <ns3:TrackPointExtension>
            <ns3:atemp>33.0</ns3:atemp>
          </ns3:TrackPointExtension>
        </extensions>
      </trkpt>
      <trkpt lat="42.45135032571852207183837890625" lon="20.22358984686434268951416015625">
        <ele>923.20001220703125</ele>
        <time>2026-06-20T13:12:28.000Z</time>
        <extensions>
          <ns3:TrackPointExtension>
            <ns3:atemp>33.0</ns3:atemp>
          </ns3:TrackPointExtension>
        </extensions>
      </trkpt>
      <trkpt lat="42.4513631500303745269775390625" lon="20.22373938001692295074462890625">
        <ele>922.20001220703125</ele>
        <time>2026-06-20T13:12:29.000Z</time>
        <extensions>
          <ns3:TrackPointExtension>
            <ns3:atemp>33.0</ns3:atemp>
          </ns3:TrackPointExtension>
        </extensions>
      </trkpt>
      <trkpt lat="42.45137128047645092010498046875" lon="20.22389176301658153533935546875">
        <ele>921.20001220703125</ele>
        <time>2026-06-20T13:12:30.000Z</time>
        <extensions>
          <ns3:TrackPointExtension>
            <ns3:atemp>33.0</ns3:atemp>
          </ns3:TrackPointExtension>
        </extensions>
      </trkpt>
      <trkpt lat="42.451365329325199127197265625" lon="20.2240392006933689117431640625">
        <ele>920.4000244140625</ele>
        <time>2026-06-20T13:12:31.000Z</time>
        <extensions>
          <ns3:TrackPointExtension>
            <ns3:atemp>33.0</ns3:atemp>
          </ns3:TrackPointExtension>
        </extensions>
      </trkpt>
      <trkpt lat="42.45134294964373111724853515625" lon="20.2241739816963672637939453125">
        <ele>919.4000244140625</ele>
        <time>2026-06-20T13:12:32.000Z</time>
        <extensions>
          <ns3:TrackPointExtension>
            <ns3:atemp>33.0</ns3:atemp>
          </ns3:TrackPointExtension>
        </extensions>
      </trkpt>
      <trkpt lat="42.4512954242527484893798828125" lon="20.22429392673075199127197265625">
        <ele>918.79998779296875</ele>
        <time>2026-06-20T13:12:33.000Z</time>
        <extensions>
          <ns3:TrackPointExtension>
            <ns3:atemp>33.0</ns3:atemp>
          </ns3:TrackPointExtension>
        </extensions>
      </trkpt>
      <trkpt lat="42.45122887194156646728515625" lon="20.22439082153141498565673828125">
        <ele>918</ele>
        <time>2026-06-20T13:12:34.000Z</time>
        <extensions>
          <ns3:TrackPointExtension>
            <ns3:atemp>33.0</ns3:atemp>
          </ns3:TrackPointExtension>
        </extensions>
      </trkpt>
      <trkpt lat="42.451174892485141754150390625" lon="20.2244911529123783111572265625">
        <ele>917</ele>
        <time>2026-06-20T13:12:35.000Z</time>
        <extensions>
          <ns3:TrackPointExtension>
            <ns3:atemp>33.0</ns3:atemp>
          </ns3:TrackPointExtension>
        </extensions>
      </trkpt>
      <trkpt lat="42.4511408619582653045654296875" lon="20.2246128581464290618896484375">
        <ele>916</ele>
        <time>2026-06-20T13:12:36.000Z</time>
        <extensions>
          <ns3:TrackPointExtension>
            <ns3:atemp>33.0</ns3:atemp>
          </ns3:TrackPointExtension>
        </extensions>
      </trkpt>
      <trkpt lat="42.451123930513858795166015625" lon="20.224748812615871429443359375">
        <ele>915</ele>
        <time>2026-06-20T13:12:37.000Z</time>
        <extensions>
          <ns3:TrackPointExtension>
            <ns3:atemp>33.0</ns3:atemp>
          </ns3:TrackPointExtension>
        </extensions>
      </trkpt>
      <trkpt lat="42.451120577752590179443359375" lon="20.22488703019917011260986328125">
        <ele>914.20001220703125</ele>
        <time>2026-06-20T13:12:38.000Z</time>
        <extensions>
          <ns3:TrackPointExtension>
            <ns3:atemp>33.0</ns3:atemp>
          </ns3:TrackPointExtension>
        </extensions>
      </trkpt>
      <trkpt lat="42.4511371739208698272705078125" lon="20.2250202186405658721923828125">
        <ele>913.4000244140625</ele>
        <time>2026-06-20T13:12:39.000Z</time>
        <extensions>
          <ns3:TrackPointExtension>
            <ns3:atemp>33.0</ns3:atemp>
          </ns3:TrackPointExtension>
        </extensions>
      </trkpt>
      <trkpt lat="42.45118520222604274749755859375" lon="20.22513848729431629180908203125">
        <ele>912.4000244140625</ele>
        <time>2026-06-20T13:12:40.000Z</time>
        <extensions>
          <ns3:TrackPointExtension>
            <ns3:atemp>33.0</ns3:atemp>
          </ns3:TrackPointExtension>
        </extensions>
      </trkpt>
      <trkpt lat="42.4512563645839691162109375" lon="20.22523672319948673248291015625">
        <ele>911.4000244140625</ele>
        <time>2026-06-20T13:12:41.000Z</time>
        <extensions>
          <ns3:TrackPointExtension>
            <ns3:atemp>33.0</ns3:atemp>
          </ns3:TrackPointExtension>
        </extensions>
      </trkpt>
      <trkpt lat="42.45133859105408191680908203125" lon="20.22533143870532512664794921875">
        <ele>910.5999755859375</ele>
        <time>2026-06-20T13:12:42.000Z</time>
        <extensions>
          <ns3:TrackPointExtension>
            <ns3:atemp>33.0</ns3:atemp>
          </ns3:TrackPointExtension>
        </extensions>
      </trkpt>
      <trkpt lat="42.45141327381134033203125" lon="20.225439481437206268310546875">
        <ele>909.4000244140625</ele>
        <time>2026-06-20T13:12:43.000Z</time>
        <extensions>
          <ns3:TrackPointExtension>
            <ns3:atemp>33.0</ns3:atemp>
          </ns3:TrackPointExtension>
        </extensions>
      </trkpt>
      <trkpt lat="42.45147521607577800750732421875" lon="20.22556520998477935791015625">
        <ele>908.4000244140625</ele>
        <time>2026-06-20T13:12:44.000Z</time>
        <extensions>
          <ns3:TrackPointExtension>
            <ns3:atemp>33.0</ns3:atemp>
          </ns3:TrackPointExtension>
        </extensions>
      </trkpt>
      <trkpt lat="42.45155048556625843048095703125" lon="20.22568381391465663909912109375">
        <ele>907.20001220703125</ele>
        <time>2026-06-20T13:12:45.000Z</time>
        <extensions>
          <ns3:TrackPointExtension>
            <ns3:atemp>33.0</ns3:atemp>
          </ns3:TrackPointExtension>
        </extensions>
      </trkpt>
      <trkpt lat="42.45164754800498485565185546875" lon="20.22576771676540374755859375">
        <ele>906.20001220703125</ele>
        <time>2026-06-20T13:12:46.000Z</time>
        <extensions>
          <ns3:TrackPointExtension>
            <ns3:atemp>33.0</ns3:atemp>
          </ns3:TrackPointExtension>
        </extensions>
      </trkpt>
      <trkpt lat="42.451755590736865997314453125" lon="20.22583100013434886932373046875">
        <ele>905</ele>
        <time>2026-06-20T13:12:47.000Z</time>
        <extensions>
          <ns3:TrackPointExtension>
            <ns3:atemp>33.0</ns3:atemp>
          </ns3:TrackPointExtension>
        </extensions>
      </trkpt>
      <trkpt lat="42.45186748914420604705810546875" lon="20.22586469538509845733642578125">
        <ele>904</ele>
        <time>2026-06-20T13:12:48.000Z</time>
        <extensions>
          <ns3:TrackPointExtension>
            <ns3:atemp>33.0</ns3:atemp>
          </ns3:TrackPointExtension>
        </extensions>
      </trkpt>
      <trkpt lat="42.45197729207575321197509765625" lon="20.2258580736815929412841796875">
        <ele>902.4000244140625</ele>
        <time>2026-06-20T13:12:49.000Z</time>
        <extensions>
          <ns3:TrackPointExtension>
            <ns3:atemp>33.0</ns3:atemp>
          </ns3:TrackPointExtension>
        </extensions>
      </trkpt>
      <trkpt lat="42.45208441279828548431396484375" lon="20.22584005258977413177490234375">
        <ele>901.4000244140625</ele>
        <time>2026-06-20T13:12:50.000Z</time>
        <extensions>
          <ns3:TrackPointExtension>
            <ns3:atemp>33.0</ns3:atemp>
          </ns3:TrackPointExtension>
        </extensions>
      </trkpt>
      <trkpt lat="42.45219538919627666473388671875" lon="20.22583452053368091583251953125">
        <ele>900.20001220703125</ele>
        <time>2026-06-20T13:12:51.000Z</time>
        <extensions>
          <ns3:TrackPointExtension>
            <ns3:atemp>33.0</ns3:atemp>
          </ns3:TrackPointExtension>
        </extensions>
      </trkpt>
      <trkpt lat="42.45230586268007755279541015625" lon="20.22585044614970684051513671875">
        <ele>899.4000244140625</ele>
        <time>2026-06-20T13:12:52.000Z</time>
        <extensions>
          <ns3:TrackPointExtension>
            <ns3:atemp>33.0</ns3:atemp>
          </ns3:TrackPointExtension>
        </extensions>
      </trkpt>
      <trkpt lat="42.4524149112403392791748046875" lon="20.22588028572499752044677734375">
        <ele>898.5999755859375</ele>
        <time>2026-06-20T13:12:53.000Z</time>
        <extensions>
          <ns3:TrackPointExtension>
            <ns3:atemp>33.0</ns3:atemp>
          </ns3:TrackPointExtension>
        </extensions>
      </trkpt>
      <trkpt lat="42.45252035558223724365234375" lon="20.22592370398342609405517578125">
        <ele>897.79998779296875</ele>
        <time>2026-06-20T13:12:54.000Z</time>
        <extensions>
          <ns3:TrackPointExtension>
            <ns3:atemp>33.0</ns3:atemp>
          </ns3:TrackPointExtension>
        </extensions>
      </trkpt>
      <trkpt lat="42.45262890122830867767333984375" lon="20.22596594877541065216064453125">
        <ele>897</ele>
        <time>2026-06-20T13:12:55.000Z</time>
        <extensions>
          <ns3:TrackPointExtension>
            <ns3:atemp>33.0</ns3:atemp>
          </ns3:TrackPointExtension>
        </extensions>
      </trkpt>
      <trkpt lat="42.4527337588369846343994140625" lon="20.2259977161884307861328125">
        <ele>896.4000244140625</ele>
        <time>2026-06-20T13:12:56.000Z</time>
        <extensions>
          <ns3:TrackPointExtension>
            <ns3:atemp>33.0</ns3:atemp>
          </ns3:TrackPointExtension>
        </extensions>
      </trkpt>
      <trkpt lat="42.45283543132245540618896484375" lon="20.22600601427257061004638671875">
        <ele>895.79998779296875</ele>
        <time>2026-06-20T13:12:57.000Z</time>
        <extensions>
          <ns3:TrackPointExtension>
            <ns3:atemp>33.0</ns3:atemp>
          </ns3:TrackPointExtension>
        </extensions>
      </trkpt>
      <trkpt lat="42.452933080494403839111328125" lon="20.22598254494369029998779296875">
        <ele>895.20001220703125</ele>
        <time>2026-06-20T13:12:58.000Z</time>
        <extensions>
          <ns3:TrackPointExtension>
            <ns3:atemp>33.0</ns3:atemp>
          </ns3:TrackPointExtension>
        </extensions>
      </trkpt>
      <trkpt lat="42.45301849208772182464599609375" lon="20.22593409754335880279541015625">
        <ele>894.5999755859375</ele>
        <time>2026-06-20T13:12:59.000Z</time>
        <extensions>
          <ns3:TrackPointExtension>
            <ns3:atemp>33.0</ns3:atemp>
          </ns3:TrackPointExtension>
        </extensions>
      </trkpt>
      <trkpt lat="42.45310616679489612579345703125" lon="20.225885398685932159423828125">
        <ele>894.4000244140625</ele>
        <time>2026-06-20T13:13:00.000Z</time>
        <extensions>
          <ns3:TrackPointExtension>
            <ns3:atemp>33.0</ns3:atemp>
          </ns3:TrackPointExtension>
        </extensions>
      </trkpt>
      <trkpt lat="42.4531924165785312652587890625" lon="20.22584340535104274749755859375">
        <ele>894</ele>
        <time>2026-06-20T13:13:01.000Z</time>
        <extensions>
          <ns3:TrackPointExtension>
            <ns3:atemp>33.0</ns3:atemp>
          </ns3:TrackPointExtension>
        </extensions>
      </trkpt>
      <trkpt lat="42.4532787501811981201171875" lon="20.225806273519992828369140625">
        <ele>893.79998779296875</ele>
        <time>2026-06-20T13:13:02.000Z</time>
        <extensions>
          <ns3:TrackPointExtension>
            <ns3:atemp>33.0</ns3:atemp>
          </ns3:TrackPointExtension>
        </extensions>
      </trkpt>
      <trkpt lat="42.45336282067000865936279296875" lon="20.22581423632800579071044921875">
        <ele>893.5999755859375</ele>
        <time>2026-06-20T13:13:03.000Z</time>
        <extensions>
          <ns3:TrackPointExtension>
            <ns3:atemp>33.0</ns3:atemp>
          </ns3:TrackPointExtension>
        </extensions>
      </trkpt>
      <trkpt lat="42.45343222282826900482177734375" lon="20.2258577384054660797119140625">
        <ele>893.4000244140625</ele>
        <time>2026-06-20T13:13:04.000Z</time>
        <extensions>
          <ns3:TrackPointExtension>
            <ns3:atemp>33.0</ns3:atemp>
          </ns3:TrackPointExtension>
        </extensions>
      </trkpt>
      <trkpt lat="42.453484944999217987060546875" lon="20.2259274758398532867431640625">
        <ele>893.20001220703125</ele>
        <time>2026-06-20T13:13:05.000Z</time>
        <extensions>
          <ns3:TrackPointExtension>
            <ns3:atemp>33.0</ns3:atemp>
          </ns3:TrackPointExtension>
        </extensions>
      </trkpt>
      <trkpt lat="42.45353112928569316864013671875" lon="20.22601607255637645721435546875">
        <ele>893</ele>
        <time>2026-06-20T13:13:06.000Z</time>
        <extensions>
          <ns3:TrackPointExtension>
            <ns3:atemp>33.0</ns3:atemp>
          </ns3:TrackPointExtension>
        </extensions>
      </trkpt>
      <trkpt lat="42.4535736255347728729248046875" lon="20.22611774504184722900390625">
        <ele>892.5999755859375</ele>
        <time>2026-06-20T13:13:07.000Z</time>
        <extensions>
          <ns3:TrackPointExtension>
            <ns3:atemp>33.0</ns3:atemp>
          </ns3:TrackPointExtension>
        </extensions>
      </trkpt>
      <trkpt lat="42.45360975153744220733642578125" lon="20.22622997872531414031982421875">
        <ele>892.20001220703125</ele>
        <time>2026-06-20T13:13:08.000Z</time>
        <extensions>
          <ns3:TrackPointExtension>
            <ns3:atemp>33.0</ns3:atemp>
          </ns3:TrackPointExtension>
        </extensions>
      </trkpt>
      <trkpt lat="42.4536390043795108795166015625" lon="20.22634246386587619781494140625">
        <ele>891.79998779296875</ele>
        <time>2026-06-20T13:13:09.000Z</time>
        <extensions>
          <ns3:TrackPointExtension>
            <ns3:atemp>33.0</ns3:atemp>
          </ns3:TrackPointExtension>
        </extensions>
      </trkpt>
      <trkpt lat="42.45367932133376598358154296875" lon="20.22644287906587123870849609375">
        <ele>891.4000244140625</ele>
        <time>2026-06-20T13:13:10.000Z</time>
        <extensions>
          <ns3:TrackPointExtension>
            <ns3:atemp>32.0</ns3:atemp>
          </ns3:TrackPointExtension>
        </extensions>
      </trkpt>
      <trkpt lat="42.45373765937983989715576171875" lon="20.2265256084501743316650390625">
        <ele>891</ele>
        <time>2026-06-20T13:13:11.000Z</time>
        <extensions>
          <ns3:TrackPointExtension>
            <ns3:atemp>32.0</ns3:atemp>
          </ns3:TrackPointExtension>
        </extensions>
      </trkpt>
      <trkpt lat="42.45381326414644718170166015625" lon="20.226586796343326568603515625">
        <ele>890.4000244140625</ele>
        <time>2026-06-20T13:13:12.000Z</time>
        <extensions>
          <ns3:TrackPointExtension>
            <ns3:atemp>32.0</ns3:atemp>
          </ns3:TrackPointExtension>
        </extensions>
      </trkpt>
      <trkpt lat="42.45389557443559169769287109375" lon="20.2266178093850612640380859375">
        <ele>889.79998779296875</ele>
        <time>2026-06-20T13:13:13.000Z</time>
        <extensions>
          <ns3:TrackPointExtension>
            <ns3:atemp>32.0</ns3:atemp>
          </ns3:TrackPointExtension>
        </extensions>
      </trkpt>
      <trkpt lat="42.45397671125829219818115234375" lon="20.22663314826786518096923828125">
        <ele>889.20001220703125</ele>
        <time>2026-06-20T13:13:14.000Z</time>
        <extensions>
          <ns3:TrackPointExtension>
            <ns3:atemp>32.0</ns3:atemp>
          </ns3:TrackPointExtension>
        </extensions>
      </trkpt>
      <trkpt lat="42.45406153611838817596435546875" lon="20.2266298793256282806396484375">
        <ele>888.5999755859375</ele>
        <time>2026-06-20T13:13:15.000Z</time>
        <extensions>
          <ns3:TrackPointExtension>
            <ns3:atemp>32.0</ns3:atemp>
          </ns3:TrackPointExtension>
        </extensions>
      </trkpt>
      <trkpt lat="42.4541425891220569610595703125" lon="20.226621329784393310546875">
        <ele>887.5999755859375</ele>
        <time>2026-06-20T13:13:16.000Z</time>
        <extensions>
          <ns3:TrackPointExtension>
            <ns3:atemp>32.0</ns3:atemp>
          </ns3:TrackPointExtension>
        </extensions>
      </trkpt>
      <trkpt lat="42.45421794243156909942626953125" lon="20.226622335612773895263671875">
        <ele>887</ele>
        <time>2026-06-20T13:13:17.000Z</time>
        <extensions>
          <ns3:TrackPointExtension>
            <ns3:atemp>32.0</ns3:atemp>
          </ns3:TrackPointExtension>
        </extensions>
      </trkpt>
      <trkpt lat="42.4542880989611148834228515625" lon="20.22664119489490985870361328125">
        <ele>886.4000244140625</ele>
        <time>2026-06-20T13:13:18.000Z</time>
        <extensions>
          <ns3:TrackPointExtension>
            <ns3:atemp>32.0</ns3:atemp>
          </ns3:TrackPointExtension>
        </extensions>
      </trkpt>
      <trkpt lat="42.45434283278882503509521484375" lon="20.22669483907520771026611328125">
        <ele>886</ele>
        <time>2026-06-20T13:13:19.000Z</time>
        <extensions>
          <ns3:TrackPointExtension>
            <ns3:atemp>32.0</ns3:atemp>
          </ns3:TrackPointExtension>
        </extensions>
      </trkpt>
      <trkpt lat="42.454382143914699554443359375" lon="20.22677714936435222625732421875">
        <ele>885.4000244140625</ele>
        <time>2026-06-20T13:13:20.000Z</time>
        <extensions>
          <ns3:TrackPointExtension>
            <ns3:atemp>32.0</ns3:atemp>
          </ns3:TrackPointExtension>
        </extensions>
      </trkpt>
      <trkpt lat="42.4544054456055164337158203125" lon="20.22688779048621654510498046875">
        <ele>884.5999755859375</ele>
        <time>2026-06-20T13:13:21.000Z</time>
        <extensions>
          <ns3:TrackPointExtension>
            <ns3:atemp>32.0</ns3:atemp>
          </ns3:TrackPointExtension>
        </extensions>
      </trkpt>
      <trkpt lat="42.45440955273807048797607421875" lon="20.22700488567352294921875">
        <ele>884</ele>
        <time>2026-06-20T13:13:22.000Z</time>
        <extensions>
          <ns3:TrackPointExtension>
            <ns3:atemp>32.0</ns3:atemp>
          </ns3:TrackPointExtension>
        </extensions>
      </trkpt>
      <trkpt lat="42.45440728962421417236328125" lon="20.2271220646798610687255859375">
        <ele>883.4000244140625</ele>
        <time>2026-06-20T13:13:23.000Z</time>
        <extensions>
          <ns3:TrackPointExtension>
            <ns3:atemp>32.0</ns3:atemp>
          </ns3:TrackPointExtension>
        </extensions>
      </trkpt>
      <trkpt lat="42.4543994106352329254150390625" lon="20.22724217735230922698974609375">
        <ele>882.5999755859375</ele>
        <time>2026-06-20T13:13:24.000Z</time>
        <extensions>
          <ns3:TrackPointExtension>
            <ns3:atemp>32.0</ns3:atemp>
          </ns3:TrackPointExtension>
        </extensions>
      </trkpt>
      <trkpt lat="42.454380132257938385009765625" lon="20.22736455313861370086669921875">
        <ele>881.4000244140625</ele>
        <time>2026-06-20T13:13:25.000Z</time>
        <extensions>
          <ns3:TrackPointExtension>
            <ns3:atemp>32.0</ns3:atemp>
          </ns3:TrackPointExtension>
        </extensions>
      </trkpt>
      <trkpt lat="42.45434786193072795867919921875" lon="20.22749246098101139068603515625">
        <ele>880.4000244140625</ele>
        <time>2026-06-20T13:13:26.000Z</time>
        <extensions>
          <ns3:TrackPointExtension>
            <ns3:atemp>32.0</ns3:atemp>
          </ns3:TrackPointExtension>
        </extensions>
      </trkpt>
      <trkpt lat="42.45431031100451946258544921875" lon="20.22762271575629711151123046875">
        <ele>879.20001220703125</ele>
        <time>2026-06-20T13:13:27.000Z</time>
        <extensions>
          <ns3:TrackPointExtension>
            <ns3:atemp>32.0</ns3:atemp>
          </ns3:TrackPointExtension>
        </extensions>
      </trkpt>
      <trkpt lat="42.4542720057070255279541015625" lon="20.227754898369312286376953125">
        <ele>878.20001220703125</ele>
        <time>2026-06-20T13:13:28.000Z</time>
        <extensions>
          <ns3:TrackPointExtension>
            <ns3:atemp>32.0</ns3:atemp>
          </ns3:TrackPointExtension>
        </extensions>
      </trkpt>
      <trkpt lat="42.4542311020195484161376953125" lon="20.22788741625845432281494140625">
        <ele>877</ele>
        <time>2026-06-20T13:13:29.000Z</time>
        <extensions>
          <ns3:TrackPointExtension>
            <ns3:atemp>32.0</ns3:atemp>
          </ns3:TrackPointExtension>
        </extensions>
      </trkpt>
      <trkpt lat="42.4542069621384143829345703125" lon="20.228024460375308990478515625">
        <ele>875.5999755859375</ele>
        <time>2026-06-20T13:13:30.000Z</time>
        <extensions>
          <ns3:TrackPointExtension>
            <ns3:atemp>32.0</ns3:atemp>
          </ns3:TrackPointExtension>
        </extensions>
      </trkpt>
      <trkpt lat="42.4542067945003509521484375" lon="20.2281630970537662506103515625">
        <ele>874.5999755859375</ele>
        <time>2026-06-20T13:13:31.000Z</time>
        <extensions>
          <ns3:TrackPointExtension>
            <ns3:atemp>32.0</ns3:atemp>
          </ns3:TrackPointExtension>
        </extensions>
      </trkpt>
      <trkpt lat="42.4542297609150409698486328125" lon="20.2282975427806377410888671875">
        <ele>873.5999755859375</ele>
        <time>2026-06-20T13:13:32.000Z</time>
        <extensions>
          <ns3:TrackPointExtension>
            <ns3:atemp>32.0</ns3:atemp>
          </ns3:TrackPointExtension>
        </extensions>
      </trkpt>
      <trkpt lat="42.454264797270298004150390625" lon="20.228433497250080108642578125">
        <ele>872.79998779296875</ele>
        <time>2026-06-20T13:13:33.000Z</time>
        <extensions>
          <ns3:TrackPointExtension>
            <ns3:atemp>32.0</ns3:atemp>
          </ns3:TrackPointExtension>
        </extensions>
      </trkpt>
      <trkpt lat="42.45427276007831096649169921875" lon="20.22857573814690113067626953125">
        <ele>871.79998779296875</ele>
        <time>2026-06-20T13:13:34.000Z</time>
        <extensions>
          <ns3:TrackPointExtension>
            <ns3:atemp>32.0</ns3:atemp>
          </ns3:TrackPointExtension>
        </extensions>
      </trkpt>
      <trkpt lat="42.454244680702686309814453125" lon="20.22870264016091823577880859375">
        <ele>871</ele>
        <time>2026-06-20T13:13:35.000Z</time>
        <extensions>
          <ns3:TrackPointExtension>
            <ns3:atemp>32.0</ns3:atemp>
          </ns3:TrackPointExtension>
        </extensions>
      </trkpt>
      <trkpt lat="42.4541898630559444427490234375" lon="20.22880758158862590789794921875">
        <ele>870.20001220703125</ele>
        <time>2026-06-20T13:13:36.000Z</time>
        <extensions>
          <ns3:TrackPointExtension>
            <ns3:atemp>32.0</ns3:atemp>
          </ns3:TrackPointExtension>
        </extensions>
      </trkpt>
      <trkpt lat="42.45411652140319347381591796875" lon="20.228892154991626739501953125">
        <ele>869.4000244140625</ele>
        <time>2026-06-20T13:13:37.000Z</time>
        <extensions>
          <ns3:TrackPointExtension>
            <ns3:atemp>32.0</ns3:atemp>
          </ns3:TrackPointExtension>
        </extensions>
      </trkpt>
      <trkpt lat="42.45404846034944057464599609375" lon="20.228986032307147979736328125">
        <ele>868.5999755859375</ele>
        <time>2026-06-20T13:13:38.000Z</time>
        <extensions>
          <ns3:TrackPointExtension>
            <ns3:atemp>32.0</ns3:atemp>
          </ns3:TrackPointExtension>
        </extensions>
      </trkpt>
      <trkpt lat="42.45399280451238155364990234375" lon="20.22910170257091522216796875">
        <ele>867.5999755859375</ele>
        <time>2026-06-20T13:13:39.000Z</time>
        <extensions>
          <ns3:TrackPointExtension>
            <ns3:atemp>32.0</ns3:atemp>
          </ns3:TrackPointExtension>
        </extensions>
      </trkpt>
      <trkpt lat="42.4539528228342533111572265625" lon="20.22922575473785400390625">
        <ele>866.79998779296875</ele>
        <time>2026-06-20T13:13:40.000Z</time>
        <extensions>
          <ns3:TrackPointExtension>
            <ns3:atemp>32.0</ns3:atemp>
          </ns3:TrackPointExtension>
        </extensions>
      </trkpt>
      <trkpt lat="42.45393262244760990142822265625" lon="20.22936212830245494842529296875">
        <ele>866</ele>
        <time>2026-06-20T13:13:41.000Z</time>
        <extensions>
          <ns3:TrackPointExtension>
            <ns3:atemp>32.0</ns3:atemp>
          </ns3:TrackPointExtension>
        </extensions>
      </trkpt>
      <trkpt lat="42.45392139069736003875732421875" lon="20.22950076498091220855712890625">
        <ele>865.4000244140625</ele>
        <time>2026-06-20T13:13:42.000Z</time>
        <extensions>
          <ns3:TrackPointExtension>
            <ns3:atemp>32.0</ns3:atemp>
          </ns3:TrackPointExtension>
        </extensions>
      </trkpt>
      <trkpt lat="42.45391384698450565338134765625" lon="20.22963948547840118408203125">
        <ele>864.79998779296875</ele>
        <time>2026-06-20T13:13:43.000Z</time>
        <extensions>
          <ns3:TrackPointExtension>
            <ns3:atemp>32.0</ns3:atemp>
          </ns3:TrackPointExtension>
        </extensions>
      </trkpt>
      <trkpt lat="42.4539089016616344451904296875" lon="20.22977770306169986724853515625">
        <ele>864</ele>
        <time>2026-06-20T13:13:44.000Z</time>
        <extensions>
          <ns3:TrackPointExtension>
            <ns3:atemp>32.0</ns3:atemp>
          </ns3:TrackPointExtension>
        </extensions>
      </trkpt>
      <trkpt lat="42.45390764437615871429443359375" lon="20.22990913130342960357666015625">
        <ele>863.4000244140625</ele>
        <time>2026-06-20T13:13:45.000Z</time>
        <extensions>
          <ns3:TrackPointExtension>
            <ns3:atemp>32.0</ns3:atemp>
          </ns3:TrackPointExtension>
        </extensions>
      </trkpt>
      <trkpt lat="42.45391384698450565338134765625" lon="20.23004491813480854034423828125">
        <ele>862.5999755859375</ele>
        <time>2026-06-20T13:13:46.000Z</time>
        <extensions>
          <ns3:TrackPointExtension>
            <ns3:atemp>32.0</ns3:atemp>
          </ns3:TrackPointExtension>
        </extensions>
      </trkpt>
      <trkpt lat="42.45392574928700923919677734375" lon="20.23018808104097843170166015625">
        <ele>861.5999755859375</ele>
        <time>2026-06-20T13:13:47.000Z</time>
        <extensions>
          <ns3:TrackPointExtension>
            <ns3:atemp>32.0</ns3:atemp>
          </ns3:TrackPointExtension>
        </extensions>
      </trkpt>
      <trkpt lat="42.4539363943040370941162109375" lon="20.23033149540424346923828125">
        <ele>860.5999755859375</ele>
        <time>2026-06-20T13:13:48.000Z</time>
        <extensions>
          <ns3:TrackPointExtension>
            <ns3:atemp>32.0</ns3:atemp>
          </ns3:TrackPointExtension>
        </extensions>
      </trkpt>
      <trkpt lat="42.45392239652574062347412109375" lon="20.23047356866300106048583984375">
        <ele>859.5999755859375</ele>
        <time>2026-06-20T13:13:49.000Z</time>
        <extensions>
          <ns3:TrackPointExtension>
            <ns3:atemp>32.0</ns3:atemp>
          </ns3:TrackPointExtension>
        </extensions>
      </trkpt>
      <trkpt lat="42.453879229724407196044921875" lon="20.230596028268337249755859375">
        <ele>859</ele>
        <time>2026-06-20T13:13:50.000Z</time>
        <extensions>
          <ns3:TrackPointExtension>
            <ns3:atemp>32.0</ns3:atemp>
          </ns3:TrackPointExtension>
        </extensions>
      </trkpt>
      <trkpt lat="42.45382013730704784393310546875" lon="20.23070725612342357635498046875">
        <ele>858</ele>
        <time>2026-06-20T13:13:51.000Z</time>
        <extensions>
          <ns3:TrackPointExtension>
            <ns3:atemp>32.0</ns3:atemp>
          </ns3:TrackPointExtension>
        </extensions>
      </trkpt>
      <trkpt lat="42.45376666076481342315673828125" lon="20.2308164723217487335205078125">
        <ele>857.20001220703125</ele>
        <time>2026-06-20T13:13:52.000Z</time>
        <extensions>
          <ns3:TrackPointExtension>
            <ns3:atemp>32.0</ns3:atemp>
          </ns3:TrackPointExtension>
        </extensions>
      </trkpt>
      <trkpt lat="42.4537191353738307952880859375" lon="20.230936668813228607177734375">
        <ele>856.4000244140625</ele>
        <time>2026-06-20T13:13:53.000Z</time>
        <extensions>
          <ns3:TrackPointExtension>
            <ns3:atemp>32.0</ns3:atemp>
          </ns3:TrackPointExtension>
        </extensions>
      </trkpt>
      <trkpt lat="42.45366565883159637451171875" lon="20.2310590445995330810546875">
        <ele>855.5999755859375</ele>
        <time>2026-06-20T13:13:54.000Z</time>
        <extensions>
          <ns3:TrackPointExtension>
            <ns3:atemp>32.0</ns3:atemp>
          </ns3:TrackPointExtension>
        </extensions>
      </trkpt>
      <trkpt lat="42.45360706932842731475830078125" lon="20.23117647506296634674072265625">
        <ele>854.79998779296875</ele>
        <time>2026-06-20T13:13:55.000Z</time>
        <extensions>
          <ns3:TrackPointExtension>
            <ns3:atemp>32.0</ns3:atemp>
          </ns3:TrackPointExtension>
        </extensions>
      </trkpt>
      <trkpt lat="42.45356214232742786407470703125" lon="20.231296755373477935791015625">
        <ele>854</ele>
        <time>2026-06-20T13:13:56.000Z</time>
        <extensions>
          <ns3:TrackPointExtension>
            <ns3:atemp>32.0</ns3:atemp>
          </ns3:TrackPointExtension>
        </extensions>
      </trkpt>
      <trkpt lat="42.4535471387207508087158203125" lon="20.23141913115978240966796875">
        <ele>853.20001220703125</ele>
        <time>2026-06-20T13:13:57.000Z</time>
        <extensions>
          <ns3:TrackPointExtension>
            <ns3:atemp>32.0</ns3:atemp>
          </ns3:TrackPointExtension>
        </extensions>
      </trkpt>
      <trkpt lat="42.45356046594679355621337890625" lon="20.23154142312705516815185546875">
        <ele>852.5999755859375</ele>
        <time>2026-06-20T13:13:58.000Z</time>
        <extensions>
          <ns3:TrackPointExtension>
            <ns3:atemp>32.0</ns3:atemp>
          </ns3:TrackPointExtension>
        </extensions>
      </trkpt>
      <trkpt lat="42.45359650813043117523193359375" lon="20.231650136411190032958984375">
        <ele>852.20001220703125</ele>
        <time>2026-06-20T13:13:59.000Z</time>
        <extensions>
          <ns3:TrackPointExtension>
            <ns3:atemp>32.0</ns3:atemp>
          </ns3:TrackPointExtension>
        </extensions>
      </trkpt>
      <trkpt lat="42.45364420115947723388671875" lon="20.231766141951084136962890625">
        <ele>851.5999755859375</ele>
        <time>2026-06-20T13:14:00.000Z</time>
        <extensions>
          <ns3:TrackPointExtension>
            <ns3:atemp>32.0</ns3:atemp>
          </ns3:TrackPointExtension>
        </extensions>
      </trkpt>
      <trkpt lat="42.45370044372975826263427734375" lon="20.231880135834217071533203125">
        <ele>851.20001220703125</ele>
        <time>2026-06-20T13:14:01.000Z</time>
        <extensions>
          <ns3:TrackPointExtension>
            <ns3:atemp>32.0</ns3:atemp>
          </ns3:TrackPointExtension>
        </extensions>
      </trkpt>
      <trkpt lat="42.45375760830938816070556640625" lon="20.2319939620792865753173828125">
        <ele>850.4000244140625</ele>
        <time>2026-06-20T13:14:02.000Z</time>
        <extensions>
          <ns3:TrackPointExtension>
            <ns3:atemp>32.0</ns3:atemp>
          </ns3:TrackPointExtension>
        </extensions>
      </trkpt>
      <trkpt lat="42.45382080785930156707763671875" lon="20.232109464704990386962890625">
        <ele>849.5999755859375</ele>
        <time>2026-06-20T13:14:03.000Z</time>
        <extensions>
          <ns3:TrackPointExtension>
            <ns3:atemp>32.0</ns3:atemp>
          </ns3:TrackPointExtension>
        </extensions>
      </trkpt>
      <trkpt lat="42.45388350449502468109130859375" lon="20.2322259731590747833251953125">
        <ele>848.79998779296875</ele>
        <time>2026-06-20T13:14:04.000Z</time>
        <extensions>
          <ns3:TrackPointExtension>
            <ns3:atemp>32.0</ns3:atemp>
          </ns3:TrackPointExtension>
        </extensions>
      </trkpt>
      <trkpt lat="42.453941591084003448486328125" lon="20.23234985768795013427734375">
        <ele>847.79998779296875</ele>
        <time>2026-06-20T13:14:05.000Z</time>
        <extensions>
          <ns3:TrackPointExtension>
            <ns3:atemp>32.0</ns3:atemp>
          </ns3:TrackPointExtension>
        </extensions>
      </trkpt>
      <trkpt lat="42.453991882503032684326171875" lon="20.2324824593961238861083984375">
        <ele>846.79998779296875</ele>
        <time>2026-06-20T13:14:06.000Z</time>
        <extensions>
          <ns3:TrackPointExtension>
            <ns3:atemp>32.0</ns3:atemp>
          </ns3:TrackPointExtension>
        </extensions>
      </trkpt>
      <trkpt lat="42.45403890497982501983642578125" lon="20.23261916823685169219970703125">
        <ele>845.79998779296875</ele>
        <time>2026-06-20T13:14:07.000Z</time>
        <extensions>
          <ns3:TrackPointExtension>
            <ns3:atemp>32.0</ns3:atemp>
          </ns3:TrackPointExtension>
        </extensions>
      </trkpt>
      <trkpt lat="42.454083748161792755126953125" lon="20.23275713436305522918701171875">
        <ele>845</ele>
        <time>2026-06-20T13:14:08.000Z</time>
        <extensions>
          <ns3:TrackPointExtension>
            <ns3:atemp>32.0</ns3:atemp>
          </ns3:TrackPointExtension>
        </extensions>
      </trkpt>
      <trkpt lat="42.45413010008633136749267578125" lon="20.23289744742214679718017578125">
        <ele>844.4000244140625</ele>
        <time>2026-06-20T13:14:09.000Z</time>
        <extensions>
          <ns3:TrackPointExtension>
            <ns3:atemp>32.0</ns3:atemp>
          </ns3:TrackPointExtension>
        </extensions>
      </trkpt>
      <trkpt lat="42.45417452417314052581787109375" lon="20.2330396883189678192138671875">
        <ele>843.5999755859375</ele>
        <time>2026-06-20T13:14:10.000Z</time>
        <extensions>
          <ns3:TrackPointExtension>
            <ns3:atemp>32.0</ns3:atemp>
          </ns3:TrackPointExtension>
        </extensions>
      </trkpt>
      <trkpt lat="42.454216182231903076171875" lon="20.2331838570535182952880859375">
        <ele>842.5999755859375</ele>
        <time>2026-06-20T13:14:11.000Z</time>
        <extensions>
          <ns3:TrackPointExtension>
            <ns3:atemp>32.0</ns3:atemp>
          </ns3:TrackPointExtension>
        </extensions>
      </trkpt>
      <trkpt lat="42.4542550742626190185546875" lon="20.2333293668925762176513671875">
        <ele>842</ele>
        <time>2026-06-20T13:14:12.000Z</time>
        <extensions>
          <ns3:TrackPointExtension>
            <ns3:atemp>32.0</ns3:atemp>
          </ns3:TrackPointExtension>
        </extensions>
      </trkpt>
      <trkpt lat="42.4542899429798126220703125" lon="20.23347680456936359405517578125">
        <ele>841</ele>
        <time>2026-06-20T13:14:13.000Z</time>
        <extensions>
          <ns3:TrackPointExtension>
            <ns3:atemp>32.0</ns3:atemp>
          </ns3:TrackPointExtension>
        </extensions>
      </trkpt>
      <trkpt lat="42.45432355441153049468994140625" lon="20.233620889484882354736328125">
        <ele>840.20001220703125</ele>
        <time>2026-06-20T13:14:14.000Z</time>
        <extensions>
          <ns3:TrackPointExtension>
            <ns3:atemp>32.0</ns3:atemp>
          </ns3:TrackPointExtension>
        </extensions>
      </trkpt>
      <trkpt lat="42.45436110533773899078369140625" lon="20.23376162163913249969482421875">
        <ele>839.20001220703125</ele>
        <time>2026-06-20T13:14:15.000Z</time>
        <extensions>
          <ns3:TrackPointExtension>
            <ns3:atemp>32.0</ns3:atemp>
          </ns3:TrackPointExtension>
        </extensions>
      </trkpt>
      <trkpt lat="42.4544047750532627105712890625" lon="20.2338966540992259979248046875">
        <ele>838.20001220703125</ele>
        <time>2026-06-20T13:14:16.000Z</time>
        <extensions>
          <ns3:TrackPointExtension>
            <ns3:atemp>32.0</ns3:atemp>
          </ns3:TrackPointExtension>
        </extensions>
      </trkpt>
      <trkpt lat="42.45444953441619873046875" lon="20.23402623832225799560546875">
        <ele>837.4000244140625</ele>
        <time>2026-06-20T13:14:17.000Z</time>
        <extensions>
          <ns3:TrackPointExtension>
            <ns3:atemp>32.0</ns3:atemp>
          </ns3:TrackPointExtension>
        </extensions>
      </trkpt>
      <trkpt lat="42.45449521578848361968994140625" lon="20.23415188305079936981201171875">
        <ele>836.79998779296875</ele>
        <time>2026-06-20T13:14:18.000Z</time>
        <extensions>
          <ns3:TrackPointExtension>
            <ns3:atemp>32.0</ns3:atemp>
          </ns3:TrackPointExtension>
        </extensions>
      </trkpt>
      <trkpt lat="42.454541735351085662841796875" lon="20.23427191190421581268310546875">
        <ele>836</ele>
        <time>2026-06-20T13:14:19.000Z</time>
        <extensions>
          <ns3:TrackPointExtension>
            <ns3:atemp>32.0</ns3:atemp>
          </ns3:TrackPointExtension>
        </extensions>
      </trkpt>
      <trkpt lat="42.45458431541919708251953125" lon="20.23439344950020313262939453125">
        <ele>835</ele>
        <time>2026-06-20T13:14:20.000Z</time>
        <extensions>
          <ns3:TrackPointExtension>
            <ns3:atemp>32.0</ns3:atemp>
          </ns3:TrackPointExtension>
        </extensions>
      </trkpt>
      <trkpt lat="42.45462127961218357086181640625" lon="20.2345095388591289520263671875">
        <ele>834.20001220703125</ele>
        <time>2026-06-20T13:14:21.000Z</time>
        <extensions>
          <ns3:TrackPointExtension>
            <ns3:atemp>32.0</ns3:atemp>
          </ns3:TrackPointExtension>
        </extensions>
      </trkpt>
      <trkpt lat="42.45465581305325031280517578125" lon="20.23462227545678615570068359375">
        <ele>833.5999755859375</ele>
        <time>2026-06-20T13:14:22.000Z</time>
        <extensions>
          <ns3:TrackPointExtension>
            <ns3:atemp>32.0</ns3:atemp>
          </ns3:TrackPointExtension>
        </extensions>
      </trkpt>
      <trkpt lat="42.4546877481043338775634765625" lon="20.2347309887409210205078125">
        <ele>833</ele>
        <time>2026-06-20T13:14:23.000Z</time>
        <extensions>
          <ns3:TrackPointExtension>
            <ns3:atemp>32.0</ns3:atemp>
          </ns3:TrackPointExtension>
        </extensions>
      </trkpt>
      <trkpt lat="42.454719431698322296142578125" lon="20.23483601398766040802001953125">
        <ele>832.4000244140625</ele>
        <time>2026-06-20T13:14:24.000Z</time>
        <extensions>
          <ns3:TrackPointExtension>
            <ns3:atemp>32.0</ns3:atemp>
          </ns3:TrackPointExtension>
        </extensions>
      </trkpt>
      <trkpt lat="42.454752288758754730224609375" lon="20.2349333278834819793701171875">
        <ele>831.79998779296875</ele>
        <time>2026-06-20T13:14:25.000Z</time>
        <extensions>
          <ns3:TrackPointExtension>
            <ns3:atemp>32.0</ns3:atemp>
          </ns3:TrackPointExtension>
        </extensions>
      </trkpt>
      <trkpt lat="42.45479084551334381103515625" lon="20.235021673142910003662109375">
        <ele>831.4000244140625</ele>
        <time>2026-06-20T13:14:26.000Z</time>
        <extensions>
          <ns3:TrackPointExtension>
            <ns3:atemp>32.0</ns3:atemp>
          </ns3:TrackPointExtension>
        </extensions>
      </trkpt>
      <trkpt lat="42.4548332579433917999267578125" lon="20.23510658182203769683837890625">
        <ele>830.79998779296875</ele>
        <time>2026-06-20T13:14:27.000Z</time>
        <extensions>
          <ns3:TrackPointExtension>
            <ns3:atemp>32.0</ns3:atemp>
          </ns3:TrackPointExtension>
        </extensions>
      </trkpt>
      <trkpt lat="42.45487843640148639678955078125" lon="20.23519090376794338226318359375">
        <ele>830.4000244140625</ele>
        <time>2026-06-20T13:14:28.000Z</time>
        <extensions>
          <ns3:TrackPointExtension>
            <ns3:atemp>31.0</ns3:atemp>
          </ns3:TrackPointExtension>
        </extensions>
      </trkpt>
      <trkpt lat="42.4549304880201816558837890625" lon="20.23527271114289760589599609375">
        <ele>829.5999755859375</ele>
        <time>2026-06-20T13:14:29.000Z</time>
        <extensions>
          <ns3:TrackPointExtension>
            <ns3:atemp>31.0</ns3:atemp>
          </ns3:TrackPointExtension>
        </extensions>
      </trkpt>
      <trkpt lat="42.4549848027527332305908203125" lon="20.2353564463555812835693359375">
        <ele>829</ele>
        <time>2026-06-20T13:14:30.000Z</time>
        <extensions>
          <ns3:TrackPointExtension>
            <ns3:atemp>31.0</ns3:atemp>
          </ns3:TrackPointExtension>
        </extensions>
      </trkpt>
      <trkpt lat="42.45503517799079418182373046875" lon="20.23544370196759700775146484375">
        <ele>828.4000244140625</ele>
        <time>2026-06-20T13:14:31.000Z</time>
        <extensions>
          <ns3:TrackPointExtension>
            <ns3:atemp>31.0</ns3:atemp>
          </ns3:TrackPointExtension>
        </extensions>
      </trkpt>
      <trkpt lat="42.4550830386579036712646484375" lon="20.23553489707410335540771484375">
        <ele>827.5999755859375</ele>
        <time>2026-06-20T13:14:32.000Z</time>
        <extensions>
          <ns3:TrackPointExtension>
            <ns3:atemp>31.0</ns3:atemp>
          </ns3:TrackPointExtension>
        </extensions>
      </trkpt>
      <trkpt lat="42.45513123460114002227783203125" lon="20.2356323786079883575439453125">
        <ele>826.79998779296875</ele>
        <time>2026-06-20T13:14:33.000Z</time>
        <extensions>
          <ns3:TrackPointExtension>
            <ns3:atemp>31.0</ns3:atemp>
          </ns3:TrackPointExtension>
        </extensions>
      </trkpt>
      <trkpt lat="42.45517431758344173431396484375" lon="20.2357368171215057373046875">
        <ele>826</ele>
        <time>2026-06-20T13:14:34.000Z</time>
        <extensions>
          <ns3:TrackPointExtension>
            <ns3:atemp>31.0</ns3:atemp>
          </ns3:TrackPointExtension>
        </extensions>
      </trkpt>
      <trkpt lat="42.4552191607654094696044921875" lon="20.23584016598761081695556640625">
        <ele>825.20001220703125</ele>
        <time>2026-06-20T13:14:35.000Z</time>
        <extensions>
          <ns3:TrackPointExtension>
            <ns3:atemp>31.0</ns3:atemp>
          </ns3:TrackPointExtension>
        </extensions>
      </trkpt>
      <trkpt lat="42.45526785962283611297607421875" lon="20.235938988626003265380859375">
        <ele>824.4000244140625</ele>
        <time>2026-06-20T13:14:36.000Z</time>
        <extensions>
          <ns3:TrackPointExtension>
            <ns3:atemp>31.0</ns3:atemp>
          </ns3:TrackPointExtension>
        </extensions>
      </trkpt>
      <trkpt lat="42.45531362481415271759033203125" lon="20.23603378795087337493896484375">
        <ele>823.79998779296875</ele>
        <time>2026-06-20T13:14:37.000Z</time>
        <extensions>
          <ns3:TrackPointExtension>
            <ns3:atemp>31.0</ns3:atemp>
          </ns3:TrackPointExtension>
        </extensions>
      </trkpt>
      <trkpt lat="42.4553547799587249755859375" lon="20.2361262403428554534912109375">
        <ele>822.79998779296875</ele>
        <time>2026-06-20T13:14:38.000Z</time>
        <extensions>
          <ns3:TrackPointExtension>
            <ns3:atemp>31.0</ns3:atemp>
          </ns3:TrackPointExtension>
        </extensions>
      </trkpt>
      <trkpt lat="42.45539006777107715606689453125" lon="20.23622724227607250213623046875">
        <ele>822.20001220703125</ele>
        <time>2026-06-20T13:14:39.000Z</time>
        <extensions>
          <ns3:TrackPointExtension>
            <ns3:atemp>31.0</ns3:atemp>
          </ns3:TrackPointExtension>
        </extensions>
      </trkpt>
      <trkpt lat="42.4554119445383548736572265625" lon="20.23633419536054134368896484375">
        <ele>821.4000244140625</ele>
        <time>2026-06-20T13:14:40.000Z</time>
        <extensions>
          <ns3:TrackPointExtension>
            <ns3:atemp>31.0</ns3:atemp>
          </ns3:TrackPointExtension>
        </extensions>
      </trkpt>
      <trkpt lat="42.4554176442325115203857421875" lon="20.236443914473056793212890625">
        <ele>820.79998779296875</ele>
        <time>2026-06-20T13:14:41.000Z</time>
        <extensions>
          <ns3:TrackPointExtension>
            <ns3:atemp>31.0</ns3:atemp>
          </ns3:TrackPointExtension>
        </extensions>
      </trkpt>
      <trkpt lat="42.4554156325757503509521484375" lon="20.23655480705201625823974609375">
        <ele>820.20001220703125</ele>
        <time>2026-06-20T13:14:42.000Z</time>
        <extensions>
          <ns3:TrackPointExtension>
            <ns3:atemp>31.0</ns3:atemp>
          </ns3:TrackPointExtension>
        </extensions>
      </trkpt>
      <trkpt lat="42.4554122798144817352294921875" lon="20.236664526164531707763671875">
        <ele>819.5999755859375</ele>
        <time>2026-06-20T13:14:43.000Z</time>
        <extensions>
          <ns3:TrackPointExtension>
            <ns3:atemp>31.0</ns3:atemp>
          </ns3:TrackPointExtension>
        </extensions>
      </trkpt>
      <trkpt lat="42.45541043579578399658203125" lon="20.2367766760289669036865234375">
        <ele>819</ele>
        <time>2026-06-20T13:14:44.000Z</time>
        <extensions>
          <ns3:TrackPointExtension>
            <ns3:atemp>31.0</ns3:atemp>
          </ns3:TrackPointExtension>
        </extensions>
      </trkpt>
      <trkpt lat="42.4554099328815937042236328125" lon="20.23689058609306812286376953125">
        <ele>818.20001220703125</ele>
        <time>2026-06-20T13:14:45.000Z</time>
        <extensions>
          <ns3:TrackPointExtension>
            <ns3:atemp>31.0</ns3:atemp>
          </ns3:TrackPointExtension>
        </extensions>
      </trkpt>
      <trkpt lat="42.4554065801203250885009765625" lon="20.2370060048997402191162109375">
        <ele>817.5999755859375</ele>
        <time>2026-06-20T13:14:46.000Z</time>
        <extensions>
          <ns3:TrackPointExtension>
            <ns3:atemp>31.0</ns3:atemp>
          </ns3:TrackPointExtension>
        </extensions>
      </trkpt>
      <trkpt lat="42.45539970695972442626953125" lon="20.23712410591542720794677734375">
        <ele>816.79998779296875</ele>
        <time>2026-06-20T13:14:47.000Z</time>
        <extensions>
          <ns3:TrackPointExtension>
            <ns3:atemp>31.0</ns3:atemp>
          </ns3:TrackPointExtension>
        </extensions>
      </trkpt>
      <trkpt lat="42.455393336713314056396484375" lon="20.237237513065338134765625">
        <ele>815.79998779296875</ele>
        <time>2026-06-20T13:14:48.000Z</time>
        <extensions>
          <ns3:TrackPointExtension>
            <ns3:atemp>31.0</ns3:atemp>
          </ns3:TrackPointExtension>
        </extensions>
      </trkpt>
      <trkpt lat="42.45538738556206226348876953125" lon="20.23734840564429759979248046875">
        <ele>815</ele>
        <time>2026-06-20T13:14:49.000Z</time>
        <extensions>
          <ns3:TrackPointExtension>
            <ns3:atemp>31.0</ns3:atemp>
          </ns3:TrackPointExtension>
        </extensions>
      </trkpt>
      <trkpt lat="42.45538453571498394012451171875" lon="20.23746156133711338043212890625">
        <ele>814.20001220703125</ele>
        <time>2026-06-20T13:14:50.000Z</time>
        <extensions>
          <ns3:TrackPointExtension>
            <ns3:atemp>31.0</ns3:atemp>
          </ns3:TrackPointExtension>
        </extensions>
      </trkpt>
      <trkpt lat="42.45539057068526744842529296875" lon="20.23757589049637317657470703125">
        <ele>813.5999755859375</ele>
        <time>2026-06-20T13:14:51.000Z</time>
        <extensions>
          <ns3:TrackPointExtension>
            <ns3:atemp>31.0</ns3:atemp>
          </ns3:TrackPointExtension>
        </extensions>
      </trkpt>
      <trkpt lat="42.455406747758388519287109375" lon="20.237693488597869873046875">
        <ele>812.5999755859375</ele>
        <time>2026-06-20T13:14:52.000Z</time>
        <extensions>
          <ns3:TrackPointExtension>
            <ns3:atemp>31.0</ns3:atemp>
          </ns3:TrackPointExtension>
        </extensions>
      </trkpt>
      <trkpt lat="42.45543415658175945281982421875" lon="20.2378074824810028076171875">
        <ele>812.20001220703125</ele>
        <time>2026-06-20T13:14:53.000Z</time>
        <extensions>
          <ns3:TrackPointExtension>
            <ns3:atemp>31.0</ns3:atemp>
          </ns3:TrackPointExtension>
        </extensions>
      </trkpt>
      <trkpt lat="42.45546902529895305633544921875" lon="20.23792290128767490386962890625">
        <ele>811.5999755859375</ele>
        <time>2026-06-20T13:14:54.000Z</time>
        <extensions>
          <ns3:TrackPointExtension>
            <ns3:atemp>31.0</ns3:atemp>
          </ns3:TrackPointExtension>
        </extensions>
      </trkpt>
      <trkpt lat="42.45550565421581268310546875" lon="20.2380406670272350311279296875">
        <ele>811.20001220703125</ele>
        <time>2026-06-20T13:14:55.000Z</time>
        <extensions>
          <ns3:TrackPointExtension>
            <ns3:atemp>31.0</ns3:atemp>
          </ns3:TrackPointExtension>
        </extensions>
      </trkpt>
      <trkpt lat="42.45553809218108654022216796875" lon="20.23816329427063465118408203125">
        <ele>810.79998779296875</ele>
        <time>2026-06-20T13:14:56.000Z</time>
        <extensions>
          <ns3:TrackPointExtension>
            <ns3:atemp>31.0</ns3:atemp>
          </ns3:TrackPointExtension>
        </extensions>
      </trkpt>
      <trkpt lat="42.45555753819644451141357421875" lon="20.2382954768836498260498046875">
        <ele>810</ele>
        <time>2026-06-20T13:14:57.000Z</time>
        <extensions>
          <ns3:TrackPointExtension>
            <ns3:atemp>31.0</ns3:atemp>
          </ns3:TrackPointExtension>
        </extensions>
      </trkpt>
      <trkpt lat="42.45556692592799663543701171875" lon="20.2384309284389019012451171875">
        <ele>809.5999755859375</ele>
        <time>2026-06-20T13:14:58.000Z</time>
        <extensions>
          <ns3:TrackPointExtension>
            <ns3:atemp>31.0</ns3:atemp>
          </ns3:TrackPointExtension>
        </extensions>
      </trkpt>
      <trkpt lat="42.4555752240121364593505859375" lon="20.23856051266193389892578125">
        <ele>808.79998779296875</ele>
        <time>2026-06-20T13:14:59.000Z</time>
        <extensions>
          <ns3:TrackPointExtension>
            <ns3:atemp>31.0</ns3:atemp>
          </ns3:TrackPointExtension>
        </extensions>
      </trkpt>
      <trkpt lat="42.455575726926326751708984375" lon="20.2386926114559173583984375">
        <ele>808.20001220703125</ele>
        <time>2026-06-20T13:15:00.000Z</time>
        <extensions>
          <ns3:TrackPointExtension>
            <ns3:atemp>31.0</ns3:atemp>
          </ns3:TrackPointExtension>
        </extensions>
      </trkpt>
      <trkpt lat="42.45556868612766265869140625" lon="20.23882881738245487213134765625">
        <ele>807.4000244140625</ele>
        <time>2026-06-20T13:15:01.000Z</time>
        <extensions>
          <ns3:TrackPointExtension>
            <ns3:atemp>31.0</ns3:atemp>
          </ns3:TrackPointExtension>
        </extensions>
      </trkpt>
      <trkpt lat="42.45554161258041858673095703125" lon="20.23896309547126293182373046875">
        <ele>806.79998779296875</ele>
        <time>2026-06-20T13:15:02.000Z</time>
        <extensions>
          <ns3:TrackPointExtension>
            <ns3:atemp>31.0</ns3:atemp>
          </ns3:TrackPointExtension>
        </extensions>
      </trkpt>
      <trkpt lat="42.45550322346389293670654296875" lon="20.2390870638191699981689453125">
        <ele>806.20001220703125</ele>
        <time>2026-06-20T13:15:03.000Z</time>
        <extensions>
          <ns3:TrackPointExtension>
            <ns3:atemp>31.0</ns3:atemp>
          </ns3:TrackPointExtension>
        </extensions>
      </trkpt>
      <trkpt lat="42.45547950267791748046875" lon="20.239212624728679656982421875">
        <ele>805.4000244140625</ele>
        <time>2026-06-20T13:15:04.000Z</time>
        <extensions>
          <ns3:TrackPointExtension>
            <ns3:atemp>31.0</ns3:atemp>
          </ns3:TrackPointExtension>
        </extensions>
      </trkpt>
      <trkpt lat="42.455468438565731048583984375" lon="20.23934329859912395477294921875">
        <ele>804.5999755859375</ele>
        <time>2026-06-20T13:15:05.000Z</time>
        <extensions>
          <ns3:TrackPointExtension>
            <ns3:atemp>31.0</ns3:atemp>
          </ns3:TrackPointExtension>
        </extensions>
      </trkpt>
      <trkpt lat="42.45546542108058929443359375" lon="20.2394773252308368682861328125">
        <ele>803.79998779296875</ele>
        <time>2026-06-20T13:15:06.000Z</time>
        <extensions>
          <ns3:TrackPointExtension>
            <ns3:atemp>31.0</ns3:atemp>
          </ns3:TrackPointExtension>
        </extensions>
      </trkpt>
      <trkpt lat="42.45546634308993816375732421875" lon="20.2396174706518650054931640625">
        <ele>803.20001220703125</ele>
        <time>2026-06-20T13:15:07.000Z</time>
        <extensions>
          <ns3:TrackPointExtension>
            <ns3:atemp>31.0</ns3:atemp>
          </ns3:TrackPointExtension>
        </extensions>
      </trkpt>
      <trkpt lat="42.45546818710863590240478515625" lon="20.2397574484348297119140625">
        <ele>802.5999755859375</ele>
        <time>2026-06-20T13:15:08.000Z</time>
        <extensions>
          <ns3:TrackPointExtension>
            <ns3:atemp>31.0</ns3:atemp>
          </ns3:TrackPointExtension>
        </extensions>
      </trkpt>
      <trkpt lat="42.45546885766088962554931640625" lon="20.23990253917872905731201171875">
        <ele>802</ele>
        <time>2026-06-20T13:15:09.000Z</time>
        <extensions>
          <ns3:TrackPointExtension>
            <ns3:atemp>31.0</ns3:atemp>
          </ns3:TrackPointExtension>
        </extensions>
      </trkpt>
      <trkpt lat="42.455472461879253387451171875" lon="20.24005182087421417236328125">
        <ele>801.4000244140625</ele>
        <time>2026-06-20T13:15:10.000Z</time>
        <extensions>
          <ns3:TrackPointExtension>
            <ns3:atemp>31.0</ns3:atemp>
          </ns3:TrackPointExtension>
        </extensions>
      </trkpt>
      <trkpt lat="42.45548830367624759674072265625" lon="20.24019791744649410247802734375">
        <ele>800.4000244140625</ele>
        <time>2026-06-20T13:15:11.000Z</time>
        <extensions>
          <ns3:TrackPointExtension>
            <ns3:atemp>31.0</ns3:atemp>
          </ns3:TrackPointExtension>
        </extensions>
      </trkpt>
      <trkpt lat="42.455525435507297515869140625" lon="20.240334458649158477783203125">
        <ele>799.5999755859375</ele>
        <time>2026-06-20T13:15:12.000Z</time>
        <extensions>
          <ns3:TrackPointExtension>
            <ns3:atemp>31.0</ns3:atemp>
          </ns3:TrackPointExtension>
        </extensions>
      </trkpt>
      <trkpt lat="42.45557446964085102081298828125" lon="20.24046462960541248321533203125">
        <ele>798.79998779296875</ele>
        <time>2026-06-20T13:15:13.000Z</time>
        <extensions>
          <ns3:TrackPointExtension>
            <ns3:atemp>31.0</ns3:atemp>
          </ns3:TrackPointExtension>
        </extensions>
      </trkpt>
      <trkpt lat="42.45563037693500518798828125" lon="20.2405907772481441497802734375">
        <ele>797.79998779296875</ele>
        <time>2026-06-20T13:15:14.000Z</time>
        <extensions>
          <ns3:TrackPointExtension>
            <ns3:atemp>31.0</ns3:atemp>
          </ns3:TrackPointExtension>
        </extensions>
      </trkpt>
      <trkpt lat="42.45568997226655483245849609375" lon="20.24072245694696903228759765625">
        <ele>796.5999755859375</ele>
        <time>2026-06-20T13:15:15.000Z</time>
        <extensions>
          <ns3:TrackPointExtension>
            <ns3:atemp>31.0</ns3:atemp>
          </ns3:TrackPointExtension>
        </extensions>
      </trkpt>
      <trkpt lat="42.455746717751026153564453125" lon="20.2408569864928722381591796875">
        <ele>795.5999755859375</ele>
        <time>2026-06-20T13:15:16.000Z</time>
        <extensions>
          <ns3:TrackPointExtension>
            <ns3:atemp>31.0</ns3:atemp>
          </ns3:TrackPointExtension>
        </extensions>
      </trkpt>
      <trkpt lat="42.45580279268324375152587890625" lon="20.240990258753299713134765625">
        <ele>794.5999755859375</ele>
        <time>2026-06-20T13:15:17.000Z</time>
        <extensions>
          <ns3:TrackPointExtension>
            <ns3:atemp>31.0</ns3:atemp>
          </ns3:TrackPointExtension>
        </extensions>
      </trkpt>
      <trkpt lat="42.45586238801479339599609375" lon="20.24112679995596408843994140625">
        <ele>793.4000244140625</ele>
        <time>2026-06-20T13:15:18.000Z</time>
        <extensions>
          <ns3:TrackPointExtension>
            <ns3:atemp>31.0</ns3:atemp>
          </ns3:TrackPointExtension>
        </extensions>
      </trkpt>
      <trkpt lat="42.4559247493743896484375" lon="20.241263173520565032958984375">
        <ele>792.4000244140625</ele>
        <time>2026-06-20T13:15:19.000Z</time>
        <extensions>
          <ns3:TrackPointExtension>
            <ns3:atemp>31.0</ns3:atemp>
          </ns3:TrackPointExtension>
        </extensions>
      </trkpt>
      <trkpt lat="42.45599172078073024749755859375" lon="20.2413967810571193695068359375">
        <ele>791.20001220703125</ele>
        <time>2026-06-20T13:15:20.000Z</time>
        <extensions>
          <ns3:TrackPointExtension>
            <ns3:atemp>31.0</ns3:atemp>
          </ns3:TrackPointExtension>
        </extensions>
      </trkpt>
      <trkpt lat="42.456059865653514862060546875" lon="20.24152879603207111358642578125">
        <ele>790.20001220703125</ele>
        <time>2026-06-20T13:15:21.000Z</time>
        <extensions>
          <ns3:TrackPointExtension>
            <ns3:atemp>31.0</ns3:atemp>
          </ns3:TrackPointExtension>
        </extensions>
      </trkpt>
      <trkpt lat="42.45612650178372859954833984375" lon="20.24166374467313289642333984375">
        <ele>789.4000244140625</ele>
        <time>2026-06-20T13:15:22.000Z</time>
        <extensions>
          <ns3:TrackPointExtension>
            <ns3:atemp>31.0</ns3:atemp>
          </ns3:TrackPointExtension>
        </extensions>
      </trkpt>
      <trkpt lat="42.45618567802011966705322265625" lon="20.241806991398334503173828125">
        <ele>788.5999755859375</ele>
        <time>2026-06-20T13:15:23.000Z</time>
        <extensions>
          <ns3:TrackPointExtension>
            <ns3:atemp>31.0</ns3:atemp>
          </ns3:TrackPointExtension>
        </extensions>
      </trkpt>
      <trkpt lat="42.4562318623065948486328125" lon="20.24195887148380279541015625">
        <ele>787.5999755859375</ele>
        <time>2026-06-20T13:15:24.000Z</time>
        <extensions>
          <ns3:TrackPointExtension>
            <ns3:atemp>31.0</ns3:atemp>
          </ns3:TrackPointExtension>
        </extensions>
      </trkpt>
      <trkpt lat="42.45627217926084995269775390625" lon="20.2421176247298717498779296875">
        <ele>786.5999755859375</ele>
        <time>2026-06-20T13:15:25.000Z</time>
        <extensions>
          <ns3:TrackPointExtension>
            <ns3:atemp>31.0</ns3:atemp>
          </ns3:TrackPointExtension>
        </extensions>
      </trkpt>
      <trkpt lat="42.45631945319473743438720703125" lon="20.2422634698450565338134765625">
        <ele>786</ele>
        <time>2026-06-20T13:15:26.000Z</time>
        <extensions>
          <ns3:TrackPointExtension>
            <ns3:atemp>31.0</ns3:atemp>
          </ns3:TrackPointExtension>
        </extensions>
      </trkpt>
      <trkpt lat="42.45637024752795696258544921875" lon="20.24240001104772090911865234375">
        <ele>785.20001220703125</ele>
        <time>2026-06-20T13:15:27.000Z</time>
        <extensions>
          <ns3:TrackPointExtension>
            <ns3:atemp>31.0</ns3:atemp>
          </ns3:TrackPointExtension>
        </extensions>
      </trkpt>
      <trkpt lat="42.4564399011433124542236328125" lon="20.24250813759863376617431640625">
        <ele>784.5999755859375</ele>
        <time>2026-06-20T13:15:28.000Z</time>
        <extensions>
          <ns3:TrackPointExtension>
            <ns3:atemp>31.0</ns3:atemp>
          </ns3:TrackPointExtension>
        </extensions>
      </trkpt>
      <trkpt lat="42.45652648620307445526123046875" lon="20.24256899021565914154052734375">
        <ele>783.79998779296875</ele>
        <time>2026-06-20T13:15:29.000Z</time>
        <extensions>
          <ns3:TrackPointExtension>
            <ns3:atemp>31.0</ns3:atemp>
          </ns3:TrackPointExtension>
        </extensions>
      </trkpt>
      <trkpt lat="42.45662455447018146514892578125" lon="20.24259782396256923675537109375">
        <ele>783</ele>
        <time>2026-06-20T13:15:30.000Z</time>
        <extensions>
          <ns3:TrackPointExtension>
            <ns3:atemp>31.0</ns3:atemp>
          </ns3:TrackPointExtension>
        </extensions>
      </trkpt>
      <trkpt lat="42.4567255564033985137939453125" lon="20.24261291138827800750732421875">
        <ele>782.4000244140625</ele>
        <time>2026-06-20T13:15:31.000Z</time>
        <extensions>
          <ns3:TrackPointExtension>
            <ns3:atemp>31.0</ns3:atemp>
          </ns3:TrackPointExtension>
        </extensions>
      </trkpt>
      <trkpt lat="42.45682974345982074737548828125" lon="20.242624394595623016357421875">
        <ele>781.5999755859375</ele>
        <time>2026-06-20T13:15:32.000Z</time>
        <extensions>
          <ns3:TrackPointExtension>
            <ns3:atemp>31.0</ns3:atemp>
          </ns3:TrackPointExtension>
        </extensions>
      </trkpt>
      <trkpt lat="42.45693686418235301971435546875" lon="20.24261467158794403076171875">
        <ele>780.79998779296875</ele>
        <time>2026-06-20T13:15:33.000Z</time>
        <extensions>
          <ns3:TrackPointExtension>
            <ns3:atemp>31.0</ns3:atemp>
          </ns3:TrackPointExtension>
        </extensions>
      </trkpt>
      <trkpt lat="42.45704582892358303070068359375" lon="20.24259145371615886688232421875">
        <ele>779.79998779296875</ele>
        <time>2026-06-20T13:15:34.000Z</time>
        <extensions>
          <ns3:TrackPointExtension>
            <ns3:atemp>31.0</ns3:atemp>
          </ns3:TrackPointExtension>
        </extensions>
      </trkpt>
      <trkpt lat="42.457158900797367095947265625" lon="20.24255893193185329437255859375">
        <ele>779</ele>
        <time>2026-06-20T13:15:35.000Z</time>
        <extensions>
          <ns3:TrackPointExtension>
            <ns3:atemp>31.0</ns3:atemp>
          </ns3:TrackPointExtension>
        </extensions>
      </trkpt>
      <trkpt lat="42.457273565232753753662109375" lon="20.24252842180430889129638671875">
        <ele>778</ele>
        <time>2026-06-20T13:15:36.000Z</time>
        <extensions>
          <ns3:TrackPointExtension>
            <ns3:atemp>31.0</ns3:atemp>
          </ns3:TrackPointExtension>
        </extensions>
      </trkpt>
      <trkpt lat="42.45738328434526920318603515625" lon="20.24252624250948429107666015625">
        <ele>777</ele>
        <time>2026-06-20T13:15:37.000Z</time>
        <extensions>
          <ns3:TrackPointExtension>
            <ns3:atemp>31.0</ns3:atemp>
          </ns3:TrackPointExtension>
        </extensions>
      </trkpt>
      <trkpt lat="42.45747850276529788970947265625" lon="20.24255641736090183258056640625">
        <ele>776</ele>
        <time>2026-06-20T13:15:38.000Z</time>
        <extensions>
          <ns3:TrackPointExtension>
            <ns3:atemp>31.0</ns3:atemp>
          </ns3:TrackPointExtension>
        </extensions>
      </trkpt>
      <trkpt lat="42.457542121410369873046875" lon="20.242634117603302001953125">
        <ele>774.5999755859375</ele>
        <time>2026-06-20T13:15:39.000Z</time>
        <extensions>
          <ns3:TrackPointExtension>
            <ns3:atemp>31.0</ns3:atemp>
          </ns3:TrackPointExtension>
        </extensions>
      </trkpt>
      <trkpt lat="42.45757271535694599151611328125" lon="20.242739729583263397216796875">
        <ele>773.79998779296875</ele>
        <time>2026-06-20T13:15:40.000Z</time>
        <extensions>
          <ns3:TrackPointExtension>
            <ns3:atemp>31.0</ns3:atemp>
          </ns3:TrackPointExtension>
        </extensions>
      </trkpt>
      <trkpt lat="42.45760171674191951751708984375" lon="20.242845006287097930908203125">
        <ele>773.4000244140625</ele>
        <time>2026-06-20T13:15:41.000Z</time>
        <extensions>
          <ns3:TrackPointExtension>
            <ns3:atemp>31.0</ns3:atemp>
          </ns3:TrackPointExtension>
        </extensions>
      </trkpt>
      <trkpt lat="42.4576318077743053436279296875" lon="20.2429595030844211578369140625">
        <ele>772.79998779296875</ele>
        <time>2026-06-20T13:15:42.000Z</time>
        <extensions>
          <ns3:TrackPointExtension>
            <ns3:atemp>31.0</ns3:atemp>
          </ns3:TrackPointExtension>
        </extensions>
      </trkpt>
      <trkpt lat="42.45765678584575653076171875" lon="20.24308741092681884765625">
        <ele>772.4000244140625</ele>
        <time>2026-06-20T13:15:43.000Z</time>
        <extensions>
          <ns3:TrackPointExtension>
            <ns3:atemp>31.0</ns3:atemp>
          </ns3:TrackPointExtension>
        </extensions>
      </trkpt>
      <trkpt lat="42.45767564512789249420166015625" lon="20.24321842007339000701904296875">
        <ele>771.79998779296875</ele>
        <time>2026-06-20T13:15:44.000Z</time>
        <extensions>
          <ns3:TrackPointExtension>
            <ns3:atemp>31.0</ns3:atemp>
          </ns3:TrackPointExtension>
        </extensions>
      </trkpt>
      <trkpt lat="42.4577002041041851043701171875" lon="20.2433440648019313812255859375">
        <ele>771</ele>
        <time>2026-06-20T13:15:45.000Z</time>
        <extensions>
          <ns3:TrackPointExtension>
            <ns3:atemp>31.0</ns3:atemp>
          </ns3:TrackPointExtension>
        </extensions>
      </trkpt>
      <trkpt lat="42.457731552422046661376953125" lon="20.2434669435024261474609375">
        <ele>770.4000244140625</ele>
        <time>2026-06-20T13:15:46.000Z</time>
        <extensions>
          <ns3:TrackPointExtension>
            <ns3:atemp>31.0</ns3:atemp>
          </ns3:TrackPointExtension>
        </extensions>
      </trkpt>
      <trkpt lat="42.4577686004340648651123046875" lon="20.243587978184223175048828125">
        <ele>769.5999755859375</ele>
        <time>2026-06-20T13:15:47.000Z</time>
        <extensions>
          <ns3:TrackPointExtension>
            <ns3:atemp>31.0</ns3:atemp>
          </ns3:TrackPointExtension>
        </extensions>
      </trkpt>
      <trkpt lat="42.45780740864574909210205078125" lon="20.2437031455338001251220703125">
        <ele>768.5999755859375</ele>
        <time>2026-06-20T13:15:48.000Z</time>
        <extensions>
          <ns3:TrackPointExtension>
            <ns3:atemp>31.0</ns3:atemp>
          </ns3:TrackPointExtension>
        </extensions>
      </trkpt>
      <trkpt lat="42.4578551016747951507568359375" lon="20.2438008785247802734375">
        <ele>768</ele>
        <time>2026-06-20T13:15:49.000Z</time>
        <extensions>
          <ns3:TrackPointExtension>
            <ns3:atemp>31.0</ns3:atemp>
          </ns3:TrackPointExtension>
        </extensions>
      </trkpt>
      <trkpt lat="42.457901202142238616943359375" lon="20.2438801713287830352783203125">
        <ele>767.4000244140625</ele>
        <time>2026-06-20T13:15:50.000Z</time>
        <extensions>
          <ns3:TrackPointExtension>
            <ns3:atemp>31.0</ns3:atemp>
          </ns3:TrackPointExtension>
        </extensions>
      </trkpt>
      <trkpt lat="42.45792827568948268890380859375" lon="20.24395887739956378936767578125">
        <ele>766.79998779296875</ele>
        <time>2026-06-20T13:15:51.000Z</time>
        <extensions>
          <ns3:TrackPointExtension>
            <ns3:atemp>31.0</ns3:atemp>
          </ns3:TrackPointExtension>
        </extensions>
      </trkpt>
      <trkpt lat="42.457917965948581695556640625" lon="20.24404034949839115142822265625">
        <ele>766.4000244140625</ele>
        <time>2026-06-20T13:15:52.000Z</time>
        <extensions>
          <ns3:TrackPointExtension>
            <ns3:atemp>31.0</ns3:atemp>
          </ns3:TrackPointExtension>
        </extensions>
      </trkpt>
      <trkpt lat="42.45787412859499454498291015625" lon="20.24408544413745403289794921875">
        <ele>765.79998779296875</ele>
        <time>2026-06-20T13:15:53.000Z</time>
        <extensions>
          <ns3:TrackPointExtension>
            <ns3:atemp>31.0</ns3:atemp>
          </ns3:TrackPointExtension>
        </extensions>
      </trkpt>
      <trkpt lat="42.45781361125409603118896484375" lon="20.24407974444329738616943359375">
        <ele>765.20001220703125</ele>
        <time>2026-06-20T13:15:54.000Z</time>
        <extensions>
          <ns3:TrackPointExtension>
            <ns3:atemp>31.0</ns3:atemp>
          </ns3:TrackPointExtension>
        </extensions>
      </trkpt>
      <trkpt lat="42.45776566676795482635498046875" lon="20.2440293692052364349365234375">
        <ele>764.5999755859375</ele>
        <time>2026-06-20T13:15:55.000Z</time>
        <extensions>
          <ns3:TrackPointExtension>
            <ns3:atemp>31.0</ns3:atemp>
          </ns3:TrackPointExtension>
        </extensions>
      </trkpt>
      <trkpt lat="42.4577209912240505218505859375" lon="20.24395585991442203521728515625">
        <ele>763.79998779296875</ele>
        <time>2026-06-20T13:15:56.000Z</time>
        <extensions>
          <ns3:TrackPointExtension>
            <ns3:atemp>31.0</ns3:atemp>
          </ns3:TrackPointExtension>
        </extensions>
      </trkpt>
      <trkpt lat="42.4576750583946704864501953125" lon="20.2438758127391338348388671875">
        <ele>763</ele>
        <time>2026-06-20T13:15:57.000Z</time>
        <extensions>
          <ns3:TrackPointExtension>
            <ns3:atemp>31.0</ns3:atemp>
          </ns3:TrackPointExtension>
        </extensions>
      </trkpt>
      <trkpt lat="42.457624934613704681396484375" lon="20.2437976934015750885009765625">
        <ele>762.20001220703125</ele>
        <time>2026-06-20T13:15:58.000Z</time>
        <extensions>
          <ns3:TrackPointExtension>
            <ns3:atemp>31.0</ns3:atemp>
          </ns3:TrackPointExtension>
        </extensions>
      </trkpt>
      <trkpt lat="42.4575734697282314300537109375" lon="20.2437132038176059722900390625">
        <ele>761.5999755859375</ele>
        <time>2026-06-20T13:15:59.000Z</time>
        <extensions>
          <ns3:TrackPointExtension>
            <ns3:atemp>31.0</ns3:atemp>
          </ns3:TrackPointExtension>
        </extensions>
      </trkpt>
      <trkpt lat="42.457523345947265625" lon="20.24362175725400447845458984375">
        <ele>761</ele>
        <time>2026-06-20T13:16:00.000Z</time>
        <extensions>
          <ns3:TrackPointExtension>
            <ns3:atemp>31.0</ns3:atemp>
          </ns3:TrackPointExtension>
        </extensions>
      </trkpt>
      <trkpt lat="42.45747171342372894287109375" lon="20.24353408254683017730712890625">
        <ele>760.4000244140625</ele>
        <time>2026-06-20T13:16:01.000Z</time>
        <extensions>
          <ns3:TrackPointExtension>
            <ns3:atemp>31.0</ns3:atemp>
          </ns3:TrackPointExtension>
        </extensions>
      </trkpt>
      <trkpt lat="42.457421086728572845458984375" lon="20.2434426359832286834716796875">
        <ele>759.5999755859375</ele>
        <time>2026-06-20T13:16:02.000Z</time>
        <extensions>
          <ns3:TrackPointExtension>
            <ns3:atemp>31.0</ns3:atemp>
          </ns3:TrackPointExtension>
        </extensions>
      </trkpt>
      <trkpt lat="42.45736777782440185546875" lon="20.24334867484867572784423828125">
        <ele>759</ele>
        <time>2026-06-20T13:16:03.000Z</time>
        <extensions>
          <ns3:TrackPointExtension>
            <ns3:atemp>31.0</ns3:atemp>
          </ns3:TrackPointExtension>
        </extensions>
      </trkpt>
      <trkpt lat="42.45730080641806125640869140625" lon="20.24326083250343799591064453125">
        <ele>758.4000244140625</ele>
        <time>2026-06-20T13:16:04.000Z</time>
        <extensions>
          <ns3:TrackPointExtension>
            <ns3:atemp>31.0</ns3:atemp>
          </ns3:TrackPointExtension>
        </extensions>
      </trkpt>
      <trkpt lat="42.457214891910552978515625" lon="20.243203081190586090087890625">
        <ele>757.5999755859375</ele>
        <time>2026-06-20T13:16:05.000Z</time>
        <extensions>
          <ns3:TrackPointExtension>
            <ns3:atemp>31.0</ns3:atemp>
          </ns3:TrackPointExtension>
        </extensions>
      </trkpt>
      <trkpt lat="42.457121349871158599853515625" lon="20.24319176562130451202392578125">
        <ele>756.79998779296875</ele>
        <time>2026-06-20T13:16:06.000Z</time>
        <extensions>
          <ns3:TrackPointExtension>
            <ns3:atemp>31.0</ns3:atemp>
          </ns3:TrackPointExtension>
        </extensions>
      </trkpt>
      <trkpt lat="42.4570365250110626220703125" lon="20.24322160519659519195556640625">
        <ele>755.79998779296875</ele>
        <time>2026-06-20T13:16:07.000Z</time>
        <extensions>
          <ns3:TrackPointExtension>
            <ns3:atemp>31.0</ns3:atemp>
          </ns3:TrackPointExtension>
        </extensions>
      </trkpt>
      <trkpt lat="42.4569699726998805999755859375" lon="20.2432984672486782073974609375">
        <ele>755</ele>
        <time>2026-06-20T13:16:08.000Z</time>
        <extensions>
          <ns3:TrackPointExtension>
            <ns3:atemp>31.0</ns3:atemp>
          </ns3:TrackPointExtension>
        </extensions>
      </trkpt>
      <trkpt lat="42.4569052644073963165283203125" lon="20.24338656105101108551025390625">
        <ele>754.20001220703125</ele>
        <time>2026-06-20T13:16:09.000Z</time>
        <extensions>
          <ns3:TrackPointExtension>
            <ns3:atemp>31.0</ns3:atemp>
          </ns3:TrackPointExtension>
        </extensions>
      </trkpt>
      <trkpt lat="42.45682261884212493896484375" lon="20.24344749748706817626953125">
        <ele>753.4000244140625</ele>
        <time>2026-06-20T13:16:10.000Z</time>
        <extensions>
          <ns3:TrackPointExtension>
            <ns3:atemp>31.0</ns3:atemp>
          </ns3:TrackPointExtension>
        </extensions>
      </trkpt>
      <trkpt lat="42.45672647841274738311767578125" lon="20.2434798516333103179931640625">
        <ele>752.79998779296875</ele>
        <time>2026-06-20T13:16:11.000Z</time>
        <extensions>
          <ns3:TrackPointExtension>
            <ns3:atemp>31.0</ns3:atemp>
          </ns3:TrackPointExtension>
        </extensions>
      </trkpt>
      <trkpt lat="42.4566249735653400421142578125" lon="20.24348177947103977203369140625">
        <ele>752</ele>
        <time>2026-06-20T13:16:12.000Z</time>
        <extensions>
          <ns3:TrackPointExtension>
            <ns3:atemp>31.0</ns3:atemp>
          </ns3:TrackPointExtension>
        </extensions>
      </trkpt>
      <trkpt lat="42.4565250612795352935791015625" lon="20.24345428682863712310791015625">
        <ele>751.20001220703125</ele>
        <time>2026-06-20T13:16:13.000Z</time>
        <extensions>
          <ns3:TrackPointExtension>
            <ns3:atemp>30.0</ns3:atemp>
          </ns3:TrackPointExtension>
        </extensions>
      </trkpt>
      <trkpt lat="42.4564231373369693756103515625" lon="20.24341388605535030364990234375">
        <ele>750.4000244140625</ele>
        <time>2026-06-20T13:16:14.000Z</time>
        <extensions>
          <ns3:TrackPointExtension>
            <ns3:atemp>30.0</ns3:atemp>
          </ns3:TrackPointExtension>
        </extensions>
      </trkpt>
      <trkpt lat="42.45632213540375232696533203125" lon="20.2433717250823974609375">
        <ele>749.4000244140625</ele>
        <time>2026-06-20T13:16:15.000Z</time>
        <extensions>
          <ns3:TrackPointExtension>
            <ns3:atemp>31.0</ns3:atemp>
          </ns3:TrackPointExtension>
        </extensions>
      </trkpt>
      <trkpt lat="42.4562223069369792938232421875" lon="20.243319086730480194091796875">
        <ele>748.4000244140625</ele>
        <time>2026-06-20T13:16:16.000Z</time>
        <extensions>
          <ns3:TrackPointExtension>
            <ns3:atemp>30.0</ns3:atemp>
          </ns3:TrackPointExtension>
        </extensions>
      </trkpt>
      <trkpt lat="42.45613597333431243896484375" lon="20.24324121885001659393310546875">
        <ele>747.5999755859375</ele>
        <time>2026-06-20T13:16:17.000Z</time>
        <extensions>
          <ns3:TrackPointExtension>
            <ns3:atemp>30.0</ns3:atemp>
          </ns3:TrackPointExtension>
        </extensions>
      </trkpt>
      <trkpt lat="42.45605693198740482330322265625" lon="20.24313879199326038360595703125">
        <ele>746.79998779296875</ele>
        <time>2026-06-20T13:16:18.000Z</time>
        <extensions>
          <ns3:TrackPointExtension>
            <ns3:atemp>30.0</ns3:atemp>
          </ns3:TrackPointExtension>
        </extensions>
      </trkpt>
      <trkpt lat="42.45598283596336841583251953125" lon="20.24302245117723941802978515625">
        <ele>746</ele>
        <time>2026-06-20T13:16:19.000Z</time>
        <extensions>
          <ns3:TrackPointExtension>
            <ns3:atemp>30.0</ns3:atemp>
          </ns3:TrackPointExtension>
        </extensions>
      </trkpt>
      <trkpt lat="42.4559125117957592010498046875" lon="20.24290644563734531402587890625">
        <ele>745.20001220703125</ele>
        <time>2026-06-20T13:16:20.000Z</time>
        <extensions>
          <ns3:TrackPointExtension>
            <ns3:atemp>30.0</ns3:atemp>
          </ns3:TrackPointExtension>
        </extensions>
      </trkpt>
      <trkpt lat="42.455845288932323455810546875" lon="20.2427824772894382476806640625">
        <ele>744.20001220703125</ele>
        <time>2026-06-20T13:16:21.000Z</time>
        <extensions>
          <ns3:TrackPointExtension>
            <ns3:atemp>30.0</ns3:atemp>
          </ns3:TrackPointExtension>
        </extensions>
      </trkpt>
      <trkpt lat="42.4557773955166339874267578125" lon="20.2426601015031337738037109375">
        <ele>743.20001220703125</ele>
        <time>2026-06-20T13:16:22.000Z</time>
        <extensions>
          <ns3:TrackPointExtension>
            <ns3:atemp>30.0</ns3:atemp>
          </ns3:TrackPointExtension>
        </extensions>
      </trkpt>
      <trkpt lat="42.45570623315870761871337890625" lon="20.2425380609929561614990234375">
        <ele>742.20001220703125</ele>
        <time>2026-06-20T13:16:23.000Z</time>
        <extensions>
          <ns3:TrackPointExtension>
            <ns3:atemp>30.0</ns3:atemp>
          </ns3:TrackPointExtension>
        </extensions>
      </trkpt>
      <trkpt lat="42.4556228332221508026123046875" lon="20.24242213927209377288818359375">
        <ele>741.20001220703125</ele>
        <time>2026-06-20T13:16:24.000Z</time>
        <extensions>
          <ns3:TrackPointExtension>
            <ns3:atemp>30.0</ns3:atemp>
          </ns3:TrackPointExtension>
        </extensions>
      </trkpt>
      <trkpt lat="42.45552535168826580047607421875" lon="20.24232457391917705535888671875">
        <ele>740.20001220703125</ele>
        <time>2026-06-20T13:16:25.000Z</time>
        <extensions>
          <ns3:TrackPointExtension>
            <ns3:atemp>30.0</ns3:atemp>
          </ns3:TrackPointExtension>
        </extensions>
      </trkpt>
      <trkpt lat="42.45542326010763645172119140625" lon="20.24223379790782928466796875">
        <ele>739.20001220703125</ele>
        <time>2026-06-20T13:16:26.000Z</time>
        <extensions>
          <ns3:TrackPointExtension>
            <ns3:atemp>30.0</ns3:atemp>
          </ns3:TrackPointExtension>
        </extensions>
      </trkpt>
      <trkpt lat="42.45532133616507053375244140625" lon="20.2421446144580841064453125">
        <ele>738.20001220703125</ele>
        <time>2026-06-20T13:16:27.000Z</time>
        <extensions>
          <ns3:TrackPointExtension>
            <ns3:atemp>30.0</ns3:atemp>
          </ns3:TrackPointExtension>
        </extensions>
      </trkpt>
      <trkpt lat="42.455224357545375823974609375" lon="20.2420522458851337432861328125">
        <ele>737.20001220703125</ele>
        <time>2026-06-20T13:16:28.000Z</time>
        <extensions>
          <ns3:TrackPointExtension>
            <ns3:atemp>30.0</ns3:atemp>
          </ns3:TrackPointExtension>
        </extensions>
      </trkpt>
      <trkpt lat="42.4551353417336940765380859375" lon="20.24195090867578983306884765625">
        <ele>736.4000244140625</ele>
        <time>2026-06-20T13:16:29.000Z</time>
        <extensions>
          <ns3:TrackPointExtension>
            <ns3:atemp>30.0</ns3:atemp>
          </ns3:TrackPointExtension>
        </extensions>
      </trkpt>
      <trkpt lat="42.45504590682685375213623046875" lon="20.2418557740747928619384765625">
        <ele>735.20001220703125</ele>
        <time>2026-06-20T13:16:30.000Z</time>
        <extensions>
          <ns3:TrackPointExtension>
            <ns3:atemp>30.0</ns3:atemp>
          </ns3:TrackPointExtension>
        </extensions>
      </trkpt>
      <trkpt lat="42.45494775474071502685546875" lon="20.24178897030651569366455078125">
        <ele>734.4000244140625</ele>
        <time>2026-06-20T13:16:31.000Z</time>
        <extensions>
          <ns3:TrackPointExtension>
            <ns3:atemp>30.0</ns3:atemp>
          </ns3:TrackPointExtension>
        </extensions>
      </trkpt>
      <trkpt lat="42.45484608225524425506591796875" lon="20.24175091646611690521240234375">
        <ele>733.5999755859375</ele>
        <time>2026-06-20T13:16:32.000Z</time>
        <extensions>
          <ns3:TrackPointExtension>
            <ns3:atemp>30.0</ns3:atemp>
          </ns3:TrackPointExtension>
        </extensions>
      </trkpt>
      <trkpt lat="42.45473879389464855194091796875" lon="20.2417288720607757568359375">
        <ele>732.79998779296875</ele>
        <time>2026-06-20T13:16:33.000Z</time>
        <extensions>
          <ns3:TrackPointExtension>
            <ns3:atemp>30.0</ns3:atemp>
          </ns3:TrackPointExtension>
        </extensions>
      </trkpt>
      <trkpt lat="42.4546263925731182098388671875" lon="20.24171051569283008575439453125">
        <ele>732</ele>
        <time>2026-06-20T13:16:34.000Z</time>
        <extensions>
          <ns3:TrackPointExtension>
            <ns3:atemp>30.0</ns3:atemp>
          </ns3:TrackPointExtension>
        </extensions>
      </trkpt>
      <trkpt lat="42.45451466180384159088134765625" lon="20.24168260395526885986328125">
        <ele>731.20001220703125</ele>
        <time>2026-06-20T13:16:35.000Z</time>
        <extensions>
          <ns3:TrackPointExtension>
            <ns3:atemp>30.0</ns3:atemp>
          </ns3:TrackPointExtension>
        </extensions>
      </trkpt>
      <trkpt lat="42.45440234430134296417236328125" lon="20.24164530448615550994873046875">
        <ele>730.4000244140625</ele>
        <time>2026-06-20T13:16:36.000Z</time>
        <extensions>
          <ns3:TrackPointExtension>
            <ns3:atemp>30.0</ns3:atemp>
          </ns3:TrackPointExtension>
        </extensions>
      </trkpt>
      <trkpt lat="42.45429195463657379150390625" lon="20.2415996231138706207275390625">
        <ele>729.79998779296875</ele>
        <time>2026-06-20T13:16:37.000Z</time>
        <extensions>
          <ns3:TrackPointExtension>
            <ns3:atemp>30.0</ns3:atemp>
          </ns3:TrackPointExtension>
        </extensions>
      </trkpt>
      <trkpt lat="42.45418860577046871185302734375" lon="20.2415292151272296905517578125">
        <ele>729</ele>
        <time>2026-06-20T13:16:38.000Z</time>
        <extensions>
          <ns3:TrackPointExtension>
            <ns3:atemp>30.0</ns3:atemp>
          </ns3:TrackPointExtension>
        </extensions>
      </trkpt>
      <trkpt lat="42.45410562492907047271728515625" lon="20.241418741643428802490234375">
        <ele>728.20001220703125</ele>
        <time>2026-06-20T13:16:39.000Z</time>
        <extensions>
          <ns3:TrackPointExtension>
            <ns3:atemp>30.0</ns3:atemp>
          </ns3:TrackPointExtension>
        </extensions>
      </trkpt>
      <trkpt lat="42.45404661633074283599853515625" lon="20.24128890596330165863037109375">
        <ele>727.20001220703125</ele>
        <time>2026-06-20T13:16:40.000Z</time>
        <extensions>
          <ns3:TrackPointExtension>
            <ns3:atemp>30.0</ns3:atemp>
          </ns3:TrackPointExtension>
        </extensions>
      </trkpt>
      <trkpt lat="42.45399548672139644622802734375" lon="20.2411500178277492523193359375">
        <ele>726.20001220703125</ele>
        <time>2026-06-20T13:16:41.000Z</time>
        <extensions>
          <ns3:TrackPointExtension>
            <ns3:atemp>30.0</ns3:atemp>
          </ns3:TrackPointExtension>
        </extensions>
      </trkpt>
      <trkpt lat="42.45393455028533935546875" lon="20.24101448245346546173095703125">
        <ele>725.4000244140625</ele>
        <time>2026-06-20T13:16:42.000Z</time>
        <extensions>
          <ns3:TrackPointExtension>
            <ns3:atemp>30.0</ns3:atemp>
          </ns3:TrackPointExtension>
        </extensions>
      </trkpt>
      <trkpt lat="42.453865818679332733154296875" lon="20.24088590405881404876708984375">
        <ele>724.5999755859375</ele>
        <time>2026-06-20T13:16:43.000Z</time>
        <extensions>
          <ns3:TrackPointExtension>
            <ns3:atemp>30.0</ns3:atemp>
          </ns3:TrackPointExtension>
        </extensions>
      </trkpt>
      <trkpt lat="42.45379163883626461029052734375" lon="20.2407537214457988739013671875">
        <ele>723.5999755859375</ele>
        <time>2026-06-20T13:16:44.000Z</time>
        <extensions>
          <ns3:TrackPointExtension>
            <ns3:atemp>30.0</ns3:atemp>
          </ns3:TrackPointExtension>
        </extensions>
      </trkpt>
      <trkpt lat="42.4537186324596405029296875" lon="20.24062170647084712982177734375">
        <ele>722.79998779296875</ele>
        <time>2026-06-20T13:16:45.000Z</time>
        <extensions>
          <ns3:TrackPointExtension>
            <ns3:atemp>30.0</ns3:atemp>
          </ns3:TrackPointExtension>
        </extensions>
      </trkpt>
      <trkpt lat="42.45364730246365070343017578125" lon="20.24048625491559505462646484375">
        <ele>721.79998779296875</ele>
        <time>2026-06-20T13:16:46.000Z</time>
        <extensions>
          <ns3:TrackPointExtension>
            <ns3:atemp>30.0</ns3:atemp>
          </ns3:TrackPointExtension>
        </extensions>
      </trkpt>
      <trkpt lat="42.453583180904388427734375" lon="20.2403470315039157867431640625">
        <ele>720.79998779296875</ele>
        <time>2026-06-20T13:16:47.000Z</time>
        <extensions>
          <ns3:TrackPointExtension>
            <ns3:atemp>30.0</ns3:atemp>
          </ns3:TrackPointExtension>
        </extensions>
      </trkpt>
      <trkpt lat="42.45352174155414104461669921875" lon="20.240202359855175018310546875">
        <ele>719.79998779296875</ele>
        <time>2026-06-20T13:16:48.000Z</time>
        <extensions>
          <ns3:TrackPointExtension>
            <ns3:atemp>30.0</ns3:atemp>
          </ns3:TrackPointExtension>
        </extensions>
      </trkpt>
      <trkpt lat="42.45345703326165676116943359375" lon="20.24005710147321224212646484375">
        <ele>718.5999755859375</ele>
        <time>2026-06-20T13:16:49.000Z</time>
        <extensions>
          <ns3:TrackPointExtension>
            <ns3:atemp>30.0</ns3:atemp>
          </ns3:TrackPointExtension>
        </extensions>
      </trkpt>
      <trkpt lat="42.45338846929371356964111328125" lon="20.23991368710994720458984375">
        <ele>717.5999755859375</ele>
        <time>2026-06-20T13:16:50.000Z</time>
        <extensions>
          <ns3:TrackPointExtension>
            <ns3:atemp>30.0</ns3:atemp>
          </ns3:TrackPointExtension>
        </extensions>
      </trkpt>
      <trkpt lat="42.4533211626112461090087890625" lon="20.23976909928023815155029296875">
        <ele>716.4000244140625</ele>
        <time>2026-06-20T13:16:51.000Z</time>
        <extensions>
          <ns3:TrackPointExtension>
            <ns3:atemp>30.0</ns3:atemp>
          </ns3:TrackPointExtension>
        </extensions>
      </trkpt>
      <trkpt lat="42.453253604471683502197265625" lon="20.23962191306054592132568359375">
        <ele>715.4000244140625</ele>
        <time>2026-06-20T13:16:52.000Z</time>
        <extensions>
          <ns3:TrackPointExtension>
            <ns3:atemp>30.0</ns3:atemp>
          </ns3:TrackPointExtension>
        </extensions>
      </trkpt>
      <trkpt lat="42.45318730361759662628173828125" lon="20.23947539739310741424560546875">
        <ele>714.4000244140625</ele>
        <time>2026-06-20T13:16:53.000Z</time>
        <extensions>
          <ns3:TrackPointExtension>
            <ns3:atemp>30.0</ns3:atemp>
          </ns3:TrackPointExtension>
        </extensions>
      </trkpt>
      <trkpt lat="42.4531112797558307647705078125" lon="20.23933592252433300018310546875">
        <ele>713.20001220703125</ele>
        <time>2026-06-20T13:16:54.000Z</time>
        <extensions>
          <ns3:TrackPointExtension>
            <ns3:atemp>30.0</ns3:atemp>
          </ns3:TrackPointExtension>
        </extensions>
      </trkpt>
      <trkpt lat="42.45302058756351470947265625" lon="20.2392235212028026580810546875">
        <ele>712.20001220703125</ele>
        <time>2026-06-20T13:16:55.000Z</time>
        <extensions>
          <ns3:TrackPointExtension>
            <ns3:atemp>30.0</ns3:atemp>
          </ns3:TrackPointExtension>
        </extensions>
      </trkpt>
      <trkpt lat="42.45291103608906269073486328125" lon="20.23914196528494358062744140625">
        <ele>711.20001220703125</ele>
        <time>2026-06-20T13:16:56.000Z</time>
        <extensions>
          <ns3:TrackPointExtension>
            <ns3:atemp>30.0</ns3:atemp>
          </ns3:TrackPointExtension>
        </extensions>
      </trkpt>
      <trkpt lat="42.4527957849204540252685546875" lon="20.2390708029270172119140625">
        <ele>710.4000244140625</ele>
        <time>2026-06-20T13:16:57.000Z</time>
        <extensions>
          <ns3:TrackPointExtension>
            <ns3:atemp>30.0</ns3:atemp>
          </ns3:TrackPointExtension>
        </extensions>
      </trkpt>
      <trkpt lat="42.45268824510276317596435546875" lon="20.23898790590465068817138671875">
        <ele>709.5999755859375</ele>
        <time>2026-06-20T13:16:58.000Z</time>
        <extensions>
          <ns3:TrackPointExtension>
            <ns3:atemp>30.0</ns3:atemp>
          </ns3:TrackPointExtension>
        </extensions>
      </trkpt>
      <trkpt lat="42.45259285904467105865478515625" lon="20.23889017291367053985595703125">
        <ele>708.4000244140625</ele>
        <time>2026-06-20T13:16:59.000Z</time>
        <extensions>
          <ns3:TrackPointExtension>
            <ns3:atemp>30.0</ns3:atemp>
          </ns3:TrackPointExtension>
        </extensions>
      </trkpt>
      <trkpt lat="42.452501244843006134033203125" lon="20.2387838065624237060546875">
        <ele>707.5999755859375</ele>
        <time>2026-06-20T13:17:00.000Z</time>
        <extensions>
          <ns3:TrackPointExtension>
            <ns3:atemp>30.0</ns3:atemp>
          </ns3:TrackPointExtension>
        </extensions>
      </trkpt>
      <trkpt lat="42.45240879245102405548095703125" lon="20.23867852985858917236328125">
        <ele>707</ele>
        <time>2026-06-20T13:17:01.000Z</time>
        <extensions>
          <ns3:TrackPointExtension>
            <ns3:atemp>30.0</ns3:atemp>
          </ns3:TrackPointExtension>
        </extensions>
      </trkpt>
      <trkpt lat="42.45231558568775653839111328125" lon="20.2385787852108478546142578125">
        <ele>706.20001220703125</ele>
        <time>2026-06-20T13:17:02.000Z</time>
        <extensions>
          <ns3:TrackPointExtension>
            <ns3:atemp>30.0</ns3:atemp>
          </ns3:TrackPointExtension>
        </extensions>
      </trkpt>
      <trkpt lat="42.4522164277732372283935546875" lon="20.23848298005759716033935546875">
        <ele>705.4000244140625</ele>
        <time>2026-06-20T13:17:03.000Z</time>
        <extensions>
          <ns3:TrackPointExtension>
            <ns3:atemp>30.0</ns3:atemp>
          </ns3:TrackPointExtension>
        </extensions>
      </trkpt>
      <trkpt lat="42.4521134980022907257080078125" lon="20.23839111439883708953857421875">
        <ele>704.5999755859375</ele>
        <time>2026-06-20T13:17:04.000Z</time>
        <extensions>
          <ns3:TrackPointExtension>
            <ns3:atemp>30.0</ns3:atemp>
          </ns3:TrackPointExtension>
        </extensions>
      </trkpt>
      <trkpt lat="42.4520125798881053924560546875" lon="20.23829941637814044952392578125">
        <ele>703.79998779296875</ele>
        <time>2026-06-20T13:17:05.000Z</time>
        <extensions>
          <ns3:TrackPointExtension>
            <ns3:atemp>30.0</ns3:atemp>
          </ns3:TrackPointExtension>
        </extensions>
      </trkpt>
      <trkpt lat="42.4519121646881103515625" lon="20.2382093109190464019775390625">
        <ele>703</ele>
        <time>2026-06-20T13:17:06.000Z</time>
        <extensions>
          <ns3:TrackPointExtension>
            <ns3:atemp>30.0</ns3:atemp>
          </ns3:TrackPointExtension>
        </extensions>
      </trkpt>
      <trkpt lat="42.45180898346006870269775390625" lon="20.23811954073607921600341796875">
        <ele>702</ele>
        <time>2026-06-20T13:17:07.000Z</time>
        <extensions>
          <ns3:TrackPointExtension>
            <ns3:atemp>30.0</ns3:atemp>
          </ns3:TrackPointExtension>
        </extensions>
      </trkpt>
      <trkpt lat="42.451706640422344207763671875" lon="20.2380326204001903533935546875">
        <ele>700.79998779296875</ele>
        <time>2026-06-20T13:17:08.000Z</time>
        <extensions>
          <ns3:TrackPointExtension>
            <ns3:atemp>30.0</ns3:atemp>
          </ns3:TrackPointExtension>
        </extensions>
      </trkpt>
      <trkpt lat="42.45160429738461971282958984375" lon="20.2379429340362548828125">
        <ele>699.79998779296875</ele>
        <time>2026-06-20T13:17:09.000Z</time>
        <extensions>
          <ns3:TrackPointExtension>
            <ns3:atemp>30.0</ns3:atemp>
          </ns3:TrackPointExtension>
        </extensions>
      </trkpt>
      <trkpt lat="42.45150153525173664093017578125" lon="20.2378571033477783203125">
        <ele>699</ele>
        <time>2026-06-20T13:17:10.000Z</time>
        <extensions>
          <ns3:TrackPointExtension>
            <ns3:atemp>30.0</ns3:atemp>
          </ns3:TrackPointExtension>
        </extensions>
      </trkpt>
      <trkpt lat="42.45139391161501407623291015625" lon="20.23778107948601245880126953125">
        <ele>698</ele>
        <time>2026-06-20T13:17:11.000Z</time>
        <extensions>
          <ns3:TrackPointExtension>
            <ns3:atemp>30.0</ns3:atemp>
          </ns3:TrackPointExtension>
        </extensions>
      </trkpt>
      <trkpt lat="42.45128251612186431884765625" lon="20.23771083913743495941162109375">
        <ele>697.20001220703125</ele>
        <time>2026-06-20T13:17:12.000Z</time>
        <extensions>
          <ns3:TrackPointExtension>
            <ns3:atemp>30.0</ns3:atemp>
          </ns3:TrackPointExtension>
        </extensions>
      </trkpt>
      <trkpt lat="42.4511707015335559844970703125" lon="20.237642861902713775634765625">
        <ele>696.20001220703125</ele>
        <time>2026-06-20T13:17:13.000Z</time>
        <extensions>
          <ns3:TrackPointExtension>
            <ns3:atemp>30.0</ns3:atemp>
          </ns3:TrackPointExtension>
        </extensions>
      </trkpt>
      <trkpt lat="42.4510593898594379425048828125" lon="20.23756851442158222198486328125">
        <ele>695.20001220703125</ele>
        <time>2026-06-20T13:17:14.000Z</time>
        <extensions>
          <ns3:TrackPointExtension>
            <ns3:atemp>30.0</ns3:atemp>
          </ns3:TrackPointExtension>
        </extensions>
      </trkpt>
      <trkpt lat="42.450950928032398223876953125" lon="20.23749073036015033721923828125">
        <ele>694.4000244140625</ele>
        <time>2026-06-20T13:17:15.000Z</time>
        <extensions>
          <ns3:TrackPointExtension>
            <ns3:atemp>30.0</ns3:atemp>
          </ns3:TrackPointExtension>
        </extensions>
      </trkpt>
      <trkpt lat="42.4508404545485973358154296875" lon="20.23741059936583042144775390625">
        <ele>693.5999755859375</ele>
        <time>2026-06-20T13:17:16.000Z</time>
        <extensions>
          <ns3:TrackPointExtension>
            <ns3:atemp>30.0</ns3:atemp>
          </ns3:TrackPointExtension>
        </extensions>
      </trkpt>
      <trkpt lat="42.45073408819735050201416015625" lon="20.23732476867735385894775390625">
        <ele>692.79998779296875</ele>
        <time>2026-06-20T13:17:17.000Z</time>
        <extensions>
          <ns3:TrackPointExtension>
            <ns3:atemp>30.0</ns3:atemp>
          </ns3:TrackPointExtension>
        </extensions>
      </trkpt>
      <trkpt lat="42.45063132606446743011474609375" lon="20.23723307065665721893310546875">
        <ele>691.5999755859375</ele>
        <time>2026-06-20T13:17:18.000Z</time>
        <extensions>
          <ns3:TrackPointExtension>
            <ns3:atemp>30.0</ns3:atemp>
          </ns3:TrackPointExtension>
        </extensions>
      </trkpt>
      <trkpt lat="42.45053610764443874359130859375" lon="20.23712913505733013153076171875">
        <ele>690.5999755859375</ele>
        <time>2026-06-20T13:17:19.000Z</time>
        <extensions>
          <ns3:TrackPointExtension>
            <ns3:atemp>30.0</ns3:atemp>
          </ns3:TrackPointExtension>
        </extensions>
      </trkpt>
      <trkpt lat="42.45044826529920101165771484375" lon="20.23700759746134281158447265625">
        <ele>689.5999755859375</ele>
        <time>2026-06-20T13:17:20.000Z</time>
        <extensions>
          <ns3:TrackPointExtension>
            <ns3:atemp>30.0</ns3:atemp>
          </ns3:TrackPointExtension>
        </extensions>
      </trkpt>
      <trkpt lat="42.4503774382174015045166015625" lon="20.2368661947548389434814453125">
        <ele>688.5999755859375</ele>
        <time>2026-06-20T13:17:21.000Z</time>
        <extensions>
          <ns3:TrackPointExtension>
            <ns3:atemp>30.0</ns3:atemp>
          </ns3:TrackPointExtension>
        </extensions>
      </trkpt>
      <trkpt lat="42.4503160826861858367919921875" lon="20.236712805926799774169921875">
        <ele>687.4000244140625</ele>
        <time>2026-06-20T13:17:22.000Z</time>
        <extensions>
          <ns3:TrackPointExtension>
            <ns3:atemp>30.0</ns3:atemp>
          </ns3:TrackPointExtension>
        </extensions>
      </trkpt>
      <trkpt lat="42.4502507038414478302001953125" lon="20.236565284430980682373046875">
        <ele>686.4000244140625</ele>
        <time>2026-06-20T13:17:23.000Z</time>
        <extensions>
          <ns3:TrackPointExtension>
            <ns3:atemp>30.0</ns3:atemp>
          </ns3:TrackPointExtension>
        </extensions>
      </trkpt>
      <trkpt lat="42.45018792338669300079345703125" lon="20.23641600273549556732177734375">
        <ele>685.4000244140625</ele>
        <time>2026-06-20T13:17:24.000Z</time>
        <extensions>
          <ns3:TrackPointExtension>
            <ns3:atemp>30.0</ns3:atemp>
          </ns3:TrackPointExtension>
        </extensions>
      </trkpt>
      <trkpt lat="42.4501266516745090484619140625" lon="20.23626311682164669036865234375">
        <ele>684.4000244140625</ele>
        <time>2026-06-20T13:17:25.000Z</time>
        <extensions>
          <ns3:TrackPointExtension>
            <ns3:atemp>30.0</ns3:atemp>
          </ns3:TrackPointExtension>
        </extensions>
      </trkpt>
      <trkpt lat="42.4500629492104053497314453125" lon="20.23611140437424182891845703125">
        <ele>683.4000244140625</ele>
        <time>2026-06-20T13:17:26.000Z</time>
        <extensions>
          <ns3:TrackPointExtension>
            <ns3:atemp>30.0</ns3:atemp>
          </ns3:TrackPointExtension>
        </extensions>
      </trkpt>
      <trkpt lat="42.449992708861827850341796875" lon="20.2359663136303424835205078125">
        <ele>682</ele>
        <time>2026-06-20T13:17:27.000Z</time>
        <extensions>
          <ns3:TrackPointExtension>
            <ns3:atemp>30.0</ns3:atemp>
          </ns3:TrackPointExtension>
        </extensions>
      </trkpt>
      <trkpt lat="42.4499157629907131195068359375" lon="20.23582440800964832305908203125">
        <ele>681</ele>
        <time>2026-06-20T13:17:28.000Z</time>
        <extensions>
          <ns3:TrackPointExtension>
            <ns3:atemp>30.0</ns3:atemp>
          </ns3:TrackPointExtension>
        </extensions>
      </trkpt>
      <trkpt lat="42.4498312734067440032958984375" lon="20.23568895645439624786376953125">
        <ele>679.79998779296875</ele>
        <time>2026-06-20T13:17:29.000Z</time>
        <extensions>
          <ns3:TrackPointExtension>
            <ns3:atemp>30.0</ns3:atemp>
          </ns3:TrackPointExtension>
        </extensions>
      </trkpt>
      <trkpt lat="42.44974024593830108642578125" lon="20.23555199615657329559326171875">
        <ele>678.79998779296875</ele>
        <time>2026-06-20T13:17:30.000Z</time>
        <extensions>
          <ns3:TrackPointExtension>
            <ns3:atemp>30.0</ns3:atemp>
          </ns3:TrackPointExtension>
        </extensions>
      </trkpt>
      <trkpt lat="42.44965164922177791595458984375" lon="20.2354144491255283355712890625">
        <ele>677.5999755859375</ele>
        <time>2026-06-20T13:17:31.000Z</time>
        <extensions>
          <ns3:TrackPointExtension>
            <ns3:atemp>30.0</ns3:atemp>
          </ns3:TrackPointExtension>
        </extensions>
      </trkpt>
      <trkpt lat="42.44957084767520427703857421875" lon="20.2352647483348846435546875">
        <ele>676</ele>
        <time>2026-06-20T13:17:32.000Z</time>
        <extensions>
          <ns3:TrackPointExtension>
            <ns3:atemp>30.0</ns3:atemp>
          </ns3:TrackPointExtension>
        </extensions>
      </trkpt>
      <trkpt lat="42.4494939856231212615966796875" lon="20.235111527144908905029296875">
        <ele>675</ele>
        <time>2026-06-20T13:17:33.000Z</time>
        <extensions>
          <ns3:TrackPointExtension>
            <ns3:atemp>30.0</ns3:atemp>
          </ns3:TrackPointExtension>
        </extensions>
      </trkpt>
      <trkpt lat="42.44942785240709781646728515625" lon="20.234949588775634765625">
        <ele>674</ele>
        <time>2026-06-20T13:17:34.000Z</time>
        <extensions>
          <ns3:TrackPointExtension>
            <ns3:atemp>30.0</ns3:atemp>
          </ns3:TrackPointExtension>
        </extensions>
      </trkpt>
      <trkpt lat="42.44937923736870288848876953125" lon="20.2347807772457599639892578125">
        <ele>673</ele>
        <time>2026-06-20T13:17:35.000Z</time>
        <extensions>
          <ns3:TrackPointExtension>
            <ns3:atemp>30.0</ns3:atemp>
          </ns3:TrackPointExtension>
        </extensions>
      </trkpt>
      <trkpt lat="42.44934638030827045440673828125" lon="20.23460551165044307708740234375">
        <ele>672</ele>
        <time>2026-06-20T13:17:36.000Z</time>
        <extensions>
          <ns3:TrackPointExtension>
            <ns3:atemp>30.0</ns3:atemp>
          </ns3:TrackPointExtension>
        </extensions>
      </trkpt>
      <trkpt lat="42.4493179656565189361572265625" lon="20.23443100042641162872314453125">
        <ele>670.79998779296875</ele>
        <time>2026-06-20T13:17:37.000Z</time>
        <extensions>
          <ns3:TrackPointExtension>
            <ns3:atemp>30.0</ns3:atemp>
          </ns3:TrackPointExtension>
        </extensions>
      </trkpt>
      <trkpt lat="42.44929072447121143341064453125" lon="20.23425732739269733428955078125">
        <ele>669.79998779296875</ele>
        <time>2026-06-20T13:17:38.000Z</time>
        <extensions>
          <ns3:TrackPointExtension>
            <ns3:atemp>30.0</ns3:atemp>
          </ns3:TrackPointExtension>
        </extensions>
      </trkpt>
      <trkpt lat="42.4492700211703777313232421875" lon="20.23408197797834873199462890625">
        <ele>668.79998779296875</ele>
        <time>2026-06-20T13:17:39.000Z</time>
        <extensions>
          <ns3:TrackPointExtension>
            <ns3:atemp>30.0</ns3:atemp>
          </ns3:TrackPointExtension>
        </extensions>
      </trkpt>
      <trkpt lat="42.44924713857471942901611328125" lon="20.23390830494463443756103515625">
        <ele>667.79998779296875</ele>
        <time>2026-06-20T13:17:40.000Z</time>
        <extensions>
          <ns3:TrackPointExtension>
            <ns3:atemp>30.0</ns3:atemp>
          </ns3:TrackPointExtension>
        </extensions>
      </trkpt>
      <trkpt lat="42.4492100067436695098876953125" lon="20.233735553920269012451171875">
        <ele>666.4000244140625</ele>
        <time>2026-06-20T13:17:41.000Z</time>
        <extensions>
          <ns3:TrackPointExtension>
            <ns3:atemp>30.0</ns3:atemp>
          </ns3:TrackPointExtension>
        </extensions>
      </trkpt>
      <trkpt lat="42.4491664208471775054931640625" lon="20.23357587866485118865966796875">
        <ele>665.5999755859375</ele>
        <time>2026-06-20T13:17:42.000Z</time>
        <extensions>
          <ns3:TrackPointExtension>
            <ns3:atemp>30.0</ns3:atemp>
          </ns3:TrackPointExtension>
        </extensions>
      </trkpt>
      <trkpt lat="42.44911923073232173919677734375" lon="20.2334259264171123504638671875">
        <ele>664.5999755859375</ele>
        <time>2026-06-20T13:17:43.000Z</time>
        <extensions>
          <ns3:TrackPointExtension>
            <ns3:atemp>30.0</ns3:atemp>
          </ns3:TrackPointExtension>
        </extensions>
      </trkpt>
      <trkpt lat="42.44907430373132228851318359375" lon="20.23328536190092563629150390625">
        <ele>663.5999755859375</ele>
        <time>2026-06-20T13:17:44.000Z</time>
        <extensions>
          <ns3:TrackPointExtension>
            <ns3:atemp>30.0</ns3:atemp>
          </ns3:TrackPointExtension>
        </extensions>
      </trkpt>
      <trkpt lat="42.44904111139476299285888671875" lon="20.2331459708511829376220703125">
        <ele>662.5999755859375</ele>
        <time>2026-06-20T13:17:45.000Z</time>
        <extensions>
          <ns3:TrackPointExtension>
            <ns3:atemp>30.0</ns3:atemp>
          </ns3:TrackPointExtension>
        </extensions>
      </trkpt>
      <trkpt lat="42.4490195699036121368408203125" lon="20.23302066139876842498779296875">
        <ele>661.5999755859375</ele>
        <time>2026-06-20T13:17:46.000Z</time>
        <extensions>
          <ns3:TrackPointExtension>
            <ns3:atemp>30.0</ns3:atemp>
          </ns3:TrackPointExtension>
        </extensions>
      </trkpt>
      <trkpt lat="42.44898981414735317230224609375" lon="20.23292376659810543060302734375">
        <ele>661.20001220703125</ele>
        <time>2026-06-20T13:17:47.000Z</time>
        <extensions>
          <ns3:TrackPointExtension>
            <ns3:atemp>30.0</ns3:atemp>
          </ns3:TrackPointExtension>
        </extensions>
      </trkpt>
      <trkpt lat="42.4489362537860870361328125" lon="20.23286618292331695556640625">
        <ele>660.79998779296875</ele>
        <time>2026-06-20T13:17:48.000Z</time>
        <extensions>
          <ns3:TrackPointExtension>
            <ns3:atemp>30.0</ns3:atemp>
          </ns3:TrackPointExtension>
        </extensions>
      </trkpt>
      <trkpt lat="42.44887665845453739166259765625" lon="20.23286274634301662445068359375">
        <ele>660.4000244140625</ele>
        <time>2026-06-20T13:17:49.000Z</time>
        <extensions>
          <ns3:TrackPointExtension>
            <ns3:atemp>30.0</ns3:atemp>
          </ns3:TrackPointExtension>
        </extensions>
      </trkpt>
      <trkpt lat="42.44883676059544086456298828125" lon="20.2329072542488574981689453125">
        <ele>660</ele>
        <time>2026-06-20T13:17:50.000Z</time>
        <extensions>
          <ns3:TrackPointExtension>
            <ns3:atemp>30.0</ns3:atemp>
          </ns3:TrackPointExtension>
        </extensions>
      </trkpt>
      <trkpt lat="42.44882217608392238616943359375" lon="20.23297841660678386688232421875">
        <ele>659.5999755859375</ele>
        <time>2026-06-20T13:17:51.000Z</time>
        <extensions>
          <ns3:TrackPointExtension>
            <ns3:atemp>30.0</ns3:atemp>
          </ns3:TrackPointExtension>
        </extensions>
      </trkpt>
      <trkpt lat="42.44882033206522464752197265625" lon="20.233055613934993743896484375">
        <ele>659.4000244140625</ele>
        <time>2026-06-20T13:17:52.000Z</time>
        <extensions>
          <ns3:TrackPointExtension>
            <ns3:atemp>30.0</ns3:atemp>
          </ns3:TrackPointExtension>
        </extensions>
      </trkpt>
      <trkpt lat="42.44882469065487384796142578125" lon="20.23314387537539005279541015625">
        <ele>659</ele>
        <time>2026-06-20T13:17:53.000Z</time>
        <extensions>
          <ns3:TrackPointExtension>
            <ns3:atemp>30.0</ns3:atemp>
          </ns3:TrackPointExtension>
        </extensions>
      </trkpt>
      <trkpt lat="42.44883365929126739501953125" lon="20.2332351543009281158447265625">
        <ele>658.5999755859375</ele>
        <time>2026-06-20T13:17:54.000Z</time>
        <extensions>
          <ns3:TrackPointExtension>
            <ns3:atemp>30.0</ns3:atemp>
          </ns3:TrackPointExtension>
        </extensions>
      </trkpt>
      <trkpt lat="42.4488450586795806884765625" lon="20.23333397693932056427001953125">
        <ele>658.20001220703125</ele>
        <time>2026-06-20T13:17:55.000Z</time>
        <extensions>
          <ns3:TrackPointExtension>
            <ns3:atemp>30.0</ns3:atemp>
          </ns3:TrackPointExtension>
        </extensions>
      </trkpt>
      <trkpt lat="42.4488549493253231048583984375" lon="20.2334349788725376129150390625">
        <ele>657.5999755859375</ele>
        <time>2026-06-20T13:17:56.000Z</time>
        <extensions>
          <ns3:TrackPointExtension>
            <ns3:atemp>30.0</ns3:atemp>
          </ns3:TrackPointExtension>
        </extensions>
      </trkpt>
      <trkpt lat="42.4488651752471923828125" lon="20.2335432730615139007568359375">
        <ele>657</ele>
        <time>2026-06-20T13:17:57.000Z</time>
        <extensions>
          <ns3:TrackPointExtension>
            <ns3:atemp>30.0</ns3:atemp>
          </ns3:TrackPointExtension>
        </extensions>
      </trkpt>
      <trkpt lat="42.448876239359378814697265625" lon="20.23365341126918792724609375">
        <ele>656.4000244140625</ele>
        <time>2026-06-20T13:17:58.000Z</time>
        <extensions>
          <ns3:TrackPointExtension>
            <ns3:atemp>30.0</ns3:atemp>
          </ns3:TrackPointExtension>
        </extensions>
      </trkpt>
      <trkpt lat="42.4488901533186435699462890625" lon="20.233766734600067138671875">
        <ele>655.5999755859375</ele>
        <time>2026-06-20T13:17:59.000Z</time>
        <extensions>
          <ns3:TrackPointExtension>
            <ns3:atemp>30.0</ns3:atemp>
          </ns3:TrackPointExtension>
        </extensions>
      </trkpt>
      <trkpt lat="42.44890046305954456329345703125" lon="20.23388274013996124267578125">
        <ele>654.79998779296875</ele>
        <time>2026-06-20T13:18:00.000Z</time>
        <extensions>
          <ns3:TrackPointExtension>
            <ns3:atemp>30.0</ns3:atemp>
          </ns3:TrackPointExtension>
        </extensions>
      </trkpt>
      <trkpt lat="42.44891119189560413360595703125" lon="20.23399815894663333892822265625">
        <ele>654.20001220703125</ele>
        <time>2026-06-20T13:18:01.000Z</time>
        <extensions>
          <ns3:TrackPointExtension>
            <ns3:atemp>30.0</ns3:atemp>
          </ns3:TrackPointExtension>
        </extensions>
      </trkpt>
      <trkpt lat="42.4489228427410125732421875" lon="20.23412254638969898223876953125">
        <ele>653.4000244140625</ele>
        <time>2026-06-20T13:18:02.000Z</time>
        <extensions>
          <ns3:TrackPointExtension>
            <ns3:atemp>30.0</ns3:atemp>
          </ns3:TrackPointExtension>
        </extensions>
      </trkpt>
      <trkpt lat="42.4489310570061206817626953125" lon="20.23425246588885784149169921875">
        <ele>652.5999755859375</ele>
        <time>2026-06-20T13:18:03.000Z</time>
        <extensions>
          <ns3:TrackPointExtension>
            <ns3:atemp>30.0</ns3:atemp>
          </ns3:TrackPointExtension>
        </extensions>
      </trkpt>
      <trkpt lat="42.4489362537860870361328125" lon="20.23438255302608013153076171875">
        <ele>651.79998779296875</ele>
        <time>2026-06-20T13:18:04.000Z</time>
        <extensions>
          <ns3:TrackPointExtension>
            <ns3:atemp>30.0</ns3:atemp>
          </ns3:TrackPointExtension>
        </extensions>
      </trkpt>
      <trkpt lat="42.44894254021346569061279296875" lon="20.234514735639095306396484375">
        <ele>651</ele>
        <time>2026-06-20T13:18:05.000Z</time>
        <extensions>
          <ns3:TrackPointExtension>
            <ns3:atemp>30.0</ns3:atemp>
          </ns3:TrackPointExtension>
        </extensions>
      </trkpt>
      <trkpt lat="42.44895142503082752227783203125" lon="20.23464960046112537384033203125">
        <ele>650.20001220703125</ele>
        <time>2026-06-20T13:18:06.000Z</time>
        <extensions>
          <ns3:TrackPointExtension>
            <ns3:atemp>30.0</ns3:atemp>
          </ns3:TrackPointExtension>
        </extensions>
      </trkpt>
      <trkpt lat="42.448959052562713623046875" lon="20.2347848005592823028564453125">
        <ele>649.4000244140625</ele>
        <time>2026-06-20T13:18:07.000Z</time>
        <extensions>
          <ns3:TrackPointExtension>
            <ns3:atemp>30.0</ns3:atemp>
          </ns3:TrackPointExtension>
        </extensions>
      </trkpt>
      <trkpt lat="42.448969781398773193359375" lon="20.234921760857105255126953125">
        <ele>648.5999755859375</ele>
        <time>2026-06-20T13:18:08.000Z</time>
        <extensions>
          <ns3:TrackPointExtension>
            <ns3:atemp>30.0</ns3:atemp>
          </ns3:TrackPointExtension>
        </extensions>
      </trkpt>
      <trkpt lat="42.44898260571062564849853515625" lon="20.23506551049649715423583984375">
        <ele>647.79998779296875</ele>
        <time>2026-06-20T13:18:09.000Z</time>
        <extensions>
          <ns3:TrackPointExtension>
            <ns3:atemp>30.0</ns3:atemp>
          </ns3:TrackPointExtension>
        </extensions>
      </trkpt>
      <trkpt lat="42.44899668730795383453369140625" lon="20.23521177470684051513671875">
        <ele>647</ele>
        <time>2026-06-20T13:18:10.000Z</time>
        <extensions>
          <ns3:TrackPointExtension>
            <ns3:atemp>30.0</ns3:atemp>
          </ns3:TrackPointExtension>
        </extensions>
      </trkpt>
      <trkpt lat="42.44901831261813640594482421875" lon="20.2353574521839618682861328125">
        <ele>646.20001220703125</ele>
        <time>2026-06-20T13:18:11.000Z</time>
        <extensions>
          <ns3:TrackPointExtension>
            <ns3:atemp>30.0</ns3:atemp>
          </ns3:TrackPointExtension>
        </extensions>
      </trkpt>
      <trkpt lat="42.44905385188758373260498046875" lon="20.23549717850983142852783203125">
        <ele>645.5999755859375</ele>
        <time>2026-06-20T13:18:12.000Z</time>
        <extensions>
          <ns3:TrackPointExtension>
            <ns3:atemp>30.0</ns3:atemp>
          </ns3:TrackPointExtension>
        </extensions>
      </trkpt>
      <trkpt lat="42.44910011999309062957763671875" lon="20.23563430644571781158447265625">
        <ele>645</ele>
        <time>2026-06-20T13:18:13.000Z</time>
        <extensions>
          <ns3:TrackPointExtension>
            <ns3:atemp>30.0</ns3:atemp>
          </ns3:TrackPointExtension>
        </extensions>
      </trkpt>
      <trkpt lat="42.44915560819208621978759765625" lon="20.2357671596109867095947265625">
        <ele>644.20001220703125</ele>
        <time>2026-06-20T13:18:14.000Z</time>
        <extensions>
          <ns3:TrackPointExtension>
            <ns3:atemp>30.0</ns3:atemp>
          </ns3:TrackPointExtension>
        </extensions>
      </trkpt>
      <trkpt lat="42.44921562261879444122314453125" lon="20.2359029464423656463623046875">
        <ele>643.20001220703125</ele>
        <time>2026-06-20T13:18:15.000Z</time>
        <extensions>
          <ns3:TrackPointExtension>
            <ns3:atemp>30.0</ns3:atemp>
          </ns3:TrackPointExtension>
        </extensions>
      </trkpt>
      <trkpt lat="42.44926826097071170806884765625" lon="20.23604367859661579132080078125">
        <ele>642.4000244140625</ele>
        <time>2026-06-20T13:18:16.000Z</time>
        <extensions>
          <ns3:TrackPointExtension>
            <ns3:atemp>30.0</ns3:atemp>
          </ns3:TrackPointExtension>
        </extensions>
      </trkpt>
      <trkpt lat="42.4493189714848995208740234375" lon="20.2361842431128025054931640625">
        <ele>641.5999755859375</ele>
        <time>2026-06-20T13:18:17.000Z</time>
        <extensions>
          <ns3:TrackPointExtension>
            <ns3:atemp>30.0</ns3:atemp>
          </ns3:TrackPointExtension>
        </extensions>
      </trkpt>
      <trkpt lat="42.44936968199908733367919921875" lon="20.23632765747606754302978515625">
        <ele>640.79998779296875</ele>
        <time>2026-06-20T13:18:18.000Z</time>
        <extensions>
          <ns3:TrackPointExtension>
            <ns3:atemp>30.0</ns3:atemp>
          </ns3:TrackPointExtension>
        </extensions>
      </trkpt>
      <trkpt lat="42.449415363371372222900390625" lon="20.23647199384868144989013671875">
        <ele>640</ele>
        <time>2026-06-20T13:18:19.000Z</time>
        <extensions>
          <ns3:TrackPointExtension>
            <ns3:atemp>30.0</ns3:atemp>
          </ns3:TrackPointExtension>
        </extensions>
      </trkpt>
      <trkpt lat="42.449454255402088165283203125" lon="20.2366214431822299957275390625">
        <ele>639</ele>
        <time>2026-06-20T13:18:20.000Z</time>
        <extensions>
          <ns3:TrackPointExtension>
            <ns3:atemp>30.0</ns3:atemp>
          </ns3:TrackPointExtension>
        </extensions>
      </trkpt>
      <trkpt lat="42.4494872801005840301513671875" lon="20.23677416145801544189453125">
        <ele>638.4000244140625</ele>
        <time>2026-06-20T13:18:21.000Z</time>
        <extensions>
          <ns3:TrackPointExtension>
            <ns3:atemp>30.0</ns3:atemp>
          </ns3:TrackPointExtension>
        </extensions>
      </trkpt>
      <trkpt lat="42.44951804168522357940673828125" lon="20.2369288913905620574951171875">
        <ele>637.5999755859375</ele>
        <time>2026-06-20T13:18:22.000Z</time>
        <extensions>
          <ns3:TrackPointExtension>
            <ns3:atemp>30.0</ns3:atemp>
          </ns3:TrackPointExtension>
        </extensions>
      </trkpt>
      <trkpt lat="42.44955089874565601348876953125" lon="20.23708320222795009613037109375">
        <ele>636.5999755859375</ele>
        <time>2026-06-20T13:18:23.000Z</time>
        <extensions>
          <ns3:TrackPointExtension>
            <ns3:atemp>30.0</ns3:atemp>
          </ns3:TrackPointExtension>
        </extensions>
      </trkpt>
      <trkpt lat="42.44958241470158100128173828125" lon="20.23724019527435302734375">
        <ele>635.5999755859375</ele>
        <time>2026-06-20T13:18:24.000Z</time>
        <extensions>
          <ns3:TrackPointExtension>
            <ns3:atemp>30.0</ns3:atemp>
          </ns3:TrackPointExtension>
        </extensions>
      </trkpt>
      <trkpt lat="42.449611164629459381103515625" lon="20.2373997867107391357421875">
        <ele>634.79998779296875</ele>
        <time>2026-06-20T13:18:25.000Z</time>
        <extensions>
          <ns3:TrackPointExtension>
            <ns3:atemp>30.0</ns3:atemp>
          </ns3:TrackPointExtension>
        </extensions>
      </trkpt>
      <trkpt lat="42.44963840581476688385009765625" lon="20.237561725080013275146484375">
        <ele>633.79998779296875</ele>
        <time>2026-06-20T13:18:26.000Z</time>
        <extensions>
          <ns3:TrackPointExtension>
            <ns3:atemp>30.0</ns3:atemp>
          </ns3:TrackPointExtension>
        </extensions>
      </trkpt>
      <trkpt lat="42.44967226870357990264892578125" lon="20.2377214841544628143310546875">
        <ele>632.5999755859375</ele>
        <time>2026-06-20T13:18:27.000Z</time>
        <extensions>
          <ns3:TrackPointExtension>
            <ns3:atemp>30.0</ns3:atemp>
          </ns3:TrackPointExtension>
        </extensions>
      </trkpt>
      <trkpt lat="42.44971417821943759918212890625" lon="20.23788250051438808441162109375">
        <ele>631.5999755859375</ele>
        <time>2026-06-20T13:18:28.000Z</time>
        <extensions>
          <ns3:TrackPointExtension>
            <ns3:atemp>30.0</ns3:atemp>
          </ns3:TrackPointExtension>
        </extensions>
      </trkpt>
      <trkpt lat="42.4497608654201030731201171875" lon="20.23803739808499813079833984375">
        <ele>630.20001220703125</ele>
        <time>2026-06-20T13:18:29.000Z</time>
        <extensions>
          <ns3:TrackPointExtension>
            <ns3:atemp>30.0</ns3:atemp>
          </ns3:TrackPointExtension>
        </extensions>
      </trkpt>
      <trkpt lat="42.4498141743242740631103515625" lon="20.2381875179708003997802734375">
        <ele>629.20001220703125</ele>
        <time>2026-06-20T13:18:30.000Z</time>
        <extensions>
          <ns3:TrackPointExtension>
            <ns3:atemp>30.0</ns3:atemp>
          </ns3:TrackPointExtension>
        </extensions>
      </trkpt>
      <trkpt lat="42.44987435638904571533203125" lon="20.23833177052438259124755859375">
        <ele>628.20001220703125</ele>
        <time>2026-06-20T13:18:31.000Z</time>
        <extensions>
          <ns3:TrackPointExtension>
            <ns3:atemp>30.0</ns3:atemp>
          </ns3:TrackPointExtension>
        </extensions>
      </trkpt>
      <trkpt lat="42.449939735233783721923828125" lon="20.2384751848876476287841796875">
        <ele>627</ele>
        <time>2026-06-20T13:18:32.000Z</time>
        <extensions>
          <ns3:TrackPointExtension>
            <ns3:atemp>30.0</ns3:atemp>
          </ns3:TrackPointExtension>
        </extensions>
      </trkpt>
      <trkpt lat="42.45000419206917285919189453125" lon="20.23862086236476898193359375">
        <ele>626</ele>
        <time>2026-06-20T13:18:33.000Z</time>
        <extensions>
          <ns3:TrackPointExtension>
            <ns3:atemp>30.0</ns3:atemp>
          </ns3:TrackPointExtension>
        </extensions>
      </trkpt>
      <trkpt lat="42.4500693194568157196044921875" lon="20.23877249099314212799072265625">
        <ele>624.4000244140625</ele>
        <time>2026-06-20T13:18:34.000Z</time>
        <extensions>
          <ns3:TrackPointExtension>
            <ns3:atemp>30.0</ns3:atemp>
          </ns3:TrackPointExtension>
        </extensions>
      </trkpt>
      <trkpt lat="42.450128830969333648681640625" lon="20.23892856203019618988037109375">
        <ele>623.20001220703125</ele>
        <time>2026-06-20T13:18:35.000Z</time>
        <extensions>
          <ns3:TrackPointExtension>
            <ns3:atemp>30.0</ns3:atemp>
          </ns3:TrackPointExtension>
        </extensions>
      </trkpt>
      <trkpt lat="42.4501853249967098236083984375" lon="20.23908899165689945220947265625">
        <ele>622</ele>
        <time>2026-06-20T13:18:36.000Z</time>
        <extensions>
          <ns3:TrackPointExtension>
            <ns3:atemp>30.0</ns3:atemp>
          </ns3:TrackPointExtension>
        </extensions>
      </trkpt>
      <trkpt lat="42.45024492032825946807861328125" lon="20.23924724198877811431884765625">
        <ele>620.79998779296875</ele>
        <time>2026-06-20T13:18:37.000Z</time>
        <extensions>
          <ns3:TrackPointExtension>
            <ns3:atemp>30.0</ns3:atemp>
          </ns3:TrackPointExtension>
        </extensions>
      </trkpt>
      <trkpt lat="42.45030527003109455108642578125" lon="20.23941018618643283843994140625">
        <ele>619.5999755859375</ele>
        <time>2026-06-20T13:18:38.000Z</time>
        <extensions>
          <ns3:TrackPointExtension>
            <ns3:atemp>30.0</ns3:atemp>
          </ns3:TrackPointExtension>
        </extensions>
      </trkpt>
      <trkpt lat="42.45036654174327850341796875" lon="20.23957329802215099334716796875">
        <ele>618</ele>
        <time>2026-06-20T13:18:39.000Z</time>
        <extensions>
          <ns3:TrackPointExtension>
            <ns3:atemp>30.0</ns3:atemp>
          </ns3:TrackPointExtension>
        </extensions>
      </trkpt>
      <trkpt lat="42.4504221975803375244140625" lon="20.2397401817142963409423828125">
        <ele>616.79998779296875</ele>
        <time>2026-06-20T13:18:40.000Z</time>
        <extensions>
          <ns3:TrackPointExtension>
            <ns3:atemp>30.0</ns3:atemp>
          </ns3:TrackPointExtension>
        </extensions>
      </trkpt>
      <trkpt lat="42.45047559030354022979736328125" lon="20.23990740068256855010986328125">
        <ele>615.5999755859375</ele>
        <time>2026-06-20T13:18:41.000Z</time>
        <extensions>
          <ns3:TrackPointExtension>
            <ns3:atemp>30.0</ns3:atemp>
          </ns3:TrackPointExtension>
        </extensions>
      </trkpt>
      <trkpt lat="42.45053510181605815887451171875" lon="20.24007235653698444366455078125">
        <ele>614.4000244140625</ele>
        <time>2026-06-20T13:18:42.000Z</time>
        <extensions>
          <ns3:TrackPointExtension>
            <ns3:atemp>30.0</ns3:atemp>
          </ns3:TrackPointExtension>
        </extensions>
      </trkpt>
      <trkpt lat="42.45060903020203113555908203125" lon="20.2402268350124359130859375">
        <ele>613</ele>
        <time>2026-06-20T13:18:43.000Z</time>
        <extensions>
          <ns3:TrackPointExtension>
            <ns3:atemp>30.0</ns3:atemp>
          </ns3:TrackPointExtension>
        </extensions>
      </trkpt>
      <trkpt lat="42.45068983174860477447509765625" lon="20.240371339023113250732421875">
        <ele>611.79998779296875</ele>
        <time>2026-06-20T13:18:44.000Z</time>
        <extensions>
          <ns3:TrackPointExtension>
            <ns3:atemp>30.0</ns3:atemp>
          </ns3:TrackPointExtension>
        </extensions>
      </trkpt>
      <trkpt lat="42.4507713876664638519287109375" lon="20.24051978252828121185302734375">
        <ele>610.79998779296875</ele>
        <time>2026-06-20T13:18:45.000Z</time>
        <extensions>
          <ns3:TrackPointExtension>
            <ns3:atemp>30.0</ns3:atemp>
          </ns3:TrackPointExtension>
        </extensions>
      </trkpt>
      <trkpt lat="42.45084992609918117523193359375" lon="20.24067115969955921173095703125">
        <ele>609.5999755859375</ele>
        <time>2026-06-20T13:18:46.000Z</time>
        <extensions>
          <ns3:TrackPointExtension>
            <ns3:atemp>30.0</ns3:atemp>
          </ns3:TrackPointExtension>
        </extensions>
      </trkpt>
      <trkpt lat="42.4509336613118648529052734375" lon="20.24082136340439319610595703125">
        <ele>608.4000244140625</ele>
        <time>2026-06-20T13:18:47.000Z</time>
        <extensions>
          <ns3:TrackPointExtension>
            <ns3:atemp>30.0</ns3:atemp>
          </ns3:TrackPointExtension>
        </extensions>
      </trkpt>
      <trkpt lat="42.45102091692388057708740234375" lon="20.240968130528926849365234375">
        <ele>606.79998779296875</ele>
        <time>2026-06-20T13:18:48.000Z</time>
        <extensions>
          <ns3:TrackPointExtension>
            <ns3:atemp>30.0</ns3:atemp>
          </ns3:TrackPointExtension>
        </extensions>
      </trkpt>
      <trkpt lat="42.4511056579649448394775390625" lon="20.241114310920238494873046875">
        <ele>605.4000244140625</ele>
        <time>2026-06-20T13:18:49.000Z</time>
        <extensions>
          <ns3:TrackPointExtension>
            <ns3:atemp>30.0</ns3:atemp>
          </ns3:TrackPointExtension>
        </extensions>
      </trkpt>
      <trkpt lat="42.45118704624474048614501953125" lon="20.2412621676921844482421875">
        <ele>604.20001220703125</ele>
        <time>2026-06-20T13:18:50.000Z</time>
        <extensions>
          <ns3:TrackPointExtension>
            <ns3:atemp>30.0</ns3:atemp>
          </ns3:TrackPointExtension>
        </extensions>
      </trkpt>
      <trkpt lat="42.45126248337328433990478515625" lon="20.24141681380569934844970703125">
        <ele>603</ele>
        <time>2026-06-20T13:18:51.000Z</time>
        <extensions>
          <ns3:TrackPointExtension>
            <ns3:atemp>30.0</ns3:atemp>
          </ns3:TrackPointExtension>
        </extensions>
      </trkpt>
      <trkpt lat="42.45132945477962493896484375" lon="20.2415728010237216949462890625">
        <ele>601.79998779296875</ele>
        <time>2026-06-20T13:18:52.000Z</time>
        <extensions>
          <ns3:TrackPointExtension>
            <ns3:atemp>30.0</ns3:atemp>
          </ns3:TrackPointExtension>
        </extensions>
      </trkpt>
      <trkpt lat="42.4513923190534114837646484375" lon="20.24173331446945667266845703125">
        <ele>600.4000244140625</ele>
        <time>2026-06-20T13:18:53.000Z</time>
        <extensions>
          <ns3:TrackPointExtension>
            <ns3:atemp>30.0</ns3:atemp>
          </ns3:TrackPointExtension>
        </extensions>
      </trkpt>
      <trkpt lat="42.4514546804130077362060546875" lon="20.2418899722397327423095703125">
        <ele>599.4000244140625</ele>
        <time>2026-06-20T13:18:54.000Z</time>
        <extensions>
          <ns3:TrackPointExtension>
            <ns3:atemp>30.0</ns3:atemp>
          </ns3:TrackPointExtension>
        </extensions>
      </trkpt>
      <trkpt lat="42.4515163712203502655029296875" lon="20.2420475520193576812744140625">
        <ele>598.4000244140625</ele>
        <time>2026-06-20T13:18:55.000Z</time>
        <extensions>
          <ns3:TrackPointExtension>
            <ns3:atemp>30.0</ns3:atemp>
          </ns3:TrackPointExtension>
        </extensions>
      </trkpt>
      <trkpt lat="42.45157697238028049468994140625" lon="20.2422071434557437896728515625">
        <ele>597.4000244140625</ele>
        <time>2026-06-20T13:18:56.000Z</time>
        <extensions>
          <ns3:TrackPointExtension>
            <ns3:atemp>30.0</ns3:atemp>
          </ns3:TrackPointExtension>
        </extensions>
      </trkpt>
      <trkpt lat="42.45164134539663791656494140625" lon="20.24236648343503475189208984375">
        <ele>596.4000244140625</ele>
        <time>2026-06-20T13:18:57.000Z</time>
        <extensions>
          <ns3:TrackPointExtension>
            <ns3:atemp>30.0</ns3:atemp>
          </ns3:TrackPointExtension>
        </extensions>
      </trkpt>
      <trkpt lat="42.45170789770781993865966796875" lon="20.2425226382911205291748046875">
        <ele>595.4000244140625</ele>
        <time>2026-06-20T13:18:58.000Z</time>
        <extensions>
          <ns3:TrackPointExtension>
            <ns3:atemp>30.0</ns3:atemp>
          </ns3:TrackPointExtension>
        </extensions>
      </trkpt>
      <trkpt lat="42.451779730618000030517578125" lon="20.242674015462398529052734375">
        <ele>594.5999755859375</ele>
        <time>2026-06-20T13:18:59.000Z</time>
        <extensions>
          <ns3:TrackPointExtension>
            <ns3:atemp>30.0</ns3:atemp>
          </ns3:TrackPointExtension>
        </extensions>
      </trkpt>
      <trkpt lat="42.45186195708811283111572265625" lon="20.24281793273985385894775390625">
        <ele>593.79998779296875</ele>
        <time>2026-06-20T13:19:00.000Z</time>
        <extensions>
          <ns3:TrackPointExtension>
            <ns3:atemp>30.0</ns3:atemp>
          </ns3:TrackPointExtension>
        </extensions>
      </trkpt>
      <trkpt lat="42.4519532360136508941650390625" lon="20.2429544739425182342529296875">
        <ele>593</ele>
        <time>2026-06-20T13:19:01.000Z</time>
        <extensions>
          <ns3:TrackPointExtension>
            <ns3:atemp>30.0</ns3:atemp>
          </ns3:TrackPointExtension>
        </extensions>
      </trkpt>
      <trkpt lat="42.4520394019782543182373046875" lon="20.24309185333549976348876953125">
        <ele>592.4000244140625</ele>
        <time>2026-06-20T13:19:02.000Z</time>
        <extensions>
          <ns3:TrackPointExtension>
            <ns3:atemp>30.0</ns3:atemp>
          </ns3:TrackPointExtension>
        </extensions>
      </trkpt>
      <trkpt lat="42.45211131870746612548828125" lon="20.24324641562998294830322265625">
        <ele>591.20001220703125</ele>
        <time>2026-06-20T13:19:03.000Z</time>
        <extensions>
          <ns3:TrackPointExtension>
            <ns3:atemp>30.0</ns3:atemp>
          </ns3:TrackPointExtension>
        </extensions>
      </trkpt>
      <trkpt lat="42.4521735124289989471435546875" lon="20.24341187439858913421630859375">
        <ele>590.4000244140625</ele>
        <time>2026-06-20T13:19:04.000Z</time>
        <extensions>
          <ns3:TrackPointExtension>
            <ns3:atemp>30.0</ns3:atemp>
          </ns3:TrackPointExtension>
        </extensions>
      </trkpt>
      <trkpt lat="42.45222791098058223724365234375" lon="20.243575572967529296875">
        <ele>589.5999755859375</ele>
        <time>2026-06-20T13:19:05.000Z</time>
        <extensions>
          <ns3:TrackPointExtension>
            <ns3:atemp>30.0</ns3:atemp>
          </ns3:TrackPointExtension>
        </extensions>
      </trkpt>
      <trkpt lat="42.45226864702999591827392578125" lon="20.24374681524932384490966796875">
        <ele>588.79998779296875</ele>
        <time>2026-06-20T13:19:06.000Z</time>
        <extensions>
          <ns3:TrackPointExtension>
            <ns3:atemp>30.0</ns3:atemp>
          </ns3:TrackPointExtension>
        </extensions>
      </trkpt>
      <trkpt lat="42.45229798369109630584716796875" lon="20.24391956627368927001953125">
        <ele>588</ele>
        <time>2026-06-20T13:19:07.000Z</time>
        <extensions>
          <ns3:TrackPointExtension>
            <ns3:atemp>30.0</ns3:atemp>
          </ns3:TrackPointExtension>
        </extensions>
      </trkpt>
      <trkpt lat="42.45232430286705493927001953125" lon="20.24409499950706958770751953125">
        <ele>587.4000244140625</ele>
        <time>2026-06-20T13:19:08.000Z</time>
        <extensions>
          <ns3:TrackPointExtension>
            <ns3:atemp>30.0</ns3:atemp>
          </ns3:TrackPointExtension>
        </extensions>
      </trkpt>
      <trkpt lat="42.45235330425202846527099609375" lon="20.244271941483020782470703125">
        <ele>586.5999755859375</ele>
        <time>2026-06-20T13:19:09.000Z</time>
        <extensions>
          <ns3:TrackPointExtension>
            <ns3:atemp>30.0</ns3:atemp>
          </ns3:TrackPointExtension>
        </extensions>
      </trkpt>
      <trkpt lat="42.45238062925636768341064453125" lon="20.24445290677249431610107421875">
        <ele>585.79998779296875</ele>
        <time>2026-06-20T13:19:10.000Z</time>
        <extensions>
          <ns3:TrackPointExtension>
            <ns3:atemp>30.0</ns3:atemp>
          </ns3:TrackPointExtension>
        </extensions>
      </trkpt>
      <trkpt lat="42.45241382159292697906494140625" lon="20.24462859146296977996826171875">
        <ele>585</ele>
        <time>2026-06-20T13:19:11.000Z</time>
        <extensions>
          <ns3:TrackPointExtension>
            <ns3:atemp>30.0</ns3:atemp>
          </ns3:TrackPointExtension>
        </extensions>
      </trkpt>
      <trkpt lat="42.452450282871723175048828125" lon="20.244808383285999298095703125">
        <ele>584.20001220703125</ele>
        <time>2026-06-20T13:19:12.000Z</time>
        <extensions>
          <ns3:TrackPointExtension>
            <ns3:atemp>30.0</ns3:atemp>
          </ns3:TrackPointExtension>
        </extensions>
      </trkpt>
      <trkpt lat="42.45248724706470966339111328125" lon="20.24498842656612396240234375">
        <ele>583.4000244140625</ele>
        <time>2026-06-20T13:19:13.000Z</time>
        <extensions>
          <ns3:TrackPointExtension>
            <ns3:atemp>30.0</ns3:atemp>
          </ns3:TrackPointExtension>
        </extensions>
      </trkpt>
      <trkpt lat="42.45252714492380619049072265625" lon="20.245167799293994903564453125">
        <ele>582.4000244140625</ele>
        <time>2026-06-20T13:19:14.000Z</time>
        <extensions>
          <ns3:TrackPointExtension>
            <ns3:atemp>30.0</ns3:atemp>
          </ns3:TrackPointExtension>
        </extensions>
      </trkpt>
      <trkpt lat="42.45256938971579074859619140625" lon="20.245350860059261322021484375">
        <ele>581.4000244140625</ele>
        <time>2026-06-20T13:19:15.000Z</time>
        <extensions>
          <ns3:TrackPointExtension>
            <ns3:atemp>30.0</ns3:atemp>
          </ns3:TrackPointExtension>
        </extensions>
      </trkpt>
      <trkpt lat="42.452603839337825775146484375" lon="20.2455349266529083251953125">
        <ele>580.5999755859375</ele>
        <time>2026-06-20T13:19:16.000Z</time>
        <extensions>
          <ns3:TrackPointExtension>
            <ns3:atemp>30.0</ns3:atemp>
          </ns3:TrackPointExtension>
        </extensions>
      </trkpt>
      <trkpt lat="42.45261901058256626129150390625" lon="20.24571555666625499725341796875">
        <ele>579.4000244140625</ele>
        <time>2026-06-20T13:19:17.000Z</time>
        <extensions>
          <ns3:TrackPointExtension>
            <ns3:atemp>30.0</ns3:atemp>
          </ns3:TrackPointExtension>
        </extensions>
      </trkpt>
      <trkpt lat="42.4526127241551876068115234375" lon="20.245884619653224945068359375">
        <ele>578.5999755859375</ele>
        <time>2026-06-20T13:19:18.000Z</time>
        <extensions>
          <ns3:TrackPointExtension>
            <ns3:atemp>30.0</ns3:atemp>
          </ns3:TrackPointExtension>
        </extensions>
      </trkpt>
      <trkpt lat="42.45258196257054805755615234375" lon="20.2460393495857715606689453125">
        <ele>577.79998779296875</ele>
        <time>2026-06-20T13:19:19.000Z</time>
        <extensions>
          <ns3:TrackPointExtension>
            <ns3:atemp>30.0</ns3:atemp>
          </ns3:TrackPointExtension>
        </extensions>
      </trkpt>
      <trkpt lat="42.45255145244300365447998046875" lon="20.24618871510028839111328125">
        <ele>577</ele>
        <time>2026-06-20T13:19:20.000Z</time>
        <extensions>
          <ns3:TrackPointExtension>
            <ns3:atemp>30.0</ns3:atemp>
          </ns3:TrackPointExtension>
        </extensions>
      </trkpt>
      <trkpt lat="42.452543489634990692138671875" lon="20.2463454566895961761474609375">
        <ele>576.4000244140625</ele>
        <time>2026-06-20T13:19:21.000Z</time>
        <extensions>
          <ns3:TrackPointExtension>
            <ns3:atemp>30.0</ns3:atemp>
          </ns3:TrackPointExtension>
        </extensions>
      </trkpt>
      <trkpt lat="42.45255078189074993133544921875" lon="20.246493816375732421875">
        <ele>575.5999755859375</ele>
        <time>2026-06-20T13:19:22.000Z</time>
        <extensions>
          <ns3:TrackPointExtension>
            <ns3:atemp>30.0</ns3:atemp>
          </ns3:TrackPointExtension>
        </extensions>
      </trkpt>
      <trkpt lat="42.45256997644901275634765625" lon="20.24663756601512432098388671875">
        <ele>575.20001220703125</ele>
        <time>2026-06-20T13:19:23.000Z</time>
        <extensions>
          <ns3:TrackPointExtension>
            <ns3:atemp>30.0</ns3:atemp>
          </ns3:TrackPointExtension>
        </extensions>
      </trkpt>
      <trkpt lat="42.45259453542530536651611328125" lon="20.246779136359691619873046875">
        <ele>574.4000244140625</ele>
        <time>2026-06-20T13:19:24.000Z</time>
        <extensions>
          <ns3:TrackPointExtension>
            <ns3:atemp>30.0</ns3:atemp>
          </ns3:TrackPointExtension>
        </extensions>
      </trkpt>
      <trkpt lat="42.45262370444834232330322265625" lon="20.246918611228466033935546875">
        <ele>573.79998779296875</ele>
        <time>2026-06-20T13:19:25.000Z</time>
        <extensions>
          <ns3:TrackPointExtension>
            <ns3:atemp>30.0</ns3:atemp>
          </ns3:TrackPointExtension>
        </extensions>
      </trkpt>
      <trkpt lat="42.45264063589274883270263671875" lon="20.24705599062144756317138671875">
        <ele>573</ele>
        <time>2026-06-20T13:19:26.000Z</time>
        <extensions>
          <ns3:TrackPointExtension>
            <ns3:atemp>30.0</ns3:atemp>
          </ns3:TrackPointExtension>
        </extensions>
      </trkpt>
      <trkpt lat="42.45263636112213134765625" lon="20.2471863292157649993896484375">
        <ele>572.20001220703125</ele>
        <time>2026-06-20T13:19:27.000Z</time>
        <extensions>
          <ns3:TrackPointExtension>
            <ns3:atemp>30.0</ns3:atemp>
          </ns3:TrackPointExtension>
        </extensions>
      </trkpt>
      <trkpt lat="42.4526221118867397308349609375" lon="20.24731817655265331268310546875">
        <ele>572</ele>
        <time>2026-06-20T13:19:28.000Z</time>
        <extensions>
          <ns3:TrackPointExtension>
            <ns3:atemp>30.0</ns3:atemp>
          </ns3:TrackPointExtension>
        </extensions>
      </trkpt>
      <trkpt lat="42.4526013247668743133544921875" lon="20.24745647795498371124267578125">
        <ele>571.5999755859375</ele>
        <time>2026-06-20T13:19:29.000Z</time>
        <extensions>
          <ns3:TrackPointExtension>
            <ns3:atemp>30.0</ns3:atemp>
          </ns3:TrackPointExtension>
        </extensions>
      </trkpt>
      <trkpt lat="42.45258078910410404205322265625" lon="20.24759729392826557159423828125">
        <ele>571</ele>
        <time>2026-06-20T13:19:30.000Z</time>
        <extensions>
          <ns3:TrackPointExtension>
            <ns3:atemp>30.0</ns3:atemp>
          </ns3:TrackPointExtension>
        </extensions>
      </trkpt>
      <trkpt lat="42.45256192982196807861328125" lon="20.247740708291530609130859375">
        <ele>570.4000244140625</ele>
        <time>2026-06-20T13:19:31.000Z</time>
        <extensions>
          <ns3:TrackPointExtension>
            <ns3:atemp>30.0</ns3:atemp>
          </ns3:TrackPointExtension>
        </extensions>
      </trkpt>
      <trkpt lat="42.452543489634990692138671875" lon="20.24788311682641506195068359375">
        <ele>569.4000244140625</ele>
        <time>2026-06-20T13:19:32.000Z</time>
        <extensions>
          <ns3:TrackPointExtension>
            <ns3:atemp>30.0</ns3:atemp>
          </ns3:TrackPointExtension>
        </extensions>
      </trkpt>
      <trkpt lat="42.45251767337322235107421875" lon="20.24802728556096553802490234375">
        <ele>568.79998779296875</ele>
        <time>2026-06-20T13:19:33.000Z</time>
        <extensions>
          <ns3:TrackPointExtension>
            <ns3:atemp>30.0</ns3:atemp>
          </ns3:TrackPointExtension>
        </extensions>
      </trkpt>
      <trkpt lat="42.45249646715819835662841796875" lon="20.24817581288516521453857421875">
        <ele>568.20001220703125</ele>
        <time>2026-06-20T13:19:34.000Z</time>
        <extensions>
          <ns3:TrackPointExtension>
            <ns3:atemp>30.0</ns3:atemp>
          </ns3:TrackPointExtension>
        </extensions>
      </trkpt>
      <trkpt lat="42.4524829722940921783447265625" lon="20.24833087809383869171142578125">
        <ele>567.5999755859375</ele>
        <time>2026-06-20T13:19:35.000Z</time>
        <extensions>
          <ns3:TrackPointExtension>
            <ns3:atemp>30.0</ns3:atemp>
          </ns3:TrackPointExtension>
        </extensions>
      </trkpt>
      <trkpt lat="42.45247182436287403106689453125" lon="20.2484905533492565155029296875">
        <ele>566.79998779296875</ele>
        <time>2026-06-20T13:19:36.000Z</time>
        <extensions>
          <ns3:TrackPointExtension>
            <ns3:atemp>30.0</ns3:atemp>
          </ns3:TrackPointExtension>
        </extensions>
      </trkpt>
      <trkpt lat="42.45246260426938533782958984375" lon="20.248650647699832916259765625">
        <ele>566.4000244140625</ele>
        <time>2026-06-20T13:19:37.000Z</time>
        <extensions>
          <ns3:TrackPointExtension>
            <ns3:atemp>30.0</ns3:atemp>
          </ns3:TrackPointExtension>
        </extensions>
      </trkpt>
      <trkpt lat="42.45245589874684810638427734375" lon="20.24881300516426563262939453125">
        <ele>565.79998779296875</ele>
        <time>2026-06-20T13:19:38.000Z</time>
        <extensions>
          <ns3:TrackPointExtension>
            <ns3:atemp>30.0</ns3:atemp>
          </ns3:TrackPointExtension>
        </extensions>
      </trkpt>
      <trkpt lat="42.45245908387005329132080078125" lon="20.24897930212318897247314453125">
        <ele>565.20001220703125</ele>
        <time>2026-06-20T13:19:39.000Z</time>
        <extensions>
          <ns3:TrackPointExtension>
            <ns3:atemp>30.0</ns3:atemp>
          </ns3:TrackPointExtension>
        </extensions>
      </trkpt>
      <trkpt lat="42.4524601735174655914306640625" lon="20.24913721717894077301025390625">
        <ele>564.79998779296875</ele>
        <time>2026-06-20T13:19:40.000Z</time>
        <extensions>
          <ns3:TrackPointExtension>
            <ns3:atemp>30.0</ns3:atemp>
          </ns3:TrackPointExtension>
        </extensions>
      </trkpt>
      <trkpt lat="42.45246193371713161468505859375" lon="20.24929513223469257354736328125">
        <ele>564</ele>
        <time>2026-06-20T13:19:41.000Z</time>
        <extensions>
          <ns3:TrackPointExtension>
            <ns3:atemp>30.0</ns3:atemp>
          </ns3:TrackPointExtension>
        </extensions>
      </trkpt>
      <trkpt lat="42.45246595703065395355224609375" lon="20.24945028126239776611328125">
        <ele>563.4000244140625</ele>
        <time>2026-06-20T13:19:42.000Z</time>
        <extensions>
          <ns3:TrackPointExtension>
            <ns3:atemp>30.0</ns3:atemp>
          </ns3:TrackPointExtension>
        </extensions>
      </trkpt>
      <trkpt lat="42.45247316546738147735595703125" lon="20.24960358627140522003173828125">
        <ele>563</ele>
        <time>2026-06-20T13:19:43.000Z</time>
        <extensions>
          <ns3:TrackPointExtension>
            <ns3:atemp>30.0</ns3:atemp>
          </ns3:TrackPointExtension>
        </extensions>
      </trkpt>
      <trkpt lat="42.4524802900850772857666015625" lon="20.24974607862532138824462890625">
        <ele>562.4000244140625</ele>
        <time>2026-06-20T13:19:44.000Z</time>
        <extensions>
          <ns3:TrackPointExtension>
            <ns3:atemp>30.0</ns3:atemp>
          </ns3:TrackPointExtension>
        </extensions>
      </trkpt>
      <trkpt lat="42.452483810484409332275390625" lon="20.2498832903802394866943359375">
        <ele>561.79998779296875</ele>
        <time>2026-06-20T13:19:45.000Z</time>
        <extensions>
          <ns3:TrackPointExtension>
            <ns3:atemp>30.0</ns3:atemp>
          </ns3:TrackPointExtension>
        </extensions>
      </trkpt>
      <trkpt lat="42.4524869956076145172119140625" lon="20.25002117268741130828857421875">
        <ele>561.20001220703125</ele>
        <time>2026-06-20T13:19:46.000Z</time>
        <extensions>
          <ns3:TrackPointExtension>
            <ns3:atemp>30.0</ns3:atemp>
          </ns3:TrackPointExtension>
        </extensions>
      </trkpt>
      <trkpt lat="42.45249344967305660247802734375" lon="20.25015913881361484527587890625">
        <ele>560.79998779296875</ele>
        <time>2026-06-20T13:19:47.000Z</time>
        <extensions>
          <ns3:TrackPointExtension>
            <ns3:atemp>30.0</ns3:atemp>
          </ns3:TrackPointExtension>
        </extensions>
      </trkpt>
      <trkpt lat="42.45250434614717960357666015625" lon="20.25028847157955169677734375">
        <ele>560.5999755859375</ele>
        <time>2026-06-20T13:19:48.000Z</time>
        <extensions>
          <ns3:TrackPointExtension>
            <ns3:atemp>30.0</ns3:atemp>
          </ns3:TrackPointExtension>
        </extensions>
      </trkpt>
      <trkpt lat="42.45251230895519256591796875" lon="20.2504153735935688018798828125">
        <ele>560.4000244140625</ele>
        <time>2026-06-20T13:19:49.000Z</time>
        <extensions>
          <ns3:TrackPointExtension>
            <ns3:atemp>30.0</ns3:atemp>
          </ns3:TrackPointExtension>
        </extensions>
      </trkpt>
      <trkpt lat="42.45252077467739582061767578125" lon="20.2505421079695224761962890625">
        <ele>560.20001220703125</ele>
        <time>2026-06-20T13:19:50.000Z</time>
        <extensions>
          <ns3:TrackPointExtension>
            <ns3:atemp>30.0</ns3:atemp>
          </ns3:TrackPointExtension>
        </extensions>
      </trkpt>
      <trkpt lat="42.4525322578847408294677734375" lon="20.25067026726901531219482421875">
        <ele>560</ele>
        <time>2026-06-20T13:19:51.000Z</time>
        <extensions>
          <ns3:TrackPointExtension>
            <ns3:atemp>30.0</ns3:atemp>
          </ns3:TrackPointExtension>
        </extensions>
      </trkpt>
      <trkpt lat="42.4525272287428379058837890625" lon="20.25079783983528614044189453125">
        <ele>559.79998779296875</ele>
        <time>2026-06-20T13:19:52.000Z</time>
        <extensions>
          <ns3:TrackPointExtension>
            <ns3:atemp>30.0</ns3:atemp>
          </ns3:TrackPointExtension>
        </extensions>
      </trkpt>
      <trkpt lat="42.4525007419288158416748046875" lon="20.250914432108402252197265625">
        <ele>559.5999755859375</ele>
        <time>2026-06-20T13:19:53.000Z</time>
        <extensions>
          <ns3:TrackPointExtension>
            <ns3:atemp>30.0</ns3:atemp>
          </ns3:TrackPointExtension>
        </extensions>
      </trkpt>
      <trkpt lat="42.45247215963900089263916015625" lon="20.25102431885898113250732421875">
        <ele>559</ele>
        <time>2026-06-20T13:19:54.000Z</time>
        <extensions>
          <ns3:TrackPointExtension>
            <ns3:atemp>30.0</ns3:atemp>
          </ns3:TrackPointExtension>
        </extensions>
      </trkpt>
      <trkpt lat="42.45244516991078853607177734375" lon="20.2511345408856868743896484375">
        <ele>558.5999755859375</ele>
        <time>2026-06-20T13:19:55.000Z</time>
        <extensions>
          <ns3:TrackPointExtension>
            <ns3:atemp>30.0</ns3:atemp>
          </ns3:TrackPointExtension>
        </extensions>
      </trkpt>
      <trkpt lat="42.45241968892514705657958984375" lon="20.25125138461589813232421875">
        <ele>558</ele>
        <time>2026-06-20T13:19:56.000Z</time>
        <extensions>
          <ns3:TrackPointExtension>
            <ns3:atemp>30.0</ns3:atemp>
          </ns3:TrackPointExtension>
        </extensions>
      </trkpt>
      <trkpt lat="42.45239538140594959259033203125" lon="20.25136428885161876678466796875">
        <ele>557.20001220703125</ele>
        <time>2026-06-20T13:19:57.000Z</time>
        <extensions>
          <ns3:TrackPointExtension>
            <ns3:atemp>30.0</ns3:atemp>
          </ns3:TrackPointExtension>
        </extensions>
      </trkpt>
      <trkpt lat="42.45236922986805438995361328125" lon="20.2514805458486080169677734375">
        <ele>556.79998779296875</ele>
        <time>2026-06-20T13:19:58.000Z</time>
        <extensions>
          <ns3:TrackPointExtension>
            <ns3:atemp>30.0</ns3:atemp>
          </ns3:TrackPointExtension>
        </extensions>
      </trkpt>
      <trkpt lat="42.45234358124434947967529296875" lon="20.25159604847431182861328125">
        <ele>556.4000244140625</ele>
        <time>2026-06-20T13:19:59.000Z</time>
        <extensions>
          <ns3:TrackPointExtension>
            <ns3:atemp>30.0</ns3:atemp>
          </ns3:TrackPointExtension>
        </extensions>
      </trkpt>
      <trkpt lat="42.452322877943515777587890625" lon="20.251710377633571624755859375">
        <ele>556</ele>
        <time>2026-06-20T13:20:00.000Z</time>
        <extensions>
          <ns3:TrackPointExtension>
            <ns3:atemp>30.0</ns3:atemp>
          </ns3:TrackPointExtension>
        </extensions>
      </trkpt>
      <trkpt lat="42.45230552740395069122314453125" lon="20.25182596407830715179443359375">
        <ele>555.4000244140625</ele>
        <time>2026-06-20T13:20:01.000Z</time>
        <extensions>
          <ns3:TrackPointExtension>
            <ns3:atemp>30.0</ns3:atemp>
          </ns3:TrackPointExtension>
        </extensions>
      </trkpt>
      <trkpt lat="42.45229060761630535125732421875" lon="20.25194196961820125579833984375">
        <ele>555</ele>
        <time>2026-06-20T13:20:02.000Z</time>
        <extensions>
          <ns3:TrackPointExtension>
            <ns3:atemp>30.0</ns3:atemp>
          </ns3:TrackPointExtension>
        </extensions>
      </trkpt>
      <trkpt lat="42.4522777833044528961181640625" lon="20.25205914862453937530517578125">
        <ele>554.5999755859375</ele>
        <time>2026-06-20T13:20:03.000Z</time>
        <extensions>
          <ns3:TrackPointExtension>
            <ns3:atemp>30.0</ns3:atemp>
          </ns3:TrackPointExtension>
        </extensions>
      </trkpt>
      <trkpt lat="42.45227132923901081085205078125" lon="20.25217532180249691009521484375">
        <ele>554.4000244140625</ele>
        <time>2026-06-20T13:20:04.000Z</time>
        <extensions>
          <ns3:TrackPointExtension>
            <ns3:atemp>30.0</ns3:atemp>
          </ns3:TrackPointExtension>
        </extensions>
      </trkpt>
      <trkpt lat="42.45227091014385223388671875" lon="20.2522922493517398834228515625">
        <ele>554.20001220703125</ele>
        <time>2026-06-20T13:20:05.000Z</time>
        <extensions>
          <ns3:TrackPointExtension>
            <ns3:atemp>30.0</ns3:atemp>
          </ns3:TrackPointExtension>
        </extensions>
      </trkpt>
      <trkpt lat="42.45227493345737457275390625" lon="20.25241035036742687225341796875">
        <ele>554</ele>
        <time>2026-06-20T13:20:06.000Z</time>
        <extensions>
          <ns3:TrackPointExtension>
            <ns3:atemp>30.0</ns3:atemp>
          </ns3:TrackPointExtension>
        </extensions>
      </trkpt>
      <trkpt lat="42.452278621494770050048828125" lon="20.2525249309837818145751953125">
        <ele>553.79998779296875</ele>
        <time>2026-06-20T13:20:07.000Z</time>
        <extensions>
          <ns3:TrackPointExtension>
            <ns3:atemp>30.0</ns3:atemp>
          </ns3:TrackPointExtension>
        </extensions>
      </trkpt>
      <trkpt lat="42.45228272862732410430908203125" lon="20.2526382543146610260009765625">
        <ele>553.79998779296875</ele>
        <time>2026-06-20T13:20:08.000Z</time>
        <extensions>
          <ns3:TrackPointExtension>
            <ns3:atemp>30.0</ns3:atemp>
          </ns3:TrackPointExtension>
        </extensions>
      </trkpt>
      <trkpt lat="42.45228792540729045867919921875" lon="20.25275065563619136810302734375">
        <ele>553.5999755859375</ele>
        <time>2026-06-20T13:20:09.000Z</time>
        <extensions>
          <ns3:TrackPointExtension>
            <ns3:atemp>30.0</ns3:atemp>
          </ns3:TrackPointExtension>
        </extensions>
      </trkpt>
      <trkpt lat="42.4522911943495273590087890625" lon="20.25286071002483367919921875">
        <ele>553.4000244140625</ele>
        <time>2026-06-20T13:20:10.000Z</time>
        <extensions>
          <ns3:TrackPointExtension>
            <ns3:atemp>30.0</ns3:atemp>
          </ns3:TrackPointExtension>
        </extensions>
      </trkpt>
      <trkpt lat="42.4522841535508632659912109375" lon="20.2529711835086345672607421875">
        <ele>553.20001220703125</ele>
        <time>2026-06-20T13:20:11.000Z</time>
        <extensions>
          <ns3:TrackPointExtension>
            <ns3:atemp>30.0</ns3:atemp>
          </ns3:TrackPointExtension>
        </extensions>
      </trkpt>
      <trkpt lat="42.45226378552615642547607421875" lon="20.2530751191079616546630859375">
        <ele>552.79998779296875</ele>
        <time>2026-06-20T13:20:12.000Z</time>
        <extensions>
          <ns3:TrackPointExtension>
            <ns3:atemp>30.0</ns3:atemp>
          </ns3:TrackPointExtension>
        </extensions>
      </trkpt>
      <trkpt lat="42.45222556404769420623779296875" lon="20.25317042134702205657958984375">
        <ele>552.5999755859375</ele>
        <time>2026-06-20T13:20:13.000Z</time>
        <extensions>
          <ns3:TrackPointExtension>
            <ns3:atemp>30.0</ns3:atemp>
          </ns3:TrackPointExtension>
        </extensions>
      </trkpt>
      <trkpt lat="42.45218600146472454071044921875" lon="20.2532571740448474884033203125">
        <ele>552.20001220703125</ele>
        <time>2026-06-20T13:20:14.000Z</time>
        <extensions>
          <ns3:TrackPointExtension>
            <ns3:atemp>30.0</ns3:atemp>
          </ns3:TrackPointExtension>
        </extensions>
      </trkpt>
      <trkpt lat="42.4521476961672306060791015625" lon="20.25334979407489299774169921875">
        <ele>551.79998779296875</ele>
        <time>2026-06-20T13:20:15.000Z</time>
        <extensions>
          <ns3:TrackPointExtension>
            <ns3:atemp>30.0</ns3:atemp>
          </ns3:TrackPointExtension>
        </extensions>
      </trkpt>
      <trkpt lat="42.45211475528776645660400390625" lon="20.25343998335301876068115234375">
        <ele>551.4000244140625</ele>
        <time>2026-06-20T13:20:16.000Z</time>
        <extensions>
          <ns3:TrackPointExtension>
            <ns3:atemp>30.0</ns3:atemp>
          </ns3:TrackPointExtension>
        </extensions>
      </trkpt>
      <trkpt lat="42.4520876817405223846435546875" lon="20.253538303077220916748046875">
        <ele>551.20001220703125</ele>
        <time>2026-06-20T13:20:17.000Z</time>
        <extensions>
          <ns3:TrackPointExtension>
            <ns3:atemp>30.0</ns3:atemp>
          </ns3:TrackPointExtension>
        </extensions>
      </trkpt>
      <trkpt lat="42.45206999592483043670654296875" lon="20.2536353655159473419189453125">
        <ele>551</ele>
        <time>2026-06-20T13:20:18.000Z</time>
        <extensions>
          <ns3:TrackPointExtension>
            <ns3:atemp>30.0</ns3:atemp>
          </ns3:TrackPointExtension>
        </extensions>
      </trkpt>
      <trkpt lat="42.45205901563167572021484375" lon="20.25374139659106731414794921875">
        <ele>550.79998779296875</ele>
        <time>2026-06-20T13:20:19.000Z</time>
        <extensions>
          <ns3:TrackPointExtension>
            <ns3:atemp>30.0</ns3:atemp>
          </ns3:TrackPointExtension>
        </extensions>
      </trkpt>
      <trkpt lat="42.45205239392817020416259765625" lon="20.2538425661623477935791015625">
        <ele>550.5999755859375</ele>
        <time>2026-06-20T13:20:20.000Z</time>
        <extensions>
          <ns3:TrackPointExtension>
            <ns3:atemp>30.0</ns3:atemp>
          </ns3:TrackPointExtension>
        </extensions>
      </trkpt>
      <trkpt lat="42.45205222629010677337646484375" lon="20.25394440628588199615478515625">
        <ele>550.5999755859375</ele>
        <time>2026-06-20T13:20:21.000Z</time>
        <extensions>
          <ns3:TrackPointExtension>
            <ns3:atemp>30.0</ns3:atemp>
          </ns3:TrackPointExtension>
        </extensions>
      </trkpt>
      <trkpt lat="42.452054321765899658203125" lon="20.25405052118003368377685546875">
        <ele>550.4000244140625</ele>
        <time>2026-06-20T13:20:22.000Z</time>
        <extensions>
          <ns3:TrackPointExtension>
            <ns3:atemp>30.0</ns3:atemp>
          </ns3:TrackPointExtension>
        </extensions>
      </trkpt>
      <trkpt lat="42.45206362567842006683349609375" lon="20.25415462441742420196533203125">
        <ele>550.20001220703125</ele>
        <time>2026-06-20T13:20:23.000Z</time>
        <extensions>
          <ns3:TrackPointExtension>
            <ns3:atemp>30.0</ns3:atemp>
          </ns3:TrackPointExtension>
        </extensions>
      </trkpt>
      <trkpt lat="42.4520819820463657379150390625" lon="20.2542546205222606658935546875">
        <ele>550</ele>
        <time>2026-06-20T13:20:24.000Z</time>
        <extensions>
          <ns3:TrackPointExtension>
            <ns3:atemp>30.0</ns3:atemp>
          </ns3:TrackPointExtension>
        </extensions>
      </trkpt>
      <trkpt lat="42.4521067924797534942626953125" lon="20.2543474920094013214111328125">
        <ele>549.79998779296875</ele>
        <time>2026-06-20T13:20:25.000Z</time>
        <extensions>
          <ns3:TrackPointExtension>
            <ns3:atemp>30.0</ns3:atemp>
          </ns3:TrackPointExtension>
        </extensions>
      </trkpt>
      <trkpt lat="42.452134788036346435546875" lon="20.25443726219236850738525390625">
        <ele>549.5999755859375</ele>
        <time>2026-06-20T13:20:26.000Z</time>
        <extensions>
          <ns3:TrackPointExtension>
            <ns3:atemp>30.0</ns3:atemp>
          </ns3:TrackPointExtension>
        </extensions>
      </trkpt>
      <trkpt lat="42.45215716771781444549560546875" lon="20.25452636182308197021484375">
        <ele>549.4000244140625</ele>
        <time>2026-06-20T13:20:27.000Z</time>
        <extensions>
          <ns3:TrackPointExtension>
            <ns3:atemp>30.0</ns3:atemp>
          </ns3:TrackPointExtension>
        </extensions>
      </trkpt>
      <trkpt lat="42.45217426680028438568115234375" lon="20.254619903862476348876953125">
        <ele>549.20001220703125</ele>
        <time>2026-06-20T13:20:28.000Z</time>
        <extensions>
          <ns3:TrackPointExtension>
            <ns3:atemp>30.0</ns3:atemp>
          </ns3:TrackPointExtension>
        </extensions>
      </trkpt>
      <trkpt lat="42.45217812247574329376220703125" lon="20.2547105960547924041748046875">
        <ele>549.20001220703125</ele>
        <time>2026-06-20T13:20:29.000Z</time>
        <extensions>
          <ns3:TrackPointExtension>
            <ns3:atemp>30.0</ns3:atemp>
          </ns3:TrackPointExtension>
        </extensions>
      </trkpt>
      <trkpt lat="42.45217879302799701690673828125" lon="20.254801623523235321044921875">
        <ele>548.79998779296875</ele>
        <time>2026-06-20T13:20:30.000Z</time>
        <extensions>
          <ns3:TrackPointExtension>
            <ns3:atemp>30.0</ns3:atemp>
          </ns3:TrackPointExtension>
        </extensions>
      </trkpt>
      <trkpt lat="42.45217460207641124725341796875" lon="20.25489273481070995330810546875">
        <ele>548.4000244140625</ele>
        <time>2026-06-20T13:20:31.000Z</time>
        <extensions>
          <ns3:TrackPointExtension>
            <ns3:atemp>30.0</ns3:atemp>
          </ns3:TrackPointExtension>
        </extensions>
      </trkpt>
      <trkpt lat="42.45217208750545978546142578125" lon="20.254990048706531524658203125">
        <ele>548.20001220703125</ele>
        <time>2026-06-20T13:20:32.000Z</time>
        <extensions>
          <ns3:TrackPointExtension>
            <ns3:atemp>30.0</ns3:atemp>
          </ns3:TrackPointExtension>
        </extensions>
      </trkpt>
      <trkpt lat="42.45216898620128631591796875" lon="20.255089960992336273193359375">
        <ele>547.79998779296875</ele>
        <time>2026-06-20T13:20:33.000Z</time>
        <extensions>
          <ns3:TrackPointExtension>
            <ns3:atemp>30.0</ns3:atemp>
          </ns3:TrackPointExtension>
        </extensions>
      </trkpt>
      <trkpt lat="42.45216571725904941558837890625" lon="20.2551933936774730682373046875">
        <ele>547.5999755859375</ele>
        <time>2026-06-20T13:20:34.000Z</time>
        <extensions>
          <ns3:TrackPointExtension>
            <ns3:atemp>30.0</ns3:atemp>
          </ns3:TrackPointExtension>
        </extensions>
      </trkpt>
      <trkpt lat="42.4521530605852603912353515625" lon="20.25529481470584869384765625">
        <ele>547</ele>
        <time>2026-06-20T13:20:35.000Z</time>
        <extensions>
          <ns3:TrackPointExtension>
            <ns3:atemp>30.0</ns3:atemp>
          </ns3:TrackPointExtension>
        </extensions>
      </trkpt>
      <trkpt lat="42.4521356262266635894775390625" lon="20.25539615191519260406494140625">
        <ele>546.79998779296875</ele>
        <time>2026-06-20T13:20:36.000Z</time>
        <extensions>
          <ns3:TrackPointExtension>
            <ns3:atemp>30.0</ns3:atemp>
          </ns3:TrackPointExtension>
        </extensions>
      </trkpt>
      <trkpt lat="42.4521146714687347412109375" lon="20.25549807585775852203369140625">
        <ele>546.4000244140625</ele>
        <time>2026-06-20T13:20:37.000Z</time>
        <extensions>
          <ns3:TrackPointExtension>
            <ns3:atemp>30.0</ns3:atemp>
          </ns3:TrackPointExtension>
        </extensions>
      </trkpt>
      <trkpt lat="42.4520930461585521697998046875" lon="20.2556025981903076171875">
        <ele>546</ele>
        <time>2026-06-20T13:20:38.000Z</time>
        <extensions>
          <ns3:TrackPointExtension>
            <ns3:atemp>30.0</ns3:atemp>
          </ns3:TrackPointExtension>
        </extensions>
      </trkpt>
      <trkpt lat="42.452076114714145660400390625" lon="20.2557134069502353668212890625">
        <ele>545.5999755859375</ele>
        <time>2026-06-20T13:20:39.000Z</time>
        <extensions>
          <ns3:TrackPointExtension>
            <ns3:atemp>30.0</ns3:atemp>
          </ns3:TrackPointExtension>
        </extensions>
      </trkpt>
      <trkpt lat="42.45205675251781940460205078125" lon="20.2558253891766071319580078125">
        <ele>545.20001220703125</ele>
        <time>2026-06-20T13:20:40.000Z</time>
        <extensions>
          <ns3:TrackPointExtension>
            <ns3:atemp>30.0</ns3:atemp>
          </ns3:TrackPointExtension>
        </extensions>
      </trkpt>
      <trkpt lat="42.45204300619661808013916015625" lon="20.255936197936534881591796875">
        <ele>544.79998779296875</ele>
        <time>2026-06-20T13:20:41.000Z</time>
        <extensions>
          <ns3:TrackPointExtension>
            <ns3:atemp>30.0</ns3:atemp>
          </ns3:TrackPointExtension>
        </extensions>
      </trkpt>
      <trkpt lat="42.4520353786647319793701171875" lon="20.25604675523936748504638671875">
        <ele>544.20001220703125</ele>
        <time>2026-06-20T13:20:42.000Z</time>
        <extensions>
          <ns3:TrackPointExtension>
            <ns3:atemp>30.0</ns3:atemp>
          </ns3:TrackPointExtension>
        </extensions>
      </trkpt>
      <trkpt lat="42.452032528817653656005859375" lon="20.25615580379962921142578125">
        <ele>543.79998779296875</ele>
        <time>2026-06-20T13:20:43.000Z</time>
        <extensions>
          <ns3:TrackPointExtension>
            <ns3:atemp>30.0</ns3:atemp>
          </ns3:TrackPointExtension>
        </extensions>
      </trkpt>
      <trkpt lat="42.45203294791281223297119140625" lon="20.25627122260630130767822265625">
        <ele>543.4000244140625</ele>
        <time>2026-06-20T13:20:44.000Z</time>
        <extensions>
          <ns3:TrackPointExtension>
            <ns3:atemp>30.0</ns3:atemp>
          </ns3:TrackPointExtension>
        </extensions>
      </trkpt>
      <trkpt lat="42.45203621685504913330078125" lon="20.2563896588981151580810546875">
        <ele>542.79998779296875</ele>
        <time>2026-06-20T13:20:45.000Z</time>
        <extensions>
          <ns3:TrackPointExtension>
            <ns3:atemp>30.0</ns3:atemp>
          </ns3:TrackPointExtension>
        </extensions>
      </trkpt>
      <trkpt lat="42.45203831233084201812744140625" lon="20.25650985538959503173828125">
        <ele>542.5999755859375</ele>
        <time>2026-06-20T13:20:46.000Z</time>
        <extensions>
          <ns3:TrackPointExtension>
            <ns3:atemp>30.0</ns3:atemp>
          </ns3:TrackPointExtension>
        </extensions>
      </trkpt>
      <trkpt lat="42.4520394019782543182373046875" lon="20.25663164444267749786376953125">
        <ele>542.20001220703125</ele>
        <time>2026-06-20T13:20:47.000Z</time>
        <extensions>
          <ns3:TrackPointExtension>
            <ns3:atemp>30.0</ns3:atemp>
          </ns3:TrackPointExtension>
        </extensions>
      </trkpt>
      <trkpt lat="42.45204233564436435699462890625" lon="20.25675284676253795623779296875">
        <ele>541.5999755859375</ele>
        <time>2026-06-20T13:20:48.000Z</time>
        <extensions>
          <ns3:TrackPointExtension>
            <ns3:atemp>30.0</ns3:atemp>
          </ns3:TrackPointExtension>
        </extensions>
      </trkpt>
      <trkpt lat="42.4520518071949481964111328125" lon="20.25687119923532009124755859375">
        <ele>540.79998779296875</ele>
        <time>2026-06-20T13:20:49.000Z</time>
        <extensions>
          <ns3:TrackPointExtension>
            <ns3:atemp>30.0</ns3:atemp>
          </ns3:TrackPointExtension>
        </extensions>
      </trkpt>
      <trkpt lat="42.45206572115421295166015625" lon="20.256990306079387664794921875">
        <ele>540.20001220703125</ele>
        <time>2026-06-20T13:20:50.000Z</time>
        <extensions>
          <ns3:TrackPointExtension>
            <ns3:atemp>30.0</ns3:atemp>
          </ns3:TrackPointExtension>
        </extensions>
      </trkpt>
      <trkpt lat="42.4520883522927761077880859375" lon="20.25710488669574260711669921875">
        <ele>539.5999755859375</ele>
        <time>2026-06-20T13:20:51.000Z</time>
        <extensions>
          <ns3:TrackPointExtension>
            <ns3:atemp>30.0</ns3:atemp>
          </ns3:TrackPointExtension>
        </extensions>
      </trkpt>
      <trkpt lat="42.452119030058383941650390625" lon="20.257220305502414703369140625">
        <ele>539</ele>
        <time>2026-06-20T13:20:52.000Z</time>
        <extensions>
          <ns3:TrackPointExtension>
            <ns3:atemp>30.0</ns3:atemp>
          </ns3:TrackPointExtension>
        </extensions>
      </trkpt>
      <trkpt lat="42.4521574191749095916748046875" lon="20.2573327906429767608642578125">
        <ele>538.5999755859375</ele>
        <time>2026-06-20T13:20:53.000Z</time>
        <extensions>
          <ns3:TrackPointExtension>
            <ns3:atemp>30.0</ns3:atemp>
          </ns3:TrackPointExtension>
        </extensions>
      </trkpt>
      <trkpt lat="42.45219991542398929595947265625" lon="20.2574437670409679412841796875">
        <ele>538</ele>
        <time>2026-06-20T13:20:54.000Z</time>
        <extensions>
          <ns3:TrackPointExtension>
            <ns3:atemp>30.0</ns3:atemp>
          </ns3:TrackPointExtension>
        </extensions>
      </trkpt>
      <trkpt lat="42.452244423329830169677734375" lon="20.25755700655281543731689453125">
        <ele>537.5999755859375</ele>
        <time>2026-06-20T13:20:55.000Z</time>
        <extensions>
          <ns3:TrackPointExtension>
            <ns3:atemp>30.0</ns3:atemp>
          </ns3:TrackPointExtension>
        </extensions>
      </trkpt>
      <trkpt lat="42.45229312218725681304931640625" lon="20.25766915641725063323974609375">
        <ele>537</ele>
        <time>2026-06-20T13:20:56.000Z</time>
        <extensions>
          <ns3:TrackPointExtension>
            <ns3:atemp>30.0</ns3:atemp>
          </ns3:TrackPointExtension>
        </extensions>
      </trkpt>
      <trkpt lat="42.4523418210446834564208984375" lon="20.25778851471841335296630859375">
        <ele>536.20001220703125</ele>
        <time>2026-06-20T13:20:57.000Z</time>
        <extensions>
          <ns3:TrackPointExtension>
            <ns3:atemp>30.0</ns3:atemp>
          </ns3:TrackPointExtension>
        </extensions>
      </trkpt>
      <trkpt lat="42.4523901008069515228271484375" lon="20.25791256688535213470458984375">
        <ele>535.5999755859375</ele>
        <time>2026-06-20T13:20:58.000Z</time>
        <extensions>
          <ns3:TrackPointExtension>
            <ns3:atemp>30.0</ns3:atemp>
          </ns3:TrackPointExtension>
        </extensions>
      </trkpt>
      <trkpt lat="42.45242304168641567230224609375" lon="20.2580455876886844635009765625">
        <ele>534.5999755859375</ele>
        <time>2026-06-20T13:20:59.000Z</time>
        <extensions>
          <ns3:TrackPointExtension>
            <ns3:atemp>30.0</ns3:atemp>
          </ns3:TrackPointExtension>
        </extensions>
      </trkpt>
      <trkpt lat="42.4524407275021076202392578125" lon="20.25818447582423686981201171875">
        <ele>533.79998779296875</ele>
        <time>2026-06-20T13:21:00.000Z</time>
        <extensions>
          <ns3:TrackPointExtension>
            <ns3:atemp>30.0</ns3:atemp>
          </ns3:TrackPointExtension>
        </extensions>
      </trkpt>
      <trkpt lat="42.45245858095586299896240234375" lon="20.25831959210336208343505859375">
        <ele>533.20001220703125</ele>
        <time>2026-06-20T13:21:01.000Z</time>
        <extensions>
          <ns3:TrackPointExtension>
            <ns3:atemp>30.0</ns3:atemp>
          </ns3:TrackPointExtension>
        </extensions>
      </trkpt>
      <trkpt lat="42.4524742551147937774658203125" lon="20.25844884105026721954345703125">
        <ele>532.5999755859375</ele>
        <time>2026-06-20T13:21:02.000Z</time>
        <extensions>
          <ns3:TrackPointExtension>
            <ns3:atemp>30.0</ns3:atemp>
          </ns3:TrackPointExtension>
        </extensions>
      </trkpt>
      <trkpt lat="42.45248774997889995574951171875" lon="20.25857917964458465576171875">
        <ele>532</ele>
        <time>2026-06-20T13:21:03.000Z</time>
        <extensions>
          <ns3:TrackPointExtension>
            <ns3:atemp>30.0</ns3:atemp>
          </ns3:TrackPointExtension>
        </extensions>
      </trkpt>
      <trkpt lat="42.4525061063468456268310546875" lon="20.258704908192157745361328125">
        <ele>531.5999755859375</ele>
        <time>2026-06-20T13:21:04.000Z</time>
        <extensions>
          <ns3:TrackPointExtension>
            <ns3:atemp>30.0</ns3:atemp>
          </ns3:TrackPointExtension>
        </extensions>
      </trkpt>
      <trkpt lat="42.45251893065869808197021484375" lon="20.25882770307362079620361328125">
        <ele>531.4000244140625</ele>
        <time>2026-06-20T13:21:05.000Z</time>
        <extensions>
          <ns3:TrackPointExtension>
            <ns3:atemp>30.0</ns3:atemp>
          </ns3:TrackPointExtension>
        </extensions>
      </trkpt>
      <trkpt lat="42.45252563618123531341552734375" lon="20.258948989212512969970703125">
        <ele>531</ele>
        <time>2026-06-20T13:21:06.000Z</time>
        <extensions>
          <ns3:TrackPointExtension>
            <ns3:atemp>30.0</ns3:atemp>
          </ns3:TrackPointExtension>
        </extensions>
      </trkpt>
      <trkpt lat="42.45252706110477447509765625" lon="20.2590675093233585357666015625">
        <ele>530.79998779296875</ele>
        <time>2026-06-20T13:21:07.000Z</time>
        <extensions>
          <ns3:TrackPointExtension>
            <ns3:atemp>30.0</ns3:atemp>
          </ns3:TrackPointExtension>
        </extensions>
      </trkpt>
      <trkpt lat="42.45251792483031749725341796875" lon="20.2591778151690959930419921875">
        <ele>530.4000244140625</ele>
        <time>2026-06-20T13:21:08.000Z</time>
        <extensions>
          <ns3:TrackPointExtension>
            <ns3:atemp>30.0</ns3:atemp>
          </ns3:TrackPointExtension>
        </extensions>
      </trkpt>
      <trkpt lat="42.45250719599425792694091796875" lon="20.259287618100643157958984375">
        <ele>530</ele>
        <time>2026-06-20T13:21:09.000Z</time>
        <extensions>
          <ns3:TrackPointExtension>
            <ns3:atemp>30.0</ns3:atemp>
          </ns3:TrackPointExtension>
        </extensions>
      </trkpt>
      <trkpt lat="42.45248221792280673980712890625" lon="20.25939381681382656097412109375">
        <ele>529.79998779296875</ele>
        <time>2026-06-20T13:21:10.000Z</time>
        <extensions>
          <ns3:TrackPointExtension>
            <ns3:atemp>30.0</ns3:atemp>
          </ns3:TrackPointExtension>
        </extensions>
      </trkpt>
      <trkpt lat="42.45244232006371021270751953125" lon="20.2594788931310176849365234375">
        <ele>529.5999755859375</ele>
        <time>2026-06-20T13:21:11.000Z</time>
        <extensions>
          <ns3:TrackPointExtension>
            <ns3:atemp>30.0</ns3:atemp>
          </ns3:TrackPointExtension>
        </extensions>
      </trkpt>
      <trkpt lat="42.45239873416721820831298828125" lon="20.2595506422221660614013671875">
        <ele>529.5999755859375</ele>
        <time>2026-06-20T13:21:12.000Z</time>
        <extensions>
          <ns3:TrackPointExtension>
            <ns3:atemp>30.0</ns3:atemp>
          </ns3:TrackPointExtension>
        </extensions>
      </trkpt>
      <trkpt lat="42.4523542262613773345947265625" lon="20.25962146930396556854248046875">
        <ele>529.4000244140625</ele>
        <time>2026-06-20T13:21:13.000Z</time>
        <extensions>
          <ns3:TrackPointExtension>
            <ns3:atemp>30.0</ns3:atemp>
          </ns3:TrackPointExtension>
        </extensions>
      </trkpt>
      <trkpt lat="42.452313490211963653564453125" lon="20.25969003327190876007080078125">
        <ele>529.4000244140625</ele>
        <time>2026-06-20T13:21:14.000Z</time>
        <extensions>
          <ns3:TrackPointExtension>
            <ns3:atemp>30.0</ns3:atemp>
          </ns3:TrackPointExtension>
        </extensions>
      </trkpt>
      <trkpt lat="42.4522784538567066192626953125" lon="20.2597588486969470977783203125">
        <ele>529.5999755859375</ele>
        <time>2026-06-20T13:21:15.000Z</time>
        <extensions>
          <ns3:TrackPointExtension>
            <ns3:atemp>30.0</ns3:atemp>
          </ns3:TrackPointExtension>
        </extensions>
      </trkpt>
      <trkpt lat="42.45224702171981334686279296875" lon="20.25982816703617572784423828125">
        <ele>529.5999755859375</ele>
        <time>2026-06-20T13:21:16.000Z</time>
        <extensions>
          <ns3:TrackPointExtension>
            <ns3:atemp>30.0</ns3:atemp>
          </ns3:TrackPointExtension>
        </extensions>
      </trkpt>
      <trkpt lat="42.45222154073417186737060546875" lon="20.2598979882895946502685546875">
        <ele>529.79998779296875</ele>
        <time>2026-06-20T13:21:17.000Z</time>
        <extensions>
          <ns3:TrackPointExtension>
            <ns3:atemp>30.0</ns3:atemp>
          </ns3:TrackPointExtension>
        </extensions>
      </trkpt>
      <trkpt lat="42.4522030167281627655029296875" lon="20.2599660493433475494384765625">
        <ele>530</ele>
        <time>2026-06-20T13:21:18.000Z</time>
        <extensions>
          <ns3:TrackPointExtension>
            <ns3:atemp>30.0</ns3:atemp>
          </ns3:TrackPointExtension>
        </extensions>
      </trkpt>
      <trkpt lat="42.4521865881979465484619140625" lon="20.2600377984344959259033203125">
        <ele>530.20001220703125</ele>
        <time>2026-06-20T13:21:19.000Z</time>
        <extensions>
          <ns3:TrackPointExtension>
            <ns3:atemp>30.0</ns3:atemp>
          </ns3:TrackPointExtension>
        </extensions>
      </trkpt>
      <trkpt lat="42.45216898620128631591796875" lon="20.26010761968791484832763671875">
        <ele>530.20001220703125</ele>
        <time>2026-06-20T13:21:20.000Z</time>
        <extensions>
          <ns3:TrackPointExtension>
            <ns3:atemp>30.0</ns3:atemp>
          </ns3:TrackPointExtension>
        </extensions>
      </trkpt>
      <trkpt lat="42.452149204909801483154296875" lon="20.260178782045841217041015625">
        <ele>530.20001220703125</ele>
        <time>2026-06-20T13:21:21.000Z</time>
        <extensions>
          <ns3:TrackPointExtension>
            <ns3:atemp>30.0</ns3:atemp>
          </ns3:TrackPointExtension>
        </extensions>
      </trkpt>
      <trkpt lat="42.45212481357157230377197265625" lon="20.26024751365184783935546875">
        <ele>530</ele>
        <time>2026-06-20T13:21:22.000Z</time>
        <extensions>
          <ns3:TrackPointExtension>
            <ns3:atemp>30.0</ns3:atemp>
          </ns3:TrackPointExtension>
        </extensions>
      </trkpt>
      <trkpt lat="42.4521000869572162628173828125" lon="20.26031616143882274627685546875">
        <ele>530</ele>
        <time>2026-06-20T13:21:23.000Z</time>
        <extensions>
          <ns3:TrackPointExtension>
            <ns3:atemp>30.0</ns3:atemp>
          </ns3:TrackPointExtension>
        </extensions>
      </trkpt>
      <trkpt lat="42.45207183994352817535400390625" lon="20.2603807859122753143310546875">
        <ele>529.79998779296875</ele>
        <time>2026-06-20T13:21:24.000Z</time>
        <extensions>
          <ns3:TrackPointExtension>
            <ns3:atemp>30.0</ns3:atemp>
          </ns3:TrackPointExtension>
        </extensions>
      </trkpt>
      <trkpt lat="42.4520484544336795806884765625" lon="20.2604441531002521514892578125">
        <ele>529.5999755859375</ele>
        <time>2026-06-20T13:21:25.000Z</time>
        <extensions>
          <ns3:TrackPointExtension>
            <ns3:atemp>30.0</ns3:atemp>
          </ns3:TrackPointExtension>
        </extensions>
      </trkpt>
      <trkpt lat="42.4520256556570529937744140625" lon="20.26051397435367107391357421875">
        <ele>529.4000244140625</ele>
        <time>2026-06-20T13:21:26.000Z</time>
        <extensions>
          <ns3:TrackPointExtension>
            <ns3:atemp>30.0</ns3:atemp>
          </ns3:TrackPointExtension>
        </extensions>
      </trkpt>
      <trkpt lat="42.45200914330780506134033203125" lon="20.26058488525450229644775390625">
        <ele>529.20001220703125</ele>
        <time>2026-06-20T13:21:27.000Z</time>
        <extensions>
          <ns3:TrackPointExtension>
            <ns3:atemp>30.0</ns3:atemp>
          </ns3:TrackPointExtension>
        </extensions>
      </trkpt>
      <trkpt lat="42.45199724100530147552490234375" lon="20.26065730489790439605712890625">
        <ele>529</ele>
        <time>2026-06-20T13:21:28.000Z</time>
        <extensions>
          <ns3:TrackPointExtension>
            <ns3:atemp>30.0</ns3:atemp>
          </ns3:TrackPointExtension>
        </extensions>
      </trkpt>
      <trkpt lat="42.451989613473415374755859375" lon="20.26072972454130649566650390625">
        <ele>529</ele>
        <time>2026-06-20T13:21:29.000Z</time>
        <extensions>
          <ns3:TrackPointExtension>
            <ns3:atemp>30.0</ns3:atemp>
          </ns3:TrackPointExtension>
        </extensions>
      </trkpt>
      <trkpt lat="42.451980896294116973876953125" lon="20.2608065865933895111083984375">
        <ele>528.79998779296875</ele>
        <time>2026-06-20T13:21:30.000Z</time>
        <extensions>
          <ns3:TrackPointExtension>
            <ns3:atemp>30.0</ns3:atemp>
          </ns3:TrackPointExtension>
        </extensions>
      </trkpt>
      <trkpt lat="42.451973520219326019287109375" lon="20.26088512502610683441162109375">
        <ele>528.5999755859375</ele>
        <time>2026-06-20T13:21:31.000Z</time>
        <extensions>
          <ns3:TrackPointExtension>
            <ns3:atemp>30.0</ns3:atemp>
          </ns3:TrackPointExtension>
        </extensions>
      </trkpt>
      <trkpt lat="42.4519689939916133880615234375" lon="20.26096525602042675018310546875">
        <ele>528.4000244140625</ele>
        <time>2026-06-20T13:21:32.000Z</time>
        <extensions>
          <ns3:TrackPointExtension>
            <ns3:atemp>30.0</ns3:atemp>
          </ns3:TrackPointExtension>
        </extensions>
      </trkpt>
      <trkpt lat="42.45196538977324962615966796875" lon="20.26104672811925411224365234375">
        <ele>528</ele>
        <time>2026-06-20T13:21:33.000Z</time>
        <extensions>
          <ns3:TrackPointExtension>
            <ns3:atemp>30.0</ns3:atemp>
          </ns3:TrackPointExtension>
        </extensions>
      </trkpt>
      <trkpt lat="42.4519606120884418487548828125" lon="20.26113356463611125946044921875">
        <ele>527.79998779296875</ele>
        <time>2026-06-20T13:21:34.000Z</time>
        <extensions>
          <ns3:TrackPointExtension>
            <ns3:atemp>30.0</ns3:atemp>
          </ns3:TrackPointExtension>
        </extensions>
      </trkpt>
      <trkpt lat="42.45195331983268260955810546875" lon="20.2612253464758396148681640625">
        <ele>527.5999755859375</ele>
        <time>2026-06-20T13:21:35.000Z</time>
        <extensions>
          <ns3:TrackPointExtension>
            <ns3:atemp>30.0</ns3:atemp>
          </ns3:TrackPointExtension>
        </extensions>
      </trkpt>
      <trkpt lat="42.45194443501532077789306640625" lon="20.26131411083042621612548828125">
        <ele>527.20001220703125</ele>
        <time>2026-06-20T13:21:36.000Z</time>
        <extensions>
          <ns3:TrackPointExtension>
            <ns3:atemp>30.0</ns3:atemp>
          </ns3:TrackPointExtension>
        </extensions>
      </trkpt>
      <trkpt lat="42.4519364722073078155517578125" lon="20.261411927640438079833984375">
        <ele>526.79998779296875</ele>
        <time>2026-06-20T13:21:37.000Z</time>
        <extensions>
          <ns3:TrackPointExtension>
            <ns3:atemp>30.0</ns3:atemp>
          </ns3:TrackPointExtension>
        </extensions>
      </trkpt>
      <trkpt lat="42.45193236507475376129150390625" lon="20.26150806806981563568115234375">
        <ele>526.5999755859375</ele>
        <time>2026-06-20T13:21:38.000Z</time>
        <extensions>
          <ns3:TrackPointExtension>
            <ns3:atemp>30.0</ns3:atemp>
          </ns3:TrackPointExtension>
        </extensions>
      </trkpt>
      <trkpt lat="42.4519317783415317535400390625" lon="20.26160596869885921478271484375">
        <ele>526.20001220703125</ele>
        <time>2026-06-20T13:21:39.000Z</time>
        <extensions>
          <ns3:TrackPointExtension>
            <ns3:atemp>30.0</ns3:atemp>
          </ns3:TrackPointExtension>
        </extensions>
      </trkpt>
      <trkpt lat="42.45193161070346832275390625" lon="20.26170403696596622467041015625">
        <ele>526</ele>
        <time>2026-06-20T13:21:40.000Z</time>
        <extensions>
          <ns3:TrackPointExtension>
            <ns3:atemp>30.0</ns3:atemp>
          </ns3:TrackPointExtension>
        </extensions>
      </trkpt>
      <trkpt lat="42.45193437673151493072509765625" lon="20.26179104112088680267333984375">
        <ele>525.79998779296875</ele>
        <time>2026-06-20T13:21:41.000Z</time>
        <extensions>
          <ns3:TrackPointExtension>
            <ns3:atemp>30.0</ns3:atemp>
          </ns3:TrackPointExtension>
        </extensions>
      </trkpt>
      <trkpt lat="42.4519351311028003692626953125" lon="20.2618682384490966796875">
        <ele>525.5999755859375</ele>
        <time>2026-06-20T13:21:42.000Z</time>
        <extensions>
          <ns3:TrackPointExtension>
            <ns3:atemp>30.0</ns3:atemp>
          </ns3:TrackPointExtension>
        </extensions>
      </trkpt>
      <trkpt lat="42.4519336223602294921875" lon="20.26194057427346706390380859375">
        <ele>525.5999755859375</ele>
        <time>2026-06-20T13:21:43.000Z</time>
        <extensions>
          <ns3:TrackPointExtension>
            <ns3:atemp>30.0</ns3:atemp>
          </ns3:TrackPointExtension>
        </extensions>
      </trkpt>
      <trkpt lat="42.4519284255802631378173828125" lon="20.26200679130852222442626953125">
        <ele>525.4000244140625</ele>
        <time>2026-06-20T13:21:44.000Z</time>
        <extensions>
          <ns3:TrackPointExtension>
            <ns3:atemp>30.0</ns3:atemp>
          </ns3:TrackPointExtension>
        </extensions>
      </trkpt>
      <trkpt lat="42.45192415080964565277099609375" lon="20.2620621956884860992431640625">
        <ele>525.20001220703125</ele>
        <time>2026-06-20T13:21:45.000Z</time>
        <extensions>
          <ns3:TrackPointExtension>
            <ns3:atemp>30.0</ns3:atemp>
          </ns3:TrackPointExtension>
        </extensions>
      </trkpt>
      <trkpt lat="42.45192264206707477569580078125" lon="20.26211340911686420440673828125">
        <ele>525</ele>
        <time>2026-06-20T13:21:46.000Z</time>
        <extensions>
          <ns3:TrackPointExtension>
            <ns3:atemp>30.0</ns3:atemp>
          </ns3:TrackPointExtension>
        </extensions>
      </trkpt>
      <trkpt lat="42.45191342197358608245849609375" lon="20.26215598918497562408447265625">
        <ele>524.5999755859375</ele>
        <time>2026-06-20T13:21:47.000Z</time>
        <extensions>
          <ns3:TrackPointExtension>
            <ns3:atemp>30.0</ns3:atemp>
          </ns3:TrackPointExtension>
        </extensions>
      </trkpt>
      <trkpt lat="42.45191157795488834381103515625" lon="20.26219588704407215118408203125">
        <ele>524.4000244140625</ele>
        <time>2026-06-20T13:21:48.000Z</time>
        <extensions>
          <ns3:TrackPointExtension>
            <ns3:atemp>30.0</ns3:atemp>
          </ns3:TrackPointExtension>
        </extensions>
      </trkpt>
      <trkpt lat="42.451905794441699981689453125" lon="20.26223897002637386322021484375">
        <ele>524.20001220703125</ele>
        <time>2026-06-20T13:21:49.000Z</time>
        <extensions>
          <ns3:TrackPointExtension>
            <ns3:atemp>30.0</ns3:atemp>
          </ns3:TrackPointExtension>
        </extensions>
      </trkpt>
      <trkpt lat="42.4519036151468753814697265625" lon="20.26227517984807491302490234375">
        <ele>524</ele>
        <time>2026-06-20T13:21:50.000Z</time>
        <extensions>
          <ns3:TrackPointExtension>
            <ns3:atemp>30.0</ns3:atemp>
          </ns3:TrackPointExtension>
        </extensions>
      </trkpt>
      <trkpt lat="42.4519009329378604888916015625" lon="20.26231340132653713226318359375">
        <ele>523.79998779296875</ele>
        <time>2026-06-20T13:21:51.000Z</time>
        <extensions>
          <ns3:TrackPointExtension>
            <ns3:atemp>30.0</ns3:atemp>
          </ns3:TrackPointExtension>
        </extensions>
      </trkpt>
      <trkpt lat="42.45190453715622425079345703125" lon="20.2623470127582550048828125">
        <ele>523.5999755859375</ele>
        <time>2026-06-20T13:21:52.000Z</time>
        <extensions>
          <ns3:TrackPointExtension>
            <ns3:atemp>30.0</ns3:atemp>
          </ns3:TrackPointExtension>
        </extensions>
      </trkpt>
      <trkpt lat="42.45190235786139965057373046875" lon="20.262378193438053131103515625">
        <ele>523.5999755859375</ele>
        <time>2026-06-20T13:21:53.000Z</time>
        <extensions>
          <ns3:TrackPointExtension>
            <ns3:atemp>30.0</ns3:atemp>
          </ns3:TrackPointExtension>
        </extensions>
      </trkpt>
      <trkpt lat="42.45190478861331939697265625" lon="20.26241297833621501922607421875">
        <ele>523.4000244140625</ele>
        <time>2026-06-20T13:21:54.000Z</time>
        <extensions>
          <ns3:TrackPointExtension>
            <ns3:atemp>30.0</ns3:atemp>
          </ns3:TrackPointExtension>
        </extensions>
      </trkpt>
      <trkpt lat="42.4519026093184947967529296875" lon="20.26245036162436008453369140625">
        <ele>523.20001220703125</ele>
        <time>2026-06-20T13:21:55.000Z</time>
        <extensions>
          <ns3:TrackPointExtension>
            <ns3:atemp>30.0</ns3:atemp>
          </ns3:TrackPointExtension>
        </extensions>
      </trkpt>
      <trkpt lat="42.4519000947475433349609375" lon="20.26248690672218799591064453125">
        <ele>523.20001220703125</ele>
        <time>2026-06-20T13:21:56.000Z</time>
        <extensions>
          <ns3:TrackPointExtension>
            <ns3:atemp>30.0</ns3:atemp>
          </ns3:TrackPointExtension>
        </extensions>
      </trkpt>
      <trkpt lat="42.45189649052917957305908203125" lon="20.2625213563442230224609375">
        <ele>523</ele>
        <time>2026-06-20T13:21:57.000Z</time>
        <extensions>
          <ns3:TrackPointExtension>
            <ns3:atemp>30.0</ns3:atemp>
          </ns3:TrackPointExtension>
        </extensions>
      </trkpt>
      <trkpt lat="42.4518959037959575653076171875" lon="20.2625597454607486724853515625">
        <ele>522.5999755859375</ele>
        <time>2026-06-20T13:21:58.000Z</time>
        <extensions>
          <ns3:TrackPointExtension>
            <ns3:atemp>30.0</ns3:atemp>
          </ns3:TrackPointExtension>
        </extensions>
      </trkpt>
      <trkpt lat="42.45188760571181774139404296875" lon="20.262595117092132568359375">
        <ele>522.5999755859375</ele>
        <time>2026-06-20T13:21:59.000Z</time>
        <extensions>
          <ns3:TrackPointExtension>
            <ns3:atemp>30.0</ns3:atemp>
          </ns3:TrackPointExtension>
        </extensions>
      </trkpt>
      <trkpt lat="42.4518858455121517181396484375" lon="20.26262797415256500244140625">
        <ele>522.20001220703125</ele>
        <time>2026-06-20T13:22:00.000Z</time>
        <extensions>
          <ns3:TrackPointExtension>
            <ns3:atemp>30.0</ns3:atemp>
          </ns3:TrackPointExtension>
        </extensions>
      </trkpt>
      <trkpt lat="42.4518821574747562408447265625" lon="20.26266074739396572113037109375">
        <ele>522</ele>
        <time>2026-06-20T13:22:01.000Z</time>
        <extensions>
          <ns3:TrackPointExtension>
            <ns3:atemp>30.0</ns3:atemp>
          </ns3:TrackPointExtension>
        </extensions>
      </trkpt>
      <trkpt lat="42.45188224129378795623779296875" lon="20.26268991641700267791748046875">
        <ele>522</ele>
        <time>2026-06-20T13:22:02.000Z</time>
        <extensions>
          <ns3:TrackPointExtension>
            <ns3:atemp>30.0</ns3:atemp>
          </ns3:TrackPointExtension>
        </extensions>
      </trkpt>
      <trkpt lat="42.45188492350280284881591796875" lon="20.2627190016210079193115234375">
        <ele>521.79998779296875</ele>
        <time>2026-06-20T13:22:03.000Z</time>
        <extensions>
          <ns3:TrackPointExtension>
            <ns3:atemp>30.0</ns3:atemp>
          </ns3:TrackPointExtension>
        </extensions>
      </trkpt>
      <trkpt lat="42.45188559405505657196044921875" lon="20.2627511881291866302490234375">
        <ele>521.79998779296875</ele>
        <time>2026-06-20T13:22:04.000Z</time>
        <extensions>
          <ns3:TrackPointExtension>
            <ns3:atemp>30.0</ns3:atemp>
          </ns3:TrackPointExtension>
        </extensions>
      </trkpt>
      <trkpt lat="42.451882325112819671630859375" lon="20.26277608238160610198974609375">
        <ele>521.79998779296875</ele>
        <time>2026-06-20T13:22:05.000Z</time>
        <extensions>
          <ns3:TrackPointExtension>
            <ns3:atemp>30.0</ns3:atemp>
          </ns3:TrackPointExtension>
        </extensions>
      </trkpt>
      <trkpt lat="42.45187955908477306365966796875" lon="20.26279569603502750396728515625">
        <ele>521.5999755859375</ele>
        <time>2026-06-20T13:22:06.000Z</time>
        <extensions>
          <ns3:TrackPointExtension>
            <ns3:atemp>30.0</ns3:atemp>
          </ns3:TrackPointExtension>
        </extensions>
      </trkpt>
      <trkpt lat="42.451874949038028717041015625" lon="20.2628148905932903289794921875">
        <ele>521.4000244140625</ele>
        <time>2026-06-20T13:22:07.000Z</time>
        <extensions>
          <ns3:TrackPointExtension>
            <ns3:atemp>30.0</ns3:atemp>
          </ns3:TrackPointExtension>
        </extensions>
      </trkpt>
      <trkpt lat="42.45187335647642612457275390625" lon="20.26283944956958293914794921875">
        <ele>521.4000244140625</ele>
        <time>2026-06-20T13:22:08.000Z</time>
        <extensions>
          <ns3:TrackPointExtension>
            <ns3:atemp>30.0</ns3:atemp>
          </ns3:TrackPointExtension>
        </extensions>
      </trkpt>
      <trkpt lat="42.45186388492584228515625" lon="20.2628594823181629180908203125">
        <ele>521.20001220703125</ele>
        <time>2026-06-20T13:22:09.000Z</time>
        <extensions>
          <ns3:TrackPointExtension>
            <ns3:atemp>30.0</ns3:atemp>
          </ns3:TrackPointExtension>
        </extensions>
      </trkpt>
      <trkpt lat="42.45186732150614261627197265625" lon="20.26288605295121669769287109375">
        <ele>521</ele>
        <time>2026-06-20T13:22:10.000Z</time>
        <extensions>
          <ns3:TrackPointExtension>
            <ns3:atemp>30.0</ns3:atemp>
          </ns3:TrackPointExtension>
        </extensions>
      </trkpt>
      <trkpt lat="42.45187000371515750885009765625" lon="20.262909941375255584716796875">
        <ele>521</ele>
        <time>2026-06-20T13:22:11.000Z</time>
        <extensions>
          <ns3:TrackPointExtension>
            <ns3:atemp>30.0</ns3:atemp>
          </ns3:TrackPointExtension>
        </extensions>
      </trkpt>
      <trkpt lat="42.4518694169819355010986328125" lon="20.2629258669912815093994140625">
        <ele>521</ele>
        <time>2026-06-20T13:22:12.000Z</time>
        <extensions>
          <ns3:TrackPointExtension>
            <ns3:atemp>30.0</ns3:atemp>
          </ns3:TrackPointExtension>
        </extensions>
      </trkpt>
      <trkpt lat="42.45186748914420604705810546875" lon="20.26294807903468608856201171875">
        <ele>521</ele>
        <time>2026-06-20T13:22:13.000Z</time>
        <extensions>
          <ns3:TrackPointExtension>
            <ns3:atemp>30.0</ns3:atemp>
          </ns3:TrackPointExtension>
        </extensions>
      </trkpt>
      <trkpt lat="42.45186514221131801605224609375" lon="20.26297221891582012176513671875">
        <ele>520.79998779296875</ele>
        <time>2026-06-20T13:22:14.000Z</time>
        <extensions>
          <ns3:TrackPointExtension>
            <ns3:atemp>30.0</ns3:atemp>
          </ns3:TrackPointExtension>
        </extensions>
      </trkpt>
      <trkpt lat="42.45186631567776203155517578125" lon="20.262997113168239593505859375">
        <ele>520.79998779296875</ele>
        <time>2026-06-20T13:22:15.000Z</time>
        <extensions>
          <ns3:TrackPointExtension>
            <ns3:atemp>30.0</ns3:atemp>
          </ns3:TrackPointExtension>
        </extensions>
      </trkpt>
      <trkpt lat="42.45185759849846363067626953125" lon="20.2630140446126461029052734375">
        <ele>520.5999755859375</ele>
        <time>2026-06-20T13:22:16.000Z</time>
        <extensions>
          <ns3:TrackPointExtension>
            <ns3:atemp>30.0</ns3:atemp>
          </ns3:TrackPointExtension>
        </extensions>
      </trkpt>
      <trkpt lat="42.45185005478560924530029296875" lon="20.263019241392612457275390625">
        <ele>520.4000244140625</ele>
        <time>2026-06-20T13:22:17.000Z</time>
        <extensions>
          <ns3:TrackPointExtension>
            <ns3:atemp>30.0</ns3:atemp>
          </ns3:TrackPointExtension>
        </extensions>
      </trkpt>
      <trkpt lat="42.451847456395626068115234375" lon="20.26302468962967395782470703125">
        <ele>520.20001220703125</ele>
        <time>2026-06-20T13:22:18.000Z</time>
        <extensions>
          <ns3:TrackPointExtension>
            <ns3:atemp>30.0</ns3:atemp>
          </ns3:TrackPointExtension>
        </extensions>
      </trkpt>
      <trkpt lat="42.45184754021465778350830078125" lon="20.26302468962967395782470703125">
        <ele>520.20001220703125</ele>
        <time>2026-06-20T13:22:19.000Z</time>
        <extensions>
          <ns3:TrackPointExtension>
            <ns3:atemp>30.0</ns3:atemp>
          </ns3:TrackPointExtension>
        </extensions>
      </trkpt>
      <trkpt lat="42.45184754021465778350830078125" lon="20.26302468962967395782470703125">
        <ele>520</ele>
        <time>2026-06-20T13:22:20.000Z</time>
        <extensions>
          <ns3:TrackPointExtension>
            <ns3:atemp>30.0</ns3:atemp>
          </ns3:TrackPointExtension>
        </extensions>
      </trkpt>
      <trkpt lat="42.45184754021465778350830078125" lon="20.26302468962967395782470703125">
        <ele>520</ele>
        <time>2026-06-20T13:22:21.000Z</time>
        <extensions>
          <ns3:TrackPointExtension>
            <ns3:atemp>30.0</ns3:atemp>
          </ns3:TrackPointExtension>
        </extensions>
      </trkpt>
      <trkpt lat="42.45184754021465778350830078125" lon="20.26302468962967395782470703125">
        <ele>519.79998779296875</ele>
        <time>2026-06-20T13:22:22.000Z</time>
        <extensions>
          <ns3:TrackPointExtension>
            <ns3:atemp>30.0</ns3:atemp>
          </ns3:TrackPointExtension>
        </extensions>
      </trkpt>
      <trkpt lat="42.45184754021465778350830078125" lon="20.26302468962967395782470703125">
        <ele>519.79998779296875</ele>
        <time>2026-06-20T13:22:23.000Z</time>
        <extensions>
          <ns3:TrackPointExtension>
            <ns3:atemp>30.0</ns3:atemp>
          </ns3:TrackPointExtension>
        </extensions>
      </trkpt>
      <trkpt lat="42.45184754021465778350830078125" lon="20.26302468962967395782470703125">
        <ele>519.5999755859375</ele>
        <time>2026-06-20T13:22:24.000Z</time>
        <extensions>
          <ns3:TrackPointExtension>
            <ns3:atemp>30.0</ns3:atemp>
          </ns3:TrackPointExtension>
        </extensions>
      </trkpt>
      <trkpt lat="42.45184754021465778350830078125" lon="20.26302468962967395782470703125">
        <ele>519.4000244140625</ele>
        <time>2026-06-20T13:22:25.000Z</time>
        <extensions>
          <ns3:TrackPointExtension>
            <ns3:atemp>30.0</ns3:atemp>
          </ns3:TrackPointExtension>
        </extensions>
      </trkpt>
      <trkpt lat="42.45184754021465778350830078125" lon="20.26302468962967395782470703125">
        <ele>519.4000244140625</ele>
        <time>2026-06-20T13:22:26.000Z</time>
        <extensions>
          <ns3:TrackPointExtension>
            <ns3:atemp>30.0</ns3:atemp>
          </ns3:TrackPointExtension>
        </extensions>
      </trkpt>
      <trkpt lat="42.45184754021465778350830078125" lon="20.26302468962967395782470703125">
        <ele>519.20001220703125</ele>
        <time>2026-06-20T13:22:27.000Z</time>
        <extensions>
          <ns3:TrackPointExtension>
            <ns3:atemp>30.0</ns3:atemp>
          </ns3:TrackPointExtension>
        </extensions>
      </trkpt>
      <trkpt lat="42.45184754021465778350830078125" lon="20.26302468962967395782470703125">
        <ele>519.20001220703125</ele>
        <time>2026-06-20T13:22:28.000Z</time>
        <extensions>
          <ns3:TrackPointExtension>
            <ns3:atemp>30.0</ns3:atemp>
          </ns3:TrackPointExtension>
        </extensions>
      </trkpt>
      <trkpt lat="42.45184754021465778350830078125" lon="20.26302468962967395782470703125">
        <ele>519.20001220703125</ele>
        <time>2026-06-20T13:22:29.000Z</time>
        <extensions>
          <ns3:TrackPointExtension>
            <ns3:atemp>30.0</ns3:atemp>
          </ns3:TrackPointExtension>
        </extensions>
      </trkpt>
      <trkpt lat="42.45184754021465778350830078125" lon="20.26302468962967395782470703125">
        <ele>519.20001220703125</ele>
        <time>2026-06-20T13:22:30.000Z</time>
        <extensions>
          <ns3:TrackPointExtension>
            <ns3:atemp>30.0</ns3:atemp>
          </ns3:TrackPointExtension>
        </extensions>
      </trkpt>
      <trkpt lat="42.45184754021465778350830078125" lon="20.26302468962967395782470703125">
        <ele>519.20001220703125</ele>
        <time>2026-06-20T13:22:31.000Z</time>
        <extensions>
          <ns3:TrackPointExtension>
            <ns3:atemp>30.0</ns3:atemp>
          </ns3:TrackPointExtension>
        </extensions>
      </trkpt>
      <trkpt lat="42.45184754021465778350830078125" lon="20.26302468962967395782470703125">
        <ele>519</ele>
        <time>2026-06-20T13:22:32.000Z</time>
        <extensions>
          <ns3:TrackPointExtension>
            <ns3:atemp>30.0</ns3:atemp>
          </ns3:TrackPointExtension>
        </extensions>
      </trkpt>
      <trkpt lat="42.45184754021465778350830078125" lon="20.26302468962967395782470703125">
        <ele>519</ele>
        <time>2026-06-20T13:22:33.000Z</time>
        <extensions>
          <ns3:TrackPointExtension>
            <ns3:atemp>30.0</ns3:atemp>
          </ns3:TrackPointExtension>
        </extensions>
      </trkpt>
      <trkpt lat="42.45184754021465778350830078125" lon="20.26302468962967395782470703125">
        <ele>519</ele>
        <time>2026-06-20T13:22:34.000Z</time>
        <extensions>
          <ns3:TrackPointExtension>
            <ns3:atemp>30.0</ns3:atemp>
          </ns3:TrackPointExtension>
        </extensions>
      </trkpt>
      <trkpt lat="42.45184754021465778350830078125" lon="20.26302468962967395782470703125">
        <ele>519</ele>
        <time>2026-06-20T13:22:35.000Z</time>
        <extensions>
          <ns3:TrackPointExtension>
            <ns3:atemp>30.0</ns3:atemp>
          </ns3:TrackPointExtension>
        </extensions>
      </trkpt>
      <trkpt lat="42.45184754021465778350830078125" lon="20.26302468962967395782470703125">
        <ele>518.79998779296875</ele>
        <time>2026-06-20T13:22:36.000Z</time>
        <extensions>
          <ns3:TrackPointExtension>
            <ns3:atemp>30.0</ns3:atemp>
          </ns3:TrackPointExtension>
        </extensions>
      </trkpt>
      <trkpt lat="42.45184754021465778350830078125" lon="20.26302468962967395782470703125">
        <ele>518.79998779296875</ele>
        <time>2026-06-20T13:22:37.000Z</time>
        <extensions>
          <ns3:TrackPointExtension>
            <ns3:atemp>30.0</ns3:atemp>
          </ns3:TrackPointExtension>
        </extensions>
      </trkpt>
      <trkpt lat="42.45184754021465778350830078125" lon="20.26302468962967395782470703125">
        <ele>518.79998779296875</ele>
        <time>2026-06-20T13:22:38.000Z</time>
        <extensions>
          <ns3:TrackPointExtension>
            <ns3:atemp>30.0</ns3:atemp>
          </ns3:TrackPointExtension>
        </extensions>
      </trkpt>
      <trkpt lat="42.45184754021465778350830078125" lon="20.26302468962967395782470703125">
        <ele>518.5999755859375</ele>
        <time>2026-06-20T13:22:39.000Z</time>
        <extensions>
          <ns3:TrackPointExtension>
            <ns3:atemp>30.0</ns3:atemp>
          </ns3:TrackPointExtension>
        </extensions>
      </trkpt>
      <trkpt lat="42.45184754021465778350830078125" lon="20.26302468962967395782470703125">
        <ele>518.5999755859375</ele>
        <time>2026-06-20T13:22:40.000Z</time>
        <extensions>
          <ns3:TrackPointExtension>
            <ns3:atemp>30.0</ns3:atemp>
          </ns3:TrackPointExtension>
        </extensions>
      </trkpt>
      <trkpt lat="42.45184686966240406036376953125" lon="20.26302494108676910400390625">
        <ele>518.5999755859375</ele>
        <time>2026-06-20T13:22:41.000Z</time>
        <extensions>
          <ns3:TrackPointExtension>
            <ns3:atemp>30.0</ns3:atemp>
          </ns3:TrackPointExtension>
        </extensions>
      </trkpt>
      <trkpt lat="42.451848126947879791259765625" lon="20.2630368433892726898193359375">
        <ele>518.5999755859375</ele>
        <time>2026-06-20T13:22:42.000Z</time>
        <extensions>
          <ns3:TrackPointExtension>
            <ns3:atemp>30.0</ns3:atemp>
          </ns3:TrackPointExtension>
        </extensions>
      </trkpt>
      <trkpt lat="42.45185089297592639923095703125" lon="20.2630539424717426300048828125">
        <ele>518.79998779296875</ele>
        <time>2026-06-20T13:22:43.000Z</time>
        <extensions>
          <ns3:TrackPointExtension>
            <ns3:atemp>30.0</ns3:atemp>
          </ns3:TrackPointExtension>
        </extensions>
      </trkpt>
      <trkpt lat="42.45185072533786296844482421875" lon="20.2630583010613918304443359375">
        <ele>518.79998779296875</ele>
        <time>2026-06-20T13:22:44.000Z</time>
        <extensions>
          <ns3:TrackPointExtension>
            <ns3:atemp>30.0</ns3:atemp>
          </ns3:TrackPointExtension>
        </extensions>
      </trkpt>
      <trkpt lat="42.45185114443302154541015625" lon="20.2630599774420261383056640625">
        <ele>518.79998779296875</ele>
        <time>2026-06-20T13:22:45.000Z</time>
        <extensions>
          <ns3:TrackPointExtension>
            <ns3:atemp>30.0</ns3:atemp>
          </ns3:TrackPointExtension>
        </extensions>
      </trkpt>
      <trkpt lat="42.45185139589011669158935546875" lon="20.26305989362299442291259765625">
        <ele>518.79998779296875</ele>
        <time>2026-06-20T13:22:46.000Z</time>
        <extensions>
          <ns3:TrackPointExtension>
            <ns3:atemp>30.0</ns3:atemp>
          </ns3:TrackPointExtension>
        </extensions>
      </trkpt>
      <trkpt lat="42.45185139589011669158935546875" lon="20.26305989362299442291259765625">
        <ele>518.79998779296875</ele>
        <time>2026-06-20T13:22:47.000Z</time>
        <extensions>
          <ns3:TrackPointExtension>
            <ns3:atemp>30.0</ns3:atemp>
          </ns3:TrackPointExtension>
        </extensions>
      </trkpt>
      <trkpt lat="42.45185139589011669158935546875" lon="20.26305989362299442291259765625">
        <ele>518.5999755859375</ele>
        <time>2026-06-20T13:22:48.000Z</time>
        <extensions>
          <ns3:TrackPointExtension>
            <ns3:atemp>30.0</ns3:atemp>
          </ns3:TrackPointExtension>
        </extensions>
      </trkpt>
      <trkpt lat="42.45185139589011669158935546875" lon="20.26305989362299442291259765625">
        <ele>518.4000244140625</ele>
        <time>2026-06-20T13:22:49.000Z</time>
        <extensions>
          <ns3:TrackPointExtension>
            <ns3:atemp>30.0</ns3:atemp>
          </ns3:TrackPointExtension>
        </extensions>
      </trkpt>
      <trkpt lat="42.45185139589011669158935546875" lon="20.26305989362299442291259765625">
        <ele>518.4000244140625</ele>
        <time>2026-06-20T13:22:50.000Z</time>
        <extensions>
          <ns3:TrackPointExtension>
            <ns3:atemp>30.0</ns3:atemp>
          </ns3:TrackPointExtension>
        </extensions>
      </trkpt>
      <trkpt lat="42.45185139589011669158935546875" lon="20.26305989362299442291259765625">
        <ele>518.4000244140625</ele>
        <time>2026-06-20T13:22:51.000Z</time>
        <extensions>
          <ns3:TrackPointExtension>
            <ns3:atemp>30.0</ns3:atemp>
          </ns3:TrackPointExtension>
        </extensions>
      </trkpt>
      <trkpt lat="42.45185139589011669158935546875" lon="20.26305989362299442291259765625">
        <ele>518.4000244140625</ele>
        <time>2026-06-20T13:22:52.000Z</time>
        <extensions>
          <ns3:TrackPointExtension>
            <ns3:atemp>30.0</ns3:atemp>
          </ns3:TrackPointExtension>
        </extensions>
      </trkpt>
      <trkpt lat="42.45185139589011669158935546875" lon="20.26305989362299442291259765625">
        <ele>518.4000244140625</ele>
        <time>2026-06-20T13:22:53.000Z</time>
        <extensions>
          <ns3:TrackPointExtension>
            <ns3:atemp>30.0</ns3:atemp>
          </ns3:TrackPointExtension>
        </extensions>
      </trkpt>
      <trkpt lat="42.45185139589011669158935546875" lon="20.26305989362299442291259765625">
        <ele>518.4000244140625</ele>
        <time>2026-06-20T13:22:54.000Z</time>
        <extensions>
          <ns3:TrackPointExtension>
            <ns3:atemp>30.0</ns3:atemp>
          </ns3:TrackPointExtension>
        </extensions>
      </trkpt>
      <trkpt lat="42.45185139589011669158935546875" lon="20.26305989362299442291259765625">
        <ele>518.4000244140625</ele>
        <time>2026-06-20T13:22:55.000Z</time>
        <extensions>
          <ns3:TrackPointExtension>
            <ns3:atemp>30.0</ns3:atemp>
          </ns3:TrackPointExtension>
        </extensions>
      </trkpt>
      <trkpt lat="42.45185139589011669158935546875" lon="20.26305989362299442291259765625">
        <ele>518.20001220703125</ele>
        <time>2026-06-20T13:22:56.000Z</time>
        <extensions>
          <ns3:TrackPointExtension>
            <ns3:atemp>30.0</ns3:atemp>
          </ns3:TrackPointExtension>
        </extensions>
      </trkpt>
      <trkpt lat="42.45185139589011669158935546875" lon="20.26305989362299442291259765625">
        <ele>518.20001220703125</ele>
        <time>2026-06-20T13:22:57.000Z</time>
        <extensions>
          <ns3:TrackPointExtension>
            <ns3:atemp>30.0</ns3:atemp>
          </ns3:TrackPointExtension>
        </extensions>
      </trkpt>
      <trkpt lat="42.45185248553752899169921875" lon="20.26305939070880413055419921875">
        <ele>518</ele>
        <time>2026-06-20T13:22:58.000Z</time>
        <extensions>
          <ns3:TrackPointExtension>
            <ns3:atemp>30.0</ns3:atemp>
          </ns3:TrackPointExtension>
        </extensions>
      </trkpt>
      <trkpt lat="42.45185776613652706146240234375" lon="20.2630713768303394317626953125">
        <ele>518.20001220703125</ele>
        <time>2026-06-20T13:22:59.000Z</time>
        <extensions>
          <ns3:TrackPointExtension>
            <ns3:atemp>30.0</ns3:atemp>
          </ns3:TrackPointExtension>
        </extensions>
      </trkpt>
      <trkpt lat="42.45186061598360538482666015625" lon="20.2630871348083019256591796875">
        <ele>518.20001220703125</ele>
        <time>2026-06-20T13:23:00.000Z</time>
        <extensions>
          <ns3:TrackPointExtension>
            <ns3:atemp>30.0</ns3:atemp>
          </ns3:TrackPointExtension>
        </extensions>
      </trkpt>
      <trkpt lat="42.45185676030814647674560546875" lon="20.263115465641021728515625">
        <ele>518.4000244140625</ele>
        <time>2026-06-20T13:23:01.000Z</time>
        <extensions>
          <ns3:TrackPointExtension>
            <ns3:atemp>30.0</ns3:atemp>
          </ns3:TrackPointExtension>
        </extensions>
      </trkpt>
      <trkpt lat="42.45185290463268756866455078125" lon="20.26315293274819850921630859375">
        <ele>518.4000244140625</ele>
        <time>2026-06-20T13:23:02.000Z</time>
        <extensions>
          <ns3:TrackPointExtension>
            <ns3:atemp>30.0</ns3:atemp>
          </ns3:TrackPointExtension>
        </extensions>
      </trkpt>
      <trkpt lat="42.4518464505672454833984375" lon="20.263200290501117706298828125">
        <ele>518.20001220703125</ele>
        <time>2026-06-20T13:23:03.000Z</time>
        <extensions>
          <ns3:TrackPointExtension>
            <ns3:atemp>30.0</ns3:atemp>
          </ns3:TrackPointExtension>
        </extensions>
      </trkpt>
      <trkpt lat="42.4518379010260105133056640625" lon="20.26325385086238384246826171875">
        <ele>518.20001220703125</ele>
        <time>2026-06-20T13:23:04.000Z</time>
        <extensions>
          <ns3:TrackPointExtension>
            <ns3:atemp>30.0</ns3:atemp>
          </ns3:TrackPointExtension>
        </extensions>
      </trkpt>
      <trkpt lat="42.451828010380268096923828125" lon="20.26332392357289791107177734375">
        <ele>518</ele>
        <time>2026-06-20T13:23:05.000Z</time>
        <extensions>
          <ns3:TrackPointExtension>
            <ns3:atemp>30.0</ns3:atemp>
          </ns3:TrackPointExtension>
        </extensions>
      </trkpt>
      <trkpt lat="42.451818287372589111328125" lon="20.26340472511947154998779296875">
        <ele>517.79998779296875</ele>
        <time>2026-06-20T13:23:06.000Z</time>
        <extensions>
          <ns3:TrackPointExtension>
            <ns3:atemp>30.0</ns3:atemp>
          </ns3:TrackPointExtension>
        </extensions>
      </trkpt>
      <trkpt lat="42.451807223260402679443359375" lon="20.2634898014366626739501953125">
        <ele>517.5999755859375</ele>
        <time>2026-06-20T13:23:07.000Z</time>
        <extensions>
          <ns3:TrackPointExtension>
            <ns3:atemp>30.0</ns3:atemp>
          </ns3:TrackPointExtension>
        </extensions>
      </trkpt>
      <trkpt lat="42.45180143974721431732177734375" lon="20.2635816670954227447509765625">
        <ele>517.4000244140625</ele>
        <time>2026-06-20T13:23:08.000Z</time>
        <extensions>
          <ns3:TrackPointExtension>
            <ns3:atemp>30.0</ns3:atemp>
          </ns3:TrackPointExtension>
        </extensions>
      </trkpt>
      <trkpt lat="42.4517983384430408477783203125" lon="20.26367479003965854644775390625">
        <ele>517.4000244140625</ele>
        <time>2026-06-20T13:23:09.000Z</time>
        <extensions>
          <ns3:TrackPointExtension>
            <ns3:atemp>30.0</ns3:atemp>
          </ns3:TrackPointExtension>
        </extensions>
      </trkpt>
      <trkpt lat="42.45179423131048679351806640625" lon="20.263766236603260040283203125">
        <ele>517.20001220703125</ele>
        <time>2026-06-20T13:23:10.000Z</time>
        <extensions>
          <ns3:TrackPointExtension>
            <ns3:atemp>30.0</ns3:atemp>
          </ns3:TrackPointExtension>
        </extensions>
      </trkpt>
      <trkpt lat="42.45178786106407642364501953125" lon="20.26386455632746219635009765625">
        <ele>517</ele>
        <time>2026-06-20T13:23:11.000Z</time>
        <extensions>
          <ns3:TrackPointExtension>
            <ns3:atemp>30.0</ns3:atemp>
          </ns3:TrackPointExtension>
        </extensions>
      </trkpt>
      <trkpt lat="42.4517778865993022918701171875" lon="20.2639615349471569061279296875">
        <ele>516.79998779296875</ele>
        <time>2026-06-20T13:23:12.000Z</time>
        <extensions>
          <ns3:TrackPointExtension>
            <ns3:atemp>30.0</ns3:atemp>
          </ns3:TrackPointExtension>
        </extensions>
      </trkpt>
      <trkpt lat="42.4517664872109889984130859375" lon="20.26406018994748592376708984375">
        <ele>516.5999755859375</ele>
        <time>2026-06-20T13:23:13.000Z</time>
        <extensions>
          <ns3:TrackPointExtension>
            <ns3:atemp>30.0</ns3:atemp>
          </ns3:TrackPointExtension>
        </extensions>
      </trkpt>
      <trkpt lat="42.451752908527851104736328125" lon="20.26415775530040264129638671875">
        <ele>516.4000244140625</ele>
        <time>2026-06-20T13:23:14.000Z</time>
        <extensions>
          <ns3:TrackPointExtension>
            <ns3:atemp>30.0</ns3:atemp>
          </ns3:TrackPointExtension>
        </extensions>
      </trkpt>
      <trkpt lat="42.45173790492117404937744140625" lon="20.26425414718687534332275390625">
        <ele>516</ele>
        <time>2026-06-20T13:23:15.000Z</time>
        <extensions>
          <ns3:TrackPointExtension>
            <ns3:atemp>30.0</ns3:atemp>
          </ns3:TrackPointExtension>
        </extensions>
      </trkpt>
      <trkpt lat="42.4517188780009746551513671875" lon="20.2643528021872043609619140625">
        <ele>515.79998779296875</ele>
        <time>2026-06-20T13:23:16.000Z</time>
        <extensions>
          <ns3:TrackPointExtension>
            <ns3:atemp>30.0</ns3:atemp>
          </ns3:TrackPointExtension>
        </extensions>
      </trkpt>
      <trkpt lat="42.4516940675675868988037109375" lon="20.26444441638886928558349609375">
        <ele>515.5999755859375</ele>
        <time>2026-06-20T13:23:17.000Z</time>
        <extensions>
          <ns3:TrackPointExtension>
            <ns3:atemp>30.0</ns3:atemp>
          </ns3:TrackPointExtension>
        </extensions>
      </trkpt>
      <trkpt lat="42.4516709335148334503173828125" lon="20.264538042247295379638671875">
        <ele>515.4000244140625</ele>
        <time>2026-06-20T13:23:18.000Z</time>
        <extensions>
          <ns3:TrackPointExtension>
            <ns3:atemp>30.0</ns3:atemp>
          </ns3:TrackPointExtension>
        </extensions>
      </trkpt>
      <trkpt lat="42.45165106840431690216064453125" lon="20.264631249010562896728515625">
        <ele>515.20001220703125</ele>
        <time>2026-06-20T13:23:19.000Z</time>
        <extensions>
          <ns3:TrackPointExtension>
            <ns3:atemp>30.0</ns3:atemp>
          </ns3:TrackPointExtension>
        </extensions>
      </trkpt>
      <trkpt lat="42.45164369232952594757080078125" lon="20.2647221088409423828125">
        <ele>514.79998779296875</ele>
        <time>2026-06-20T13:23:20.000Z</time>
        <extensions>
          <ns3:TrackPointExtension>
            <ns3:atemp>30.0</ns3:atemp>
          </ns3:TrackPointExtension>
        </extensions>
      </trkpt>
      <trkpt lat="42.45164955966174602508544921875" lon="20.26481254957616329193115234375">
        <ele>514.5999755859375</ele>
        <time>2026-06-20T13:23:21.000Z</time>
        <extensions>
          <ns3:TrackPointExtension>
            <ns3:atemp>30.0</ns3:atemp>
          </ns3:TrackPointExtension>
        </extensions>
      </trkpt>
      <trkpt lat="42.45166950859129428863525390625" lon="20.26489854790270328521728515625">
        <ele>514.4000244140625</ele>
        <time>2026-06-20T13:23:22.000Z</time>
        <extensions>
          <ns3:TrackPointExtension>
            <ns3:atemp>30.0</ns3:atemp>
          </ns3:TrackPointExtension>
        </extensions>
      </trkpt>
      <trkpt lat="42.45170052163302898406982421875" lon="20.264972560107707977294921875">
        <ele>514.4000244140625</ele>
        <time>2026-06-20T13:23:23.000Z</time>
        <extensions>
          <ns3:TrackPointExtension>
            <ns3:atemp>30.0</ns3:atemp>
          </ns3:TrackPointExtension>
        </extensions>
      </trkpt>
      <trkpt lat="42.45173312723636627197265625" lon="20.2650399506092071533203125">
        <ele>514.4000244140625</ele>
        <time>2026-06-20T13:23:24.000Z</time>
        <extensions>
          <ns3:TrackPointExtension>
            <ns3:atemp>30.0</ns3:atemp>
          </ns3:TrackPointExtension>
        </extensions>
      </trkpt>
      <trkpt lat="42.451767660677433013916015625" lon="20.2651068381965160369873046875">
        <ele>514.4000244140625</ele>
        <time>2026-06-20T13:23:25.000Z</time>
        <extensions>
          <ns3:TrackPointExtension>
            <ns3:atemp>30.0</ns3:atemp>
          </ns3:TrackPointExtension>
        </extensions>
      </trkpt>
      <trkpt lat="42.451801858842372894287109375" lon="20.26518185622990131378173828125">
        <ele>514.20001220703125</ele>
        <time>2026-06-20T13:23:26.000Z</time>
        <extensions>
          <ns3:TrackPointExtension>
            <ns3:atemp>30.0</ns3:atemp>
          </ns3:TrackPointExtension>
        </extensions>
      </trkpt>
      <trkpt lat="42.45183236896991729736328125" lon="20.26525896973907947540283203125">
        <ele>514</ele>
        <time>2026-06-20T13:23:27.000Z</time>
        <extensions>
          <ns3:TrackPointExtension>
            <ns3:atemp>30.0</ns3:atemp>
          </ns3:TrackPointExtension>
        </extensions>
      </trkpt>
      <trkpt lat="42.45185441337525844573974609375" lon="20.265338681638240814208984375">
        <ele>513.79998779296875</ele>
        <time>2026-06-20T13:23:28.000Z</time>
        <extensions>
          <ns3:TrackPointExtension>
            <ns3:atemp>30.0</ns3:atemp>
          </ns3:TrackPointExtension>
        </extensions>
      </trkpt>
      <trkpt lat="42.4518679082393646240234375" lon="20.26542224921286106109619140625">
        <ele>513.79998779296875</ele>
        <time>2026-06-20T13:23:29.000Z</time>
        <extensions>
          <ns3:TrackPointExtension>
            <ns3:atemp>30.0</ns3:atemp>
          </ns3:TrackPointExtension>
        </extensions>
      </trkpt>
      <trkpt lat="42.451876290142536163330078125" lon="20.26551143266260623931884765625">
        <ele>513.79998779296875</ele>
        <time>2026-06-20T13:23:30.000Z</time>
        <extensions>
          <ns3:TrackPointExtension>
            <ns3:atemp>30.0</ns3:atemp>
          </ns3:TrackPointExtension>
        </extensions>
      </trkpt>
      <trkpt lat="42.45188375003635883331298828125" lon="20.2656013704836368560791015625">
        <ele>514</ele>
        <time>2026-06-20T13:23:31.000Z</time>
        <extensions>
          <ns3:TrackPointExtension>
            <ns3:atemp>30.0</ns3:atemp>
          </ns3:TrackPointExtension>
        </extensions>
      </trkpt>
      <trkpt lat="42.45189179666340351104736328125" lon="20.26568594388663768768310546875">
        <ele>514</ele>
        <time>2026-06-20T13:23:32.000Z</time>
        <extensions>
          <ns3:TrackPointExtension>
            <ns3:atemp>30.0</ns3:atemp>
          </ns3:TrackPointExtension>
        </extensions>
      </trkpt>
      <trkpt lat="42.45189297012984752655029296875" lon="20.26577110402286052703857421875">
        <ele>514</ele>
        <time>2026-06-20T13:23:33.000Z</time>
        <extensions>
          <ns3:TrackPointExtension>
            <ns3:atemp>30.0</ns3:atemp>
          </ns3:TrackPointExtension>
        </extensions>
      </trkpt>
      <trkpt lat="42.45189146138727664947509765625" lon="20.2658531628549098968505859375">
        <ele>514</ele>
        <time>2026-06-20T13:23:34.000Z</time>
        <extensions>
          <ns3:TrackPointExtension>
            <ns3:atemp>30.0</ns3:atemp>
          </ns3:TrackPointExtension>
        </extensions>
      </trkpt>
      <trkpt lat="42.45189129374921321868896484375" lon="20.265935473144054412841796875">
        <ele>513.79998779296875</ele>
        <time>2026-06-20T13:23:35.000Z</time>
        <extensions>
          <ns3:TrackPointExtension>
            <ns3:atemp>30.0</ns3:atemp>
          </ns3:TrackPointExtension>
        </extensions>
      </trkpt>
      <trkpt lat="42.45189213193953037261962890625" lon="20.26601552031934261322021484375">
        <ele>513.5999755859375</ele>
        <time>2026-06-20T13:23:36.000Z</time>
        <extensions>
          <ns3:TrackPointExtension>
            <ns3:atemp>30.0</ns3:atemp>
          </ns3:TrackPointExtension>
        </extensions>
      </trkpt>
      <trkpt lat="42.45189137756824493408203125" lon="20.266100428998470306396484375">
        <ele>513.4000244140625</ele>
        <time>2026-06-20T13:23:37.000Z</time>
        <extensions>
          <ns3:TrackPointExtension>
            <ns3:atemp>30.0</ns3:atemp>
          </ns3:TrackPointExtension>
        </extensions>
      </trkpt>
      <trkpt lat="42.451885007321834564208984375" lon="20.26618885807693004608154296875">
        <ele>513.20001220703125</ele>
        <time>2026-06-20T13:23:38.000Z</time>
        <extensions>
          <ns3:TrackPointExtension>
            <ns3:atemp>30.0</ns3:atemp>
          </ns3:TrackPointExtension>
        </extensions>
      </trkpt>
      <trkpt lat="42.451876290142536163330078125" lon="20.26628089137375354766845703125">
        <ele>513</ele>
        <time>2026-06-20T13:23:39.000Z</time>
        <extensions>
          <ns3:TrackPointExtension>
            <ns3:atemp>30.0</ns3:atemp>
          </ns3:TrackPointExtension>
        </extensions>
      </trkpt>
      <trkpt lat="42.45186648331582546234130859375" lon="20.26636672206223011016845703125">
        <ele>512.5999755859375</ele>
        <time>2026-06-20T13:23:40.000Z</time>
        <extensions>
          <ns3:TrackPointExtension>
            <ns3:atemp>30.0</ns3:atemp>
          </ns3:TrackPointExtension>
        </extensions>
      </trkpt>
      <trkpt lat="42.45185525156557559967041015625" lon="20.26645925827324390411376953125">
        <ele>512.4000244140625</ele>
        <time>2026-06-20T13:23:41.000Z</time>
        <extensions>
          <ns3:TrackPointExtension>
            <ns3:atemp>30.0</ns3:atemp>
          </ns3:TrackPointExtension>
        </extensions>
      </trkpt>
      <trkpt lat="42.45184452272951602935791015625" lon="20.2665500342845916748046875">
        <ele>512</ele>
        <time>2026-06-20T13:23:42.000Z</time>
        <extensions>
          <ns3:TrackPointExtension>
            <ns3:atemp>30.0</ns3:atemp>
          </ns3:TrackPointExtension>
        </extensions>
      </trkpt>
      <trkpt lat="42.45183429680764675140380859375" lon="20.2666440792381763458251953125">
        <ele>511.600006103515625</ele>
        <time>2026-06-20T13:23:43.000Z</time>
        <extensions>
          <ns3:TrackPointExtension>
            <ns3:atemp>30.0</ns3:atemp>
          </ns3:TrackPointExtension>
        </extensions>
      </trkpt>
      <trkpt lat="42.45182625018060207366943359375" lon="20.26673711836338043212890625">
        <ele>511.20001220703125</ele>
        <time>2026-06-20T13:23:44.000Z</time>
        <extensions>
          <ns3:TrackPointExtension>
            <ns3:atemp>30.0</ns3:atemp>
          </ns3:TrackPointExtension>
        </extensions>
      </trkpt>
      <trkpt lat="42.4518169462680816650390625" lon="20.266833342611789703369140625">
        <ele>511</ele>
        <time>2026-06-20T13:23:45.000Z</time>
        <extensions>
          <ns3:TrackPointExtension>
            <ns3:atemp>30.0</ns3:atemp>
          </ns3:TrackPointExtension>
        </extensions>
      </trkpt>
      <trkpt lat="42.45180730707943439483642578125" lon="20.2669307403266429901123046875">
        <ele>510.600006103515625</ele>
        <time>2026-06-20T13:23:46.000Z</time>
        <extensions>
          <ns3:TrackPointExtension>
            <ns3:atemp>30.0</ns3:atemp>
          </ns3:TrackPointExtension>
        </extensions>
      </trkpt>
      <trkpt lat="42.451797164976596832275390625" lon="20.2670229412615299224853515625">
        <ele>510.399993896484375</ele>
        <time>2026-06-20T13:23:47.000Z</time>
        <extensions>
          <ns3:TrackPointExtension>
            <ns3:atemp>30.0</ns3:atemp>
          </ns3:TrackPointExtension>
        </extensions>
      </trkpt>
      <trkpt lat="42.45178199373185634613037109375" lon="20.267118327319622039794921875">
        <ele>510.20001220703125</ele>
        <time>2026-06-20T13:23:48.000Z</time>
        <extensions>
          <ns3:TrackPointExtension>
            <ns3:atemp>30.0</ns3:atemp>
          </ns3:TrackPointExtension>
        </extensions>
      </trkpt>
      <trkpt lat="42.4517748691141605377197265625" lon="20.26720918715000152587890625">
        <ele>510</ele>
        <time>2026-06-20T13:23:49.000Z</time>
        <extensions>
          <ns3:TrackPointExtension>
            <ns3:atemp>30.0</ns3:atemp>
          </ns3:TrackPointExtension>
        </extensions>
      </trkpt>
      <trkpt lat="42.45176992379128932952880859375" lon="20.26730046607553958892822265625">
        <ele>509.79998779296875</ele>
        <time>2026-06-20T13:23:50.000Z</time>
        <extensions>
          <ns3:TrackPointExtension>
            <ns3:atemp>30.0</ns3:atemp>
          </ns3:TrackPointExtension>
        </extensions>
      </trkpt>
      <trkpt lat="42.45176539756357669830322265625" lon="20.26739157736301422119140625">
        <ele>509.600006103515625</ele>
        <time>2026-06-20T13:23:51.000Z</time>
        <extensions>
          <ns3:TrackPointExtension>
            <ns3:atemp>30.0</ns3:atemp>
          </ns3:TrackPointExtension>
        </extensions>
      </trkpt>
      <trkpt lat="42.451757602393627166748046875" lon="20.26748302392661571502685546875">
        <ele>509.600006103515625</ele>
        <time>2026-06-20T13:23:52.000Z</time>
        <extensions>
          <ns3:TrackPointExtension>
            <ns3:atemp>30.0</ns3:atemp>
          </ns3:TrackPointExtension>
        </extensions>
      </trkpt>
      <trkpt lat="42.451746873557567596435546875" lon="20.26757539249956607818603515625">
        <ele>509.399993896484375</ele>
        <time>2026-06-20T13:23:53.000Z</time>
        <extensions>
          <ns3:TrackPointExtension>
            <ns3:atemp>30.0</ns3:atemp>
          </ns3:TrackPointExtension>
        </extensions>
      </trkpt>
      <trkpt lat="42.4517353065311908721923828125" lon="20.26766826398670673370361328125">
        <ele>509.20001220703125</ele>
        <time>2026-06-20T13:23:54.000Z</time>
        <extensions>
          <ns3:TrackPointExtension>
            <ns3:atemp>30.0</ns3:atemp>
          </ns3:TrackPointExtension>
        </extensions>
      </trkpt>
      <trkpt lat="42.451725415885448455810546875" lon="20.26776063255965709686279296875">
        <ele>509.20001220703125</ele>
        <time>2026-06-20T13:23:55.000Z</time>
        <extensions>
          <ns3:TrackPointExtension>
            <ns3:atemp>30.0</ns3:atemp>
          </ns3:TrackPointExtension>
        </extensions>
      </trkpt>
      <trkpt lat="42.451712675392627716064453125" lon="20.2678554318845272064208984375">
        <ele>509</ele>
        <time>2026-06-20T13:23:56.000Z</time>
        <extensions>
          <ns3:TrackPointExtension>
            <ns3:atemp>30.0</ns3:atemp>
          </ns3:TrackPointExtension>
        </extensions>
      </trkpt>
      <trkpt lat="42.45170496404170989990234375" lon="20.26794486679136753082275390625">
        <ele>508.79998779296875</ele>
        <time>2026-06-20T13:23:57.000Z</time>
        <extensions>
          <ns3:TrackPointExtension>
            <ns3:atemp>30.0</ns3:atemp>
          </ns3:TrackPointExtension>
        </extensions>
      </trkpt>
      <trkpt lat="42.45170253328979015350341796875" lon="20.26803136803209781646728515625">
        <ele>508.79998779296875</ele>
        <time>2026-06-20T13:23:58.000Z</time>
        <extensions>
          <ns3:TrackPointExtension>
            <ns3:atemp>30.0</ns3:atemp>
          </ns3:TrackPointExtension>
        </extensions>
      </trkpt>
      <trkpt lat="42.45170630514621734619140625" lon="20.26811552233994007110595703125">
        <ele>508.79998779296875</ele>
        <time>2026-06-20T13:23:59.000Z</time>
        <extensions>
          <ns3:TrackPointExtension>
            <ns3:atemp>30.0</ns3:atemp>
          </ns3:TrackPointExtension>
        </extensions>
      </trkpt>
      <trkpt lat="42.45171024464070796966552734375" lon="20.26819297112524509429931640625">
        <ele>508.79998779296875</ele>
        <time>2026-06-20T13:24:00.000Z</time>
        <extensions>
          <ns3:TrackPointExtension>
            <ns3:atemp>30.0</ns3:atemp>
          </ns3:TrackPointExtension>
        </extensions>
      </trkpt>
      <trkpt lat="42.451708316802978515625" lon="20.268273018300533294677734375">
        <ele>508.79998779296875</ele>
        <time>2026-06-20T13:24:01.000Z</time>
        <extensions>
          <ns3:TrackPointExtension>
            <ns3:atemp>30.0</ns3:atemp>
          </ns3:TrackPointExtension>
        </extensions>
      </trkpt>
      <trkpt lat="42.45169515721499919891357421875" lon="20.2683471143245697021484375">
        <ele>508.79998779296875</ele>
        <time>2026-06-20T13:24:02.000Z</time>
        <extensions>
          <ns3:TrackPointExtension>
            <ns3:atemp>30.0</ns3:atemp>
          </ns3:TrackPointExtension>
        </extensions>
      </trkpt>
      <trkpt lat="42.451669760048389434814453125" lon="20.268413834273815155029296875">
        <ele>509</ele>
        <time>2026-06-20T13:24:03.000Z</time>
        <extensions>
          <ns3:TrackPointExtension>
            <ns3:atemp>30.0</ns3:atemp>
          </ns3:TrackPointExtension>
        </extensions>
      </trkpt>
      <trkpt lat="42.45163765735924243927001953125" lon="20.26847393251955509185791015625">
        <ele>509</ele>
        <time>2026-06-20T13:24:04.000Z</time>
        <extensions>
          <ns3:TrackPointExtension>
            <ns3:atemp>30.0</ns3:atemp>
          </ns3:TrackPointExtension>
        </extensions>
      </trkpt>
      <trkpt lat="42.45160597376525402069091796875" lon="20.26853444986045360565185546875">
        <ele>509</ele>
        <time>2026-06-20T13:24:05.000Z</time>
        <extensions>
          <ns3:TrackPointExtension>
            <ns3:atemp>30.0</ns3:atemp>
          </ns3:TrackPointExtension>
        </extensions>
      </trkpt>
      <trkpt lat="42.45157429017126560211181640625" lon="20.2686000801622867584228515625">
        <ele>508.79998779296875</ele>
        <time>2026-06-20T13:24:06.000Z</time>
        <extensions>
          <ns3:TrackPointExtension>
            <ns3:atemp>30.0</ns3:atemp>
          </ns3:TrackPointExtension>
        </extensions>
      </trkpt>
      <trkpt lat="42.4515452049672603607177734375" lon="20.2686654590070247650146484375">
        <ele>508.79998779296875</ele>
        <time>2026-06-20T13:24:07.000Z</time>
        <extensions>
          <ns3:TrackPointExtension>
            <ns3:atemp>30.0</ns3:atemp>
          </ns3:TrackPointExtension>
        </extensions>
      </trkpt>
      <trkpt lat="42.4515150301158428192138671875" lon="20.26872404851019382476806640625">
        <ele>508.79998779296875</ele>
        <time>2026-06-20T13:24:08.000Z</time>
        <extensions>
          <ns3:TrackPointExtension>
            <ns3:atemp>30.0</ns3:atemp>
          </ns3:TrackPointExtension>
        </extensions>
      </trkpt>
      <trkpt lat="42.4514831788837909698486328125" lon="20.268781967461109161376953125">
        <ele>508.79998779296875</ele>
        <time>2026-06-20T13:24:09.000Z</time>
        <extensions>
          <ns3:TrackPointExtension>
            <ns3:atemp>30.0</ns3:atemp>
          </ns3:TrackPointExtension>
        </extensions>
      </trkpt>
      <trkpt lat="42.4514521658420562744140625" lon="20.268836282193660736083984375">
        <ele>509.20001220703125</ele>
        <time>2026-06-20T13:24:10.000Z</time>
        <extensions>
          <ns3:TrackPointExtension>
            <ns3:atemp>30.0</ns3:atemp>
          </ns3:TrackPointExtension>
        </extensions>
      </trkpt>
      <trkpt lat="42.45141872204840183258056640625" lon="20.26889436878263950347900390625">
        <ele>509.399993896484375</ele>
        <time>2026-06-20T13:24:11.000Z</time>
        <extensions>
          <ns3:TrackPointExtension>
            <ns3:atemp>30.0</ns3:atemp>
          </ns3:TrackPointExtension>
        </extensions>
      </trkpt>
      <trkpt lat="42.4513852782547473907470703125" lon="20.2689527906477451324462890625">
        <ele>509.79998779296875</ele>
        <time>2026-06-20T13:24:12.000Z</time>
        <extensions>
          <ns3:TrackPointExtension>
            <ns3:atemp>30.0</ns3:atemp>
          </ns3:TrackPointExtension>
        </extensions>
      </trkpt>
      <trkpt lat="42.4513494037091732025146484375" lon="20.26900853030383586883544921875">
        <ele>510</ele>
        <time>2026-06-20T13:24:13.000Z</time>
        <extensions>
          <ns3:TrackPointExtension>
            <ns3:atemp>30.0</ns3:atemp>
          </ns3:TrackPointExtension>
        </extensions>
      </trkpt>
      <trkpt lat="42.45131411589682102203369140625" lon="20.26905991137027740478515625">
        <ele>510.20001220703125</ele>
        <time>2026-06-20T13:24:14.000Z</time>
        <extensions>
          <ns3:TrackPointExtension>
            <ns3:atemp>30.0</ns3:atemp>
          </ns3:TrackPointExtension>
        </extensions>
      </trkpt>
      <trkpt lat="42.451278157532215118408203125" lon="20.26910928077995777130126953125">
        <ele>510.20001220703125</ele>
        <time>2026-06-20T13:24:15.000Z</time>
        <extensions>
          <ns3:TrackPointExtension>
            <ns3:atemp>30.0</ns3:atemp>
          </ns3:TrackPointExtension>
        </extensions>
      </trkpt>
      <trkpt lat="42.45124370791018009185791015625" lon="20.26915404014289379119873046875">
        <ele>510.20001220703125</ele>
        <time>2026-06-20T13:24:16.000Z</time>
        <extensions>
          <ns3:TrackPointExtension>
            <ns3:atemp>30.0</ns3:atemp>
          </ns3:TrackPointExtension>
        </extensions>
      </trkpt>
      <trkpt lat="42.45121068321168422698974609375" lon="20.26919804513454437255859375">
        <ele>510.20001220703125</ele>
        <time>2026-06-20T13:24:17.000Z</time>
        <extensions>
          <ns3:TrackPointExtension>
            <ns3:atemp>30.0</ns3:atemp>
          </ns3:TrackPointExtension>
        </extensions>
      </trkpt>
      <trkpt lat="42.451178245246410369873046875" lon="20.26924364268779754638671875">
        <ele>510.399993896484375</ele>
        <time>2026-06-20T13:24:18.000Z</time>
        <extensions>
          <ns3:TrackPointExtension>
            <ns3:atemp>30.0</ns3:atemp>
          </ns3:TrackPointExtension>
        </extensions>
      </trkpt>
      <trkpt lat="42.45114664547145366668701171875" lon="20.26929083280265331268310546875">
        <ele>510.399993896484375</ele>
        <time>2026-06-20T13:24:19.000Z</time>
        <extensions>
          <ns3:TrackPointExtension>
            <ns3:atemp>30.0</ns3:atemp>
          </ns3:TrackPointExtension>
        </extensions>
      </trkpt>
      <trkpt lat="42.45111756026744842529296875" lon="20.2693353407084941864013671875">
        <ele>510.600006103515625</ele>
        <time>2026-06-20T13:24:20.000Z</time>
        <extensions>
          <ns3:TrackPointExtension>
            <ns3:atemp>30.0</ns3:atemp>
          </ns3:TrackPointExtension>
        </extensions>
      </trkpt>
      <trkpt lat="42.45109266601502895355224609375" lon="20.2693770825862884521484375">
        <ele>510.79998779296875</ele>
        <time>2026-06-20T13:24:21.000Z</time>
        <extensions>
          <ns3:TrackPointExtension>
            <ns3:atemp>30.0</ns3:atemp>
          </ns3:TrackPointExtension>
        </extensions>
      </trkpt>
      <trkpt lat="42.4510707892477512359619140625" lon="20.26941941119730472564697265625">
        <ele>511</ele>
        <time>2026-06-20T13:24:22.000Z</time>
        <extensions>
          <ns3:TrackPointExtension>
            <ns3:atemp>30.0</ns3:atemp>
          </ns3:TrackPointExtension>
        </extensions>
      </trkpt>
      <trkpt lat="42.4510536901652812957763671875" lon="20.269457213580608367919921875">
        <ele>511.20001220703125</ele>
        <time>2026-06-20T13:24:23.000Z</time>
        <extensions>
          <ns3:TrackPointExtension>
            <ns3:atemp>30.0</ns3:atemp>
          </ns3:TrackPointExtension>
        </extensions>
      </trkpt>
      <trkpt lat="42.4510426260530948638916015625" lon="20.2694895677268505096435546875">
        <ele>511.399993896484375</ele>
        <time>2026-06-20T13:24:24.000Z</time>
        <extensions>
          <ns3:TrackPointExtension>
            <ns3:atemp>30.0</ns3:atemp>
          </ns3:TrackPointExtension>
        </extensions>
      </trkpt>
      <trkpt lat="42.45103131048381328582763671875" lon="20.26951563544571399688720703125">
        <ele>511.399993896484375</ele>
        <time>2026-06-20T13:24:25.000Z</time>
        <extensions>
          <ns3:TrackPointExtension>
            <ns3:atemp>30.0</ns3:atemp>
          </ns3:TrackPointExtension>
        </extensions>
      </trkpt>
      <trkpt lat="42.451016642153263092041015625" lon="20.26953625492751598358154296875">
        <ele>511.600006103515625</ele>
        <time>2026-06-20T13:24:26.000Z</time>
        <extensions>
          <ns3:TrackPointExtension>
            <ns3:atemp>30.0</ns3:atemp>
          </ns3:TrackPointExtension>
        </extensions>
      </trkpt>
      <trkpt lat="42.45100348256528377532958984375" lon="20.2695455588400363922119140625">
        <ele>511.600006103515625</ele>
        <time>2026-06-20T13:24:27.000Z</time>
        <extensions>
          <ns3:TrackPointExtension>
            <ns3:atemp>30.0</ns3:atemp>
          </ns3:TrackPointExtension>
        </extensions>
      </trkpt>
      <trkpt lat="42.45099845342338085174560546875" lon="20.26954698376357555389404296875">
        <ele>511.79998779296875</ele>
        <time>2026-06-20T13:24:28.000Z</time>
        <extensions>
          <ns3:TrackPointExtension>
            <ns3:atemp>30.0</ns3:atemp>
          </ns3:TrackPointExtension>
        </extensions>
      </trkpt>
      <trkpt lat="42.45099484920501708984375" lon="20.2695505879819393157958984375">
        <ele>511.79998779296875</ele>
        <time>2026-06-20T13:24:29.000Z</time>
        <extensions>
          <ns3:TrackPointExtension>
            <ns3:atemp>30.0</ns3:atemp>
          </ns3:TrackPointExtension>
        </extensions>
      </trkpt>
      <trkpt lat="42.4509946815669536590576171875" lon="20.26955067180097103118896484375">
        <ele>511.79998779296875</ele>
        <time>2026-06-20T13:24:30.000Z</time>
        <extensions>
          <ns3:TrackPointExtension>
            <ns3:atemp>30.0</ns3:atemp>
          </ns3:TrackPointExtension>
        </extensions>
      </trkpt>
      <trkpt lat="42.4509946815669536590576171875" lon="20.26955067180097103118896484375">
        <ele>511.79998779296875</ele>
        <time>2026-06-20T13:24:31.000Z</time>
        <extensions>
          <ns3:TrackPointExtension>
            <ns3:atemp>30.0</ns3:atemp>
          </ns3:TrackPointExtension>
        </extensions>
      </trkpt>
      <trkpt lat="42.4509946815669536590576171875" lon="20.26955067180097103118896484375">
        <ele>511.79998779296875</ele>
        <time>2026-06-20T13:24:32.000Z</time>
        <extensions>
          <ns3:TrackPointExtension>
            <ns3:atemp>30.0</ns3:atemp>
          </ns3:TrackPointExtension>
        </extensions>
      </trkpt>
      <trkpt lat="42.4509946815669536590576171875" lon="20.26955067180097103118896484375">
        <ele>511.79998779296875</ele>
        <time>2026-06-20T13:24:33.000Z</time>
        <extensions>
          <ns3:TrackPointExtension>
            <ns3:atemp>31.0</ns3:atemp>
          </ns3:TrackPointExtension>
        </extensions>
      </trkpt>
    </trkseg>
  </trk>
</gpx>
